<?xml version="1.0" encoding="UTF-8"?>
<gpx version="1.1" creator="https://www.youtrack.es" xsi:schemaLocation="http://www.topografix.com/GPX/1/1 http://www.topografix.com/GPX/1/1/gpx.xsd http://www.garmin.com/xmlschemas/GpxExtensions/v3 http://www.garmin.com/xmlschemas/GpxExtensionsv3.xsd http://www.garmin.com/xmlschemas/TrackPointExtension/v1 http://www.garmin.com/xmlschemas/TrackPointExtensionv1.xsd" xmlns:gpxtpx="http://www.garmin.com/xmlschemas/TrackPointExtension/v1" xmlns:gpxx="http://www.garmin.com/xmlschemas/GpxExtensions/v3" xmlns:xsi="http://www.w3.org/2001/XMLSchema-instance">
  <metadata>
    <link href="https://www.youtrack.es">
      <text>YouTrack.es</text>
    </link>
    <time>2026-05-08T10:45:58Z</time>
  </metadata>
  <trk>
    <src>https://www.youtrack.es</src>
    <link href="https://www.youtrack.es/ruta/14996-terra-alta-i-ribera">
      <text>YouTrack.es</text>
    </link>
    <trkseg>
      <trkpt lat="41.1824910" lon="0.5690570">
        <ele>37.8</ele>
        <time>2020-08-06T07:55:08Z</time>
      </trkpt>
      <trkpt lat="41.1824850" lon="0.5690480">
        <ele>37.8</ele>
        <time>2020-08-06T07:55:09Z</time>
      </trkpt>
      <trkpt lat="41.1824650" lon="0.5690220">
        <ele>37.8</ele>
        <time>2020-08-06T07:55:10Z</time>
      </trkpt>
      <trkpt lat="41.1824550" lon="0.5690120">
        <ele>38.1</ele>
        <time>2020-08-06T07:55:11Z</time>
      </trkpt>
      <trkpt lat="41.1824600" lon="0.5690250">
        <ele>37.8</ele>
        <time>2020-08-06T07:55:13Z</time>
      </trkpt>
      <trkpt lat="41.1824620" lon="0.5690420">
        <ele>37.8</ele>
        <time>2020-08-06T07:55:15Z</time>
      </trkpt>
      <trkpt lat="41.1824580" lon="0.5690380">
        <ele>37.8</ele>
        <time>2020-08-06T07:55:17Z</time>
      </trkpt>
      <trkpt lat="41.1824610" lon="0.5690280">
        <ele>37.8</ele>
        <time>2020-08-06T07:55:18Z</time>
      </trkpt>
      <trkpt lat="41.1824660" lon="0.5689980">
        <ele>38.1</ele>
        <time>2020-08-06T07:55:20Z</time>
      </trkpt>
      <trkpt lat="41.1824630" lon="0.5689820">
        <ele>38.1</ele>
        <time>2020-08-06T07:55:21Z</time>
      </trkpt>
      <trkpt lat="41.1824560" lon="0.5689730">
        <ele>38.1</ele>
        <time>2020-08-06T07:55:22Z</time>
      </trkpt>
      <trkpt lat="41.1824510" lon="0.5689640">
        <ele>38.4</ele>
        <time>2020-08-06T07:55:23Z</time>
      </trkpt>
      <trkpt lat="41.1824490" lon="0.5689440">
        <ele>38.4</ele>
        <time>2020-08-06T07:55:25Z</time>
      </trkpt>
      <trkpt lat="41.1824430" lon="0.5689010">
        <ele>38.8</ele>
        <time>2020-08-06T07:55:27Z</time>
      </trkpt>
      <trkpt lat="41.1824400" lon="0.5688720">
        <ele>39.1</ele>
        <time>2020-08-06T07:55:28Z</time>
      </trkpt>
      <trkpt lat="41.1824530" lon="0.5688340">
        <ele>39.5</ele>
        <time>2020-08-06T07:55:30Z</time>
      </trkpt>
      <trkpt lat="41.1824760" lon="0.5687950">
        <ele>39.9</ele>
        <time>2020-08-06T07:55:32Z</time>
      </trkpt>
      <trkpt lat="41.1825120" lon="0.5687640">
        <ele>39.9</ele>
        <time>2020-08-06T07:55:34Z</time>
      </trkpt>
      <trkpt lat="41.1825420" lon="0.5687470">
        <ele>40.3</ele>
        <time>2020-08-06T07:55:35Z</time>
      </trkpt>
      <trkpt lat="41.1825510" lon="0.5687400">
        <ele>40.3</ele>
        <time>2020-08-06T07:55:36Z</time>
      </trkpt>
      <trkpt lat="41.1825820" lon="0.5687110">
        <ele>40.7</ele>
        <time>2020-08-06T07:55:38Z</time>
      </trkpt>
      <trkpt lat="41.1825880" lon="0.5686850">
        <ele>40.7</ele>
        <time>2020-08-06T07:55:40Z</time>
      </trkpt>
      <trkpt lat="41.1825840" lon="0.5686630">
        <ele>41.1</ele>
        <time>2020-08-06T07:55:41Z</time>
      </trkpt>
      <trkpt lat="41.1825600" lon="0.5686300">
        <ele>41.1</ele>
        <time>2020-08-06T07:55:43Z</time>
      </trkpt>
      <trkpt lat="41.1825460" lon="0.5686290">
        <ele>41.1</ele>
        <time>2020-08-06T07:55:44Z</time>
      </trkpt>
      <trkpt lat="41.1825330" lon="0.5686390">
        <ele>41.1</ele>
        <time>2020-08-06T07:55:45Z</time>
      </trkpt>
      <trkpt lat="41.1825170" lon="0.5686800">
        <ele>40.7</ele>
        <time>2020-08-06T07:55:47Z</time>
      </trkpt>
      <trkpt lat="41.1825100" lon="0.5687210">
        <ele>40.3</ele>
        <time>2020-08-06T07:55:49Z</time>
      </trkpt>
      <trkpt lat="41.1825070" lon="0.5687440">
        <ele>40.3</ele>
        <time>2020-08-06T07:55:51Z</time>
      </trkpt>
      <trkpt lat="41.1825070" lon="0.5687500">
        <ele>40.3</ele>
        <time>2020-08-06T07:55:52Z</time>
      </trkpt>
      <trkpt lat="41.1825100" lon="0.5687550">
        <ele>40.3</ele>
        <time>2020-08-06T07:55:54Z</time>
      </trkpt>
      <trkpt lat="41.1825120" lon="0.5687580">
        <ele>39.9</ele>
        <time>2020-08-06T07:55:55Z</time>
      </trkpt>
      <trkpt lat="41.1825090" lon="0.5687710">
        <ele>39.9</ele>
        <time>2020-08-06T07:55:57Z</time>
      </trkpt>
      <trkpt lat="41.1825070" lon="0.5687770">
        <ele>39.9</ele>
        <time>2020-08-06T07:55:58Z</time>
      </trkpt>
      <trkpt lat="41.1825040" lon="0.5687830">
        <ele>39.9</ele>
        <time>2020-08-06T07:56:00Z</time>
      </trkpt>
      <trkpt lat="41.1825010" lon="0.5687890">
        <ele>39.9</ele>
        <time>2020-08-06T07:56:02Z</time>
      </trkpt>
      <trkpt lat="41.1824990" lon="0.5687950">
        <ele>39.9</ele>
        <time>2020-08-06T07:56:03Z</time>
      </trkpt>
      <trkpt lat="41.1824960" lon="0.5688010">
        <ele>39.5</ele>
        <time>2020-08-06T07:56:05Z</time>
      </trkpt>
      <trkpt lat="41.1824940" lon="0.5688080">
        <ele>39.5</ele>
        <time>2020-08-06T07:56:06Z</time>
      </trkpt>
      <trkpt lat="41.1824910" lon="0.5688140">
        <ele>39.5</ele>
        <time>2020-08-06T07:56:07Z</time>
      </trkpt>
      <trkpt lat="41.1824880" lon="0.5688200">
        <ele>39.5</ele>
        <time>2020-08-06T07:56:08Z</time>
      </trkpt>
      <trkpt lat="41.1824860" lon="0.5688260">
        <ele>39.5</ele>
        <time>2020-08-06T07:56:10Z</time>
      </trkpt>
      <trkpt lat="41.1824830" lon="0.5688320">
        <ele>39.5</ele>
        <time>2020-08-06T07:56:20Z</time>
      </trkpt>
      <trkpt lat="41.1824800" lon="0.5688380">
        <ele>39.5</ele>
        <time>2020-08-06T07:56:21Z</time>
      </trkpt>
      <trkpt lat="41.1824780" lon="0.5688440">
        <ele>39.2</ele>
        <time>2020-08-06T07:56:22Z</time>
      </trkpt>
      <trkpt lat="41.1824750" lon="0.5688500">
        <ele>39.2</ele>
        <time>2020-08-06T07:56:23Z</time>
      </trkpt>
      <trkpt lat="41.1824670" lon="0.5688670">
        <ele>39.2</ele>
        <time>2020-08-06T07:56:24Z</time>
      </trkpt>
      <trkpt lat="41.1824550" lon="0.5688850">
        <ele>39.1</ele>
        <time>2020-08-06T07:56:25Z</time>
      </trkpt>
      <trkpt lat="41.1824320" lon="0.5689080">
        <ele>38.8</ele>
        <time>2020-08-06T07:56:26Z</time>
      </trkpt>
      <trkpt lat="41.1824240" lon="0.5689140">
        <ele>38.8</ele>
        <time>2020-08-06T07:56:27Z</time>
      </trkpt>
      <trkpt lat="41.1824110" lon="0.5689190">
        <ele>38.8</ele>
        <time>2020-08-06T07:56:28Z</time>
      </trkpt>
      <trkpt lat="41.1824130" lon="0.5689140">
        <ele>38.8</ele>
        <time>2020-08-06T07:56:34Z</time>
      </trkpt>
      <trkpt lat="41.1824150" lon="0.5689100">
        <ele>38.8</ele>
        <time>2020-08-06T07:56:35Z</time>
      </trkpt>
      <trkpt lat="41.1824170" lon="0.5689050">
        <ele>38.8</ele>
        <time>2020-08-06T07:56:37Z</time>
      </trkpt>
      <trkpt lat="41.1824180" lon="0.5689010">
        <ele>38.8</ele>
        <time>2020-08-06T07:56:39Z</time>
      </trkpt>
      <trkpt lat="41.1824200" lon="0.5688960">
        <ele>38.8</ele>
        <time>2020-08-06T07:56:40Z</time>
      </trkpt>
      <trkpt lat="41.1824220" lon="0.5688920">
        <ele>38.8</ele>
        <time>2020-08-06T07:56:41Z</time>
      </trkpt>
      <trkpt lat="41.1824240" lon="0.5688870">
        <ele>38.8</ele>
        <time>2020-08-06T07:56:42Z</time>
      </trkpt>
      <trkpt lat="41.1824260" lon="0.5688830">
        <ele>39.1</ele>
        <time>2020-08-06T07:56:43Z</time>
      </trkpt>
      <trkpt lat="41.1824280" lon="0.5688790">
        <ele>39.1</ele>
        <time>2020-08-06T07:56:44Z</time>
      </trkpt>
      <trkpt lat="41.1824300" lon="0.5688740">
        <ele>39.1</ele>
        <time>2020-08-06T07:56:45Z</time>
      </trkpt>
      <trkpt lat="41.1824320" lon="0.5688700">
        <ele>39.1</ele>
        <time>2020-08-06T07:56:46Z</time>
      </trkpt>
      <trkpt lat="41.1824340" lon="0.5688650">
        <ele>39.1</ele>
        <time>2020-08-06T07:56:48Z</time>
      </trkpt>
      <trkpt lat="41.1824350" lon="0.5688610">
        <ele>39.1</ele>
        <time>2020-08-06T07:56:51Z</time>
      </trkpt>
      <trkpt lat="41.1824370" lon="0.5688560">
        <ele>39.1</ele>
        <time>2020-08-06T07:56:52Z</time>
      </trkpt>
      <trkpt lat="41.1824390" lon="0.5688520">
        <ele>39.1</ele>
        <time>2020-08-06T07:58:11Z</time>
      </trkpt>
      <trkpt lat="41.1824410" lon="0.5688470">
        <ele>39.1</ele>
        <time>2020-08-06T07:58:12Z</time>
      </trkpt>
      <trkpt lat="41.1824430" lon="0.5688430">
        <ele>39.1</ele>
        <time>2020-08-06T07:58:13Z</time>
      </trkpt>
      <trkpt lat="41.1824560" lon="0.5688670">
        <ele>39.1</ele>
        <time>2020-08-06T07:58:14Z</time>
      </trkpt>
      <trkpt lat="41.1824750" lon="0.5689230">
        <ele>38.8</ele>
        <time>2020-08-06T07:58:16Z</time>
      </trkpt>
      <trkpt lat="41.1824770" lon="0.5689870">
        <ele>38.1</ele>
        <time>2020-08-06T07:58:18Z</time>
      </trkpt>
      <trkpt lat="41.1824730" lon="0.5690160">
        <ele>37.8</ele>
        <time>2020-08-06T07:58:19Z</time>
      </trkpt>
      <trkpt lat="41.1824620" lon="0.5690560">
        <ele>37.8</ele>
        <time>2020-08-06T07:58:21Z</time>
      </trkpt>
      <trkpt lat="41.1824550" lon="0.5690680">
        <ele>37.5</ele>
        <time>2020-08-06T07:58:23Z</time>
      </trkpt>
      <trkpt lat="41.1824520" lon="0.5690690">
        <ele>37.5</ele>
        <time>2020-08-06T07:58:24Z</time>
      </trkpt>
      <trkpt lat="41.1824500" lon="0.5690750">
        <ele>37.5</ele>
        <time>2020-08-06T07:58:26Z</time>
      </trkpt>
      <trkpt lat="41.1824490" lon="0.5690790">
        <ele>37.5</ele>
        <time>2020-08-06T07:58:27Z</time>
      </trkpt>
      <trkpt lat="41.1824480" lon="0.5690840">
        <ele>37.5</ele>
        <time>2020-08-06T07:58:28Z</time>
      </trkpt>
      <trkpt lat="41.1824470" lon="0.5690890">
        <ele>37.5</ele>
        <time>2020-08-06T07:58:30Z</time>
      </trkpt>
      <trkpt lat="41.1824470" lon="0.5690900">
        <ele>37.5</ele>
        <time>2020-08-06T07:58:31Z</time>
      </trkpt>
      <trkpt lat="41.1824470" lon="0.5690900">
        <ele>37.5</ele>
        <time>2020-08-06T07:58:32Z</time>
      </trkpt>
      <trkpt lat="41.1824470" lon="0.5690890">
        <ele>37.5</ele>
        <time>2020-08-06T07:58:33Z</time>
      </trkpt>
      <trkpt lat="41.1824440" lon="0.5690880">
        <ele>37.5</ele>
        <time>2020-08-06T07:58:35Z</time>
      </trkpt>
      <trkpt lat="41.1824450" lon="0.5690840">
        <ele>37.5</ele>
        <time>2020-08-06T07:58:36Z</time>
      </trkpt>
      <trkpt lat="41.1824550" lon="0.5690720">
        <ele>37.5</ele>
        <time>2020-08-06T07:58:37Z</time>
      </trkpt>
      <trkpt lat="41.1824780" lon="0.5690590">
        <ele>37.5</ele>
        <time>2020-08-06T07:58:39Z</time>
      </trkpt>
      <trkpt lat="41.1825040" lon="0.5690320">
        <ele>37.9</ele>
        <time>2020-08-06T07:58:40Z</time>
      </trkpt>
      <trkpt lat="41.1825100" lon="0.5690220">
        <ele>37.9</ele>
        <time>2020-08-06T07:58:41Z</time>
      </trkpt>
      <trkpt lat="41.1825050" lon="0.5689640">
        <ele>38.5</ele>
        <time>2020-08-06T07:58:43Z</time>
      </trkpt>
      <trkpt lat="41.1824990" lon="0.5689450">
        <ele>38.5</ele>
        <time>2020-08-06T07:58:44Z</time>
      </trkpt>
      <trkpt lat="41.1824940" lon="0.5689260">
        <ele>38.8</ele>
        <time>2020-08-06T07:58:45Z</time>
      </trkpt>
      <trkpt lat="41.1825060" lon="0.5688500">
        <ele>39.2</ele>
        <time>2020-08-06T07:58:47Z</time>
      </trkpt>
      <trkpt lat="41.1825220" lon="0.5688170">
        <ele>39.6</ele>
        <time>2020-08-06T07:58:48Z</time>
      </trkpt>
      <trkpt lat="41.1825670" lon="0.5687800">
        <ele>40.0</ele>
        <time>2020-08-06T07:58:50Z</time>
      </trkpt>
      <trkpt lat="41.1825960" lon="0.5686320">
        <ele>41.1</ele>
        <time>2020-08-06T07:58:57Z</time>
      </trkpt>
      <trkpt lat="41.1825840" lon="0.5686140">
        <ele>41.2</ele>
        <time>2020-08-06T07:58:58Z</time>
      </trkpt>
      <trkpt lat="41.1825450" lon="0.5685610">
        <ele>41.7</ele>
        <time>2020-08-06T07:59:00Z</time>
      </trkpt>
      <trkpt lat="41.1825350" lon="0.5685460">
        <ele>41.7</ele>
        <time>2020-08-06T07:59:01Z</time>
      </trkpt>
      <trkpt lat="41.1825210" lon="0.5685210">
        <ele>41.9</ele>
        <time>2020-08-06T07:59:03Z</time>
      </trkpt>
      <trkpt lat="41.1825040" lon="0.5684950">
        <ele>42.0</ele>
        <time>2020-08-06T07:59:05Z</time>
      </trkpt>
      <trkpt lat="41.1824970" lon="0.5684860">
        <ele>42.1</ele>
        <time>2020-08-06T07:59:06Z</time>
      </trkpt>
      <trkpt lat="41.1824910" lon="0.5684810">
        <ele>42.1</ele>
        <time>2020-08-06T07:59:07Z</time>
      </trkpt>
      <trkpt lat="41.1824850" lon="0.5684780">
        <ele>42.1</ele>
        <time>2020-08-06T07:59:08Z</time>
      </trkpt>
      <trkpt lat="41.1824770" lon="0.5684760">
        <ele>42.2</ele>
        <time>2020-08-06T07:59:09Z</time>
      </trkpt>
      <trkpt lat="41.1824700" lon="0.5684740">
        <ele>42.2</ele>
        <time>2020-08-06T07:59:10Z</time>
      </trkpt>
      <trkpt lat="41.1824490" lon="0.5684620">
        <ele>42.4</ele>
        <time>2020-08-06T07:59:13Z</time>
      </trkpt>
      <trkpt lat="41.1824480" lon="0.5684550">
        <ele>42.4</ele>
        <time>2020-08-06T07:59:14Z</time>
      </trkpt>
      <trkpt lat="41.1824500" lon="0.5684480">
        <ele>42.5</ele>
        <time>2020-08-06T07:59:15Z</time>
      </trkpt>
      <trkpt lat="41.1824540" lon="0.5684410">
        <ele>42.5</ele>
        <time>2020-08-06T07:59:17Z</time>
      </trkpt>
      <trkpt lat="41.1824580" lon="0.5684390">
        <ele>42.5</ele>
        <time>2020-08-06T07:59:18Z</time>
      </trkpt>
      <trkpt lat="41.1824610" lon="0.5684410">
        <ele>42.6</ele>
        <time>2020-08-06T07:59:19Z</time>
      </trkpt>
      <trkpt lat="41.1824630" lon="0.5684430">
        <ele>42.6</ele>
        <time>2020-08-06T07:59:20Z</time>
      </trkpt>
      <trkpt lat="41.1824630" lon="0.5684440">
        <ele>42.6</ele>
        <time>2020-08-06T07:59:21Z</time>
      </trkpt>
      <trkpt lat="41.1824620" lon="0.5684440">
        <ele>42.6</ele>
        <time>2020-08-06T07:59:22Z</time>
      </trkpt>
      <trkpt lat="41.1824600" lon="0.5684440">
        <ele>42.6</ele>
        <time>2020-08-06T07:59:24Z</time>
      </trkpt>
      <trkpt lat="41.1824590" lon="0.5684450">
        <ele>42.6</ele>
        <time>2020-08-06T07:59:26Z</time>
      </trkpt>
      <trkpt lat="41.1824590" lon="0.5684450">
        <ele>42.6</ele>
        <time>2020-08-06T07:59:27Z</time>
      </trkpt>
      <trkpt lat="41.1824590" lon="0.5684450">
        <ele>42.6</ele>
        <time>2020-08-06T07:59:29Z</time>
      </trkpt>
      <trkpt lat="41.1824660" lon="0.5683850">
        <ele>42.9</ele>
        <time>2020-08-06T08:02:46Z</time>
      </trkpt>
      <trkpt lat="41.1824710" lon="0.5683740">
        <ele>43.0</ele>
        <time>2020-08-06T08:02:47Z</time>
      </trkpt>
      <trkpt lat="41.1824800" lon="0.5683600">
        <ele>43.1</ele>
        <time>2020-08-06T08:02:49Z</time>
      </trkpt>
      <trkpt lat="41.1824820" lon="0.5683610">
        <ele>43.1</ele>
        <time>2020-08-06T08:02:51Z</time>
      </trkpt>
      <trkpt lat="41.1824820" lon="0.5683630">
        <ele>43.1</ele>
        <time>2020-08-06T08:02:52Z</time>
      </trkpt>
      <trkpt lat="41.1824800" lon="0.5683670">
        <ele>43.1</ele>
        <time>2020-08-06T08:02:58Z</time>
      </trkpt>
      <trkpt lat="41.1824800" lon="0.5683670">
        <ele>43.1</ele>
        <time>2020-08-06T08:02:59Z</time>
      </trkpt>
      <trkpt lat="41.1824810" lon="0.5683520">
        <ele>43.2</ele>
        <time>2020-08-06T08:03:54Z</time>
      </trkpt>
      <trkpt lat="41.1824790" lon="0.5683470">
        <ele>43.2</ele>
        <time>2020-08-06T08:03:55Z</time>
      </trkpt>
      <trkpt lat="41.1824730" lon="0.5683390">
        <ele>43.2</ele>
        <time>2020-08-06T08:03:57Z</time>
      </trkpt>
      <trkpt lat="41.1824660" lon="0.5683450">
        <ele>43.3</ele>
        <time>2020-08-06T08:03:59Z</time>
      </trkpt>
      <trkpt lat="41.1824640" lon="0.5683530">
        <ele>43.3</ele>
        <time>2020-08-06T08:04:00Z</time>
      </trkpt>
      <trkpt lat="41.1824590" lon="0.5683440">
        <ele>43.4</ele>
        <time>2020-08-06T08:04:02Z</time>
      </trkpt>
      <trkpt lat="41.1824490" lon="0.5683310">
        <ele>43.4</ele>
        <time>2020-08-06T08:04:04Z</time>
      </trkpt>
      <trkpt lat="41.1824430" lon="0.5683210">
        <ele>43.5</ele>
        <time>2020-08-06T08:04:05Z</time>
      </trkpt>
      <trkpt lat="41.1824450" lon="0.5683020">
        <ele>43.5</ele>
        <time>2020-08-06T08:04:06Z</time>
      </trkpt>
      <trkpt lat="41.1824520" lon="0.5682650">
        <ele>43.6</ele>
        <time>2020-08-06T08:04:08Z</time>
      </trkpt>
      <trkpt lat="41.1824590" lon="0.5682440">
        <ele>43.7</ele>
        <time>2020-08-06T08:04:09Z</time>
      </trkpt>
      <trkpt lat="41.1824640" lon="0.5682280">
        <ele>43.8</ele>
        <time>2020-08-06T08:04:10Z</time>
      </trkpt>
      <trkpt lat="41.1824680" lon="0.5682080">
        <ele>43.8</ele>
        <time>2020-08-06T08:04:11Z</time>
      </trkpt>
      <trkpt lat="41.1824730" lon="0.5681960">
        <ele>43.8</ele>
        <time>2020-08-06T08:04:12Z</time>
      </trkpt>
      <trkpt lat="41.1824980" lon="0.5681680">
        <ele>43.9</ele>
        <time>2020-08-06T08:04:14Z</time>
      </trkpt>
      <trkpt lat="41.1825420" lon="0.5681340">
        <ele>44.0</ele>
        <time>2020-08-06T08:04:16Z</time>
      </trkpt>
      <trkpt lat="41.1825610" lon="0.5681170">
        <ele>44.0</ele>
        <time>2020-08-06T08:04:17Z</time>
      </trkpt>
      <trkpt lat="41.1825930" lon="0.5680940">
        <ele>44.1</ele>
        <time>2020-08-06T08:04:19Z</time>
      </trkpt>
      <trkpt lat="41.1826200" lon="0.5680740">
        <ele>44.1</ele>
        <time>2020-08-06T08:04:20Z</time>
      </trkpt>
      <trkpt lat="41.1826280" lon="0.5680670">
        <ele>44.1</ele>
        <time>2020-08-06T08:04:21Z</time>
      </trkpt>
      <trkpt lat="41.1826550" lon="0.5680430">
        <ele>44.2</ele>
        <time>2020-08-06T08:04:22Z</time>
      </trkpt>
      <trkpt lat="41.1826630" lon="0.5680370">
        <ele>44.2</ele>
        <time>2020-08-06T08:04:23Z</time>
      </trkpt>
      <trkpt lat="41.1826950" lon="0.5680090">
        <ele>44.2</ele>
        <time>2020-08-06T08:04:25Z</time>
      </trkpt>
      <trkpt lat="41.1827230" lon="0.5679860">
        <ele>44.3</ele>
        <time>2020-08-06T08:04:26Z</time>
      </trkpt>
      <trkpt lat="41.1827310" lon="0.5679810">
        <ele>44.3</ele>
        <time>2020-08-06T08:04:27Z</time>
      </trkpt>
      <trkpt lat="41.1827680" lon="0.5679670">
        <ele>44.3</ele>
        <time>2020-08-06T08:04:29Z</time>
      </trkpt>
      <trkpt lat="41.1828110" lon="0.5679320">
        <ele>44.4</ele>
        <time>2020-08-06T08:04:31Z</time>
      </trkpt>
      <trkpt lat="41.1828320" lon="0.5679170">
        <ele>44.4</ele>
        <time>2020-08-06T08:04:32Z</time>
      </trkpt>
      <trkpt lat="41.1828640" lon="0.5678840">
        <ele>44.4</ele>
        <time>2020-08-06T08:04:34Z</time>
      </trkpt>
      <trkpt lat="41.1828850" lon="0.5678610">
        <ele>44.5</ele>
        <time>2020-08-06T08:04:35Z</time>
      </trkpt>
      <trkpt lat="41.1829400" lon="0.5678110">
        <ele>44.6</ele>
        <time>2020-08-06T08:04:37Z</time>
      </trkpt>
      <trkpt lat="41.1829710" lon="0.5677860">
        <ele>44.6</ele>
        <time>2020-08-06T08:04:38Z</time>
      </trkpt>
      <trkpt lat="41.1830270" lon="0.5677350">
        <ele>44.7</ele>
        <time>2020-08-06T08:04:40Z</time>
      </trkpt>
      <trkpt lat="41.1830500" lon="0.5677080">
        <ele>44.7</ele>
        <time>2020-08-06T08:04:41Z</time>
      </trkpt>
      <trkpt lat="41.1830920" lon="0.5676550">
        <ele>44.7</ele>
        <time>2020-08-06T08:04:43Z</time>
      </trkpt>
      <trkpt lat="41.1831190" lon="0.5676260">
        <ele>44.7</ele>
        <time>2020-08-06T08:04:44Z</time>
      </trkpt>
      <trkpt lat="41.1831640" lon="0.5675830">
        <ele>44.7</ele>
        <time>2020-08-06T08:04:46Z</time>
      </trkpt>
      <trkpt lat="41.1832110" lon="0.5675530">
        <ele>44.7</ele>
        <time>2020-08-06T08:04:48Z</time>
      </trkpt>
      <trkpt lat="41.1832350" lon="0.5675460">
        <ele>44.7</ele>
        <time>2020-08-06T08:04:49Z</time>
      </trkpt>
      <trkpt lat="41.1832800" lon="0.5675330">
        <ele>44.7</ele>
        <time>2020-08-06T08:04:51Z</time>
      </trkpt>
      <trkpt lat="41.1833130" lon="0.5675210">
        <ele>44.9</ele>
        <time>2020-08-06T08:04:52Z</time>
      </trkpt>
      <trkpt lat="41.1833220" lon="0.5675180">
        <ele>44.9</ele>
        <time>2020-08-06T08:04:53Z</time>
      </trkpt>
      <trkpt lat="41.1833500" lon="0.5675200">
        <ele>45.0</ele>
        <time>2020-08-06T08:04:55Z</time>
      </trkpt>
      <trkpt lat="41.1833670" lon="0.5675240">
        <ele>45.1</ele>
        <time>2020-08-06T08:04:56Z</time>
      </trkpt>
      <trkpt lat="41.1834040" lon="0.5675300">
        <ele>45.2</ele>
        <time>2020-08-06T08:04:58Z</time>
      </trkpt>
      <trkpt lat="41.1834420" lon="0.5675230">
        <ele>45.2</ele>
        <time>2020-08-06T08:04:59Z</time>
      </trkpt>
      <trkpt lat="41.1834560" lon="0.5675180">
        <ele>45.3</ele>
        <time>2020-08-06T08:05:00Z</time>
      </trkpt>
      <trkpt lat="41.1835330" lon="0.5675100">
        <ele>45.4</ele>
        <time>2020-08-06T08:05:02Z</time>
      </trkpt>
      <trkpt lat="41.1836030" lon="0.5675100">
        <ele>45.6</ele>
        <time>2020-08-06T08:05:04Z</time>
      </trkpt>
      <trkpt lat="41.1836380" lon="0.5675090">
        <ele>45.6</ele>
        <time>2020-08-06T08:05:05Z</time>
      </trkpt>
      <trkpt lat="41.1837030" lon="0.5675100">
        <ele>45.8</ele>
        <time>2020-08-06T08:05:07Z</time>
      </trkpt>
      <trkpt lat="41.1837540" lon="0.5675050">
        <ele>45.9</ele>
        <time>2020-08-06T08:05:09Z</time>
      </trkpt>
      <trkpt lat="41.1837820" lon="0.5675010">
        <ele>46.0</ele>
        <time>2020-08-06T08:05:10Z</time>
      </trkpt>
      <trkpt lat="41.1838460" lon="0.5675010">
        <ele>46.2</ele>
        <time>2020-08-06T08:05:12Z</time>
      </trkpt>
      <trkpt lat="41.1839850" lon="0.5675230">
        <ele>46.8</ele>
        <time>2020-08-06T08:05:18Z</time>
      </trkpt>
      <trkpt lat="41.1840500" lon="0.5675420">
        <ele>47.1</ele>
        <time>2020-08-06T08:05:19Z</time>
      </trkpt>
      <trkpt lat="41.1841030" lon="0.5675550">
        <ele>47.4</ele>
        <time>2020-08-06T08:05:20Z</time>
      </trkpt>
      <trkpt lat="41.1841930" lon="0.5675690">
        <ele>47.9</ele>
        <time>2020-08-06T08:05:22Z</time>
      </trkpt>
      <trkpt lat="41.1842290" lon="0.5675760">
        <ele>48.1</ele>
        <time>2020-08-06T08:05:23Z</time>
      </trkpt>
      <trkpt lat="41.1842810" lon="0.5675920">
        <ele>48.3</ele>
        <time>2020-08-06T08:05:25Z</time>
      </trkpt>
      <trkpt lat="41.1843400" lon="0.5676080">
        <ele>48.7</ele>
        <time>2020-08-06T08:05:27Z</time>
      </trkpt>
      <trkpt lat="41.1843670" lon="0.5676150">
        <ele>48.8</ele>
        <time>2020-08-06T08:05:28Z</time>
      </trkpt>
      <trkpt lat="41.1844090" lon="0.5676270">
        <ele>49.1</ele>
        <time>2020-08-06T08:05:30Z</time>
      </trkpt>
      <trkpt lat="41.1844310" lon="0.5676350">
        <ele>49.2</ele>
        <time>2020-08-06T08:05:31Z</time>
      </trkpt>
      <trkpt lat="41.1844640" lon="0.5676450">
        <ele>49.4</ele>
        <time>2020-08-06T08:05:33Z</time>
      </trkpt>
      <trkpt lat="41.1845060" lon="0.5676560">
        <ele>49.5</ele>
        <time>2020-08-06T08:05:35Z</time>
      </trkpt>
      <trkpt lat="41.1845450" lon="0.5676660">
        <ele>49.7</ele>
        <time>2020-08-06T08:05:37Z</time>
      </trkpt>
      <trkpt lat="41.1845720" lon="0.5676750">
        <ele>49.8</ele>
        <time>2020-08-06T08:05:38Z</time>
      </trkpt>
      <trkpt lat="41.1845810" lon="0.5676780">
        <ele>49.8</ele>
        <time>2020-08-06T08:05:39Z</time>
      </trkpt>
      <trkpt lat="41.1846140" lon="0.5676960">
        <ele>49.9</ele>
        <time>2020-08-06T08:05:41Z</time>
      </trkpt>
      <trkpt lat="41.1846220" lon="0.5677020">
        <ele>49.9</ele>
        <time>2020-08-06T08:05:42Z</time>
      </trkpt>
      <trkpt lat="41.1846380" lon="0.5677110">
        <ele>50.0</ele>
        <time>2020-08-06T08:05:43Z</time>
      </trkpt>
      <trkpt lat="41.1846790" lon="0.5677270">
        <ele>50.1</ele>
        <time>2020-08-06T08:05:45Z</time>
      </trkpt>
      <trkpt lat="41.1846980" lon="0.5677360">
        <ele>50.2</ele>
        <time>2020-08-06T08:05:46Z</time>
      </trkpt>
      <trkpt lat="41.1847580" lon="0.5677590">
        <ele>50.2</ele>
        <time>2020-08-06T08:05:48Z</time>
      </trkpt>
      <trkpt lat="41.1848130" lon="0.5677840">
        <ele>50.3</ele>
        <time>2020-08-06T08:05:50Z</time>
      </trkpt>
      <trkpt lat="41.1848460" lon="0.5677950">
        <ele>50.4</ele>
        <time>2020-08-06T08:05:51Z</time>
      </trkpt>
      <trkpt lat="41.1848750" lon="0.5678030">
        <ele>50.4</ele>
        <time>2020-08-06T08:05:52Z</time>
      </trkpt>
      <trkpt lat="41.1849260" lon="0.5678160">
        <ele>50.4</ele>
        <time>2020-08-06T08:05:54Z</time>
      </trkpt>
      <trkpt lat="41.1849760" lon="0.5678160">
        <ele>50.5</ele>
        <time>2020-08-06T08:05:56Z</time>
      </trkpt>
      <trkpt lat="41.1850280" lon="0.5678010">
        <ele>50.6</ele>
        <time>2020-08-06T08:05:58Z</time>
      </trkpt>
      <trkpt lat="41.1850550" lon="0.5677890">
        <ele>50.7</ele>
        <time>2020-08-06T08:05:59Z</time>
      </trkpt>
      <trkpt lat="41.1851160" lon="0.5677620">
        <ele>50.8</ele>
        <time>2020-08-06T08:06:01Z</time>
      </trkpt>
      <trkpt lat="41.1851640" lon="0.5677540">
        <ele>50.9</ele>
        <time>2020-08-06T08:06:03Z</time>
      </trkpt>
      <trkpt lat="41.1852210" lon="0.5677410">
        <ele>51.0</ele>
        <time>2020-08-06T08:06:05Z</time>
      </trkpt>
      <trkpt lat="41.1852550" lon="0.5677300">
        <ele>51.0</ele>
        <time>2020-08-06T08:06:06Z</time>
      </trkpt>
      <trkpt lat="41.1852880" lon="0.5677210">
        <ele>51.1</ele>
        <time>2020-08-06T08:06:07Z</time>
      </trkpt>
      <trkpt lat="41.1853480" lon="0.5677060">
        <ele>51.2</ele>
        <time>2020-08-06T08:06:09Z</time>
      </trkpt>
      <trkpt lat="41.1854430" lon="0.5676760">
        <ele>51.3</ele>
        <time>2020-08-06T08:06:14Z</time>
      </trkpt>
      <trkpt lat="41.1855090" lon="0.5676390">
        <ele>51.3</ele>
        <time>2020-08-06T08:06:15Z</time>
      </trkpt>
      <trkpt lat="41.1855570" lon="0.5676130">
        <ele>51.3</ele>
        <time>2020-08-06T08:06:18Z</time>
      </trkpt>
      <trkpt lat="41.1856130" lon="0.5675840">
        <ele>51.3</ele>
        <time>2020-08-06T08:06:20Z</time>
      </trkpt>
      <trkpt lat="41.1856470" lon="0.5675620">
        <ele>51.3</ele>
        <time>2020-08-06T08:06:21Z</time>
      </trkpt>
      <trkpt lat="41.1857090" lon="0.5675180">
        <ele>51.3</ele>
        <time>2020-08-06T08:06:23Z</time>
      </trkpt>
      <trkpt lat="41.1857730" lon="0.5674810">
        <ele>51.4</ele>
        <time>2020-08-06T08:06:25Z</time>
      </trkpt>
      <trkpt lat="41.1858010" lon="0.5674660">
        <ele>51.4</ele>
        <time>2020-08-06T08:06:26Z</time>
      </trkpt>
      <trkpt lat="41.1858400" lon="0.5674500">
        <ele>51.5</ele>
        <time>2020-08-06T08:06:27Z</time>
      </trkpt>
      <trkpt lat="41.1859120" lon="0.5674290">
        <ele>51.5</ele>
        <time>2020-08-06T08:06:29Z</time>
      </trkpt>
      <trkpt lat="41.1859490" lon="0.5674250">
        <ele>51.6</ele>
        <time>2020-08-06T08:06:30Z</time>
      </trkpt>
      <trkpt lat="41.1859890" lon="0.5674210">
        <ele>51.6</ele>
        <time>2020-08-06T08:06:31Z</time>
      </trkpt>
      <trkpt lat="41.1860780" lon="0.5674120">
        <ele>51.6</ele>
        <time>2020-08-06T08:06:33Z</time>
      </trkpt>
      <trkpt lat="41.1861160" lon="0.5674070">
        <ele>51.6</ele>
        <time>2020-08-06T08:06:34Z</time>
      </trkpt>
      <trkpt lat="41.1861540" lon="0.5674000">
        <ele>51.7</ele>
        <time>2020-08-06T08:06:35Z</time>
      </trkpt>
      <trkpt lat="41.1861930" lon="0.5673900">
        <ele>51.7</ele>
        <time>2020-08-06T08:06:36Z</time>
      </trkpt>
      <trkpt lat="41.1862340" lon="0.5673780">
        <ele>51.7</ele>
        <time>2020-08-06T08:06:37Z</time>
      </trkpt>
      <trkpt lat="41.1863100" lon="0.5673550">
        <ele>51.8</ele>
        <time>2020-08-06T08:06:39Z</time>
      </trkpt>
      <trkpt lat="41.1863550" lon="0.5673430">
        <ele>51.8</ele>
        <time>2020-08-06T08:06:40Z</time>
      </trkpt>
      <trkpt lat="41.1864330" lon="0.5673230">
        <ele>51.9</ele>
        <time>2020-08-06T08:06:42Z</time>
      </trkpt>
      <trkpt lat="41.1864720" lon="0.5673120">
        <ele>51.9</ele>
        <time>2020-08-06T08:06:43Z</time>
      </trkpt>
      <trkpt lat="41.1865110" lon="0.5673010">
        <ele>51.8</ele>
        <time>2020-08-06T08:06:44Z</time>
      </trkpt>
      <trkpt lat="41.1865950" lon="0.5672800">
        <ele>51.8</ele>
        <time>2020-08-06T08:06:46Z</time>
      </trkpt>
      <trkpt lat="41.1866320" lon="0.5672750">
        <ele>51.7</ele>
        <time>2020-08-06T08:06:47Z</time>
      </trkpt>
      <trkpt lat="41.1866730" lon="0.5672720">
        <ele>51.7</ele>
        <time>2020-08-06T08:06:48Z</time>
      </trkpt>
      <trkpt lat="41.1867440" lon="0.5672730">
        <ele>51.6</ele>
        <time>2020-08-06T08:06:50Z</time>
      </trkpt>
      <trkpt lat="41.1867740" lon="0.5672740">
        <ele>51.6</ele>
        <time>2020-08-06T08:06:51Z</time>
      </trkpt>
      <trkpt lat="41.1868450" lon="0.5672760">
        <ele>51.5</ele>
        <time>2020-08-06T08:06:53Z</time>
      </trkpt>
      <trkpt lat="41.1869060" lon="0.5672940">
        <ele>51.4</ele>
        <time>2020-08-06T08:06:55Z</time>
      </trkpt>
      <trkpt lat="41.1869400" lon="0.5673180">
        <ele>51.4</ele>
        <time>2020-08-06T08:06:56Z</time>
      </trkpt>
      <trkpt lat="41.1869520" lon="0.5673290">
        <ele>51.3</ele>
        <time>2020-08-06T08:06:57Z</time>
      </trkpt>
      <trkpt lat="41.1869170" lon="0.5673780">
        <ele>51.3</ele>
        <time>2020-08-06T08:06:59Z</time>
      </trkpt>
      <trkpt lat="41.1868880" lon="0.5673900">
        <ele>51.2</ele>
        <time>2020-08-06T08:07:00Z</time>
      </trkpt>
      <trkpt lat="41.1868430" lon="0.5674100">
        <ele>51.1</ele>
        <time>2020-08-06T08:07:02Z</time>
      </trkpt>
      <trkpt lat="41.1868370" lon="0.5674470">
        <ele>51.1</ele>
        <time>2020-08-06T08:07:03Z</time>
      </trkpt>
      <trkpt lat="41.1868360" lon="0.5674570">
        <ele>51.1</ele>
        <time>2020-08-06T08:07:04Z</time>
      </trkpt>
      <trkpt lat="41.1868370" lon="0.5674770">
        <ele>51.0</ele>
        <time>2020-08-06T08:07:05Z</time>
      </trkpt>
      <trkpt lat="41.1868400" lon="0.5675040">
        <ele>51.0</ele>
        <time>2020-08-06T08:07:07Z</time>
      </trkpt>
      <trkpt lat="41.1868610" lon="0.5675550">
        <ele>50.9</ele>
        <time>2020-08-06T08:07:08Z</time>
      </trkpt>
      <trkpt lat="41.1870230" lon="0.5676670">
        <ele>50.5</ele>
        <time>2020-08-06T08:07:10Z</time>
      </trkpt>
      <trkpt lat="41.1871370" lon="0.5678900">
        <ele>49.7</ele>
        <time>2020-08-06T08:07:11Z</time>
      </trkpt>
      <trkpt lat="41.1871800" lon="0.5679330">
        <ele>49.5</ele>
        <time>2020-08-06T08:07:13Z</time>
      </trkpt>
      <trkpt lat="41.1872120" lon="0.5681320">
        <ele>49.0</ele>
        <time>2020-08-06T08:07:14Z</time>
      </trkpt>
      <trkpt lat="41.1872340" lon="0.5682200">
        <ele>48.8</ele>
        <time>2020-08-06T08:07:15Z</time>
      </trkpt>
      <trkpt lat="41.1872670" lon="0.5683570">
        <ele>48.4</ele>
        <time>2020-08-06T08:07:17Z</time>
      </trkpt>
      <trkpt lat="41.1872970" lon="0.5684850">
        <ele>48.2</ele>
        <time>2020-08-06T08:07:19Z</time>
      </trkpt>
      <trkpt lat="41.1873130" lon="0.5685490">
        <ele>48.0</ele>
        <time>2020-08-06T08:07:20Z</time>
      </trkpt>
      <trkpt lat="41.1873300" lon="0.5685990">
        <ele>47.9</ele>
        <time>2020-08-06T08:07:21Z</time>
      </trkpt>
      <trkpt lat="41.1873480" lon="0.5686550">
        <ele>47.8</ele>
        <time>2020-08-06T08:07:22Z</time>
      </trkpt>
      <trkpt lat="41.1873630" lon="0.5687130">
        <ele>47.8</ele>
        <time>2020-08-06T08:07:23Z</time>
      </trkpt>
      <trkpt lat="41.1873760" lon="0.5687700">
        <ele>47.8</ele>
        <time>2020-08-06T08:07:24Z</time>
      </trkpt>
      <trkpt lat="41.1873910" lon="0.5688870">
        <ele>47.7</ele>
        <time>2020-08-06T08:07:26Z</time>
      </trkpt>
      <trkpt lat="41.1874030" lon="0.5689800">
        <ele>47.7</ele>
        <time>2020-08-06T08:07:28Z</time>
      </trkpt>
      <trkpt lat="41.1874140" lon="0.5690940">
        <ele>47.6</ele>
        <time>2020-08-06T08:07:30Z</time>
      </trkpt>
      <trkpt lat="41.1874210" lon="0.5691530">
        <ele>47.6</ele>
        <time>2020-08-06T08:07:31Z</time>
      </trkpt>
      <trkpt lat="41.1874270" lon="0.5692100">
        <ele>47.5</ele>
        <time>2020-08-06T08:07:32Z</time>
      </trkpt>
      <trkpt lat="41.1874380" lon="0.5693130">
        <ele>47.5</ele>
        <time>2020-08-06T08:07:34Z</time>
      </trkpt>
      <trkpt lat="41.1874420" lon="0.5693660">
        <ele>47.5</ele>
        <time>2020-08-06T08:07:35Z</time>
      </trkpt>
      <trkpt lat="41.1874440" lon="0.5694130">
        <ele>47.4</ele>
        <time>2020-08-06T08:07:36Z</time>
      </trkpt>
      <trkpt lat="41.1874400" lon="0.5694700">
        <ele>47.3</ele>
        <time>2020-08-06T08:07:37Z</time>
      </trkpt>
      <trkpt lat="41.1874380" lon="0.5695620">
        <ele>47.2</ele>
        <time>2020-08-06T08:07:39Z</time>
      </trkpt>
      <trkpt lat="41.1874370" lon="0.5696090">
        <ele>47.2</ele>
        <time>2020-08-06T08:07:40Z</time>
      </trkpt>
      <trkpt lat="41.1874350" lon="0.5696590">
        <ele>47.1</ele>
        <time>2020-08-06T08:07:41Z</time>
      </trkpt>
      <trkpt lat="41.1874310" lon="0.5697630">
        <ele>46.9</ele>
        <time>2020-08-06T08:07:43Z</time>
      </trkpt>
      <trkpt lat="41.1874290" lon="0.5698140">
        <ele>46.8</ele>
        <time>2020-08-06T08:07:44Z</time>
      </trkpt>
      <trkpt lat="41.1874280" lon="0.5698660">
        <ele>46.7</ele>
        <time>2020-08-06T08:07:45Z</time>
      </trkpt>
      <trkpt lat="41.1874280" lon="0.5699860">
        <ele>46.4</ele>
        <time>2020-08-06T08:07:47Z</time>
      </trkpt>
      <trkpt lat="41.1874370" lon="0.5701040">
        <ele>46.1</ele>
        <time>2020-08-06T08:07:49Z</time>
      </trkpt>
      <trkpt lat="41.1874440" lon="0.5701650">
        <ele>46.0</ele>
        <time>2020-08-06T08:07:50Z</time>
      </trkpt>
      <trkpt lat="41.1874430" lon="0.5702910">
        <ele>45.7</ele>
        <time>2020-08-06T08:07:52Z</time>
      </trkpt>
      <trkpt lat="41.1874410" lon="0.5703550">
        <ele>45.5</ele>
        <time>2020-08-06T08:07:53Z</time>
      </trkpt>
      <trkpt lat="41.1874390" lon="0.5704220">
        <ele>45.3</ele>
        <time>2020-08-06T08:07:54Z</time>
      </trkpt>
      <trkpt lat="41.1874440" lon="0.5704920">
        <ele>45.1</ele>
        <time>2020-08-06T08:07:55Z</time>
      </trkpt>
      <trkpt lat="41.1874400" lon="0.5706370">
        <ele>44.7</ele>
        <time>2020-08-06T08:07:57Z</time>
      </trkpt>
      <trkpt lat="41.1874420" lon="0.5707850">
        <ele>44.2</ele>
        <time>2020-08-06T08:07:59Z</time>
      </trkpt>
      <trkpt lat="41.1874400" lon="0.5708640">
        <ele>43.9</ele>
        <time>2020-08-06T08:08:00Z</time>
      </trkpt>
      <trkpt lat="41.1874340" lon="0.5709420">
        <ele>43.6</ele>
        <time>2020-08-06T08:08:01Z</time>
      </trkpt>
      <trkpt lat="41.1874270" lon="0.5710230">
        <ele>43.3</ele>
        <time>2020-08-06T08:08:02Z</time>
      </trkpt>
      <trkpt lat="41.1874250" lon="0.5710960">
        <ele>43.0</ele>
        <time>2020-08-06T08:08:03Z</time>
      </trkpt>
      <trkpt lat="41.1874130" lon="0.5712490">
        <ele>42.4</ele>
        <time>2020-08-06T08:08:05Z</time>
      </trkpt>
      <trkpt lat="41.1874070" lon="0.5713990">
        <ele>41.9</ele>
        <time>2020-08-06T08:08:07Z</time>
      </trkpt>
      <trkpt lat="41.1874030" lon="0.5715240">
        <ele>41.3</ele>
        <time>2020-08-06T08:08:09Z</time>
      </trkpt>
      <trkpt lat="41.1874000" lon="0.5715920">
        <ele>41.0</ele>
        <time>2020-08-06T08:08:10Z</time>
      </trkpt>
      <trkpt lat="41.1873910" lon="0.5717200">
        <ele>40.4</ele>
        <time>2020-08-06T08:08:12Z</time>
      </trkpt>
      <trkpt lat="41.1873880" lon="0.5717820">
        <ele>40.1</ele>
        <time>2020-08-06T08:08:13Z</time>
      </trkpt>
      <trkpt lat="41.1873860" lon="0.5718480">
        <ele>39.8</ele>
        <time>2020-08-06T08:08:14Z</time>
      </trkpt>
      <trkpt lat="41.1873840" lon="0.5719150">
        <ele>39.5</ele>
        <time>2020-08-06T08:08:15Z</time>
      </trkpt>
      <trkpt lat="41.1873740" lon="0.5720450">
        <ele>38.8</ele>
        <time>2020-08-06T08:08:17Z</time>
      </trkpt>
      <trkpt lat="41.1873710" lon="0.5721110">
        <ele>38.6</ele>
        <time>2020-08-06T08:08:18Z</time>
      </trkpt>
      <trkpt lat="41.1873670" lon="0.5721760">
        <ele>38.3</ele>
        <time>2020-08-06T08:08:19Z</time>
      </trkpt>
      <trkpt lat="41.1873630" lon="0.5722400">
        <ele>38.0</ele>
        <time>2020-08-06T08:08:20Z</time>
      </trkpt>
      <trkpt lat="41.1873570" lon="0.5723710">
        <ele>37.5</ele>
        <time>2020-08-06T08:08:22Z</time>
      </trkpt>
      <trkpt lat="41.1873530" lon="0.5724910">
        <ele>37.1</ele>
        <time>2020-08-06T08:08:24Z</time>
      </trkpt>
      <trkpt lat="41.1873490" lon="0.5725970">
        <ele>36.8</ele>
        <time>2020-08-06T08:08:26Z</time>
      </trkpt>
      <trkpt lat="41.1873520" lon="0.5726500">
        <ele>36.7</ele>
        <time>2020-08-06T08:08:27Z</time>
      </trkpt>
      <trkpt lat="41.1873540" lon="0.5727470">
        <ele>36.5</ele>
        <time>2020-08-06T08:08:29Z</time>
      </trkpt>
      <trkpt lat="41.1873560" lon="0.5728310">
        <ele>36.3</ele>
        <time>2020-08-06T08:08:31Z</time>
      </trkpt>
      <trkpt lat="41.1873520" lon="0.5728730">
        <ele>36.2</ele>
        <time>2020-08-06T08:08:32Z</time>
      </trkpt>
      <trkpt lat="41.1873420" lon="0.5729310">
        <ele>36.1</ele>
        <time>2020-08-06T08:08:34Z</time>
      </trkpt>
      <trkpt lat="41.1873390" lon="0.5729550">
        <ele>36.0</ele>
        <time>2020-08-06T08:08:35Z</time>
      </trkpt>
      <trkpt lat="41.1873410" lon="0.5729690">
        <ele>36.0</ele>
        <time>2020-08-06T08:08:36Z</time>
      </trkpt>
      <trkpt lat="41.1873450" lon="0.5729800">
        <ele>36.0</ele>
        <time>2020-08-06T08:08:38Z</time>
      </trkpt>
      <trkpt lat="41.1873460" lon="0.5729790">
        <ele>36.0</ele>
        <time>2020-08-06T08:08:40Z</time>
      </trkpt>
      <trkpt lat="41.1873450" lon="0.5729760">
        <ele>36.0</ele>
        <time>2020-08-06T08:08:41Z</time>
      </trkpt>
      <trkpt lat="41.1873440" lon="0.5729790">
        <ele>36.0</ele>
        <time>2020-08-06T08:08:42Z</time>
      </trkpt>
      <trkpt lat="41.1873430" lon="0.5729810">
        <ele>36.0</ele>
        <time>2020-08-06T08:08:44Z</time>
      </trkpt>
      <trkpt lat="41.1873490" lon="0.5729890">
        <ele>35.9</ele>
        <time>2020-08-06T08:08:46Z</time>
      </trkpt>
      <trkpt lat="41.1873620" lon="0.5729980">
        <ele>35.9</ele>
        <time>2020-08-06T08:08:47Z</time>
      </trkpt>
      <trkpt lat="41.1874020" lon="0.5729940">
        <ele>36.0</ele>
        <time>2020-08-06T08:08:49Z</time>
      </trkpt>
      <trkpt lat="41.1874410" lon="0.5729650">
        <ele>36.0</ele>
        <time>2020-08-06T08:08:51Z</time>
      </trkpt>
      <trkpt lat="41.1874570" lon="0.5729500">
        <ele>36.1</ele>
        <time>2020-08-06T08:08:52Z</time>
      </trkpt>
      <trkpt lat="41.1874670" lon="0.5729370">
        <ele>36.1</ele>
        <time>2020-08-06T08:08:54Z</time>
      </trkpt>
      <trkpt lat="41.1874610" lon="0.5729250">
        <ele>36.1</ele>
        <time>2020-08-06T08:08:56Z</time>
      </trkpt>
      <trkpt lat="41.1874550" lon="0.5729200">
        <ele>36.1</ele>
        <time>2020-08-06T08:08:57Z</time>
      </trkpt>
      <trkpt lat="41.1874530" lon="0.5729140">
        <ele>36.1</ele>
        <time>2020-08-06T08:08:59Z</time>
      </trkpt>
      <trkpt lat="41.1874530" lon="0.5729110">
        <ele>36.1</ele>
        <time>2020-08-06T08:09:00Z</time>
      </trkpt>
      <trkpt lat="41.1874580" lon="0.5729110">
        <ele>36.1</ele>
        <time>2020-08-06T08:09:04Z</time>
      </trkpt>
      <trkpt lat="41.1874580" lon="0.5729100">
        <ele>36.2</ele>
        <time>2020-08-06T08:09:05Z</time>
      </trkpt>
      <trkpt lat="41.1874580" lon="0.5729080">
        <ele>36.2</ele>
        <time>2020-08-06T08:09:06Z</time>
      </trkpt>
      <trkpt lat="41.1874570" lon="0.5729050">
        <ele>36.2</ele>
        <time>2020-08-06T08:09:08Z</time>
      </trkpt>
      <trkpt lat="41.1874810" lon="0.5728970">
        <ele>36.2</ele>
        <time>2020-08-06T08:09:13Z</time>
      </trkpt>
      <trkpt lat="41.1874870" lon="0.5728780">
        <ele>36.2</ele>
        <time>2020-08-06T08:09:15Z</time>
      </trkpt>
      <trkpt lat="41.1874710" lon="0.5728580">
        <ele>36.3</ele>
        <time>2020-08-06T08:09:17Z</time>
      </trkpt>
      <trkpt lat="41.1874570" lon="0.5728510">
        <ele>36.3</ele>
        <time>2020-08-06T08:09:18Z</time>
      </trkpt>
      <trkpt lat="41.1874420" lon="0.5728530">
        <ele>36.3</ele>
        <time>2020-08-06T08:09:19Z</time>
      </trkpt>
      <trkpt lat="41.1874000" lon="0.5728640">
        <ele>36.4</ele>
        <time>2020-08-06T08:09:21Z</time>
      </trkpt>
      <trkpt lat="41.1873630" lon="0.5728810">
        <ele>36.5</ele>
        <time>2020-08-06T08:09:22Z</time>
      </trkpt>
      <trkpt lat="41.1873490" lon="0.5728880">
        <ele>36.5</ele>
        <time>2020-08-06T08:09:23Z</time>
      </trkpt>
      <trkpt lat="41.1872880" lon="0.5729040">
        <ele>36.6</ele>
        <time>2020-08-06T08:09:25Z</time>
      </trkpt>
      <trkpt lat="41.1872600" lon="0.5729070">
        <ele>36.7</ele>
        <time>2020-08-06T08:09:26Z</time>
      </trkpt>
      <trkpt lat="41.1872090" lon="0.5728990">
        <ele>36.8</ele>
        <time>2020-08-06T08:09:28Z</time>
      </trkpt>
      <trkpt lat="41.1871870" lon="0.5728890">
        <ele>36.8</ele>
        <time>2020-08-06T08:09:29Z</time>
      </trkpt>
      <trkpt lat="41.1871580" lon="0.5728710">
        <ele>36.9</ele>
        <time>2020-08-06T08:09:31Z</time>
      </trkpt>
      <trkpt lat="41.1871530" lon="0.5728680">
        <ele>36.9</ele>
        <time>2020-08-06T08:09:32Z</time>
      </trkpt>
      <trkpt lat="41.1871590" lon="0.5728690">
        <ele>36.9</ele>
        <time>2020-08-06T08:09:34Z</time>
      </trkpt>
      <trkpt lat="41.1871610" lon="0.5728690">
        <ele>36.9</ele>
        <time>2020-08-06T08:09:35Z</time>
      </trkpt>
      <trkpt lat="41.1871620" lon="0.5728680">
        <ele>36.9</ele>
        <time>2020-08-06T08:09:36Z</time>
      </trkpt>
      <trkpt lat="41.1871630" lon="0.5728670">
        <ele>36.9</ele>
        <time>2020-08-06T08:09:38Z</time>
      </trkpt>
      <trkpt lat="41.1871630" lon="0.5728670">
        <ele>36.9</ele>
        <time>2020-08-06T08:09:40Z</time>
      </trkpt>
      <trkpt lat="41.1871620" lon="0.5728660">
        <ele>37.0</ele>
        <time>2020-08-06T08:09:41Z</time>
      </trkpt>
      <trkpt lat="41.1871620" lon="0.5728660">
        <ele>37.0</ele>
        <time>2020-08-06T08:09:42Z</time>
      </trkpt>
      <trkpt lat="41.1872140" lon="0.5728680">
        <ele>37.1</ele>
        <time>2020-08-06T08:10:00Z</time>
      </trkpt>
      <trkpt lat="41.1872300" lon="0.5728640">
        <ele>37.1</ele>
        <time>2020-08-06T08:10:01Z</time>
      </trkpt>
      <trkpt lat="41.1872440" lon="0.5728500">
        <ele>37.2</ele>
        <time>2020-08-06T08:10:02Z</time>
      </trkpt>
      <trkpt lat="41.1872650" lon="0.5728100">
        <ele>37.3</ele>
        <time>2020-08-06T08:10:04Z</time>
      </trkpt>
      <trkpt lat="41.1872700" lon="0.5727870">
        <ele>37.3</ele>
        <time>2020-08-06T08:10:05Z</time>
      </trkpt>
      <trkpt lat="41.1872750" lon="0.5727640">
        <ele>37.4</ele>
        <time>2020-08-06T08:10:06Z</time>
      </trkpt>
      <trkpt lat="41.1872760" lon="0.5727200">
        <ele>37.5</ele>
        <time>2020-08-06T08:10:08Z</time>
      </trkpt>
      <trkpt lat="41.1872750" lon="0.5726700">
        <ele>37.6</ele>
        <time>2020-08-06T08:10:10Z</time>
      </trkpt>
      <trkpt lat="41.1872740" lon="0.5726260">
        <ele>37.7</ele>
        <time>2020-08-06T08:10:11Z</time>
      </trkpt>
      <trkpt lat="41.1872730" lon="0.5726110">
        <ele>37.7</ele>
        <time>2020-08-06T08:10:12Z</time>
      </trkpt>
      <trkpt lat="41.1872740" lon="0.5725840">
        <ele>37.8</ele>
        <time>2020-08-06T08:10:13Z</time>
      </trkpt>
      <trkpt lat="41.1872790" lon="0.5725320">
        <ele>37.9</ele>
        <time>2020-08-06T08:10:15Z</time>
      </trkpt>
      <trkpt lat="41.1872830" lon="0.5724970">
        <ele>38.0</ele>
        <time>2020-08-06T08:10:16Z</time>
      </trkpt>
      <trkpt lat="41.1872840" lon="0.5724820">
        <ele>38.0</ele>
        <time>2020-08-06T08:10:17Z</time>
      </trkpt>
      <trkpt lat="41.1872930" lon="0.5724190">
        <ele>38.2</ele>
        <time>2020-08-06T08:10:19Z</time>
      </trkpt>
      <trkpt lat="41.1872970" lon="0.5723890">
        <ele>38.3</ele>
        <time>2020-08-06T08:10:20Z</time>
      </trkpt>
      <trkpt lat="41.1873030" lon="0.5723330">
        <ele>38.5</ele>
        <time>2020-08-06T08:10:22Z</time>
      </trkpt>
      <trkpt lat="41.1873070" lon="0.5722870">
        <ele>38.6</ele>
        <time>2020-08-06T08:10:23Z</time>
      </trkpt>
      <trkpt lat="41.1873080" lon="0.5722720">
        <ele>38.7</ele>
        <time>2020-08-06T08:10:24Z</time>
      </trkpt>
      <trkpt lat="41.1873110" lon="0.5722190">
        <ele>38.8</ele>
        <time>2020-08-06T08:10:26Z</time>
      </trkpt>
      <trkpt lat="41.1873140" lon="0.5721740">
        <ele>39.0</ele>
        <time>2020-08-06T08:10:27Z</time>
      </trkpt>
      <trkpt lat="41.1873160" lon="0.5721590">
        <ele>39.0</ele>
        <time>2020-08-06T08:10:28Z</time>
      </trkpt>
      <trkpt lat="41.1873220" lon="0.5721310">
        <ele>39.1</ele>
        <time>2020-08-06T08:10:29Z</time>
      </trkpt>
      <trkpt lat="41.1873290" lon="0.5720840">
        <ele>39.2</ele>
        <time>2020-08-06T08:10:31Z</time>
      </trkpt>
      <trkpt lat="41.1873320" lon="0.5720290">
        <ele>39.4</ele>
        <time>2020-08-06T08:10:33Z</time>
      </trkpt>
      <trkpt lat="41.1873340" lon="0.5719990">
        <ele>39.5</ele>
        <time>2020-08-06T08:10:34Z</time>
      </trkpt>
      <trkpt lat="41.1873380" lon="0.5719460">
        <ele>39.7</ele>
        <time>2020-08-06T08:10:36Z</time>
      </trkpt>
      <trkpt lat="41.1873420" lon="0.5719100">
        <ele>39.8</ele>
        <time>2020-08-06T08:10:37Z</time>
      </trkpt>
      <trkpt lat="41.1873430" lon="0.5718980">
        <ele>39.8</ele>
        <time>2020-08-06T08:10:38Z</time>
      </trkpt>
      <trkpt lat="41.1873460" lon="0.5718750">
        <ele>39.9</ele>
        <time>2020-08-06T08:10:39Z</time>
      </trkpt>
      <trkpt lat="41.1873540" lon="0.5718390">
        <ele>40.0</ele>
        <time>2020-08-06T08:10:41Z</time>
      </trkpt>
      <trkpt lat="41.1873540" lon="0.5717900">
        <ele>40.2</ele>
        <time>2020-08-06T08:10:43Z</time>
      </trkpt>
      <trkpt lat="41.1873550" lon="0.5717680">
        <ele>40.3</ele>
        <time>2020-08-06T08:10:44Z</time>
      </trkpt>
      <trkpt lat="41.1873560" lon="0.5717200">
        <ele>40.4</ele>
        <time>2020-08-06T08:10:46Z</time>
      </trkpt>
      <trkpt lat="41.1873560" lon="0.5716820">
        <ele>40.6</ele>
        <time>2020-08-06T08:10:47Z</time>
      </trkpt>
      <trkpt lat="41.1873560" lon="0.5716700">
        <ele>40.7</ele>
        <time>2020-08-06T08:10:48Z</time>
      </trkpt>
      <trkpt lat="41.1873570" lon="0.5716130">
        <ele>40.9</ele>
        <time>2020-08-06T08:10:50Z</time>
      </trkpt>
      <trkpt lat="41.1873590" lon="0.5715760">
        <ele>41.1</ele>
        <time>2020-08-06T08:10:51Z</time>
      </trkpt>
      <trkpt lat="41.1873600" lon="0.5715640">
        <ele>41.1</ele>
        <time>2020-08-06T08:10:52Z</time>
      </trkpt>
      <trkpt lat="41.1873640" lon="0.5715060">
        <ele>41.4</ele>
        <time>2020-08-06T08:10:54Z</time>
      </trkpt>
      <trkpt lat="41.1873650" lon="0.5714820">
        <ele>41.5</ele>
        <time>2020-08-06T08:10:55Z</time>
      </trkpt>
      <trkpt lat="41.1873660" lon="0.5714240">
        <ele>41.7</ele>
        <time>2020-08-06T08:10:57Z</time>
      </trkpt>
      <trkpt lat="41.1873670" lon="0.5713730">
        <ele>41.9</ele>
        <time>2020-08-06T08:10:59Z</time>
      </trkpt>
      <trkpt lat="41.1873680" lon="0.5713240">
        <ele>42.1</ele>
        <time>2020-08-06T08:11:01Z</time>
      </trkpt>
      <trkpt lat="41.1873700" lon="0.5712870">
        <ele>42.3</ele>
        <time>2020-08-06T08:11:02Z</time>
      </trkpt>
      <trkpt lat="41.1873700" lon="0.5712760">
        <ele>42.3</ele>
        <time>2020-08-06T08:11:03Z</time>
      </trkpt>
      <trkpt lat="41.1873700" lon="0.5712510">
        <ele>42.4</ele>
        <time>2020-08-06T08:11:04Z</time>
      </trkpt>
      <trkpt lat="41.1873760" lon="0.5712160">
        <ele>42.5</ele>
        <time>2020-08-06T08:11:06Z</time>
      </trkpt>
      <trkpt lat="41.1873790" lon="0.5712030">
        <ele>42.6</ele>
        <time>2020-08-06T08:11:07Z</time>
      </trkpt>
      <trkpt lat="41.1873870" lon="0.5712030">
        <ele>42.6</ele>
        <time>2020-08-06T08:11:09Z</time>
      </trkpt>
      <trkpt lat="41.1873910" lon="0.5712130">
        <ele>42.7</ele>
        <time>2020-08-06T08:11:10Z</time>
      </trkpt>
      <trkpt lat="41.1873900" lon="0.5712170">
        <ele>42.7</ele>
        <time>2020-08-06T08:11:11Z</time>
      </trkpt>
      <trkpt lat="41.1873850" lon="0.5712180">
        <ele>42.7</ele>
        <time>2020-08-06T08:11:13Z</time>
      </trkpt>
      <trkpt lat="41.1873860" lon="0.5712160">
        <ele>42.7</ele>
        <time>2020-08-06T08:11:15Z</time>
      </trkpt>
      <trkpt lat="41.1873860" lon="0.5712210">
        <ele>42.7</ele>
        <time>2020-08-06T08:11:20Z</time>
      </trkpt>
      <trkpt lat="41.1873870" lon="0.5712210">
        <ele>42.7</ele>
        <time>2020-08-06T08:11:21Z</time>
      </trkpt>
      <trkpt lat="41.1873950" lon="0.5711430">
        <ele>43.0</ele>
        <time>2020-08-06T08:11:48Z</time>
      </trkpt>
      <trkpt lat="41.1873960" lon="0.5710990">
        <ele>43.2</ele>
        <time>2020-08-06T08:11:50Z</time>
      </trkpt>
      <trkpt lat="41.1873960" lon="0.5710760">
        <ele>43.3</ele>
        <time>2020-08-06T08:11:51Z</time>
      </trkpt>
      <trkpt lat="41.1873940" lon="0.5710340">
        <ele>43.4</ele>
        <time>2020-08-06T08:11:53Z</time>
      </trkpt>
      <trkpt lat="41.1873920" lon="0.5710040">
        <ele>43.5</ele>
        <time>2020-08-06T08:11:54Z</time>
      </trkpt>
      <trkpt lat="41.1873910" lon="0.5709930">
        <ele>43.6</ele>
        <time>2020-08-06T08:11:56Z</time>
      </trkpt>
      <trkpt lat="41.1873910" lon="0.5709830">
        <ele>43.6</ele>
        <time>2020-08-06T08:11:57Z</time>
      </trkpt>
      <trkpt lat="41.1873900" lon="0.5709720">
        <ele>43.7</ele>
        <time>2020-08-06T08:11:59Z</time>
      </trkpt>
      <trkpt lat="41.1873900" lon="0.5709620">
        <ele>43.7</ele>
        <time>2020-08-06T08:12:01Z</time>
      </trkpt>
      <trkpt lat="41.1873890" lon="0.5709510">
        <ele>43.7</ele>
        <time>2020-08-06T08:12:02Z</time>
      </trkpt>
      <trkpt lat="41.1873890" lon="0.5709410">
        <ele>43.8</ele>
        <time>2020-08-06T08:12:03Z</time>
      </trkpt>
      <trkpt lat="41.1873890" lon="0.5709310">
        <ele>43.8</ele>
        <time>2020-08-06T08:12:05Z</time>
      </trkpt>
      <trkpt lat="41.1873880" lon="0.5709200">
        <ele>43.8</ele>
        <time>2020-08-06T08:12:07Z</time>
      </trkpt>
      <trkpt lat="41.1873880" lon="0.5709100">
        <ele>43.9</ele>
        <time>2020-08-06T08:12:08Z</time>
      </trkpt>
      <trkpt lat="41.1873870" lon="0.5708990">
        <ele>43.9</ele>
        <time>2020-08-06T08:12:10Z</time>
      </trkpt>
      <trkpt lat="41.1873870" lon="0.5708890">
        <ele>44.0</ele>
        <time>2020-08-06T08:12:18Z</time>
      </trkpt>
      <trkpt lat="41.1873860" lon="0.5708780">
        <ele>44.0</ele>
        <time>2020-08-06T08:12:19Z</time>
      </trkpt>
      <trkpt lat="41.1873860" lon="0.5708680">
        <ele>44.0</ele>
        <time>2020-08-06T08:12:20Z</time>
      </trkpt>
      <trkpt lat="41.1873850" lon="0.5708370">
        <ele>44.2</ele>
        <time>2020-08-06T08:12:21Z</time>
      </trkpt>
      <trkpt lat="41.1873830" lon="0.5707760">
        <ele>44.4</ele>
        <time>2020-08-06T08:12:23Z</time>
      </trkpt>
      <trkpt lat="41.1873850" lon="0.5707260">
        <ele>44.5</ele>
        <time>2020-08-06T08:12:24Z</time>
      </trkpt>
      <trkpt lat="41.1873860" lon="0.5707080">
        <ele>44.6</ele>
        <time>2020-08-06T08:12:25Z</time>
      </trkpt>
      <trkpt lat="41.1873870" lon="0.5706750">
        <ele>44.7</ele>
        <time>2020-08-06T08:12:26Z</time>
      </trkpt>
      <trkpt lat="41.1873890" lon="0.5706010">
        <ele>44.9</ele>
        <time>2020-08-06T08:12:28Z</time>
      </trkpt>
      <trkpt lat="41.1873910" lon="0.5705490">
        <ele>45.0</ele>
        <time>2020-08-06T08:12:29Z</time>
      </trkpt>
      <trkpt lat="41.1873920" lon="0.5705310">
        <ele>45.1</ele>
        <time>2020-08-06T08:12:30Z</time>
      </trkpt>
      <trkpt lat="41.1873980" lon="0.5704560">
        <ele>45.3</ele>
        <time>2020-08-06T08:12:32Z</time>
      </trkpt>
      <trkpt lat="41.1874010" lon="0.5704130">
        <ele>45.4</ele>
        <time>2020-08-06T08:12:33Z</time>
      </trkpt>
      <trkpt lat="41.1874040" lon="0.5703630">
        <ele>45.6</ele>
        <time>2020-08-06T08:12:34Z</time>
      </trkpt>
      <trkpt lat="41.1874040" lon="0.5703440">
        <ele>45.6</ele>
        <time>2020-08-06T08:12:35Z</time>
      </trkpt>
      <trkpt lat="41.1874090" lon="0.5702680">
        <ele>45.8</ele>
        <time>2020-08-06T08:12:37Z</time>
      </trkpt>
      <trkpt lat="41.1874110" lon="0.5702360">
        <ele>45.8</ele>
        <time>2020-08-06T08:12:38Z</time>
      </trkpt>
      <trkpt lat="41.1874160" lon="0.5701610">
        <ele>46.0</ele>
        <time>2020-08-06T08:12:40Z</time>
      </trkpt>
      <trkpt lat="41.1874180" lon="0.5700930">
        <ele>46.2</ele>
        <time>2020-08-06T08:12:42Z</time>
      </trkpt>
      <trkpt lat="41.1874220" lon="0.5700060">
        <ele>46.4</ele>
        <time>2020-08-06T08:12:44Z</time>
      </trkpt>
      <trkpt lat="41.1874230" lon="0.5699620">
        <ele>46.5</ele>
        <time>2020-08-06T08:12:45Z</time>
      </trkpt>
      <trkpt lat="41.1874230" lon="0.5698870">
        <ele>46.6</ele>
        <time>2020-08-06T08:12:47Z</time>
      </trkpt>
      <trkpt lat="41.1874210" lon="0.5698060">
        <ele>46.8</ele>
        <time>2020-08-06T08:12:49Z</time>
      </trkpt>
      <trkpt lat="41.1874220" lon="0.5697590">
        <ele>46.9</ele>
        <time>2020-08-06T08:12:50Z</time>
      </trkpt>
      <trkpt lat="41.1874270" lon="0.5696840">
        <ele>47.0</ele>
        <time>2020-08-06T08:12:52Z</time>
      </trkpt>
      <trkpt lat="41.1874290" lon="0.5696420">
        <ele>47.1</ele>
        <time>2020-08-06T08:12:53Z</time>
      </trkpt>
      <trkpt lat="41.1874310" lon="0.5695660">
        <ele>47.2</ele>
        <time>2020-08-06T08:12:55Z</time>
      </trkpt>
      <trkpt lat="41.1874320" lon="0.5695240">
        <ele>47.3</ele>
        <time>2020-08-06T08:12:56Z</time>
      </trkpt>
      <trkpt lat="41.1874330" lon="0.5694860">
        <ele>47.3</ele>
        <time>2020-08-06T08:12:57Z</time>
      </trkpt>
      <trkpt lat="41.1874330" lon="0.5694200">
        <ele>47.4</ele>
        <time>2020-08-06T08:12:59Z</time>
      </trkpt>
      <trkpt lat="41.1874330" lon="0.5693760">
        <ele>47.5</ele>
        <time>2020-08-06T08:13:00Z</time>
      </trkpt>
      <trkpt lat="41.1874330" lon="0.5693610">
        <ele>47.5</ele>
        <time>2020-08-06T08:13:01Z</time>
      </trkpt>
      <trkpt lat="41.1874320" lon="0.5693080">
        <ele>47.5</ele>
        <time>2020-08-06T08:13:03Z</time>
      </trkpt>
      <trkpt lat="41.1874270" lon="0.5692650">
        <ele>47.5</ele>
        <time>2020-08-06T08:13:05Z</time>
      </trkpt>
      <trkpt lat="41.1874160" lon="0.5692160">
        <ele>47.5</ele>
        <time>2020-08-06T08:13:07Z</time>
      </trkpt>
      <trkpt lat="41.1874070" lon="0.5691770">
        <ele>47.5</ele>
        <time>2020-08-06T08:13:08Z</time>
      </trkpt>
      <trkpt lat="41.1874040" lon="0.5691640">
        <ele>47.6</ele>
        <time>2020-08-06T08:13:09Z</time>
      </trkpt>
      <trkpt lat="41.1873940" lon="0.5691030">
        <ele>47.6</ele>
        <time>2020-08-06T08:13:11Z</time>
      </trkpt>
      <trkpt lat="41.1873860" lon="0.5690530">
        <ele>47.6</ele>
        <time>2020-08-06T08:13:12Z</time>
      </trkpt>
      <trkpt lat="41.1873830" lon="0.5690360">
        <ele>47.6</ele>
        <time>2020-08-06T08:13:13Z</time>
      </trkpt>
      <trkpt lat="41.1873660" lon="0.5689510">
        <ele>47.7</ele>
        <time>2020-08-06T08:13:15Z</time>
      </trkpt>
      <trkpt lat="41.1873460" lon="0.5688690">
        <ele>47.8</ele>
        <time>2020-08-06T08:13:17Z</time>
      </trkpt>
      <trkpt lat="41.1873340" lon="0.5688180">
        <ele>47.8</ele>
        <time>2020-08-06T08:13:18Z</time>
      </trkpt>
      <trkpt lat="41.1873050" lon="0.5687160">
        <ele>47.8</ele>
        <time>2020-08-06T08:13:20Z</time>
      </trkpt>
      <trkpt lat="41.1872730" lon="0.5686170">
        <ele>47.9</ele>
        <time>2020-08-06T08:13:22Z</time>
      </trkpt>
      <trkpt lat="41.1872570" lon="0.5685650">
        <ele>48.0</ele>
        <time>2020-08-06T08:13:23Z</time>
      </trkpt>
      <trkpt lat="41.1872420" lon="0.5685170">
        <ele>48.2</ele>
        <time>2020-08-06T08:13:24Z</time>
      </trkpt>
      <trkpt lat="41.1872070" lon="0.5684200">
        <ele>48.4</ele>
        <time>2020-08-06T08:13:26Z</time>
      </trkpt>
      <trkpt lat="41.1871870" lon="0.5683690">
        <ele>48.5</ele>
        <time>2020-08-06T08:13:27Z</time>
      </trkpt>
      <trkpt lat="41.1871490" lon="0.5682720">
        <ele>48.8</ele>
        <time>2020-08-06T08:13:29Z</time>
      </trkpt>
      <trkpt lat="41.1871330" lon="0.5682330">
        <ele>48.9</ele>
        <time>2020-08-06T08:13:30Z</time>
      </trkpt>
      <trkpt lat="41.1871040" lon="0.5681470">
        <ele>49.1</ele>
        <time>2020-08-06T08:13:32Z</time>
      </trkpt>
      <trkpt lat="41.1870930" lon="0.5681080">
        <ele>49.3</ele>
        <time>2020-08-06T08:13:33Z</time>
      </trkpt>
      <trkpt lat="41.1870720" lon="0.5680270">
        <ele>49.5</ele>
        <time>2020-08-06T08:13:35Z</time>
      </trkpt>
      <trkpt lat="41.1870630" lon="0.5679890">
        <ele>48.1</ele>
        <time>2020-08-06T08:13:36Z</time>
      </trkpt>
      <trkpt lat="41.1870370" lon="0.5679270">
        <ele>48.1</ele>
        <time>2020-08-06T08:13:38Z</time>
      </trkpt>
      <trkpt lat="41.1870140" lon="0.5679090">
        <ele>48.1</ele>
        <time>2020-08-06T08:13:39Z</time>
      </trkpt>
      <trkpt lat="41.1869610" lon="0.5679260">
        <ele>48.2</ele>
        <time>2020-08-06T08:13:41Z</time>
      </trkpt>
      <trkpt lat="41.1869300" lon="0.5679450">
        <ele>48.2</ele>
        <time>2020-08-06T08:13:42Z</time>
      </trkpt>
      <trkpt lat="41.1868980" lon="0.5679650">
        <ele>48.2</ele>
        <time>2020-08-06T08:13:43Z</time>
      </trkpt>
      <trkpt lat="41.1868660" lon="0.5679830">
        <ele>48.2</ele>
        <time>2020-08-06T08:13:44Z</time>
      </trkpt>
      <trkpt lat="41.1868030" lon="0.5680190">
        <ele>48.1</ele>
        <time>2020-08-06T08:13:46Z</time>
      </trkpt>
      <trkpt lat="41.1867690" lon="0.5680340">
        <ele>48.1</ele>
        <time>2020-08-06T08:13:47Z</time>
      </trkpt>
      <trkpt lat="41.1867080" lon="0.5680430">
        <ele>48.1</ele>
        <time>2020-08-06T08:13:49Z</time>
      </trkpt>
      <trkpt lat="41.1866780" lon="0.5680300">
        <ele>48.1</ele>
        <time>2020-08-06T08:13:50Z</time>
      </trkpt>
      <trkpt lat="41.1866510" lon="0.5680040">
        <ele>48.1</ele>
        <time>2020-08-06T08:13:51Z</time>
      </trkpt>
      <trkpt lat="41.1866060" lon="0.5679540">
        <ele>48.1</ele>
        <time>2020-08-06T08:13:53Z</time>
      </trkpt>
      <trkpt lat="41.1865500" lon="0.5679330">
        <ele>48.1</ele>
        <time>2020-08-06T08:13:55Z</time>
      </trkpt>
      <trkpt lat="41.1865320" lon="0.5679310">
        <ele>48.1</ele>
        <time>2020-08-06T08:13:56Z</time>
      </trkpt>
      <trkpt lat="41.1864720" lon="0.5679300">
        <ele>48.2</ele>
        <time>2020-08-06T08:13:58Z</time>
      </trkpt>
      <trkpt lat="41.1864410" lon="0.5679330">
        <ele>48.2</ele>
        <time>2020-08-06T08:13:59Z</time>
      </trkpt>
      <trkpt lat="41.1863780" lon="0.5679440">
        <ele>48.2</ele>
        <time>2020-08-06T08:14:01Z</time>
      </trkpt>
      <trkpt lat="41.1863420" lon="0.5679510">
        <ele>48.2</ele>
        <time>2020-08-06T08:14:02Z</time>
      </trkpt>
      <trkpt lat="41.1863080" lon="0.5679590">
        <ele>48.2</ele>
        <time>2020-08-06T08:14:03Z</time>
      </trkpt>
      <trkpt lat="41.1862360" lon="0.5679770">
        <ele>48.2</ele>
        <time>2020-08-06T08:14:05Z</time>
      </trkpt>
      <trkpt lat="41.1862030" lon="0.5679840">
        <ele>48.3</ele>
        <time>2020-08-06T08:14:06Z</time>
      </trkpt>
      <trkpt lat="41.1861720" lon="0.5679890">
        <ele>48.3</ele>
        <time>2020-08-06T08:14:07Z</time>
      </trkpt>
      <trkpt lat="41.1861000" lon="0.5679900">
        <ele>48.3</ele>
        <time>2020-08-06T08:14:09Z</time>
      </trkpt>
      <trkpt lat="41.1860630" lon="0.5679870">
        <ele>48.3</ele>
        <time>2020-08-06T08:14:10Z</time>
      </trkpt>
      <trkpt lat="41.1860330" lon="0.5679820">
        <ele>48.3</ele>
        <time>2020-08-06T08:14:11Z</time>
      </trkpt>
      <trkpt lat="41.1859660" lon="0.5679670">
        <ele>48.4</ele>
        <time>2020-08-06T08:14:13Z</time>
      </trkpt>
      <trkpt lat="41.1859380" lon="0.5679600">
        <ele>48.4</ele>
        <time>2020-08-06T08:14:14Z</time>
      </trkpt>
      <trkpt lat="41.1859070" lon="0.5679560">
        <ele>48.4</ele>
        <time>2020-08-06T08:14:15Z</time>
      </trkpt>
      <trkpt lat="41.1858810" lon="0.5679530">
        <ele>48.4</ele>
        <time>2020-08-06T08:14:16Z</time>
      </trkpt>
      <trkpt lat="41.1858440" lon="0.5679380">
        <ele>48.4</ele>
        <time>2020-08-06T08:14:18Z</time>
      </trkpt>
      <trkpt lat="41.1858320" lon="0.5679180">
        <ele>48.6</ele>
        <time>2020-08-06T08:14:19Z</time>
      </trkpt>
      <trkpt lat="41.1858290" lon="0.5678880">
        <ele>48.8</ele>
        <time>2020-08-06T08:14:21Z</time>
      </trkpt>
      <trkpt lat="41.1858290" lon="0.5678790">
        <ele>48.9</ele>
        <time>2020-08-06T08:14:22Z</time>
      </trkpt>
      <trkpt lat="41.1858240" lon="0.5678610">
        <ele>49.0</ele>
        <time>2020-08-06T08:14:24Z</time>
      </trkpt>
      <trkpt lat="41.1858240" lon="0.5678550">
        <ele>49.1</ele>
        <time>2020-08-06T08:14:25Z</time>
      </trkpt>
      <trkpt lat="41.1858200" lon="0.5678380">
        <ele>49.2</ele>
        <time>2020-08-06T08:14:27Z</time>
      </trkpt>
      <trkpt lat="41.1858190" lon="0.5678310">
        <ele>49.2</ele>
        <time>2020-08-06T08:14:28Z</time>
      </trkpt>
      <trkpt lat="41.1858150" lon="0.5678170">
        <ele>49.3</ele>
        <time>2020-08-06T08:14:29Z</time>
      </trkpt>
      <trkpt lat="41.1858110" lon="0.5678050">
        <ele>49.4</ele>
        <time>2020-08-06T08:14:30Z</time>
      </trkpt>
      <trkpt lat="41.1858090" lon="0.5677940">
        <ele>49.5</ele>
        <time>2020-08-06T08:14:31Z</time>
      </trkpt>
      <trkpt lat="41.1857980" lon="0.5677670">
        <ele>49.7</ele>
        <time>2020-08-06T08:14:33Z</time>
      </trkpt>
      <trkpt lat="41.1857930" lon="0.5677590">
        <ele>49.8</ele>
        <time>2020-08-06T08:14:34Z</time>
      </trkpt>
      <trkpt lat="41.1857880" lon="0.5677410">
        <ele>49.9</ele>
        <time>2020-08-06T08:14:35Z</time>
      </trkpt>
      <trkpt lat="41.1857750" lon="0.5677080">
        <ele>50.2</ele>
        <time>2020-08-06T08:14:37Z</time>
      </trkpt>
      <trkpt lat="41.1857720" lon="0.5676680">
        <ele>50.5</ele>
        <time>2020-08-06T08:14:39Z</time>
      </trkpt>
      <trkpt lat="41.1857680" lon="0.5676300">
        <ele>50.7</ele>
        <time>2020-08-06T08:14:41Z</time>
      </trkpt>
      <trkpt lat="41.1857600" lon="0.5675960">
        <ele>50.9</ele>
        <time>2020-08-06T08:14:42Z</time>
      </trkpt>
      <trkpt lat="41.1857490" lon="0.5675480">
        <ele>51.2</ele>
        <time>2020-08-06T08:14:43Z</time>
      </trkpt>
      <trkpt lat="41.1857360" lon="0.5674530">
        <ele>51.4</ele>
        <time>2020-08-06T08:14:45Z</time>
      </trkpt>
      <trkpt lat="41.1857150" lon="0.5673630">
        <ele>51.6</ele>
        <time>2020-08-06T08:14:47Z</time>
      </trkpt>
      <trkpt lat="41.1856950" lon="0.5672920">
        <ele>51.7</ele>
        <time>2020-08-06T08:14:49Z</time>
      </trkpt>
      <trkpt lat="41.1856850" lon="0.5672620">
        <ele>51.8</ele>
        <time>2020-08-06T08:14:50Z</time>
      </trkpt>
      <trkpt lat="41.1856710" lon="0.5672120">
        <ele>51.8</ele>
        <time>2020-08-06T08:14:52Z</time>
      </trkpt>
      <trkpt lat="41.1856640" lon="0.5671670">
        <ele>51.9</ele>
        <time>2020-08-06T08:14:53Z</time>
      </trkpt>
      <trkpt lat="41.1856540" lon="0.5671380">
        <ele>52.0</ele>
        <time>2020-08-06T08:14:54Z</time>
      </trkpt>
      <trkpt lat="41.1856390" lon="0.5670840">
        <ele>52.1</ele>
        <time>2020-08-06T08:14:56Z</time>
      </trkpt>
      <trkpt lat="41.1856300" lon="0.5670400">
        <ele>52.2</ele>
        <time>2020-08-06T08:14:57Z</time>
      </trkpt>
      <trkpt lat="41.1856170" lon="0.5669970">
        <ele>52.2</ele>
        <time>2020-08-06T08:14:58Z</time>
      </trkpt>
      <trkpt lat="41.1856010" lon="0.5669440">
        <ele>52.3</ele>
        <time>2020-08-06T08:15:00Z</time>
      </trkpt>
      <trkpt lat="41.1855920" lon="0.5669060">
        <ele>52.3</ele>
        <time>2020-08-06T08:15:01Z</time>
      </trkpt>
      <trkpt lat="41.1855830" lon="0.5668730">
        <ele>52.3</ele>
        <time>2020-08-06T08:15:02Z</time>
      </trkpt>
      <trkpt lat="41.1855660" lon="0.5668130">
        <ele>52.4</ele>
        <time>2020-08-06T08:15:04Z</time>
      </trkpt>
      <trkpt lat="41.1855540" lon="0.5667740">
        <ele>52.5</ele>
        <time>2020-08-06T08:15:05Z</time>
      </trkpt>
      <trkpt lat="41.1855490" lon="0.5667610">
        <ele>52.5</ele>
        <time>2020-08-06T08:15:06Z</time>
      </trkpt>
      <trkpt lat="41.1855380" lon="0.5667170">
        <ele>52.6</ele>
        <time>2020-08-06T08:15:07Z</time>
      </trkpt>
      <trkpt lat="41.1855330" lon="0.5667030">
        <ele>52.6</ele>
        <time>2020-08-06T08:15:08Z</time>
      </trkpt>
      <trkpt lat="41.1855240" lon="0.5666760">
        <ele>52.7</ele>
        <time>2020-08-06T08:15:09Z</time>
      </trkpt>
      <trkpt lat="41.1855080" lon="0.5666180">
        <ele>52.7</ele>
        <time>2020-08-06T08:15:11Z</time>
      </trkpt>
      <trkpt lat="41.1854940" lon="0.5665700">
        <ele>52.7</ele>
        <time>2020-08-06T08:15:12Z</time>
      </trkpt>
      <trkpt lat="41.1854900" lon="0.5665540">
        <ele>52.7</ele>
        <time>2020-08-06T08:15:13Z</time>
      </trkpt>
      <trkpt lat="41.1854850" lon="0.5665230">
        <ele>52.7</ele>
        <time>2020-08-06T08:15:14Z</time>
      </trkpt>
      <trkpt lat="41.1854710" lon="0.5664600">
        <ele>52.7</ele>
        <time>2020-08-06T08:15:16Z</time>
      </trkpt>
      <trkpt lat="41.1854690" lon="0.5664220">
        <ele>52.7</ele>
        <time>2020-08-06T08:15:18Z</time>
      </trkpt>
      <trkpt lat="41.1854660" lon="0.5663950">
        <ele>52.7</ele>
        <time>2020-08-06T08:15:19Z</time>
      </trkpt>
      <trkpt lat="41.1854670" lon="0.5663760">
        <ele>52.7</ele>
        <time>2020-08-06T08:15:20Z</time>
      </trkpt>
      <trkpt lat="41.1854480" lon="0.5663590">
        <ele>52.7</ele>
        <time>2020-08-06T08:15:22Z</time>
      </trkpt>
      <trkpt lat="41.1854320" lon="0.5663570">
        <ele>52.7</ele>
        <time>2020-08-06T08:15:23Z</time>
      </trkpt>
      <trkpt lat="41.1853890" lon="0.5663550">
        <ele>52.7</ele>
        <time>2020-08-06T08:15:24Z</time>
      </trkpt>
      <trkpt lat="41.1853720" lon="0.5663540">
        <ele>52.6</ele>
        <time>2020-08-06T08:15:25Z</time>
      </trkpt>
      <trkpt lat="41.1853370" lon="0.5663620">
        <ele>52.4</ele>
        <time>2020-08-06T08:15:26Z</time>
      </trkpt>
      <trkpt lat="41.1852790" lon="0.5663800">
        <ele>52.1</ele>
        <time>2020-08-06T08:15:28Z</time>
      </trkpt>
      <trkpt lat="41.1852230" lon="0.5664010">
        <ele>51.7</ele>
        <time>2020-08-06T08:15:29Z</time>
      </trkpt>
      <trkpt lat="41.1851310" lon="0.5664450">
        <ele>51.1</ele>
        <time>2020-08-06T08:15:30Z</time>
      </trkpt>
      <trkpt lat="41.1850720" lon="0.5664750">
        <ele>50.8</ele>
        <time>2020-08-06T08:15:31Z</time>
      </trkpt>
      <trkpt lat="41.1850140" lon="0.5665030">
        <ele>50.4</ele>
        <time>2020-08-06T08:15:32Z</time>
      </trkpt>
      <trkpt lat="41.1849060" lon="0.5665500">
        <ele>49.7</ele>
        <time>2020-08-06T08:15:34Z</time>
      </trkpt>
      <trkpt lat="41.1848580" lon="0.5665730">
        <ele>49.4</ele>
        <time>2020-08-06T08:15:35Z</time>
      </trkpt>
      <trkpt lat="41.1847710" lon="0.5666000">
        <ele>48.8</ele>
        <time>2020-08-06T08:15:37Z</time>
      </trkpt>
      <trkpt lat="41.1846830" lon="0.5666340">
        <ele>48.2</ele>
        <time>2020-08-06T08:15:39Z</time>
      </trkpt>
      <trkpt lat="41.1846450" lon="0.5666480">
        <ele>48.0</ele>
        <time>2020-08-06T08:15:40Z</time>
      </trkpt>
      <trkpt lat="41.1845450" lon="0.5666920">
        <ele>47.3</ele>
        <time>2020-08-06T08:15:42Z</time>
      </trkpt>
      <trkpt lat="41.1844840" lon="0.5667140">
        <ele>47.0</ele>
        <time>2020-08-06T08:15:43Z</time>
      </trkpt>
      <trkpt lat="41.1843710" lon="0.5667600">
        <ele>46.8</ele>
        <time>2020-08-06T08:15:45Z</time>
      </trkpt>
      <trkpt lat="41.1842480" lon="0.5668150">
        <ele>46.2</ele>
        <time>2020-08-06T08:15:47Z</time>
      </trkpt>
      <trkpt lat="41.1841930" lon="0.5668440">
        <ele>45.9</ele>
        <time>2020-08-06T08:15:48Z</time>
      </trkpt>
      <trkpt lat="41.1841430" lon="0.5668720">
        <ele>45.7</ele>
        <time>2020-08-06T08:15:49Z</time>
      </trkpt>
      <trkpt lat="41.1841010" lon="0.5668910">
        <ele>45.5</ele>
        <time>2020-08-06T08:15:50Z</time>
      </trkpt>
      <trkpt lat="41.1840260" lon="0.5669030">
        <ele>45.2</ele>
        <time>2020-08-06T08:15:52Z</time>
      </trkpt>
      <trkpt lat="41.1839960" lon="0.5668930">
        <ele>45.1</ele>
        <time>2020-08-06T08:15:53Z</time>
      </trkpt>
      <trkpt lat="41.1839720" lon="0.5668820">
        <ele>45.1</ele>
        <time>2020-08-06T08:15:54Z</time>
      </trkpt>
      <trkpt lat="41.1839560" lon="0.5668900">
        <ele>45.0</ele>
        <time>2020-08-06T08:15:56Z</time>
      </trkpt>
      <trkpt lat="41.1839460" lon="0.5669360">
        <ele>44.9</ele>
        <time>2020-08-06T08:15:57Z</time>
      </trkpt>
      <trkpt lat="41.1839350" lon="0.5669470">
        <ele>44.9</ele>
        <time>2020-08-06T08:15:58Z</time>
      </trkpt>
      <trkpt lat="41.1838950" lon="0.5669650">
        <ele>44.8</ele>
        <time>2020-08-06T08:16:00Z</time>
      </trkpt>
      <trkpt lat="41.1838600" lon="0.5669880">
        <ele>44.7</ele>
        <time>2020-08-06T08:16:01Z</time>
      </trkpt>
      <trkpt lat="41.1838030" lon="0.5670180">
        <ele>44.6</ele>
        <time>2020-08-06T08:16:03Z</time>
      </trkpt>
      <trkpt lat="41.1837620" lon="0.5670430">
        <ele>44.6</ele>
        <time>2020-08-06T08:16:04Z</time>
      </trkpt>
      <trkpt lat="41.1837310" lon="0.5670650">
        <ele>44.6</ele>
        <time>2020-08-06T08:16:05Z</time>
      </trkpt>
      <trkpt lat="41.1836910" lon="0.5670970">
        <ele>44.6</ele>
        <time>2020-08-06T08:16:06Z</time>
      </trkpt>
      <trkpt lat="41.1836610" lon="0.5671250">
        <ele>44.6</ele>
        <time>2020-08-06T08:16:08Z</time>
      </trkpt>
      <trkpt lat="41.1836350" lon="0.5671550">
        <ele>44.6</ele>
        <time>2020-08-06T08:16:09Z</time>
      </trkpt>
      <trkpt lat="41.1836000" lon="0.5671900">
        <ele>44.6</ele>
        <time>2020-08-06T08:16:10Z</time>
      </trkpt>
      <trkpt lat="41.1835690" lon="0.5672160">
        <ele>44.6</ele>
        <time>2020-08-06T08:16:11Z</time>
      </trkpt>
      <trkpt lat="41.1835050" lon="0.5672650">
        <ele>44.6</ele>
        <time>2020-08-06T08:16:13Z</time>
      </trkpt>
      <trkpt lat="41.1834630" lon="0.5672970">
        <ele>44.6</ele>
        <time>2020-08-06T08:16:14Z</time>
      </trkpt>
      <trkpt lat="41.1834220" lon="0.5673250">
        <ele>44.7</ele>
        <time>2020-08-06T08:16:16Z</time>
      </trkpt>
      <trkpt lat="41.1833870" lon="0.5673480">
        <ele>44.7</ele>
        <time>2020-08-06T08:16:17Z</time>
      </trkpt>
      <trkpt lat="41.1833590" lon="0.5673680">
        <ele>44.7</ele>
        <time>2020-08-06T08:16:18Z</time>
      </trkpt>
      <trkpt lat="41.1833210" lon="0.5673900">
        <ele>44.7</ele>
        <time>2020-08-06T08:16:19Z</time>
      </trkpt>
      <trkpt lat="41.1833040" lon="0.5673980">
        <ele>44.7</ele>
        <time>2020-08-06T08:16:20Z</time>
      </trkpt>
      <trkpt lat="41.1831850" lon="0.5674650">
        <ele>44.7</ele>
        <time>2020-08-06T08:16:22Z</time>
      </trkpt>
      <trkpt lat="41.1831250" lon="0.5675060">
        <ele>44.7</ele>
        <time>2020-08-06T08:16:24Z</time>
      </trkpt>
      <trkpt lat="41.1830980" lon="0.5675280">
        <ele>44.7</ele>
        <time>2020-08-06T08:16:25Z</time>
      </trkpt>
      <trkpt lat="41.1830460" lon="0.5675710">
        <ele>44.7</ele>
        <time>2020-08-06T08:16:27Z</time>
      </trkpt>
      <trkpt lat="41.1829930" lon="0.5676190">
        <ele>45.4</ele>
        <time>2020-08-06T08:16:29Z</time>
      </trkpt>
      <trkpt lat="41.1829670" lon="0.5676410">
        <ele>45.7</ele>
        <time>2020-08-06T08:16:30Z</time>
      </trkpt>
      <trkpt lat="41.1829400" lon="0.5676630">
        <ele>46.0</ele>
        <time>2020-08-06T08:16:31Z</time>
      </trkpt>
      <trkpt lat="41.1828740" lon="0.5676980">
        <ele>46.8</ele>
        <time>2020-08-06T08:16:33Z</time>
      </trkpt>
      <trkpt lat="41.1828400" lon="0.5677040">
        <ele>47.2</ele>
        <time>2020-08-06T08:16:34Z</time>
      </trkpt>
      <trkpt lat="41.1828090" lon="0.5677050">
        <ele>47.6</ele>
        <time>2020-08-06T08:16:35Z</time>
      </trkpt>
      <trkpt lat="41.1827400" lon="0.5677070">
        <ele>48.1</ele>
        <time>2020-08-06T08:16:37Z</time>
      </trkpt>
      <trkpt lat="41.1826740" lon="0.5677260">
        <ele>48.0</ele>
        <time>2020-08-06T08:16:39Z</time>
      </trkpt>
      <trkpt lat="41.1826470" lon="0.5677400">
        <ele>48.0</ele>
        <time>2020-08-06T08:16:40Z</time>
      </trkpt>
      <trkpt lat="41.1826070" lon="0.5677630">
        <ele>48.0</ele>
        <time>2020-08-06T08:16:42Z</time>
      </trkpt>
      <trkpt lat="41.1825710" lon="0.5677810">
        <ele>48.0</ele>
        <time>2020-08-06T08:16:44Z</time>
      </trkpt>
      <trkpt lat="41.1825440" lon="0.5678000">
        <ele>48.0</ele>
        <time>2020-08-06T08:16:46Z</time>
      </trkpt>
      <trkpt lat="41.1825390" lon="0.5677990">
        <ele>48.0</ele>
        <time>2020-08-06T08:16:47Z</time>
      </trkpt>
      <trkpt lat="41.1825460" lon="0.5677800">
        <ele>48.0</ele>
        <time>2020-08-06T08:16:49Z</time>
      </trkpt>
      <trkpt lat="41.1825460" lon="0.5677790">
        <ele>48.0</ele>
        <time>2020-08-06T08:16:50Z</time>
      </trkpt>
      <trkpt lat="41.1825420" lon="0.5677780">
        <ele>48.0</ele>
        <time>2020-08-06T08:16:52Z</time>
      </trkpt>
      <trkpt lat="41.1825470" lon="0.5677740">
        <ele>48.0</ele>
        <time>2020-08-06T08:16:53Z</time>
      </trkpt>
      <trkpt lat="41.1825540" lon="0.5677700">
        <ele>48.0</ele>
        <time>2020-08-06T08:16:54Z</time>
      </trkpt>
      <trkpt lat="41.1825610" lon="0.5677650">
        <ele>48.0</ele>
        <time>2020-08-06T08:16:56Z</time>
      </trkpt>
      <trkpt lat="41.1825610" lon="0.5677630">
        <ele>48.0</ele>
        <time>2020-08-06T08:16:58Z</time>
      </trkpt>
      <trkpt lat="41.1825600" lon="0.5677630">
        <ele>48.0</ele>
        <time>2020-08-06T08:16:59Z</time>
      </trkpt>
      <trkpt lat="41.1825590" lon="0.5677620">
        <ele>48.0</ele>
        <time>2020-08-06T08:17:01Z</time>
      </trkpt>
      <trkpt lat="41.1825580" lon="0.5677620">
        <ele>48.0</ele>
        <time>2020-08-06T08:17:02Z</time>
      </trkpt>
      <trkpt lat="41.1825570" lon="0.5677630">
        <ele>48.0</ele>
        <time>2020-08-06T08:17:04Z</time>
      </trkpt>
      <trkpt lat="41.1825560" lon="0.5677630">
        <ele>48.0</ele>
        <time>2020-08-06T08:17:05Z</time>
      </trkpt>
      <trkpt lat="41.1825550" lon="0.5677640">
        <ele>48.0</ele>
        <time>2020-08-06T08:17:07Z</time>
      </trkpt>
      <trkpt lat="41.1825370" lon="0.5677930">
        <ele>48.0</ele>
        <time>2020-08-06T08:17:39Z</time>
      </trkpt>
      <trkpt lat="41.1825310" lon="0.5677920">
        <ele>48.0</ele>
        <time>2020-08-06T08:17:41Z</time>
      </trkpt>
      <trkpt lat="41.1825260" lon="0.5677940">
        <ele>48.0</ele>
        <time>2020-08-06T08:17:42Z</time>
      </trkpt>
      <trkpt lat="41.1825050" lon="0.5678000">
        <ele>47.9</ele>
        <time>2020-08-06T08:17:44Z</time>
      </trkpt>
      <trkpt lat="41.1824910" lon="0.5678040">
        <ele>47.9</ele>
        <time>2020-08-06T08:17:45Z</time>
      </trkpt>
      <trkpt lat="41.1824530" lon="0.5678130">
        <ele>48.3</ele>
        <time>2020-08-06T08:17:47Z</time>
      </trkpt>
      <trkpt lat="41.1824340" lon="0.5678160">
        <ele>48.6</ele>
        <time>2020-08-06T08:17:48Z</time>
      </trkpt>
      <trkpt lat="41.1823910" lon="0.5678220">
        <ele>49.3</ele>
        <time>2020-08-06T08:17:50Z</time>
      </trkpt>
      <trkpt lat="41.1823750" lon="0.5678240">
        <ele>49.5</ele>
        <time>2020-08-06T08:17:51Z</time>
      </trkpt>
      <trkpt lat="41.1823420" lon="0.5678280">
        <ele>49.9</ele>
        <time>2020-08-06T08:17:53Z</time>
      </trkpt>
      <trkpt lat="41.1823240" lon="0.5678290">
        <ele>50.2</ele>
        <time>2020-08-06T08:17:54Z</time>
      </trkpt>
      <trkpt lat="41.1822740" lon="0.5678170">
        <ele>50.8</ele>
        <time>2020-08-06T08:17:56Z</time>
      </trkpt>
      <trkpt lat="41.1822440" lon="0.5678120">
        <ele>51.2</ele>
        <time>2020-08-06T08:17:57Z</time>
      </trkpt>
      <trkpt lat="41.1822350" lon="0.5678110">
        <ele>51.4</ele>
        <time>2020-08-06T08:17:58Z</time>
      </trkpt>
      <trkpt lat="41.1821910" lon="0.5677990">
        <ele>52.0</ele>
        <time>2020-08-06T08:18:00Z</time>
      </trkpt>
      <trkpt lat="41.1821610" lon="0.5677830">
        <ele>52.4</ele>
        <time>2020-08-06T08:18:01Z</time>
      </trkpt>
      <trkpt lat="41.1821520" lon="0.5677790">
        <ele>52.5</ele>
        <time>2020-08-06T08:18:02Z</time>
      </trkpt>
      <trkpt lat="41.1821330" lon="0.5677700">
        <ele>52.8</ele>
        <time>2020-08-06T08:18:03Z</time>
      </trkpt>
      <trkpt lat="41.1821020" lon="0.5677470">
        <ele>53.3</ele>
        <time>2020-08-06T08:18:05Z</time>
      </trkpt>
      <trkpt lat="41.1820700" lon="0.5677140">
        <ele>54.6</ele>
        <time>2020-08-06T08:18:07Z</time>
      </trkpt>
      <trkpt lat="41.1820420" lon="0.5676900">
        <ele>55.1</ele>
        <time>2020-08-06T08:18:08Z</time>
      </trkpt>
      <trkpt lat="41.1820310" lon="0.5676820">
        <ele>55.3</ele>
        <time>2020-08-06T08:18:09Z</time>
      </trkpt>
      <trkpt lat="41.1819960" lon="0.5676620">
        <ele>55.8</ele>
        <time>2020-08-06T08:18:11Z</time>
      </trkpt>
      <trkpt lat="41.1819800" lon="0.5676510">
        <ele>56.0</ele>
        <time>2020-08-06T08:18:12Z</time>
      </trkpt>
      <trkpt lat="41.1819430" lon="0.5676270">
        <ele>56.6</ele>
        <time>2020-08-06T08:18:14Z</time>
      </trkpt>
      <trkpt lat="41.1819240" lon="0.5676140">
        <ele>56.9</ele>
        <time>2020-08-06T08:18:15Z</time>
      </trkpt>
      <trkpt lat="41.1818880" lon="0.5676020">
        <ele>57.4</ele>
        <time>2020-08-06T08:18:17Z</time>
      </trkpt>
      <trkpt lat="41.1818710" lon="0.5676010">
        <ele>57.5</ele>
        <time>2020-08-06T08:18:18Z</time>
      </trkpt>
      <trkpt lat="41.1818540" lon="0.5676000">
        <ele>57.7</ele>
        <time>2020-08-06T08:18:19Z</time>
      </trkpt>
      <trkpt lat="41.1818390" lon="0.5675970">
        <ele>57.8</ele>
        <time>2020-08-06T08:18:20Z</time>
      </trkpt>
      <trkpt lat="41.1818190" lon="0.5675930">
        <ele>58.1</ele>
        <time>2020-08-06T08:18:22Z</time>
      </trkpt>
      <trkpt lat="41.1818070" lon="0.5675910">
        <ele>58.2</ele>
        <time>2020-08-06T08:18:23Z</time>
      </trkpt>
      <trkpt lat="41.1817870" lon="0.5675870">
        <ele>58.4</ele>
        <time>2020-08-06T08:18:25Z</time>
      </trkpt>
      <trkpt lat="41.1817750" lon="0.5675820">
        <ele>58.6</ele>
        <time>2020-08-06T08:18:27Z</time>
      </trkpt>
      <trkpt lat="41.1817750" lon="0.5675860">
        <ele>58.6</ele>
        <time>2020-08-06T08:18:28Z</time>
      </trkpt>
      <trkpt lat="41.1817730" lon="0.5675900">
        <ele>58.6</ele>
        <time>2020-08-06T08:18:29Z</time>
      </trkpt>
      <trkpt lat="41.1817700" lon="0.5675930">
        <ele>58.7</ele>
        <time>2020-08-06T08:18:30Z</time>
      </trkpt>
      <trkpt lat="41.1817670" lon="0.5675960">
        <ele>58.7</ele>
        <time>2020-08-06T08:18:31Z</time>
      </trkpt>
      <trkpt lat="41.1817660" lon="0.5675960">
        <ele>58.7</ele>
        <time>2020-08-06T08:18:32Z</time>
      </trkpt>
      <trkpt lat="41.1817650" lon="0.5675950">
        <ele>58.7</ele>
        <time>2020-08-06T08:18:33Z</time>
      </trkpt>
      <trkpt lat="41.1817640" lon="0.5675940">
        <ele>58.7</ele>
        <time>2020-08-06T08:18:34Z</time>
      </trkpt>
      <trkpt lat="41.1817630" lon="0.5675940">
        <ele>58.8</ele>
        <time>2020-08-06T08:18:35Z</time>
      </trkpt>
      <trkpt lat="41.1817580" lon="0.5675890">
        <ele>58.8</ele>
        <time>2020-08-06T08:18:36Z</time>
      </trkpt>
      <trkpt lat="41.1817540" lon="0.5675860">
        <ele>58.9</ele>
        <time>2020-08-06T08:18:37Z</time>
      </trkpt>
      <trkpt lat="41.1817560" lon="0.5675950">
        <ele>58.9</ele>
        <time>2020-08-06T08:18:39Z</time>
      </trkpt>
      <trkpt lat="41.1817600" lon="0.5676060">
        <ele>59.0</ele>
        <time>2020-08-06T08:18:41Z</time>
      </trkpt>
      <trkpt lat="41.1817580" lon="0.5676080">
        <ele>59.0</ele>
        <time>2020-08-06T08:18:42Z</time>
      </trkpt>
      <trkpt lat="41.1817510" lon="0.5676000">
        <ele>59.1</ele>
        <time>2020-08-06T08:18:44Z</time>
      </trkpt>
      <trkpt lat="41.1817490" lon="0.5675980">
        <ele>59.2</ele>
        <time>2020-08-06T08:18:45Z</time>
      </trkpt>
      <trkpt lat="41.1817480" lon="0.5675960">
        <ele>59.2</ele>
        <time>2020-08-06T08:18:47Z</time>
      </trkpt>
      <trkpt lat="41.1817480" lon="0.5675950">
        <ele>59.2</ele>
        <time>2020-08-06T08:18:48Z</time>
      </trkpt>
      <trkpt lat="41.1817400" lon="0.5675890">
        <ele>59.3</ele>
        <time>2020-08-06T08:18:50Z</time>
      </trkpt>
      <trkpt lat="41.1817320" lon="0.5675790">
        <ele>59.4</ele>
        <time>2020-08-06T08:18:51Z</time>
      </trkpt>
      <trkpt lat="41.1817210" lon="0.5675660">
        <ele>59.5</ele>
        <time>2020-08-06T08:18:52Z</time>
      </trkpt>
      <trkpt lat="41.1816960" lon="0.5675500">
        <ele>59.8</ele>
        <time>2020-08-06T08:18:54Z</time>
      </trkpt>
      <trkpt lat="41.1816890" lon="0.5675480">
        <ele>59.9</ele>
        <time>2020-08-06T08:18:55Z</time>
      </trkpt>
      <trkpt lat="41.1816800" lon="0.5675430">
        <ele>60.0</ele>
        <time>2020-08-06T08:18:57Z</time>
      </trkpt>
      <trkpt lat="41.1816750" lon="0.5675430">
        <ele>60.0</ele>
        <time>2020-08-06T08:18:59Z</time>
      </trkpt>
      <trkpt lat="41.1816730" lon="0.5675410">
        <ele>60.0</ele>
        <time>2020-08-06T08:19:00Z</time>
      </trkpt>
      <trkpt lat="41.1816730" lon="0.5675430">
        <ele>60.0</ele>
        <time>2020-08-06T08:19:01Z</time>
      </trkpt>
      <trkpt lat="41.1816720" lon="0.5675430">
        <ele>60.1</ele>
        <time>2020-08-06T08:19:03Z</time>
      </trkpt>
      <trkpt lat="41.1816780" lon="0.5675380">
        <ele>60.1</ele>
        <time>2020-08-06T08:19:08Z</time>
      </trkpt>
      <trkpt lat="41.1816710" lon="0.5675240">
        <ele>60.2</ele>
        <time>2020-08-06T08:19:21Z</time>
      </trkpt>
      <trkpt lat="41.1816610" lon="0.5675110">
        <ele>60.4</ele>
        <time>2020-08-06T08:19:22Z</time>
      </trkpt>
      <trkpt lat="41.1816470" lon="0.5674970">
        <ele>60.6</ele>
        <time>2020-08-06T08:19:24Z</time>
      </trkpt>
      <trkpt lat="41.1816390" lon="0.5674890">
        <ele>60.6</ele>
        <time>2020-08-06T08:19:26Z</time>
      </trkpt>
      <trkpt lat="41.1816430" lon="0.5674690">
        <ele>60.8</ele>
        <time>2020-08-06T08:19:28Z</time>
      </trkpt>
      <trkpt lat="41.1816380" lon="0.5674370">
        <ele>61.1</ele>
        <time>2020-08-06T08:19:30Z</time>
      </trkpt>
      <trkpt lat="41.1816290" lon="0.5674230">
        <ele>61.2</ele>
        <time>2020-08-06T08:19:31Z</time>
      </trkpt>
      <trkpt lat="41.1815980" lon="0.5674220">
        <ele>61.5</ele>
        <time>2020-08-06T08:19:33Z</time>
      </trkpt>
      <trkpt lat="41.1815730" lon="0.5674440">
        <ele>61.9</ele>
        <time>2020-08-06T08:19:35Z</time>
      </trkpt>
      <trkpt lat="41.1815610" lon="0.5674550">
        <ele>62.0</ele>
        <time>2020-08-06T08:19:37Z</time>
      </trkpt>
      <trkpt lat="41.1815610" lon="0.5674610">
        <ele>62.1</ele>
        <time>2020-08-06T08:19:39Z</time>
      </trkpt>
      <trkpt lat="41.1815600" lon="0.5674590">
        <ele>62.1</ele>
        <time>2020-08-06T08:19:40Z</time>
      </trkpt>
      <trkpt lat="41.1815600" lon="0.5674570">
        <ele>62.1</ele>
        <time>2020-08-06T08:19:41Z</time>
      </trkpt>
      <trkpt lat="41.1815580" lon="0.5674500">
        <ele>62.2</ele>
        <time>2020-08-06T08:19:43Z</time>
      </trkpt>
      <trkpt lat="41.1815570" lon="0.5674470">
        <ele>62.2</ele>
        <time>2020-08-06T08:19:44Z</time>
      </trkpt>
      <trkpt lat="41.1815570" lon="0.5674460">
        <ele>62.2</ele>
        <time>2020-08-06T08:19:45Z</time>
      </trkpt>
      <trkpt lat="41.1815580" lon="0.5674460">
        <ele>62.2</ele>
        <time>2020-08-06T08:19:47Z</time>
      </trkpt>
      <trkpt lat="41.1815580" lon="0.5673930">
        <ele>62.6</ele>
        <time>2020-08-06T08:20:16Z</time>
      </trkpt>
      <trkpt lat="41.1815590" lon="0.5673790">
        <ele>62.7</ele>
        <time>2020-08-06T08:20:17Z</time>
      </trkpt>
      <trkpt lat="41.1815510" lon="0.5673680">
        <ele>62.9</ele>
        <time>2020-08-06T08:20:19Z</time>
      </trkpt>
      <trkpt lat="41.1815190" lon="0.5673620">
        <ele>63.4</ele>
        <time>2020-08-06T08:20:21Z</time>
      </trkpt>
      <trkpt lat="41.1814900" lon="0.5673500">
        <ele>63.5</ele>
        <time>2020-08-06T08:20:22Z</time>
      </trkpt>
      <trkpt lat="41.1814780" lon="0.5673440">
        <ele>63.5</ele>
        <time>2020-08-06T08:20:23Z</time>
      </trkpt>
      <trkpt lat="41.1814580" lon="0.5673320">
        <ele>63.6</ele>
        <time>2020-08-06T08:20:24Z</time>
      </trkpt>
      <trkpt lat="41.1814470" lon="0.5673280">
        <ele>63.6</ele>
        <time>2020-08-06T08:20:25Z</time>
      </trkpt>
      <trkpt lat="41.1814400" lon="0.5673260">
        <ele>63.6</ele>
        <time>2020-08-06T08:20:26Z</time>
      </trkpt>
      <trkpt lat="41.1814250" lon="0.5673220">
        <ele>63.7</ele>
        <time>2020-08-06T08:20:28Z</time>
      </trkpt>
      <trkpt lat="41.1814170" lon="0.5673180">
        <ele>63.7</ele>
        <time>2020-08-06T08:20:29Z</time>
      </trkpt>
      <trkpt lat="41.1814100" lon="0.5673140">
        <ele>63.8</ele>
        <time>2020-08-06T08:20:30Z</time>
      </trkpt>
      <trkpt lat="41.1814000" lon="0.5673190">
        <ele>63.8</ele>
        <time>2020-08-06T08:20:32Z</time>
      </trkpt>
      <trkpt lat="41.1813930" lon="0.5673260">
        <ele>63.8</ele>
        <time>2020-08-06T08:20:33Z</time>
      </trkpt>
      <trkpt lat="41.1813700" lon="0.5673380">
        <ele>63.9</ele>
        <time>2020-08-06T08:20:35Z</time>
      </trkpt>
      <trkpt lat="41.1813480" lon="0.5673410">
        <ele>64.0</ele>
        <time>2020-08-06T08:20:37Z</time>
      </trkpt>
      <trkpt lat="41.1813360" lon="0.5673460">
        <ele>64.1</ele>
        <time>2020-08-06T08:20:38Z</time>
      </trkpt>
      <trkpt lat="41.1813100" lon="0.5673690">
        <ele>64.3</ele>
        <time>2020-08-06T08:20:40Z</time>
      </trkpt>
      <trkpt lat="41.1812970" lon="0.5673810">
        <ele>64.4</ele>
        <time>2020-08-06T08:20:41Z</time>
      </trkpt>
      <trkpt lat="41.1812700" lon="0.5673950">
        <ele>64.5</ele>
        <time>2020-08-06T08:20:43Z</time>
      </trkpt>
      <trkpt lat="41.1812570" lon="0.5674000">
        <ele>64.6</ele>
        <time>2020-08-06T08:20:44Z</time>
      </trkpt>
      <trkpt lat="41.1812450" lon="0.5674070">
        <ele>64.7</ele>
        <time>2020-08-06T08:20:45Z</time>
      </trkpt>
      <trkpt lat="41.1812260" lon="0.5674280">
        <ele>64.8</ele>
        <time>2020-08-06T08:20:47Z</time>
      </trkpt>
      <trkpt lat="41.1812160" lon="0.5674390">
        <ele>64.9</ele>
        <time>2020-08-06T08:20:48Z</time>
      </trkpt>
      <trkpt lat="41.1812040" lon="0.5674540">
        <ele>65.0</ele>
        <time>2020-08-06T08:20:50Z</time>
      </trkpt>
      <trkpt lat="41.1812000" lon="0.5674630">
        <ele>65.1</ele>
        <time>2020-08-06T08:20:51Z</time>
      </trkpt>
      <trkpt lat="41.1811810" lon="0.5674810">
        <ele>65.3</ele>
        <time>2020-08-06T08:20:53Z</time>
      </trkpt>
      <trkpt lat="41.1811670" lon="0.5674860">
        <ele>65.4</ele>
        <time>2020-08-06T08:20:54Z</time>
      </trkpt>
      <trkpt lat="41.1811400" lon="0.5674960">
        <ele>65.6</ele>
        <time>2020-08-06T08:20:56Z</time>
      </trkpt>
      <trkpt lat="41.1811130" lon="0.5675080">
        <ele>65.8</ele>
        <time>2020-08-06T08:20:58Z</time>
      </trkpt>
      <trkpt lat="41.1810830" lon="0.5675170">
        <ele>66.0</ele>
        <time>2020-08-06T08:21:00Z</time>
      </trkpt>
      <trkpt lat="41.1810600" lon="0.5675270">
        <ele>66.2</ele>
        <time>2020-08-06T08:21:02Z</time>
      </trkpt>
      <trkpt lat="41.1810500" lon="0.5675330">
        <ele>66.3</ele>
        <time>2020-08-06T08:21:03Z</time>
      </trkpt>
      <trkpt lat="41.1810290" lon="0.5675480">
        <ele>66.4</ele>
        <time>2020-08-06T08:21:05Z</time>
      </trkpt>
      <trkpt lat="41.1810070" lon="0.5675600">
        <ele>66.6</ele>
        <time>2020-08-06T08:21:07Z</time>
      </trkpt>
      <trkpt lat="41.1809790" lon="0.5675660">
        <ele>66.7</ele>
        <time>2020-08-06T08:21:09Z</time>
      </trkpt>
      <trkpt lat="41.1809630" lon="0.5675890">
        <ele>66.8</ele>
        <time>2020-08-06T08:21:11Z</time>
      </trkpt>
      <trkpt lat="41.1809580" lon="0.5676010">
        <ele>66.9</ele>
        <time>2020-08-06T08:21:12Z</time>
      </trkpt>
      <trkpt lat="41.1809420" lon="0.5676100">
        <ele>67.0</ele>
        <time>2020-08-06T08:21:14Z</time>
      </trkpt>
      <trkpt lat="41.1809330" lon="0.5676150">
        <ele>67.0</ele>
        <time>2020-08-06T08:21:15Z</time>
      </trkpt>
      <trkpt lat="41.1809240" lon="0.5676240">
        <ele>67.0</ele>
        <time>2020-08-06T08:21:16Z</time>
      </trkpt>
      <trkpt lat="41.1809190" lon="0.5676320">
        <ele>67.1</ele>
        <time>2020-08-06T08:21:17Z</time>
      </trkpt>
      <trkpt lat="41.1809160" lon="0.5676420">
        <ele>67.1</ele>
        <time>2020-08-06T08:21:18Z</time>
      </trkpt>
      <trkpt lat="41.1809150" lon="0.5676500">
        <ele>67.3</ele>
        <time>2020-08-06T08:21:19Z</time>
      </trkpt>
      <trkpt lat="41.1809110" lon="0.5676710">
        <ele>67.5</ele>
        <time>2020-08-06T08:21:21Z</time>
      </trkpt>
      <trkpt lat="41.1809030" lon="0.5676840">
        <ele>67.7</ele>
        <time>2020-08-06T08:21:23Z</time>
      </trkpt>
      <trkpt lat="41.1808950" lon="0.5676870">
        <ele>67.7</ele>
        <time>2020-08-06T08:21:25Z</time>
      </trkpt>
      <trkpt lat="41.1808930" lon="0.5676770">
        <ele>67.8</ele>
        <time>2020-08-06T08:21:26Z</time>
      </trkpt>
      <trkpt lat="41.1808900" lon="0.5676720">
        <ele>67.9</ele>
        <time>2020-08-06T08:21:28Z</time>
      </trkpt>
      <trkpt lat="41.1808920" lon="0.5676630">
        <ele>67.9</ele>
        <time>2020-08-06T08:21:29Z</time>
      </trkpt>
      <trkpt lat="41.1808970" lon="0.5676550">
        <ele>68.0</ele>
        <time>2020-08-06T08:21:30Z</time>
      </trkpt>
      <trkpt lat="41.1809060" lon="0.5676500">
        <ele>68.1</ele>
        <time>2020-08-06T08:21:32Z</time>
      </trkpt>
      <trkpt lat="41.1809090" lon="0.5676500">
        <ele>68.2</ele>
        <time>2020-08-06T08:21:34Z</time>
      </trkpt>
      <trkpt lat="41.1809080" lon="0.5676500">
        <ele>68.2</ele>
        <time>2020-08-06T08:21:36Z</time>
      </trkpt>
      <trkpt lat="41.1809050" lon="0.5676510">
        <ele>68.2</ele>
        <time>2020-08-06T08:21:37Z</time>
      </trkpt>
      <trkpt lat="41.1809040" lon="0.5676500">
        <ele>68.2</ele>
        <time>2020-08-06T08:21:39Z</time>
      </trkpt>
      <trkpt lat="41.1809040" lon="0.5676500">
        <ele>68.2</ele>
        <time>2020-08-06T08:21:40Z</time>
      </trkpt>
      <trkpt lat="41.1809040" lon="0.5676500">
        <ele>68.2</ele>
        <time>2020-08-06T08:21:41Z</time>
      </trkpt>
      <trkpt lat="41.1809040" lon="0.5676500">
        <ele>68.2</ele>
        <time>2020-08-06T08:21:42Z</time>
      </trkpt>
      <trkpt lat="41.1808990" lon="0.5676240">
        <ele>68.4</ele>
        <time>2020-08-06T08:21:44Z</time>
      </trkpt>
      <trkpt lat="41.1809360" lon="0.5675170">
        <ele>68.9</ele>
        <time>2020-08-06T08:21:50Z</time>
      </trkpt>
      <trkpt lat="41.1809420" lon="0.5675010">
        <ele>69.0</ele>
        <time>2020-08-06T08:21:51Z</time>
      </trkpt>
      <trkpt lat="41.1809640" lon="0.5674490">
        <ele>69.2</ele>
        <time>2020-08-06T08:21:53Z</time>
      </trkpt>
      <trkpt lat="41.1809890" lon="0.5674080">
        <ele>69.3</ele>
        <time>2020-08-06T08:21:55Z</time>
      </trkpt>
      <trkpt lat="41.1810050" lon="0.5673960">
        <ele>69.4</ele>
        <time>2020-08-06T08:21:56Z</time>
      </trkpt>
      <trkpt lat="41.1810220" lon="0.5673880">
        <ele>69.5</ele>
        <time>2020-08-06T08:21:57Z</time>
      </trkpt>
      <trkpt lat="41.1810560" lon="0.5673740">
        <ele>69.7</ele>
        <time>2020-08-06T08:21:59Z</time>
      </trkpt>
      <trkpt lat="41.1810710" lon="0.5673650">
        <ele>69.7</ele>
        <time>2020-08-06T08:22:00Z</time>
      </trkpt>
      <trkpt lat="41.1810840" lon="0.5673540">
        <ele>69.8</ele>
        <time>2020-08-06T08:22:01Z</time>
      </trkpt>
      <trkpt lat="41.1810960" lon="0.5673430">
        <ele>69.9</ele>
        <time>2020-08-06T08:22:02Z</time>
      </trkpt>
      <trkpt lat="41.1811080" lon="0.5673300">
        <ele>70.0</ele>
        <time>2020-08-06T08:22:03Z</time>
      </trkpt>
      <trkpt lat="41.1811430" lon="0.5672900">
        <ele>70.8</ele>
        <time>2020-08-06T08:22:06Z</time>
      </trkpt>
      <trkpt lat="41.1811640" lon="0.5672640">
        <ele>71.2</ele>
        <time>2020-08-06T08:22:08Z</time>
      </trkpt>
      <trkpt lat="41.1811830" lon="0.5672360">
        <ele>71.4</ele>
        <time>2020-08-06T08:22:10Z</time>
      </trkpt>
      <trkpt lat="41.1811950" lon="0.5672250">
        <ele>71.5</ele>
        <time>2020-08-06T08:22:11Z</time>
      </trkpt>
      <trkpt lat="41.1812060" lon="0.5672100">
        <ele>71.5</ele>
        <time>2020-08-06T08:22:12Z</time>
      </trkpt>
      <trkpt lat="41.1812260" lon="0.5671820">
        <ele>71.5</ele>
        <time>2020-08-06T08:22:14Z</time>
      </trkpt>
      <trkpt lat="41.1812340" lon="0.5671690">
        <ele>71.4</ele>
        <time>2020-08-06T08:22:15Z</time>
      </trkpt>
      <trkpt lat="41.1812440" lon="0.5671560">
        <ele>71.3</ele>
        <time>2020-08-06T08:22:16Z</time>
      </trkpt>
      <trkpt lat="41.1812530" lon="0.5671410">
        <ele>71.2</ele>
        <time>2020-08-06T08:22:17Z</time>
      </trkpt>
      <trkpt lat="41.1812620" lon="0.5671270">
        <ele>71.1</ele>
        <time>2020-08-06T08:22:18Z</time>
      </trkpt>
      <trkpt lat="41.1812700" lon="0.5671150">
        <ele>71.0</ele>
        <time>2020-08-06T08:22:19Z</time>
      </trkpt>
      <trkpt lat="41.1812900" lon="0.5670910">
        <ele>70.8</ele>
        <time>2020-08-06T08:22:21Z</time>
      </trkpt>
      <trkpt lat="41.1812990" lon="0.5670800">
        <ele>70.7</ele>
        <time>2020-08-06T08:22:22Z</time>
      </trkpt>
      <trkpt lat="41.1813060" lon="0.5670720">
        <ele>70.6</ele>
        <time>2020-08-06T08:22:24Z</time>
      </trkpt>
      <trkpt lat="41.1813100" lon="0.5670670">
        <ele>70.6</ele>
        <time>2020-08-06T08:22:26Z</time>
      </trkpt>
      <trkpt lat="41.1813100" lon="0.5670600">
        <ele>70.5</ele>
        <time>2020-08-06T08:22:28Z</time>
      </trkpt>
      <trkpt lat="41.1813100" lon="0.5670560">
        <ele>70.5</ele>
        <time>2020-08-06T08:22:30Z</time>
      </trkpt>
      <trkpt lat="41.1813060" lon="0.5670590">
        <ele>70.4</ele>
        <time>2020-08-06T08:22:31Z</time>
      </trkpt>
      <trkpt lat="41.1813040" lon="0.5670600">
        <ele>70.4</ele>
        <time>2020-08-06T08:22:32Z</time>
      </trkpt>
      <trkpt lat="41.1812960" lon="0.5670650">
        <ele>70.3</ele>
        <time>2020-08-06T08:22:34Z</time>
      </trkpt>
      <trkpt lat="41.1812930" lon="0.5670660">
        <ele>70.3</ele>
        <time>2020-08-06T08:22:36Z</time>
      </trkpt>
      <trkpt lat="41.1812950" lon="0.5670640">
        <ele>70.3</ele>
        <time>2020-08-06T08:22:38Z</time>
      </trkpt>
      <trkpt lat="41.1812950" lon="0.5670640">
        <ele>70.3</ele>
        <time>2020-08-06T08:22:39Z</time>
      </trkpt>
      <trkpt lat="41.1812940" lon="0.5670650">
        <ele>70.3</ele>
        <time>2020-08-06T08:22:40Z</time>
      </trkpt>
      <trkpt lat="41.1812950" lon="0.5670640">
        <ele>70.3</ele>
        <time>2020-08-06T08:22:42Z</time>
      </trkpt>
      <trkpt lat="41.1813190" lon="0.5670230">
        <ele>70.0</ele>
        <time>2020-08-06T08:25:31Z</time>
      </trkpt>
      <trkpt lat="41.1813260" lon="0.5670000">
        <ele>69.8</ele>
        <time>2020-08-06T08:25:32Z</time>
      </trkpt>
      <trkpt lat="41.1813300" lon="0.5669820">
        <ele>69.7</ele>
        <time>2020-08-06T08:25:33Z</time>
      </trkpt>
      <trkpt lat="41.1813400" lon="0.5669480">
        <ele>69.4</ele>
        <time>2020-08-06T08:25:35Z</time>
      </trkpt>
      <trkpt lat="41.1813460" lon="0.5669200">
        <ele>69.5</ele>
        <time>2020-08-06T08:25:37Z</time>
      </trkpt>
      <trkpt lat="41.1813470" lon="0.5669090">
        <ele>69.6</ele>
        <time>2020-08-06T08:25:38Z</time>
      </trkpt>
      <trkpt lat="41.1813440" lon="0.5668970">
        <ele>69.6</ele>
        <time>2020-08-06T08:25:39Z</time>
      </trkpt>
      <trkpt lat="41.1813340" lon="0.5668840">
        <ele>69.7</ele>
        <time>2020-08-06T08:25:41Z</time>
      </trkpt>
      <trkpt lat="41.1813200" lon="0.5668750">
        <ele>69.8</ele>
        <time>2020-08-06T08:25:43Z</time>
      </trkpt>
      <trkpt lat="41.1813140" lon="0.5668800">
        <ele>69.8</ele>
        <time>2020-08-06T08:25:44Z</time>
      </trkpt>
      <trkpt lat="41.1813100" lon="0.5668800">
        <ele>69.8</ele>
        <time>2020-08-06T08:25:46Z</time>
      </trkpt>
      <trkpt lat="41.1813030" lon="0.5668690">
        <ele>69.9</ele>
        <time>2020-08-06T08:25:47Z</time>
      </trkpt>
      <trkpt lat="41.1812840" lon="0.5668500">
        <ele>70.0</ele>
        <time>2020-08-06T08:25:49Z</time>
      </trkpt>
      <trkpt lat="41.1812800" lon="0.5668410">
        <ele>70.0</ele>
        <time>2020-08-06T08:25:50Z</time>
      </trkpt>
      <trkpt lat="41.1812730" lon="0.5668270">
        <ele>70.1</ele>
        <time>2020-08-06T08:25:52Z</time>
      </trkpt>
      <trkpt lat="41.1812690" lon="0.5668190">
        <ele>70.1</ele>
        <time>2020-08-06T08:25:53Z</time>
      </trkpt>
      <trkpt lat="41.1812630" lon="0.5668080">
        <ele>70.2</ele>
        <time>2020-08-06T08:25:54Z</time>
      </trkpt>
      <trkpt lat="41.1812650" lon="0.5668070">
        <ele>70.2</ele>
        <time>2020-08-06T08:25:56Z</time>
      </trkpt>
      <trkpt lat="41.1812690" lon="0.5668090">
        <ele>70.2</ele>
        <time>2020-08-06T08:25:57Z</time>
      </trkpt>
      <trkpt lat="41.1812800" lon="0.5668150">
        <ele>70.3</ele>
        <time>2020-08-06T08:25:59Z</time>
      </trkpt>
      <trkpt lat="41.1812880" lon="0.5668150">
        <ele>70.3</ele>
        <time>2020-08-06T08:26:01Z</time>
      </trkpt>
      <trkpt lat="41.1812910" lon="0.5668130">
        <ele>70.3</ele>
        <time>2020-08-06T08:26:02Z</time>
      </trkpt>
      <trkpt lat="41.1812950" lon="0.5668120">
        <ele>70.4</ele>
        <time>2020-08-06T08:26:03Z</time>
      </trkpt>
      <trkpt lat="41.1812960" lon="0.5668090">
        <ele>70.4</ele>
        <time>2020-08-06T08:26:04Z</time>
      </trkpt>
      <trkpt lat="41.1812970" lon="0.5668080">
        <ele>70.4</ele>
        <time>2020-08-06T08:26:05Z</time>
      </trkpt>
      <trkpt lat="41.1812970" lon="0.5668060">
        <ele>70.4</ele>
        <time>2020-08-06T08:26:06Z</time>
      </trkpt>
      <trkpt lat="41.1812980" lon="0.5668040">
        <ele>70.4</ele>
        <time>2020-08-06T08:26:08Z</time>
      </trkpt>
      <trkpt lat="41.1812970" lon="0.5668040">
        <ele>70.4</ele>
        <time>2020-08-06T08:26:09Z</time>
      </trkpt>
      <trkpt lat="41.1812940" lon="0.5668040">
        <ele>70.4</ele>
        <time>2020-08-06T08:26:11Z</time>
      </trkpt>
      <trkpt lat="41.1812930" lon="0.5668040">
        <ele>70.4</ele>
        <time>2020-08-06T08:26:12Z</time>
      </trkpt>
      <trkpt lat="41.1812920" lon="0.5668030">
        <ele>70.4</ele>
        <time>2020-08-06T08:26:14Z</time>
      </trkpt>
      <trkpt lat="41.1812910" lon="0.5668530">
        <ele>70.6</ele>
        <time>2020-08-06T08:26:46Z</time>
      </trkpt>
      <trkpt lat="41.1812890" lon="0.5668840">
        <ele>70.7</ele>
        <time>2020-08-06T08:26:47Z</time>
      </trkpt>
      <trkpt lat="41.1812910" lon="0.5669440">
        <ele>70.9</ele>
        <time>2020-08-06T08:26:49Z</time>
      </trkpt>
      <trkpt lat="41.1813030" lon="0.5669440">
        <ele>71.0</ele>
        <time>2020-08-06T08:26:50Z</time>
      </trkpt>
      <trkpt lat="41.1813130" lon="0.5669160">
        <ele>71.1</ele>
        <time>2020-08-06T08:26:52Z</time>
      </trkpt>
      <trkpt lat="41.1813140" lon="0.5668890">
        <ele>71.2</ele>
        <time>2020-08-06T08:26:54Z</time>
      </trkpt>
      <trkpt lat="41.1813170" lon="0.5668830">
        <ele>71.2</ele>
        <time>2020-08-06T08:26:55Z</time>
      </trkpt>
      <trkpt lat="41.1813250" lon="0.5668860">
        <ele>71.3</ele>
        <time>2020-08-06T08:26:57Z</time>
      </trkpt>
      <trkpt lat="41.1813280" lon="0.5668860">
        <ele>71.3</ele>
        <time>2020-08-06T08:26:58Z</time>
      </trkpt>
      <trkpt lat="41.1813300" lon="0.5668840">
        <ele>71.3</ele>
        <time>2020-08-06T08:26:59Z</time>
      </trkpt>
      <trkpt lat="41.1813360" lon="0.5668850">
        <ele>71.3</ele>
        <time>2020-08-06T08:27:01Z</time>
      </trkpt>
      <trkpt lat="41.1813410" lon="0.5668980">
        <ele>71.4</ele>
        <time>2020-08-06T08:27:03Z</time>
      </trkpt>
      <trkpt lat="41.1813420" lon="0.5669030">
        <ele>71.4</ele>
        <time>2020-08-06T08:27:04Z</time>
      </trkpt>
      <trkpt lat="41.1813430" lon="0.5669100">
        <ele>71.4</ele>
        <time>2020-08-06T08:27:06Z</time>
      </trkpt>
      <trkpt lat="41.1813460" lon="0.5669140">
        <ele>71.4</ele>
        <time>2020-08-06T08:27:07Z</time>
      </trkpt>
      <trkpt lat="41.1813490" lon="0.5669210">
        <ele>71.5</ele>
        <time>2020-08-06T08:27:08Z</time>
      </trkpt>
      <trkpt lat="41.1813530" lon="0.5669280">
        <ele>71.5</ele>
        <time>2020-08-06T08:27:09Z</time>
      </trkpt>
      <trkpt lat="41.1813560" lon="0.5669350">
        <ele>71.5</ele>
        <time>2020-08-06T08:27:11Z</time>
      </trkpt>
      <trkpt lat="41.1813570" lon="0.5669370">
        <ele>71.5</ele>
        <time>2020-08-06T08:27:12Z</time>
      </trkpt>
      <trkpt lat="41.1813570" lon="0.5669370">
        <ele>71.5</ele>
        <time>2020-08-06T08:27:14Z</time>
      </trkpt>
      <trkpt lat="41.1813570" lon="0.5669370">
        <ele>71.5</ele>
        <time>2020-08-06T08:27:15Z</time>
      </trkpt>
      <trkpt lat="41.1813600" lon="0.5669280">
        <ele>71.6</ele>
        <time>2020-08-06T08:27:17Z</time>
      </trkpt>
      <trkpt lat="41.1813630" lon="0.5669180">
        <ele>71.6</ele>
        <time>2020-08-06T08:27:18Z</time>
      </trkpt>
      <trkpt lat="41.1813510" lon="0.5668910">
        <ele>71.7</ele>
        <time>2020-08-06T08:27:20Z</time>
      </trkpt>
      <trkpt lat="41.1813250" lon="0.5668660">
        <ele>71.9</ele>
        <time>2020-08-06T08:27:22Z</time>
      </trkpt>
      <trkpt lat="41.1813110" lon="0.5668540">
        <ele>72.0</ele>
        <time>2020-08-06T08:27:23Z</time>
      </trkpt>
      <trkpt lat="41.1812900" lon="0.5668330">
        <ele>72.1</ele>
        <time>2020-08-06T08:27:25Z</time>
      </trkpt>
      <trkpt lat="41.1812890" lon="0.5668270">
        <ele>72.1</ele>
        <time>2020-08-06T08:27:26Z</time>
      </trkpt>
      <trkpt lat="41.1812870" lon="0.5668200">
        <ele>72.1</ele>
        <time>2020-08-06T08:27:28Z</time>
      </trkpt>
      <trkpt lat="41.1812870" lon="0.5668200">
        <ele>72.1</ele>
        <time>2020-08-06T08:27:29Z</time>
      </trkpt>
      <trkpt lat="41.1812810" lon="0.5668190">
        <ele>72.2</ele>
        <time>2020-08-06T08:27:30Z</time>
      </trkpt>
      <trkpt lat="41.1812700" lon="0.5668230">
        <ele>72.2</ele>
        <time>2020-08-06T08:27:32Z</time>
      </trkpt>
      <trkpt lat="41.1812670" lon="0.5668210">
        <ele>72.2</ele>
        <time>2020-08-06T08:27:33Z</time>
      </trkpt>
      <trkpt lat="41.1812670" lon="0.5668200">
        <ele>72.2</ele>
        <time>2020-08-06T08:27:34Z</time>
      </trkpt>
      <trkpt lat="41.1812700" lon="0.5668210">
        <ele>72.2</ele>
        <time>2020-08-06T08:27:35Z</time>
      </trkpt>
      <trkpt lat="41.1812750" lon="0.5668230">
        <ele>72.3</ele>
        <time>2020-08-06T08:27:37Z</time>
      </trkpt>
      <trkpt lat="41.1812830" lon="0.5668270">
        <ele>72.3</ele>
        <time>2020-08-06T08:27:39Z</time>
      </trkpt>
      <trkpt lat="41.1812850" lon="0.5668290">
        <ele>72.3</ele>
        <time>2020-08-06T08:27:40Z</time>
      </trkpt>
      <trkpt lat="41.1812860" lon="0.5668290">
        <ele>72.3</ele>
        <time>2020-08-06T08:27:41Z</time>
      </trkpt>
      <trkpt lat="41.1812860" lon="0.5668290">
        <ele>72.3</ele>
        <time>2020-08-06T08:27:43Z</time>
      </trkpt>
      <trkpt lat="41.1812930" lon="0.5667670">
        <ele>72.6</ele>
        <time>2020-08-06T08:27:50Z</time>
      </trkpt>
      <trkpt lat="41.1813020" lon="0.5667420">
        <ele>72.6</ele>
        <time>2020-08-06T08:27:52Z</time>
      </trkpt>
      <trkpt lat="41.1813080" lon="0.5667000">
        <ele>72.8</ele>
        <time>2020-08-06T08:27:54Z</time>
      </trkpt>
      <trkpt lat="41.1813130" lon="0.5666850">
        <ele>72.9</ele>
        <time>2020-08-06T08:27:55Z</time>
      </trkpt>
      <trkpt lat="41.1813110" lon="0.5666830">
        <ele>72.9</ele>
        <time>2020-08-06T08:27:56Z</time>
      </trkpt>
      <trkpt lat="41.1813100" lon="0.5666800">
        <ele>72.9</ele>
        <time>2020-08-06T08:27:58Z</time>
      </trkpt>
      <trkpt lat="41.1813080" lon="0.5666780">
        <ele>72.9</ele>
        <time>2020-08-06T08:28:00Z</time>
      </trkpt>
      <trkpt lat="41.1813060" lon="0.5666760">
        <ele>72.9</ele>
        <time>2020-08-06T08:28:01Z</time>
      </trkpt>
      <trkpt lat="41.1813040" lon="0.5666740">
        <ele>72.9</ele>
        <time>2020-08-06T08:28:02Z</time>
      </trkpt>
      <trkpt lat="41.1813020" lon="0.5666720">
        <ele>72.9</ele>
        <time>2020-08-06T08:28:03Z</time>
      </trkpt>
      <trkpt lat="41.1813000" lon="0.5666700">
        <ele>72.9</ele>
        <time>2020-08-06T08:28:04Z</time>
      </trkpt>
      <trkpt lat="41.1812990" lon="0.5666670">
        <ele>73.0</ele>
        <time>2020-08-06T08:28:06Z</time>
      </trkpt>
      <trkpt lat="41.1812970" lon="0.5666650">
        <ele>73.0</ele>
        <time>2020-08-06T08:28:08Z</time>
      </trkpt>
      <trkpt lat="41.1812950" lon="0.5666630">
        <ele>73.0</ele>
        <time>2020-08-06T08:28:10Z</time>
      </trkpt>
      <trkpt lat="41.1812930" lon="0.5666610">
        <ele>73.0</ele>
        <time>2020-08-06T08:28:10Z</time>
      </trkpt>
      <trkpt lat="41.1812860" lon="0.5666590">
        <ele>73.0</ele>
        <time>2020-08-06T08:28:11Z</time>
      </trkpt>
      <trkpt lat="41.1812780" lon="0.5666600">
        <ele>73.1</ele>
        <time>2020-08-06T08:28:12Z</time>
      </trkpt>
      <trkpt lat="41.1812680" lon="0.5666630">
        <ele>73.1</ele>
        <time>2020-08-06T08:28:13Z</time>
      </trkpt>
      <trkpt lat="41.1812520" lon="0.5666700">
        <ele>73.2</ele>
        <time>2020-08-06T08:28:15Z</time>
      </trkpt>
      <trkpt lat="41.1812370" lon="0.5666780">
        <ele>73.3</ele>
        <time>2020-08-06T08:28:16Z</time>
      </trkpt>
      <trkpt lat="41.1812050" lon="0.5666960">
        <ele>73.9</ele>
        <time>2020-08-06T08:28:18Z</time>
      </trkpt>
      <trkpt lat="41.1811850" lon="0.5667140">
        <ele>74.0</ele>
        <time>2020-08-06T08:28:20Z</time>
      </trkpt>
      <trkpt lat="41.1811760" lon="0.5667240">
        <ele>74.1</ele>
        <time>2020-08-06T08:28:21Z</time>
      </trkpt>
      <trkpt lat="41.1811510" lon="0.5667440">
        <ele>74.1</ele>
        <time>2020-08-06T08:28:23Z</time>
      </trkpt>
      <trkpt lat="41.1811200" lon="0.5667720">
        <ele>74.3</ele>
        <time>2020-08-06T08:28:25Z</time>
      </trkpt>
      <trkpt lat="41.1810830" lon="0.5668050">
        <ele>74.5</ele>
        <time>2020-08-06T08:28:27Z</time>
      </trkpt>
      <trkpt lat="41.1810260" lon="0.5668490">
        <ele>74.8</ele>
        <time>2020-08-06T08:28:29Z</time>
      </trkpt>
      <trkpt lat="41.1809920" lon="0.5668730">
        <ele>74.9</ele>
        <time>2020-08-06T08:28:30Z</time>
      </trkpt>
      <trkpt lat="41.1808870" lon="0.5669510">
        <ele>75.3</ele>
        <time>2020-08-06T08:28:38Z</time>
      </trkpt>
      <trkpt lat="41.1808780" lon="0.5669850">
        <ele>75.4</ele>
        <time>2020-08-06T08:28:40Z</time>
      </trkpt>
      <trkpt lat="41.1808700" lon="0.5670000">
        <ele>75.4</ele>
        <time>2020-08-06T08:28:41Z</time>
      </trkpt>
      <trkpt lat="41.1808630" lon="0.5670110">
        <ele>75.4</ele>
        <time>2020-08-06T08:28:42Z</time>
      </trkpt>
      <trkpt lat="41.1808610" lon="0.5670180">
        <ele>75.4</ele>
        <time>2020-08-06T08:28:43Z</time>
      </trkpt>
      <trkpt lat="41.1808570" lon="0.5670320">
        <ele>75.5</ele>
        <time>2020-08-06T08:28:44Z</time>
      </trkpt>
      <trkpt lat="41.1808480" lon="0.5670800">
        <ele>75.7</ele>
        <time>2020-08-06T08:28:46Z</time>
      </trkpt>
      <trkpt lat="41.1808390" lon="0.5671040">
        <ele>75.7</ele>
        <time>2020-08-06T08:28:47Z</time>
      </trkpt>
      <trkpt lat="41.1808150" lon="0.5671310">
        <ele>75.7</ele>
        <time>2020-08-06T08:28:49Z</time>
      </trkpt>
      <trkpt lat="41.1807880" lon="0.5671600">
        <ele>75.7</ele>
        <time>2020-08-06T08:28:50Z</time>
      </trkpt>
      <trkpt lat="41.1807780" lon="0.5671710">
        <ele>75.3</ele>
        <time>2020-08-06T08:28:51Z</time>
      </trkpt>
      <trkpt lat="41.1807610" lon="0.5672010">
        <ele>75.4</ele>
        <time>2020-08-06T08:28:52Z</time>
      </trkpt>
      <trkpt lat="41.1807130" lon="0.5672740">
        <ele>75.5</ele>
        <time>2020-08-06T08:28:54Z</time>
      </trkpt>
      <trkpt lat="41.1806560" lon="0.5673480">
        <ele>75.6</ele>
        <time>2020-08-06T08:28:56Z</time>
      </trkpt>
      <trkpt lat="41.1806280" lon="0.5673980">
        <ele>75.7</ele>
        <time>2020-08-06T08:28:58Z</time>
      </trkpt>
      <trkpt lat="41.1806110" lon="0.5674330">
        <ele>75.7</ele>
        <time>2020-08-06T08:28:59Z</time>
      </trkpt>
      <trkpt lat="41.1806060" lon="0.5674440">
        <ele>75.7</ele>
        <time>2020-08-06T08:29:00Z</time>
      </trkpt>
      <trkpt lat="41.1805940" lon="0.5674870">
        <ele>76.0</ele>
        <time>2020-08-06T08:29:02Z</time>
      </trkpt>
      <trkpt lat="41.1805890" lon="0.5675030">
        <ele>76.1</ele>
        <time>2020-08-06T08:29:03Z</time>
      </trkpt>
      <trkpt lat="41.1805980" lon="0.5675380">
        <ele>76.3</ele>
        <time>2020-08-06T08:29:05Z</time>
      </trkpt>
      <trkpt lat="41.1806080" lon="0.5675520">
        <ele>76.4</ele>
        <time>2020-08-06T08:29:06Z</time>
      </trkpt>
      <trkpt lat="41.1806310" lon="0.5675770">
        <ele>76.6</ele>
        <time>2020-08-06T08:29:08Z</time>
      </trkpt>
      <trkpt lat="41.1806410" lon="0.5675820">
        <ele>76.7</ele>
        <time>2020-08-06T08:29:10Z</time>
      </trkpt>
      <trkpt lat="41.1806470" lon="0.5675790">
        <ele>76.7</ele>
        <time>2020-08-06T08:29:11Z</time>
      </trkpt>
      <trkpt lat="41.1806520" lon="0.5675720">
        <ele>76.8</ele>
        <time>2020-08-06T08:29:12Z</time>
      </trkpt>
      <trkpt lat="41.1806480" lon="0.5675430">
        <ele>77.0</ele>
        <time>2020-08-06T08:29:14Z</time>
      </trkpt>
      <trkpt lat="41.1806380" lon="0.5675300">
        <ele>77.1</ele>
        <time>2020-08-06T08:29:15Z</time>
      </trkpt>
      <trkpt lat="41.1806270" lon="0.5675230">
        <ele>77.2</ele>
        <time>2020-08-06T08:29:17Z</time>
      </trkpt>
      <trkpt lat="41.1806260" lon="0.5675260">
        <ele>77.2</ele>
        <time>2020-08-06T08:29:19Z</time>
      </trkpt>
      <trkpt lat="41.1806280" lon="0.5675270">
        <ele>77.2</ele>
        <time>2020-08-06T08:29:20Z</time>
      </trkpt>
      <trkpt lat="41.1806310" lon="0.5675290">
        <ele>77.2</ele>
        <time>2020-08-06T08:29:21Z</time>
      </trkpt>
      <trkpt lat="41.1806310" lon="0.5675310">
        <ele>77.2</ele>
        <time>2020-08-06T08:29:23Z</time>
      </trkpt>
      <trkpt lat="41.1806320" lon="0.5675310">
        <ele>77.2</ele>
        <time>2020-08-06T08:29:25Z</time>
      </trkpt>
      <trkpt lat="41.1806330" lon="0.5675310">
        <ele>77.2</ele>
        <time>2020-08-06T08:29:26Z</time>
      </trkpt>
      <trkpt lat="41.1806340" lon="0.5675310">
        <ele>77.2</ele>
        <time>2020-08-06T08:29:28Z</time>
      </trkpt>
      <trkpt lat="41.1806210" lon="0.5675310">
        <ele>77.3</ele>
        <time>2020-08-06T08:29:31Z</time>
      </trkpt>
      <trkpt lat="41.1806130" lon="0.5675330">
        <ele>77.4</ele>
        <time>2020-08-06T08:29:32Z</time>
      </trkpt>
      <trkpt lat="41.1806080" lon="0.5675340">
        <ele>77.4</ele>
        <time>2020-08-06T08:29:33Z</time>
      </trkpt>
      <trkpt lat="41.1805960" lon="0.5675190">
        <ele>77.6</ele>
        <time>2020-08-06T08:29:35Z</time>
      </trkpt>
      <trkpt lat="41.1805860" lon="0.5675080">
        <ele>77.7</ele>
        <time>2020-08-06T08:29:37Z</time>
      </trkpt>
      <trkpt lat="41.1805820" lon="0.5675040">
        <ele>77.7</ele>
        <time>2020-08-06T08:29:38Z</time>
      </trkpt>
      <trkpt lat="41.1805830" lon="0.5675050">
        <ele>77.7</ele>
        <time>2020-08-06T08:29:39Z</time>
      </trkpt>
      <trkpt lat="41.1805920" lon="0.5675100">
        <ele>77.8</ele>
        <time>2020-08-06T08:29:41Z</time>
      </trkpt>
      <trkpt lat="41.1805990" lon="0.5675130">
        <ele>77.8</ele>
        <time>2020-08-06T08:29:43Z</time>
      </trkpt>
      <trkpt lat="41.1805960" lon="0.5675100">
        <ele>77.9</ele>
        <time>2020-08-06T08:29:44Z</time>
      </trkpt>
      <trkpt lat="41.1805950" lon="0.5675090">
        <ele>77.9</ele>
        <time>2020-08-06T08:29:45Z</time>
      </trkpt>
      <trkpt lat="41.1805970" lon="0.5675140">
        <ele>77.9</ele>
        <time>2020-08-06T08:29:47Z</time>
      </trkpt>
      <trkpt lat="41.1805950" lon="0.5675120">
        <ele>77.9</ele>
        <time>2020-08-06T08:29:49Z</time>
      </trkpt>
      <trkpt lat="41.1805960" lon="0.5675110">
        <ele>77.9</ele>
        <time>2020-08-06T08:29:51Z</time>
      </trkpt>
      <trkpt lat="41.1805910" lon="0.5675100">
        <ele>78.0</ele>
        <time>2020-08-06T08:29:52Z</time>
      </trkpt>
      <trkpt lat="41.1805900" lon="0.5675120">
        <ele>78.0</ele>
        <time>2020-08-06T08:29:54Z</time>
      </trkpt>
      <trkpt lat="41.1805900" lon="0.5675140">
        <ele>78.0</ele>
        <time>2020-08-06T08:29:55Z</time>
      </trkpt>
      <trkpt lat="41.1805590" lon="0.5675000">
        <ele>78.2</ele>
        <time>2020-08-06T08:30:16Z</time>
      </trkpt>
      <trkpt lat="41.1805570" lon="0.5675000">
        <ele>78.2</ele>
        <time>2020-08-06T08:30:17Z</time>
      </trkpt>
      <trkpt lat="41.1805550" lon="0.5674990">
        <ele>78.3</ele>
        <time>2020-08-06T08:30:19Z</time>
      </trkpt>
      <trkpt lat="41.1805530" lon="0.5674980">
        <ele>78.3</ele>
        <time>2020-08-06T08:30:21Z</time>
      </trkpt>
      <trkpt lat="41.1805510" lon="0.5674970">
        <ele>78.3</ele>
        <time>2020-08-06T08:30:22Z</time>
      </trkpt>
      <trkpt lat="41.1805410" lon="0.5675070">
        <ele>78.4</ele>
        <time>2020-08-06T08:30:23Z</time>
      </trkpt>
      <trkpt lat="41.1805060" lon="0.5675280">
        <ele>78.7</ele>
        <time>2020-08-06T08:30:25Z</time>
      </trkpt>
      <trkpt lat="41.1804790" lon="0.5675430">
        <ele>78.9</ele>
        <time>2020-08-06T08:30:26Z</time>
      </trkpt>
      <trkpt lat="41.1804720" lon="0.5675470">
        <ele>78.9</ele>
        <time>2020-08-06T08:30:27Z</time>
      </trkpt>
      <trkpt lat="41.1804460" lon="0.5675750">
        <ele>79.3</ele>
        <time>2020-08-06T08:30:29Z</time>
      </trkpt>
      <trkpt lat="41.1804350" lon="0.5675900">
        <ele>79.4</ele>
        <time>2020-08-06T08:30:30Z</time>
      </trkpt>
      <trkpt lat="41.1804260" lon="0.5676050">
        <ele>79.6</ele>
        <time>2020-08-06T08:30:31Z</time>
      </trkpt>
      <trkpt lat="41.1804010" lon="0.5676330">
        <ele>79.9</ele>
        <time>2020-08-06T08:30:33Z</time>
      </trkpt>
      <trkpt lat="41.1803680" lon="0.5676440">
        <ele>80.3</ele>
        <time>2020-08-06T08:30:35Z</time>
      </trkpt>
      <trkpt lat="41.1803490" lon="0.5676510">
        <ele>80.5</ele>
        <time>2020-08-06T08:30:36Z</time>
      </trkpt>
      <trkpt lat="41.1803060" lon="0.5676760">
        <ele>81.0</ele>
        <time>2020-08-06T08:30:38Z</time>
      </trkpt>
      <trkpt lat="41.1802560" lon="0.5677370">
        <ele>81.7</ele>
        <time>2020-08-06T08:30:40Z</time>
      </trkpt>
      <trkpt lat="41.1802300" lon="0.5677650">
        <ele>82.1</ele>
        <time>2020-08-06T08:30:42Z</time>
      </trkpt>
      <trkpt lat="41.1802000" lon="0.5677670">
        <ele>82.4</ele>
        <time>2020-08-06T08:30:44Z</time>
      </trkpt>
      <trkpt lat="41.1801840" lon="0.5677630">
        <ele>82.6</ele>
        <time>2020-08-06T08:30:45Z</time>
      </trkpt>
      <trkpt lat="41.1801700" lon="0.5677600">
        <ele>82.8</ele>
        <time>2020-08-06T08:30:46Z</time>
      </trkpt>
      <trkpt lat="41.1801520" lon="0.5677500">
        <ele>83.0</ele>
        <time>2020-08-06T08:30:48Z</time>
      </trkpt>
      <trkpt lat="41.1801350" lon="0.5677520">
        <ele>83.2</ele>
        <time>2020-08-06T08:30:50Z</time>
      </trkpt>
      <trkpt lat="41.1801250" lon="0.5677540">
        <ele>83.2</ele>
        <time>2020-08-06T08:30:51Z</time>
      </trkpt>
      <trkpt lat="41.1801200" lon="0.5677520">
        <ele>83.2</ele>
        <time>2020-08-06T08:30:52Z</time>
      </trkpt>
      <trkpt lat="41.1801120" lon="0.5677500">
        <ele>83.2</ele>
        <time>2020-08-06T08:30:54Z</time>
      </trkpt>
      <trkpt lat="41.1801170" lon="0.5677460">
        <ele>83.2</ele>
        <time>2020-08-06T08:30:56Z</time>
      </trkpt>
      <trkpt lat="41.1801200" lon="0.5677440">
        <ele>83.2</ele>
        <time>2020-08-06T08:30:57Z</time>
      </trkpt>
      <trkpt lat="41.1801190" lon="0.5677440">
        <ele>83.2</ele>
        <time>2020-08-06T08:30:58Z</time>
      </trkpt>
      <trkpt lat="41.1801190" lon="0.5677390">
        <ele>83.2</ele>
        <time>2020-08-06T08:30:59Z</time>
      </trkpt>
      <trkpt lat="41.1801210" lon="0.5677250">
        <ele>83.2</ele>
        <time>2020-08-06T08:31:01Z</time>
      </trkpt>
      <trkpt lat="41.1801290" lon="0.5677150">
        <ele>83.2</ele>
        <time>2020-08-06T08:31:03Z</time>
      </trkpt>
      <trkpt lat="41.1801360" lon="0.5677140">
        <ele>83.2</ele>
        <time>2020-08-06T08:31:05Z</time>
      </trkpt>
      <trkpt lat="41.1801370" lon="0.5677140">
        <ele>83.2</ele>
        <time>2020-08-06T08:31:06Z</time>
      </trkpt>
      <trkpt lat="41.1801380" lon="0.5677130">
        <ele>83.2</ele>
        <time>2020-08-06T08:31:08Z</time>
      </trkpt>
      <trkpt lat="41.1801380" lon="0.5677130">
        <ele>83.2</ele>
        <time>2020-08-06T08:31:09Z</time>
      </trkpt>
      <trkpt lat="41.1801390" lon="0.5677200">
        <ele>83.2</ele>
        <time>2020-08-06T08:31:11Z</time>
      </trkpt>
      <trkpt lat="41.1801410" lon="0.5677280">
        <ele>83.3</ele>
        <time>2020-08-06T08:31:13Z</time>
      </trkpt>
      <trkpt lat="41.1801440" lon="0.5677290">
        <ele>83.3</ele>
        <time>2020-08-06T08:31:15Z</time>
      </trkpt>
      <trkpt lat="41.1801170" lon="0.5677600">
        <ele>83.3</ele>
        <time>2020-08-06T08:32:06Z</time>
      </trkpt>
      <trkpt lat="41.1800930" lon="0.5677810">
        <ele>83.3</ele>
        <time>2020-08-06T08:32:08Z</time>
      </trkpt>
      <trkpt lat="41.1800850" lon="0.5677960">
        <ele>83.3</ele>
        <time>2020-08-06T08:32:09Z</time>
      </trkpt>
      <trkpt lat="41.1800810" lon="0.5678140">
        <ele>83.3</ele>
        <time>2020-08-06T08:32:10Z</time>
      </trkpt>
      <trkpt lat="41.1800830" lon="0.5678560">
        <ele>83.3</ele>
        <time>2020-08-06T08:32:12Z</time>
      </trkpt>
      <trkpt lat="41.1800880" lon="0.5678770">
        <ele>83.3</ele>
        <time>2020-08-06T08:32:13Z</time>
      </trkpt>
      <trkpt lat="41.1800940" lon="0.5679180">
        <ele>83.3</ele>
        <time>2020-08-06T08:32:15Z</time>
      </trkpt>
      <trkpt lat="41.1800910" lon="0.5679410">
        <ele>83.3</ele>
        <time>2020-08-06T08:32:16Z</time>
      </trkpt>
      <trkpt lat="41.1800820" lon="0.5679620">
        <ele>83.3</ele>
        <time>2020-08-06T08:32:17Z</time>
      </trkpt>
      <trkpt lat="41.1800680" lon="0.5679820">
        <ele>83.3</ele>
        <time>2020-08-06T08:32:18Z</time>
      </trkpt>
      <trkpt lat="41.1800190" lon="0.5680110">
        <ele>83.2</ele>
        <time>2020-08-06T08:32:20Z</time>
      </trkpt>
      <trkpt lat="41.1799840" lon="0.5680260">
        <ele>83.1</ele>
        <time>2020-08-06T08:32:21Z</time>
      </trkpt>
      <trkpt lat="41.1799730" lon="0.5680310">
        <ele>83.1</ele>
        <time>2020-08-06T08:32:22Z</time>
      </trkpt>
      <trkpt lat="41.1799500" lon="0.5680420">
        <ele>82.9</ele>
        <time>2020-08-06T08:32:23Z</time>
      </trkpt>
      <trkpt lat="41.1799160" lon="0.5680610">
        <ele>82.7</ele>
        <time>2020-08-06T08:32:25Z</time>
      </trkpt>
      <trkpt lat="41.1799010" lon="0.5680660">
        <ele>82.6</ele>
        <time>2020-08-06T08:32:26Z</time>
      </trkpt>
      <trkpt lat="41.1798880" lon="0.5680690">
        <ele>82.6</ele>
        <time>2020-08-06T08:32:27Z</time>
      </trkpt>
      <trkpt lat="41.1798500" lon="0.5680710">
        <ele>82.4</ele>
        <time>2020-08-06T08:32:29Z</time>
      </trkpt>
      <trkpt lat="41.1798310" lon="0.5680730">
        <ele>82.3</ele>
        <time>2020-08-06T08:32:30Z</time>
      </trkpt>
      <trkpt lat="41.1798040" lon="0.5680840">
        <ele>82.2</ele>
        <time>2020-08-06T08:32:32Z</time>
      </trkpt>
      <trkpt lat="41.1797990" lon="0.5680940">
        <ele>82.1</ele>
        <time>2020-08-06T08:32:33Z</time>
      </trkpt>
      <trkpt lat="41.1797880" lon="0.5681240">
        <ele>82.0</ele>
        <time>2020-08-06T08:32:35Z</time>
      </trkpt>
      <trkpt lat="41.1797760" lon="0.5681600">
        <ele>81.9</ele>
        <time>2020-08-06T08:32:37Z</time>
      </trkpt>
      <trkpt lat="41.1797690" lon="0.5681760">
        <ele>81.8</ele>
        <time>2020-08-06T08:32:38Z</time>
      </trkpt>
      <trkpt lat="41.1797550" lon="0.5682100">
        <ele>81.7</ele>
        <time>2020-08-06T08:32:40Z</time>
      </trkpt>
      <trkpt lat="41.1797550" lon="0.5682390">
        <ele>81.5</ele>
        <time>2020-08-06T08:32:42Z</time>
      </trkpt>
      <trkpt lat="41.1797540" lon="0.5682510">
        <ele>81.5</ele>
        <time>2020-08-06T08:32:43Z</time>
      </trkpt>
      <trkpt lat="41.1797480" lon="0.5682610">
        <ele>81.5</ele>
        <time>2020-08-06T08:32:44Z</time>
      </trkpt>
      <trkpt lat="41.1797230" lon="0.5682730">
        <ele>81.3</ele>
        <time>2020-08-06T08:32:46Z</time>
      </trkpt>
      <trkpt lat="41.1797070" lon="0.5682790">
        <ele>81.2</ele>
        <time>2020-08-06T08:32:47Z</time>
      </trkpt>
      <trkpt lat="41.1796920" lon="0.5682830">
        <ele>81.2</ele>
        <time>2020-08-06T08:32:48Z</time>
      </trkpt>
      <trkpt lat="41.1796770" lon="0.5682950">
        <ele>81.1</ele>
        <time>2020-08-06T08:32:49Z</time>
      </trkpt>
      <trkpt lat="41.1796490" lon="0.5683240">
        <ele>81.1</ele>
        <time>2020-08-06T08:32:51Z</time>
      </trkpt>
      <trkpt lat="41.1796350" lon="0.5683390">
        <ele>81.1</ele>
        <time>2020-08-06T08:32:52Z</time>
      </trkpt>
      <trkpt lat="41.1796080" lon="0.5683590">
        <ele>81.1</ele>
        <time>2020-08-06T08:32:54Z</time>
      </trkpt>
      <trkpt lat="41.1795900" lon="0.5683760">
        <ele>81.0</ele>
        <time>2020-08-06T08:32:56Z</time>
      </trkpt>
      <trkpt lat="41.1795850" lon="0.5683810">
        <ele>81.0</ele>
        <time>2020-08-06T08:32:58Z</time>
      </trkpt>
      <trkpt lat="41.1795830" lon="0.5683810">
        <ele>81.0</ele>
        <time>2020-08-06T08:32:59Z</time>
      </trkpt>
      <trkpt lat="41.1795830" lon="0.5683800">
        <ele>81.0</ele>
        <time>2020-08-06T08:33:00Z</time>
      </trkpt>
      <trkpt lat="41.1795860" lon="0.5683720">
        <ele>81.0</ele>
        <time>2020-08-06T08:33:02Z</time>
      </trkpt>
      <trkpt lat="41.1795880" lon="0.5683670">
        <ele>81.0</ele>
        <time>2020-08-06T08:33:03Z</time>
      </trkpt>
      <trkpt lat="41.1795880" lon="0.5683640">
        <ele>81.0</ele>
        <time>2020-08-06T08:33:05Z</time>
      </trkpt>
      <trkpt lat="41.1795880" lon="0.5683640">
        <ele>81.0</ele>
        <time>2020-08-06T08:33:06Z</time>
      </trkpt>
      <trkpt lat="41.1795880" lon="0.5683640">
        <ele>81.0</ele>
        <time>2020-08-06T08:33:07Z</time>
      </trkpt>
      <trkpt lat="41.1795880" lon="0.5683640">
        <ele>81.0</ele>
        <time>2020-08-06T08:33:08Z</time>
      </trkpt>
      <trkpt lat="41.1795890" lon="0.5683650">
        <ele>81.0</ele>
        <time>2020-08-06T08:33:10Z</time>
      </trkpt>
      <trkpt lat="41.1795880" lon="0.5683660">
        <ele>81.0</ele>
        <time>2020-08-06T08:33:12Z</time>
      </trkpt>
      <trkpt lat="41.1795870" lon="0.5683670">
        <ele>81.0</ele>
        <time>2020-08-06T08:33:14Z</time>
      </trkpt>
      <trkpt lat="41.1795770" lon="0.5683420">
        <ele>81.0</ele>
        <time>2020-08-06T08:33:51Z</time>
      </trkpt>
      <trkpt lat="41.1795800" lon="0.5683420">
        <ele>81.0</ele>
        <time>2020-08-06T08:33:53Z</time>
      </trkpt>
      <trkpt lat="41.1795880" lon="0.5683430">
        <ele>81.0</ele>
        <time>2020-08-06T08:33:54Z</time>
      </trkpt>
      <trkpt lat="41.1795960" lon="0.5683400">
        <ele>81.0</ele>
        <time>2020-08-06T08:33:55Z</time>
      </trkpt>
      <trkpt lat="41.1796120" lon="0.5683300">
        <ele>81.0</ele>
        <time>2020-08-06T08:33:57Z</time>
      </trkpt>
      <trkpt lat="41.1796160" lon="0.5683290">
        <ele>81.0</ele>
        <time>2020-08-06T08:33:58Z</time>
      </trkpt>
      <trkpt lat="41.1796160" lon="0.5683290">
        <ele>81.0</ele>
        <time>2020-08-06T08:33:59Z</time>
      </trkpt>
      <trkpt lat="41.1796140" lon="0.5683300">
        <ele>81.0</ele>
        <time>2020-08-06T08:34:00Z</time>
      </trkpt>
      <trkpt lat="41.1796130" lon="0.5683330">
        <ele>81.0</ele>
        <time>2020-08-06T08:34:01Z</time>
      </trkpt>
      <trkpt lat="41.1796150" lon="0.5683350">
        <ele>81.0</ele>
        <time>2020-08-06T08:34:02Z</time>
      </trkpt>
      <trkpt lat="41.1796180" lon="0.5683360">
        <ele>81.0</ele>
        <time>2020-08-06T08:34:04Z</time>
      </trkpt>
      <trkpt lat="41.1796190" lon="0.5683350">
        <ele>81.0</ele>
        <time>2020-08-06T08:34:05Z</time>
      </trkpt>
      <trkpt lat="41.1796190" lon="0.5683350">
        <ele>81.0</ele>
        <time>2020-08-06T08:34:06Z</time>
      </trkpt>
      <trkpt lat="41.1796190" lon="0.5683350">
        <ele>81.0</ele>
        <time>2020-08-06T08:34:08Z</time>
      </trkpt>
      <trkpt lat="41.1795870" lon="0.5683450">
        <ele>81.0</ele>
        <time>2020-08-06T08:34:49Z</time>
      </trkpt>
      <trkpt lat="41.1795600" lon="0.5683440">
        <ele>80.9</ele>
        <time>2020-08-06T08:34:51Z</time>
      </trkpt>
      <trkpt lat="41.1795450" lon="0.5683440">
        <ele>80.9</ele>
        <time>2020-08-06T08:34:52Z</time>
      </trkpt>
      <trkpt lat="41.1795320" lon="0.5683490">
        <ele>80.8</ele>
        <time>2020-08-06T08:34:53Z</time>
      </trkpt>
      <trkpt lat="41.1795050" lon="0.5683670">
        <ele>80.7</ele>
        <time>2020-08-06T08:34:55Z</time>
      </trkpt>
      <trkpt lat="41.1794900" lon="0.5683770">
        <ele>80.6</ele>
        <time>2020-08-06T08:34:56Z</time>
      </trkpt>
      <trkpt lat="41.1794610" lon="0.5683920">
        <ele>80.4</ele>
        <time>2020-08-06T08:34:58Z</time>
      </trkpt>
      <trkpt lat="41.1794440" lon="0.5684000">
        <ele>80.3</ele>
        <time>2020-08-06T08:34:59Z</time>
      </trkpt>
      <trkpt lat="41.1794270" lon="0.5684120">
        <ele>80.2</ele>
        <time>2020-08-06T08:35:00Z</time>
      </trkpt>
      <trkpt lat="41.1793940" lon="0.5684410">
        <ele>80.0</ele>
        <time>2020-08-06T08:35:02Z</time>
      </trkpt>
      <trkpt lat="41.1793700" lon="0.5684640">
        <ele>79.8</ele>
        <time>2020-08-06T08:35:03Z</time>
      </trkpt>
      <trkpt lat="41.1793620" lon="0.5684700">
        <ele>79.8</ele>
        <time>2020-08-06T08:35:04Z</time>
      </trkpt>
      <trkpt lat="41.1793460" lon="0.5684820">
        <ele>79.7</ele>
        <time>2020-08-06T08:35:05Z</time>
      </trkpt>
      <trkpt lat="41.1793290" lon="0.5684900">
        <ele>79.5</ele>
        <time>2020-08-06T08:35:06Z</time>
      </trkpt>
      <trkpt lat="41.1793020" lon="0.5684910">
        <ele>79.4</ele>
        <time>2020-08-06T08:35:07Z</time>
      </trkpt>
      <trkpt lat="41.1792920" lon="0.5684900">
        <ele>79.3</ele>
        <time>2020-08-06T08:35:08Z</time>
      </trkpt>
      <trkpt lat="41.1792730" lon="0.5684840">
        <ele>79.2</ele>
        <time>2020-08-06T08:35:09Z</time>
      </trkpt>
      <trkpt lat="41.1792370" lon="0.5684980">
        <ele>78.9</ele>
        <time>2020-08-06T08:35:11Z</time>
      </trkpt>
      <trkpt lat="41.1792010" lon="0.5685200">
        <ele>78.8</ele>
        <time>2020-08-06T08:35:13Z</time>
      </trkpt>
      <trkpt lat="41.1791750" lon="0.5685220">
        <ele>78.7</ele>
        <time>2020-08-06T08:35:14Z</time>
      </trkpt>
      <trkpt lat="41.1791190" lon="0.5685310">
        <ele>78.5</ele>
        <time>2020-08-06T08:35:16Z</time>
      </trkpt>
      <trkpt lat="41.1790900" lon="0.5685400">
        <ele>78.5</ele>
        <time>2020-08-06T08:35:17Z</time>
      </trkpt>
      <trkpt lat="41.1790560" lon="0.5685530">
        <ele>78.3</ele>
        <time>2020-08-06T08:35:18Z</time>
      </trkpt>
      <trkpt lat="41.1790460" lon="0.5685570">
        <ele>78.3</ele>
        <time>2020-08-06T08:35:19Z</time>
      </trkpt>
      <trkpt lat="41.1790330" lon="0.5685640">
        <ele>78.3</ele>
        <time>2020-08-06T08:35:20Z</time>
      </trkpt>
      <trkpt lat="41.1790240" lon="0.5685690">
        <ele>78.2</ele>
        <time>2020-08-06T08:35:21Z</time>
      </trkpt>
      <trkpt lat="41.1790180" lon="0.5685840">
        <ele>78.2</ele>
        <time>2020-08-06T08:35:23Z</time>
      </trkpt>
      <trkpt lat="41.1790180" lon="0.5685930">
        <ele>78.2</ele>
        <time>2020-08-06T08:35:24Z</time>
      </trkpt>
      <trkpt lat="41.1790200" lon="0.5686070">
        <ele>78.1</ele>
        <time>2020-08-06T08:35:25Z</time>
      </trkpt>
      <trkpt lat="41.1790210" lon="0.5686230">
        <ele>78.1</ele>
        <time>2020-08-06T08:35:26Z</time>
      </trkpt>
      <trkpt lat="41.1790140" lon="0.5686440">
        <ele>78.0</ele>
        <time>2020-08-06T08:35:28Z</time>
      </trkpt>
      <trkpt lat="41.1790100" lon="0.5686400">
        <ele>78.0</ele>
        <time>2020-08-06T08:35:29Z</time>
      </trkpt>
      <trkpt lat="41.1790070" lon="0.5686420">
        <ele>78.0</ele>
        <time>2020-08-06T08:35:30Z</time>
      </trkpt>
      <trkpt lat="41.1790000" lon="0.5686480">
        <ele>78.0</ele>
        <time>2020-08-06T08:35:32Z</time>
      </trkpt>
      <trkpt lat="41.1789970" lon="0.5686540">
        <ele>78.0</ele>
        <time>2020-08-06T08:35:33Z</time>
      </trkpt>
      <trkpt lat="41.1789950" lon="0.5686560">
        <ele>77.9</ele>
        <time>2020-08-06T08:35:35Z</time>
      </trkpt>
      <trkpt lat="41.1789930" lon="0.5686580">
        <ele>77.9</ele>
        <time>2020-08-06T08:35:36Z</time>
      </trkpt>
      <trkpt lat="41.1789880" lon="0.5686650">
        <ele>77.9</ele>
        <time>2020-08-06T08:35:38Z</time>
      </trkpt>
      <trkpt lat="41.1789830" lon="0.5686720">
        <ele>77.9</ele>
        <time>2020-08-06T08:35:40Z</time>
      </trkpt>
      <trkpt lat="41.1789740" lon="0.5686840">
        <ele>77.8</ele>
        <time>2020-08-06T08:35:42Z</time>
      </trkpt>
      <trkpt lat="41.1789660" lon="0.5686890">
        <ele>77.8</ele>
        <time>2020-08-06T08:35:44Z</time>
      </trkpt>
      <trkpt lat="41.1789650" lon="0.5686920">
        <ele>77.8</ele>
        <time>2020-08-06T08:35:45Z</time>
      </trkpt>
      <trkpt lat="41.1789540" lon="0.5687040">
        <ele>77.7</ele>
        <time>2020-08-06T08:35:47Z</time>
      </trkpt>
      <trkpt lat="41.1789580" lon="0.5687090">
        <ele>77.7</ele>
        <time>2020-08-06T08:35:49Z</time>
      </trkpt>
      <trkpt lat="41.1789580" lon="0.5687100">
        <ele>77.7</ele>
        <time>2020-08-06T08:35:51Z</time>
      </trkpt>
      <trkpt lat="41.1789580" lon="0.5687100">
        <ele>77.7</ele>
        <time>2020-08-06T08:35:52Z</time>
      </trkpt>
      <trkpt lat="41.1789580" lon="0.5687110">
        <ele>77.7</ele>
        <time>2020-08-06T08:35:53Z</time>
      </trkpt>
      <trkpt lat="41.1789590" lon="0.5687120">
        <ele>77.7</ele>
        <time>2020-08-06T08:35:55Z</time>
      </trkpt>
      <trkpt lat="41.1789630" lon="0.5686840">
        <ele>77.6</ele>
        <time>2020-08-06T08:36:46Z</time>
      </trkpt>
      <trkpt lat="41.1789800" lon="0.5686530">
        <ele>77.5</ele>
        <time>2020-08-06T08:36:48Z</time>
      </trkpt>
      <trkpt lat="41.1789900" lon="0.5686650">
        <ele>77.5</ele>
        <time>2020-08-06T08:36:49Z</time>
      </trkpt>
      <trkpt lat="41.1789890" lon="0.5686750">
        <ele>77.5</ele>
        <time>2020-08-06T08:36:50Z</time>
      </trkpt>
      <trkpt lat="41.1789880" lon="0.5686800">
        <ele>77.4</ele>
        <time>2020-08-06T08:36:51Z</time>
      </trkpt>
      <trkpt lat="41.1789870" lon="0.5686840">
        <ele>77.4</ele>
        <time>2020-08-06T08:36:52Z</time>
      </trkpt>
      <trkpt lat="41.1789900" lon="0.5686850">
        <ele>77.4</ele>
        <time>2020-08-06T08:36:54Z</time>
      </trkpt>
      <trkpt lat="41.1789930" lon="0.5686840">
        <ele>77.4</ele>
        <time>2020-08-06T08:36:55Z</time>
      </trkpt>
      <trkpt lat="41.1789970" lon="0.5686840">
        <ele>77.4</ele>
        <time>2020-08-06T08:36:56Z</time>
      </trkpt>
      <trkpt lat="41.1790020" lon="0.5686850">
        <ele>77.4</ele>
        <time>2020-08-06T08:36:58Z</time>
      </trkpt>
      <trkpt lat="41.1790050" lon="0.5686850">
        <ele>77.4</ele>
        <time>2020-08-06T08:36:59Z</time>
      </trkpt>
      <trkpt lat="41.1790090" lon="0.5686860">
        <ele>77.3</ele>
        <time>2020-08-06T08:37:01Z</time>
      </trkpt>
      <trkpt lat="41.1790230" lon="0.5687190">
        <ele>77.2</ele>
        <time>2020-08-06T08:38:21Z</time>
      </trkpt>
      <trkpt lat="41.1790320" lon="0.5686880">
        <ele>77.1</ele>
        <time>2020-08-06T08:38:23Z</time>
      </trkpt>
      <trkpt lat="41.1790250" lon="0.5686690">
        <ele>77.1</ele>
        <time>2020-08-06T08:38:25Z</time>
      </trkpt>
      <trkpt lat="41.1790220" lon="0.5686570">
        <ele>77.0</ele>
        <time>2020-08-06T08:38:26Z</time>
      </trkpt>
      <trkpt lat="41.1790320" lon="0.5685900">
        <ele>76.8</ele>
        <time>2020-08-06T08:38:33Z</time>
      </trkpt>
      <trkpt lat="41.1790280" lon="0.5685770">
        <ele>76.7</ele>
        <time>2020-08-06T08:38:34Z</time>
      </trkpt>
      <trkpt lat="41.1790150" lon="0.5685620">
        <ele>76.7</ele>
        <time>2020-08-06T08:38:36Z</time>
      </trkpt>
      <trkpt lat="41.1790090" lon="0.5685620">
        <ele>76.6</ele>
        <time>2020-08-06T08:38:37Z</time>
      </trkpt>
      <trkpt lat="41.1790060" lon="0.5685660">
        <ele>76.6</ele>
        <time>2020-08-06T08:38:38Z</time>
      </trkpt>
      <trkpt lat="41.1790040" lon="0.5685690">
        <ele>76.6</ele>
        <time>2020-08-06T08:38:39Z</time>
      </trkpt>
      <trkpt lat="41.1790040" lon="0.5685720">
        <ele>76.6</ele>
        <time>2020-08-06T08:38:40Z</time>
      </trkpt>
      <trkpt lat="41.1790040" lon="0.5685740">
        <ele>76.6</ele>
        <time>2020-08-06T08:38:42Z</time>
      </trkpt>
      <trkpt lat="41.1790040" lon="0.5685750">
        <ele>76.6</ele>
        <time>2020-08-06T08:38:44Z</time>
      </trkpt>
      <trkpt lat="41.1790050" lon="0.5685750">
        <ele>76.6</ele>
        <time>2020-08-06T08:38:45Z</time>
      </trkpt>
      <trkpt lat="41.1790050" lon="0.5685760">
        <ele>76.6</ele>
        <time>2020-08-06T08:38:46Z</time>
      </trkpt>
      <trkpt lat="41.1790050" lon="0.5685770">
        <ele>76.6</ele>
        <time>2020-08-06T08:38:47Z</time>
      </trkpt>
      <trkpt lat="41.1790050" lon="0.5685800">
        <ele>76.6</ele>
        <time>2020-08-06T08:38:48Z</time>
      </trkpt>
      <trkpt lat="41.1790070" lon="0.5685780">
        <ele>76.5</ele>
        <time>2020-08-06T08:38:50Z</time>
      </trkpt>
      <trkpt lat="41.1790390" lon="0.5685850">
        <ele>76.4</ele>
        <time>2020-08-06T08:38:55Z</time>
      </trkpt>
      <trkpt lat="41.1790430" lon="0.5686000">
        <ele>76.3</ele>
        <time>2020-08-06T08:38:56Z</time>
      </trkpt>
      <trkpt lat="41.1790190" lon="0.5686250">
        <ele>76.2</ele>
        <time>2020-08-06T08:38:57Z</time>
      </trkpt>
      <trkpt lat="41.1789810" lon="0.5686570">
        <ele>76.0</ele>
        <time>2020-08-06T08:38:59Z</time>
      </trkpt>
      <trkpt lat="41.1789460" lon="0.5686680">
        <ele>75.8</ele>
        <time>2020-08-06T08:39:00Z</time>
      </trkpt>
      <trkpt lat="41.1788990" lon="0.5686680">
        <ele>75.7</ele>
        <time>2020-08-06T08:39:02Z</time>
      </trkpt>
      <trkpt lat="41.1788870" lon="0.5686650">
        <ele>75.7</ele>
        <time>2020-08-06T08:39:03Z</time>
      </trkpt>
      <trkpt lat="41.1788740" lon="0.5686630">
        <ele>75.6</ele>
        <time>2020-08-06T08:39:04Z</time>
      </trkpt>
      <trkpt lat="41.1788420" lon="0.5686710">
        <ele>75.0</ele>
        <time>2020-08-06T08:39:06Z</time>
      </trkpt>
      <trkpt lat="41.1788320" lon="0.5686740">
        <ele>75.0</ele>
        <time>2020-08-06T08:39:07Z</time>
      </trkpt>
      <trkpt lat="41.1788020" lon="0.5686820">
        <ele>75.1</ele>
        <time>2020-08-06T08:39:08Z</time>
      </trkpt>
      <trkpt lat="41.1787920" lon="0.5686850">
        <ele>75.2</ele>
        <time>2020-08-06T08:39:09Z</time>
      </trkpt>
      <trkpt lat="41.1787750" lon="0.5686910">
        <ele>75.2</ele>
        <time>2020-08-06T08:39:10Z</time>
      </trkpt>
      <trkpt lat="41.1787450" lon="0.5686970">
        <ele>75.3</ele>
        <time>2020-08-06T08:39:12Z</time>
      </trkpt>
      <trkpt lat="41.1786990" lon="0.5687010">
        <ele>75.4</ele>
        <time>2020-08-06T08:39:14Z</time>
      </trkpt>
      <trkpt lat="41.1786840" lon="0.5686990">
        <ele>75.5</ele>
        <time>2020-08-06T08:39:15Z</time>
      </trkpt>
      <trkpt lat="41.1786690" lon="0.5686980">
        <ele>75.5</ele>
        <time>2020-08-06T08:39:16Z</time>
      </trkpt>
      <trkpt lat="41.1786350" lon="0.5687000">
        <ele>75.9</ele>
        <time>2020-08-06T08:39:18Z</time>
      </trkpt>
      <trkpt lat="41.1786250" lon="0.5687020">
        <ele>76.0</ele>
        <time>2020-08-06T08:39:19Z</time>
      </trkpt>
      <trkpt lat="41.1785940" lon="0.5687100">
        <ele>76.4</ele>
        <time>2020-08-06T08:39:20Z</time>
      </trkpt>
      <trkpt lat="41.1785840" lon="0.5687110">
        <ele>76.5</ele>
        <time>2020-08-06T08:39:21Z</time>
      </trkpt>
      <trkpt lat="41.1785630" lon="0.5687120">
        <ele>76.8</ele>
        <time>2020-08-06T08:39:22Z</time>
      </trkpt>
      <trkpt lat="41.1785380" lon="0.5687100">
        <ele>77.1</ele>
        <time>2020-08-06T08:39:24Z</time>
      </trkpt>
      <trkpt lat="41.1785120" lon="0.5686970">
        <ele>77.4</ele>
        <time>2020-08-06T08:39:25Z</time>
      </trkpt>
      <trkpt lat="41.1785000" lon="0.5686640">
        <ele>77.6</ele>
        <time>2020-08-06T08:39:27Z</time>
      </trkpt>
      <trkpt lat="41.1784950" lon="0.5686560">
        <ele>77.7</ele>
        <time>2020-08-06T08:39:29Z</time>
      </trkpt>
      <trkpt lat="41.1784890" lon="0.5686490">
        <ele>77.8</ele>
        <time>2020-08-06T08:39:31Z</time>
      </trkpt>
      <trkpt lat="41.1784830" lon="0.5686410">
        <ele>77.8</ele>
        <time>2020-08-06T08:39:32Z</time>
      </trkpt>
      <trkpt lat="41.1784780" lon="0.5686330">
        <ele>77.9</ele>
        <time>2020-08-06T08:39:33Z</time>
      </trkpt>
      <trkpt lat="41.1784720" lon="0.5686250">
        <ele>78.0</ele>
        <time>2020-08-06T08:39:34Z</time>
      </trkpt>
      <trkpt lat="41.1784670" lon="0.5686170">
        <ele>78.1</ele>
        <time>2020-08-06T08:39:35Z</time>
      </trkpt>
      <trkpt lat="41.1784610" lon="0.5686090">
        <ele>78.1</ele>
        <time>2020-08-06T08:39:37Z</time>
      </trkpt>
      <trkpt lat="41.1784550" lon="0.5686020">
        <ele>78.2</ele>
        <time>2020-08-06T08:39:42Z</time>
      </trkpt>
      <trkpt lat="41.1784500" lon="0.5685940">
        <ele>78.3</ele>
        <time>2020-08-06T08:39:43Z</time>
      </trkpt>
      <trkpt lat="41.1784440" lon="0.5685860">
        <ele>78.3</ele>
        <time>2020-08-06T08:39:44Z</time>
      </trkpt>
      <trkpt lat="41.1784210" lon="0.5685740">
        <ele>78.5</ele>
        <time>2020-08-06T08:39:46Z</time>
      </trkpt>
      <trkpt lat="41.1784130" lon="0.5685760">
        <ele>78.6</ele>
        <time>2020-08-06T08:39:47Z</time>
      </trkpt>
      <trkpt lat="41.1784060" lon="0.5685780">
        <ele>78.6</ele>
        <time>2020-08-06T08:39:48Z</time>
      </trkpt>
      <trkpt lat="41.1783850" lon="0.5685490">
        <ele>78.9</ele>
        <time>2020-08-06T08:39:50Z</time>
      </trkpt>
      <trkpt lat="41.1783730" lon="0.5685170">
        <ele>79.0</ele>
        <time>2020-08-06T08:39:52Z</time>
      </trkpt>
      <trkpt lat="41.1783670" lon="0.5684980">
        <ele>79.2</ele>
        <time>2020-08-06T08:39:54Z</time>
      </trkpt>
      <trkpt lat="41.1783680" lon="0.5684810">
        <ele>79.2</ele>
        <time>2020-08-06T08:39:55Z</time>
      </trkpt>
      <trkpt lat="41.1783610" lon="0.5684700">
        <ele>79.3</ele>
        <time>2020-08-06T08:39:56Z</time>
      </trkpt>
      <trkpt lat="41.1783500" lon="0.5684640">
        <ele>79.2</ele>
        <time>2020-08-06T08:39:58Z</time>
      </trkpt>
      <trkpt lat="41.1783370" lon="0.5684670">
        <ele>79.0</ele>
        <time>2020-08-06T08:39:59Z</time>
      </trkpt>
      <trkpt lat="41.1783270" lon="0.5684790">
        <ele>78.8</ele>
        <time>2020-08-06T08:40:00Z</time>
      </trkpt>
      <trkpt lat="41.1783280" lon="0.5684880">
        <ele>78.7</ele>
        <time>2020-08-06T08:40:01Z</time>
      </trkpt>
      <trkpt lat="41.1783410" lon="0.5684960">
        <ele>78.5</ele>
        <time>2020-08-06T08:40:03Z</time>
      </trkpt>
      <trkpt lat="41.1783550" lon="0.5685040">
        <ele>78.3</ele>
        <time>2020-08-06T08:40:04Z</time>
      </trkpt>
      <trkpt lat="41.1783580" lon="0.5685200">
        <ele>78.2</ele>
        <time>2020-08-06T08:40:05Z</time>
      </trkpt>
      <trkpt lat="41.1783500" lon="0.5685390">
        <ele>78.0</ele>
        <time>2020-08-06T08:40:06Z</time>
      </trkpt>
      <trkpt lat="41.1783330" lon="0.5685460">
        <ele>77.7</ele>
        <time>2020-08-06T08:40:08Z</time>
      </trkpt>
      <trkpt lat="41.1783200" lon="0.5685540">
        <ele>77.5</ele>
        <time>2020-08-06T08:40:09Z</time>
      </trkpt>
      <trkpt lat="41.1783090" lon="0.5685600">
        <ele>77.4</ele>
        <time>2020-08-06T08:40:10Z</time>
      </trkpt>
      <trkpt lat="41.1782960" lon="0.5685710">
        <ele>77.2</ele>
        <time>2020-08-06T08:40:12Z</time>
      </trkpt>
      <trkpt lat="41.1782780" lon="0.5685870">
        <ele>76.9</ele>
        <time>2020-08-06T08:40:13Z</time>
      </trkpt>
      <trkpt lat="41.1782650" lon="0.5685990">
        <ele>76.7</ele>
        <time>2020-08-06T08:40:15Z</time>
      </trkpt>
      <trkpt lat="41.1782360" lon="0.5686160">
        <ele>76.3</ele>
        <time>2020-08-06T08:40:16Z</time>
      </trkpt>
      <trkpt lat="41.1782250" lon="0.5686210">
        <ele>76.1</ele>
        <time>2020-08-06T08:40:17Z</time>
      </trkpt>
      <trkpt lat="41.1782100" lon="0.5686250">
        <ele>75.9</ele>
        <time>2020-08-06T08:40:18Z</time>
      </trkpt>
      <trkpt lat="41.1781890" lon="0.5686170">
        <ele>75.6</ele>
        <time>2020-08-06T08:40:20Z</time>
      </trkpt>
      <trkpt lat="41.1781920" lon="0.5685740">
        <ele>75.2</ele>
        <time>2020-08-06T08:40:21Z</time>
      </trkpt>
      <trkpt lat="41.1781900" lon="0.5685650">
        <ele>75.1</ele>
        <time>2020-08-06T08:40:22Z</time>
      </trkpt>
      <trkpt lat="41.1781980" lon="0.5685560">
        <ele>74.9</ele>
        <time>2020-08-06T08:40:24Z</time>
      </trkpt>
      <trkpt lat="41.1781900" lon="0.5685490">
        <ele>74.8</ele>
        <time>2020-08-06T08:40:26Z</time>
      </trkpt>
      <trkpt lat="41.1781890" lon="0.5685400">
        <ele>74.7</ele>
        <time>2020-08-06T08:40:27Z</time>
      </trkpt>
      <trkpt lat="41.1781870" lon="0.5685320">
        <ele>74.6</ele>
        <time>2020-08-06T08:40:28Z</time>
      </trkpt>
      <trkpt lat="41.1781790" lon="0.5685300">
        <ele>74.5</ele>
        <time>2020-08-06T08:40:30Z</time>
      </trkpt>
      <trkpt lat="41.1781690" lon="0.5685430">
        <ele>74.3</ele>
        <time>2020-08-06T08:40:31Z</time>
      </trkpt>
      <trkpt lat="41.1781690" lon="0.5685380">
        <ele>74.3</ele>
        <time>2020-08-06T08:40:32Z</time>
      </trkpt>
      <trkpt lat="41.1781720" lon="0.5685290">
        <ele>74.2</ele>
        <time>2020-08-06T08:40:33Z</time>
      </trkpt>
      <trkpt lat="41.1781670" lon="0.5685210">
        <ele>74.1</ele>
        <time>2020-08-06T08:40:34Z</time>
      </trkpt>
      <trkpt lat="41.1781640" lon="0.5685180">
        <ele>74.0</ele>
        <time>2020-08-06T08:40:35Z</time>
      </trkpt>
      <trkpt lat="41.1781600" lon="0.5685160">
        <ele>74.0</ele>
        <time>2020-08-06T08:40:36Z</time>
      </trkpt>
      <trkpt lat="41.1781560" lon="0.5685240">
        <ele>73.9</ele>
        <time>2020-08-06T08:40:38Z</time>
      </trkpt>
      <trkpt lat="41.1781500" lon="0.5685360">
        <ele>73.7</ele>
        <time>2020-08-06T08:40:40Z</time>
      </trkpt>
      <trkpt lat="41.1781470" lon="0.5685450">
        <ele>73.6</ele>
        <time>2020-08-06T08:40:41Z</time>
      </trkpt>
      <trkpt lat="41.1781430" lon="0.5685550">
        <ele>73.5</ele>
        <time>2020-08-06T08:40:42Z</time>
      </trkpt>
      <trkpt lat="41.1781400" lon="0.5685620">
        <ele>73.4</ele>
        <time>2020-08-06T08:40:43Z</time>
      </trkpt>
      <trkpt lat="41.1781360" lon="0.5685700">
        <ele>73.3</ele>
        <time>2020-08-06T08:40:44Z</time>
      </trkpt>
      <trkpt lat="41.1781050" lon="0.5685940">
        <ele>72.9</ele>
        <time>2020-08-06T08:40:45Z</time>
      </trkpt>
      <trkpt lat="41.1780770" lon="0.5686110">
        <ele>72.4</ele>
        <time>2020-08-06T08:40:51Z</time>
      </trkpt>
      <trkpt lat="41.1780490" lon="0.5686290">
        <ele>72.0</ele>
        <time>2020-08-06T08:40:51Z</time>
      </trkpt>
      <trkpt lat="41.1779940" lon="0.5686930">
        <ele>70.8</ele>
        <time>2020-08-06T08:40:52Z</time>
      </trkpt>
      <trkpt lat="41.1780260" lon="0.5686760">
        <ele>70.2</ele>
        <time>2020-08-06T08:40:53Z</time>
      </trkpt>
      <trkpt lat="41.1780320" lon="0.5686800">
        <ele>70.1</ele>
        <time>2020-08-06T08:40:54Z</time>
      </trkpt>
      <trkpt lat="41.1780250" lon="0.5686880">
        <ele>69.9</ele>
        <time>2020-08-06T08:40:56Z</time>
      </trkpt>
      <trkpt lat="41.1780190" lon="0.5686970">
        <ele>69.7</ele>
        <time>2020-08-06T08:40:57Z</time>
      </trkpt>
      <trkpt lat="41.1780120" lon="0.5687050">
        <ele>69.5</ele>
        <time>2020-08-06T08:40:59Z</time>
      </trkpt>
      <trkpt lat="41.1780060" lon="0.5687140">
        <ele>69.3</ele>
        <time>2020-08-06T08:41:00Z</time>
      </trkpt>
      <trkpt lat="41.1779990" lon="0.5687220">
        <ele>69.1</ele>
        <time>2020-08-06T08:41:01Z</time>
      </trkpt>
      <trkpt lat="41.1779770" lon="0.5687740">
        <ele>68.1</ele>
        <time>2020-08-06T08:41:03Z</time>
      </trkpt>
      <trkpt lat="41.1779740" lon="0.5687900">
        <ele>67.7</ele>
        <time>2020-08-06T08:41:04Z</time>
      </trkpt>
      <trkpt lat="41.1779700" lon="0.5688060">
        <ele>67.4</ele>
        <time>2020-08-06T08:41:05Z</time>
      </trkpt>
      <trkpt lat="41.1779680" lon="0.5688430">
        <ele>66.6</ele>
        <time>2020-08-06T08:41:07Z</time>
      </trkpt>
      <trkpt lat="41.1779670" lon="0.5688560">
        <ele>66.3</ele>
        <time>2020-08-06T08:41:08Z</time>
      </trkpt>
      <trkpt lat="41.1779640" lon="0.5688710">
        <ele>66.0</ele>
        <time>2020-08-06T08:41:09Z</time>
      </trkpt>
      <trkpt lat="41.1779640" lon="0.5689060">
        <ele>65.2</ele>
        <time>2020-08-06T08:41:11Z</time>
      </trkpt>
      <trkpt lat="41.1779690" lon="0.5689230">
        <ele>64.8</ele>
        <time>2020-08-06T08:41:12Z</time>
      </trkpt>
      <trkpt lat="41.1779730" lon="0.5689360">
        <ele>64.5</ele>
        <time>2020-08-06T08:41:13Z</time>
      </trkpt>
      <trkpt lat="41.1779860" lon="0.5689600">
        <ele>63.8</ele>
        <time>2020-08-06T08:41:15Z</time>
      </trkpt>
      <trkpt lat="41.1779930" lon="0.5689690">
        <ele>63.8</ele>
        <time>2020-08-06T08:41:16Z</time>
      </trkpt>
      <trkpt lat="41.1779970" lon="0.5689710">
        <ele>63.8</ele>
        <time>2020-08-06T08:41:17Z</time>
      </trkpt>
      <trkpt lat="41.1780010" lon="0.5689690">
        <ele>63.8</ele>
        <time>2020-08-06T08:41:18Z</time>
      </trkpt>
      <trkpt lat="41.1780060" lon="0.5689680">
        <ele>63.8</ele>
        <time>2020-08-06T08:41:19Z</time>
      </trkpt>
      <trkpt lat="41.1780130" lon="0.5689720">
        <ele>63.8</ele>
        <time>2020-08-06T08:41:20Z</time>
      </trkpt>
      <trkpt lat="41.1780270" lon="0.5689730">
        <ele>63.8</ele>
        <time>2020-08-06T08:41:22Z</time>
      </trkpt>
      <trkpt lat="41.1780390" lon="0.5689730">
        <ele>63.8</ele>
        <time>2020-08-06T08:41:23Z</time>
      </trkpt>
      <trkpt lat="41.1780490" lon="0.5689740">
        <ele>63.8</ele>
        <time>2020-08-06T08:41:24Z</time>
      </trkpt>
      <trkpt lat="41.1780690" lon="0.5689750">
        <ele>63.8</ele>
        <time>2020-08-06T08:41:26Z</time>
      </trkpt>
      <trkpt lat="41.1780810" lon="0.5689770">
        <ele>63.8</ele>
        <time>2020-08-06T08:41:27Z</time>
      </trkpt>
      <trkpt lat="41.1780950" lon="0.5689840">
        <ele>63.8</ele>
        <time>2020-08-06T08:41:28Z</time>
      </trkpt>
      <trkpt lat="41.1781100" lon="0.5689890">
        <ele>63.8</ele>
        <time>2020-08-06T08:41:30Z</time>
      </trkpt>
      <trkpt lat="41.1781310" lon="0.5689920">
        <ele>63.8</ele>
        <time>2020-08-06T08:41:31Z</time>
      </trkpt>
      <trkpt lat="41.1781540" lon="0.5689920">
        <ele>63.8</ele>
        <time>2020-08-06T08:41:33Z</time>
      </trkpt>
      <trkpt lat="41.1781690" lon="0.5689900">
        <ele>63.8</ele>
        <time>2020-08-06T08:41:34Z</time>
      </trkpt>
      <trkpt lat="41.1781820" lon="0.5689810">
        <ele>63.8</ele>
        <time>2020-08-06T08:41:35Z</time>
      </trkpt>
      <trkpt lat="41.1781870" lon="0.5689820">
        <ele>63.8</ele>
        <time>2020-08-06T08:41:36Z</time>
      </trkpt>
      <trkpt lat="41.1781800" lon="0.5689760">
        <ele>63.8</ele>
        <time>2020-08-06T08:41:38Z</time>
      </trkpt>
      <trkpt lat="41.1781740" lon="0.5689710">
        <ele>63.8</ele>
        <time>2020-08-06T08:41:39Z</time>
      </trkpt>
      <trkpt lat="41.1781670" lon="0.5689660">
        <ele>63.8</ele>
        <time>2020-08-06T08:41:41Z</time>
      </trkpt>
      <trkpt lat="41.1781600" lon="0.5689600">
        <ele>63.8</ele>
        <time>2020-08-06T08:41:43Z</time>
      </trkpt>
      <trkpt lat="41.1781530" lon="0.5689550">
        <ele>63.8</ele>
        <time>2020-08-06T08:41:44Z</time>
      </trkpt>
      <trkpt lat="41.1781460" lon="0.5689500">
        <ele>63.8</ele>
        <time>2020-08-06T08:41:46Z</time>
      </trkpt>
      <trkpt lat="41.1781400" lon="0.5689450">
        <ele>63.8</ele>
        <time>2020-08-06T08:42:24Z</time>
      </trkpt>
      <trkpt lat="41.1781330" lon="0.5689390">
        <ele>63.8</ele>
        <time>2020-08-06T08:42:26Z</time>
      </trkpt>
      <trkpt lat="41.1781260" lon="0.5689340">
        <ele>63.8</ele>
        <time>2020-08-06T08:42:27Z</time>
      </trkpt>
      <trkpt lat="41.1781100" lon="0.5689610">
        <ele>63.8</ele>
        <time>2020-08-06T08:42:28Z</time>
      </trkpt>
      <trkpt lat="41.1780950" lon="0.5690060">
        <ele>63.8</ele>
        <time>2020-08-06T08:42:30Z</time>
      </trkpt>
      <trkpt lat="41.1780740" lon="0.5690350">
        <ele>63.8</ele>
        <time>2020-08-06T08:42:31Z</time>
      </trkpt>
      <trkpt lat="41.1780680" lon="0.5690410">
        <ele>63.8</ele>
        <time>2020-08-06T08:42:32Z</time>
      </trkpt>
      <trkpt lat="41.1780650" lon="0.5690380">
        <ele>63.8</ele>
        <time>2020-08-06T08:42:33Z</time>
      </trkpt>
      <trkpt lat="41.1780610" lon="0.5690290">
        <ele>63.8</ele>
        <time>2020-08-06T08:42:34Z</time>
      </trkpt>
      <trkpt lat="41.1780600" lon="0.5690050">
        <ele>63.8</ele>
        <time>2020-08-06T08:42:36Z</time>
      </trkpt>
      <trkpt lat="41.1780600" lon="0.5689830">
        <ele>63.8</ele>
        <time>2020-08-06T08:42:37Z</time>
      </trkpt>
      <trkpt lat="41.1780580" lon="0.5689770">
        <ele>63.8</ele>
        <time>2020-08-06T08:42:38Z</time>
      </trkpt>
      <trkpt lat="41.1780530" lon="0.5689520">
        <ele>63.8</ele>
        <time>2020-08-06T08:42:40Z</time>
      </trkpt>
      <trkpt lat="41.1780510" lon="0.5689340">
        <ele>63.8</ele>
        <time>2020-08-06T08:42:41Z</time>
      </trkpt>
      <trkpt lat="41.1780510" lon="0.5689220">
        <ele>63.8</ele>
        <time>2020-08-06T08:42:43Z</time>
      </trkpt>
      <trkpt lat="41.1780500" lon="0.5689120">
        <ele>63.8</ele>
        <time>2020-08-06T08:42:44Z</time>
      </trkpt>
      <trkpt lat="41.1780480" lon="0.5689010">
        <ele>66.8</ele>
        <time>2020-08-06T08:42:45Z</time>
      </trkpt>
      <trkpt lat="41.1780440" lon="0.5688830">
        <ele>67.3</ele>
        <time>2020-08-06T08:42:46Z</time>
      </trkpt>
      <trkpt lat="41.1780380" lon="0.5688670">
        <ele>67.8</ele>
        <time>2020-08-06T08:42:47Z</time>
      </trkpt>
      <trkpt lat="41.1780420" lon="0.5688480">
        <ele>68.3</ele>
        <time>2020-08-06T08:42:48Z</time>
      </trkpt>
      <trkpt lat="41.1780500" lon="0.5688210">
        <ele>69.1</ele>
        <time>2020-08-06T08:42:50Z</time>
      </trkpt>
      <trkpt lat="41.1780580" lon="0.5688040">
        <ele>69.7</ele>
        <time>2020-08-06T08:42:51Z</time>
      </trkpt>
      <trkpt lat="41.1780730" lon="0.5687910">
        <ele>70.3</ele>
        <time>2020-08-06T08:42:52Z</time>
      </trkpt>
      <trkpt lat="41.1780830" lon="0.5687820">
        <ele>70.7</ele>
        <time>2020-08-06T08:42:53Z</time>
      </trkpt>
      <trkpt lat="41.1781050" lon="0.5687660">
        <ele>71.7</ele>
        <time>2020-08-06T08:42:55Z</time>
      </trkpt>
      <trkpt lat="41.1781260" lon="0.5687460">
        <ele>72.6</ele>
        <time>2020-08-06T08:42:56Z</time>
      </trkpt>
      <trkpt lat="41.1781370" lon="0.5687370">
        <ele>73.1</ele>
        <time>2020-08-06T08:42:58Z</time>
      </trkpt>
      <trkpt lat="41.1781470" lon="0.5687290">
        <ele>73.5</ele>
        <time>2020-08-06T08:42:59Z</time>
      </trkpt>
      <trkpt lat="41.1781580" lon="0.5687210">
        <ele>73.9</ele>
        <time>2020-08-06T08:43:01Z</time>
      </trkpt>
      <trkpt lat="41.1781680" lon="0.5687130">
        <ele>74.4</ele>
        <time>2020-08-06T08:43:02Z</time>
      </trkpt>
      <trkpt lat="41.1781790" lon="0.5687040">
        <ele>74.8</ele>
        <time>2020-08-06T08:43:04Z</time>
      </trkpt>
      <trkpt lat="41.1781890" lon="0.5686960">
        <ele>75.3</ele>
        <time>2020-08-06T08:43:05Z</time>
      </trkpt>
      <trkpt lat="41.1782050" lon="0.5686800">
        <ele>76.0</ele>
        <time>2020-08-06T08:43:06Z</time>
      </trkpt>
      <trkpt lat="41.1782150" lon="0.5686710">
        <ele>76.4</ele>
        <time>2020-08-06T08:43:07Z</time>
      </trkpt>
      <trkpt lat="41.1782220" lon="0.5686660">
        <ele>76.7</ele>
        <time>2020-08-06T08:43:08Z</time>
      </trkpt>
      <trkpt lat="41.1782320" lon="0.5686590">
        <ele>77.1</ele>
        <time>2020-08-06T08:43:09Z</time>
      </trkpt>
      <trkpt lat="41.1782510" lon="0.5686430">
        <ele>78.0</ele>
        <time>2020-08-06T08:43:11Z</time>
      </trkpt>
      <trkpt lat="41.1782710" lon="0.5686090">
        <ele>78.6</ele>
        <time>2020-08-06T08:43:12Z</time>
      </trkpt>
      <trkpt lat="41.1782730" lon="0.5685970">
        <ele>78.7</ele>
        <time>2020-08-06T08:43:13Z</time>
      </trkpt>
      <trkpt lat="41.1782780" lon="0.5685680">
        <ele>79.1</ele>
        <time>2020-08-06T08:43:14Z</time>
      </trkpt>
      <trkpt lat="41.1782910" lon="0.5685220">
        <ele>79.8</ele>
        <time>2020-08-06T08:43:16Z</time>
      </trkpt>
      <trkpt lat="41.1782930" lon="0.5684860">
        <ele>80.3</ele>
        <time>2020-08-06T08:43:17Z</time>
      </trkpt>
      <trkpt lat="41.1782940" lon="0.5684600">
        <ele>80.6</ele>
        <time>2020-08-06T08:43:18Z</time>
      </trkpt>
      <trkpt lat="41.1782880" lon="0.5684250">
        <ele>81.1</ele>
        <time>2020-08-06T08:43:20Z</time>
      </trkpt>
      <trkpt lat="41.1782840" lon="0.5683920">
        <ele>81.6</ele>
        <time>2020-08-06T08:43:21Z</time>
      </trkpt>
      <trkpt lat="41.1782780" lon="0.5683650">
        <ele>81.9</ele>
        <time>2020-08-06T08:43:23Z</time>
      </trkpt>
      <trkpt lat="41.1782640" lon="0.5683260">
        <ele>82.5</ele>
        <time>2020-08-06T08:43:24Z</time>
      </trkpt>
      <trkpt lat="41.1782590" lon="0.5683170">
        <ele>82.7</ele>
        <time>2020-08-06T08:43:25Z</time>
      </trkpt>
      <trkpt lat="41.1782500" lon="0.5683050">
        <ele>82.9</ele>
        <time>2020-08-06T08:43:26Z</time>
      </trkpt>
      <trkpt lat="41.1782480" lon="0.5682960">
        <ele>83.0</ele>
        <time>2020-08-06T08:43:28Z</time>
      </trkpt>
      <trkpt lat="41.1782510" lon="0.5682970">
        <ele>83.1</ele>
        <time>2020-08-06T08:43:29Z</time>
      </trkpt>
      <trkpt lat="41.1782540" lon="0.5682930">
        <ele>83.1</ele>
        <time>2020-08-06T08:43:31Z</time>
      </trkpt>
      <trkpt lat="41.1782550" lon="0.5682910">
        <ele>83.2</ele>
        <time>2020-08-06T08:43:32Z</time>
      </trkpt>
      <trkpt lat="41.1782550" lon="0.5682880">
        <ele>83.2</ele>
        <time>2020-08-06T08:43:33Z</time>
      </trkpt>
      <trkpt lat="41.1782550" lon="0.5682820">
        <ele>83.3</ele>
        <time>2020-08-06T08:43:35Z</time>
      </trkpt>
      <trkpt lat="41.1782550" lon="0.5682780">
        <ele>83.4</ele>
        <time>2020-08-06T08:43:36Z</time>
      </trkpt>
      <trkpt lat="41.1782180" lon="0.5682380">
        <ele>83.4</ele>
        <time>2020-08-06T08:44:42Z</time>
      </trkpt>
      <trkpt lat="41.1782090" lon="0.5682440">
        <ele>83.2</ele>
        <time>2020-08-06T08:44:44Z</time>
      </trkpt>
      <trkpt lat="41.1782060" lon="0.5682460">
        <ele>83.2</ele>
        <time>2020-08-06T08:44:45Z</time>
      </trkpt>
      <trkpt lat="41.1782060" lon="0.5682480">
        <ele>83.1</ele>
        <time>2020-08-06T08:44:46Z</time>
      </trkpt>
      <trkpt lat="41.1782060" lon="0.5682500">
        <ele>83.1</ele>
        <time>2020-08-06T08:44:47Z</time>
      </trkpt>
      <trkpt lat="41.1782070" lon="0.5682520">
        <ele>83.1</ele>
        <time>2020-08-06T08:44:48Z</time>
      </trkpt>
      <trkpt lat="41.1782090" lon="0.5682530">
        <ele>83.0</ele>
        <time>2020-08-06T08:44:50Z</time>
      </trkpt>
      <trkpt lat="41.1782110" lon="0.5682510">
        <ele>83.0</ele>
        <time>2020-08-06T08:44:51Z</time>
      </trkpt>
      <trkpt lat="41.1782120" lon="0.5682500">
        <ele>83.0</ele>
        <time>2020-08-06T08:44:52Z</time>
      </trkpt>
      <trkpt lat="41.1782130" lon="0.5682500">
        <ele>83.0</ele>
        <time>2020-08-06T08:44:53Z</time>
      </trkpt>
      <trkpt lat="41.1782120" lon="0.5682500">
        <ele>83.0</ele>
        <time>2020-08-06T08:44:55Z</time>
      </trkpt>
      <trkpt lat="41.1782120" lon="0.5682500">
        <ele>83.0</ele>
        <time>2020-08-06T08:44:56Z</time>
      </trkpt>
      <trkpt lat="41.1781910" lon="0.5682600">
        <ele>82.6</ele>
        <time>2020-08-06T08:47:49Z</time>
      </trkpt>
      <trkpt lat="41.1781790" lon="0.5682750">
        <ele>82.4</ele>
        <time>2020-08-06T08:47:50Z</time>
      </trkpt>
      <trkpt lat="41.1781650" lon="0.5682910">
        <ele>82.1</ele>
        <time>2020-08-06T08:47:51Z</time>
      </trkpt>
      <trkpt lat="41.1781510" lon="0.5683070">
        <ele>81.8</ele>
        <time>2020-08-06T08:47:52Z</time>
      </trkpt>
      <trkpt lat="41.1781210" lon="0.5683330">
        <ele>81.3</ele>
        <time>2020-08-06T08:47:54Z</time>
      </trkpt>
      <trkpt lat="41.1781070" lon="0.5683280">
        <ele>81.1</ele>
        <time>2020-08-06T08:47:56Z</time>
      </trkpt>
      <trkpt lat="41.1780920" lon="0.5683280">
        <ele>80.9</ele>
        <time>2020-08-06T08:47:57Z</time>
      </trkpt>
      <trkpt lat="41.1780610" lon="0.5683200">
        <ele>80.5</ele>
        <time>2020-08-06T08:47:58Z</time>
      </trkpt>
      <trkpt lat="41.1780510" lon="0.5683180">
        <ele>80.3</ele>
        <time>2020-08-06T08:47:59Z</time>
      </trkpt>
      <trkpt lat="41.1780230" lon="0.5682880">
        <ele>79.8</ele>
        <time>2020-08-06T08:48:01Z</time>
      </trkpt>
      <trkpt lat="41.1780010" lon="0.5682680">
        <ele>79.5</ele>
        <time>2020-08-06T08:48:02Z</time>
      </trkpt>
      <trkpt lat="41.1779700" lon="0.5682450">
        <ele>79.0</ele>
        <time>2020-08-06T08:48:04Z</time>
      </trkpt>
      <trkpt lat="41.1779400" lon="0.5682170">
        <ele>78.5</ele>
        <time>2020-08-06T08:48:05Z</time>
      </trkpt>
      <trkpt lat="41.1779280" lon="0.5682060">
        <ele>78.3</ele>
        <time>2020-08-06T08:48:06Z</time>
      </trkpt>
      <trkpt lat="41.1779000" lon="0.5681800">
        <ele>77.9</ele>
        <time>2020-08-06T08:48:07Z</time>
      </trkpt>
      <trkpt lat="41.1778900" lon="0.5681710">
        <ele>77.7</ele>
        <time>2020-08-06T08:48:08Z</time>
      </trkpt>
      <trkpt lat="41.1778700" lon="0.5681490">
        <ele>77.4</ele>
        <time>2020-08-06T08:48:09Z</time>
      </trkpt>
      <trkpt lat="41.1778380" lon="0.5681130">
        <ele>76.9</ele>
        <time>2020-08-06T08:48:11Z</time>
      </trkpt>
      <trkpt lat="41.1778140" lon="0.5680830">
        <ele>76.5</ele>
        <time>2020-08-06T08:48:12Z</time>
      </trkpt>
      <trkpt lat="41.1777910" lon="0.5680450">
        <ele>76.0</ele>
        <time>2020-08-06T08:48:13Z</time>
      </trkpt>
      <trkpt lat="41.1777740" lon="0.5680120">
        <ele>75.5</ele>
        <time>2020-08-06T08:48:14Z</time>
      </trkpt>
      <trkpt lat="41.1777550" lon="0.5679750">
        <ele>75.0</ele>
        <time>2020-08-06T08:48:15Z</time>
      </trkpt>
      <trkpt lat="41.1777130" lon="0.5678880">
        <ele>73.8</ele>
        <time>2020-08-06T08:48:17Z</time>
      </trkpt>
      <trkpt lat="41.1776700" lon="0.5678000">
        <ele>72.6</ele>
        <time>2020-08-06T08:48:18Z</time>
      </trkpt>
      <trkpt lat="41.1776440" lon="0.5677470">
        <ele>71.8</ele>
        <time>2020-08-06T08:48:19Z</time>
      </trkpt>
      <trkpt lat="41.1775980" lon="0.5676570">
        <ele>70.9</ele>
        <time>2020-08-06T08:48:21Z</time>
      </trkpt>
      <trkpt lat="41.1775650" lon="0.5675920">
        <ele>69.5</ele>
        <time>2020-08-06T08:48:22Z</time>
      </trkpt>
      <trkpt lat="41.1775410" lon="0.5675550">
        <ele>68.3</ele>
        <time>2020-08-06T08:48:23Z</time>
      </trkpt>
      <trkpt lat="41.1774420" lon="0.5674820">
        <ele>64.5</ele>
        <time>2020-08-06T08:48:24Z</time>
      </trkpt>
      <trkpt lat="41.1773390" lon="0.5674250">
        <ele>60.9</ele>
        <time>2020-08-06T08:48:25Z</time>
      </trkpt>
      <trkpt lat="41.1772940" lon="0.5674040">
        <ele>59.3</ele>
        <time>2020-08-06T08:48:27Z</time>
      </trkpt>
      <trkpt lat="41.1772670" lon="0.5673790">
        <ele>58.2</ele>
        <time>2020-08-06T08:48:28Z</time>
      </trkpt>
      <trkpt lat="41.1772380" lon="0.5673430">
        <ele>56.9</ele>
        <time>2020-08-06T08:48:29Z</time>
      </trkpt>
      <trkpt lat="41.1772320" lon="0.5673150">
        <ele>56.2</ele>
        <time>2020-08-06T08:48:31Z</time>
      </trkpt>
      <trkpt lat="41.1772200" lon="0.5673010">
        <ele>55.7</ele>
        <time>2020-08-06T08:48:32Z</time>
      </trkpt>
      <trkpt lat="41.1772020" lon="0.5672930">
        <ele>55.1</ele>
        <time>2020-08-06T08:48:33Z</time>
      </trkpt>
      <trkpt lat="41.1771930" lon="0.5672900">
        <ele>54.8</ele>
        <time>2020-08-06T08:48:34Z</time>
      </trkpt>
      <trkpt lat="41.1771780" lon="0.5672730">
        <ele>54.2</ele>
        <time>2020-08-06T08:48:36Z</time>
      </trkpt>
      <trkpt lat="41.1771690" lon="0.5672590">
        <ele>53.7</ele>
        <time>2020-08-06T08:48:37Z</time>
      </trkpt>
      <trkpt lat="41.1771470" lon="0.5672250">
        <ele>52.4</ele>
        <time>2020-08-06T08:48:39Z</time>
      </trkpt>
      <trkpt lat="41.1771370" lon="0.5672090">
        <ele>52.4</ele>
        <time>2020-08-06T08:48:40Z</time>
      </trkpt>
      <trkpt lat="41.1771160" lon="0.5671790">
        <ele>52.3</ele>
        <time>2020-08-06T08:48:42Z</time>
      </trkpt>
      <trkpt lat="41.1771060" lon="0.5671620">
        <ele>52.0</ele>
        <time>2020-08-06T08:48:43Z</time>
      </trkpt>
      <trkpt lat="41.1770900" lon="0.5671330">
        <ele>52.0</ele>
        <time>2020-08-06T08:48:45Z</time>
      </trkpt>
      <trkpt lat="41.1770620" lon="0.5671080">
        <ele>52.0</ele>
        <time>2020-08-06T08:48:46Z</time>
      </trkpt>
      <trkpt lat="41.1770530" lon="0.5671030">
        <ele>52.0</ele>
        <time>2020-08-06T08:48:47Z</time>
      </trkpt>
      <trkpt lat="41.1770390" lon="0.5670930">
        <ele>52.0</ele>
        <time>2020-08-06T08:48:48Z</time>
      </trkpt>
      <trkpt lat="41.1770250" lon="0.5670790">
        <ele>52.1</ele>
        <time>2020-08-06T08:48:49Z</time>
      </trkpt>
      <trkpt lat="41.1769980" lon="0.5670500">
        <ele>52.1</ele>
        <time>2020-08-06T08:48:51Z</time>
      </trkpt>
      <trkpt lat="41.1769740" lon="0.5670330">
        <ele>52.1</ele>
        <time>2020-08-06T08:48:52Z</time>
      </trkpt>
      <trkpt lat="41.1769450" lon="0.5670200">
        <ele>52.2</ele>
        <time>2020-08-06T08:48:53Z</time>
      </trkpt>
      <trkpt lat="41.1769110" lon="0.5670180">
        <ele>52.3</ele>
        <time>2020-08-06T08:48:55Z</time>
      </trkpt>
      <trkpt lat="41.1768870" lon="0.5670180">
        <ele>52.3</ele>
        <time>2020-08-06T08:48:56Z</time>
      </trkpt>
      <trkpt lat="41.1768580" lon="0.5670110">
        <ele>52.4</ele>
        <time>2020-08-06T08:48:58Z</time>
      </trkpt>
      <trkpt lat="41.1768200" lon="0.5670140">
        <ele>52.5</ele>
        <time>2020-08-06T08:48:59Z</time>
      </trkpt>
      <trkpt lat="41.1767850" lon="0.5670200">
        <ele>52.6</ele>
        <time>2020-08-06T08:49:00Z</time>
      </trkpt>
      <trkpt lat="41.1767520" lon="0.5670290">
        <ele>52.7</ele>
        <time>2020-08-06T08:49:01Z</time>
      </trkpt>
      <trkpt lat="41.1766760" lon="0.5670430">
        <ele>52.9</ele>
        <time>2020-08-06T08:49:03Z</time>
      </trkpt>
      <trkpt lat="41.1766450" lon="0.5670560">
        <ele>53.0</ele>
        <time>2020-08-06T08:49:04Z</time>
      </trkpt>
      <trkpt lat="41.1766200" lon="0.5670700">
        <ele>53.1</ele>
        <time>2020-08-06T08:49:05Z</time>
      </trkpt>
      <trkpt lat="41.1765840" lon="0.5671000">
        <ele>53.2</ele>
        <time>2020-08-06T08:49:07Z</time>
      </trkpt>
      <trkpt lat="41.1765630" lon="0.5671230">
        <ele>53.3</ele>
        <time>2020-08-06T08:49:08Z</time>
      </trkpt>
      <trkpt lat="41.1765400" lon="0.5671530">
        <ele>53.4</ele>
        <time>2020-08-06T08:49:09Z</time>
      </trkpt>
      <trkpt lat="41.1765340" lon="0.5671620">
        <ele>53.5</ele>
        <time>2020-08-06T08:49:10Z</time>
      </trkpt>
      <trkpt lat="41.1765070" lon="0.5671800">
        <ele>53.6</ele>
        <time>2020-08-06T08:49:11Z</time>
      </trkpt>
      <trkpt lat="41.1764990" lon="0.5671860">
        <ele>53.6</ele>
        <time>2020-08-06T08:49:12Z</time>
      </trkpt>
      <trkpt lat="41.1764850" lon="0.5672060">
        <ele>53.7</ele>
        <time>2020-08-06T08:49:13Z</time>
      </trkpt>
      <trkpt lat="41.1764640" lon="0.5672220">
        <ele>53.8</ele>
        <time>2020-08-06T08:49:15Z</time>
      </trkpt>
      <trkpt lat="41.1764390" lon="0.5672430">
        <ele>53.9</ele>
        <time>2020-08-06T08:49:16Z</time>
      </trkpt>
      <trkpt lat="41.1764090" lon="0.5672700">
        <ele>54.1</ele>
        <time>2020-08-06T08:49:18Z</time>
      </trkpt>
      <trkpt lat="41.1763910" lon="0.5672950">
        <ele>54.2</ele>
        <time>2020-08-06T08:49:20Z</time>
      </trkpt>
      <trkpt lat="41.1763850" lon="0.5673060">
        <ele>54.3</ele>
        <time>2020-08-06T08:49:21Z</time>
      </trkpt>
      <trkpt lat="41.1763810" lon="0.5673150">
        <ele>54.3</ele>
        <time>2020-08-06T08:49:23Z</time>
      </trkpt>
      <trkpt lat="41.1763710" lon="0.5673420">
        <ele>54.4</ele>
        <time>2020-08-06T08:49:25Z</time>
      </trkpt>
      <trkpt lat="41.1763720" lon="0.5673540">
        <ele>54.5</ele>
        <time>2020-08-06T08:49:26Z</time>
      </trkpt>
      <trkpt lat="41.1763630" lon="0.5673790">
        <ele>54.6</ele>
        <time>2020-08-06T08:49:28Z</time>
      </trkpt>
      <trkpt lat="41.1763550" lon="0.5674060">
        <ele>54.7</ele>
        <time>2020-08-06T08:49:29Z</time>
      </trkpt>
      <trkpt lat="41.1763380" lon="0.5674340">
        <ele>54.8</ele>
        <time>2020-08-06T08:49:31Z</time>
      </trkpt>
      <trkpt lat="41.1763230" lon="0.5674680">
        <ele>55.0</ele>
        <time>2020-08-06T08:49:32Z</time>
      </trkpt>
      <trkpt lat="41.1763180" lon="0.5674750">
        <ele>55.0</ele>
        <time>2020-08-06T08:49:33Z</time>
      </trkpt>
      <trkpt lat="41.1762890" lon="0.5675360">
        <ele>55.3</ele>
        <time>2020-08-06T08:49:35Z</time>
      </trkpt>
      <trkpt lat="41.1762800" lon="0.5675600">
        <ele>55.4</ele>
        <time>2020-08-06T08:49:37Z</time>
      </trkpt>
      <trkpt lat="41.1762700" lon="0.5675850">
        <ele>55.5</ele>
        <time>2020-08-06T08:49:39Z</time>
      </trkpt>
      <trkpt lat="41.1762600" lon="0.5676090">
        <ele>55.6</ele>
        <time>2020-08-06T08:49:40Z</time>
      </trkpt>
      <trkpt lat="41.1762450" lon="0.5676700">
        <ele>55.8</ele>
        <time>2020-08-06T08:49:42Z</time>
      </trkpt>
      <trkpt lat="41.1762130" lon="0.5677350">
        <ele>56.1</ele>
        <time>2020-08-06T08:49:43Z</time>
      </trkpt>
      <trkpt lat="41.1761950" lon="0.5678110">
        <ele>56.4</ele>
        <time>2020-08-06T08:49:45Z</time>
      </trkpt>
      <trkpt lat="41.1761790" lon="0.5678750">
        <ele>56.7</ele>
        <time>2020-08-06T08:49:47Z</time>
      </trkpt>
      <trkpt lat="41.1761800" lon="0.5679310">
        <ele>56.9</ele>
        <time>2020-08-06T08:49:49Z</time>
      </trkpt>
      <trkpt lat="41.1761850" lon="0.5679640">
        <ele>57.0</ele>
        <time>2020-08-06T08:49:50Z</time>
      </trkpt>
      <trkpt lat="41.1761870" lon="0.5680080">
        <ele>57.2</ele>
        <time>2020-08-06T08:49:52Z</time>
      </trkpt>
      <trkpt lat="41.1761890" lon="0.5680280">
        <ele>57.3</ele>
        <time>2020-08-06T08:49:53Z</time>
      </trkpt>
      <trkpt lat="41.1761940" lon="0.5680780">
        <ele>57.5</ele>
        <time>2020-08-06T08:49:55Z</time>
      </trkpt>
      <trkpt lat="41.1762010" lon="0.5680990">
        <ele>57.6</ele>
        <time>2020-08-06T08:49:56Z</time>
      </trkpt>
      <trkpt lat="41.1762090" lon="0.5681190">
        <ele>57.7</ele>
        <time>2020-08-06T08:49:57Z</time>
      </trkpt>
      <trkpt lat="41.1762250" lon="0.5681610">
        <ele>57.9</ele>
        <time>2020-08-06T08:49:59Z</time>
      </trkpt>
      <trkpt lat="41.1762450" lon="0.5682270">
        <ele>58.1</ele>
        <time>2020-08-06T08:50:02Z</time>
      </trkpt>
      <trkpt lat="41.1762530" lon="0.5682560">
        <ele>58.2</ele>
        <time>2020-08-06T08:50:03Z</time>
      </trkpt>
      <trkpt lat="41.1762630" lon="0.5682930">
        <ele>58.4</ele>
        <time>2020-08-06T08:50:04Z</time>
      </trkpt>
      <trkpt lat="41.1762660" lon="0.5683060">
        <ele>58.5</ele>
        <time>2020-08-06T08:50:05Z</time>
      </trkpt>
      <trkpt lat="41.1762780" lon="0.5683560">
        <ele>58.7</ele>
        <time>2020-08-06T08:50:07Z</time>
      </trkpt>
      <trkpt lat="41.1762810" lon="0.5683740">
        <ele>58.8</ele>
        <time>2020-08-06T08:50:08Z</time>
      </trkpt>
      <trkpt lat="41.1762850" lon="0.5683940">
        <ele>58.9</ele>
        <time>2020-08-06T08:50:09Z</time>
      </trkpt>
      <trkpt lat="41.1762880" lon="0.5684220">
        <ele>59.0</ele>
        <time>2020-08-06T08:50:11Z</time>
      </trkpt>
      <trkpt lat="41.1762820" lon="0.5684310">
        <ele>59.0</ele>
        <time>2020-08-06T08:50:13Z</time>
      </trkpt>
      <trkpt lat="41.1762810" lon="0.5684510">
        <ele>59.1</ele>
        <time>2020-08-06T08:50:14Z</time>
      </trkpt>
      <trkpt lat="41.1762760" lon="0.5684770">
        <ele>59.2</ele>
        <time>2020-08-06T08:50:16Z</time>
      </trkpt>
      <trkpt lat="41.1762730" lon="0.5684870">
        <ele>59.3</ele>
        <time>2020-08-06T08:50:17Z</time>
      </trkpt>
      <trkpt lat="41.1762700" lon="0.5684980">
        <ele>59.3</ele>
        <time>2020-08-06T08:50:18Z</time>
      </trkpt>
      <trkpt lat="41.1762670" lon="0.5685140">
        <ele>59.4</ele>
        <time>2020-08-06T08:50:19Z</time>
      </trkpt>
      <trkpt lat="41.1762590" lon="0.5685480">
        <ele>59.5</ele>
        <time>2020-08-06T08:50:20Z</time>
      </trkpt>
      <trkpt lat="41.1762520" lon="0.5685670">
        <ele>59.6</ele>
        <time>2020-08-06T08:50:22Z</time>
      </trkpt>
      <trkpt lat="41.1762460" lon="0.5685860">
        <ele>59.7</ele>
        <time>2020-08-06T08:50:23Z</time>
      </trkpt>
      <trkpt lat="41.1762390" lon="0.5686050">
        <ele>59.8</ele>
        <time>2020-08-06T08:50:24Z</time>
      </trkpt>
      <trkpt lat="41.1762280" lon="0.5686360">
        <ele>60.0</ele>
        <time>2020-08-06T08:50:25Z</time>
      </trkpt>
      <trkpt lat="41.1762020" lon="0.5687000">
        <ele>60.3</ele>
        <time>2020-08-06T08:50:27Z</time>
      </trkpt>
      <trkpt lat="41.1761840" lon="0.5687330">
        <ele>60.5</ele>
        <time>2020-08-06T08:50:28Z</time>
      </trkpt>
      <trkpt lat="41.1761770" lon="0.5687440">
        <ele>60.6</ele>
        <time>2020-08-06T08:50:29Z</time>
      </trkpt>
      <trkpt lat="41.1761470" lon="0.5687780">
        <ele>60.9</ele>
        <time>2020-08-06T08:50:31Z</time>
      </trkpt>
      <trkpt lat="41.1761300" lon="0.5687990">
        <ele>61.0</ele>
        <time>2020-08-06T08:50:32Z</time>
      </trkpt>
      <trkpt lat="41.1761080" lon="0.5688200">
        <ele>61.2</ele>
        <time>2020-08-06T08:50:34Z</time>
      </trkpt>
      <trkpt lat="41.1760780" lon="0.5688420">
        <ele>61.4</ele>
        <time>2020-08-06T08:50:35Z</time>
      </trkpt>
      <trkpt lat="41.1760680" lon="0.5688470">
        <ele>61.5</ele>
        <time>2020-08-06T08:50:36Z</time>
      </trkpt>
      <trkpt lat="41.1760500" lon="0.5688510">
        <ele>61.6</ele>
        <time>2020-08-06T08:50:37Z</time>
      </trkpt>
      <trkpt lat="41.1760410" lon="0.5688700">
        <ele>61.7</ele>
        <time>2020-08-06T08:50:38Z</time>
      </trkpt>
      <trkpt lat="41.1760220" lon="0.5688830">
        <ele>61.9</ele>
        <time>2020-08-06T08:50:39Z</time>
      </trkpt>
      <trkpt lat="41.1759840" lon="0.5689130">
        <ele>62.2</ele>
        <time>2020-08-06T08:50:41Z</time>
      </trkpt>
      <trkpt lat="41.1759510" lon="0.5689250">
        <ele>62.4</ele>
        <time>2020-08-06T08:50:43Z</time>
      </trkpt>
      <trkpt lat="41.1759370" lon="0.5689370">
        <ele>62.6</ele>
        <time>2020-08-06T08:50:44Z</time>
      </trkpt>
      <trkpt lat="41.1759210" lon="0.5689480">
        <ele>62.7</ele>
        <time>2020-08-06T08:50:45Z</time>
      </trkpt>
      <trkpt lat="41.1758840" lon="0.5689640">
        <ele>63.0</ele>
        <time>2020-08-06T08:50:47Z</time>
      </trkpt>
      <trkpt lat="41.1758710" lon="0.5689780">
        <ele>63.1</ele>
        <time>2020-08-06T08:50:48Z</time>
      </trkpt>
      <trkpt lat="41.1758360" lon="0.5689990">
        <ele>63.3</ele>
        <time>2020-08-06T08:50:50Z</time>
      </trkpt>
      <trkpt lat="41.1757890" lon="0.5690270">
        <ele>63.7</ele>
        <time>2020-08-06T08:50:52Z</time>
      </trkpt>
      <trkpt lat="41.1757720" lon="0.5690340">
        <ele>63.8</ele>
        <time>2020-08-06T08:50:54Z</time>
      </trkpt>
      <trkpt lat="41.1757560" lon="0.5690410">
        <ele>63.9</ele>
        <time>2020-08-06T08:50:55Z</time>
      </trkpt>
      <trkpt lat="41.1757340" lon="0.5690580">
        <ele>64.1</ele>
        <time>2020-08-06T08:50:57Z</time>
      </trkpt>
      <trkpt lat="41.1757250" lon="0.5690690">
        <ele>64.2</ele>
        <time>2020-08-06T08:50:59Z</time>
      </trkpt>
      <trkpt lat="41.1757120" lon="0.5690820">
        <ele>64.3</ele>
        <time>2020-08-06T08:51:00Z</time>
      </trkpt>
      <trkpt lat="41.1757010" lon="0.5690980">
        <ele>64.4</ele>
        <time>2020-08-06T08:51:01Z</time>
      </trkpt>
      <trkpt lat="41.1756820" lon="0.5691300">
        <ele>64.6</ele>
        <time>2020-08-06T08:51:02Z</time>
      </trkpt>
      <trkpt lat="41.1756740" lon="0.5691420">
        <ele>64.7</ele>
        <time>2020-08-06T08:51:03Z</time>
      </trkpt>
      <trkpt lat="41.1756630" lon="0.5691780">
        <ele>64.8</ele>
        <time>2020-08-06T08:51:04Z</time>
      </trkpt>
      <trkpt lat="41.1756600" lon="0.5691910">
        <ele>64.8</ele>
        <time>2020-08-06T08:51:05Z</time>
      </trkpt>
      <trkpt lat="41.1756570" lon="0.5692280">
        <ele>64.7</ele>
        <time>2020-08-06T08:51:07Z</time>
      </trkpt>
      <trkpt lat="41.1756550" lon="0.5692770">
        <ele>64.7</ele>
        <time>2020-08-06T08:51:08Z</time>
      </trkpt>
      <trkpt lat="41.1756530" lon="0.5693030">
        <ele>64.7</ele>
        <time>2020-08-06T08:51:09Z</time>
      </trkpt>
      <trkpt lat="41.1756580" lon="0.5693840">
        <ele>64.6</ele>
        <time>2020-08-06T08:51:11Z</time>
      </trkpt>
      <trkpt lat="41.1756670" lon="0.5694500">
        <ele>64.5</ele>
        <time>2020-08-06T08:51:12Z</time>
      </trkpt>
      <trkpt lat="41.1756820" lon="0.5695240">
        <ele>64.4</ele>
        <time>2020-08-06T08:51:13Z</time>
      </trkpt>
      <trkpt lat="41.1756990" lon="0.5696030">
        <ele>64.2</ele>
        <time>2020-08-06T08:51:14Z</time>
      </trkpt>
      <trkpt lat="41.1757270" lon="0.5697010">
        <ele>63.9</ele>
        <time>2020-08-06T08:51:16Z</time>
      </trkpt>
      <trkpt lat="41.1757460" lon="0.5697620">
        <ele>63.7</ele>
        <time>2020-08-06T08:51:17Z</time>
      </trkpt>
      <trkpt lat="41.1757560" lon="0.5698130">
        <ele>63.6</ele>
        <time>2020-08-06T08:51:18Z</time>
      </trkpt>
      <trkpt lat="41.1757640" lon="0.5698600">
        <ele>63.5</ele>
        <time>2020-08-06T08:51:19Z</time>
      </trkpt>
      <trkpt lat="41.1757620" lon="0.5699160">
        <ele>63.7</ele>
        <time>2020-08-06T08:51:21Z</time>
      </trkpt>
      <trkpt lat="41.1757650" lon="0.5699560">
        <ele>63.9</ele>
        <time>2020-08-06T08:51:22Z</time>
      </trkpt>
      <trkpt lat="41.1757620" lon="0.5699980">
        <ele>64.1</ele>
        <time>2020-08-06T08:51:23Z</time>
      </trkpt>
      <trkpt lat="41.1757610" lon="0.5700090">
        <ele>64.2</ele>
        <time>2020-08-06T08:51:24Z</time>
      </trkpt>
      <trkpt lat="41.1757510" lon="0.5700690">
        <ele>64.5</ele>
        <time>2020-08-06T08:51:26Z</time>
      </trkpt>
      <trkpt lat="41.1757470" lon="0.5700860">
        <ele>64.6</ele>
        <time>2020-08-06T08:51:27Z</time>
      </trkpt>
      <trkpt lat="41.1757430" lon="0.5701030">
        <ele>64.7</ele>
        <time>2020-08-06T08:51:28Z</time>
      </trkpt>
      <trkpt lat="41.1757360" lon="0.5701250">
        <ele>64.8</ele>
        <time>2020-08-06T08:51:29Z</time>
      </trkpt>
      <trkpt lat="41.1757200" lon="0.5701660">
        <ele>65.1</ele>
        <time>2020-08-06T08:51:31Z</time>
      </trkpt>
      <trkpt lat="41.1757190" lon="0.5701870">
        <ele>65.2</ele>
        <time>2020-08-06T08:51:32Z</time>
      </trkpt>
      <trkpt lat="41.1757120" lon="0.5702050">
        <ele>65.3</ele>
        <time>2020-08-06T08:51:33Z</time>
      </trkpt>
      <trkpt lat="41.1757040" lon="0.5702210">
        <ele>65.4</ele>
        <time>2020-08-06T08:51:34Z</time>
      </trkpt>
      <trkpt lat="41.1756920" lon="0.5702590">
        <ele>65.6</ele>
        <time>2020-08-06T08:51:36Z</time>
      </trkpt>
      <trkpt lat="41.1756820" lon="0.5703080">
        <ele>65.9</ele>
        <time>2020-08-06T08:51:38Z</time>
      </trkpt>
      <trkpt lat="41.1756770" lon="0.5703290">
        <ele>66.0</ele>
        <time>2020-08-06T08:51:39Z</time>
      </trkpt>
      <trkpt lat="41.1756680" lon="0.5703520">
        <ele>66.1</ele>
        <time>2020-08-06T08:51:40Z</time>
      </trkpt>
      <trkpt lat="41.1756550" lon="0.5703880">
        <ele>66.3</ele>
        <time>2020-08-06T08:51:42Z</time>
      </trkpt>
      <trkpt lat="41.1756430" lon="0.5704240">
        <ele>66.5</ele>
        <time>2020-08-06T08:51:44Z</time>
      </trkpt>
      <trkpt lat="41.1756330" lon="0.5704440">
        <ele>66.7</ele>
        <time>2020-08-06T08:51:45Z</time>
      </trkpt>
      <trkpt lat="41.1756300" lon="0.5704630">
        <ele>66.7</ele>
        <time>2020-08-06T08:51:46Z</time>
      </trkpt>
      <trkpt lat="41.1756120" lon="0.5705240">
        <ele>67.1</ele>
        <time>2020-08-06T08:51:48Z</time>
      </trkpt>
      <trkpt lat="41.1756090" lon="0.5705420">
        <ele>67.2</ele>
        <time>2020-08-06T08:51:49Z</time>
      </trkpt>
      <trkpt lat="41.1756050" lon="0.5705590">
        <ele>67.3</ele>
        <time>2020-08-06T08:51:50Z</time>
      </trkpt>
      <trkpt lat="41.1755990" lon="0.5705800">
        <ele>67.4</ele>
        <time>2020-08-06T08:51:51Z</time>
      </trkpt>
      <trkpt lat="41.1755950" lon="0.5705980">
        <ele>67.5</ele>
        <time>2020-08-06T08:51:52Z</time>
      </trkpt>
      <trkpt lat="41.1755780" lon="0.5706470">
        <ele>67.7</ele>
        <time>2020-08-06T08:51:54Z</time>
      </trkpt>
      <trkpt lat="41.1755710" lon="0.5706650">
        <ele>67.8</ele>
        <time>2020-08-06T08:51:55Z</time>
      </trkpt>
      <trkpt lat="41.1755560" lon="0.5707020">
        <ele>68.0</ele>
        <time>2020-08-06T08:51:57Z</time>
      </trkpt>
      <trkpt lat="41.1755490" lon="0.5707190">
        <ele>68.1</ele>
        <time>2020-08-06T08:51:58Z</time>
      </trkpt>
      <trkpt lat="41.1755360" lon="0.5707470">
        <ele>68.3</ele>
        <time>2020-08-06T08:52:00Z</time>
      </trkpt>
      <trkpt lat="41.1755240" lon="0.5707660">
        <ele>68.4</ele>
        <time>2020-08-06T08:52:01Z</time>
      </trkpt>
      <trkpt lat="41.1755170" lon="0.5707820">
        <ele>68.5</ele>
        <time>2020-08-06T08:52:02Z</time>
      </trkpt>
      <trkpt lat="41.1754970" lon="0.5708170">
        <ele>68.7</ele>
        <time>2020-08-06T08:52:04Z</time>
      </trkpt>
      <trkpt lat="41.1754950" lon="0.5708260">
        <ele>68.7</ele>
        <time>2020-08-06T08:52:05Z</time>
      </trkpt>
      <trkpt lat="41.1754860" lon="0.5708430">
        <ele>68.8</ele>
        <time>2020-08-06T08:52:06Z</time>
      </trkpt>
      <trkpt lat="41.1754620" lon="0.5708720">
        <ele>68.9</ele>
        <time>2020-08-06T08:52:08Z</time>
      </trkpt>
      <trkpt lat="41.1754410" lon="0.5709090">
        <ele>69.1</ele>
        <time>2020-08-06T08:52:10Z</time>
      </trkpt>
      <trkpt lat="41.1754330" lon="0.5709300">
        <ele>69.2</ele>
        <time>2020-08-06T08:52:11Z</time>
      </trkpt>
      <trkpt lat="41.1754110" lon="0.5709610">
        <ele>69.4</ele>
        <time>2020-08-06T08:52:13Z</time>
      </trkpt>
      <trkpt lat="41.1753920" lon="0.5709900">
        <ele>69.5</ele>
        <time>2020-08-06T08:52:14Z</time>
      </trkpt>
      <trkpt lat="41.1753860" lon="0.5710000">
        <ele>69.6</ele>
        <time>2020-08-06T08:52:15Z</time>
      </trkpt>
      <trkpt lat="41.1753600" lon="0.5710340">
        <ele>69.7</ele>
        <time>2020-08-06T08:52:17Z</time>
      </trkpt>
      <trkpt lat="41.1753360" lon="0.5710770">
        <ele>69.9</ele>
        <time>2020-08-06T08:52:19Z</time>
      </trkpt>
      <trkpt lat="41.1753130" lon="0.5711140">
        <ele>70.0</ele>
        <time>2020-08-06T08:52:21Z</time>
      </trkpt>
      <trkpt lat="41.1753020" lon="0.5711340">
        <ele>70.1</ele>
        <time>2020-08-06T08:52:22Z</time>
      </trkpt>
      <trkpt lat="41.1752820" lon="0.5711620">
        <ele>70.2</ele>
        <time>2020-08-06T08:52:24Z</time>
      </trkpt>
      <trkpt lat="41.1752640" lon="0.5711930">
        <ele>70.3</ele>
        <time>2020-08-06T08:52:25Z</time>
      </trkpt>
      <trkpt lat="41.1752400" lon="0.5712280">
        <ele>70.4</ele>
        <time>2020-08-06T08:52:27Z</time>
      </trkpt>
      <trkpt lat="41.1752160" lon="0.5712590">
        <ele>70.5</ele>
        <time>2020-08-06T08:52:28Z</time>
      </trkpt>
      <trkpt lat="41.1751970" lon="0.5712800">
        <ele>70.5</ele>
        <time>2020-08-06T08:52:29Z</time>
      </trkpt>
      <trkpt lat="41.1751650" lon="0.5713150">
        <ele>70.6</ele>
        <time>2020-08-06T08:52:31Z</time>
      </trkpt>
      <trkpt lat="41.1751370" lon="0.5713460">
        <ele>70.6</ele>
        <time>2020-08-06T08:52:32Z</time>
      </trkpt>
      <trkpt lat="41.1751270" lon="0.5713560">
        <ele>70.7</ele>
        <time>2020-08-06T08:52:33Z</time>
      </trkpt>
      <trkpt lat="41.1750890" lon="0.5713950">
        <ele>70.7</ele>
        <time>2020-08-06T08:52:35Z</time>
      </trkpt>
      <trkpt lat="41.1750650" lon="0.5714150">
        <ele>70.8</ele>
        <time>2020-08-06T08:52:36Z</time>
      </trkpt>
      <trkpt lat="41.1750210" lon="0.5714450">
        <ele>70.8</ele>
        <time>2020-08-06T08:52:38Z</time>
      </trkpt>
      <trkpt lat="41.1749950" lon="0.5714650">
        <ele>70.8</ele>
        <time>2020-08-06T08:52:39Z</time>
      </trkpt>
      <trkpt lat="41.1749670" lon="0.5714800">
        <ele>70.9</ele>
        <time>2020-08-06T08:52:40Z</time>
      </trkpt>
      <trkpt lat="41.1749160" lon="0.5715080">
        <ele>70.9</ele>
        <time>2020-08-06T08:52:42Z</time>
      </trkpt>
      <trkpt lat="41.1748790" lon="0.5715190">
        <ele>70.9</ele>
        <time>2020-08-06T08:52:43Z</time>
      </trkpt>
      <trkpt lat="41.1748210" lon="0.5715370">
        <ele>70.9</ele>
        <time>2020-08-06T08:52:45Z</time>
      </trkpt>
      <trkpt lat="41.1747930" lon="0.5715440">
        <ele>70.9</ele>
        <time>2020-08-06T08:52:46Z</time>
      </trkpt>
      <trkpt lat="41.1747370" lon="0.5715540">
        <ele>70.9</ele>
        <time>2020-08-06T08:52:48Z</time>
      </trkpt>
      <trkpt lat="41.1747060" lon="0.5715610">
        <ele>70.9</ele>
        <time>2020-08-06T08:52:49Z</time>
      </trkpt>
      <trkpt lat="41.1746750" lon="0.5715620">
        <ele>70.9</ele>
        <time>2020-08-06T08:52:50Z</time>
      </trkpt>
      <trkpt lat="41.1746150" lon="0.5715610">
        <ele>70.8</ele>
        <time>2020-08-06T08:52:52Z</time>
      </trkpt>
      <trkpt lat="41.1745730" lon="0.5715520">
        <ele>70.8</ele>
        <time>2020-08-06T08:52:54Z</time>
      </trkpt>
      <trkpt lat="41.1745360" lon="0.5715470">
        <ele>70.8</ele>
        <time>2020-08-06T08:52:55Z</time>
      </trkpt>
      <trkpt lat="41.1744970" lon="0.5715360">
        <ele>70.9</ele>
        <time>2020-08-06T08:52:57Z</time>
      </trkpt>
      <trkpt lat="41.1744630" lon="0.5715190">
        <ele>71.0</ele>
        <time>2020-08-06T08:52:59Z</time>
      </trkpt>
      <trkpt lat="41.1744520" lon="0.5715110">
        <ele>71.0</ele>
        <time>2020-08-06T08:53:00Z</time>
      </trkpt>
      <trkpt lat="41.1744240" lon="0.5714880">
        <ele>71.0</ele>
        <time>2020-08-06T08:53:01Z</time>
      </trkpt>
      <trkpt lat="41.1744170" lon="0.5714810">
        <ele>71.1</ele>
        <time>2020-08-06T08:53:02Z</time>
      </trkpt>
      <trkpt lat="41.1743800" lon="0.5714500">
        <ele>71.1</ele>
        <time>2020-08-06T08:53:04Z</time>
      </trkpt>
      <trkpt lat="41.1743670" lon="0.5714390">
        <ele>71.2</ele>
        <time>2020-08-06T08:53:05Z</time>
      </trkpt>
      <trkpt lat="41.1743550" lon="0.5714280">
        <ele>71.2</ele>
        <time>2020-08-06T08:53:06Z</time>
      </trkpt>
      <trkpt lat="41.1743270" lon="0.5714010">
        <ele>71.3</ele>
        <time>2020-08-06T08:53:07Z</time>
      </trkpt>
      <trkpt lat="41.1743170" lon="0.5713920">
        <ele>71.3</ele>
        <time>2020-08-06T08:53:08Z</time>
      </trkpt>
      <trkpt lat="41.1742930" lon="0.5713660">
        <ele>71.4</ele>
        <time>2020-08-06T08:53:10Z</time>
      </trkpt>
      <trkpt lat="41.1742840" lon="0.5713570">
        <ele>71.4</ele>
        <time>2020-08-06T08:53:11Z</time>
      </trkpt>
      <trkpt lat="41.1742640" lon="0.5713370">
        <ele>71.5</ele>
        <time>2020-08-06T08:53:12Z</time>
      </trkpt>
      <trkpt lat="41.1742400" lon="0.5713120">
        <ele>71.6</ele>
        <time>2020-08-06T08:53:14Z</time>
      </trkpt>
      <trkpt lat="41.1742240" lon="0.5712990">
        <ele>71.7</ele>
        <time>2020-08-06T08:53:15Z</time>
      </trkpt>
      <trkpt lat="41.1741980" lon="0.5712740">
        <ele>71.8</ele>
        <time>2020-08-06T08:53:17Z</time>
      </trkpt>
      <trkpt lat="41.1741780" lon="0.5712550">
        <ele>71.8</ele>
        <time>2020-08-06T08:53:18Z</time>
      </trkpt>
      <trkpt lat="41.1741510" lon="0.5712280">
        <ele>71.9</ele>
        <time>2020-08-06T08:53:20Z</time>
      </trkpt>
      <trkpt lat="41.1741270" lon="0.5712010">
        <ele>72.1</ele>
        <time>2020-08-06T08:53:21Z</time>
      </trkpt>
      <trkpt lat="41.1740990" lon="0.5711750">
        <ele>72.2</ele>
        <time>2020-08-06T08:53:22Z</time>
      </trkpt>
      <trkpt lat="41.1740690" lon="0.5711430">
        <ele>72.3</ele>
        <time>2020-08-06T08:53:23Z</time>
      </trkpt>
      <trkpt lat="41.1740600" lon="0.5711330">
        <ele>72.4</ele>
        <time>2020-08-06T08:53:24Z</time>
      </trkpt>
      <trkpt lat="41.1740320" lon="0.5711030">
        <ele>72.5</ele>
        <time>2020-08-06T08:53:26Z</time>
      </trkpt>
      <trkpt lat="41.1740110" lon="0.5710800">
        <ele>72.6</ele>
        <time>2020-08-06T08:53:27Z</time>
      </trkpt>
      <trkpt lat="41.1739850" lon="0.5710480">
        <ele>72.7</ele>
        <time>2020-08-06T08:53:29Z</time>
      </trkpt>
      <trkpt lat="41.1739560" lon="0.5710180">
        <ele>72.9</ele>
        <time>2020-08-06T08:53:31Z</time>
      </trkpt>
      <trkpt lat="41.1739430" lon="0.5710030">
        <ele>72.9</ele>
        <time>2020-08-06T08:53:32Z</time>
      </trkpt>
      <trkpt lat="41.1739230" lon="0.5709810">
        <ele>73.0</ele>
        <time>2020-08-06T08:53:34Z</time>
      </trkpt>
      <trkpt lat="41.1738970" lon="0.5709550">
        <ele>73.2</ele>
        <time>2020-08-06T08:53:35Z</time>
      </trkpt>
      <trkpt lat="41.1738840" lon="0.5709400">
        <ele>73.3</ele>
        <time>2020-08-06T08:53:36Z</time>
      </trkpt>
      <trkpt lat="41.1738710" lon="0.5709250">
        <ele>73.3</ele>
        <time>2020-08-06T08:53:37Z</time>
      </trkpt>
      <trkpt lat="41.1738570" lon="0.5709090">
        <ele>73.4</ele>
        <time>2020-08-06T08:53:38Z</time>
      </trkpt>
      <trkpt lat="41.1738450" lon="0.5708940">
        <ele>73.5</ele>
        <time>2020-08-06T08:53:39Z</time>
      </trkpt>
      <trkpt lat="41.1738360" lon="0.5708830">
        <ele>73.5</ele>
        <time>2020-08-06T08:53:40Z</time>
      </trkpt>
      <trkpt lat="41.1738150" lon="0.5708560">
        <ele>73.7</ele>
        <time>2020-08-06T08:53:42Z</time>
      </trkpt>
      <trkpt lat="41.1737920" lon="0.5708220">
        <ele>73.8</ele>
        <time>2020-08-06T08:53:43Z</time>
      </trkpt>
      <trkpt lat="41.1737860" lon="0.5708110">
        <ele>73.9</ele>
        <time>2020-08-06T08:53:44Z</time>
      </trkpt>
      <trkpt lat="41.1737660" lon="0.5707760">
        <ele>74.1</ele>
        <time>2020-08-06T08:53:46Z</time>
      </trkpt>
      <trkpt lat="41.1737410" lon="0.5707350">
        <ele>74.3</ele>
        <time>2020-08-06T08:53:47Z</time>
      </trkpt>
      <trkpt lat="41.1737180" lon="0.5706970">
        <ele>74.5</ele>
        <time>2020-08-06T08:53:49Z</time>
      </trkpt>
      <trkpt lat="41.1736940" lon="0.5706620">
        <ele>74.7</ele>
        <time>2020-08-06T08:53:50Z</time>
      </trkpt>
      <trkpt lat="41.1736740" lon="0.5706280">
        <ele>74.8</ele>
        <time>2020-08-06T08:53:52Z</time>
      </trkpt>
      <trkpt lat="41.1736530" lon="0.5705980">
        <ele>75.0</ele>
        <time>2020-08-06T08:53:53Z</time>
      </trkpt>
      <trkpt lat="41.1736330" lon="0.5705710">
        <ele>75.1</ele>
        <time>2020-08-06T08:53:54Z</time>
      </trkpt>
      <trkpt lat="41.1736120" lon="0.5705480">
        <ele>75.3</ele>
        <time>2020-08-06T08:53:55Z</time>
      </trkpt>
      <trkpt lat="41.1735770" lon="0.5705150">
        <ele>75.5</ele>
        <time>2020-08-06T08:53:57Z</time>
      </trkpt>
      <trkpt lat="41.1735500" lon="0.5704810">
        <ele>75.7</ele>
        <time>2020-08-06T08:53:58Z</time>
      </trkpt>
      <trkpt lat="41.1735260" lon="0.5704550">
        <ele>75.8</ele>
        <time>2020-08-06T08:53:59Z</time>
      </trkpt>
      <trkpt lat="41.1734920" lon="0.5704140">
        <ele>76.1</ele>
        <time>2020-08-06T08:54:01Z</time>
      </trkpt>
      <trkpt lat="41.1734760" lon="0.5703990">
        <ele>76.2</ele>
        <time>2020-08-06T08:54:02Z</time>
      </trkpt>
      <trkpt lat="41.1734490" lon="0.5703690">
        <ele>76.3</ele>
        <time>2020-08-06T08:54:04Z</time>
      </trkpt>
      <trkpt lat="41.1734390" lon="0.5703560">
        <ele>76.4</ele>
        <time>2020-08-06T08:54:05Z</time>
      </trkpt>
      <trkpt lat="41.1734210" lon="0.5703260">
        <ele>76.6</ele>
        <time>2020-08-06T08:54:07Z</time>
      </trkpt>
      <trkpt lat="41.1734010" lon="0.5702990">
        <ele>76.7</ele>
        <time>2020-08-06T08:54:09Z</time>
      </trkpt>
      <trkpt lat="41.1733890" lon="0.5702790">
        <ele>76.8</ele>
        <time>2020-08-06T08:54:10Z</time>
      </trkpt>
      <trkpt lat="41.1733710" lon="0.5702520">
        <ele>76.9</ele>
        <time>2020-08-06T08:54:12Z</time>
      </trkpt>
      <trkpt lat="41.1733470" lon="0.5702090">
        <ele>77.1</ele>
        <time>2020-08-06T08:54:13Z</time>
      </trkpt>
      <trkpt lat="41.1733370" lon="0.5701930">
        <ele>77.2</ele>
        <time>2020-08-06T08:54:14Z</time>
      </trkpt>
      <trkpt lat="41.1733210" lon="0.5701610">
        <ele>77.4</ele>
        <time>2020-08-06T08:54:16Z</time>
      </trkpt>
      <trkpt lat="41.1733110" lon="0.5701350">
        <ele>77.5</ele>
        <time>2020-08-06T08:54:17Z</time>
      </trkpt>
      <trkpt lat="41.1732970" lon="0.5701050">
        <ele>77.6</ele>
        <time>2020-08-06T08:54:19Z</time>
      </trkpt>
      <trkpt lat="41.1732810" lon="0.5700740">
        <ele>77.7</ele>
        <time>2020-08-06T08:54:20Z</time>
      </trkpt>
      <trkpt lat="41.1732680" lon="0.5700500">
        <ele>77.8</ele>
        <time>2020-08-06T08:54:21Z</time>
      </trkpt>
      <trkpt lat="41.1732470" lon="0.5700090">
        <ele>78.0</ele>
        <time>2020-08-06T08:54:23Z</time>
      </trkpt>
      <trkpt lat="41.1732320" lon="0.5699770">
        <ele>78.1</ele>
        <time>2020-08-06T08:54:24Z</time>
      </trkpt>
      <trkpt lat="41.1732120" lon="0.5699360">
        <ele>78.3</ele>
        <time>2020-08-06T08:54:25Z</time>
      </trkpt>
      <trkpt lat="41.1731930" lon="0.5699050">
        <ele>78.4</ele>
        <time>2020-08-06T08:54:26Z</time>
      </trkpt>
      <trkpt lat="41.1731020" lon="0.5697510">
        <ele>79.0</ele>
        <time>2020-08-06T08:54:28Z</time>
      </trkpt>
      <trkpt lat="41.1730360" lon="0.5695850">
        <ele>79.5</ele>
        <time>2020-08-06T08:54:29Z</time>
      </trkpt>
      <trkpt lat="41.1730080" lon="0.5694710">
        <ele>79.8</ele>
        <time>2020-08-06T08:54:31Z</time>
      </trkpt>
      <trkpt lat="41.1729990" lon="0.5693940">
        <ele>79.9</ele>
        <time>2020-08-06T08:54:33Z</time>
      </trkpt>
      <trkpt lat="41.1729890" lon="0.5693170">
        <ele>80.1</ele>
        <time>2020-08-06T08:54:35Z</time>
      </trkpt>
      <trkpt lat="41.1729870" lon="0.5692800">
        <ele>80.2</ele>
        <time>2020-08-06T08:54:36Z</time>
      </trkpt>
      <trkpt lat="41.1729850" lon="0.5692410">
        <ele>80.3</ele>
        <time>2020-08-06T08:54:37Z</time>
      </trkpt>
      <trkpt lat="41.1729830" lon="0.5691650">
        <ele>80.5</ele>
        <time>2020-08-06T08:54:39Z</time>
      </trkpt>
      <trkpt lat="41.1729820" lon="0.5691330">
        <ele>80.5</ele>
        <time>2020-08-06T08:54:40Z</time>
      </trkpt>
      <trkpt lat="41.1729800" lon="0.5690640">
        <ele>80.7</ele>
        <time>2020-08-06T08:54:42Z</time>
      </trkpt>
      <trkpt lat="41.1729790" lon="0.5690270">
        <ele>80.7</ele>
        <time>2020-08-06T08:54:43Z</time>
      </trkpt>
      <trkpt lat="41.1729780" lon="0.5689870">
        <ele>80.8</ele>
        <time>2020-08-06T08:54:44Z</time>
      </trkpt>
      <trkpt lat="41.1729750" lon="0.5689150">
        <ele>80.9</ele>
        <time>2020-08-06T08:54:46Z</time>
      </trkpt>
      <trkpt lat="41.1729720" lon="0.5688780">
        <ele>81.0</ele>
        <time>2020-08-06T08:54:47Z</time>
      </trkpt>
      <trkpt lat="41.1729630" lon="0.5688030">
        <ele>81.1</ele>
        <time>2020-08-06T08:54:49Z</time>
      </trkpt>
      <trkpt lat="41.1729580" lon="0.5687700">
        <ele>81.1</ele>
        <time>2020-08-06T08:54:50Z</time>
      </trkpt>
      <trkpt lat="41.1729510" lon="0.5686960">
        <ele>81.2</ele>
        <time>2020-08-06T08:54:52Z</time>
      </trkpt>
      <trkpt lat="41.1729460" lon="0.5686600">
        <ele>81.2</ele>
        <time>2020-08-06T08:54:53Z</time>
      </trkpt>
      <trkpt lat="41.1729410" lon="0.5686200">
        <ele>81.3</ele>
        <time>2020-08-06T08:54:54Z</time>
      </trkpt>
      <trkpt lat="41.1729270" lon="0.5685510">
        <ele>81.4</ele>
        <time>2020-08-06T08:54:56Z</time>
      </trkpt>
      <trkpt lat="41.1729040" lon="0.5684730">
        <ele>81.5</ele>
        <time>2020-08-06T08:54:58Z</time>
      </trkpt>
      <trkpt lat="41.1728910" lon="0.5684360">
        <ele>81.5</ele>
        <time>2020-08-06T08:54:59Z</time>
      </trkpt>
      <trkpt lat="41.1728660" lon="0.5683610">
        <ele>81.6</ele>
        <time>2020-08-06T08:55:01Z</time>
      </trkpt>
      <trkpt lat="41.1728440" lon="0.5682910">
        <ele>81.6</ele>
        <time>2020-08-06T08:55:03Z</time>
      </trkpt>
      <trkpt lat="41.1728300" lon="0.5682520">
        <ele>81.7</ele>
        <time>2020-08-06T08:55:04Z</time>
      </trkpt>
      <trkpt lat="41.1727950" lon="0.5681750">
        <ele>81.7</ele>
        <time>2020-08-06T08:55:06Z</time>
      </trkpt>
      <trkpt lat="41.1727700" lon="0.5681340">
        <ele>81.7</ele>
        <time>2020-08-06T08:55:07Z</time>
      </trkpt>
      <trkpt lat="41.1727150" lon="0.5680600">
        <ele>81.7</ele>
        <time>2020-08-06T08:55:09Z</time>
      </trkpt>
      <trkpt lat="41.1726640" lon="0.5679920">
        <ele>81.6</ele>
        <time>2020-08-06T08:55:11Z</time>
      </trkpt>
      <trkpt lat="41.1726400" lon="0.5679620">
        <ele>81.6</ele>
        <time>2020-08-06T08:55:12Z</time>
      </trkpt>
      <trkpt lat="41.1726100" lon="0.5679250">
        <ele>81.6</ele>
        <time>2020-08-06T08:55:13Z</time>
      </trkpt>
      <trkpt lat="41.1725480" lon="0.5678440">
        <ele>81.6</ele>
        <time>2020-08-06T08:55:15Z</time>
      </trkpt>
      <trkpt lat="41.1725140" lon="0.5677960">
        <ele>81.6</ele>
        <time>2020-08-06T08:55:16Z</time>
      </trkpt>
      <trkpt lat="41.1724380" lon="0.5676830">
        <ele>81.5</ele>
        <time>2020-08-06T08:55:18Z</time>
      </trkpt>
      <trkpt lat="41.1723850" lon="0.5675820">
        <ele>81.5</ele>
        <time>2020-08-06T08:55:20Z</time>
      </trkpt>
      <trkpt lat="41.1723530" lon="0.5675210">
        <ele>81.4</ele>
        <time>2020-08-06T08:55:21Z</time>
      </trkpt>
      <trkpt lat="41.1723060" lon="0.5674000">
        <ele>81.4</ele>
        <time>2020-08-06T08:55:23Z</time>
      </trkpt>
      <trkpt lat="41.1722890" lon="0.5673350">
        <ele>81.4</ele>
        <time>2020-08-06T08:55:24Z</time>
      </trkpt>
      <trkpt lat="41.1722740" lon="0.5672060">
        <ele>81.3</ele>
        <time>2020-08-06T08:55:26Z</time>
      </trkpt>
      <trkpt lat="41.1722860" lon="0.5671490">
        <ele>81.3</ele>
        <time>2020-08-06T08:55:27Z</time>
      </trkpt>
      <trkpt lat="41.1722970" lon="0.5670250">
        <ele>81.2</ele>
        <time>2020-08-06T08:55:29Z</time>
      </trkpt>
      <trkpt lat="41.1722980" lon="0.5669600">
        <ele>81.2</ele>
        <time>2020-08-06T08:55:30Z</time>
      </trkpt>
      <trkpt lat="41.1722970" lon="0.5668890">
        <ele>81.1</ele>
        <time>2020-08-06T08:55:31Z</time>
      </trkpt>
      <trkpt lat="41.1723140" lon="0.5667700">
        <ele>81.2</ele>
        <time>2020-08-06T08:55:33Z</time>
      </trkpt>
      <trkpt lat="41.1723150" lon="0.5667060">
        <ele>81.2</ele>
        <time>2020-08-06T08:55:34Z</time>
      </trkpt>
      <trkpt lat="41.1723140" lon="0.5666420">
        <ele>81.2</ele>
        <time>2020-08-06T08:55:35Z</time>
      </trkpt>
      <trkpt lat="41.1723090" lon="0.5665790">
        <ele>81.2</ele>
        <time>2020-08-06T08:55:36Z</time>
      </trkpt>
      <trkpt lat="41.1723020" lon="0.5665340">
        <ele>81.3</ele>
        <time>2020-08-06T08:55:37Z</time>
      </trkpt>
      <trkpt lat="41.1722870" lon="0.5664170">
        <ele>81.3</ele>
        <time>2020-08-06T08:55:39Z</time>
      </trkpt>
      <trkpt lat="41.1722600" lon="0.5663080">
        <ele>81.4</ele>
        <time>2020-08-06T08:55:41Z</time>
      </trkpt>
      <trkpt lat="41.1722250" lon="0.5662030">
        <ele>81.5</ele>
        <time>2020-08-06T08:55:43Z</time>
      </trkpt>
      <trkpt lat="41.1722040" lon="0.5661490">
        <ele>81.6</ele>
        <time>2020-08-06T08:55:44Z</time>
      </trkpt>
      <trkpt lat="41.1721800" lon="0.5660990">
        <ele>81.6</ele>
        <time>2020-08-06T08:55:45Z</time>
      </trkpt>
      <trkpt lat="41.1721310" lon="0.5660130">
        <ele>81.8</ele>
        <time>2020-08-06T08:55:47Z</time>
      </trkpt>
      <trkpt lat="41.1720680" lon="0.5659220">
        <ele>81.9</ele>
        <time>2020-08-06T08:55:49Z</time>
      </trkpt>
      <trkpt lat="41.1720370" lon="0.5658810">
        <ele>82.0</ele>
        <time>2020-08-06T08:55:50Z</time>
      </trkpt>
      <trkpt lat="41.1719970" lon="0.5658370">
        <ele>82.1</ele>
        <time>2020-08-06T08:55:51Z</time>
      </trkpt>
      <trkpt lat="41.1719550" lon="0.5657920">
        <ele>82.1</ele>
        <time>2020-08-06T08:55:52Z</time>
      </trkpt>
      <trkpt lat="41.1718750" lon="0.5657090">
        <ele>82.3</ele>
        <time>2020-08-06T08:55:54Z</time>
      </trkpt>
      <trkpt lat="41.1718400" lon="0.5656740">
        <ele>82.4</ele>
        <time>2020-08-06T08:55:55Z</time>
      </trkpt>
      <trkpt lat="41.1717590" lon="0.5655980">
        <ele>82.7</ele>
        <time>2020-08-06T08:55:57Z</time>
      </trkpt>
      <trkpt lat="41.1717020" lon="0.5655310">
        <ele>82.9</ele>
        <time>2020-08-06T08:55:59Z</time>
      </trkpt>
      <trkpt lat="41.1716760" lon="0.5654920">
        <ele>83.0</ele>
        <time>2020-08-06T08:56:00Z</time>
      </trkpt>
      <trkpt lat="41.1716550" lon="0.5654550">
        <ele>83.1</ele>
        <time>2020-08-06T08:56:01Z</time>
      </trkpt>
      <trkpt lat="41.1716180" lon="0.5653880">
        <ele>83.2</ele>
        <time>2020-08-06T08:56:03Z</time>
      </trkpt>
      <trkpt lat="41.1715820" lon="0.5653140">
        <ele>83.4</ele>
        <time>2020-08-06T08:56:05Z</time>
      </trkpt>
      <trkpt lat="41.1715440" lon="0.5651950">
        <ele>83.6</ele>
        <time>2020-08-06T08:56:08Z</time>
      </trkpt>
      <trkpt lat="41.1715350" lon="0.5651510">
        <ele>83.7</ele>
        <time>2020-08-06T08:56:09Z</time>
      </trkpt>
      <trkpt lat="41.1715250" lon="0.5651000">
        <ele>83.8</ele>
        <time>2020-08-06T08:56:10Z</time>
      </trkpt>
      <trkpt lat="41.1715180" lon="0.5650540">
        <ele>83.8</ele>
        <time>2020-08-06T08:56:11Z</time>
      </trkpt>
      <trkpt lat="41.1715080" lon="0.5649630">
        <ele>84.0</ele>
        <time>2020-08-06T08:56:13Z</time>
      </trkpt>
      <trkpt lat="41.1715040" lon="0.5649110">
        <ele>84.0</ele>
        <time>2020-08-06T08:56:14Z</time>
      </trkpt>
      <trkpt lat="41.1715020" lon="0.5648650">
        <ele>84.1</ele>
        <time>2020-08-06T08:56:15Z</time>
      </trkpt>
      <trkpt lat="41.1715060" lon="0.5647670">
        <ele>84.2</ele>
        <time>2020-08-06T08:56:17Z</time>
      </trkpt>
      <trkpt lat="41.1715110" lon="0.5647240">
        <ele>84.3</ele>
        <time>2020-08-06T08:56:18Z</time>
      </trkpt>
      <trkpt lat="41.1715180" lon="0.5646790">
        <ele>84.4</ele>
        <time>2020-08-06T08:56:19Z</time>
      </trkpt>
      <trkpt lat="41.1715360" lon="0.5645780">
        <ele>84.5</ele>
        <time>2020-08-06T08:56:21Z</time>
      </trkpt>
      <trkpt lat="41.1715470" lon="0.5645290">
        <ele>84.6</ele>
        <time>2020-08-06T08:56:22Z</time>
      </trkpt>
      <trkpt lat="41.1715740" lon="0.5644330">
        <ele>84.7</ele>
        <time>2020-08-06T08:56:24Z</time>
      </trkpt>
      <trkpt lat="41.1715980" lon="0.5643430">
        <ele>84.8</ele>
        <time>2020-08-06T08:56:26Z</time>
      </trkpt>
      <trkpt lat="41.1716100" lon="0.5642940">
        <ele>84.9</ele>
        <time>2020-08-06T08:56:27Z</time>
      </trkpt>
      <trkpt lat="41.1716390" lon="0.5642020">
        <ele>84.9</ele>
        <time>2020-08-06T08:56:29Z</time>
      </trkpt>
      <trkpt lat="41.1716530" lon="0.5641500">
        <ele>85.0</ele>
        <time>2020-08-06T08:56:30Z</time>
      </trkpt>
      <trkpt lat="41.1716690" lon="0.5640930">
        <ele>85.0</ele>
        <time>2020-08-06T08:56:31Z</time>
      </trkpt>
      <trkpt lat="41.1716800" lon="0.5640500">
        <ele>85.0</ele>
        <time>2020-08-06T08:56:32Z</time>
      </trkpt>
      <trkpt lat="41.1716850" lon="0.5640050">
        <ele>85.0</ele>
        <time>2020-08-06T08:56:33Z</time>
      </trkpt>
      <trkpt lat="41.1716810" lon="0.5638990">
        <ele>85.0</ele>
        <time>2020-08-06T08:56:35Z</time>
      </trkpt>
      <trkpt lat="41.1716720" lon="0.5637980">
        <ele>85.0</ele>
        <time>2020-08-06T08:56:37Z</time>
      </trkpt>
      <trkpt lat="41.1716660" lon="0.5637460">
        <ele>85.0</ele>
        <time>2020-08-06T08:56:38Z</time>
      </trkpt>
      <trkpt lat="41.1716540" lon="0.5636900">
        <ele>85.0</ele>
        <time>2020-08-06T08:56:39Z</time>
      </trkpt>
      <trkpt lat="41.1716390" lon="0.5636360">
        <ele>85.0</ele>
        <time>2020-08-06T08:56:40Z</time>
      </trkpt>
      <trkpt lat="41.1716080" lon="0.5635250">
        <ele>84.9</ele>
        <time>2020-08-06T08:56:42Z</time>
      </trkpt>
      <trkpt lat="41.1715910" lon="0.5634720">
        <ele>84.9</ele>
        <time>2020-08-06T08:56:43Z</time>
      </trkpt>
      <trkpt lat="41.1715720" lon="0.5634220">
        <ele>84.9</ele>
        <time>2020-08-06T08:56:44Z</time>
      </trkpt>
      <trkpt lat="41.1715510" lon="0.5633730">
        <ele>84.8</ele>
        <time>2020-08-06T08:56:45Z</time>
      </trkpt>
      <trkpt lat="41.1715040" lon="0.5632880">
        <ele>84.8</ele>
        <time>2020-08-06T08:56:47Z</time>
      </trkpt>
      <trkpt lat="41.1714380" lon="0.5632070">
        <ele>84.7</ele>
        <time>2020-08-06T08:56:49Z</time>
      </trkpt>
      <trkpt lat="41.1714020" lon="0.5631730">
        <ele>84.7</ele>
        <time>2020-08-06T08:56:50Z</time>
      </trkpt>
      <trkpt lat="41.1713070" lon="0.5630900">
        <ele>84.5</ele>
        <time>2020-08-06T08:56:52Z</time>
      </trkpt>
      <trkpt lat="41.1712000" lon="0.5630140">
        <ele>84.4</ele>
        <time>2020-08-06T08:56:54Z</time>
      </trkpt>
      <trkpt lat="41.1711530" lon="0.5629810">
        <ele>84.4</ele>
        <time>2020-08-06T08:56:55Z</time>
      </trkpt>
      <trkpt lat="41.1710360" lon="0.5629030">
        <ele>84.3</ele>
        <time>2020-08-06T08:56:57Z</time>
      </trkpt>
      <trkpt lat="41.1709810" lon="0.5628720">
        <ele>84.2</ele>
        <time>2020-08-06T08:56:58Z</time>
      </trkpt>
      <trkpt lat="41.1709260" lon="0.5628440">
        <ele>84.2</ele>
        <time>2020-08-06T08:56:59Z</time>
      </trkpt>
      <trkpt lat="41.1708420" lon="0.5628080">
        <ele>84.1</ele>
        <time>2020-08-06T08:57:01Z</time>
      </trkpt>
      <trkpt lat="41.1707990" lon="0.5628020">
        <ele>84.0</ele>
        <time>2020-08-06T08:57:02Z</time>
      </trkpt>
      <trkpt lat="41.1707020" lon="0.5627730">
        <ele>83.9</ele>
        <time>2020-08-06T08:57:04Z</time>
      </trkpt>
      <trkpt lat="41.1706560" lon="0.5627590">
        <ele>83.9</ele>
        <time>2020-08-06T08:57:05Z</time>
      </trkpt>
      <trkpt lat="41.1705600" lon="0.5627300">
        <ele>83.8</ele>
        <time>2020-08-06T08:57:07Z</time>
      </trkpt>
      <trkpt lat="41.1704680" lon="0.5627050">
        <ele>83.9</ele>
        <time>2020-08-06T08:57:09Z</time>
      </trkpt>
      <trkpt lat="41.1704150" lon="0.5626900">
        <ele>83.9</ele>
        <time>2020-08-06T08:57:10Z</time>
      </trkpt>
      <trkpt lat="41.1703310" lon="0.5626730">
        <ele>83.9</ele>
        <time>2020-08-06T08:57:12Z</time>
      </trkpt>
      <trkpt lat="41.1702480" lon="0.5626280">
        <ele>84.0</ele>
        <time>2020-08-06T08:57:14Z</time>
      </trkpt>
      <trkpt lat="41.1702090" lon="0.5626030">
        <ele>84.0</ele>
        <time>2020-08-06T08:57:15Z</time>
      </trkpt>
      <trkpt lat="41.1701720" lon="0.5625860">
        <ele>84.0</ele>
        <time>2020-08-06T08:57:16Z</time>
      </trkpt>
      <trkpt lat="41.1701340" lon="0.5625660">
        <ele>84.0</ele>
        <time>2020-08-06T08:57:17Z</time>
      </trkpt>
      <trkpt lat="41.1700660" lon="0.5625250">
        <ele>84.0</ele>
        <time>2020-08-06T08:57:19Z</time>
      </trkpt>
      <trkpt lat="41.1699910" lon="0.5624690">
        <ele>84.1</ele>
        <time>2020-08-06T08:57:21Z</time>
      </trkpt>
      <trkpt lat="41.1699510" lon="0.5624330">
        <ele>84.1</ele>
        <time>2020-08-06T08:57:22Z</time>
      </trkpt>
      <trkpt lat="41.1699220" lon="0.5624120">
        <ele>84.2</ele>
        <time>2020-08-06T08:57:23Z</time>
      </trkpt>
      <trkpt lat="41.1698850" lon="0.5624250">
        <ele>84.2</ele>
        <time>2020-08-06T08:57:25Z</time>
      </trkpt>
      <trkpt lat="41.1698510" lon="0.5624300">
        <ele>84.3</ele>
        <time>2020-08-06T08:57:26Z</time>
      </trkpt>
      <trkpt lat="41.1698260" lon="0.5624100">
        <ele>84.3</ele>
        <time>2020-08-06T08:57:28Z</time>
      </trkpt>
      <trkpt lat="41.1698120" lon="0.5623830">
        <ele>84.4</ele>
        <time>2020-08-06T08:57:29Z</time>
      </trkpt>
      <trkpt lat="41.1698000" lon="0.5623390">
        <ele>84.4</ele>
        <time>2020-08-06T08:57:31Z</time>
      </trkpt>
      <trkpt lat="41.1697910" lon="0.5623050">
        <ele>84.4</ele>
        <time>2020-08-06T08:57:32Z</time>
      </trkpt>
      <trkpt lat="41.1697260" lon="0.5621790">
        <ele>84.7</ele>
        <time>2020-08-06T08:57:33Z</time>
      </trkpt>
      <trkpt lat="41.1696780" lon="0.5620980">
        <ele>84.9</ele>
        <time>2020-08-06T08:57:34Z</time>
      </trkpt>
      <trkpt lat="41.1696380" lon="0.5620290">
        <ele>85.1</ele>
        <time>2020-08-06T08:57:35Z</time>
      </trkpt>
      <trkpt lat="41.1695890" lon="0.5619290">
        <ele>85.4</ele>
        <time>2020-08-06T08:57:37Z</time>
      </trkpt>
      <trkpt lat="41.1695730" lon="0.5618860">
        <ele>85.6</ele>
        <time>2020-08-06T08:57:38Z</time>
      </trkpt>
      <trkpt lat="41.1695580" lon="0.5618450">
        <ele>85.7</ele>
        <time>2020-08-06T08:57:39Z</time>
      </trkpt>
      <trkpt lat="41.1695420" lon="0.5618030">
        <ele>85.8</ele>
        <time>2020-08-06T08:57:40Z</time>
      </trkpt>
      <trkpt lat="41.1695290" lon="0.5617690">
        <ele>85.9</ele>
        <time>2020-08-06T08:57:41Z</time>
      </trkpt>
      <trkpt lat="41.1695150" lon="0.5617350">
        <ele>86.0</ele>
        <time>2020-08-06T08:57:42Z</time>
      </trkpt>
      <trkpt lat="41.1695050" lon="0.5617030">
        <ele>86.1</ele>
        <time>2020-08-06T08:57:43Z</time>
      </trkpt>
      <trkpt lat="41.1694970" lon="0.5616470">
        <ele>86.2</ele>
        <time>2020-08-06T08:57:45Z</time>
      </trkpt>
      <trkpt lat="41.1694910" lon="0.5615840">
        <ele>86.4</ele>
        <time>2020-08-06T08:57:47Z</time>
      </trkpt>
      <trkpt lat="41.1694770" lon="0.5615160">
        <ele>86.7</ele>
        <time>2020-08-06T08:57:49Z</time>
      </trkpt>
      <trkpt lat="41.1694700" lon="0.5614830">
        <ele>86.8</ele>
        <time>2020-08-06T08:57:50Z</time>
      </trkpt>
      <trkpt lat="41.1694590" lon="0.5614220">
        <ele>87.0</ele>
        <time>2020-08-06T08:57:52Z</time>
      </trkpt>
      <trkpt lat="41.1694520" lon="0.5613770">
        <ele>87.2</ele>
        <time>2020-08-06T08:57:53Z</time>
      </trkpt>
      <trkpt lat="41.1694500" lon="0.5613640">
        <ele>87.2</ele>
        <time>2020-08-06T08:57:54Z</time>
      </trkpt>
      <trkpt lat="41.1694430" lon="0.5613310">
        <ele>87.3</ele>
        <time>2020-08-06T08:57:55Z</time>
      </trkpt>
      <trkpt lat="41.1694280" lon="0.5612640">
        <ele>87.6</ele>
        <time>2020-08-06T08:57:57Z</time>
      </trkpt>
      <trkpt lat="41.1694100" lon="0.5612040">
        <ele>87.8</ele>
        <time>2020-08-06T08:57:59Z</time>
      </trkpt>
      <trkpt lat="41.1693970" lon="0.5611610">
        <ele>88.0</ele>
        <time>2020-08-06T08:58:00Z</time>
      </trkpt>
      <trkpt lat="41.1693930" lon="0.5611460">
        <ele>88.0</ele>
        <time>2020-08-06T08:58:01Z</time>
      </trkpt>
      <trkpt lat="41.1693830" lon="0.5610850">
        <ele>88.2</ele>
        <time>2020-08-06T08:58:03Z</time>
      </trkpt>
      <trkpt lat="41.1693760" lon="0.5610410">
        <ele>88.3</ele>
        <time>2020-08-06T08:58:04Z</time>
      </trkpt>
      <trkpt lat="41.1693740" lon="0.5610280">
        <ele>88.4</ele>
        <time>2020-08-06T08:58:05Z</time>
      </trkpt>
      <trkpt lat="41.1693590" lon="0.5609620">
        <ele>88.6</ele>
        <time>2020-08-06T08:58:07Z</time>
      </trkpt>
      <trkpt lat="41.1693510" lon="0.5609290">
        <ele>88.7</ele>
        <time>2020-08-06T08:58:08Z</time>
      </trkpt>
      <trkpt lat="41.1693340" lon="0.5608630">
        <ele>88.9</ele>
        <time>2020-08-06T08:58:10Z</time>
      </trkpt>
      <trkpt lat="41.1693240" lon="0.5608270">
        <ele>89.0</ele>
        <time>2020-08-06T08:58:11Z</time>
      </trkpt>
      <trkpt lat="41.1693150" lon="0.5607930">
        <ele>89.1</ele>
        <time>2020-08-06T08:58:12Z</time>
      </trkpt>
      <trkpt lat="41.1692990" lon="0.5607260">
        <ele>89.3</ele>
        <time>2020-08-06T08:58:14Z</time>
      </trkpt>
      <trkpt lat="41.1692820" lon="0.5606590">
        <ele>89.6</ele>
        <time>2020-08-06T08:58:16Z</time>
      </trkpt>
      <trkpt lat="41.1692740" lon="0.5606230">
        <ele>89.7</ele>
        <time>2020-08-06T08:58:17Z</time>
      </trkpt>
      <trkpt lat="41.1692620" lon="0.5605550">
        <ele>89.8</ele>
        <time>2020-08-06T08:58:19Z</time>
      </trkpt>
      <trkpt lat="41.1692490" lon="0.5604760">
        <ele>90.1</ele>
        <time>2020-08-06T08:58:21Z</time>
      </trkpt>
      <trkpt lat="41.1692410" lon="0.5604390">
        <ele>90.2</ele>
        <time>2020-08-06T08:58:22Z</time>
      </trkpt>
      <trkpt lat="41.1692320" lon="0.5604000">
        <ele>90.3</ele>
        <time>2020-08-06T08:58:23Z</time>
      </trkpt>
      <trkpt lat="41.1692230" lon="0.5603650">
        <ele>90.4</ele>
        <time>2020-08-06T08:58:24Z</time>
      </trkpt>
      <trkpt lat="41.1692020" lon="0.5602970">
        <ele>90.6</ele>
        <time>2020-08-06T08:58:26Z</time>
      </trkpt>
      <trkpt lat="41.1691870" lon="0.5602570">
        <ele>90.7</ele>
        <time>2020-08-06T08:58:27Z</time>
      </trkpt>
      <trkpt lat="41.1691640" lon="0.5601790">
        <ele>90.9</ele>
        <time>2020-08-06T08:58:29Z</time>
      </trkpt>
      <trkpt lat="41.1691410" lon="0.5600980">
        <ele>91.1</ele>
        <time>2020-08-06T08:58:31Z</time>
      </trkpt>
      <trkpt lat="41.1691320" lon="0.5600600">
        <ele>91.2</ele>
        <time>2020-08-06T08:58:32Z</time>
      </trkpt>
      <trkpt lat="41.1691230" lon="0.5599910">
        <ele>91.3</ele>
        <time>2020-08-06T08:58:34Z</time>
      </trkpt>
      <trkpt lat="41.1691190" lon="0.5599550">
        <ele>91.4</ele>
        <time>2020-08-06T08:58:35Z</time>
      </trkpt>
      <trkpt lat="41.1691100" lon="0.5598820">
        <ele>91.5</ele>
        <time>2020-08-06T08:58:37Z</time>
      </trkpt>
      <trkpt lat="41.1691030" lon="0.5598430">
        <ele>91.6</ele>
        <time>2020-08-06T08:58:38Z</time>
      </trkpt>
      <trkpt lat="41.1690920" lon="0.5597700">
        <ele>91.8</ele>
        <time>2020-08-06T08:58:40Z</time>
      </trkpt>
      <trkpt lat="41.1690870" lon="0.5597350">
        <ele>91.8</ele>
        <time>2020-08-06T08:58:41Z</time>
      </trkpt>
      <trkpt lat="41.1690720" lon="0.5596700">
        <ele>92.0</ele>
        <time>2020-08-06T08:58:43Z</time>
      </trkpt>
      <trkpt lat="41.1690640" lon="0.5596350">
        <ele>92.1</ele>
        <time>2020-08-06T08:58:44Z</time>
      </trkpt>
      <trkpt lat="41.1690420" lon="0.5595550">
        <ele>92.3</ele>
        <time>2020-08-06T08:58:46Z</time>
      </trkpt>
      <trkpt lat="41.1690320" lon="0.5595110">
        <ele>92.4</ele>
        <time>2020-08-06T08:58:47Z</time>
      </trkpt>
      <trkpt lat="41.1690230" lon="0.5594710">
        <ele>92.5</ele>
        <time>2020-08-06T08:58:48Z</time>
      </trkpt>
      <trkpt lat="41.1690060" lon="0.5593900">
        <ele>92.7</ele>
        <time>2020-08-06T08:58:50Z</time>
      </trkpt>
      <trkpt lat="41.1689980" lon="0.5593490">
        <ele>92.8</ele>
        <time>2020-08-06T08:58:51Z</time>
      </trkpt>
      <trkpt lat="41.1689810" lon="0.5592630">
        <ele>93.1</ele>
        <time>2020-08-06T08:58:53Z</time>
      </trkpt>
      <trkpt lat="41.1689590" lon="0.5591860">
        <ele>93.4</ele>
        <time>2020-08-06T08:58:55Z</time>
      </trkpt>
      <trkpt lat="41.1689460" lon="0.5591450">
        <ele>93.5</ele>
        <time>2020-08-06T08:58:56Z</time>
      </trkpt>
      <trkpt lat="41.1689150" lon="0.5590620">
        <ele>93.8</ele>
        <time>2020-08-06T08:58:58Z</time>
      </trkpt>
      <trkpt lat="41.1689000" lon="0.5590230">
        <ele>94.0</ele>
        <time>2020-08-06T08:58:59Z</time>
      </trkpt>
      <trkpt lat="41.1688870" lon="0.5589750">
        <ele>94.1</ele>
        <time>2020-08-06T08:59:00Z</time>
      </trkpt>
      <trkpt lat="41.1688830" lon="0.5589590">
        <ele>94.2</ele>
        <time>2020-08-06T08:59:01Z</time>
      </trkpt>
      <trkpt lat="41.1688760" lon="0.5589280">
        <ele>94.2</ele>
        <time>2020-08-06T08:59:02Z</time>
      </trkpt>
      <trkpt lat="41.1688540" lon="0.5588650">
        <ele>94.4</ele>
        <time>2020-08-06T08:59:04Z</time>
      </trkpt>
      <trkpt lat="41.1688420" lon="0.5588380">
        <ele>94.5</ele>
        <time>2020-08-06T08:59:05Z</time>
      </trkpt>
      <trkpt lat="41.1688070" lon="0.5587770">
        <ele>94.7</ele>
        <time>2020-08-06T08:59:07Z</time>
      </trkpt>
      <trkpt lat="41.1687890" lon="0.5587510">
        <ele>94.8</ele>
        <time>2020-08-06T08:59:08Z</time>
      </trkpt>
      <trkpt lat="41.1687520" lon="0.5587040">
        <ele>95.0</ele>
        <time>2020-08-06T08:59:10Z</time>
      </trkpt>
      <trkpt lat="41.1687080" lon="0.5586580">
        <ele>95.1</ele>
        <time>2020-08-06T08:59:12Z</time>
      </trkpt>
      <trkpt lat="41.1686820" lon="0.5586370">
        <ele>95.2</ele>
        <time>2020-08-06T08:59:13Z</time>
      </trkpt>
      <trkpt lat="41.1686570" lon="0.5586120">
        <ele>95.3</ele>
        <time>2020-08-06T08:59:14Z</time>
      </trkpt>
      <trkpt lat="41.1686340" lon="0.5585920">
        <ele>95.5</ele>
        <time>2020-08-06T08:59:15Z</time>
      </trkpt>
      <trkpt lat="41.1685940" lon="0.5585620">
        <ele>95.6</ele>
        <time>2020-08-06T08:59:17Z</time>
      </trkpt>
      <trkpt lat="41.1685710" lon="0.5585470">
        <ele>95.7</ele>
        <time>2020-08-06T08:59:18Z</time>
      </trkpt>
      <trkpt lat="41.1685290" lon="0.5585210">
        <ele>95.9</ele>
        <time>2020-08-06T08:59:20Z</time>
      </trkpt>
      <trkpt lat="41.1685040" lon="0.5585040">
        <ele>96.1</ele>
        <time>2020-08-06T08:59:21Z</time>
      </trkpt>
      <trkpt lat="41.1684580" lon="0.5584740">
        <ele>96.3</ele>
        <time>2020-08-06T08:59:23Z</time>
      </trkpt>
      <trkpt lat="41.1684320" lon="0.5584610">
        <ele>96.5</ele>
        <time>2020-08-06T08:59:24Z</time>
      </trkpt>
      <trkpt lat="41.1683900" lon="0.5584360">
        <ele>96.7</ele>
        <time>2020-08-06T08:59:26Z</time>
      </trkpt>
      <trkpt lat="41.1683480" lon="0.5584120">
        <ele>97.0</ele>
        <time>2020-08-06T08:59:28Z</time>
      </trkpt>
      <trkpt lat="41.1683260" lon="0.5583980">
        <ele>97.1</ele>
        <time>2020-08-06T08:59:29Z</time>
      </trkpt>
      <trkpt lat="41.1682890" lon="0.5583830">
        <ele>97.4</ele>
        <time>2020-08-06T08:59:31Z</time>
      </trkpt>
      <trkpt lat="41.1682580" lon="0.5583870">
        <ele>97.5</ele>
        <time>2020-08-06T08:59:33Z</time>
      </trkpt>
      <trkpt lat="41.1682520" lon="0.5583880">
        <ele>97.6</ele>
        <time>2020-08-06T08:59:34Z</time>
      </trkpt>
      <trkpt lat="41.1682370" lon="0.5583910">
        <ele>97.7</ele>
        <time>2020-08-06T08:59:35Z</time>
      </trkpt>
      <trkpt lat="41.1682280" lon="0.5583950">
        <ele>97.7</ele>
        <time>2020-08-06T08:59:36Z</time>
      </trkpt>
      <trkpt lat="41.1682170" lon="0.5584010">
        <ele>97.8</ele>
        <time>2020-08-06T08:59:37Z</time>
      </trkpt>
      <trkpt lat="41.1681980" lon="0.5584090">
        <ele>97.9</ele>
        <time>2020-08-06T08:59:39Z</time>
      </trkpt>
      <trkpt lat="41.1681850" lon="0.5584130">
        <ele>98.0</ele>
        <time>2020-08-06T08:59:40Z</time>
      </trkpt>
      <trkpt lat="41.1681730" lon="0.5584190">
        <ele>98.1</ele>
        <time>2020-08-06T08:59:41Z</time>
      </trkpt>
      <trkpt lat="41.1681590" lon="0.5584220">
        <ele>98.2</ele>
        <time>2020-08-06T08:59:42Z</time>
      </trkpt>
      <trkpt lat="41.1681250" lon="0.5584220">
        <ele>98.4</ele>
        <time>2020-08-06T08:59:44Z</time>
      </trkpt>
      <trkpt lat="41.1681070" lon="0.5584200">
        <ele>98.5</ele>
        <time>2020-08-06T08:59:45Z</time>
      </trkpt>
      <trkpt lat="41.1680690" lon="0.5584150">
        <ele>98.8</ele>
        <time>2020-08-06T08:59:47Z</time>
      </trkpt>
      <trkpt lat="41.1680490" lon="0.5584150">
        <ele>98.9</ele>
        <time>2020-08-06T08:59:48Z</time>
      </trkpt>
      <trkpt lat="41.1680100" lon="0.5584150">
        <ele>99.1</ele>
        <time>2020-08-06T08:59:50Z</time>
      </trkpt>
      <trkpt lat="41.1679930" lon="0.5584160">
        <ele>99.2</ele>
        <time>2020-08-06T08:59:51Z</time>
      </trkpt>
      <trkpt lat="41.1679770" lon="0.5584160">
        <ele>99.3</ele>
        <time>2020-08-06T08:59:52Z</time>
      </trkpt>
      <trkpt lat="41.1679420" lon="0.5584270">
        <ele>99.6</ele>
        <time>2020-08-06T08:59:54Z</time>
      </trkpt>
      <trkpt lat="41.1678970" lon="0.5584440">
        <ele>99.8</ele>
        <time>2020-08-06T08:59:56Z</time>
      </trkpt>
      <trkpt lat="41.1678860" lon="0.5584490">
        <ele>99.9</ele>
        <time>2020-08-06T08:59:57Z</time>
      </trkpt>
      <trkpt lat="41.1678740" lon="0.5584540">
        <ele>100.0</ele>
        <time>2020-08-06T08:59:58Z</time>
      </trkpt>
      <trkpt lat="41.1678550" lon="0.5584620">
        <ele>100.1</ele>
        <time>2020-08-06T08:59:59Z</time>
      </trkpt>
      <trkpt lat="41.1678210" lon="0.5584750">
        <ele>100.3</ele>
        <time>2020-08-06T09:00:01Z</time>
      </trkpt>
      <trkpt lat="41.1678060" lon="0.5584790">
        <ele>100.4</ele>
        <time>2020-08-06T09:00:02Z</time>
      </trkpt>
      <trkpt lat="41.1677670" lon="0.5584890">
        <ele>100.6</ele>
        <time>2020-08-06T09:00:04Z</time>
      </trkpt>
      <trkpt lat="41.1677520" lon="0.5584930">
        <ele>100.7</ele>
        <time>2020-08-06T09:00:05Z</time>
      </trkpt>
      <trkpt lat="41.1677260" lon="0.5585100">
        <ele>100.9</ele>
        <time>2020-08-06T09:00:07Z</time>
      </trkpt>
      <trkpt lat="41.1677120" lon="0.5585250">
        <ele>101.0</ele>
        <time>2020-08-06T09:00:08Z</time>
      </trkpt>
      <trkpt lat="41.1676940" lon="0.5585510">
        <ele>101.2</ele>
        <time>2020-08-06T09:00:10Z</time>
      </trkpt>
      <trkpt lat="41.1676710" lon="0.5585800">
        <ele>101.4</ele>
        <time>2020-08-06T09:00:12Z</time>
      </trkpt>
      <trkpt lat="41.1676590" lon="0.5585950">
        <ele>101.5</ele>
        <time>2020-08-06T09:00:13Z</time>
      </trkpt>
      <trkpt lat="41.1676390" lon="0.5586250">
        <ele>101.7</ele>
        <time>2020-08-06T09:00:15Z</time>
      </trkpt>
      <trkpt lat="41.1676130" lon="0.5586540">
        <ele>101.9</ele>
        <time>2020-08-06T09:00:17Z</time>
      </trkpt>
      <trkpt lat="41.1675900" lon="0.5586720">
        <ele>102.1</ele>
        <time>2020-08-06T09:00:19Z</time>
      </trkpt>
      <trkpt lat="41.1675780" lon="0.5586810">
        <ele>102.2</ele>
        <time>2020-08-06T09:00:20Z</time>
      </trkpt>
      <trkpt lat="41.1675570" lon="0.5587070">
        <ele>102.4</ele>
        <time>2020-08-06T09:00:22Z</time>
      </trkpt>
      <trkpt lat="41.1675480" lon="0.5587240">
        <ele>102.5</ele>
        <time>2020-08-06T09:00:23Z</time>
      </trkpt>
      <trkpt lat="41.1675380" lon="0.5587400">
        <ele>102.6</ele>
        <time>2020-08-06T09:00:24Z</time>
      </trkpt>
      <trkpt lat="41.1675270" lon="0.5587550">
        <ele>102.7</ele>
        <time>2020-08-06T09:00:25Z</time>
      </trkpt>
      <trkpt lat="41.1675080" lon="0.5587840">
        <ele>102.8</ele>
        <time>2020-08-06T09:00:27Z</time>
      </trkpt>
      <trkpt lat="41.1674970" lon="0.5588010">
        <ele>102.9</ele>
        <time>2020-08-06T09:00:28Z</time>
      </trkpt>
      <trkpt lat="41.1674870" lon="0.5588160">
        <ele>103.0</ele>
        <time>2020-08-06T09:00:29Z</time>
      </trkpt>
      <trkpt lat="41.1674680" lon="0.5588440">
        <ele>103.2</ele>
        <time>2020-08-06T09:00:31Z</time>
      </trkpt>
      <trkpt lat="41.1674590" lon="0.5588600">
        <ele>103.2</ele>
        <time>2020-08-06T09:00:32Z</time>
      </trkpt>
      <trkpt lat="41.1674430" lon="0.5588940">
        <ele>103.4</ele>
        <time>2020-08-06T09:00:34Z</time>
      </trkpt>
      <trkpt lat="41.1674250" lon="0.5589300">
        <ele>103.6</ele>
        <time>2020-08-06T09:00:36Z</time>
      </trkpt>
      <trkpt lat="41.1674160" lon="0.5589490">
        <ele>103.7</ele>
        <time>2020-08-06T09:00:37Z</time>
      </trkpt>
      <trkpt lat="41.1673970" lon="0.5589830">
        <ele>103.8</ele>
        <time>2020-08-06T09:00:39Z</time>
      </trkpt>
      <trkpt lat="41.1673860" lon="0.5590050">
        <ele>103.9</ele>
        <time>2020-08-06T09:00:40Z</time>
      </trkpt>
      <trkpt lat="41.1673770" lon="0.5590240">
        <ele>104.0</ele>
        <time>2020-08-06T09:00:41Z</time>
      </trkpt>
      <trkpt lat="41.1673670" lon="0.5590410">
        <ele>104.1</ele>
        <time>2020-08-06T09:00:42Z</time>
      </trkpt>
      <trkpt lat="41.1673460" lon="0.5590770">
        <ele>104.3</ele>
        <time>2020-08-06T09:00:44Z</time>
      </trkpt>
      <trkpt lat="41.1673250" lon="0.5591140">
        <ele>104.5</ele>
        <time>2020-08-06T09:00:46Z</time>
      </trkpt>
      <trkpt lat="41.1673160" lon="0.5591300">
        <ele>104.6</ele>
        <time>2020-08-06T09:00:47Z</time>
      </trkpt>
      <trkpt lat="41.1673060" lon="0.5591470">
        <ele>104.6</ele>
        <time>2020-08-06T09:00:48Z</time>
      </trkpt>
      <trkpt lat="41.1672870" lon="0.5591780">
        <ele>104.8</ele>
        <time>2020-08-06T09:00:50Z</time>
      </trkpt>
      <trkpt lat="41.1672780" lon="0.5591980">
        <ele>104.9</ele>
        <time>2020-08-06T09:00:51Z</time>
      </trkpt>
      <trkpt lat="41.1672710" lon="0.5592140">
        <ele>105.0</ele>
        <time>2020-08-06T09:00:52Z</time>
      </trkpt>
      <trkpt lat="41.1672640" lon="0.5592350">
        <ele>105.1</ele>
        <time>2020-08-06T09:00:53Z</time>
      </trkpt>
      <trkpt lat="41.1672510" lon="0.5592750">
        <ele>105.3</ele>
        <time>2020-08-06T09:00:55Z</time>
      </trkpt>
      <trkpt lat="41.1672440" lon="0.5592940">
        <ele>105.4</ele>
        <time>2020-08-06T09:00:56Z</time>
      </trkpt>
      <trkpt lat="41.1672290" lon="0.5593330">
        <ele>105.6</ele>
        <time>2020-08-06T09:00:58Z</time>
      </trkpt>
      <trkpt lat="41.1672210" lon="0.5593470">
        <ele>105.6</ele>
        <time>2020-08-06T09:00:59Z</time>
      </trkpt>
      <trkpt lat="41.1672080" lon="0.5593800">
        <ele>105.8</ele>
        <time>2020-08-06T09:01:01Z</time>
      </trkpt>
      <trkpt lat="41.1672020" lon="0.5593940">
        <ele>105.9</ele>
        <time>2020-08-06T09:01:02Z</time>
      </trkpt>
      <trkpt lat="41.1671900" lon="0.5594210">
        <ele>106.0</ele>
        <time>2020-08-06T09:01:04Z</time>
      </trkpt>
      <trkpt lat="41.1671830" lon="0.5594370">
        <ele>106.1</ele>
        <time>2020-08-06T09:01:05Z</time>
      </trkpt>
      <trkpt lat="41.1671700" lon="0.5594630">
        <ele>106.2</ele>
        <time>2020-08-06T09:01:07Z</time>
      </trkpt>
      <trkpt lat="41.1671630" lon="0.5594780">
        <ele>106.3</ele>
        <time>2020-08-06T09:01:08Z</time>
      </trkpt>
      <trkpt lat="41.1671560" lon="0.5594930">
        <ele>106.4</ele>
        <time>2020-08-06T09:01:09Z</time>
      </trkpt>
      <trkpt lat="41.1671410" lon="0.5595200">
        <ele>106.5</ele>
        <time>2020-08-06T09:01:11Z</time>
      </trkpt>
      <trkpt lat="41.1671330" lon="0.5595340">
        <ele>106.6</ele>
        <time>2020-08-06T09:01:12Z</time>
      </trkpt>
      <trkpt lat="41.1671240" lon="0.5595490">
        <ele>106.7</ele>
        <time>2020-08-06T09:01:13Z</time>
      </trkpt>
      <trkpt lat="41.1671140" lon="0.5595620">
        <ele>106.7</ele>
        <time>2020-08-06T09:01:14Z</time>
      </trkpt>
      <trkpt lat="41.1670960" lon="0.5595890">
        <ele>106.9</ele>
        <time>2020-08-06T09:01:16Z</time>
      </trkpt>
      <trkpt lat="41.1670810" lon="0.5596100">
        <ele>107.0</ele>
        <time>2020-08-06T09:01:17Z</time>
      </trkpt>
      <trkpt lat="41.1670740" lon="0.5596190">
        <ele>107.0</ele>
        <time>2020-08-06T09:01:18Z</time>
      </trkpt>
      <trkpt lat="41.1670680" lon="0.5596280">
        <ele>107.1</ele>
        <time>2020-08-06T09:01:19Z</time>
      </trkpt>
      <trkpt lat="41.1670470" lon="0.5596630">
        <ele>107.2</ele>
        <time>2020-08-06T09:01:21Z</time>
      </trkpt>
      <trkpt lat="41.1670420" lon="0.5596710">
        <ele>107.3</ele>
        <time>2020-08-06T09:01:22Z</time>
      </trkpt>
      <trkpt lat="41.1670220" lon="0.5597010">
        <ele>107.4</ele>
        <time>2020-08-06T09:01:24Z</time>
      </trkpt>
      <trkpt lat="41.1670130" lon="0.5597150">
        <ele>107.5</ele>
        <time>2020-08-06T09:01:25Z</time>
      </trkpt>
      <trkpt lat="41.1670020" lon="0.5597280">
        <ele>107.6</ele>
        <time>2020-08-06T09:01:26Z</time>
      </trkpt>
      <trkpt lat="41.1669790" lon="0.5597530">
        <ele>107.7</ele>
        <time>2020-08-06T09:01:28Z</time>
      </trkpt>
      <trkpt lat="41.1669690" lon="0.5597640">
        <ele>107.8</ele>
        <time>2020-08-06T09:01:29Z</time>
      </trkpt>
      <trkpt lat="41.1669580" lon="0.5597750">
        <ele>107.8</ele>
        <time>2020-08-06T09:01:30Z</time>
      </trkpt>
      <trkpt lat="41.1669340" lon="0.5597960">
        <ele>108.0</ele>
        <time>2020-08-06T09:01:32Z</time>
      </trkpt>
      <trkpt lat="41.1669100" lon="0.5598210">
        <ele>108.1</ele>
        <time>2020-08-06T09:01:34Z</time>
      </trkpt>
      <trkpt lat="41.1668840" lon="0.5598490">
        <ele>108.3</ele>
        <time>2020-08-06T09:01:36Z</time>
      </trkpt>
      <trkpt lat="41.1668700" lon="0.5598630">
        <ele>108.4</ele>
        <time>2020-08-06T09:01:37Z</time>
      </trkpt>
      <trkpt lat="41.1668440" lon="0.5598890">
        <ele>108.6</ele>
        <time>2020-08-06T09:01:39Z</time>
      </trkpt>
      <trkpt lat="41.1668300" lon="0.5599000">
        <ele>108.6</ele>
        <time>2020-08-06T09:01:40Z</time>
      </trkpt>
      <trkpt lat="41.1667990" lon="0.5599190">
        <ele>108.8</ele>
        <time>2020-08-06T09:01:42Z</time>
      </trkpt>
      <trkpt lat="41.1667830" lon="0.5599300">
        <ele>108.9</ele>
        <time>2020-08-06T09:01:43Z</time>
      </trkpt>
      <trkpt lat="41.1667510" lon="0.5599490">
        <ele>109.1</ele>
        <time>2020-08-06T09:01:45Z</time>
      </trkpt>
      <trkpt lat="41.1667360" lon="0.5599580">
        <ele>109.1</ele>
        <time>2020-08-06T09:01:46Z</time>
      </trkpt>
      <trkpt lat="41.1667200" lon="0.5599670">
        <ele>109.2</ele>
        <time>2020-08-06T09:01:47Z</time>
      </trkpt>
      <trkpt lat="41.1667020" lon="0.5599750">
        <ele>109.3</ele>
        <time>2020-08-06T09:01:48Z</time>
      </trkpt>
      <trkpt lat="41.1666740" lon="0.5599850">
        <ele>109.4</ele>
        <time>2020-08-06T09:01:50Z</time>
      </trkpt>
      <trkpt lat="41.1666360" lon="0.5600000">
        <ele>109.6</ele>
        <time>2020-08-06T09:01:52Z</time>
      </trkpt>
      <trkpt lat="41.1666080" lon="0.5600070">
        <ele>109.7</ele>
        <time>2020-08-06T09:01:53Z</time>
      </trkpt>
      <trkpt lat="41.1665980" lon="0.5600090">
        <ele>109.8</ele>
        <time>2020-08-06T09:01:54Z</time>
      </trkpt>
      <trkpt lat="41.1665590" lon="0.5600160">
        <ele>109.9</ele>
        <time>2020-08-06T09:01:56Z</time>
      </trkpt>
      <trkpt lat="41.1665290" lon="0.5600230">
        <ele>110.1</ele>
        <time>2020-08-06T09:01:57Z</time>
      </trkpt>
      <trkpt lat="41.1665180" lon="0.5600260">
        <ele>110.1</ele>
        <time>2020-08-06T09:01:58Z</time>
      </trkpt>
      <trkpt lat="41.1664820" lon="0.5600340">
        <ele>110.3</ele>
        <time>2020-08-06T09:02:00Z</time>
      </trkpt>
      <trkpt lat="41.1664410" lon="0.5600370">
        <ele>110.4</ele>
        <time>2020-08-06T09:02:02Z</time>
      </trkpt>
      <trkpt lat="41.1664030" lon="0.5600330">
        <ele>110.5</ele>
        <time>2020-08-06T09:02:04Z</time>
      </trkpt>
      <trkpt lat="41.1663860" lon="0.5600280">
        <ele>110.6</ele>
        <time>2020-08-06T09:02:05Z</time>
      </trkpt>
      <trkpt lat="41.1663400" lon="0.5600100">
        <ele>110.8</ele>
        <time>2020-08-06T09:02:07Z</time>
      </trkpt>
      <trkpt lat="41.1662990" lon="0.5599910">
        <ele>110.9</ele>
        <time>2020-08-06T09:02:09Z</time>
      </trkpt>
      <trkpt lat="41.1662780" lon="0.5599800">
        <ele>111.0</ele>
        <time>2020-08-06T09:02:10Z</time>
      </trkpt>
      <trkpt lat="41.1662360" lon="0.5599590">
        <ele>111.1</ele>
        <time>2020-08-06T09:02:12Z</time>
      </trkpt>
      <trkpt lat="41.1662040" lon="0.5599380">
        <ele>111.2</ele>
        <time>2020-08-06T09:02:13Z</time>
      </trkpt>
      <trkpt lat="41.1661930" lon="0.5599310">
        <ele>111.2</ele>
        <time>2020-08-06T09:02:14Z</time>
      </trkpt>
      <trkpt lat="41.1661730" lon="0.5599110">
        <ele>111.3</ele>
        <time>2020-08-06T09:02:16Z</time>
      </trkpt>
      <trkpt lat="41.1661770" lon="0.5599090">
        <ele>111.3</ele>
        <time>2020-08-06T09:02:17Z</time>
      </trkpt>
      <trkpt lat="41.1661920" lon="0.5599120">
        <ele>111.4</ele>
        <time>2020-08-06T09:02:19Z</time>
      </trkpt>
      <trkpt lat="41.1661950" lon="0.5599130">
        <ele>111.4</ele>
        <time>2020-08-06T09:02:20Z</time>
      </trkpt>
      <trkpt lat="41.1661980" lon="0.5599140">
        <ele>111.4</ele>
        <time>2020-08-06T09:02:22Z</time>
      </trkpt>
      <trkpt lat="41.1661990" lon="0.5599150">
        <ele>111.4</ele>
        <time>2020-08-06T09:02:23Z</time>
      </trkpt>
      <trkpt lat="41.1661990" lon="0.5599150">
        <ele>111.4</ele>
        <time>2020-08-06T09:02:24Z</time>
      </trkpt>
      <trkpt lat="41.1662000" lon="0.5599170">
        <ele>111.4</ele>
        <time>2020-08-06T09:02:26Z</time>
      </trkpt>
      <trkpt lat="41.1662000" lon="0.5599170">
        <ele>111.4</ele>
        <time>2020-08-06T09:02:27Z</time>
      </trkpt>
      <trkpt lat="41.1662000" lon="0.5599170">
        <ele>111.4</ele>
        <time>2020-08-06T09:02:28Z</time>
      </trkpt>
      <trkpt lat="41.1662000" lon="0.5599170">
        <ele>111.4</ele>
        <time>2020-08-06T09:02:30Z</time>
      </trkpt>
      <trkpt lat="41.1661540" lon="0.5598960">
        <ele>111.5</ele>
        <time>2020-08-06T09:02:39Z</time>
      </trkpt>
      <trkpt lat="41.1661380" lon="0.5598910">
        <ele>111.6</ele>
        <time>2020-08-06T09:02:40Z</time>
      </trkpt>
      <trkpt lat="41.1661230" lon="0.5598850">
        <ele>111.6</ele>
        <time>2020-08-06T09:02:41Z</time>
      </trkpt>
      <trkpt lat="41.1660870" lon="0.5598650">
        <ele>111.7</ele>
        <time>2020-08-06T09:02:43Z</time>
      </trkpt>
      <trkpt lat="41.1660700" lon="0.5598570">
        <ele>111.7</ele>
        <time>2020-08-06T09:02:44Z</time>
      </trkpt>
      <trkpt lat="41.1660390" lon="0.5598400">
        <ele>111.8</ele>
        <time>2020-08-06T09:02:46Z</time>
      </trkpt>
      <trkpt lat="41.1659830" lon="0.5598000">
        <ele>111.9</ele>
        <time>2020-08-06T09:02:48Z</time>
      </trkpt>
      <trkpt lat="41.1659510" lon="0.5597770">
        <ele>112.0</ele>
        <time>2020-08-06T09:02:49Z</time>
      </trkpt>
      <trkpt lat="41.1658950" lon="0.5597400">
        <ele>112.1</ele>
        <time>2020-08-06T09:02:51Z</time>
      </trkpt>
      <trkpt lat="41.1658630" lon="0.5597230">
        <ele>112.2</ele>
        <time>2020-08-06T09:02:52Z</time>
      </trkpt>
      <trkpt lat="41.1658010" lon="0.5596960">
        <ele>112.3</ele>
        <time>2020-08-06T09:02:54Z</time>
      </trkpt>
      <trkpt lat="41.1657450" lon="0.5596620">
        <ele>112.5</ele>
        <time>2020-08-06T09:02:56Z</time>
      </trkpt>
      <trkpt lat="41.1657170" lon="0.5596390">
        <ele>112.5</ele>
        <time>2020-08-06T09:02:57Z</time>
      </trkpt>
      <trkpt lat="41.1656670" lon="0.5595990">
        <ele>112.6</ele>
        <time>2020-08-06T09:02:59Z</time>
      </trkpt>
      <trkpt lat="41.1656200" lon="0.5595610">
        <ele>112.7</ele>
        <time>2020-08-06T09:03:01Z</time>
      </trkpt>
      <trkpt lat="41.1655960" lon="0.5595420">
        <ele>112.7</ele>
        <time>2020-08-06T09:03:02Z</time>
      </trkpt>
      <trkpt lat="41.1655440" lon="0.5595020">
        <ele>112.8</ele>
        <time>2020-08-06T09:03:04Z</time>
      </trkpt>
      <trkpt lat="41.1655220" lon="0.5594870">
        <ele>112.8</ele>
        <time>2020-08-06T09:03:05Z</time>
      </trkpt>
      <trkpt lat="41.1654750" lon="0.5594570">
        <ele>112.9</ele>
        <time>2020-08-06T09:03:07Z</time>
      </trkpt>
      <trkpt lat="41.1654490" lon="0.5594410">
        <ele>112.9</ele>
        <time>2020-08-06T09:03:08Z</time>
      </trkpt>
      <trkpt lat="41.1654210" lon="0.5594240">
        <ele>113.0</ele>
        <time>2020-08-06T09:03:09Z</time>
      </trkpt>
      <trkpt lat="41.1653750" lon="0.5593960">
        <ele>113.1</ele>
        <time>2020-08-06T09:03:11Z</time>
      </trkpt>
      <trkpt lat="41.1653470" lon="0.5593750">
        <ele>113.1</ele>
        <time>2020-08-06T09:03:12Z</time>
      </trkpt>
      <trkpt lat="41.1652900" lon="0.5593310">
        <ele>113.3</ele>
        <time>2020-08-06T09:03:14Z</time>
      </trkpt>
      <trkpt lat="41.1652340" lon="0.5592840">
        <ele>113.5</ele>
        <time>2020-08-06T09:03:16Z</time>
      </trkpt>
      <trkpt lat="41.1652060" lon="0.5592590">
        <ele>113.6</ele>
        <time>2020-08-06T09:03:17Z</time>
      </trkpt>
      <trkpt lat="41.1651790" lon="0.5592350">
        <ele>113.7</ele>
        <time>2020-08-06T09:03:18Z</time>
      </trkpt>
      <trkpt lat="41.1651530" lon="0.5592130">
        <ele>113.9</ele>
        <time>2020-08-06T09:03:19Z</time>
      </trkpt>
      <trkpt lat="41.1651120" lon="0.5591790">
        <ele>114.1</ele>
        <time>2020-08-06T09:03:21Z</time>
      </trkpt>
      <trkpt lat="41.1650790" lon="0.5591510">
        <ele>114.2</ele>
        <time>2020-08-06T09:03:22Z</time>
      </trkpt>
      <trkpt lat="41.1650670" lon="0.5591420">
        <ele>114.3</ele>
        <time>2020-08-06T09:03:23Z</time>
      </trkpt>
      <trkpt lat="41.1650290" lon="0.5591120">
        <ele>114.4</ele>
        <time>2020-08-06T09:03:25Z</time>
      </trkpt>
      <trkpt lat="41.1649990" lon="0.5590930">
        <ele>114.6</ele>
        <time>2020-08-06T09:03:27Z</time>
      </trkpt>
      <trkpt lat="41.1649830" lon="0.5590880">
        <ele>114.7</ele>
        <time>2020-08-06T09:03:28Z</time>
      </trkpt>
      <trkpt lat="41.1649650" lon="0.5590810">
        <ele>114.7</ele>
        <time>2020-08-06T09:03:29Z</time>
      </trkpt>
      <trkpt lat="41.1649370" lon="0.5590670">
        <ele>114.9</ele>
        <time>2020-08-06T09:03:30Z</time>
      </trkpt>
      <trkpt lat="41.1649280" lon="0.5590620">
        <ele>114.9</ele>
        <time>2020-08-06T09:03:31Z</time>
      </trkpt>
      <trkpt lat="41.1649080" lon="0.5590480">
        <ele>115.0</ele>
        <time>2020-08-06T09:03:32Z</time>
      </trkpt>
      <trkpt lat="41.1648690" lon="0.5590170">
        <ele>115.3</ele>
        <time>2020-08-06T09:03:34Z</time>
      </trkpt>
      <trkpt lat="41.1648310" lon="0.5589810">
        <ele>115.5</ele>
        <time>2020-08-06T09:03:36Z</time>
      </trkpt>
      <trkpt lat="41.1647950" lon="0.5589530">
        <ele>115.7</ele>
        <time>2020-08-06T09:03:38Z</time>
      </trkpt>
      <trkpt lat="41.1647650" lon="0.5589270">
        <ele>115.9</ele>
        <time>2020-08-06T09:03:40Z</time>
      </trkpt>
      <trkpt lat="41.1647540" lon="0.5589170">
        <ele>116.0</ele>
        <time>2020-08-06T09:03:41Z</time>
      </trkpt>
      <trkpt lat="41.1647410" lon="0.5589080">
        <ele>116.1</ele>
        <time>2020-08-06T09:03:42Z</time>
      </trkpt>
      <trkpt lat="41.1647280" lon="0.5589000">
        <ele>116.2</ele>
        <time>2020-08-06T09:03:43Z</time>
      </trkpt>
      <trkpt lat="41.1647020" lon="0.5588840">
        <ele>116.3</ele>
        <time>2020-08-06T09:03:45Z</time>
      </trkpt>
      <trkpt lat="41.1646860" lon="0.5588780">
        <ele>116.4</ele>
        <time>2020-08-06T09:03:46Z</time>
      </trkpt>
      <trkpt lat="41.1646700" lon="0.5588700">
        <ele>116.6</ele>
        <time>2020-08-06T09:03:47Z</time>
      </trkpt>
      <trkpt lat="41.1646540" lon="0.5588600">
        <ele>116.7</ele>
        <time>2020-08-06T09:03:48Z</time>
      </trkpt>
      <trkpt lat="41.1646390" lon="0.5588490">
        <ele>116.8</ele>
        <time>2020-08-06T09:03:49Z</time>
      </trkpt>
      <trkpt lat="41.1646090" lon="0.5588310">
        <ele>117.1</ele>
        <time>2020-08-06T09:03:51Z</time>
      </trkpt>
      <trkpt lat="41.1645950" lon="0.5588240">
        <ele>117.2</ele>
        <time>2020-08-06T09:03:52Z</time>
      </trkpt>
      <trkpt lat="41.1645830" lon="0.5588150">
        <ele>117.3</ele>
        <time>2020-08-06T09:03:53Z</time>
      </trkpt>
      <trkpt lat="41.1645700" lon="0.5588050">
        <ele>117.4</ele>
        <time>2020-08-06T09:03:54Z</time>
      </trkpt>
      <trkpt lat="41.1645560" lon="0.5587960">
        <ele>117.5</ele>
        <time>2020-08-06T09:03:55Z</time>
      </trkpt>
      <trkpt lat="41.1645290" lon="0.5587770">
        <ele>117.7</ele>
        <time>2020-08-06T09:03:57Z</time>
      </trkpt>
      <trkpt lat="41.1645030" lon="0.5587570">
        <ele>118.0</ele>
        <time>2020-08-06T09:03:59Z</time>
      </trkpt>
      <trkpt lat="41.1644890" lon="0.5587460">
        <ele>118.1</ele>
        <time>2020-08-06T09:04:00Z</time>
      </trkpt>
      <trkpt lat="41.1644760" lon="0.5587360">
        <ele>118.2</ele>
        <time>2020-08-06T09:04:01Z</time>
      </trkpt>
      <trkpt lat="41.1644620" lon="0.5587250">
        <ele>118.3</ele>
        <time>2020-08-06T09:04:02Z</time>
      </trkpt>
      <trkpt lat="41.1644390" lon="0.5587080">
        <ele>118.5</ele>
        <time>2020-08-06T09:04:04Z</time>
      </trkpt>
      <trkpt lat="41.1644250" lon="0.5587000">
        <ele>118.6</ele>
        <time>2020-08-06T09:04:05Z</time>
      </trkpt>
      <trkpt lat="41.1644120" lon="0.5586920">
        <ele>118.7</ele>
        <time>2020-08-06T09:04:06Z</time>
      </trkpt>
      <trkpt lat="41.1643910" lon="0.5586730">
        <ele>118.9</ele>
        <time>2020-08-06T09:04:08Z</time>
      </trkpt>
      <trkpt lat="41.1643820" lon="0.5586670">
        <ele>119.0</ele>
        <time>2020-08-06T09:04:09Z</time>
      </trkpt>
      <trkpt lat="41.1643740" lon="0.5586630">
        <ele>119.0</ele>
        <time>2020-08-06T09:04:10Z</time>
      </trkpt>
      <trkpt lat="41.1643520" lon="0.5586520">
        <ele>119.2</ele>
        <time>2020-08-06T09:04:12Z</time>
      </trkpt>
      <trkpt lat="41.1643410" lon="0.5586450">
        <ele>119.2</ele>
        <time>2020-08-06T09:04:13Z</time>
      </trkpt>
      <trkpt lat="41.1643210" lon="0.5586360">
        <ele>119.4</ele>
        <time>2020-08-06T09:04:15Z</time>
      </trkpt>
      <trkpt lat="41.1643080" lon="0.5586290">
        <ele>119.4</ele>
        <time>2020-08-06T09:04:16Z</time>
      </trkpt>
      <trkpt lat="41.1642870" lon="0.5586220">
        <ele>119.5</ele>
        <time>2020-08-06T09:04:18Z</time>
      </trkpt>
      <trkpt lat="41.1642750" lon="0.5586180">
        <ele>119.6</ele>
        <time>2020-08-06T09:04:19Z</time>
      </trkpt>
      <trkpt lat="41.1642550" lon="0.5586100">
        <ele>119.8</ele>
        <time>2020-08-06T09:04:21Z</time>
      </trkpt>
      <trkpt lat="41.1642440" lon="0.5586040">
        <ele>119.9</ele>
        <time>2020-08-06T09:04:22Z</time>
      </trkpt>
      <trkpt lat="41.1642160" lon="0.5585870">
        <ele>120.1</ele>
        <time>2020-08-06T09:04:24Z</time>
      </trkpt>
      <trkpt lat="41.1642000" lon="0.5585740">
        <ele>120.2</ele>
        <time>2020-08-06T09:04:25Z</time>
      </trkpt>
      <trkpt lat="41.1641880" lon="0.5585620">
        <ele>120.3</ele>
        <time>2020-08-06T09:04:26Z</time>
      </trkpt>
      <trkpt lat="41.1641600" lon="0.5585380">
        <ele>120.6</ele>
        <time>2020-08-06T09:04:28Z</time>
      </trkpt>
      <trkpt lat="41.1641310" lon="0.5585200">
        <ele>120.8</ele>
        <time>2020-08-06T09:04:30Z</time>
      </trkpt>
      <trkpt lat="41.1641140" lon="0.5585130">
        <ele>120.9</ele>
        <time>2020-08-06T09:04:31Z</time>
      </trkpt>
      <trkpt lat="41.1640810" lon="0.5584950">
        <ele>121.2</ele>
        <time>2020-08-06T09:04:33Z</time>
      </trkpt>
      <trkpt lat="41.1640540" lon="0.5584810">
        <ele>121.4</ele>
        <time>2020-08-06T09:04:34Z</time>
      </trkpt>
      <trkpt lat="41.1640450" lon="0.5584770">
        <ele>121.5</ele>
        <time>2020-08-06T09:04:35Z</time>
      </trkpt>
      <trkpt lat="41.1640280" lon="0.5584670">
        <ele>121.6</ele>
        <time>2020-08-06T09:04:36Z</time>
      </trkpt>
      <trkpt lat="41.1639930" lon="0.5584480">
        <ele>121.9</ele>
        <time>2020-08-06T09:04:38Z</time>
      </trkpt>
      <trkpt lat="41.1639760" lon="0.5584390">
        <ele>122.0</ele>
        <time>2020-08-06T09:04:39Z</time>
      </trkpt>
      <trkpt lat="41.1639400" lon="0.5584190">
        <ele>122.3</ele>
        <time>2020-08-06T09:04:41Z</time>
      </trkpt>
      <trkpt lat="41.1639230" lon="0.5584090">
        <ele>122.5</ele>
        <time>2020-08-06T09:04:42Z</time>
      </trkpt>
      <trkpt lat="41.1638900" lon="0.5583940">
        <ele>122.8</ele>
        <time>2020-08-06T09:04:44Z</time>
      </trkpt>
      <trkpt lat="41.1638300" lon="0.5583700">
        <ele>123.3</ele>
        <time>2020-08-06T09:04:46Z</time>
      </trkpt>
      <trkpt lat="41.1637980" lon="0.5583580">
        <ele>123.5</ele>
        <time>2020-08-06T09:04:48Z</time>
      </trkpt>
      <trkpt lat="41.1637660" lon="0.5583470">
        <ele>123.8</ele>
        <time>2020-08-06T09:04:53Z</time>
      </trkpt>
      <trkpt lat="41.1637340" lon="0.5583350">
        <ele>124.1</ele>
        <time>2020-08-06T09:04:54Z</time>
      </trkpt>
      <trkpt lat="41.1637080" lon="0.5583290">
        <ele>124.3</ele>
        <time>2020-08-06T09:04:55Z</time>
      </trkpt>
      <trkpt lat="41.1636750" lon="0.5583240">
        <ele>124.5</ele>
        <time>2020-08-06T09:04:57Z</time>
      </trkpt>
      <trkpt lat="41.1636610" lon="0.5583230">
        <ele>124.6</ele>
        <time>2020-08-06T09:04:58Z</time>
      </trkpt>
      <trkpt lat="41.1636380" lon="0.5583250">
        <ele>124.8</ele>
        <time>2020-08-06T09:05:00Z</time>
      </trkpt>
      <trkpt lat="41.1636230" lon="0.5583250">
        <ele>124.9</ele>
        <time>2020-08-06T09:05:01Z</time>
      </trkpt>
      <trkpt lat="41.1635910" lon="0.5583230">
        <ele>125.2</ele>
        <time>2020-08-06T09:05:03Z</time>
      </trkpt>
      <trkpt lat="41.1635750" lon="0.5583220">
        <ele>125.3</ele>
        <time>2020-08-06T09:05:04Z</time>
      </trkpt>
      <trkpt lat="41.1635390" lon="0.5583230">
        <ele>125.5</ele>
        <time>2020-08-06T09:05:06Z</time>
      </trkpt>
      <trkpt lat="41.1634920" lon="0.5583230">
        <ele>125.9</ele>
        <time>2020-08-06T09:05:08Z</time>
      </trkpt>
      <trkpt lat="41.1634570" lon="0.5583160">
        <ele>126.1</ele>
        <time>2020-08-06T09:05:10Z</time>
      </trkpt>
      <trkpt lat="41.1634400" lon="0.5583120">
        <ele>126.3</ele>
        <time>2020-08-06T09:05:11Z</time>
      </trkpt>
      <trkpt lat="41.1634240" lon="0.5583090">
        <ele>126.4</ele>
        <time>2020-08-06T09:05:12Z</time>
      </trkpt>
      <trkpt lat="41.1633940" lon="0.5583180">
        <ele>126.6</ele>
        <time>2020-08-06T09:05:14Z</time>
      </trkpt>
      <trkpt lat="41.1633780" lon="0.5583230">
        <ele>126.7</ele>
        <time>2020-08-06T09:05:15Z</time>
      </trkpt>
      <trkpt lat="41.1633630" lon="0.5583240">
        <ele>126.8</ele>
        <time>2020-08-06T09:05:16Z</time>
      </trkpt>
      <trkpt lat="41.1633100" lon="0.5583220">
        <ele>127.2</ele>
        <time>2020-08-06T09:05:18Z</time>
      </trkpt>
      <trkpt lat="41.1632900" lon="0.5583240">
        <ele>127.3</ele>
        <time>2020-08-06T09:05:20Z</time>
      </trkpt>
      <trkpt lat="41.1632690" lon="0.5583250">
        <ele>127.4</ele>
        <time>2020-08-06T09:05:21Z</time>
      </trkpt>
      <trkpt lat="41.1632490" lon="0.5583260">
        <ele>127.5</ele>
        <time>2020-08-06T09:05:22Z</time>
      </trkpt>
      <trkpt lat="41.1632000" lon="0.5583240">
        <ele>127.8</ele>
        <time>2020-08-06T09:05:24Z</time>
      </trkpt>
      <trkpt lat="41.1631640" lon="0.5583310">
        <ele>128.0</ele>
        <time>2020-08-06T09:05:26Z</time>
      </trkpt>
      <trkpt lat="41.1631560" lon="0.5583380">
        <ele>128.1</ele>
        <time>2020-08-06T09:05:27Z</time>
      </trkpt>
      <trkpt lat="41.1631570" lon="0.5583600">
        <ele>128.1</ele>
        <time>2020-08-06T09:05:29Z</time>
      </trkpt>
      <trkpt lat="41.1631670" lon="0.5583610">
        <ele>128.2</ele>
        <time>2020-08-06T09:05:30Z</time>
      </trkpt>
      <trkpt lat="41.1631640" lon="0.5583640">
        <ele>128.2</ele>
        <time>2020-08-06T09:05:31Z</time>
      </trkpt>
      <trkpt lat="41.1631620" lon="0.5583710">
        <ele>128.2</ele>
        <time>2020-08-06T09:05:32Z</time>
      </trkpt>
      <trkpt lat="41.1631560" lon="0.5583780">
        <ele>128.3</ele>
        <time>2020-08-06T09:05:33Z</time>
      </trkpt>
      <trkpt lat="41.1631350" lon="0.5583800">
        <ele>128.4</ele>
        <time>2020-08-06T09:05:35Z</time>
      </trkpt>
      <trkpt lat="41.1631170" lon="0.5583890">
        <ele>128.5</ele>
        <time>2020-08-06T09:05:36Z</time>
      </trkpt>
      <trkpt lat="41.1631020" lon="0.5583940">
        <ele>128.5</ele>
        <time>2020-08-06T09:05:37Z</time>
      </trkpt>
      <trkpt lat="41.1630890" lon="0.5583980">
        <ele>128.6</ele>
        <time>2020-08-06T09:05:38Z</time>
      </trkpt>
      <trkpt lat="41.1630640" lon="0.5584050">
        <ele>128.7</ele>
        <time>2020-08-06T09:05:40Z</time>
      </trkpt>
      <trkpt lat="41.1630520" lon="0.5584070">
        <ele>128.8</ele>
        <time>2020-08-06T09:05:41Z</time>
      </trkpt>
      <trkpt lat="41.1630230" lon="0.5584200">
        <ele>128.9</ele>
        <time>2020-08-06T09:05:43Z</time>
      </trkpt>
      <trkpt lat="41.1629650" lon="0.5584410">
        <ele>129.1</ele>
        <time>2020-08-06T09:05:44Z</time>
      </trkpt>
      <trkpt lat="41.1629090" lon="0.5584670">
        <ele>129.3</ele>
        <time>2020-08-06T09:05:46Z</time>
      </trkpt>
      <trkpt lat="41.1628680" lon="0.5584830">
        <ele>129.5</ele>
        <time>2020-08-06T09:05:47Z</time>
      </trkpt>
      <trkpt lat="41.1628400" lon="0.5584960">
        <ele>129.5</ele>
        <time>2020-08-06T09:05:48Z</time>
      </trkpt>
      <trkpt lat="41.1627950" lon="0.5585130">
        <ele>129.7</ele>
        <time>2020-08-06T09:05:50Z</time>
      </trkpt>
      <trkpt lat="41.1627620" lon="0.5585220">
        <ele>129.7</ele>
        <time>2020-08-06T09:05:52Z</time>
      </trkpt>
      <trkpt lat="41.1627340" lon="0.5585360">
        <ele>129.8</ele>
        <time>2020-08-06T09:05:53Z</time>
      </trkpt>
      <trkpt lat="41.1627060" lon="0.5585510">
        <ele>129.8</ele>
        <time>2020-08-06T09:05:54Z</time>
      </trkpt>
      <trkpt lat="41.1626770" lon="0.5585680">
        <ele>129.9</ele>
        <time>2020-08-06T09:05:55Z</time>
      </trkpt>
      <trkpt lat="41.1626660" lon="0.5585750">
        <ele>129.9</ele>
        <time>2020-08-06T09:05:56Z</time>
      </trkpt>
      <trkpt lat="41.1626300" lon="0.5585980">
        <ele>129.9</ele>
        <time>2020-08-06T09:05:58Z</time>
      </trkpt>
      <trkpt lat="41.1625970" lon="0.5586070">
        <ele>129.9</ele>
        <time>2020-08-06T09:06:00Z</time>
      </trkpt>
      <trkpt lat="41.1625610" lon="0.5586230">
        <ele>129.9</ele>
        <time>2020-08-06T09:06:01Z</time>
      </trkpt>
      <trkpt lat="41.1625110" lon="0.5586400">
        <ele>129.9</ele>
        <time>2020-08-06T09:06:03Z</time>
      </trkpt>
      <trkpt lat="41.1624850" lon="0.5586580">
        <ele>129.8</ele>
        <time>2020-08-06T09:06:04Z</time>
      </trkpt>
      <trkpt lat="41.1624620" lon="0.5586660">
        <ele>129.8</ele>
        <time>2020-08-06T09:06:05Z</time>
      </trkpt>
      <trkpt lat="41.1624210" lon="0.5586900">
        <ele>129.8</ele>
        <time>2020-08-06T09:06:07Z</time>
      </trkpt>
      <trkpt lat="41.1623930" lon="0.5587040">
        <ele>129.7</ele>
        <time>2020-08-06T09:06:08Z</time>
      </trkpt>
      <trkpt lat="41.1623500" lon="0.5587330">
        <ele>129.7</ele>
        <time>2020-08-06T09:06:10Z</time>
      </trkpt>
      <trkpt lat="41.1623140" lon="0.5587530">
        <ele>129.6</ele>
        <time>2020-08-06T09:06:11Z</time>
      </trkpt>
      <trkpt lat="41.1622580" lon="0.5587870">
        <ele>129.5</ele>
        <time>2020-08-06T09:06:13Z</time>
      </trkpt>
      <trkpt lat="41.1622150" lon="0.5588120">
        <ele>129.4</ele>
        <time>2020-08-06T09:06:15Z</time>
      </trkpt>
      <trkpt lat="41.1621750" lon="0.5588300">
        <ele>129.2</ele>
        <time>2020-08-06T09:06:16Z</time>
      </trkpt>
      <trkpt lat="41.1621280" lon="0.5588480">
        <ele>129.1</ele>
        <time>2020-08-06T09:06:17Z</time>
      </trkpt>
      <trkpt lat="41.1620750" lon="0.5588750">
        <ele>128.8</ele>
        <time>2020-08-06T09:06:19Z</time>
      </trkpt>
      <trkpt lat="41.1620410" lon="0.5588980">
        <ele>128.7</ele>
        <time>2020-08-06T09:06:20Z</time>
      </trkpt>
      <trkpt lat="41.1620030" lon="0.5589200">
        <ele>128.5</ele>
        <time>2020-08-06T09:06:21Z</time>
      </trkpt>
      <trkpt lat="41.1619530" lon="0.5589490">
        <ele>128.3</ele>
        <time>2020-08-06T09:06:22Z</time>
      </trkpt>
      <trkpt lat="41.1618540" lon="0.5590100">
        <ele>127.8</ele>
        <time>2020-08-06T09:06:24Z</time>
      </trkpt>
      <trkpt lat="41.1618070" lon="0.5590310">
        <ele>127.5</ele>
        <time>2020-08-06T09:06:25Z</time>
      </trkpt>
      <trkpt lat="41.1617160" lon="0.5590620">
        <ele>127.1</ele>
        <time>2020-08-06T09:06:27Z</time>
      </trkpt>
      <trkpt lat="41.1616250" lon="0.5591080">
        <ele>126.7</ele>
        <time>2020-08-06T09:06:29Z</time>
      </trkpt>
      <trkpt lat="41.1615760" lon="0.5591320">
        <ele>126.5</ele>
        <time>2020-08-06T09:06:30Z</time>
      </trkpt>
      <trkpt lat="41.1615240" lon="0.5591550">
        <ele>126.3</ele>
        <time>2020-08-06T09:06:31Z</time>
      </trkpt>
      <trkpt lat="41.1614240" lon="0.5592090">
        <ele>125.9</ele>
        <time>2020-08-06T09:06:33Z</time>
      </trkpt>
      <trkpt lat="41.1613200" lon="0.5592800">
        <ele>125.3</ele>
        <time>2020-08-06T09:06:35Z</time>
      </trkpt>
      <trkpt lat="41.1612180" lon="0.5593680">
        <ele>124.7</ele>
        <time>2020-08-06T09:06:37Z</time>
      </trkpt>
      <trkpt lat="41.1611700" lon="0.5594210">
        <ele>124.4</ele>
        <time>2020-08-06T09:06:38Z</time>
      </trkpt>
      <trkpt lat="41.1610860" lon="0.5595470">
        <ele>123.9</ele>
        <time>2020-08-06T09:06:40Z</time>
      </trkpt>
      <trkpt lat="41.1610450" lon="0.5596130">
        <ele>123.6</ele>
        <time>2020-08-06T09:06:41Z</time>
      </trkpt>
      <trkpt lat="41.1610080" lon="0.5596760">
        <ele>123.4</ele>
        <time>2020-08-06T09:06:42Z</time>
      </trkpt>
      <trkpt lat="41.1609380" lon="0.5598090">
        <ele>122.9</ele>
        <time>2020-08-06T09:06:44Z</time>
      </trkpt>
      <trkpt lat="41.1609090" lon="0.5598830">
        <ele>122.7</ele>
        <time>2020-08-06T09:06:45Z</time>
      </trkpt>
      <trkpt lat="41.1608770" lon="0.5599570">
        <ele>122.5</ele>
        <time>2020-08-06T09:06:46Z</time>
      </trkpt>
      <trkpt lat="41.1608160" lon="0.5601160">
        <ele>122.1</ele>
        <time>2020-08-06T09:06:48Z</time>
      </trkpt>
      <trkpt lat="41.1607540" lon="0.5602680">
        <ele>121.8</ele>
        <time>2020-08-06T09:06:50Z</time>
      </trkpt>
      <trkpt lat="41.1606850" lon="0.5604070">
        <ele>121.5</ele>
        <time>2020-08-06T09:06:52Z</time>
      </trkpt>
      <trkpt lat="41.1606090" lon="0.5605260">
        <ele>121.2</ele>
        <time>2020-08-06T09:06:54Z</time>
      </trkpt>
      <trkpt lat="41.1605650" lon="0.5605860">
        <ele>121.0</ele>
        <time>2020-08-06T09:06:55Z</time>
      </trkpt>
      <trkpt lat="41.1605200" lon="0.5606420">
        <ele>120.9</ele>
        <time>2020-08-06T09:06:56Z</time>
      </trkpt>
      <trkpt lat="41.1604330" lon="0.5607300">
        <ele>120.7</ele>
        <time>2020-08-06T09:06:58Z</time>
      </trkpt>
      <trkpt lat="41.1603870" lon="0.5607620">
        <ele>120.7</ele>
        <time>2020-08-06T09:06:59Z</time>
      </trkpt>
      <trkpt lat="41.1602880" lon="0.5608260">
        <ele>120.5</ele>
        <time>2020-08-06T09:07:01Z</time>
      </trkpt>
      <trkpt lat="41.1602360" lon="0.5608540">
        <ele>120.5</ele>
        <time>2020-08-06T09:07:02Z</time>
      </trkpt>
      <trkpt lat="41.1601860" lon="0.5608740">
        <ele>120.4</ele>
        <time>2020-08-06T09:07:03Z</time>
      </trkpt>
      <trkpt lat="41.1600850" lon="0.5609190">
        <ele>120.3</ele>
        <time>2020-08-06T09:07:05Z</time>
      </trkpt>
      <trkpt lat="41.1600330" lon="0.5609380">
        <ele>120.2</ele>
        <time>2020-08-06T09:07:06Z</time>
      </trkpt>
      <trkpt lat="41.1599260" lon="0.5609640">
        <ele>120.1</ele>
        <time>2020-08-06T09:07:08Z</time>
      </trkpt>
      <trkpt lat="41.1598720" lon="0.5609670">
        <ele>120.1</ele>
        <time>2020-08-06T09:07:09Z</time>
      </trkpt>
      <trkpt lat="41.1598220" lon="0.5609710">
        <ele>120.1</ele>
        <time>2020-08-06T09:07:10Z</time>
      </trkpt>
      <trkpt lat="41.1597710" lon="0.5609670">
        <ele>120.1</ele>
        <time>2020-08-06T09:07:11Z</time>
      </trkpt>
      <trkpt lat="41.1597230" lon="0.5609560">
        <ele>120.1</ele>
        <time>2020-08-06T09:07:12Z</time>
      </trkpt>
      <trkpt lat="41.1596230" lon="0.5609430">
        <ele>120.0</ele>
        <time>2020-08-06T09:07:14Z</time>
      </trkpt>
      <trkpt lat="41.1595720" lon="0.5609320">
        <ele>119.9</ele>
        <time>2020-08-06T09:07:15Z</time>
      </trkpt>
      <trkpt lat="41.1594790" lon="0.5608880">
        <ele>119.8</ele>
        <time>2020-08-06T09:07:17Z</time>
      </trkpt>
      <trkpt lat="41.1593900" lon="0.5608330">
        <ele>119.7</ele>
        <time>2020-08-06T09:07:19Z</time>
      </trkpt>
      <trkpt lat="41.1593470" lon="0.5608040">
        <ele>119.7</ele>
        <time>2020-08-06T09:07:20Z</time>
      </trkpt>
      <trkpt lat="41.1593040" lon="0.5607730">
        <ele>119.6</ele>
        <time>2020-08-06T09:07:21Z</time>
      </trkpt>
      <trkpt lat="41.1592170" lon="0.5607060">
        <ele>119.5</ele>
        <time>2020-08-06T09:07:23Z</time>
      </trkpt>
      <trkpt lat="41.1591730" lon="0.5606680">
        <ele>119.5</ele>
        <time>2020-08-06T09:07:24Z</time>
      </trkpt>
      <trkpt lat="41.1591300" lon="0.5606290">
        <ele>119.4</ele>
        <time>2020-08-06T09:07:25Z</time>
      </trkpt>
      <trkpt lat="41.1590500" lon="0.5605540">
        <ele>119.3</ele>
        <time>2020-08-06T09:07:27Z</time>
      </trkpt>
      <trkpt lat="41.1590140" lon="0.5605160">
        <ele>119.2</ele>
        <time>2020-08-06T09:07:28Z</time>
      </trkpt>
      <trkpt lat="41.1589390" lon="0.5604400">
        <ele>119.0</ele>
        <time>2020-08-06T09:07:30Z</time>
      </trkpt>
      <trkpt lat="41.1588570" lon="0.5603620">
        <ele>118.9</ele>
        <time>2020-08-06T09:07:32Z</time>
      </trkpt>
      <trkpt lat="41.1587710" lon="0.5602930">
        <ele>118.9</ele>
        <time>2020-08-06T09:07:34Z</time>
      </trkpt>
      <trkpt lat="41.1587330" lon="0.5602560">
        <ele>118.8</ele>
        <time>2020-08-06T09:07:35Z</time>
      </trkpt>
      <trkpt lat="41.1586640" lon="0.5601880">
        <ele>118.8</ele>
        <time>2020-08-06T09:07:37Z</time>
      </trkpt>
      <trkpt lat="41.1585930" lon="0.5601170">
        <ele>118.7</ele>
        <time>2020-08-06T09:07:39Z</time>
      </trkpt>
      <trkpt lat="41.1585600" lon="0.5600810">
        <ele>118.7</ele>
        <time>2020-08-06T09:07:40Z</time>
      </trkpt>
      <trkpt lat="41.1584980" lon="0.5600220">
        <ele>118.6</ele>
        <time>2020-08-06T09:07:42Z</time>
      </trkpt>
      <trkpt lat="41.1584640" lon="0.5599900">
        <ele>118.6</ele>
        <time>2020-08-06T09:07:43Z</time>
      </trkpt>
      <trkpt lat="41.1584400" lon="0.5599620">
        <ele>118.5</ele>
        <time>2020-08-06T09:07:44Z</time>
      </trkpt>
      <trkpt lat="41.1583740" lon="0.5598980">
        <ele>118.5</ele>
        <time>2020-08-06T09:07:46Z</time>
      </trkpt>
      <trkpt lat="41.1583370" lon="0.5598640">
        <ele>118.5</ele>
        <time>2020-08-06T09:07:47Z</time>
      </trkpt>
      <trkpt lat="41.1582650" lon="0.5598000">
        <ele>118.4</ele>
        <time>2020-08-06T09:07:49Z</time>
      </trkpt>
      <trkpt lat="41.1582230" lon="0.5597640">
        <ele>118.4</ele>
        <time>2020-08-06T09:07:50Z</time>
      </trkpt>
      <trkpt lat="41.1581510" lon="0.5596950">
        <ele>118.4</ele>
        <time>2020-08-06T09:07:52Z</time>
      </trkpt>
      <trkpt lat="41.1581240" lon="0.5596710">
        <ele>118.4</ele>
        <time>2020-08-06T09:07:53Z</time>
      </trkpt>
      <trkpt lat="41.1580640" lon="0.5596150">
        <ele>118.4</ele>
        <time>2020-08-06T09:07:55Z</time>
      </trkpt>
      <trkpt lat="41.1579820" lon="0.5595340">
        <ele>118.6</ele>
        <time>2020-08-06T09:07:57Z</time>
      </trkpt>
      <trkpt lat="41.1579390" lon="0.5594910">
        <ele>118.6</ele>
        <time>2020-08-06T09:07:58Z</time>
      </trkpt>
      <trkpt lat="41.1578970" lon="0.5594520">
        <ele>118.6</ele>
        <time>2020-08-06T09:07:59Z</time>
      </trkpt>
      <trkpt lat="41.1578570" lon="0.5594120">
        <ele>118.4</ele>
        <time>2020-08-06T09:08:00Z</time>
      </trkpt>
      <trkpt lat="41.1578130" lon="0.5593680">
        <ele>118.3</ele>
        <time>2020-08-06T09:08:01Z</time>
      </trkpt>
      <trkpt lat="41.1577710" lon="0.5593230">
        <ele>118.2</ele>
        <time>2020-08-06T09:08:02Z</time>
      </trkpt>
      <trkpt lat="41.1576920" lon="0.5592370">
        <ele>118.1</ele>
        <time>2020-08-06T09:08:04Z</time>
      </trkpt>
      <trkpt lat="41.1576530" lon="0.5591950">
        <ele>118.0</ele>
        <time>2020-08-06T09:08:05Z</time>
      </trkpt>
      <trkpt lat="41.1576140" lon="0.5591540">
        <ele>118.0</ele>
        <time>2020-08-06T09:08:06Z</time>
      </trkpt>
      <trkpt lat="41.1575770" lon="0.5591150">
        <ele>118.0</ele>
        <time>2020-08-06T09:08:07Z</time>
      </trkpt>
      <trkpt lat="41.1575190" lon="0.5590550">
        <ele>118.0</ele>
        <time>2020-08-06T09:08:09Z</time>
      </trkpt>
      <trkpt lat="41.1574710" lon="0.5590230">
        <ele>118.0</ele>
        <time>2020-08-06T09:08:11Z</time>
      </trkpt>
      <trkpt lat="41.1574310" lon="0.5589840">
        <ele>118.0</ele>
        <time>2020-08-06T09:08:12Z</time>
      </trkpt>
      <trkpt lat="41.1573900" lon="0.5589420">
        <ele>118.1</ele>
        <time>2020-08-06T09:08:13Z</time>
      </trkpt>
      <trkpt lat="41.1573080" lon="0.5588650">
        <ele>118.1</ele>
        <time>2020-08-06T09:08:15Z</time>
      </trkpt>
      <trkpt lat="41.1572300" lon="0.5587870">
        <ele>118.1</ele>
        <time>2020-08-06T09:08:17Z</time>
      </trkpt>
      <trkpt lat="41.1571960" lon="0.5587530">
        <ele>118.1</ele>
        <time>2020-08-06T09:08:18Z</time>
      </trkpt>
      <trkpt lat="41.1571650" lon="0.5587190">
        <ele>118.2</ele>
        <time>2020-08-06T09:08:19Z</time>
      </trkpt>
      <trkpt lat="41.1570960" lon="0.5586420">
        <ele>118.2</ele>
        <time>2020-08-06T09:08:21Z</time>
      </trkpt>
      <trkpt lat="41.1570630" lon="0.5586090">
        <ele>118.2</ele>
        <time>2020-08-06T09:08:22Z</time>
      </trkpt>
      <trkpt lat="41.1569920" lon="0.5585410">
        <ele>118.2</ele>
        <time>2020-08-06T09:08:24Z</time>
      </trkpt>
      <trkpt lat="41.1569190" lon="0.5584710">
        <ele>118.3</ele>
        <time>2020-08-06T09:08:26Z</time>
      </trkpt>
      <trkpt lat="41.1568840" lon="0.5584370">
        <ele>118.3</ele>
        <time>2020-08-06T09:08:27Z</time>
      </trkpt>
      <trkpt lat="41.1568450" lon="0.5583990">
        <ele>118.4</ele>
        <time>2020-08-06T09:08:28Z</time>
      </trkpt>
      <trkpt lat="41.1568140" lon="0.5583670">
        <ele>118.4</ele>
        <time>2020-08-06T09:08:29Z</time>
      </trkpt>
      <trkpt lat="41.1567840" lon="0.5583360">
        <ele>118.5</ele>
        <time>2020-08-06T09:08:30Z</time>
      </trkpt>
      <trkpt lat="41.1567250" lon="0.5582720">
        <ele>118.6</ele>
        <time>2020-08-06T09:08:32Z</time>
      </trkpt>
      <trkpt lat="41.1567000" lon="0.5582440">
        <ele>118.7</ele>
        <time>2020-08-06T09:08:33Z</time>
      </trkpt>
      <trkpt lat="41.1566440" lon="0.5581880">
        <ele>118.8</ele>
        <time>2020-08-06T09:08:35Z</time>
      </trkpt>
      <trkpt lat="41.1566110" lon="0.5581570">
        <ele>118.8</ele>
        <time>2020-08-06T09:08:36Z</time>
      </trkpt>
      <trkpt lat="41.1565490" lon="0.5580990">
        <ele>119.0</ele>
        <time>2020-08-06T09:08:38Z</time>
      </trkpt>
      <trkpt lat="41.1564940" lon="0.5580470">
        <ele>119.1</ele>
        <time>2020-08-06T09:08:40Z</time>
      </trkpt>
      <trkpt lat="41.1564360" lon="0.5579930">
        <ele>119.2</ele>
        <time>2020-08-06T09:08:42Z</time>
      </trkpt>
      <trkpt lat="41.1564060" lon="0.5579640">
        <ele>119.3</ele>
        <time>2020-08-06T09:08:43Z</time>
      </trkpt>
      <trkpt lat="41.1563770" lon="0.5579360">
        <ele>119.4</ele>
        <time>2020-08-06T09:08:44Z</time>
      </trkpt>
      <trkpt lat="41.1563160" lon="0.5578780">
        <ele>119.7</ele>
        <time>2020-08-06T09:08:46Z</time>
      </trkpt>
      <trkpt lat="41.1562830" lon="0.5578450">
        <ele>119.9</ele>
        <time>2020-08-06T09:08:47Z</time>
      </trkpt>
      <trkpt lat="41.1562240" lon="0.5577850">
        <ele>120.2</ele>
        <time>2020-08-06T09:08:49Z</time>
      </trkpt>
      <trkpt lat="41.1561670" lon="0.5577310">
        <ele>120.4</ele>
        <time>2020-08-06T09:08:51Z</time>
      </trkpt>
      <trkpt lat="41.1561390" lon="0.5577040">
        <ele>120.4</ele>
        <time>2020-08-06T09:08:52Z</time>
      </trkpt>
      <trkpt lat="41.1561130" lon="0.5576770">
        <ele>120.5</ele>
        <time>2020-08-06T09:08:53Z</time>
      </trkpt>
      <trkpt lat="41.1560650" lon="0.5576260">
        <ele>120.7</ele>
        <time>2020-08-06T09:08:55Z</time>
      </trkpt>
      <trkpt lat="41.1560410" lon="0.5576000">
        <ele>120.7</ele>
        <time>2020-08-06T09:08:56Z</time>
      </trkpt>
      <trkpt lat="41.1559960" lon="0.5575530">
        <ele>120.9</ele>
        <time>2020-08-06T09:08:58Z</time>
      </trkpt>
      <trkpt lat="41.1559740" lon="0.5575320">
        <ele>121.0</ele>
        <time>2020-08-06T09:08:59Z</time>
      </trkpt>
      <trkpt lat="41.1559500" lon="0.5575090">
        <ele>121.1</ele>
        <time>2020-08-06T09:09:00Z</time>
      </trkpt>
      <trkpt lat="41.1559230" lon="0.5574820">
        <ele>121.2</ele>
        <time>2020-08-06T09:09:01Z</time>
      </trkpt>
      <trkpt lat="41.1558750" lon="0.5574370">
        <ele>121.4</ele>
        <time>2020-08-06T09:09:03Z</time>
      </trkpt>
      <trkpt lat="41.1558440" lon="0.5574120">
        <ele>121.5</ele>
        <time>2020-08-06T09:09:04Z</time>
      </trkpt>
      <trkpt lat="41.1558320" lon="0.5574030">
        <ele>121.5</ele>
        <time>2020-08-06T09:09:05Z</time>
      </trkpt>
      <trkpt lat="41.1557850" lon="0.5573620">
        <ele>121.7</ele>
        <time>2020-08-06T09:09:07Z</time>
      </trkpt>
      <trkpt lat="41.1557390" lon="0.5573300">
        <ele>121.9</ele>
        <time>2020-08-06T09:09:09Z</time>
      </trkpt>
      <trkpt lat="41.1556870" lon="0.5572930">
        <ele>122.1</ele>
        <time>2020-08-06T09:09:11Z</time>
      </trkpt>
      <trkpt lat="41.1556370" lon="0.5572540">
        <ele>122.3</ele>
        <time>2020-08-06T09:09:13Z</time>
      </trkpt>
      <trkpt lat="41.1556100" lon="0.5572350">
        <ele>122.4</ele>
        <time>2020-08-06T09:09:14Z</time>
      </trkpt>
      <trkpt lat="41.1555610" lon="0.5571980">
        <ele>122.6</ele>
        <time>2020-08-06T09:09:16Z</time>
      </trkpt>
      <trkpt lat="41.1555170" lon="0.5571650">
        <ele>122.8</ele>
        <time>2020-08-06T09:09:18Z</time>
      </trkpt>
      <trkpt lat="41.1554720" lon="0.5571340">
        <ele>123.0</ele>
        <time>2020-08-06T09:09:20Z</time>
      </trkpt>
      <trkpt lat="41.1554420" lon="0.5571170">
        <ele>123.1</ele>
        <time>2020-08-06T09:09:21Z</time>
      </trkpt>
      <trkpt lat="41.1554300" lon="0.5571110">
        <ele>123.2</ele>
        <time>2020-08-06T09:09:22Z</time>
      </trkpt>
      <trkpt lat="41.1553870" lon="0.5570990">
        <ele>123.3</ele>
        <time>2020-08-06T09:09:24Z</time>
      </trkpt>
      <trkpt lat="41.1553600" lon="0.5570910">
        <ele>123.4</ele>
        <time>2020-08-06T09:09:25Z</time>
      </trkpt>
      <trkpt lat="41.1553320" lon="0.5570860">
        <ele>123.5</ele>
        <time>2020-08-06T09:09:26Z</time>
      </trkpt>
      <trkpt lat="41.1552950" lon="0.5570780">
        <ele>123.7</ele>
        <time>2020-08-06T09:09:27Z</time>
      </trkpt>
      <trkpt lat="41.1552800" lon="0.5570730">
        <ele>123.7</ele>
        <time>2020-08-06T09:09:28Z</time>
      </trkpt>
      <trkpt lat="41.1552280" lon="0.5570520">
        <ele>123.9</ele>
        <time>2020-08-06T09:09:30Z</time>
      </trkpt>
      <trkpt lat="41.1551800" lon="0.5570320">
        <ele>124.1</ele>
        <time>2020-08-06T09:09:32Z</time>
      </trkpt>
      <trkpt lat="41.1551290" lon="0.5570150">
        <ele>124.3</ele>
        <time>2020-08-06T09:09:34Z</time>
      </trkpt>
      <trkpt lat="41.1551070" lon="0.5570050">
        <ele>124.4</ele>
        <time>2020-08-06T09:09:35Z</time>
      </trkpt>
      <trkpt lat="41.1550640" lon="0.5569890">
        <ele>124.5</ele>
        <time>2020-08-06T09:09:37Z</time>
      </trkpt>
      <trkpt lat="41.1550100" lon="0.5569730">
        <ele>124.7</ele>
        <time>2020-08-06T09:09:39Z</time>
      </trkpt>
      <trkpt lat="41.1549840" lon="0.5569670">
        <ele>124.8</ele>
        <time>2020-08-06T09:09:40Z</time>
      </trkpt>
      <trkpt lat="41.1549320" lon="0.5569570">
        <ele>125.0</ele>
        <time>2020-08-06T09:09:42Z</time>
      </trkpt>
      <trkpt lat="41.1549080" lon="0.5569510">
        <ele>125.1</ele>
        <time>2020-08-06T09:09:43Z</time>
      </trkpt>
      <trkpt lat="41.1548580" lon="0.5569390">
        <ele>125.3</ele>
        <time>2020-08-06T09:09:45Z</time>
      </trkpt>
      <trkpt lat="41.1548330" lon="0.5569330">
        <ele>125.4</ele>
        <time>2020-08-06T09:09:46Z</time>
      </trkpt>
      <trkpt lat="41.1547950" lon="0.5569240">
        <ele>125.5</ele>
        <time>2020-08-06T09:09:48Z</time>
      </trkpt>
      <trkpt lat="41.1547590" lon="0.5569190">
        <ele>125.7</ele>
        <time>2020-08-06T09:09:49Z</time>
      </trkpt>
      <trkpt lat="41.1547460" lon="0.5569170">
        <ele>125.8</ele>
        <time>2020-08-06T09:09:50Z</time>
      </trkpt>
      <trkpt lat="41.1546930" lon="0.5569150">
        <ele>126.0</ele>
        <time>2020-08-06T09:09:52Z</time>
      </trkpt>
      <trkpt lat="41.1546590" lon="0.5569190">
        <ele>126.1</ele>
        <time>2020-08-06T09:09:53Z</time>
      </trkpt>
      <trkpt lat="41.1546470" lon="0.5569200">
        <ele>126.2</ele>
        <time>2020-08-06T09:09:54Z</time>
      </trkpt>
      <trkpt lat="41.1546220" lon="0.5569210">
        <ele>126.3</ele>
        <time>2020-08-06T09:09:55Z</time>
      </trkpt>
      <trkpt lat="41.1545780" lon="0.5569140">
        <ele>126.4</ele>
        <time>2020-08-06T09:09:57Z</time>
      </trkpt>
      <trkpt lat="41.1545550" lon="0.5569110">
        <ele>126.5</ele>
        <time>2020-08-06T09:09:58Z</time>
      </trkpt>
      <trkpt lat="41.1545140" lon="0.5569040">
        <ele>126.7</ele>
        <time>2020-08-06T09:10:00Z</time>
      </trkpt>
      <trkpt lat="41.1544760" lon="0.5569060">
        <ele>126.9</ele>
        <time>2020-08-06T09:10:01Z</time>
      </trkpt>
      <trkpt lat="41.1544630" lon="0.5569070">
        <ele>126.9</ele>
        <time>2020-08-06T09:10:02Z</time>
      </trkpt>
      <trkpt lat="41.1544250" lon="0.5569200">
        <ele>127.1</ele>
        <time>2020-08-06T09:10:04Z</time>
      </trkpt>
      <trkpt lat="41.1543860" lon="0.5569360">
        <ele>127.3</ele>
        <time>2020-08-06T09:10:06Z</time>
      </trkpt>
      <trkpt lat="41.1543480" lon="0.5569540">
        <ele>127.6</ele>
        <time>2020-08-06T09:10:08Z</time>
      </trkpt>
      <trkpt lat="41.1543150" lon="0.5569590">
        <ele>127.7</ele>
        <time>2020-08-06T09:10:09Z</time>
      </trkpt>
      <trkpt lat="41.1543030" lon="0.5569600">
        <ele>127.8</ele>
        <time>2020-08-06T09:10:10Z</time>
      </trkpt>
      <trkpt lat="41.1542690" lon="0.5569630">
        <ele>128.0</ele>
        <time>2020-08-06T09:10:11Z</time>
      </trkpt>
      <trkpt lat="41.1542590" lon="0.5569630">
        <ele>128.0</ele>
        <time>2020-08-06T09:10:12Z</time>
      </trkpt>
      <trkpt lat="41.1542180" lon="0.5569670">
        <ele>128.2</ele>
        <time>2020-08-06T09:10:14Z</time>
      </trkpt>
      <trkpt lat="41.1541970" lon="0.5569710">
        <ele>128.3</ele>
        <time>2020-08-06T09:10:15Z</time>
      </trkpt>
      <trkpt lat="41.1541530" lon="0.5569840">
        <ele>128.5</ele>
        <time>2020-08-06T09:10:17Z</time>
      </trkpt>
      <trkpt lat="41.1541290" lon="0.5569930">
        <ele>128.6</ele>
        <time>2020-08-06T09:10:18Z</time>
      </trkpt>
      <trkpt lat="41.1540860" lon="0.5570080">
        <ele>128.8</ele>
        <time>2020-08-06T09:10:20Z</time>
      </trkpt>
      <trkpt lat="41.1540470" lon="0.5570180">
        <ele>129.0</ele>
        <time>2020-08-06T09:10:22Z</time>
      </trkpt>
      <trkpt lat="41.1540030" lon="0.5570410">
        <ele>129.2</ele>
        <time>2020-08-06T09:10:24Z</time>
      </trkpt>
      <trkpt lat="41.1539820" lon="0.5570550">
        <ele>129.3</ele>
        <time>2020-08-06T09:10:25Z</time>
      </trkpt>
      <trkpt lat="41.1539400" lon="0.5570770">
        <ele>129.6</ele>
        <time>2020-08-06T09:10:27Z</time>
      </trkpt>
      <trkpt lat="41.1539230" lon="0.5570850">
        <ele>129.6</ele>
        <time>2020-08-06T09:10:28Z</time>
      </trkpt>
      <trkpt lat="41.1538830" lon="0.5571090">
        <ele>129.9</ele>
        <time>2020-08-06T09:10:30Z</time>
      </trkpt>
      <trkpt lat="41.1538630" lon="0.5571210">
        <ele>130.0</ele>
        <time>2020-08-06T09:10:31Z</time>
      </trkpt>
      <trkpt lat="41.1538260" lon="0.5571420">
        <ele>130.2</ele>
        <time>2020-08-06T09:10:33Z</time>
      </trkpt>
      <trkpt lat="41.1538110" lon="0.5571530">
        <ele>130.3</ele>
        <time>2020-08-06T09:10:34Z</time>
      </trkpt>
      <trkpt lat="41.1537740" lon="0.5571830">
        <ele>130.5</ele>
        <time>2020-08-06T09:10:36Z</time>
      </trkpt>
      <trkpt lat="41.1537560" lon="0.5571960">
        <ele>130.6</ele>
        <time>2020-08-06T09:10:37Z</time>
      </trkpt>
      <trkpt lat="41.1537260" lon="0.5572210">
        <ele>130.8</ele>
        <time>2020-08-06T09:10:39Z</time>
      </trkpt>
      <trkpt lat="41.1536940" lon="0.5572520">
        <ele>131.0</ele>
        <time>2020-08-06T09:10:41Z</time>
      </trkpt>
      <trkpt lat="41.1536810" lon="0.5572630">
        <ele>131.0</ele>
        <time>2020-08-06T09:10:42Z</time>
      </trkpt>
      <trkpt lat="41.1536440" lon="0.5572910">
        <ele>131.2</ele>
        <time>2020-08-06T09:10:44Z</time>
      </trkpt>
      <trkpt lat="41.1536260" lon="0.5573060">
        <ele>131.3</ele>
        <time>2020-08-06T09:10:45Z</time>
      </trkpt>
      <trkpt lat="41.1535970" lon="0.5573320">
        <ele>131.5</ele>
        <time>2020-08-06T09:10:47Z</time>
      </trkpt>
      <trkpt lat="41.1535830" lon="0.5573440">
        <ele>131.5</ele>
        <time>2020-08-06T09:10:48Z</time>
      </trkpt>
      <trkpt lat="41.1535700" lon="0.5573550">
        <ele>131.6</ele>
        <time>2020-08-06T09:10:49Z</time>
      </trkpt>
      <trkpt lat="41.1535420" lon="0.5573850">
        <ele>131.7</ele>
        <time>2020-08-06T09:10:51Z</time>
      </trkpt>
      <trkpt lat="41.1535140" lon="0.5574200">
        <ele>131.9</ele>
        <time>2020-08-06T09:10:53Z</time>
      </trkpt>
      <trkpt lat="41.1535010" lon="0.5574370">
        <ele>131.9</ele>
        <time>2020-08-06T09:10:54Z</time>
      </trkpt>
      <trkpt lat="41.1534880" lon="0.5574530">
        <ele>132.1</ele>
        <time>2020-08-06T09:10:55Z</time>
      </trkpt>
      <trkpt lat="41.1534630" lon="0.5574840">
        <ele>132.3</ele>
        <time>2020-08-06T09:10:57Z</time>
      </trkpt>
      <trkpt lat="41.1534510" lon="0.5574990">
        <ele>132.4</ele>
        <time>2020-08-06T09:10:58Z</time>
      </trkpt>
      <trkpt lat="41.1534380" lon="0.5575160">
        <ele>132.5</ele>
        <time>2020-08-06T09:10:59Z</time>
      </trkpt>
      <trkpt lat="41.1534110" lon="0.5575500">
        <ele>132.7</ele>
        <time>2020-08-06T09:11:01Z</time>
      </trkpt>
      <trkpt lat="41.1533820" lon="0.5575900">
        <ele>132.9</ele>
        <time>2020-08-06T09:11:03Z</time>
      </trkpt>
      <trkpt lat="41.1533550" lon="0.5576300">
        <ele>133.2</ele>
        <time>2020-08-06T09:11:05Z</time>
      </trkpt>
      <trkpt lat="41.1533270" lon="0.5576670">
        <ele>133.4</ele>
        <time>2020-08-06T09:11:07Z</time>
      </trkpt>
      <trkpt lat="41.1533120" lon="0.5576890">
        <ele>133.5</ele>
        <time>2020-08-06T09:11:08Z</time>
      </trkpt>
      <trkpt lat="41.1532850" lon="0.5577250">
        <ele>133.7</ele>
        <time>2020-08-06T09:11:10Z</time>
      </trkpt>
      <trkpt lat="41.1532580" lon="0.5577570">
        <ele>133.9</ele>
        <time>2020-08-06T09:11:12Z</time>
      </trkpt>
      <trkpt lat="41.1532290" lon="0.5577860">
        <ele>134.1</ele>
        <time>2020-08-06T09:11:14Z</time>
      </trkpt>
      <trkpt lat="41.1532070" lon="0.5578110">
        <ele>134.3</ele>
        <time>2020-08-06T09:11:15Z</time>
      </trkpt>
      <trkpt lat="41.1532010" lon="0.5578180">
        <ele>134.3</ele>
        <time>2020-08-06T09:11:16Z</time>
      </trkpt>
      <trkpt lat="41.1531730" lon="0.5578490">
        <ele>134.5</ele>
        <time>2020-08-06T09:11:18Z</time>
      </trkpt>
      <trkpt lat="41.1531580" lon="0.5578670">
        <ele>134.6</ele>
        <time>2020-08-06T09:11:19Z</time>
      </trkpt>
      <trkpt lat="41.1531300" lon="0.5579010">
        <ele>134.8</ele>
        <time>2020-08-06T09:11:21Z</time>
      </trkpt>
      <trkpt lat="41.1531120" lon="0.5579310">
        <ele>134.9</ele>
        <time>2020-08-06T09:11:22Z</time>
      </trkpt>
      <trkpt lat="41.1531060" lon="0.5579400">
        <ele>135.0</ele>
        <time>2020-08-06T09:11:23Z</time>
      </trkpt>
      <trkpt lat="41.1530810" lon="0.5579770">
        <ele>135.2</ele>
        <time>2020-08-06T09:11:25Z</time>
      </trkpt>
      <trkpt lat="41.1530600" lon="0.5580080">
        <ele>135.3</ele>
        <time>2020-08-06T09:11:27Z</time>
      </trkpt>
      <trkpt lat="41.1530300" lon="0.5580500">
        <ele>135.6</ele>
        <time>2020-08-06T09:11:29Z</time>
      </trkpt>
      <trkpt lat="41.1530070" lon="0.5580790">
        <ele>135.7</ele>
        <time>2020-08-06T09:11:30Z</time>
      </trkpt>
      <trkpt lat="41.1530000" lon="0.5580880">
        <ele>135.8</ele>
        <time>2020-08-06T09:11:31Z</time>
      </trkpt>
      <trkpt lat="41.1529850" lon="0.5581070">
        <ele>135.9</ele>
        <time>2020-08-06T09:11:32Z</time>
      </trkpt>
      <trkpt lat="41.1529580" lon="0.5581440">
        <ele>136.1</ele>
        <time>2020-08-06T09:11:34Z</time>
      </trkpt>
      <trkpt lat="41.1529300" lon="0.5581800">
        <ele>136.2</ele>
        <time>2020-08-06T09:11:36Z</time>
      </trkpt>
      <trkpt lat="41.1529140" lon="0.5581990">
        <ele>136.4</ele>
        <time>2020-08-06T09:11:37Z</time>
      </trkpt>
      <trkpt lat="41.1528830" lon="0.5582380">
        <ele>136.6</ele>
        <time>2020-08-06T09:11:39Z</time>
      </trkpt>
      <trkpt lat="41.1528550" lon="0.5582790">
        <ele>136.8</ele>
        <time>2020-08-06T09:11:41Z</time>
      </trkpt>
      <trkpt lat="41.1528360" lon="0.5583070">
        <ele>136.9</ele>
        <time>2020-08-06T09:11:42Z</time>
      </trkpt>
      <trkpt lat="41.1528300" lon="0.5583160">
        <ele>136.9</ele>
        <time>2020-08-06T09:11:43Z</time>
      </trkpt>
      <trkpt lat="41.1528070" lon="0.5583550">
        <ele>137.1</ele>
        <time>2020-08-06T09:11:45Z</time>
      </trkpt>
      <trkpt lat="41.1527960" lon="0.5583730">
        <ele>137.2</ele>
        <time>2020-08-06T09:11:46Z</time>
      </trkpt>
      <trkpt lat="41.1527680" lon="0.5584160">
        <ele>137.4</ele>
        <time>2020-08-06T09:11:48Z</time>
      </trkpt>
      <trkpt lat="41.1527400" lon="0.5584550">
        <ele>137.6</ele>
        <time>2020-08-06T09:11:50Z</time>
      </trkpt>
      <trkpt lat="41.1527300" lon="0.5584680">
        <ele>137.7</ele>
        <time>2020-08-06T09:11:51Z</time>
      </trkpt>
      <trkpt lat="41.1527140" lon="0.5584870">
        <ele>137.8</ele>
        <time>2020-08-06T09:11:52Z</time>
      </trkpt>
      <trkpt lat="41.1526970" lon="0.5585070">
        <ele>137.9</ele>
        <time>2020-08-06T09:11:53Z</time>
      </trkpt>
      <trkpt lat="41.1526640" lon="0.5585450">
        <ele>138.1</ele>
        <time>2020-08-06T09:11:55Z</time>
      </trkpt>
      <trkpt lat="41.1526330" lon="0.5585790">
        <ele>138.3</ele>
        <time>2020-08-06T09:11:57Z</time>
      </trkpt>
      <trkpt lat="41.1526110" lon="0.5586070">
        <ele>138.4</ele>
        <time>2020-08-06T09:11:58Z</time>
      </trkpt>
      <trkpt lat="41.1526030" lon="0.5586150">
        <ele>138.5</ele>
        <time>2020-08-06T09:11:59Z</time>
      </trkpt>
      <trkpt lat="41.1525710" lon="0.5586460">
        <ele>138.7</ele>
        <time>2020-08-06T09:12:01Z</time>
      </trkpt>
      <trkpt lat="41.1525530" lon="0.5586660">
        <ele>138.8</ele>
        <time>2020-08-06T09:12:02Z</time>
      </trkpt>
      <trkpt lat="41.1525210" lon="0.5587010">
        <ele>139.0</ele>
        <time>2020-08-06T09:12:04Z</time>
      </trkpt>
      <trkpt lat="41.1524870" lon="0.5587320">
        <ele>139.2</ele>
        <time>2020-08-06T09:12:06Z</time>
      </trkpt>
      <trkpt lat="41.1524630" lon="0.5587560">
        <ele>139.3</ele>
        <time>2020-08-06T09:12:07Z</time>
      </trkpt>
      <trkpt lat="41.1524540" lon="0.5587640">
        <ele>139.4</ele>
        <time>2020-08-06T09:12:08Z</time>
      </trkpt>
      <trkpt lat="41.1524330" lon="0.5587850">
        <ele>139.5</ele>
        <time>2020-08-06T09:12:09Z</time>
      </trkpt>
      <trkpt lat="41.1524240" lon="0.5587930">
        <ele>139.6</ele>
        <time>2020-08-06T09:12:10Z</time>
      </trkpt>
      <trkpt lat="41.1523960" lon="0.5588150">
        <ele>139.7</ele>
        <time>2020-08-06T09:12:11Z</time>
      </trkpt>
      <trkpt lat="41.1523860" lon="0.5588220">
        <ele>139.8</ele>
        <time>2020-08-06T09:12:12Z</time>
      </trkpt>
      <trkpt lat="41.1523530" lon="0.5588470">
        <ele>139.9</ele>
        <time>2020-08-06T09:12:14Z</time>
      </trkpt>
      <trkpt lat="41.1523270" lon="0.5588680">
        <ele>140.1</ele>
        <time>2020-08-06T09:12:15Z</time>
      </trkpt>
      <trkpt lat="41.1523170" lon="0.5588760">
        <ele>140.2</ele>
        <time>2020-08-06T09:12:16Z</time>
      </trkpt>
      <trkpt lat="41.1522800" lon="0.5589040">
        <ele>140.4</ele>
        <time>2020-08-06T09:12:18Z</time>
      </trkpt>
      <trkpt lat="41.1522640" lon="0.5589180">
        <ele>140.5</ele>
        <time>2020-08-06T09:12:19Z</time>
      </trkpt>
      <trkpt lat="41.1522280" lon="0.5589460">
        <ele>140.7</ele>
        <time>2020-08-06T09:12:21Z</time>
      </trkpt>
      <trkpt lat="41.1522020" lon="0.5589650">
        <ele>140.8</ele>
        <time>2020-08-06T09:12:22Z</time>
      </trkpt>
      <trkpt lat="41.1521940" lon="0.5589710">
        <ele>140.8</ele>
        <time>2020-08-06T09:12:23Z</time>
      </trkpt>
      <trkpt lat="41.1521800" lon="0.5589820">
        <ele>140.9</ele>
        <time>2020-08-06T09:12:24Z</time>
      </trkpt>
      <trkpt lat="41.1521410" lon="0.5590090">
        <ele>141.1</ele>
        <time>2020-08-06T09:12:26Z</time>
      </trkpt>
      <trkpt lat="41.1521220" lon="0.5590210">
        <ele>141.2</ele>
        <time>2020-08-06T09:12:27Z</time>
      </trkpt>
      <trkpt lat="41.1520830" lon="0.5590380">
        <ele>141.4</ele>
        <time>2020-08-06T09:12:29Z</time>
      </trkpt>
      <trkpt lat="41.1520700" lon="0.5590430">
        <ele>141.4</ele>
        <time>2020-08-06T09:12:30Z</time>
      </trkpt>
      <trkpt lat="41.1520320" lon="0.5590580">
        <ele>141.6</ele>
        <time>2020-08-06T09:12:32Z</time>
      </trkpt>
      <trkpt lat="41.1520120" lon="0.5590660">
        <ele>141.7</ele>
        <time>2020-08-06T09:12:33Z</time>
      </trkpt>
      <trkpt lat="41.1519720" lon="0.5590810">
        <ele>141.9</ele>
        <time>2020-08-06T09:12:35Z</time>
      </trkpt>
      <trkpt lat="41.1519320" lon="0.5590940">
        <ele>142.0</ele>
        <time>2020-08-06T09:12:37Z</time>
      </trkpt>
      <trkpt lat="41.1519110" lon="0.5591000">
        <ele>142.1</ele>
        <time>2020-08-06T09:12:38Z</time>
      </trkpt>
      <trkpt lat="41.1518680" lon="0.5591160">
        <ele>142.3</ele>
        <time>2020-08-06T09:12:40Z</time>
      </trkpt>
      <trkpt lat="41.1518480" lon="0.5591210">
        <ele>142.3</ele>
        <time>2020-08-06T09:12:41Z</time>
      </trkpt>
      <trkpt lat="41.1518100" lon="0.5591340">
        <ele>142.4</ele>
        <time>2020-08-06T09:12:43Z</time>
      </trkpt>
      <trkpt lat="41.1517740" lon="0.5591430">
        <ele>142.6</ele>
        <time>2020-08-06T09:12:44Z</time>
      </trkpt>
      <trkpt lat="41.1517620" lon="0.5591450">
        <ele>142.6</ele>
        <time>2020-08-06T09:12:45Z</time>
      </trkpt>
      <trkpt lat="41.1517290" lon="0.5591500">
        <ele>142.7</ele>
        <time>2020-08-06T09:12:46Z</time>
      </trkpt>
      <trkpt lat="41.1517170" lon="0.5591510">
        <ele>142.7</ele>
        <time>2020-08-06T09:12:47Z</time>
      </trkpt>
      <trkpt lat="41.1517000" lon="0.5591540">
        <ele>142.8</ele>
        <time>2020-08-06T09:12:48Z</time>
      </trkpt>
      <trkpt lat="41.1516530" lon="0.5591610">
        <ele>142.9</ele>
        <time>2020-08-06T09:12:50Z</time>
      </trkpt>
      <trkpt lat="41.1516310" lon="0.5591640">
        <ele>142.9</ele>
        <time>2020-08-06T09:12:51Z</time>
      </trkpt>
      <trkpt lat="41.1515900" lon="0.5591680">
        <ele>143.0</ele>
        <time>2020-08-06T09:12:53Z</time>
      </trkpt>
      <trkpt lat="41.1515620" lon="0.5591730">
        <ele>143.1</ele>
        <time>2020-08-06T09:12:54Z</time>
      </trkpt>
      <trkpt lat="41.1515490" lon="0.5591740">
        <ele>143.1</ele>
        <time>2020-08-06T09:12:55Z</time>
      </trkpt>
      <trkpt lat="41.1515020" lon="0.5591800">
        <ele>143.2</ele>
        <time>2020-08-06T09:12:57Z</time>
      </trkpt>
      <trkpt lat="41.1514770" lon="0.5591790">
        <ele>143.3</ele>
        <time>2020-08-06T09:12:58Z</time>
      </trkpt>
      <trkpt lat="41.1514300" lon="0.5591770">
        <ele>143.4</ele>
        <time>2020-08-06T09:13:00Z</time>
      </trkpt>
      <trkpt lat="41.1513950" lon="0.5591750">
        <ele>143.5</ele>
        <time>2020-08-06T09:13:01Z</time>
      </trkpt>
      <trkpt lat="41.1513840" lon="0.5591740">
        <ele>143.5</ele>
        <time>2020-08-06T09:13:02Z</time>
      </trkpt>
      <trkpt lat="41.1513320" lon="0.5591690">
        <ele>143.6</ele>
        <time>2020-08-06T09:13:04Z</time>
      </trkpt>
      <trkpt lat="41.1513090" lon="0.5591640">
        <ele>143.6</ele>
        <time>2020-08-06T09:13:05Z</time>
      </trkpt>
      <trkpt lat="41.1512620" lon="0.5591550">
        <ele>143.7</ele>
        <time>2020-08-06T09:13:07Z</time>
      </trkpt>
      <trkpt lat="41.1512360" lon="0.5591470">
        <ele>143.8</ele>
        <time>2020-08-06T09:13:08Z</time>
      </trkpt>
      <trkpt lat="41.1511880" lon="0.5591320">
        <ele>143.9</ele>
        <time>2020-08-06T09:13:10Z</time>
      </trkpt>
      <trkpt lat="41.1511500" lon="0.5591210">
        <ele>143.9</ele>
        <time>2020-08-06T09:13:11Z</time>
      </trkpt>
      <trkpt lat="41.1511370" lon="0.5591180">
        <ele>144.0</ele>
        <time>2020-08-06T09:13:12Z</time>
      </trkpt>
      <trkpt lat="41.1511040" lon="0.5591090">
        <ele>144.0</ele>
        <time>2020-08-06T09:13:13Z</time>
      </trkpt>
      <trkpt lat="41.1510910" lon="0.5591060">
        <ele>144.0</ele>
        <time>2020-08-06T09:13:14Z</time>
      </trkpt>
      <trkpt lat="41.1510370" lon="0.5590870">
        <ele>144.1</ele>
        <time>2020-08-06T09:13:16Z</time>
      </trkpt>
      <trkpt lat="41.1510080" lon="0.5590760">
        <ele>144.2</ele>
        <time>2020-08-06T09:13:17Z</time>
      </trkpt>
      <trkpt lat="41.1509600" lon="0.5590550">
        <ele>144.3</ele>
        <time>2020-08-06T09:13:19Z</time>
      </trkpt>
      <trkpt lat="41.1509040" lon="0.5590310">
        <ele>144.3</ele>
        <time>2020-08-06T09:13:21Z</time>
      </trkpt>
      <trkpt lat="41.1508500" lon="0.5590050">
        <ele>144.4</ele>
        <time>2020-08-06T09:13:23Z</time>
      </trkpt>
      <trkpt lat="41.1508220" lon="0.5589910">
        <ele>144.4</ele>
        <time>2020-08-06T09:13:24Z</time>
      </trkpt>
      <trkpt lat="41.1507690" lon="0.5589660">
        <ele>144.5</ele>
        <time>2020-08-06T09:13:26Z</time>
      </trkpt>
      <trkpt lat="41.1507440" lon="0.5589530">
        <ele>144.5</ele>
        <time>2020-08-06T09:13:27Z</time>
      </trkpt>
      <trkpt lat="41.1506940" lon="0.5589220">
        <ele>144.5</ele>
        <time>2020-08-06T09:13:29Z</time>
      </trkpt>
      <trkpt lat="41.1506410" lon="0.5588880">
        <ele>144.6</ele>
        <time>2020-08-06T09:13:31Z</time>
      </trkpt>
      <trkpt lat="41.1506150" lon="0.5588720">
        <ele>144.7</ele>
        <time>2020-08-06T09:13:32Z</time>
      </trkpt>
      <trkpt lat="41.1505660" lon="0.5588390">
        <ele>144.7</ele>
        <time>2020-08-06T09:13:34Z</time>
      </trkpt>
      <trkpt lat="41.1505310" lon="0.5588190">
        <ele>144.8</ele>
        <time>2020-08-06T09:13:35Z</time>
      </trkpt>
      <trkpt lat="41.1505180" lon="0.5588120">
        <ele>144.8</ele>
        <time>2020-08-06T09:13:36Z</time>
      </trkpt>
      <trkpt lat="41.1504730" lon="0.5587880">
        <ele>144.9</ele>
        <time>2020-08-06T09:13:38Z</time>
      </trkpt>
      <trkpt lat="41.1504480" lon="0.5587740">
        <ele>144.9</ele>
        <time>2020-08-06T09:13:39Z</time>
      </trkpt>
      <trkpt lat="41.1503980" lon="0.5587440">
        <ele>145.0</ele>
        <time>2020-08-06T09:13:41Z</time>
      </trkpt>
      <trkpt lat="41.1503730" lon="0.5587300">
        <ele>145.0</ele>
        <time>2020-08-06T09:13:42Z</time>
      </trkpt>
      <trkpt lat="41.1503230" lon="0.5587030">
        <ele>145.1</ele>
        <time>2020-08-06T09:13:44Z</time>
      </trkpt>
      <trkpt lat="41.1502970" lon="0.5586890">
        <ele>145.1</ele>
        <time>2020-08-06T09:13:45Z</time>
      </trkpt>
      <trkpt lat="41.1502680" lon="0.5586710">
        <ele>145.2</ele>
        <time>2020-08-06T09:13:46Z</time>
      </trkpt>
      <trkpt lat="41.1502150" lon="0.5586340">
        <ele>145.3</ele>
        <time>2020-08-06T09:13:48Z</time>
      </trkpt>
      <trkpt lat="41.1501870" lon="0.5586120">
        <ele>145.3</ele>
        <time>2020-08-06T09:13:49Z</time>
      </trkpt>
      <trkpt lat="41.1501530" lon="0.5585840">
        <ele>145.4</ele>
        <time>2020-08-06T09:13:50Z</time>
      </trkpt>
      <trkpt lat="41.1501380" lon="0.5585740">
        <ele>145.4</ele>
        <time>2020-08-06T09:13:51Z</time>
      </trkpt>
      <trkpt lat="41.1501090" lon="0.5585540">
        <ele>145.4</ele>
        <time>2020-08-06T09:13:52Z</time>
      </trkpt>
      <trkpt lat="41.1500570" lon="0.5585170">
        <ele>145.5</ele>
        <time>2020-08-06T09:13:54Z</time>
      </trkpt>
      <trkpt lat="41.1500290" lon="0.5584970">
        <ele>145.5</ele>
        <time>2020-08-06T09:13:55Z</time>
      </trkpt>
      <trkpt lat="41.1500030" lon="0.5584800">
        <ele>145.6</ele>
        <time>2020-08-06T09:13:56Z</time>
      </trkpt>
      <trkpt lat="41.1499530" lon="0.5584520">
        <ele>145.6</ele>
        <time>2020-08-06T09:13:58Z</time>
      </trkpt>
      <trkpt lat="41.1499240" lon="0.5584350">
        <ele>145.6</ele>
        <time>2020-08-06T09:13:59Z</time>
      </trkpt>
      <trkpt lat="41.1498750" lon="0.5584070">
        <ele>145.7</ele>
        <time>2020-08-06T09:14:01Z</time>
      </trkpt>
      <trkpt lat="41.1498490" lon="0.5583920">
        <ele>145.7</ele>
        <time>2020-08-06T09:14:02Z</time>
      </trkpt>
      <trkpt lat="41.1497920" lon="0.5583580">
        <ele>145.7</ele>
        <time>2020-08-06T09:14:04Z</time>
      </trkpt>
      <trkpt lat="41.1497660" lon="0.5583430">
        <ele>145.7</ele>
        <time>2020-08-06T09:14:05Z</time>
      </trkpt>
      <trkpt lat="41.1497360" lon="0.5583270">
        <ele>145.7</ele>
        <time>2020-08-06T09:14:06Z</time>
      </trkpt>
      <trkpt lat="41.1496780" lon="0.5582980">
        <ele>145.6</ele>
        <time>2020-08-06T09:14:08Z</time>
      </trkpt>
      <trkpt lat="41.1496180" lon="0.5582690">
        <ele>145.5</ele>
        <time>2020-08-06T09:14:10Z</time>
      </trkpt>
      <trkpt lat="41.1495540" lon="0.5582400">
        <ele>145.4</ele>
        <time>2020-08-06T09:14:12Z</time>
      </trkpt>
      <trkpt lat="41.1495210" lon="0.5582270">
        <ele>145.3</ele>
        <time>2020-08-06T09:14:13Z</time>
      </trkpt>
      <trkpt lat="41.1494550" lon="0.5581910">
        <ele>145.1</ele>
        <time>2020-08-06T09:14:15Z</time>
      </trkpt>
      <trkpt lat="41.1494230" lon="0.5581690">
        <ele>145.0</ele>
        <time>2020-08-06T09:14:16Z</time>
      </trkpt>
      <trkpt lat="41.1493470" lon="0.5581200">
        <ele>144.6</ele>
        <time>2020-08-06T09:14:18Z</time>
      </trkpt>
      <trkpt lat="41.1493110" lon="0.5580990">
        <ele>144.5</ele>
        <time>2020-08-06T09:14:19Z</time>
      </trkpt>
      <trkpt lat="41.1492680" lon="0.5580770">
        <ele>144.3</ele>
        <time>2020-08-06T09:14:20Z</time>
      </trkpt>
      <trkpt lat="41.1491680" lon="0.5580240">
        <ele>143.8</ele>
        <time>2020-08-06T09:14:22Z</time>
      </trkpt>
      <trkpt lat="41.1490700" lon="0.5579720">
        <ele>143.2</ele>
        <time>2020-08-06T09:14:24Z</time>
      </trkpt>
      <trkpt lat="41.1490170" lon="0.5579440">
        <ele>142.8</ele>
        <time>2020-08-06T09:14:25Z</time>
      </trkpt>
      <trkpt lat="41.1489690" lon="0.5579150">
        <ele>142.4</ele>
        <time>2020-08-06T09:14:26Z</time>
      </trkpt>
      <trkpt lat="41.1489220" lon="0.5578850">
        <ele>142.0</ele>
        <time>2020-08-06T09:14:27Z</time>
      </trkpt>
      <trkpt lat="41.1488710" lon="0.5578580">
        <ele>141.6</ele>
        <time>2020-08-06T09:14:28Z</time>
      </trkpt>
      <trkpt lat="41.1488160" lon="0.5578240">
        <ele>141.1</ele>
        <time>2020-08-06T09:14:29Z</time>
      </trkpt>
      <trkpt lat="41.1486960" lon="0.5577510">
        <ele>140.3</ele>
        <time>2020-08-06T09:14:31Z</time>
      </trkpt>
      <trkpt lat="41.1486360" lon="0.5577190">
        <ele>140.0</ele>
        <time>2020-08-06T09:14:32Z</time>
      </trkpt>
      <trkpt lat="41.1485750" lon="0.5576860">
        <ele>139.7</ele>
        <time>2020-08-06T09:14:33Z</time>
      </trkpt>
      <trkpt lat="41.1485090" lon="0.5576480">
        <ele>139.3</ele>
        <time>2020-08-06T09:14:34Z</time>
      </trkpt>
      <trkpt lat="41.1483780" lon="0.5575890">
        <ele>138.6</ele>
        <time>2020-08-06T09:14:36Z</time>
      </trkpt>
      <trkpt lat="41.1483100" lon="0.5575580">
        <ele>138.4</ele>
        <time>2020-08-06T09:14:37Z</time>
      </trkpt>
      <trkpt lat="41.1481860" lon="0.5575290">
        <ele>138.0</ele>
        <time>2020-08-06T09:14:39Z</time>
      </trkpt>
      <trkpt lat="41.1481200" lon="0.5575110">
        <ele>137.8</ele>
        <time>2020-08-06T09:14:40Z</time>
      </trkpt>
      <trkpt lat="41.1480510" lon="0.5574840">
        <ele>137.7</ele>
        <time>2020-08-06T09:14:41Z</time>
      </trkpt>
      <trkpt lat="41.1479160" lon="0.5574430">
        <ele>137.5</ele>
        <time>2020-08-06T09:14:43Z</time>
      </trkpt>
      <trkpt lat="41.1477800" lon="0.5574110">
        <ele>137.4</ele>
        <time>2020-08-06T09:14:45Z</time>
      </trkpt>
      <trkpt lat="41.1477140" lon="0.5574060">
        <ele>137.4</ele>
        <time>2020-08-06T09:14:46Z</time>
      </trkpt>
      <trkpt lat="41.1475830" lon="0.5573940">
        <ele>137.6</ele>
        <time>2020-08-06T09:14:48Z</time>
      </trkpt>
      <trkpt lat="41.1474650" lon="0.5573910">
        <ele>137.8</ele>
        <time>2020-08-06T09:14:50Z</time>
      </trkpt>
      <trkpt lat="41.1473530" lon="0.5573970">
        <ele>138.2</ele>
        <time>2020-08-06T09:14:52Z</time>
      </trkpt>
      <trkpt lat="41.1473040" lon="0.5574010">
        <ele>138.4</ele>
        <time>2020-08-06T09:14:53Z</time>
      </trkpt>
      <trkpt lat="41.1472630" lon="0.5574080">
        <ele>138.6</ele>
        <time>2020-08-06T09:14:54Z</time>
      </trkpt>
      <trkpt lat="41.1471940" lon="0.5574240">
        <ele>138.9</ele>
        <time>2020-08-06T09:14:56Z</time>
      </trkpt>
      <trkpt lat="41.1471580" lon="0.5574300">
        <ele>139.1</ele>
        <time>2020-08-06T09:14:57Z</time>
      </trkpt>
      <trkpt lat="41.1470990" lon="0.5574380">
        <ele>139.4</ele>
        <time>2020-08-06T09:14:59Z</time>
      </trkpt>
      <trkpt lat="41.1470480" lon="0.5574510">
        <ele>139.7</ele>
        <time>2020-08-06T09:15:01Z</time>
      </trkpt>
      <trkpt lat="41.1470290" lon="0.5574550">
        <ele>139.7</ele>
        <time>2020-08-06T09:15:02Z</time>
      </trkpt>
      <trkpt lat="41.1469810" lon="0.5574760">
        <ele>140.0</ele>
        <time>2020-08-06T09:15:04Z</time>
      </trkpt>
      <trkpt lat="41.1469460" lon="0.5574860">
        <ele>140.2</ele>
        <time>2020-08-06T09:15:05Z</time>
      </trkpt>
      <trkpt lat="41.1469340" lon="0.5574890">
        <ele>140.3</ele>
        <time>2020-08-06T09:15:06Z</time>
      </trkpt>
      <trkpt lat="41.1469120" lon="0.5574950">
        <ele>140.4</ele>
        <time>2020-08-06T09:15:07Z</time>
      </trkpt>
      <trkpt lat="41.1468720" lon="0.5575110">
        <ele>140.6</ele>
        <time>2020-08-06T09:15:09Z</time>
      </trkpt>
      <trkpt lat="41.1468310" lon="0.5575250">
        <ele>140.9</ele>
        <time>2020-08-06T09:15:11Z</time>
      </trkpt>
      <trkpt lat="41.1468090" lon="0.5575340">
        <ele>141.0</ele>
        <time>2020-08-06T09:15:12Z</time>
      </trkpt>
      <trkpt lat="41.1467700" lon="0.5575550">
        <ele>141.3</ele>
        <time>2020-08-06T09:15:14Z</time>
      </trkpt>
      <trkpt lat="41.1467370" lon="0.5575700">
        <ele>141.5</ele>
        <time>2020-08-06T09:15:16Z</time>
      </trkpt>
      <trkpt lat="41.1467020" lon="0.5575760">
        <ele>141.8</ele>
        <time>2020-08-06T09:15:18Z</time>
      </trkpt>
      <trkpt lat="41.1466840" lon="0.5575810">
        <ele>141.9</ele>
        <time>2020-08-06T09:15:19Z</time>
      </trkpt>
      <trkpt lat="41.1466670" lon="0.5575850">
        <ele>142.0</ele>
        <time>2020-08-06T09:15:20Z</time>
      </trkpt>
      <trkpt lat="41.1466530" lon="0.5575910">
        <ele>142.1</ele>
        <time>2020-08-06T09:15:21Z</time>
      </trkpt>
      <trkpt lat="41.1466340" lon="0.5575980">
        <ele>142.3</ele>
        <time>2020-08-06T09:15:22Z</time>
      </trkpt>
      <trkpt lat="41.1465970" lon="0.5576100">
        <ele>142.5</ele>
        <time>2020-08-06T09:15:24Z</time>
      </trkpt>
      <trkpt lat="41.1465630" lon="0.5576270">
        <ele>142.8</ele>
        <time>2020-08-06T09:15:26Z</time>
      </trkpt>
      <trkpt lat="41.1465500" lon="0.5576310">
        <ele>142.9</ele>
        <time>2020-08-06T09:15:27Z</time>
      </trkpt>
      <trkpt lat="41.1465180" lon="0.5576460">
        <ele>143.1</ele>
        <time>2020-08-06T09:15:29Z</time>
      </trkpt>
      <trkpt lat="41.1465020" lon="0.5576570">
        <ele>143.2</ele>
        <time>2020-08-06T09:15:30Z</time>
      </trkpt>
      <trkpt lat="41.1464720" lon="0.5576790">
        <ele>143.4</ele>
        <time>2020-08-06T09:15:32Z</time>
      </trkpt>
      <trkpt lat="41.1464580" lon="0.5576890">
        <ele>143.6</ele>
        <time>2020-08-06T09:15:33Z</time>
      </trkpt>
      <trkpt lat="41.1464330" lon="0.5577080">
        <ele>143.7</ele>
        <time>2020-08-06T09:15:35Z</time>
      </trkpt>
      <trkpt lat="41.1464100" lon="0.5577280">
        <ele>143.9</ele>
        <time>2020-08-06T09:15:36Z</time>
      </trkpt>
      <trkpt lat="41.1464020" lon="0.5577340">
        <ele>144.0</ele>
        <time>2020-08-06T09:15:37Z</time>
      </trkpt>
      <trkpt lat="41.1463870" lon="0.5577460">
        <ele>144.1</ele>
        <time>2020-08-06T09:15:38Z</time>
      </trkpt>
      <trkpt lat="41.1463710" lon="0.5577610">
        <ele>144.2</ele>
        <time>2020-08-06T09:15:39Z</time>
      </trkpt>
      <trkpt lat="41.1463410" lon="0.5577830">
        <ele>144.4</ele>
        <time>2020-08-06T09:15:41Z</time>
      </trkpt>
      <trkpt lat="41.1463240" lon="0.5577960">
        <ele>144.6</ele>
        <time>2020-08-06T09:15:42Z</time>
      </trkpt>
      <trkpt lat="41.1462300" lon="0.5578820">
        <ele>145.3</ele>
        <time>2020-08-06T09:15:49Z</time>
      </trkpt>
      <trkpt lat="41.1462110" lon="0.5578990">
        <ele>145.4</ele>
        <time>2020-08-06T09:15:50Z</time>
      </trkpt>
      <trkpt lat="41.1461810" lon="0.5579350">
        <ele>145.7</ele>
        <time>2020-08-06T09:15:52Z</time>
      </trkpt>
      <trkpt lat="41.1461640" lon="0.5579550">
        <ele>145.9</ele>
        <time>2020-08-06T09:15:53Z</time>
      </trkpt>
      <trkpt lat="41.1461350" lon="0.5579890">
        <ele>146.1</ele>
        <time>2020-08-06T09:15:55Z</time>
      </trkpt>
      <trkpt lat="41.1461230" lon="0.5580060">
        <ele>146.3</ele>
        <time>2020-08-06T09:15:56Z</time>
      </trkpt>
      <trkpt lat="41.1460940" lon="0.5580390">
        <ele>146.5</ele>
        <time>2020-08-06T09:15:58Z</time>
      </trkpt>
      <trkpt lat="41.1460800" lon="0.5580530">
        <ele>146.6</ele>
        <time>2020-08-06T09:15:59Z</time>
      </trkpt>
      <trkpt lat="41.1460480" lon="0.5580850">
        <ele>146.9</ele>
        <time>2020-08-06T09:16:01Z</time>
      </trkpt>
      <trkpt lat="41.1460320" lon="0.5580990">
        <ele>147.0</ele>
        <time>2020-08-06T09:16:02Z</time>
      </trkpt>
      <trkpt lat="41.1460060" lon="0.5581220">
        <ele>147.2</ele>
        <time>2020-08-06T09:16:04Z</time>
      </trkpt>
      <trkpt lat="41.1459920" lon="0.5581330">
        <ele>147.3</ele>
        <time>2020-08-06T09:16:05Z</time>
      </trkpt>
      <trkpt lat="41.1459750" lon="0.5581470">
        <ele>147.5</ele>
        <time>2020-08-06T09:16:06Z</time>
      </trkpt>
      <trkpt lat="41.1459470" lon="0.5581730">
        <ele>147.7</ele>
        <time>2020-08-06T09:16:08Z</time>
      </trkpt>
      <trkpt lat="41.1459330" lon="0.5581830">
        <ele>147.8</ele>
        <time>2020-08-06T09:16:09Z</time>
      </trkpt>
      <trkpt lat="41.1459200" lon="0.5581960">
        <ele>147.9</ele>
        <time>2020-08-06T09:16:10Z</time>
      </trkpt>
      <trkpt lat="41.1458960" lon="0.5582150">
        <ele>148.1</ele>
        <time>2020-08-06T09:16:12Z</time>
      </trkpt>
      <trkpt lat="41.1458840" lon="0.5582260">
        <ele>148.2</ele>
        <time>2020-08-06T09:16:13Z</time>
      </trkpt>
      <trkpt lat="41.1458570" lon="0.5582590">
        <ele>148.4</ele>
        <time>2020-08-06T09:16:15Z</time>
      </trkpt>
      <trkpt lat="41.1458440" lon="0.5582740">
        <ele>148.5</ele>
        <time>2020-08-06T09:16:16Z</time>
      </trkpt>
      <trkpt lat="41.1458140" lon="0.5583090">
        <ele>148.8</ele>
        <time>2020-08-06T09:16:18Z</time>
      </trkpt>
      <trkpt lat="41.1457920" lon="0.5583310">
        <ele>148.9</ele>
        <time>2020-08-06T09:16:19Z</time>
      </trkpt>
      <trkpt lat="41.1457850" lon="0.5583380">
        <ele>149.0</ele>
        <time>2020-08-06T09:16:20Z</time>
      </trkpt>
      <trkpt lat="41.1457690" lon="0.5583520">
        <ele>149.1</ele>
        <time>2020-08-06T09:16:21Z</time>
      </trkpt>
      <trkpt lat="41.1457540" lon="0.5583650">
        <ele>149.2</ele>
        <time>2020-08-06T09:16:22Z</time>
      </trkpt>
      <trkpt lat="41.1457250" lon="0.5583870">
        <ele>149.4</ele>
        <time>2020-08-06T09:16:24Z</time>
      </trkpt>
      <trkpt lat="41.1457130" lon="0.5583990">
        <ele>149.5</ele>
        <time>2020-08-06T09:16:25Z</time>
      </trkpt>
      <trkpt lat="41.1456990" lon="0.5584100">
        <ele>149.6</ele>
        <time>2020-08-06T09:16:26Z</time>
      </trkpt>
      <trkpt lat="41.1456860" lon="0.5584230">
        <ele>149.6</ele>
        <time>2020-08-06T09:16:27Z</time>
      </trkpt>
      <trkpt lat="41.1456740" lon="0.5584360">
        <ele>149.7</ele>
        <time>2020-08-06T09:16:28Z</time>
      </trkpt>
      <trkpt lat="41.1456610" lon="0.5584490">
        <ele>149.8</ele>
        <time>2020-08-06T09:16:29Z</time>
      </trkpt>
      <trkpt lat="41.1456490" lon="0.5584620">
        <ele>149.9</ele>
        <time>2020-08-06T09:16:30Z</time>
      </trkpt>
      <trkpt lat="41.1456350" lon="0.5584740">
        <ele>150.0</ele>
        <time>2020-08-06T09:16:31Z</time>
      </trkpt>
      <trkpt lat="41.1456220" lon="0.5584860">
        <ele>150.0</ele>
        <time>2020-08-06T09:16:32Z</time>
      </trkpt>
      <trkpt lat="41.1455980" lon="0.5585110">
        <ele>150.2</ele>
        <time>2020-08-06T09:16:34Z</time>
      </trkpt>
      <trkpt lat="41.1455690" lon="0.5585350">
        <ele>150.4</ele>
        <time>2020-08-06T09:16:36Z</time>
      </trkpt>
      <trkpt lat="41.1455550" lon="0.5585470">
        <ele>150.5</ele>
        <time>2020-08-06T09:16:37Z</time>
      </trkpt>
      <trkpt lat="41.1455410" lon="0.5585590">
        <ele>150.6</ele>
        <time>2020-08-06T09:16:38Z</time>
      </trkpt>
      <trkpt lat="41.1455120" lon="0.5585860">
        <ele>150.9</ele>
        <time>2020-08-06T09:16:40Z</time>
      </trkpt>
      <trkpt lat="41.1454960" lon="0.5585970">
        <ele>151.0</ele>
        <time>2020-08-06T09:16:41Z</time>
      </trkpt>
      <trkpt lat="41.1454660" lon="0.5586210">
        <ele>151.2</ele>
        <time>2020-08-06T09:16:43Z</time>
      </trkpt>
      <trkpt lat="41.1454190" lon="0.5586510">
        <ele>151.5</ele>
        <time>2020-08-06T09:16:45Z</time>
      </trkpt>
      <trkpt lat="41.1454020" lon="0.5586600">
        <ele>151.6</ele>
        <time>2020-08-06T09:16:47Z</time>
      </trkpt>
      <trkpt lat="41.1453860" lon="0.5586700">
        <ele>151.7</ele>
        <time>2020-08-06T09:16:48Z</time>
      </trkpt>
      <trkpt lat="41.1453690" lon="0.5586790">
        <ele>151.8</ele>
        <time>2020-08-06T09:16:49Z</time>
      </trkpt>
      <trkpt lat="41.1453530" lon="0.5586890">
        <ele>151.9</ele>
        <time>2020-08-06T09:16:50Z</time>
      </trkpt>
      <trkpt lat="41.1453370" lon="0.5586960">
        <ele>152.0</ele>
        <time>2020-08-06T09:16:51Z</time>
      </trkpt>
      <trkpt lat="41.1453200" lon="0.5587050">
        <ele>152.1</ele>
        <time>2020-08-06T09:16:52Z</time>
      </trkpt>
      <trkpt lat="41.1453050" lon="0.5587140">
        <ele>152.2</ele>
        <time>2020-08-06T09:16:53Z</time>
      </trkpt>
      <trkpt lat="41.1452880" lon="0.5587220">
        <ele>152.3</ele>
        <time>2020-08-06T09:16:54Z</time>
      </trkpt>
      <trkpt lat="41.1452550" lon="0.5587370">
        <ele>152.5</ele>
        <time>2020-08-06T09:16:56Z</time>
      </trkpt>
      <trkpt lat="41.1452370" lon="0.5587450">
        <ele>152.7</ele>
        <time>2020-08-06T09:16:57Z</time>
      </trkpt>
      <trkpt lat="41.1452220" lon="0.5587520">
        <ele>152.8</ele>
        <time>2020-08-06T09:16:58Z</time>
      </trkpt>
      <trkpt lat="41.1451910" lon="0.5587630">
        <ele>153.0</ele>
        <time>2020-08-06T09:17:00Z</time>
      </trkpt>
      <trkpt lat="41.1451750" lon="0.5587670">
        <ele>153.1</ele>
        <time>2020-08-06T09:17:01Z</time>
      </trkpt>
      <trkpt lat="41.1451580" lon="0.5587730">
        <ele>153.2</ele>
        <time>2020-08-06T09:17:02Z</time>
      </trkpt>
      <trkpt lat="41.1451420" lon="0.5587790">
        <ele>153.3</ele>
        <time>2020-08-06T09:17:03Z</time>
      </trkpt>
      <trkpt lat="41.1451250" lon="0.5587840">
        <ele>153.5</ele>
        <time>2020-08-06T09:17:04Z</time>
      </trkpt>
      <trkpt lat="41.1451140" lon="0.5587880">
        <ele>153.5</ele>
        <time>2020-08-06T09:17:05Z</time>
      </trkpt>
      <trkpt lat="41.1450790" lon="0.5588060">
        <ele>153.8</ele>
        <time>2020-08-06T09:17:07Z</time>
      </trkpt>
      <trkpt lat="41.1450630" lon="0.5588130">
        <ele>153.9</ele>
        <time>2020-08-06T09:17:08Z</time>
      </trkpt>
      <trkpt lat="41.1450310" lon="0.5588300">
        <ele>154.1</ele>
        <time>2020-08-06T09:17:10Z</time>
      </trkpt>
      <trkpt lat="41.1450150" lon="0.5588370">
        <ele>154.2</ele>
        <time>2020-08-06T09:17:11Z</time>
      </trkpt>
      <trkpt lat="41.1449970" lon="0.5588400">
        <ele>154.4</ele>
        <time>2020-08-06T09:17:12Z</time>
      </trkpt>
      <trkpt lat="41.1449610" lon="0.5588440">
        <ele>154.6</ele>
        <time>2020-08-06T09:17:14Z</time>
      </trkpt>
      <trkpt lat="41.1449450" lon="0.5588460">
        <ele>154.7</ele>
        <time>2020-08-06T09:17:15Z</time>
      </trkpt>
      <trkpt lat="41.1449160" lon="0.5588510">
        <ele>154.9</ele>
        <time>2020-08-06T09:17:17Z</time>
      </trkpt>
      <trkpt lat="41.1448970" lon="0.5588520">
        <ele>155.1</ele>
        <time>2020-08-06T09:17:18Z</time>
      </trkpt>
      <trkpt lat="41.1448570" lon="0.5588600">
        <ele>155.4</ele>
        <time>2020-08-06T09:17:20Z</time>
      </trkpt>
      <trkpt lat="41.1448280" lon="0.5588610">
        <ele>155.6</ele>
        <time>2020-08-06T09:17:21Z</time>
      </trkpt>
      <trkpt lat="41.1448180" lon="0.5588610">
        <ele>155.6</ele>
        <time>2020-08-06T09:17:22Z</time>
      </trkpt>
      <trkpt lat="41.1447820" lon="0.5588630">
        <ele>155.9</ele>
        <time>2020-08-06T09:17:24Z</time>
      </trkpt>
      <trkpt lat="41.1447460" lon="0.5588610">
        <ele>156.1</ele>
        <time>2020-08-06T09:17:26Z</time>
      </trkpt>
      <trkpt lat="41.1447290" lon="0.5588600">
        <ele>156.2</ele>
        <time>2020-08-06T09:17:27Z</time>
      </trkpt>
      <trkpt lat="41.1446960" lon="0.5588600">
        <ele>156.4</ele>
        <time>2020-08-06T09:17:29Z</time>
      </trkpt>
      <trkpt lat="41.1446640" lon="0.5588650">
        <ele>156.6</ele>
        <time>2020-08-06T09:17:31Z</time>
      </trkpt>
      <trkpt lat="41.1446470" lon="0.5588660">
        <ele>156.7</ele>
        <time>2020-08-06T09:17:32Z</time>
      </trkpt>
      <trkpt lat="41.1446130" lon="0.5588660">
        <ele>156.9</ele>
        <time>2020-08-06T09:17:34Z</time>
      </trkpt>
      <trkpt lat="41.1445960" lon="0.5588650">
        <ele>157.0</ele>
        <time>2020-08-06T09:17:35Z</time>
      </trkpt>
      <trkpt lat="41.1445620" lon="0.5588640">
        <ele>157.2</ele>
        <time>2020-08-06T09:17:37Z</time>
      </trkpt>
      <trkpt lat="41.1445310" lon="0.5588590">
        <ele>157.4</ele>
        <time>2020-08-06T09:17:39Z</time>
      </trkpt>
      <trkpt lat="41.1445130" lon="0.5588540">
        <ele>157.6</ele>
        <time>2020-08-06T09:17:40Z</time>
      </trkpt>
      <trkpt lat="41.1444800" lon="0.5588410">
        <ele>157.8</ele>
        <time>2020-08-06T09:17:42Z</time>
      </trkpt>
      <trkpt lat="41.1444490" lon="0.5588260">
        <ele>158.1</ele>
        <time>2020-08-06T09:17:44Z</time>
      </trkpt>
      <trkpt lat="41.1444330" lon="0.5588210">
        <ele>158.2</ele>
        <time>2020-08-06T09:17:45Z</time>
      </trkpt>
      <trkpt lat="41.1444030" lon="0.5588100">
        <ele>158.4</ele>
        <time>2020-08-06T09:17:47Z</time>
      </trkpt>
      <trkpt lat="41.1443880" lon="0.5588020">
        <ele>158.6</ele>
        <time>2020-08-06T09:17:48Z</time>
      </trkpt>
      <trkpt lat="41.1443560" lon="0.5587900">
        <ele>158.8</ele>
        <time>2020-08-06T09:17:50Z</time>
      </trkpt>
      <trkpt lat="41.1443260" lon="0.5587750">
        <ele>159.0</ele>
        <time>2020-08-06T09:17:52Z</time>
      </trkpt>
      <trkpt lat="41.1443110" lon="0.5587680">
        <ele>159.1</ele>
        <time>2020-08-06T09:17:53Z</time>
      </trkpt>
      <trkpt lat="41.1442950" lon="0.5587600">
        <ele>159.2</ele>
        <time>2020-08-06T09:17:54Z</time>
      </trkpt>
      <trkpt lat="41.1442790" lon="0.5587530">
        <ele>159.3</ele>
        <time>2020-08-06T09:17:55Z</time>
      </trkpt>
      <trkpt lat="41.1442640" lon="0.5587450">
        <ele>159.4</ele>
        <time>2020-08-06T09:17:56Z</time>
      </trkpt>
      <trkpt lat="41.1442480" lon="0.5587360">
        <ele>159.6</ele>
        <time>2020-08-06T09:17:57Z</time>
      </trkpt>
      <trkpt lat="41.1442170" lon="0.5587210">
        <ele>159.8</ele>
        <time>2020-08-06T09:17:59Z</time>
      </trkpt>
      <trkpt lat="41.1442000" lon="0.5587130">
        <ele>159.9</ele>
        <time>2020-08-06T09:18:00Z</time>
      </trkpt>
      <trkpt lat="41.1441840" lon="0.5587050">
        <ele>160.0</ele>
        <time>2020-08-06T09:18:01Z</time>
      </trkpt>
      <trkpt lat="41.1441660" lon="0.5586970">
        <ele>160.1</ele>
        <time>2020-08-06T09:18:02Z</time>
      </trkpt>
      <trkpt lat="41.1441500" lon="0.5586880">
        <ele>160.2</ele>
        <time>2020-08-06T09:18:03Z</time>
      </trkpt>
      <trkpt lat="41.1441180" lon="0.5586700">
        <ele>160.4</ele>
        <time>2020-08-06T09:18:05Z</time>
      </trkpt>
      <trkpt lat="41.1441030" lon="0.5586600">
        <ele>160.5</ele>
        <time>2020-08-06T09:18:06Z</time>
      </trkpt>
      <trkpt lat="41.1440750" lon="0.5586440">
        <ele>160.7</ele>
        <time>2020-08-06T09:18:08Z</time>
      </trkpt>
      <trkpt lat="41.1440600" lon="0.5586350">
        <ele>160.8</ele>
        <time>2020-08-06T09:18:09Z</time>
      </trkpt>
      <trkpt lat="41.1440460" lon="0.5586260">
        <ele>160.8</ele>
        <time>2020-08-06T09:18:10Z</time>
      </trkpt>
      <trkpt lat="41.1440190" lon="0.5586090">
        <ele>161.0</ele>
        <time>2020-08-06T09:18:12Z</time>
      </trkpt>
      <trkpt lat="41.1440050" lon="0.5586010">
        <ele>161.1</ele>
        <time>2020-08-06T09:18:13Z</time>
      </trkpt>
      <trkpt lat="41.1439780" lon="0.5585820">
        <ele>161.3</ele>
        <time>2020-08-06T09:18:15Z</time>
      </trkpt>
      <trkpt lat="41.1439640" lon="0.5585710">
        <ele>161.4</ele>
        <time>2020-08-06T09:18:16Z</time>
      </trkpt>
      <trkpt lat="41.1439510" lon="0.5585600">
        <ele>161.5</ele>
        <time>2020-08-06T09:18:17Z</time>
      </trkpt>
      <trkpt lat="41.1439380" lon="0.5585490">
        <ele>161.6</ele>
        <time>2020-08-06T09:18:18Z</time>
      </trkpt>
      <trkpt lat="41.1439100" lon="0.5585220">
        <ele>161.8</ele>
        <time>2020-08-06T09:18:20Z</time>
      </trkpt>
      <trkpt lat="41.1438960" lon="0.5585070">
        <ele>161.9</ele>
        <time>2020-08-06T09:18:21Z</time>
      </trkpt>
      <trkpt lat="41.1438820" lon="0.5584920">
        <ele>162.0</ele>
        <time>2020-08-06T09:18:22Z</time>
      </trkpt>
      <trkpt lat="41.1438620" lon="0.5584690">
        <ele>162.2</ele>
        <time>2020-08-06T09:18:23Z</time>
      </trkpt>
      <trkpt lat="41.1438540" lon="0.5584610">
        <ele>162.3</ele>
        <time>2020-08-06T09:18:24Z</time>
      </trkpt>
      <trkpt lat="41.1438300" lon="0.5584270">
        <ele>162.5</ele>
        <time>2020-08-06T09:18:26Z</time>
      </trkpt>
      <trkpt lat="41.1438180" lon="0.5584100">
        <ele>162.6</ele>
        <time>2020-08-06T09:18:27Z</time>
      </trkpt>
      <trkpt lat="41.1438070" lon="0.5583920">
        <ele>162.7</ele>
        <time>2020-08-06T09:18:28Z</time>
      </trkpt>
      <trkpt lat="41.1437860" lon="0.5583560">
        <ele>163.0</ele>
        <time>2020-08-06T09:18:30Z</time>
      </trkpt>
      <trkpt lat="41.1437750" lon="0.5583390">
        <ele>163.1</ele>
        <time>2020-08-06T09:18:31Z</time>
      </trkpt>
      <trkpt lat="41.1437510" lon="0.5583010">
        <ele>163.3</ele>
        <time>2020-08-06T09:18:33Z</time>
      </trkpt>
      <trkpt lat="41.1437440" lon="0.5582880">
        <ele>163.4</ele>
        <time>2020-08-06T09:18:34Z</time>
      </trkpt>
      <trkpt lat="41.1437300" lon="0.5582690">
        <ele>163.5</ele>
        <time>2020-08-06T09:18:35Z</time>
      </trkpt>
      <trkpt lat="41.1437110" lon="0.5582400">
        <ele>163.7</ele>
        <time>2020-08-06T09:18:36Z</time>
      </trkpt>
      <trkpt lat="41.1437040" lon="0.5582320">
        <ele>163.7</ele>
        <time>2020-08-06T09:18:37Z</time>
      </trkpt>
      <trkpt lat="41.1436690" lon="0.5581880">
        <ele>164.0</ele>
        <time>2020-08-06T09:18:39Z</time>
      </trkpt>
      <trkpt lat="41.1436590" lon="0.5581750">
        <ele>164.0</ele>
        <time>2020-08-06T09:18:40Z</time>
      </trkpt>
      <trkpt lat="41.1436500" lon="0.5581620">
        <ele>164.1</ele>
        <time>2020-08-06T09:18:41Z</time>
      </trkpt>
      <trkpt lat="41.1436250" lon="0.5581260">
        <ele>164.3</ele>
        <time>2020-08-06T09:18:43Z</time>
      </trkpt>
      <trkpt lat="41.1436120" lon="0.5581060">
        <ele>164.4</ele>
        <time>2020-08-06T09:18:44Z</time>
      </trkpt>
      <trkpt lat="41.1435930" lon="0.5580670">
        <ele>164.5</ele>
        <time>2020-08-06T09:18:46Z</time>
      </trkpt>
      <trkpt lat="41.1435820" lon="0.5580470">
        <ele>164.6</ele>
        <time>2020-08-06T09:18:47Z</time>
      </trkpt>
      <trkpt lat="41.1435640" lon="0.5580100">
        <ele>164.7</ele>
        <time>2020-08-06T09:18:49Z</time>
      </trkpt>
      <trkpt lat="41.1435440" lon="0.5579650">
        <ele>164.9</ele>
        <time>2020-08-06T09:18:51Z</time>
      </trkpt>
      <trkpt lat="41.1435340" lon="0.5579440">
        <ele>165.0</ele>
        <time>2020-08-06T09:18:52Z</time>
      </trkpt>
      <trkpt lat="41.1435150" lon="0.5579040">
        <ele>165.2</ele>
        <time>2020-08-06T09:18:54Z</time>
      </trkpt>
      <trkpt lat="41.1435070" lon="0.5578840">
        <ele>165.2</ele>
        <time>2020-08-06T09:18:55Z</time>
      </trkpt>
      <trkpt lat="41.1435000" lon="0.5578640">
        <ele>165.3</ele>
        <time>2020-08-06T09:18:56Z</time>
      </trkpt>
      <trkpt lat="41.1434940" lon="0.5578440">
        <ele>165.4</ele>
        <time>2020-08-06T09:18:57Z</time>
      </trkpt>
      <trkpt lat="41.1434880" lon="0.5578250">
        <ele>165.5</ele>
        <time>2020-08-06T09:18:58Z</time>
      </trkpt>
      <trkpt lat="41.1434790" lon="0.5577840">
        <ele>165.6</ele>
        <time>2020-08-06T09:19:00Z</time>
      </trkpt>
      <trkpt lat="41.1434730" lon="0.5577620">
        <ele>165.7</ele>
        <time>2020-08-06T09:19:01Z</time>
      </trkpt>
      <trkpt lat="41.1434610" lon="0.5577180">
        <ele>165.8</ele>
        <time>2020-08-06T09:19:03Z</time>
      </trkpt>
      <trkpt lat="41.1434560" lon="0.5576970">
        <ele>165.9</ele>
        <time>2020-08-06T09:19:04Z</time>
      </trkpt>
      <trkpt lat="41.1434510" lon="0.5576740">
        <ele>165.9</ele>
        <time>2020-08-06T09:19:05Z</time>
      </trkpt>
      <trkpt lat="41.1434360" lon="0.5576230">
        <ele>166.1</ele>
        <time>2020-08-06T09:19:07Z</time>
      </trkpt>
      <trkpt lat="41.1434270" lon="0.5575850">
        <ele>166.2</ele>
        <time>2020-08-06T09:19:08Z</time>
      </trkpt>
      <trkpt lat="41.1434230" lon="0.5575730">
        <ele>166.2</ele>
        <time>2020-08-06T09:19:09Z</time>
      </trkpt>
      <trkpt lat="41.1434080" lon="0.5575180">
        <ele>166.3</ele>
        <time>2020-08-06T09:19:11Z</time>
      </trkpt>
      <trkpt lat="41.1433970" lon="0.5574760">
        <ele>166.4</ele>
        <time>2020-08-06T09:19:12Z</time>
      </trkpt>
      <trkpt lat="41.1433940" lon="0.5574640">
        <ele>166.5</ele>
        <time>2020-08-06T09:19:13Z</time>
      </trkpt>
      <trkpt lat="41.1433800" lon="0.5573970">
        <ele>166.6</ele>
        <time>2020-08-06T09:19:15Z</time>
      </trkpt>
      <trkpt lat="41.1433690" lon="0.5573510">
        <ele>166.7</ele>
        <time>2020-08-06T09:19:16Z</time>
      </trkpt>
      <trkpt lat="41.1433650" lon="0.5573360">
        <ele>166.8</ele>
        <time>2020-08-06T09:19:17Z</time>
      </trkpt>
      <trkpt lat="41.1433590" lon="0.5573110">
        <ele>166.8</ele>
        <time>2020-08-06T09:19:18Z</time>
      </trkpt>
      <trkpt lat="41.1433490" lon="0.5572570">
        <ele>166.9</ele>
        <time>2020-08-06T09:19:20Z</time>
      </trkpt>
      <trkpt lat="41.1433420" lon="0.5572250">
        <ele>167.0</ele>
        <time>2020-08-06T09:19:21Z</time>
      </trkpt>
      <trkpt lat="41.1433170" lon="0.5571530">
        <ele>167.1</ele>
        <time>2020-08-06T09:19:23Z</time>
      </trkpt>
      <trkpt lat="41.1433040" lon="0.5571170">
        <ele>167.2</ele>
        <time>2020-08-06T09:19:24Z</time>
      </trkpt>
      <trkpt lat="41.1432920" lon="0.5570830">
        <ele>167.2</ele>
        <time>2020-08-06T09:19:25Z</time>
      </trkpt>
      <trkpt lat="41.1432740" lon="0.5570210">
        <ele>167.3</ele>
        <time>2020-08-06T09:19:27Z</time>
      </trkpt>
      <trkpt lat="41.1432620" lon="0.5569640">
        <ele>167.4</ele>
        <time>2020-08-06T09:19:29Z</time>
      </trkpt>
      <trkpt lat="41.1432580" lon="0.5569390">
        <ele>167.4</ele>
        <time>2020-08-06T09:19:30Z</time>
      </trkpt>
      <trkpt lat="41.1432460" lon="0.5568750">
        <ele>167.4</ele>
        <time>2020-08-06T09:19:32Z</time>
      </trkpt>
      <trkpt lat="41.1432390" lon="0.5568190">
        <ele>167.4</ele>
        <time>2020-08-06T09:19:34Z</time>
      </trkpt>
      <trkpt lat="41.1432270" lon="0.5567490">
        <ele>167.4</ele>
        <time>2020-08-06T09:19:36Z</time>
      </trkpt>
      <trkpt lat="41.1432200" lon="0.5567100">
        <ele>167.4</ele>
        <time>2020-08-06T09:19:37Z</time>
      </trkpt>
      <trkpt lat="41.1432140" lon="0.5566710">
        <ele>167.3</ele>
        <time>2020-08-06T09:19:38Z</time>
      </trkpt>
      <trkpt lat="41.1432090" lon="0.5566310">
        <ele>167.3</ele>
        <time>2020-08-06T09:19:39Z</time>
      </trkpt>
      <trkpt lat="41.1431990" lon="0.5565460">
        <ele>167.3</ele>
        <time>2020-08-06T09:19:41Z</time>
      </trkpt>
      <trkpt lat="41.1431820" lon="0.5564580">
        <ele>167.3</ele>
        <time>2020-08-06T09:19:43Z</time>
      </trkpt>
      <trkpt lat="41.1431740" lon="0.5564130">
        <ele>167.3</ele>
        <time>2020-08-06T09:19:44Z</time>
      </trkpt>
      <trkpt lat="41.1431590" lon="0.5563240">
        <ele>167.2</ele>
        <time>2020-08-06T09:19:46Z</time>
      </trkpt>
      <trkpt lat="41.1431510" lon="0.5562760">
        <ele>167.2</ele>
        <time>2020-08-06T09:19:47Z</time>
      </trkpt>
      <trkpt lat="41.1431430" lon="0.5562330">
        <ele>167.2</ele>
        <time>2020-08-06T09:19:48Z</time>
      </trkpt>
      <trkpt lat="41.1431240" lon="0.5561370">
        <ele>167.2</ele>
        <time>2020-08-06T09:19:50Z</time>
      </trkpt>
      <trkpt lat="41.1431140" lon="0.5560800">
        <ele>167.1</ele>
        <time>2020-08-06T09:19:51Z</time>
      </trkpt>
      <trkpt lat="41.1430950" lon="0.5559770">
        <ele>167.0</ele>
        <time>2020-08-06T09:19:53Z</time>
      </trkpt>
      <trkpt lat="41.1430750" lon="0.5558680">
        <ele>166.9</ele>
        <time>2020-08-06T09:19:55Z</time>
      </trkpt>
      <trkpt lat="41.1430640" lon="0.5558070">
        <ele>166.9</ele>
        <time>2020-08-06T09:19:56Z</time>
      </trkpt>
      <trkpt lat="41.1430540" lon="0.5557570">
        <ele>166.9</ele>
        <time>2020-08-06T09:19:57Z</time>
      </trkpt>
      <trkpt lat="41.1430320" lon="0.5556530">
        <ele>166.8</ele>
        <time>2020-08-06T09:19:59Z</time>
      </trkpt>
      <trkpt lat="41.1430200" lon="0.5556010">
        <ele>166.7</ele>
        <time>2020-08-06T09:20:00Z</time>
      </trkpt>
      <trkpt lat="41.1430110" lon="0.5555580">
        <ele>166.7</ele>
        <time>2020-08-06T09:20:01Z</time>
      </trkpt>
      <trkpt lat="41.1429890" lon="0.5554650">
        <ele>166.6</ele>
        <time>2020-08-06T09:20:03Z</time>
      </trkpt>
      <trkpt lat="41.1429760" lon="0.5554160">
        <ele>166.6</ele>
        <time>2020-08-06T09:20:04Z</time>
      </trkpt>
      <trkpt lat="41.1429610" lon="0.5553670">
        <ele>166.6</ele>
        <time>2020-08-06T09:20:05Z</time>
      </trkpt>
      <trkpt lat="41.1429330" lon="0.5552770">
        <ele>166.5</ele>
        <time>2020-08-06T09:20:07Z</time>
      </trkpt>
      <trkpt lat="41.1428980" lon="0.5551800">
        <ele>166.4</ele>
        <time>2020-08-06T09:20:09Z</time>
      </trkpt>
      <trkpt lat="41.1428780" lon="0.5551300">
        <ele>166.4</ele>
        <time>2020-08-06T09:20:10Z</time>
      </trkpt>
      <trkpt lat="41.1428390" lon="0.5550450">
        <ele>166.3</ele>
        <time>2020-08-06T09:20:12Z</time>
      </trkpt>
      <trkpt lat="41.1427970" lon="0.5549520">
        <ele>166.2</ele>
        <time>2020-08-06T09:20:14Z</time>
      </trkpt>
      <trkpt lat="41.1427780" lon="0.5549110">
        <ele>166.2</ele>
        <time>2020-08-06T09:20:15Z</time>
      </trkpt>
      <trkpt lat="41.1427540" lon="0.5548640">
        <ele>166.1</ele>
        <time>2020-08-06T09:20:16Z</time>
      </trkpt>
      <trkpt lat="41.1427320" lon="0.5548220">
        <ele>166.1</ele>
        <time>2020-08-06T09:20:17Z</time>
      </trkpt>
      <trkpt lat="41.1427100" lon="0.5547810">
        <ele>166.0</ele>
        <time>2020-08-06T09:20:18Z</time>
      </trkpt>
      <trkpt lat="41.1426870" lon="0.5547410">
        <ele>166.0</ele>
        <time>2020-08-06T09:20:19Z</time>
      </trkpt>
      <trkpt lat="41.1426380" lon="0.5546570">
        <ele>165.9</ele>
        <time>2020-08-06T09:20:21Z</time>
      </trkpt>
      <trkpt lat="41.1426090" lon="0.5546090">
        <ele>165.8</ele>
        <time>2020-08-06T09:20:22Z</time>
      </trkpt>
      <trkpt lat="41.1425830" lon="0.5545680">
        <ele>165.8</ele>
        <time>2020-08-06T09:20:23Z</time>
      </trkpt>
      <trkpt lat="41.1425510" lon="0.5545210">
        <ele>165.7</ele>
        <time>2020-08-06T09:20:24Z</time>
      </trkpt>
      <trkpt lat="41.1424930" lon="0.5544430">
        <ele>165.6</ele>
        <time>2020-08-06T09:20:26Z</time>
      </trkpt>
      <trkpt lat="41.1424660" lon="0.5544110">
        <ele>165.6</ele>
        <time>2020-08-06T09:20:27Z</time>
      </trkpt>
      <trkpt lat="41.1424030" lon="0.5543420">
        <ele>165.4</ele>
        <time>2020-08-06T09:20:29Z</time>
      </trkpt>
      <trkpt lat="41.1423680" lon="0.5543050">
        <ele>165.4</ele>
        <time>2020-08-06T09:20:30Z</time>
      </trkpt>
      <trkpt lat="41.1423390" lon="0.5542750">
        <ele>165.3</ele>
        <time>2020-08-06T09:20:31Z</time>
      </trkpt>
      <trkpt lat="41.1423070" lon="0.5542420">
        <ele>165.3</ele>
        <time>2020-08-06T09:20:32Z</time>
      </trkpt>
      <trkpt lat="41.1422470" lon="0.5541900">
        <ele>165.2</ele>
        <time>2020-08-06T09:20:34Z</time>
      </trkpt>
      <trkpt lat="41.1421860" lon="0.5541370">
        <ele>165.2</ele>
        <time>2020-08-06T09:20:36Z</time>
      </trkpt>
      <trkpt lat="41.1421530" lon="0.5541110">
        <ele>165.1</ele>
        <time>2020-08-06T09:20:37Z</time>
      </trkpt>
      <trkpt lat="41.1420830" lon="0.5540660">
        <ele>165.1</ele>
        <time>2020-08-06T09:20:39Z</time>
      </trkpt>
      <trkpt lat="41.1420500" lon="0.5540480">
        <ele>165.1</ele>
        <time>2020-08-06T09:20:40Z</time>
      </trkpt>
      <trkpt lat="41.1420110" lon="0.5540260">
        <ele>165.1</ele>
        <time>2020-08-06T09:20:41Z</time>
      </trkpt>
      <trkpt lat="41.1419760" lon="0.5540060">
        <ele>165.1</ele>
        <time>2020-08-06T09:20:42Z</time>
      </trkpt>
      <trkpt lat="41.1419420" lon="0.5539870">
        <ele>165.1</ele>
        <time>2020-08-06T09:20:43Z</time>
      </trkpt>
      <trkpt lat="41.1418720" lon="0.5539520">
        <ele>165.1</ele>
        <time>2020-08-06T09:20:45Z</time>
      </trkpt>
      <trkpt lat="41.1418320" lon="0.5539330">
        <ele>165.1</ele>
        <time>2020-08-06T09:20:46Z</time>
      </trkpt>
      <trkpt lat="41.1417600" lon="0.5539000">
        <ele>165.2</ele>
        <time>2020-08-06T09:20:48Z</time>
      </trkpt>
      <trkpt lat="41.1417220" lon="0.5538840">
        <ele>165.2</ele>
        <time>2020-08-06T09:20:49Z</time>
      </trkpt>
      <trkpt lat="41.1416890" lon="0.5538720">
        <ele>165.3</ele>
        <time>2020-08-06T09:20:50Z</time>
      </trkpt>
      <trkpt lat="41.1416570" lon="0.5538590">
        <ele>165.3</ele>
        <time>2020-08-06T09:20:51Z</time>
      </trkpt>
      <trkpt lat="41.1415840" lon="0.5538280">
        <ele>165.5</ele>
        <time>2020-08-06T09:20:53Z</time>
      </trkpt>
      <trkpt lat="41.1415590" lon="0.5538170">
        <ele>165.6</ele>
        <time>2020-08-06T09:20:54Z</time>
      </trkpt>
      <trkpt lat="41.1414990" lon="0.5537960">
        <ele>165.7</ele>
        <time>2020-08-06T09:20:56Z</time>
      </trkpt>
      <trkpt lat="41.1414440" lon="0.5537720">
        <ele>165.9</ele>
        <time>2020-08-06T09:20:58Z</time>
      </trkpt>
      <trkpt lat="41.1414150" lon="0.5537620">
        <ele>166.0</ele>
        <time>2020-08-06T09:20:59Z</time>
      </trkpt>
      <trkpt lat="41.1413640" lon="0.5537460">
        <ele>166.2</ele>
        <time>2020-08-06T09:21:01Z</time>
      </trkpt>
      <trkpt lat="41.1413330" lon="0.5537350">
        <ele>166.3</ele>
        <time>2020-08-06T09:21:02Z</time>
      </trkpt>
      <trkpt lat="41.1412840" lon="0.5537170">
        <ele>166.5</ele>
        <time>2020-08-06T09:21:04Z</time>
      </trkpt>
      <trkpt lat="41.1412480" lon="0.5537030">
        <ele>166.6</ele>
        <time>2020-08-06T09:21:05Z</time>
      </trkpt>
      <trkpt lat="41.1412360" lon="0.5537000">
        <ele>166.6</ele>
        <time>2020-08-06T09:21:06Z</time>
      </trkpt>
      <trkpt lat="41.1412100" lon="0.5536910">
        <ele>166.7</ele>
        <time>2020-08-06T09:21:07Z</time>
      </trkpt>
      <trkpt lat="41.1411620" lon="0.5536730">
        <ele>166.9</ele>
        <time>2020-08-06T09:21:09Z</time>
      </trkpt>
      <trkpt lat="41.1411350" lon="0.5536640">
        <ele>167.1</ele>
        <time>2020-08-06T09:21:10Z</time>
      </trkpt>
      <trkpt lat="41.1410900" lon="0.5536480">
        <ele>167.2</ele>
        <time>2020-08-06T09:21:12Z</time>
      </trkpt>
      <trkpt lat="41.1410410" lon="0.5536280">
        <ele>167.5</ele>
        <time>2020-08-06T09:21:14Z</time>
      </trkpt>
      <trkpt lat="41.1410210" lon="0.5536190">
        <ele>167.6</ele>
        <time>2020-08-06T09:21:15Z</time>
      </trkpt>
      <trkpt lat="41.1409790" lon="0.5536060">
        <ele>167.8</ele>
        <time>2020-08-06T09:21:17Z</time>
      </trkpt>
      <trkpt lat="41.1409470" lon="0.5535970">
        <ele>167.9</ele>
        <time>2020-08-06T09:21:18Z</time>
      </trkpt>
      <trkpt lat="41.1409370" lon="0.5535940">
        <ele>168.0</ele>
        <time>2020-08-06T09:21:19Z</time>
      </trkpt>
      <trkpt lat="41.1408990" lon="0.5535850">
        <ele>168.2</ele>
        <time>2020-08-06T09:21:21Z</time>
      </trkpt>
      <trkpt lat="41.1408620" lon="0.5535740">
        <ele>168.4</ele>
        <time>2020-08-06T09:21:23Z</time>
      </trkpt>
      <trkpt lat="41.1408440" lon="0.5535670">
        <ele>168.5</ele>
        <time>2020-08-06T09:21:24Z</time>
      </trkpt>
      <trkpt lat="41.1408070" lon="0.5535530">
        <ele>168.7</ele>
        <time>2020-08-06T09:21:26Z</time>
      </trkpt>
      <trkpt lat="41.1407780" lon="0.5535420">
        <ele>168.9</ele>
        <time>2020-08-06T09:21:27Z</time>
      </trkpt>
      <trkpt lat="41.1407680" lon="0.5535390">
        <ele>169.0</ele>
        <time>2020-08-06T09:21:28Z</time>
      </trkpt>
      <trkpt lat="41.1407290" lon="0.5535270">
        <ele>169.2</ele>
        <time>2020-08-06T09:21:30Z</time>
      </trkpt>
      <trkpt lat="41.1406990" lon="0.5535160">
        <ele>169.4</ele>
        <time>2020-08-06T09:21:31Z</time>
      </trkpt>
      <trkpt lat="41.1406890" lon="0.5535130">
        <ele>169.4</ele>
        <time>2020-08-06T09:21:32Z</time>
      </trkpt>
      <trkpt lat="41.1406740" lon="0.5535080">
        <ele>169.5</ele>
        <time>2020-08-06T09:21:33Z</time>
      </trkpt>
      <trkpt lat="41.1406390" lon="0.5534940">
        <ele>169.7</ele>
        <time>2020-08-06T09:21:35Z</time>
      </trkpt>
      <trkpt lat="41.1406070" lon="0.5534760">
        <ele>169.9</ele>
        <time>2020-08-06T09:21:36Z</time>
      </trkpt>
      <trkpt lat="41.1405970" lon="0.5534710">
        <ele>169.9</ele>
        <time>2020-08-06T09:21:37Z</time>
      </trkpt>
      <trkpt lat="41.1405590" lon="0.5534540">
        <ele>170.1</ele>
        <time>2020-08-06T09:21:39Z</time>
      </trkpt>
      <trkpt lat="41.1405340" lon="0.5534410">
        <ele>170.3</ele>
        <time>2020-08-06T09:21:40Z</time>
      </trkpt>
      <trkpt lat="41.1405250" lon="0.5534360">
        <ele>170.3</ele>
        <time>2020-08-06T09:21:41Z</time>
      </trkpt>
      <trkpt lat="41.1404910" lon="0.5534170">
        <ele>170.5</ele>
        <time>2020-08-06T09:21:43Z</time>
      </trkpt>
      <trkpt lat="41.1404740" lon="0.5534090">
        <ele>170.6</ele>
        <time>2020-08-06T09:21:44Z</time>
      </trkpt>
      <trkpt lat="41.1404580" lon="0.5534000">
        <ele>170.7</ele>
        <time>2020-08-06T09:21:45Z</time>
      </trkpt>
      <trkpt lat="41.1404240" lon="0.5533860">
        <ele>170.9</ele>
        <time>2020-08-06T09:21:47Z</time>
      </trkpt>
      <trkpt lat="41.1403910" lon="0.5533780">
        <ele>171.1</ele>
        <time>2020-08-06T09:21:49Z</time>
      </trkpt>
      <trkpt lat="41.1403740" lon="0.5533740">
        <ele>171.2</ele>
        <time>2020-08-06T09:21:50Z</time>
      </trkpt>
      <trkpt lat="41.1403610" lon="0.5533680">
        <ele>171.3</ele>
        <time>2020-08-06T09:21:51Z</time>
      </trkpt>
      <trkpt lat="41.1403160" lon="0.5533510">
        <ele>171.5</ele>
        <time>2020-08-06T09:21:53Z</time>
      </trkpt>
      <trkpt lat="41.1402960" lon="0.5533440">
        <ele>171.6</ele>
        <time>2020-08-06T09:21:54Z</time>
      </trkpt>
      <trkpt lat="41.1402540" lon="0.5533200">
        <ele>171.8</ele>
        <time>2020-08-06T09:21:56Z</time>
      </trkpt>
      <trkpt lat="41.1402230" lon="0.5533050">
        <ele>172.0</ele>
        <time>2020-08-06T09:21:57Z</time>
      </trkpt>
      <trkpt lat="41.1402120" lon="0.5533010">
        <ele>172.1</ele>
        <time>2020-08-06T09:21:58Z</time>
      </trkpt>
      <trkpt lat="41.1401810" lon="0.5532880">
        <ele>172.3</ele>
        <time>2020-08-06T09:21:59Z</time>
      </trkpt>
      <trkpt lat="41.1401710" lon="0.5532840">
        <ele>172.3</ele>
        <time>2020-08-06T09:22:00Z</time>
      </trkpt>
      <trkpt lat="41.1401300" lon="0.5532680">
        <ele>172.5</ele>
        <time>2020-08-06T09:22:02Z</time>
      </trkpt>
      <trkpt lat="41.1401020" lon="0.5532590">
        <ele>172.7</ele>
        <time>2020-08-06T09:22:03Z</time>
      </trkpt>
      <trkpt lat="41.1400920" lon="0.5532570">
        <ele>172.7</ele>
        <time>2020-08-06T09:22:04Z</time>
      </trkpt>
      <trkpt lat="41.1400510" lon="0.5532440">
        <ele>172.9</ele>
        <time>2020-08-06T09:22:06Z</time>
      </trkpt>
      <trkpt lat="41.1400100" lon="0.5532260">
        <ele>173.1</ele>
        <time>2020-08-06T09:22:08Z</time>
      </trkpt>
      <trkpt lat="41.1399810" lon="0.5532140">
        <ele>173.2</ele>
        <time>2020-08-06T09:22:09Z</time>
      </trkpt>
      <trkpt lat="41.1399730" lon="0.5532110">
        <ele>173.2</ele>
        <time>2020-08-06T09:22:10Z</time>
      </trkpt>
      <trkpt lat="41.1399330" lon="0.5531990">
        <ele>173.3</ele>
        <time>2020-08-06T09:22:12Z</time>
      </trkpt>
      <trkpt lat="41.1399110" lon="0.5531920">
        <ele>173.4</ele>
        <time>2020-08-06T09:22:13Z</time>
      </trkpt>
      <trkpt lat="41.1398720" lon="0.5531780">
        <ele>173.5</ele>
        <time>2020-08-06T09:22:15Z</time>
      </trkpt>
      <trkpt lat="41.1398520" lon="0.5531740">
        <ele>173.5</ele>
        <time>2020-08-06T09:22:16Z</time>
      </trkpt>
      <trkpt lat="41.1398170" lon="0.5531710">
        <ele>173.7</ele>
        <time>2020-08-06T09:22:18Z</time>
      </trkpt>
      <trkpt lat="41.1397760" lon="0.5531670">
        <ele>173.8</ele>
        <time>2020-08-06T09:22:20Z</time>
      </trkpt>
      <trkpt lat="41.1397430" lon="0.5531620">
        <ele>173.9</ele>
        <time>2020-08-06T09:22:21Z</time>
      </trkpt>
      <trkpt lat="41.1397330" lon="0.5531610">
        <ele>174.0</ele>
        <time>2020-08-06T09:22:22Z</time>
      </trkpt>
      <trkpt lat="41.1397080" lon="0.5531570">
        <ele>174.0</ele>
        <time>2020-08-06T09:22:23Z</time>
      </trkpt>
      <trkpt lat="41.1396650" lon="0.5531490">
        <ele>174.2</ele>
        <time>2020-08-06T09:22:25Z</time>
      </trkpt>
      <trkpt lat="41.1396400" lon="0.5531440">
        <ele>174.3</ele>
        <time>2020-08-06T09:22:26Z</time>
      </trkpt>
      <trkpt lat="41.1395850" lon="0.5531330">
        <ele>174.4</ele>
        <time>2020-08-06T09:22:28Z</time>
      </trkpt>
      <trkpt lat="41.1395330" lon="0.5531220">
        <ele>174.6</ele>
        <time>2020-08-06T09:22:30Z</time>
      </trkpt>
      <trkpt lat="41.1394950" lon="0.5531150">
        <ele>174.7</ele>
        <time>2020-08-06T09:22:31Z</time>
      </trkpt>
      <trkpt lat="41.1394810" lon="0.5531140">
        <ele>174.8</ele>
        <time>2020-08-06T09:22:32Z</time>
      </trkpt>
      <trkpt lat="41.1394420" lon="0.5531130">
        <ele>174.9</ele>
        <time>2020-08-06T09:22:33Z</time>
      </trkpt>
      <trkpt lat="41.1394280" lon="0.5531130">
        <ele>174.9</ele>
        <time>2020-08-06T09:22:34Z</time>
      </trkpt>
      <trkpt lat="41.1393740" lon="0.5531130">
        <ele>175.1</ele>
        <time>2020-08-06T09:22:36Z</time>
      </trkpt>
      <trkpt lat="41.1393220" lon="0.5531130">
        <ele>175.3</ele>
        <time>2020-08-06T09:22:38Z</time>
      </trkpt>
      <trkpt lat="41.1392880" lon="0.5531140">
        <ele>175.4</ele>
        <time>2020-08-06T09:22:39Z</time>
      </trkpt>
      <trkpt lat="41.1392780" lon="0.5531140">
        <ele>175.4</ele>
        <time>2020-08-06T09:22:40Z</time>
      </trkpt>
      <trkpt lat="41.1392550" lon="0.5531170">
        <ele>175.5</ele>
        <time>2020-08-06T09:22:41Z</time>
      </trkpt>
      <trkpt lat="41.1392060" lon="0.5531310">
        <ele>175.6</ele>
        <time>2020-08-06T09:22:43Z</time>
      </trkpt>
      <trkpt lat="41.1391850" lon="0.5531400">
        <ele>175.6</ele>
        <time>2020-08-06T09:22:44Z</time>
      </trkpt>
      <trkpt lat="41.1391350" lon="0.5531560">
        <ele>175.8</ele>
        <time>2020-08-06T09:22:46Z</time>
      </trkpt>
      <trkpt lat="41.1391050" lon="0.5531650">
        <ele>175.8</ele>
        <time>2020-08-06T09:22:47Z</time>
      </trkpt>
      <trkpt lat="41.1390540" lon="0.5531790">
        <ele>175.9</ele>
        <time>2020-08-06T09:22:49Z</time>
      </trkpt>
      <trkpt lat="41.1390280" lon="0.5531870">
        <ele>176.0</ele>
        <time>2020-08-06T09:22:50Z</time>
      </trkpt>
      <trkpt lat="41.1389820" lon="0.5532040">
        <ele>176.1</ele>
        <time>2020-08-06T09:22:52Z</time>
      </trkpt>
      <trkpt lat="41.1389580" lon="0.5532150">
        <ele>176.2</ele>
        <time>2020-08-06T09:22:53Z</time>
      </trkpt>
      <trkpt lat="41.1389100" lon="0.5532310">
        <ele>176.3</ele>
        <time>2020-08-06T09:22:55Z</time>
      </trkpt>
      <trkpt lat="41.1388870" lon="0.5532360">
        <ele>176.3</ele>
        <time>2020-08-06T09:22:56Z</time>
      </trkpt>
      <trkpt lat="41.1388160" lon="0.5532610">
        <ele>176.5</ele>
        <time>2020-08-06T09:22:59Z</time>
      </trkpt>
      <trkpt lat="41.1387890" lon="0.5532780">
        <ele>176.6</ele>
        <time>2020-08-06T09:23:00Z</time>
      </trkpt>
      <trkpt lat="41.1387640" lon="0.5532930">
        <ele>176.6</ele>
        <time>2020-08-06T09:23:01Z</time>
      </trkpt>
      <trkpt lat="41.1387200" lon="0.5533190">
        <ele>176.7</ele>
        <time>2020-08-06T09:23:03Z</time>
      </trkpt>
      <trkpt lat="41.1386980" lon="0.5533310">
        <ele>176.8</ele>
        <time>2020-08-06T09:23:04Z</time>
      </trkpt>
      <trkpt lat="41.1386590" lon="0.5533470">
        <ele>176.9</ele>
        <time>2020-08-06T09:23:06Z</time>
      </trkpt>
      <trkpt lat="41.1386140" lon="0.5533670">
        <ele>177.0</ele>
        <time>2020-08-06T09:23:08Z</time>
      </trkpt>
      <trkpt lat="41.1385790" lon="0.5533860">
        <ele>177.1</ele>
        <time>2020-08-06T09:23:09Z</time>
      </trkpt>
      <trkpt lat="41.1385660" lon="0.5533920">
        <ele>177.1</ele>
        <time>2020-08-06T09:23:10Z</time>
      </trkpt>
      <trkpt lat="41.1385350" lon="0.5534080">
        <ele>177.2</ele>
        <time>2020-08-06T09:23:11Z</time>
      </trkpt>
      <trkpt lat="41.1385230" lon="0.5534140">
        <ele>177.2</ele>
        <time>2020-08-06T09:23:12Z</time>
      </trkpt>
      <trkpt lat="41.1384730" lon="0.5534390">
        <ele>177.4</ele>
        <time>2020-08-06T09:23:14Z</time>
      </trkpt>
      <trkpt lat="41.1384270" lon="0.5534650">
        <ele>177.5</ele>
        <time>2020-08-06T09:23:16Z</time>
      </trkpt>
      <trkpt lat="41.1383830" lon="0.5534880">
        <ele>177.7</ele>
        <time>2020-08-06T09:23:18Z</time>
      </trkpt>
      <trkpt lat="41.1383620" lon="0.5534980">
        <ele>177.7</ele>
        <time>2020-08-06T09:23:19Z</time>
      </trkpt>
      <trkpt lat="41.1383200" lon="0.5535200">
        <ele>177.9</ele>
        <time>2020-08-06T09:23:21Z</time>
      </trkpt>
      <trkpt lat="41.1382810" lon="0.5535430">
        <ele>178.0</ele>
        <time>2020-08-06T09:23:23Z</time>
      </trkpt>
      <trkpt lat="41.1382490" lon="0.5535510">
        <ele>178.2</ele>
        <time>2020-08-06T09:23:24Z</time>
      </trkpt>
      <trkpt lat="41.1382370" lon="0.5535530">
        <ele>178.2</ele>
        <time>2020-08-06T09:23:25Z</time>
      </trkpt>
      <trkpt lat="41.1382150" lon="0.5535600">
        <ele>178.3</ele>
        <time>2020-08-06T09:23:26Z</time>
      </trkpt>
      <trkpt lat="41.1381720" lon="0.5535740">
        <ele>178.4</ele>
        <time>2020-08-06T09:23:28Z</time>
      </trkpt>
      <trkpt lat="41.1381460" lon="0.5535860">
        <ele>178.5</ele>
        <time>2020-08-06T09:23:29Z</time>
      </trkpt>
      <trkpt lat="41.1380990" lon="0.5536000">
        <ele>178.7</ele>
        <time>2020-08-06T09:23:31Z</time>
      </trkpt>
      <trkpt lat="41.1380640" lon="0.5536100">
        <ele>178.9</ele>
        <time>2020-08-06T09:23:32Z</time>
      </trkpt>
      <trkpt lat="41.1380530" lon="0.5536120">
        <ele>178.9</ele>
        <time>2020-08-06T09:23:33Z</time>
      </trkpt>
      <trkpt lat="41.1380280" lon="0.5536190">
        <ele>179.0</ele>
        <time>2020-08-06T09:23:34Z</time>
      </trkpt>
      <trkpt lat="41.1379760" lon="0.5536340">
        <ele>179.3</ele>
        <time>2020-08-06T09:23:36Z</time>
      </trkpt>
      <trkpt lat="41.1379570" lon="0.5536360">
        <ele>179.4</ele>
        <time>2020-08-06T09:23:37Z</time>
      </trkpt>
      <trkpt lat="41.1379080" lon="0.5536440">
        <ele>179.6</ele>
        <time>2020-08-06T09:23:39Z</time>
      </trkpt>
      <trkpt lat="41.1378750" lon="0.5536530">
        <ele>179.8</ele>
        <time>2020-08-06T09:23:40Z</time>
      </trkpt>
      <trkpt lat="41.1378630" lon="0.5536560">
        <ele>179.9</ele>
        <time>2020-08-06T09:23:41Z</time>
      </trkpt>
      <trkpt lat="41.1378400" lon="0.5536600">
        <ele>180.0</ele>
        <time>2020-08-06T09:23:42Z</time>
      </trkpt>
      <trkpt lat="41.1378040" lon="0.5536650">
        <ele>180.2</ele>
        <time>2020-08-06T09:23:44Z</time>
      </trkpt>
      <trkpt lat="41.1377590" lon="0.5536680">
        <ele>180.5</ele>
        <time>2020-08-06T09:23:46Z</time>
      </trkpt>
      <trkpt lat="41.1377370" lon="0.5536670">
        <ele>180.6</ele>
        <time>2020-08-06T09:23:47Z</time>
      </trkpt>
      <trkpt lat="41.1376920" lon="0.5536680">
        <ele>180.8</ele>
        <time>2020-08-06T09:23:49Z</time>
      </trkpt>
      <trkpt lat="41.1376660" lon="0.5536650">
        <ele>181.0</ele>
        <time>2020-08-06T09:23:50Z</time>
      </trkpt>
      <trkpt lat="41.1376150" lon="0.5536630">
        <ele>181.3</ele>
        <time>2020-08-06T09:23:52Z</time>
      </trkpt>
      <trkpt lat="41.1375770" lon="0.5536620">
        <ele>181.5</ele>
        <time>2020-08-06T09:23:53Z</time>
      </trkpt>
      <trkpt lat="41.1375660" lon="0.5536620">
        <ele>181.6</ele>
        <time>2020-08-06T09:23:54Z</time>
      </trkpt>
      <trkpt lat="41.1375420" lon="0.5536610">
        <ele>181.7</ele>
        <time>2020-08-06T09:23:55Z</time>
      </trkpt>
      <trkpt lat="41.1374880" lon="0.5536590">
        <ele>182.0</ele>
        <time>2020-08-06T09:23:57Z</time>
      </trkpt>
      <trkpt lat="41.1374410" lon="0.5536550">
        <ele>182.3</ele>
        <time>2020-08-06T09:23:59Z</time>
      </trkpt>
      <trkpt lat="41.1374020" lon="0.5536500">
        <ele>182.6</ele>
        <time>2020-08-06T09:24:01Z</time>
      </trkpt>
      <trkpt lat="41.1373770" lon="0.5536470">
        <ele>182.7</ele>
        <time>2020-08-06T09:24:02Z</time>
      </trkpt>
      <trkpt lat="41.1373310" lon="0.5536370">
        <ele>183.0</ele>
        <time>2020-08-06T09:24:04Z</time>
      </trkpt>
      <trkpt lat="41.1373060" lon="0.5536310">
        <ele>183.1</ele>
        <time>2020-08-06T09:24:05Z</time>
      </trkpt>
      <trkpt lat="41.1372640" lon="0.5536200">
        <ele>183.2</ele>
        <time>2020-08-06T09:24:07Z</time>
      </trkpt>
      <trkpt lat="41.1372320" lon="0.5536120">
        <ele>183.3</ele>
        <time>2020-08-06T09:24:08Z</time>
      </trkpt>
      <trkpt lat="41.1372200" lon="0.5536100">
        <ele>183.4</ele>
        <time>2020-08-06T09:24:09Z</time>
      </trkpt>
      <trkpt lat="41.1371770" lon="0.5536020">
        <ele>183.6</ele>
        <time>2020-08-06T09:24:11Z</time>
      </trkpt>
      <trkpt lat="41.1371560" lon="0.5535960">
        <ele>183.6</ele>
        <time>2020-08-06T09:24:12Z</time>
      </trkpt>
      <trkpt lat="41.1371130" lon="0.5535770">
        <ele>183.8</ele>
        <time>2020-08-06T09:24:14Z</time>
      </trkpt>
      <trkpt lat="41.1370660" lon="0.5535580">
        <ele>184.1</ele>
        <time>2020-08-06T09:24:16Z</time>
      </trkpt>
      <trkpt lat="41.1370300" lon="0.5535430">
        <ele>184.2</ele>
        <time>2020-08-06T09:24:18Z</time>
      </trkpt>
      <trkpt lat="41.1369900" lon="0.5535210">
        <ele>184.4</ele>
        <time>2020-08-06T09:24:20Z</time>
      </trkpt>
      <trkpt lat="41.1369580" lon="0.5535030">
        <ele>184.6</ele>
        <time>2020-08-06T09:24:21Z</time>
      </trkpt>
      <trkpt lat="41.1369470" lon="0.5534980">
        <ele>184.6</ele>
        <time>2020-08-06T09:24:22Z</time>
      </trkpt>
      <trkpt lat="41.1369220" lon="0.5534880">
        <ele>184.8</ele>
        <time>2020-08-06T09:24:23Z</time>
      </trkpt>
      <trkpt lat="41.1368780" lon="0.5534710">
        <ele>185.0</ele>
        <time>2020-08-06T09:24:25Z</time>
      </trkpt>
      <trkpt lat="41.1368570" lon="0.5534590">
        <ele>185.1</ele>
        <time>2020-08-06T09:24:26Z</time>
      </trkpt>
      <trkpt lat="41.1368160" lon="0.5534360">
        <ele>185.3</ele>
        <time>2020-08-06T09:24:28Z</time>
      </trkpt>
      <trkpt lat="41.1367950" lon="0.5534250">
        <ele>185.5</ele>
        <time>2020-08-06T09:24:29Z</time>
      </trkpt>
      <trkpt lat="41.1367550" lon="0.5534040">
        <ele>185.7</ele>
        <time>2020-08-06T09:24:31Z</time>
      </trkpt>
      <trkpt lat="41.1367360" lon="0.5533930">
        <ele>185.8</ele>
        <time>2020-08-06T09:24:32Z</time>
      </trkpt>
      <trkpt lat="41.1366920" lon="0.5533610">
        <ele>186.0</ele>
        <time>2020-08-06T09:24:34Z</time>
      </trkpt>
      <trkpt lat="41.1366610" lon="0.5533440">
        <ele>186.2</ele>
        <time>2020-08-06T09:24:35Z</time>
      </trkpt>
      <trkpt lat="41.1366510" lon="0.5533380">
        <ele>186.2</ele>
        <time>2020-08-06T09:24:36Z</time>
      </trkpt>
      <trkpt lat="41.1366100" lon="0.5533160">
        <ele>186.5</ele>
        <time>2020-08-06T09:24:38Z</time>
      </trkpt>
      <trkpt lat="41.1365870" lon="0.5533060">
        <ele>186.6</ele>
        <time>2020-08-06T09:24:39Z</time>
      </trkpt>
      <trkpt lat="41.1365400" lon="0.5532840">
        <ele>186.8</ele>
        <time>2020-08-06T09:24:41Z</time>
      </trkpt>
      <trkpt lat="41.1365100" lon="0.5532690">
        <ele>186.9</ele>
        <time>2020-08-06T09:24:42Z</time>
      </trkpt>
      <trkpt lat="41.1365020" lon="0.5532660">
        <ele>187.0</ele>
        <time>2020-08-06T09:24:43Z</time>
      </trkpt>
      <trkpt lat="41.1364790" lon="0.5532560">
        <ele>187.1</ele>
        <time>2020-08-06T09:24:44Z</time>
      </trkpt>
      <trkpt lat="41.1364410" lon="0.5532330">
        <ele>187.3</ele>
        <time>2020-08-06T09:24:46Z</time>
      </trkpt>
      <trkpt lat="41.1364200" lon="0.5532200">
        <ele>187.4</ele>
        <time>2020-08-06T09:24:47Z</time>
      </trkpt>
      <trkpt lat="41.1363760" lon="0.5531960">
        <ele>187.5</ele>
        <time>2020-08-06T09:24:49Z</time>
      </trkpt>
      <trkpt lat="41.1363540" lon="0.5531830">
        <ele>187.6</ele>
        <time>2020-08-06T09:24:50Z</time>
      </trkpt>
      <trkpt lat="41.1363130" lon="0.5531610">
        <ele>187.8</ele>
        <time>2020-08-06T09:24:52Z</time>
      </trkpt>
      <trkpt lat="41.1362890" lon="0.5531500">
        <ele>187.9</ele>
        <time>2020-08-06T09:24:53Z</time>
      </trkpt>
      <trkpt lat="41.1362300" lon="0.5531240">
        <ele>188.1</ele>
        <time>2020-08-06T09:24:55Z</time>
      </trkpt>
      <trkpt lat="41.1361620" lon="0.5530900">
        <ele>188.4</ele>
        <time>2020-08-06T09:24:57Z</time>
      </trkpt>
      <trkpt lat="41.1361320" lon="0.5530700">
        <ele>188.6</ele>
        <time>2020-08-06T09:24:58Z</time>
      </trkpt>
      <trkpt lat="41.1360910" lon="0.5530400">
        <ele>188.8</ele>
        <time>2020-08-06T09:24:59Z</time>
      </trkpt>
      <trkpt lat="41.1360490" lon="0.5530100">
        <ele>189.0</ele>
        <time>2020-08-06T09:25:00Z</time>
      </trkpt>
      <trkpt lat="41.1359850" lon="0.5529700">
        <ele>189.3</ele>
        <time>2020-08-06T09:25:02Z</time>
      </trkpt>
      <trkpt lat="41.1359500" lon="0.5529450">
        <ele>189.4</ele>
        <time>2020-08-06T09:25:03Z</time>
      </trkpt>
      <trkpt lat="41.1358790" lon="0.5528940">
        <ele>189.8</ele>
        <time>2020-08-06T09:25:05Z</time>
      </trkpt>
      <trkpt lat="41.1358550" lon="0.5528760">
        <ele>189.9</ele>
        <time>2020-08-06T09:25:06Z</time>
      </trkpt>
      <trkpt lat="41.1358010" lon="0.5528350">
        <ele>190.1</ele>
        <time>2020-08-06T09:25:08Z</time>
      </trkpt>
      <trkpt lat="41.1357450" lon="0.5527890">
        <ele>190.4</ele>
        <time>2020-08-06T09:25:10Z</time>
      </trkpt>
      <trkpt lat="41.1356840" lon="0.5527340">
        <ele>190.6</ele>
        <time>2020-08-06T09:25:12Z</time>
      </trkpt>
      <trkpt lat="41.1356580" lon="0.5527120">
        <ele>190.7</ele>
        <time>2020-08-06T09:25:13Z</time>
      </trkpt>
      <trkpt lat="41.1356040" lon="0.5526670">
        <ele>190.9</ele>
        <time>2020-08-06T09:25:15Z</time>
      </trkpt>
      <trkpt lat="41.1355400" lon="0.5526170">
        <ele>191.0</ele>
        <time>2020-08-06T09:25:17Z</time>
      </trkpt>
      <trkpt lat="41.1355100" lon="0.5525950">
        <ele>191.0</ele>
        <time>2020-08-06T09:25:18Z</time>
      </trkpt>
      <trkpt lat="41.1354800" lon="0.5525720">
        <ele>191.1</ele>
        <time>2020-08-06T09:25:19Z</time>
      </trkpt>
      <trkpt lat="41.1354500" lon="0.5525490">
        <ele>191.1</ele>
        <time>2020-08-06T09:25:20Z</time>
      </trkpt>
      <trkpt lat="41.1353910" lon="0.5525020">
        <ele>191.2</ele>
        <time>2020-08-06T09:25:22Z</time>
      </trkpt>
      <trkpt lat="41.1353340" lon="0.5524540">
        <ele>191.3</ele>
        <time>2020-08-06T09:25:24Z</time>
      </trkpt>
      <trkpt lat="41.1353080" lon="0.5524320">
        <ele>191.3</ele>
        <time>2020-08-06T09:25:25Z</time>
      </trkpt>
      <trkpt lat="41.1352510" lon="0.5523810">
        <ele>191.3</ele>
        <time>2020-08-06T09:25:27Z</time>
      </trkpt>
      <trkpt lat="41.1352250" lon="0.5523590">
        <ele>191.3</ele>
        <time>2020-08-06T09:25:28Z</time>
      </trkpt>
      <trkpt lat="41.1351630" lon="0.5523100">
        <ele>191.3</ele>
        <time>2020-08-06T09:25:30Z</time>
      </trkpt>
      <trkpt lat="41.1351360" lon="0.5522910">
        <ele>191.2</ele>
        <time>2020-08-06T09:25:31Z</time>
      </trkpt>
      <trkpt lat="41.1351060" lon="0.5522690">
        <ele>191.2</ele>
        <time>2020-08-06T09:25:32Z</time>
      </trkpt>
      <trkpt lat="41.1350710" lon="0.5522440">
        <ele>191.2</ele>
        <time>2020-08-06T09:25:33Z</time>
      </trkpt>
      <trkpt lat="41.1350030" lon="0.5521890">
        <ele>191.1</ele>
        <time>2020-08-06T09:25:35Z</time>
      </trkpt>
      <trkpt lat="41.1349710" lon="0.5521620">
        <ele>191.0</ele>
        <time>2020-08-06T09:25:36Z</time>
      </trkpt>
      <trkpt lat="41.1348990" lon="0.5521040">
        <ele>190.8</ele>
        <time>2020-08-06T09:25:38Z</time>
      </trkpt>
      <trkpt lat="41.1348680" lon="0.5520790">
        <ele>190.8</ele>
        <time>2020-08-06T09:25:39Z</time>
      </trkpt>
      <trkpt lat="41.1348330" lon="0.5520480">
        <ele>190.7</ele>
        <time>2020-08-06T09:25:40Z</time>
      </trkpt>
      <trkpt lat="41.1348030" lon="0.5520210">
        <ele>190.6</ele>
        <time>2020-08-06T09:25:41Z</time>
      </trkpt>
      <trkpt lat="41.1347650" lon="0.5519870">
        <ele>190.5</ele>
        <time>2020-08-06T09:25:42Z</time>
      </trkpt>
      <trkpt lat="41.1346820" lon="0.5519240">
        <ele>190.3</ele>
        <time>2020-08-06T09:25:44Z</time>
      </trkpt>
      <trkpt lat="41.1346400" lon="0.5518880">
        <ele>190.1</ele>
        <time>2020-08-06T09:25:45Z</time>
      </trkpt>
      <trkpt lat="41.1345490" lon="0.5518140">
        <ele>189.8</ele>
        <time>2020-08-06T09:25:47Z</time>
      </trkpt>
      <trkpt lat="41.1345020" lon="0.5517720">
        <ele>189.7</ele>
        <time>2020-08-06T09:25:48Z</time>
      </trkpt>
      <trkpt lat="41.1344080" lon="0.5516970">
        <ele>189.4</ele>
        <time>2020-08-06T09:25:50Z</time>
      </trkpt>
      <trkpt lat="41.1343630" lon="0.5516620">
        <ele>189.2</ele>
        <time>2020-08-06T09:25:51Z</time>
      </trkpt>
      <trkpt lat="41.1343160" lon="0.5516250">
        <ele>189.0</ele>
        <time>2020-08-06T09:25:52Z</time>
      </trkpt>
      <trkpt lat="41.1342690" lon="0.5515870">
        <ele>188.8</ele>
        <time>2020-08-06T09:25:53Z</time>
      </trkpt>
      <trkpt lat="41.1341670" lon="0.5514950">
        <ele>188.4</ele>
        <time>2020-08-06T09:25:55Z</time>
      </trkpt>
      <trkpt lat="41.1340570" lon="0.5514000">
        <ele>187.9</ele>
        <time>2020-08-06T09:25:57Z</time>
      </trkpt>
      <trkpt lat="41.1340000" lon="0.5513520">
        <ele>187.7</ele>
        <time>2020-08-06T09:25:58Z</time>
      </trkpt>
      <trkpt lat="41.1338820" lon="0.5512510">
        <ele>187.4</ele>
        <time>2020-08-06T09:26:00Z</time>
      </trkpt>
      <trkpt lat="41.1337590" lon="0.5511650">
        <ele>187.3</ele>
        <time>2020-08-06T09:26:02Z</time>
      </trkpt>
      <trkpt lat="41.1336950" lon="0.5511190">
        <ele>187.2</ele>
        <time>2020-08-06T09:26:03Z</time>
      </trkpt>
      <trkpt lat="41.1336350" lon="0.5510790">
        <ele>187.1</ele>
        <time>2020-08-06T09:26:04Z</time>
      </trkpt>
      <trkpt lat="41.1335260" lon="0.5509950">
        <ele>187.1</ele>
        <time>2020-08-06T09:26:06Z</time>
      </trkpt>
      <trkpt lat="41.1334720" lon="0.5509560">
        <ele>187.2</ele>
        <time>2020-08-06T09:26:07Z</time>
      </trkpt>
      <trkpt lat="41.1333640" lon="0.5508810">
        <ele>187.3</ele>
        <time>2020-08-06T09:26:09Z</time>
      </trkpt>
      <trkpt lat="41.1333110" lon="0.5508450">
        <ele>187.5</ele>
        <time>2020-08-06T09:26:10Z</time>
      </trkpt>
      <trkpt lat="41.1332200" lon="0.5507810">
        <ele>187.8</ele>
        <time>2020-08-06T09:26:12Z</time>
      </trkpt>
      <trkpt lat="41.1331830" lon="0.5507490">
        <ele>187.9</ele>
        <time>2020-08-06T09:26:13Z</time>
      </trkpt>
      <trkpt lat="41.1331070" lon="0.5506930">
        <ele>188.2</ele>
        <time>2020-08-06T09:26:15Z</time>
      </trkpt>
      <trkpt lat="41.1330690" lon="0.5506710">
        <ele>188.3</ele>
        <time>2020-08-06T09:26:16Z</time>
      </trkpt>
      <trkpt lat="41.1330420" lon="0.5506570">
        <ele>188.4</ele>
        <time>2020-08-06T09:26:17Z</time>
      </trkpt>
      <trkpt lat="41.1329770" lon="0.5506160">
        <ele>188.6</ele>
        <time>2020-08-06T09:26:19Z</time>
      </trkpt>
      <trkpt lat="41.1329200" lon="0.5505760">
        <ele>188.8</ele>
        <time>2020-08-06T09:26:21Z</time>
      </trkpt>
      <trkpt lat="41.1327380" lon="0.5504490">
        <ele>189.5</ele>
        <time>2020-08-06T09:26:28Z</time>
      </trkpt>
      <trkpt lat="41.1327090" lon="0.5504290">
        <ele>189.6</ele>
        <time>2020-08-06T09:26:29Z</time>
      </trkpt>
      <trkpt lat="41.1326340" lon="0.5503780">
        <ele>190.0</ele>
        <time>2020-08-06T09:26:31Z</time>
      </trkpt>
      <trkpt lat="41.1325720" lon="0.5503380">
        <ele>190.3</ele>
        <time>2020-08-06T09:26:33Z</time>
      </trkpt>
      <trkpt lat="41.1325360" lon="0.5503160">
        <ele>190.5</ele>
        <time>2020-08-06T09:26:34Z</time>
      </trkpt>
      <trkpt lat="41.1325100" lon="0.5503010">
        <ele>190.6</ele>
        <time>2020-08-06T09:26:35Z</time>
      </trkpt>
      <trkpt lat="41.1324450" lon="0.5502670">
        <ele>190.9</ele>
        <time>2020-08-06T09:26:37Z</time>
      </trkpt>
      <trkpt lat="41.1323870" lon="0.5502360">
        <ele>191.2</ele>
        <time>2020-08-06T09:26:39Z</time>
      </trkpt>
      <trkpt lat="41.1323610" lon="0.5502210">
        <ele>191.3</ele>
        <time>2020-08-06T09:26:40Z</time>
      </trkpt>
      <trkpt lat="41.1323370" lon="0.5502040">
        <ele>191.3</ele>
        <time>2020-08-06T09:26:41Z</time>
      </trkpt>
      <trkpt lat="41.1323110" lon="0.5501860">
        <ele>191.4</ele>
        <time>2020-08-06T09:26:42Z</time>
      </trkpt>
      <trkpt lat="41.1322570" lon="0.5501500">
        <ele>191.6</ele>
        <time>2020-08-06T09:26:44Z</time>
      </trkpt>
      <trkpt lat="41.1322040" lon="0.5501120">
        <ele>191.8</ele>
        <time>2020-08-06T09:26:46Z</time>
      </trkpt>
      <trkpt lat="41.1321490" lon="0.5500740">
        <ele>192.0</ele>
        <time>2020-08-06T09:26:48Z</time>
      </trkpt>
      <trkpt lat="41.1321220" lon="0.5500570">
        <ele>192.1</ele>
        <time>2020-08-06T09:26:49Z</time>
      </trkpt>
      <trkpt lat="41.1320730" lon="0.5500250">
        <ele>192.3</ele>
        <time>2020-08-06T09:26:51Z</time>
      </trkpt>
      <trkpt lat="41.1320380" lon="0.5500030">
        <ele>192.4</ele>
        <time>2020-08-06T09:26:52Z</time>
      </trkpt>
      <trkpt lat="41.1320250" lon="0.5499950">
        <ele>192.5</ele>
        <time>2020-08-06T09:26:53Z</time>
      </trkpt>
      <trkpt lat="41.1319820" lon="0.5499650">
        <ele>192.7</ele>
        <time>2020-08-06T09:26:55Z</time>
      </trkpt>
      <trkpt lat="41.1319570" lon="0.5499460">
        <ele>192.7</ele>
        <time>2020-08-06T09:26:56Z</time>
      </trkpt>
      <trkpt lat="41.1319120" lon="0.5499070">
        <ele>192.9</ele>
        <time>2020-08-06T09:26:58Z</time>
      </trkpt>
      <trkpt lat="41.1318890" lon="0.5498880">
        <ele>193.0</ele>
        <time>2020-08-06T09:26:59Z</time>
      </trkpt>
      <trkpt lat="41.1318490" lon="0.5498580">
        <ele>193.1</ele>
        <time>2020-08-06T09:27:01Z</time>
      </trkpt>
      <trkpt lat="41.1318160" lon="0.5498340">
        <ele>193.2</ele>
        <time>2020-08-06T09:27:02Z</time>
      </trkpt>
      <trkpt lat="41.1318030" lon="0.5498260">
        <ele>193.3</ele>
        <time>2020-08-06T09:27:03Z</time>
      </trkpt>
      <trkpt lat="41.1317820" lon="0.5498120">
        <ele>193.3</ele>
        <time>2020-08-06T09:27:04Z</time>
      </trkpt>
      <trkpt lat="41.1317350" lon="0.5497780">
        <ele>193.5</ele>
        <time>2020-08-06T09:27:06Z</time>
      </trkpt>
      <trkpt lat="41.1317110" lon="0.5497580">
        <ele>193.6</ele>
        <time>2020-08-06T09:27:07Z</time>
      </trkpt>
      <trkpt lat="41.1316920" lon="0.5497440">
        <ele>193.6</ele>
        <time>2020-08-06T09:27:08Z</time>
      </trkpt>
      <trkpt lat="41.1316420" lon="0.5497070">
        <ele>193.8</ele>
        <time>2020-08-06T09:27:10Z</time>
      </trkpt>
      <trkpt lat="41.1315920" lon="0.5496680">
        <ele>193.9</ele>
        <time>2020-08-06T09:27:12Z</time>
      </trkpt>
      <trkpt lat="41.1315450" lon="0.5496290">
        <ele>194.0</ele>
        <time>2020-08-06T09:27:14Z</time>
      </trkpt>
      <trkpt lat="41.1315150" lon="0.5496030">
        <ele>194.1</ele>
        <time>2020-08-06T09:27:15Z</time>
      </trkpt>
      <trkpt lat="41.1315020" lon="0.5495920">
        <ele>194.1</ele>
        <time>2020-08-06T09:27:16Z</time>
      </trkpt>
      <trkpt lat="41.1314540" lon="0.5495480">
        <ele>194.2</ele>
        <time>2020-08-06T09:27:18Z</time>
      </trkpt>
      <trkpt lat="41.1314070" lon="0.5495070">
        <ele>194.3</ele>
        <time>2020-08-06T09:27:20Z</time>
      </trkpt>
      <trkpt lat="41.1313820" lon="0.5494850">
        <ele>194.4</ele>
        <time>2020-08-06T09:27:21Z</time>
      </trkpt>
      <trkpt lat="41.1313570" lon="0.5494660">
        <ele>194.4</ele>
        <time>2020-08-06T09:27:22Z</time>
      </trkpt>
      <trkpt lat="41.1313100" lon="0.5494330">
        <ele>194.5</ele>
        <time>2020-08-06T09:27:24Z</time>
      </trkpt>
      <trkpt lat="41.1312870" lon="0.5494130">
        <ele>194.6</ele>
        <time>2020-08-06T09:27:25Z</time>
      </trkpt>
      <trkpt lat="41.1312480" lon="0.5493780">
        <ele>194.7</ele>
        <time>2020-08-06T09:27:27Z</time>
      </trkpt>
      <trkpt lat="41.1312240" lon="0.5493560">
        <ele>194.7</ele>
        <time>2020-08-06T09:27:28Z</time>
      </trkpt>
      <trkpt lat="41.1311800" lon="0.5493170">
        <ele>194.8</ele>
        <time>2020-08-06T09:27:30Z</time>
      </trkpt>
      <trkpt lat="41.1311540" lon="0.5492970">
        <ele>194.9</ele>
        <time>2020-08-06T09:27:31Z</time>
      </trkpt>
      <trkpt lat="41.1311340" lon="0.5492800">
        <ele>194.9</ele>
        <time>2020-08-06T09:27:32Z</time>
      </trkpt>
      <trkpt lat="41.1310900" lon="0.5492390">
        <ele>195.0</ele>
        <time>2020-08-06T09:27:34Z</time>
      </trkpt>
      <trkpt lat="41.1310420" lon="0.5491920">
        <ele>195.0</ele>
        <time>2020-08-06T09:27:36Z</time>
      </trkpt>
      <trkpt lat="41.1309960" lon="0.5491490">
        <ele>195.1</ele>
        <time>2020-08-06T09:27:38Z</time>
      </trkpt>
      <trkpt lat="41.1309700" lon="0.5491250">
        <ele>195.1</ele>
        <time>2020-08-06T09:27:39Z</time>
      </trkpt>
      <trkpt lat="41.1309450" lon="0.5491040">
        <ele>195.2</ele>
        <time>2020-08-06T09:27:40Z</time>
      </trkpt>
      <trkpt lat="41.1309200" lon="0.5490850">
        <ele>195.2</ele>
        <time>2020-08-06T09:27:41Z</time>
      </trkpt>
      <trkpt lat="41.1308940" lon="0.5490670">
        <ele>195.2</ele>
        <time>2020-08-06T09:27:42Z</time>
      </trkpt>
      <trkpt lat="41.1308480" lon="0.5490310">
        <ele>195.3</ele>
        <time>2020-08-06T09:27:44Z</time>
      </trkpt>
      <trkpt lat="41.1308180" lon="0.5490050">
        <ele>195.4</ele>
        <time>2020-08-06T09:27:45Z</time>
      </trkpt>
      <trkpt lat="41.1308050" lon="0.5489940">
        <ele>195.4</ele>
        <time>2020-08-06T09:27:46Z</time>
      </trkpt>
      <trkpt lat="41.1307630" lon="0.5489580">
        <ele>195.5</ele>
        <time>2020-08-06T09:27:48Z</time>
      </trkpt>
      <trkpt lat="41.1307360" lon="0.5489330">
        <ele>195.5</ele>
        <time>2020-08-06T09:27:49Z</time>
      </trkpt>
      <trkpt lat="41.1306890" lon="0.5488890">
        <ele>195.6</ele>
        <time>2020-08-06T09:27:51Z</time>
      </trkpt>
      <trkpt lat="41.1306630" lon="0.5488620">
        <ele>195.6</ele>
        <time>2020-08-06T09:27:52Z</time>
      </trkpt>
      <trkpt lat="41.1306200" lon="0.5488190">
        <ele>195.7</ele>
        <time>2020-08-06T09:27:54Z</time>
      </trkpt>
      <trkpt lat="41.1305740" lon="0.5487720">
        <ele>195.8</ele>
        <time>2020-08-06T09:27:56Z</time>
      </trkpt>
      <trkpt lat="41.1305430" lon="0.5487380">
        <ele>195.8</ele>
        <time>2020-08-06T09:27:57Z</time>
      </trkpt>
      <trkpt lat="41.1305310" lon="0.5487260">
        <ele>195.8</ele>
        <time>2020-08-06T09:27:58Z</time>
      </trkpt>
      <trkpt lat="41.1305060" lon="0.5487010">
        <ele>195.8</ele>
        <time>2020-08-06T09:27:59Z</time>
      </trkpt>
      <trkpt lat="41.1304750" lon="0.5486740">
        <ele>195.9</ele>
        <time>2020-08-06T09:28:00Z</time>
      </trkpt>
      <trkpt lat="41.1304620" lon="0.5486630">
        <ele>195.9</ele>
        <time>2020-08-06T09:28:01Z</time>
      </trkpt>
      <trkpt lat="41.1304180" lon="0.5486290">
        <ele>195.9</ele>
        <time>2020-08-06T09:28:03Z</time>
      </trkpt>
      <trkpt lat="41.1303670" lon="0.5485860">
        <ele>195.9</ele>
        <time>2020-08-06T09:28:05Z</time>
      </trkpt>
      <trkpt lat="41.1303390" lon="0.5485630">
        <ele>196.0</ele>
        <time>2020-08-06T09:28:06Z</time>
      </trkpt>
      <trkpt lat="41.1302940" lon="0.5485290">
        <ele>196.0</ele>
        <time>2020-08-06T09:28:08Z</time>
      </trkpt>
      <trkpt lat="41.1302700" lon="0.5485100">
        <ele>196.1</ele>
        <time>2020-08-06T09:28:09Z</time>
      </trkpt>
      <trkpt lat="41.1302460" lon="0.5484890">
        <ele>196.1</ele>
        <time>2020-08-06T09:28:10Z</time>
      </trkpt>
      <trkpt lat="41.1302230" lon="0.5484670">
        <ele>196.2</ele>
        <time>2020-08-06T09:28:11Z</time>
      </trkpt>
      <trkpt lat="41.1302040" lon="0.5484470">
        <ele>196.2</ele>
        <time>2020-08-06T09:28:12Z</time>
      </trkpt>
      <trkpt lat="41.1301600" lon="0.5483990">
        <ele>196.3</ele>
        <time>2020-08-06T09:28:14Z</time>
      </trkpt>
      <trkpt lat="41.1301180" lon="0.5483560">
        <ele>196.4</ele>
        <time>2020-08-06T09:28:16Z</time>
      </trkpt>
      <trkpt lat="41.1300940" lon="0.5483310">
        <ele>196.5</ele>
        <time>2020-08-06T09:28:17Z</time>
      </trkpt>
      <trkpt lat="41.1300720" lon="0.5483060">
        <ele>196.5</ele>
        <time>2020-08-06T09:28:18Z</time>
      </trkpt>
      <trkpt lat="41.1300540" lon="0.5482860">
        <ele>196.6</ele>
        <time>2020-08-06T09:28:19Z</time>
      </trkpt>
      <trkpt lat="41.1300080" lon="0.5482360">
        <ele>196.7</ele>
        <time>2020-08-06T09:28:21Z</time>
      </trkpt>
      <trkpt lat="41.1299890" lon="0.5482140">
        <ele>196.7</ele>
        <time>2020-08-06T09:28:22Z</time>
      </trkpt>
      <trkpt lat="41.1299430" lon="0.5481660">
        <ele>196.8</ele>
        <time>2020-08-06T09:28:24Z</time>
      </trkpt>
      <trkpt lat="41.1299140" lon="0.5481320">
        <ele>196.9</ele>
        <time>2020-08-06T09:28:25Z</time>
      </trkpt>
      <trkpt lat="41.1299050" lon="0.5481210">
        <ele>196.9</ele>
        <time>2020-08-06T09:28:26Z</time>
      </trkpt>
      <trkpt lat="41.1298700" lon="0.5480750">
        <ele>197.0</ele>
        <time>2020-08-06T09:28:28Z</time>
      </trkpt>
      <trkpt lat="41.1298520" lon="0.5480520">
        <ele>197.1</ele>
        <time>2020-08-06T09:28:29Z</time>
      </trkpt>
      <trkpt lat="41.1298130" lon="0.5480030">
        <ele>197.2</ele>
        <time>2020-08-06T09:28:31Z</time>
      </trkpt>
      <trkpt lat="41.1297930" lon="0.5479780">
        <ele>197.2</ele>
        <time>2020-08-06T09:28:32Z</time>
      </trkpt>
      <trkpt lat="41.1297570" lon="0.5479300">
        <ele>197.3</ele>
        <time>2020-08-06T09:28:34Z</time>
      </trkpt>
      <trkpt lat="41.1297150" lon="0.5478710">
        <ele>197.4</ele>
        <time>2020-08-06T09:28:36Z</time>
      </trkpt>
      <trkpt lat="41.1296740" lon="0.5478130">
        <ele>197.6</ele>
        <time>2020-08-06T09:28:38Z</time>
      </trkpt>
      <trkpt lat="41.1296550" lon="0.5477880">
        <ele>197.7</ele>
        <time>2020-08-06T09:28:39Z</time>
      </trkpt>
      <trkpt lat="41.1296220" lon="0.5477400">
        <ele>197.8</ele>
        <time>2020-08-06T09:28:41Z</time>
      </trkpt>
      <trkpt lat="41.1295930" lon="0.5476900">
        <ele>198.0</ele>
        <time>2020-08-06T09:28:43Z</time>
      </trkpt>
      <trkpt lat="41.1295760" lon="0.5476580">
        <ele>198.1</ele>
        <time>2020-08-06T09:28:44Z</time>
      </trkpt>
      <trkpt lat="41.1295420" lon="0.5475960">
        <ele>198.3</ele>
        <time>2020-08-06T09:28:46Z</time>
      </trkpt>
      <trkpt lat="41.1295110" lon="0.5475380">
        <ele>198.4</ele>
        <time>2020-08-06T09:28:48Z</time>
      </trkpt>
      <trkpt lat="41.1294930" lon="0.5475050">
        <ele>198.5</ele>
        <time>2020-08-06T09:28:49Z</time>
      </trkpt>
      <trkpt lat="41.1294750" lon="0.5474730">
        <ele>198.5</ele>
        <time>2020-08-06T09:28:50Z</time>
      </trkpt>
      <trkpt lat="41.1294570" lon="0.5474450">
        <ele>198.6</ele>
        <time>2020-08-06T09:28:51Z</time>
      </trkpt>
      <trkpt lat="41.1294230" lon="0.5473910">
        <ele>198.7</ele>
        <time>2020-08-06T09:28:53Z</time>
      </trkpt>
      <trkpt lat="41.1294030" lon="0.5473570">
        <ele>198.7</ele>
        <time>2020-08-06T09:28:54Z</time>
      </trkpt>
      <trkpt lat="41.1293820" lon="0.5473170">
        <ele>198.8</ele>
        <time>2020-08-06T09:28:55Z</time>
      </trkpt>
      <trkpt lat="41.1293740" lon="0.5473020">
        <ele>198.8</ele>
        <time>2020-08-06T09:28:56Z</time>
      </trkpt>
      <trkpt lat="41.1293390" lon="0.5472400">
        <ele>198.9</ele>
        <time>2020-08-06T09:28:58Z</time>
      </trkpt>
      <trkpt lat="41.1293210" lon="0.5472090">
        <ele>198.9</ele>
        <time>2020-08-06T09:28:59Z</time>
      </trkpt>
      <trkpt lat="41.1292990" lon="0.5471710">
        <ele>199.0</ele>
        <time>2020-08-06T09:29:00Z</time>
      </trkpt>
      <trkpt lat="41.1292910" lon="0.5471580">
        <ele>199.0</ele>
        <time>2020-08-06T09:29:01Z</time>
      </trkpt>
      <trkpt lat="41.1292550" lon="0.5470990">
        <ele>199.1</ele>
        <time>2020-08-06T09:29:03Z</time>
      </trkpt>
      <trkpt lat="41.1292200" lon="0.5470420">
        <ele>199.2</ele>
        <time>2020-08-06T09:29:05Z</time>
      </trkpt>
      <trkpt lat="41.1292020" lon="0.5470130">
        <ele>199.3</ele>
        <time>2020-08-06T09:29:06Z</time>
      </trkpt>
      <trkpt lat="41.1291610" lon="0.5469450">
        <ele>199.4</ele>
        <time>2020-08-06T09:29:08Z</time>
      </trkpt>
      <trkpt lat="41.1291420" lon="0.5469120">
        <ele>199.5</ele>
        <time>2020-08-06T09:29:09Z</time>
      </trkpt>
      <trkpt lat="41.1291060" lon="0.5468480">
        <ele>199.6</ele>
        <time>2020-08-06T09:29:11Z</time>
      </trkpt>
      <trkpt lat="41.1290720" lon="0.5467860">
        <ele>199.7</ele>
        <time>2020-08-06T09:29:13Z</time>
      </trkpt>
      <trkpt lat="41.1290540" lon="0.5467530">
        <ele>199.7</ele>
        <time>2020-08-06T09:29:14Z</time>
      </trkpt>
      <trkpt lat="41.1290370" lon="0.5467220">
        <ele>199.8</ele>
        <time>2020-08-06T09:29:15Z</time>
      </trkpt>
      <trkpt lat="41.1290080" lon="0.5466700">
        <ele>199.8</ele>
        <time>2020-08-06T09:29:17Z</time>
      </trkpt>
      <trkpt lat="41.1289910" lon="0.5466400">
        <ele>199.9</ele>
        <time>2020-08-06T09:29:18Z</time>
      </trkpt>
      <trkpt lat="41.1289530" lon="0.5465730">
        <ele>200.0</ele>
        <time>2020-08-06T09:29:20Z</time>
      </trkpt>
      <trkpt lat="41.1289310" lon="0.5465360">
        <ele>200.0</ele>
        <time>2020-08-06T09:29:21Z</time>
      </trkpt>
      <trkpt lat="41.1289110" lon="0.5465030">
        <ele>200.1</ele>
        <time>2020-08-06T09:29:22Z</time>
      </trkpt>
      <trkpt lat="41.1288960" lon="0.5464790">
        <ele>200.1</ele>
        <time>2020-08-06T09:29:23Z</time>
      </trkpt>
      <trkpt lat="41.1288580" lon="0.5464170">
        <ele>200.2</ele>
        <time>2020-08-06T09:29:25Z</time>
      </trkpt>
      <trkpt lat="41.1288250" lon="0.5463610">
        <ele>200.3</ele>
        <time>2020-08-06T09:29:27Z</time>
      </trkpt>
      <trkpt lat="41.1287930" lon="0.5463010">
        <ele>200.4</ele>
        <time>2020-08-06T09:29:29Z</time>
      </trkpt>
      <trkpt lat="41.1287600" lon="0.5462430">
        <ele>200.5</ele>
        <time>2020-08-06T09:29:31Z</time>
      </trkpt>
      <trkpt lat="41.1287400" lon="0.5462090">
        <ele>200.6</ele>
        <time>2020-08-06T09:29:32Z</time>
      </trkpt>
      <trkpt lat="41.1287150" lon="0.5461660">
        <ele>200.7</ele>
        <time>2020-08-06T09:29:33Z</time>
      </trkpt>
      <trkpt lat="41.1287050" lon="0.5461500">
        <ele>200.8</ele>
        <time>2020-08-06T09:29:34Z</time>
      </trkpt>
      <trkpt lat="41.1286670" lon="0.5460830">
        <ele>200.9</ele>
        <time>2020-08-06T09:29:36Z</time>
      </trkpt>
      <trkpt lat="41.1286320" lon="0.5460190">
        <ele>201.0</ele>
        <time>2020-08-06T09:29:38Z</time>
      </trkpt>
      <trkpt lat="41.1285920" lon="0.5459480">
        <ele>201.1</ele>
        <time>2020-08-06T09:29:40Z</time>
      </trkpt>
      <trkpt lat="41.1285770" lon="0.5459180">
        <ele>201.1</ele>
        <time>2020-08-06T09:29:41Z</time>
      </trkpt>
      <trkpt lat="41.1285420" lon="0.5458510">
        <ele>201.2</ele>
        <time>2020-08-06T09:29:43Z</time>
      </trkpt>
      <trkpt lat="41.1285200" lon="0.5458120">
        <ele>201.2</ele>
        <time>2020-08-06T09:29:44Z</time>
      </trkpt>
      <trkpt lat="41.1285020" lon="0.5457810">
        <ele>201.2</ele>
        <time>2020-08-06T09:29:45Z</time>
      </trkpt>
      <trkpt lat="41.1284810" lon="0.5457460">
        <ele>201.2</ele>
        <time>2020-08-06T09:29:46Z</time>
      </trkpt>
      <trkpt lat="41.1284420" lon="0.5456830">
        <ele>201.3</ele>
        <time>2020-08-06T09:29:48Z</time>
      </trkpt>
      <trkpt lat="41.1283950" lon="0.5456110">
        <ele>201.3</ele>
        <time>2020-08-06T09:29:50Z</time>
      </trkpt>
      <trkpt lat="41.1283800" lon="0.5455870">
        <ele>201.3</ele>
        <time>2020-08-06T09:29:51Z</time>
      </trkpt>
      <trkpt lat="41.1283390" lon="0.5455170">
        <ele>201.4</ele>
        <time>2020-08-06T09:29:53Z</time>
      </trkpt>
      <trkpt lat="41.1282980" lon="0.5454500">
        <ele>201.4</ele>
        <time>2020-08-06T09:29:55Z</time>
      </trkpt>
      <trkpt lat="41.1282770" lon="0.5454140">
        <ele>201.4</ele>
        <time>2020-08-06T09:29:56Z</time>
      </trkpt>
      <trkpt lat="41.1282380" lon="0.5453460">
        <ele>201.5</ele>
        <time>2020-08-06T09:29:58Z</time>
      </trkpt>
      <trkpt lat="41.1282200" lon="0.5453170">
        <ele>201.5</ele>
        <time>2020-08-06T09:29:59Z</time>
      </trkpt>
      <trkpt lat="41.1282000" lon="0.5452820">
        <ele>201.6</ele>
        <time>2020-08-06T09:30:00Z</time>
      </trkpt>
      <trkpt lat="41.1281620" lon="0.5452150">
        <ele>201.7</ele>
        <time>2020-08-06T09:30:02Z</time>
      </trkpt>
      <trkpt lat="41.1281400" lon="0.5451780">
        <ele>201.7</ele>
        <time>2020-08-06T09:30:03Z</time>
      </trkpt>
      <trkpt lat="41.1281200" lon="0.5451440">
        <ele>201.8</ele>
        <time>2020-08-06T09:30:04Z</time>
      </trkpt>
      <trkpt lat="41.1281000" lon="0.5451110">
        <ele>201.9</ele>
        <time>2020-08-06T09:30:05Z</time>
      </trkpt>
      <trkpt lat="41.1280560" lon="0.5450440">
        <ele>202.0</ele>
        <time>2020-08-06T09:30:07Z</time>
      </trkpt>
      <trkpt lat="41.1280130" lon="0.5449740">
        <ele>202.1</ele>
        <time>2020-08-06T09:30:09Z</time>
      </trkpt>
      <trkpt lat="41.1279900" lon="0.5449350">
        <ele>202.1</ele>
        <time>2020-08-06T09:30:10Z</time>
      </trkpt>
      <trkpt lat="41.1279490" lon="0.5448610">
        <ele>202.2</ele>
        <time>2020-08-06T09:30:12Z</time>
      </trkpt>
      <trkpt lat="41.1279290" lon="0.5448260">
        <ele>202.3</ele>
        <time>2020-08-06T09:30:13Z</time>
      </trkpt>
      <trkpt lat="41.1279080" lon="0.5447920">
        <ele>202.3</ele>
        <time>2020-08-06T09:30:14Z</time>
      </trkpt>
      <trkpt lat="41.1278690" lon="0.5447270">
        <ele>202.4</ele>
        <time>2020-08-06T09:30:16Z</time>
      </trkpt>
      <trkpt lat="41.1278480" lon="0.5446890">
        <ele>202.5</ele>
        <time>2020-08-06T09:30:17Z</time>
      </trkpt>
      <trkpt lat="41.1278080" lon="0.5446130">
        <ele>202.6</ele>
        <time>2020-08-06T09:30:19Z</time>
      </trkpt>
      <trkpt lat="41.1277930" lon="0.5445830">
        <ele>202.7</ele>
        <time>2020-08-06T09:30:20Z</time>
      </trkpt>
      <trkpt lat="41.1277540" lon="0.5445130">
        <ele>202.8</ele>
        <time>2020-08-06T09:30:22Z</time>
      </trkpt>
      <trkpt lat="41.1277350" lon="0.5444810">
        <ele>202.9</ele>
        <time>2020-08-06T09:30:23Z</time>
      </trkpt>
      <trkpt lat="41.1277050" lon="0.5444270">
        <ele>203.0</ele>
        <time>2020-08-06T09:30:25Z</time>
      </trkpt>
      <trkpt lat="41.1276730" lon="0.5443710">
        <ele>203.1</ele>
        <time>2020-08-06T09:30:27Z</time>
      </trkpt>
      <trkpt lat="41.1276540" lon="0.5443420">
        <ele>203.2</ele>
        <time>2020-08-06T09:30:28Z</time>
      </trkpt>
      <trkpt lat="41.1276350" lon="0.5443150">
        <ele>203.3</ele>
        <time>2020-08-06T09:30:29Z</time>
      </trkpt>
      <trkpt lat="41.1276090" lon="0.5442770">
        <ele>203.4</ele>
        <time>2020-08-06T09:30:30Z</time>
      </trkpt>
      <trkpt lat="41.1276000" lon="0.5442640">
        <ele>203.4</ele>
        <time>2020-08-06T09:30:31Z</time>
      </trkpt>
      <trkpt lat="41.1275720" lon="0.5442190">
        <ele>203.6</ele>
        <time>2020-08-06T09:30:33Z</time>
      </trkpt>
      <trkpt lat="41.1275370" lon="0.5441710">
        <ele>203.7</ele>
        <time>2020-08-06T09:30:35Z</time>
      </trkpt>
      <trkpt lat="41.1275170" lon="0.5441460">
        <ele>203.8</ele>
        <time>2020-08-06T09:30:36Z</time>
      </trkpt>
      <trkpt lat="41.1275040" lon="0.5441290">
        <ele>203.9</ele>
        <time>2020-08-06T09:30:37Z</time>
      </trkpt>
      <trkpt lat="41.1274710" lon="0.5440850">
        <ele>204.0</ele>
        <time>2020-08-06T09:30:39Z</time>
      </trkpt>
      <trkpt lat="41.1274560" lon="0.5440630">
        <ele>204.1</ele>
        <time>2020-08-06T09:30:40Z</time>
      </trkpt>
      <trkpt lat="41.1274260" lon="0.5440180">
        <ele>204.2</ele>
        <time>2020-08-06T09:30:42Z</time>
      </trkpt>
      <trkpt lat="41.1274040" lon="0.5439850">
        <ele>204.3</ele>
        <time>2020-08-06T09:30:43Z</time>
      </trkpt>
      <trkpt lat="41.1273950" lon="0.5439730">
        <ele>204.4</ele>
        <time>2020-08-06T09:30:44Z</time>
      </trkpt>
      <trkpt lat="41.1273820" lon="0.5439520">
        <ele>204.5</ele>
        <time>2020-08-06T09:30:45Z</time>
      </trkpt>
      <trkpt lat="41.1273530" lon="0.5439100">
        <ele>204.6</ele>
        <time>2020-08-06T09:30:47Z</time>
      </trkpt>
      <trkpt lat="41.1273290" lon="0.5438760">
        <ele>204.8</ele>
        <time>2020-08-06T09:30:49Z</time>
      </trkpt>
      <trkpt lat="41.1273190" lon="0.5438610">
        <ele>204.9</ele>
        <time>2020-08-06T09:30:50Z</time>
      </trkpt>
      <trkpt lat="41.1272910" lon="0.5438270">
        <ele>205.0</ele>
        <time>2020-08-06T09:30:52Z</time>
      </trkpt>
      <trkpt lat="41.1272690" lon="0.5438010">
        <ele>205.2</ele>
        <time>2020-08-06T09:30:53Z</time>
      </trkpt>
      <trkpt lat="41.1272620" lon="0.5437930">
        <ele>205.2</ele>
        <time>2020-08-06T09:30:54Z</time>
      </trkpt>
      <trkpt lat="41.1272120" lon="0.5437390">
        <ele>205.5</ele>
        <time>2020-08-06T09:30:55Z</time>
      </trkpt>
      <trkpt lat="41.1271740" lon="0.5436970">
        <ele>205.7</ele>
        <time>2020-08-06T09:31:03Z</time>
      </trkpt>
      <trkpt lat="41.1271360" lon="0.5436540">
        <ele>206.0</ele>
        <time>2020-08-06T09:31:04Z</time>
      </trkpt>
      <trkpt lat="41.1271090" lon="0.5436250">
        <ele>206.2</ele>
        <time>2020-08-06T09:31:06Z</time>
      </trkpt>
      <trkpt lat="41.1270850" lon="0.5435960">
        <ele>206.4</ele>
        <time>2020-08-06T09:31:08Z</time>
      </trkpt>
      <trkpt lat="41.1270740" lon="0.5435820">
        <ele>206.4</ele>
        <time>2020-08-06T09:31:09Z</time>
      </trkpt>
      <trkpt lat="41.1270620" lon="0.5435720">
        <ele>206.5</ele>
        <time>2020-08-06T09:31:10Z</time>
      </trkpt>
      <trkpt lat="41.1270350" lon="0.5435420">
        <ele>206.7</ele>
        <time>2020-08-06T09:31:12Z</time>
      </trkpt>
      <trkpt lat="41.1270240" lon="0.5435270">
        <ele>206.8</ele>
        <time>2020-08-06T09:31:13Z</time>
      </trkpt>
      <trkpt lat="41.1270000" lon="0.5434970">
        <ele>206.9</ele>
        <time>2020-08-06T09:31:15Z</time>
      </trkpt>
      <trkpt lat="41.1269770" lon="0.5434710">
        <ele>207.1</ele>
        <time>2020-08-06T09:31:17Z</time>
      </trkpt>
      <trkpt lat="41.1269540" lon="0.5434410">
        <ele>207.3</ele>
        <time>2020-08-06T09:31:19Z</time>
      </trkpt>
      <trkpt lat="41.1269290" lon="0.5434150">
        <ele>207.5</ele>
        <time>2020-08-06T09:31:21Z</time>
      </trkpt>
      <trkpt lat="41.1269160" lon="0.5434020">
        <ele>207.5</ele>
        <time>2020-08-06T09:31:22Z</time>
      </trkpt>
      <trkpt lat="41.1268920" lon="0.5433750">
        <ele>207.7</ele>
        <time>2020-08-06T09:31:24Z</time>
      </trkpt>
      <trkpt lat="41.1268670" lon="0.5433480">
        <ele>207.9</ele>
        <time>2020-08-06T09:31:26Z</time>
      </trkpt>
      <trkpt lat="41.1268560" lon="0.5433380">
        <ele>208.0</ele>
        <time>2020-08-06T09:31:27Z</time>
      </trkpt>
      <trkpt lat="41.1268440" lon="0.5433270">
        <ele>208.1</ele>
        <time>2020-08-06T09:31:28Z</time>
      </trkpt>
      <trkpt lat="41.1268230" lon="0.5432980">
        <ele>208.2</ele>
        <time>2020-08-06T09:31:30Z</time>
      </trkpt>
      <trkpt lat="41.1268110" lon="0.5432860">
        <ele>208.3</ele>
        <time>2020-08-06T09:31:31Z</time>
      </trkpt>
      <trkpt lat="41.1267990" lon="0.5432720">
        <ele>208.4</ele>
        <time>2020-08-06T09:31:32Z</time>
      </trkpt>
      <trkpt lat="41.1267770" lon="0.5432490">
        <ele>208.6</ele>
        <time>2020-08-06T09:31:34Z</time>
      </trkpt>
      <trkpt lat="41.1267650" lon="0.5432350">
        <ele>208.7</ele>
        <time>2020-08-06T09:31:35Z</time>
      </trkpt>
      <trkpt lat="41.1267420" lon="0.5432080">
        <ele>208.9</ele>
        <time>2020-08-06T09:31:37Z</time>
      </trkpt>
      <trkpt lat="41.1267310" lon="0.5431950">
        <ele>209.0</ele>
        <time>2020-08-06T09:31:38Z</time>
      </trkpt>
      <trkpt lat="41.1267080" lon="0.5431680">
        <ele>209.1</ele>
        <time>2020-08-06T09:31:40Z</time>
      </trkpt>
      <trkpt lat="41.1266920" lon="0.5431500">
        <ele>209.3</ele>
        <time>2020-08-06T09:31:41Z</time>
      </trkpt>
      <trkpt lat="41.1266860" lon="0.5431420">
        <ele>209.3</ele>
        <time>2020-08-06T09:31:42Z</time>
      </trkpt>
      <trkpt lat="41.1266800" lon="0.5431350">
        <ele>209.4</ele>
        <time>2020-08-06T09:31:43Z</time>
      </trkpt>
      <trkpt lat="41.1266510" lon="0.5431040">
        <ele>209.6</ele>
        <time>2020-08-06T09:31:45Z</time>
      </trkpt>
      <trkpt lat="41.1266380" lon="0.5430880">
        <ele>209.7</ele>
        <time>2020-08-06T09:31:46Z</time>
      </trkpt>
      <trkpt lat="41.1266100" lon="0.5430620">
        <ele>209.9</ele>
        <time>2020-08-06T09:31:48Z</time>
      </trkpt>
      <trkpt lat="41.1265970" lon="0.5430490">
        <ele>210.0</ele>
        <time>2020-08-06T09:31:49Z</time>
      </trkpt>
      <trkpt lat="41.1265850" lon="0.5430330">
        <ele>210.1</ele>
        <time>2020-08-06T09:31:50Z</time>
      </trkpt>
      <trkpt lat="41.1265620" lon="0.5430050">
        <ele>210.3</ele>
        <time>2020-08-06T09:31:52Z</time>
      </trkpt>
      <trkpt lat="41.1265480" lon="0.5429930">
        <ele>210.4</ele>
        <time>2020-08-06T09:31:53Z</time>
      </trkpt>
      <trkpt lat="41.1265210" lon="0.5429670">
        <ele>210.6</ele>
        <time>2020-08-06T09:31:55Z</time>
      </trkpt>
      <trkpt lat="41.1265070" lon="0.5429540">
        <ele>210.7</ele>
        <time>2020-08-06T09:31:56Z</time>
      </trkpt>
      <trkpt lat="41.1264940" lon="0.5429400">
        <ele>210.8</ele>
        <time>2020-08-06T09:31:57Z</time>
      </trkpt>
      <trkpt lat="41.1264670" lon="0.5429080">
        <ele>211.0</ele>
        <time>2020-08-06T09:31:59Z</time>
      </trkpt>
      <trkpt lat="41.1264550" lon="0.5428900">
        <ele>211.1</ele>
        <time>2020-08-06T09:32:00Z</time>
      </trkpt>
      <trkpt lat="41.1264320" lon="0.5428700">
        <ele>211.3</ele>
        <time>2020-08-06T09:32:02Z</time>
      </trkpt>
      <trkpt lat="41.1264170" lon="0.5428600">
        <ele>211.4</ele>
        <time>2020-08-06T09:32:03Z</time>
      </trkpt>
      <trkpt lat="41.1264020" lon="0.5428480">
        <ele>211.5</ele>
        <time>2020-08-06T09:32:04Z</time>
      </trkpt>
      <trkpt lat="41.1263900" lon="0.5428360">
        <ele>211.6</ele>
        <time>2020-08-06T09:32:05Z</time>
      </trkpt>
      <trkpt lat="41.1263750" lon="0.5428210">
        <ele>211.7</ele>
        <time>2020-08-06T09:32:06Z</time>
      </trkpt>
      <trkpt lat="41.1263460" lon="0.5427890">
        <ele>211.9</ele>
        <time>2020-08-06T09:32:08Z</time>
      </trkpt>
      <trkpt lat="41.1263110" lon="0.5427490">
        <ele>212.2</ele>
        <time>2020-08-06T09:32:10Z</time>
      </trkpt>
      <trkpt lat="41.1263000" lon="0.5427390">
        <ele>212.3</ele>
        <time>2020-08-06T09:32:11Z</time>
      </trkpt>
      <trkpt lat="41.1262890" lon="0.5427290">
        <ele>212.3</ele>
        <time>2020-08-06T09:32:12Z</time>
      </trkpt>
      <trkpt lat="41.1262610" lon="0.5427020">
        <ele>212.5</ele>
        <time>2020-08-06T09:32:14Z</time>
      </trkpt>
      <trkpt lat="41.1262500" lon="0.5426910">
        <ele>212.6</ele>
        <time>2020-08-06T09:32:15Z</time>
      </trkpt>
      <trkpt lat="41.1262380" lon="0.5426780">
        <ele>212.7</ele>
        <time>2020-08-06T09:32:16Z</time>
      </trkpt>
      <trkpt lat="41.1262260" lon="0.5426660">
        <ele>212.8</ele>
        <time>2020-08-06T09:32:17Z</time>
      </trkpt>
      <trkpt lat="41.1261960" lon="0.5426380">
        <ele>213.0</ele>
        <time>2020-08-06T09:32:19Z</time>
      </trkpt>
      <trkpt lat="41.1261810" lon="0.5426260">
        <ele>213.1</ele>
        <time>2020-08-06T09:32:20Z</time>
      </trkpt>
      <trkpt lat="41.1261680" lon="0.5426120">
        <ele>213.2</ele>
        <time>2020-08-06T09:32:21Z</time>
      </trkpt>
      <trkpt lat="41.1261550" lon="0.5425980">
        <ele>213.3</ele>
        <time>2020-08-06T09:32:22Z</time>
      </trkpt>
      <trkpt lat="41.1261290" lon="0.5425690">
        <ele>213.5</ele>
        <time>2020-08-06T09:32:24Z</time>
      </trkpt>
      <trkpt lat="41.1261170" lon="0.5425540">
        <ele>213.6</ele>
        <time>2020-08-06T09:32:25Z</time>
      </trkpt>
      <trkpt lat="41.1260940" lon="0.5425250">
        <ele>213.8</ele>
        <time>2020-08-06T09:32:27Z</time>
      </trkpt>
      <trkpt lat="41.1260800" lon="0.5425100">
        <ele>213.9</ele>
        <time>2020-08-06T09:32:28Z</time>
      </trkpt>
      <trkpt lat="41.1260580" lon="0.5424760">
        <ele>214.2</ele>
        <time>2020-08-06T09:32:30Z</time>
      </trkpt>
      <trkpt lat="41.1260350" lon="0.5424460">
        <ele>214.4</ele>
        <time>2020-08-06T09:32:32Z</time>
      </trkpt>
      <trkpt lat="41.1260090" lon="0.5424140">
        <ele>214.6</ele>
        <time>2020-08-06T09:32:34Z</time>
      </trkpt>
      <trkpt lat="41.1259810" lon="0.5423800">
        <ele>214.8</ele>
        <time>2020-08-06T09:32:36Z</time>
      </trkpt>
      <trkpt lat="41.1259590" lon="0.5423590">
        <ele>215.0</ele>
        <time>2020-08-06T09:32:37Z</time>
      </trkpt>
      <trkpt lat="41.1259510" lon="0.5423530">
        <ele>215.0</ele>
        <time>2020-08-06T09:32:38Z</time>
      </trkpt>
      <trkpt lat="41.1259240" lon="0.5423280">
        <ele>215.2</ele>
        <time>2020-08-06T09:32:40Z</time>
      </trkpt>
      <trkpt lat="41.1259130" lon="0.5423130">
        <ele>215.3</ele>
        <time>2020-08-06T09:32:41Z</time>
      </trkpt>
      <trkpt lat="41.1258990" lon="0.5422990">
        <ele>215.4</ele>
        <time>2020-08-06T09:32:42Z</time>
      </trkpt>
      <trkpt lat="41.1258740" lon="0.5422720">
        <ele>215.6</ele>
        <time>2020-08-06T09:32:44Z</time>
      </trkpt>
      <trkpt lat="41.1258610" lon="0.5422590">
        <ele>215.7</ele>
        <time>2020-08-06T09:32:45Z</time>
      </trkpt>
      <trkpt lat="41.1258480" lon="0.5422460">
        <ele>215.7</ele>
        <time>2020-08-06T09:32:46Z</time>
      </trkpt>
      <trkpt lat="41.1258230" lon="0.5422160">
        <ele>215.9</ele>
        <time>2020-08-06T09:32:48Z</time>
      </trkpt>
      <trkpt lat="41.1258100" lon="0.5422030">
        <ele>216.0</ele>
        <time>2020-08-06T09:32:49Z</time>
      </trkpt>
      <trkpt lat="41.1257950" lon="0.5421920">
        <ele>216.1</ele>
        <time>2020-08-06T09:32:50Z</time>
      </trkpt>
      <trkpt lat="41.1257710" lon="0.5421620">
        <ele>216.3</ele>
        <time>2020-08-06T09:32:52Z</time>
      </trkpt>
      <trkpt lat="41.1257570" lon="0.5421490">
        <ele>216.4</ele>
        <time>2020-08-06T09:32:53Z</time>
      </trkpt>
      <trkpt lat="41.1257300" lon="0.5421170">
        <ele>216.6</ele>
        <time>2020-08-06T09:32:55Z</time>
      </trkpt>
      <trkpt lat="41.1257010" lon="0.5420850">
        <ele>216.8</ele>
        <time>2020-08-06T09:32:57Z</time>
      </trkpt>
      <trkpt lat="41.1256860" lon="0.5420730">
        <ele>216.9</ele>
        <time>2020-08-06T09:32:58Z</time>
      </trkpt>
      <trkpt lat="41.1256590" lon="0.5420480">
        <ele>217.1</ele>
        <time>2020-08-06T09:33:00Z</time>
      </trkpt>
      <trkpt lat="41.1256460" lon="0.5420360">
        <ele>217.2</ele>
        <time>2020-08-06T09:33:01Z</time>
      </trkpt>
      <trkpt lat="41.1256220" lon="0.5420130">
        <ele>217.4</ele>
        <time>2020-08-06T09:33:03Z</time>
      </trkpt>
      <trkpt lat="41.1256080" lon="0.5419990">
        <ele>217.5</ele>
        <time>2020-08-06T09:33:04Z</time>
      </trkpt>
      <trkpt lat="41.1255930" lon="0.5419850">
        <ele>217.6</ele>
        <time>2020-08-06T09:33:05Z</time>
      </trkpt>
      <trkpt lat="41.1255810" lon="0.5419720">
        <ele>217.7</ele>
        <time>2020-08-06T09:33:06Z</time>
      </trkpt>
      <trkpt lat="41.1255690" lon="0.5419580">
        <ele>217.8</ele>
        <time>2020-08-06T09:33:07Z</time>
      </trkpt>
      <trkpt lat="41.1255550" lon="0.5419440">
        <ele>217.8</ele>
        <time>2020-08-06T09:33:08Z</time>
      </trkpt>
      <trkpt lat="41.1255400" lon="0.5419310">
        <ele>217.9</ele>
        <time>2020-08-06T09:33:09Z</time>
      </trkpt>
      <trkpt lat="41.1255170" lon="0.5419090">
        <ele>218.1</ele>
        <time>2020-08-06T09:33:11Z</time>
      </trkpt>
      <trkpt lat="41.1255050" lon="0.5418960">
        <ele>218.2</ele>
        <time>2020-08-06T09:33:12Z</time>
      </trkpt>
      <trkpt lat="41.1254920" lon="0.5418820">
        <ele>218.3</ele>
        <time>2020-08-06T09:33:13Z</time>
      </trkpt>
      <trkpt lat="41.1254790" lon="0.5418670">
        <ele>218.4</ele>
        <time>2020-08-06T09:33:14Z</time>
      </trkpt>
      <trkpt lat="41.1254510" lon="0.5418420">
        <ele>218.6</ele>
        <time>2020-08-06T09:33:16Z</time>
      </trkpt>
      <trkpt lat="41.1254380" lon="0.5418290">
        <ele>218.6</ele>
        <time>2020-08-06T09:33:17Z</time>
      </trkpt>
      <trkpt lat="41.1254270" lon="0.5418170">
        <ele>218.7</ele>
        <time>2020-08-06T09:33:18Z</time>
      </trkpt>
      <trkpt lat="41.1254030" lon="0.5417930">
        <ele>218.9</ele>
        <time>2020-08-06T09:33:20Z</time>
      </trkpt>
      <trkpt lat="41.1253920" lon="0.5417790">
        <ele>219.0</ele>
        <time>2020-08-06T09:33:21Z</time>
      </trkpt>
      <trkpt lat="41.1253690" lon="0.5417540">
        <ele>219.1</ele>
        <time>2020-08-06T09:33:23Z</time>
      </trkpt>
      <trkpt lat="41.1253540" lon="0.5417420">
        <ele>219.2</ele>
        <time>2020-08-06T09:33:24Z</time>
      </trkpt>
      <trkpt lat="41.1253300" lon="0.5417160">
        <ele>219.4</ele>
        <time>2020-08-06T09:33:26Z</time>
      </trkpt>
      <trkpt lat="41.1253070" lon="0.5416920">
        <ele>219.6</ele>
        <time>2020-08-06T09:33:28Z</time>
      </trkpt>
      <trkpt lat="41.1252920" lon="0.5416820">
        <ele>219.7</ele>
        <time>2020-08-06T09:33:29Z</time>
      </trkpt>
      <trkpt lat="41.1252680" lon="0.5416550">
        <ele>219.9</ele>
        <time>2020-08-06T09:33:31Z</time>
      </trkpt>
      <trkpt lat="41.1252550" lon="0.5416390">
        <ele>220.0</ele>
        <time>2020-08-06T09:33:32Z</time>
      </trkpt>
      <trkpt lat="41.1252440" lon="0.5416250">
        <ele>220.0</ele>
        <time>2020-08-06T09:33:33Z</time>
      </trkpt>
      <trkpt lat="41.1252180" lon="0.5416000">
        <ele>220.2</ele>
        <time>2020-08-06T09:33:35Z</time>
      </trkpt>
      <trkpt lat="41.1251930" lon="0.5415750">
        <ele>220.4</ele>
        <time>2020-08-06T09:33:37Z</time>
      </trkpt>
      <trkpt lat="41.1251820" lon="0.5415580">
        <ele>220.5</ele>
        <time>2020-08-06T09:33:38Z</time>
      </trkpt>
      <trkpt lat="41.1251670" lon="0.5415460">
        <ele>220.6</ele>
        <time>2020-08-06T09:33:39Z</time>
      </trkpt>
      <trkpt lat="41.1251380" lon="0.5415170">
        <ele>220.8</ele>
        <time>2020-08-06T09:33:41Z</time>
      </trkpt>
      <trkpt lat="41.1251160" lon="0.5414880">
        <ele>221.0</ele>
        <time>2020-08-06T09:33:43Z</time>
      </trkpt>
      <trkpt lat="41.1251010" lon="0.5414720">
        <ele>221.1</ele>
        <time>2020-08-06T09:33:44Z</time>
      </trkpt>
      <trkpt lat="41.1250770" lon="0.5414460">
        <ele>221.2</ele>
        <time>2020-08-06T09:33:46Z</time>
      </trkpt>
      <trkpt lat="41.1250480" lon="0.5414190">
        <ele>221.4</ele>
        <time>2020-08-06T09:33:48Z</time>
      </trkpt>
      <trkpt lat="41.1250210" lon="0.5413870">
        <ele>221.6</ele>
        <time>2020-08-06T09:33:50Z</time>
      </trkpt>
      <trkpt lat="41.1250080" lon="0.5413730">
        <ele>221.7</ele>
        <time>2020-08-06T09:33:51Z</time>
      </trkpt>
      <trkpt lat="41.1249970" lon="0.5413580">
        <ele>221.7</ele>
        <time>2020-08-06T09:33:52Z</time>
      </trkpt>
      <trkpt lat="41.1249760" lon="0.5413310">
        <ele>221.9</ele>
        <time>2020-08-06T09:33:54Z</time>
      </trkpt>
      <trkpt lat="41.1249470" lon="0.5413020">
        <ele>222.2</ele>
        <time>2020-08-06T09:33:56Z</time>
      </trkpt>
      <trkpt lat="41.1249320" lon="0.5412890">
        <ele>222.3</ele>
        <time>2020-08-06T09:33:57Z</time>
      </trkpt>
      <trkpt lat="41.1249180" lon="0.5412750">
        <ele>222.4</ele>
        <time>2020-08-06T09:33:58Z</time>
      </trkpt>
      <trkpt lat="41.1249050" lon="0.5412590">
        <ele>222.5</ele>
        <time>2020-08-06T09:33:59Z</time>
      </trkpt>
      <trkpt lat="41.1248780" lon="0.5412250">
        <ele>222.7</ele>
        <time>2020-08-06T09:34:01Z</time>
      </trkpt>
      <trkpt lat="41.1248640" lon="0.5412110">
        <ele>222.8</ele>
        <time>2020-08-06T09:34:02Z</time>
      </trkpt>
      <trkpt lat="41.1248490" lon="0.5411970">
        <ele>222.9</ele>
        <time>2020-08-06T09:34:03Z</time>
      </trkpt>
      <trkpt lat="41.1248250" lon="0.5411740">
        <ele>223.1</ele>
        <time>2020-08-06T09:34:04Z</time>
      </trkpt>
      <trkpt lat="41.1248170" lon="0.5411660">
        <ele>223.1</ele>
        <time>2020-08-06T09:34:05Z</time>
      </trkpt>
      <trkpt lat="41.1247860" lon="0.5411410">
        <ele>223.3</ele>
        <time>2020-08-06T09:34:07Z</time>
      </trkpt>
      <trkpt lat="41.1247550" lon="0.5411040">
        <ele>223.5</ele>
        <time>2020-08-06T09:34:09Z</time>
      </trkpt>
      <trkpt lat="41.1247410" lon="0.5410850">
        <ele>223.6</ele>
        <time>2020-08-06T09:34:10Z</time>
      </trkpt>
      <trkpt lat="41.1247320" lon="0.5410730">
        <ele>223.7</ele>
        <time>2020-08-06T09:34:11Z</time>
      </trkpt>
      <trkpt lat="41.1247010" lon="0.5410380">
        <ele>223.9</ele>
        <time>2020-08-06T09:34:13Z</time>
      </trkpt>
      <trkpt lat="41.1246780" lon="0.5410170">
        <ele>224.0</ele>
        <time>2020-08-06T09:34:14Z</time>
      </trkpt>
      <trkpt lat="41.1246690" lon="0.5410100">
        <ele>224.1</ele>
        <time>2020-08-06T09:34:15Z</time>
      </trkpt>
      <trkpt lat="41.1246540" lon="0.5409920">
        <ele>224.2</ele>
        <time>2020-08-06T09:34:16Z</time>
      </trkpt>
      <trkpt lat="41.1246200" lon="0.5409620">
        <ele>224.4</ele>
        <time>2020-08-06T09:34:18Z</time>
      </trkpt>
      <trkpt lat="41.1245980" lon="0.5409370">
        <ele>224.5</ele>
        <time>2020-08-06T09:34:19Z</time>
      </trkpt>
      <trkpt lat="41.1245900" lon="0.5409290">
        <ele>224.6</ele>
        <time>2020-08-06T09:34:20Z</time>
      </trkpt>
      <trkpt lat="41.1245760" lon="0.5409120">
        <ele>224.7</ele>
        <time>2020-08-06T09:34:21Z</time>
      </trkpt>
      <trkpt lat="41.1245650" lon="0.5409000">
        <ele>224.8</ele>
        <time>2020-08-06T09:34:22Z</time>
      </trkpt>
      <trkpt lat="41.1245320" lon="0.5408670">
        <ele>225.0</ele>
        <time>2020-08-06T09:34:24Z</time>
      </trkpt>
      <trkpt lat="41.1245060" lon="0.5408430">
        <ele>225.2</ele>
        <time>2020-08-06T09:34:25Z</time>
      </trkpt>
      <trkpt lat="41.1244950" lon="0.5408350">
        <ele>225.2</ele>
        <time>2020-08-06T09:34:26Z</time>
      </trkpt>
      <trkpt lat="41.1244570" lon="0.5408020">
        <ele>225.5</ele>
        <time>2020-08-06T09:34:28Z</time>
      </trkpt>
      <trkpt lat="41.1244420" lon="0.5407860">
        <ele>225.6</ele>
        <time>2020-08-06T09:34:29Z</time>
      </trkpt>
      <trkpt lat="41.1244340" lon="0.5407710">
        <ele>225.7</ele>
        <time>2020-08-06T09:34:30Z</time>
      </trkpt>
      <trkpt lat="41.1244130" lon="0.5407360">
        <ele>225.9</ele>
        <time>2020-08-06T09:34:32Z</time>
      </trkpt>
      <trkpt lat="41.1243400" lon="0.5406580">
        <ele>226.4</ele>
        <time>2020-08-06T09:34:38Z</time>
      </trkpt>
      <trkpt lat="41.1243150" lon="0.5406290">
        <ele>226.6</ele>
        <time>2020-08-06T09:34:39Z</time>
      </trkpt>
      <trkpt lat="41.1243060" lon="0.5406100">
        <ele>226.7</ele>
        <time>2020-08-06T09:34:40Z</time>
      </trkpt>
      <trkpt lat="41.1242960" lon="0.5405940">
        <ele>226.7</ele>
        <time>2020-08-06T09:34:41Z</time>
      </trkpt>
      <trkpt lat="41.1242810" lon="0.5405750">
        <ele>226.9</ele>
        <time>2020-08-06T09:34:42Z</time>
      </trkpt>
      <trkpt lat="41.1242520" lon="0.5405490">
        <ele>227.1</ele>
        <time>2020-08-06T09:34:44Z</time>
      </trkpt>
      <trkpt lat="41.1242150" lon="0.5405190">
        <ele>227.3</ele>
        <time>2020-08-06T09:34:46Z</time>
      </trkpt>
      <trkpt lat="41.1241870" lon="0.5404900">
        <ele>227.5</ele>
        <time>2020-08-06T09:34:48Z</time>
      </trkpt>
      <trkpt lat="41.1241660" lon="0.5404670">
        <ele>227.7</ele>
        <time>2020-08-06T09:34:49Z</time>
      </trkpt>
      <trkpt lat="41.1241580" lon="0.5404600">
        <ele>227.7</ele>
        <time>2020-08-06T09:34:50Z</time>
      </trkpt>
      <trkpt lat="41.1241170" lon="0.5404150">
        <ele>228.0</ele>
        <time>2020-08-06T09:34:52Z</time>
      </trkpt>
      <trkpt lat="41.1241030" lon="0.5404000">
        <ele>228.1</ele>
        <time>2020-08-06T09:34:54Z</time>
      </trkpt>
      <trkpt lat="41.1240890" lon="0.5403840">
        <ele>228.2</ele>
        <time>2020-08-06T09:34:55Z</time>
      </trkpt>
      <trkpt lat="41.1240750" lon="0.5403690">
        <ele>228.3</ele>
        <time>2020-08-06T09:34:56Z</time>
      </trkpt>
      <trkpt lat="41.1240440" lon="0.5403390">
        <ele>228.6</ele>
        <time>2020-08-06T09:34:58Z</time>
      </trkpt>
      <trkpt lat="41.1240300" lon="0.5403260">
        <ele>228.7</ele>
        <time>2020-08-06T09:34:59Z</time>
      </trkpt>
      <trkpt lat="41.1240160" lon="0.5403130">
        <ele>228.8</ele>
        <time>2020-08-06T09:35:00Z</time>
      </trkpt>
      <trkpt lat="41.1240020" lon="0.5402970">
        <ele>228.9</ele>
        <time>2020-08-06T09:35:01Z</time>
      </trkpt>
      <trkpt lat="41.1239710" lon="0.5402720">
        <ele>229.1</ele>
        <time>2020-08-06T09:35:03Z</time>
      </trkpt>
      <trkpt lat="41.1239430" lon="0.5402440">
        <ele>229.3</ele>
        <time>2020-08-06T09:35:05Z</time>
      </trkpt>
      <trkpt lat="41.1239280" lon="0.5402320">
        <ele>229.4</ele>
        <time>2020-08-06T09:35:06Z</time>
      </trkpt>
      <trkpt lat="41.1238970" lon="0.5402030">
        <ele>229.6</ele>
        <time>2020-08-06T09:35:08Z</time>
      </trkpt>
      <trkpt lat="41.1238730" lon="0.5401810">
        <ele>229.7</ele>
        <time>2020-08-06T09:35:09Z</time>
      </trkpt>
      <trkpt lat="41.1238640" lon="0.5401730">
        <ele>229.8</ele>
        <time>2020-08-06T09:35:10Z</time>
      </trkpt>
      <trkpt lat="41.1238340" lon="0.5401450">
        <ele>230.0</ele>
        <time>2020-08-06T09:35:12Z</time>
      </trkpt>
      <trkpt lat="41.1238030" lon="0.5401120">
        <ele>230.3</ele>
        <time>2020-08-06T09:35:14Z</time>
      </trkpt>
      <trkpt lat="41.1237800" lon="0.5400850">
        <ele>230.5</ele>
        <time>2020-08-06T09:35:15Z</time>
      </trkpt>
      <trkpt lat="41.1237720" lon="0.5400770">
        <ele>230.5</ele>
        <time>2020-08-06T09:35:16Z</time>
      </trkpt>
      <trkpt lat="41.1237430" lon="0.5400380">
        <ele>230.8</ele>
        <time>2020-08-06T09:35:18Z</time>
      </trkpt>
      <trkpt lat="41.1237260" lon="0.5400170">
        <ele>230.9</ele>
        <time>2020-08-06T09:35:19Z</time>
      </trkpt>
      <trkpt lat="41.1236860" lon="0.5399870">
        <ele>231.2</ele>
        <time>2020-08-06T09:35:21Z</time>
      </trkpt>
      <trkpt lat="41.1236530" lon="0.5399550">
        <ele>231.4</ele>
        <time>2020-08-06T09:35:23Z</time>
      </trkpt>
      <trkpt lat="41.1236390" lon="0.5399410">
        <ele>231.5</ele>
        <time>2020-08-06T09:35:24Z</time>
      </trkpt>
      <trkpt lat="41.1236260" lon="0.5399300">
        <ele>231.6</ele>
        <time>2020-08-06T09:35:25Z</time>
      </trkpt>
      <trkpt lat="41.1236100" lon="0.5399180">
        <ele>231.7</ele>
        <time>2020-08-06T09:35:26Z</time>
      </trkpt>
      <trkpt lat="41.1235830" lon="0.5398870">
        <ele>231.9</ele>
        <time>2020-08-06T09:35:28Z</time>
      </trkpt>
      <trkpt lat="41.1235570" lon="0.5398490">
        <ele>232.1</ele>
        <time>2020-08-06T09:35:30Z</time>
      </trkpt>
      <trkpt lat="41.1235450" lon="0.5398310">
        <ele>232.3</ele>
        <time>2020-08-06T09:35:31Z</time>
      </trkpt>
      <trkpt lat="41.1235130" lon="0.5398020">
        <ele>232.5</ele>
        <time>2020-08-06T09:35:33Z</time>
      </trkpt>
      <trkpt lat="41.1234970" lon="0.5397890">
        <ele>232.6</ele>
        <time>2020-08-06T09:35:34Z</time>
      </trkpt>
      <trkpt lat="41.1234600" lon="0.5397530">
        <ele>232.9</ele>
        <time>2020-08-06T09:35:36Z</time>
      </trkpt>
      <trkpt lat="41.1234360" lon="0.5397280">
        <ele>233.1</ele>
        <time>2020-08-06T09:35:37Z</time>
      </trkpt>
      <trkpt lat="41.1234280" lon="0.5397210">
        <ele>233.2</ele>
        <time>2020-08-06T09:35:38Z</time>
      </trkpt>
      <trkpt lat="41.1233900" lon="0.5396880">
        <ele>233.5</ele>
        <time>2020-08-06T09:35:40Z</time>
      </trkpt>
      <trkpt lat="41.1233740" lon="0.5396660">
        <ele>233.6</ele>
        <time>2020-08-06T09:35:41Z</time>
      </trkpt>
      <trkpt lat="41.1233440" lon="0.5396210">
        <ele>233.9</ele>
        <time>2020-08-06T09:35:43Z</time>
      </trkpt>
      <trkpt lat="41.1233120" lon="0.5395810">
        <ele>234.1</ele>
        <time>2020-08-06T09:35:45Z</time>
      </trkpt>
      <trkpt lat="41.1232900" lon="0.5395450">
        <ele>234.3</ele>
        <time>2020-08-06T09:35:47Z</time>
      </trkpt>
      <trkpt lat="41.1232760" lon="0.5395250">
        <ele>234.4</ele>
        <time>2020-08-06T09:35:48Z</time>
      </trkpt>
      <trkpt lat="41.1232490" lon="0.5394890">
        <ele>234.6</ele>
        <time>2020-08-06T09:35:50Z</time>
      </trkpt>
      <trkpt lat="41.1232220" lon="0.5394530">
        <ele>234.8</ele>
        <time>2020-08-06T09:35:52Z</time>
      </trkpt>
      <trkpt lat="41.1232100" lon="0.5394360">
        <ele>234.9</ele>
        <time>2020-08-06T09:35:53Z</time>
      </trkpt>
      <trkpt lat="41.1231750" lon="0.5393970">
        <ele>235.2</ele>
        <time>2020-08-06T09:35:55Z</time>
      </trkpt>
      <trkpt lat="41.1231400" lon="0.5393610">
        <ele>235.4</ele>
        <time>2020-08-06T09:35:57Z</time>
      </trkpt>
      <trkpt lat="41.1231240" lon="0.5393430">
        <ele>235.5</ele>
        <time>2020-08-06T09:35:58Z</time>
      </trkpt>
      <trkpt lat="41.1230970" lon="0.5393140">
        <ele>235.7</ele>
        <time>2020-08-06T09:36:00Z</time>
      </trkpt>
      <trkpt lat="41.1230690" lon="0.5392800">
        <ele>235.9</ele>
        <time>2020-08-06T09:36:02Z</time>
      </trkpt>
      <trkpt lat="41.1230410" lon="0.5392480">
        <ele>236.1</ele>
        <time>2020-08-06T09:36:04Z</time>
      </trkpt>
      <trkpt lat="41.1230140" lon="0.5392200">
        <ele>236.3</ele>
        <time>2020-08-06T09:36:05Z</time>
      </trkpt>
      <trkpt lat="41.1230050" lon="0.5392120">
        <ele>236.4</ele>
        <time>2020-08-06T09:36:06Z</time>
      </trkpt>
      <trkpt lat="41.1229750" lon="0.5391820">
        <ele>236.6</ele>
        <time>2020-08-06T09:36:08Z</time>
      </trkpt>
      <trkpt lat="41.1229450" lon="0.5391510">
        <ele>236.7</ele>
        <time>2020-08-06T09:36:10Z</time>
      </trkpt>
      <trkpt lat="41.1229270" lon="0.5391320">
        <ele>236.9</ele>
        <time>2020-08-06T09:36:11Z</time>
      </trkpt>
      <trkpt lat="41.1228920" lon="0.5391000">
        <ele>237.1</ele>
        <time>2020-08-06T09:36:13Z</time>
      </trkpt>
      <trkpt lat="41.1228690" lon="0.5390760">
        <ele>237.2</ele>
        <time>2020-08-06T09:36:14Z</time>
      </trkpt>
      <trkpt lat="41.1228610" lon="0.5390680">
        <ele>237.3</ele>
        <time>2020-08-06T09:36:15Z</time>
      </trkpt>
      <trkpt lat="41.1228350" lon="0.5390400">
        <ele>237.4</ele>
        <time>2020-08-06T09:36:17Z</time>
      </trkpt>
      <trkpt lat="41.1228200" lon="0.5390230">
        <ele>237.5</ele>
        <time>2020-08-06T09:36:18Z</time>
      </trkpt>
      <trkpt lat="41.1227850" lon="0.5389830">
        <ele>237.7</ele>
        <time>2020-08-06T09:36:20Z</time>
      </trkpt>
      <trkpt lat="41.1227520" lon="0.5389500">
        <ele>237.9</ele>
        <time>2020-08-06T09:36:22Z</time>
      </trkpt>
      <trkpt lat="41.1227290" lon="0.5389250">
        <ele>238.0</ele>
        <time>2020-08-06T09:36:23Z</time>
      </trkpt>
      <trkpt lat="41.1227210" lon="0.5389160">
        <ele>238.0</ele>
        <time>2020-08-06T09:36:24Z</time>
      </trkpt>
      <trkpt lat="41.1227090" lon="0.5389030">
        <ele>238.1</ele>
        <time>2020-08-06T09:36:25Z</time>
      </trkpt>
      <trkpt lat="41.1226750" lon="0.5388670">
        <ele>238.2</ele>
        <time>2020-08-06T09:36:27Z</time>
      </trkpt>
      <trkpt lat="41.1226350" lon="0.5388270">
        <ele>238.4</ele>
        <time>2020-08-06T09:36:29Z</time>
      </trkpt>
      <trkpt lat="41.1226150" lon="0.5388070">
        <ele>238.5</ele>
        <time>2020-08-06T09:36:30Z</time>
      </trkpt>
      <trkpt lat="41.1225800" lon="0.5387700">
        <ele>238.7</ele>
        <time>2020-08-06T09:36:32Z</time>
      </trkpt>
      <trkpt lat="41.1225560" lon="0.5387470">
        <ele>238.7</ele>
        <time>2020-08-06T09:36:33Z</time>
      </trkpt>
      <trkpt lat="41.1225500" lon="0.5387420">
        <ele>238.7</ele>
        <time>2020-08-06T09:36:34Z</time>
      </trkpt>
      <trkpt lat="41.1225300" lon="0.5387240">
        <ele>238.8</ele>
        <time>2020-08-06T09:36:35Z</time>
      </trkpt>
      <trkpt lat="41.1224960" lon="0.5386880">
        <ele>238.9</ele>
        <time>2020-08-06T09:36:37Z</time>
      </trkpt>
      <trkpt lat="41.1224690" lon="0.5386570">
        <ele>239.0</ele>
        <time>2020-08-06T09:36:38Z</time>
      </trkpt>
      <trkpt lat="41.1224600" lon="0.5386480">
        <ele>239.0</ele>
        <time>2020-08-06T09:36:39Z</time>
      </trkpt>
      <trkpt lat="41.1224260" lon="0.5386120">
        <ele>239.1</ele>
        <time>2020-08-06T09:36:41Z</time>
      </trkpt>
      <trkpt lat="41.1224040" lon="0.5385880">
        <ele>239.2</ele>
        <time>2020-08-06T09:36:42Z</time>
      </trkpt>
      <trkpt lat="41.1223970" lon="0.5385810">
        <ele>239.2</ele>
        <time>2020-08-06T09:36:43Z</time>
      </trkpt>
      <trkpt lat="41.1223790" lon="0.5385590">
        <ele>239.2</ele>
        <time>2020-08-06T09:36:45Z</time>
      </trkpt>
      <trkpt lat="41.1223750" lon="0.5385520">
        <ele>239.2</ele>
        <time>2020-08-06T09:36:47Z</time>
      </trkpt>
      <trkpt lat="41.1223790" lon="0.5385580">
        <ele>239.3</ele>
        <time>2020-08-06T09:36:48Z</time>
      </trkpt>
      <trkpt lat="41.1223830" lon="0.5385650">
        <ele>239.3</ele>
        <time>2020-08-06T09:36:50Z</time>
      </trkpt>
      <trkpt lat="41.1223840" lon="0.5385670">
        <ele>239.3</ele>
        <time>2020-08-06T09:36:51Z</time>
      </trkpt>
      <trkpt lat="41.1223830" lon="0.5385680">
        <ele>239.3</ele>
        <time>2020-08-06T09:36:53Z</time>
      </trkpt>
      <trkpt lat="41.1223830" lon="0.5385670">
        <ele>239.3</ele>
        <time>2020-08-06T09:36:54Z</time>
      </trkpt>
      <trkpt lat="41.1223840" lon="0.5385710">
        <ele>239.3</ele>
        <time>2020-08-06T09:36:56Z</time>
      </trkpt>
      <trkpt lat="41.1223860" lon="0.5385780">
        <ele>239.3</ele>
        <time>2020-08-06T09:36:57Z</time>
      </trkpt>
      <trkpt lat="41.1223890" lon="0.5385810">
        <ele>239.3</ele>
        <time>2020-08-06T09:36:58Z</time>
      </trkpt>
      <trkpt lat="41.1223960" lon="0.5385880">
        <ele>239.3</ele>
        <time>2020-08-06T09:37:00Z</time>
      </trkpt>
      <trkpt lat="41.1224000" lon="0.5385910">
        <ele>239.3</ele>
        <time>2020-08-06T09:37:01Z</time>
      </trkpt>
      <trkpt lat="41.1224050" lon="0.5385930">
        <ele>239.3</ele>
        <time>2020-08-06T09:37:03Z</time>
      </trkpt>
      <trkpt lat="41.1224070" lon="0.5385940">
        <ele>239.3</ele>
        <time>2020-08-06T09:37:05Z</time>
      </trkpt>
      <trkpt lat="41.1224070" lon="0.5385940">
        <ele>239.3</ele>
        <time>2020-08-06T09:37:06Z</time>
      </trkpt>
      <trkpt lat="41.1224070" lon="0.5385940">
        <ele>239.3</ele>
        <time>2020-08-06T09:37:07Z</time>
      </trkpt>
      <trkpt lat="41.1224070" lon="0.5385940">
        <ele>239.3</ele>
        <time>2020-08-06T09:37:09Z</time>
      </trkpt>
      <trkpt lat="41.1224070" lon="0.5385940">
        <ele>239.3</ele>
        <time>2020-08-06T09:37:10Z</time>
      </trkpt>
      <trkpt lat="41.1224070" lon="0.5385940">
        <ele>239.3</ele>
        <time>2020-08-06T09:37:12Z</time>
      </trkpt>
      <trkpt lat="41.1224070" lon="0.5385940">
        <ele>239.3</ele>
        <time>2020-08-06T09:37:13Z</time>
      </trkpt>
      <trkpt lat="41.1223560" lon="0.5385470">
        <ele>239.4</ele>
        <time>2020-08-06T09:37:36Z</time>
      </trkpt>
      <trkpt lat="41.1223330" lon="0.5385320">
        <ele>239.4</ele>
        <time>2020-08-06T09:37:38Z</time>
      </trkpt>
      <trkpt lat="41.1222950" lon="0.5385010">
        <ele>239.4</ele>
        <time>2020-08-06T09:37:40Z</time>
      </trkpt>
      <trkpt lat="41.1222730" lon="0.5384820">
        <ele>239.4</ele>
        <time>2020-08-06T09:37:41Z</time>
      </trkpt>
      <trkpt lat="41.1222350" lon="0.5384490">
        <ele>239.4</ele>
        <time>2020-08-06T09:37:43Z</time>
      </trkpt>
      <trkpt lat="41.1222070" lon="0.5384210">
        <ele>239.4</ele>
        <time>2020-08-06T09:37:44Z</time>
      </trkpt>
      <trkpt lat="41.1221960" lon="0.5384110">
        <ele>239.4</ele>
        <time>2020-08-06T09:37:45Z</time>
      </trkpt>
      <trkpt lat="41.1221740" lon="0.5383910">
        <ele>239.4</ele>
        <time>2020-08-06T09:37:46Z</time>
      </trkpt>
      <trkpt lat="41.1221310" lon="0.5383530">
        <ele>239.4</ele>
        <time>2020-08-06T09:37:48Z</time>
      </trkpt>
      <trkpt lat="41.1221020" lon="0.5383290">
        <ele>239.4</ele>
        <time>2020-08-06T09:37:49Z</time>
      </trkpt>
      <trkpt lat="41.1220910" lon="0.5383210">
        <ele>239.4</ele>
        <time>2020-08-06T09:37:50Z</time>
      </trkpt>
      <trkpt lat="41.1220680" lon="0.5383040">
        <ele>239.4</ele>
        <time>2020-08-06T09:37:51Z</time>
      </trkpt>
      <trkpt lat="41.1220310" lon="0.5382780">
        <ele>239.4</ele>
        <time>2020-08-06T09:37:53Z</time>
      </trkpt>
      <trkpt lat="41.1220120" lon="0.5382650">
        <ele>239.4</ele>
        <time>2020-08-06T09:37:54Z</time>
      </trkpt>
      <trkpt lat="41.1219760" lon="0.5382360">
        <ele>239.3</ele>
        <time>2020-08-06T09:37:56Z</time>
      </trkpt>
      <trkpt lat="41.1219410" lon="0.5382080">
        <ele>239.3</ele>
        <time>2020-08-06T09:37:58Z</time>
      </trkpt>
      <trkpt lat="41.1219070" lon="0.5381820">
        <ele>239.3</ele>
        <time>2020-08-06T09:38:00Z</time>
      </trkpt>
      <trkpt lat="41.1218960" lon="0.5381720">
        <ele>239.2</ele>
        <time>2020-08-06T09:38:01Z</time>
      </trkpt>
      <trkpt lat="41.1218800" lon="0.5381590">
        <ele>239.2</ele>
        <time>2020-08-06T09:38:02Z</time>
      </trkpt>
      <trkpt lat="41.1218570" lon="0.5381420">
        <ele>239.2</ele>
        <time>2020-08-06T09:38:04Z</time>
      </trkpt>
      <trkpt lat="41.1218560" lon="0.5381450">
        <ele>239.2</ele>
        <time>2020-08-06T09:38:06Z</time>
      </trkpt>
      <trkpt lat="41.1218600" lon="0.5381470">
        <ele>239.2</ele>
        <time>2020-08-06T09:38:07Z</time>
      </trkpt>
      <trkpt lat="41.1218610" lon="0.5381460">
        <ele>239.2</ele>
        <time>2020-08-06T09:38:09Z</time>
      </trkpt>
      <trkpt lat="41.1218600" lon="0.5381450">
        <ele>239.2</ele>
        <time>2020-08-06T09:38:10Z</time>
      </trkpt>
      <trkpt lat="41.1218590" lon="0.5381450">
        <ele>239.2</ele>
        <time>2020-08-06T09:38:12Z</time>
      </trkpt>
      <trkpt lat="41.1218580" lon="0.5381450">
        <ele>239.2</ele>
        <time>2020-08-06T09:38:14Z</time>
      </trkpt>
      <trkpt lat="41.1218140" lon="0.5381240">
        <ele>239.1</ele>
        <time>2020-08-06T09:40:09Z</time>
      </trkpt>
      <trkpt lat="41.1217800" lon="0.5380900">
        <ele>239.0</ele>
        <time>2020-08-06T09:40:11Z</time>
      </trkpt>
      <trkpt lat="41.1217470" lon="0.5380620">
        <ele>238.9</ele>
        <time>2020-08-06T09:40:13Z</time>
      </trkpt>
      <trkpt lat="41.1217300" lon="0.5380510">
        <ele>238.9</ele>
        <time>2020-08-06T09:40:14Z</time>
      </trkpt>
      <trkpt lat="41.1216950" lon="0.5380310">
        <ele>238.8</ele>
        <time>2020-08-06T09:40:16Z</time>
      </trkpt>
      <trkpt lat="41.1216760" lon="0.5380190">
        <ele>238.7</ele>
        <time>2020-08-06T09:40:17Z</time>
      </trkpt>
      <trkpt lat="41.1216410" lon="0.5379990">
        <ele>238.7</ele>
        <time>2020-08-06T09:40:19Z</time>
      </trkpt>
      <trkpt lat="41.1215950" lon="0.5379750">
        <ele>238.5</ele>
        <time>2020-08-06T09:40:21Z</time>
      </trkpt>
      <trkpt lat="41.1215660" lon="0.5379580">
        <ele>238.5</ele>
        <time>2020-08-06T09:40:22Z</time>
      </trkpt>
      <trkpt lat="41.1215540" lon="0.5379510">
        <ele>238.4</ele>
        <time>2020-08-06T09:40:23Z</time>
      </trkpt>
      <trkpt lat="41.1215170" lon="0.5379320">
        <ele>238.3</ele>
        <time>2020-08-06T09:40:25Z</time>
      </trkpt>
      <trkpt lat="41.1214790" lon="0.5379150">
        <ele>238.2</ele>
        <time>2020-08-06T09:40:27Z</time>
      </trkpt>
      <trkpt lat="41.1214500" lon="0.5379040">
        <ele>238.1</ele>
        <time>2020-08-06T09:40:28Z</time>
      </trkpt>
      <trkpt lat="41.1214180" lon="0.5378880">
        <ele>238.0</ele>
        <time>2020-08-06T09:40:29Z</time>
      </trkpt>
      <trkpt lat="41.1213510" lon="0.5378440">
        <ele>237.8</ele>
        <time>2020-08-06T09:40:31Z</time>
      </trkpt>
      <trkpt lat="41.1213110" lon="0.5378200">
        <ele>237.7</ele>
        <time>2020-08-06T09:40:32Z</time>
      </trkpt>
      <trkpt lat="41.1212700" lon="0.5377960">
        <ele>237.5</ele>
        <time>2020-08-06T09:40:33Z</time>
      </trkpt>
      <trkpt lat="41.1212280" lon="0.5377720">
        <ele>237.4</ele>
        <time>2020-08-06T09:40:34Z</time>
      </trkpt>
      <trkpt lat="41.1211400" lon="0.5377280">
        <ele>237.0</ele>
        <time>2020-08-06T09:40:36Z</time>
      </trkpt>
      <trkpt lat="41.1210480" lon="0.5376890">
        <ele>236.7</ele>
        <time>2020-08-06T09:40:38Z</time>
      </trkpt>
      <trkpt lat="41.1209920" lon="0.5376630">
        <ele>236.4</ele>
        <time>2020-08-06T09:40:39Z</time>
      </trkpt>
      <trkpt lat="41.1208900" lon="0.5376000">
        <ele>236.0</ele>
        <time>2020-08-06T09:40:41Z</time>
      </trkpt>
      <trkpt lat="41.1207860" lon="0.5375450">
        <ele>235.7</ele>
        <time>2020-08-06T09:40:43Z</time>
      </trkpt>
      <trkpt lat="41.1207310" lon="0.5375200">
        <ele>235.5</ele>
        <time>2020-08-06T09:40:44Z</time>
      </trkpt>
      <trkpt lat="41.1206280" lon="0.5374690">
        <ele>235.1</ele>
        <time>2020-08-06T09:40:46Z</time>
      </trkpt>
      <trkpt lat="41.1205750" lon="0.5374460">
        <ele>234.8</ele>
        <time>2020-08-06T09:40:47Z</time>
      </trkpt>
      <trkpt lat="41.1205210" lon="0.5374210">
        <ele>234.6</ele>
        <time>2020-08-06T09:40:48Z</time>
      </trkpt>
      <trkpt lat="41.1204230" lon="0.5373800">
        <ele>234.3</ele>
        <time>2020-08-06T09:40:50Z</time>
      </trkpt>
      <trkpt lat="41.1203680" lon="0.5373520">
        <ele>234.0</ele>
        <time>2020-08-06T09:40:51Z</time>
      </trkpt>
      <trkpt lat="41.1203110" lon="0.5373170">
        <ele>233.8</ele>
        <time>2020-08-06T09:40:52Z</time>
      </trkpt>
      <trkpt lat="41.1199710" lon="0.5371650">
        <ele>232.5</ele>
        <time>2020-08-06T09:40:58Z</time>
      </trkpt>
      <trkpt lat="41.1198600" lon="0.5371110">
        <ele>232.1</ele>
        <time>2020-08-06T09:41:00Z</time>
      </trkpt>
      <trkpt lat="41.1198020" lon="0.5370780">
        <ele>231.9</ele>
        <time>2020-08-06T09:41:01Z</time>
      </trkpt>
      <trkpt lat="41.1196850" lon="0.5370120">
        <ele>231.4</ele>
        <time>2020-08-06T09:41:03Z</time>
      </trkpt>
      <trkpt lat="41.1196280" lon="0.5369740">
        <ele>231.2</ele>
        <time>2020-08-06T09:41:04Z</time>
      </trkpt>
      <trkpt lat="41.1195700" lon="0.5369400">
        <ele>231.0</ele>
        <time>2020-08-06T09:41:05Z</time>
      </trkpt>
      <trkpt lat="41.1194510" lon="0.5368870">
        <ele>230.5</ele>
        <time>2020-08-06T09:41:07Z</time>
      </trkpt>
      <trkpt lat="41.1193890" lon="0.5368570">
        <ele>230.3</ele>
        <time>2020-08-06T09:41:08Z</time>
      </trkpt>
      <trkpt lat="41.1192680" lon="0.5368020">
        <ele>229.8</ele>
        <time>2020-08-06T09:41:10Z</time>
      </trkpt>
      <trkpt lat="41.1192030" lon="0.5367710">
        <ele>229.6</ele>
        <time>2020-08-06T09:41:11Z</time>
      </trkpt>
      <trkpt lat="41.1191370" lon="0.5367350">
        <ele>229.3</ele>
        <time>2020-08-06T09:41:12Z</time>
      </trkpt>
      <trkpt lat="41.1190720" lon="0.5366980">
        <ele>229.1</ele>
        <time>2020-08-06T09:41:13Z</time>
      </trkpt>
      <trkpt lat="41.1189360" lon="0.5366230">
        <ele>228.6</ele>
        <time>2020-08-06T09:41:15Z</time>
      </trkpt>
      <trkpt lat="41.1187970" lon="0.5365450">
        <ele>228.1</ele>
        <time>2020-08-06T09:41:17Z</time>
      </trkpt>
      <trkpt lat="41.1186650" lon="0.5364780">
        <ele>227.6</ele>
        <time>2020-08-06T09:41:19Z</time>
      </trkpt>
      <trkpt lat="41.1185370" lon="0.5364090">
        <ele>227.1</ele>
        <time>2020-08-06T09:41:21Z</time>
      </trkpt>
      <trkpt lat="41.1184740" lon="0.5363730">
        <ele>226.9</ele>
        <time>2020-08-06T09:41:22Z</time>
      </trkpt>
      <trkpt lat="41.1184110" lon="0.5363410">
        <ele>226.7</ele>
        <time>2020-08-06T09:41:23Z</time>
      </trkpt>
      <trkpt lat="41.1183450" lon="0.5363120">
        <ele>226.4</ele>
        <time>2020-08-06T09:41:24Z</time>
      </trkpt>
      <trkpt lat="41.1182150" lon="0.5362530">
        <ele>225.9</ele>
        <time>2020-08-06T09:41:26Z</time>
      </trkpt>
      <trkpt lat="41.1181510" lon="0.5362290">
        <ele>225.7</ele>
        <time>2020-08-06T09:41:27Z</time>
      </trkpt>
      <trkpt lat="41.1180240" lon="0.5361740">
        <ele>225.2</ele>
        <time>2020-08-06T09:41:29Z</time>
      </trkpt>
      <trkpt lat="41.1179590" lon="0.5361400">
        <ele>225.0</ele>
        <time>2020-08-06T09:41:30Z</time>
      </trkpt>
      <trkpt lat="41.1178950" lon="0.5361050">
        <ele>224.7</ele>
        <time>2020-08-06T09:41:31Z</time>
      </trkpt>
      <trkpt lat="41.1178340" lon="0.5360740">
        <ele>224.5</ele>
        <time>2020-08-06T09:41:32Z</time>
      </trkpt>
      <trkpt lat="41.1177120" lon="0.5360130">
        <ele>224.1</ele>
        <time>2020-08-06T09:41:34Z</time>
      </trkpt>
      <trkpt lat="41.1176530" lon="0.5359790">
        <ele>223.8</ele>
        <time>2020-08-06T09:41:35Z</time>
      </trkpt>
      <trkpt lat="41.1175430" lon="0.5359150">
        <ele>223.3</ele>
        <time>2020-08-06T09:41:37Z</time>
      </trkpt>
      <trkpt lat="41.1174850" lon="0.5358850">
        <ele>223.0</ele>
        <time>2020-08-06T09:41:38Z</time>
      </trkpt>
      <trkpt lat="41.1174290" lon="0.5358550">
        <ele>222.8</ele>
        <time>2020-08-06T09:41:39Z</time>
      </trkpt>
      <trkpt lat="41.1173330" lon="0.5357970">
        <ele>222.4</ele>
        <time>2020-08-06T09:41:41Z</time>
      </trkpt>
      <trkpt lat="41.1172890" lon="0.5357690">
        <ele>222.2</ele>
        <time>2020-08-06T09:41:42Z</time>
      </trkpt>
      <trkpt lat="41.1172110" lon="0.5357240">
        <ele>221.9</ele>
        <time>2020-08-06T09:41:44Z</time>
      </trkpt>
      <trkpt lat="41.1171520" lon="0.5356930">
        <ele>221.7</ele>
        <time>2020-08-06T09:41:46Z</time>
      </trkpt>
      <trkpt lat="41.1171220" lon="0.5356820">
        <ele>221.5</ele>
        <time>2020-08-06T09:41:47Z</time>
      </trkpt>
      <trkpt lat="41.1170610" lon="0.5356850">
        <ele>221.3</ele>
        <time>2020-08-06T09:41:49Z</time>
      </trkpt>
      <trkpt lat="41.1170340" lon="0.5356970">
        <ele>221.2</ele>
        <time>2020-08-06T09:41:50Z</time>
      </trkpt>
      <trkpt lat="41.1169990" lon="0.5357230">
        <ele>221.2</ele>
        <time>2020-08-06T09:41:51Z</time>
      </trkpt>
      <trkpt lat="41.1169770" lon="0.5357490">
        <ele>221.1</ele>
        <time>2020-08-06T09:41:52Z</time>
      </trkpt>
      <trkpt lat="41.1169140" lon="0.5358120">
        <ele>220.9</ele>
        <time>2020-08-06T09:41:54Z</time>
      </trkpt>
      <trkpt lat="41.1168770" lon="0.5358510">
        <ele>220.8</ele>
        <time>2020-08-06T09:41:55Z</time>
      </trkpt>
      <trkpt lat="41.1168460" lon="0.5358850">
        <ele>220.8</ele>
        <time>2020-08-06T09:41:56Z</time>
      </trkpt>
      <trkpt lat="41.1167880" lon="0.5359500">
        <ele>220.5</ele>
        <time>2020-08-06T09:41:58Z</time>
      </trkpt>
      <trkpt lat="41.1167540" lon="0.5359840">
        <ele>220.4</ele>
        <time>2020-08-06T09:41:59Z</time>
      </trkpt>
      <trkpt lat="41.1167200" lon="0.5360160">
        <ele>220.3</ele>
        <time>2020-08-06T09:42:00Z</time>
      </trkpt>
      <trkpt lat="41.1166560" lon="0.5360810">
        <ele>220.0</ele>
        <time>2020-08-06T09:42:02Z</time>
      </trkpt>
      <trkpt lat="41.1166270" lon="0.5361110">
        <ele>219.9</ele>
        <time>2020-08-06T09:42:03Z</time>
      </trkpt>
      <trkpt lat="41.1166000" lon="0.5361400">
        <ele>219.8</ele>
        <time>2020-08-06T09:42:04Z</time>
      </trkpt>
      <trkpt lat="41.1165310" lon="0.5362050">
        <ele>219.5</ele>
        <time>2020-08-06T09:42:06Z</time>
      </trkpt>
      <trkpt lat="41.1164820" lon="0.5362420">
        <ele>219.4</ele>
        <time>2020-08-06T09:42:07Z</time>
      </trkpt>
      <trkpt lat="41.1163850" lon="0.5363030">
        <ele>219.0</ele>
        <time>2020-08-06T09:42:09Z</time>
      </trkpt>
      <trkpt lat="41.1163220" lon="0.5363360">
        <ele>218.9</ele>
        <time>2020-08-06T09:42:11Z</time>
      </trkpt>
      <trkpt lat="41.1162700" lon="0.5363660">
        <ele>218.8</ele>
        <time>2020-08-06T09:42:13Z</time>
      </trkpt>
      <trkpt lat="41.1162460" lon="0.5363840">
        <ele>218.8</ele>
        <time>2020-08-06T09:42:14Z</time>
      </trkpt>
      <trkpt lat="41.1161960" lon="0.5364110">
        <ele>218.8</ele>
        <time>2020-08-06T09:42:16Z</time>
      </trkpt>
      <trkpt lat="41.1161580" lon="0.5364270">
        <ele>218.8</ele>
        <time>2020-08-06T09:42:18Z</time>
      </trkpt>
      <trkpt lat="41.1161390" lon="0.5364420">
        <ele>218.8</ele>
        <time>2020-08-06T09:42:19Z</time>
      </trkpt>
      <trkpt lat="41.1161060" lon="0.5364650">
        <ele>218.8</ele>
        <time>2020-08-06T09:42:21Z</time>
      </trkpt>
      <trkpt lat="41.1160890" lon="0.5364790">
        <ele>218.8</ele>
        <time>2020-08-06T09:42:22Z</time>
      </trkpt>
      <trkpt lat="41.1160600" lon="0.5365040">
        <ele>218.8</ele>
        <time>2020-08-06T09:42:24Z</time>
      </trkpt>
      <trkpt lat="41.1160500" lon="0.5365160">
        <ele>218.8</ele>
        <time>2020-08-06T09:42:25Z</time>
      </trkpt>
      <trkpt lat="41.1160380" lon="0.5365290">
        <ele>218.8</ele>
        <time>2020-08-06T09:42:26Z</time>
      </trkpt>
      <trkpt lat="41.1160280" lon="0.5365400">
        <ele>218.9</ele>
        <time>2020-08-06T09:42:27Z</time>
      </trkpt>
      <trkpt lat="41.1160070" lon="0.5365720">
        <ele>218.9</ele>
        <time>2020-08-06T09:42:29Z</time>
      </trkpt>
      <trkpt lat="41.1159920" lon="0.5366080">
        <ele>218.9</ele>
        <time>2020-08-06T09:42:31Z</time>
      </trkpt>
      <trkpt lat="41.1159860" lon="0.5366300">
        <ele>219.0</ele>
        <time>2020-08-06T09:42:32Z</time>
      </trkpt>
      <trkpt lat="41.1159740" lon="0.5366700">
        <ele>219.0</ele>
        <time>2020-08-06T09:42:34Z</time>
      </trkpt>
      <trkpt lat="41.1159680" lon="0.5367110">
        <ele>219.1</ele>
        <time>2020-08-06T09:42:35Z</time>
      </trkpt>
      <trkpt lat="41.1159670" lon="0.5367250">
        <ele>219.1</ele>
        <time>2020-08-06T09:42:36Z</time>
      </trkpt>
      <trkpt lat="41.1159770" lon="0.5367650">
        <ele>219.1</ele>
        <time>2020-08-06T09:42:37Z</time>
      </trkpt>
      <trkpt lat="41.1159820" lon="0.5367740">
        <ele>219.1</ele>
        <time>2020-08-06T09:42:38Z</time>
      </trkpt>
      <trkpt lat="41.1160050" lon="0.5367780">
        <ele>219.2</ele>
        <time>2020-08-06T09:42:40Z</time>
      </trkpt>
      <trkpt lat="41.1160150" lon="0.5367670">
        <ele>219.2</ele>
        <time>2020-08-06T09:42:41Z</time>
      </trkpt>
      <trkpt lat="41.1160290" lon="0.5367410">
        <ele>219.2</ele>
        <time>2020-08-06T09:42:43Z</time>
      </trkpt>
      <trkpt lat="41.1160260" lon="0.5367290">
        <ele>219.2</ele>
        <time>2020-08-06T09:42:45Z</time>
      </trkpt>
      <trkpt lat="41.1160120" lon="0.5367260">
        <ele>219.3</ele>
        <time>2020-08-06T09:42:47Z</time>
      </trkpt>
      <trkpt lat="41.1160080" lon="0.5367260">
        <ele>219.3</ele>
        <time>2020-08-06T09:42:48Z</time>
      </trkpt>
      <trkpt lat="41.1160050" lon="0.5367240">
        <ele>219.3</ele>
        <time>2020-08-06T09:42:50Z</time>
      </trkpt>
      <trkpt lat="41.1160040" lon="0.5367270">
        <ele>219.3</ele>
        <time>2020-08-06T09:42:52Z</time>
      </trkpt>
      <trkpt lat="41.1160050" lon="0.5367270">
        <ele>219.3</ele>
        <time>2020-08-06T09:42:54Z</time>
      </trkpt>
      <trkpt lat="41.1160060" lon="0.5367260">
        <ele>219.3</ele>
        <time>2020-08-06T09:42:55Z</time>
      </trkpt>
      <trkpt lat="41.1160080" lon="0.5367250">
        <ele>219.3</ele>
        <time>2020-08-06T09:42:56Z</time>
      </trkpt>
      <trkpt lat="41.1160090" lon="0.5367250">
        <ele>219.3</ele>
        <time>2020-08-06T09:42:58Z</time>
      </trkpt>
      <trkpt lat="41.1160020" lon="0.5367080">
        <ele>219.3</ele>
        <time>2020-08-06T09:43:30Z</time>
      </trkpt>
      <trkpt lat="41.1160030" lon="0.5367030">
        <ele>219.3</ele>
        <time>2020-08-06T09:43:31Z</time>
      </trkpt>
      <trkpt lat="41.1160010" lon="0.5366900">
        <ele>219.3</ele>
        <time>2020-08-06T09:43:32Z</time>
      </trkpt>
      <trkpt lat="41.1160040" lon="0.5366740">
        <ele>219.4</ele>
        <time>2020-08-06T09:43:34Z</time>
      </trkpt>
      <trkpt lat="41.1160120" lon="0.5366640">
        <ele>219.4</ele>
        <time>2020-08-06T09:43:36Z</time>
      </trkpt>
      <trkpt lat="41.1160170" lon="0.5366650">
        <ele>219.4</ele>
        <time>2020-08-06T09:43:37Z</time>
      </trkpt>
      <trkpt lat="41.1160230" lon="0.5366700">
        <ele>219.4</ele>
        <time>2020-08-06T09:43:38Z</time>
      </trkpt>
      <trkpt lat="41.1160270" lon="0.5366720">
        <ele>219.4</ele>
        <time>2020-08-06T09:43:40Z</time>
      </trkpt>
      <trkpt lat="41.1160290" lon="0.5366720">
        <ele>219.4</ele>
        <time>2020-08-06T09:43:42Z</time>
      </trkpt>
      <trkpt lat="41.1160300" lon="0.5366730">
        <ele>219.4</ele>
        <time>2020-08-06T09:43:43Z</time>
      </trkpt>
      <trkpt lat="41.1160320" lon="0.5366740">
        <ele>219.4</ele>
        <time>2020-08-06T09:43:45Z</time>
      </trkpt>
      <trkpt lat="41.1160330" lon="0.5366740">
        <ele>219.4</ele>
        <time>2020-08-06T09:43:46Z</time>
      </trkpt>
      <trkpt lat="41.1160310" lon="0.5366760">
        <ele>219.4</ele>
        <time>2020-08-06T09:43:48Z</time>
      </trkpt>
      <trkpt lat="41.1160670" lon="0.5366510">
        <ele>219.3</ele>
        <time>2020-08-06T09:45:08Z</time>
      </trkpt>
      <trkpt lat="41.1160780" lon="0.5366500">
        <ele>219.3</ele>
        <time>2020-08-06T09:45:09Z</time>
      </trkpt>
      <trkpt lat="41.1160880" lon="0.5366490">
        <ele>219.3</ele>
        <time>2020-08-06T09:45:10Z</time>
      </trkpt>
      <trkpt lat="41.1160950" lon="0.5366480">
        <ele>219.3</ele>
        <time>2020-08-06T09:45:11Z</time>
      </trkpt>
      <trkpt lat="41.1160970" lon="0.5366460">
        <ele>219.3</ele>
        <time>2020-08-06T09:45:13Z</time>
      </trkpt>
      <trkpt lat="41.1160960" lon="0.5366450">
        <ele>219.3</ele>
        <time>2020-08-06T09:45:14Z</time>
      </trkpt>
      <trkpt lat="41.1160930" lon="0.5366460">
        <ele>219.3</ele>
        <time>2020-08-06T09:45:15Z</time>
      </trkpt>
      <trkpt lat="41.1160860" lon="0.5366450">
        <ele>219.3</ele>
        <time>2020-08-06T09:45:17Z</time>
      </trkpt>
      <trkpt lat="41.1160840" lon="0.5366460">
        <ele>219.3</ele>
        <time>2020-08-06T09:45:18Z</time>
      </trkpt>
      <trkpt lat="41.1160810" lon="0.5366460">
        <ele>219.3</ele>
        <time>2020-08-06T09:45:19Z</time>
      </trkpt>
      <trkpt lat="41.1160770" lon="0.5366470">
        <ele>219.3</ele>
        <time>2020-08-06T09:45:20Z</time>
      </trkpt>
      <trkpt lat="41.1160740" lon="0.5366480">
        <ele>219.3</ele>
        <time>2020-08-06T09:45:22Z</time>
      </trkpt>
      <trkpt lat="41.1160740" lon="0.5366470">
        <ele>219.3</ele>
        <time>2020-08-06T09:45:23Z</time>
      </trkpt>
      <trkpt lat="41.1161000" lon="0.5365650">
        <ele>219.2</ele>
        <time>2020-08-06T09:46:25Z</time>
      </trkpt>
      <trkpt lat="41.1161100" lon="0.5365490">
        <ele>219.2</ele>
        <time>2020-08-06T09:46:27Z</time>
      </trkpt>
      <trkpt lat="41.1161120" lon="0.5365460">
        <ele>219.2</ele>
        <time>2020-08-06T09:46:29Z</time>
      </trkpt>
      <trkpt lat="41.1161110" lon="0.5365470">
        <ele>219.2</ele>
        <time>2020-08-06T09:46:31Z</time>
      </trkpt>
      <trkpt lat="41.1161100" lon="0.5365490">
        <ele>219.2</ele>
        <time>2020-08-06T09:46:33Z</time>
      </trkpt>
      <trkpt lat="41.1161100" lon="0.5365490">
        <ele>219.2</ele>
        <time>2020-08-06T09:46:34Z</time>
      </trkpt>
      <trkpt lat="41.1161100" lon="0.5365500">
        <ele>219.2</ele>
        <time>2020-08-06T09:46:35Z</time>
      </trkpt>
      <trkpt lat="41.1161100" lon="0.5365500">
        <ele>219.2</ele>
        <time>2020-08-06T09:46:36Z</time>
      </trkpt>
      <trkpt lat="41.1161060" lon="0.5365450">
        <ele>219.2</ele>
        <time>2020-08-06T09:46:38Z</time>
      </trkpt>
      <trkpt lat="41.1160930" lon="0.5365340">
        <ele>219.2</ele>
        <time>2020-08-06T09:46:40Z</time>
      </trkpt>
      <trkpt lat="41.1160800" lon="0.5365280">
        <ele>219.2</ele>
        <time>2020-08-06T09:46:41Z</time>
      </trkpt>
      <trkpt lat="41.1160730" lon="0.5365290">
        <ele>219.1</ele>
        <time>2020-08-06T09:46:42Z</time>
      </trkpt>
      <trkpt lat="41.1160800" lon="0.5365310">
        <ele>219.1</ele>
        <time>2020-08-06T09:46:43Z</time>
      </trkpt>
      <trkpt lat="41.1160830" lon="0.5365320">
        <ele>219.1</ele>
        <time>2020-08-06T09:46:44Z</time>
      </trkpt>
      <trkpt lat="41.1160860" lon="0.5365320">
        <ele>219.1</ele>
        <time>2020-08-06T09:46:46Z</time>
      </trkpt>
      <trkpt lat="41.1160870" lon="0.5365330">
        <ele>219.1</ele>
        <time>2020-08-06T09:46:47Z</time>
      </trkpt>
      <trkpt lat="41.1160890" lon="0.5365330">
        <ele>219.1</ele>
        <time>2020-08-06T09:46:49Z</time>
      </trkpt>
      <trkpt lat="41.1160910" lon="0.5365330">
        <ele>219.1</ele>
        <time>2020-08-06T09:46:51Z</time>
      </trkpt>
      <trkpt lat="41.1160920" lon="0.5365330">
        <ele>219.1</ele>
        <time>2020-08-06T09:46:52Z</time>
      </trkpt>
      <trkpt lat="41.1160950" lon="0.5365590">
        <ele>219.1</ele>
        <time>2020-08-06T09:47:33Z</time>
      </trkpt>
      <trkpt lat="41.1160970" lon="0.5365650">
        <ele>219.1</ele>
        <time>2020-08-06T09:47:35Z</time>
      </trkpt>
      <trkpt lat="41.1161040" lon="0.5365750">
        <ele>219.1</ele>
        <time>2020-08-06T09:47:36Z</time>
      </trkpt>
      <trkpt lat="41.1161110" lon="0.5365790">
        <ele>219.1</ele>
        <time>2020-08-06T09:47:37Z</time>
      </trkpt>
      <trkpt lat="41.1161160" lon="0.5365810">
        <ele>219.1</ele>
        <time>2020-08-06T09:47:38Z</time>
      </trkpt>
      <trkpt lat="41.1161270" lon="0.5365840">
        <ele>219.1</ele>
        <time>2020-08-06T09:47:40Z</time>
      </trkpt>
      <trkpt lat="41.1161400" lon="0.5365840">
        <ele>219.1</ele>
        <time>2020-08-06T09:47:42Z</time>
      </trkpt>
      <trkpt lat="41.1161460" lon="0.5365810">
        <ele>219.1</ele>
        <time>2020-08-06T09:47:43Z</time>
      </trkpt>
      <trkpt lat="41.1161520" lon="0.5365780">
        <ele>219.1</ele>
        <time>2020-08-06T09:47:44Z</time>
      </trkpt>
      <trkpt lat="41.1161540" lon="0.5365770">
        <ele>219.1</ele>
        <time>2020-08-06T09:47:45Z</time>
      </trkpt>
      <trkpt lat="41.1161560" lon="0.5365750">
        <ele>219.1</ele>
        <time>2020-08-06T09:47:46Z</time>
      </trkpt>
      <trkpt lat="41.1161600" lon="0.5365730">
        <ele>219.0</ele>
        <time>2020-08-06T09:47:48Z</time>
      </trkpt>
      <trkpt lat="41.1161640" lon="0.5365720">
        <ele>219.0</ele>
        <time>2020-08-06T09:47:49Z</time>
      </trkpt>
      <trkpt lat="41.1161690" lon="0.5365720">
        <ele>219.0</ele>
        <time>2020-08-06T09:47:51Z</time>
      </trkpt>
      <trkpt lat="41.1161720" lon="0.5365710">
        <ele>219.0</ele>
        <time>2020-08-06T09:47:52Z</time>
      </trkpt>
      <trkpt lat="41.1161750" lon="0.5365720">
        <ele>219.0</ele>
        <time>2020-08-06T09:47:54Z</time>
      </trkpt>
      <trkpt lat="41.1162130" lon="0.5365960">
        <ele>219.0</ele>
        <time>2020-08-06T09:48:01Z</time>
      </trkpt>
      <trkpt lat="41.1162260" lon="0.5366110">
        <ele>219.0</ele>
        <time>2020-08-06T09:48:03Z</time>
      </trkpt>
      <trkpt lat="41.1162350" lon="0.5366240">
        <ele>219.0</ele>
        <time>2020-08-06T09:48:04Z</time>
      </trkpt>
      <trkpt lat="41.1162450" lon="0.5366410">
        <ele>219.0</ele>
        <time>2020-08-06T09:48:06Z</time>
      </trkpt>
      <trkpt lat="41.1162540" lon="0.5366550">
        <ele>218.9</ele>
        <time>2020-08-06T09:48:07Z</time>
      </trkpt>
      <trkpt lat="41.1162570" lon="0.5366670">
        <ele>218.9</ele>
        <time>2020-08-06T09:48:09Z</time>
      </trkpt>
      <trkpt lat="41.1162620" lon="0.5366760">
        <ele>218.9</ele>
        <time>2020-08-06T09:48:10Z</time>
      </trkpt>
      <trkpt lat="41.1162680" lon="0.5366860">
        <ele>218.9</ele>
        <time>2020-08-06T09:48:11Z</time>
      </trkpt>
      <trkpt lat="41.1162720" lon="0.5366910">
        <ele>218.9</ele>
        <time>2020-08-06T09:48:12Z</time>
      </trkpt>
      <trkpt lat="41.1162760" lon="0.5366950">
        <ele>218.9</ele>
        <time>2020-08-06T09:48:13Z</time>
      </trkpt>
      <trkpt lat="41.1162820" lon="0.5366940">
        <ele>218.9</ele>
        <time>2020-08-06T09:48:15Z</time>
      </trkpt>
      <trkpt lat="41.1162840" lon="0.5367000">
        <ele>218.9</ele>
        <time>2020-08-06T09:48:16Z</time>
      </trkpt>
      <trkpt lat="41.1162830" lon="0.5367060">
        <ele>218.9</ele>
        <time>2020-08-06T09:48:17Z</time>
      </trkpt>
      <trkpt lat="41.1162840" lon="0.5367150">
        <ele>218.9</ele>
        <time>2020-08-06T09:48:18Z</time>
      </trkpt>
      <trkpt lat="41.1162860" lon="0.5367250">
        <ele>218.9</ele>
        <time>2020-08-06T09:48:20Z</time>
      </trkpt>
      <trkpt lat="41.1162870" lon="0.5367330">
        <ele>218.9</ele>
        <time>2020-08-06T09:48:21Z</time>
      </trkpt>
      <trkpt lat="41.1162890" lon="0.5367340">
        <ele>218.9</ele>
        <time>2020-08-06T09:48:22Z</time>
      </trkpt>
      <trkpt lat="41.1162890" lon="0.5367340">
        <ele>218.9</ele>
        <time>2020-08-06T09:48:24Z</time>
      </trkpt>
      <trkpt lat="41.1162870" lon="0.5367340">
        <ele>218.9</ele>
        <time>2020-08-06T09:48:25Z</time>
      </trkpt>
      <trkpt lat="41.1162860" lon="0.5367350">
        <ele>218.9</ele>
        <time>2020-08-06T09:48:26Z</time>
      </trkpt>
      <trkpt lat="41.1162800" lon="0.5367370">
        <ele>218.9</ele>
        <time>2020-08-06T09:48:27Z</time>
      </trkpt>
      <trkpt lat="41.1162800" lon="0.5367340">
        <ele>218.9</ele>
        <time>2020-08-06T09:48:29Z</time>
      </trkpt>
      <trkpt lat="41.1162780" lon="0.5367330">
        <ele>218.9</ele>
        <time>2020-08-06T09:48:30Z</time>
      </trkpt>
      <trkpt lat="41.1162730" lon="0.5367330">
        <ele>218.9</ele>
        <time>2020-08-06T09:48:31Z</time>
      </trkpt>
      <trkpt lat="41.1162680" lon="0.5367340">
        <ele>218.9</ele>
        <time>2020-08-06T09:48:32Z</time>
      </trkpt>
      <trkpt lat="41.1162620" lon="0.5367380">
        <ele>218.9</ele>
        <time>2020-08-06T09:48:34Z</time>
      </trkpt>
      <trkpt lat="41.1162620" lon="0.5367430">
        <ele>218.9</ele>
        <time>2020-08-06T09:48:35Z</time>
      </trkpt>
      <trkpt lat="41.1162580" lon="0.5367460">
        <ele>218.9</ele>
        <time>2020-08-06T09:48:37Z</time>
      </trkpt>
      <trkpt lat="41.1162600" lon="0.5367480">
        <ele>218.9</ele>
        <time>2020-08-06T09:48:38Z</time>
      </trkpt>
      <trkpt lat="41.1162620" lon="0.5367520">
        <ele>218.9</ele>
        <time>2020-08-06T09:48:39Z</time>
      </trkpt>
      <trkpt lat="41.1162650" lon="0.5367560">
        <ele>218.9</ele>
        <time>2020-08-06T09:48:40Z</time>
      </trkpt>
      <trkpt lat="41.1162720" lon="0.5367690">
        <ele>218.8</ele>
        <time>2020-08-06T09:48:42Z</time>
      </trkpt>
      <trkpt lat="41.1162770" lon="0.5367810">
        <ele>218.8</ele>
        <time>2020-08-06T09:48:44Z</time>
      </trkpt>
      <trkpt lat="41.1162800" lon="0.5367870">
        <ele>218.8</ele>
        <time>2020-08-06T09:48:46Z</time>
      </trkpt>
      <trkpt lat="41.1163090" lon="0.5368400">
        <ele>218.8</ele>
        <time>2020-08-06T09:51:51Z</time>
      </trkpt>
      <trkpt lat="41.1163160" lon="0.5368420">
        <ele>218.8</ele>
        <time>2020-08-06T09:51:52Z</time>
      </trkpt>
      <trkpt lat="41.1163250" lon="0.5368450">
        <ele>218.8</ele>
        <time>2020-08-06T09:51:53Z</time>
      </trkpt>
      <trkpt lat="41.1163390" lon="0.5368490">
        <ele>218.8</ele>
        <time>2020-08-06T09:51:55Z</time>
      </trkpt>
      <trkpt lat="41.1163450" lon="0.5368440">
        <ele>218.8</ele>
        <time>2020-08-06T09:51:56Z</time>
      </trkpt>
      <trkpt lat="41.1163540" lon="0.5368300">
        <ele>218.8</ele>
        <time>2020-08-06T09:51:58Z</time>
      </trkpt>
      <trkpt lat="41.1163640" lon="0.5368200">
        <ele>218.8</ele>
        <time>2020-08-06T09:51:59Z</time>
      </trkpt>
      <trkpt lat="41.1163630" lon="0.5368250">
        <ele>218.8</ele>
        <time>2020-08-06T09:52:01Z</time>
      </trkpt>
      <trkpt lat="41.1163620" lon="0.5368290">
        <ele>218.8</ele>
        <time>2020-08-06T09:52:02Z</time>
      </trkpt>
      <trkpt lat="41.1163620" lon="0.5368310">
        <ele>218.8</ele>
        <time>2020-08-06T09:52:03Z</time>
      </trkpt>
      <trkpt lat="41.1163610" lon="0.5368330">
        <ele>218.8</ele>
        <time>2020-08-06T09:52:04Z</time>
      </trkpt>
      <trkpt lat="41.1163610" lon="0.5368360">
        <ele>218.8</ele>
        <time>2020-08-06T09:52:06Z</time>
      </trkpt>
      <trkpt lat="41.1163610" lon="0.5368380">
        <ele>218.8</ele>
        <time>2020-08-06T09:52:07Z</time>
      </trkpt>
      <trkpt lat="41.1163600" lon="0.5368400">
        <ele>218.8</ele>
        <time>2020-08-06T09:52:09Z</time>
      </trkpt>
      <trkpt lat="41.1163700" lon="0.5368590">
        <ele>218.8</ele>
        <time>2020-08-06T09:52:20Z</time>
      </trkpt>
      <trkpt lat="41.1163810" lon="0.5368720">
        <ele>218.8</ele>
        <time>2020-08-06T09:52:21Z</time>
      </trkpt>
      <trkpt lat="41.1163900" lon="0.5368840">
        <ele>218.8</ele>
        <time>2020-08-06T09:52:23Z</time>
      </trkpt>
      <trkpt lat="41.1163970" lon="0.5368960">
        <ele>218.8</ele>
        <time>2020-08-06T09:52:24Z</time>
      </trkpt>
      <trkpt lat="41.1164090" lon="0.5369130">
        <ele>218.8</ele>
        <time>2020-08-06T09:52:26Z</time>
      </trkpt>
      <trkpt lat="41.1164130" lon="0.5369240">
        <ele>218.8</ele>
        <time>2020-08-06T09:52:28Z</time>
      </trkpt>
      <trkpt lat="41.1164170" lon="0.5369330">
        <ele>218.8</ele>
        <time>2020-08-06T09:52:29Z</time>
      </trkpt>
      <trkpt lat="41.1164200" lon="0.5369380">
        <ele>218.8</ele>
        <time>2020-08-06T09:52:31Z</time>
      </trkpt>
      <trkpt lat="41.1164220" lon="0.5369410">
        <ele>218.8</ele>
        <time>2020-08-06T09:52:32Z</time>
      </trkpt>
      <trkpt lat="41.1164240" lon="0.5369440">
        <ele>218.8</ele>
        <time>2020-08-06T09:52:33Z</time>
      </trkpt>
      <trkpt lat="41.1164250" lon="0.5369470">
        <ele>218.8</ele>
        <time>2020-08-06T09:52:34Z</time>
      </trkpt>
      <trkpt lat="41.1164280" lon="0.5369510">
        <ele>218.8</ele>
        <time>2020-08-06T09:52:36Z</time>
      </trkpt>
      <trkpt lat="41.1164310" lon="0.5369550">
        <ele>218.8</ele>
        <time>2020-08-06T09:52:38Z</time>
      </trkpt>
      <trkpt lat="41.1164600" lon="0.5369770">
        <ele>218.8</ele>
        <time>2020-08-06T09:52:48Z</time>
      </trkpt>
      <trkpt lat="41.1164720" lon="0.5369840">
        <ele>218.8</ele>
        <time>2020-08-06T09:52:49Z</time>
      </trkpt>
      <trkpt lat="41.1164820" lon="0.5369890">
        <ele>218.8</ele>
        <time>2020-08-06T09:52:50Z</time>
      </trkpt>
      <trkpt lat="41.1164870" lon="0.5369920">
        <ele>218.8</ele>
        <time>2020-08-06T09:52:51Z</time>
      </trkpt>
      <trkpt lat="41.1164880" lon="0.5369930">
        <ele>218.8</ele>
        <time>2020-08-06T09:52:52Z</time>
      </trkpt>
      <trkpt lat="41.1164870" lon="0.5369930">
        <ele>218.8</ele>
        <time>2020-08-06T09:52:54Z</time>
      </trkpt>
      <trkpt lat="41.1164850" lon="0.5369920">
        <ele>218.8</ele>
        <time>2020-08-06T09:52:56Z</time>
      </trkpt>
      <trkpt lat="41.1164850" lon="0.5369920">
        <ele>218.8</ele>
        <time>2020-08-06T09:52:57Z</time>
      </trkpt>
      <trkpt lat="41.1164840" lon="0.5369910">
        <ele>218.8</ele>
        <time>2020-08-06T09:52:58Z</time>
      </trkpt>
      <trkpt lat="41.1164840" lon="0.5369910">
        <ele>218.8</ele>
        <time>2020-08-06T09:53:00Z</time>
      </trkpt>
      <trkpt lat="41.1164840" lon="0.5369910">
        <ele>218.8</ele>
        <time>2020-08-06T09:53:01Z</time>
      </trkpt>
      <trkpt lat="41.1164840" lon="0.5369910">
        <ele>218.8</ele>
        <time>2020-08-06T09:53:02Z</time>
      </trkpt>
      <trkpt lat="41.1164840" lon="0.5370290">
        <ele>218.8</ele>
        <time>2020-08-06T09:56:11Z</time>
      </trkpt>
      <trkpt lat="41.1164840" lon="0.5370090">
        <ele>218.8</ele>
        <time>2020-08-06T09:56:12Z</time>
      </trkpt>
      <trkpt lat="41.1164840" lon="0.5369760">
        <ele>218.8</ele>
        <time>2020-08-06T09:56:14Z</time>
      </trkpt>
      <trkpt lat="41.1164840" lon="0.5369540">
        <ele>218.8</ele>
        <time>2020-08-06T09:56:15Z</time>
      </trkpt>
      <trkpt lat="41.1164840" lon="0.5369340">
        <ele>218.8</ele>
        <time>2020-08-06T09:56:16Z</time>
      </trkpt>
      <trkpt lat="41.1164840" lon="0.5369110">
        <ele>218.8</ele>
        <time>2020-08-06T09:56:18Z</time>
      </trkpt>
      <trkpt lat="41.1164830" lon="0.5368930">
        <ele>218.8</ele>
        <time>2020-08-06T09:56:19Z</time>
      </trkpt>
      <trkpt lat="41.1164820" lon="0.5368490">
        <ele>218.8</ele>
        <time>2020-08-06T09:56:21Z</time>
      </trkpt>
      <trkpt lat="41.1164810" lon="0.5368370">
        <ele>218.8</ele>
        <time>2020-08-06T09:56:22Z</time>
      </trkpt>
      <trkpt lat="41.1164790" lon="0.5368080">
        <ele>218.8</ele>
        <time>2020-08-06T09:56:23Z</time>
      </trkpt>
      <trkpt lat="41.1164790" lon="0.5367950">
        <ele>218.9</ele>
        <time>2020-08-06T09:56:24Z</time>
      </trkpt>
      <trkpt lat="41.1164780" lon="0.5367830">
        <ele>218.9</ele>
        <time>2020-08-06T09:56:25Z</time>
      </trkpt>
      <trkpt lat="41.1164770" lon="0.5367610">
        <ele>218.9</ele>
        <time>2020-08-06T09:56:26Z</time>
      </trkpt>
      <trkpt lat="41.1164770" lon="0.5367420">
        <ele>218.9</ele>
        <time>2020-08-06T09:56:28Z</time>
      </trkpt>
      <trkpt lat="41.1164760" lon="0.5367240">
        <ele>218.9</ele>
        <time>2020-08-06T09:56:29Z</time>
      </trkpt>
      <trkpt lat="41.1164790" lon="0.5366980">
        <ele>218.9</ele>
        <time>2020-08-06T09:56:30Z</time>
      </trkpt>
      <trkpt lat="41.1164790" lon="0.5366710">
        <ele>218.9</ele>
        <time>2020-08-06T09:56:32Z</time>
      </trkpt>
      <trkpt lat="41.1164780" lon="0.5366510">
        <ele>218.9</ele>
        <time>2020-08-06T09:56:33Z</time>
      </trkpt>
      <trkpt lat="41.1164770" lon="0.5366310">
        <ele>218.9</ele>
        <time>2020-08-06T09:56:34Z</time>
      </trkpt>
      <trkpt lat="41.1164780" lon="0.5366100">
        <ele>219.0</ele>
        <time>2020-08-06T09:56:35Z</time>
      </trkpt>
      <trkpt lat="41.1164790" lon="0.5365850">
        <ele>219.0</ele>
        <time>2020-08-06T09:56:36Z</time>
      </trkpt>
      <trkpt lat="41.1164810" lon="0.5365640">
        <ele>219.0</ele>
        <time>2020-08-06T09:56:37Z</time>
      </trkpt>
      <trkpt lat="41.1164810" lon="0.5365470">
        <ele>219.0</ele>
        <time>2020-08-06T09:56:38Z</time>
      </trkpt>
      <trkpt lat="41.1164810" lon="0.5365260">
        <ele>219.0</ele>
        <time>2020-08-06T09:56:40Z</time>
      </trkpt>
      <trkpt lat="41.1164800" lon="0.5365060">
        <ele>218.9</ele>
        <time>2020-08-06T09:56:41Z</time>
      </trkpt>
      <trkpt lat="41.1164800" lon="0.5364840">
        <ele>218.9</ele>
        <time>2020-08-06T09:56:42Z</time>
      </trkpt>
      <trkpt lat="41.1164780" lon="0.5364670">
        <ele>218.9</ele>
        <time>2020-08-06T09:56:43Z</time>
      </trkpt>
      <trkpt lat="41.1164740" lon="0.5364540">
        <ele>218.9</ele>
        <time>2020-08-06T09:56:44Z</time>
      </trkpt>
      <trkpt lat="41.1164660" lon="0.5364480">
        <ele>218.9</ele>
        <time>2020-08-06T09:56:45Z</time>
      </trkpt>
      <trkpt lat="41.1164590" lon="0.5364440">
        <ele>218.9</ele>
        <time>2020-08-06T09:56:46Z</time>
      </trkpt>
      <trkpt lat="41.1164470" lon="0.5364410">
        <ele>218.9</ele>
        <time>2020-08-06T09:56:48Z</time>
      </trkpt>
      <trkpt lat="41.1164330" lon="0.5364400">
        <ele>218.8</ele>
        <time>2020-08-06T09:56:49Z</time>
      </trkpt>
      <trkpt lat="41.1164160" lon="0.5364360">
        <ele>218.8</ele>
        <time>2020-08-06T09:56:50Z</time>
      </trkpt>
      <trkpt lat="41.1163920" lon="0.5364330">
        <ele>218.8</ele>
        <time>2020-08-06T09:56:52Z</time>
      </trkpt>
      <trkpt lat="41.1163790" lon="0.5364300">
        <ele>218.8</ele>
        <time>2020-08-06T09:56:53Z</time>
      </trkpt>
      <trkpt lat="41.1163630" lon="0.5364180">
        <ele>218.8</ele>
        <time>2020-08-06T09:56:54Z</time>
      </trkpt>
      <trkpt lat="41.1163350" lon="0.5364030">
        <ele>218.8</ele>
        <time>2020-08-06T09:56:56Z</time>
      </trkpt>
      <trkpt lat="41.1163290" lon="0.5364010">
        <ele>218.8</ele>
        <time>2020-08-06T09:56:57Z</time>
      </trkpt>
      <trkpt lat="41.1163010" lon="0.5364020">
        <ele>218.8</ele>
        <time>2020-08-06T09:56:59Z</time>
      </trkpt>
      <trkpt lat="41.1162860" lon="0.5364060">
        <ele>218.8</ele>
        <time>2020-08-06T09:57:00Z</time>
      </trkpt>
      <trkpt lat="41.1162640" lon="0.5364170">
        <ele>218.8</ele>
        <time>2020-08-06T09:57:02Z</time>
      </trkpt>
      <trkpt lat="41.1162540" lon="0.5364200">
        <ele>218.8</ele>
        <time>2020-08-06T09:57:03Z</time>
      </trkpt>
      <trkpt lat="41.1162390" lon="0.5364280">
        <ele>218.8</ele>
        <time>2020-08-06T09:57:05Z</time>
      </trkpt>
      <trkpt lat="41.1162360" lon="0.5364310">
        <ele>218.8</ele>
        <time>2020-08-06T09:57:06Z</time>
      </trkpt>
      <trkpt lat="41.1162310" lon="0.5364390">
        <ele>218.8</ele>
        <time>2020-08-06T09:57:08Z</time>
      </trkpt>
      <trkpt lat="41.1162250" lon="0.5364440">
        <ele>218.8</ele>
        <time>2020-08-06T09:57:09Z</time>
      </trkpt>
      <trkpt lat="41.1162220" lon="0.5364480">
        <ele>218.8</ele>
        <time>2020-08-06T09:57:10Z</time>
      </trkpt>
      <trkpt lat="41.1162170" lon="0.5364520">
        <ele>218.8</ele>
        <time>2020-08-06T09:57:11Z</time>
      </trkpt>
      <trkpt lat="41.1162060" lon="0.5364570">
        <ele>218.8</ele>
        <time>2020-08-06T09:57:13Z</time>
      </trkpt>
      <trkpt lat="41.1161960" lon="0.5364610">
        <ele>218.8</ele>
        <time>2020-08-06T09:57:14Z</time>
      </trkpt>
      <trkpt lat="41.1161890" lon="0.5364670">
        <ele>218.8</ele>
        <time>2020-08-06T09:57:15Z</time>
      </trkpt>
      <trkpt lat="41.1161900" lon="0.5364750">
        <ele>218.8</ele>
        <time>2020-08-06T09:57:17Z</time>
      </trkpt>
      <trkpt lat="41.1161880" lon="0.5364870">
        <ele>218.8</ele>
        <time>2020-08-06T09:57:18Z</time>
      </trkpt>
      <trkpt lat="41.1161830" lon="0.5364890">
        <ele>218.8</ele>
        <time>2020-08-06T09:57:19Z</time>
      </trkpt>
      <trkpt lat="41.1161780" lon="0.5364920">
        <ele>218.8</ele>
        <time>2020-08-06T09:57:20Z</time>
      </trkpt>
      <trkpt lat="41.1161580" lon="0.5365040">
        <ele>218.8</ele>
        <time>2020-08-06T09:57:22Z</time>
      </trkpt>
      <trkpt lat="41.1161440" lon="0.5365180">
        <ele>218.8</ele>
        <time>2020-08-06T09:57:24Z</time>
      </trkpt>
      <trkpt lat="41.1161360" lon="0.5365280">
        <ele>218.9</ele>
        <time>2020-08-06T09:57:25Z</time>
      </trkpt>
      <trkpt lat="41.1161190" lon="0.5365470">
        <ele>218.9</ele>
        <time>2020-08-06T09:57:27Z</time>
      </trkpt>
      <trkpt lat="41.1161030" lon="0.5365670">
        <ele>218.9</ele>
        <time>2020-08-06T09:57:29Z</time>
      </trkpt>
      <trkpt lat="41.1160930" lon="0.5365790">
        <ele>218.9</ele>
        <time>2020-08-06T09:57:30Z</time>
      </trkpt>
      <trkpt lat="41.1160830" lon="0.5365930">
        <ele>218.9</ele>
        <time>2020-08-06T09:57:31Z</time>
      </trkpt>
      <trkpt lat="41.1160740" lon="0.5366100">
        <ele>219.0</ele>
        <time>2020-08-06T09:57:32Z</time>
      </trkpt>
      <trkpt lat="41.1160640" lon="0.5366360">
        <ele>219.0</ele>
        <time>2020-08-06T09:57:34Z</time>
      </trkpt>
      <trkpt lat="41.1160600" lon="0.5366650">
        <ele>219.0</ele>
        <time>2020-08-06T09:57:35Z</time>
      </trkpt>
      <trkpt lat="41.1160590" lon="0.5366770">
        <ele>219.0</ele>
        <time>2020-08-06T09:57:36Z</time>
      </trkpt>
      <trkpt lat="41.1160580" lon="0.5366900">
        <ele>219.0</ele>
        <time>2020-08-06T09:57:37Z</time>
      </trkpt>
      <trkpt lat="41.1160600" lon="0.5367290">
        <ele>219.1</ele>
        <time>2020-08-06T09:57:39Z</time>
      </trkpt>
      <trkpt lat="41.1160600" lon="0.5367390">
        <ele>219.1</ele>
        <time>2020-08-06T09:57:40Z</time>
      </trkpt>
      <trkpt lat="41.1160600" lon="0.5367580">
        <ele>219.1</ele>
        <time>2020-08-06T09:57:41Z</time>
      </trkpt>
      <trkpt lat="41.1160600" lon="0.5367770">
        <ele>219.1</ele>
        <time>2020-08-06T09:57:42Z</time>
      </trkpt>
      <trkpt lat="41.1160610" lon="0.5367930">
        <ele>219.1</ele>
        <time>2020-08-06T09:57:44Z</time>
      </trkpt>
      <trkpt lat="41.1160660" lon="0.5368130">
        <ele>219.2</ele>
        <time>2020-08-06T09:57:45Z</time>
      </trkpt>
      <trkpt lat="41.1160680" lon="0.5368200">
        <ele>219.2</ele>
        <time>2020-08-06T09:57:46Z</time>
      </trkpt>
      <trkpt lat="41.1160730" lon="0.5368300">
        <ele>219.2</ele>
        <time>2020-08-06T09:57:48Z</time>
      </trkpt>
      <trkpt lat="41.1160770" lon="0.5368370">
        <ele>219.2</ele>
        <time>2020-08-06T09:57:49Z</time>
      </trkpt>
      <trkpt lat="41.1160830" lon="0.5368410">
        <ele>219.2</ele>
        <time>2020-08-06T09:57:51Z</time>
      </trkpt>
      <trkpt lat="41.1160850" lon="0.5368410">
        <ele>219.2</ele>
        <time>2020-08-06T09:57:52Z</time>
      </trkpt>
      <trkpt lat="41.1160880" lon="0.5368360">
        <ele>219.2</ele>
        <time>2020-08-06T09:57:54Z</time>
      </trkpt>
      <trkpt lat="41.1160880" lon="0.5368320">
        <ele>219.2</ele>
        <time>2020-08-06T09:57:56Z</time>
      </trkpt>
      <trkpt lat="41.1160870" lon="0.5368280">
        <ele>219.2</ele>
        <time>2020-08-06T09:57:58Z</time>
      </trkpt>
      <trkpt lat="41.1160860" lon="0.5368260">
        <ele>219.2</ele>
        <time>2020-08-06T09:57:59Z</time>
      </trkpt>
      <trkpt lat="41.1160830" lon="0.5368220">
        <ele>219.2</ele>
        <time>2020-08-06T09:58:01Z</time>
      </trkpt>
      <trkpt lat="41.1160810" lon="0.5368200">
        <ele>219.2</ele>
        <time>2020-08-06T09:58:02Z</time>
      </trkpt>
      <trkpt lat="41.1160800" lon="0.5368180">
        <ele>219.2</ele>
        <time>2020-08-06T09:58:03Z</time>
      </trkpt>
      <trkpt lat="41.1160790" lon="0.5368150">
        <ele>219.2</ele>
        <time>2020-08-06T09:58:05Z</time>
      </trkpt>
      <trkpt lat="41.1160780" lon="0.5368140">
        <ele>219.2</ele>
        <time>2020-08-06T09:58:06Z</time>
      </trkpt>
      <trkpt lat="41.1160430" lon="0.5367940">
        <ele>219.3</ele>
        <time>2020-08-06T09:58:48Z</time>
      </trkpt>
      <trkpt lat="41.1160360" lon="0.5367980">
        <ele>219.3</ele>
        <time>2020-08-06T09:58:49Z</time>
      </trkpt>
      <trkpt lat="41.1160290" lon="0.5367940">
        <ele>219.3</ele>
        <time>2020-08-06T09:58:51Z</time>
      </trkpt>
      <trkpt lat="41.1160280" lon="0.5367960">
        <ele>219.3</ele>
        <time>2020-08-06T09:58:52Z</time>
      </trkpt>
      <trkpt lat="41.1160270" lon="0.5367980">
        <ele>219.3</ele>
        <time>2020-08-06T09:58:53Z</time>
      </trkpt>
      <trkpt lat="41.1160250" lon="0.5368010">
        <ele>219.3</ele>
        <time>2020-08-06T09:58:55Z</time>
      </trkpt>
      <trkpt lat="41.1160240" lon="0.5368010">
        <ele>219.3</ele>
        <time>2020-08-06T09:58:56Z</time>
      </trkpt>
      <trkpt lat="41.1160220" lon="0.5368000">
        <ele>219.3</ele>
        <time>2020-08-06T09:58:58Z</time>
      </trkpt>
      <trkpt lat="41.1160140" lon="0.5367980">
        <ele>219.4</ele>
        <time>2020-08-06T09:58:59Z</time>
      </trkpt>
      <trkpt lat="41.1160100" lon="0.5367920">
        <ele>219.4</ele>
        <time>2020-08-06T09:59:01Z</time>
      </trkpt>
      <trkpt lat="41.1160050" lon="0.5367830">
        <ele>219.4</ele>
        <time>2020-08-06T09:59:02Z</time>
      </trkpt>
      <trkpt lat="41.1160070" lon="0.5367720">
        <ele>219.4</ele>
        <time>2020-08-06T09:59:03Z</time>
      </trkpt>
      <trkpt lat="41.1160120" lon="0.5367620">
        <ele>219.4</ele>
        <time>2020-08-06T09:59:05Z</time>
      </trkpt>
      <trkpt lat="41.1160130" lon="0.5367480">
        <ele>219.4</ele>
        <time>2020-08-06T09:59:07Z</time>
      </trkpt>
      <trkpt lat="41.1160150" lon="0.5367250">
        <ele>219.4</ele>
        <time>2020-08-06T09:59:08Z</time>
      </trkpt>
      <trkpt lat="41.1160160" lon="0.5367110">
        <ele>219.5</ele>
        <time>2020-08-06T09:59:10Z</time>
      </trkpt>
      <trkpt lat="41.1160170" lon="0.5366970">
        <ele>219.5</ele>
        <time>2020-08-06T09:59:11Z</time>
      </trkpt>
      <trkpt lat="41.1160410" lon="0.5366500">
        <ele>219.4</ele>
        <time>2020-08-06T09:59:12Z</time>
      </trkpt>
      <trkpt lat="41.1160580" lon="0.5366170">
        <ele>219.3</ele>
        <time>2020-08-06T09:59:13Z</time>
      </trkpt>
      <trkpt lat="41.1161030" lon="0.5365640">
        <ele>219.1</ele>
        <time>2020-08-06T09:59:15Z</time>
      </trkpt>
      <trkpt lat="41.1161290" lon="0.5365410">
        <ele>219.0</ele>
        <time>2020-08-06T09:59:16Z</time>
      </trkpt>
      <trkpt lat="41.1161950" lon="0.5364920">
        <ele>218.8</ele>
        <time>2020-08-06T09:59:18Z</time>
      </trkpt>
      <trkpt lat="41.1162260" lon="0.5364710">
        <ele>218.8</ele>
        <time>2020-08-06T09:59:19Z</time>
      </trkpt>
      <trkpt lat="41.1163230" lon="0.5364120">
        <ele>218.8</ele>
        <time>2020-08-06T09:59:21Z</time>
      </trkpt>
      <trkpt lat="41.1163750" lon="0.5363840">
        <ele>218.9</ele>
        <time>2020-08-06T09:59:22Z</time>
      </trkpt>
      <trkpt lat="41.1164260" lon="0.5363500">
        <ele>219.0</ele>
        <time>2020-08-06T09:59:23Z</time>
      </trkpt>
      <trkpt lat="41.1164790" lon="0.5363150">
        <ele>219.3</ele>
        <time>2020-08-06T09:59:24Z</time>
      </trkpt>
      <trkpt lat="41.1165650" lon="0.5362410">
        <ele>219.6</ele>
        <time>2020-08-06T09:59:26Z</time>
      </trkpt>
      <trkpt lat="41.1166230" lon="0.5361930">
        <ele>219.8</ele>
        <time>2020-08-06T09:59:28Z</time>
      </trkpt>
      <trkpt lat="41.1166470" lon="0.5361680">
        <ele>219.9</ele>
        <time>2020-08-06T09:59:29Z</time>
      </trkpt>
      <trkpt lat="41.1166880" lon="0.5361270">
        <ele>220.0</ele>
        <time>2020-08-06T09:59:31Z</time>
      </trkpt>
      <trkpt lat="41.1167060" lon="0.5361020">
        <ele>220.1</ele>
        <time>2020-08-06T09:59:32Z</time>
      </trkpt>
      <trkpt lat="41.1167460" lon="0.5360570">
        <ele>220.2</ele>
        <time>2020-08-06T09:59:34Z</time>
      </trkpt>
      <trkpt lat="41.1167690" lon="0.5360340">
        <ele>220.3</ele>
        <time>2020-08-06T09:59:35Z</time>
      </trkpt>
      <trkpt lat="41.1168200" lon="0.5359930">
        <ele>220.4</ele>
        <time>2020-08-06T09:59:37Z</time>
      </trkpt>
      <trkpt lat="41.1168670" lon="0.5359460">
        <ele>220.6</ele>
        <time>2020-08-06T09:59:39Z</time>
      </trkpt>
      <trkpt lat="41.1168840" lon="0.5359290">
        <ele>220.7</ele>
        <time>2020-08-06T09:59:40Z</time>
      </trkpt>
      <trkpt lat="41.1169260" lon="0.5358890">
        <ele>220.8</ele>
        <time>2020-08-06T09:59:42Z</time>
      </trkpt>
      <trkpt lat="41.1169540" lon="0.5358530">
        <ele>220.9</ele>
        <time>2020-08-06T09:59:43Z</time>
      </trkpt>
      <trkpt lat="41.1169630" lon="0.5358420">
        <ele>220.9</ele>
        <time>2020-08-06T09:59:44Z</time>
      </trkpt>
      <trkpt lat="41.1169750" lon="0.5358290">
        <ele>220.9</ele>
        <time>2020-08-06T09:59:45Z</time>
      </trkpt>
      <trkpt lat="41.1170050" lon="0.5357880">
        <ele>221.0</ele>
        <time>2020-08-06T09:59:47Z</time>
      </trkpt>
      <trkpt lat="41.1170080" lon="0.5357770">
        <ele>221.0</ele>
        <time>2020-08-06T09:59:48Z</time>
      </trkpt>
      <trkpt lat="41.1170100" lon="0.5357570">
        <ele>221.0</ele>
        <time>2020-08-06T09:59:49Z</time>
      </trkpt>
      <trkpt lat="41.1170060" lon="0.5357020">
        <ele>221.1</ele>
        <time>2020-08-06T09:59:51Z</time>
      </trkpt>
      <trkpt lat="41.1169940" lon="0.5356560">
        <ele>221.2</ele>
        <time>2020-08-06T09:59:52Z</time>
      </trkpt>
      <trkpt lat="41.1169880" lon="0.5356400">
        <ele>221.2</ele>
        <time>2020-08-06T09:59:53Z</time>
      </trkpt>
      <trkpt lat="41.1169420" lon="0.5355750">
        <ele>220.6</ele>
        <time>2020-08-06T09:59:55Z</time>
      </trkpt>
      <trkpt lat="41.1169130" lon="0.5355530">
        <ele>220.4</ele>
        <time>2020-08-06T09:59:56Z</time>
      </trkpt>
      <trkpt lat="41.1168480" lon="0.5355150">
        <ele>220.1</ele>
        <time>2020-08-06T09:59:58Z</time>
      </trkpt>
      <trkpt lat="41.1167770" lon="0.5354870">
        <ele>219.7</ele>
        <time>2020-08-06T10:00:00Z</time>
      </trkpt>
      <trkpt lat="41.1166930" lon="0.5354490">
        <ele>219.3</ele>
        <time>2020-08-06T10:00:02Z</time>
      </trkpt>
      <trkpt lat="41.1166410" lon="0.5354250">
        <ele>219.0</ele>
        <time>2020-08-06T10:00:03Z</time>
      </trkpt>
      <trkpt lat="41.1165910" lon="0.5353980">
        <ele>218.7</ele>
        <time>2020-08-06T10:00:04Z</time>
      </trkpt>
      <trkpt lat="41.1164920" lon="0.5353430">
        <ele>218.3</ele>
        <time>2020-08-06T10:00:06Z</time>
      </trkpt>
      <trkpt lat="41.1164420" lon="0.5353160">
        <ele>218.1</ele>
        <time>2020-08-06T10:00:07Z</time>
      </trkpt>
      <trkpt lat="41.1163920" lon="0.5352880">
        <ele>217.8</ele>
        <time>2020-08-06T10:00:08Z</time>
      </trkpt>
      <trkpt lat="41.1163380" lon="0.5352560">
        <ele>217.6</ele>
        <time>2020-08-06T10:00:09Z</time>
      </trkpt>
      <trkpt lat="41.1162300" lon="0.5352000">
        <ele>217.1</ele>
        <time>2020-08-06T10:00:11Z</time>
      </trkpt>
      <trkpt lat="41.1161720" lon="0.5351680">
        <ele>216.8</ele>
        <time>2020-08-06T10:00:12Z</time>
      </trkpt>
      <trkpt lat="41.1160590" lon="0.5351080">
        <ele>216.3</ele>
        <time>2020-08-06T10:00:14Z</time>
      </trkpt>
      <trkpt lat="41.1160010" lon="0.5350740">
        <ele>216.1</ele>
        <time>2020-08-06T10:00:15Z</time>
      </trkpt>
      <trkpt lat="41.1159410" lon="0.5350380">
        <ele>215.8</ele>
        <time>2020-08-06T10:00:16Z</time>
      </trkpt>
      <trkpt lat="41.1158800" lon="0.5350040">
        <ele>215.6</ele>
        <time>2020-08-06T10:00:17Z</time>
      </trkpt>
      <trkpt lat="41.1158190" lon="0.5349760">
        <ele>215.4</ele>
        <time>2020-08-06T10:00:18Z</time>
      </trkpt>
      <trkpt lat="41.1156950" lon="0.5349170">
        <ele>214.8</ele>
        <time>2020-08-06T10:00:20Z</time>
      </trkpt>
      <trkpt lat="41.1156290" lon="0.5348830">
        <ele>214.5</ele>
        <time>2020-08-06T10:00:21Z</time>
      </trkpt>
      <trkpt lat="41.1155630" lon="0.5348460">
        <ele>214.1</ele>
        <time>2020-08-06T10:00:22Z</time>
      </trkpt>
      <trkpt lat="41.1154960" lon="0.5348050">
        <ele>213.8</ele>
        <time>2020-08-06T10:00:23Z</time>
      </trkpt>
      <trkpt lat="41.1153690" lon="0.5347240">
        <ele>213.3</ele>
        <time>2020-08-06T10:00:25Z</time>
      </trkpt>
      <trkpt lat="41.1153070" lon="0.5346860">
        <ele>213.0</ele>
        <time>2020-08-06T10:00:26Z</time>
      </trkpt>
      <trkpt lat="41.1151770" lon="0.5346090">
        <ele>212.4</ele>
        <time>2020-08-06T10:00:28Z</time>
      </trkpt>
      <trkpt lat="41.1151140" lon="0.5345710">
        <ele>212.2</ele>
        <time>2020-08-06T10:00:29Z</time>
      </trkpt>
      <trkpt lat="41.1149880" lon="0.5344970">
        <ele>211.6</ele>
        <time>2020-08-06T10:00:31Z</time>
      </trkpt>
      <trkpt lat="41.1148630" lon="0.5344290">
        <ele>211.2</ele>
        <time>2020-08-06T10:00:33Z</time>
      </trkpt>
      <trkpt lat="41.1147990" lon="0.5343920">
        <ele>210.9</ele>
        <time>2020-08-06T10:00:34Z</time>
      </trkpt>
      <trkpt lat="41.1146780" lon="0.5343320">
        <ele>210.5</ele>
        <time>2020-08-06T10:00:36Z</time>
      </trkpt>
      <trkpt lat="41.1146180" lon="0.5342970">
        <ele>210.3</ele>
        <time>2020-08-06T10:00:37Z</time>
      </trkpt>
      <trkpt lat="41.1145580" lon="0.5342670">
        <ele>210.1</ele>
        <time>2020-08-06T10:00:38Z</time>
      </trkpt>
      <trkpt lat="41.1144930" lon="0.5342400">
        <ele>210.0</ele>
        <time>2020-08-06T10:00:39Z</time>
      </trkpt>
      <trkpt lat="41.1144340" lon="0.5342150">
        <ele>209.8</ele>
        <time>2020-08-06T10:00:40Z</time>
      </trkpt>
      <trkpt lat="41.1143750" lon="0.5341840">
        <ele>209.6</ele>
        <time>2020-08-06T10:00:41Z</time>
      </trkpt>
      <trkpt lat="41.1142520" lon="0.5341160">
        <ele>209.3</ele>
        <time>2020-08-06T10:00:43Z</time>
      </trkpt>
      <trkpt lat="41.1141290" lon="0.5340500">
        <ele>208.9</ele>
        <time>2020-08-06T10:00:45Z</time>
      </trkpt>
      <trkpt lat="41.1140670" lon="0.5340280">
        <ele>208.7</ele>
        <time>2020-08-06T10:00:46Z</time>
      </trkpt>
      <trkpt lat="41.1140090" lon="0.5340000">
        <ele>208.5</ele>
        <time>2020-08-06T10:00:47Z</time>
      </trkpt>
      <trkpt lat="41.1139490" lon="0.5339760">
        <ele>208.4</ele>
        <time>2020-08-06T10:00:48Z</time>
      </trkpt>
      <trkpt lat="41.1138880" lon="0.5339490">
        <ele>208.3</ele>
        <time>2020-08-06T10:00:49Z</time>
      </trkpt>
      <trkpt lat="41.1137690" lon="0.5339100">
        <ele>208.1</ele>
        <time>2020-08-06T10:00:51Z</time>
      </trkpt>
      <trkpt lat="41.1136480" lon="0.5338670">
        <ele>207.8</ele>
        <time>2020-08-06T10:00:53Z</time>
      </trkpt>
      <trkpt lat="41.1135310" lon="0.5338390">
        <ele>207.6</ele>
        <time>2020-08-06T10:00:55Z</time>
      </trkpt>
      <trkpt lat="41.1134740" lon="0.5338340">
        <ele>207.5</ele>
        <time>2020-08-06T10:00:56Z</time>
      </trkpt>
      <trkpt lat="41.1134140" lon="0.5338220">
        <ele>207.4</ele>
        <time>2020-08-06T10:00:57Z</time>
      </trkpt>
      <trkpt lat="41.1132900" lon="0.5338030">
        <ele>207.1</ele>
        <time>2020-08-06T10:00:59Z</time>
      </trkpt>
      <trkpt lat="41.1131610" lon="0.5337870">
        <ele>206.6</ele>
        <time>2020-08-06T10:01:01Z</time>
      </trkpt>
      <trkpt lat="41.1130310" lon="0.5337920">
        <ele>206.1</ele>
        <time>2020-08-06T10:01:03Z</time>
      </trkpt>
      <trkpt lat="41.1129700" lon="0.5337990">
        <ele>205.8</ele>
        <time>2020-08-06T10:01:04Z</time>
      </trkpt>
      <trkpt lat="41.1129060" lon="0.5338030">
        <ele>205.5</ele>
        <time>2020-08-06T10:01:05Z</time>
      </trkpt>
      <trkpt lat="41.1127780" lon="0.5338180">
        <ele>204.9</ele>
        <time>2020-08-06T10:01:07Z</time>
      </trkpt>
      <trkpt lat="41.1127140" lon="0.5338310">
        <ele>204.5</ele>
        <time>2020-08-06T10:01:08Z</time>
      </trkpt>
      <trkpt lat="41.1126490" lon="0.5338520">
        <ele>204.1</ele>
        <time>2020-08-06T10:01:09Z</time>
      </trkpt>
      <trkpt lat="41.1125170" lon="0.5338940">
        <ele>203.3</ele>
        <time>2020-08-06T10:01:11Z</time>
      </trkpt>
      <trkpt lat="41.1124480" lon="0.5339190">
        <ele>202.8</ele>
        <time>2020-08-06T10:01:12Z</time>
      </trkpt>
      <trkpt lat="41.1122980" lon="0.5339640">
        <ele>201.9</ele>
        <time>2020-08-06T10:01:14Z</time>
      </trkpt>
      <trkpt lat="41.1122230" lon="0.5340060">
        <ele>201.3</ele>
        <time>2020-08-06T10:01:15Z</time>
      </trkpt>
      <trkpt lat="41.1120700" lon="0.5340720">
        <ele>200.3</ele>
        <time>2020-08-06T10:01:17Z</time>
      </trkpt>
      <trkpt lat="41.1119130" lon="0.5341410">
        <ele>199.3</ele>
        <time>2020-08-06T10:01:19Z</time>
      </trkpt>
      <trkpt lat="41.1118320" lon="0.5341740">
        <ele>198.7</ele>
        <time>2020-08-06T10:01:20Z</time>
      </trkpt>
      <trkpt lat="41.1116650" lon="0.5342160">
        <ele>197.6</ele>
        <time>2020-08-06T10:01:22Z</time>
      </trkpt>
      <trkpt lat="41.1115820" lon="0.5342410">
        <ele>197.1</ele>
        <time>2020-08-06T10:01:23Z</time>
      </trkpt>
      <trkpt lat="41.1114120" lon="0.5342660">
        <ele>196.0</ele>
        <time>2020-08-06T10:01:25Z</time>
      </trkpt>
      <trkpt lat="41.1113340" lon="0.5342510">
        <ele>195.5</ele>
        <time>2020-08-06T10:01:26Z</time>
      </trkpt>
      <trkpt lat="41.1112550" lon="0.5342380">
        <ele>195.0</ele>
        <time>2020-08-06T10:01:27Z</time>
      </trkpt>
      <trkpt lat="41.1110950" lon="0.5342070">
        <ele>194.1</ele>
        <time>2020-08-06T10:01:29Z</time>
      </trkpt>
      <trkpt lat="41.1109430" lon="0.5341620">
        <ele>193.4</ele>
        <time>2020-08-06T10:01:31Z</time>
      </trkpt>
      <trkpt lat="41.1108700" lon="0.5341340">
        <ele>193.1</ele>
        <time>2020-08-06T10:01:32Z</time>
      </trkpt>
      <trkpt lat="41.1107280" lon="0.5340750">
        <ele>192.6</ele>
        <time>2020-08-06T10:01:34Z</time>
      </trkpt>
      <trkpt lat="41.1106600" lon="0.5340410">
        <ele>192.5</ele>
        <time>2020-08-06T10:01:35Z</time>
      </trkpt>
      <trkpt lat="41.1105490" lon="0.5339460">
        <ele>192.7</ele>
        <time>2020-08-06T10:01:37Z</time>
      </trkpt>
      <trkpt lat="41.1104940" lon="0.5338300">
        <ele>192.9</ele>
        <time>2020-08-06T10:01:39Z</time>
      </trkpt>
      <trkpt lat="41.1104690" lon="0.5337340">
        <ele>192.8</ele>
        <time>2020-08-06T10:01:41Z</time>
      </trkpt>
      <trkpt lat="41.1104610" lon="0.5336980">
        <ele>192.8</ele>
        <time>2020-08-06T10:01:42Z</time>
      </trkpt>
      <trkpt lat="41.1104560" lon="0.5336660">
        <ele>192.8</ele>
        <time>2020-08-06T10:01:43Z</time>
      </trkpt>
      <trkpt lat="41.1104540" lon="0.5335850">
        <ele>192.8</ele>
        <time>2020-08-06T10:01:45Z</time>
      </trkpt>
      <trkpt lat="41.1104540" lon="0.5335410">
        <ele>192.8</ele>
        <time>2020-08-06T10:01:46Z</time>
      </trkpt>
      <trkpt lat="41.1104520" lon="0.5334610">
        <ele>192.9</ele>
        <time>2020-08-06T10:01:48Z</time>
      </trkpt>
      <trkpt lat="41.1104530" lon="0.5334160">
        <ele>192.9</ele>
        <time>2020-08-06T10:01:49Z</time>
      </trkpt>
      <trkpt lat="41.1104530" lon="0.5333310">
        <ele>193.0</ele>
        <time>2020-08-06T10:01:51Z</time>
      </trkpt>
      <trkpt lat="41.1104550" lon="0.5332560">
        <ele>193.1</ele>
        <time>2020-08-06T10:01:53Z</time>
      </trkpt>
      <trkpt lat="41.1104540" lon="0.5331780">
        <ele>193.2</ele>
        <time>2020-08-06T10:01:55Z</time>
      </trkpt>
      <trkpt lat="41.1104550" lon="0.5331310">
        <ele>193.3</ele>
        <time>2020-08-06T10:01:56Z</time>
      </trkpt>
      <trkpt lat="41.1104550" lon="0.5331110">
        <ele>193.4</ele>
        <time>2020-08-06T10:01:57Z</time>
      </trkpt>
      <trkpt lat="41.1104540" lon="0.5330680">
        <ele>193.4</ele>
        <time>2020-08-06T10:01:58Z</time>
      </trkpt>
      <trkpt lat="41.1104510" lon="0.5330320">
        <ele>193.5</ele>
        <time>2020-08-06T10:01:59Z</time>
      </trkpt>
      <trkpt lat="41.1104460" lon="0.5329560">
        <ele>193.6</ele>
        <time>2020-08-06T10:02:01Z</time>
      </trkpt>
      <trkpt lat="41.1104420" lon="0.5329110">
        <ele>193.7</ele>
        <time>2020-08-06T10:02:02Z</time>
      </trkpt>
      <trkpt lat="41.1104340" lon="0.5328360">
        <ele>193.9</ele>
        <time>2020-08-06T10:02:04Z</time>
      </trkpt>
      <trkpt lat="41.1104260" lon="0.5327820">
        <ele>194.0</ele>
        <time>2020-08-06T10:02:05Z</time>
      </trkpt>
      <trkpt lat="41.1104230" lon="0.5327620">
        <ele>194.0</ele>
        <time>2020-08-06T10:02:06Z</time>
      </trkpt>
      <trkpt lat="41.1104110" lon="0.5326950">
        <ele>194.2</ele>
        <time>2020-08-06T10:02:08Z</time>
      </trkpt>
      <trkpt lat="41.1103970" lon="0.5326220">
        <ele>194.4</ele>
        <time>2020-08-06T10:02:10Z</time>
      </trkpt>
      <trkpt lat="41.1103890" lon="0.5325820">
        <ele>194.5</ele>
        <time>2020-08-06T10:02:11Z</time>
      </trkpt>
      <trkpt lat="41.1103740" lon="0.5325080">
        <ele>194.7</ele>
        <time>2020-08-06T10:02:13Z</time>
      </trkpt>
      <trkpt lat="41.1103580" lon="0.5324340">
        <ele>194.9</ele>
        <time>2020-08-06T10:02:15Z</time>
      </trkpt>
      <trkpt lat="41.1103440" lon="0.5323750">
        <ele>195.1</ele>
        <time>2020-08-06T10:02:17Z</time>
      </trkpt>
      <trkpt lat="41.1103340" lon="0.5323390">
        <ele>195.2</ele>
        <time>2020-08-06T10:02:18Z</time>
      </trkpt>
      <trkpt lat="41.1103100" lon="0.5322620">
        <ele>195.3</ele>
        <time>2020-08-06T10:02:20Z</time>
      </trkpt>
      <trkpt lat="41.1102920" lon="0.5322150">
        <ele>195.4</ele>
        <time>2020-08-06T10:02:21Z</time>
      </trkpt>
      <trkpt lat="41.1102840" lon="0.5321970">
        <ele>195.5</ele>
        <time>2020-08-06T10:02:22Z</time>
      </trkpt>
      <trkpt lat="41.1102690" lon="0.5321630">
        <ele>195.5</ele>
        <time>2020-08-06T10:02:23Z</time>
      </trkpt>
      <trkpt lat="41.1102310" lon="0.5320880">
        <ele>195.5</ele>
        <time>2020-08-06T10:02:25Z</time>
      </trkpt>
      <trkpt lat="41.1102120" lon="0.5320520">
        <ele>195.5</ele>
        <time>2020-08-06T10:02:26Z</time>
      </trkpt>
      <trkpt lat="41.1101970" lon="0.5320250">
        <ele>195.6</ele>
        <time>2020-08-06T10:02:27Z</time>
      </trkpt>
      <trkpt lat="41.1101580" lon="0.5319540">
        <ele>195.6</ele>
        <time>2020-08-06T10:02:29Z</time>
      </trkpt>
      <trkpt lat="41.1101130" lon="0.5318730">
        <ele>195.8</ele>
        <time>2020-08-06T10:02:31Z</time>
      </trkpt>
      <trkpt lat="41.1100930" lon="0.5318360">
        <ele>195.8</ele>
        <time>2020-08-06T10:02:32Z</time>
      </trkpt>
      <trkpt lat="41.1100500" lon="0.5317660">
        <ele>196.0</ele>
        <time>2020-08-06T10:02:34Z</time>
      </trkpt>
      <trkpt lat="41.1100280" lon="0.5317330">
        <ele>196.0</ele>
        <time>2020-08-06T10:02:35Z</time>
      </trkpt>
      <trkpt lat="41.1099740" lon="0.5316520">
        <ele>196.2</ele>
        <time>2020-08-06T10:02:37Z</time>
      </trkpt>
      <trkpt lat="41.1099470" lon="0.5316120">
        <ele>196.2</ele>
        <time>2020-08-06T10:02:38Z</time>
      </trkpt>
      <trkpt lat="41.1099200" lon="0.5315740">
        <ele>196.3</ele>
        <time>2020-08-06T10:02:39Z</time>
      </trkpt>
      <trkpt lat="41.1098990" lon="0.5315430">
        <ele>196.3</ele>
        <time>2020-08-06T10:02:40Z</time>
      </trkpt>
      <trkpt lat="41.1098490" lon="0.5314780">
        <ele>196.4</ele>
        <time>2020-08-06T10:02:42Z</time>
      </trkpt>
      <trkpt lat="41.1097920" lon="0.5314100">
        <ele>196.6</ele>
        <time>2020-08-06T10:02:44Z</time>
      </trkpt>
      <trkpt lat="41.1097400" lon="0.5313430">
        <ele>196.8</ele>
        <time>2020-08-06T10:02:46Z</time>
      </trkpt>
      <trkpt lat="41.1097120" lon="0.5313030">
        <ele>196.8</ele>
        <time>2020-08-06T10:02:47Z</time>
      </trkpt>
      <trkpt lat="41.1096670" lon="0.5312320">
        <ele>196.9</ele>
        <time>2020-08-06T10:02:49Z</time>
      </trkpt>
      <trkpt lat="41.1096420" lon="0.5311940">
        <ele>196.9</ele>
        <time>2020-08-06T10:02:50Z</time>
      </trkpt>
      <trkpt lat="41.1096230" lon="0.5311650">
        <ele>196.9</ele>
        <time>2020-08-06T10:02:51Z</time>
      </trkpt>
      <trkpt lat="41.1095690" lon="0.5310880">
        <ele>197.0</ele>
        <time>2020-08-06T10:02:53Z</time>
      </trkpt>
      <trkpt lat="41.1095270" lon="0.5310220">
        <ele>197.1</ele>
        <time>2020-08-06T10:02:55Z</time>
      </trkpt>
      <trkpt lat="41.1094830" lon="0.5309550">
        <ele>197.1</ele>
        <time>2020-08-06T10:02:57Z</time>
      </trkpt>
      <trkpt lat="41.1094630" lon="0.5309250">
        <ele>197.2</ele>
        <time>2020-08-06T10:02:58Z</time>
      </trkpt>
      <trkpt lat="41.1094100" lon="0.5308490">
        <ele>197.3</ele>
        <time>2020-08-06T10:03:00Z</time>
      </trkpt>
      <trkpt lat="41.1093860" lon="0.5308150">
        <ele>197.3</ele>
        <time>2020-08-06T10:03:01Z</time>
      </trkpt>
      <trkpt lat="41.1093670" lon="0.5307870">
        <ele>197.4</ele>
        <time>2020-08-06T10:03:02Z</time>
      </trkpt>
      <trkpt lat="41.1093260" lon="0.5307280">
        <ele>197.5</ele>
        <time>2020-08-06T10:03:04Z</time>
      </trkpt>
      <trkpt lat="41.1092920" lon="0.5306780">
        <ele>197.6</ele>
        <time>2020-08-06T10:03:06Z</time>
      </trkpt>
      <trkpt lat="41.1092720" lon="0.5306490">
        <ele>197.6</ele>
        <time>2020-08-06T10:03:07Z</time>
      </trkpt>
      <trkpt lat="41.1092540" lon="0.5306210">
        <ele>197.7</ele>
        <time>2020-08-06T10:03:08Z</time>
      </trkpt>
      <trkpt lat="41.1092120" lon="0.5305620">
        <ele>197.8</ele>
        <time>2020-08-06T10:03:10Z</time>
      </trkpt>
      <trkpt lat="41.1091900" lon="0.5305340">
        <ele>197.8</ele>
        <time>2020-08-06T10:03:11Z</time>
      </trkpt>
      <trkpt lat="41.1091400" lon="0.5304650">
        <ele>198.0</ele>
        <time>2020-08-06T10:03:13Z</time>
      </trkpt>
      <trkpt lat="41.1090980" lon="0.5304060">
        <ele>198.1</ele>
        <time>2020-08-06T10:03:15Z</time>
      </trkpt>
      <trkpt lat="41.1090740" lon="0.5303710">
        <ele>198.1</ele>
        <time>2020-08-06T10:03:16Z</time>
      </trkpt>
      <trkpt lat="41.1090300" lon="0.5303100">
        <ele>198.2</ele>
        <time>2020-08-06T10:03:18Z</time>
      </trkpt>
      <trkpt lat="41.1089920" lon="0.5302540">
        <ele>198.3</ele>
        <time>2020-08-06T10:03:20Z</time>
      </trkpt>
      <trkpt lat="41.1089720" lon="0.5302240">
        <ele>198.4</ele>
        <time>2020-08-06T10:03:21Z</time>
      </trkpt>
      <trkpt lat="41.1089370" lon="0.5301770">
        <ele>198.4</ele>
        <time>2020-08-06T10:03:23Z</time>
      </trkpt>
      <trkpt lat="41.1088990" lon="0.5301280">
        <ele>198.5</ele>
        <time>2020-08-06T10:03:25Z</time>
      </trkpt>
      <trkpt lat="41.1088600" lon="0.5300770">
        <ele>198.5</ele>
        <time>2020-08-06T10:03:27Z</time>
      </trkpt>
      <trkpt lat="41.1088320" lon="0.5300410">
        <ele>198.6</ele>
        <time>2020-08-06T10:03:28Z</time>
      </trkpt>
      <trkpt lat="41.1088220" lon="0.5300280">
        <ele>198.6</ele>
        <time>2020-08-06T10:03:29Z</time>
      </trkpt>
      <trkpt lat="41.1087390" lon="0.5299160">
        <ele>198.7</ele>
        <time>2020-08-06T10:03:33Z</time>
      </trkpt>
      <trkpt lat="41.1087090" lon="0.5298760">
        <ele>198.8</ele>
        <time>2020-08-06T10:03:34Z</time>
      </trkpt>
      <trkpt lat="41.1086640" lon="0.5298160">
        <ele>198.9</ele>
        <time>2020-08-06T10:03:36Z</time>
      </trkpt>
      <trkpt lat="41.1086120" lon="0.5297530">
        <ele>199.0</ele>
        <time>2020-08-06T10:03:38Z</time>
      </trkpt>
      <trkpt lat="41.1085120" lon="0.5296470">
        <ele>199.2</ele>
        <time>2020-08-06T10:03:44Z</time>
      </trkpt>
      <trkpt lat="41.1084310" lon="0.5295730">
        <ele>199.3</ele>
        <time>2020-08-06T10:03:46Z</time>
      </trkpt>
      <trkpt lat="41.1084010" lon="0.5295440">
        <ele>199.4</ele>
        <time>2020-08-06T10:03:47Z</time>
      </trkpt>
      <trkpt lat="41.1083720" lon="0.5295150">
        <ele>199.5</ele>
        <time>2020-08-06T10:03:48Z</time>
      </trkpt>
      <trkpt lat="41.1083410" lon="0.5294820">
        <ele>199.5</ele>
        <time>2020-08-06T10:03:49Z</time>
      </trkpt>
      <trkpt lat="41.1082870" lon="0.5294260">
        <ele>199.6</ele>
        <time>2020-08-06T10:03:51Z</time>
      </trkpt>
      <trkpt lat="41.1082600" lon="0.5293960">
        <ele>199.7</ele>
        <time>2020-08-06T10:03:52Z</time>
      </trkpt>
      <trkpt lat="41.1082320" lon="0.5293650">
        <ele>199.7</ele>
        <time>2020-08-06T10:03:53Z</time>
      </trkpt>
      <trkpt lat="41.1082060" lon="0.5293350">
        <ele>199.8</ele>
        <time>2020-08-06T10:03:54Z</time>
      </trkpt>
      <trkpt lat="41.1081580" lon="0.5292860">
        <ele>199.9</ele>
        <time>2020-08-06T10:03:56Z</time>
      </trkpt>
      <trkpt lat="41.1081330" lon="0.5292620">
        <ele>200.0</ele>
        <time>2020-08-06T10:03:57Z</time>
      </trkpt>
      <trkpt lat="41.1080860" lon="0.5292160">
        <ele>200.1</ele>
        <time>2020-08-06T10:03:59Z</time>
      </trkpt>
      <trkpt lat="41.1080590" lon="0.5291910">
        <ele>200.1</ele>
        <time>2020-08-06T10:04:00Z</time>
      </trkpt>
      <trkpt lat="41.1080130" lon="0.5291480">
        <ele>200.2</ele>
        <time>2020-08-06T10:04:02Z</time>
      </trkpt>
      <trkpt lat="41.1079830" lon="0.5291220">
        <ele>200.3</ele>
        <time>2020-08-06T10:04:03Z</time>
      </trkpt>
      <trkpt lat="41.1079530" lon="0.5290960">
        <ele>200.3</ele>
        <time>2020-08-06T10:04:04Z</time>
      </trkpt>
      <trkpt lat="41.1079030" lon="0.5290580">
        <ele>200.4</ele>
        <time>2020-08-06T10:04:06Z</time>
      </trkpt>
      <trkpt lat="41.1078240" lon="0.5290060">
        <ele>200.5</ele>
        <time>2020-08-06T10:04:08Z</time>
      </trkpt>
      <trkpt lat="41.1078060" lon="0.5289940">
        <ele>200.5</ele>
        <time>2020-08-06T10:04:09Z</time>
      </trkpt>
      <trkpt lat="41.1077470" lon="0.5289460">
        <ele>200.5</ele>
        <time>2020-08-06T10:04:12Z</time>
      </trkpt>
      <trkpt lat="41.1076890" lon="0.5288920">
        <ele>200.6</ele>
        <time>2020-08-06T10:04:13Z</time>
      </trkpt>
      <trkpt lat="41.1076440" lon="0.5288410">
        <ele>200.7</ele>
        <time>2020-08-06T10:04:15Z</time>
      </trkpt>
      <trkpt lat="41.1076200" lon="0.5288140">
        <ele>200.8</ele>
        <time>2020-08-06T10:04:16Z</time>
      </trkpt>
      <trkpt lat="41.1075950" lon="0.5287890">
        <ele>200.8</ele>
        <time>2020-08-06T10:04:17Z</time>
      </trkpt>
      <trkpt lat="41.1075510" lon="0.5287470">
        <ele>200.9</ele>
        <time>2020-08-06T10:04:19Z</time>
      </trkpt>
      <trkpt lat="41.1075270" lon="0.5287250">
        <ele>201.0</ele>
        <time>2020-08-06T10:04:20Z</time>
      </trkpt>
      <trkpt lat="41.1075030" lon="0.5287020">
        <ele>201.0</ele>
        <time>2020-08-06T10:04:21Z</time>
      </trkpt>
      <trkpt lat="41.1074590" lon="0.5286610">
        <ele>201.1</ele>
        <time>2020-08-06T10:04:23Z</time>
      </trkpt>
      <trkpt lat="41.1074340" lon="0.5286410">
        <ele>201.2</ele>
        <time>2020-08-06T10:04:24Z</time>
      </trkpt>
      <trkpt lat="41.1073890" lon="0.5286060">
        <ele>201.3</ele>
        <time>2020-08-06T10:04:26Z</time>
      </trkpt>
      <trkpt lat="41.1073620" lon="0.5285840">
        <ele>201.3</ele>
        <time>2020-08-06T10:04:27Z</time>
      </trkpt>
      <trkpt lat="41.1073360" lon="0.5285620">
        <ele>201.4</ele>
        <time>2020-08-06T10:04:28Z</time>
      </trkpt>
      <trkpt lat="41.1073130" lon="0.5285390">
        <ele>201.5</ele>
        <time>2020-08-06T10:04:29Z</time>
      </trkpt>
      <trkpt lat="41.1072700" lon="0.5284940">
        <ele>201.6</ele>
        <time>2020-08-06T10:04:31Z</time>
      </trkpt>
      <trkpt lat="41.1072240" lon="0.5284460">
        <ele>201.7</ele>
        <time>2020-08-06T10:04:33Z</time>
      </trkpt>
      <trkpt lat="41.1071970" lon="0.5284200">
        <ele>201.8</ele>
        <time>2020-08-06T10:04:34Z</time>
      </trkpt>
      <trkpt lat="41.1071750" lon="0.5283980">
        <ele>201.9</ele>
        <time>2020-08-06T10:04:35Z</time>
      </trkpt>
      <trkpt lat="41.1071260" lon="0.5283490">
        <ele>202.0</ele>
        <time>2020-08-06T10:04:37Z</time>
      </trkpt>
      <trkpt lat="41.1071010" lon="0.5283230">
        <ele>202.1</ele>
        <time>2020-08-06T10:04:38Z</time>
      </trkpt>
      <trkpt lat="41.1070560" lon="0.5282820">
        <ele>202.2</ele>
        <time>2020-08-06T10:04:40Z</time>
      </trkpt>
      <trkpt lat="41.1070100" lon="0.5282420">
        <ele>202.3</ele>
        <time>2020-08-06T10:04:42Z</time>
      </trkpt>
      <trkpt lat="41.1069840" lon="0.5282190">
        <ele>202.3</ele>
        <time>2020-08-06T10:04:43Z</time>
      </trkpt>
      <trkpt lat="41.1069420" lon="0.5281840">
        <ele>202.4</ele>
        <time>2020-08-06T10:04:45Z</time>
      </trkpt>
      <trkpt lat="41.1069140" lon="0.5281620">
        <ele>202.4</ele>
        <time>2020-08-06T10:04:46Z</time>
      </trkpt>
      <trkpt lat="41.1068680" lon="0.5281260">
        <ele>202.5</ele>
        <time>2020-08-06T10:04:48Z</time>
      </trkpt>
      <trkpt lat="41.1068130" lon="0.5280790">
        <ele>202.7</ele>
        <time>2020-08-06T10:04:50Z</time>
      </trkpt>
      <trkpt lat="41.1067860" lon="0.5280550">
        <ele>202.8</ele>
        <time>2020-08-06T10:04:51Z</time>
      </trkpt>
      <trkpt lat="41.1067600" lon="0.5280310">
        <ele>202.9</ele>
        <time>2020-08-06T10:04:52Z</time>
      </trkpt>
      <trkpt lat="41.1067340" lon="0.5280090">
        <ele>203.0</ele>
        <time>2020-08-06T10:04:53Z</time>
      </trkpt>
      <trkpt lat="41.1067060" lon="0.5279850">
        <ele>203.1</ele>
        <time>2020-08-06T10:04:54Z</time>
      </trkpt>
      <trkpt lat="41.1066850" lon="0.5279660">
        <ele>203.1</ele>
        <time>2020-08-06T10:04:55Z</time>
      </trkpt>
      <trkpt lat="41.1066300" lon="0.5279150">
        <ele>203.3</ele>
        <time>2020-08-06T10:04:57Z</time>
      </trkpt>
      <trkpt lat="41.1066090" lon="0.5278950">
        <ele>203.4</ele>
        <time>2020-08-06T10:04:58Z</time>
      </trkpt>
      <trkpt lat="41.1065520" lon="0.5278440">
        <ele>203.7</ele>
        <time>2020-08-06T10:05:00Z</time>
      </trkpt>
      <trkpt lat="41.1065220" lon="0.5278200">
        <ele>203.8</ele>
        <time>2020-08-06T10:05:01Z</time>
      </trkpt>
      <trkpt lat="41.1064950" lon="0.5277990">
        <ele>203.9</ele>
        <time>2020-08-06T10:05:02Z</time>
      </trkpt>
      <trkpt lat="41.1064670" lon="0.5277760">
        <ele>204.1</ele>
        <time>2020-08-06T10:05:03Z</time>
      </trkpt>
      <trkpt lat="41.1064130" lon="0.5277320">
        <ele>204.3</ele>
        <time>2020-08-06T10:05:05Z</time>
      </trkpt>
      <trkpt lat="41.1063890" lon="0.5277100">
        <ele>204.4</ele>
        <time>2020-08-06T10:05:06Z</time>
      </trkpt>
      <trkpt lat="41.1063360" lon="0.5276610">
        <ele>204.6</ele>
        <time>2020-08-06T10:05:08Z</time>
      </trkpt>
      <trkpt lat="41.1062860" lon="0.5276160">
        <ele>204.9</ele>
        <time>2020-08-06T10:05:10Z</time>
      </trkpt>
      <trkpt lat="41.1062560" lon="0.5275890">
        <ele>205.0</ele>
        <time>2020-08-06T10:05:11Z</time>
      </trkpt>
      <trkpt lat="41.1062020" lon="0.5275400">
        <ele>205.2</ele>
        <time>2020-08-06T10:05:13Z</time>
      </trkpt>
      <trkpt lat="41.1061760" lon="0.5275190">
        <ele>205.3</ele>
        <time>2020-08-06T10:05:14Z</time>
      </trkpt>
      <trkpt lat="41.1061260" lon="0.5274780">
        <ele>205.5</ele>
        <time>2020-08-06T10:05:16Z</time>
      </trkpt>
      <trkpt lat="41.1061000" lon="0.5274570">
        <ele>205.6</ele>
        <time>2020-08-06T10:05:17Z</time>
      </trkpt>
      <trkpt lat="41.1060450" lon="0.5274150">
        <ele>205.9</ele>
        <time>2020-08-06T10:05:19Z</time>
      </trkpt>
      <trkpt lat="41.1060220" lon="0.5273970">
        <ele>205.9</ele>
        <time>2020-08-06T10:05:20Z</time>
      </trkpt>
      <trkpt lat="41.1059750" lon="0.5273600">
        <ele>206.1</ele>
        <time>2020-08-06T10:05:22Z</time>
      </trkpt>
      <trkpt lat="41.1059250" lon="0.5273160">
        <ele>206.3</ele>
        <time>2020-08-06T10:05:24Z</time>
      </trkpt>
      <trkpt lat="41.1059020" lon="0.5272920">
        <ele>206.5</ele>
        <time>2020-08-06T10:05:25Z</time>
      </trkpt>
      <trkpt lat="41.1058780" lon="0.5272670">
        <ele>206.6</ele>
        <time>2020-08-06T10:05:26Z</time>
      </trkpt>
      <trkpt lat="41.1058370" lon="0.5272290">
        <ele>206.8</ele>
        <time>2020-08-06T10:05:28Z</time>
      </trkpt>
      <trkpt lat="41.1057870" lon="0.5271910">
        <ele>207.1</ele>
        <time>2020-08-06T10:05:30Z</time>
      </trkpt>
      <trkpt lat="41.1057640" lon="0.5271710">
        <ele>207.2</ele>
        <time>2020-08-06T10:05:31Z</time>
      </trkpt>
      <trkpt lat="41.1057410" lon="0.5271520">
        <ele>207.3</ele>
        <time>2020-08-06T10:05:32Z</time>
      </trkpt>
      <trkpt lat="41.1056990" lon="0.5271130">
        <ele>207.4</ele>
        <time>2020-08-06T10:05:34Z</time>
      </trkpt>
      <trkpt lat="41.1056760" lon="0.5270940">
        <ele>207.5</ele>
        <time>2020-08-06T10:05:35Z</time>
      </trkpt>
      <trkpt lat="41.1056530" lon="0.5270750">
        <ele>207.6</ele>
        <time>2020-08-06T10:05:36Z</time>
      </trkpt>
      <trkpt lat="41.1056190" lon="0.5270390">
        <ele>207.8</ele>
        <time>2020-08-06T10:05:38Z</time>
      </trkpt>
      <trkpt lat="41.1055910" lon="0.5270130">
        <ele>207.9</ele>
        <time>2020-08-06T10:05:39Z</time>
      </trkpt>
      <trkpt lat="41.1055830" lon="0.5270050">
        <ele>208.0</ele>
        <time>2020-08-06T10:05:40Z</time>
      </trkpt>
      <trkpt lat="41.1055590" lon="0.5269840">
        <ele>208.1</ele>
        <time>2020-08-06T10:05:41Z</time>
      </trkpt>
      <trkpt lat="41.1055170" lon="0.5269490">
        <ele>208.2</ele>
        <time>2020-08-06T10:05:43Z</time>
      </trkpt>
      <trkpt lat="41.1054930" lon="0.5269290">
        <ele>208.3</ele>
        <time>2020-08-06T10:05:44Z</time>
      </trkpt>
      <trkpt lat="41.1054490" lon="0.5268900">
        <ele>208.5</ele>
        <time>2020-08-06T10:05:46Z</time>
      </trkpt>
      <trkpt lat="41.1054060" lon="0.5268510">
        <ele>208.7</ele>
        <time>2020-08-06T10:05:48Z</time>
      </trkpt>
      <trkpt lat="41.1053650" lon="0.5268120">
        <ele>208.9</ele>
        <time>2020-08-06T10:05:50Z</time>
      </trkpt>
      <trkpt lat="41.1053140" lon="0.5267590">
        <ele>209.1</ele>
        <time>2020-08-06T10:05:52Z</time>
      </trkpt>
      <trkpt lat="41.1052930" lon="0.5267380">
        <ele>209.2</ele>
        <time>2020-08-06T10:05:53Z</time>
      </trkpt>
      <trkpt lat="41.1052420" lon="0.5266900">
        <ele>209.5</ele>
        <time>2020-08-06T10:05:55Z</time>
      </trkpt>
      <trkpt lat="41.1052200" lon="0.5266680">
        <ele>209.6</ele>
        <time>2020-08-06T10:05:56Z</time>
      </trkpt>
      <trkpt lat="41.1051890" lon="0.5266360">
        <ele>209.7</ele>
        <time>2020-08-06T10:05:57Z</time>
      </trkpt>
      <trkpt lat="41.1051760" lon="0.5266240">
        <ele>209.8</ele>
        <time>2020-08-06T10:05:58Z</time>
      </trkpt>
      <trkpt lat="41.1051290" lon="0.5265850">
        <ele>210.0</ele>
        <time>2020-08-06T10:06:00Z</time>
      </trkpt>
      <trkpt lat="41.1051050" lon="0.5265650">
        <ele>210.1</ele>
        <time>2020-08-06T10:06:01Z</time>
      </trkpt>
      <trkpt lat="41.1050790" lon="0.5265430">
        <ele>210.2</ele>
        <time>2020-08-06T10:06:02Z</time>
      </trkpt>
      <trkpt lat="41.1050530" lon="0.5265220">
        <ele>210.3</ele>
        <time>2020-08-06T10:06:03Z</time>
      </trkpt>
      <trkpt lat="41.1050020" lon="0.5264830">
        <ele>210.6</ele>
        <time>2020-08-06T10:06:05Z</time>
      </trkpt>
      <trkpt lat="41.1049760" lon="0.5264640">
        <ele>210.7</ele>
        <time>2020-08-06T10:06:06Z</time>
      </trkpt>
      <trkpt lat="41.1049260" lon="0.5264270">
        <ele>210.9</ele>
        <time>2020-08-06T10:06:08Z</time>
      </trkpt>
      <trkpt lat="41.1048770" lon="0.5263890">
        <ele>211.1</ele>
        <time>2020-08-06T10:06:10Z</time>
      </trkpt>
      <trkpt lat="41.1048550" lon="0.5263680">
        <ele>211.2</ele>
        <time>2020-08-06T10:06:11Z</time>
      </trkpt>
      <trkpt lat="41.1048070" lon="0.5263260">
        <ele>211.4</ele>
        <time>2020-08-06T10:06:13Z</time>
      </trkpt>
      <trkpt lat="41.1047820" lon="0.5263050">
        <ele>211.6</ele>
        <time>2020-08-06T10:06:14Z</time>
      </trkpt>
      <trkpt lat="41.1047600" lon="0.5262850">
        <ele>211.7</ele>
        <time>2020-08-06T10:06:15Z</time>
      </trkpt>
      <trkpt lat="41.1047370" lon="0.5262660">
        <ele>211.8</ele>
        <time>2020-08-06T10:06:16Z</time>
      </trkpt>
      <trkpt lat="41.1046960" lon="0.5262320">
        <ele>212.0</ele>
        <time>2020-08-06T10:06:18Z</time>
      </trkpt>
      <trkpt lat="41.1046480" lon="0.5261890">
        <ele>212.2</ele>
        <time>2020-08-06T10:06:20Z</time>
      </trkpt>
      <trkpt lat="41.1046250" lon="0.5261700">
        <ele>212.3</ele>
        <time>2020-08-06T10:06:21Z</time>
      </trkpt>
      <trkpt lat="41.1045790" lon="0.5261340">
        <ele>212.5</ele>
        <time>2020-08-06T10:06:23Z</time>
      </trkpt>
      <trkpt lat="41.1045570" lon="0.5261170">
        <ele>212.6</ele>
        <time>2020-08-06T10:06:24Z</time>
      </trkpt>
      <trkpt lat="41.1045120" lon="0.5260810">
        <ele>212.8</ele>
        <time>2020-08-06T10:06:26Z</time>
      </trkpt>
      <trkpt lat="41.1044850" lon="0.5260560">
        <ele>212.9</ele>
        <time>2020-08-06T10:06:27Z</time>
      </trkpt>
      <trkpt lat="41.1044780" lon="0.5260500">
        <ele>212.9</ele>
        <time>2020-08-06T10:06:28Z</time>
      </trkpt>
      <trkpt lat="41.1044340" lon="0.5260090">
        <ele>213.1</ele>
        <time>2020-08-06T10:06:30Z</time>
      </trkpt>
      <trkpt lat="41.1044140" lon="0.5259900">
        <ele>213.2</ele>
        <time>2020-08-06T10:06:31Z</time>
      </trkpt>
      <trkpt lat="41.1043690" lon="0.5259500">
        <ele>213.4</ele>
        <time>2020-08-06T10:06:33Z</time>
      </trkpt>
      <trkpt lat="41.1043250" lon="0.5259050">
        <ele>213.6</ele>
        <time>2020-08-06T10:06:35Z</time>
      </trkpt>
      <trkpt lat="41.1043100" lon="0.5258900">
        <ele>213.7</ele>
        <time>2020-08-06T10:06:36Z</time>
      </trkpt>
      <trkpt lat="41.1042630" lon="0.5258450">
        <ele>213.9</ele>
        <time>2020-08-06T10:06:38Z</time>
      </trkpt>
      <trkpt lat="41.1042400" lon="0.5258240">
        <ele>214.0</ele>
        <time>2020-08-06T10:06:39Z</time>
      </trkpt>
      <trkpt lat="41.1042190" lon="0.5258030">
        <ele>214.1</ele>
        <time>2020-08-06T10:06:40Z</time>
      </trkpt>
      <trkpt lat="41.1041780" lon="0.5257660">
        <ele>214.2</ele>
        <time>2020-08-06T10:06:42Z</time>
      </trkpt>
      <trkpt lat="41.1041450" lon="0.5257380">
        <ele>214.4</ele>
        <time>2020-08-06T10:06:43Z</time>
      </trkpt>
      <trkpt lat="41.1041320" lon="0.5257280">
        <ele>214.4</ele>
        <time>2020-08-06T10:06:44Z</time>
      </trkpt>
      <trkpt lat="41.1040900" lon="0.5256910">
        <ele>214.6</ele>
        <time>2020-08-06T10:06:46Z</time>
      </trkpt>
      <trkpt lat="41.1040430" lon="0.5256530">
        <ele>214.8</ele>
        <time>2020-08-06T10:06:48Z</time>
      </trkpt>
      <trkpt lat="41.1040060" lon="0.5256240">
        <ele>214.9</ele>
        <time>2020-08-06T10:06:49Z</time>
      </trkpt>
      <trkpt lat="41.1039920" lon="0.5256120">
        <ele>215.0</ele>
        <time>2020-08-06T10:06:50Z</time>
      </trkpt>
      <trkpt lat="41.1039440" lon="0.5255640">
        <ele>215.1</ele>
        <time>2020-08-06T10:06:52Z</time>
      </trkpt>
      <trkpt lat="41.1039220" lon="0.5255430">
        <ele>215.2</ele>
        <time>2020-08-06T10:06:53Z</time>
      </trkpt>
      <trkpt lat="41.1038760" lon="0.5254960">
        <ele>215.3</ele>
        <time>2020-08-06T10:06:55Z</time>
      </trkpt>
      <trkpt lat="41.1038540" lon="0.5254710">
        <ele>215.4</ele>
        <time>2020-08-06T10:06:56Z</time>
      </trkpt>
      <trkpt lat="41.1038310" lon="0.5254410">
        <ele>215.4</ele>
        <time>2020-08-06T10:06:57Z</time>
      </trkpt>
      <trkpt lat="41.1037900" lon="0.5253840">
        <ele>215.6</ele>
        <time>2020-08-06T10:06:59Z</time>
      </trkpt>
      <trkpt lat="41.1037530" lon="0.5253400">
        <ele>215.7</ele>
        <time>2020-08-06T10:07:01Z</time>
      </trkpt>
      <trkpt lat="41.1037270" lon="0.5253100">
        <ele>215.8</ele>
        <time>2020-08-06T10:07:02Z</time>
      </trkpt>
      <trkpt lat="41.1037060" lon="0.5252840">
        <ele>215.9</ele>
        <time>2020-08-06T10:07:03Z</time>
      </trkpt>
      <trkpt lat="41.1036850" lon="0.5252580">
        <ele>215.9</ele>
        <time>2020-08-06T10:07:04Z</time>
      </trkpt>
      <trkpt lat="41.1036400" lon="0.5252090">
        <ele>216.1</ele>
        <time>2020-08-06T10:07:06Z</time>
      </trkpt>
      <trkpt lat="41.1036160" lon="0.5251840">
        <ele>216.2</ele>
        <time>2020-08-06T10:07:07Z</time>
      </trkpt>
      <trkpt lat="41.1035730" lon="0.5251380">
        <ele>216.4</ele>
        <time>2020-08-06T10:07:09Z</time>
      </trkpt>
      <trkpt lat="41.1035330" lon="0.5250960">
        <ele>216.6</ele>
        <time>2020-08-06T10:07:11Z</time>
      </trkpt>
      <trkpt lat="41.1035200" lon="0.5250810">
        <ele>216.6</ele>
        <time>2020-08-06T10:07:12Z</time>
      </trkpt>
      <trkpt lat="41.1034770" lon="0.5250340">
        <ele>216.8</ele>
        <time>2020-08-06T10:07:14Z</time>
      </trkpt>
      <trkpt lat="41.1034430" lon="0.5249960">
        <ele>217.0</ele>
        <time>2020-08-06T10:07:16Z</time>
      </trkpt>
      <trkpt lat="41.1034190" lon="0.5249760">
        <ele>217.1</ele>
        <time>2020-08-06T10:07:17Z</time>
      </trkpt>
      <trkpt lat="41.1033740" lon="0.5249400">
        <ele>217.3</ele>
        <time>2020-08-06T10:07:19Z</time>
      </trkpt>
      <trkpt lat="41.1033430" lon="0.5249080">
        <ele>217.4</ele>
        <time>2020-08-06T10:07:20Z</time>
      </trkpt>
      <trkpt lat="41.1033330" lon="0.5248980">
        <ele>217.5</ele>
        <time>2020-08-06T10:07:21Z</time>
      </trkpt>
      <trkpt lat="41.1032970" lon="0.5248560">
        <ele>217.6</ele>
        <time>2020-08-06T10:07:23Z</time>
      </trkpt>
      <trkpt lat="41.1032750" lon="0.5248330">
        <ele>217.7</ele>
        <time>2020-08-06T10:07:24Z</time>
      </trkpt>
      <trkpt lat="41.1032120" lon="0.5247700">
        <ele>218.0</ele>
        <time>2020-08-06T10:07:27Z</time>
      </trkpt>
      <trkpt lat="41.1031660" lon="0.5247230">
        <ele>218.2</ele>
        <time>2020-08-06T10:07:29Z</time>
      </trkpt>
      <trkpt lat="41.1031350" lon="0.5246960">
        <ele>218.3</ele>
        <time>2020-08-06T10:07:30Z</time>
      </trkpt>
      <trkpt lat="41.1031230" lon="0.5246860">
        <ele>218.4</ele>
        <time>2020-08-06T10:07:31Z</time>
      </trkpt>
      <trkpt lat="41.1030750" lon="0.5246520">
        <ele>218.5</ele>
        <time>2020-08-06T10:07:33Z</time>
      </trkpt>
      <trkpt lat="41.1030510" lon="0.5246350">
        <ele>218.6</ele>
        <time>2020-08-06T10:07:34Z</time>
      </trkpt>
      <trkpt lat="41.1030050" lon="0.5246000">
        <ele>218.8</ele>
        <time>2020-08-06T10:07:36Z</time>
      </trkpt>
      <trkpt lat="41.1029650" lon="0.5245690">
        <ele>219.0</ele>
        <time>2020-08-06T10:07:38Z</time>
      </trkpt>
      <trkpt lat="41.1029380" lon="0.5245460">
        <ele>219.2</ele>
        <time>2020-08-06T10:07:39Z</time>
      </trkpt>
      <trkpt lat="41.1028400" lon="0.5244520">
        <ele>219.6</ele>
        <time>2020-08-06T10:07:45Z</time>
      </trkpt>
      <trkpt lat="41.1027920" lon="0.5244020">
        <ele>219.8</ele>
        <time>2020-08-06T10:07:47Z</time>
      </trkpt>
      <trkpt lat="41.1027690" lon="0.5243780">
        <ele>219.9</ele>
        <time>2020-08-06T10:07:48Z</time>
      </trkpt>
      <trkpt lat="41.1027520" lon="0.5243590">
        <ele>220.0</ele>
        <time>2020-08-06T10:07:49Z</time>
      </trkpt>
      <trkpt lat="41.1027090" lon="0.5243130">
        <ele>220.2</ele>
        <time>2020-08-06T10:07:51Z</time>
      </trkpt>
      <trkpt lat="41.1026770" lon="0.5242840">
        <ele>220.3</ele>
        <time>2020-08-06T10:07:52Z</time>
      </trkpt>
      <trkpt lat="41.1026640" lon="0.5242730">
        <ele>220.4</ele>
        <time>2020-08-06T10:07:53Z</time>
      </trkpt>
      <trkpt lat="41.1026230" lon="0.5242370">
        <ele>220.6</ele>
        <time>2020-08-06T10:07:55Z</time>
      </trkpt>
      <trkpt lat="41.1025940" lon="0.5242110">
        <ele>220.7</ele>
        <time>2020-08-06T10:07:56Z</time>
      </trkpt>
      <trkpt lat="41.1025840" lon="0.5242020">
        <ele>220.7</ele>
        <time>2020-08-06T10:07:57Z</time>
      </trkpt>
      <trkpt lat="41.1025620" lon="0.5241810">
        <ele>220.8</ele>
        <time>2020-08-06T10:07:58Z</time>
      </trkpt>
      <trkpt lat="41.1025430" lon="0.5241620">
        <ele>220.9</ele>
        <time>2020-08-06T10:07:59Z</time>
      </trkpt>
      <trkpt lat="41.1025060" lon="0.5241210">
        <ele>221.1</ele>
        <time>2020-08-06T10:08:01Z</time>
      </trkpt>
      <trkpt lat="41.1024810" lon="0.5240930">
        <ele>221.2</ele>
        <time>2020-08-06T10:08:02Z</time>
      </trkpt>
      <trkpt lat="41.1024720" lon="0.5240840">
        <ele>221.2</ele>
        <time>2020-08-06T10:08:03Z</time>
      </trkpt>
      <trkpt lat="41.1024390" lon="0.5240460">
        <ele>221.4</ele>
        <time>2020-08-06T10:08:05Z</time>
      </trkpt>
      <trkpt lat="41.1024200" lon="0.5240250">
        <ele>221.4</ele>
        <time>2020-08-06T10:08:06Z</time>
      </trkpt>
      <trkpt lat="41.1023830" lon="0.5239840">
        <ele>221.6</ele>
        <time>2020-08-06T10:08:08Z</time>
      </trkpt>
      <trkpt lat="41.1023390" lon="0.5239420">
        <ele>221.8</ele>
        <time>2020-08-06T10:08:10Z</time>
      </trkpt>
      <trkpt lat="41.1023080" lon="0.5239110">
        <ele>222.0</ele>
        <time>2020-08-06T10:08:11Z</time>
      </trkpt>
      <trkpt lat="41.1022970" lon="0.5239010">
        <ele>222.1</ele>
        <time>2020-08-06T10:08:12Z</time>
      </trkpt>
      <trkpt lat="41.1022770" lon="0.5238810">
        <ele>222.2</ele>
        <time>2020-08-06T10:08:13Z</time>
      </trkpt>
      <trkpt lat="41.1022400" lon="0.5238440">
        <ele>222.3</ele>
        <time>2020-08-06T10:08:15Z</time>
      </trkpt>
      <trkpt lat="41.1022120" lon="0.5238160">
        <ele>222.5</ele>
        <time>2020-08-06T10:08:16Z</time>
      </trkpt>
      <trkpt lat="41.1022020" lon="0.5238080">
        <ele>222.5</ele>
        <time>2020-08-06T10:08:17Z</time>
      </trkpt>
      <trkpt lat="41.1021800" lon="0.5237850">
        <ele>222.6</ele>
        <time>2020-08-06T10:08:18Z</time>
      </trkpt>
      <trkpt lat="41.1021710" lon="0.5237760">
        <ele>222.6</ele>
        <time>2020-08-06T10:08:19Z</time>
      </trkpt>
      <trkpt lat="41.1021430" lon="0.5237450">
        <ele>222.7</ele>
        <time>2020-08-06T10:08:20Z</time>
      </trkpt>
      <trkpt lat="41.1021340" lon="0.5237360">
        <ele>222.8</ele>
        <time>2020-08-06T10:08:21Z</time>
      </trkpt>
      <trkpt lat="41.1020960" lon="0.5236980">
        <ele>222.9</ele>
        <time>2020-08-06T10:08:23Z</time>
      </trkpt>
      <trkpt lat="41.1020750" lon="0.5236750">
        <ele>223.0</ele>
        <time>2020-08-06T10:08:24Z</time>
      </trkpt>
      <trkpt lat="41.1020350" lon="0.5236250">
        <ele>223.2</ele>
        <time>2020-08-06T10:08:26Z</time>
      </trkpt>
      <trkpt lat="41.1020130" lon="0.5235950">
        <ele>223.3</ele>
        <time>2020-08-06T10:08:27Z</time>
      </trkpt>
      <trkpt lat="41.1020040" lon="0.5235850">
        <ele>223.3</ele>
        <time>2020-08-06T10:08:28Z</time>
      </trkpt>
      <trkpt lat="41.1019700" lon="0.5235460">
        <ele>223.5</ele>
        <time>2020-08-06T10:08:30Z</time>
      </trkpt>
      <trkpt lat="41.1019430" lon="0.5235190">
        <ele>223.6</ele>
        <time>2020-08-06T10:08:31Z</time>
      </trkpt>
      <trkpt lat="41.1019330" lon="0.5235100">
        <ele>223.7</ele>
        <time>2020-08-06T10:08:32Z</time>
      </trkpt>
      <trkpt lat="41.1019160" lon="0.5234930">
        <ele>223.7</ele>
        <time>2020-08-06T10:08:33Z</time>
      </trkpt>
      <trkpt lat="41.1018740" lon="0.5234520">
        <ele>223.9</ele>
        <time>2020-08-06T10:08:35Z</time>
      </trkpt>
      <trkpt lat="41.1018360" lon="0.5234110">
        <ele>224.1</ele>
        <time>2020-08-06T10:08:37Z</time>
      </trkpt>
      <trkpt lat="41.1018060" lon="0.5233730">
        <ele>224.3</ele>
        <time>2020-08-06T10:08:39Z</time>
      </trkpt>
      <trkpt lat="41.1017850" lon="0.5233490">
        <ele>224.4</ele>
        <time>2020-08-06T10:08:40Z</time>
      </trkpt>
      <trkpt lat="41.1017760" lon="0.5233400">
        <ele>224.4</ele>
        <time>2020-08-06T10:08:41Z</time>
      </trkpt>
      <trkpt lat="41.1017500" lon="0.5233150">
        <ele>224.5</ele>
        <time>2020-08-06T10:08:42Z</time>
      </trkpt>
      <trkpt lat="41.1017430" lon="0.5233100">
        <ele>224.6</ele>
        <time>2020-08-06T10:08:43Z</time>
      </trkpt>
      <trkpt lat="41.1017040" lon="0.5232750">
        <ele>224.8</ele>
        <time>2020-08-06T10:08:45Z</time>
      </trkpt>
      <trkpt lat="41.1016870" lon="0.5232560">
        <ele>224.8</ele>
        <time>2020-08-06T10:08:46Z</time>
      </trkpt>
      <trkpt lat="41.1016580" lon="0.5232220">
        <ele>225.0</ele>
        <time>2020-08-06T10:08:48Z</time>
      </trkpt>
      <trkpt lat="41.1016250" lon="0.5231790">
        <ele>225.1</ele>
        <time>2020-08-06T10:08:50Z</time>
      </trkpt>
      <trkpt lat="41.1016010" lon="0.5231480">
        <ele>225.3</ele>
        <time>2020-08-06T10:08:51Z</time>
      </trkpt>
      <trkpt lat="41.1015930" lon="0.5231390">
        <ele>225.3</ele>
        <time>2020-08-06T10:08:52Z</time>
      </trkpt>
      <trkpt lat="41.1015610" lon="0.5231040">
        <ele>225.4</ele>
        <time>2020-08-06T10:08:54Z</time>
      </trkpt>
      <trkpt lat="41.1015430" lon="0.5230860">
        <ele>225.5</ele>
        <time>2020-08-06T10:08:55Z</time>
      </trkpt>
      <trkpt lat="41.1015030" lon="0.5230460">
        <ele>225.7</ele>
        <time>2020-08-06T10:08:57Z</time>
      </trkpt>
      <trkpt lat="41.1014640" lon="0.5230060">
        <ele>225.9</ele>
        <time>2020-08-06T10:08:59Z</time>
      </trkpt>
      <trkpt lat="41.1014480" lon="0.5229880">
        <ele>226.0</ele>
        <time>2020-08-06T10:09:00Z</time>
      </trkpt>
      <trkpt lat="41.1014160" lon="0.5229490">
        <ele>226.1</ele>
        <time>2020-08-06T10:09:02Z</time>
      </trkpt>
      <trkpt lat="41.1013940" lon="0.5229240">
        <ele>226.2</ele>
        <time>2020-08-06T10:09:03Z</time>
      </trkpt>
      <trkpt lat="41.1013870" lon="0.5229160">
        <ele>226.3</ele>
        <time>2020-08-06T10:09:04Z</time>
      </trkpt>
      <trkpt lat="41.1013510" lon="0.5228760">
        <ele>226.5</ele>
        <time>2020-08-06T10:09:06Z</time>
      </trkpt>
      <trkpt lat="41.1013250" lon="0.5228490">
        <ele>226.6</ele>
        <time>2020-08-06T10:09:08Z</time>
      </trkpt>
      <trkpt lat="41.1013060" lon="0.5228300">
        <ele>226.7</ele>
        <time>2020-08-06T10:09:09Z</time>
      </trkpt>
      <trkpt lat="41.1012730" lon="0.5227940">
        <ele>226.9</ele>
        <time>2020-08-06T10:09:11Z</time>
      </trkpt>
      <trkpt lat="41.1012420" lon="0.5227510">
        <ele>227.0</ele>
        <time>2020-08-06T10:09:13Z</time>
      </trkpt>
      <trkpt lat="41.1012260" lon="0.5227290">
        <ele>227.1</ele>
        <time>2020-08-06T10:09:14Z</time>
      </trkpt>
      <trkpt lat="41.1011920" lon="0.5226840">
        <ele>227.3</ele>
        <time>2020-08-06T10:09:16Z</time>
      </trkpt>
      <trkpt lat="41.1011800" lon="0.5226650">
        <ele>227.4</ele>
        <time>2020-08-06T10:09:17Z</time>
      </trkpt>
      <trkpt lat="41.1011460" lon="0.5226170">
        <ele>227.6</ele>
        <time>2020-08-06T10:09:19Z</time>
      </trkpt>
      <trkpt lat="41.1011300" lon="0.5225940">
        <ele>227.7</ele>
        <time>2020-08-06T10:09:20Z</time>
      </trkpt>
      <trkpt lat="41.1010990" lon="0.5225520">
        <ele>227.8</ele>
        <time>2020-08-06T10:09:22Z</time>
      </trkpt>
      <trkpt lat="41.1010840" lon="0.5225310">
        <ele>227.9</ele>
        <time>2020-08-06T10:09:23Z</time>
      </trkpt>
      <trkpt lat="41.1010540" lon="0.5224890">
        <ele>228.1</ele>
        <time>2020-08-06T10:09:25Z</time>
      </trkpt>
      <trkpt lat="41.1010350" lon="0.5224550">
        <ele>228.2</ele>
        <time>2020-08-06T10:09:26Z</time>
      </trkpt>
      <trkpt lat="41.1010290" lon="0.5224430">
        <ele>228.2</ele>
        <time>2020-08-06T10:09:27Z</time>
      </trkpt>
      <trkpt lat="41.1010160" lon="0.5224190">
        <ele>228.3</ele>
        <time>2020-08-06T10:09:28Z</time>
      </trkpt>
      <trkpt lat="41.1009900" lon="0.5223720">
        <ele>228.4</ele>
        <time>2020-08-06T10:09:30Z</time>
      </trkpt>
      <trkpt lat="41.1009620" lon="0.5223250">
        <ele>228.6</ele>
        <time>2020-08-06T10:09:32Z</time>
      </trkpt>
      <trkpt lat="41.1009480" lon="0.5223010">
        <ele>228.6</ele>
        <time>2020-08-06T10:09:33Z</time>
      </trkpt>
      <trkpt lat="41.1009160" lon="0.5222540">
        <ele>228.8</ele>
        <time>2020-08-06T10:09:35Z</time>
      </trkpt>
      <trkpt lat="41.1008980" lon="0.5222290">
        <ele>228.9</ele>
        <time>2020-08-06T10:09:36Z</time>
      </trkpt>
      <trkpt lat="41.1008680" lon="0.5221790">
        <ele>229.1</ele>
        <time>2020-08-06T10:09:38Z</time>
      </trkpt>
      <trkpt lat="41.1008520" lon="0.5221520">
        <ele>229.2</ele>
        <time>2020-08-06T10:09:39Z</time>
      </trkpt>
      <trkpt lat="41.1008250" lon="0.5221050">
        <ele>229.3</ele>
        <time>2020-08-06T10:09:41Z</time>
      </trkpt>
      <trkpt lat="41.1007980" lon="0.5220630">
        <ele>229.5</ele>
        <time>2020-08-06T10:09:43Z</time>
      </trkpt>
      <trkpt lat="41.1007830" lon="0.5220350">
        <ele>229.6</ele>
        <time>2020-08-06T10:09:44Z</time>
      </trkpt>
      <trkpt lat="41.1007590" lon="0.5219890">
        <ele>229.7</ele>
        <time>2020-08-06T10:09:46Z</time>
      </trkpt>
      <trkpt lat="41.1007470" lon="0.5219660">
        <ele>229.8</ele>
        <time>2020-08-06T10:09:47Z</time>
      </trkpt>
      <trkpt lat="41.1007250" lon="0.5219170">
        <ele>230.0</ele>
        <time>2020-08-06T10:09:49Z</time>
      </trkpt>
      <trkpt lat="41.1007110" lon="0.5218890">
        <ele>230.1</ele>
        <time>2020-08-06T10:09:50Z</time>
      </trkpt>
      <trkpt lat="41.1006830" lon="0.5218320">
        <ele>230.3</ele>
        <time>2020-08-06T10:09:52Z</time>
      </trkpt>
      <trkpt lat="41.1006680" lon="0.5218030">
        <ele>230.4</ele>
        <time>2020-08-06T10:09:53Z</time>
      </trkpt>
      <trkpt lat="41.1006390" lon="0.5217540">
        <ele>230.6</ele>
        <time>2020-08-06T10:09:55Z</time>
      </trkpt>
      <trkpt lat="41.1006180" lon="0.5217210">
        <ele>230.7</ele>
        <time>2020-08-06T10:09:56Z</time>
      </trkpt>
      <trkpt lat="41.1006100" lon="0.5217090">
        <ele>230.7</ele>
        <time>2020-08-06T10:09:57Z</time>
      </trkpt>
      <trkpt lat="41.1005890" lon="0.5216710">
        <ele>230.9</ele>
        <time>2020-08-06T10:09:58Z</time>
      </trkpt>
      <trkpt lat="41.1005830" lon="0.5216610">
        <ele>230.9</ele>
        <time>2020-08-06T10:09:59Z</time>
      </trkpt>
      <trkpt lat="41.1005680" lon="0.5216330">
        <ele>231.0</ele>
        <time>2020-08-06T10:10:00Z</time>
      </trkpt>
      <trkpt lat="41.1005400" lon="0.5215800">
        <ele>231.2</ele>
        <time>2020-08-06T10:10:02Z</time>
      </trkpt>
      <trkpt lat="41.1005180" lon="0.5215390">
        <ele>231.3</ele>
        <time>2020-08-06T10:10:04Z</time>
      </trkpt>
      <trkpt lat="41.1005000" lon="0.5215050">
        <ele>231.4</ele>
        <time>2020-08-06T10:10:05Z</time>
      </trkpt>
      <trkpt lat="41.1004950" lon="0.5214970">
        <ele>231.5</ele>
        <time>2020-08-06T10:10:06Z</time>
      </trkpt>
      <trkpt lat="41.1004740" lon="0.5214580">
        <ele>231.6</ele>
        <time>2020-08-06T10:10:07Z</time>
      </trkpt>
      <trkpt lat="41.1004670" lon="0.5214450">
        <ele>231.6</ele>
        <time>2020-08-06T10:10:08Z</time>
      </trkpt>
      <trkpt lat="41.1004410" lon="0.5214000">
        <ele>231.8</ele>
        <time>2020-08-06T10:10:10Z</time>
      </trkpt>
      <trkpt lat="41.1004140" lon="0.5213540">
        <ele>232.0</ele>
        <time>2020-08-06T10:10:12Z</time>
      </trkpt>
      <trkpt lat="41.1004010" lon="0.5213310">
        <ele>232.1</ele>
        <time>2020-08-06T10:10:13Z</time>
      </trkpt>
      <trkpt lat="41.1003780" lon="0.5212930">
        <ele>232.2</ele>
        <time>2020-08-06T10:10:15Z</time>
      </trkpt>
      <trkpt lat="41.1003670" lon="0.5212730">
        <ele>232.3</ele>
        <time>2020-08-06T10:10:16Z</time>
      </trkpt>
      <trkpt lat="41.1003480" lon="0.5212340">
        <ele>232.5</ele>
        <time>2020-08-06T10:10:18Z</time>
      </trkpt>
      <trkpt lat="41.1003360" lon="0.5212090">
        <ele>232.5</ele>
        <time>2020-08-06T10:10:19Z</time>
      </trkpt>
      <trkpt lat="41.1003170" lon="0.5211640">
        <ele>232.7</ele>
        <time>2020-08-06T10:10:21Z</time>
      </trkpt>
      <trkpt lat="41.1003040" lon="0.5211310">
        <ele>232.8</ele>
        <time>2020-08-06T10:10:22Z</time>
      </trkpt>
      <trkpt lat="41.1002980" lon="0.5211200">
        <ele>232.8</ele>
        <time>2020-08-06T10:10:23Z</time>
      </trkpt>
      <trkpt lat="41.1002740" lon="0.5210720">
        <ele>233.0</ele>
        <time>2020-08-06T10:10:25Z</time>
      </trkpt>
      <trkpt lat="41.1002560" lon="0.5210400">
        <ele>233.1</ele>
        <time>2020-08-06T10:10:26Z</time>
      </trkpt>
      <trkpt lat="41.1002500" lon="0.5210310">
        <ele>233.1</ele>
        <time>2020-08-06T10:10:27Z</time>
      </trkpt>
      <trkpt lat="41.1002180" lon="0.5209800">
        <ele>233.3</ele>
        <time>2020-08-06T10:10:29Z</time>
      </trkpt>
      <trkpt lat="41.1002020" lon="0.5209540">
        <ele>233.4</ele>
        <time>2020-08-06T10:10:30Z</time>
      </trkpt>
      <trkpt lat="41.1001710" lon="0.5209050">
        <ele>233.6</ele>
        <time>2020-08-06T10:10:32Z</time>
      </trkpt>
      <trkpt lat="41.1001480" lon="0.5208640">
        <ele>233.7</ele>
        <time>2020-08-06T10:10:33Z</time>
      </trkpt>
      <trkpt lat="41.1001400" lon="0.5208490">
        <ele>233.8</ele>
        <time>2020-08-06T10:10:34Z</time>
      </trkpt>
      <trkpt lat="41.1001170" lon="0.5208050">
        <ele>233.9</ele>
        <time>2020-08-06T10:10:35Z</time>
      </trkpt>
      <trkpt lat="41.1001090" lon="0.5207920">
        <ele>233.9</ele>
        <time>2020-08-06T10:10:36Z</time>
      </trkpt>
      <trkpt lat="41.1000790" lon="0.5207420">
        <ele>234.1</ele>
        <time>2020-08-06T10:10:38Z</time>
      </trkpt>
      <trkpt lat="41.1000460" lon="0.5206900">
        <ele>234.3</ele>
        <time>2020-08-06T10:10:40Z</time>
      </trkpt>
      <trkpt lat="41.1000280" lon="0.5206560">
        <ele>234.5</ele>
        <time>2020-08-06T10:10:41Z</time>
      </trkpt>
      <trkpt lat="41.1000210" lon="0.5206450">
        <ele>234.5</ele>
        <time>2020-08-06T10:10:42Z</time>
      </trkpt>
      <trkpt lat="41.0999910" lon="0.5205910">
        <ele>234.7</ele>
        <time>2020-08-06T10:10:44Z</time>
      </trkpt>
      <trkpt lat="41.0999750" lon="0.5205610">
        <ele>234.8</ele>
        <time>2020-08-06T10:10:45Z</time>
      </trkpt>
      <trkpt lat="41.0999490" lon="0.5205090">
        <ele>235.0</ele>
        <time>2020-08-06T10:10:47Z</time>
      </trkpt>
      <trkpt lat="41.0999270" lon="0.5204670">
        <ele>235.1</ele>
        <time>2020-08-06T10:10:48Z</time>
      </trkpt>
      <trkpt lat="41.0999190" lon="0.5204550">
        <ele>235.2</ele>
        <time>2020-08-06T10:10:49Z</time>
      </trkpt>
      <trkpt lat="41.0998960" lon="0.5204160">
        <ele>235.3</ele>
        <time>2020-08-06T10:10:50Z</time>
      </trkpt>
      <trkpt lat="41.0998880" lon="0.5204040">
        <ele>235.3</ele>
        <time>2020-08-06T10:10:51Z</time>
      </trkpt>
      <trkpt lat="41.0998730" lon="0.5203800">
        <ele>235.4</ele>
        <time>2020-08-06T10:10:52Z</time>
      </trkpt>
      <trkpt lat="41.0998430" lon="0.5203300">
        <ele>235.6</ele>
        <time>2020-08-06T10:10:54Z</time>
      </trkpt>
      <trkpt lat="41.0998130" lon="0.5202800">
        <ele>235.8</ele>
        <time>2020-08-06T10:10:56Z</time>
      </trkpt>
      <trkpt lat="41.0997830" lon="0.5202300">
        <ele>236.0</ele>
        <time>2020-08-06T10:10:58Z</time>
      </trkpt>
      <trkpt lat="41.0997590" lon="0.5201920">
        <ele>236.1</ele>
        <time>2020-08-06T10:10:59Z</time>
      </trkpt>
      <trkpt lat="41.0997510" lon="0.5201800">
        <ele>236.1</ele>
        <time>2020-08-06T10:11:00Z</time>
      </trkpt>
      <trkpt lat="41.0997360" lon="0.5201540">
        <ele>236.2</ele>
        <time>2020-08-06T10:11:01Z</time>
      </trkpt>
      <trkpt lat="41.0997100" lon="0.5201010">
        <ele>236.4</ele>
        <time>2020-08-06T10:11:03Z</time>
      </trkpt>
      <trkpt lat="41.0996900" lon="0.5200650">
        <ele>236.5</ele>
        <time>2020-08-06T10:11:04Z</time>
      </trkpt>
      <trkpt lat="41.0996830" lon="0.5200530">
        <ele>236.6</ele>
        <time>2020-08-06T10:11:05Z</time>
      </trkpt>
      <trkpt lat="41.0996610" lon="0.5200070">
        <ele>236.7</ele>
        <time>2020-08-06T10:11:07Z</time>
      </trkpt>
      <trkpt lat="41.0996390" lon="0.5199600">
        <ele>236.9</ele>
        <time>2020-08-06T10:11:09Z</time>
      </trkpt>
      <trkpt lat="41.0996270" lon="0.5199360">
        <ele>236.9</ele>
        <time>2020-08-06T10:11:10Z</time>
      </trkpt>
      <trkpt lat="41.0996010" lon="0.5198860">
        <ele>237.1</ele>
        <time>2020-08-06T10:11:12Z</time>
      </trkpt>
      <trkpt lat="41.0995860" lon="0.5198600">
        <ele>237.2</ele>
        <time>2020-08-06T10:11:13Z</time>
      </trkpt>
      <trkpt lat="41.0995600" lon="0.5198140">
        <ele>237.3</ele>
        <time>2020-08-06T10:11:15Z</time>
      </trkpt>
      <trkpt lat="41.0995480" lon="0.5197870">
        <ele>237.4</ele>
        <time>2020-08-06T10:11:16Z</time>
      </trkpt>
      <trkpt lat="41.0995180" lon="0.5197350">
        <ele>237.6</ele>
        <time>2020-08-06T10:11:18Z</time>
      </trkpt>
      <trkpt lat="41.0994880" lon="0.5196830">
        <ele>237.8</ele>
        <time>2020-08-06T10:11:20Z</time>
      </trkpt>
      <trkpt lat="41.0994680" lon="0.5196450">
        <ele>237.9</ele>
        <time>2020-08-06T10:11:21Z</time>
      </trkpt>
      <trkpt lat="41.0994610" lon="0.5196330">
        <ele>238.0</ele>
        <time>2020-08-06T10:11:22Z</time>
      </trkpt>
      <trkpt lat="41.0994420" lon="0.5195910">
        <ele>238.1</ele>
        <time>2020-08-06T10:11:23Z</time>
      </trkpt>
      <trkpt lat="41.0994360" lon="0.5195780">
        <ele>238.2</ele>
        <time>2020-08-06T10:11:24Z</time>
      </trkpt>
      <trkpt lat="41.0994130" lon="0.5195230">
        <ele>238.3</ele>
        <time>2020-08-06T10:11:26Z</time>
      </trkpt>
      <trkpt lat="41.0993960" lon="0.5194840">
        <ele>238.5</ele>
        <time>2020-08-06T10:11:27Z</time>
      </trkpt>
      <trkpt lat="41.0993900" lon="0.5194720">
        <ele>238.5</ele>
        <time>2020-08-06T10:11:28Z</time>
      </trkpt>
      <trkpt lat="41.0993720" lon="0.5194340">
        <ele>238.6</ele>
        <time>2020-08-06T10:11:29Z</time>
      </trkpt>
      <trkpt lat="41.0993660" lon="0.5194220">
        <ele>238.7</ele>
        <time>2020-08-06T10:11:30Z</time>
      </trkpt>
      <trkpt lat="41.0993440" lon="0.5193740">
        <ele>238.9</ele>
        <time>2020-08-06T10:11:32Z</time>
      </trkpt>
      <trkpt lat="41.0993240" lon="0.5193310">
        <ele>239.0</ele>
        <time>2020-08-06T10:11:34Z</time>
      </trkpt>
      <trkpt lat="41.0993110" lon="0.5193060">
        <ele>239.1</ele>
        <time>2020-08-06T10:11:35Z</time>
      </trkpt>
      <trkpt lat="41.0992830" lon="0.5192500">
        <ele>239.3</ele>
        <time>2020-08-06T10:11:37Z</time>
      </trkpt>
      <trkpt lat="41.0992530" lon="0.5191970">
        <ele>239.6</ele>
        <time>2020-08-06T10:11:39Z</time>
      </trkpt>
      <trkpt lat="41.0992380" lon="0.5191700">
        <ele>239.7</ele>
        <time>2020-08-06T10:11:40Z</time>
      </trkpt>
      <trkpt lat="41.0992100" lon="0.5191160">
        <ele>239.9</ele>
        <time>2020-08-06T10:11:42Z</time>
      </trkpt>
      <trkpt lat="41.0991900" lon="0.5190750">
        <ele>240.0</ele>
        <time>2020-08-06T10:11:43Z</time>
      </trkpt>
      <trkpt lat="41.0991830" lon="0.5190610">
        <ele>240.1</ele>
        <time>2020-08-06T10:11:44Z</time>
      </trkpt>
      <trkpt lat="41.0991690" lon="0.5190350">
        <ele>240.2</ele>
        <time>2020-08-06T10:11:45Z</time>
      </trkpt>
      <trkpt lat="41.0991430" lon="0.5189840">
        <ele>240.3</ele>
        <time>2020-08-06T10:11:47Z</time>
      </trkpt>
      <trkpt lat="41.0991240" lon="0.5189480">
        <ele>240.5</ele>
        <time>2020-08-06T10:11:48Z</time>
      </trkpt>
      <trkpt lat="41.0991170" lon="0.5189370">
        <ele>240.5</ele>
        <time>2020-08-06T10:11:49Z</time>
      </trkpt>
      <trkpt lat="41.0990880" lon="0.5188870">
        <ele>240.7</ele>
        <time>2020-08-06T10:11:51Z</time>
      </trkpt>
      <trkpt lat="41.0990670" lon="0.5188490">
        <ele>240.8</ele>
        <time>2020-08-06T10:11:52Z</time>
      </trkpt>
      <trkpt lat="41.0990600" lon="0.5188370">
        <ele>240.8</ele>
        <time>2020-08-06T10:11:53Z</time>
      </trkpt>
      <trkpt lat="41.0990500" lon="0.5188210">
        <ele>240.9</ele>
        <time>2020-08-06T10:11:54Z</time>
      </trkpt>
      <trkpt lat="41.0990250" lon="0.5187750">
        <ele>241.1</ele>
        <time>2020-08-06T10:11:56Z</time>
      </trkpt>
      <trkpt lat="41.0990040" lon="0.5187380">
        <ele>241.2</ele>
        <time>2020-08-06T10:11:57Z</time>
      </trkpt>
      <trkpt lat="41.0989970" lon="0.5187260">
        <ele>241.2</ele>
        <time>2020-08-06T10:11:58Z</time>
      </trkpt>
      <trkpt lat="41.0989830" lon="0.5187020">
        <ele>241.3</ele>
        <time>2020-08-06T10:11:59Z</time>
      </trkpt>
      <trkpt lat="41.0989620" lon="0.5186640">
        <ele>241.4</ele>
        <time>2020-08-06T10:12:01Z</time>
      </trkpt>
      <trkpt lat="41.0989490" lon="0.5186380">
        <ele>241.5</ele>
        <time>2020-08-06T10:12:02Z</time>
      </trkpt>
      <trkpt lat="41.0989220" lon="0.5185910">
        <ele>241.7</ele>
        <time>2020-08-06T10:12:04Z</time>
      </trkpt>
      <trkpt lat="41.0989130" lon="0.5185750">
        <ele>241.7</ele>
        <time>2020-08-06T10:12:05Z</time>
      </trkpt>
      <trkpt lat="41.0989010" lon="0.5185540">
        <ele>241.8</ele>
        <time>2020-08-06T10:12:06Z</time>
      </trkpt>
      <trkpt lat="41.0988860" lon="0.5185300">
        <ele>241.9</ele>
        <time>2020-08-06T10:12:07Z</time>
      </trkpt>
      <trkpt lat="41.0988630" lon="0.5184810">
        <ele>242.1</ele>
        <time>2020-08-06T10:12:09Z</time>
      </trkpt>
      <trkpt lat="41.0988530" lon="0.5184570">
        <ele>242.2</ele>
        <time>2020-08-06T10:12:10Z</time>
      </trkpt>
      <trkpt lat="41.0988280" lon="0.5184090">
        <ele>242.4</ele>
        <time>2020-08-06T10:12:12Z</time>
      </trkpt>
      <trkpt lat="41.0988140" lon="0.5183850">
        <ele>242.5</ele>
        <time>2020-08-06T10:12:13Z</time>
      </trkpt>
      <trkpt lat="41.0987920" lon="0.5183440">
        <ele>242.6</ele>
        <time>2020-08-06T10:12:15Z</time>
      </trkpt>
      <trkpt lat="41.0987740" lon="0.5183080">
        <ele>242.8</ele>
        <time>2020-08-06T10:12:16Z</time>
      </trkpt>
      <trkpt lat="41.0987670" lon="0.5182950">
        <ele>242.8</ele>
        <time>2020-08-06T10:12:17Z</time>
      </trkpt>
      <trkpt lat="41.0987470" lon="0.5182650">
        <ele>242.9</ele>
        <time>2020-08-06T10:12:18Z</time>
      </trkpt>
      <trkpt lat="41.0987400" lon="0.5182540">
        <ele>243.0</ele>
        <time>2020-08-06T10:12:19Z</time>
      </trkpt>
      <trkpt lat="41.0987130" lon="0.5182070">
        <ele>243.1</ele>
        <time>2020-08-06T10:12:21Z</time>
      </trkpt>
      <trkpt lat="41.0986990" lon="0.5181840">
        <ele>243.2</ele>
        <time>2020-08-06T10:12:22Z</time>
      </trkpt>
      <trkpt lat="41.0986740" lon="0.5181410">
        <ele>243.4</ele>
        <time>2020-08-06T10:12:24Z</time>
      </trkpt>
      <trkpt lat="41.0986630" lon="0.5181240">
        <ele>243.5</ele>
        <time>2020-08-06T10:12:25Z</time>
      </trkpt>
      <trkpt lat="41.0986360" lon="0.5180830">
        <ele>243.6</ele>
        <time>2020-08-06T10:12:27Z</time>
      </trkpt>
      <trkpt lat="41.0986120" lon="0.5180460">
        <ele>243.8</ele>
        <time>2020-08-06T10:12:29Z</time>
      </trkpt>
      <trkpt lat="41.0985880" lon="0.5180060">
        <ele>243.9</ele>
        <time>2020-08-06T10:12:31Z</time>
      </trkpt>
      <trkpt lat="41.0985690" lon="0.5179760">
        <ele>244.1</ele>
        <time>2020-08-06T10:12:32Z</time>
      </trkpt>
      <trkpt lat="41.0985630" lon="0.5179660">
        <ele>244.1</ele>
        <time>2020-08-06T10:12:33Z</time>
      </trkpt>
      <trkpt lat="41.0985400" lon="0.5179230">
        <ele>244.3</ele>
        <time>2020-08-06T10:12:35Z</time>
      </trkpt>
      <trkpt lat="41.0985290" lon="0.5179010">
        <ele>244.4</ele>
        <time>2020-08-06T10:12:36Z</time>
      </trkpt>
      <trkpt lat="41.0985050" lon="0.5178640">
        <ele>244.5</ele>
        <time>2020-08-06T10:12:38Z</time>
      </trkpt>
      <trkpt lat="41.0984780" lon="0.5178200">
        <ele>244.7</ele>
        <time>2020-08-06T10:12:40Z</time>
      </trkpt>
      <trkpt lat="41.0984500" lon="0.5177780">
        <ele>244.8</ele>
        <time>2020-08-06T10:12:42Z</time>
      </trkpt>
      <trkpt lat="41.0984210" lon="0.5177320">
        <ele>245.0</ele>
        <time>2020-08-06T10:12:44Z</time>
      </trkpt>
      <trkpt lat="41.0983930" lon="0.5176900">
        <ele>245.2</ele>
        <time>2020-08-06T10:12:46Z</time>
      </trkpt>
      <trkpt lat="41.0983670" lon="0.5176480">
        <ele>245.3</ele>
        <time>2020-08-06T10:12:48Z</time>
      </trkpt>
      <trkpt lat="41.0983460" lon="0.5176150">
        <ele>245.5</ele>
        <time>2020-08-06T10:12:49Z</time>
      </trkpt>
      <trkpt lat="41.0983390" lon="0.5176050">
        <ele>245.5</ele>
        <time>2020-08-06T10:12:50Z</time>
      </trkpt>
      <trkpt lat="41.0983100" lon="0.5175630">
        <ele>245.7</ele>
        <time>2020-08-06T10:12:52Z</time>
      </trkpt>
      <trkpt lat="41.0982890" lon="0.5175340">
        <ele>245.8</ele>
        <time>2020-08-06T10:12:53Z</time>
      </trkpt>
      <trkpt lat="41.0982820" lon="0.5175240">
        <ele>245.8</ele>
        <time>2020-08-06T10:12:54Z</time>
      </trkpt>
      <trkpt lat="41.0982680" lon="0.5175050">
        <ele>245.9</ele>
        <time>2020-08-06T10:12:55Z</time>
      </trkpt>
      <trkpt lat="41.0982410" lon="0.5174670">
        <ele>246.0</ele>
        <time>2020-08-06T10:12:57Z</time>
      </trkpt>
      <trkpt lat="41.0982140" lon="0.5174310">
        <ele>246.2</ele>
        <time>2020-08-06T10:12:59Z</time>
      </trkpt>
      <trkpt lat="41.0982020" lon="0.5174170">
        <ele>246.2</ele>
        <time>2020-08-06T10:13:00Z</time>
      </trkpt>
      <trkpt lat="41.0981680" lon="0.5173740">
        <ele>246.4</ele>
        <time>2020-08-06T10:13:02Z</time>
      </trkpt>
      <trkpt lat="41.0981560" lon="0.5173580">
        <ele>246.4</ele>
        <time>2020-08-06T10:13:03Z</time>
      </trkpt>
      <trkpt lat="41.0981260" lon="0.5173120">
        <ele>246.6</ele>
        <time>2020-08-06T10:13:05Z</time>
      </trkpt>
      <trkpt lat="41.0981030" lon="0.5172750">
        <ele>246.7</ele>
        <time>2020-08-06T10:13:06Z</time>
      </trkpt>
      <trkpt lat="41.0980950" lon="0.5172640">
        <ele>246.7</ele>
        <time>2020-08-06T10:13:07Z</time>
      </trkpt>
      <trkpt lat="41.0980630" lon="0.5172230">
        <ele>246.8</ele>
        <time>2020-08-06T10:13:09Z</time>
      </trkpt>
      <trkpt lat="41.0980460" lon="0.5172040">
        <ele>246.9</ele>
        <time>2020-08-06T10:13:10Z</time>
      </trkpt>
      <trkpt lat="41.0980090" lon="0.5171640">
        <ele>247.0</ele>
        <time>2020-08-06T10:13:12Z</time>
      </trkpt>
      <trkpt lat="41.0979740" lon="0.5171250">
        <ele>247.1</ele>
        <time>2020-08-06T10:13:14Z</time>
      </trkpt>
      <trkpt lat="41.0979480" lon="0.5170940">
        <ele>247.1</ele>
        <time>2020-08-06T10:13:15Z</time>
      </trkpt>
      <trkpt lat="41.0979380" lon="0.5170840">
        <ele>247.2</ele>
        <time>2020-08-06T10:13:16Z</time>
      </trkpt>
      <trkpt lat="41.0979190" lon="0.5170630">
        <ele>247.2</ele>
        <time>2020-08-06T10:13:17Z</time>
      </trkpt>
      <trkpt lat="41.0978800" lon="0.5170200">
        <ele>247.3</ele>
        <time>2020-08-06T10:13:19Z</time>
      </trkpt>
      <trkpt lat="41.0978580" lon="0.5169960">
        <ele>247.3</ele>
        <time>2020-08-06T10:13:20Z</time>
      </trkpt>
      <trkpt lat="41.0978220" lon="0.5169540">
        <ele>247.3</ele>
        <time>2020-08-06T10:13:22Z</time>
      </trkpt>
      <trkpt lat="41.0978040" lon="0.5169330">
        <ele>247.4</ele>
        <time>2020-08-06T10:13:23Z</time>
      </trkpt>
      <trkpt lat="41.0977610" lon="0.5168910">
        <ele>247.4</ele>
        <time>2020-08-06T10:13:25Z</time>
      </trkpt>
      <trkpt lat="41.0977310" lon="0.5168660">
        <ele>247.4</ele>
        <time>2020-08-06T10:13:26Z</time>
      </trkpt>
      <trkpt lat="41.0977200" lon="0.5168580">
        <ele>247.4</ele>
        <time>2020-08-06T10:13:27Z</time>
      </trkpt>
      <trkpt lat="41.0976940" lon="0.5168360">
        <ele>247.4</ele>
        <time>2020-08-06T10:13:28Z</time>
      </trkpt>
      <trkpt lat="41.0976680" lon="0.5168150">
        <ele>247.4</ele>
        <time>2020-08-06T10:13:29Z</time>
      </trkpt>
      <trkpt lat="41.0976430" lon="0.5167930">
        <ele>247.4</ele>
        <time>2020-08-06T10:13:30Z</time>
      </trkpt>
      <trkpt lat="41.0976230" lon="0.5167750">
        <ele>247.4</ele>
        <time>2020-08-06T10:13:31Z</time>
      </trkpt>
      <trkpt lat="41.0975680" lon="0.5167270">
        <ele>247.4</ele>
        <time>2020-08-06T10:13:33Z</time>
      </trkpt>
      <trkpt lat="41.0975280" lon="0.5166960">
        <ele>247.4</ele>
        <time>2020-08-06T10:13:35Z</time>
      </trkpt>
      <trkpt lat="41.0974710" lon="0.5166580">
        <ele>247.3</ele>
        <time>2020-08-06T10:13:37Z</time>
      </trkpt>
      <trkpt lat="41.0974400" lon="0.5166380">
        <ele>247.2</ele>
        <time>2020-08-06T10:13:38Z</time>
      </trkpt>
      <trkpt lat="41.0974140" lon="0.5166200">
        <ele>247.2</ele>
        <time>2020-08-06T10:13:39Z</time>
      </trkpt>
      <trkpt lat="41.0973530" lon="0.5165780">
        <ele>247.1</ele>
        <time>2020-08-06T10:13:41Z</time>
      </trkpt>
      <trkpt lat="41.0973170" lon="0.5165530">
        <ele>247.0</ele>
        <time>2020-08-06T10:13:42Z</time>
      </trkpt>
      <trkpt lat="41.0972470" lon="0.5165040">
        <ele>246.8</ele>
        <time>2020-08-06T10:13:44Z</time>
      </trkpt>
      <trkpt lat="41.0972090" lon="0.5164770">
        <ele>246.7</ele>
        <time>2020-08-06T10:13:45Z</time>
      </trkpt>
      <trkpt lat="41.0971810" lon="0.5164580">
        <ele>246.6</ele>
        <time>2020-08-06T10:13:46Z</time>
      </trkpt>
      <trkpt lat="41.0971440" lon="0.5164330">
        <ele>246.5</ele>
        <time>2020-08-06T10:13:47Z</time>
      </trkpt>
      <trkpt lat="41.0970580" lon="0.5163770">
        <ele>246.2</ele>
        <time>2020-08-06T10:13:49Z</time>
      </trkpt>
      <trkpt lat="41.0970160" lon="0.5163520">
        <ele>246.1</ele>
        <time>2020-08-06T10:13:50Z</time>
      </trkpt>
      <trkpt lat="41.0969740" lon="0.5163280">
        <ele>246.1</ele>
        <time>2020-08-06T10:13:51Z</time>
      </trkpt>
      <trkpt lat="41.0969230" lon="0.5163030">
        <ele>245.9</ele>
        <time>2020-08-06T10:13:52Z</time>
      </trkpt>
      <trkpt lat="41.0968220" lon="0.5162700">
        <ele>245.6</ele>
        <time>2020-08-06T10:13:54Z</time>
      </trkpt>
      <trkpt lat="41.0967720" lon="0.5162560">
        <ele>245.5</ele>
        <time>2020-08-06T10:13:55Z</time>
      </trkpt>
      <trkpt lat="41.0967220" lon="0.5162380">
        <ele>245.3</ele>
        <time>2020-08-06T10:13:56Z</time>
      </trkpt>
      <trkpt lat="41.0966210" lon="0.5161930">
        <ele>245.1</ele>
        <time>2020-08-06T10:13:58Z</time>
      </trkpt>
      <trkpt lat="41.0965680" lon="0.5161730">
        <ele>244.9</ele>
        <time>2020-08-06T10:13:59Z</time>
      </trkpt>
      <trkpt lat="41.0965180" lon="0.5161540">
        <ele>244.8</ele>
        <time>2020-08-06T10:14:00Z</time>
      </trkpt>
      <trkpt lat="41.0964080" lon="0.5161050">
        <ele>244.5</ele>
        <time>2020-08-06T10:14:02Z</time>
      </trkpt>
      <trkpt lat="41.0963530" lon="0.5160760">
        <ele>244.4</ele>
        <time>2020-08-06T10:14:03Z</time>
      </trkpt>
      <trkpt lat="41.0962970" lon="0.5160590">
        <ele>244.3</ele>
        <time>2020-08-06T10:14:04Z</time>
      </trkpt>
      <trkpt lat="41.0962410" lon="0.5160440">
        <ele>244.2</ele>
        <time>2020-08-06T10:14:05Z</time>
      </trkpt>
      <trkpt lat="41.0961900" lon="0.5160320">
        <ele>244.1</ele>
        <time>2020-08-06T10:14:06Z</time>
      </trkpt>
      <trkpt lat="41.0961060" lon="0.5160040">
        <ele>244.0</ele>
        <time>2020-08-06T10:14:08Z</time>
      </trkpt>
      <trkpt lat="41.0960570" lon="0.5159920">
        <ele>243.9</ele>
        <time>2020-08-06T10:14:09Z</time>
      </trkpt>
      <trkpt lat="41.0960060" lon="0.5159800">
        <ele>243.9</ele>
        <time>2020-08-06T10:14:10Z</time>
      </trkpt>
      <trkpt lat="41.0959000" lon="0.5159450">
        <ele>243.8</ele>
        <time>2020-08-06T10:14:12Z</time>
      </trkpt>
      <trkpt lat="41.0958500" lon="0.5159230">
        <ele>243.8</ele>
        <time>2020-08-06T10:14:13Z</time>
      </trkpt>
      <trkpt lat="41.0957380" lon="0.5158830">
        <ele>243.7</ele>
        <time>2020-08-06T10:14:15Z</time>
      </trkpt>
      <trkpt lat="41.0956240" lon="0.5158570">
        <ele>243.6</ele>
        <time>2020-08-06T10:14:17Z</time>
      </trkpt>
      <trkpt lat="41.0955670" lon="0.5158400">
        <ele>243.5</ele>
        <time>2020-08-06T10:14:18Z</time>
      </trkpt>
      <trkpt lat="41.0955100" lon="0.5158260">
        <ele>243.5</ele>
        <time>2020-08-06T10:14:19Z</time>
      </trkpt>
      <trkpt lat="41.0954030" lon="0.5158110">
        <ele>243.4</ele>
        <time>2020-08-06T10:14:21Z</time>
      </trkpt>
      <trkpt lat="41.0953530" lon="0.5157950">
        <ele>243.4</ele>
        <time>2020-08-06T10:14:22Z</time>
      </trkpt>
      <trkpt lat="41.0952480" lon="0.5157620">
        <ele>243.4</ele>
        <time>2020-08-06T10:14:24Z</time>
      </trkpt>
      <trkpt lat="41.0951960" lon="0.5157390">
        <ele>243.4</ele>
        <time>2020-08-06T10:14:25Z</time>
      </trkpt>
      <trkpt lat="41.0951450" lon="0.5157220">
        <ele>243.4</ele>
        <time>2020-08-06T10:14:26Z</time>
      </trkpt>
      <trkpt lat="41.0950480" lon="0.5156940">
        <ele>243.4</ele>
        <time>2020-08-06T10:14:28Z</time>
      </trkpt>
      <trkpt lat="41.0950000" lon="0.5156770">
        <ele>243.5</ele>
        <time>2020-08-06T10:14:29Z</time>
      </trkpt>
      <trkpt lat="41.0949530" lon="0.5156610">
        <ele>243.5</ele>
        <time>2020-08-06T10:14:30Z</time>
      </trkpt>
      <trkpt lat="41.0948580" lon="0.5156340">
        <ele>243.6</ele>
        <time>2020-08-06T10:14:32Z</time>
      </trkpt>
      <trkpt lat="41.0948090" lon="0.5156240">
        <ele>243.6</ele>
        <time>2020-08-06T10:14:33Z</time>
      </trkpt>
      <trkpt lat="41.0947600" lon="0.5156170">
        <ele>243.6</ele>
        <time>2020-08-06T10:14:34Z</time>
      </trkpt>
      <trkpt lat="41.0944990" lon="0.5155500">
        <ele>243.4</ele>
        <time>2020-08-06T10:14:41Z</time>
      </trkpt>
      <trkpt lat="41.0944240" lon="0.5155190">
        <ele>243.3</ele>
        <time>2020-08-06T10:14:42Z</time>
      </trkpt>
      <trkpt lat="41.0943860" lon="0.5155020">
        <ele>243.3</ele>
        <time>2020-08-06T10:14:43Z</time>
      </trkpt>
      <trkpt lat="41.0943510" lon="0.5154900">
        <ele>243.3</ele>
        <time>2020-08-06T10:14:44Z</time>
      </trkpt>
      <trkpt lat="41.0943020" lon="0.5154720">
        <ele>243.3</ele>
        <time>2020-08-06T10:14:45Z</time>
      </trkpt>
      <trkpt lat="41.0942530" lon="0.5154550">
        <ele>243.2</ele>
        <time>2020-08-06T10:14:46Z</time>
      </trkpt>
      <trkpt lat="41.0942100" lon="0.5154430">
        <ele>243.2</ele>
        <time>2020-08-06T10:14:47Z</time>
      </trkpt>
      <trkpt lat="41.0941760" lon="0.5154350">
        <ele>243.2</ele>
        <time>2020-08-06T10:14:48Z</time>
      </trkpt>
      <trkpt lat="41.0940920" lon="0.5154170">
        <ele>243.2</ele>
        <time>2020-08-06T10:14:50Z</time>
      </trkpt>
      <trkpt lat="41.0940510" lon="0.5154060">
        <ele>243.1</ele>
        <time>2020-08-06T10:14:51Z</time>
      </trkpt>
      <trkpt lat="41.0939550" lon="0.5153770">
        <ele>243.1</ele>
        <time>2020-08-06T10:14:53Z</time>
      </trkpt>
      <trkpt lat="41.0939080" lon="0.5153630">
        <ele>243.1</ele>
        <time>2020-08-06T10:14:54Z</time>
      </trkpt>
      <trkpt lat="41.0938630" lon="0.5153500">
        <ele>243.1</ele>
        <time>2020-08-06T10:14:55Z</time>
      </trkpt>
      <trkpt lat="41.0937770" lon="0.5153290">
        <ele>243.1</ele>
        <time>2020-08-06T10:14:57Z</time>
      </trkpt>
      <trkpt lat="41.0936970" lon="0.5153100">
        <ele>243.1</ele>
        <time>2020-08-06T10:14:59Z</time>
      </trkpt>
      <trkpt lat="41.0936500" lon="0.5152990">
        <ele>243.1</ele>
        <time>2020-08-06T10:15:00Z</time>
      </trkpt>
      <trkpt lat="41.0936130" lon="0.5152900">
        <ele>243.1</ele>
        <time>2020-08-06T10:15:01Z</time>
      </trkpt>
      <trkpt lat="41.0935700" lon="0.5152800">
        <ele>243.1</ele>
        <time>2020-08-06T10:15:02Z</time>
      </trkpt>
      <trkpt lat="41.0934820" lon="0.5152620">
        <ele>243.1</ele>
        <time>2020-08-06T10:15:04Z</time>
      </trkpt>
      <trkpt lat="41.0934360" lon="0.5152530">
        <ele>243.1</ele>
        <time>2020-08-06T10:15:05Z</time>
      </trkpt>
      <trkpt lat="41.0933940" lon="0.5152430">
        <ele>243.1</ele>
        <time>2020-08-06T10:15:06Z</time>
      </trkpt>
      <trkpt lat="41.0933530" lon="0.5152310">
        <ele>243.1</ele>
        <time>2020-08-06T10:15:07Z</time>
      </trkpt>
      <trkpt lat="41.0933230" lon="0.5152230">
        <ele>243.1</ele>
        <time>2020-08-06T10:15:08Z</time>
      </trkpt>
      <trkpt lat="41.0932820" lon="0.5152100">
        <ele>243.1</ele>
        <time>2020-08-06T10:15:09Z</time>
      </trkpt>
      <trkpt lat="41.0932480" lon="0.5152020">
        <ele>243.1</ele>
        <time>2020-08-06T10:15:10Z</time>
      </trkpt>
      <trkpt lat="41.0932100" lon="0.5151910">
        <ele>243.1</ele>
        <time>2020-08-06T10:15:11Z</time>
      </trkpt>
      <trkpt lat="41.0931770" lon="0.5151810">
        <ele>243.1</ele>
        <time>2020-08-06T10:15:12Z</time>
      </trkpt>
      <trkpt lat="41.0931460" lon="0.5151710">
        <ele>243.1</ele>
        <time>2020-08-06T10:15:13Z</time>
      </trkpt>
      <trkpt lat="41.0930740" lon="0.5151470">
        <ele>243.1</ele>
        <time>2020-08-06T10:15:15Z</time>
      </trkpt>
      <trkpt lat="41.0930440" lon="0.5151360">
        <ele>243.1</ele>
        <time>2020-08-06T10:15:16Z</time>
      </trkpt>
      <trkpt lat="41.0930180" lon="0.5151280">
        <ele>243.1</ele>
        <time>2020-08-06T10:15:17Z</time>
      </trkpt>
      <trkpt lat="41.0929430" lon="0.5151090">
        <ele>243.1</ele>
        <time>2020-08-06T10:15:19Z</time>
      </trkpt>
      <trkpt lat="41.0928790" lon="0.5150930">
        <ele>243.1</ele>
        <time>2020-08-06T10:15:21Z</time>
      </trkpt>
      <trkpt lat="41.0928120" lon="0.5150710">
        <ele>243.1</ele>
        <time>2020-08-06T10:15:23Z</time>
      </trkpt>
      <trkpt lat="41.0927440" lon="0.5150440">
        <ele>243.1</ele>
        <time>2020-08-06T10:15:25Z</time>
      </trkpt>
      <trkpt lat="41.0927140" lon="0.5150320">
        <ele>243.1</ele>
        <time>2020-08-06T10:15:26Z</time>
      </trkpt>
      <trkpt lat="41.0926440" lon="0.5150100">
        <ele>243.0</ele>
        <time>2020-08-06T10:15:28Z</time>
      </trkpt>
      <trkpt lat="41.0926160" lon="0.5150010">
        <ele>243.0</ele>
        <time>2020-08-06T10:15:29Z</time>
      </trkpt>
      <trkpt lat="41.0925850" lon="0.5149910">
        <ele>242.9</ele>
        <time>2020-08-06T10:15:30Z</time>
      </trkpt>
      <trkpt lat="41.0925490" lon="0.5149800">
        <ele>242.8</ele>
        <time>2020-08-06T10:15:31Z</time>
      </trkpt>
      <trkpt lat="41.0925180" lon="0.5149700">
        <ele>242.8</ele>
        <time>2020-08-06T10:15:32Z</time>
      </trkpt>
      <trkpt lat="41.0924820" lon="0.5149600">
        <ele>242.7</ele>
        <time>2020-08-06T10:15:33Z</time>
      </trkpt>
      <trkpt lat="41.0924540" lon="0.5149510">
        <ele>242.7</ele>
        <time>2020-08-06T10:15:34Z</time>
      </trkpt>
      <trkpt lat="41.0923900" lon="0.5149310">
        <ele>242.6</ele>
        <time>2020-08-06T10:15:36Z</time>
      </trkpt>
      <trkpt lat="41.0923550" lon="0.5149220">
        <ele>242.6</ele>
        <time>2020-08-06T10:15:37Z</time>
      </trkpt>
      <trkpt lat="41.0922990" lon="0.5149050">
        <ele>242.6</ele>
        <time>2020-08-06T10:15:39Z</time>
      </trkpt>
      <trkpt lat="41.0922710" lon="0.5148940">
        <ele>242.6</ele>
        <time>2020-08-06T10:15:40Z</time>
      </trkpt>
      <trkpt lat="41.0922110" lon="0.5148710">
        <ele>242.6</ele>
        <time>2020-08-06T10:15:42Z</time>
      </trkpt>
      <trkpt lat="41.0921550" lon="0.5148460">
        <ele>242.6</ele>
        <time>2020-08-06T10:15:44Z</time>
      </trkpt>
      <trkpt lat="41.0921250" lon="0.5148330">
        <ele>242.6</ele>
        <time>2020-08-06T10:15:45Z</time>
      </trkpt>
      <trkpt lat="41.0920960" lon="0.5148200">
        <ele>242.6</ele>
        <time>2020-08-06T10:15:46Z</time>
      </trkpt>
      <trkpt lat="41.0920460" lon="0.5147980">
        <ele>242.6</ele>
        <time>2020-08-06T10:15:48Z</time>
      </trkpt>
      <trkpt lat="41.0920120" lon="0.5147840">
        <ele>242.7</ele>
        <time>2020-08-06T10:15:49Z</time>
      </trkpt>
      <trkpt lat="41.0919790" lon="0.5147700">
        <ele>242.7</ele>
        <time>2020-08-06T10:15:50Z</time>
      </trkpt>
      <trkpt lat="41.0919570" lon="0.5147610">
        <ele>242.7</ele>
        <time>2020-08-06T10:15:51Z</time>
      </trkpt>
      <trkpt lat="41.0919010" lon="0.5147310">
        <ele>242.8</ele>
        <time>2020-08-06T10:15:53Z</time>
      </trkpt>
      <trkpt lat="41.0918700" lon="0.5147130">
        <ele>242.8</ele>
        <time>2020-08-06T10:15:54Z</time>
      </trkpt>
      <trkpt lat="41.0918400" lon="0.5146950">
        <ele>242.8</ele>
        <time>2020-08-06T10:15:55Z</time>
      </trkpt>
      <trkpt lat="41.0917810" lon="0.5146640">
        <ele>242.9</ele>
        <time>2020-08-06T10:15:57Z</time>
      </trkpt>
      <trkpt lat="41.0917530" lon="0.5146490">
        <ele>242.9</ele>
        <time>2020-08-06T10:15:58Z</time>
      </trkpt>
      <trkpt lat="41.0917260" lon="0.5146330">
        <ele>243.0</ele>
        <time>2020-08-06T10:15:59Z</time>
      </trkpt>
      <trkpt lat="41.0917010" lon="0.5146180">
        <ele>243.0</ele>
        <time>2020-08-06T10:16:00Z</time>
      </trkpt>
      <trkpt lat="41.0916500" lon="0.5145820">
        <ele>243.0</ele>
        <time>2020-08-06T10:16:02Z</time>
      </trkpt>
      <trkpt lat="41.0916220" lon="0.5145620">
        <ele>243.0</ele>
        <time>2020-08-06T10:16:03Z</time>
      </trkpt>
      <trkpt lat="41.0915760" lon="0.5145290">
        <ele>243.1</ele>
        <time>2020-08-06T10:16:05Z</time>
      </trkpt>
      <trkpt lat="41.0915490" lon="0.5145100">
        <ele>243.1</ele>
        <time>2020-08-06T10:16:06Z</time>
      </trkpt>
      <trkpt lat="41.0915240" lon="0.5144950">
        <ele>243.1</ele>
        <time>2020-08-06T10:16:07Z</time>
      </trkpt>
      <trkpt lat="41.0914990" lon="0.5144780">
        <ele>243.2</ele>
        <time>2020-08-06T10:16:08Z</time>
      </trkpt>
      <trkpt lat="41.0914660" lon="0.5144520">
        <ele>243.2</ele>
        <time>2020-08-06T10:16:09Z</time>
      </trkpt>
      <trkpt lat="41.0914540" lon="0.5144430">
        <ele>243.2</ele>
        <time>2020-08-06T10:16:10Z</time>
      </trkpt>
      <trkpt lat="41.0914110" lon="0.5144080">
        <ele>243.3</ele>
        <time>2020-08-06T10:16:12Z</time>
      </trkpt>
      <trkpt lat="41.0913630" lon="0.5143690">
        <ele>243.4</ele>
        <time>2020-08-06T10:16:14Z</time>
      </trkpt>
      <trkpt lat="41.0913390" lon="0.5143500">
        <ele>243.4</ele>
        <time>2020-08-06T10:16:15Z</time>
      </trkpt>
      <trkpt lat="41.0913140" lon="0.5143320">
        <ele>243.5</ele>
        <time>2020-08-06T10:16:16Z</time>
      </trkpt>
      <trkpt lat="41.0912730" lon="0.5143050">
        <ele>243.5</ele>
        <time>2020-08-06T10:16:18Z</time>
      </trkpt>
      <trkpt lat="41.0912440" lon="0.5142850">
        <ele>243.6</ele>
        <time>2020-08-06T10:16:19Z</time>
      </trkpt>
      <trkpt lat="41.0912170" lon="0.5142650">
        <ele>243.7</ele>
        <time>2020-08-06T10:16:20Z</time>
      </trkpt>
      <trkpt lat="41.0911640" lon="0.5142250">
        <ele>243.7</ele>
        <time>2020-08-06T10:16:22Z</time>
      </trkpt>
      <trkpt lat="41.0911380" lon="0.5142050">
        <ele>243.8</ele>
        <time>2020-08-06T10:16:23Z</time>
      </trkpt>
      <trkpt lat="41.0910860" lon="0.5141670">
        <ele>243.8</ele>
        <time>2020-08-06T10:16:25Z</time>
      </trkpt>
      <trkpt lat="41.0910590" lon="0.5141480">
        <ele>243.9</ele>
        <time>2020-08-06T10:16:26Z</time>
      </trkpt>
      <trkpt lat="41.0910330" lon="0.5141290">
        <ele>243.9</ele>
        <time>2020-08-06T10:16:27Z</time>
      </trkpt>
      <trkpt lat="41.0909830" lon="0.5140920">
        <ele>244.0</ele>
        <time>2020-08-06T10:16:29Z</time>
      </trkpt>
      <trkpt lat="41.0909600" lon="0.5140740">
        <ele>244.0</ele>
        <time>2020-08-06T10:16:30Z</time>
      </trkpt>
      <trkpt lat="41.0909170" lon="0.5140390">
        <ele>244.1</ele>
        <time>2020-08-06T10:16:32Z</time>
      </trkpt>
      <trkpt lat="41.0908970" lon="0.5140070">
        <ele>244.1</ele>
        <time>2020-08-06T10:16:34Z</time>
      </trkpt>
      <trkpt lat="41.0909000" lon="0.5139860">
        <ele>244.2</ele>
        <time>2020-08-06T10:16:37Z</time>
      </trkpt>
      <trkpt lat="41.0909020" lon="0.5139850">
        <ele>244.2</ele>
        <time>2020-08-06T10:16:38Z</time>
      </trkpt>
      <trkpt lat="41.0909030" lon="0.5139840">
        <ele>244.2</ele>
        <time>2020-08-06T10:16:39Z</time>
      </trkpt>
      <trkpt lat="41.0909050" lon="0.5139850">
        <ele>244.2</ele>
        <time>2020-08-06T10:16:40Z</time>
      </trkpt>
      <trkpt lat="41.0909050" lon="0.5139850">
        <ele>244.2</ele>
        <time>2020-08-06T10:16:41Z</time>
      </trkpt>
      <trkpt lat="41.0909030" lon="0.5139800">
        <ele>244.2</ele>
        <time>2020-08-06T10:16:43Z</time>
      </trkpt>
      <trkpt lat="41.0909060" lon="0.5139840">
        <ele>244.2</ele>
        <time>2020-08-06T10:16:45Z</time>
      </trkpt>
      <trkpt lat="41.0909080" lon="0.5139860">
        <ele>244.2</ele>
        <time>2020-08-06T10:16:46Z</time>
      </trkpt>
      <trkpt lat="41.0909090" lon="0.5139880">
        <ele>244.2</ele>
        <time>2020-08-06T10:16:47Z</time>
      </trkpt>
      <trkpt lat="41.0908730" lon="0.5139800">
        <ele>244.3</ele>
        <time>2020-08-06T10:18:34Z</time>
      </trkpt>
      <trkpt lat="41.0908580" lon="0.5139720">
        <ele>244.3</ele>
        <time>2020-08-06T10:18:35Z</time>
      </trkpt>
      <trkpt lat="41.0908210" lon="0.5139380">
        <ele>244.4</ele>
        <time>2020-08-06T10:18:37Z</time>
      </trkpt>
      <trkpt lat="41.0907890" lon="0.5139080">
        <ele>244.5</ele>
        <time>2020-08-06T10:18:39Z</time>
      </trkpt>
      <trkpt lat="41.0907560" lon="0.5138780">
        <ele>244.5</ele>
        <time>2020-08-06T10:18:40Z</time>
      </trkpt>
      <trkpt lat="41.0907440" lon="0.5138680">
        <ele>244.6</ele>
        <time>2020-08-06T10:18:41Z</time>
      </trkpt>
      <trkpt lat="41.0906940" lon="0.5138210">
        <ele>244.7</ele>
        <time>2020-08-06T10:18:43Z</time>
      </trkpt>
      <trkpt lat="41.0906450" lon="0.5137790">
        <ele>244.7</ele>
        <time>2020-08-06T10:18:45Z</time>
      </trkpt>
      <trkpt lat="41.0906200" lon="0.5137570">
        <ele>244.8</ele>
        <time>2020-08-06T10:18:46Z</time>
      </trkpt>
      <trkpt lat="41.0905710" lon="0.5137200">
        <ele>244.9</ele>
        <time>2020-08-06T10:18:48Z</time>
      </trkpt>
      <trkpt lat="41.0905420" lon="0.5136970">
        <ele>244.9</ele>
        <time>2020-08-06T10:18:49Z</time>
      </trkpt>
      <trkpt lat="41.0904960" lon="0.5136590">
        <ele>245.0</ele>
        <time>2020-08-06T10:18:51Z</time>
      </trkpt>
      <trkpt lat="41.0904670" lon="0.5136330">
        <ele>245.1</ele>
        <time>2020-08-06T10:18:52Z</time>
      </trkpt>
      <trkpt lat="41.0904380" lon="0.5136080">
        <ele>245.2</ele>
        <time>2020-08-06T10:18:53Z</time>
      </trkpt>
      <trkpt lat="41.0903860" lon="0.5135620">
        <ele>245.3</ele>
        <time>2020-08-06T10:18:55Z</time>
      </trkpt>
      <trkpt lat="41.0903600" lon="0.5135390">
        <ele>245.4</ele>
        <time>2020-08-06T10:18:56Z</time>
      </trkpt>
      <trkpt lat="41.0903350" lon="0.5135170">
        <ele>245.4</ele>
        <time>2020-08-06T10:18:57Z</time>
      </trkpt>
      <trkpt lat="41.0902820" lon="0.5134740">
        <ele>245.5</ele>
        <time>2020-08-06T10:18:59Z</time>
      </trkpt>
      <trkpt lat="41.0902550" lon="0.5134530">
        <ele>245.6</ele>
        <time>2020-08-06T10:19:00Z</time>
      </trkpt>
      <trkpt lat="41.0902290" lon="0.5134340">
        <ele>245.6</ele>
        <time>2020-08-06T10:19:01Z</time>
      </trkpt>
      <trkpt lat="41.0901770" lon="0.5133980">
        <ele>245.7</ele>
        <time>2020-08-06T10:19:03Z</time>
      </trkpt>
      <trkpt lat="41.0901480" lon="0.5133800">
        <ele>245.8</ele>
        <time>2020-08-06T10:19:04Z</time>
      </trkpt>
      <trkpt lat="41.0900960" lon="0.5133440">
        <ele>245.9</ele>
        <time>2020-08-06T10:19:06Z</time>
      </trkpt>
      <trkpt lat="41.0900690" lon="0.5133220">
        <ele>245.9</ele>
        <time>2020-08-06T10:19:07Z</time>
      </trkpt>
      <trkpt lat="41.0900500" lon="0.5133080">
        <ele>246.0</ele>
        <time>2020-08-06T10:19:08Z</time>
      </trkpt>
      <trkpt lat="41.0899970" lon="0.5132650">
        <ele>246.0</ele>
        <time>2020-08-06T10:19:10Z</time>
      </trkpt>
      <trkpt lat="41.0899450" lon="0.5132180">
        <ele>246.1</ele>
        <time>2020-08-06T10:19:12Z</time>
      </trkpt>
      <trkpt lat="41.0899200" lon="0.5131940">
        <ele>246.2</ele>
        <time>2020-08-06T10:19:13Z</time>
      </trkpt>
      <trkpt lat="41.0898720" lon="0.5131490">
        <ele>246.2</ele>
        <time>2020-08-06T10:19:15Z</time>
      </trkpt>
      <trkpt lat="41.0898460" lon="0.5131240">
        <ele>246.3</ele>
        <time>2020-08-06T10:19:16Z</time>
      </trkpt>
      <trkpt lat="41.0898200" lon="0.5131000">
        <ele>246.3</ele>
        <time>2020-08-06T10:19:17Z</time>
      </trkpt>
      <trkpt lat="41.0897680" lon="0.5130530">
        <ele>246.3</ele>
        <time>2020-08-06T10:19:19Z</time>
      </trkpt>
      <trkpt lat="41.0897440" lon="0.5130330">
        <ele>246.4</ele>
        <time>2020-08-06T10:19:20Z</time>
      </trkpt>
      <trkpt lat="41.0896940" lon="0.5129910">
        <ele>246.4</ele>
        <time>2020-08-06T10:19:22Z</time>
      </trkpt>
      <trkpt lat="41.0896360" lon="0.5129410">
        <ele>246.6</ele>
        <time>2020-08-06T10:19:24Z</time>
      </trkpt>
      <trkpt lat="41.0896060" lon="0.5129140">
        <ele>246.6</ele>
        <time>2020-08-06T10:19:25Z</time>
      </trkpt>
      <trkpt lat="41.0895470" lon="0.5128630">
        <ele>246.7</ele>
        <time>2020-08-06T10:19:27Z</time>
      </trkpt>
      <trkpt lat="41.0895200" lon="0.5128410">
        <ele>246.8</ele>
        <time>2020-08-06T10:19:28Z</time>
      </trkpt>
      <trkpt lat="41.0894910" lon="0.5128170">
        <ele>246.9</ele>
        <time>2020-08-06T10:19:29Z</time>
      </trkpt>
      <trkpt lat="41.0894410" lon="0.5127760">
        <ele>247.0</ele>
        <time>2020-08-06T10:19:31Z</time>
      </trkpt>
      <trkpt lat="41.0893840" lon="0.5127300">
        <ele>247.1</ele>
        <time>2020-08-06T10:19:33Z</time>
      </trkpt>
      <trkpt lat="41.0893570" lon="0.5127070">
        <ele>247.1</ele>
        <time>2020-08-06T10:19:34Z</time>
      </trkpt>
      <trkpt lat="41.0893290" lon="0.5126850">
        <ele>247.2</ele>
        <time>2020-08-06T10:19:35Z</time>
      </trkpt>
      <trkpt lat="41.0892760" lon="0.5126390">
        <ele>247.3</ele>
        <time>2020-08-06T10:19:37Z</time>
      </trkpt>
      <trkpt lat="41.0892500" lon="0.5126170">
        <ele>247.3</ele>
        <time>2020-08-06T10:19:38Z</time>
      </trkpt>
      <trkpt lat="41.0891980" lon="0.5125730">
        <ele>247.4</ele>
        <time>2020-08-06T10:19:40Z</time>
      </trkpt>
      <trkpt lat="41.0891450" lon="0.5125300">
        <ele>247.5</ele>
        <time>2020-08-06T10:19:42Z</time>
      </trkpt>
      <trkpt lat="41.0891190" lon="0.5125090">
        <ele>247.6</ele>
        <time>2020-08-06T10:19:43Z</time>
      </trkpt>
      <trkpt lat="41.0890640" lon="0.5124630">
        <ele>247.7</ele>
        <time>2020-08-06T10:19:45Z</time>
      </trkpt>
      <trkpt lat="41.0890360" lon="0.5124400">
        <ele>247.7</ele>
        <time>2020-08-06T10:19:46Z</time>
      </trkpt>
      <trkpt lat="41.0890180" lon="0.5124250">
        <ele>247.7</ele>
        <time>2020-08-06T10:19:47Z</time>
      </trkpt>
      <trkpt lat="41.0889590" lon="0.5123760">
        <ele>247.8</ele>
        <time>2020-08-06T10:19:49Z</time>
      </trkpt>
      <trkpt lat="41.0889310" lon="0.5123510">
        <ele>247.9</ele>
        <time>2020-08-06T10:19:50Z</time>
      </trkpt>
      <trkpt lat="41.0888820" lon="0.5123070">
        <ele>248.0</ele>
        <time>2020-08-06T10:19:52Z</time>
      </trkpt>
      <trkpt lat="41.0888310" lon="0.5122640">
        <ele>248.2</ele>
        <time>2020-08-06T10:19:54Z</time>
      </trkpt>
      <trkpt lat="41.0888080" lon="0.5122450">
        <ele>248.3</ele>
        <time>2020-08-06T10:19:55Z</time>
      </trkpt>
      <trkpt lat="41.0887600" lon="0.5122070">
        <ele>248.3</ele>
        <time>2020-08-06T10:19:57Z</time>
      </trkpt>
      <trkpt lat="41.0887040" lon="0.5121590">
        <ele>248.4</ele>
        <time>2020-08-06T10:19:59Z</time>
      </trkpt>
      <trkpt lat="41.0886690" lon="0.5121280">
        <ele>248.4</ele>
        <time>2020-08-06T10:20:00Z</time>
      </trkpt>
      <trkpt lat="41.0886540" lon="0.5121160">
        <ele>248.4</ele>
        <time>2020-08-06T10:20:01Z</time>
      </trkpt>
      <trkpt lat="41.0886030" lon="0.5120810">
        <ele>248.5</ele>
        <time>2020-08-06T10:20:03Z</time>
      </trkpt>
      <trkpt lat="41.0885750" lon="0.5120630">
        <ele>248.5</ele>
        <time>2020-08-06T10:20:04Z</time>
      </trkpt>
      <trkpt lat="41.0885200" lon="0.5120230">
        <ele>248.5</ele>
        <time>2020-08-06T10:20:06Z</time>
      </trkpt>
      <trkpt lat="41.0884870" lon="0.5119970">
        <ele>248.6</ele>
        <time>2020-08-06T10:20:07Z</time>
      </trkpt>
      <trkpt lat="41.0884720" lon="0.5119860">
        <ele>248.6</ele>
        <time>2020-08-06T10:20:08Z</time>
      </trkpt>
      <trkpt lat="41.0884160" lon="0.5119410">
        <ele>248.7</ele>
        <time>2020-08-06T10:20:10Z</time>
      </trkpt>
      <trkpt lat="41.0883920" lon="0.5119220">
        <ele>248.7</ele>
        <time>2020-08-06T10:20:11Z</time>
      </trkpt>
      <trkpt lat="41.0883420" lon="0.5118790">
        <ele>248.7</ele>
        <time>2020-08-06T10:20:13Z</time>
      </trkpt>
      <trkpt lat="41.0883140" lon="0.5118570">
        <ele>248.8</ele>
        <time>2020-08-06T10:20:14Z</time>
      </trkpt>
      <trkpt lat="41.0882620" lon="0.5118170">
        <ele>249.0</ele>
        <time>2020-08-06T10:20:16Z</time>
      </trkpt>
      <trkpt lat="41.0882340" lon="0.5117960">
        <ele>249.1</ele>
        <time>2020-08-06T10:20:17Z</time>
      </trkpt>
      <trkpt lat="41.0881830" lon="0.5117570">
        <ele>249.2</ele>
        <time>2020-08-06T10:20:19Z</time>
      </trkpt>
      <trkpt lat="41.0881310" lon="0.5117180">
        <ele>249.4</ele>
        <time>2020-08-06T10:20:21Z</time>
      </trkpt>
      <trkpt lat="41.0881010" lon="0.5116950">
        <ele>249.4</ele>
        <time>2020-08-06T10:20:22Z</time>
      </trkpt>
      <trkpt lat="41.0880500" lon="0.5116590">
        <ele>249.5</ele>
        <time>2020-08-06T10:20:24Z</time>
      </trkpt>
      <trkpt lat="41.0880220" lon="0.5116390">
        <ele>249.6</ele>
        <time>2020-08-06T10:20:25Z</time>
      </trkpt>
      <trkpt lat="41.0879660" lon="0.5115900">
        <ele>249.7</ele>
        <time>2020-08-06T10:20:27Z</time>
      </trkpt>
      <trkpt lat="41.0879320" lon="0.5115580">
        <ele>249.7</ele>
        <time>2020-08-06T10:20:28Z</time>
      </trkpt>
      <trkpt lat="41.0879170" lon="0.5115450">
        <ele>249.8</ele>
        <time>2020-08-06T10:20:29Z</time>
      </trkpt>
      <trkpt lat="41.0878890" lon="0.5115190">
        <ele>249.8</ele>
        <time>2020-08-06T10:20:30Z</time>
      </trkpt>
      <trkpt lat="41.0878630" lon="0.5114960">
        <ele>249.9</ele>
        <time>2020-08-06T10:20:31Z</time>
      </trkpt>
      <trkpt lat="41.0878100" lon="0.5114490">
        <ele>250.0</ele>
        <time>2020-08-06T10:20:33Z</time>
      </trkpt>
      <trkpt lat="41.0877680" lon="0.5114130">
        <ele>250.1</ele>
        <time>2020-08-06T10:20:35Z</time>
      </trkpt>
      <trkpt lat="41.0877400" lon="0.5113890">
        <ele>250.2</ele>
        <time>2020-08-06T10:20:36Z</time>
      </trkpt>
      <trkpt lat="41.0877150" lon="0.5113660">
        <ele>250.2</ele>
        <time>2020-08-06T10:20:37Z</time>
      </trkpt>
      <trkpt lat="41.0876640" lon="0.5113160">
        <ele>250.4</ele>
        <time>2020-08-06T10:20:39Z</time>
      </trkpt>
      <trkpt lat="41.0876340" lon="0.5112870">
        <ele>250.4</ele>
        <time>2020-08-06T10:20:40Z</time>
      </trkpt>
      <trkpt lat="41.0875770" lon="0.5112370">
        <ele>250.5</ele>
        <time>2020-08-06T10:20:42Z</time>
      </trkpt>
      <trkpt lat="41.0875460" lon="0.5112130">
        <ele>250.6</ele>
        <time>2020-08-06T10:20:43Z</time>
      </trkpt>
      <trkpt lat="41.0874890" lon="0.5111670">
        <ele>250.7</ele>
        <time>2020-08-06T10:20:45Z</time>
      </trkpt>
      <trkpt lat="41.0874330" lon="0.5111210">
        <ele>250.8</ele>
        <time>2020-08-06T10:20:47Z</time>
      </trkpt>
      <trkpt lat="41.0873760" lon="0.5110710">
        <ele>250.9</ele>
        <time>2020-08-06T10:20:49Z</time>
      </trkpt>
      <trkpt lat="41.0873500" lon="0.5110480">
        <ele>251.0</ele>
        <time>2020-08-06T10:20:50Z</time>
      </trkpt>
      <trkpt lat="41.0873240" lon="0.5110260">
        <ele>251.0</ele>
        <time>2020-08-06T10:20:51Z</time>
      </trkpt>
      <trkpt lat="41.0872970" lon="0.5110030">
        <ele>251.1</ele>
        <time>2020-08-06T10:20:52Z</time>
      </trkpt>
      <trkpt lat="41.0872470" lon="0.5109610">
        <ele>251.2</ele>
        <time>2020-08-06T10:20:54Z</time>
      </trkpt>
      <trkpt lat="41.0871930" lon="0.5109130">
        <ele>251.3</ele>
        <time>2020-08-06T10:20:56Z</time>
      </trkpt>
      <trkpt lat="41.0871670" lon="0.5108880">
        <ele>251.3</ele>
        <time>2020-08-06T10:20:57Z</time>
      </trkpt>
      <trkpt lat="41.0871220" lon="0.5108430">
        <ele>251.4</ele>
        <time>2020-08-06T10:20:59Z</time>
      </trkpt>
      <trkpt lat="41.0870950" lon="0.5108130">
        <ele>251.4</ele>
        <time>2020-08-06T10:21:00Z</time>
      </trkpt>
      <trkpt lat="41.0870710" lon="0.5107850">
        <ele>251.5</ele>
        <time>2020-08-06T10:21:01Z</time>
      </trkpt>
      <trkpt lat="41.0870250" lon="0.5107300">
        <ele>251.6</ele>
        <time>2020-08-06T10:21:03Z</time>
      </trkpt>
      <trkpt lat="41.0869700" lon="0.5106620">
        <ele>251.7</ele>
        <time>2020-08-06T10:21:05Z</time>
      </trkpt>
      <trkpt lat="41.0869380" lon="0.5106180">
        <ele>251.8</ele>
        <time>2020-08-06T10:21:06Z</time>
      </trkpt>
      <trkpt lat="41.0869240" lon="0.5106000">
        <ele>251.8</ele>
        <time>2020-08-06T10:21:07Z</time>
      </trkpt>
      <trkpt lat="41.0868820" lon="0.5105420">
        <ele>252.0</ele>
        <time>2020-08-06T10:21:09Z</time>
      </trkpt>
      <trkpt lat="41.0868570" lon="0.5105090">
        <ele>252.0</ele>
        <time>2020-08-06T10:21:10Z</time>
      </trkpt>
      <trkpt lat="41.0868340" lon="0.5104750">
        <ele>252.1</ele>
        <time>2020-08-06T10:21:11Z</time>
      </trkpt>
      <trkpt lat="41.0867840" lon="0.5104000">
        <ele>252.1</ele>
        <time>2020-08-06T10:21:13Z</time>
      </trkpt>
      <trkpt lat="41.0867600" lon="0.5103630">
        <ele>252.2</ele>
        <time>2020-08-06T10:21:14Z</time>
      </trkpt>
      <trkpt lat="41.0867160" lon="0.5102920">
        <ele>252.2</ele>
        <time>2020-08-06T10:21:16Z</time>
      </trkpt>
      <trkpt lat="41.0866980" lon="0.5102610">
        <ele>252.3</ele>
        <time>2020-08-06T10:21:17Z</time>
      </trkpt>
      <trkpt lat="41.0866800" lon="0.5102270">
        <ele>252.3</ele>
        <time>2020-08-06T10:21:18Z</time>
      </trkpt>
      <trkpt lat="41.0866560" lon="0.5101840">
        <ele>252.3</ele>
        <time>2020-08-06T10:21:19Z</time>
      </trkpt>
      <trkpt lat="41.0866340" lon="0.5101410">
        <ele>252.4</ele>
        <time>2020-08-06T10:21:20Z</time>
      </trkpt>
      <trkpt lat="41.0866120" lon="0.5101000">
        <ele>252.4</ele>
        <time>2020-08-06T10:21:21Z</time>
      </trkpt>
      <trkpt lat="41.0865730" lon="0.5100170">
        <ele>252.5</ele>
        <time>2020-08-06T10:21:23Z</time>
      </trkpt>
      <trkpt lat="41.0865580" lon="0.5099820">
        <ele>252.6</ele>
        <time>2020-08-06T10:21:24Z</time>
      </trkpt>
      <trkpt lat="41.0865380" lon="0.5099350">
        <ele>252.6</ele>
        <time>2020-08-06T10:21:25Z</time>
      </trkpt>
      <trkpt lat="41.0865200" lon="0.5098880">
        <ele>252.7</ele>
        <time>2020-08-06T10:21:26Z</time>
      </trkpt>
      <trkpt lat="41.0864870" lon="0.5098010">
        <ele>252.8</ele>
        <time>2020-08-06T10:21:28Z</time>
      </trkpt>
      <trkpt lat="41.0864690" lon="0.5097540">
        <ele>252.9</ele>
        <time>2020-08-06T10:21:29Z</time>
      </trkpt>
      <trkpt lat="41.0864530" lon="0.5097110">
        <ele>253.0</ele>
        <time>2020-08-06T10:21:30Z</time>
      </trkpt>
      <trkpt lat="41.0864390" lon="0.5096730">
        <ele>253.0</ele>
        <time>2020-08-06T10:21:31Z</time>
      </trkpt>
      <trkpt lat="41.0864250" lon="0.5096330">
        <ele>253.1</ele>
        <time>2020-08-06T10:21:32Z</time>
      </trkpt>
      <trkpt lat="41.0863950" lon="0.5095450">
        <ele>253.2</ele>
        <time>2020-08-06T10:21:34Z</time>
      </trkpt>
      <trkpt lat="41.0863690" lon="0.5094560">
        <ele>253.3</ele>
        <time>2020-08-06T10:21:36Z</time>
      </trkpt>
      <trkpt lat="41.0863390" lon="0.5093460">
        <ele>253.4</ele>
        <time>2020-08-06T10:21:38Z</time>
      </trkpt>
      <trkpt lat="41.0863270" lon="0.5092950">
        <ele>253.5</ele>
        <time>2020-08-06T10:21:39Z</time>
      </trkpt>
      <trkpt lat="41.0863160" lon="0.5092460">
        <ele>253.5</ele>
        <time>2020-08-06T10:21:40Z</time>
      </trkpt>
      <trkpt lat="41.0862970" lon="0.5091490">
        <ele>253.6</ele>
        <time>2020-08-06T10:21:42Z</time>
      </trkpt>
      <trkpt lat="41.0862900" lon="0.5091030">
        <ele>253.6</ele>
        <time>2020-08-06T10:21:43Z</time>
      </trkpt>
      <trkpt lat="41.0862770" lon="0.5090080">
        <ele>253.7</ele>
        <time>2020-08-06T10:21:45Z</time>
      </trkpt>
      <trkpt lat="41.0862710" lon="0.5089610">
        <ele>253.8</ele>
        <time>2020-08-06T10:21:46Z</time>
      </trkpt>
      <trkpt lat="41.0862580" lon="0.5088530">
        <ele>253.9</ele>
        <time>2020-08-06T10:21:48Z</time>
      </trkpt>
      <trkpt lat="41.0862530" lon="0.5088010">
        <ele>254.0</ele>
        <time>2020-08-06T10:21:49Z</time>
      </trkpt>
      <trkpt lat="41.0862460" lon="0.5086930">
        <ele>254.1</ele>
        <time>2020-08-06T10:21:51Z</time>
      </trkpt>
      <trkpt lat="41.0862430" lon="0.5086440">
        <ele>254.2</ele>
        <time>2020-08-06T10:21:52Z</time>
      </trkpt>
      <trkpt lat="41.0862350" lon="0.5085310">
        <ele>254.3</ele>
        <time>2020-08-06T10:21:54Z</time>
      </trkpt>
      <trkpt lat="41.0862320" lon="0.5084760">
        <ele>254.3</ele>
        <time>2020-08-06T10:21:55Z</time>
      </trkpt>
      <trkpt lat="41.0862330" lon="0.5084380">
        <ele>254.3</ele>
        <time>2020-08-06T10:21:56Z</time>
      </trkpt>
      <trkpt lat="41.0862330" lon="0.5083800">
        <ele>254.4</ele>
        <time>2020-08-06T10:21:57Z</time>
      </trkpt>
      <trkpt lat="41.0862350" lon="0.5083240">
        <ele>254.4</ele>
        <time>2020-08-06T10:21:58Z</time>
      </trkpt>
      <trkpt lat="41.0862380" lon="0.5082730">
        <ele>254.4</ele>
        <time>2020-08-06T10:21:59Z</time>
      </trkpt>
      <trkpt lat="41.0862460" lon="0.5081760">
        <ele>254.4</ele>
        <time>2020-08-06T10:22:01Z</time>
      </trkpt>
      <trkpt lat="41.0862500" lon="0.5081250">
        <ele>254.4</ele>
        <time>2020-08-06T10:22:02Z</time>
      </trkpt>
      <trkpt lat="41.0862560" lon="0.5080700">
        <ele>254.4</ele>
        <time>2020-08-06T10:22:03Z</time>
      </trkpt>
      <trkpt lat="41.0862660" lon="0.5079590">
        <ele>254.4</ele>
        <time>2020-08-06T10:22:05Z</time>
      </trkpt>
      <trkpt lat="41.0862700" lon="0.5079070">
        <ele>254.4</ele>
        <time>2020-08-06T10:22:06Z</time>
      </trkpt>
      <trkpt lat="41.0862750" lon="0.5078430">
        <ele>254.3</ele>
        <time>2020-08-06T10:22:07Z</time>
      </trkpt>
      <trkpt lat="41.0862900" lon="0.5077280">
        <ele>254.2</ele>
        <time>2020-08-06T10:22:09Z</time>
      </trkpt>
      <trkpt lat="41.0862980" lon="0.5076590">
        <ele>254.1</ele>
        <time>2020-08-06T10:22:10Z</time>
      </trkpt>
      <trkpt lat="41.0863070" lon="0.5075910">
        <ele>254.1</ele>
        <time>2020-08-06T10:22:11Z</time>
      </trkpt>
      <trkpt lat="41.0863150" lon="0.5074660">
        <ele>254.0</ele>
        <time>2020-08-06T10:22:13Z</time>
      </trkpt>
      <trkpt lat="41.0863170" lon="0.5074030">
        <ele>253.9</ele>
        <time>2020-08-06T10:22:14Z</time>
      </trkpt>
      <trkpt lat="41.0863220" lon="0.5073460">
        <ele>253.9</ele>
        <time>2020-08-06T10:22:15Z</time>
      </trkpt>
      <trkpt lat="41.0863250" lon="0.5072850">
        <ele>253.8</ele>
        <time>2020-08-06T10:22:16Z</time>
      </trkpt>
      <trkpt lat="41.0863360" lon="0.5071660">
        <ele>253.6</ele>
        <time>2020-08-06T10:22:18Z</time>
      </trkpt>
      <trkpt lat="41.0863440" lon="0.5070450">
        <ele>253.4</ele>
        <time>2020-08-06T10:22:20Z</time>
      </trkpt>
      <trkpt lat="41.0863490" lon="0.5069250">
        <ele>253.2</ele>
        <time>2020-08-06T10:22:22Z</time>
      </trkpt>
      <trkpt lat="41.0863550" lon="0.5068610">
        <ele>253.1</ele>
        <time>2020-08-06T10:22:23Z</time>
      </trkpt>
      <trkpt lat="41.0863560" lon="0.5067280">
        <ele>252.8</ele>
        <time>2020-08-06T10:22:25Z</time>
      </trkpt>
      <trkpt lat="41.0863440" lon="0.5066670">
        <ele>252.7</ele>
        <time>2020-08-06T10:22:26Z</time>
      </trkpt>
      <trkpt lat="41.0863370" lon="0.5066010">
        <ele>252.6</ele>
        <time>2020-08-06T10:22:27Z</time>
      </trkpt>
      <trkpt lat="41.0863380" lon="0.5064520">
        <ele>252.4</ele>
        <time>2020-08-06T10:22:30Z</time>
      </trkpt>
      <trkpt lat="41.0863250" lon="0.5062930">
        <ele>252.1</ele>
        <time>2020-08-06T10:22:31Z</time>
      </trkpt>
      <trkpt lat="41.0863220" lon="0.5062040">
        <ele>252.0</ele>
        <time>2020-08-06T10:22:32Z</time>
      </trkpt>
      <trkpt lat="41.0862990" lon="0.5060380">
        <ele>251.8</ele>
        <time>2020-08-06T10:22:34Z</time>
      </trkpt>
      <trkpt lat="41.0862930" lon="0.5059590">
        <ele>251.8</ele>
        <time>2020-08-06T10:22:35Z</time>
      </trkpt>
      <trkpt lat="41.0862820" lon="0.5058840">
        <ele>251.8</ele>
        <time>2020-08-06T10:22:36Z</time>
      </trkpt>
      <trkpt lat="41.0862470" lon="0.5057380">
        <ele>251.7</ele>
        <time>2020-08-06T10:22:38Z</time>
      </trkpt>
      <trkpt lat="41.0862280" lon="0.5056620">
        <ele>251.7</ele>
        <time>2020-08-06T10:22:39Z</time>
      </trkpt>
      <trkpt lat="41.0862080" lon="0.5055840">
        <ele>251.7</ele>
        <time>2020-08-06T10:22:40Z</time>
      </trkpt>
      <trkpt lat="41.0861590" lon="0.5054340">
        <ele>251.7</ele>
        <time>2020-08-06T10:22:42Z</time>
      </trkpt>
      <trkpt lat="41.0861370" lon="0.5053690">
        <ele>251.8</ele>
        <time>2020-08-06T10:22:43Z</time>
      </trkpt>
      <trkpt lat="41.0861070" lon="0.5052340">
        <ele>251.8</ele>
        <time>2020-08-06T10:22:45Z</time>
      </trkpt>
      <trkpt lat="41.0860930" lon="0.5051600">
        <ele>251.8</ele>
        <time>2020-08-06T10:22:46Z</time>
      </trkpt>
      <trkpt lat="41.0860700" lon="0.5050140">
        <ele>252.0</ele>
        <time>2020-08-06T10:22:48Z</time>
      </trkpt>
      <trkpt lat="41.0860590" lon="0.5049430">
        <ele>252.1</ele>
        <time>2020-08-06T10:22:49Z</time>
      </trkpt>
      <trkpt lat="41.0860370" lon="0.5048110">
        <ele>252.3</ele>
        <time>2020-08-06T10:22:51Z</time>
      </trkpt>
      <trkpt lat="41.0860340" lon="0.5047600">
        <ele>252.4</ele>
        <time>2020-08-06T10:22:52Z</time>
      </trkpt>
      <trkpt lat="41.0860160" lon="0.5046570">
        <ele>252.6</ele>
        <time>2020-08-06T10:22:54Z</time>
      </trkpt>
      <trkpt lat="41.0859930" lon="0.5045520">
        <ele>252.8</ele>
        <time>2020-08-06T10:22:56Z</time>
      </trkpt>
      <trkpt lat="41.0859810" lon="0.5044970">
        <ele>252.9</ele>
        <time>2020-08-06T10:22:57Z</time>
      </trkpt>
      <trkpt lat="41.0859620" lon="0.5043980">
        <ele>253.1</ele>
        <time>2020-08-06T10:22:59Z</time>
      </trkpt>
      <trkpt lat="41.0859500" lon="0.5043040">
        <ele>253.3</ele>
        <time>2020-08-06T10:23:01Z</time>
      </trkpt>
      <trkpt lat="41.0859400" lon="0.5042490">
        <ele>253.4</ele>
        <time>2020-08-06T10:23:02Z</time>
      </trkpt>
      <trkpt lat="41.0859250" lon="0.5041500">
        <ele>253.6</ele>
        <time>2020-08-06T10:23:04Z</time>
      </trkpt>
      <trkpt lat="41.0859190" lon="0.5041080">
        <ele>253.7</ele>
        <time>2020-08-06T10:23:05Z</time>
      </trkpt>
      <trkpt lat="41.0859120" lon="0.5040620">
        <ele>253.8</ele>
        <time>2020-08-06T10:23:06Z</time>
      </trkpt>
      <trkpt lat="41.0859030" lon="0.5040140">
        <ele>253.9</ele>
        <time>2020-08-06T10:23:07Z</time>
      </trkpt>
      <trkpt lat="41.0858850" lon="0.5039280">
        <ele>254.1</ele>
        <time>2020-08-06T10:23:09Z</time>
      </trkpt>
      <trkpt lat="41.0858780" lon="0.5038800">
        <ele>254.2</ele>
        <time>2020-08-06T10:23:10Z</time>
      </trkpt>
      <trkpt lat="41.0858710" lon="0.5038360">
        <ele>254.3</ele>
        <time>2020-08-06T10:23:11Z</time>
      </trkpt>
      <trkpt lat="41.0858670" lon="0.5037990">
        <ele>254.3</ele>
        <time>2020-08-06T10:23:12Z</time>
      </trkpt>
      <trkpt lat="41.0858560" lon="0.5037130">
        <ele>254.5</ele>
        <time>2020-08-06T10:23:14Z</time>
      </trkpt>
      <trkpt lat="41.0858500" lon="0.5036650">
        <ele>254.6</ele>
        <time>2020-08-06T10:23:15Z</time>
      </trkpt>
      <trkpt lat="41.0858440" lon="0.5036180">
        <ele>254.7</ele>
        <time>2020-08-06T10:23:16Z</time>
      </trkpt>
      <trkpt lat="41.0858390" lon="0.5035710">
        <ele>254.8</ele>
        <time>2020-08-06T10:23:17Z</time>
      </trkpt>
      <trkpt lat="41.0858340" lon="0.5035310">
        <ele>254.9</ele>
        <time>2020-08-06T10:23:18Z</time>
      </trkpt>
      <trkpt lat="41.0858220" lon="0.5034390">
        <ele>255.0</ele>
        <time>2020-08-06T10:23:20Z</time>
      </trkpt>
      <trkpt lat="41.0858170" lon="0.5034000">
        <ele>255.1</ele>
        <time>2020-08-06T10:23:21Z</time>
      </trkpt>
      <trkpt lat="41.0857970" lon="0.5033110">
        <ele>255.2</ele>
        <time>2020-08-06T10:23:23Z</time>
      </trkpt>
      <trkpt lat="41.0857880" lon="0.5032740">
        <ele>255.3</ele>
        <time>2020-08-06T10:23:24Z</time>
      </trkpt>
      <trkpt lat="41.0857780" lon="0.5032180">
        <ele>255.3</ele>
        <time>2020-08-06T10:23:25Z</time>
      </trkpt>
      <trkpt lat="41.0857740" lon="0.5031950">
        <ele>255.4</ele>
        <time>2020-08-06T10:23:26Z</time>
      </trkpt>
      <trkpt lat="41.0857650" lon="0.5031200">
        <ele>255.5</ele>
        <time>2020-08-06T10:23:28Z</time>
      </trkpt>
      <trkpt lat="41.0857580" lon="0.5030690">
        <ele>255.5</ele>
        <time>2020-08-06T10:23:29Z</time>
      </trkpt>
      <trkpt lat="41.0857480" lon="0.5029860">
        <ele>255.7</ele>
        <time>2020-08-06T10:23:31Z</time>
      </trkpt>
      <trkpt lat="41.0857350" lon="0.5028850">
        <ele>255.8</ele>
        <time>2020-08-06T10:23:33Z</time>
      </trkpt>
      <trkpt lat="41.0857300" lon="0.5028450">
        <ele>255.9</ele>
        <time>2020-08-06T10:23:34Z</time>
      </trkpt>
      <trkpt lat="41.0857240" lon="0.5027960">
        <ele>255.9</ele>
        <time>2020-08-06T10:23:35Z</time>
      </trkpt>
      <trkpt lat="41.0857170" lon="0.5027440">
        <ele>256.0</ele>
        <time>2020-08-06T10:23:36Z</time>
      </trkpt>
      <trkpt lat="41.0857100" lon="0.5026940">
        <ele>256.0</ele>
        <time>2020-08-06T10:23:37Z</time>
      </trkpt>
      <trkpt lat="41.0856990" lon="0.5026050">
        <ele>256.1</ele>
        <time>2020-08-06T10:23:39Z</time>
      </trkpt>
      <trkpt lat="41.0856930" lon="0.5025520">
        <ele>256.2</ele>
        <time>2020-08-06T10:23:40Z</time>
      </trkpt>
      <trkpt lat="41.0856840" lon="0.5024590">
        <ele>256.4</ele>
        <time>2020-08-06T10:23:42Z</time>
      </trkpt>
      <trkpt lat="41.0856790" lon="0.5024130">
        <ele>256.4</ele>
        <time>2020-08-06T10:23:43Z</time>
      </trkpt>
      <trkpt lat="41.0856690" lon="0.5023100">
        <ele>256.5</ele>
        <time>2020-08-06T10:23:45Z</time>
      </trkpt>
      <trkpt lat="41.0856640" lon="0.5022610">
        <ele>256.5</ele>
        <time>2020-08-06T10:23:46Z</time>
      </trkpt>
      <trkpt lat="41.0856590" lon="0.5022190">
        <ele>256.6</ele>
        <time>2020-08-06T10:23:47Z</time>
      </trkpt>
      <trkpt lat="41.0856490" lon="0.5021260">
        <ele>256.7</ele>
        <time>2020-08-06T10:23:49Z</time>
      </trkpt>
      <trkpt lat="41.0856450" lon="0.5020700">
        <ele>256.7</ele>
        <time>2020-08-06T10:23:50Z</time>
      </trkpt>
      <trkpt lat="41.0856410" lon="0.5020160">
        <ele>256.8</ele>
        <time>2020-08-06T10:23:51Z</time>
      </trkpt>
      <trkpt lat="41.0856360" lon="0.5019290">
        <ele>256.9</ele>
        <time>2020-08-06T10:23:53Z</time>
      </trkpt>
      <trkpt lat="41.0856290" lon="0.5018300">
        <ele>257.0</ele>
        <time>2020-08-06T10:23:55Z</time>
      </trkpt>
      <trkpt lat="41.0856260" lon="0.5017870">
        <ele>257.1</ele>
        <time>2020-08-06T10:23:56Z</time>
      </trkpt>
      <trkpt lat="41.0856210" lon="0.5017380">
        <ele>257.1</ele>
        <time>2020-08-06T10:23:57Z</time>
      </trkpt>
      <trkpt lat="41.0856090" lon="0.5016320">
        <ele>257.2</ele>
        <time>2020-08-06T10:23:59Z</time>
      </trkpt>
      <trkpt lat="41.0855940" lon="0.5015340">
        <ele>257.3</ele>
        <time>2020-08-06T10:24:01Z</time>
      </trkpt>
      <trkpt lat="41.0855870" lon="0.5014890">
        <ele>257.4</ele>
        <time>2020-08-06T10:24:02Z</time>
      </trkpt>
      <trkpt lat="41.0855810" lon="0.5014460">
        <ele>257.4</ele>
        <time>2020-08-06T10:24:03Z</time>
      </trkpt>
      <trkpt lat="41.0855740" lon="0.5013970">
        <ele>257.5</ele>
        <time>2020-08-06T10:24:04Z</time>
      </trkpt>
      <trkpt lat="41.0855660" lon="0.5013060">
        <ele>257.6</ele>
        <time>2020-08-06T10:24:06Z</time>
      </trkpt>
      <trkpt lat="41.0855560" lon="0.5012070">
        <ele>257.7</ele>
        <time>2020-08-06T10:24:08Z</time>
      </trkpt>
      <trkpt lat="41.0855510" lon="0.5011590">
        <ele>257.7</ele>
        <time>2020-08-06T10:24:09Z</time>
      </trkpt>
      <trkpt lat="41.0855400" lon="0.5010630">
        <ele>257.9</ele>
        <time>2020-08-06T10:24:11Z</time>
      </trkpt>
      <trkpt lat="41.0855350" lon="0.5010050">
        <ele>257.9</ele>
        <time>2020-08-06T10:24:12Z</time>
      </trkpt>
      <trkpt lat="41.0855320" lon="0.5009790">
        <ele>258.0</ele>
        <time>2020-08-06T10:24:13Z</time>
      </trkpt>
      <trkpt lat="41.0855270" lon="0.5009290">
        <ele>258.0</ele>
        <time>2020-08-06T10:24:14Z</time>
      </trkpt>
      <trkpt lat="41.0855190" lon="0.5008370">
        <ele>258.1</ele>
        <time>2020-08-06T10:24:16Z</time>
      </trkpt>
      <trkpt lat="41.0855150" lon="0.5007900">
        <ele>258.2</ele>
        <time>2020-08-06T10:24:17Z</time>
      </trkpt>
      <trkpt lat="41.0855100" lon="0.5007420">
        <ele>258.2</ele>
        <time>2020-08-06T10:24:18Z</time>
      </trkpt>
      <trkpt lat="41.0854980" lon="0.5006440">
        <ele>258.3</ele>
        <time>2020-08-06T10:24:20Z</time>
      </trkpt>
      <trkpt lat="41.0854840" lon="0.5005510">
        <ele>258.4</ele>
        <time>2020-08-06T10:24:22Z</time>
      </trkpt>
      <trkpt lat="41.0854750" lon="0.5004630">
        <ele>258.5</ele>
        <time>2020-08-06T10:24:24Z</time>
      </trkpt>
      <trkpt lat="41.0854690" lon="0.5004100">
        <ele>258.6</ele>
        <time>2020-08-06T10:24:25Z</time>
      </trkpt>
      <trkpt lat="41.0854580" lon="0.5003150">
        <ele>258.7</ele>
        <time>2020-08-06T10:24:27Z</time>
      </trkpt>
      <trkpt lat="41.0854510" lon="0.5002110">
        <ele>258.8</ele>
        <time>2020-08-06T10:24:29Z</time>
      </trkpt>
      <trkpt lat="41.0854460" lon="0.5001300">
        <ele>258.9</ele>
        <time>2020-08-06T10:24:31Z</time>
      </trkpt>
      <trkpt lat="41.0854370" lon="0.5000340">
        <ele>259.0</ele>
        <time>2020-08-06T10:24:33Z</time>
      </trkpt>
      <trkpt lat="41.0854260" lon="0.4999360">
        <ele>259.2</ele>
        <time>2020-08-06T10:24:35Z</time>
      </trkpt>
      <trkpt lat="41.0854160" lon="0.4998360">
        <ele>259.3</ele>
        <time>2020-08-06T10:24:37Z</time>
      </trkpt>
      <trkpt lat="41.0854130" lon="0.4997980">
        <ele>259.3</ele>
        <time>2020-08-06T10:24:38Z</time>
      </trkpt>
      <trkpt lat="41.0854080" lon="0.4997510">
        <ele>259.4</ele>
        <time>2020-08-06T10:24:39Z</time>
      </trkpt>
      <trkpt lat="41.0853960" lon="0.4996530">
        <ele>259.5</ele>
        <time>2020-08-06T10:24:41Z</time>
      </trkpt>
      <trkpt lat="41.0853860" lon="0.4995650">
        <ele>259.5</ele>
        <time>2020-08-06T10:24:43Z</time>
      </trkpt>
      <trkpt lat="41.0853810" lon="0.4995130">
        <ele>259.6</ele>
        <time>2020-08-06T10:24:44Z</time>
      </trkpt>
      <trkpt lat="41.0853760" lon="0.4994600">
        <ele>259.7</ele>
        <time>2020-08-06T10:24:45Z</time>
      </trkpt>
      <trkpt lat="41.0853680" lon="0.4993650">
        <ele>259.7</ele>
        <time>2020-08-06T10:24:47Z</time>
      </trkpt>
      <trkpt lat="41.0853630" lon="0.4993160">
        <ele>259.8</ele>
        <time>2020-08-06T10:24:48Z</time>
      </trkpt>
      <trkpt lat="41.0853530" lon="0.4992320">
        <ele>259.9</ele>
        <time>2020-08-06T10:24:50Z</time>
      </trkpt>
      <trkpt lat="41.0853460" lon="0.4991790">
        <ele>260.0</ele>
        <time>2020-08-06T10:24:51Z</time>
      </trkpt>
      <trkpt lat="41.0853400" lon="0.4991380">
        <ele>260.1</ele>
        <time>2020-08-06T10:24:52Z</time>
      </trkpt>
      <trkpt lat="41.0853290" lon="0.4990440">
        <ele>260.2</ele>
        <time>2020-08-06T10:24:54Z</time>
      </trkpt>
      <trkpt lat="41.0853220" lon="0.4989920">
        <ele>260.3</ele>
        <time>2020-08-06T10:24:55Z</time>
      </trkpt>
      <trkpt lat="41.0853060" lon="0.4988960">
        <ele>260.4</ele>
        <time>2020-08-06T10:24:57Z</time>
      </trkpt>
      <trkpt lat="41.0852980" lon="0.4988540">
        <ele>260.4</ele>
        <time>2020-08-06T10:24:58Z</time>
      </trkpt>
      <trkpt lat="41.0852840" lon="0.4987570">
        <ele>260.5</ele>
        <time>2020-08-06T10:25:00Z</time>
      </trkpt>
      <trkpt lat="41.0852800" lon="0.4987160">
        <ele>260.6</ele>
        <time>2020-08-06T10:25:01Z</time>
      </trkpt>
      <trkpt lat="41.0852700" lon="0.4986220">
        <ele>260.7</ele>
        <time>2020-08-06T10:25:03Z</time>
      </trkpt>
      <trkpt lat="41.0852590" lon="0.4985310">
        <ele>260.8</ele>
        <time>2020-08-06T10:25:05Z</time>
      </trkpt>
      <trkpt lat="41.0852530" lon="0.4984930">
        <ele>260.9</ele>
        <time>2020-08-06T10:25:06Z</time>
      </trkpt>
      <trkpt lat="41.0852460" lon="0.4984440">
        <ele>260.9</ele>
        <time>2020-08-06T10:25:07Z</time>
      </trkpt>
      <trkpt lat="41.0852390" lon="0.4984020">
        <ele>261.0</ele>
        <time>2020-08-06T10:25:08Z</time>
      </trkpt>
      <trkpt lat="41.0852330" lon="0.4983540">
        <ele>261.1</ele>
        <time>2020-08-06T10:25:09Z</time>
      </trkpt>
      <trkpt lat="41.0852210" lon="0.4982670">
        <ele>261.2</ele>
        <time>2020-08-06T10:25:11Z</time>
      </trkpt>
      <trkpt lat="41.0852130" lon="0.4982140">
        <ele>261.3</ele>
        <time>2020-08-06T10:25:12Z</time>
      </trkpt>
      <trkpt lat="41.0852050" lon="0.4981640">
        <ele>261.4</ele>
        <time>2020-08-06T10:25:13Z</time>
      </trkpt>
      <trkpt lat="41.0852000" lon="0.4981270">
        <ele>261.5</ele>
        <time>2020-08-06T10:25:14Z</time>
      </trkpt>
      <trkpt lat="41.0851830" lon="0.4980200">
        <ele>261.6</ele>
        <time>2020-08-06T10:25:16Z</time>
      </trkpt>
      <trkpt lat="41.0851770" lon="0.4979770">
        <ele>261.7</ele>
        <time>2020-08-06T10:25:17Z</time>
      </trkpt>
      <trkpt lat="41.0851680" lon="0.4978770">
        <ele>261.8</ele>
        <time>2020-08-06T10:25:19Z</time>
      </trkpt>
      <trkpt lat="41.0851650" lon="0.4978300">
        <ele>261.9</ele>
        <time>2020-08-06T10:25:20Z</time>
      </trkpt>
      <trkpt lat="41.0851600" lon="0.4977770">
        <ele>262.0</ele>
        <time>2020-08-06T10:25:21Z</time>
      </trkpt>
      <trkpt lat="41.0851560" lon="0.4977260">
        <ele>262.0</ele>
        <time>2020-08-06T10:25:22Z</time>
      </trkpt>
      <trkpt lat="41.0851510" lon="0.4976720">
        <ele>262.1</ele>
        <time>2020-08-06T10:25:23Z</time>
      </trkpt>
      <trkpt lat="41.0851410" lon="0.4975690">
        <ele>262.2</ele>
        <time>2020-08-06T10:25:25Z</time>
      </trkpt>
      <trkpt lat="41.0851350" lon="0.4975220">
        <ele>262.3</ele>
        <time>2020-08-06T10:25:26Z</time>
      </trkpt>
      <trkpt lat="41.0851220" lon="0.4974240">
        <ele>262.5</ele>
        <time>2020-08-06T10:25:28Z</time>
      </trkpt>
      <trkpt lat="41.0851160" lon="0.4973780">
        <ele>262.5</ele>
        <time>2020-08-06T10:25:29Z</time>
      </trkpt>
      <trkpt lat="41.0851080" lon="0.4972940">
        <ele>262.7</ele>
        <time>2020-08-06T10:25:31Z</time>
      </trkpt>
      <trkpt lat="41.0851030" lon="0.4972460">
        <ele>262.7</ele>
        <time>2020-08-06T10:25:32Z</time>
      </trkpt>
      <trkpt lat="41.0850970" lon="0.4971970">
        <ele>262.8</ele>
        <time>2020-08-06T10:25:33Z</time>
      </trkpt>
      <trkpt lat="41.0850900" lon="0.4971500">
        <ele>262.9</ele>
        <time>2020-08-06T10:25:34Z</time>
      </trkpt>
      <trkpt lat="41.0850750" lon="0.4970700">
        <ele>263.0</ele>
        <time>2020-08-06T10:25:36Z</time>
      </trkpt>
      <trkpt lat="41.0850690" lon="0.4970340">
        <ele>263.0</ele>
        <time>2020-08-06T10:25:37Z</time>
      </trkpt>
      <trkpt lat="41.0850630" lon="0.4969920">
        <ele>263.1</ele>
        <time>2020-08-06T10:25:38Z</time>
      </trkpt>
      <trkpt lat="41.0850580" lon="0.4969450">
        <ele>263.2</ele>
        <time>2020-08-06T10:25:39Z</time>
      </trkpt>
      <trkpt lat="41.0850520" lon="0.4968930">
        <ele>263.3</ele>
        <time>2020-08-06T10:25:40Z</time>
      </trkpt>
      <trkpt lat="41.0850400" lon="0.4968000">
        <ele>263.4</ele>
        <time>2020-08-06T10:25:42Z</time>
      </trkpt>
      <trkpt lat="41.0850280" lon="0.4967040">
        <ele>263.6</ele>
        <time>2020-08-06T10:25:44Z</time>
      </trkpt>
      <trkpt lat="41.0850210" lon="0.4966240">
        <ele>263.7</ele>
        <time>2020-08-06T10:25:46Z</time>
      </trkpt>
      <trkpt lat="41.0850100" lon="0.4965370">
        <ele>263.8</ele>
        <time>2020-08-06T10:25:48Z</time>
      </trkpt>
      <trkpt lat="41.0849980" lon="0.4964450">
        <ele>263.9</ele>
        <time>2020-08-06T10:25:50Z</time>
      </trkpt>
      <trkpt lat="41.0849910" lon="0.4963650">
        <ele>264.0</ele>
        <time>2020-08-06T10:25:52Z</time>
      </trkpt>
      <trkpt lat="41.0849850" lon="0.4963150">
        <ele>264.0</ele>
        <time>2020-08-06T10:25:53Z</time>
      </trkpt>
      <trkpt lat="41.0849730" lon="0.4962230">
        <ele>264.1</ele>
        <time>2020-08-06T10:25:55Z</time>
      </trkpt>
      <trkpt lat="41.0849670" lon="0.4961740">
        <ele>264.2</ele>
        <time>2020-08-06T10:25:56Z</time>
      </trkpt>
      <trkpt lat="41.0849630" lon="0.4961290">
        <ele>264.3</ele>
        <time>2020-08-06T10:25:57Z</time>
      </trkpt>
      <trkpt lat="41.0849590" lon="0.4960860">
        <ele>264.3</ele>
        <time>2020-08-06T10:25:58Z</time>
      </trkpt>
      <trkpt lat="41.0849550" lon="0.4960420">
        <ele>264.4</ele>
        <time>2020-08-06T10:25:59Z</time>
      </trkpt>
      <trkpt lat="41.0849450" lon="0.4959600">
        <ele>264.5</ele>
        <time>2020-08-06T10:26:01Z</time>
      </trkpt>
      <trkpt lat="41.0849310" lon="0.4958560">
        <ele>264.6</ele>
        <time>2020-08-06T10:26:03Z</time>
      </trkpt>
      <trkpt lat="41.0849280" lon="0.4958200">
        <ele>264.7</ele>
        <time>2020-08-06T10:26:04Z</time>
      </trkpt>
      <trkpt lat="41.0849230" lon="0.4957660">
        <ele>264.8</ele>
        <time>2020-08-06T10:26:05Z</time>
      </trkpt>
      <trkpt lat="41.0849120" lon="0.4956660">
        <ele>264.9</ele>
        <time>2020-08-06T10:26:07Z</time>
      </trkpt>
      <trkpt lat="41.0849040" lon="0.4956160">
        <ele>265.0</ele>
        <time>2020-08-06T10:26:08Z</time>
      </trkpt>
      <trkpt lat="41.0848960" lon="0.4955690">
        <ele>265.0</ele>
        <time>2020-08-06T10:26:09Z</time>
      </trkpt>
      <trkpt lat="41.0848860" lon="0.4954870">
        <ele>265.1</ele>
        <time>2020-08-06T10:26:11Z</time>
      </trkpt>
      <trkpt lat="41.0848830" lon="0.4954480">
        <ele>265.1</ele>
        <time>2020-08-06T10:26:12Z</time>
      </trkpt>
      <trkpt lat="41.0848780" lon="0.4954010">
        <ele>265.2</ele>
        <time>2020-08-06T10:26:13Z</time>
      </trkpt>
      <trkpt lat="41.0848660" lon="0.4953110">
        <ele>265.3</ele>
        <time>2020-08-06T10:26:15Z</time>
      </trkpt>
      <trkpt lat="41.0848550" lon="0.4952230">
        <ele>265.4</ele>
        <time>2020-08-06T10:26:17Z</time>
      </trkpt>
      <trkpt lat="41.0848490" lon="0.4951770">
        <ele>265.4</ele>
        <time>2020-08-06T10:26:18Z</time>
      </trkpt>
      <trkpt lat="41.0848380" lon="0.4950950">
        <ele>265.6</ele>
        <time>2020-08-06T10:26:20Z</time>
      </trkpt>
      <trkpt lat="41.0848310" lon="0.4950440">
        <ele>265.7</ele>
        <time>2020-08-06T10:26:21Z</time>
      </trkpt>
      <trkpt lat="41.0848190" lon="0.4949500">
        <ele>265.8</ele>
        <time>2020-08-06T10:26:23Z</time>
      </trkpt>
      <trkpt lat="41.0848110" lon="0.4948580">
        <ele>265.9</ele>
        <time>2020-08-06T10:26:25Z</time>
      </trkpt>
      <trkpt lat="41.0848060" lon="0.4948130">
        <ele>266.0</ele>
        <time>2020-08-06T10:26:26Z</time>
      </trkpt>
      <trkpt lat="41.0847890" lon="0.4947170">
        <ele>266.1</ele>
        <time>2020-08-06T10:26:28Z</time>
      </trkpt>
      <trkpt lat="41.0847800" lon="0.4946720">
        <ele>266.1</ele>
        <time>2020-08-06T10:26:29Z</time>
      </trkpt>
      <trkpt lat="41.0847740" lon="0.4946240">
        <ele>266.2</ele>
        <time>2020-08-06T10:26:30Z</time>
      </trkpt>
      <trkpt lat="41.0847690" lon="0.4945770">
        <ele>266.2</ele>
        <time>2020-08-06T10:26:31Z</time>
      </trkpt>
      <trkpt lat="41.0847660" lon="0.4945360">
        <ele>266.3</ele>
        <time>2020-08-06T10:26:32Z</time>
      </trkpt>
      <trkpt lat="41.0847620" lon="0.4944930">
        <ele>266.4</ele>
        <time>2020-08-06T10:26:33Z</time>
      </trkpt>
      <trkpt lat="41.0847560" lon="0.4944430">
        <ele>266.4</ele>
        <time>2020-08-06T10:26:34Z</time>
      </trkpt>
      <trkpt lat="41.0847440" lon="0.4943400">
        <ele>266.5</ele>
        <time>2020-08-06T10:26:36Z</time>
      </trkpt>
      <trkpt lat="41.0847380" lon="0.4942900">
        <ele>266.5</ele>
        <time>2020-08-06T10:26:37Z</time>
      </trkpt>
      <trkpt lat="41.0847330" lon="0.4942400">
        <ele>266.6</ele>
        <time>2020-08-06T10:26:38Z</time>
      </trkpt>
      <trkpt lat="41.0847300" lon="0.4942010">
        <ele>266.6</ele>
        <time>2020-08-06T10:26:39Z</time>
      </trkpt>
      <trkpt lat="41.0847260" lon="0.4941500">
        <ele>266.7</ele>
        <time>2020-08-06T10:26:40Z</time>
      </trkpt>
      <trkpt lat="41.0847230" lon="0.4941000">
        <ele>266.7</ele>
        <time>2020-08-06T10:26:41Z</time>
      </trkpt>
      <trkpt lat="41.0847180" lon="0.4940110">
        <ele>266.8</ele>
        <time>2020-08-06T10:26:43Z</time>
      </trkpt>
      <trkpt lat="41.0847130" lon="0.4939590">
        <ele>266.9</ele>
        <time>2020-08-06T10:26:44Z</time>
      </trkpt>
      <trkpt lat="41.0847060" lon="0.4939060">
        <ele>267.0</ele>
        <time>2020-08-06T10:26:45Z</time>
      </trkpt>
      <trkpt lat="41.0846920" lon="0.4938010">
        <ele>267.1</ele>
        <time>2020-08-06T10:26:47Z</time>
      </trkpt>
      <trkpt lat="41.0846860" lon="0.4937500">
        <ele>267.2</ele>
        <time>2020-08-06T10:26:48Z</time>
      </trkpt>
      <trkpt lat="41.0846800" lon="0.4936970">
        <ele>267.2</ele>
        <time>2020-08-06T10:26:49Z</time>
      </trkpt>
      <trkpt lat="41.0846690" lon="0.4936000">
        <ele>267.4</ele>
        <time>2020-08-06T10:26:51Z</time>
      </trkpt>
      <trkpt lat="41.0846660" lon="0.4935530">
        <ele>267.4</ele>
        <time>2020-08-06T10:26:52Z</time>
      </trkpt>
      <trkpt lat="41.0846570" lon="0.4934580">
        <ele>267.5</ele>
        <time>2020-08-06T10:26:54Z</time>
      </trkpt>
      <trkpt lat="41.0846510" lon="0.4934050">
        <ele>267.5</ele>
        <time>2020-08-06T10:26:55Z</time>
      </trkpt>
      <trkpt lat="41.0846450" lon="0.4933510">
        <ele>267.5</ele>
        <time>2020-08-06T10:26:56Z</time>
      </trkpt>
      <trkpt lat="41.0846360" lon="0.4932640">
        <ele>267.6</ele>
        <time>2020-08-06T10:26:58Z</time>
      </trkpt>
      <trkpt lat="41.0846310" lon="0.4932170">
        <ele>267.6</ele>
        <time>2020-08-06T10:26:59Z</time>
      </trkpt>
      <trkpt lat="41.0846250" lon="0.4931720">
        <ele>267.7</ele>
        <time>2020-08-06T10:27:00Z</time>
      </trkpt>
      <trkpt lat="41.0846180" lon="0.4931170">
        <ele>267.7</ele>
        <time>2020-08-06T10:27:01Z</time>
      </trkpt>
      <trkpt lat="41.0846120" lon="0.4930660">
        <ele>267.8</ele>
        <time>2020-08-06T10:27:02Z</time>
      </trkpt>
      <trkpt lat="41.0846030" lon="0.4929810">
        <ele>267.9</ele>
        <time>2020-08-06T10:27:04Z</time>
      </trkpt>
      <trkpt lat="41.0845980" lon="0.4929350">
        <ele>267.9</ele>
        <time>2020-08-06T10:27:05Z</time>
      </trkpt>
      <trkpt lat="41.0845920" lon="0.4928810">
        <ele>268.0</ele>
        <time>2020-08-06T10:27:06Z</time>
      </trkpt>
      <trkpt lat="41.0845810" lon="0.4927930">
        <ele>268.0</ele>
        <time>2020-08-06T10:27:08Z</time>
      </trkpt>
      <trkpt lat="41.0845710" lon="0.4927360">
        <ele>268.0</ele>
        <time>2020-08-06T10:27:09Z</time>
      </trkpt>
      <trkpt lat="41.0845540" lon="0.4926280">
        <ele>268.1</ele>
        <time>2020-08-06T10:27:11Z</time>
      </trkpt>
      <trkpt lat="41.0845480" lon="0.4925750">
        <ele>268.1</ele>
        <time>2020-08-06T10:27:12Z</time>
      </trkpt>
      <trkpt lat="41.0845370" lon="0.4924770">
        <ele>268.1</ele>
        <time>2020-08-06T10:27:14Z</time>
      </trkpt>
      <trkpt lat="41.0845320" lon="0.4924320">
        <ele>268.2</ele>
        <time>2020-08-06T10:27:15Z</time>
      </trkpt>
      <trkpt lat="41.0845250" lon="0.4923790">
        <ele>268.2</ele>
        <time>2020-08-06T10:27:16Z</time>
      </trkpt>
      <trkpt lat="41.0845190" lon="0.4923280">
        <ele>268.2</ele>
        <time>2020-08-06T10:27:17Z</time>
      </trkpt>
      <trkpt lat="41.0845040" lon="0.4922250">
        <ele>268.2</ele>
        <time>2020-08-06T10:27:19Z</time>
      </trkpt>
      <trkpt lat="41.0844950" lon="0.4921740">
        <ele>268.2</ele>
        <time>2020-08-06T10:27:20Z</time>
      </trkpt>
      <trkpt lat="41.0844880" lon="0.4921220">
        <ele>268.2</ele>
        <time>2020-08-06T10:27:21Z</time>
      </trkpt>
      <trkpt lat="41.0844810" lon="0.4920730">
        <ele>268.2</ele>
        <time>2020-08-06T10:27:22Z</time>
      </trkpt>
      <trkpt lat="41.0844670" lon="0.4919840">
        <ele>268.2</ele>
        <time>2020-08-06T10:27:24Z</time>
      </trkpt>
      <trkpt lat="41.0844570" lon="0.4919340">
        <ele>268.2</ele>
        <time>2020-08-06T10:27:25Z</time>
      </trkpt>
      <trkpt lat="41.0844460" lon="0.4918800">
        <ele>268.2</ele>
        <time>2020-08-06T10:27:26Z</time>
      </trkpt>
      <trkpt lat="41.0844360" lon="0.4918290">
        <ele>268.2</ele>
        <time>2020-08-06T10:27:27Z</time>
      </trkpt>
      <trkpt lat="41.0844170" lon="0.4917310">
        <ele>268.2</ele>
        <time>2020-08-06T10:27:29Z</time>
      </trkpt>
      <trkpt lat="41.0844060" lon="0.4916800">
        <ele>268.2</ele>
        <time>2020-08-06T10:27:30Z</time>
      </trkpt>
      <trkpt lat="41.0843850" lon="0.4915790">
        <ele>268.2</ele>
        <time>2020-08-06T10:27:32Z</time>
      </trkpt>
      <trkpt lat="41.0843760" lon="0.4915360">
        <ele>268.1</ele>
        <time>2020-08-06T10:27:33Z</time>
      </trkpt>
      <trkpt lat="41.0843520" lon="0.4914380">
        <ele>268.1</ele>
        <time>2020-08-06T10:27:35Z</time>
      </trkpt>
      <trkpt lat="41.0843260" lon="0.4913250">
        <ele>268.1</ele>
        <time>2020-08-06T10:27:37Z</time>
      </trkpt>
      <trkpt lat="41.0843000" lon="0.4912190">
        <ele>268.1</ele>
        <time>2020-08-06T10:27:39Z</time>
      </trkpt>
      <trkpt lat="41.0842740" lon="0.4911320">
        <ele>268.1</ele>
        <time>2020-08-06T10:27:41Z</time>
      </trkpt>
      <trkpt lat="41.0842570" lon="0.4910830">
        <ele>268.1</ele>
        <time>2020-08-06T10:27:42Z</time>
      </trkpt>
      <trkpt lat="41.0842400" lon="0.4910340">
        <ele>268.1</ele>
        <time>2020-08-06T10:27:43Z</time>
      </trkpt>
      <trkpt lat="41.0842230" lon="0.4909880">
        <ele>268.1</ele>
        <time>2020-08-06T10:27:44Z</time>
      </trkpt>
      <trkpt lat="41.0841900" lon="0.4908950">
        <ele>268.0</ele>
        <time>2020-08-06T10:27:46Z</time>
      </trkpt>
      <trkpt lat="41.0841730" lon="0.4908500">
        <ele>268.0</ele>
        <time>2020-08-06T10:27:47Z</time>
      </trkpt>
      <trkpt lat="41.0841600" lon="0.4908160">
        <ele>268.0</ele>
        <time>2020-08-06T10:27:48Z</time>
      </trkpt>
      <trkpt lat="41.0841220" lon="0.4907290">
        <ele>268.0</ele>
        <time>2020-08-06T10:27:50Z</time>
      </trkpt>
      <trkpt lat="41.0841030" lon="0.4906880">
        <ele>268.0</ele>
        <time>2020-08-06T10:27:51Z</time>
      </trkpt>
      <trkpt lat="41.0840610" lon="0.4905990">
        <ele>268.0</ele>
        <time>2020-08-06T10:27:53Z</time>
      </trkpt>
      <trkpt lat="41.0840190" lon="0.4905050">
        <ele>268.0</ele>
        <time>2020-08-06T10:27:55Z</time>
      </trkpt>
      <trkpt lat="41.0839990" lon="0.4904650">
        <ele>268.0</ele>
        <time>2020-08-06T10:27:56Z</time>
      </trkpt>
      <trkpt lat="41.0839770" lon="0.4904220">
        <ele>268.0</ele>
        <time>2020-08-06T10:27:57Z</time>
      </trkpt>
      <trkpt lat="41.0839550" lon="0.4903790">
        <ele>268.0</ele>
        <time>2020-08-06T10:27:58Z</time>
      </trkpt>
      <trkpt lat="41.0839340" lon="0.4903410">
        <ele>268.0</ele>
        <time>2020-08-06T10:27:59Z</time>
      </trkpt>
      <trkpt lat="41.0839160" lon="0.4903090">
        <ele>268.0</ele>
        <time>2020-08-06T10:28:00Z</time>
      </trkpt>
      <trkpt lat="41.0838940" lon="0.4902720">
        <ele>268.0</ele>
        <time>2020-08-06T10:28:01Z</time>
      </trkpt>
      <trkpt lat="41.0838430" lon="0.4901850">
        <ele>268.0</ele>
        <time>2020-08-06T10:28:03Z</time>
      </trkpt>
      <trkpt lat="41.0838190" lon="0.4901420">
        <ele>268.0</ele>
        <time>2020-08-06T10:28:04Z</time>
      </trkpt>
      <trkpt lat="41.0837740" lon="0.4900600">
        <ele>268.0</ele>
        <time>2020-08-06T10:28:06Z</time>
      </trkpt>
      <trkpt lat="41.0837340" lon="0.4899840">
        <ele>268.0</ele>
        <time>2020-08-06T10:28:08Z</time>
      </trkpt>
      <trkpt lat="41.0837110" lon="0.4899410">
        <ele>268.0</ele>
        <time>2020-08-06T10:28:09Z</time>
      </trkpt>
      <trkpt lat="41.0836890" lon="0.4898990">
        <ele>268.0</ele>
        <time>2020-08-06T10:28:10Z</time>
      </trkpt>
      <trkpt lat="41.0836430" lon="0.4898270">
        <ele>268.0</ele>
        <time>2020-08-06T10:28:12Z</time>
      </trkpt>
      <trkpt lat="41.0836180" lon="0.4897890">
        <ele>268.0</ele>
        <time>2020-08-06T10:28:13Z</time>
      </trkpt>
      <trkpt lat="41.0835980" lon="0.4897590">
        <ele>267.9</ele>
        <time>2020-08-06T10:28:14Z</time>
      </trkpt>
      <trkpt lat="41.0835770" lon="0.4897280">
        <ele>267.9</ele>
        <time>2020-08-06T10:28:15Z</time>
      </trkpt>
      <trkpt lat="41.0835500" lon="0.4896880">
        <ele>267.9</ele>
        <time>2020-08-06T10:28:16Z</time>
      </trkpt>
      <trkpt lat="41.0834930" lon="0.4896140">
        <ele>268.0</ele>
        <time>2020-08-06T10:28:18Z</time>
      </trkpt>
      <trkpt lat="41.0834650" lon="0.4895810">
        <ele>268.0</ele>
        <time>2020-08-06T10:28:19Z</time>
      </trkpt>
      <trkpt lat="41.0834140" lon="0.4895210">
        <ele>268.1</ele>
        <time>2020-08-06T10:28:21Z</time>
      </trkpt>
      <trkpt lat="41.0833480" lon="0.4894450">
        <ele>268.1</ele>
        <time>2020-08-06T10:28:23Z</time>
      </trkpt>
      <trkpt lat="41.0833170" lon="0.4894110">
        <ele>268.1</ele>
        <time>2020-08-06T10:28:24Z</time>
      </trkpt>
      <trkpt lat="41.0832880" lon="0.4893800">
        <ele>268.0</ele>
        <time>2020-08-06T10:28:25Z</time>
      </trkpt>
      <trkpt lat="41.0832330" lon="0.4893200">
        <ele>268.1</ele>
        <time>2020-08-06T10:28:27Z</time>
      </trkpt>
      <trkpt lat="41.0832040" lon="0.4892870">
        <ele>268.1</ele>
        <time>2020-08-06T10:28:28Z</time>
      </trkpt>
      <trkpt lat="41.0831480" lon="0.4892230">
        <ele>268.2</ele>
        <time>2020-08-06T10:28:30Z</time>
      </trkpt>
      <trkpt lat="41.0831030" lon="0.4891680">
        <ele>268.2</ele>
        <time>2020-08-06T10:28:32Z</time>
      </trkpt>
      <trkpt lat="41.0830460" lon="0.4891060">
        <ele>268.3</ele>
        <time>2020-08-06T10:28:34Z</time>
      </trkpt>
      <trkpt lat="41.0830120" lon="0.4890700">
        <ele>268.3</ele>
        <time>2020-08-06T10:28:35Z</time>
      </trkpt>
      <trkpt lat="41.0829810" lon="0.4890380">
        <ele>268.4</ele>
        <time>2020-08-06T10:28:36Z</time>
      </trkpt>
      <trkpt lat="41.0829510" lon="0.4890060">
        <ele>268.4</ele>
        <time>2020-08-06T10:28:37Z</time>
      </trkpt>
      <trkpt lat="41.0829000" lon="0.4889510">
        <ele>268.5</ele>
        <time>2020-08-06T10:28:39Z</time>
      </trkpt>
      <trkpt lat="41.0828680" lon="0.4889150">
        <ele>268.5</ele>
        <time>2020-08-06T10:28:40Z</time>
      </trkpt>
      <trkpt lat="41.0828380" lon="0.4888830">
        <ele>268.4</ele>
        <time>2020-08-06T10:28:41Z</time>
      </trkpt>
      <trkpt lat="41.0828050" lon="0.4888500">
        <ele>268.3</ele>
        <time>2020-08-06T10:28:42Z</time>
      </trkpt>
      <trkpt lat="41.0827730" lon="0.4888190">
        <ele>268.3</ele>
        <time>2020-08-06T10:28:43Z</time>
      </trkpt>
      <trkpt lat="41.0827140" lon="0.4887580">
        <ele>268.2</ele>
        <time>2020-08-06T10:28:45Z</time>
      </trkpt>
      <trkpt lat="41.0826880" lon="0.4887290">
        <ele>268.1</ele>
        <time>2020-08-06T10:28:46Z</time>
      </trkpt>
      <trkpt lat="41.0826260" lon="0.4886680">
        <ele>268.1</ele>
        <time>2020-08-06T10:28:48Z</time>
      </trkpt>
      <trkpt lat="41.0825880" lon="0.4886310">
        <ele>268.1</ele>
        <time>2020-08-06T10:28:49Z</time>
      </trkpt>
      <trkpt lat="41.0825270" lon="0.4885680">
        <ele>268.1</ele>
        <time>2020-08-06T10:28:51Z</time>
      </trkpt>
      <trkpt lat="41.0824640" lon="0.4884980">
        <ele>268.1</ele>
        <time>2020-08-06T10:28:53Z</time>
      </trkpt>
      <trkpt lat="41.0823980" lon="0.4884300">
        <ele>268.2</ele>
        <time>2020-08-06T10:28:55Z</time>
      </trkpt>
      <trkpt lat="41.0823660" lon="0.4883970">
        <ele>268.2</ele>
        <time>2020-08-06T10:28:56Z</time>
      </trkpt>
      <trkpt lat="41.0822960" lon="0.4883240">
        <ele>268.2</ele>
        <time>2020-08-06T10:28:58Z</time>
      </trkpt>
      <trkpt lat="41.0822590" lon="0.4882860">
        <ele>268.3</ele>
        <time>2020-08-06T10:28:59Z</time>
      </trkpt>
      <trkpt lat="41.0821960" lon="0.4882270">
        <ele>268.3</ele>
        <time>2020-08-06T10:29:01Z</time>
      </trkpt>
      <trkpt lat="41.0821630" lon="0.4881950">
        <ele>268.3</ele>
        <time>2020-08-06T10:29:02Z</time>
      </trkpt>
      <trkpt lat="41.0821320" lon="0.4881660">
        <ele>268.3</ele>
        <time>2020-08-06T10:29:03Z</time>
      </trkpt>
      <trkpt lat="41.0821050" lon="0.4881390">
        <ele>268.3</ele>
        <time>2020-08-06T10:29:04Z</time>
      </trkpt>
      <trkpt lat="41.0820500" lon="0.4880870">
        <ele>268.3</ele>
        <time>2020-08-06T10:29:06Z</time>
      </trkpt>
      <trkpt lat="41.0820200" lon="0.4880580">
        <ele>268.3</ele>
        <time>2020-08-06T10:29:07Z</time>
      </trkpt>
      <trkpt lat="41.0819910" lon="0.4880300">
        <ele>268.3</ele>
        <time>2020-08-06T10:29:08Z</time>
      </trkpt>
      <trkpt lat="41.0819390" lon="0.4879780">
        <ele>268.3</ele>
        <time>2020-08-06T10:29:10Z</time>
      </trkpt>
      <trkpt lat="41.0818710" lon="0.4879090">
        <ele>268.3</ele>
        <time>2020-08-06T10:29:12Z</time>
      </trkpt>
      <trkpt lat="41.0818150" lon="0.4878410">
        <ele>268.3</ele>
        <time>2020-08-06T10:29:14Z</time>
      </trkpt>
      <trkpt lat="41.0817850" lon="0.4878050">
        <ele>268.3</ele>
        <time>2020-08-06T10:29:15Z</time>
      </trkpt>
      <trkpt lat="41.0817260" lon="0.4877330">
        <ele>268.4</ele>
        <time>2020-08-06T10:29:17Z</time>
      </trkpt>
      <trkpt lat="41.0816970" lon="0.4876960">
        <ele>268.4</ele>
        <time>2020-08-06T10:29:18Z</time>
      </trkpt>
      <trkpt lat="41.0816680" lon="0.4876590">
        <ele>268.4</ele>
        <time>2020-08-06T10:29:19Z</time>
      </trkpt>
      <trkpt lat="41.0816440" lon="0.4876270">
        <ele>268.4</ele>
        <time>2020-08-06T10:29:20Z</time>
      </trkpt>
      <trkpt lat="41.0815930" lon="0.4875620">
        <ele>268.4</ele>
        <time>2020-08-06T10:29:22Z</time>
      </trkpt>
      <trkpt lat="41.0815420" lon="0.4874960">
        <ele>268.4</ele>
        <time>2020-08-06T10:29:24Z</time>
      </trkpt>
      <trkpt lat="41.0814920" lon="0.4874320">
        <ele>268.5</ele>
        <time>2020-08-06T10:29:26Z</time>
      </trkpt>
      <trkpt lat="41.0814610" lon="0.4873890">
        <ele>268.6</ele>
        <time>2020-08-06T10:29:27Z</time>
      </trkpt>
      <trkpt lat="41.0814470" lon="0.4873720">
        <ele>268.6</ele>
        <time>2020-08-06T10:29:28Z</time>
      </trkpt>
      <trkpt lat="41.0814210" lon="0.4873370">
        <ele>268.7</ele>
        <time>2020-08-06T10:29:29Z</time>
      </trkpt>
      <trkpt lat="41.0813990" lon="0.4873080">
        <ele>268.7</ele>
        <time>2020-08-06T10:29:30Z</time>
      </trkpt>
      <trkpt lat="41.0813800" lon="0.4872820">
        <ele>268.8</ele>
        <time>2020-08-06T10:29:31Z</time>
      </trkpt>
      <trkpt lat="41.0813340" lon="0.4872150">
        <ele>268.9</ele>
        <time>2020-08-06T10:29:33Z</time>
      </trkpt>
      <trkpt lat="41.0812840" lon="0.4871370">
        <ele>269.0</ele>
        <time>2020-08-06T10:29:35Z</time>
      </trkpt>
      <trkpt lat="41.0812660" lon="0.4871080">
        <ele>269.0</ele>
        <time>2020-08-06T10:29:36Z</time>
      </trkpt>
      <trkpt lat="41.0812250" lon="0.4870400">
        <ele>269.2</ele>
        <time>2020-08-06T10:29:38Z</time>
      </trkpt>
      <trkpt lat="41.0812020" lon="0.4869990">
        <ele>269.3</ele>
        <time>2020-08-06T10:29:39Z</time>
      </trkpt>
      <trkpt lat="41.0811570" lon="0.4869200">
        <ele>269.5</ele>
        <time>2020-08-06T10:29:41Z</time>
      </trkpt>
      <trkpt lat="41.0811160" lon="0.4868410">
        <ele>269.6</ele>
        <time>2020-08-06T10:29:43Z</time>
      </trkpt>
      <trkpt lat="41.0810940" lon="0.4868040">
        <ele>269.7</ele>
        <time>2020-08-06T10:29:44Z</time>
      </trkpt>
      <trkpt lat="41.0810800" lon="0.4867800">
        <ele>269.7</ele>
        <time>2020-08-06T10:29:45Z</time>
      </trkpt>
      <trkpt lat="41.0810430" lon="0.4867070">
        <ele>269.9</ele>
        <time>2020-08-06T10:29:47Z</time>
      </trkpt>
      <trkpt lat="41.0810090" lon="0.4866360">
        <ele>270.0</ele>
        <time>2020-08-06T10:29:49Z</time>
      </trkpt>
      <trkpt lat="41.0809750" lon="0.4865690">
        <ele>270.2</ele>
        <time>2020-08-06T10:29:51Z</time>
      </trkpt>
      <trkpt lat="41.0809580" lon="0.4865310">
        <ele>270.3</ele>
        <time>2020-08-06T10:29:52Z</time>
      </trkpt>
      <trkpt lat="41.0809400" lon="0.4864860">
        <ele>270.4</ele>
        <time>2020-08-06T10:29:53Z</time>
      </trkpt>
      <trkpt lat="41.0809320" lon="0.4864690">
        <ele>270.5</ele>
        <time>2020-08-06T10:29:54Z</time>
      </trkpt>
      <trkpt lat="41.0809040" lon="0.4864020">
        <ele>270.6</ele>
        <time>2020-08-06T10:29:56Z</time>
      </trkpt>
      <trkpt lat="41.0808860" lon="0.4863570">
        <ele>270.8</ele>
        <time>2020-08-06T10:29:57Z</time>
      </trkpt>
      <trkpt lat="41.0808700" lon="0.4863130">
        <ele>270.9</ele>
        <time>2020-08-06T10:29:58Z</time>
      </trkpt>
      <trkpt lat="41.0808540" lon="0.4862690">
        <ele>271.0</ele>
        <time>2020-08-06T10:29:59Z</time>
      </trkpt>
      <trkpt lat="41.0808240" lon="0.4861880">
        <ele>271.2</ele>
        <time>2020-08-06T10:30:01Z</time>
      </trkpt>
      <trkpt lat="41.0807910" lon="0.4861140">
        <ele>271.4</ele>
        <time>2020-08-06T10:30:03Z</time>
      </trkpt>
      <trkpt lat="41.0807540" lon="0.4860310">
        <ele>271.6</ele>
        <time>2020-08-06T10:30:05Z</time>
      </trkpt>
      <trkpt lat="41.0807360" lon="0.4859920">
        <ele>271.7</ele>
        <time>2020-08-06T10:30:06Z</time>
      </trkpt>
      <trkpt lat="41.0807190" lon="0.4859530">
        <ele>271.8</ele>
        <time>2020-08-06T10:30:07Z</time>
      </trkpt>
      <trkpt lat="41.0807050" lon="0.4859190">
        <ele>271.9</ele>
        <time>2020-08-06T10:30:08Z</time>
      </trkpt>
      <trkpt lat="41.0806780" lon="0.4858510">
        <ele>272.1</ele>
        <time>2020-08-06T10:30:10Z</time>
      </trkpt>
      <trkpt lat="41.0806440" lon="0.4857730">
        <ele>272.3</ele>
        <time>2020-08-06T10:30:12Z</time>
      </trkpt>
      <trkpt lat="41.0806130" lon="0.4857040">
        <ele>272.5</ele>
        <time>2020-08-06T10:30:14Z</time>
      </trkpt>
      <trkpt lat="41.0805940" lon="0.4856630">
        <ele>272.7</ele>
        <time>2020-08-06T10:30:15Z</time>
      </trkpt>
      <trkpt lat="41.0805760" lon="0.4856220">
        <ele>272.8</ele>
        <time>2020-08-06T10:30:16Z</time>
      </trkpt>
      <trkpt lat="41.0805610" lon="0.4855860">
        <ele>272.9</ele>
        <time>2020-08-06T10:30:17Z</time>
      </trkpt>
      <trkpt lat="41.0805470" lon="0.4855480">
        <ele>273.0</ele>
        <time>2020-08-06T10:30:18Z</time>
      </trkpt>
      <trkpt lat="41.0805360" lon="0.4855180">
        <ele>273.1</ele>
        <time>2020-08-06T10:30:19Z</time>
      </trkpt>
      <trkpt lat="41.0805120" lon="0.4854490">
        <ele>273.4</ele>
        <time>2020-08-06T10:30:21Z</time>
      </trkpt>
      <trkpt lat="41.0804840" lon="0.4853710">
        <ele>273.7</ele>
        <time>2020-08-06T10:30:23Z</time>
      </trkpt>
      <trkpt lat="41.0804660" lon="0.4853300">
        <ele>273.8</ele>
        <time>2020-08-06T10:30:24Z</time>
      </trkpt>
      <trkpt lat="41.0804350" lon="0.4852570">
        <ele>274.1</ele>
        <time>2020-08-06T10:30:26Z</time>
      </trkpt>
      <trkpt lat="41.0804220" lon="0.4852240">
        <ele>274.2</ele>
        <time>2020-08-06T10:30:27Z</time>
      </trkpt>
      <trkpt lat="41.0804060" lon="0.4851870">
        <ele>274.3</ele>
        <time>2020-08-06T10:30:28Z</time>
      </trkpt>
      <trkpt lat="41.0803750" lon="0.4851140">
        <ele>274.6</ele>
        <time>2020-08-06T10:30:30Z</time>
      </trkpt>
      <trkpt lat="41.0803570" lon="0.4850740">
        <ele>274.7</ele>
        <time>2020-08-06T10:30:31Z</time>
      </trkpt>
      <trkpt lat="41.0803410" lon="0.4850370">
        <ele>274.8</ele>
        <time>2020-08-06T10:30:32Z</time>
      </trkpt>
      <trkpt lat="41.0803240" lon="0.4849970">
        <ele>275.0</ele>
        <time>2020-08-06T10:30:33Z</time>
      </trkpt>
      <trkpt lat="41.0802950" lon="0.4849250">
        <ele>275.2</ele>
        <time>2020-08-06T10:30:35Z</time>
      </trkpt>
      <trkpt lat="41.0802820" lon="0.4848890">
        <ele>275.3</ele>
        <time>2020-08-06T10:30:36Z</time>
      </trkpt>
      <trkpt lat="41.0802680" lon="0.4848520">
        <ele>275.3</ele>
        <time>2020-08-06T10:30:37Z</time>
      </trkpt>
      <trkpt lat="41.0802500" lon="0.4848060">
        <ele>275.4</ele>
        <time>2020-08-06T10:30:38Z</time>
      </trkpt>
      <trkpt lat="41.0802420" lon="0.4847870">
        <ele>275.4</ele>
        <time>2020-08-06T10:30:39Z</time>
      </trkpt>
      <trkpt lat="41.0802120" lon="0.4847140">
        <ele>275.5</ele>
        <time>2020-08-06T10:30:41Z</time>
      </trkpt>
      <trkpt lat="41.0802000" lon="0.4846800">
        <ele>275.6</ele>
        <time>2020-08-06T10:30:42Z</time>
      </trkpt>
      <trkpt lat="41.0801860" lon="0.4846420">
        <ele>275.7</ele>
        <time>2020-08-06T10:30:43Z</time>
      </trkpt>
      <trkpt lat="41.0801600" lon="0.4845720">
        <ele>275.9</ele>
        <time>2020-08-06T10:30:45Z</time>
      </trkpt>
      <trkpt lat="41.0801470" lon="0.4845420">
        <ele>276.0</ele>
        <time>2020-08-06T10:30:46Z</time>
      </trkpt>
      <trkpt lat="41.0801180" lon="0.4844660">
        <ele>276.2</ele>
        <time>2020-08-06T10:30:48Z</time>
      </trkpt>
      <trkpt lat="41.0801050" lon="0.4844290">
        <ele>276.3</ele>
        <time>2020-08-06T10:30:49Z</time>
      </trkpt>
      <trkpt lat="41.0800820" lon="0.4843640">
        <ele>276.4</ele>
        <time>2020-08-06T10:30:51Z</time>
      </trkpt>
      <trkpt lat="41.0800660" lon="0.4843260">
        <ele>276.5</ele>
        <time>2020-08-06T10:30:52Z</time>
      </trkpt>
      <trkpt lat="41.0800500" lon="0.4842880">
        <ele>276.6</ele>
        <time>2020-08-06T10:30:53Z</time>
      </trkpt>
      <trkpt lat="41.0800240" lon="0.4842170">
        <ele>276.8</ele>
        <time>2020-08-06T10:30:55Z</time>
      </trkpt>
      <trkpt lat="41.0800090" lon="0.4841810">
        <ele>276.9</ele>
        <time>2020-08-06T10:30:56Z</time>
      </trkpt>
      <trkpt lat="41.0799830" lon="0.4841200">
        <ele>277.1</ele>
        <time>2020-08-06T10:30:58Z</time>
      </trkpt>
      <trkpt lat="41.0799660" lon="0.4840800">
        <ele>277.2</ele>
        <time>2020-08-06T10:30:59Z</time>
      </trkpt>
      <trkpt lat="41.0799490" lon="0.4840440">
        <ele>277.3</ele>
        <time>2020-08-06T10:31:00Z</time>
      </trkpt>
      <trkpt lat="41.0799340" lon="0.4840110">
        <ele>277.4</ele>
        <time>2020-08-06T10:31:01Z</time>
      </trkpt>
      <trkpt lat="41.0799190" lon="0.4839770">
        <ele>277.5</ele>
        <time>2020-08-06T10:31:02Z</time>
      </trkpt>
      <trkpt lat="41.0798940" lon="0.4839170">
        <ele>277.6</ele>
        <time>2020-08-06T10:31:04Z</time>
      </trkpt>
      <trkpt lat="41.0798790" lon="0.4838810">
        <ele>277.7</ele>
        <time>2020-08-06T10:31:05Z</time>
      </trkpt>
      <trkpt lat="41.0798670" lon="0.4838520">
        <ele>277.8</ele>
        <time>2020-08-06T10:31:06Z</time>
      </trkpt>
      <trkpt lat="41.0798390" lon="0.4837810">
        <ele>277.9</ele>
        <time>2020-08-06T10:31:08Z</time>
      </trkpt>
      <trkpt lat="41.0798280" lon="0.4837500">
        <ele>278.0</ele>
        <time>2020-08-06T10:31:09Z</time>
      </trkpt>
      <trkpt lat="41.0798050" lon="0.4836920">
        <ele>278.1</ele>
        <time>2020-08-06T10:31:11Z</time>
      </trkpt>
      <trkpt lat="41.0797880" lon="0.4836540">
        <ele>278.2</ele>
        <time>2020-08-06T10:31:12Z</time>
      </trkpt>
      <trkpt lat="41.0797760" lon="0.4836280">
        <ele>278.3</ele>
        <time>2020-08-06T10:31:13Z</time>
      </trkpt>
      <trkpt lat="41.0797440" lon="0.4835510">
        <ele>278.5</ele>
        <time>2020-08-06T10:31:15Z</time>
      </trkpt>
      <trkpt lat="41.0797290" lon="0.4835130">
        <ele>278.6</ele>
        <time>2020-08-06T10:31:16Z</time>
      </trkpt>
      <trkpt lat="41.0797140" lon="0.4834760">
        <ele>278.7</ele>
        <time>2020-08-06T10:31:17Z</time>
      </trkpt>
      <trkpt lat="41.0797020" lon="0.4834490">
        <ele>278.8</ele>
        <time>2020-08-06T10:31:18Z</time>
      </trkpt>
      <trkpt lat="41.0796720" lon="0.4833750">
        <ele>279.0</ele>
        <time>2020-08-06T10:31:20Z</time>
      </trkpt>
      <trkpt lat="41.0796590" lon="0.4833370">
        <ele>279.1</ele>
        <time>2020-08-06T10:31:21Z</time>
      </trkpt>
      <trkpt lat="41.0796350" lon="0.4832690">
        <ele>279.3</ele>
        <time>2020-08-06T10:31:23Z</time>
      </trkpt>
      <trkpt lat="41.0796210" lon="0.4832360">
        <ele>279.4</ele>
        <time>2020-08-06T10:31:24Z</time>
      </trkpt>
      <trkpt lat="41.0796050" lon="0.4832010">
        <ele>279.5</ele>
        <time>2020-08-06T10:31:25Z</time>
      </trkpt>
      <trkpt lat="41.0795760" lon="0.4831460">
        <ele>279.6</ele>
        <time>2020-08-06T10:31:27Z</time>
      </trkpt>
      <trkpt lat="41.0795590" lon="0.4831100">
        <ele>279.7</ele>
        <time>2020-08-06T10:31:28Z</time>
      </trkpt>
      <trkpt lat="41.0795440" lon="0.4830730">
        <ele>279.8</ele>
        <time>2020-08-06T10:31:29Z</time>
      </trkpt>
      <trkpt lat="41.0795160" lon="0.4830040">
        <ele>279.9</ele>
        <time>2020-08-06T10:31:31Z</time>
      </trkpt>
      <trkpt lat="41.0794490" lon="0.4828370">
        <ele>280.3</ele>
        <time>2020-08-06T10:31:37Z</time>
      </trkpt>
      <trkpt lat="41.0794100" lon="0.4827500">
        <ele>280.6</ele>
        <time>2020-08-06T10:31:39Z</time>
      </trkpt>
      <trkpt lat="41.0794030" lon="0.4827290">
        <ele>280.6</ele>
        <time>2020-08-06T10:31:40Z</time>
      </trkpt>
      <trkpt lat="41.0793760" lon="0.4826480">
        <ele>280.8</ele>
        <time>2020-08-06T10:31:42Z</time>
      </trkpt>
      <trkpt lat="41.0793630" lon="0.4826120">
        <ele>280.9</ele>
        <time>2020-08-06T10:31:43Z</time>
      </trkpt>
      <trkpt lat="41.0793490" lon="0.4825720">
        <ele>281.0</ele>
        <time>2020-08-06T10:31:44Z</time>
      </trkpt>
      <trkpt lat="41.0793150" lon="0.4824940">
        <ele>281.3</ele>
        <time>2020-08-06T10:31:46Z</time>
      </trkpt>
      <trkpt lat="41.0792980" lon="0.4824590">
        <ele>281.4</ele>
        <time>2020-08-06T10:31:47Z</time>
      </trkpt>
      <trkpt lat="41.0792780" lon="0.4824180">
        <ele>281.5</ele>
        <time>2020-08-06T10:31:48Z</time>
      </trkpt>
      <trkpt lat="41.0792600" lon="0.4823770">
        <ele>281.6</ele>
        <time>2020-08-06T10:31:49Z</time>
      </trkpt>
      <trkpt lat="41.0792410" lon="0.4823280">
        <ele>281.7</ele>
        <time>2020-08-06T10:31:50Z</time>
      </trkpt>
      <trkpt lat="41.0792040" lon="0.4822260">
        <ele>282.0</ele>
        <time>2020-08-06T10:31:52Z</time>
      </trkpt>
      <trkpt lat="41.0791880" lon="0.4821850">
        <ele>282.1</ele>
        <time>2020-08-06T10:31:53Z</time>
      </trkpt>
      <trkpt lat="41.0791720" lon="0.4821480">
        <ele>282.2</ele>
        <time>2020-08-06T10:31:54Z</time>
      </trkpt>
      <trkpt lat="41.0791530" lon="0.4821040">
        <ele>282.3</ele>
        <time>2020-08-06T10:31:55Z</time>
      </trkpt>
      <trkpt lat="41.0791180" lon="0.4820230">
        <ele>282.6</ele>
        <time>2020-08-06T10:31:57Z</time>
      </trkpt>
      <trkpt lat="41.0791040" lon="0.4819920">
        <ele>282.7</ele>
        <time>2020-08-06T10:31:58Z</time>
      </trkpt>
      <trkpt lat="41.0790750" lon="0.4819230">
        <ele>282.9</ele>
        <time>2020-08-06T10:32:00Z</time>
      </trkpt>
      <trkpt lat="41.0790620" lon="0.4818900">
        <ele>283.0</ele>
        <time>2020-08-06T10:32:01Z</time>
      </trkpt>
      <trkpt lat="41.0790450" lon="0.4818500">
        <ele>283.1</ele>
        <time>2020-08-06T10:32:02Z</time>
      </trkpt>
      <trkpt lat="41.0790170" lon="0.4817760">
        <ele>283.3</ele>
        <time>2020-08-06T10:32:04Z</time>
      </trkpt>
      <trkpt lat="41.0789970" lon="0.4817280">
        <ele>283.4</ele>
        <time>2020-08-06T10:32:05Z</time>
      </trkpt>
      <trkpt lat="41.0789890" lon="0.4817090">
        <ele>283.5</ele>
        <time>2020-08-06T10:32:06Z</time>
      </trkpt>
      <trkpt lat="41.0789670" lon="0.4816610">
        <ele>283.6</ele>
        <time>2020-08-06T10:32:07Z</time>
      </trkpt>
      <trkpt lat="41.0789590" lon="0.4816430">
        <ele>283.6</ele>
        <time>2020-08-06T10:32:08Z</time>
      </trkpt>
      <trkpt lat="41.0789320" lon="0.4815850">
        <ele>283.8</ele>
        <time>2020-08-06T10:32:10Z</time>
      </trkpt>
      <trkpt lat="41.0789010" lon="0.4815170">
        <ele>283.9</ele>
        <time>2020-08-06T10:32:12Z</time>
      </trkpt>
      <trkpt lat="41.0788880" lon="0.4814800">
        <ele>284.0</ele>
        <time>2020-08-06T10:32:13Z</time>
      </trkpt>
      <trkpt lat="41.0788760" lon="0.4814450">
        <ele>284.1</ele>
        <time>2020-08-06T10:32:14Z</time>
      </trkpt>
      <trkpt lat="41.0788640" lon="0.4814130">
        <ele>284.2</ele>
        <time>2020-08-06T10:32:15Z</time>
      </trkpt>
      <trkpt lat="41.0788380" lon="0.4813520">
        <ele>284.4</ele>
        <time>2020-08-06T10:32:17Z</time>
      </trkpt>
      <trkpt lat="41.0788130" lon="0.4812930">
        <ele>284.6</ele>
        <time>2020-08-06T10:32:19Z</time>
      </trkpt>
      <trkpt lat="41.0787880" lon="0.4812290">
        <ele>284.8</ele>
        <time>2020-08-06T10:32:21Z</time>
      </trkpt>
      <trkpt lat="41.0787700" lon="0.4811870">
        <ele>285.0</ele>
        <time>2020-08-06T10:32:22Z</time>
      </trkpt>
      <trkpt lat="41.0787640" lon="0.4811740">
        <ele>285.1</ele>
        <time>2020-08-06T10:32:23Z</time>
      </trkpt>
      <trkpt lat="41.0787390" lon="0.4811180">
        <ele>285.4</ele>
        <time>2020-08-06T10:32:25Z</time>
      </trkpt>
      <trkpt lat="41.0787170" lon="0.4810650">
        <ele>285.6</ele>
        <time>2020-08-06T10:32:27Z</time>
      </trkpt>
      <trkpt lat="41.0787060" lon="0.4810260">
        <ele>285.8</ele>
        <time>2020-08-06T10:32:28Z</time>
      </trkpt>
      <trkpt lat="41.0787020" lon="0.4810140">
        <ele>285.8</ele>
        <time>2020-08-06T10:32:29Z</time>
      </trkpt>
      <trkpt lat="41.0786820" lon="0.4809700">
        <ele>286.0</ele>
        <time>2020-08-06T10:32:31Z</time>
      </trkpt>
      <trkpt lat="41.0786570" lon="0.4809190">
        <ele>286.2</ele>
        <time>2020-08-06T10:32:33Z</time>
      </trkpt>
      <trkpt lat="41.0786260" lon="0.4808620">
        <ele>286.5</ele>
        <time>2020-08-06T10:32:35Z</time>
      </trkpt>
      <trkpt lat="41.0786110" lon="0.4808300">
        <ele>286.6</ele>
        <time>2020-08-06T10:32:36Z</time>
      </trkpt>
      <trkpt lat="41.0785900" lon="0.4807740">
        <ele>286.8</ele>
        <time>2020-08-06T10:32:38Z</time>
      </trkpt>
      <trkpt lat="41.0785770" lon="0.4807410">
        <ele>287.0</ele>
        <time>2020-08-06T10:32:39Z</time>
      </trkpt>
      <trkpt lat="41.0785670" lon="0.4807160">
        <ele>287.1</ele>
        <time>2020-08-06T10:32:40Z</time>
      </trkpt>
      <trkpt lat="41.0785570" lon="0.4806850">
        <ele>287.2</ele>
        <time>2020-08-06T10:32:42Z</time>
      </trkpt>
      <trkpt lat="41.0785430" lon="0.4806520">
        <ele>287.3</ele>
        <time>2020-08-06T10:32:44Z</time>
      </trkpt>
      <trkpt lat="41.0785350" lon="0.4806340">
        <ele>287.3</ele>
        <time>2020-08-06T10:32:45Z</time>
      </trkpt>
      <trkpt lat="41.0785150" lon="0.4805940">
        <ele>287.4</ele>
        <time>2020-08-06T10:32:47Z</time>
      </trkpt>
      <trkpt lat="41.0784980" lon="0.4805570">
        <ele>287.4</ele>
        <time>2020-08-06T10:32:48Z</time>
      </trkpt>
      <trkpt lat="41.0784930" lon="0.4805450">
        <ele>287.5</ele>
        <time>2020-08-06T10:32:49Z</time>
      </trkpt>
      <trkpt lat="41.0784730" lon="0.4804980">
        <ele>287.6</ele>
        <time>2020-08-06T10:32:51Z</time>
      </trkpt>
      <trkpt lat="41.0784640" lon="0.4804740">
        <ele>287.6</ele>
        <time>2020-08-06T10:32:52Z</time>
      </trkpt>
      <trkpt lat="41.0784440" lon="0.4804150">
        <ele>287.7</ele>
        <time>2020-08-06T10:32:54Z</time>
      </trkpt>
      <trkpt lat="41.0784330" lon="0.4803960">
        <ele>287.8</ele>
        <time>2020-08-06T10:32:55Z</time>
      </trkpt>
      <trkpt lat="41.0784120" lon="0.4803530">
        <ele>287.9</ele>
        <time>2020-08-06T10:32:57Z</time>
      </trkpt>
      <trkpt lat="41.0784020" lon="0.4803270">
        <ele>287.9</ele>
        <time>2020-08-06T10:32:58Z</time>
      </trkpt>
      <trkpt lat="41.0783840" lon="0.4802780">
        <ele>288.1</ele>
        <time>2020-08-06T10:33:00Z</time>
      </trkpt>
      <trkpt lat="41.0783670" lon="0.4802210">
        <ele>288.2</ele>
        <time>2020-08-06T10:33:02Z</time>
      </trkpt>
      <trkpt lat="41.0783530" lon="0.4801650">
        <ele>288.3</ele>
        <time>2020-08-06T10:33:04Z</time>
      </trkpt>
      <trkpt lat="41.0783480" lon="0.4801410">
        <ele>288.4</ele>
        <time>2020-08-06T10:33:05Z</time>
      </trkpt>
      <trkpt lat="41.0783310" lon="0.4800890">
        <ele>288.5</ele>
        <time>2020-08-06T10:33:07Z</time>
      </trkpt>
      <trkpt lat="41.0783150" lon="0.4800410">
        <ele>288.7</ele>
        <time>2020-08-06T10:33:08Z</time>
      </trkpt>
      <trkpt lat="41.0783090" lon="0.4800250">
        <ele>288.7</ele>
        <time>2020-08-06T10:33:09Z</time>
      </trkpt>
      <trkpt lat="41.0782960" lon="0.4799970">
        <ele>288.8</ele>
        <time>2020-08-06T10:33:10Z</time>
      </trkpt>
      <trkpt lat="41.0782740" lon="0.4799470">
        <ele>288.9</ele>
        <time>2020-08-06T10:33:12Z</time>
      </trkpt>
      <trkpt lat="41.0782590" lon="0.4799090">
        <ele>289.0</ele>
        <time>2020-08-06T10:33:13Z</time>
      </trkpt>
      <trkpt lat="41.0782530" lon="0.4798950">
        <ele>289.1</ele>
        <time>2020-08-06T10:33:14Z</time>
      </trkpt>
      <trkpt lat="41.0782450" lon="0.4798730">
        <ele>289.2</ele>
        <time>2020-08-06T10:33:15Z</time>
      </trkpt>
      <trkpt lat="41.0782300" lon="0.4798260">
        <ele>289.3</ele>
        <time>2020-08-06T10:33:17Z</time>
      </trkpt>
      <trkpt lat="41.0782140" lon="0.4797820">
        <ele>289.4</ele>
        <time>2020-08-06T10:33:18Z</time>
      </trkpt>
      <trkpt lat="41.0782080" lon="0.4797680">
        <ele>289.4</ele>
        <time>2020-08-06T10:33:19Z</time>
      </trkpt>
      <trkpt lat="41.0781890" lon="0.4797230">
        <ele>289.6</ele>
        <time>2020-08-06T10:33:21Z</time>
      </trkpt>
      <trkpt lat="41.0781740" lon="0.4796940">
        <ele>289.6</ele>
        <time>2020-08-06T10:33:22Z</time>
      </trkpt>
      <trkpt lat="41.0781430" lon="0.4796390">
        <ele>289.8</ele>
        <time>2020-08-06T10:33:24Z</time>
      </trkpt>
      <trkpt lat="41.0781240" lon="0.4796030">
        <ele>289.9</ele>
        <time>2020-08-06T10:33:25Z</time>
      </trkpt>
      <trkpt lat="41.0781080" lon="0.4795700">
        <ele>290.0</ele>
        <time>2020-08-06T10:33:26Z</time>
      </trkpt>
      <trkpt lat="41.0780860" lon="0.4795150">
        <ele>290.2</ele>
        <time>2020-08-06T10:33:28Z</time>
      </trkpt>
      <trkpt lat="41.0780770" lon="0.4794910">
        <ele>290.2</ele>
        <time>2020-08-06T10:33:29Z</time>
      </trkpt>
      <trkpt lat="41.0780620" lon="0.4794510">
        <ele>290.3</ele>
        <time>2020-08-06T10:33:31Z</time>
      </trkpt>
      <trkpt lat="41.0780550" lon="0.4794300">
        <ele>290.4</ele>
        <time>2020-08-06T10:33:32Z</time>
      </trkpt>
      <trkpt lat="41.0780420" lon="0.4793790">
        <ele>290.5</ele>
        <time>2020-08-06T10:33:34Z</time>
      </trkpt>
      <trkpt lat="41.0780390" lon="0.4793640">
        <ele>290.5</ele>
        <time>2020-08-06T10:33:35Z</time>
      </trkpt>
      <trkpt lat="41.0780360" lon="0.4793350">
        <ele>290.5</ele>
        <time>2020-08-06T10:33:37Z</time>
      </trkpt>
      <trkpt lat="41.0780290" lon="0.4793100">
        <ele>291.5</ele>
        <time>2020-08-06T10:33:39Z</time>
      </trkpt>
      <trkpt lat="41.0780240" lon="0.4792920">
        <ele>291.6</ele>
        <time>2020-08-06T10:33:41Z</time>
      </trkpt>
      <trkpt lat="41.0780210" lon="0.4792840">
        <ele>291.6</ele>
        <time>2020-08-06T10:33:42Z</time>
      </trkpt>
      <trkpt lat="41.0780180" lon="0.4792780">
        <ele>291.6</ele>
        <time>2020-08-06T10:33:43Z</time>
      </trkpt>
      <trkpt lat="41.0780100" lon="0.4792770">
        <ele>291.7</ele>
        <time>2020-08-06T10:33:45Z</time>
      </trkpt>
      <trkpt lat="41.0780110" lon="0.4792740">
        <ele>291.7</ele>
        <time>2020-08-06T10:33:46Z</time>
      </trkpt>
      <trkpt lat="41.0780210" lon="0.4792700">
        <ele>291.8</ele>
        <time>2020-08-06T10:33:48Z</time>
      </trkpt>
      <trkpt lat="41.0780230" lon="0.4792650">
        <ele>291.8</ele>
        <time>2020-08-06T10:33:50Z</time>
      </trkpt>
      <trkpt lat="41.0780220" lon="0.4792630">
        <ele>291.8</ele>
        <time>2020-08-06T10:33:51Z</time>
      </trkpt>
      <trkpt lat="41.0780130" lon="0.4792670">
        <ele>291.8</ele>
        <time>2020-08-06T10:33:53Z</time>
      </trkpt>
      <trkpt lat="41.0780160" lon="0.4792610">
        <ele>291.9</ele>
        <time>2020-08-06T10:33:55Z</time>
      </trkpt>
      <trkpt lat="41.0780210" lon="0.4792600">
        <ele>291.9</ele>
        <time>2020-08-06T10:33:56Z</time>
      </trkpt>
      <trkpt lat="41.0780260" lon="0.4792640">
        <ele>291.9</ele>
        <time>2020-08-06T10:33:58Z</time>
      </trkpt>
      <trkpt lat="41.0780250" lon="0.4792650">
        <ele>291.9</ele>
        <time>2020-08-06T10:33:59Z</time>
      </trkpt>
      <trkpt lat="41.0780230" lon="0.4792650">
        <ele>292.0</ele>
        <time>2020-08-06T10:34:01Z</time>
      </trkpt>
      <trkpt lat="41.0780210" lon="0.4792730">
        <ele>292.0</ele>
        <time>2020-08-06T10:34:02Z</time>
      </trkpt>
      <trkpt lat="41.0780280" lon="0.4792970">
        <ele>292.1</ele>
        <time>2020-08-06T10:34:04Z</time>
      </trkpt>
      <trkpt lat="41.0780340" lon="0.4793070">
        <ele>292.2</ele>
        <time>2020-08-06T10:34:05Z</time>
      </trkpt>
      <trkpt lat="41.0780480" lon="0.4793180">
        <ele>292.2</ele>
        <time>2020-08-06T10:34:06Z</time>
      </trkpt>
      <trkpt lat="41.0780800" lon="0.4793450">
        <ele>292.5</ele>
        <time>2020-08-06T10:34:08Z</time>
      </trkpt>
      <trkpt lat="41.0780960" lon="0.4793780">
        <ele>292.6</ele>
        <time>2020-08-06T10:34:10Z</time>
      </trkpt>
      <trkpt lat="41.0780980" lon="0.4793760">
        <ele>292.6</ele>
        <time>2020-08-06T10:34:11Z</time>
      </trkpt>
      <trkpt lat="41.0780970" lon="0.4793560">
        <ele>292.7</ele>
        <time>2020-08-06T10:34:13Z</time>
      </trkpt>
      <trkpt lat="41.0780970" lon="0.4793570">
        <ele>292.7</ele>
        <time>2020-08-06T10:34:14Z</time>
      </trkpt>
      <trkpt lat="41.0780980" lon="0.4793640">
        <ele>292.8</ele>
        <time>2020-08-06T10:34:16Z</time>
      </trkpt>
      <trkpt lat="41.0780980" lon="0.4793650">
        <ele>292.8</ele>
        <time>2020-08-06T10:34:18Z</time>
      </trkpt>
      <trkpt lat="41.0780970" lon="0.4793650">
        <ele>292.8</ele>
        <time>2020-08-06T10:34:19Z</time>
      </trkpt>
      <trkpt lat="41.0780980" lon="0.4793650">
        <ele>292.8</ele>
        <time>2020-08-06T10:34:21Z</time>
      </trkpt>
      <trkpt lat="41.0781000" lon="0.4793630">
        <ele>292.8</ele>
        <time>2020-08-06T10:34:22Z</time>
      </trkpt>
      <trkpt lat="41.0781020" lon="0.4793600">
        <ele>292.8</ele>
        <time>2020-08-06T10:34:23Z</time>
      </trkpt>
      <trkpt lat="41.0781280" lon="0.4793090">
        <ele>295.3</ele>
        <time>2020-08-06T10:35:27Z</time>
      </trkpt>
      <trkpt lat="41.0781330" lon="0.4793100">
        <ele>295.4</ele>
        <time>2020-08-06T10:35:28Z</time>
      </trkpt>
      <trkpt lat="41.0781350" lon="0.4793130">
        <ele>295.4</ele>
        <time>2020-08-06T10:35:29Z</time>
      </trkpt>
      <trkpt lat="41.0781340" lon="0.4793170">
        <ele>295.4</ele>
        <time>2020-08-06T10:35:31Z</time>
      </trkpt>
      <trkpt lat="41.0781330" lon="0.4793190">
        <ele>295.4</ele>
        <time>2020-08-06T10:35:32Z</time>
      </trkpt>
      <trkpt lat="41.0781310" lon="0.4793250">
        <ele>295.5</ele>
        <time>2020-08-06T10:35:34Z</time>
      </trkpt>
      <trkpt lat="41.0781290" lon="0.4793270">
        <ele>295.5</ele>
        <time>2020-08-06T10:35:35Z</time>
      </trkpt>
      <trkpt lat="41.0781260" lon="0.4793300">
        <ele>295.5</ele>
        <time>2020-08-06T10:35:36Z</time>
      </trkpt>
      <trkpt lat="41.0781240" lon="0.4793300">
        <ele>295.6</ele>
        <time>2020-08-06T10:35:37Z</time>
      </trkpt>
      <trkpt lat="41.0781220" lon="0.4793310">
        <ele>295.6</ele>
        <time>2020-08-06T10:35:39Z</time>
      </trkpt>
      <trkpt lat="41.0781110" lon="0.4793770">
        <ele>295.9</ele>
        <time>2020-08-06T10:49:02Z</time>
      </trkpt>
      <trkpt lat="41.0781070" lon="0.4793810">
        <ele>295.9</ele>
        <time>2020-08-06T10:49:03Z</time>
      </trkpt>
      <trkpt lat="41.0781060" lon="0.4793810">
        <ele>295.9</ele>
        <time>2020-08-06T10:49:04Z</time>
      </trkpt>
      <trkpt lat="41.0781050" lon="0.4793800">
        <ele>295.9</ele>
        <time>2020-08-06T10:49:06Z</time>
      </trkpt>
      <trkpt lat="41.0781050" lon="0.4793790">
        <ele>295.9</ele>
        <time>2020-08-06T10:49:08Z</time>
      </trkpt>
      <trkpt lat="41.0781050" lon="0.4793790">
        <ele>295.9</ele>
        <time>2020-08-06T10:49:09Z</time>
      </trkpt>
      <trkpt lat="41.0781050" lon="0.4793790">
        <ele>295.9</ele>
        <time>2020-08-06T10:49:10Z</time>
      </trkpt>
      <trkpt lat="41.0781050" lon="0.4793790">
        <ele>295.9</ele>
        <time>2020-08-06T10:49:11Z</time>
      </trkpt>
      <trkpt lat="41.0781050" lon="0.4793790">
        <ele>295.9</ele>
        <time>2020-08-06T10:49:12Z</time>
      </trkpt>
      <trkpt lat="41.0781050" lon="0.4793790">
        <ele>295.9</ele>
        <time>2020-08-06T10:49:14Z</time>
      </trkpt>
      <trkpt lat="41.0781050" lon="0.4793790">
        <ele>295.9</ele>
        <time>2020-08-06T10:49:15Z</time>
      </trkpt>
      <trkpt lat="41.0781050" lon="0.4793790">
        <ele>295.9</ele>
        <time>2020-08-06T10:49:17Z</time>
      </trkpt>
      <trkpt lat="41.0781050" lon="0.4793790">
        <ele>295.9</ele>
        <time>2020-08-06T10:49:18Z</time>
      </trkpt>
      <trkpt lat="41.0781050" lon="0.4793790">
        <ele>295.9</ele>
        <time>2020-08-06T10:49:19Z</time>
      </trkpt>
      <trkpt lat="41.0781050" lon="0.4793790">
        <ele>295.9</ele>
        <time>2020-08-06T10:49:21Z</time>
      </trkpt>
      <trkpt lat="41.0781050" lon="0.4793790">
        <ele>295.9</ele>
        <time>2020-08-06T10:49:22Z</time>
      </trkpt>
      <trkpt lat="41.0781050" lon="0.4793790">
        <ele>295.9</ele>
        <time>2020-08-06T10:49:24Z</time>
      </trkpt>
      <trkpt lat="41.0781050" lon="0.4793790">
        <ele>295.9</ele>
        <time>2020-08-06T10:49:25Z</time>
      </trkpt>
      <trkpt lat="41.0781050" lon="0.4793790">
        <ele>295.9</ele>
        <time>2020-08-06T10:49:26Z</time>
      </trkpt>
      <trkpt lat="41.0781050" lon="0.4793790">
        <ele>295.9</ele>
        <time>2020-08-06T10:49:27Z</time>
      </trkpt>
      <trkpt lat="41.0781050" lon="0.4793790">
        <ele>295.9</ele>
        <time>2020-08-06T10:49:28Z</time>
      </trkpt>
      <trkpt lat="41.0781050" lon="0.4793790">
        <ele>295.9</ele>
        <time>2020-08-06T10:49:30Z</time>
      </trkpt>
      <trkpt lat="41.0781050" lon="0.4793800">
        <ele>295.9</ele>
        <time>2020-08-06T10:49:31Z</time>
      </trkpt>
      <trkpt lat="41.0781050" lon="0.4793800">
        <ele>295.9</ele>
        <time>2020-08-06T10:49:33Z</time>
      </trkpt>
      <trkpt lat="41.0781050" lon="0.4793800">
        <ele>295.9</ele>
        <time>2020-08-06T10:49:35Z</time>
      </trkpt>
      <trkpt lat="41.0781050" lon="0.4793810">
        <ele>295.9</ele>
        <time>2020-08-06T10:49:37Z</time>
      </trkpt>
      <trkpt lat="41.0781050" lon="0.4793810">
        <ele>295.9</ele>
        <time>2020-08-06T10:49:38Z</time>
      </trkpt>
      <trkpt lat="41.0781040" lon="0.4793810">
        <ele>296.0</ele>
        <time>2020-08-06T10:49:40Z</time>
      </trkpt>
      <trkpt lat="41.0781040" lon="0.4793820">
        <ele>296.0</ele>
        <time>2020-08-06T10:49:42Z</time>
      </trkpt>
      <trkpt lat="41.0781040" lon="0.4793820">
        <ele>296.0</ele>
        <time>2020-08-06T10:49:44Z</time>
      </trkpt>
      <trkpt lat="41.0781040" lon="0.4793820">
        <ele>296.0</ele>
        <time>2020-08-06T10:49:45Z</time>
      </trkpt>
      <trkpt lat="41.0781040" lon="0.4793820">
        <ele>296.0</ele>
        <time>2020-08-06T10:49:46Z</time>
      </trkpt>
      <trkpt lat="41.0781040" lon="0.4793820">
        <ele>296.0</ele>
        <time>2020-08-06T10:49:47Z</time>
      </trkpt>
      <trkpt lat="41.0781040" lon="0.4793820">
        <ele>296.0</ele>
        <time>2020-08-06T10:49:48Z</time>
      </trkpt>
      <trkpt lat="41.0781040" lon="0.4793820">
        <ele>296.0</ele>
        <time>2020-08-06T10:49:49Z</time>
      </trkpt>
      <trkpt lat="41.0781040" lon="0.4793820">
        <ele>296.0</ele>
        <time>2020-08-06T10:49:50Z</time>
      </trkpt>
      <trkpt lat="41.0781040" lon="0.4793820">
        <ele>296.0</ele>
        <time>2020-08-06T10:49:51Z</time>
      </trkpt>
      <trkpt lat="41.0781040" lon="0.4793820">
        <ele>296.0</ele>
        <time>2020-08-06T10:49:53Z</time>
      </trkpt>
      <trkpt lat="41.0781040" lon="0.4793820">
        <ele>296.0</ele>
        <time>2020-08-06T10:49:54Z</time>
      </trkpt>
      <trkpt lat="41.0781040" lon="0.4793820">
        <ele>296.0</ele>
        <time>2020-08-06T10:49:55Z</time>
      </trkpt>
      <trkpt lat="41.0781040" lon="0.4793820">
        <ele>296.0</ele>
        <time>2020-08-06T10:49:57Z</time>
      </trkpt>
      <trkpt lat="41.0781040" lon="0.4793820">
        <ele>296.0</ele>
        <time>2020-08-06T10:49:59Z</time>
      </trkpt>
      <trkpt lat="41.0781040" lon="0.4793820">
        <ele>296.0</ele>
        <time>2020-08-06T10:50:00Z</time>
      </trkpt>
      <trkpt lat="41.0781040" lon="0.4793820">
        <ele>296.0</ele>
        <time>2020-08-06T10:50:02Z</time>
      </trkpt>
      <trkpt lat="41.0781040" lon="0.4793820">
        <ele>296.0</ele>
        <time>2020-08-06T10:50:03Z</time>
      </trkpt>
      <trkpt lat="41.0781040" lon="0.4793820">
        <ele>296.0</ele>
        <time>2020-08-06T10:50:04Z</time>
      </trkpt>
      <trkpt lat="41.0781040" lon="0.4793820">
        <ele>296.0</ele>
        <time>2020-08-06T10:50:06Z</time>
      </trkpt>
      <trkpt lat="41.0781040" lon="0.4793820">
        <ele>296.0</ele>
        <time>2020-08-06T10:50:07Z</time>
      </trkpt>
      <trkpt lat="41.0781040" lon="0.4793820">
        <ele>296.0</ele>
        <time>2020-08-06T10:50:08Z</time>
      </trkpt>
      <trkpt lat="41.0781040" lon="0.4793820">
        <ele>296.0</ele>
        <time>2020-08-06T10:50:09Z</time>
      </trkpt>
      <trkpt lat="41.0781040" lon="0.4793820">
        <ele>296.0</ele>
        <time>2020-08-06T10:50:11Z</time>
      </trkpt>
      <trkpt lat="41.0781040" lon="0.4793820">
        <ele>296.0</ele>
        <time>2020-08-06T10:50:13Z</time>
      </trkpt>
      <trkpt lat="41.0781040" lon="0.4793820">
        <ele>296.0</ele>
        <time>2020-08-06T10:50:15Z</time>
      </trkpt>
      <trkpt lat="41.0781040" lon="0.4793820">
        <ele>296.0</ele>
        <time>2020-08-06T10:50:16Z</time>
      </trkpt>
      <trkpt lat="41.0781040" lon="0.4793820">
        <ele>296.0</ele>
        <time>2020-08-06T10:50:18Z</time>
      </trkpt>
      <trkpt lat="41.0781040" lon="0.4793820">
        <ele>296.0</ele>
        <time>2020-08-06T10:50:19Z</time>
      </trkpt>
      <trkpt lat="41.0781040" lon="0.4793820">
        <ele>296.0</ele>
        <time>2020-08-06T10:50:21Z</time>
      </trkpt>
      <trkpt lat="41.0781040" lon="0.4793820">
        <ele>296.0</ele>
        <time>2020-08-06T10:50:23Z</time>
      </trkpt>
      <trkpt lat="41.0781040" lon="0.4793820">
        <ele>296.0</ele>
        <time>2020-08-06T10:50:24Z</time>
      </trkpt>
      <trkpt lat="41.0781040" lon="0.4793820">
        <ele>296.0</ele>
        <time>2020-08-06T10:50:26Z</time>
      </trkpt>
      <trkpt lat="41.0781040" lon="0.4793820">
        <ele>296.0</ele>
        <time>2020-08-06T10:50:27Z</time>
      </trkpt>
      <trkpt lat="41.0781040" lon="0.4793820">
        <ele>296.0</ele>
        <time>2020-08-06T10:50:29Z</time>
      </trkpt>
      <trkpt lat="41.0781040" lon="0.4793820">
        <ele>296.0</ele>
        <time>2020-08-06T10:50:31Z</time>
      </trkpt>
      <trkpt lat="41.0781040" lon="0.4793820">
        <ele>296.0</ele>
        <time>2020-08-06T10:50:32Z</time>
      </trkpt>
      <trkpt lat="41.0781040" lon="0.4793820">
        <ele>296.0</ele>
        <time>2020-08-06T10:50:33Z</time>
      </trkpt>
      <trkpt lat="41.0781040" lon="0.4793820">
        <ele>296.0</ele>
        <time>2020-08-06T10:50:34Z</time>
      </trkpt>
      <trkpt lat="41.0781040" lon="0.4793820">
        <ele>296.0</ele>
        <time>2020-08-06T10:50:35Z</time>
      </trkpt>
      <trkpt lat="41.0781040" lon="0.4793820">
        <ele>296.0</ele>
        <time>2020-08-06T10:50:37Z</time>
      </trkpt>
      <trkpt lat="41.0781040" lon="0.4793820">
        <ele>296.0</ele>
        <time>2020-08-06T10:50:39Z</time>
      </trkpt>
      <trkpt lat="41.0781040" lon="0.4793820">
        <ele>296.0</ele>
        <time>2020-08-06T10:50:41Z</time>
      </trkpt>
      <trkpt lat="41.0781040" lon="0.4793820">
        <ele>296.0</ele>
        <time>2020-08-06T10:50:42Z</time>
      </trkpt>
      <trkpt lat="41.0781040" lon="0.4793820">
        <ele>296.0</ele>
        <time>2020-08-06T10:50:43Z</time>
      </trkpt>
      <trkpt lat="41.0781040" lon="0.4793820">
        <ele>296.0</ele>
        <time>2020-08-06T10:50:45Z</time>
      </trkpt>
      <trkpt lat="41.0781040" lon="0.4793820">
        <ele>296.0</ele>
        <time>2020-08-06T10:50:46Z</time>
      </trkpt>
      <trkpt lat="41.0781040" lon="0.4793820">
        <ele>296.0</ele>
        <time>2020-08-06T10:50:47Z</time>
      </trkpt>
      <trkpt lat="41.0781040" lon="0.4793820">
        <ele>296.0</ele>
        <time>2020-08-06T10:50:48Z</time>
      </trkpt>
      <trkpt lat="41.0781040" lon="0.4793820">
        <ele>296.0</ele>
        <time>2020-08-06T10:50:49Z</time>
      </trkpt>
      <trkpt lat="41.0781040" lon="0.4793820">
        <ele>296.0</ele>
        <time>2020-08-06T10:50:50Z</time>
      </trkpt>
      <trkpt lat="41.0781040" lon="0.4793820">
        <ele>296.0</ele>
        <time>2020-08-06T10:50:51Z</time>
      </trkpt>
      <trkpt lat="41.0781040" lon="0.4793820">
        <ele>296.0</ele>
        <time>2020-08-06T10:50:52Z</time>
      </trkpt>
      <trkpt lat="41.0781040" lon="0.4793820">
        <ele>296.0</ele>
        <time>2020-08-06T10:50:54Z</time>
      </trkpt>
      <trkpt lat="41.0781040" lon="0.4793820">
        <ele>296.0</ele>
        <time>2020-08-06T10:50:55Z</time>
      </trkpt>
      <trkpt lat="41.0781040" lon="0.4793820">
        <ele>296.0</ele>
        <time>2020-08-06T10:50:57Z</time>
      </trkpt>
      <trkpt lat="41.0781040" lon="0.4793820">
        <ele>296.0</ele>
        <time>2020-08-06T10:50:58Z</time>
      </trkpt>
      <trkpt lat="41.0781040" lon="0.4793820">
        <ele>296.0</ele>
        <time>2020-08-06T10:50:59Z</time>
      </trkpt>
      <trkpt lat="41.0781040" lon="0.4793820">
        <ele>296.0</ele>
        <time>2020-08-06T10:51:01Z</time>
      </trkpt>
      <trkpt lat="41.0781040" lon="0.4793820">
        <ele>296.0</ele>
        <time>2020-08-06T10:51:02Z</time>
      </trkpt>
      <trkpt lat="41.0781040" lon="0.4793820">
        <ele>296.0</ele>
        <time>2020-08-06T10:51:03Z</time>
      </trkpt>
      <trkpt lat="41.0781040" lon="0.4793820">
        <ele>296.0</ele>
        <time>2020-08-06T10:51:05Z</time>
      </trkpt>
      <trkpt lat="41.0781040" lon="0.4793820">
        <ele>296.0</ele>
        <time>2020-08-06T10:51:07Z</time>
      </trkpt>
      <trkpt lat="41.0781040" lon="0.4793820">
        <ele>296.0</ele>
        <time>2020-08-06T10:51:08Z</time>
      </trkpt>
      <trkpt lat="41.0781040" lon="0.4793820">
        <ele>296.0</ele>
        <time>2020-08-06T10:51:10Z</time>
      </trkpt>
      <trkpt lat="41.0781040" lon="0.4793820">
        <ele>296.0</ele>
        <time>2020-08-06T10:51:11Z</time>
      </trkpt>
      <trkpt lat="41.0781040" lon="0.4793820">
        <ele>296.0</ele>
        <time>2020-08-06T10:51:13Z</time>
      </trkpt>
      <trkpt lat="41.0781040" lon="0.4793820">
        <ele>296.0</ele>
        <time>2020-08-06T10:51:14Z</time>
      </trkpt>
      <trkpt lat="41.0781040" lon="0.4793820">
        <ele>296.0</ele>
        <time>2020-08-06T10:51:15Z</time>
      </trkpt>
      <trkpt lat="41.0781040" lon="0.4793820">
        <ele>296.0</ele>
        <time>2020-08-06T10:51:17Z</time>
      </trkpt>
      <trkpt lat="41.0781040" lon="0.4793820">
        <ele>296.0</ele>
        <time>2020-08-06T10:51:18Z</time>
      </trkpt>
      <trkpt lat="41.0781040" lon="0.4793820">
        <ele>296.0</ele>
        <time>2020-08-06T10:51:20Z</time>
      </trkpt>
      <trkpt lat="41.0781040" lon="0.4793820">
        <ele>296.0</ele>
        <time>2020-08-06T10:51:21Z</time>
      </trkpt>
      <trkpt lat="41.0781040" lon="0.4793820">
        <ele>296.0</ele>
        <time>2020-08-06T10:51:23Z</time>
      </trkpt>
      <trkpt lat="41.0781040" lon="0.4793820">
        <ele>296.0</ele>
        <time>2020-08-06T10:51:25Z</time>
      </trkpt>
      <trkpt lat="41.0781040" lon="0.4793820">
        <ele>296.0</ele>
        <time>2020-08-06T10:51:26Z</time>
      </trkpt>
      <trkpt lat="41.0781040" lon="0.4793820">
        <ele>296.0</ele>
        <time>2020-08-06T10:51:28Z</time>
      </trkpt>
      <trkpt lat="41.0781040" lon="0.4793820">
        <ele>296.0</ele>
        <time>2020-08-06T10:51:29Z</time>
      </trkpt>
      <trkpt lat="41.0781040" lon="0.4793820">
        <ele>296.0</ele>
        <time>2020-08-06T10:51:30Z</time>
      </trkpt>
      <trkpt lat="41.0781040" lon="0.4793820">
        <ele>296.0</ele>
        <time>2020-08-06T10:51:32Z</time>
      </trkpt>
      <trkpt lat="41.0781040" lon="0.4793820">
        <ele>296.0</ele>
        <time>2020-08-06T10:51:33Z</time>
      </trkpt>
      <trkpt lat="41.0781040" lon="0.4793820">
        <ele>296.0</ele>
        <time>2020-08-06T10:51:34Z</time>
      </trkpt>
      <trkpt lat="41.0781040" lon="0.4793820">
        <ele>296.0</ele>
        <time>2020-08-06T10:51:35Z</time>
      </trkpt>
      <trkpt lat="41.0781040" lon="0.4793820">
        <ele>296.0</ele>
        <time>2020-08-06T10:51:36Z</time>
      </trkpt>
      <trkpt lat="41.0781040" lon="0.4793820">
        <ele>296.0</ele>
        <time>2020-08-06T10:51:38Z</time>
      </trkpt>
      <trkpt lat="41.0781040" lon="0.4793820">
        <ele>296.0</ele>
        <time>2020-08-06T10:51:40Z</time>
      </trkpt>
      <trkpt lat="41.0781040" lon="0.4793820">
        <ele>296.0</ele>
        <time>2020-08-06T10:51:42Z</time>
      </trkpt>
      <trkpt lat="41.0781040" lon="0.4793820">
        <ele>296.0</ele>
        <time>2020-08-06T10:51:43Z</time>
      </trkpt>
      <trkpt lat="41.0781040" lon="0.4793820">
        <ele>296.0</ele>
        <time>2020-08-06T10:51:44Z</time>
      </trkpt>
      <trkpt lat="41.0781040" lon="0.4793820">
        <ele>296.0</ele>
        <time>2020-08-06T10:51:46Z</time>
      </trkpt>
      <trkpt lat="41.0781040" lon="0.4793820">
        <ele>296.0</ele>
        <time>2020-08-06T10:51:47Z</time>
      </trkpt>
      <trkpt lat="41.0781040" lon="0.4793820">
        <ele>296.0</ele>
        <time>2020-08-06T10:51:48Z</time>
      </trkpt>
      <trkpt lat="41.0781040" lon="0.4793820">
        <ele>296.0</ele>
        <time>2020-08-06T10:51:50Z</time>
      </trkpt>
      <trkpt lat="41.0781040" lon="0.4793820">
        <ele>296.0</ele>
        <time>2020-08-06T10:51:51Z</time>
      </trkpt>
      <trkpt lat="41.0781040" lon="0.4793820">
        <ele>296.0</ele>
        <time>2020-08-06T10:51:53Z</time>
      </trkpt>
      <trkpt lat="41.0781040" lon="0.4793820">
        <ele>296.0</ele>
        <time>2020-08-06T10:51:55Z</time>
      </trkpt>
      <trkpt lat="41.0781040" lon="0.4793820">
        <ele>296.0</ele>
        <time>2020-08-06T10:51:56Z</time>
      </trkpt>
      <trkpt lat="41.0781040" lon="0.4793820">
        <ele>296.0</ele>
        <time>2020-08-06T10:51:58Z</time>
      </trkpt>
      <trkpt lat="41.0781040" lon="0.4793820">
        <ele>296.0</ele>
        <time>2020-08-06T10:51:59Z</time>
      </trkpt>
      <trkpt lat="41.0781040" lon="0.4793820">
        <ele>296.0</ele>
        <time>2020-08-06T10:52:01Z</time>
      </trkpt>
      <trkpt lat="41.0781040" lon="0.4793820">
        <ele>296.0</ele>
        <time>2020-08-06T10:52:02Z</time>
      </trkpt>
      <trkpt lat="41.0781040" lon="0.4793820">
        <ele>296.0</ele>
        <time>2020-08-06T10:52:03Z</time>
      </trkpt>
      <trkpt lat="41.0781040" lon="0.4793820">
        <ele>296.0</ele>
        <time>2020-08-06T10:52:04Z</time>
      </trkpt>
      <trkpt lat="41.0781040" lon="0.4793820">
        <ele>296.0</ele>
        <time>2020-08-06T10:52:05Z</time>
      </trkpt>
      <trkpt lat="41.0781040" lon="0.4793820">
        <ele>296.0</ele>
        <time>2020-08-06T10:52:06Z</time>
      </trkpt>
      <trkpt lat="41.0781040" lon="0.4793820">
        <ele>296.0</ele>
        <time>2020-08-06T10:52:07Z</time>
      </trkpt>
      <trkpt lat="41.0781040" lon="0.4793820">
        <ele>296.0</ele>
        <time>2020-08-06T10:52:13Z</time>
      </trkpt>
      <trkpt lat="41.0781040" lon="0.4793820">
        <ele>296.0</ele>
        <time>2020-08-06T10:52:14Z</time>
      </trkpt>
      <trkpt lat="41.0781040" lon="0.4793820">
        <ele>296.0</ele>
        <time>2020-08-06T10:52:16Z</time>
      </trkpt>
      <trkpt lat="41.0781040" lon="0.4793820">
        <ele>296.0</ele>
        <time>2020-08-06T10:52:18Z</time>
      </trkpt>
      <trkpt lat="41.0781040" lon="0.4793820">
        <ele>296.0</ele>
        <time>2020-08-06T10:52:20Z</time>
      </trkpt>
      <trkpt lat="41.0781040" lon="0.4793820">
        <ele>296.0</ele>
        <time>2020-08-06T10:52:22Z</time>
      </trkpt>
      <trkpt lat="41.0781040" lon="0.4793820">
        <ele>296.0</ele>
        <time>2020-08-06T10:52:23Z</time>
      </trkpt>
      <trkpt lat="41.0781040" lon="0.4793820">
        <ele>296.0</ele>
        <time>2020-08-06T10:52:24Z</time>
      </trkpt>
      <trkpt lat="41.0781040" lon="0.4793820">
        <ele>296.0</ele>
        <time>2020-08-06T10:52:25Z</time>
      </trkpt>
      <trkpt lat="41.0781040" lon="0.4793820">
        <ele>296.0</ele>
        <time>2020-08-06T10:52:27Z</time>
      </trkpt>
      <trkpt lat="41.0781040" lon="0.4793820">
        <ele>296.0</ele>
        <time>2020-08-06T10:52:30Z</time>
      </trkpt>
      <trkpt lat="41.0781040" lon="0.4793820">
        <ele>296.0</ele>
        <time>2020-08-06T10:52:32Z</time>
      </trkpt>
      <trkpt lat="41.0781040" lon="0.4793820">
        <ele>296.0</ele>
        <time>2020-08-06T10:52:33Z</time>
      </trkpt>
      <trkpt lat="41.0781040" lon="0.4793820">
        <ele>296.0</ele>
        <time>2020-08-06T10:52:34Z</time>
      </trkpt>
      <trkpt lat="41.0781040" lon="0.4793820">
        <ele>296.0</ele>
        <time>2020-08-06T10:52:35Z</time>
      </trkpt>
      <trkpt lat="41.0781040" lon="0.4793820">
        <ele>296.0</ele>
        <time>2020-08-06T10:52:36Z</time>
      </trkpt>
      <trkpt lat="41.0781040" lon="0.4793820">
        <ele>296.0</ele>
        <time>2020-08-06T10:52:37Z</time>
      </trkpt>
      <trkpt lat="41.0781040" lon="0.4793820">
        <ele>296.0</ele>
        <time>2020-08-06T10:52:38Z</time>
      </trkpt>
      <trkpt lat="41.0781040" lon="0.4793820">
        <ele>296.0</ele>
        <time>2020-08-06T10:52:40Z</time>
      </trkpt>
      <trkpt lat="41.0781040" lon="0.4793820">
        <ele>296.0</ele>
        <time>2020-08-06T10:52:41Z</time>
      </trkpt>
      <trkpt lat="41.0781040" lon="0.4793820">
        <ele>296.0</ele>
        <time>2020-08-06T10:52:43Z</time>
      </trkpt>
      <trkpt lat="41.0781040" lon="0.4793820">
        <ele>296.0</ele>
        <time>2020-08-06T10:52:45Z</time>
      </trkpt>
      <trkpt lat="41.0781040" lon="0.4793820">
        <ele>296.0</ele>
        <time>2020-08-06T10:52:46Z</time>
      </trkpt>
      <trkpt lat="41.0781040" lon="0.4793820">
        <ele>296.0</ele>
        <time>2020-08-06T10:52:48Z</time>
      </trkpt>
      <trkpt lat="41.0781040" lon="0.4793820">
        <ele>296.0</ele>
        <time>2020-08-06T10:52:50Z</time>
      </trkpt>
      <trkpt lat="41.0781040" lon="0.4793820">
        <ele>296.0</ele>
        <time>2020-08-06T10:52:51Z</time>
      </trkpt>
      <trkpt lat="41.0781040" lon="0.4793820">
        <ele>296.0</ele>
        <time>2020-08-06T10:52:53Z</time>
      </trkpt>
      <trkpt lat="41.0781040" lon="0.4793820">
        <ele>296.0</ele>
        <time>2020-08-06T10:52:55Z</time>
      </trkpt>
      <trkpt lat="41.0781040" lon="0.4793820">
        <ele>296.0</ele>
        <time>2020-08-06T10:52:56Z</time>
      </trkpt>
      <trkpt lat="41.0781040" lon="0.4793820">
        <ele>296.0</ele>
        <time>2020-08-06T10:52:58Z</time>
      </trkpt>
      <trkpt lat="41.0781040" lon="0.4793820">
        <ele>296.0</ele>
        <time>2020-08-06T10:52:59Z</time>
      </trkpt>
      <trkpt lat="41.0781040" lon="0.4793820">
        <ele>296.0</ele>
        <time>2020-08-06T10:53:00Z</time>
      </trkpt>
      <trkpt lat="41.0781040" lon="0.4793820">
        <ele>296.0</ele>
        <time>2020-08-06T10:53:02Z</time>
      </trkpt>
      <trkpt lat="41.0781040" lon="0.4793830">
        <ele>296.0</ele>
        <time>2020-08-06T10:53:03Z</time>
      </trkpt>
      <trkpt lat="41.0781040" lon="0.4793830">
        <ele>296.0</ele>
        <time>2020-08-06T10:53:05Z</time>
      </trkpt>
      <trkpt lat="41.0781040" lon="0.4793830">
        <ele>296.0</ele>
        <time>2020-08-06T10:53:06Z</time>
      </trkpt>
      <trkpt lat="41.0781040" lon="0.4793830">
        <ele>296.0</ele>
        <time>2020-08-06T10:53:08Z</time>
      </trkpt>
      <trkpt lat="41.0781040" lon="0.4793830">
        <ele>296.0</ele>
        <time>2020-08-06T10:53:09Z</time>
      </trkpt>
      <trkpt lat="41.0781040" lon="0.4793830">
        <ele>296.0</ele>
        <time>2020-08-06T10:53:11Z</time>
      </trkpt>
      <trkpt lat="41.0781040" lon="0.4793830">
        <ele>296.0</ele>
        <time>2020-08-06T10:53:13Z</time>
      </trkpt>
      <trkpt lat="41.0781040" lon="0.4793830">
        <ele>296.0</ele>
        <time>2020-08-06T10:53:14Z</time>
      </trkpt>
      <trkpt lat="41.0781040" lon="0.4793830">
        <ele>296.0</ele>
        <time>2020-08-06T10:53:15Z</time>
      </trkpt>
      <trkpt lat="41.0781040" lon="0.4793830">
        <ele>296.0</ele>
        <time>2020-08-06T10:53:16Z</time>
      </trkpt>
      <trkpt lat="41.0781040" lon="0.4793830">
        <ele>296.0</ele>
        <time>2020-08-06T10:53:18Z</time>
      </trkpt>
      <trkpt lat="41.0781040" lon="0.4793830">
        <ele>296.0</ele>
        <time>2020-08-06T10:53:19Z</time>
      </trkpt>
      <trkpt lat="41.0781040" lon="0.4793830">
        <ele>296.0</ele>
        <time>2020-08-06T10:53:20Z</time>
      </trkpt>
      <trkpt lat="41.0781040" lon="0.4793830">
        <ele>296.0</ele>
        <time>2020-08-06T10:53:22Z</time>
      </trkpt>
      <trkpt lat="41.0781040" lon="0.4793820">
        <ele>296.0</ele>
        <time>2020-08-06T10:53:23Z</time>
      </trkpt>
      <trkpt lat="41.0781040" lon="0.4793820">
        <ele>296.0</ele>
        <time>2020-08-06T10:53:24Z</time>
      </trkpt>
      <trkpt lat="41.0781040" lon="0.4793820">
        <ele>296.0</ele>
        <time>2020-08-06T10:53:26Z</time>
      </trkpt>
      <trkpt lat="41.0781040" lon="0.4793820">
        <ele>296.0</ele>
        <time>2020-08-06T10:53:27Z</time>
      </trkpt>
      <trkpt lat="41.0781040" lon="0.4793820">
        <ele>296.0</ele>
        <time>2020-08-06T10:53:28Z</time>
      </trkpt>
      <trkpt lat="41.0781040" lon="0.4793820">
        <ele>296.0</ele>
        <time>2020-08-06T10:53:29Z</time>
      </trkpt>
      <trkpt lat="41.0781040" lon="0.4793820">
        <ele>296.0</ele>
        <time>2020-08-06T10:53:31Z</time>
      </trkpt>
      <trkpt lat="41.0781040" lon="0.4793820">
        <ele>296.0</ele>
        <time>2020-08-06T10:53:32Z</time>
      </trkpt>
      <trkpt lat="41.0781040" lon="0.4793820">
        <ele>296.0</ele>
        <time>2020-08-06T10:53:34Z</time>
      </trkpt>
      <trkpt lat="41.0781040" lon="0.4793820">
        <ele>296.0</ele>
        <time>2020-08-06T10:53:35Z</time>
      </trkpt>
      <trkpt lat="41.0781040" lon="0.4793820">
        <ele>296.0</ele>
        <time>2020-08-06T10:53:37Z</time>
      </trkpt>
      <trkpt lat="41.0781040" lon="0.4793820">
        <ele>296.0</ele>
        <time>2020-08-06T10:53:38Z</time>
      </trkpt>
      <trkpt lat="41.0781040" lon="0.4793820">
        <ele>296.0</ele>
        <time>2020-08-06T10:53:40Z</time>
      </trkpt>
      <trkpt lat="41.0781040" lon="0.4793820">
        <ele>296.0</ele>
        <time>2020-08-06T10:53:41Z</time>
      </trkpt>
      <trkpt lat="41.0781040" lon="0.4793820">
        <ele>296.0</ele>
        <time>2020-08-06T10:53:42Z</time>
      </trkpt>
      <trkpt lat="41.0781040" lon="0.4793820">
        <ele>296.0</ele>
        <time>2020-08-06T10:53:43Z</time>
      </trkpt>
      <trkpt lat="41.0781040" lon="0.4793820">
        <ele>296.0</ele>
        <time>2020-08-06T10:53:45Z</time>
      </trkpt>
      <trkpt lat="41.0781040" lon="0.4793820">
        <ele>296.0</ele>
        <time>2020-08-06T10:53:47Z</time>
      </trkpt>
      <trkpt lat="41.0781040" lon="0.4793820">
        <ele>296.0</ele>
        <time>2020-08-06T10:53:48Z</time>
      </trkpt>
      <trkpt lat="41.0781040" lon="0.4793820">
        <ele>296.0</ele>
        <time>2020-08-06T10:53:49Z</time>
      </trkpt>
      <trkpt lat="41.0781040" lon="0.4793820">
        <ele>296.0</ele>
        <time>2020-08-06T10:53:50Z</time>
      </trkpt>
      <trkpt lat="41.0781040" lon="0.4793820">
        <ele>296.0</ele>
        <time>2020-08-06T10:53:51Z</time>
      </trkpt>
      <trkpt lat="41.0781040" lon="0.4793820">
        <ele>296.0</ele>
        <time>2020-08-06T10:53:52Z</time>
      </trkpt>
      <trkpt lat="41.0781040" lon="0.4793820">
        <ele>296.0</ele>
        <time>2020-08-06T10:53:54Z</time>
      </trkpt>
      <trkpt lat="41.0781040" lon="0.4793820">
        <ele>296.0</ele>
        <time>2020-08-06T10:53:56Z</time>
      </trkpt>
      <trkpt lat="41.0781040" lon="0.4793820">
        <ele>296.0</ele>
        <time>2020-08-06T10:53:57Z</time>
      </trkpt>
      <trkpt lat="41.0781040" lon="0.4793820">
        <ele>296.0</ele>
        <time>2020-08-06T10:53:58Z</time>
      </trkpt>
      <trkpt lat="41.0781040" lon="0.4793820">
        <ele>296.0</ele>
        <time>2020-08-06T10:53:59Z</time>
      </trkpt>
      <trkpt lat="41.0781040" lon="0.4793820">
        <ele>296.0</ele>
        <time>2020-08-06T10:54:01Z</time>
      </trkpt>
      <trkpt lat="41.0781040" lon="0.4793820">
        <ele>296.0</ele>
        <time>2020-08-06T10:54:02Z</time>
      </trkpt>
      <trkpt lat="41.0781040" lon="0.4793820">
        <ele>296.0</ele>
        <time>2020-08-06T10:54:04Z</time>
      </trkpt>
      <trkpt lat="41.0781040" lon="0.4793820">
        <ele>296.0</ele>
        <time>2020-08-06T10:54:06Z</time>
      </trkpt>
      <trkpt lat="41.0781040" lon="0.4793820">
        <ele>296.0</ele>
        <time>2020-08-06T10:54:08Z</time>
      </trkpt>
      <trkpt lat="41.0781050" lon="0.4793820">
        <ele>296.0</ele>
        <time>2020-08-06T10:54:10Z</time>
      </trkpt>
      <trkpt lat="41.0781050" lon="0.4793820">
        <ele>296.0</ele>
        <time>2020-08-06T10:54:11Z</time>
      </trkpt>
      <trkpt lat="41.0781050" lon="0.4793820">
        <ele>296.0</ele>
        <time>2020-08-06T10:54:13Z</time>
      </trkpt>
      <trkpt lat="41.0781050" lon="0.4793820">
        <ele>296.0</ele>
        <time>2020-08-06T10:54:14Z</time>
      </trkpt>
      <trkpt lat="41.0781050" lon="0.4793820">
        <ele>296.0</ele>
        <time>2020-08-06T10:54:15Z</time>
      </trkpt>
      <trkpt lat="41.0781050" lon="0.4793820">
        <ele>296.0</ele>
        <time>2020-08-06T10:54:17Z</time>
      </trkpt>
      <trkpt lat="41.0781050" lon="0.4793820">
        <ele>296.0</ele>
        <time>2020-08-06T10:54:18Z</time>
      </trkpt>
      <trkpt lat="41.0781050" lon="0.4793820">
        <ele>296.0</ele>
        <time>2020-08-06T10:54:20Z</time>
      </trkpt>
      <trkpt lat="41.0781050" lon="0.4793820">
        <ele>296.0</ele>
        <time>2020-08-06T10:54:22Z</time>
      </trkpt>
      <trkpt lat="41.0781050" lon="0.4793820">
        <ele>296.0</ele>
        <time>2020-08-06T10:54:24Z</time>
      </trkpt>
      <trkpt lat="41.0781050" lon="0.4793820">
        <ele>296.0</ele>
        <time>2020-08-06T10:54:25Z</time>
      </trkpt>
      <trkpt lat="41.0781050" lon="0.4793820">
        <ele>296.0</ele>
        <time>2020-08-06T10:54:27Z</time>
      </trkpt>
      <trkpt lat="41.0781050" lon="0.4793820">
        <ele>296.0</ele>
        <time>2020-08-06T10:54:28Z</time>
      </trkpt>
      <trkpt lat="41.0781050" lon="0.4793820">
        <ele>296.0</ele>
        <time>2020-08-06T10:54:30Z</time>
      </trkpt>
      <trkpt lat="41.0781050" lon="0.4793820">
        <ele>296.0</ele>
        <time>2020-08-06T10:54:32Z</time>
      </trkpt>
      <trkpt lat="41.0781050" lon="0.4793820">
        <ele>296.0</ele>
        <time>2020-08-06T10:54:33Z</time>
      </trkpt>
      <trkpt lat="41.0781050" lon="0.4793820">
        <ele>296.0</ele>
        <time>2020-08-06T10:54:35Z</time>
      </trkpt>
      <trkpt lat="41.0781050" lon="0.4793820">
        <ele>296.0</ele>
        <time>2020-08-06T10:54:36Z</time>
      </trkpt>
      <trkpt lat="41.0781050" lon="0.4793820">
        <ele>296.0</ele>
        <time>2020-08-06T10:54:38Z</time>
      </trkpt>
      <trkpt lat="41.0781050" lon="0.4793820">
        <ele>296.0</ele>
        <time>2020-08-06T10:54:39Z</time>
      </trkpt>
      <trkpt lat="41.0781050" lon="0.4793820">
        <ele>296.0</ele>
        <time>2020-08-06T10:54:41Z</time>
      </trkpt>
      <trkpt lat="41.0781050" lon="0.4793820">
        <ele>296.0</ele>
        <time>2020-08-06T10:54:42Z</time>
      </trkpt>
      <trkpt lat="41.0781050" lon="0.4793820">
        <ele>296.0</ele>
        <time>2020-08-06T10:54:43Z</time>
      </trkpt>
      <trkpt lat="41.0781050" lon="0.4793820">
        <ele>296.0</ele>
        <time>2020-08-06T10:54:45Z</time>
      </trkpt>
      <trkpt lat="41.0781040" lon="0.4793820">
        <ele>296.0</ele>
        <time>2020-08-06T10:54:47Z</time>
      </trkpt>
      <trkpt lat="41.0781040" lon="0.4793820">
        <ele>296.0</ele>
        <time>2020-08-06T10:54:48Z</time>
      </trkpt>
      <trkpt lat="41.0781040" lon="0.4793820">
        <ele>296.0</ele>
        <time>2020-08-06T10:54:50Z</time>
      </trkpt>
      <trkpt lat="41.0781040" lon="0.4793820">
        <ele>296.0</ele>
        <time>2020-08-06T10:54:52Z</time>
      </trkpt>
      <trkpt lat="41.0781040" lon="0.4793820">
        <ele>296.0</ele>
        <time>2020-08-06T10:54:53Z</time>
      </trkpt>
      <trkpt lat="41.0781040" lon="0.4793820">
        <ele>296.0</ele>
        <time>2020-08-06T10:54:54Z</time>
      </trkpt>
      <trkpt lat="41.0781040" lon="0.4793820">
        <ele>296.0</ele>
        <time>2020-08-06T10:54:55Z</time>
      </trkpt>
      <trkpt lat="41.0781040" lon="0.4793820">
        <ele>296.0</ele>
        <time>2020-08-06T10:54:57Z</time>
      </trkpt>
      <trkpt lat="41.0781040" lon="0.4793820">
        <ele>296.0</ele>
        <time>2020-08-06T10:54:58Z</time>
      </trkpt>
      <trkpt lat="41.0781040" lon="0.4793820">
        <ele>296.0</ele>
        <time>2020-08-06T10:54:59Z</time>
      </trkpt>
      <trkpt lat="41.0781040" lon="0.4793820">
        <ele>296.0</ele>
        <time>2020-08-06T10:55:00Z</time>
      </trkpt>
      <trkpt lat="41.0781040" lon="0.4793820">
        <ele>296.0</ele>
        <time>2020-08-06T10:55:02Z</time>
      </trkpt>
      <trkpt lat="41.0781040" lon="0.4793820">
        <ele>296.0</ele>
        <time>2020-08-06T10:55:03Z</time>
      </trkpt>
      <trkpt lat="41.0781040" lon="0.4793820">
        <ele>296.0</ele>
        <time>2020-08-06T10:55:04Z</time>
      </trkpt>
      <trkpt lat="41.0781040" lon="0.4793820">
        <ele>296.0</ele>
        <time>2020-08-06T10:55:05Z</time>
      </trkpt>
      <trkpt lat="41.0781040" lon="0.4793820">
        <ele>296.0</ele>
        <time>2020-08-06T10:55:07Z</time>
      </trkpt>
      <trkpt lat="41.0781040" lon="0.4793820">
        <ele>296.0</ele>
        <time>2020-08-06T10:55:08Z</time>
      </trkpt>
      <trkpt lat="41.0781040" lon="0.4793830">
        <ele>296.0</ele>
        <time>2020-08-06T10:55:10Z</time>
      </trkpt>
      <trkpt lat="41.0781040" lon="0.4793830">
        <ele>296.0</ele>
        <time>2020-08-06T10:55:12Z</time>
      </trkpt>
      <trkpt lat="41.0781040" lon="0.4793830">
        <ele>296.0</ele>
        <time>2020-08-06T10:55:13Z</time>
      </trkpt>
      <trkpt lat="41.0781040" lon="0.4793830">
        <ele>296.0</ele>
        <time>2020-08-06T10:55:14Z</time>
      </trkpt>
      <trkpt lat="41.0781040" lon="0.4793830">
        <ele>296.0</ele>
        <time>2020-08-06T10:55:15Z</time>
      </trkpt>
      <trkpt lat="41.0781040" lon="0.4793830">
        <ele>296.0</ele>
        <time>2020-08-06T10:55:16Z</time>
      </trkpt>
      <trkpt lat="41.0781040" lon="0.4793830">
        <ele>296.0</ele>
        <time>2020-08-06T10:55:18Z</time>
      </trkpt>
      <trkpt lat="41.0781040" lon="0.4793830">
        <ele>296.0</ele>
        <time>2020-08-06T10:55:19Z</time>
      </trkpt>
      <trkpt lat="41.0781040" lon="0.4793830">
        <ele>296.0</ele>
        <time>2020-08-06T10:55:20Z</time>
      </trkpt>
      <trkpt lat="41.0781040" lon="0.4793830">
        <ele>296.0</ele>
        <time>2020-08-06T10:55:22Z</time>
      </trkpt>
      <trkpt lat="41.0781040" lon="0.4793830">
        <ele>296.0</ele>
        <time>2020-08-06T10:55:23Z</time>
      </trkpt>
      <trkpt lat="41.0781040" lon="0.4793830">
        <ele>296.0</ele>
        <time>2020-08-06T10:55:24Z</time>
      </trkpt>
      <trkpt lat="41.0781040" lon="0.4793830">
        <ele>296.0</ele>
        <time>2020-08-06T10:55:25Z</time>
      </trkpt>
      <trkpt lat="41.0781040" lon="0.4793830">
        <ele>296.0</ele>
        <time>2020-08-06T10:55:26Z</time>
      </trkpt>
      <trkpt lat="41.0781040" lon="0.4793830">
        <ele>296.0</ele>
        <time>2020-08-06T10:55:27Z</time>
      </trkpt>
      <trkpt lat="41.0781040" lon="0.4793830">
        <ele>296.0</ele>
        <time>2020-08-06T10:55:29Z</time>
      </trkpt>
      <trkpt lat="41.0781040" lon="0.4793830">
        <ele>296.0</ele>
        <time>2020-08-06T10:55:30Z</time>
      </trkpt>
      <trkpt lat="41.0781040" lon="0.4793830">
        <ele>296.0</ele>
        <time>2020-08-06T10:55:31Z</time>
      </trkpt>
      <trkpt lat="41.0781040" lon="0.4793830">
        <ele>296.0</ele>
        <time>2020-08-06T10:55:33Z</time>
      </trkpt>
      <trkpt lat="41.0781040" lon="0.4793830">
        <ele>296.0</ele>
        <time>2020-08-06T10:55:34Z</time>
      </trkpt>
      <trkpt lat="41.0781040" lon="0.4793830">
        <ele>296.0</ele>
        <time>2020-08-06T10:55:36Z</time>
      </trkpt>
      <trkpt lat="41.0781040" lon="0.4793830">
        <ele>296.0</ele>
        <time>2020-08-06T10:55:37Z</time>
      </trkpt>
      <trkpt lat="41.0781040" lon="0.4793830">
        <ele>296.0</ele>
        <time>2020-08-06T10:55:38Z</time>
      </trkpt>
      <trkpt lat="41.0781040" lon="0.4793830">
        <ele>296.0</ele>
        <time>2020-08-06T10:55:39Z</time>
      </trkpt>
      <trkpt lat="41.0781040" lon="0.4793830">
        <ele>296.0</ele>
        <time>2020-08-06T10:55:40Z</time>
      </trkpt>
      <trkpt lat="41.0781040" lon="0.4793830">
        <ele>296.0</ele>
        <time>2020-08-06T10:55:42Z</time>
      </trkpt>
      <trkpt lat="41.0781040" lon="0.4793830">
        <ele>296.0</ele>
        <time>2020-08-06T10:55:44Z</time>
      </trkpt>
      <trkpt lat="41.0781040" lon="0.4793830">
        <ele>296.0</ele>
        <time>2020-08-06T10:55:45Z</time>
      </trkpt>
      <trkpt lat="41.0781040" lon="0.4793830">
        <ele>296.0</ele>
        <time>2020-08-06T10:55:46Z</time>
      </trkpt>
      <trkpt lat="41.0781040" lon="0.4793830">
        <ele>296.0</ele>
        <time>2020-08-06T10:55:47Z</time>
      </trkpt>
      <trkpt lat="41.0781040" lon="0.4793830">
        <ele>296.0</ele>
        <time>2020-08-06T10:55:49Z</time>
      </trkpt>
      <trkpt lat="41.0781030" lon="0.4793830">
        <ele>296.0</ele>
        <time>2020-08-06T10:55:51Z</time>
      </trkpt>
      <trkpt lat="41.0781030" lon="0.4793830">
        <ele>296.0</ele>
        <time>2020-08-06T10:55:53Z</time>
      </trkpt>
      <trkpt lat="41.0781030" lon="0.4793830">
        <ele>296.0</ele>
        <time>2020-08-06T10:55:54Z</time>
      </trkpt>
      <trkpt lat="41.0781030" lon="0.4793830">
        <ele>296.0</ele>
        <time>2020-08-06T10:55:55Z</time>
      </trkpt>
      <trkpt lat="41.0781030" lon="0.4793830">
        <ele>296.0</ele>
        <time>2020-08-06T10:55:57Z</time>
      </trkpt>
      <trkpt lat="41.0781030" lon="0.4793830">
        <ele>296.0</ele>
        <time>2020-08-06T10:55:58Z</time>
      </trkpt>
      <trkpt lat="41.0781030" lon="0.4793830">
        <ele>296.0</ele>
        <time>2020-08-06T10:56:00Z</time>
      </trkpt>
      <trkpt lat="41.0781030" lon="0.4793830">
        <ele>296.0</ele>
        <time>2020-08-06T10:56:01Z</time>
      </trkpt>
      <trkpt lat="41.0781030" lon="0.4793830">
        <ele>296.0</ele>
        <time>2020-08-06T10:56:02Z</time>
      </trkpt>
      <trkpt lat="41.0781030" lon="0.4793830">
        <ele>296.0</ele>
        <time>2020-08-06T10:56:03Z</time>
      </trkpt>
      <trkpt lat="41.0781030" lon="0.4793830">
        <ele>296.0</ele>
        <time>2020-08-06T10:56:05Z</time>
      </trkpt>
      <trkpt lat="41.0781030" lon="0.4793830">
        <ele>296.0</ele>
        <time>2020-08-06T10:56:07Z</time>
      </trkpt>
      <trkpt lat="41.0781030" lon="0.4793830">
        <ele>296.0</ele>
        <time>2020-08-06T10:56:08Z</time>
      </trkpt>
      <trkpt lat="41.0781030" lon="0.4793830">
        <ele>296.0</ele>
        <time>2020-08-06T10:56:10Z</time>
      </trkpt>
      <trkpt lat="41.0781030" lon="0.4793830">
        <ele>296.0</ele>
        <time>2020-08-06T10:56:11Z</time>
      </trkpt>
      <trkpt lat="41.0781030" lon="0.4793830">
        <ele>296.0</ele>
        <time>2020-08-06T10:56:13Z</time>
      </trkpt>
      <trkpt lat="41.0781030" lon="0.4793830">
        <ele>296.0</ele>
        <time>2020-08-06T10:56:14Z</time>
      </trkpt>
      <trkpt lat="41.0781030" lon="0.4793830">
        <ele>296.0</ele>
        <time>2020-08-06T10:56:16Z</time>
      </trkpt>
      <trkpt lat="41.0781030" lon="0.4793830">
        <ele>296.0</ele>
        <time>2020-08-06T10:56:17Z</time>
      </trkpt>
      <trkpt lat="41.0781030" lon="0.4793830">
        <ele>296.0</ele>
        <time>2020-08-06T10:56:18Z</time>
      </trkpt>
      <trkpt lat="41.0781030" lon="0.4793830">
        <ele>296.0</ele>
        <time>2020-08-06T10:56:20Z</time>
      </trkpt>
      <trkpt lat="41.0781030" lon="0.4793830">
        <ele>296.0</ele>
        <time>2020-08-06T10:56:21Z</time>
      </trkpt>
      <trkpt lat="41.0781030" lon="0.4793830">
        <ele>296.0</ele>
        <time>2020-08-06T10:56:23Z</time>
      </trkpt>
      <trkpt lat="41.0781030" lon="0.4793830">
        <ele>296.0</ele>
        <time>2020-08-06T10:56:24Z</time>
      </trkpt>
      <trkpt lat="41.0781030" lon="0.4793830">
        <ele>296.0</ele>
        <time>2020-08-06T10:56:26Z</time>
      </trkpt>
      <trkpt lat="41.0781030" lon="0.4793830">
        <ele>296.0</ele>
        <time>2020-08-06T10:56:27Z</time>
      </trkpt>
      <trkpt lat="41.0781030" lon="0.4793830">
        <ele>296.0</ele>
        <time>2020-08-06T10:56:29Z</time>
      </trkpt>
      <trkpt lat="41.0781030" lon="0.4793830">
        <ele>296.0</ele>
        <time>2020-08-06T10:56:31Z</time>
      </trkpt>
      <trkpt lat="41.0781030" lon="0.4793830">
        <ele>296.0</ele>
        <time>2020-08-06T10:56:33Z</time>
      </trkpt>
      <trkpt lat="41.0781030" lon="0.4793830">
        <ele>296.0</ele>
        <time>2020-08-06T10:56:34Z</time>
      </trkpt>
      <trkpt lat="41.0781030" lon="0.4793830">
        <ele>296.0</ele>
        <time>2020-08-06T10:56:36Z</time>
      </trkpt>
      <trkpt lat="41.0781020" lon="0.4793830">
        <ele>296.0</ele>
        <time>2020-08-06T10:56:37Z</time>
      </trkpt>
      <trkpt lat="41.0781010" lon="0.4793860">
        <ele>296.0</ele>
        <time>2020-08-06T10:56:39Z</time>
      </trkpt>
      <trkpt lat="41.0781000" lon="0.4793870">
        <ele>296.0</ele>
        <time>2020-08-06T10:56:40Z</time>
      </trkpt>
      <trkpt lat="41.0780990" lon="0.4793870">
        <ele>296.0</ele>
        <time>2020-08-06T10:56:41Z</time>
      </trkpt>
      <trkpt lat="41.0780980" lon="0.4793860">
        <ele>296.0</ele>
        <time>2020-08-06T10:56:42Z</time>
      </trkpt>
      <trkpt lat="41.0780950" lon="0.4793830">
        <ele>296.1</ele>
        <time>2020-08-06T10:56:44Z</time>
      </trkpt>
      <trkpt lat="41.0780950" lon="0.4793800">
        <ele>296.1</ele>
        <time>2020-08-06T10:56:45Z</time>
      </trkpt>
      <trkpt lat="41.0780940" lon="0.4793780">
        <ele>296.1</ele>
        <time>2020-08-06T10:56:46Z</time>
      </trkpt>
      <trkpt lat="41.0780940" lon="0.4793770">
        <ele>296.1</ele>
        <time>2020-08-06T10:56:47Z</time>
      </trkpt>
      <trkpt lat="41.0780940" lon="0.4793760">
        <ele>296.1</ele>
        <time>2020-08-06T10:56:48Z</time>
      </trkpt>
      <trkpt lat="41.0780930" lon="0.4793750">
        <ele>296.1</ele>
        <time>2020-08-06T10:56:49Z</time>
      </trkpt>
      <trkpt lat="41.0780930" lon="0.4793750">
        <ele>296.1</ele>
        <time>2020-08-06T10:56:50Z</time>
      </trkpt>
      <trkpt lat="41.0780930" lon="0.4793750">
        <ele>296.1</ele>
        <time>2020-08-06T10:56:52Z</time>
      </trkpt>
      <trkpt lat="41.0780930" lon="0.4793750">
        <ele>296.1</ele>
        <time>2020-08-06T10:56:53Z</time>
      </trkpt>
      <trkpt lat="41.0780940" lon="0.4793750">
        <ele>296.1</ele>
        <time>2020-08-06T10:56:54Z</time>
      </trkpt>
      <trkpt lat="41.0780940" lon="0.4793750">
        <ele>296.1</ele>
        <time>2020-08-06T10:56:56Z</time>
      </trkpt>
      <trkpt lat="41.0780940" lon="0.4793760">
        <ele>296.1</ele>
        <time>2020-08-06T10:56:58Z</time>
      </trkpt>
      <trkpt lat="41.0780940" lon="0.4793760">
        <ele>296.1</ele>
        <time>2020-08-06T10:56:59Z</time>
      </trkpt>
      <trkpt lat="41.0780930" lon="0.4793760">
        <ele>296.1</ele>
        <time>2020-08-06T10:57:00Z</time>
      </trkpt>
      <trkpt lat="41.0780930" lon="0.4793760">
        <ele>296.1</ele>
        <time>2020-08-06T10:57:01Z</time>
      </trkpt>
      <trkpt lat="41.0780930" lon="0.4793760">
        <ele>296.1</ele>
        <time>2020-08-06T10:57:03Z</time>
      </trkpt>
      <trkpt lat="41.0780930" lon="0.4793760">
        <ele>296.1</ele>
        <time>2020-08-06T10:57:05Z</time>
      </trkpt>
      <trkpt lat="41.0780930" lon="0.4793760">
        <ele>296.1</ele>
        <time>2020-08-06T10:57:07Z</time>
      </trkpt>
      <trkpt lat="41.0780930" lon="0.4793760">
        <ele>296.1</ele>
        <time>2020-08-06T10:57:08Z</time>
      </trkpt>
      <trkpt lat="41.0780930" lon="0.4793760">
        <ele>296.1</ele>
        <time>2020-08-06T10:57:09Z</time>
      </trkpt>
      <trkpt lat="41.0780930" lon="0.4793760">
        <ele>296.1</ele>
        <time>2020-08-06T10:57:10Z</time>
      </trkpt>
      <trkpt lat="41.0780930" lon="0.4793760">
        <ele>296.1</ele>
        <time>2020-08-06T10:57:11Z</time>
      </trkpt>
      <trkpt lat="41.0780930" lon="0.4793760">
        <ele>296.1</ele>
        <time>2020-08-06T10:57:13Z</time>
      </trkpt>
      <trkpt lat="41.0780930" lon="0.4793760">
        <ele>296.1</ele>
        <time>2020-08-06T10:57:14Z</time>
      </trkpt>
      <trkpt lat="41.0780930" lon="0.4793760">
        <ele>296.1</ele>
        <time>2020-08-06T10:57:15Z</time>
      </trkpt>
      <trkpt lat="41.0780930" lon="0.4793760">
        <ele>296.1</ele>
        <time>2020-08-06T10:57:16Z</time>
      </trkpt>
      <trkpt lat="41.0780930" lon="0.4793760">
        <ele>296.1</ele>
        <time>2020-08-06T10:57:18Z</time>
      </trkpt>
      <trkpt lat="41.0780930" lon="0.4793760">
        <ele>296.1</ele>
        <time>2020-08-06T10:57:20Z</time>
      </trkpt>
      <trkpt lat="41.0780930" lon="0.4793760">
        <ele>296.1</ele>
        <time>2020-08-06T10:57:22Z</time>
      </trkpt>
      <trkpt lat="41.0780930" lon="0.4793760">
        <ele>296.1</ele>
        <time>2020-08-06T10:57:23Z</time>
      </trkpt>
      <trkpt lat="41.0780930" lon="0.4793760">
        <ele>296.1</ele>
        <time>2020-08-06T10:57:24Z</time>
      </trkpt>
      <trkpt lat="41.0780930" lon="0.4793760">
        <ele>296.1</ele>
        <time>2020-08-06T10:57:26Z</time>
      </trkpt>
      <trkpt lat="41.0780930" lon="0.4793760">
        <ele>296.1</ele>
        <time>2020-08-06T10:57:27Z</time>
      </trkpt>
      <trkpt lat="41.0780930" lon="0.4793760">
        <ele>296.1</ele>
        <time>2020-08-06T10:57:29Z</time>
      </trkpt>
      <trkpt lat="41.0780930" lon="0.4793760">
        <ele>296.1</ele>
        <time>2020-08-06T10:57:31Z</time>
      </trkpt>
      <trkpt lat="41.0780930" lon="0.4793760">
        <ele>296.1</ele>
        <time>2020-08-06T10:57:32Z</time>
      </trkpt>
      <trkpt lat="41.0780930" lon="0.4793760">
        <ele>296.1</ele>
        <time>2020-08-06T10:57:33Z</time>
      </trkpt>
      <trkpt lat="41.0780930" lon="0.4793760">
        <ele>296.1</ele>
        <time>2020-08-06T10:57:34Z</time>
      </trkpt>
      <trkpt lat="41.0780930" lon="0.4793760">
        <ele>296.1</ele>
        <time>2020-08-06T10:57:36Z</time>
      </trkpt>
      <trkpt lat="41.0780930" lon="0.4793760">
        <ele>296.1</ele>
        <time>2020-08-06T10:57:37Z</time>
      </trkpt>
      <trkpt lat="41.0780930" lon="0.4793760">
        <ele>296.1</ele>
        <time>2020-08-06T10:57:39Z</time>
      </trkpt>
      <trkpt lat="41.0780930" lon="0.4793760">
        <ele>296.1</ele>
        <time>2020-08-06T10:57:41Z</time>
      </trkpt>
      <trkpt lat="41.0780930" lon="0.4793760">
        <ele>296.1</ele>
        <time>2020-08-06T10:57:43Z</time>
      </trkpt>
      <trkpt lat="41.0780930" lon="0.4793760">
        <ele>296.1</ele>
        <time>2020-08-06T10:57:44Z</time>
      </trkpt>
      <trkpt lat="41.0780930" lon="0.4793760">
        <ele>296.1</ele>
        <time>2020-08-06T10:57:46Z</time>
      </trkpt>
      <trkpt lat="41.0780930" lon="0.4793760">
        <ele>296.1</ele>
        <time>2020-08-06T10:57:48Z</time>
      </trkpt>
      <trkpt lat="41.0780930" lon="0.4793760">
        <ele>296.1</ele>
        <time>2020-08-06T10:57:50Z</time>
      </trkpt>
      <trkpt lat="41.0780930" lon="0.4793760">
        <ele>296.1</ele>
        <time>2020-08-06T10:57:51Z</time>
      </trkpt>
      <trkpt lat="41.0780930" lon="0.4793760">
        <ele>296.1</ele>
        <time>2020-08-06T10:57:52Z</time>
      </trkpt>
      <trkpt lat="41.0780930" lon="0.4793760">
        <ele>296.1</ele>
        <time>2020-08-06T10:57:54Z</time>
      </trkpt>
      <trkpt lat="41.0780930" lon="0.4793760">
        <ele>296.1</ele>
        <time>2020-08-06T10:57:55Z</time>
      </trkpt>
      <trkpt lat="41.0780930" lon="0.4793750">
        <ele>296.1</ele>
        <time>2020-08-06T10:57:57Z</time>
      </trkpt>
      <trkpt lat="41.0780930" lon="0.4793750">
        <ele>296.1</ele>
        <time>2020-08-06T10:57:58Z</time>
      </trkpt>
      <trkpt lat="41.0780930" lon="0.4793750">
        <ele>296.1</ele>
        <time>2020-08-06T10:57:59Z</time>
      </trkpt>
      <trkpt lat="41.0780930" lon="0.4793750">
        <ele>296.1</ele>
        <time>2020-08-06T10:58:00Z</time>
      </trkpt>
      <trkpt lat="41.0780930" lon="0.4793750">
        <ele>296.1</ele>
        <time>2020-08-06T10:58:01Z</time>
      </trkpt>
      <trkpt lat="41.0780930" lon="0.4793750">
        <ele>296.1</ele>
        <time>2020-08-06T10:58:02Z</time>
      </trkpt>
      <trkpt lat="41.0780930" lon="0.4793750">
        <ele>296.1</ele>
        <time>2020-08-06T10:58:03Z</time>
      </trkpt>
      <trkpt lat="41.0780930" lon="0.4793750">
        <ele>296.1</ele>
        <time>2020-08-06T10:58:05Z</time>
      </trkpt>
      <trkpt lat="41.0780930" lon="0.4793750">
        <ele>296.1</ele>
        <time>2020-08-06T10:58:06Z</time>
      </trkpt>
      <trkpt lat="41.0780930" lon="0.4793750">
        <ele>296.1</ele>
        <time>2020-08-06T10:58:07Z</time>
      </trkpt>
      <trkpt lat="41.0780930" lon="0.4793750">
        <ele>296.1</ele>
        <time>2020-08-06T10:58:09Z</time>
      </trkpt>
      <trkpt lat="41.0780930" lon="0.4793750">
        <ele>296.1</ele>
        <time>2020-08-06T10:58:10Z</time>
      </trkpt>
      <trkpt lat="41.0780930" lon="0.4793750">
        <ele>296.1</ele>
        <time>2020-08-06T10:58:11Z</time>
      </trkpt>
      <trkpt lat="41.0780930" lon="0.4793750">
        <ele>296.1</ele>
        <time>2020-08-06T10:58:12Z</time>
      </trkpt>
      <trkpt lat="41.0780930" lon="0.4793750">
        <ele>296.1</ele>
        <time>2020-08-06T10:58:13Z</time>
      </trkpt>
      <trkpt lat="41.0780930" lon="0.4793750">
        <ele>296.1</ele>
        <time>2020-08-06T10:58:15Z</time>
      </trkpt>
      <trkpt lat="41.0780930" lon="0.4793750">
        <ele>296.1</ele>
        <time>2020-08-06T10:58:17Z</time>
      </trkpt>
      <trkpt lat="41.0780930" lon="0.4793750">
        <ele>296.1</ele>
        <time>2020-08-06T10:58:18Z</time>
      </trkpt>
      <trkpt lat="41.0780930" lon="0.4793750">
        <ele>296.1</ele>
        <time>2020-08-06T10:58:19Z</time>
      </trkpt>
      <trkpt lat="41.0780930" lon="0.4793750">
        <ele>296.1</ele>
        <time>2020-08-06T10:58:21Z</time>
      </trkpt>
      <trkpt lat="41.0780930" lon="0.4793740">
        <ele>296.1</ele>
        <time>2020-08-06T10:58:23Z</time>
      </trkpt>
      <trkpt lat="41.0780930" lon="0.4793740">
        <ele>296.1</ele>
        <time>2020-08-06T10:58:24Z</time>
      </trkpt>
      <trkpt lat="41.0780930" lon="0.4793740">
        <ele>296.1</ele>
        <time>2020-08-06T10:58:25Z</time>
      </trkpt>
      <trkpt lat="41.0780930" lon="0.4793740">
        <ele>296.1</ele>
        <time>2020-08-06T10:58:27Z</time>
      </trkpt>
      <trkpt lat="41.0780930" lon="0.4793740">
        <ele>296.1</ele>
        <time>2020-08-06T10:58:28Z</time>
      </trkpt>
      <trkpt lat="41.0780930" lon="0.4793740">
        <ele>296.1</ele>
        <time>2020-08-06T10:58:29Z</time>
      </trkpt>
      <trkpt lat="41.0780930" lon="0.4793740">
        <ele>296.1</ele>
        <time>2020-08-06T10:58:31Z</time>
      </trkpt>
      <trkpt lat="41.0780930" lon="0.4793740">
        <ele>296.1</ele>
        <time>2020-08-06T10:58:32Z</time>
      </trkpt>
      <trkpt lat="41.0780930" lon="0.4793740">
        <ele>296.1</ele>
        <time>2020-08-06T10:58:33Z</time>
      </trkpt>
      <trkpt lat="41.0780930" lon="0.4793740">
        <ele>296.1</ele>
        <time>2020-08-06T10:58:34Z</time>
      </trkpt>
      <trkpt lat="41.0780930" lon="0.4793740">
        <ele>296.1</ele>
        <time>2020-08-06T10:58:36Z</time>
      </trkpt>
      <trkpt lat="41.0780930" lon="0.4793740">
        <ele>296.1</ele>
        <time>2020-08-06T10:58:37Z</time>
      </trkpt>
      <trkpt lat="41.0780930" lon="0.4793740">
        <ele>296.1</ele>
        <time>2020-08-06T10:58:39Z</time>
      </trkpt>
      <trkpt lat="41.0780930" lon="0.4793740">
        <ele>296.1</ele>
        <time>2020-08-06T10:58:40Z</time>
      </trkpt>
      <trkpt lat="41.0780930" lon="0.4793740">
        <ele>296.1</ele>
        <time>2020-08-06T10:58:41Z</time>
      </trkpt>
      <trkpt lat="41.0780930" lon="0.4793740">
        <ele>296.1</ele>
        <time>2020-08-06T10:58:43Z</time>
      </trkpt>
      <trkpt lat="41.0780930" lon="0.4793740">
        <ele>296.1</ele>
        <time>2020-08-06T10:58:44Z</time>
      </trkpt>
      <trkpt lat="41.0780930" lon="0.4793740">
        <ele>296.1</ele>
        <time>2020-08-06T10:58:45Z</time>
      </trkpt>
      <trkpt lat="41.0780930" lon="0.4793740">
        <ele>296.1</ele>
        <time>2020-08-06T10:58:46Z</time>
      </trkpt>
      <trkpt lat="41.0780930" lon="0.4793740">
        <ele>296.1</ele>
        <time>2020-08-06T10:58:48Z</time>
      </trkpt>
      <trkpt lat="41.0780930" lon="0.4793740">
        <ele>296.1</ele>
        <time>2020-08-06T10:58:49Z</time>
      </trkpt>
      <trkpt lat="41.0780930" lon="0.4793740">
        <ele>296.1</ele>
        <time>2020-08-06T10:58:51Z</time>
      </trkpt>
      <trkpt lat="41.0780930" lon="0.4793740">
        <ele>296.1</ele>
        <time>2020-08-06T10:58:52Z</time>
      </trkpt>
      <trkpt lat="41.0780930" lon="0.4793740">
        <ele>296.1</ele>
        <time>2020-08-06T10:58:53Z</time>
      </trkpt>
      <trkpt lat="41.0780930" lon="0.4793740">
        <ele>296.1</ele>
        <time>2020-08-06T10:58:55Z</time>
      </trkpt>
      <trkpt lat="41.0780930" lon="0.4793740">
        <ele>296.1</ele>
        <time>2020-08-06T10:58:56Z</time>
      </trkpt>
      <trkpt lat="41.0780930" lon="0.4793740">
        <ele>296.1</ele>
        <time>2020-08-06T10:58:57Z</time>
      </trkpt>
      <trkpt lat="41.0780930" lon="0.4793740">
        <ele>296.1</ele>
        <time>2020-08-06T10:58:59Z</time>
      </trkpt>
      <trkpt lat="41.0780930" lon="0.4793740">
        <ele>296.1</ele>
        <time>2020-08-06T10:59:00Z</time>
      </trkpt>
      <trkpt lat="41.0780930" lon="0.4793740">
        <ele>296.1</ele>
        <time>2020-08-06T10:59:01Z</time>
      </trkpt>
      <trkpt lat="41.0780930" lon="0.4793740">
        <ele>296.1</ele>
        <time>2020-08-06T10:59:03Z</time>
      </trkpt>
      <trkpt lat="41.0780930" lon="0.4793740">
        <ele>296.1</ele>
        <time>2020-08-06T10:59:04Z</time>
      </trkpt>
      <trkpt lat="41.0780930" lon="0.4793740">
        <ele>296.1</ele>
        <time>2020-08-06T10:59:05Z</time>
      </trkpt>
      <trkpt lat="41.0780930" lon="0.4793740">
        <ele>296.1</ele>
        <time>2020-08-06T10:59:07Z</time>
      </trkpt>
      <trkpt lat="41.0780930" lon="0.4793740">
        <ele>296.1</ele>
        <time>2020-08-06T10:59:08Z</time>
      </trkpt>
      <trkpt lat="41.0780930" lon="0.4793740">
        <ele>296.1</ele>
        <time>2020-08-06T10:59:09Z</time>
      </trkpt>
      <trkpt lat="41.0780930" lon="0.4793740">
        <ele>296.1</ele>
        <time>2020-08-06T10:59:10Z</time>
      </trkpt>
      <trkpt lat="41.0780930" lon="0.4793740">
        <ele>296.1</ele>
        <time>2020-08-06T10:59:11Z</time>
      </trkpt>
      <trkpt lat="41.0780930" lon="0.4793740">
        <ele>296.1</ele>
        <time>2020-08-06T10:59:12Z</time>
      </trkpt>
      <trkpt lat="41.0780930" lon="0.4793740">
        <ele>296.1</ele>
        <time>2020-08-06T10:59:14Z</time>
      </trkpt>
      <trkpt lat="41.0780930" lon="0.4793740">
        <ele>296.1</ele>
        <time>2020-08-06T10:59:15Z</time>
      </trkpt>
      <trkpt lat="41.0780930" lon="0.4793750">
        <ele>296.2</ele>
        <time>2020-08-06T10:59:16Z</time>
      </trkpt>
      <trkpt lat="41.0780930" lon="0.4793750">
        <ele>296.2</ele>
        <time>2020-08-06T10:59:17Z</time>
      </trkpt>
      <trkpt lat="41.0780920" lon="0.4793750">
        <ele>296.2</ele>
        <time>2020-08-06T10:59:18Z</time>
      </trkpt>
      <trkpt lat="41.0780920" lon="0.4793750">
        <ele>296.2</ele>
        <time>2020-08-06T10:59:19Z</time>
      </trkpt>
      <trkpt lat="41.0780920" lon="0.4793750">
        <ele>296.2</ele>
        <time>2020-08-06T10:59:21Z</time>
      </trkpt>
      <trkpt lat="41.0780920" lon="0.4793750">
        <ele>296.2</ele>
        <time>2020-08-06T10:59:22Z</time>
      </trkpt>
      <trkpt lat="41.0780920" lon="0.4793750">
        <ele>296.2</ele>
        <time>2020-08-06T10:59:24Z</time>
      </trkpt>
      <trkpt lat="41.0780920" lon="0.4793750">
        <ele>296.2</ele>
        <time>2020-08-06T10:59:25Z</time>
      </trkpt>
      <trkpt lat="41.0780920" lon="0.4793750">
        <ele>296.2</ele>
        <time>2020-08-06T10:59:26Z</time>
      </trkpt>
      <trkpt lat="41.0780920" lon="0.4793750">
        <ele>296.2</ele>
        <time>2020-08-06T10:59:28Z</time>
      </trkpt>
      <trkpt lat="41.0780920" lon="0.4793750">
        <ele>296.2</ele>
        <time>2020-08-06T10:59:29Z</time>
      </trkpt>
      <trkpt lat="41.0780920" lon="0.4793750">
        <ele>296.2</ele>
        <time>2020-08-06T10:59:31Z</time>
      </trkpt>
      <trkpt lat="41.0780920" lon="0.4793750">
        <ele>296.2</ele>
        <time>2020-08-06T10:59:32Z</time>
      </trkpt>
      <trkpt lat="41.0780920" lon="0.4793750">
        <ele>296.2</ele>
        <time>2020-08-06T10:59:33Z</time>
      </trkpt>
      <trkpt lat="41.0780920" lon="0.4793750">
        <ele>296.2</ele>
        <time>2020-08-06T10:59:34Z</time>
      </trkpt>
      <trkpt lat="41.0780920" lon="0.4793750">
        <ele>296.2</ele>
        <time>2020-08-06T10:59:35Z</time>
      </trkpt>
      <trkpt lat="41.0780920" lon="0.4793750">
        <ele>296.2</ele>
        <time>2020-08-06T10:59:37Z</time>
      </trkpt>
      <trkpt lat="41.0780920" lon="0.4793750">
        <ele>296.2</ele>
        <time>2020-08-06T10:59:38Z</time>
      </trkpt>
      <trkpt lat="41.0780920" lon="0.4793750">
        <ele>296.2</ele>
        <time>2020-08-06T10:59:39Z</time>
      </trkpt>
      <trkpt lat="41.0780920" lon="0.4793750">
        <ele>296.2</ele>
        <time>2020-08-06T10:59:40Z</time>
      </trkpt>
      <trkpt lat="41.0780920" lon="0.4793750">
        <ele>296.2</ele>
        <time>2020-08-06T10:59:42Z</time>
      </trkpt>
      <trkpt lat="41.0780920" lon="0.4793750">
        <ele>296.2</ele>
        <time>2020-08-06T10:59:44Z</time>
      </trkpt>
      <trkpt lat="41.0780920" lon="0.4793750">
        <ele>296.2</ele>
        <time>2020-08-06T10:59:45Z</time>
      </trkpt>
      <trkpt lat="41.0780920" lon="0.4793750">
        <ele>296.2</ele>
        <time>2020-08-06T10:59:47Z</time>
      </trkpt>
      <trkpt lat="41.0780920" lon="0.4793750">
        <ele>296.2</ele>
        <time>2020-08-06T10:59:48Z</time>
      </trkpt>
      <trkpt lat="41.0780920" lon="0.4793750">
        <ele>296.2</ele>
        <time>2020-08-06T10:59:49Z</time>
      </trkpt>
      <trkpt lat="41.0780920" lon="0.4793750">
        <ele>296.2</ele>
        <time>2020-08-06T10:59:50Z</time>
      </trkpt>
      <trkpt lat="41.0780920" lon="0.4793750">
        <ele>296.2</ele>
        <time>2020-08-06T10:59:51Z</time>
      </trkpt>
      <trkpt lat="41.0780920" lon="0.4793750">
        <ele>296.2</ele>
        <time>2020-08-06T10:59:53Z</time>
      </trkpt>
      <trkpt lat="41.0780920" lon="0.4793750">
        <ele>296.2</ele>
        <time>2020-08-06T10:59:55Z</time>
      </trkpt>
      <trkpt lat="41.0780920" lon="0.4793750">
        <ele>296.2</ele>
        <time>2020-08-06T10:59:57Z</time>
      </trkpt>
      <trkpt lat="41.0780920" lon="0.4793750">
        <ele>296.2</ele>
        <time>2020-08-06T10:59:58Z</time>
      </trkpt>
      <trkpt lat="41.0780920" lon="0.4793750">
        <ele>296.2</ele>
        <time>2020-08-06T11:00:00Z</time>
      </trkpt>
      <trkpt lat="41.0780920" lon="0.4793750">
        <ele>296.2</ele>
        <time>2020-08-06T11:00:01Z</time>
      </trkpt>
      <trkpt lat="41.0780920" lon="0.4793750">
        <ele>296.2</ele>
        <time>2020-08-06T11:00:02Z</time>
      </trkpt>
      <trkpt lat="41.0780920" lon="0.4793750">
        <ele>296.2</ele>
        <time>2020-08-06T11:00:04Z</time>
      </trkpt>
      <trkpt lat="41.0780920" lon="0.4793760">
        <ele>296.2</ele>
        <time>2020-08-06T11:00:05Z</time>
      </trkpt>
      <trkpt lat="41.0780920" lon="0.4793750">
        <ele>296.2</ele>
        <time>2020-08-06T11:00:06Z</time>
      </trkpt>
      <trkpt lat="41.0780920" lon="0.4793750">
        <ele>296.2</ele>
        <time>2020-08-06T11:00:08Z</time>
      </trkpt>
      <trkpt lat="41.0780920" lon="0.4793750">
        <ele>296.2</ele>
        <time>2020-08-06T11:00:09Z</time>
      </trkpt>
      <trkpt lat="41.0780920" lon="0.4793750">
        <ele>296.2</ele>
        <time>2020-08-06T11:00:11Z</time>
      </trkpt>
      <trkpt lat="41.0780920" lon="0.4793750">
        <ele>296.2</ele>
        <time>2020-08-06T11:00:12Z</time>
      </trkpt>
      <trkpt lat="41.0780920" lon="0.4793760">
        <ele>296.2</ele>
        <time>2020-08-06T11:00:14Z</time>
      </trkpt>
      <trkpt lat="41.0780920" lon="0.4793760">
        <ele>296.2</ele>
        <time>2020-08-06T11:00:16Z</time>
      </trkpt>
      <trkpt lat="41.0780920" lon="0.4793760">
        <ele>296.2</ele>
        <time>2020-08-06T11:00:17Z</time>
      </trkpt>
      <trkpt lat="41.0780920" lon="0.4793760">
        <ele>296.2</ele>
        <time>2020-08-06T11:00:18Z</time>
      </trkpt>
      <trkpt lat="41.0780920" lon="0.4793760">
        <ele>296.2</ele>
        <time>2020-08-06T11:00:19Z</time>
      </trkpt>
      <trkpt lat="41.0780920" lon="0.4793760">
        <ele>296.2</ele>
        <time>2020-08-06T11:00:20Z</time>
      </trkpt>
      <trkpt lat="41.0780920" lon="0.4793760">
        <ele>296.2</ele>
        <time>2020-08-06T11:00:27Z</time>
      </trkpt>
      <trkpt lat="41.0780920" lon="0.4793760">
        <ele>296.2</ele>
        <time>2020-08-06T11:00:28Z</time>
      </trkpt>
      <trkpt lat="41.0780920" lon="0.4793750">
        <ele>296.2</ele>
        <time>2020-08-06T11:00:29Z</time>
      </trkpt>
      <trkpt lat="41.0780920" lon="0.4793750">
        <ele>296.2</ele>
        <time>2020-08-06T11:00:30Z</time>
      </trkpt>
      <trkpt lat="41.0780920" lon="0.4793750">
        <ele>296.2</ele>
        <time>2020-08-06T11:00:31Z</time>
      </trkpt>
      <trkpt lat="41.0780920" lon="0.4793750">
        <ele>296.2</ele>
        <time>2020-08-06T11:00:33Z</time>
      </trkpt>
      <trkpt lat="41.0780920" lon="0.4793750">
        <ele>296.2</ele>
        <time>2020-08-06T11:00:34Z</time>
      </trkpt>
      <trkpt lat="41.0780920" lon="0.4793750">
        <ele>296.2</ele>
        <time>2020-08-06T11:00:35Z</time>
      </trkpt>
      <trkpt lat="41.0780920" lon="0.4793750">
        <ele>296.2</ele>
        <time>2020-08-06T11:00:36Z</time>
      </trkpt>
      <trkpt lat="41.0780920" lon="0.4793750">
        <ele>296.2</ele>
        <time>2020-08-06T11:00:37Z</time>
      </trkpt>
      <trkpt lat="41.0780920" lon="0.4793750">
        <ele>296.2</ele>
        <time>2020-08-06T11:00:39Z</time>
      </trkpt>
      <trkpt lat="41.0780920" lon="0.4793750">
        <ele>296.2</ele>
        <time>2020-08-06T11:00:40Z</time>
      </trkpt>
      <trkpt lat="41.0780920" lon="0.4793750">
        <ele>296.2</ele>
        <time>2020-08-06T11:00:43Z</time>
      </trkpt>
      <trkpt lat="41.0780920" lon="0.4793750">
        <ele>296.2</ele>
        <time>2020-08-06T11:00:45Z</time>
      </trkpt>
      <trkpt lat="41.0780920" lon="0.4793750">
        <ele>296.2</ele>
        <time>2020-08-06T11:00:46Z</time>
      </trkpt>
      <trkpt lat="41.0780920" lon="0.4793750">
        <ele>296.2</ele>
        <time>2020-08-06T11:00:47Z</time>
      </trkpt>
      <trkpt lat="41.0780920" lon="0.4793750">
        <ele>296.2</ele>
        <time>2020-08-06T11:00:48Z</time>
      </trkpt>
      <trkpt lat="41.0780920" lon="0.4793750">
        <ele>296.2</ele>
        <time>2020-08-06T11:00:50Z</time>
      </trkpt>
      <trkpt lat="41.0780920" lon="0.4793750">
        <ele>296.2</ele>
        <time>2020-08-06T11:00:51Z</time>
      </trkpt>
      <trkpt lat="41.0780920" lon="0.4793750">
        <ele>296.2</ele>
        <time>2020-08-06T11:00:52Z</time>
      </trkpt>
      <trkpt lat="41.0780920" lon="0.4793750">
        <ele>296.2</ele>
        <time>2020-08-06T11:00:53Z</time>
      </trkpt>
      <trkpt lat="41.0780920" lon="0.4793750">
        <ele>296.2</ele>
        <time>2020-08-06T11:00:54Z</time>
      </trkpt>
      <trkpt lat="41.0780920" lon="0.4793750">
        <ele>296.2</ele>
        <time>2020-08-06T11:00:55Z</time>
      </trkpt>
      <trkpt lat="41.0780920" lon="0.4793750">
        <ele>296.2</ele>
        <time>2020-08-06T11:00:57Z</time>
      </trkpt>
      <trkpt lat="41.0780920" lon="0.4793750">
        <ele>296.2</ele>
        <time>2020-08-06T11:00:59Z</time>
      </trkpt>
      <trkpt lat="41.0780920" lon="0.4793750">
        <ele>296.2</ele>
        <time>2020-08-06T11:01:00Z</time>
      </trkpt>
      <trkpt lat="41.0780920" lon="0.4793750">
        <ele>296.2</ele>
        <time>2020-08-06T11:01:01Z</time>
      </trkpt>
      <trkpt lat="41.0780920" lon="0.4793750">
        <ele>296.2</ele>
        <time>2020-08-06T11:01:03Z</time>
      </trkpt>
      <trkpt lat="41.0780920" lon="0.4793750">
        <ele>296.2</ele>
        <time>2020-08-06T11:01:05Z</time>
      </trkpt>
      <trkpt lat="41.0780920" lon="0.4793750">
        <ele>296.2</ele>
        <time>2020-08-06T11:01:06Z</time>
      </trkpt>
      <trkpt lat="41.0780920" lon="0.4793750">
        <ele>296.2</ele>
        <time>2020-08-06T11:01:08Z</time>
      </trkpt>
      <trkpt lat="41.0780920" lon="0.4793750">
        <ele>296.2</ele>
        <time>2020-08-06T11:01:10Z</time>
      </trkpt>
      <trkpt lat="41.0780920" lon="0.4793750">
        <ele>296.2</ele>
        <time>2020-08-06T11:01:12Z</time>
      </trkpt>
      <trkpt lat="41.0780920" lon="0.4793750">
        <ele>296.2</ele>
        <time>2020-08-06T11:01:13Z</time>
      </trkpt>
      <trkpt lat="41.0780920" lon="0.4793750">
        <ele>296.2</ele>
        <time>2020-08-06T11:01:15Z</time>
      </trkpt>
      <trkpt lat="41.0780920" lon="0.4793750">
        <ele>296.2</ele>
        <time>2020-08-06T11:01:17Z</time>
      </trkpt>
      <trkpt lat="41.0780920" lon="0.4793750">
        <ele>296.2</ele>
        <time>2020-08-06T11:01:18Z</time>
      </trkpt>
      <trkpt lat="41.0780920" lon="0.4793750">
        <ele>296.2</ele>
        <time>2020-08-06T11:01:20Z</time>
      </trkpt>
      <trkpt lat="41.0780920" lon="0.4793750">
        <ele>296.2</ele>
        <time>2020-08-06T11:01:21Z</time>
      </trkpt>
      <trkpt lat="41.0780920" lon="0.4793750">
        <ele>296.2</ele>
        <time>2020-08-06T11:01:23Z</time>
      </trkpt>
      <trkpt lat="41.0780920" lon="0.4793750">
        <ele>296.2</ele>
        <time>2020-08-06T11:01:24Z</time>
      </trkpt>
      <trkpt lat="41.0780920" lon="0.4793750">
        <ele>296.2</ele>
        <time>2020-08-06T11:01:25Z</time>
      </trkpt>
      <trkpt lat="41.0780920" lon="0.4793750">
        <ele>296.2</ele>
        <time>2020-08-06T11:01:26Z</time>
      </trkpt>
      <trkpt lat="41.0780920" lon="0.4793750">
        <ele>296.2</ele>
        <time>2020-08-06T11:01:27Z</time>
      </trkpt>
      <trkpt lat="41.0780920" lon="0.4793750">
        <ele>296.2</ele>
        <time>2020-08-06T11:01:28Z</time>
      </trkpt>
      <trkpt lat="41.0780920" lon="0.4793750">
        <ele>296.2</ele>
        <time>2020-08-06T11:01:30Z</time>
      </trkpt>
      <trkpt lat="41.0780920" lon="0.4793750">
        <ele>296.2</ele>
        <time>2020-08-06T11:01:31Z</time>
      </trkpt>
      <trkpt lat="41.0780920" lon="0.4793740">
        <ele>296.2</ele>
        <time>2020-08-06T11:01:32Z</time>
      </trkpt>
      <trkpt lat="41.0780920" lon="0.4793740">
        <ele>296.2</ele>
        <time>2020-08-06T11:01:33Z</time>
      </trkpt>
      <trkpt lat="41.0780920" lon="0.4793740">
        <ele>296.2</ele>
        <time>2020-08-06T11:01:34Z</time>
      </trkpt>
      <trkpt lat="41.0780920" lon="0.4793740">
        <ele>296.2</ele>
        <time>2020-08-06T11:01:35Z</time>
      </trkpt>
      <trkpt lat="41.0780920" lon="0.4793740">
        <ele>296.2</ele>
        <time>2020-08-06T11:01:36Z</time>
      </trkpt>
      <trkpt lat="41.0780920" lon="0.4793740">
        <ele>296.2</ele>
        <time>2020-08-06T11:01:38Z</time>
      </trkpt>
      <trkpt lat="41.0780920" lon="0.4793740">
        <ele>296.2</ele>
        <time>2020-08-06T11:01:39Z</time>
      </trkpt>
      <trkpt lat="41.0780920" lon="0.4793740">
        <ele>296.2</ele>
        <time>2020-08-06T11:01:41Z</time>
      </trkpt>
      <trkpt lat="41.0780920" lon="0.4793740">
        <ele>296.2</ele>
        <time>2020-08-06T11:01:42Z</time>
      </trkpt>
      <trkpt lat="41.0780920" lon="0.4793740">
        <ele>296.2</ele>
        <time>2020-08-06T11:01:43Z</time>
      </trkpt>
      <trkpt lat="41.0780920" lon="0.4793740">
        <ele>296.2</ele>
        <time>2020-08-06T11:01:45Z</time>
      </trkpt>
      <trkpt lat="41.0780920" lon="0.4793740">
        <ele>296.2</ele>
        <time>2020-08-06T11:01:47Z</time>
      </trkpt>
      <trkpt lat="41.0780920" lon="0.4793740">
        <ele>296.2</ele>
        <time>2020-08-06T11:01:48Z</time>
      </trkpt>
      <trkpt lat="41.0780920" lon="0.4793740">
        <ele>296.2</ele>
        <time>2020-08-06T11:01:50Z</time>
      </trkpt>
      <trkpt lat="41.0780920" lon="0.4793740">
        <ele>296.2</ele>
        <time>2020-08-06T11:01:52Z</time>
      </trkpt>
      <trkpt lat="41.0780920" lon="0.4793740">
        <ele>296.2</ele>
        <time>2020-08-06T11:01:53Z</time>
      </trkpt>
      <trkpt lat="41.0780920" lon="0.4793740">
        <ele>296.2</ele>
        <time>2020-08-06T11:01:55Z</time>
      </trkpt>
      <trkpt lat="41.0780920" lon="0.4793740">
        <ele>296.2</ele>
        <time>2020-08-06T11:01:56Z</time>
      </trkpt>
      <trkpt lat="41.0780920" lon="0.4793740">
        <ele>296.2</ele>
        <time>2020-08-06T11:01:57Z</time>
      </trkpt>
      <trkpt lat="41.0780920" lon="0.4793730">
        <ele>296.2</ele>
        <time>2020-08-06T11:01:58Z</time>
      </trkpt>
      <trkpt lat="41.0780920" lon="0.4793730">
        <ele>296.2</ele>
        <time>2020-08-06T11:02:00Z</time>
      </trkpt>
      <trkpt lat="41.0780920" lon="0.4793730">
        <ele>296.2</ele>
        <time>2020-08-06T11:02:01Z</time>
      </trkpt>
      <trkpt lat="41.0780920" lon="0.4793730">
        <ele>296.2</ele>
        <time>2020-08-06T11:02:02Z</time>
      </trkpt>
      <trkpt lat="41.0780920" lon="0.4793730">
        <ele>296.2</ele>
        <time>2020-08-06T11:02:04Z</time>
      </trkpt>
      <trkpt lat="41.0780920" lon="0.4793730">
        <ele>296.2</ele>
        <time>2020-08-06T11:02:05Z</time>
      </trkpt>
      <trkpt lat="41.0780920" lon="0.4793730">
        <ele>296.2</ele>
        <time>2020-08-06T11:02:07Z</time>
      </trkpt>
      <trkpt lat="41.0780920" lon="0.4793730">
        <ele>296.2</ele>
        <time>2020-08-06T11:02:08Z</time>
      </trkpt>
      <trkpt lat="41.0780920" lon="0.4793730">
        <ele>296.2</ele>
        <time>2020-08-06T11:02:10Z</time>
      </trkpt>
      <trkpt lat="41.0780920" lon="0.4793730">
        <ele>296.2</ele>
        <time>2020-08-06T11:02:11Z</time>
      </trkpt>
      <trkpt lat="41.0780920" lon="0.4793730">
        <ele>296.2</ele>
        <time>2020-08-06T11:02:13Z</time>
      </trkpt>
      <trkpt lat="41.0780920" lon="0.4793730">
        <ele>296.2</ele>
        <time>2020-08-06T11:02:14Z</time>
      </trkpt>
      <trkpt lat="41.0780920" lon="0.4793730">
        <ele>296.2</ele>
        <time>2020-08-06T11:02:16Z</time>
      </trkpt>
      <trkpt lat="41.0780930" lon="0.4793730">
        <ele>296.2</ele>
        <time>2020-08-06T11:02:18Z</time>
      </trkpt>
      <trkpt lat="41.0780930" lon="0.4793730">
        <ele>296.2</ele>
        <time>2020-08-06T11:02:19Z</time>
      </trkpt>
      <trkpt lat="41.0780930" lon="0.4793730">
        <ele>296.2</ele>
        <time>2020-08-06T11:02:20Z</time>
      </trkpt>
      <trkpt lat="41.0780930" lon="0.4793730">
        <ele>296.2</ele>
        <time>2020-08-06T11:02:21Z</time>
      </trkpt>
      <trkpt lat="41.0780930" lon="0.4793730">
        <ele>296.2</ele>
        <time>2020-08-06T11:02:22Z</time>
      </trkpt>
      <trkpt lat="41.0780930" lon="0.4793730">
        <ele>296.2</ele>
        <time>2020-08-06T11:02:24Z</time>
      </trkpt>
      <trkpt lat="41.0780930" lon="0.4793730">
        <ele>296.2</ele>
        <time>2020-08-06T11:02:26Z</time>
      </trkpt>
      <trkpt lat="41.0780930" lon="0.4793730">
        <ele>296.2</ele>
        <time>2020-08-06T11:02:27Z</time>
      </trkpt>
      <trkpt lat="41.0780930" lon="0.4793730">
        <ele>296.2</ele>
        <time>2020-08-06T11:02:28Z</time>
      </trkpt>
      <trkpt lat="41.0780930" lon="0.4793730">
        <ele>296.2</ele>
        <time>2020-08-06T11:02:29Z</time>
      </trkpt>
      <trkpt lat="41.0780930" lon="0.4793730">
        <ele>296.2</ele>
        <time>2020-08-06T11:02:30Z</time>
      </trkpt>
      <trkpt lat="41.0780930" lon="0.4793730">
        <ele>296.2</ele>
        <time>2020-08-06T11:02:32Z</time>
      </trkpt>
      <trkpt lat="41.0780930" lon="0.4793730">
        <ele>296.2</ele>
        <time>2020-08-06T11:02:33Z</time>
      </trkpt>
      <trkpt lat="41.0780930" lon="0.4793730">
        <ele>296.2</ele>
        <time>2020-08-06T11:02:35Z</time>
      </trkpt>
      <trkpt lat="41.0780930" lon="0.4793730">
        <ele>296.2</ele>
        <time>2020-08-06T11:02:36Z</time>
      </trkpt>
      <trkpt lat="41.0780930" lon="0.4793730">
        <ele>296.2</ele>
        <time>2020-08-06T11:02:37Z</time>
      </trkpt>
      <trkpt lat="41.0780930" lon="0.4793730">
        <ele>296.2</ele>
        <time>2020-08-06T11:02:38Z</time>
      </trkpt>
      <trkpt lat="41.0780930" lon="0.4793730">
        <ele>296.2</ele>
        <time>2020-08-06T11:02:40Z</time>
      </trkpt>
      <trkpt lat="41.0780930" lon="0.4793730">
        <ele>296.2</ele>
        <time>2020-08-06T11:02:41Z</time>
      </trkpt>
      <trkpt lat="41.0780930" lon="0.4793730">
        <ele>296.2</ele>
        <time>2020-08-06T11:02:43Z</time>
      </trkpt>
      <trkpt lat="41.0780930" lon="0.4793730">
        <ele>296.2</ele>
        <time>2020-08-06T11:02:44Z</time>
      </trkpt>
      <trkpt lat="41.0780930" lon="0.4793730">
        <ele>296.2</ele>
        <time>2020-08-06T11:02:46Z</time>
      </trkpt>
      <trkpt lat="41.0780930" lon="0.4793730">
        <ele>296.2</ele>
        <time>2020-08-06T11:02:48Z</time>
      </trkpt>
      <trkpt lat="41.0780930" lon="0.4793730">
        <ele>296.2</ele>
        <time>2020-08-06T11:02:49Z</time>
      </trkpt>
      <trkpt lat="41.0780930" lon="0.4793730">
        <ele>296.2</ele>
        <time>2020-08-06T11:02:51Z</time>
      </trkpt>
      <trkpt lat="41.0780930" lon="0.4793730">
        <ele>296.2</ele>
        <time>2020-08-06T11:02:52Z</time>
      </trkpt>
      <trkpt lat="41.0780930" lon="0.4793730">
        <ele>296.2</ele>
        <time>2020-08-06T11:02:53Z</time>
      </trkpt>
      <trkpt lat="41.0780930" lon="0.4793730">
        <ele>296.2</ele>
        <time>2020-08-06T11:02:54Z</time>
      </trkpt>
      <trkpt lat="41.0780930" lon="0.4793720">
        <ele>296.2</ele>
        <time>2020-08-06T11:02:55Z</time>
      </trkpt>
      <trkpt lat="41.0780930" lon="0.4793720">
        <ele>296.2</ele>
        <time>2020-08-06T11:02:57Z</time>
      </trkpt>
      <trkpt lat="41.0780930" lon="0.4793720">
        <ele>296.2</ele>
        <time>2020-08-06T11:02:59Z</time>
      </trkpt>
      <trkpt lat="41.0780930" lon="0.4793720">
        <ele>296.2</ele>
        <time>2020-08-06T11:03:00Z</time>
      </trkpt>
      <trkpt lat="41.0780930" lon="0.4793720">
        <ele>296.2</ele>
        <time>2020-08-06T11:03:01Z</time>
      </trkpt>
      <trkpt lat="41.0780930" lon="0.4793720">
        <ele>296.2</ele>
        <time>2020-08-06T11:03:03Z</time>
      </trkpt>
      <trkpt lat="41.0780930" lon="0.4793720">
        <ele>296.2</ele>
        <time>2020-08-06T11:03:05Z</time>
      </trkpt>
      <trkpt lat="41.0780930" lon="0.4793720">
        <ele>296.2</ele>
        <time>2020-08-06T11:03:07Z</time>
      </trkpt>
      <trkpt lat="41.0780930" lon="0.4793720">
        <ele>296.2</ele>
        <time>2020-08-06T11:03:08Z</time>
      </trkpt>
      <trkpt lat="41.0780930" lon="0.4793720">
        <ele>296.2</ele>
        <time>2020-08-06T11:03:09Z</time>
      </trkpt>
      <trkpt lat="41.0780930" lon="0.4793720">
        <ele>296.2</ele>
        <time>2020-08-06T11:03:10Z</time>
      </trkpt>
      <trkpt lat="41.0780930" lon="0.4793720">
        <ele>296.2</ele>
        <time>2020-08-06T11:03:11Z</time>
      </trkpt>
      <trkpt lat="41.0780930" lon="0.4793720">
        <ele>296.2</ele>
        <time>2020-08-06T11:03:12Z</time>
      </trkpt>
      <trkpt lat="41.0780930" lon="0.4793720">
        <ele>296.2</ele>
        <time>2020-08-06T11:03:14Z</time>
      </trkpt>
      <trkpt lat="41.0780930" lon="0.4793720">
        <ele>296.2</ele>
        <time>2020-08-06T11:03:16Z</time>
      </trkpt>
      <trkpt lat="41.0780930" lon="0.4793720">
        <ele>296.2</ele>
        <time>2020-08-06T11:03:17Z</time>
      </trkpt>
      <trkpt lat="41.0780930" lon="0.4793720">
        <ele>296.2</ele>
        <time>2020-08-06T11:03:19Z</time>
      </trkpt>
      <trkpt lat="41.0780930" lon="0.4793720">
        <ele>296.2</ele>
        <time>2020-08-06T11:03:20Z</time>
      </trkpt>
      <trkpt lat="41.0780930" lon="0.4793720">
        <ele>296.2</ele>
        <time>2020-08-06T11:03:22Z</time>
      </trkpt>
      <trkpt lat="41.0780930" lon="0.4793720">
        <ele>296.2</ele>
        <time>2020-08-06T11:03:24Z</time>
      </trkpt>
      <trkpt lat="41.0780930" lon="0.4793720">
        <ele>296.2</ele>
        <time>2020-08-06T11:03:25Z</time>
      </trkpt>
      <trkpt lat="41.0780930" lon="0.4793720">
        <ele>296.2</ele>
        <time>2020-08-06T11:03:27Z</time>
      </trkpt>
      <trkpt lat="41.0780930" lon="0.4793720">
        <ele>296.2</ele>
        <time>2020-08-06T11:03:28Z</time>
      </trkpt>
      <trkpt lat="41.0780930" lon="0.4793720">
        <ele>296.2</ele>
        <time>2020-08-06T11:03:29Z</time>
      </trkpt>
      <trkpt lat="41.0780930" lon="0.4793720">
        <ele>296.2</ele>
        <time>2020-08-06T11:03:31Z</time>
      </trkpt>
      <trkpt lat="41.0780930" lon="0.4793720">
        <ele>296.2</ele>
        <time>2020-08-06T11:03:32Z</time>
      </trkpt>
      <trkpt lat="41.0780930" lon="0.4793720">
        <ele>296.2</ele>
        <time>2020-08-06T11:03:33Z</time>
      </trkpt>
      <trkpt lat="41.0780930" lon="0.4793720">
        <ele>296.2</ele>
        <time>2020-08-06T11:03:35Z</time>
      </trkpt>
      <trkpt lat="41.0780930" lon="0.4793720">
        <ele>296.2</ele>
        <time>2020-08-06T11:03:36Z</time>
      </trkpt>
      <trkpt lat="41.0780930" lon="0.4793720">
        <ele>296.2</ele>
        <time>2020-08-06T11:03:37Z</time>
      </trkpt>
      <trkpt lat="41.0780930" lon="0.4793720">
        <ele>296.2</ele>
        <time>2020-08-06T11:03:39Z</time>
      </trkpt>
      <trkpt lat="41.0780930" lon="0.4793720">
        <ele>296.2</ele>
        <time>2020-08-06T11:03:41Z</time>
      </trkpt>
      <trkpt lat="41.0780930" lon="0.4793720">
        <ele>296.2</ele>
        <time>2020-08-06T11:03:42Z</time>
      </trkpt>
      <trkpt lat="41.0780930" lon="0.4793720">
        <ele>296.2</ele>
        <time>2020-08-06T11:03:44Z</time>
      </trkpt>
      <trkpt lat="41.0780940" lon="0.4793720">
        <ele>296.2</ele>
        <time>2020-08-06T11:03:45Z</time>
      </trkpt>
      <trkpt lat="41.0780940" lon="0.4793710">
        <ele>296.2</ele>
        <time>2020-08-06T11:03:47Z</time>
      </trkpt>
      <trkpt lat="41.0780940" lon="0.4793710">
        <ele>296.2</ele>
        <time>2020-08-06T11:03:48Z</time>
      </trkpt>
      <trkpt lat="41.0780940" lon="0.4793710">
        <ele>296.2</ele>
        <time>2020-08-06T11:03:49Z</time>
      </trkpt>
      <trkpt lat="41.0780940" lon="0.4793710">
        <ele>296.2</ele>
        <time>2020-08-06T11:03:50Z</time>
      </trkpt>
      <trkpt lat="41.0780940" lon="0.4793710">
        <ele>296.2</ele>
        <time>2020-08-06T11:03:52Z</time>
      </trkpt>
      <trkpt lat="41.0780940" lon="0.4793720">
        <ele>296.2</ele>
        <time>2020-08-06T11:03:54Z</time>
      </trkpt>
      <trkpt lat="41.0780940" lon="0.4793720">
        <ele>296.2</ele>
        <time>2020-08-06T11:03:55Z</time>
      </trkpt>
      <trkpt lat="41.0780940" lon="0.4793720">
        <ele>296.2</ele>
        <time>2020-08-06T11:03:57Z</time>
      </trkpt>
      <trkpt lat="41.0780940" lon="0.4793710">
        <ele>296.2</ele>
        <time>2020-08-06T11:03:59Z</time>
      </trkpt>
      <trkpt lat="41.0780940" lon="0.4793710">
        <ele>296.2</ele>
        <time>2020-08-06T11:04:01Z</time>
      </trkpt>
      <trkpt lat="41.0780940" lon="0.4793710">
        <ele>296.2</ele>
        <time>2020-08-06T11:04:03Z</time>
      </trkpt>
      <trkpt lat="41.0780940" lon="0.4793710">
        <ele>296.2</ele>
        <time>2020-08-06T11:04:05Z</time>
      </trkpt>
      <trkpt lat="41.0780940" lon="0.4793710">
        <ele>296.2</ele>
        <time>2020-08-06T11:04:06Z</time>
      </trkpt>
      <trkpt lat="41.0780940" lon="0.4793710">
        <ele>296.2</ele>
        <time>2020-08-06T11:04:07Z</time>
      </trkpt>
      <trkpt lat="41.0780940" lon="0.4793710">
        <ele>296.2</ele>
        <time>2020-08-06T11:04:08Z</time>
      </trkpt>
      <trkpt lat="41.0780940" lon="0.4793710">
        <ele>296.2</ele>
        <time>2020-08-06T11:04:09Z</time>
      </trkpt>
      <trkpt lat="41.0780940" lon="0.4793710">
        <ele>296.2</ele>
        <time>2020-08-06T11:04:11Z</time>
      </trkpt>
      <trkpt lat="41.0780940" lon="0.4793710">
        <ele>296.2</ele>
        <time>2020-08-06T11:04:12Z</time>
      </trkpt>
      <trkpt lat="41.0780940" lon="0.4793710">
        <ele>296.2</ele>
        <time>2020-08-06T11:04:13Z</time>
      </trkpt>
      <trkpt lat="41.0780940" lon="0.4793710">
        <ele>296.2</ele>
        <time>2020-08-06T11:04:14Z</time>
      </trkpt>
      <trkpt lat="41.0780940" lon="0.4793710">
        <ele>296.2</ele>
        <time>2020-08-06T11:04:15Z</time>
      </trkpt>
      <trkpt lat="41.0780940" lon="0.4793710">
        <ele>296.2</ele>
        <time>2020-08-06T11:04:17Z</time>
      </trkpt>
      <trkpt lat="41.0780940" lon="0.4793710">
        <ele>296.2</ele>
        <time>2020-08-06T11:04:18Z</time>
      </trkpt>
      <trkpt lat="41.0780940" lon="0.4793710">
        <ele>296.2</ele>
        <time>2020-08-06T11:04:19Z</time>
      </trkpt>
      <trkpt lat="41.0780940" lon="0.4793710">
        <ele>296.2</ele>
        <time>2020-08-06T11:04:21Z</time>
      </trkpt>
      <trkpt lat="41.0780940" lon="0.4793710">
        <ele>296.2</ele>
        <time>2020-08-06T11:04:23Z</time>
      </trkpt>
      <trkpt lat="41.0780940" lon="0.4793710">
        <ele>296.2</ele>
        <time>2020-08-06T11:04:24Z</time>
      </trkpt>
      <trkpt lat="41.0780940" lon="0.4793710">
        <ele>296.2</ele>
        <time>2020-08-06T11:04:26Z</time>
      </trkpt>
      <trkpt lat="41.0780940" lon="0.4793710">
        <ele>296.2</ele>
        <time>2020-08-06T11:04:27Z</time>
      </trkpt>
      <trkpt lat="41.0780940" lon="0.4793710">
        <ele>296.2</ele>
        <time>2020-08-06T11:04:29Z</time>
      </trkpt>
      <trkpt lat="41.0780940" lon="0.4793710">
        <ele>296.2</ele>
        <time>2020-08-06T11:04:30Z</time>
      </trkpt>
      <trkpt lat="41.0780940" lon="0.4793710">
        <ele>296.2</ele>
        <time>2020-08-06T11:04:31Z</time>
      </trkpt>
      <trkpt lat="41.0780940" lon="0.4793710">
        <ele>296.2</ele>
        <time>2020-08-06T11:04:33Z</time>
      </trkpt>
      <trkpt lat="41.0780940" lon="0.4793710">
        <ele>296.2</ele>
        <time>2020-08-06T11:04:35Z</time>
      </trkpt>
      <trkpt lat="41.0780940" lon="0.4793710">
        <ele>296.2</ele>
        <time>2020-08-06T11:04:37Z</time>
      </trkpt>
      <trkpt lat="41.0780940" lon="0.4793710">
        <ele>296.2</ele>
        <time>2020-08-06T11:04:38Z</time>
      </trkpt>
      <trkpt lat="41.0780940" lon="0.4793710">
        <ele>296.2</ele>
        <time>2020-08-06T11:04:40Z</time>
      </trkpt>
      <trkpt lat="41.0780940" lon="0.4793700">
        <ele>296.2</ele>
        <time>2020-08-06T11:04:42Z</time>
      </trkpt>
      <trkpt lat="41.0780940" lon="0.4793700">
        <ele>296.2</ele>
        <time>2020-08-06T11:04:44Z</time>
      </trkpt>
      <trkpt lat="41.0780940" lon="0.4793700">
        <ele>296.2</ele>
        <time>2020-08-06T11:04:46Z</time>
      </trkpt>
      <trkpt lat="41.0780940" lon="0.4793700">
        <ele>296.2</ele>
        <time>2020-08-06T11:04:47Z</time>
      </trkpt>
      <trkpt lat="41.0780940" lon="0.4793700">
        <ele>296.2</ele>
        <time>2020-08-06T11:04:48Z</time>
      </trkpt>
      <trkpt lat="41.0780940" lon="0.4793700">
        <ele>296.2</ele>
        <time>2020-08-06T11:04:49Z</time>
      </trkpt>
      <trkpt lat="41.0780940" lon="0.4793700">
        <ele>296.2</ele>
        <time>2020-08-06T11:04:51Z</time>
      </trkpt>
      <trkpt lat="41.0780940" lon="0.4793700">
        <ele>296.2</ele>
        <time>2020-08-06T11:04:53Z</time>
      </trkpt>
      <trkpt lat="41.0780940" lon="0.4793700">
        <ele>296.2</ele>
        <time>2020-08-06T11:04:55Z</time>
      </trkpt>
      <trkpt lat="41.0780940" lon="0.4793700">
        <ele>296.2</ele>
        <time>2020-08-06T11:04:56Z</time>
      </trkpt>
      <trkpt lat="41.0780940" lon="0.4793700">
        <ele>296.2</ele>
        <time>2020-08-06T11:04:57Z</time>
      </trkpt>
      <trkpt lat="41.0780940" lon="0.4793700">
        <ele>296.2</ele>
        <time>2020-08-06T11:04:59Z</time>
      </trkpt>
      <trkpt lat="41.0780940" lon="0.4793700">
        <ele>296.2</ele>
        <time>2020-08-06T11:05:01Z</time>
      </trkpt>
      <trkpt lat="41.0780940" lon="0.4793700">
        <ele>296.2</ele>
        <time>2020-08-06T11:05:02Z</time>
      </trkpt>
      <trkpt lat="41.0780940" lon="0.4793700">
        <ele>296.2</ele>
        <time>2020-08-06T11:05:03Z</time>
      </trkpt>
      <trkpt lat="41.0780940" lon="0.4793700">
        <ele>296.2</ele>
        <time>2020-08-06T11:05:04Z</time>
      </trkpt>
      <trkpt lat="41.0780940" lon="0.4793700">
        <ele>296.2</ele>
        <time>2020-08-06T11:05:06Z</time>
      </trkpt>
      <trkpt lat="41.0780940" lon="0.4793700">
        <ele>296.2</ele>
        <time>2020-08-06T11:05:07Z</time>
      </trkpt>
      <trkpt lat="41.0780940" lon="0.4793700">
        <ele>296.2</ele>
        <time>2020-08-06T11:05:08Z</time>
      </trkpt>
      <trkpt lat="41.0780940" lon="0.4793700">
        <ele>296.2</ele>
        <time>2020-08-06T11:05:10Z</time>
      </trkpt>
      <trkpt lat="41.0780940" lon="0.4793700">
        <ele>296.2</ele>
        <time>2020-08-06T11:05:12Z</time>
      </trkpt>
      <trkpt lat="41.0780940" lon="0.4793700">
        <ele>296.2</ele>
        <time>2020-08-06T11:05:13Z</time>
      </trkpt>
      <trkpt lat="41.0780940" lon="0.4793700">
        <ele>296.2</ele>
        <time>2020-08-06T11:05:14Z</time>
      </trkpt>
      <trkpt lat="41.0780940" lon="0.4793700">
        <ele>296.2</ele>
        <time>2020-08-06T11:05:15Z</time>
      </trkpt>
      <trkpt lat="41.0780940" lon="0.4793700">
        <ele>296.2</ele>
        <time>2020-08-06T11:05:17Z</time>
      </trkpt>
      <trkpt lat="41.0780940" lon="0.4793700">
        <ele>296.2</ele>
        <time>2020-08-06T11:05:19Z</time>
      </trkpt>
      <trkpt lat="41.0780940" lon="0.4793700">
        <ele>296.2</ele>
        <time>2020-08-06T11:05:20Z</time>
      </trkpt>
      <trkpt lat="41.0780940" lon="0.4793700">
        <ele>296.2</ele>
        <time>2020-08-06T11:05:22Z</time>
      </trkpt>
      <trkpt lat="41.0780940" lon="0.4793710">
        <ele>296.2</ele>
        <time>2020-08-06T11:05:24Z</time>
      </trkpt>
      <trkpt lat="41.0780940" lon="0.4793730">
        <ele>296.3</ele>
        <time>2020-08-06T11:05:26Z</time>
      </trkpt>
      <trkpt lat="41.0780940" lon="0.4793740">
        <ele>296.3</ele>
        <time>2020-08-06T11:05:27Z</time>
      </trkpt>
      <trkpt lat="41.0780940" lon="0.4793750">
        <ele>296.3</ele>
        <time>2020-08-06T11:05:28Z</time>
      </trkpt>
      <trkpt lat="41.0780940" lon="0.4793760">
        <ele>296.3</ele>
        <time>2020-08-06T11:05:30Z</time>
      </trkpt>
      <trkpt lat="41.0780940" lon="0.4793760">
        <ele>296.3</ele>
        <time>2020-08-06T11:05:31Z</time>
      </trkpt>
      <trkpt lat="41.0780940" lon="0.4793770">
        <ele>296.3</ele>
        <time>2020-08-06T11:05:33Z</time>
      </trkpt>
      <trkpt lat="41.0780940" lon="0.4793770">
        <ele>296.3</ele>
        <time>2020-08-06T11:05:34Z</time>
      </trkpt>
      <trkpt lat="41.0780950" lon="0.4793770">
        <ele>296.3</ele>
        <time>2020-08-06T11:05:36Z</time>
      </trkpt>
      <trkpt lat="41.0780950" lon="0.4793780">
        <ele>296.3</ele>
        <time>2020-08-06T11:05:38Z</time>
      </trkpt>
      <trkpt lat="41.0780950" lon="0.4793780">
        <ele>296.3</ele>
        <time>2020-08-06T11:05:40Z</time>
      </trkpt>
      <trkpt lat="41.0780950" lon="0.4793780">
        <ele>296.3</ele>
        <time>2020-08-06T11:05:41Z</time>
      </trkpt>
      <trkpt lat="41.0780950" lon="0.4793780">
        <ele>296.3</ele>
        <time>2020-08-06T11:05:43Z</time>
      </trkpt>
      <trkpt lat="41.0780940" lon="0.4793780">
        <ele>296.3</ele>
        <time>2020-08-06T11:05:44Z</time>
      </trkpt>
      <trkpt lat="41.0780940" lon="0.4793780">
        <ele>296.3</ele>
        <time>2020-08-06T11:05:46Z</time>
      </trkpt>
      <trkpt lat="41.0780940" lon="0.4793780">
        <ele>296.3</ele>
        <time>2020-08-06T11:05:47Z</time>
      </trkpt>
      <trkpt lat="41.0780950" lon="0.4793780">
        <ele>296.3</ele>
        <time>2020-08-06T11:05:48Z</time>
      </trkpt>
      <trkpt lat="41.0780920" lon="0.4793760">
        <ele>296.3</ele>
        <time>2020-08-06T11:05:50Z</time>
      </trkpt>
      <trkpt lat="41.0780920" lon="0.4793780">
        <ele>296.3</ele>
        <time>2020-08-06T11:05:56Z</time>
      </trkpt>
      <trkpt lat="41.0780980" lon="0.4793760">
        <ele>296.4</ele>
        <time>2020-08-06T11:05:57Z</time>
      </trkpt>
      <trkpt lat="41.0780940" lon="0.4793550">
        <ele>296.5</ele>
        <time>2020-08-06T11:09:50Z</time>
      </trkpt>
      <trkpt lat="41.0780920" lon="0.4793660">
        <ele>296.5</ele>
        <time>2020-08-06T11:09:52Z</time>
      </trkpt>
      <trkpt lat="41.0780930" lon="0.4793690">
        <ele>296.5</ele>
        <time>2020-08-06T11:09:53Z</time>
      </trkpt>
      <trkpt lat="41.0780930" lon="0.4793720">
        <ele>296.5</ele>
        <time>2020-08-06T11:09:55Z</time>
      </trkpt>
      <trkpt lat="41.0780930" lon="0.4793720">
        <ele>296.5</ele>
        <time>2020-08-06T11:09:56Z</time>
      </trkpt>
      <trkpt lat="41.0780940" lon="0.4793800">
        <ele>296.6</ele>
        <time>2020-08-06T11:09:57Z</time>
      </trkpt>
      <trkpt lat="41.0780900" lon="0.4793790">
        <ele>296.6</ele>
        <time>2020-08-06T11:09:58Z</time>
      </trkpt>
      <trkpt lat="41.0780840" lon="0.4793750">
        <ele>296.6</ele>
        <time>2020-08-06T11:10:00Z</time>
      </trkpt>
      <trkpt lat="41.0780810" lon="0.4793740">
        <ele>296.6</ele>
        <time>2020-08-06T11:10:01Z</time>
      </trkpt>
      <trkpt lat="41.0780790" lon="0.4793740">
        <ele>296.7</ele>
        <time>2020-08-06T11:10:03Z</time>
      </trkpt>
      <trkpt lat="41.0780780" lon="0.4793740">
        <ele>296.7</ele>
        <time>2020-08-06T11:10:04Z</time>
      </trkpt>
      <trkpt lat="41.0780780" lon="0.4793720">
        <ele>296.7</ele>
        <time>2020-08-06T11:10:06Z</time>
      </trkpt>
      <trkpt lat="41.0780990" lon="0.4793450">
        <ele>296.8</ele>
        <time>2020-08-06T11:11:44Z</time>
      </trkpt>
      <trkpt lat="41.0781050" lon="0.4793330">
        <ele>296.9</ele>
        <time>2020-08-06T11:11:46Z</time>
      </trkpt>
      <trkpt lat="41.0781070" lon="0.4793290">
        <ele>296.9</ele>
        <time>2020-08-06T11:11:47Z</time>
      </trkpt>
      <trkpt lat="41.0781090" lon="0.4793280">
        <ele>296.9</ele>
        <time>2020-08-06T11:11:49Z</time>
      </trkpt>
      <trkpt lat="41.0781100" lon="0.4793290">
        <ele>296.8</ele>
        <time>2020-08-06T11:11:50Z</time>
      </trkpt>
      <trkpt lat="41.0781110" lon="0.4793310">
        <ele>296.8</ele>
        <time>2020-08-06T11:11:52Z</time>
      </trkpt>
      <trkpt lat="41.0781120" lon="0.4793310">
        <ele>296.8</ele>
        <time>2020-08-06T11:11:53Z</time>
      </trkpt>
      <trkpt lat="41.0781120" lon="0.4793310">
        <ele>296.7</ele>
        <time>2020-08-06T11:11:54Z</time>
      </trkpt>
      <trkpt lat="41.0781130" lon="0.4793320">
        <ele>296.7</ele>
        <time>2020-08-06T11:11:55Z</time>
      </trkpt>
      <trkpt lat="41.0781130" lon="0.4793330">
        <ele>296.7</ele>
        <time>2020-08-06T11:11:57Z</time>
      </trkpt>
      <trkpt lat="41.0781220" lon="0.4792980">
        <ele>296.7</ele>
        <time>2020-08-06T11:12:29Z</time>
      </trkpt>
      <trkpt lat="41.0781250" lon="0.4792890">
        <ele>296.7</ele>
        <time>2020-08-06T11:12:30Z</time>
      </trkpt>
      <trkpt lat="41.0781270" lon="0.4792790">
        <ele>296.8</ele>
        <time>2020-08-06T11:12:31Z</time>
      </trkpt>
      <trkpt lat="41.0781300" lon="0.4792600">
        <ele>296.9</ele>
        <time>2020-08-06T11:12:33Z</time>
      </trkpt>
      <trkpt lat="41.0781320" lon="0.4792520">
        <ele>296.9</ele>
        <time>2020-08-06T11:12:34Z</time>
      </trkpt>
      <trkpt lat="41.0781330" lon="0.4792490">
        <ele>296.9</ele>
        <time>2020-08-06T11:12:36Z</time>
      </trkpt>
      <trkpt lat="41.0781310" lon="0.4792480">
        <ele>296.9</ele>
        <time>2020-08-06T11:12:37Z</time>
      </trkpt>
      <trkpt lat="41.0781270" lon="0.4792400">
        <ele>296.9</ele>
        <time>2020-08-06T11:12:38Z</time>
      </trkpt>
      <trkpt lat="41.0781210" lon="0.4792180">
        <ele>297.0</ele>
        <time>2020-08-06T11:12:40Z</time>
      </trkpt>
      <trkpt lat="41.0781150" lon="0.4792130">
        <ele>297.0</ele>
        <time>2020-08-06T11:12:41Z</time>
      </trkpt>
      <trkpt lat="41.0781080" lon="0.4791980">
        <ele>297.0</ele>
        <time>2020-08-06T11:12:43Z</time>
      </trkpt>
      <trkpt lat="41.0781100" lon="0.4791850">
        <ele>297.1</ele>
        <time>2020-08-06T11:12:44Z</time>
      </trkpt>
      <trkpt lat="41.0781130" lon="0.4791560">
        <ele>297.1</ele>
        <time>2020-08-06T11:12:46Z</time>
      </trkpt>
      <trkpt lat="41.0781130" lon="0.4791460">
        <ele>297.1</ele>
        <time>2020-08-06T11:12:47Z</time>
      </trkpt>
      <trkpt lat="41.0781140" lon="0.4791360">
        <ele>297.2</ele>
        <time>2020-08-06T11:12:48Z</time>
      </trkpt>
      <trkpt lat="41.0781100" lon="0.4791160">
        <ele>297.2</ele>
        <time>2020-08-06T11:12:50Z</time>
      </trkpt>
      <trkpt lat="41.0781080" lon="0.4791000">
        <ele>297.2</ele>
        <time>2020-08-06T11:12:51Z</time>
      </trkpt>
      <trkpt lat="41.0781110" lon="0.4790730">
        <ele>297.3</ele>
        <time>2020-08-06T11:12:52Z</time>
      </trkpt>
      <trkpt lat="41.0781050" lon="0.4790420">
        <ele>297.3</ele>
        <time>2020-08-06T11:12:54Z</time>
      </trkpt>
      <trkpt lat="41.0781010" lon="0.4790260">
        <ele>297.4</ele>
        <time>2020-08-06T11:12:55Z</time>
      </trkpt>
      <trkpt lat="41.0780960" lon="0.4789940">
        <ele>297.4</ele>
        <time>2020-08-06T11:12:57Z</time>
      </trkpt>
      <trkpt lat="41.0780840" lon="0.4789570">
        <ele>297.5</ele>
        <time>2020-08-06T11:12:58Z</time>
      </trkpt>
      <trkpt lat="41.0780770" lon="0.4789360">
        <ele>297.5</ele>
        <time>2020-08-06T11:12:59Z</time>
      </trkpt>
      <trkpt lat="41.0780520" lon="0.4788660">
        <ele>297.7</ele>
        <time>2020-08-06T11:13:01Z</time>
      </trkpt>
      <trkpt lat="41.0780260" lon="0.4788350">
        <ele>297.8</ele>
        <time>2020-08-06T11:13:03Z</time>
      </trkpt>
      <trkpt lat="41.0780100" lon="0.4788230">
        <ele>297.8</ele>
        <time>2020-08-06T11:13:04Z</time>
      </trkpt>
      <trkpt lat="41.0779960" lon="0.4788110">
        <ele>297.9</ele>
        <time>2020-08-06T11:13:05Z</time>
      </trkpt>
      <trkpt lat="41.0779770" lon="0.4787780">
        <ele>298.0</ele>
        <time>2020-08-06T11:13:07Z</time>
      </trkpt>
      <trkpt lat="41.0779680" lon="0.4787640">
        <ele>298.0</ele>
        <time>2020-08-06T11:13:08Z</time>
      </trkpt>
      <trkpt lat="41.0779480" lon="0.4787450">
        <ele>298.1</ele>
        <time>2020-08-06T11:13:10Z</time>
      </trkpt>
      <trkpt lat="41.0779380" lon="0.4787320">
        <ele>298.2</ele>
        <time>2020-08-06T11:13:11Z</time>
      </trkpt>
      <trkpt lat="41.0779360" lon="0.4787250">
        <ele>298.2</ele>
        <time>2020-08-06T11:13:13Z</time>
      </trkpt>
      <trkpt lat="41.0779350" lon="0.4787190">
        <ele>298.2</ele>
        <time>2020-08-06T11:13:15Z</time>
      </trkpt>
      <trkpt lat="41.0779330" lon="0.4787130">
        <ele>298.2</ele>
        <time>2020-08-06T11:13:16Z</time>
      </trkpt>
      <trkpt lat="41.0779320" lon="0.4787070">
        <ele>298.2</ele>
        <time>2020-08-06T11:13:18Z</time>
      </trkpt>
      <trkpt lat="41.0779310" lon="0.4787000">
        <ele>298.2</ele>
        <time>2020-08-06T11:13:20Z</time>
      </trkpt>
      <trkpt lat="41.0779290" lon="0.4786940">
        <ele>298.2</ele>
        <time>2020-08-06T11:13:21Z</time>
      </trkpt>
      <trkpt lat="41.0779280" lon="0.4786880">
        <ele>298.2</ele>
        <time>2020-08-06T11:13:23Z</time>
      </trkpt>
      <trkpt lat="41.0779270" lon="0.4786810">
        <ele>298.2</ele>
        <time>2020-08-06T11:13:24Z</time>
      </trkpt>
      <trkpt lat="41.0779250" lon="0.4786750">
        <ele>298.3</ele>
        <time>2020-08-06T11:13:25Z</time>
      </trkpt>
      <trkpt lat="41.0779240" lon="0.4786690">
        <ele>298.3</ele>
        <time>2020-08-06T11:13:27Z</time>
      </trkpt>
      <trkpt lat="41.0779220" lon="0.4786630">
        <ele>298.3</ele>
        <time>2020-08-06T11:13:29Z</time>
      </trkpt>
      <trkpt lat="41.0779210" lon="0.4786560">
        <ele>298.3</ele>
        <time>2020-08-06T11:13:30Z</time>
      </trkpt>
      <trkpt lat="41.0779200" lon="0.4786500">
        <ele>298.3</ele>
        <time>2020-08-06T11:13:32Z</time>
      </trkpt>
      <trkpt lat="41.0779180" lon="0.4786440">
        <ele>298.3</ele>
        <time>2020-08-06T11:15:06Z</time>
      </trkpt>
      <trkpt lat="41.0779170" lon="0.4786380">
        <ele>298.3</ele>
        <time>2020-08-06T11:15:07Z</time>
      </trkpt>
      <trkpt lat="41.0779150" lon="0.4786310">
        <ele>298.4</ele>
        <time>2020-08-06T11:15:08Z</time>
      </trkpt>
      <trkpt lat="41.0779140" lon="0.4786250">
        <ele>298.4</ele>
        <time>2020-08-06T11:15:09Z</time>
      </trkpt>
      <trkpt lat="41.0779130" lon="0.4785940">
        <ele>298.5</ele>
        <time>2020-08-06T11:15:11Z</time>
      </trkpt>
      <trkpt lat="41.0779110" lon="0.4785810">
        <ele>298.5</ele>
        <time>2020-08-06T11:15:12Z</time>
      </trkpt>
      <trkpt lat="41.0779030" lon="0.4785660">
        <ele>298.6</ele>
        <time>2020-08-06T11:15:13Z</time>
      </trkpt>
      <trkpt lat="41.0778990" lon="0.4785310">
        <ele>298.6</ele>
        <time>2020-08-06T11:15:15Z</time>
      </trkpt>
      <trkpt lat="41.0779020" lon="0.4785120">
        <ele>298.6</ele>
        <time>2020-08-06T11:15:16Z</time>
      </trkpt>
      <trkpt lat="41.0779020" lon="0.4784940">
        <ele>298.7</ele>
        <time>2020-08-06T11:15:17Z</time>
      </trkpt>
      <trkpt lat="41.0778950" lon="0.4784590">
        <ele>298.8</ele>
        <time>2020-08-06T11:15:19Z</time>
      </trkpt>
      <trkpt lat="41.0778880" lon="0.4784450">
        <ele>298.9</ele>
        <time>2020-08-06T11:15:20Z</time>
      </trkpt>
      <trkpt lat="41.0778760" lon="0.4784300">
        <ele>299.0</ele>
        <time>2020-08-06T11:15:22Z</time>
      </trkpt>
      <trkpt lat="41.0778690" lon="0.4784230">
        <ele>299.0</ele>
        <time>2020-08-06T11:15:23Z</time>
      </trkpt>
      <trkpt lat="41.0778570" lon="0.4784140">
        <ele>299.1</ele>
        <time>2020-08-06T11:15:25Z</time>
      </trkpt>
      <trkpt lat="41.0778520" lon="0.4784100">
        <ele>299.1</ele>
        <time>2020-08-06T11:15:26Z</time>
      </trkpt>
      <trkpt lat="41.0778480" lon="0.4784050">
        <ele>299.1</ele>
        <time>2020-08-06T11:15:27Z</time>
      </trkpt>
      <trkpt lat="41.0778430" lon="0.4783980">
        <ele>299.1</ele>
        <time>2020-08-06T11:15:29Z</time>
      </trkpt>
      <trkpt lat="41.0778370" lon="0.4783910">
        <ele>299.2</ele>
        <time>2020-08-06T11:15:31Z</time>
      </trkpt>
      <trkpt lat="41.0778300" lon="0.4783870">
        <ele>299.1</ele>
        <time>2020-08-06T11:15:32Z</time>
      </trkpt>
      <trkpt lat="41.0778200" lon="0.4783750">
        <ele>299.2</ele>
        <time>2020-08-06T11:15:34Z</time>
      </trkpt>
      <trkpt lat="41.0778160" lon="0.4783700">
        <ele>299.2</ele>
        <time>2020-08-06T11:15:35Z</time>
      </trkpt>
      <trkpt lat="41.0778160" lon="0.4783650">
        <ele>299.2</ele>
        <time>2020-08-06T11:15:37Z</time>
      </trkpt>
      <trkpt lat="41.0778150" lon="0.4783650">
        <ele>299.2</ele>
        <time>2020-08-06T11:15:39Z</time>
      </trkpt>
      <trkpt lat="41.0778140" lon="0.4783640">
        <ele>299.2</ele>
        <time>2020-08-06T11:15:40Z</time>
      </trkpt>
      <trkpt lat="41.0778130" lon="0.4783640">
        <ele>299.2</ele>
        <time>2020-08-06T11:15:41Z</time>
      </trkpt>
      <trkpt lat="41.0778120" lon="0.4783640">
        <ele>299.2</ele>
        <time>2020-08-06T11:15:42Z</time>
      </trkpt>
      <trkpt lat="41.0778120" lon="0.4783640">
        <ele>299.2</ele>
        <time>2020-08-06T11:15:43Z</time>
      </trkpt>
      <trkpt lat="41.0778120" lon="0.4783640">
        <ele>299.2</ele>
        <time>2020-08-06T11:15:44Z</time>
      </trkpt>
      <trkpt lat="41.0778160" lon="0.4783710">
        <ele>299.3</ele>
        <time>2020-08-06T11:15:45Z</time>
      </trkpt>
      <trkpt lat="41.0778180" lon="0.4784320">
        <ele>299.5</ele>
        <time>2020-08-06T11:15:50Z</time>
      </trkpt>
      <trkpt lat="41.0778210" lon="0.4784340">
        <ele>299.5</ele>
        <time>2020-08-06T11:15:52Z</time>
      </trkpt>
      <trkpt lat="41.0778180" lon="0.4784150">
        <ele>299.6</ele>
        <time>2020-08-06T11:15:54Z</time>
      </trkpt>
      <trkpt lat="41.0778160" lon="0.4784170">
        <ele>299.6</ele>
        <time>2020-08-06T11:15:55Z</time>
      </trkpt>
      <trkpt lat="41.0778140" lon="0.4784220">
        <ele>299.6</ele>
        <time>2020-08-06T11:15:56Z</time>
      </trkpt>
      <trkpt lat="41.0778100" lon="0.4784460">
        <ele>299.6</ele>
        <time>2020-08-06T11:15:58Z</time>
      </trkpt>
      <trkpt lat="41.0778080" lon="0.4784590">
        <ele>299.6</ele>
        <time>2020-08-06T11:15:59Z</time>
      </trkpt>
      <trkpt lat="41.0778070" lon="0.4784780">
        <ele>299.7</ele>
        <time>2020-08-06T11:16:01Z</time>
      </trkpt>
      <trkpt lat="41.0778060" lon="0.4784870">
        <ele>299.7</ele>
        <time>2020-08-06T11:16:03Z</time>
      </trkpt>
      <trkpt lat="41.0778060" lon="0.4784900">
        <ele>299.7</ele>
        <time>2020-08-06T11:16:04Z</time>
      </trkpt>
      <trkpt lat="41.0778050" lon="0.4784920">
        <ele>299.7</ele>
        <time>2020-08-06T11:16:06Z</time>
      </trkpt>
      <trkpt lat="41.0778050" lon="0.4784920">
        <ele>299.7</ele>
        <time>2020-08-06T11:16:07Z</time>
      </trkpt>
      <trkpt lat="41.0778050" lon="0.4784920">
        <ele>299.7</ele>
        <time>2020-08-06T11:16:08Z</time>
      </trkpt>
      <trkpt lat="41.0778050" lon="0.4784930">
        <ele>299.7</ele>
        <time>2020-08-06T11:16:10Z</time>
      </trkpt>
      <trkpt lat="41.0778050" lon="0.4784930">
        <ele>299.7</ele>
        <time>2020-08-06T11:16:11Z</time>
      </trkpt>
      <trkpt lat="41.0778050" lon="0.4784930">
        <ele>299.7</ele>
        <time>2020-08-06T11:16:12Z</time>
      </trkpt>
      <trkpt lat="41.0778050" lon="0.4784930">
        <ele>299.7</ele>
        <time>2020-08-06T11:16:13Z</time>
      </trkpt>
      <trkpt lat="41.0778230" lon="0.4785090">
        <ele>299.8</ele>
        <time>2020-08-06T11:25:51Z</time>
      </trkpt>
      <trkpt lat="41.0778330" lon="0.4785100">
        <ele>299.9</ele>
        <time>2020-08-06T11:25:53Z</time>
      </trkpt>
      <trkpt lat="41.0778330" lon="0.4785080">
        <ele>299.9</ele>
        <time>2020-08-06T11:25:54Z</time>
      </trkpt>
      <trkpt lat="41.0778300" lon="0.4785040">
        <ele>299.9</ele>
        <time>2020-08-06T11:25:55Z</time>
      </trkpt>
      <trkpt lat="41.0778250" lon="0.4784960">
        <ele>299.9</ele>
        <time>2020-08-06T11:25:57Z</time>
      </trkpt>
      <trkpt lat="41.0778240" lon="0.4784920">
        <ele>299.9</ele>
        <time>2020-08-06T11:25:58Z</time>
      </trkpt>
      <trkpt lat="41.0778220" lon="0.4784900">
        <ele>300.0</ele>
        <time>2020-08-06T11:26:00Z</time>
      </trkpt>
      <trkpt lat="41.0778210" lon="0.4784910">
        <ele>300.0</ele>
        <time>2020-08-06T11:26:01Z</time>
      </trkpt>
      <trkpt lat="41.0778190" lon="0.4784930">
        <ele>300.0</ele>
        <time>2020-08-06T11:26:03Z</time>
      </trkpt>
      <trkpt lat="41.0778190" lon="0.4784920">
        <ele>300.0</ele>
        <time>2020-08-06T11:26:05Z</time>
      </trkpt>
      <trkpt lat="41.0778450" lon="0.4784510">
        <ele>300.1</ele>
        <time>2020-08-06T11:33:41Z</time>
      </trkpt>
      <trkpt lat="41.0778400" lon="0.4784420">
        <ele>300.2</ele>
        <time>2020-08-06T11:33:42Z</time>
      </trkpt>
      <trkpt lat="41.0778350" lon="0.4784340">
        <ele>300.2</ele>
        <time>2020-08-06T11:33:43Z</time>
      </trkpt>
      <trkpt lat="41.0778280" lon="0.4784200">
        <ele>300.3</ele>
        <time>2020-08-06T11:33:44Z</time>
      </trkpt>
      <trkpt lat="41.0778230" lon="0.4784130">
        <ele>300.3</ele>
        <time>2020-08-06T11:33:45Z</time>
      </trkpt>
      <trkpt lat="41.0778160" lon="0.4784000">
        <ele>300.3</ele>
        <time>2020-08-06T11:33:47Z</time>
      </trkpt>
      <trkpt lat="41.0778090" lon="0.4783750">
        <ele>300.4</ele>
        <time>2020-08-06T11:33:49Z</time>
      </trkpt>
      <trkpt lat="41.0778010" lon="0.4783380">
        <ele>300.5</ele>
        <time>2020-08-06T11:33:51Z</time>
      </trkpt>
      <trkpt lat="41.0777980" lon="0.4783270">
        <ele>300.6</ele>
        <time>2020-08-06T11:33:52Z</time>
      </trkpt>
      <trkpt lat="41.0777950" lon="0.4783080">
        <ele>300.6</ele>
        <time>2020-08-06T11:33:53Z</time>
      </trkpt>
      <trkpt lat="41.0777870" lon="0.4782880">
        <ele>300.7</ele>
        <time>2020-08-06T11:33:54Z</time>
      </trkpt>
      <trkpt lat="41.0777810" lon="0.4782710">
        <ele>300.8</ele>
        <time>2020-08-06T11:33:55Z</time>
      </trkpt>
      <trkpt lat="41.0777680" lon="0.4782530">
        <ele>300.9</ele>
        <time>2020-08-06T11:33:57Z</time>
      </trkpt>
      <trkpt lat="41.0777650" lon="0.4782370">
        <ele>300.9</ele>
        <time>2020-08-06T11:33:58Z</time>
      </trkpt>
      <trkpt lat="41.0777650" lon="0.4781950">
        <ele>301.1</ele>
        <time>2020-08-06T11:34:00Z</time>
      </trkpt>
      <trkpt lat="41.0777660" lon="0.4781650">
        <ele>301.2</ele>
        <time>2020-08-06T11:34:02Z</time>
      </trkpt>
      <trkpt lat="41.0777620" lon="0.4781480">
        <ele>301.2</ele>
        <time>2020-08-06T11:34:03Z</time>
      </trkpt>
      <trkpt lat="41.0777580" lon="0.4781380">
        <ele>301.3</ele>
        <time>2020-08-06T11:34:04Z</time>
      </trkpt>
      <trkpt lat="41.0777530" lon="0.4781340">
        <ele>301.3</ele>
        <time>2020-08-06T11:34:05Z</time>
      </trkpt>
      <trkpt lat="41.0777430" lon="0.4781320">
        <ele>301.4</ele>
        <time>2020-08-06T11:34:07Z</time>
      </trkpt>
      <trkpt lat="41.0777380" lon="0.4781290">
        <ele>301.4</ele>
        <time>2020-08-06T11:34:08Z</time>
      </trkpt>
      <trkpt lat="41.0777290" lon="0.4781090">
        <ele>301.5</ele>
        <time>2020-08-06T11:34:10Z</time>
      </trkpt>
      <trkpt lat="41.0777330" lon="0.4780870">
        <ele>301.6</ele>
        <time>2020-08-06T11:34:12Z</time>
      </trkpt>
      <trkpt lat="41.0777320" lon="0.4780770">
        <ele>301.7</ele>
        <time>2020-08-06T11:34:13Z</time>
      </trkpt>
      <trkpt lat="41.0777230" lon="0.4780650">
        <ele>301.7</ele>
        <time>2020-08-06T11:34:14Z</time>
      </trkpt>
      <trkpt lat="41.0777160" lon="0.4780530">
        <ele>301.8</ele>
        <time>2020-08-06T11:34:15Z</time>
      </trkpt>
      <trkpt lat="41.0777080" lon="0.4780120">
        <ele>302.0</ele>
        <time>2020-08-06T11:34:17Z</time>
      </trkpt>
      <trkpt lat="41.0777130" lon="0.4779830">
        <ele>302.1</ele>
        <time>2020-08-06T11:34:19Z</time>
      </trkpt>
      <trkpt lat="41.0777160" lon="0.4779810">
        <ele>302.1</ele>
        <time>2020-08-06T11:34:20Z</time>
      </trkpt>
      <trkpt lat="41.0777180" lon="0.4779660">
        <ele>302.1</ele>
        <time>2020-08-06T11:34:22Z</time>
      </trkpt>
      <trkpt lat="41.0777110" lon="0.4779540">
        <ele>302.2</ele>
        <time>2020-08-06T11:34:24Z</time>
      </trkpt>
      <trkpt lat="41.0777080" lon="0.4779460">
        <ele>302.2</ele>
        <time>2020-08-06T11:34:25Z</time>
      </trkpt>
      <trkpt lat="41.0777050" lon="0.4779350">
        <ele>302.2</ele>
        <time>2020-08-06T11:34:27Z</time>
      </trkpt>
      <trkpt lat="41.0777030" lon="0.4779290">
        <ele>302.2</ele>
        <time>2020-08-06T11:34:28Z</time>
      </trkpt>
      <trkpt lat="41.0776950" lon="0.4779240">
        <ele>302.2</ele>
        <time>2020-08-06T11:34:29Z</time>
      </trkpt>
      <trkpt lat="41.0776910" lon="0.4779240">
        <ele>302.2</ele>
        <time>2020-08-06T11:34:31Z</time>
      </trkpt>
      <trkpt lat="41.0776860" lon="0.4779250">
        <ele>302.3</ele>
        <time>2020-08-06T11:34:33Z</time>
      </trkpt>
      <trkpt lat="41.0776820" lon="0.4779250">
        <ele>302.3</ele>
        <time>2020-08-06T11:34:35Z</time>
      </trkpt>
      <trkpt lat="41.0776770" lon="0.4779260">
        <ele>302.3</ele>
        <time>2020-08-06T11:34:37Z</time>
      </trkpt>
      <trkpt lat="41.0776730" lon="0.4779260">
        <ele>302.3</ele>
        <time>2020-08-06T11:34:39Z</time>
      </trkpt>
      <trkpt lat="41.0776680" lon="0.4779270">
        <ele>302.3</ele>
        <time>2020-08-06T11:34:40Z</time>
      </trkpt>
      <trkpt lat="41.0776640" lon="0.4779270">
        <ele>302.3</ele>
        <time>2020-08-06T11:34:41Z</time>
      </trkpt>
      <trkpt lat="41.0776590" lon="0.4779280">
        <ele>302.3</ele>
        <time>2020-08-06T11:34:42Z</time>
      </trkpt>
      <trkpt lat="41.0776550" lon="0.4779280">
        <ele>302.3</ele>
        <time>2020-08-06T11:34:46Z</time>
      </trkpt>
      <trkpt lat="41.0776500" lon="0.4779290">
        <ele>302.3</ele>
        <time>2020-08-06T11:35:02Z</time>
      </trkpt>
      <trkpt lat="41.0776460" lon="0.4779290">
        <ele>302.4</ele>
        <time>2020-08-06T11:35:04Z</time>
      </trkpt>
      <trkpt lat="41.0776410" lon="0.4779300">
        <ele>302.4</ele>
        <time>2020-08-06T11:35:05Z</time>
      </trkpt>
      <trkpt lat="41.0776370" lon="0.4779160">
        <ele>302.4</ele>
        <time>2020-08-06T11:35:06Z</time>
      </trkpt>
      <trkpt lat="41.0776320" lon="0.4778950">
        <ele>302.4</ele>
        <time>2020-08-06T11:35:07Z</time>
      </trkpt>
      <trkpt lat="41.0776360" lon="0.4778820">
        <ele>302.5</ele>
        <time>2020-08-06T11:35:08Z</time>
      </trkpt>
      <trkpt lat="41.0776440" lon="0.4778760">
        <ele>302.5</ele>
        <time>2020-08-06T11:35:10Z</time>
      </trkpt>
      <trkpt lat="41.0776490" lon="0.4778720">
        <ele>302.5</ele>
        <time>2020-08-06T11:35:12Z</time>
      </trkpt>
      <trkpt lat="41.0776500" lon="0.4778670">
        <ele>302.5</ele>
        <time>2020-08-06T11:35:13Z</time>
      </trkpt>
      <trkpt lat="41.0776510" lon="0.4778570">
        <ele>302.5</ele>
        <time>2020-08-06T11:35:14Z</time>
      </trkpt>
      <trkpt lat="41.0776530" lon="0.4778520">
        <ele>302.5</ele>
        <time>2020-08-06T11:35:15Z</time>
      </trkpt>
      <trkpt lat="41.0776600" lon="0.4778410">
        <ele>302.6</ele>
        <time>2020-08-06T11:35:17Z</time>
      </trkpt>
      <trkpt lat="41.0776690" lon="0.4778280">
        <ele>302.6</ele>
        <time>2020-08-06T11:35:19Z</time>
      </trkpt>
      <trkpt lat="41.0776740" lon="0.4778220">
        <ele>302.6</ele>
        <time>2020-08-06T11:35:20Z</time>
      </trkpt>
      <trkpt lat="41.0776840" lon="0.4778090">
        <ele>302.7</ele>
        <time>2020-08-06T11:35:22Z</time>
      </trkpt>
      <trkpt lat="41.0776970" lon="0.4777980">
        <ele>302.7</ele>
        <time>2020-08-06T11:35:24Z</time>
      </trkpt>
      <trkpt lat="41.0777320" lon="0.4777590">
        <ele>303.5</ele>
        <time>2020-08-06T11:35:26Z</time>
      </trkpt>
      <trkpt lat="41.0777580" lon="0.4777300">
        <ele>303.9</ele>
        <time>2020-08-06T11:35:27Z</time>
      </trkpt>
      <trkpt lat="41.0777640" lon="0.4777240">
        <ele>304.0</ele>
        <time>2020-08-06T11:35:29Z</time>
      </trkpt>
      <trkpt lat="41.0777580" lon="0.4777390">
        <ele>304.2</ele>
        <time>2020-08-06T11:35:30Z</time>
      </trkpt>
      <trkpt lat="41.0777550" lon="0.4777500">
        <ele>304.3</ele>
        <time>2020-08-06T11:35:31Z</time>
      </trkpt>
      <trkpt lat="41.0777590" lon="0.4777610">
        <ele>304.4</ele>
        <time>2020-08-06T11:35:32Z</time>
      </trkpt>
      <trkpt lat="41.0777550" lon="0.4777590">
        <ele>304.5</ele>
        <time>2020-08-06T11:35:33Z</time>
      </trkpt>
      <trkpt lat="41.0777630" lon="0.4777560">
        <ele>304.6</ele>
        <time>2020-08-06T11:35:35Z</time>
      </trkpt>
      <trkpt lat="41.0777730" lon="0.4777650">
        <ele>304.7</ele>
        <time>2020-08-06T11:35:37Z</time>
      </trkpt>
      <trkpt lat="41.0777720" lon="0.4777540">
        <ele>304.8</ele>
        <time>2020-08-06T11:35:39Z</time>
      </trkpt>
      <trkpt lat="41.0777730" lon="0.4777470">
        <ele>304.9</ele>
        <time>2020-08-06T11:35:40Z</time>
      </trkpt>
      <trkpt lat="41.0777760" lon="0.4777400">
        <ele>305.0</ele>
        <time>2020-08-06T11:35:41Z</time>
      </trkpt>
      <trkpt lat="41.0777810" lon="0.4777310">
        <ele>305.1</ele>
        <time>2020-08-06T11:35:43Z</time>
      </trkpt>
      <trkpt lat="41.0777850" lon="0.4777250">
        <ele>305.1</ele>
        <time>2020-08-06T11:35:44Z</time>
      </trkpt>
      <trkpt lat="41.0777900" lon="0.4777190">
        <ele>305.2</ele>
        <time>2020-08-06T11:35:45Z</time>
      </trkpt>
      <trkpt lat="41.0777980" lon="0.4777090">
        <ele>305.4</ele>
        <time>2020-08-06T11:35:46Z</time>
      </trkpt>
      <trkpt lat="41.0778050" lon="0.4777010">
        <ele>305.5</ele>
        <time>2020-08-06T11:35:48Z</time>
      </trkpt>
      <trkpt lat="41.0778320" lon="0.4776770">
        <ele>306.1</ele>
        <time>2020-08-06T11:35:51Z</time>
      </trkpt>
      <trkpt lat="41.0778730" lon="0.4776480">
        <ele>305.2</ele>
        <time>2020-08-06T11:35:53Z</time>
      </trkpt>
      <trkpt lat="41.0778950" lon="0.4776280">
        <ele>305.2</ele>
        <time>2020-08-06T11:35:54Z</time>
      </trkpt>
      <trkpt lat="41.0779190" lon="0.4776050">
        <ele>302.8</ele>
        <time>2020-08-06T11:35:55Z</time>
      </trkpt>
      <trkpt lat="41.0779340" lon="0.4775830">
        <ele>303.0</ele>
        <time>2020-08-06T11:35:56Z</time>
      </trkpt>
      <trkpt lat="41.0779580" lon="0.4775360">
        <ele>303.2</ele>
        <time>2020-08-06T11:35:58Z</time>
      </trkpt>
      <trkpt lat="41.0779680" lon="0.4775220">
        <ele>303.3</ele>
        <time>2020-08-06T11:35:59Z</time>
      </trkpt>
      <trkpt lat="41.0779880" lon="0.4775060">
        <ele>303.4</ele>
        <time>2020-08-06T11:36:01Z</time>
      </trkpt>
      <trkpt lat="41.0779970" lon="0.4774990">
        <ele>303.4</ele>
        <time>2020-08-06T11:36:02Z</time>
      </trkpt>
      <trkpt lat="41.0780060" lon="0.4774910">
        <ele>303.5</ele>
        <time>2020-08-06T11:36:03Z</time>
      </trkpt>
      <trkpt lat="41.0780230" lon="0.4774750">
        <ele>303.6</ele>
        <time>2020-08-06T11:36:05Z</time>
      </trkpt>
      <trkpt lat="41.0780310" lon="0.4774670">
        <ele>303.6</ele>
        <time>2020-08-06T11:36:06Z</time>
      </trkpt>
      <trkpt lat="41.0780530" lon="0.4774500">
        <ele>303.8</ele>
        <time>2020-08-06T11:36:08Z</time>
      </trkpt>
      <trkpt lat="41.0780680" lon="0.4774380">
        <ele>303.8</ele>
        <time>2020-08-06T11:36:10Z</time>
      </trkpt>
      <trkpt lat="41.0780710" lon="0.4774340">
        <ele>303.9</ele>
        <time>2020-08-06T11:36:11Z</time>
      </trkpt>
      <trkpt lat="41.0780720" lon="0.4774320">
        <ele>303.9</ele>
        <time>2020-08-06T11:36:12Z</time>
      </trkpt>
      <trkpt lat="41.0780720" lon="0.4774280">
        <ele>303.9</ele>
        <time>2020-08-06T11:36:14Z</time>
      </trkpt>
      <trkpt lat="41.0780720" lon="0.4774270">
        <ele>303.9</ele>
        <time>2020-08-06T11:36:15Z</time>
      </trkpt>
      <trkpt lat="41.0780720" lon="0.4774240">
        <ele>303.9</ele>
        <time>2020-08-06T11:36:16Z</time>
      </trkpt>
      <trkpt lat="41.0780820" lon="0.4774360">
        <ele>304.0</ele>
        <time>2020-08-06T11:36:17Z</time>
      </trkpt>
      <trkpt lat="41.0780920" lon="0.4774490">
        <ele>304.0</ele>
        <time>2020-08-06T11:36:19Z</time>
      </trkpt>
      <trkpt lat="41.0781020" lon="0.4774610">
        <ele>303.8</ele>
        <time>2020-08-06T11:36:21Z</time>
      </trkpt>
      <trkpt lat="41.0781120" lon="0.4774730">
        <ele>303.8</ele>
        <time>2020-08-06T11:36:23Z</time>
      </trkpt>
      <trkpt lat="41.0781220" lon="0.4774860">
        <ele>303.9</ele>
        <time>2020-08-06T11:37:15Z</time>
      </trkpt>
      <trkpt lat="41.0781320" lon="0.4774980">
        <ele>303.9</ele>
        <time>2020-08-06T11:37:17Z</time>
      </trkpt>
      <trkpt lat="41.0781420" lon="0.4775110">
        <ele>303.9</ele>
        <time>2020-08-06T11:37:18Z</time>
      </trkpt>
      <trkpt lat="41.0781520" lon="0.4775230">
        <ele>304.0</ele>
        <time>2020-08-06T11:37:19Z</time>
      </trkpt>
      <trkpt lat="41.0781740" lon="0.4775810">
        <ele>304.0</ele>
        <time>2020-08-06T11:37:21Z</time>
      </trkpt>
      <trkpt lat="41.0782000" lon="0.4776270">
        <ele>304.0</ele>
        <time>2020-08-06T11:37:23Z</time>
      </trkpt>
      <trkpt lat="41.0782170" lon="0.4776540">
        <ele>304.0</ele>
        <time>2020-08-06T11:37:24Z</time>
      </trkpt>
      <trkpt lat="41.0782490" lon="0.4777080">
        <ele>304.0</ele>
        <time>2020-08-06T11:37:26Z</time>
      </trkpt>
      <trkpt lat="41.0782640" lon="0.4777400">
        <ele>303.9</ele>
        <time>2020-08-06T11:37:27Z</time>
      </trkpt>
      <trkpt lat="41.0783080" lon="0.4778110">
        <ele>303.8</ele>
        <time>2020-08-06T11:37:29Z</time>
      </trkpt>
      <trkpt lat="41.0783340" lon="0.4778400">
        <ele>303.8</ele>
        <time>2020-08-06T11:37:30Z</time>
      </trkpt>
      <trkpt lat="41.0783780" lon="0.4778760">
        <ele>303.7</ele>
        <time>2020-08-06T11:37:32Z</time>
      </trkpt>
      <trkpt lat="41.0784020" lon="0.4778800">
        <ele>303.6</ele>
        <time>2020-08-06T11:37:34Z</time>
      </trkpt>
      <trkpt lat="41.0784130" lon="0.4778780">
        <ele>303.6</ele>
        <time>2020-08-06T11:37:35Z</time>
      </trkpt>
      <trkpt lat="41.0784350" lon="0.4779010">
        <ele>303.6</ele>
        <time>2020-08-06T11:37:37Z</time>
      </trkpt>
      <trkpt lat="41.0784480" lon="0.4779240">
        <ele>303.5</ele>
        <time>2020-08-06T11:37:38Z</time>
      </trkpt>
      <trkpt lat="41.0785020" lon="0.4779870">
        <ele>303.4</ele>
        <time>2020-08-06T11:37:40Z</time>
      </trkpt>
      <trkpt lat="41.0785420" lon="0.4780150">
        <ele>303.3</ele>
        <time>2020-08-06T11:37:41Z</time>
      </trkpt>
      <trkpt lat="41.0786210" lon="0.4780440">
        <ele>303.1</ele>
        <time>2020-08-06T11:37:43Z</time>
      </trkpt>
      <trkpt lat="41.0786610" lon="0.4780540">
        <ele>303.0</ele>
        <time>2020-08-06T11:37:44Z</time>
      </trkpt>
      <trkpt lat="41.0787010" lon="0.4780650">
        <ele>302.9</ele>
        <time>2020-08-06T11:37:45Z</time>
      </trkpt>
      <trkpt lat="41.0787570" lon="0.4780830">
        <ele>302.6</ele>
        <time>2020-08-06T11:37:47Z</time>
      </trkpt>
      <trkpt lat="41.0787760" lon="0.4780900">
        <ele>302.5</ele>
        <time>2020-08-06T11:37:49Z</time>
      </trkpt>
      <trkpt lat="41.0787900" lon="0.4780950">
        <ele>302.4</ele>
        <time>2020-08-06T11:37:50Z</time>
      </trkpt>
      <trkpt lat="41.0788010" lon="0.4780990">
        <ele>302.3</ele>
        <time>2020-08-06T11:37:51Z</time>
      </trkpt>
      <trkpt lat="41.0788110" lon="0.4781010">
        <ele>302.2</ele>
        <time>2020-08-06T11:37:53Z</time>
      </trkpt>
      <trkpt lat="41.0788140" lon="0.4781010">
        <ele>302.2</ele>
        <time>2020-08-06T11:37:54Z</time>
      </trkpt>
      <trkpt lat="41.0788180" lon="0.4781020">
        <ele>302.2</ele>
        <time>2020-08-06T11:37:55Z</time>
      </trkpt>
      <trkpt lat="41.0788240" lon="0.4781040">
        <ele>302.2</ele>
        <time>2020-08-06T11:37:57Z</time>
      </trkpt>
      <trkpt lat="41.0788280" lon="0.4781060">
        <ele>302.1</ele>
        <time>2020-08-06T11:37:58Z</time>
      </trkpt>
      <trkpt lat="41.0788420" lon="0.4781140">
        <ele>302.0</ele>
        <time>2020-08-06T11:37:59Z</time>
      </trkpt>
      <trkpt lat="41.0788810" lon="0.4781370">
        <ele>301.7</ele>
        <time>2020-08-06T11:38:01Z</time>
      </trkpt>
      <trkpt lat="41.0788980" lon="0.4781450">
        <ele>301.8</ele>
        <time>2020-08-06T11:38:02Z</time>
      </trkpt>
      <trkpt lat="41.0789090" lon="0.4781450">
        <ele>301.9</ele>
        <time>2020-08-06T11:38:03Z</time>
      </trkpt>
      <trkpt lat="41.0789160" lon="0.4781450">
        <ele>301.9</ele>
        <time>2020-08-06T11:38:04Z</time>
      </trkpt>
      <trkpt lat="41.0789220" lon="0.4781450">
        <ele>302.0</ele>
        <time>2020-08-06T11:38:05Z</time>
      </trkpt>
      <trkpt lat="41.0789280" lon="0.4781420">
        <ele>302.0</ele>
        <time>2020-08-06T11:38:06Z</time>
      </trkpt>
      <trkpt lat="41.0789330" lon="0.4781340">
        <ele>302.1</ele>
        <time>2020-08-06T11:38:08Z</time>
      </trkpt>
      <trkpt lat="41.0789320" lon="0.4781280">
        <ele>302.1</ele>
        <time>2020-08-06T11:38:10Z</time>
      </trkpt>
      <trkpt lat="41.0789330" lon="0.4781280">
        <ele>302.1</ele>
        <time>2020-08-06T11:38:11Z</time>
      </trkpt>
      <trkpt lat="41.0789330" lon="0.4781280">
        <ele>302.1</ele>
        <time>2020-08-06T11:38:12Z</time>
      </trkpt>
      <trkpt lat="41.0789350" lon="0.4781270">
        <ele>302.1</ele>
        <time>2020-08-06T11:38:13Z</time>
      </trkpt>
      <trkpt lat="41.0789380" lon="0.4781320">
        <ele>302.2</ele>
        <time>2020-08-06T11:38:15Z</time>
      </trkpt>
      <trkpt lat="41.0789380" lon="0.4781380">
        <ele>302.2</ele>
        <time>2020-08-06T11:38:16Z</time>
      </trkpt>
      <trkpt lat="41.0789270" lon="0.4780680">
        <ele>302.6</ele>
        <time>2020-08-06T11:38:23Z</time>
      </trkpt>
      <trkpt lat="41.0789290" lon="0.4780450">
        <ele>302.7</ele>
        <time>2020-08-06T11:38:24Z</time>
      </trkpt>
      <trkpt lat="41.0789330" lon="0.4780270">
        <ele>302.8</ele>
        <time>2020-08-06T11:38:25Z</time>
      </trkpt>
      <trkpt lat="41.0789450" lon="0.4780040">
        <ele>302.9</ele>
        <time>2020-08-06T11:38:27Z</time>
      </trkpt>
      <trkpt lat="41.0789520" lon="0.4779940">
        <ele>303.0</ele>
        <time>2020-08-06T11:38:28Z</time>
      </trkpt>
      <trkpt lat="41.0789590" lon="0.4779830">
        <ele>303.1</ele>
        <time>2020-08-06T11:38:29Z</time>
      </trkpt>
      <trkpt lat="41.0789660" lon="0.4779740">
        <ele>303.1</ele>
        <time>2020-08-06T11:38:30Z</time>
      </trkpt>
      <trkpt lat="41.0789750" lon="0.4779520">
        <ele>303.2</ele>
        <time>2020-08-06T11:38:32Z</time>
      </trkpt>
      <trkpt lat="41.0789830" lon="0.4779290">
        <ele>303.4</ele>
        <time>2020-08-06T11:38:33Z</time>
      </trkpt>
      <trkpt lat="41.0789890" lon="0.4779140">
        <ele>303.4</ele>
        <time>2020-08-06T11:38:36Z</time>
      </trkpt>
      <trkpt lat="41.0789950" lon="0.4779000">
        <ele>303.5</ele>
        <time>2020-08-06T11:38:37Z</time>
      </trkpt>
      <trkpt lat="41.0789980" lon="0.4778840">
        <ele>303.6</ele>
        <time>2020-08-06T11:38:38Z</time>
      </trkpt>
      <trkpt lat="41.0789870" lon="0.4778480">
        <ele>303.7</ele>
        <time>2020-08-06T11:38:40Z</time>
      </trkpt>
      <trkpt lat="41.0789810" lon="0.4778350">
        <ele>303.8</ele>
        <time>2020-08-06T11:38:41Z</time>
      </trkpt>
      <trkpt lat="41.0789730" lon="0.4778100">
        <ele>304.0</ele>
        <time>2020-08-06T11:38:43Z</time>
      </trkpt>
      <trkpt lat="41.0789710" lon="0.4777840">
        <ele>304.2</ele>
        <time>2020-08-06T11:38:45Z</time>
      </trkpt>
      <trkpt lat="41.0789700" lon="0.4777620">
        <ele>304.3</ele>
        <time>2020-08-06T11:38:47Z</time>
      </trkpt>
      <trkpt lat="41.0789670" lon="0.4777550">
        <ele>304.4</ele>
        <time>2020-08-06T11:38:48Z</time>
      </trkpt>
      <trkpt lat="41.0789550" lon="0.4777210">
        <ele>304.6</ele>
        <time>2020-08-06T11:38:50Z</time>
      </trkpt>
      <trkpt lat="41.0789550" lon="0.4776990">
        <ele>305.0</ele>
        <time>2020-08-06T11:38:51Z</time>
      </trkpt>
      <trkpt lat="41.0789610" lon="0.4776550">
        <ele>305.0</ele>
        <time>2020-08-06T11:38:53Z</time>
      </trkpt>
      <trkpt lat="41.0789690" lon="0.4776110">
        <ele>305.2</ele>
        <time>2020-08-06T11:38:55Z</time>
      </trkpt>
      <trkpt lat="41.0789660" lon="0.4775760">
        <ele>305.3</ele>
        <time>2020-08-06T11:38:57Z</time>
      </trkpt>
      <trkpt lat="41.0789590" lon="0.4775660">
        <ele>305.4</ele>
        <time>2020-08-06T11:38:58Z</time>
      </trkpt>
      <trkpt lat="41.0789470" lon="0.4775550">
        <ele>305.5</ele>
        <time>2020-08-06T11:39:00Z</time>
      </trkpt>
      <trkpt lat="41.0789410" lon="0.4775500">
        <ele>305.5</ele>
        <time>2020-08-06T11:39:01Z</time>
      </trkpt>
      <trkpt lat="41.0789300" lon="0.4775380">
        <ele>305.6</ele>
        <time>2020-08-06T11:39:03Z</time>
      </trkpt>
      <trkpt lat="41.0789230" lon="0.4775310">
        <ele>305.6</ele>
        <time>2020-08-06T11:39:04Z</time>
      </trkpt>
      <trkpt lat="41.0789000" lon="0.4775290">
        <ele>305.7</ele>
        <time>2020-08-06T11:39:06Z</time>
      </trkpt>
      <trkpt lat="41.0788890" lon="0.4775310">
        <ele>305.8</ele>
        <time>2020-08-06T11:39:07Z</time>
      </trkpt>
      <trkpt lat="41.0788790" lon="0.4775330">
        <ele>305.8</ele>
        <time>2020-08-06T11:39:08Z</time>
      </trkpt>
      <trkpt lat="41.0788650" lon="0.4775340">
        <ele>305.9</ele>
        <time>2020-08-06T11:39:10Z</time>
      </trkpt>
      <trkpt lat="41.0788620" lon="0.4775210">
        <ele>306.0</ele>
        <time>2020-08-06T11:39:12Z</time>
      </trkpt>
      <trkpt lat="41.0788600" lon="0.4774990">
        <ele>306.1</ele>
        <time>2020-08-06T11:39:14Z</time>
      </trkpt>
      <trkpt lat="41.0788520" lon="0.4774780">
        <ele>306.3</ele>
        <time>2020-08-06T11:39:16Z</time>
      </trkpt>
      <trkpt lat="41.0788430" lon="0.4774730">
        <ele>306.3</ele>
        <time>2020-08-06T11:39:17Z</time>
      </trkpt>
      <trkpt lat="41.0788230" lon="0.4774650">
        <ele>306.5</ele>
        <time>2020-08-06T11:39:19Z</time>
      </trkpt>
      <trkpt lat="41.0788100" lon="0.4774650">
        <ele>306.6</ele>
        <time>2020-08-06T11:39:20Z</time>
      </trkpt>
      <trkpt lat="41.0787900" lon="0.4774660">
        <ele>306.8</ele>
        <time>2020-08-06T11:39:22Z</time>
      </trkpt>
      <trkpt lat="41.0787830" lon="0.4774650">
        <ele>306.9</ele>
        <time>2020-08-06T11:39:23Z</time>
      </trkpt>
      <trkpt lat="41.0787630" lon="0.4774460">
        <ele>307.1</ele>
        <time>2020-08-06T11:39:25Z</time>
      </trkpt>
      <trkpt lat="41.0787550" lon="0.4774250">
        <ele>307.2</ele>
        <time>2020-08-06T11:39:27Z</time>
      </trkpt>
      <trkpt lat="41.0787480" lon="0.4774100">
        <ele>307.4</ele>
        <time>2020-08-06T11:39:29Z</time>
      </trkpt>
      <trkpt lat="41.0787410" lon="0.4774040">
        <ele>307.4</ele>
        <time>2020-08-06T11:39:30Z</time>
      </trkpt>
      <trkpt lat="41.0787210" lon="0.4774040">
        <ele>307.6</ele>
        <time>2020-08-06T11:39:32Z</time>
      </trkpt>
      <trkpt lat="41.0787020" lon="0.4774120">
        <ele>307.8</ele>
        <time>2020-08-06T11:39:34Z</time>
      </trkpt>
      <trkpt lat="41.0786970" lon="0.4774110">
        <ele>307.8</ele>
        <time>2020-08-06T11:39:36Z</time>
      </trkpt>
      <trkpt lat="41.0786950" lon="0.4774060">
        <ele>307.9</ele>
        <time>2020-08-06T11:39:37Z</time>
      </trkpt>
      <trkpt lat="41.0786920" lon="0.4773980">
        <ele>307.9</ele>
        <time>2020-08-06T11:39:39Z</time>
      </trkpt>
      <trkpt lat="41.0786950" lon="0.4773970">
        <ele>307.9</ele>
        <time>2020-08-06T11:39:40Z</time>
      </trkpt>
      <trkpt lat="41.0786970" lon="0.4773970">
        <ele>308.0</ele>
        <time>2020-08-06T11:39:41Z</time>
      </trkpt>
      <trkpt lat="41.0786990" lon="0.4773960">
        <ele>308.0</ele>
        <time>2020-08-06T11:39:43Z</time>
      </trkpt>
      <trkpt lat="41.0787000" lon="0.4773960">
        <ele>308.0</ele>
        <time>2020-08-06T11:39:44Z</time>
      </trkpt>
      <trkpt lat="41.0786950" lon="0.4773910">
        <ele>308.0</ele>
        <time>2020-08-06T11:39:46Z</time>
      </trkpt>
      <trkpt lat="41.0786930" lon="0.4773860">
        <ele>308.1</ele>
        <time>2020-08-06T11:39:48Z</time>
      </trkpt>
      <trkpt lat="41.0786930" lon="0.4773830">
        <ele>308.1</ele>
        <time>2020-08-06T11:39:49Z</time>
      </trkpt>
      <trkpt lat="41.0786650" lon="0.4773970">
        <ele>308.4</ele>
        <time>2020-08-06T11:39:55Z</time>
      </trkpt>
      <trkpt lat="41.0786590" lon="0.4773930">
        <ele>308.4</ele>
        <time>2020-08-06T11:39:56Z</time>
      </trkpt>
      <trkpt lat="41.0786430" lon="0.4773690">
        <ele>308.6</ele>
        <time>2020-08-06T11:39:58Z</time>
      </trkpt>
      <trkpt lat="41.0786340" lon="0.4773470">
        <ele>308.8</ele>
        <time>2020-08-06T11:40:00Z</time>
      </trkpt>
      <trkpt lat="41.0786210" lon="0.4773030">
        <ele>309.1</ele>
        <time>2020-08-06T11:40:02Z</time>
      </trkpt>
      <trkpt lat="41.0786120" lon="0.4772900">
        <ele>309.3</ele>
        <time>2020-08-06T11:40:03Z</time>
      </trkpt>
      <trkpt lat="41.0785900" lon="0.4772780">
        <ele>309.5</ele>
        <time>2020-08-06T11:40:05Z</time>
      </trkpt>
      <trkpt lat="41.0785580" lon="0.4772800">
        <ele>309.8</ele>
        <time>2020-08-06T11:40:07Z</time>
      </trkpt>
      <trkpt lat="41.0785510" lon="0.4772830">
        <ele>309.8</ele>
        <time>2020-08-06T11:40:08Z</time>
      </trkpt>
      <trkpt lat="41.0785380" lon="0.4772880">
        <ele>310.0</ele>
        <time>2020-08-06T11:40:09Z</time>
      </trkpt>
      <trkpt lat="41.0785180" lon="0.4773000">
        <ele>310.2</ele>
        <time>2020-08-06T11:40:11Z</time>
      </trkpt>
      <trkpt lat="41.0785120" lon="0.4773080">
        <ele>310.2</ele>
        <time>2020-08-06T11:40:12Z</time>
      </trkpt>
      <trkpt lat="41.0785100" lon="0.4773160">
        <ele>310.3</ele>
        <time>2020-08-06T11:40:13Z</time>
      </trkpt>
      <trkpt lat="41.0785130" lon="0.4773240">
        <ele>310.4</ele>
        <time>2020-08-06T11:40:15Z</time>
      </trkpt>
      <trkpt lat="41.0785130" lon="0.4773250">
        <ele>310.4</ele>
        <time>2020-08-06T11:40:16Z</time>
      </trkpt>
      <trkpt lat="41.0785110" lon="0.4773270">
        <ele>310.4</ele>
        <time>2020-08-06T11:40:18Z</time>
      </trkpt>
      <trkpt lat="41.0785080" lon="0.4773270">
        <ele>310.4</ele>
        <time>2020-08-06T11:40:19Z</time>
      </trkpt>
      <trkpt lat="41.0785050" lon="0.4773270">
        <ele>310.5</ele>
        <time>2020-08-06T11:40:20Z</time>
      </trkpt>
      <trkpt lat="41.0785030" lon="0.4773270">
        <ele>310.5</ele>
        <time>2020-08-06T11:40:21Z</time>
      </trkpt>
      <trkpt lat="41.0785010" lon="0.4773270">
        <ele>310.5</ele>
        <time>2020-08-06T11:40:23Z</time>
      </trkpt>
      <trkpt lat="41.0784880" lon="0.4773650">
        <ele>310.8</ele>
        <time>2020-08-06T11:40:41Z</time>
      </trkpt>
      <trkpt lat="41.0785010" lon="0.4773790">
        <ele>310.9</ele>
        <time>2020-08-06T11:40:43Z</time>
      </trkpt>
      <trkpt lat="41.0785090" lon="0.4773820">
        <ele>311.0</ele>
        <time>2020-08-06T11:40:44Z</time>
      </trkpt>
      <trkpt lat="41.0785200" lon="0.4773820">
        <ele>311.1</ele>
        <time>2020-08-06T11:40:46Z</time>
      </trkpt>
      <trkpt lat="41.0785210" lon="0.4773820">
        <ele>311.1</ele>
        <time>2020-08-06T11:40:47Z</time>
      </trkpt>
      <trkpt lat="41.0785170" lon="0.4773820">
        <ele>311.2</ele>
        <time>2020-08-06T11:40:49Z</time>
      </trkpt>
      <trkpt lat="41.0785160" lon="0.4773870">
        <ele>311.2</ele>
        <time>2020-08-06T11:40:50Z</time>
      </trkpt>
      <trkpt lat="41.0785160" lon="0.4773940">
        <ele>311.2</ele>
        <time>2020-08-06T11:40:52Z</time>
      </trkpt>
      <trkpt lat="41.0785170" lon="0.4773940">
        <ele>311.3</ele>
        <time>2020-08-06T11:40:53Z</time>
      </trkpt>
      <trkpt lat="41.0785180" lon="0.4773990">
        <ele>311.3</ele>
        <time>2020-08-06T11:40:55Z</time>
      </trkpt>
      <trkpt lat="41.0785170" lon="0.4774040">
        <ele>311.3</ele>
        <time>2020-08-06T11:40:56Z</time>
      </trkpt>
      <trkpt lat="41.0785160" lon="0.4774060">
        <ele>311.3</ele>
        <time>2020-08-06T11:40:57Z</time>
      </trkpt>
      <trkpt lat="41.0785160" lon="0.4774070">
        <ele>311.3</ele>
        <time>2020-08-06T11:40:58Z</time>
      </trkpt>
      <trkpt lat="41.0785180" lon="0.4774070">
        <ele>311.4</ele>
        <time>2020-08-06T11:41:00Z</time>
      </trkpt>
      <trkpt lat="41.0785180" lon="0.4774070">
        <ele>311.4</ele>
        <time>2020-08-06T11:41:02Z</time>
      </trkpt>
      <trkpt lat="41.0785180" lon="0.4774070">
        <ele>311.4</ele>
        <time>2020-08-06T11:41:03Z</time>
      </trkpt>
      <trkpt lat="41.0785190" lon="0.4774070">
        <ele>311.4</ele>
        <time>2020-08-06T11:41:05Z</time>
      </trkpt>
      <trkpt lat="41.0785580" lon="0.4773710">
        <ele>311.8</ele>
        <time>2020-08-06T11:41:20Z</time>
      </trkpt>
      <trkpt lat="41.0785680" lon="0.4773610">
        <ele>311.9</ele>
        <time>2020-08-06T11:41:21Z</time>
      </trkpt>
      <trkpt lat="41.0785790" lon="0.4773510">
        <ele>312.1</ele>
        <time>2020-08-06T11:41:22Z</time>
      </trkpt>
      <trkpt lat="41.0786030" lon="0.4773290">
        <ele>312.3</ele>
        <time>2020-08-06T11:41:24Z</time>
      </trkpt>
      <trkpt lat="41.0786330" lon="0.4773100">
        <ele>313.3</ele>
        <time>2020-08-06T11:41:26Z</time>
      </trkpt>
      <trkpt lat="41.0786500" lon="0.4772970">
        <ele>313.4</ele>
        <time>2020-08-06T11:41:28Z</time>
      </trkpt>
      <trkpt lat="41.0786580" lon="0.4772910">
        <ele>313.5</ele>
        <time>2020-08-06T11:41:29Z</time>
      </trkpt>
      <trkpt lat="41.0786730" lon="0.4772870">
        <ele>313.6</ele>
        <time>2020-08-06T11:41:31Z</time>
      </trkpt>
      <trkpt lat="41.0786750" lon="0.4772880">
        <ele>313.6</ele>
        <time>2020-08-06T11:41:33Z</time>
      </trkpt>
      <trkpt lat="41.0786760" lon="0.4772890">
        <ele>313.6</ele>
        <time>2020-08-06T11:41:34Z</time>
      </trkpt>
      <trkpt lat="41.0786780" lon="0.4772900">
        <ele>313.6</ele>
        <time>2020-08-06T11:41:36Z</time>
      </trkpt>
      <trkpt lat="41.0786790" lon="0.4772910">
        <ele>313.6</ele>
        <time>2020-08-06T11:41:38Z</time>
      </trkpt>
      <trkpt lat="41.0786810" lon="0.4772920">
        <ele>313.6</ele>
        <time>2020-08-06T11:41:39Z</time>
      </trkpt>
      <trkpt lat="41.0786820" lon="0.4772930">
        <ele>313.6</ele>
        <time>2020-08-06T11:41:41Z</time>
      </trkpt>
      <trkpt lat="41.0786840" lon="0.4772940">
        <ele>313.6</ele>
        <time>2020-08-06T11:41:43Z</time>
      </trkpt>
      <trkpt lat="41.0786850" lon="0.4772950">
        <ele>313.7</ele>
        <time>2020-08-06T11:41:43Z</time>
      </trkpt>
      <trkpt lat="41.0786900" lon="0.4773040">
        <ele>313.7</ele>
        <time>2020-08-06T11:41:44Z</time>
      </trkpt>
      <trkpt lat="41.0786950" lon="0.4773040">
        <ele>313.7</ele>
        <time>2020-08-06T11:41:46Z</time>
      </trkpt>
      <trkpt lat="41.0787020" lon="0.4773070">
        <ele>313.8</ele>
        <time>2020-08-06T11:41:47Z</time>
      </trkpt>
      <trkpt lat="41.0787140" lon="0.4773070">
        <ele>313.9</ele>
        <time>2020-08-06T11:41:49Z</time>
      </trkpt>
      <trkpt lat="41.0787210" lon="0.4773080">
        <ele>313.9</ele>
        <time>2020-08-06T11:41:50Z</time>
      </trkpt>
      <trkpt lat="41.0787260" lon="0.4773120">
        <ele>314.3</ele>
        <time>2020-08-06T11:41:52Z</time>
      </trkpt>
      <trkpt lat="41.0787210" lon="0.4773100">
        <ele>314.4</ele>
        <time>2020-08-06T11:41:53Z</time>
      </trkpt>
      <trkpt lat="41.0786890" lon="0.4773040">
        <ele>315.1</ele>
        <time>2020-08-06T11:41:55Z</time>
      </trkpt>
      <trkpt lat="41.0786690" lon="0.4773110">
        <ele>315.5</ele>
        <time>2020-08-06T11:41:57Z</time>
      </trkpt>
      <trkpt lat="41.0786630" lon="0.4772980">
        <ele>315.7</ele>
        <time>2020-08-06T11:41:59Z</time>
      </trkpt>
      <trkpt lat="41.0786640" lon="0.4772860">
        <ele>315.9</ele>
        <time>2020-08-06T11:42:00Z</time>
      </trkpt>
      <trkpt lat="41.0786660" lon="0.4772740">
        <ele>316.1</ele>
        <time>2020-08-06T11:42:02Z</time>
      </trkpt>
      <trkpt lat="41.0786670" lon="0.4772620">
        <ele>316.3</ele>
        <time>2020-08-06T11:42:03Z</time>
      </trkpt>
      <trkpt lat="41.0786960" lon="0.4772380">
        <ele>317.0</ele>
        <time>2020-08-06T11:42:05Z</time>
      </trkpt>
      <trkpt lat="41.0787050" lon="0.4772330">
        <ele>317.2</ele>
        <time>2020-08-06T11:42:06Z</time>
      </trkpt>
      <trkpt lat="41.0787190" lon="0.4772000">
        <ele>317.7</ele>
        <time>2020-08-06T11:42:08Z</time>
      </trkpt>
      <trkpt lat="41.0787240" lon="0.4771690">
        <ele>318.2</ele>
        <time>2020-08-06T11:42:10Z</time>
      </trkpt>
      <trkpt lat="41.0787260" lon="0.4771530">
        <ele>318.4</ele>
        <time>2020-08-06T11:42:11Z</time>
      </trkpt>
      <trkpt lat="41.0787270" lon="0.4771260">
        <ele>318.8</ele>
        <time>2020-08-06T11:42:13Z</time>
      </trkpt>
      <trkpt lat="41.0787210" lon="0.4770980">
        <ele>319.2</ele>
        <time>2020-08-06T11:42:15Z</time>
      </trkpt>
      <trkpt lat="41.0787090" lon="0.4770850">
        <ele>319.5</ele>
        <time>2020-08-06T11:42:16Z</time>
      </trkpt>
      <trkpt lat="41.0786870" lon="0.4770660">
        <ele>320.0</ele>
        <time>2020-08-06T11:42:18Z</time>
      </trkpt>
      <trkpt lat="41.0786800" lon="0.4770620">
        <ele>320.2</ele>
        <time>2020-08-06T11:42:19Z</time>
      </trkpt>
      <trkpt lat="41.0786620" lon="0.4770540">
        <ele>320.5</ele>
        <time>2020-08-06T11:42:21Z</time>
      </trkpt>
      <trkpt lat="41.0786570" lon="0.4770400">
        <ele>320.7</ele>
        <time>2020-08-06T11:42:23Z</time>
      </trkpt>
      <trkpt lat="41.0786510" lon="0.4770350">
        <ele>320.8</ele>
        <time>2020-08-06T11:42:24Z</time>
      </trkpt>
      <trkpt lat="41.0786400" lon="0.4770210">
        <ele>321.1</ele>
        <time>2020-08-06T11:42:26Z</time>
      </trkpt>
      <trkpt lat="41.0786310" lon="0.4770050">
        <ele>321.4</ele>
        <time>2020-08-06T11:42:28Z</time>
      </trkpt>
      <trkpt lat="41.0786280" lon="0.4769960">
        <ele>321.5</ele>
        <time>2020-08-06T11:42:29Z</time>
      </trkpt>
      <trkpt lat="41.0786220" lon="0.4769720">
        <ele>321.9</ele>
        <time>2020-08-06T11:42:31Z</time>
      </trkpt>
      <trkpt lat="41.0786160" lon="0.4769520">
        <ele>322.2</ele>
        <time>2020-08-06T11:42:33Z</time>
      </trkpt>
      <trkpt lat="41.0786100" lon="0.4769320">
        <ele>322.5</ele>
        <time>2020-08-06T11:42:34Z</time>
      </trkpt>
      <trkpt lat="41.0786060" lon="0.4769180">
        <ele>322.7</ele>
        <time>2020-08-06T11:42:36Z</time>
      </trkpt>
      <trkpt lat="41.0786020" lon="0.4769050">
        <ele>322.9</ele>
        <time>2020-08-06T11:42:37Z</time>
      </trkpt>
      <trkpt lat="41.0785970" lon="0.4768910">
        <ele>323.1</ele>
        <time>2020-08-06T11:42:38Z</time>
      </trkpt>
      <trkpt lat="41.0785880" lon="0.4768730">
        <ele>323.4</ele>
        <time>2020-08-06T11:42:39Z</time>
      </trkpt>
      <trkpt lat="41.0785670" lon="0.4768460">
        <ele>323.9</ele>
        <time>2020-08-06T11:42:41Z</time>
      </trkpt>
      <trkpt lat="41.0785590" lon="0.4768340">
        <ele>324.1</ele>
        <time>2020-08-06T11:42:42Z</time>
      </trkpt>
      <trkpt lat="41.0785430" lon="0.4768000">
        <ele>324.7</ele>
        <time>2020-08-06T11:42:44Z</time>
      </trkpt>
      <trkpt lat="41.0785240" lon="0.4767720">
        <ele>325.1</ele>
        <time>2020-08-06T11:42:46Z</time>
      </trkpt>
      <trkpt lat="41.0785120" lon="0.4767560">
        <ele>325.4</ele>
        <time>2020-08-06T11:42:47Z</time>
      </trkpt>
      <trkpt lat="41.0784920" lon="0.4767290">
        <ele>325.9</ele>
        <time>2020-08-06T11:42:49Z</time>
      </trkpt>
      <trkpt lat="41.0784860" lon="0.4767040">
        <ele>326.2</ele>
        <time>2020-08-06T11:42:50Z</time>
      </trkpt>
      <trkpt lat="41.0784830" lon="0.4766900">
        <ele>326.3</ele>
        <time>2020-08-06T11:42:52Z</time>
      </trkpt>
      <trkpt lat="41.0784810" lon="0.4766770">
        <ele>326.5</ele>
        <time>2020-08-06T11:42:53Z</time>
      </trkpt>
      <trkpt lat="41.0784690" lon="0.4766570">
        <ele>326.8</ele>
        <time>2020-08-06T11:42:55Z</time>
      </trkpt>
      <trkpt lat="41.0784610" lon="0.4766480">
        <ele>326.9</ele>
        <time>2020-08-06T11:42:57Z</time>
      </trkpt>
      <trkpt lat="41.0784600" lon="0.4766500">
        <ele>326.9</ele>
        <time>2020-08-06T11:42:58Z</time>
      </trkpt>
      <trkpt lat="41.0784580" lon="0.4766520">
        <ele>327.0</ele>
        <time>2020-08-06T11:42:59Z</time>
      </trkpt>
      <trkpt lat="41.0784530" lon="0.4766550">
        <ele>327.0</ele>
        <time>2020-08-06T11:43:01Z</time>
      </trkpt>
      <trkpt lat="41.0784430" lon="0.4766500">
        <ele>327.2</ele>
        <time>2020-08-06T11:43:03Z</time>
      </trkpt>
      <trkpt lat="41.0784410" lon="0.4766500">
        <ele>327.2</ele>
        <time>2020-08-06T11:43:04Z</time>
      </trkpt>
      <trkpt lat="41.0784360" lon="0.4766480">
        <ele>327.3</ele>
        <time>2020-08-06T11:43:06Z</time>
      </trkpt>
      <trkpt lat="41.0784070" lon="0.4766680">
        <ele>327.7</ele>
        <time>2020-08-06T11:43:17Z</time>
      </trkpt>
      <trkpt lat="41.0784070" lon="0.4766680">
        <ele>327.7</ele>
        <time>2020-08-06T11:43:18Z</time>
      </trkpt>
      <trkpt lat="41.0784170" lon="0.4766530">
        <ele>327.9</ele>
        <time>2020-08-06T11:43:20Z</time>
      </trkpt>
      <trkpt lat="41.0784190" lon="0.4766510">
        <ele>328.0</ele>
        <time>2020-08-06T11:43:21Z</time>
      </trkpt>
      <trkpt lat="41.0784210" lon="0.4766480">
        <ele>328.0</ele>
        <time>2020-08-06T11:43:23Z</time>
      </trkpt>
      <trkpt lat="41.0784200" lon="0.4766410">
        <ele>328.1</ele>
        <time>2020-08-06T11:43:24Z</time>
      </trkpt>
      <trkpt lat="41.0784140" lon="0.4766260">
        <ele>328.3</ele>
        <time>2020-08-06T11:43:26Z</time>
      </trkpt>
      <trkpt lat="41.0784170" lon="0.4766160">
        <ele>328.4</ele>
        <time>2020-08-06T11:43:27Z</time>
      </trkpt>
      <trkpt lat="41.0784190" lon="0.4766040">
        <ele>328.5</ele>
        <time>2020-08-06T11:43:28Z</time>
      </trkpt>
      <trkpt lat="41.0784190" lon="0.4765920">
        <ele>328.6</ele>
        <time>2020-08-06T11:43:29Z</time>
      </trkpt>
      <trkpt lat="41.0784090" lon="0.4765710">
        <ele>328.8</ele>
        <time>2020-08-06T11:43:31Z</time>
      </trkpt>
      <trkpt lat="41.0784070" lon="0.4765610">
        <ele>328.9</ele>
        <time>2020-08-06T11:43:32Z</time>
      </trkpt>
      <trkpt lat="41.0784090" lon="0.4765520">
        <ele>329.0</ele>
        <time>2020-08-06T11:43:33Z</time>
      </trkpt>
      <trkpt lat="41.0784070" lon="0.4765440">
        <ele>329.1</ele>
        <time>2020-08-06T11:43:35Z</time>
      </trkpt>
      <trkpt lat="41.0783980" lon="0.4765320">
        <ele>329.3</ele>
        <time>2020-08-06T11:43:36Z</time>
      </trkpt>
      <trkpt lat="41.0783870" lon="0.4765200">
        <ele>329.5</ele>
        <time>2020-08-06T11:43:37Z</time>
      </trkpt>
      <trkpt lat="41.0783750" lon="0.4765120">
        <ele>329.6</ele>
        <time>2020-08-06T11:43:38Z</time>
      </trkpt>
      <trkpt lat="41.0783530" lon="0.4764950">
        <ele>330.0</ele>
        <time>2020-08-06T11:43:39Z</time>
      </trkpt>
      <trkpt lat="41.0783510" lon="0.4764860">
        <ele>330.0</ele>
        <time>2020-08-06T11:43:41Z</time>
      </trkpt>
      <trkpt lat="41.0783480" lon="0.4764780">
        <ele>330.1</ele>
        <time>2020-08-06T11:43:42Z</time>
      </trkpt>
      <trkpt lat="41.0783460" lon="0.4764690">
        <ele>330.2</ele>
        <time>2020-08-06T11:43:43Z</time>
      </trkpt>
      <trkpt lat="41.0783440" lon="0.4764600">
        <ele>330.3</ele>
        <time>2020-08-06T11:43:46Z</time>
      </trkpt>
      <trkpt lat="41.0783420" lon="0.4764510">
        <ele>330.4</ele>
        <time>2020-08-06T11:43:47Z</time>
      </trkpt>
      <trkpt lat="41.0783390" lon="0.4764430">
        <ele>330.5</ele>
        <time>2020-08-06T11:43:48Z</time>
      </trkpt>
      <trkpt lat="41.0783370" lon="0.4764340">
        <ele>330.6</ele>
        <time>2020-08-06T11:43:51Z</time>
      </trkpt>
      <trkpt lat="41.0783350" lon="0.4764250">
        <ele>330.7</ele>
        <time>2020-08-06T11:43:52Z</time>
      </trkpt>
      <trkpt lat="41.0783330" lon="0.4764160">
        <ele>330.8</ele>
        <time>2020-08-06T11:44:05Z</time>
      </trkpt>
      <trkpt lat="41.0783300" lon="0.4764080">
        <ele>330.9</ele>
        <time>2020-08-06T11:44:06Z</time>
      </trkpt>
      <trkpt lat="41.0783280" lon="0.4763990">
        <ele>330.9</ele>
        <time>2020-08-06T11:44:08Z</time>
      </trkpt>
      <trkpt lat="41.0783260" lon="0.4763900">
        <ele>331.0</ele>
        <time>2020-08-06T11:44:09Z</time>
      </trkpt>
      <trkpt lat="41.0783210" lon="0.4763650">
        <ele>331.3</ele>
        <time>2020-08-06T11:44:10Z</time>
      </trkpt>
      <trkpt lat="41.0783170" lon="0.4763540">
        <ele>331.4</ele>
        <time>2020-08-06T11:44:12Z</time>
      </trkpt>
      <trkpt lat="41.0783130" lon="0.4763430">
        <ele>331.5</ele>
        <time>2020-08-06T11:44:13Z</time>
      </trkpt>
      <trkpt lat="41.0783010" lon="0.4763290">
        <ele>331.7</ele>
        <time>2020-08-06T11:44:14Z</time>
      </trkpt>
      <trkpt lat="41.0782890" lon="0.4763110">
        <ele>332.0</ele>
        <time>2020-08-06T11:44:15Z</time>
      </trkpt>
      <trkpt lat="41.0782710" lon="0.4762870">
        <ele>332.3</ele>
        <time>2020-08-06T11:44:16Z</time>
      </trkpt>
      <trkpt lat="41.0782580" lon="0.4762760">
        <ele>332.6</ele>
        <time>2020-08-06T11:44:18Z</time>
      </trkpt>
      <trkpt lat="41.0782450" lon="0.4762650">
        <ele>332.8</ele>
        <time>2020-08-06T11:44:19Z</time>
      </trkpt>
      <trkpt lat="41.0782320" lon="0.4762540">
        <ele>333.1</ele>
        <time>2020-08-06T11:44:20Z</time>
      </trkpt>
      <trkpt lat="41.0782230" lon="0.4762390">
        <ele>333.0</ele>
        <time>2020-08-06T11:44:21Z</time>
      </trkpt>
      <trkpt lat="41.0782160" lon="0.4762250">
        <ele>333.0</ele>
        <time>2020-08-06T11:44:22Z</time>
      </trkpt>
      <trkpt lat="41.0782120" lon="0.4762250">
        <ele>333.0</ele>
        <time>2020-08-06T11:44:23Z</time>
      </trkpt>
      <trkpt lat="41.0782010" lon="0.4762240">
        <ele>332.9</ele>
        <time>2020-08-06T11:44:24Z</time>
      </trkpt>
      <trkpt lat="41.0781920" lon="0.4762200">
        <ele>332.9</ele>
        <time>2020-08-06T11:44:26Z</time>
      </trkpt>
      <trkpt lat="41.0781880" lon="0.4762190">
        <ele>332.9</ele>
        <time>2020-08-06T11:44:27Z</time>
      </trkpt>
      <trkpt lat="41.0781850" lon="0.4762180">
        <ele>332.9</ele>
        <time>2020-08-06T11:44:28Z</time>
      </trkpt>
      <trkpt lat="41.0781780" lon="0.4762200">
        <ele>332.8</ele>
        <time>2020-08-06T11:44:30Z</time>
      </trkpt>
      <trkpt lat="41.0781760" lon="0.4762210">
        <ele>332.8</ele>
        <time>2020-08-06T11:44:31Z</time>
      </trkpt>
      <trkpt lat="41.0781610" lon="0.4762080">
        <ele>332.8</ele>
        <time>2020-08-06T11:44:45Z</time>
      </trkpt>
      <trkpt lat="41.0781570" lon="0.4761970">
        <ele>332.7</ele>
        <time>2020-08-06T11:44:46Z</time>
      </trkpt>
      <trkpt lat="41.0781500" lon="0.4761880">
        <ele>332.7</ele>
        <time>2020-08-06T11:44:47Z</time>
      </trkpt>
      <trkpt lat="41.0781410" lon="0.4761720">
        <ele>332.7</ele>
        <time>2020-08-06T11:44:49Z</time>
      </trkpt>
      <trkpt lat="41.0781320" lon="0.4761560">
        <ele>332.6</ele>
        <time>2020-08-06T11:44:50Z</time>
      </trkpt>
      <trkpt lat="41.0781260" lon="0.4761360">
        <ele>332.6</ele>
        <time>2020-08-06T11:44:51Z</time>
      </trkpt>
      <trkpt lat="41.0781210" lon="0.4761230">
        <ele>332.6</ele>
        <time>2020-08-06T11:44:52Z</time>
      </trkpt>
      <trkpt lat="41.0781080" lon="0.4761080">
        <ele>332.5</ele>
        <time>2020-08-06T11:44:54Z</time>
      </trkpt>
      <trkpt lat="41.0780980" lon="0.4760900">
        <ele>332.5</ele>
        <time>2020-08-06T11:44:55Z</time>
      </trkpt>
      <trkpt lat="41.0780890" lon="0.4760800">
        <ele>332.4</ele>
        <time>2020-08-06T11:44:56Z</time>
      </trkpt>
      <trkpt lat="41.0780710" lon="0.4760650">
        <ele>332.4</ele>
        <time>2020-08-06T11:44:58Z</time>
      </trkpt>
      <trkpt lat="41.0780610" lon="0.4760510">
        <ele>332.4</ele>
        <time>2020-08-06T11:44:59Z</time>
      </trkpt>
      <trkpt lat="41.0780480" lon="0.4760320">
        <ele>332.3</ele>
        <time>2020-08-06T11:45:00Z</time>
      </trkpt>
      <trkpt lat="41.0780380" lon="0.4760190">
        <ele>332.3</ele>
        <time>2020-08-06T11:45:01Z</time>
      </trkpt>
      <trkpt lat="41.0780270" lon="0.4760080">
        <ele>332.3</ele>
        <time>2020-08-06T11:45:02Z</time>
      </trkpt>
      <trkpt lat="41.0780140" lon="0.4759940">
        <ele>332.2</ele>
        <time>2020-08-06T11:45:04Z</time>
      </trkpt>
      <trkpt lat="41.0780000" lon="0.4759840">
        <ele>332.2</ele>
        <time>2020-08-06T11:45:05Z</time>
      </trkpt>
      <trkpt lat="41.0779960" lon="0.4759820">
        <ele>332.2</ele>
        <time>2020-08-06T11:45:07Z</time>
      </trkpt>
      <trkpt lat="41.0779960" lon="0.4759800">
        <ele>332.2</ele>
        <time>2020-08-06T11:45:08Z</time>
      </trkpt>
      <trkpt lat="41.0779910" lon="0.4759760">
        <ele>332.2</ele>
        <time>2020-08-06T11:45:10Z</time>
      </trkpt>
      <trkpt lat="41.0779900" lon="0.4759750">
        <ele>332.2</ele>
        <time>2020-08-06T11:45:11Z</time>
      </trkpt>
      <trkpt lat="41.0779900" lon="0.4759740">
        <ele>332.2</ele>
        <time>2020-08-06T11:45:13Z</time>
      </trkpt>
      <trkpt lat="41.0779900" lon="0.4759740">
        <ele>332.2</ele>
        <time>2020-08-06T11:45:15Z</time>
      </trkpt>
      <trkpt lat="41.0780180" lon="0.4759770">
        <ele>332.1</ele>
        <time>2020-08-06T11:45:54Z</time>
      </trkpt>
      <trkpt lat="41.0780050" lon="0.4759600">
        <ele>332.1</ele>
        <time>2020-08-06T11:45:55Z</time>
      </trkpt>
      <trkpt lat="41.0779880" lon="0.4759400">
        <ele>332.1</ele>
        <time>2020-08-06T11:45:57Z</time>
      </trkpt>
      <trkpt lat="41.0779740" lon="0.4759280">
        <ele>332.1</ele>
        <time>2020-08-06T11:45:58Z</time>
      </trkpt>
      <trkpt lat="41.0779530" lon="0.4759100">
        <ele>332.0</ele>
        <time>2020-08-06T11:46:00Z</time>
      </trkpt>
      <trkpt lat="41.0779390" lon="0.4758970">
        <ele>332.0</ele>
        <time>2020-08-06T11:46:01Z</time>
      </trkpt>
      <trkpt lat="41.0779240" lon="0.4758730">
        <ele>332.0</ele>
        <time>2020-08-06T11:46:03Z</time>
      </trkpt>
      <trkpt lat="41.0779090" lon="0.4758420">
        <ele>331.9</ele>
        <time>2020-08-06T11:46:04Z</time>
      </trkpt>
      <trkpt lat="41.0779050" lon="0.4758310">
        <ele>331.9</ele>
        <time>2020-08-06T11:46:05Z</time>
      </trkpt>
      <trkpt lat="41.0778850" lon="0.4758050">
        <ele>331.9</ele>
        <time>2020-08-06T11:46:07Z</time>
      </trkpt>
      <trkpt lat="41.0778720" lon="0.4757940">
        <ele>331.9</ele>
        <time>2020-08-06T11:46:08Z</time>
      </trkpt>
      <trkpt lat="41.0778570" lon="0.4757780">
        <ele>331.9</ele>
        <time>2020-08-06T11:46:09Z</time>
      </trkpt>
      <trkpt lat="41.0778430" lon="0.4757560">
        <ele>331.8</ele>
        <time>2020-08-06T11:46:10Z</time>
      </trkpt>
      <trkpt lat="41.0778330" lon="0.4757300">
        <ele>331.8</ele>
        <time>2020-08-06T11:46:12Z</time>
      </trkpt>
      <trkpt lat="41.0778280" lon="0.4757160">
        <ele>331.8</ele>
        <time>2020-08-06T11:46:13Z</time>
      </trkpt>
      <trkpt lat="41.0778200" lon="0.4757050">
        <ele>331.8</ele>
        <time>2020-08-06T11:46:14Z</time>
      </trkpt>
      <trkpt lat="41.0778140" lon="0.4756900">
        <ele>331.8</ele>
        <time>2020-08-06T11:46:15Z</time>
      </trkpt>
      <trkpt lat="41.0778040" lon="0.4756760">
        <ele>331.8</ele>
        <time>2020-08-06T11:46:16Z</time>
      </trkpt>
      <trkpt lat="41.0777970" lon="0.4756590">
        <ele>331.8</ele>
        <time>2020-08-06T11:46:17Z</time>
      </trkpt>
      <trkpt lat="41.0777870" lon="0.4756420">
        <ele>331.7</ele>
        <time>2020-08-06T11:46:19Z</time>
      </trkpt>
      <trkpt lat="41.0777790" lon="0.4756210">
        <ele>331.7</ele>
        <time>2020-08-06T11:46:21Z</time>
      </trkpt>
      <trkpt lat="41.0777750" lon="0.4756070">
        <ele>331.7</ele>
        <time>2020-08-06T11:46:22Z</time>
      </trkpt>
      <trkpt lat="41.0777740" lon="0.4756000">
        <ele>331.7</ele>
        <time>2020-08-06T11:46:23Z</time>
      </trkpt>
      <trkpt lat="41.0777820" lon="0.4755870">
        <ele>331.7</ele>
        <time>2020-08-06T11:46:25Z</time>
      </trkpt>
      <trkpt lat="41.0777850" lon="0.4755810">
        <ele>331.7</ele>
        <time>2020-08-06T11:46:27Z</time>
      </trkpt>
      <trkpt lat="41.0777760" lon="0.4755630">
        <ele>331.6</ele>
        <time>2020-08-06T11:46:28Z</time>
      </trkpt>
      <trkpt lat="41.0777680" lon="0.4755380">
        <ele>331.6</ele>
        <time>2020-08-06T11:46:30Z</time>
      </trkpt>
      <trkpt lat="41.0777560" lon="0.4755210">
        <ele>331.5</ele>
        <time>2020-08-06T11:46:31Z</time>
      </trkpt>
      <trkpt lat="41.0777440" lon="0.4755230">
        <ele>331.5</ele>
        <time>2020-08-06T11:46:33Z</time>
      </trkpt>
      <trkpt lat="41.0777310" lon="0.4755370">
        <ele>331.4</ele>
        <time>2020-08-06T11:46:34Z</time>
      </trkpt>
      <trkpt lat="41.0777190" lon="0.4755420">
        <ele>331.3</ele>
        <time>2020-08-06T11:46:36Z</time>
      </trkpt>
      <trkpt lat="41.0777090" lon="0.4755410">
        <ele>331.3</ele>
        <time>2020-08-06T11:46:37Z</time>
      </trkpt>
      <trkpt lat="41.0777000" lon="0.4755420">
        <ele>331.2</ele>
        <time>2020-08-06T11:46:38Z</time>
      </trkpt>
      <trkpt lat="41.0776930" lon="0.4755450">
        <ele>331.2</ele>
        <time>2020-08-06T11:46:39Z</time>
      </trkpt>
      <trkpt lat="41.0776890" lon="0.4755450">
        <ele>331.2</ele>
        <time>2020-08-06T11:46:41Z</time>
      </trkpt>
      <trkpt lat="41.0776870" lon="0.4755400">
        <ele>331.2</ele>
        <time>2020-08-06T11:46:43Z</time>
      </trkpt>
      <trkpt lat="41.0776770" lon="0.4755310">
        <ele>331.2</ele>
        <time>2020-08-06T11:46:44Z</time>
      </trkpt>
      <trkpt lat="41.0776740" lon="0.4755300">
        <ele>331.2</ele>
        <time>2020-08-06T11:46:45Z</time>
      </trkpt>
      <trkpt lat="41.0776750" lon="0.4755310">
        <ele>331.2</ele>
        <time>2020-08-06T11:46:46Z</time>
      </trkpt>
      <trkpt lat="41.0776760" lon="0.4755310">
        <ele>331.2</ele>
        <time>2020-08-06T11:46:47Z</time>
      </trkpt>
      <trkpt lat="41.0776770" lon="0.4755320">
        <ele>331.2</ele>
        <time>2020-08-06T11:46:48Z</time>
      </trkpt>
      <trkpt lat="41.0776800" lon="0.4755330">
        <ele>331.3</ele>
        <time>2020-08-06T11:46:50Z</time>
      </trkpt>
      <trkpt lat="41.0776810" lon="0.4755330">
        <ele>331.3</ele>
        <time>2020-08-06T11:46:51Z</time>
      </trkpt>
      <trkpt lat="41.0776830" lon="0.4755330">
        <ele>331.3</ele>
        <time>2020-08-06T11:46:53Z</time>
      </trkpt>
      <trkpt lat="41.0776840" lon="0.4755330">
        <ele>331.3</ele>
        <time>2020-08-06T11:46:54Z</time>
      </trkpt>
      <trkpt lat="41.0777270" lon="0.4754880">
        <ele>331.8</ele>
        <time>2020-08-06T11:47:48Z</time>
      </trkpt>
      <trkpt lat="41.0777420" lon="0.4754820">
        <ele>332.0</ele>
        <time>2020-08-06T11:47:50Z</time>
      </trkpt>
      <trkpt lat="41.0777590" lon="0.4754860">
        <ele>332.1</ele>
        <time>2020-08-06T11:47:51Z</time>
      </trkpt>
      <trkpt lat="41.0777690" lon="0.4754870">
        <ele>332.2</ele>
        <time>2020-08-06T11:47:52Z</time>
      </trkpt>
      <trkpt lat="41.0777820" lon="0.4754870">
        <ele>332.3</ele>
        <time>2020-08-06T11:47:54Z</time>
      </trkpt>
      <trkpt lat="41.0777940" lon="0.4754900">
        <ele>332.4</ele>
        <time>2020-08-06T11:47:55Z</time>
      </trkpt>
      <trkpt lat="41.0778040" lon="0.4754950">
        <ele>332.5</ele>
        <time>2020-08-06T11:47:56Z</time>
      </trkpt>
      <trkpt lat="41.0778120" lon="0.4755080">
        <ele>332.7</ele>
        <time>2020-08-06T11:47:58Z</time>
      </trkpt>
      <trkpt lat="41.0778190" lon="0.4755200">
        <ele>332.8</ele>
        <time>2020-08-06T11:47:59Z</time>
      </trkpt>
      <trkpt lat="41.0778350" lon="0.4755360">
        <ele>333.0</ele>
        <time>2020-08-06T11:48:00Z</time>
      </trkpt>
      <trkpt lat="41.0778450" lon="0.4755410">
        <ele>333.1</ele>
        <time>2020-08-06T11:48:01Z</time>
      </trkpt>
      <trkpt lat="41.0778550" lon="0.4755450">
        <ele>333.1</ele>
        <time>2020-08-06T11:48:03Z</time>
      </trkpt>
      <trkpt lat="41.0778640" lon="0.4755500">
        <ele>333.2</ele>
        <time>2020-08-06T11:48:04Z</time>
      </trkpt>
      <trkpt lat="41.0778740" lon="0.4755550">
        <ele>333.3</ele>
        <time>2020-08-06T11:48:06Z</time>
      </trkpt>
      <trkpt lat="41.0778840" lon="0.4755600">
        <ele>333.4</ele>
        <time>2020-08-06T11:48:07Z</time>
      </trkpt>
      <trkpt lat="41.0778980" lon="0.4755610">
        <ele>333.5</ele>
        <time>2020-08-06T11:48:08Z</time>
      </trkpt>
      <trkpt lat="41.0779160" lon="0.4755640">
        <ele>333.7</ele>
        <time>2020-08-06T11:48:09Z</time>
      </trkpt>
      <trkpt lat="41.0779460" lon="0.4755770">
        <ele>333.9</ele>
        <time>2020-08-06T11:48:10Z</time>
      </trkpt>
      <trkpt lat="41.0779810" lon="0.4755950">
        <ele>334.3</ele>
        <time>2020-08-06T11:48:12Z</time>
      </trkpt>
      <trkpt lat="41.0780040" lon="0.4756120">
        <ele>334.6</ele>
        <time>2020-08-06T11:48:13Z</time>
      </trkpt>
      <trkpt lat="41.0780340" lon="0.4756350">
        <ele>334.7</ele>
        <time>2020-08-06T11:48:15Z</time>
      </trkpt>
      <trkpt lat="41.0780540" lon="0.4756550">
        <ele>334.8</ele>
        <time>2020-08-06T11:48:16Z</time>
      </trkpt>
      <trkpt lat="41.0780710" lon="0.4756770">
        <ele>334.9</ele>
        <time>2020-08-06T11:48:18Z</time>
      </trkpt>
      <trkpt lat="41.0780820" lon="0.4757010">
        <ele>334.9</ele>
        <time>2020-08-06T11:48:19Z</time>
      </trkpt>
      <trkpt lat="41.0780890" lon="0.4757190">
        <ele>335.0</ele>
        <time>2020-08-06T11:48:20Z</time>
      </trkpt>
      <trkpt lat="41.0780930" lon="0.4757330">
        <ele>335.0</ele>
        <time>2020-08-06T11:48:21Z</time>
      </trkpt>
      <trkpt lat="41.0780990" lon="0.4757530">
        <ele>335.1</ele>
        <time>2020-08-06T11:48:23Z</time>
      </trkpt>
      <trkpt lat="41.0781140" lon="0.4757620">
        <ele>335.2</ele>
        <time>2020-08-06T11:48:24Z</time>
      </trkpt>
      <trkpt lat="41.0781330" lon="0.4757670">
        <ele>335.3</ele>
        <time>2020-08-06T11:48:26Z</time>
      </trkpt>
      <trkpt lat="41.0781390" lon="0.4757780">
        <ele>335.3</ele>
        <time>2020-08-06T11:48:27Z</time>
      </trkpt>
      <trkpt lat="41.0781420" lon="0.4757940">
        <ele>335.4</ele>
        <time>2020-08-06T11:48:28Z</time>
      </trkpt>
      <trkpt lat="41.0781430" lon="0.4758130">
        <ele>335.5</ele>
        <time>2020-08-06T11:48:29Z</time>
      </trkpt>
      <trkpt lat="41.0781470" lon="0.4758320">
        <ele>335.5</ele>
        <time>2020-08-06T11:48:30Z</time>
      </trkpt>
      <trkpt lat="41.0781560" lon="0.4758570">
        <ele>335.6</ele>
        <time>2020-08-06T11:48:32Z</time>
      </trkpt>
      <trkpt lat="41.0781650" lon="0.4758750">
        <ele>335.7</ele>
        <time>2020-08-06T11:48:33Z</time>
      </trkpt>
      <trkpt lat="41.0781700" lon="0.4758850">
        <ele>335.7</ele>
        <time>2020-08-06T11:48:34Z</time>
      </trkpt>
      <trkpt lat="41.0781750" lon="0.4758960">
        <ele>335.8</ele>
        <time>2020-08-06T11:48:35Z</time>
      </trkpt>
      <trkpt lat="41.0781890" lon="0.4759040">
        <ele>335.8</ele>
        <time>2020-08-06T11:48:37Z</time>
      </trkpt>
      <trkpt lat="41.0782010" lon="0.4759160">
        <ele>335.9</ele>
        <time>2020-08-06T11:48:38Z</time>
      </trkpt>
      <trkpt lat="41.0782160" lon="0.4759370">
        <ele>335.9</ele>
        <time>2020-08-06T11:48:39Z</time>
      </trkpt>
      <trkpt lat="41.0782210" lon="0.4759490">
        <ele>335.9</ele>
        <time>2020-08-06T11:48:40Z</time>
      </trkpt>
      <trkpt lat="41.0782270" lon="0.4759600">
        <ele>336.0</ele>
        <time>2020-08-06T11:48:42Z</time>
      </trkpt>
      <trkpt lat="41.0782320" lon="0.4759710">
        <ele>336.0</ele>
        <time>2020-08-06T11:48:43Z</time>
      </trkpt>
      <trkpt lat="41.0782380" lon="0.4759830">
        <ele>336.0</ele>
        <time>2020-08-06T11:48:44Z</time>
      </trkpt>
      <trkpt lat="41.0782430" lon="0.4759940">
        <ele>336.0</ele>
        <time>2020-08-06T11:48:45Z</time>
      </trkpt>
      <trkpt lat="41.0782560" lon="0.4760010">
        <ele>336.0</ele>
        <time>2020-08-06T11:48:46Z</time>
      </trkpt>
      <trkpt lat="41.0782690" lon="0.4760130">
        <ele>336.0</ele>
        <time>2020-08-06T11:48:48Z</time>
      </trkpt>
      <trkpt lat="41.0782780" lon="0.4760190">
        <ele>336.0</ele>
        <time>2020-08-06T11:48:49Z</time>
      </trkpt>
      <trkpt lat="41.0782790" lon="0.4760220">
        <ele>336.0</ele>
        <time>2020-08-06T11:48:50Z</time>
      </trkpt>
      <trkpt lat="41.0782840" lon="0.4760160">
        <ele>336.0</ele>
        <time>2020-08-06T11:48:52Z</time>
      </trkpt>
      <trkpt lat="41.0782850" lon="0.4760130">
        <ele>336.0</ele>
        <time>2020-08-06T11:48:53Z</time>
      </trkpt>
      <trkpt lat="41.0782900" lon="0.4760050">
        <ele>336.1</ele>
        <time>2020-08-06T11:48:55Z</time>
      </trkpt>
      <trkpt lat="41.0782910" lon="0.4760030">
        <ele>336.1</ele>
        <time>2020-08-06T11:48:56Z</time>
      </trkpt>
      <trkpt lat="41.0782930" lon="0.4760010">
        <ele>336.1</ele>
        <time>2020-08-06T11:48:57Z</time>
      </trkpt>
      <trkpt lat="41.0782950" lon="0.4759950">
        <ele>336.1</ele>
        <time>2020-08-06T11:49:00Z</time>
      </trkpt>
      <trkpt lat="41.0783280" lon="0.4759930">
        <ele>336.4</ele>
        <time>2020-08-06T11:49:17Z</time>
      </trkpt>
      <trkpt lat="41.0783380" lon="0.4759850">
        <ele>336.4</ele>
        <time>2020-08-06T11:49:18Z</time>
      </trkpt>
      <trkpt lat="41.0783430" lon="0.4759790">
        <ele>336.4</ele>
        <time>2020-08-06T11:49:19Z</time>
      </trkpt>
      <trkpt lat="41.0783450" lon="0.4759760">
        <ele>336.4</ele>
        <time>2020-08-06T11:49:21Z</time>
      </trkpt>
      <trkpt lat="41.0783470" lon="0.4759830">
        <ele>336.4</ele>
        <time>2020-08-06T11:49:23Z</time>
      </trkpt>
      <trkpt lat="41.0783480" lon="0.4759880">
        <ele>336.4</ele>
        <time>2020-08-06T11:49:24Z</time>
      </trkpt>
      <trkpt lat="41.0783520" lon="0.4759930">
        <ele>336.7</ele>
        <time>2020-08-06T11:49:26Z</time>
      </trkpt>
      <trkpt lat="41.0783540" lon="0.4759960">
        <ele>336.7</ele>
        <time>2020-08-06T11:49:27Z</time>
      </trkpt>
      <trkpt lat="41.0783560" lon="0.4759970">
        <ele>336.7</ele>
        <time>2020-08-06T11:49:28Z</time>
      </trkpt>
      <trkpt lat="41.0783580" lon="0.4759990">
        <ele>336.7</ele>
        <time>2020-08-06T11:49:29Z</time>
      </trkpt>
      <trkpt lat="41.0783610" lon="0.4760050">
        <ele>336.7</ele>
        <time>2020-08-06T11:49:31Z</time>
      </trkpt>
      <trkpt lat="41.0782700" lon="0.4759850">
        <ele>335.9</ele>
        <time>2020-08-06T11:50:06Z</time>
      </trkpt>
      <trkpt lat="41.0782660" lon="0.4759900">
        <ele>335.9</ele>
        <time>2020-08-06T11:50:08Z</time>
      </trkpt>
      <trkpt lat="41.0782630" lon="0.4759930">
        <ele>335.9</ele>
        <time>2020-08-06T11:50:09Z</time>
      </trkpt>
      <trkpt lat="41.0782620" lon="0.4759940">
        <ele>336.0</ele>
        <time>2020-08-06T11:50:10Z</time>
      </trkpt>
      <trkpt lat="41.0782630" lon="0.4759950">
        <ele>336.0</ele>
        <time>2020-08-06T11:50:11Z</time>
      </trkpt>
      <trkpt lat="41.0782640" lon="0.4759930">
        <ele>336.0</ele>
        <time>2020-08-06T11:50:13Z</time>
      </trkpt>
      <trkpt lat="41.0782640" lon="0.4759910">
        <ele>336.0</ele>
        <time>2020-08-06T11:50:14Z</time>
      </trkpt>
      <trkpt lat="41.0782810" lon="0.4759830">
        <ele>336.0</ele>
        <time>2020-08-06T11:50:16Z</time>
      </trkpt>
      <trkpt lat="41.0782960" lon="0.4759770">
        <ele>336.3</ele>
        <time>2020-08-06T11:50:17Z</time>
      </trkpt>
      <trkpt lat="41.0783120" lon="0.4759740">
        <ele>336.6</ele>
        <time>2020-08-06T11:50:18Z</time>
      </trkpt>
      <trkpt lat="41.0783280" lon="0.4759680">
        <ele>336.8</ele>
        <time>2020-08-06T11:50:19Z</time>
      </trkpt>
      <trkpt lat="41.0783600" lon="0.4759520">
        <ele>337.0</ele>
        <time>2020-08-06T11:50:21Z</time>
      </trkpt>
      <trkpt lat="41.0783700" lon="0.4759480">
        <ele>337.1</ele>
        <time>2020-08-06T11:50:22Z</time>
      </trkpt>
      <trkpt lat="41.0784010" lon="0.4759500">
        <ele>337.2</ele>
        <time>2020-08-06T11:50:23Z</time>
      </trkpt>
      <trkpt lat="41.0784150" lon="0.4759530">
        <ele>337.3</ele>
        <time>2020-08-06T11:50:25Z</time>
      </trkpt>
      <trkpt lat="41.0784280" lon="0.4759560">
        <ele>337.3</ele>
        <time>2020-08-06T11:50:26Z</time>
      </trkpt>
      <trkpt lat="41.0784420" lon="0.4759590">
        <ele>337.3</ele>
        <time>2020-08-06T11:50:27Z</time>
      </trkpt>
      <trkpt lat="41.0784560" lon="0.4759650">
        <ele>337.4</ele>
        <time>2020-08-06T11:50:28Z</time>
      </trkpt>
      <trkpt lat="41.0784730" lon="0.4759620">
        <ele>337.4</ele>
        <time>2020-08-06T11:50:30Z</time>
      </trkpt>
      <trkpt lat="41.0784830" lon="0.4759670">
        <ele>337.4</ele>
        <time>2020-08-06T11:50:31Z</time>
      </trkpt>
      <trkpt lat="41.0784960" lon="0.4759740">
        <ele>337.4</ele>
        <time>2020-08-06T11:50:33Z</time>
      </trkpt>
      <trkpt lat="41.0785020" lon="0.4759750">
        <ele>337.2</ele>
        <time>2020-08-06T11:50:34Z</time>
      </trkpt>
      <trkpt lat="41.0785070" lon="0.4759750">
        <ele>337.2</ele>
        <time>2020-08-06T11:50:35Z</time>
      </trkpt>
      <trkpt lat="41.0785130" lon="0.4759770">
        <ele>337.1</ele>
        <time>2020-08-06T11:50:37Z</time>
      </trkpt>
      <trkpt lat="41.0785150" lon="0.4759770">
        <ele>337.1</ele>
        <time>2020-08-06T11:50:38Z</time>
      </trkpt>
      <trkpt lat="41.0785170" lon="0.4759780">
        <ele>337.1</ele>
        <time>2020-08-06T11:50:39Z</time>
      </trkpt>
      <trkpt lat="41.0785180" lon="0.4759780">
        <ele>337.1</ele>
        <time>2020-08-06T11:50:40Z</time>
      </trkpt>
      <trkpt lat="41.0785200" lon="0.4759780">
        <ele>337.2</ele>
        <time>2020-08-06T11:50:41Z</time>
      </trkpt>
      <trkpt lat="41.0785870" lon="0.4759990">
        <ele>336.8</ele>
        <time>2020-08-06T11:51:35Z</time>
      </trkpt>
      <trkpt lat="41.0785920" lon="0.4760070">
        <ele>336.8</ele>
        <time>2020-08-06T11:51:37Z</time>
      </trkpt>
      <trkpt lat="41.0785900" lon="0.4760160">
        <ele>336.8</ele>
        <time>2020-08-06T11:51:40Z</time>
      </trkpt>
      <trkpt lat="41.0785890" lon="0.4760180">
        <ele>336.6</ele>
        <time>2020-08-06T11:51:41Z</time>
      </trkpt>
      <trkpt lat="41.0785900" lon="0.4760170">
        <ele>336.6</ele>
        <time>2020-08-06T11:51:43Z</time>
      </trkpt>
      <trkpt lat="41.0785910" lon="0.4760180">
        <ele>336.6</ele>
        <time>2020-08-06T11:51:45Z</time>
      </trkpt>
      <trkpt lat="41.0785900" lon="0.4760180">
        <ele>336.7</ele>
        <time>2020-08-06T11:51:46Z</time>
      </trkpt>
      <trkpt lat="41.0785890" lon="0.4760150">
        <ele>336.9</ele>
        <time>2020-08-06T11:51:48Z</time>
      </trkpt>
      <trkpt lat="41.0785880" lon="0.4760130">
        <ele>336.9</ele>
        <time>2020-08-06T11:51:49Z</time>
      </trkpt>
      <trkpt lat="41.0785870" lon="0.4760110">
        <ele>336.9</ele>
        <time>2020-08-06T11:51:50Z</time>
      </trkpt>
      <trkpt lat="41.0785860" lon="0.4760100">
        <ele>336.9</ele>
        <time>2020-08-06T11:51:51Z</time>
      </trkpt>
      <trkpt lat="41.0785850" lon="0.4760080">
        <ele>336.9</ele>
        <time>2020-08-06T11:51:53Z</time>
      </trkpt>
      <trkpt lat="41.0785850" lon="0.4760080">
        <ele>336.9</ele>
        <time>2020-08-06T11:51:54Z</time>
      </trkpt>
      <trkpt lat="41.0785840" lon="0.4760090">
        <ele>336.9</ele>
        <time>2020-08-06T11:51:55Z</time>
      </trkpt>
      <trkpt lat="41.0785840" lon="0.4760090">
        <ele>337.0</ele>
        <time>2020-08-06T11:51:57Z</time>
      </trkpt>
      <trkpt lat="41.0785840" lon="0.4760090">
        <ele>337.0</ele>
        <time>2020-08-06T11:51:59Z</time>
      </trkpt>
      <trkpt lat="41.0785840" lon="0.4760100">
        <ele>337.0</ele>
        <time>2020-08-06T11:52:01Z</time>
      </trkpt>
      <trkpt lat="41.0785820" lon="0.4759960">
        <ele>337.0</ele>
        <time>2020-08-06T11:52:02Z</time>
      </trkpt>
      <trkpt lat="41.0785820" lon="0.4759740">
        <ele>337.2</ele>
        <time>2020-08-06T11:52:04Z</time>
      </trkpt>
      <trkpt lat="41.0785800" lon="0.4759720">
        <ele>337.2</ele>
        <time>2020-08-06T11:52:06Z</time>
      </trkpt>
      <trkpt lat="41.0785750" lon="0.4759760">
        <ele>337.0</ele>
        <time>2020-08-06T11:52:07Z</time>
      </trkpt>
      <trkpt lat="41.0785690" lon="0.4759720">
        <ele>337.4</ele>
        <time>2020-08-06T11:52:08Z</time>
      </trkpt>
      <trkpt lat="41.0785680" lon="0.4759630">
        <ele>337.5</ele>
        <time>2020-08-06T11:52:09Z</time>
      </trkpt>
      <trkpt lat="41.0785700" lon="0.4759520">
        <ele>337.5</ele>
        <time>2020-08-06T11:52:10Z</time>
      </trkpt>
      <trkpt lat="41.0785740" lon="0.4759410">
        <ele>337.5</ele>
        <time>2020-08-06T11:52:11Z</time>
      </trkpt>
      <trkpt lat="41.0785940" lon="0.4759350">
        <ele>337.3</ele>
        <time>2020-08-06T11:52:13Z</time>
      </trkpt>
      <trkpt lat="41.0786080" lon="0.4759320">
        <ele>337.1</ele>
        <time>2020-08-06T11:52:14Z</time>
      </trkpt>
      <trkpt lat="41.0786220" lon="0.4759290">
        <ele>337.3</ele>
        <time>2020-08-06T11:52:15Z</time>
      </trkpt>
      <trkpt lat="41.0786420" lon="0.4759320">
        <ele>336.8</ele>
        <time>2020-08-06T11:52:17Z</time>
      </trkpt>
      <trkpt lat="41.0786650" lon="0.4759360">
        <ele>336.8</ele>
        <time>2020-08-06T11:52:19Z</time>
      </trkpt>
      <trkpt lat="41.0786940" lon="0.4759440">
        <ele>336.6</ele>
        <time>2020-08-06T11:52:20Z</time>
      </trkpt>
      <trkpt lat="41.0787050" lon="0.4759480">
        <ele>336.5</ele>
        <time>2020-08-06T11:52:21Z</time>
      </trkpt>
      <trkpt lat="41.0787220" lon="0.4759540">
        <ele>336.4</ele>
        <time>2020-08-06T11:52:22Z</time>
      </trkpt>
      <trkpt lat="41.0787570" lon="0.4759640">
        <ele>336.1</ele>
        <time>2020-08-06T11:52:24Z</time>
      </trkpt>
      <trkpt lat="41.0787780" lon="0.4759670">
        <ele>336.0</ele>
        <time>2020-08-06T11:52:25Z</time>
      </trkpt>
      <trkpt lat="41.0788200" lon="0.4759900">
        <ele>335.7</ele>
        <time>2020-08-06T11:52:27Z</time>
      </trkpt>
      <trkpt lat="41.0788550" lon="0.4760140">
        <ele>335.4</ele>
        <time>2020-08-06T11:52:28Z</time>
      </trkpt>
      <trkpt lat="41.0788830" lon="0.4760260">
        <ele>335.2</ele>
        <time>2020-08-06T11:52:29Z</time>
      </trkpt>
      <trkpt lat="41.0789130" lon="0.4760340">
        <ele>335.0</ele>
        <time>2020-08-06T11:52:30Z</time>
      </trkpt>
      <trkpt lat="41.0789220" lon="0.4760370">
        <ele>334.9</ele>
        <time>2020-08-06T11:52:31Z</time>
      </trkpt>
      <trkpt lat="41.0789580" lon="0.4760390">
        <ele>334.6</ele>
        <time>2020-08-06T11:52:33Z</time>
      </trkpt>
      <trkpt lat="41.0789670" lon="0.4760360">
        <ele>334.6</ele>
        <time>2020-08-06T11:52:34Z</time>
      </trkpt>
      <trkpt lat="41.0789970" lon="0.4760230">
        <ele>334.4</ele>
        <time>2020-08-06T11:52:36Z</time>
      </trkpt>
      <trkpt lat="41.0790060" lon="0.4760190">
        <ele>334.3</ele>
        <time>2020-08-06T11:52:37Z</time>
      </trkpt>
      <trkpt lat="41.0790250" lon="0.4759920">
        <ele>334.1</ele>
        <time>2020-08-06T11:52:38Z</time>
      </trkpt>
      <trkpt lat="41.0790280" lon="0.4759730">
        <ele>334.0</ele>
        <time>2020-08-06T11:52:39Z</time>
      </trkpt>
      <trkpt lat="41.0790290" lon="0.4759300">
        <ele>333.8</ele>
        <time>2020-08-06T11:52:40Z</time>
      </trkpt>
      <trkpt lat="41.0790450" lon="0.4758750">
        <ele>333.4</ele>
        <time>2020-08-06T11:52:42Z</time>
      </trkpt>
      <trkpt lat="41.0790710" lon="0.4758330">
        <ele>333.2</ele>
        <time>2020-08-06T11:52:44Z</time>
      </trkpt>
      <trkpt lat="41.0791000" lon="0.4758120">
        <ele>332.9</ele>
        <time>2020-08-06T11:52:46Z</time>
      </trkpt>
      <trkpt lat="41.0791060" lon="0.4758070">
        <ele>332.9</ele>
        <time>2020-08-06T11:52:47Z</time>
      </trkpt>
      <trkpt lat="41.0791350" lon="0.4757830">
        <ele>332.6</ele>
        <time>2020-08-06T11:52:49Z</time>
      </trkpt>
      <trkpt lat="41.0791580" lon="0.4757500">
        <ele>332.4</ele>
        <time>2020-08-06T11:52:51Z</time>
      </trkpt>
      <trkpt lat="41.0791670" lon="0.4757320">
        <ele>332.3</ele>
        <time>2020-08-06T11:52:52Z</time>
      </trkpt>
      <trkpt lat="41.0791880" lon="0.4756920">
        <ele>332.0</ele>
        <time>2020-08-06T11:52:54Z</time>
      </trkpt>
      <trkpt lat="41.0791960" lon="0.4756750">
        <ele>331.9</ele>
        <time>2020-08-06T11:52:55Z</time>
      </trkpt>
      <trkpt lat="41.0792090" lon="0.4756480">
        <ele>331.7</ele>
        <time>2020-08-06T11:52:57Z</time>
      </trkpt>
      <trkpt lat="41.0792120" lon="0.4756370">
        <ele>331.7</ele>
        <time>2020-08-06T11:52:58Z</time>
      </trkpt>
      <trkpt lat="41.0792140" lon="0.4756250">
        <ele>331.6</ele>
        <time>2020-08-06T11:52:59Z</time>
      </trkpt>
      <trkpt lat="41.0792130" lon="0.4756020">
        <ele>331.5</ele>
        <time>2020-08-06T11:53:01Z</time>
      </trkpt>
      <trkpt lat="41.0792110" lon="0.4755940">
        <ele>331.4</ele>
        <time>2020-08-06T11:53:03Z</time>
      </trkpt>
      <trkpt lat="41.0792100" lon="0.4755960">
        <ele>331.4</ele>
        <time>2020-08-06T11:53:04Z</time>
      </trkpt>
      <trkpt lat="41.0792110" lon="0.4755940">
        <ele>331.4</ele>
        <time>2020-08-06T11:53:06Z</time>
      </trkpt>
      <trkpt lat="41.0792110" lon="0.4755910">
        <ele>331.4</ele>
        <time>2020-08-06T11:53:07Z</time>
      </trkpt>
      <trkpt lat="41.0792120" lon="0.4755860">
        <ele>331.4</ele>
        <time>2020-08-06T11:53:08Z</time>
      </trkpt>
      <trkpt lat="41.0792120" lon="0.4755840">
        <ele>331.4</ele>
        <time>2020-08-06T11:53:09Z</time>
      </trkpt>
      <trkpt lat="41.0792140" lon="0.4755880">
        <ele>331.3</ele>
        <time>2020-08-06T11:53:10Z</time>
      </trkpt>
      <trkpt lat="41.0792150" lon="0.4755900">
        <ele>331.3</ele>
        <time>2020-08-06T11:53:11Z</time>
      </trkpt>
      <trkpt lat="41.0792160" lon="0.4755960">
        <ele>331.3</ele>
        <time>2020-08-06T11:53:13Z</time>
      </trkpt>
      <trkpt lat="41.0792380" lon="0.4755070">
        <ele>331.5</ele>
        <time>2020-08-06T11:53:32Z</time>
      </trkpt>
      <trkpt lat="41.0792450" lon="0.4754890">
        <ele>331.5</ele>
        <time>2020-08-06T11:53:33Z</time>
      </trkpt>
      <trkpt lat="41.0792530" lon="0.4754650">
        <ele>331.6</ele>
        <time>2020-08-06T11:53:34Z</time>
      </trkpt>
      <trkpt lat="41.0792560" lon="0.4754440">
        <ele>331.7</ele>
        <time>2020-08-06T11:53:36Z</time>
      </trkpt>
      <trkpt lat="41.0792630" lon="0.4754200">
        <ele>331.8</ele>
        <time>2020-08-06T11:53:37Z</time>
      </trkpt>
      <trkpt lat="41.0792770" lon="0.4753840">
        <ele>332.0</ele>
        <time>2020-08-06T11:53:39Z</time>
      </trkpt>
      <trkpt lat="41.0792820" lon="0.4753720">
        <ele>332.1</ele>
        <time>2020-08-06T11:53:40Z</time>
      </trkpt>
      <trkpt lat="41.0792830" lon="0.4753550">
        <ele>332.1</ele>
        <time>2020-08-06T11:53:41Z</time>
      </trkpt>
      <trkpt lat="41.0792870" lon="0.4753370">
        <ele>332.2</ele>
        <time>2020-08-06T11:53:43Z</time>
      </trkpt>
      <trkpt lat="41.0793030" lon="0.4752760">
        <ele>332.5</ele>
        <time>2020-08-06T11:53:47Z</time>
      </trkpt>
      <trkpt lat="41.0793270" lon="0.4752640">
        <ele>332.6</ele>
        <time>2020-08-06T11:53:50Z</time>
      </trkpt>
      <trkpt lat="41.0793670" lon="0.4752560">
        <ele>332.8</ele>
        <time>2020-08-06T11:53:53Z</time>
      </trkpt>
      <trkpt lat="41.0793620" lon="0.4752620">
        <ele>332.9</ele>
        <time>2020-08-06T11:53:54Z</time>
      </trkpt>
      <trkpt lat="41.0793680" lon="0.4752630">
        <ele>332.9</ele>
        <time>2020-08-06T11:53:56Z</time>
      </trkpt>
      <trkpt lat="41.0793710" lon="0.4752660">
        <ele>332.9</ele>
        <time>2020-08-06T11:53:57Z</time>
      </trkpt>
      <trkpt lat="41.0793740" lon="0.4752440">
        <ele>333.0</ele>
        <time>2020-08-06T11:53:58Z</time>
      </trkpt>
      <trkpt lat="41.0793860" lon="0.4752080">
        <ele>333.1</ele>
        <time>2020-08-06T11:54:00Z</time>
      </trkpt>
      <trkpt lat="41.0794080" lon="0.4751780">
        <ele>333.1</ele>
        <time>2020-08-06T11:54:01Z</time>
      </trkpt>
      <trkpt lat="41.0794180" lon="0.4751670">
        <ele>333.1</ele>
        <time>2020-08-06T11:54:02Z</time>
      </trkpt>
      <trkpt lat="41.0794290" lon="0.4751490">
        <ele>333.1</ele>
        <time>2020-08-06T11:54:03Z</time>
      </trkpt>
      <trkpt lat="41.0794320" lon="0.4751010">
        <ele>333.1</ele>
        <time>2020-08-06T11:54:05Z</time>
      </trkpt>
      <trkpt lat="41.0794410" lon="0.4750600">
        <ele>333.1</ele>
        <time>2020-08-06T11:54:06Z</time>
      </trkpt>
      <trkpt lat="41.0794460" lon="0.4750480">
        <ele>333.1</ele>
        <time>2020-08-06T11:54:07Z</time>
      </trkpt>
      <trkpt lat="41.0794670" lon="0.4750120">
        <ele>333.1</ele>
        <time>2020-08-06T11:54:08Z</time>
      </trkpt>
      <trkpt lat="41.0794750" lon="0.4749980">
        <ele>333.1</ele>
        <time>2020-08-06T11:54:09Z</time>
      </trkpt>
      <trkpt lat="41.0794830" lon="0.4749810">
        <ele>333.1</ele>
        <time>2020-08-06T11:54:10Z</time>
      </trkpt>
      <trkpt lat="41.0794920" lon="0.4749560">
        <ele>333.1</ele>
        <time>2020-08-06T11:54:12Z</time>
      </trkpt>
      <trkpt lat="41.0794990" lon="0.4749420">
        <ele>333.1</ele>
        <time>2020-08-06T11:54:13Z</time>
      </trkpt>
      <trkpt lat="41.0795160" lon="0.4749220">
        <ele>333.1</ele>
        <time>2020-08-06T11:54:15Z</time>
      </trkpt>
      <trkpt lat="41.0795300" lon="0.4749040">
        <ele>333.1</ele>
        <time>2020-08-06T11:54:16Z</time>
      </trkpt>
      <trkpt lat="41.0795450" lon="0.4748820">
        <ele>333.1</ele>
        <time>2020-08-06T11:54:18Z</time>
      </trkpt>
      <trkpt lat="41.0795580" lon="0.4748600">
        <ele>333.1</ele>
        <time>2020-08-06T11:54:19Z</time>
      </trkpt>
      <trkpt lat="41.0795690" lon="0.4748460">
        <ele>333.1</ele>
        <time>2020-08-06T11:54:20Z</time>
      </trkpt>
      <trkpt lat="41.0796060" lon="0.4748120">
        <ele>333.1</ele>
        <time>2020-08-06T11:54:22Z</time>
      </trkpt>
      <trkpt lat="41.0796180" lon="0.4748010">
        <ele>333.1</ele>
        <time>2020-08-06T11:54:23Z</time>
      </trkpt>
      <trkpt lat="41.0796300" lon="0.4747910">
        <ele>333.1</ele>
        <time>2020-08-06T11:54:24Z</time>
      </trkpt>
      <trkpt lat="41.0796590" lon="0.4747680">
        <ele>333.1</ele>
        <time>2020-08-06T11:54:26Z</time>
      </trkpt>
      <trkpt lat="41.0796670" lon="0.4747630">
        <ele>333.1</ele>
        <time>2020-08-06T11:54:27Z</time>
      </trkpt>
      <trkpt lat="41.0796750" lon="0.4747620">
        <ele>333.1</ele>
        <time>2020-08-06T11:54:28Z</time>
      </trkpt>
      <trkpt lat="41.0796730" lon="0.4747660">
        <ele>333.1</ele>
        <time>2020-08-06T11:54:30Z</time>
      </trkpt>
      <trkpt lat="41.0796710" lon="0.4747690">
        <ele>333.1</ele>
        <time>2020-08-06T11:54:32Z</time>
      </trkpt>
      <trkpt lat="41.0796690" lon="0.4747730">
        <ele>333.1</ele>
        <time>2020-08-06T11:54:33Z</time>
      </trkpt>
      <trkpt lat="41.0796670" lon="0.4747760">
        <ele>333.1</ele>
        <time>2020-08-06T11:54:35Z</time>
      </trkpt>
      <trkpt lat="41.0796650" lon="0.4747800">
        <ele>333.0</ele>
        <time>2020-08-06T11:54:36Z</time>
      </trkpt>
      <trkpt lat="41.0796630" lon="0.4747830">
        <ele>333.0</ele>
        <time>2020-08-06T11:54:38Z</time>
      </trkpt>
      <trkpt lat="41.0796610" lon="0.4747870">
        <ele>333.0</ele>
        <time>2020-08-06T11:54:51Z</time>
      </trkpt>
      <trkpt lat="41.0796590" lon="0.4747900">
        <ele>333.0</ele>
        <time>2020-08-06T11:54:53Z</time>
      </trkpt>
      <trkpt lat="41.0796570" lon="0.4747940">
        <ele>333.0</ele>
        <time>2020-08-06T11:54:54Z</time>
      </trkpt>
      <trkpt lat="41.0796550" lon="0.4747970">
        <ele>333.0</ele>
        <time>2020-08-06T11:54:56Z</time>
      </trkpt>
      <trkpt lat="41.0796530" lon="0.4748010">
        <ele>333.0</ele>
        <time>2020-08-06T11:54:57Z</time>
      </trkpt>
      <trkpt lat="41.0796520" lon="0.4748040">
        <ele>333.0</ele>
        <time>2020-08-06T11:54:58Z</time>
      </trkpt>
      <trkpt lat="41.0796500" lon="0.4748080">
        <ele>333.0</ele>
        <time>2020-08-06T11:54:59Z</time>
      </trkpt>
      <trkpt lat="41.0796480" lon="0.4748110">
        <ele>333.0</ele>
        <time>2020-08-06T11:55:01Z</time>
      </trkpt>
      <trkpt lat="41.0796460" lon="0.4748150">
        <ele>333.0</ele>
        <time>2020-08-06T11:55:04Z</time>
      </trkpt>
      <trkpt lat="41.0796440" lon="0.4748180">
        <ele>333.0</ele>
        <time>2020-08-06T11:55:05Z</time>
      </trkpt>
      <trkpt lat="41.0796420" lon="0.4748220">
        <ele>333.0</ele>
        <time>2020-08-06T11:55:06Z</time>
      </trkpt>
      <trkpt lat="41.0796400" lon="0.4748250">
        <ele>333.0</ele>
        <time>2020-08-06T11:55:07Z</time>
      </trkpt>
      <trkpt lat="41.0796380" lon="0.4748290">
        <ele>333.0</ele>
        <time>2020-08-06T11:55:09Z</time>
      </trkpt>
      <trkpt lat="41.0796360" lon="0.4748320">
        <ele>333.0</ele>
        <time>2020-08-06T11:55:56Z</time>
      </trkpt>
      <trkpt lat="41.0796340" lon="0.4748360">
        <ele>333.0</ele>
        <time>2020-08-06T11:55:57Z</time>
      </trkpt>
      <trkpt lat="41.0796320" lon="0.4748390">
        <ele>333.0</ele>
        <time>2020-08-06T11:55:59Z</time>
      </trkpt>
      <trkpt lat="41.0796300" lon="0.4748430">
        <ele>333.0</ele>
        <time>2020-08-06T11:56:00Z</time>
      </trkpt>
      <trkpt lat="41.0796280" lon="0.4748460">
        <ele>333.0</ele>
        <time>2020-08-06T11:56:01Z</time>
      </trkpt>
      <trkpt lat="41.0796160" lon="0.4748640">
        <ele>333.0</ele>
        <time>2020-08-06T11:56:02Z</time>
      </trkpt>
      <trkpt lat="41.0795930" lon="0.4748960">
        <ele>333.0</ele>
        <time>2020-08-06T11:56:04Z</time>
      </trkpt>
      <trkpt lat="41.0795640" lon="0.4749290">
        <ele>333.0</ele>
        <time>2020-08-06T11:56:05Z</time>
      </trkpt>
      <trkpt lat="41.0795400" lon="0.4749560">
        <ele>333.0</ele>
        <time>2020-08-06T11:56:06Z</time>
      </trkpt>
      <trkpt lat="41.0795140" lon="0.4749830">
        <ele>333.0</ele>
        <time>2020-08-06T11:56:07Z</time>
      </trkpt>
      <trkpt lat="41.0795040" lon="0.4749920">
        <ele>333.0</ele>
        <time>2020-08-06T11:56:08Z</time>
      </trkpt>
      <trkpt lat="41.0794720" lon="0.4750290">
        <ele>333.0</ele>
        <time>2020-08-06T11:56:10Z</time>
      </trkpt>
      <trkpt lat="41.0794620" lon="0.4750420">
        <ele>333.0</ele>
        <time>2020-08-06T11:56:11Z</time>
      </trkpt>
      <trkpt lat="41.0794530" lon="0.4750540">
        <ele>333.0</ele>
        <time>2020-08-06T11:56:12Z</time>
      </trkpt>
      <trkpt lat="41.0794390" lon="0.4750670">
        <ele>333.0</ele>
        <time>2020-08-06T11:56:13Z</time>
      </trkpt>
      <trkpt lat="41.0794240" lon="0.4750780">
        <ele>333.0</ele>
        <time>2020-08-06T11:56:14Z</time>
      </trkpt>
      <trkpt lat="41.0794120" lon="0.4750810">
        <ele>333.0</ele>
        <time>2020-08-06T11:56:15Z</time>
      </trkpt>
      <trkpt lat="41.0793900" lon="0.4750950">
        <ele>333.0</ele>
        <time>2020-08-06T11:56:17Z</time>
      </trkpt>
      <trkpt lat="41.0793780" lon="0.4751140">
        <ele>333.0</ele>
        <time>2020-08-06T11:56:18Z</time>
      </trkpt>
      <trkpt lat="41.0793740" lon="0.4751260">
        <ele>333.0</ele>
        <time>2020-08-06T11:56:19Z</time>
      </trkpt>
      <trkpt lat="41.0793710" lon="0.4751370">
        <ele>333.0</ele>
        <time>2020-08-06T11:56:20Z</time>
      </trkpt>
      <trkpt lat="41.0793640" lon="0.4751530">
        <ele>333.0</ele>
        <time>2020-08-06T11:56:22Z</time>
      </trkpt>
      <trkpt lat="41.0793560" lon="0.4751680">
        <ele>333.0</ele>
        <time>2020-08-06T11:56:23Z</time>
      </trkpt>
      <trkpt lat="41.0793440" lon="0.4751770">
        <ele>333.0</ele>
        <time>2020-08-06T11:56:24Z</time>
      </trkpt>
      <trkpt lat="41.0793320" lon="0.4751770">
        <ele>333.0</ele>
        <time>2020-08-06T11:56:26Z</time>
      </trkpt>
      <trkpt lat="41.0793220" lon="0.4751660">
        <ele>333.0</ele>
        <time>2020-08-06T11:56:27Z</time>
      </trkpt>
      <trkpt lat="41.0793230" lon="0.4751450">
        <ele>333.0</ele>
        <time>2020-08-06T11:56:29Z</time>
      </trkpt>
      <trkpt lat="41.0793260" lon="0.4751340">
        <ele>333.0</ele>
        <time>2020-08-06T11:56:30Z</time>
      </trkpt>
      <trkpt lat="41.0793340" lon="0.4751240">
        <ele>333.0</ele>
        <time>2020-08-06T11:56:31Z</time>
      </trkpt>
      <trkpt lat="41.0793470" lon="0.4751070">
        <ele>333.0</ele>
        <time>2020-08-06T11:56:33Z</time>
      </trkpt>
      <trkpt lat="41.0793550" lon="0.4750960">
        <ele>333.0</ele>
        <time>2020-08-06T11:56:34Z</time>
      </trkpt>
      <trkpt lat="41.0793620" lon="0.4750850">
        <ele>333.0</ele>
        <time>2020-08-06T11:56:36Z</time>
      </trkpt>
      <trkpt lat="41.0793690" lon="0.4750740">
        <ele>332.9</ele>
        <time>2020-08-06T11:56:38Z</time>
      </trkpt>
      <trkpt lat="41.0793770" lon="0.4750640">
        <ele>332.9</ele>
        <time>2020-08-06T11:56:39Z</time>
      </trkpt>
      <trkpt lat="41.0793840" lon="0.4750530">
        <ele>332.9</ele>
        <time>2020-08-06T11:56:40Z</time>
      </trkpt>
      <trkpt lat="41.0793910" lon="0.4750420">
        <ele>332.9</ele>
        <time>2020-08-06T11:56:41Z</time>
      </trkpt>
      <trkpt lat="41.0793980" lon="0.4750310">
        <ele>332.9</ele>
        <time>2020-08-06T11:56:56Z</time>
      </trkpt>
      <trkpt lat="41.0794060" lon="0.4750200">
        <ele>332.9</ele>
        <time>2020-08-06T11:56:57Z</time>
      </trkpt>
      <trkpt lat="41.0794130" lon="0.4750090">
        <ele>332.9</ele>
        <time>2020-08-06T11:56:58Z</time>
      </trkpt>
      <trkpt lat="41.0794230" lon="0.4749960">
        <ele>332.9</ele>
        <time>2020-08-06T11:56:59Z</time>
      </trkpt>
      <trkpt lat="41.0794350" lon="0.4749710">
        <ele>332.9</ele>
        <time>2020-08-06T11:57:01Z</time>
      </trkpt>
      <trkpt lat="41.0794460" lon="0.4749570">
        <ele>332.9</ele>
        <time>2020-08-06T11:57:02Z</time>
      </trkpt>
      <trkpt lat="41.0794600" lon="0.4749430">
        <ele>332.9</ele>
        <time>2020-08-06T11:57:03Z</time>
      </trkpt>
      <trkpt lat="41.0794840" lon="0.4749180">
        <ele>332.9</ele>
        <time>2020-08-06T11:57:04Z</time>
      </trkpt>
      <trkpt lat="41.0795130" lon="0.4748900">
        <ele>332.9</ele>
        <time>2020-08-06T11:57:05Z</time>
      </trkpt>
      <trkpt lat="41.0795390" lon="0.4748660">
        <ele>332.9</ele>
        <time>2020-08-06T11:57:07Z</time>
      </trkpt>
      <trkpt lat="41.0795630" lon="0.4748350">
        <ele>332.9</ele>
        <time>2020-08-06T11:57:08Z</time>
      </trkpt>
      <trkpt lat="41.0795850" lon="0.4747970">
        <ele>332.8</ele>
        <time>2020-08-06T11:57:10Z</time>
      </trkpt>
      <trkpt lat="41.0795850" lon="0.4747540">
        <ele>333.1</ele>
        <time>2020-08-06T11:57:11Z</time>
      </trkpt>
      <trkpt lat="41.0795750" lon="0.4747150">
        <ele>333.3</ele>
        <time>2020-08-06T11:57:13Z</time>
      </trkpt>
      <trkpt lat="41.0795650" lon="0.4746790">
        <ele>333.4</ele>
        <time>2020-08-06T11:57:14Z</time>
      </trkpt>
      <trkpt lat="41.0795560" lon="0.4746560">
        <ele>333.5</ele>
        <time>2020-08-06T11:57:15Z</time>
      </trkpt>
      <trkpt lat="41.0795460" lon="0.4746450">
        <ele>333.6</ele>
        <time>2020-08-06T11:57:16Z</time>
      </trkpt>
      <trkpt lat="41.0795240" lon="0.4746140">
        <ele>333.8</ele>
        <time>2020-08-06T11:57:18Z</time>
      </trkpt>
      <trkpt lat="41.0795150" lon="0.4746000">
        <ele>333.9</ele>
        <time>2020-08-06T11:57:19Z</time>
      </trkpt>
      <trkpt lat="41.0795000" lon="0.4745680">
        <ele>334.0</ele>
        <time>2020-08-06T11:57:20Z</time>
      </trkpt>
      <trkpt lat="41.0794950" lon="0.4745580">
        <ele>334.1</ele>
        <time>2020-08-06T11:57:21Z</time>
      </trkpt>
      <trkpt lat="41.0794700" lon="0.4745250">
        <ele>334.3</ele>
        <time>2020-08-06T11:57:23Z</time>
      </trkpt>
      <trkpt lat="41.0794460" lon="0.4744820">
        <ele>334.5</ele>
        <time>2020-08-06T11:57:25Z</time>
      </trkpt>
      <trkpt lat="41.0794360" lon="0.4744550">
        <ele>334.6</ele>
        <time>2020-08-06T11:57:26Z</time>
      </trkpt>
      <trkpt lat="41.0794260" lon="0.4744170">
        <ele>334.8</ele>
        <time>2020-08-06T11:57:28Z</time>
      </trkpt>
      <trkpt lat="41.0794270" lon="0.4743980">
        <ele>334.9</ele>
        <time>2020-08-06T11:57:29Z</time>
      </trkpt>
      <trkpt lat="41.0794210" lon="0.4743760">
        <ele>335.0</ele>
        <time>2020-08-06T11:57:30Z</time>
      </trkpt>
      <trkpt lat="41.0794220" lon="0.4743750">
        <ele>335.0</ele>
        <time>2020-08-06T11:57:32Z</time>
      </trkpt>
      <trkpt lat="41.0794240" lon="0.4743760">
        <ele>335.0</ele>
        <time>2020-08-06T11:57:33Z</time>
      </trkpt>
      <trkpt lat="41.0794270" lon="0.4743760">
        <ele>335.0</ele>
        <time>2020-08-06T11:57:35Z</time>
      </trkpt>
      <trkpt lat="41.0794290" lon="0.4743770">
        <ele>335.0</ele>
        <time>2020-08-06T11:57:37Z</time>
      </trkpt>
      <trkpt lat="41.0794320" lon="0.4743780">
        <ele>335.0</ele>
        <time>2020-08-06T11:57:39Z</time>
      </trkpt>
      <trkpt lat="41.0794330" lon="0.4743780">
        <ele>335.0</ele>
        <time>2020-08-06T11:57:40Z</time>
      </trkpt>
      <trkpt lat="41.0794470" lon="0.4743900">
        <ele>335.1</ele>
        <time>2020-08-06T11:57:57Z</time>
      </trkpt>
      <trkpt lat="41.0794560" lon="0.4743990">
        <ele>335.2</ele>
        <time>2020-08-06T11:57:59Z</time>
      </trkpt>
      <trkpt lat="41.0794620" lon="0.4743970">
        <ele>335.2</ele>
        <time>2020-08-06T11:58:00Z</time>
      </trkpt>
      <trkpt lat="41.0794680" lon="0.4744040">
        <ele>335.3</ele>
        <time>2020-08-06T11:58:01Z</time>
      </trkpt>
      <trkpt lat="41.0794530" lon="0.4744180">
        <ele>335.4</ele>
        <time>2020-08-06T11:58:02Z</time>
      </trkpt>
      <trkpt lat="41.0794390" lon="0.4744380">
        <ele>335.5</ele>
        <time>2020-08-06T11:58:04Z</time>
      </trkpt>
      <trkpt lat="41.0794030" lon="0.4744580">
        <ele>335.7</ele>
        <time>2020-08-06T11:58:05Z</time>
      </trkpt>
      <trkpt lat="41.0793890" lon="0.4744600">
        <ele>335.8</ele>
        <time>2020-08-06T11:58:06Z</time>
      </trkpt>
      <trkpt lat="41.0793570" lon="0.4744610">
        <ele>336.0</ele>
        <time>2020-08-06T11:58:07Z</time>
      </trkpt>
      <trkpt lat="41.0792850" lon="0.4744750">
        <ele>336.4</ele>
        <time>2020-08-06T11:58:09Z</time>
      </trkpt>
      <trkpt lat="41.0792410" lon="0.4744840">
        <ele>336.6</ele>
        <time>2020-08-06T11:58:10Z</time>
      </trkpt>
      <trkpt lat="41.0792040" lon="0.4744940">
        <ele>336.8</ele>
        <time>2020-08-06T11:58:12Z</time>
      </trkpt>
      <trkpt lat="41.0791770" lon="0.4745020">
        <ele>337.0</ele>
        <time>2020-08-06T11:58:13Z</time>
      </trkpt>
      <trkpt lat="41.0791470" lon="0.4745100">
        <ele>337.2</ele>
        <time>2020-08-06T11:58:14Z</time>
      </trkpt>
      <trkpt lat="41.0791370" lon="0.4745130">
        <ele>337.2</ele>
        <time>2020-08-06T11:58:15Z</time>
      </trkpt>
      <trkpt lat="41.0791190" lon="0.4745220">
        <ele>337.3</ele>
        <time>2020-08-06T11:58:16Z</time>
      </trkpt>
      <trkpt lat="41.0790930" lon="0.4745410">
        <ele>337.5</ele>
        <time>2020-08-06T11:58:18Z</time>
      </trkpt>
      <trkpt lat="41.0790750" lon="0.4745510">
        <ele>337.6</ele>
        <time>2020-08-06T11:58:19Z</time>
      </trkpt>
      <trkpt lat="41.0790590" lon="0.4745530">
        <ele>337.7</ele>
        <time>2020-08-06T11:58:20Z</time>
      </trkpt>
      <trkpt lat="41.0790430" lon="0.4745540">
        <ele>337.8</ele>
        <time>2020-08-06T11:58:22Z</time>
      </trkpt>
      <trkpt lat="41.0790360" lon="0.4745370">
        <ele>337.8</ele>
        <time>2020-08-06T11:58:23Z</time>
      </trkpt>
      <trkpt lat="41.0790270" lon="0.4745300">
        <ele>337.9</ele>
        <time>2020-08-06T11:58:24Z</time>
      </trkpt>
      <trkpt lat="41.0790130" lon="0.4745320">
        <ele>338.0</ele>
        <time>2020-08-06T11:58:26Z</time>
      </trkpt>
      <trkpt lat="41.0790100" lon="0.4745340">
        <ele>338.0</ele>
        <time>2020-08-06T11:58:27Z</time>
      </trkpt>
      <trkpt lat="41.0790080" lon="0.4745370">
        <ele>338.0</ele>
        <time>2020-08-06T11:58:29Z</time>
      </trkpt>
      <trkpt lat="41.0790050" lon="0.4745390">
        <ele>338.0</ele>
        <time>2020-08-06T11:58:31Z</time>
      </trkpt>
      <trkpt lat="41.0790030" lon="0.4745420">
        <ele>338.1</ele>
        <time>2020-08-06T11:58:32Z</time>
      </trkpt>
      <trkpt lat="41.0790000" lon="0.4745440">
        <ele>338.1</ele>
        <time>2020-08-06T11:58:34Z</time>
      </trkpt>
      <trkpt lat="41.0789980" lon="0.4745470">
        <ele>338.1</ele>
        <time>2020-08-06T11:58:35Z</time>
      </trkpt>
      <trkpt lat="41.0789950" lon="0.4745490">
        <ele>338.1</ele>
        <time>2020-08-06T11:58:37Z</time>
      </trkpt>
      <trkpt lat="41.0789930" lon="0.4745520">
        <ele>338.1</ele>
        <time>2020-08-06T11:58:38Z</time>
      </trkpt>
      <trkpt lat="41.0789800" lon="0.4745630">
        <ele>338.2</ele>
        <time>2020-08-06T11:58:39Z</time>
      </trkpt>
      <trkpt lat="41.0789600" lon="0.4745720">
        <ele>338.3</ele>
        <time>2020-08-06T11:58:41Z</time>
      </trkpt>
      <trkpt lat="41.0789440" lon="0.4745710">
        <ele>338.4</ele>
        <time>2020-08-06T11:58:42Z</time>
      </trkpt>
      <trkpt lat="41.0789300" lon="0.4745680">
        <ele>338.5</ele>
        <time>2020-08-06T11:58:43Z</time>
      </trkpt>
      <trkpt lat="41.0789120" lon="0.4745660">
        <ele>338.6</ele>
        <time>2020-08-06T11:58:44Z</time>
      </trkpt>
      <trkpt lat="41.0788860" lon="0.4745650">
        <ele>338.7</ele>
        <time>2020-08-06T11:58:46Z</time>
      </trkpt>
      <trkpt lat="41.0788600" lon="0.4745690">
        <ele>338.9</ele>
        <time>2020-08-06T11:58:47Z</time>
      </trkpt>
      <trkpt lat="41.0788190" lon="0.4745700">
        <ele>339.1</ele>
        <time>2020-08-06T11:58:49Z</time>
      </trkpt>
      <trkpt lat="41.0787900" lon="0.4745720">
        <ele>339.3</ele>
        <time>2020-08-06T11:58:50Z</time>
      </trkpt>
      <trkpt lat="41.0787490" lon="0.4745790">
        <ele>339.5</ele>
        <time>2020-08-06T11:58:52Z</time>
      </trkpt>
      <trkpt lat="41.0787350" lon="0.4745800">
        <ele>339.6</ele>
        <time>2020-08-06T11:58:53Z</time>
      </trkpt>
      <trkpt lat="41.0787210" lon="0.4745800">
        <ele>339.7</ele>
        <time>2020-08-06T11:58:54Z</time>
      </trkpt>
      <trkpt lat="41.0787050" lon="0.4745820">
        <ele>339.8</ele>
        <time>2020-08-06T11:58:55Z</time>
      </trkpt>
      <trkpt lat="41.0786910" lon="0.4745830">
        <ele>339.8</ele>
        <time>2020-08-06T11:58:56Z</time>
      </trkpt>
      <trkpt lat="41.0786650" lon="0.4745920">
        <ele>340.0</ele>
        <time>2020-08-06T11:58:58Z</time>
      </trkpt>
      <trkpt lat="41.0786470" lon="0.4746050">
        <ele>340.1</ele>
        <time>2020-08-06T11:59:00Z</time>
      </trkpt>
      <trkpt lat="41.0786420" lon="0.4746110">
        <ele>340.1</ele>
        <time>2020-08-06T11:59:01Z</time>
      </trkpt>
      <trkpt lat="41.0786450" lon="0.4746190">
        <ele>340.2</ele>
        <time>2020-08-06T11:59:03Z</time>
      </trkpt>
      <trkpt lat="41.0786460" lon="0.4746210">
        <ele>340.2</ele>
        <time>2020-08-06T11:59:04Z</time>
      </trkpt>
      <trkpt lat="41.0786400" lon="0.4746310">
        <ele>340.2</ele>
        <time>2020-08-06T11:59:06Z</time>
      </trkpt>
      <trkpt lat="41.0786340" lon="0.4746390">
        <ele>340.3</ele>
        <time>2020-08-06T11:59:08Z</time>
      </trkpt>
      <trkpt lat="41.0786330" lon="0.4746410">
        <ele>340.3</ele>
        <time>2020-08-06T11:59:09Z</time>
      </trkpt>
      <trkpt lat="41.0786060" lon="0.4746820">
        <ele>340.5</ele>
        <time>2020-08-06T11:59:49Z</time>
      </trkpt>
      <trkpt lat="41.0785920" lon="0.4746880">
        <ele>340.6</ele>
        <time>2020-08-06T11:59:50Z</time>
      </trkpt>
      <trkpt lat="41.0785720" lon="0.4746900">
        <ele>340.7</ele>
        <time>2020-08-06T11:59:52Z</time>
      </trkpt>
      <trkpt lat="41.0785520" lon="0.4746860">
        <ele>340.8</ele>
        <time>2020-08-06T11:59:53Z</time>
      </trkpt>
      <trkpt lat="41.0785360" lon="0.4746820">
        <ele>340.9</ele>
        <time>2020-08-06T11:59:54Z</time>
      </trkpt>
      <trkpt lat="41.0785050" lon="0.4746810">
        <ele>341.0</ele>
        <time>2020-08-06T11:59:56Z</time>
      </trkpt>
      <trkpt lat="41.0784960" lon="0.4746820">
        <ele>340.9</ele>
        <time>2020-08-06T11:59:57Z</time>
      </trkpt>
      <trkpt lat="41.0784770" lon="0.4746780">
        <ele>340.9</ele>
        <time>2020-08-06T11:59:58Z</time>
      </trkpt>
      <trkpt lat="41.0784580" lon="0.4746680">
        <ele>340.8</ele>
        <time>2020-08-06T12:00:00Z</time>
      </trkpt>
      <trkpt lat="41.0784310" lon="0.4746590">
        <ele>340.7</ele>
        <time>2020-08-06T12:00:01Z</time>
      </trkpt>
      <trkpt lat="41.0784220" lon="0.4746560">
        <ele>340.7</ele>
        <time>2020-08-06T12:00:02Z</time>
      </trkpt>
      <trkpt lat="41.0784070" lon="0.4746520">
        <ele>340.7</ele>
        <time>2020-08-06T12:00:03Z</time>
      </trkpt>
      <trkpt lat="41.0783830" lon="0.4746360">
        <ele>340.6</ele>
        <time>2020-08-06T12:00:05Z</time>
      </trkpt>
      <trkpt lat="41.0783650" lon="0.4746320">
        <ele>340.5</ele>
        <time>2020-08-06T12:00:07Z</time>
      </trkpt>
      <trkpt lat="41.0783540" lon="0.4746220">
        <ele>340.5</ele>
        <time>2020-08-06T12:00:08Z</time>
      </trkpt>
      <trkpt lat="41.0783390" lon="0.4746140">
        <ele>340.4</ele>
        <time>2020-08-06T12:00:09Z</time>
      </trkpt>
      <trkpt lat="41.0783150" lon="0.4746020">
        <ele>340.4</ele>
        <time>2020-08-06T12:00:11Z</time>
      </trkpt>
      <trkpt lat="41.0782860" lon="0.4745920">
        <ele>340.3</ele>
        <time>2020-08-06T12:00:12Z</time>
      </trkpt>
      <trkpt lat="41.0782760" lon="0.4745880">
        <ele>340.3</ele>
        <time>2020-08-06T12:00:13Z</time>
      </trkpt>
      <trkpt lat="41.0782600" lon="0.4745840">
        <ele>340.2</ele>
        <time>2020-08-06T12:00:14Z</time>
      </trkpt>
      <trkpt lat="41.0782460" lon="0.4745790">
        <ele>340.2</ele>
        <time>2020-08-06T12:00:15Z</time>
      </trkpt>
      <trkpt lat="41.0782320" lon="0.4745720">
        <ele>340.1</ele>
        <time>2020-08-06T12:00:16Z</time>
      </trkpt>
      <trkpt lat="41.0782170" lon="0.4745690">
        <ele>340.1</ele>
        <time>2020-08-06T12:00:17Z</time>
      </trkpt>
      <trkpt lat="41.0781810" lon="0.4745780">
        <ele>340.0</ele>
        <time>2020-08-06T12:00:19Z</time>
      </trkpt>
      <trkpt lat="41.0781440" lon="0.4745830">
        <ele>339.9</ele>
        <time>2020-08-06T12:00:20Z</time>
      </trkpt>
      <trkpt lat="41.0781310" lon="0.4745840">
        <ele>339.8</ele>
        <time>2020-08-06T12:00:21Z</time>
      </trkpt>
      <trkpt lat="41.0780880" lon="0.4745760">
        <ele>339.5</ele>
        <time>2020-08-06T12:00:23Z</time>
      </trkpt>
      <trkpt lat="41.0780700" lon="0.4745730">
        <ele>339.4</ele>
        <time>2020-08-06T12:00:24Z</time>
      </trkpt>
      <trkpt lat="41.0780370" lon="0.4745710">
        <ele>339.2</ele>
        <time>2020-08-06T12:00:26Z</time>
      </trkpt>
      <trkpt lat="41.0780100" lon="0.4745650">
        <ele>339.0</ele>
        <time>2020-08-06T12:00:27Z</time>
      </trkpt>
      <trkpt lat="41.0779700" lon="0.4745680">
        <ele>338.8</ele>
        <time>2020-08-06T12:00:29Z</time>
      </trkpt>
      <trkpt lat="41.0779610" lon="0.4745740">
        <ele>338.7</ele>
        <time>2020-08-06T12:00:30Z</time>
      </trkpt>
      <trkpt lat="41.0779520" lon="0.4745810">
        <ele>338.6</ele>
        <time>2020-08-06T12:00:32Z</time>
      </trkpt>
      <trkpt lat="41.0779430" lon="0.4745870">
        <ele>338.6</ele>
        <time>2020-08-06T12:00:33Z</time>
      </trkpt>
      <trkpt lat="41.0779380" lon="0.4745880">
        <ele>338.5</ele>
        <time>2020-08-06T12:00:34Z</time>
      </trkpt>
      <trkpt lat="41.0779400" lon="0.4745850">
        <ele>338.5</ele>
        <time>2020-08-06T12:00:36Z</time>
      </trkpt>
      <trkpt lat="41.0779420" lon="0.4745830">
        <ele>338.5</ele>
        <time>2020-08-06T12:00:37Z</time>
      </trkpt>
      <trkpt lat="41.0779470" lon="0.4745800">
        <ele>338.5</ele>
        <time>2020-08-06T12:00:39Z</time>
      </trkpt>
      <trkpt lat="41.0779490" lon="0.4745810">
        <ele>338.5</ele>
        <time>2020-08-06T12:00:40Z</time>
      </trkpt>
      <trkpt lat="41.0779510" lon="0.4745860">
        <ele>338.4</ele>
        <time>2020-08-06T12:00:42Z</time>
      </trkpt>
      <trkpt lat="41.0779510" lon="0.4745910">
        <ele>338.4</ele>
        <time>2020-08-06T12:00:43Z</time>
      </trkpt>
      <trkpt lat="41.0779540" lon="0.4745960">
        <ele>338.4</ele>
        <time>2020-08-06T12:00:44Z</time>
      </trkpt>
      <trkpt lat="41.0779930" lon="0.4745540">
        <ele>338.1</ele>
        <time>2020-08-06T12:00:51Z</time>
      </trkpt>
      <trkpt lat="41.0780050" lon="0.4745380">
        <ele>338.0</ele>
        <time>2020-08-06T12:00:53Z</time>
      </trkpt>
      <trkpt lat="41.0780150" lon="0.4745370">
        <ele>337.9</ele>
        <time>2020-08-06T12:00:54Z</time>
      </trkpt>
      <trkpt lat="41.0780240" lon="0.4745360">
        <ele>337.8</ele>
        <time>2020-08-06T12:00:55Z</time>
      </trkpt>
      <trkpt lat="41.0780350" lon="0.4745400">
        <ele>337.8</ele>
        <time>2020-08-06T12:00:57Z</time>
      </trkpt>
      <trkpt lat="41.0780430" lon="0.4745340">
        <ele>337.7</ele>
        <time>2020-08-06T12:00:58Z</time>
      </trkpt>
      <trkpt lat="41.0780410" lon="0.4745210">
        <ele>337.7</ele>
        <time>2020-08-06T12:01:00Z</time>
      </trkpt>
      <trkpt lat="41.0780380" lon="0.4745230">
        <ele>337.6</ele>
        <time>2020-08-06T12:01:01Z</time>
      </trkpt>
      <trkpt lat="41.0780290" lon="0.4745200">
        <ele>337.6</ele>
        <time>2020-08-06T12:01:02Z</time>
      </trkpt>
      <trkpt lat="41.0780150" lon="0.4745090">
        <ele>337.5</ele>
        <time>2020-08-06T12:01:04Z</time>
      </trkpt>
      <trkpt lat="41.0780030" lon="0.4744990">
        <ele>337.4</ele>
        <time>2020-08-06T12:01:06Z</time>
      </trkpt>
      <trkpt lat="41.0779900" lon="0.4744950">
        <ele>337.3</ele>
        <time>2020-08-06T12:01:07Z</time>
      </trkpt>
      <trkpt lat="41.0779740" lon="0.4744930">
        <ele>337.2</ele>
        <time>2020-08-06T12:01:09Z</time>
      </trkpt>
      <trkpt lat="41.0779570" lon="0.4744850">
        <ele>337.1</ele>
        <time>2020-08-06T12:01:10Z</time>
      </trkpt>
      <trkpt lat="41.0779440" lon="0.4744770">
        <ele>337.0</ele>
        <time>2020-08-06T12:01:11Z</time>
      </trkpt>
      <trkpt lat="41.0779280" lon="0.4744720">
        <ele>336.9</ele>
        <time>2020-08-06T12:01:12Z</time>
      </trkpt>
      <trkpt lat="41.0779090" lon="0.4744700">
        <ele>336.8</ele>
        <time>2020-08-06T12:01:13Z</time>
      </trkpt>
      <trkpt lat="41.0778810" lon="0.4744680">
        <ele>336.6</ele>
        <time>2020-08-06T12:01:14Z</time>
      </trkpt>
      <trkpt lat="41.0778670" lon="0.4744700">
        <ele>336.5</ele>
        <time>2020-08-06T12:01:16Z</time>
      </trkpt>
      <trkpt lat="41.0778540" lon="0.4744710">
        <ele>336.4</ele>
        <time>2020-08-06T12:01:17Z</time>
      </trkpt>
      <trkpt lat="41.0778400" lon="0.4744720">
        <ele>336.3</ele>
        <time>2020-08-06T12:01:18Z</time>
      </trkpt>
      <trkpt lat="41.0778180" lon="0.4744980">
        <ele>336.3</ele>
        <time>2020-08-06T12:01:20Z</time>
      </trkpt>
      <trkpt lat="41.0778120" lon="0.4745220">
        <ele>336.3</ele>
        <time>2020-08-06T12:01:21Z</time>
      </trkpt>
      <trkpt lat="41.0778130" lon="0.4745370">
        <ele>336.3</ele>
        <time>2020-08-06T12:01:22Z</time>
      </trkpt>
      <trkpt lat="41.0778190" lon="0.4745620">
        <ele>336.3</ele>
        <time>2020-08-06T12:01:23Z</time>
      </trkpt>
      <trkpt lat="41.0778210" lon="0.4745730">
        <ele>336.3</ele>
        <time>2020-08-06T12:01:25Z</time>
      </trkpt>
      <trkpt lat="41.0778240" lon="0.4745850">
        <ele>336.3</ele>
        <time>2020-08-06T12:01:26Z</time>
      </trkpt>
      <trkpt lat="41.0778290" lon="0.4746090">
        <ele>336.4</ele>
        <time>2020-08-06T12:01:27Z</time>
      </trkpt>
      <trkpt lat="41.0778340" lon="0.4746270">
        <ele>336.4</ele>
        <time>2020-08-06T12:01:28Z</time>
      </trkpt>
      <trkpt lat="41.0778440" lon="0.4746610">
        <ele>336.4</ele>
        <time>2020-08-06T12:01:30Z</time>
      </trkpt>
      <trkpt lat="41.0778500" lon="0.4746790">
        <ele>336.4</ele>
        <time>2020-08-06T12:01:31Z</time>
      </trkpt>
      <trkpt lat="41.0778570" lon="0.4747100">
        <ele>336.5</ele>
        <time>2020-08-06T12:01:33Z</time>
      </trkpt>
      <trkpt lat="41.0778620" lon="0.4747250">
        <ele>336.5</ele>
        <time>2020-08-06T12:01:34Z</time>
      </trkpt>
      <trkpt lat="41.0778640" lon="0.4747410">
        <ele>336.5</ele>
        <time>2020-08-06T12:01:35Z</time>
      </trkpt>
      <trkpt lat="41.0778640" lon="0.4747580">
        <ele>336.5</ele>
        <time>2020-08-06T12:01:37Z</time>
      </trkpt>
      <trkpt lat="41.0778600" lon="0.4747580">
        <ele>336.5</ele>
        <time>2020-08-06T12:01:38Z</time>
      </trkpt>
      <trkpt lat="41.0778580" lon="0.4747590">
        <ele>336.5</ele>
        <time>2020-08-06T12:01:39Z</time>
      </trkpt>
      <trkpt lat="41.0778570" lon="0.4747600">
        <ele>336.5</ele>
        <time>2020-08-06T12:01:40Z</time>
      </trkpt>
      <trkpt lat="41.0778520" lon="0.4747610">
        <ele>336.5</ele>
        <time>2020-08-06T12:01:47Z</time>
      </trkpt>
      <trkpt lat="41.0778610" lon="0.4748040">
        <ele>336.6</ele>
        <time>2020-08-06T12:01:53Z</time>
      </trkpt>
      <trkpt lat="41.0778630" lon="0.4748240">
        <ele>336.6</ele>
        <time>2020-08-06T12:01:55Z</time>
      </trkpt>
      <trkpt lat="41.0778700" lon="0.4748420">
        <ele>336.6</ele>
        <time>2020-08-06T12:01:56Z</time>
      </trkpt>
      <trkpt lat="41.0778810" lon="0.4748620">
        <ele>336.6</ele>
        <time>2020-08-06T12:01:58Z</time>
      </trkpt>
      <trkpt lat="41.0778860" lon="0.4748700">
        <ele>336.6</ele>
        <time>2020-08-06T12:01:59Z</time>
      </trkpt>
      <trkpt lat="41.0778910" lon="0.4748790">
        <ele>336.6</ele>
        <time>2020-08-06T12:02:00Z</time>
      </trkpt>
      <trkpt lat="41.0778920" lon="0.4748860">
        <ele>336.6</ele>
        <time>2020-08-06T12:02:01Z</time>
      </trkpt>
      <trkpt lat="41.0778930" lon="0.4748980">
        <ele>336.6</ele>
        <time>2020-08-06T12:02:03Z</time>
      </trkpt>
      <trkpt lat="41.0778930" lon="0.4749020">
        <ele>336.6</ele>
        <time>2020-08-06T12:02:05Z</time>
      </trkpt>
      <trkpt lat="41.0778930" lon="0.4749040">
        <ele>336.6</ele>
        <time>2020-08-06T12:02:06Z</time>
      </trkpt>
      <trkpt lat="41.0778940" lon="0.4749070">
        <ele>336.7</ele>
        <time>2020-08-06T12:02:08Z</time>
      </trkpt>
      <trkpt lat="41.0778940" lon="0.4749080">
        <ele>336.7</ele>
        <time>2020-08-06T12:02:09Z</time>
      </trkpt>
      <trkpt lat="41.0778940" lon="0.4749070">
        <ele>336.7</ele>
        <time>2020-08-06T12:02:10Z</time>
      </trkpt>
      <trkpt lat="41.0778950" lon="0.4749070">
        <ele>336.7</ele>
        <time>2020-08-06T12:02:11Z</time>
      </trkpt>
      <trkpt lat="41.0778810" lon="0.4749500">
        <ele>336.7</ele>
        <time>2020-08-06T12:02:53Z</time>
      </trkpt>
      <trkpt lat="41.0778730" lon="0.4749660">
        <ele>336.6</ele>
        <time>2020-08-06T12:02:54Z</time>
      </trkpt>
      <trkpt lat="41.0778590" lon="0.4749750">
        <ele>336.6</ele>
        <time>2020-08-06T12:02:56Z</time>
      </trkpt>
      <trkpt lat="41.0778440" lon="0.4749640">
        <ele>336.5</ele>
        <time>2020-08-06T12:02:57Z</time>
      </trkpt>
      <trkpt lat="41.0778370" lon="0.4749550">
        <ele>336.5</ele>
        <time>2020-08-06T12:02:58Z</time>
      </trkpt>
      <trkpt lat="41.0778300" lon="0.4749500">
        <ele>336.5</ele>
        <time>2020-08-06T12:02:59Z</time>
      </trkpt>
      <trkpt lat="41.0778340" lon="0.4749520">
        <ele>336.5</ele>
        <time>2020-08-06T12:03:00Z</time>
      </trkpt>
      <trkpt lat="41.0778460" lon="0.4749540">
        <ele>336.4</ele>
        <time>2020-08-06T12:03:02Z</time>
      </trkpt>
      <trkpt lat="41.0778490" lon="0.4749570">
        <ele>336.4</ele>
        <time>2020-08-06T12:03:03Z</time>
      </trkpt>
      <trkpt lat="41.0778430" lon="0.4749680">
        <ele>336.4</ele>
        <time>2020-08-06T12:03:05Z</time>
      </trkpt>
      <trkpt lat="41.0778410" lon="0.4749980">
        <ele>336.3</ele>
        <time>2020-08-06T12:03:06Z</time>
      </trkpt>
      <trkpt lat="41.0778400" lon="0.4750280">
        <ele>336.2</ele>
        <time>2020-08-06T12:03:08Z</time>
      </trkpt>
      <trkpt lat="41.0778430" lon="0.4750400">
        <ele>336.2</ele>
        <time>2020-08-06T12:03:09Z</time>
      </trkpt>
      <trkpt lat="41.0778480" lon="0.4750520">
        <ele>336.2</ele>
        <time>2020-08-06T12:03:10Z</time>
      </trkpt>
      <trkpt lat="41.0778510" lon="0.4750630">
        <ele>336.1</ele>
        <time>2020-08-06T12:03:11Z</time>
      </trkpt>
      <trkpt lat="41.0778550" lon="0.4750860">
        <ele>336.1</ele>
        <time>2020-08-06T12:03:13Z</time>
      </trkpt>
      <trkpt lat="41.0778610" lon="0.4751040">
        <ele>336.0</ele>
        <time>2020-08-06T12:03:14Z</time>
      </trkpt>
      <trkpt lat="41.0778680" lon="0.4751290">
        <ele>336.0</ele>
        <time>2020-08-06T12:03:15Z</time>
      </trkpt>
      <trkpt lat="41.0778920" lon="0.4751830">
        <ele>335.8</ele>
        <time>2020-08-06T12:03:17Z</time>
      </trkpt>
      <trkpt lat="41.0779020" lon="0.4752010">
        <ele>335.8</ele>
        <time>2020-08-06T12:03:18Z</time>
      </trkpt>
      <trkpt lat="41.0779120" lon="0.4752180">
        <ele>335.7</ele>
        <time>2020-08-06T12:03:19Z</time>
      </trkpt>
      <trkpt lat="41.0779300" lon="0.4752470">
        <ele>335.6</ele>
        <time>2020-08-06T12:03:21Z</time>
      </trkpt>
      <trkpt lat="41.0779480" lon="0.4752840">
        <ele>335.5</ele>
        <time>2020-08-06T12:03:22Z</time>
      </trkpt>
      <trkpt lat="41.0779630" lon="0.4753400">
        <ele>335.4</ele>
        <time>2020-08-06T12:03:24Z</time>
      </trkpt>
      <trkpt lat="41.0779750" lon="0.4753780">
        <ele>335.3</ele>
        <time>2020-08-06T12:03:25Z</time>
      </trkpt>
      <trkpt lat="41.0779930" lon="0.4754340">
        <ele>335.1</ele>
        <time>2020-08-06T12:03:27Z</time>
      </trkpt>
      <trkpt lat="41.0780000" lon="0.4754730">
        <ele>335.0</ele>
        <time>2020-08-06T12:03:28Z</time>
      </trkpt>
      <trkpt lat="41.0780120" lon="0.4755200">
        <ele>334.9</ele>
        <time>2020-08-06T12:03:29Z</time>
      </trkpt>
      <trkpt lat="41.0780310" lon="0.4755850">
        <ele>334.7</ele>
        <time>2020-08-06T12:03:31Z</time>
      </trkpt>
      <trkpt lat="41.0780480" lon="0.4756280">
        <ele>334.7</ele>
        <time>2020-08-06T12:03:32Z</time>
      </trkpt>
      <trkpt lat="41.0780700" lon="0.4756610">
        <ele>334.9</ele>
        <time>2020-08-06T12:03:33Z</time>
      </trkpt>
      <trkpt lat="41.0781020" lon="0.4757110">
        <ele>335.1</ele>
        <time>2020-08-06T12:03:35Z</time>
      </trkpt>
      <trkpt lat="41.0781140" lon="0.4757520">
        <ele>335.2</ele>
        <time>2020-08-06T12:03:36Z</time>
      </trkpt>
      <trkpt lat="41.0781280" lon="0.4757830">
        <ele>335.3</ele>
        <time>2020-08-06T12:03:37Z</time>
      </trkpt>
      <trkpt lat="41.0781410" lon="0.4758080">
        <ele>335.5</ele>
        <time>2020-08-06T12:03:38Z</time>
      </trkpt>
      <trkpt lat="41.0781720" lon="0.4758330">
        <ele>335.6</ele>
        <time>2020-08-06T12:03:40Z</time>
      </trkpt>
      <trkpt lat="41.0781950" lon="0.4758720">
        <ele>335.8</ele>
        <time>2020-08-06T12:03:42Z</time>
      </trkpt>
      <trkpt lat="41.0782190" lon="0.4759080">
        <ele>335.9</ele>
        <time>2020-08-06T12:03:43Z</time>
      </trkpt>
      <trkpt lat="41.0782270" lon="0.4759190">
        <ele>335.9</ele>
        <time>2020-08-06T12:03:44Z</time>
      </trkpt>
      <trkpt lat="41.0782530" lon="0.4759510">
        <ele>336.0</ele>
        <time>2020-08-06T12:03:46Z</time>
      </trkpt>
      <trkpt lat="41.0782770" lon="0.4759840">
        <ele>336.0</ele>
        <time>2020-08-06T12:03:47Z</time>
      </trkpt>
      <trkpt lat="41.0782820" lon="0.4759930">
        <ele>336.0</ele>
        <time>2020-08-06T12:03:48Z</time>
      </trkpt>
      <trkpt lat="41.0782910" lon="0.4760090">
        <ele>336.0</ele>
        <time>2020-08-06T12:03:50Z</time>
      </trkpt>
      <trkpt lat="41.0782980" lon="0.4760290">
        <ele>336.0</ele>
        <time>2020-08-06T12:03:51Z</time>
      </trkpt>
      <trkpt lat="41.0783040" lon="0.4760540">
        <ele>336.0</ele>
        <time>2020-08-06T12:03:52Z</time>
      </trkpt>
      <trkpt lat="41.0783080" lon="0.4760700">
        <ele>336.0</ele>
        <time>2020-08-06T12:03:54Z</time>
      </trkpt>
      <trkpt lat="41.0783030" lon="0.4760600">
        <ele>336.0</ele>
        <time>2020-08-06T12:03:56Z</time>
      </trkpt>
      <trkpt lat="41.0783010" lon="0.4760540">
        <ele>336.0</ele>
        <time>2020-08-06T12:03:58Z</time>
      </trkpt>
      <trkpt lat="41.0783010" lon="0.4760520">
        <ele>336.0</ele>
        <time>2020-08-06T12:03:59Z</time>
      </trkpt>
      <trkpt lat="41.0783020" lon="0.4760480">
        <ele>336.0</ele>
        <time>2020-08-06T12:04:01Z</time>
      </trkpt>
      <trkpt lat="41.0783040" lon="0.4760460">
        <ele>336.0</ele>
        <time>2020-08-06T12:04:03Z</time>
      </trkpt>
      <trkpt lat="41.0783700" lon="0.4761090">
        <ele>336.0</ele>
        <time>2020-08-06T12:06:18Z</time>
      </trkpt>
      <trkpt lat="41.0783750" lon="0.4761170">
        <ele>336.0</ele>
        <time>2020-08-06T12:06:19Z</time>
      </trkpt>
      <trkpt lat="41.0783820" lon="0.4761340">
        <ele>335.9</ele>
        <time>2020-08-06T12:06:21Z</time>
      </trkpt>
      <trkpt lat="41.0783840" lon="0.4761330">
        <ele>335.9</ele>
        <time>2020-08-06T12:06:23Z</time>
      </trkpt>
      <trkpt lat="41.0783910" lon="0.4761270">
        <ele>335.9</ele>
        <time>2020-08-06T12:06:24Z</time>
      </trkpt>
      <trkpt lat="41.0783920" lon="0.4761220">
        <ele>335.9</ele>
        <time>2020-08-06T12:06:25Z</time>
      </trkpt>
      <trkpt lat="41.0783960" lon="0.4761270">
        <ele>335.9</ele>
        <time>2020-08-06T12:06:26Z</time>
      </trkpt>
      <trkpt lat="41.0784040" lon="0.4761190">
        <ele>335.9</ele>
        <time>2020-08-06T12:06:28Z</time>
      </trkpt>
      <trkpt lat="41.0784040" lon="0.4761230">
        <ele>335.9</ele>
        <time>2020-08-06T12:06:29Z</time>
      </trkpt>
      <trkpt lat="41.0784010" lon="0.4761340">
        <ele>335.9</ele>
        <time>2020-08-06T12:06:30Z</time>
      </trkpt>
      <trkpt lat="41.0783990" lon="0.4761490">
        <ele>335.9</ele>
        <time>2020-08-06T12:06:31Z</time>
      </trkpt>
      <trkpt lat="41.0784120" lon="0.4761820">
        <ele>335.9</ele>
        <time>2020-08-06T12:06:33Z</time>
      </trkpt>
      <trkpt lat="41.0784230" lon="0.4761880">
        <ele>335.9</ele>
        <time>2020-08-06T12:06:34Z</time>
      </trkpt>
      <trkpt lat="41.0784260" lon="0.4761960">
        <ele>335.8</ele>
        <time>2020-08-06T12:06:36Z</time>
      </trkpt>
      <trkpt lat="41.0784330" lon="0.4762060">
        <ele>335.8</ele>
        <time>2020-08-06T12:06:37Z</time>
      </trkpt>
      <trkpt lat="41.0784350" lon="0.4762100">
        <ele>335.8</ele>
        <time>2020-08-06T12:06:38Z</time>
      </trkpt>
      <trkpt lat="41.0784330" lon="0.4762120">
        <ele>335.8</ele>
        <time>2020-08-06T12:06:39Z</time>
      </trkpt>
      <trkpt lat="41.0784290" lon="0.4762190">
        <ele>335.8</ele>
        <time>2020-08-06T12:06:41Z</time>
      </trkpt>
      <trkpt lat="41.0784290" lon="0.4762230">
        <ele>335.8</ele>
        <time>2020-08-06T12:06:42Z</time>
      </trkpt>
      <trkpt lat="41.0784290" lon="0.4762280">
        <ele>335.8</ele>
        <time>2020-08-06T12:06:43Z</time>
      </trkpt>
      <trkpt lat="41.0784310" lon="0.4762360">
        <ele>335.8</ele>
        <time>2020-08-06T12:06:45Z</time>
      </trkpt>
      <trkpt lat="41.0784320" lon="0.4762410">
        <ele>335.8</ele>
        <time>2020-08-06T12:06:46Z</time>
      </trkpt>
      <trkpt lat="41.0784330" lon="0.4762450">
        <ele>335.8</ele>
        <time>2020-08-06T12:06:47Z</time>
      </trkpt>
      <trkpt lat="41.0784350" lon="0.4762530">
        <ele>335.8</ele>
        <time>2020-08-06T12:06:49Z</time>
      </trkpt>
      <trkpt lat="41.0784590" lon="0.4762320">
        <ele>335.7</ele>
        <time>2020-08-06T12:07:06Z</time>
      </trkpt>
      <trkpt lat="41.0784520" lon="0.4762260">
        <ele>335.7</ele>
        <time>2020-08-06T12:07:07Z</time>
      </trkpt>
      <trkpt lat="41.0784430" lon="0.4762110">
        <ele>335.7</ele>
        <time>2020-08-06T12:07:09Z</time>
      </trkpt>
      <trkpt lat="41.0784410" lon="0.4761950">
        <ele>335.7</ele>
        <time>2020-08-06T12:07:10Z</time>
      </trkpt>
      <trkpt lat="41.0784270" lon="0.4761620">
        <ele>335.6</ele>
        <time>2020-08-06T12:07:12Z</time>
      </trkpt>
      <trkpt lat="41.0784200" lon="0.4761530">
        <ele>335.6</ele>
        <time>2020-08-06T12:07:13Z</time>
      </trkpt>
      <trkpt lat="41.0784100" lon="0.4761350">
        <ele>335.6</ele>
        <time>2020-08-06T12:07:15Z</time>
      </trkpt>
      <trkpt lat="41.0784030" lon="0.4761140">
        <ele>335.5</ele>
        <time>2020-08-06T12:07:16Z</time>
      </trkpt>
      <trkpt lat="41.0783930" lon="0.4760970">
        <ele>335.5</ele>
        <time>2020-08-06T12:07:17Z</time>
      </trkpt>
      <trkpt lat="41.0783840" lon="0.4760780">
        <ele>335.5</ele>
        <time>2020-08-06T12:07:18Z</time>
      </trkpt>
      <trkpt lat="41.0783580" lon="0.4760360">
        <ele>335.4</ele>
        <time>2020-08-06T12:07:19Z</time>
      </trkpt>
      <trkpt lat="41.0783460" lon="0.4760170">
        <ele>335.4</ele>
        <time>2020-08-06T12:07:20Z</time>
      </trkpt>
      <trkpt lat="41.0783100" lon="0.4759580">
        <ele>335.2</ele>
        <time>2020-08-06T12:07:22Z</time>
      </trkpt>
      <trkpt lat="41.0782800" lon="0.4759280">
        <ele>335.2</ele>
        <time>2020-08-06T12:07:23Z</time>
      </trkpt>
      <trkpt lat="41.0782410" lon="0.4758880">
        <ele>335.1</ele>
        <time>2020-08-06T12:07:25Z</time>
      </trkpt>
      <trkpt lat="41.0782170" lon="0.4758540">
        <ele>335.0</ele>
        <time>2020-08-06T12:07:26Z</time>
      </trkpt>
      <trkpt lat="41.0781850" lon="0.4758090">
        <ele>334.9</ele>
        <time>2020-08-06T12:07:28Z</time>
      </trkpt>
      <trkpt lat="41.0781580" lon="0.4757870">
        <ele>334.9</ele>
        <time>2020-08-06T12:07:29Z</time>
      </trkpt>
      <trkpt lat="41.0781260" lon="0.4757570">
        <ele>334.8</ele>
        <time>2020-08-06T12:07:30Z</time>
      </trkpt>
      <trkpt lat="41.0781150" lon="0.4757490">
        <ele>334.8</ele>
        <time>2020-08-06T12:07:31Z</time>
      </trkpt>
      <trkpt lat="41.0780850" lon="0.4757300">
        <ele>334.8</ele>
        <time>2020-08-06T12:07:32Z</time>
      </trkpt>
      <trkpt lat="41.0780590" lon="0.4757080">
        <ele>334.7</ele>
        <time>2020-08-06T12:07:33Z</time>
      </trkpt>
      <trkpt lat="41.0780280" lon="0.4756880">
        <ele>334.7</ele>
        <time>2020-08-06T12:07:35Z</time>
      </trkpt>
      <trkpt lat="41.0780010" lon="0.4756660">
        <ele>334.7</ele>
        <time>2020-08-06T12:07:36Z</time>
      </trkpt>
      <trkpt lat="41.0779700" lon="0.4756310">
        <ele>334.4</ele>
        <time>2020-08-06T12:07:38Z</time>
      </trkpt>
      <trkpt lat="41.0779400" lon="0.4756000">
        <ele>333.9</ele>
        <time>2020-08-06T12:07:39Z</time>
      </trkpt>
      <trkpt lat="41.0779290" lon="0.4755900">
        <ele>333.7</ele>
        <time>2020-08-06T12:07:40Z</time>
      </trkpt>
      <trkpt lat="41.0779040" lon="0.4755650">
        <ele>333.3</ele>
        <time>2020-08-06T12:07:41Z</time>
      </trkpt>
      <trkpt lat="41.0778820" lon="0.4755460">
        <ele>332.9</ele>
        <time>2020-08-06T12:07:42Z</time>
      </trkpt>
      <trkpt lat="41.0778540" lon="0.4755150">
        <ele>332.3</ele>
        <time>2020-08-06T12:07:44Z</time>
      </trkpt>
      <trkpt lat="41.0778280" lon="0.4754960">
        <ele>331.9</ele>
        <time>2020-08-06T12:07:45Z</time>
      </trkpt>
      <trkpt lat="41.0778020" lon="0.4754770">
        <ele>331.5</ele>
        <time>2020-08-06T12:07:46Z</time>
      </trkpt>
      <trkpt lat="41.0777760" lon="0.4754610">
        <ele>331.0</ele>
        <time>2020-08-06T12:07:47Z</time>
      </trkpt>
      <trkpt lat="41.0777460" lon="0.4754430">
        <ele>330.7</ele>
        <time>2020-08-06T12:07:48Z</time>
      </trkpt>
      <trkpt lat="41.0777180" lon="0.4754210">
        <ele>330.3</ele>
        <time>2020-08-06T12:07:49Z</time>
      </trkpt>
      <trkpt lat="41.0776970" lon="0.4753930">
        <ele>330.0</ele>
        <time>2020-08-06T12:07:50Z</time>
      </trkpt>
      <trkpt lat="41.0776600" lon="0.4753230">
        <ele>329.2</ele>
        <time>2020-08-06T12:07:52Z</time>
      </trkpt>
      <trkpt lat="41.0776430" lon="0.4752830">
        <ele>328.7</ele>
        <time>2020-08-06T12:07:53Z</time>
      </trkpt>
      <trkpt lat="41.0776180" lon="0.4752430">
        <ele>328.1</ele>
        <time>2020-08-06T12:07:54Z</time>
      </trkpt>
      <trkpt lat="41.0775930" lon="0.4752030">
        <ele>327.5</ele>
        <time>2020-08-06T12:07:55Z</time>
      </trkpt>
      <trkpt lat="41.0775540" lon="0.4751340">
        <ele>326.5</ele>
        <time>2020-08-06T12:07:57Z</time>
      </trkpt>
      <trkpt lat="41.0775180" lon="0.4750760">
        <ele>325.7</ele>
        <time>2020-08-06T12:07:58Z</time>
      </trkpt>
      <trkpt lat="41.0774810" lon="0.4750150">
        <ele>324.9</ele>
        <time>2020-08-06T12:07:59Z</time>
      </trkpt>
      <trkpt lat="41.0774540" lon="0.4749700">
        <ele>324.3</ele>
        <time>2020-08-06T12:08:00Z</time>
      </trkpt>
      <trkpt lat="41.0774280" lon="0.4749220">
        <ele>323.8</ele>
        <time>2020-08-06T12:08:01Z</time>
      </trkpt>
      <trkpt lat="41.0773980" lon="0.4748790">
        <ele>323.2</ele>
        <time>2020-08-06T12:08:03Z</time>
      </trkpt>
      <trkpt lat="41.0773660" lon="0.4748290">
        <ele>322.6</ele>
        <time>2020-08-06T12:08:04Z</time>
      </trkpt>
      <trkpt lat="41.0773240" lon="0.4747610">
        <ele>321.7</ele>
        <time>2020-08-06T12:08:06Z</time>
      </trkpt>
      <trkpt lat="41.0773020" lon="0.4747210">
        <ele>321.0</ele>
        <time>2020-08-06T12:08:07Z</time>
      </trkpt>
      <trkpt lat="41.0772780" lon="0.4746710">
        <ele>320.5</ele>
        <time>2020-08-06T12:08:08Z</time>
      </trkpt>
      <trkpt lat="41.0772240" lon="0.4745740">
        <ele>319.6</ele>
        <time>2020-08-06T12:08:10Z</time>
      </trkpt>
      <trkpt lat="41.0772130" lon="0.4745350">
        <ele>319.3</ele>
        <time>2020-08-06T12:08:11Z</time>
      </trkpt>
      <trkpt lat="41.0772420" lon="0.4745010">
        <ele>318.9</ele>
        <time>2020-08-06T12:08:12Z</time>
      </trkpt>
      <trkpt lat="41.0772520" lon="0.4744660">
        <ele>318.7</ele>
        <time>2020-08-06T12:08:14Z</time>
      </trkpt>
      <trkpt lat="41.0772400" lon="0.4744560">
        <ele>318.5</ele>
        <time>2020-08-06T12:08:15Z</time>
      </trkpt>
      <trkpt lat="41.0772190" lon="0.4744600">
        <ele>318.3</ele>
        <time>2020-08-06T12:08:16Z</time>
      </trkpt>
      <trkpt lat="41.0772010" lon="0.4744730">
        <ele>318.1</ele>
        <time>2020-08-06T12:08:17Z</time>
      </trkpt>
      <trkpt lat="41.0771880" lon="0.4744970">
        <ele>317.9</ele>
        <time>2020-08-06T12:08:19Z</time>
      </trkpt>
      <trkpt lat="41.0771880" lon="0.4745120">
        <ele>317.8</ele>
        <time>2020-08-06T12:08:20Z</time>
      </trkpt>
      <trkpt lat="41.0771910" lon="0.4745280">
        <ele>317.7</ele>
        <time>2020-08-06T12:08:21Z</time>
      </trkpt>
      <trkpt lat="41.0771820" lon="0.4745440">
        <ele>317.6</ele>
        <time>2020-08-06T12:08:23Z</time>
      </trkpt>
      <trkpt lat="41.0771750" lon="0.4745610">
        <ele>314.7</ele>
        <time>2020-08-06T12:08:24Z</time>
      </trkpt>
      <trkpt lat="41.0771650" lon="0.4745780">
        <ele>313.3</ele>
        <time>2020-08-06T12:08:25Z</time>
      </trkpt>
      <trkpt lat="41.0771550" lon="0.4745970">
        <ele>312.9</ele>
        <time>2020-08-06T12:08:26Z</time>
      </trkpt>
      <trkpt lat="41.0771500" lon="0.4746230">
        <ele>312.4</ele>
        <time>2020-08-06T12:08:28Z</time>
      </trkpt>
      <trkpt lat="41.0771510" lon="0.4746710">
        <ele>311.5</ele>
        <time>2020-08-06T12:08:29Z</time>
      </trkpt>
      <trkpt lat="41.0771510" lon="0.4746860">
        <ele>311.2</ele>
        <time>2020-08-06T12:08:30Z</time>
      </trkpt>
      <trkpt lat="41.0771520" lon="0.4747270">
        <ele>310.6</ele>
        <time>2020-08-06T12:08:32Z</time>
      </trkpt>
      <trkpt lat="41.0771550" lon="0.4747660">
        <ele>311.1</ele>
        <time>2020-08-06T12:08:33Z</time>
      </trkpt>
      <trkpt lat="41.0771620" lon="0.4748000">
        <ele>311.5</ele>
        <time>2020-08-06T12:08:34Z</time>
      </trkpt>
      <trkpt lat="41.0771960" lon="0.4748980">
        <ele>312.6</ele>
        <time>2020-08-06T12:08:36Z</time>
      </trkpt>
      <trkpt lat="41.0772160" lon="0.4749640">
        <ele>313.3</ele>
        <time>2020-08-06T12:08:37Z</time>
      </trkpt>
      <trkpt lat="41.0772130" lon="0.4749910">
        <ele>313.1</ele>
        <time>2020-08-06T12:08:39Z</time>
      </trkpt>
      <trkpt lat="41.0772110" lon="0.4749750">
        <ele>313.0</ele>
        <time>2020-08-06T12:08:40Z</time>
      </trkpt>
      <trkpt lat="41.0772090" lon="0.4749580">
        <ele>312.9</ele>
        <time>2020-08-06T12:08:41Z</time>
      </trkpt>
      <trkpt lat="41.0772070" lon="0.4749420">
        <ele>312.7</ele>
        <time>2020-08-06T12:08:42Z</time>
      </trkpt>
      <trkpt lat="41.0772030" lon="0.4748910">
        <ele>312.4</ele>
        <time>2020-08-06T12:08:43Z</time>
      </trkpt>
      <trkpt lat="41.0771850" lon="0.4747960">
        <ele>311.4</ele>
        <time>2020-08-06T12:08:45Z</time>
      </trkpt>
      <trkpt lat="41.0771700" lon="0.4747560">
        <ele>311.0</ele>
        <time>2020-08-06T12:08:46Z</time>
      </trkpt>
      <trkpt lat="41.0771480" lon="0.4747240">
        <ele>310.5</ele>
        <time>2020-08-06T12:08:47Z</time>
      </trkpt>
      <trkpt lat="41.0771220" lon="0.4747260">
        <ele>310.1</ele>
        <time>2020-08-06T12:08:48Z</time>
      </trkpt>
      <trkpt lat="41.0770500" lon="0.4747620">
        <ele>309.2</ele>
        <time>2020-08-06T12:08:50Z</time>
      </trkpt>
      <trkpt lat="41.0770160" lon="0.4747900">
        <ele>308.6</ele>
        <time>2020-08-06T12:08:51Z</time>
      </trkpt>
      <trkpt lat="41.0769430" lon="0.4748540">
        <ele>307.5</ele>
        <time>2020-08-06T12:08:53Z</time>
      </trkpt>
      <trkpt lat="41.0768640" lon="0.4749180">
        <ele>305.7</ele>
        <time>2020-08-06T12:08:55Z</time>
      </trkpt>
      <trkpt lat="41.0768260" lon="0.4749440">
        <ele>304.7</ele>
        <time>2020-08-06T12:08:56Z</time>
      </trkpt>
      <trkpt lat="41.0767860" lon="0.4749720">
        <ele>303.5</ele>
        <time>2020-08-06T12:08:57Z</time>
      </trkpt>
      <trkpt lat="41.0767190" lon="0.4750080">
        <ele>302.0</ele>
        <time>2020-08-06T12:08:59Z</time>
      </trkpt>
      <trkpt lat="41.0766880" lon="0.4750220">
        <ele>301.4</ele>
        <time>2020-08-06T12:09:00Z</time>
      </trkpt>
      <trkpt lat="41.0766470" lon="0.4750350">
        <ele>300.6</ele>
        <time>2020-08-06T12:09:02Z</time>
      </trkpt>
      <trkpt lat="41.0766330" lon="0.4750400">
        <ele>300.4</ele>
        <time>2020-08-06T12:09:03Z</time>
      </trkpt>
      <trkpt lat="41.0766200" lon="0.4750460">
        <ele>300.1</ele>
        <time>2020-08-06T12:09:04Z</time>
      </trkpt>
      <trkpt lat="41.0765990" lon="0.4750810">
        <ele>299.5</ele>
        <time>2020-08-06T12:09:06Z</time>
      </trkpt>
      <trkpt lat="41.0765900" lon="0.4751460">
        <ele>299.5</ele>
        <time>2020-08-06T12:09:08Z</time>
      </trkpt>
      <trkpt lat="41.0765950" lon="0.4751900">
        <ele>299.5</ele>
        <time>2020-08-06T12:09:09Z</time>
      </trkpt>
      <trkpt lat="41.0766660" lon="0.4753840">
        <ele>299.6</ele>
        <time>2020-08-06T12:09:17Z</time>
      </trkpt>
      <trkpt lat="41.0767360" lon="0.4755690">
        <ele>299.5</ele>
        <time>2020-08-06T12:09:18Z</time>
      </trkpt>
      <trkpt lat="41.0767580" lon="0.4756320">
        <ele>299.5</ele>
        <time>2020-08-06T12:09:19Z</time>
      </trkpt>
      <trkpt lat="41.0767760" lon="0.4756850">
        <ele>299.5</ele>
        <time>2020-08-06T12:09:20Z</time>
      </trkpt>
      <trkpt lat="41.0767910" lon="0.4757300">
        <ele>299.5</ele>
        <time>2020-08-06T12:09:21Z</time>
      </trkpt>
      <trkpt lat="41.0768030" lon="0.4757700">
        <ele>299.5</ele>
        <time>2020-08-06T12:09:22Z</time>
      </trkpt>
      <trkpt lat="41.0768240" lon="0.4758470">
        <ele>299.4</ele>
        <time>2020-08-06T12:09:24Z</time>
      </trkpt>
      <trkpt lat="41.0768340" lon="0.4758830">
        <ele>299.4</ele>
        <time>2020-08-06T12:09:25Z</time>
      </trkpt>
      <trkpt lat="41.0768580" lon="0.4759710">
        <ele>299.4</ele>
        <time>2020-08-06T12:09:27Z</time>
      </trkpt>
      <trkpt lat="41.0768780" lon="0.4760460">
        <ele>299.3</ele>
        <time>2020-08-06T12:09:29Z</time>
      </trkpt>
      <trkpt lat="41.0768850" lon="0.4760810">
        <ele>299.3</ele>
        <time>2020-08-06T12:09:30Z</time>
      </trkpt>
      <trkpt lat="41.0769020" lon="0.4761780">
        <ele>299.3</ele>
        <time>2020-08-06T12:09:33Z</time>
      </trkpt>
      <trkpt lat="41.0769110" lon="0.4762230">
        <ele>299.3</ele>
        <time>2020-08-06T12:09:34Z</time>
      </trkpt>
      <trkpt lat="41.0769210" lon="0.4762650">
        <ele>299.3</ele>
        <time>2020-08-06T12:09:35Z</time>
      </trkpt>
      <trkpt lat="41.0769450" lon="0.4763550">
        <ele>299.2</ele>
        <time>2020-08-06T12:09:37Z</time>
      </trkpt>
      <trkpt lat="41.0769570" lon="0.4764000">
        <ele>299.2</ele>
        <time>2020-08-06T12:09:38Z</time>
      </trkpt>
      <trkpt lat="41.0769810" lon="0.4764980">
        <ele>299.0</ele>
        <time>2020-08-06T12:09:40Z</time>
      </trkpt>
      <trkpt lat="41.0769930" lon="0.4765480">
        <ele>299.0</ele>
        <time>2020-08-06T12:09:41Z</time>
      </trkpt>
      <trkpt lat="41.0770050" lon="0.4765980">
        <ele>298.9</ele>
        <time>2020-08-06T12:09:42Z</time>
      </trkpt>
      <trkpt lat="41.0770190" lon="0.4766500">
        <ele>298.8</ele>
        <time>2020-08-06T12:09:43Z</time>
      </trkpt>
      <trkpt lat="41.0770520" lon="0.4767570">
        <ele>298.8</ele>
        <time>2020-08-06T12:09:45Z</time>
      </trkpt>
      <trkpt lat="41.0770930" lon="0.4768700">
        <ele>298.6</ele>
        <time>2020-08-06T12:09:47Z</time>
      </trkpt>
      <trkpt lat="41.0771080" lon="0.4769150">
        <ele>298.5</ele>
        <time>2020-08-06T12:09:48Z</time>
      </trkpt>
      <trkpt lat="41.0771230" lon="0.4769700">
        <ele>298.5</ele>
        <time>2020-08-06T12:09:49Z</time>
      </trkpt>
      <trkpt lat="41.0771370" lon="0.4770160">
        <ele>298.4</ele>
        <time>2020-08-06T12:09:50Z</time>
      </trkpt>
      <trkpt lat="41.0771790" lon="0.4771210">
        <ele>298.1</ele>
        <time>2020-08-06T12:09:52Z</time>
      </trkpt>
      <trkpt lat="41.0772260" lon="0.4772460">
        <ele>297.8</ele>
        <time>2020-08-06T12:09:54Z</time>
      </trkpt>
      <trkpt lat="41.0772550" lon="0.4773160">
        <ele>297.6</ele>
        <time>2020-08-06T12:09:55Z</time>
      </trkpt>
      <trkpt lat="41.0772850" lon="0.4773860">
        <ele>297.4</ele>
        <time>2020-08-06T12:09:56Z</time>
      </trkpt>
      <trkpt lat="41.0773380" lon="0.4775290">
        <ele>297.2</ele>
        <time>2020-08-06T12:09:58Z</time>
      </trkpt>
      <trkpt lat="41.0773670" lon="0.4776040">
        <ele>297.1</ele>
        <time>2020-08-06T12:09:59Z</time>
      </trkpt>
      <trkpt lat="41.0773970" lon="0.4776750">
        <ele>297.0</ele>
        <time>2020-08-06T12:10:00Z</time>
      </trkpt>
      <trkpt lat="41.0774390" lon="0.4778090">
        <ele>296.7</ele>
        <time>2020-08-06T12:10:02Z</time>
      </trkpt>
      <trkpt lat="41.0774590" lon="0.4778670">
        <ele>296.5</ele>
        <time>2020-08-06T12:10:03Z</time>
      </trkpt>
      <trkpt lat="41.0774730" lon="0.4779050">
        <ele>296.5</ele>
        <time>2020-08-06T12:10:04Z</time>
      </trkpt>
      <trkpt lat="41.0775040" lon="0.4779810">
        <ele>296.1</ele>
        <time>2020-08-06T12:10:06Z</time>
      </trkpt>
      <trkpt lat="41.0775460" lon="0.4780170">
        <ele>295.7</ele>
        <time>2020-08-06T12:10:08Z</time>
      </trkpt>
      <trkpt lat="41.0775710" lon="0.4780190">
        <ele>295.5</ele>
        <time>2020-08-06T12:10:09Z</time>
      </trkpt>
      <trkpt lat="41.0776110" lon="0.4780770">
        <ele>295.0</ele>
        <time>2020-08-06T12:10:11Z</time>
      </trkpt>
      <trkpt lat="41.0776260" lon="0.4781180">
        <ele>294.9</ele>
        <time>2020-08-06T12:10:12Z</time>
      </trkpt>
      <trkpt lat="41.0776370" lon="0.4781590">
        <ele>294.8</ele>
        <time>2020-08-06T12:10:13Z</time>
      </trkpt>
      <trkpt lat="41.0776460" lon="0.4781930">
        <ele>294.6</ele>
        <time>2020-08-06T12:10:14Z</time>
      </trkpt>
      <trkpt lat="41.0776680" lon="0.4782570">
        <ele>294.4</ele>
        <time>2020-08-06T12:10:16Z</time>
      </trkpt>
      <trkpt lat="41.0776810" lon="0.4782850">
        <ele>294.3</ele>
        <time>2020-08-06T12:10:17Z</time>
      </trkpt>
      <trkpt lat="41.0777230" lon="0.4783320">
        <ele>294.0</ele>
        <time>2020-08-06T12:10:19Z</time>
      </trkpt>
      <trkpt lat="41.0777510" lon="0.4783430">
        <ele>293.9</ele>
        <time>2020-08-06T12:10:20Z</time>
      </trkpt>
      <trkpt lat="41.0777970" lon="0.4783660">
        <ele>293.6</ele>
        <time>2020-08-06T12:10:22Z</time>
      </trkpt>
      <trkpt lat="41.0778200" lon="0.4783930">
        <ele>293.4</ele>
        <time>2020-08-06T12:10:23Z</time>
      </trkpt>
      <trkpt lat="41.0778250" lon="0.4784010">
        <ele>293.3</ele>
        <time>2020-08-06T12:10:24Z</time>
      </trkpt>
      <trkpt lat="41.0778360" lon="0.4784400">
        <ele>293.5</ele>
        <time>2020-08-06T12:10:26Z</time>
      </trkpt>
      <trkpt lat="41.0778360" lon="0.4784420">
        <ele>293.5</ele>
        <time>2020-08-06T12:10:27Z</time>
      </trkpt>
      <trkpt lat="41.0778330" lon="0.4784430">
        <ele>293.5</ele>
        <time>2020-08-06T12:10:29Z</time>
      </trkpt>
      <trkpt lat="41.0778330" lon="0.4784460">
        <ele>293.5</ele>
        <time>2020-08-06T12:10:31Z</time>
      </trkpt>
      <trkpt lat="41.0778320" lon="0.4784490">
        <ele>293.5</ele>
        <time>2020-08-06T12:10:32Z</time>
      </trkpt>
      <trkpt lat="41.0778310" lon="0.4784520">
        <ele>293.5</ele>
        <time>2020-08-06T12:10:33Z</time>
      </trkpt>
      <trkpt lat="41.0778280" lon="0.4784550">
        <ele>293.6</ele>
        <time>2020-08-06T12:10:35Z</time>
      </trkpt>
      <trkpt lat="41.0778280" lon="0.4784570">
        <ele>293.6</ele>
        <time>2020-08-06T12:10:36Z</time>
      </trkpt>
      <trkpt lat="41.0778290" lon="0.4784590">
        <ele>293.6</ele>
        <time>2020-08-06T12:10:37Z</time>
      </trkpt>
      <trkpt lat="41.0778220" lon="0.4784730">
        <ele>293.6</ele>
        <time>2020-08-06T12:15:37Z</time>
      </trkpt>
      <trkpt lat="41.0777990" lon="0.4784540">
        <ele>293.8</ele>
        <time>2020-08-06T12:15:39Z</time>
      </trkpt>
      <trkpt lat="41.0777830" lon="0.4784350">
        <ele>293.9</ele>
        <time>2020-08-06T12:15:40Z</time>
      </trkpt>
      <trkpt lat="41.0777610" lon="0.4783950">
        <ele>294.0</ele>
        <time>2020-08-06T12:15:42Z</time>
      </trkpt>
      <trkpt lat="41.0777440" lon="0.4783620">
        <ele>294.1</ele>
        <time>2020-08-06T12:15:43Z</time>
      </trkpt>
      <trkpt lat="41.0777380" lon="0.4783500">
        <ele>294.2</ele>
        <time>2020-08-06T12:15:44Z</time>
      </trkpt>
      <trkpt lat="41.0777290" lon="0.4783230">
        <ele>294.3</ele>
        <time>2020-08-06T12:15:45Z</time>
      </trkpt>
      <trkpt lat="41.0777110" lon="0.4782660">
        <ele>294.4</ele>
        <time>2020-08-06T12:15:47Z</time>
      </trkpt>
      <trkpt lat="41.0776990" lon="0.4782210">
        <ele>294.6</ele>
        <time>2020-08-06T12:15:49Z</time>
      </trkpt>
      <trkpt lat="41.0776940" lon="0.4781990">
        <ele>294.6</ele>
        <time>2020-08-06T12:15:50Z</time>
      </trkpt>
      <trkpt lat="41.0776910" lon="0.4781800">
        <ele>294.7</ele>
        <time>2020-08-06T12:15:51Z</time>
      </trkpt>
      <trkpt lat="41.0776780" lon="0.4781440">
        <ele>294.8</ele>
        <time>2020-08-06T12:15:53Z</time>
      </trkpt>
      <trkpt lat="41.0776660" lon="0.4781260">
        <ele>294.8</ele>
        <time>2020-08-06T12:15:54Z</time>
      </trkpt>
      <trkpt lat="41.0776360" lon="0.4780720">
        <ele>295.0</ele>
        <time>2020-08-06T12:15:56Z</time>
      </trkpt>
      <trkpt lat="41.0776190" lon="0.4780250">
        <ele>295.2</ele>
        <time>2020-08-06T12:15:58Z</time>
      </trkpt>
      <trkpt lat="41.0775960" lon="0.4779720">
        <ele>295.7</ele>
        <time>2020-08-06T12:16:00Z</time>
      </trkpt>
      <trkpt lat="41.0775860" lon="0.4779470">
        <ele>295.9</ele>
        <time>2020-08-06T12:16:01Z</time>
      </trkpt>
      <trkpt lat="41.0775690" lon="0.4779000">
        <ele>296.3</ele>
        <time>2020-08-06T12:16:03Z</time>
      </trkpt>
      <trkpt lat="41.0775490" lon="0.4778560">
        <ele>296.5</ele>
        <time>2020-08-06T12:16:05Z</time>
      </trkpt>
      <trkpt lat="41.0775290" lon="0.4778100">
        <ele>296.6</ele>
        <time>2020-08-06T12:16:07Z</time>
      </trkpt>
      <trkpt lat="41.0775210" lon="0.4777910">
        <ele>296.6</ele>
        <time>2020-08-06T12:16:08Z</time>
      </trkpt>
      <trkpt lat="41.0775070" lon="0.4777580">
        <ele>296.7</ele>
        <time>2020-08-06T12:16:10Z</time>
      </trkpt>
      <trkpt lat="41.0774880" lon="0.4777280">
        <ele>296.8</ele>
        <time>2020-08-06T12:16:12Z</time>
      </trkpt>
      <trkpt lat="41.0774710" lon="0.4776990">
        <ele>296.8</ele>
        <time>2020-08-06T12:16:14Z</time>
      </trkpt>
      <trkpt lat="41.0774630" lon="0.4776790">
        <ele>296.9</ele>
        <time>2020-08-06T12:16:15Z</time>
      </trkpt>
      <trkpt lat="41.0774560" lon="0.4776570">
        <ele>296.9</ele>
        <time>2020-08-06T12:16:16Z</time>
      </trkpt>
      <trkpt lat="41.0774430" lon="0.4776100">
        <ele>297.0</ele>
        <time>2020-08-06T12:16:18Z</time>
      </trkpt>
      <trkpt lat="41.0774290" lon="0.4775610">
        <ele>297.1</ele>
        <time>2020-08-06T12:16:20Z</time>
      </trkpt>
      <trkpt lat="41.0774190" lon="0.4775270">
        <ele>297.2</ele>
        <time>2020-08-06T12:16:21Z</time>
      </trkpt>
      <trkpt lat="41.0774150" lon="0.4775140">
        <ele>297.2</ele>
        <time>2020-08-06T12:16:22Z</time>
      </trkpt>
      <trkpt lat="41.0774070" lon="0.4774900">
        <ele>297.2</ele>
        <time>2020-08-06T12:16:23Z</time>
      </trkpt>
      <trkpt lat="41.0773920" lon="0.4774410">
        <ele>297.3</ele>
        <time>2020-08-06T12:16:25Z</time>
      </trkpt>
      <trkpt lat="41.0773820" lon="0.4774010">
        <ele>297.4</ele>
        <time>2020-08-06T12:16:26Z</time>
      </trkpt>
      <trkpt lat="41.0773780" lon="0.4773880">
        <ele>297.4</ele>
        <time>2020-08-06T12:16:27Z</time>
      </trkpt>
      <trkpt lat="41.0773610" lon="0.4773400">
        <ele>297.4</ele>
        <time>2020-08-06T12:16:29Z</time>
      </trkpt>
      <trkpt lat="41.0773540" lon="0.4773240">
        <ele>297.5</ele>
        <time>2020-08-06T12:16:30Z</time>
      </trkpt>
      <trkpt lat="41.0773360" lon="0.4772900">
        <ele>297.6</ele>
        <time>2020-08-06T12:16:32Z</time>
      </trkpt>
      <trkpt lat="41.0773320" lon="0.4772770">
        <ele>297.6</ele>
        <time>2020-08-06T12:16:33Z</time>
      </trkpt>
      <trkpt lat="41.0773250" lon="0.4772530">
        <ele>297.7</ele>
        <time>2020-08-06T12:16:34Z</time>
      </trkpt>
      <trkpt lat="41.0773180" lon="0.4772150">
        <ele>297.8</ele>
        <time>2020-08-06T12:16:36Z</time>
      </trkpt>
      <trkpt lat="41.0773050" lon="0.4771670">
        <ele>297.9</ele>
        <time>2020-08-06T12:16:38Z</time>
      </trkpt>
      <trkpt lat="41.0772940" lon="0.4771310">
        <ele>298.0</ele>
        <time>2020-08-06T12:16:39Z</time>
      </trkpt>
      <trkpt lat="41.0772910" lon="0.4771210">
        <ele>298.0</ele>
        <time>2020-08-06T12:16:40Z</time>
      </trkpt>
      <trkpt lat="41.0772770" lon="0.4770740">
        <ele>298.1</ele>
        <time>2020-08-06T12:16:42Z</time>
      </trkpt>
      <trkpt lat="41.0772660" lon="0.4770330">
        <ele>298.2</ele>
        <time>2020-08-06T12:16:43Z</time>
      </trkpt>
      <trkpt lat="41.0772630" lon="0.4770210">
        <ele>298.2</ele>
        <time>2020-08-06T12:16:44Z</time>
      </trkpt>
      <trkpt lat="41.0772510" lon="0.4769730">
        <ele>298.3</ele>
        <time>2020-08-06T12:16:46Z</time>
      </trkpt>
      <trkpt lat="41.0772390" lon="0.4769390">
        <ele>298.4</ele>
        <time>2020-08-06T12:16:47Z</time>
      </trkpt>
      <trkpt lat="41.0772340" lon="0.4769280">
        <ele>298.4</ele>
        <time>2020-08-06T12:16:48Z</time>
      </trkpt>
      <trkpt lat="41.0772110" lon="0.4768790">
        <ele>298.5</ele>
        <time>2020-08-06T12:16:50Z</time>
      </trkpt>
      <trkpt lat="41.0771940" lon="0.4768460">
        <ele>298.6</ele>
        <time>2020-08-06T12:16:51Z</time>
      </trkpt>
      <trkpt lat="41.0771870" lon="0.4768340">
        <ele>298.6</ele>
        <time>2020-08-06T12:16:52Z</time>
      </trkpt>
      <trkpt lat="41.0771590" lon="0.4767810">
        <ele>298.7</ele>
        <time>2020-08-06T12:16:54Z</time>
      </trkpt>
      <trkpt lat="41.0771470" lon="0.4767540">
        <ele>298.7</ele>
        <time>2020-08-06T12:16:55Z</time>
      </trkpt>
      <trkpt lat="41.0771330" lon="0.4767110">
        <ele>298.8</ele>
        <time>2020-08-06T12:16:57Z</time>
      </trkpt>
      <trkpt lat="41.0771290" lon="0.4766960">
        <ele>298.8</ele>
        <time>2020-08-06T12:16:58Z</time>
      </trkpt>
      <trkpt lat="41.0771240" lon="0.4766740">
        <ele>298.8</ele>
        <time>2020-08-06T12:17:00Z</time>
      </trkpt>
      <trkpt lat="41.0771130" lon="0.4766390">
        <ele>298.8</ele>
        <time>2020-08-06T12:17:02Z</time>
      </trkpt>
      <trkpt lat="41.0771050" lon="0.4766160">
        <ele>298.8</ele>
        <time>2020-08-06T12:17:03Z</time>
      </trkpt>
      <trkpt lat="41.0770960" lon="0.4765810">
        <ele>298.9</ele>
        <time>2020-08-06T12:17:05Z</time>
      </trkpt>
      <trkpt lat="41.0770920" lon="0.4765630">
        <ele>298.9</ele>
        <time>2020-08-06T12:17:06Z</time>
      </trkpt>
      <trkpt lat="41.0770860" lon="0.4765380">
        <ele>298.9</ele>
        <time>2020-08-06T12:17:07Z</time>
      </trkpt>
      <trkpt lat="41.0770730" lon="0.4764880">
        <ele>299.0</ele>
        <time>2020-08-06T12:17:09Z</time>
      </trkpt>
      <trkpt lat="41.0770680" lon="0.4764660">
        <ele>299.0</ele>
        <time>2020-08-06T12:17:10Z</time>
      </trkpt>
      <trkpt lat="41.0770550" lon="0.4764200">
        <ele>299.1</ele>
        <time>2020-08-06T12:17:12Z</time>
      </trkpt>
      <trkpt lat="41.0770470" lon="0.4763960">
        <ele>299.1</ele>
        <time>2020-08-06T12:17:13Z</time>
      </trkpt>
      <trkpt lat="41.0770360" lon="0.4763570">
        <ele>299.2</ele>
        <time>2020-08-06T12:17:15Z</time>
      </trkpt>
      <trkpt lat="41.0770240" lon="0.4763110">
        <ele>299.2</ele>
        <time>2020-08-06T12:17:17Z</time>
      </trkpt>
      <trkpt lat="41.0770160" lon="0.4762830">
        <ele>299.2</ele>
        <time>2020-08-06T12:17:18Z</time>
      </trkpt>
      <trkpt lat="41.0769970" lon="0.4762270">
        <ele>299.3</ele>
        <time>2020-08-06T12:17:20Z</time>
      </trkpt>
      <trkpt lat="41.0769830" lon="0.4761920">
        <ele>299.3</ele>
        <time>2020-08-06T12:17:22Z</time>
      </trkpt>
      <trkpt lat="41.0769810" lon="0.4761830">
        <ele>299.3</ele>
        <time>2020-08-06T12:17:23Z</time>
      </trkpt>
      <trkpt lat="41.0769770" lon="0.4761760">
        <ele>299.3</ele>
        <time>2020-08-06T12:17:25Z</time>
      </trkpt>
      <trkpt lat="41.0769750" lon="0.4761740">
        <ele>299.3</ele>
        <time>2020-08-06T12:17:27Z</time>
      </trkpt>
      <trkpt lat="41.0769770" lon="0.4761730">
        <ele>299.3</ele>
        <time>2020-08-06T12:17:28Z</time>
      </trkpt>
      <trkpt lat="41.0769770" lon="0.4761720">
        <ele>299.3</ele>
        <time>2020-08-06T12:17:29Z</time>
      </trkpt>
      <trkpt lat="41.0769750" lon="0.4761710">
        <ele>299.3</ele>
        <time>2020-08-06T12:17:31Z</time>
      </trkpt>
      <trkpt lat="41.0769740" lon="0.4761700">
        <ele>299.3</ele>
        <time>2020-08-06T12:17:32Z</time>
      </trkpt>
      <trkpt lat="41.0769720" lon="0.4761700">
        <ele>299.3</ele>
        <time>2020-08-06T12:17:34Z</time>
      </trkpt>
      <trkpt lat="41.0769720" lon="0.4761700">
        <ele>299.3</ele>
        <time>2020-08-06T12:17:35Z</time>
      </trkpt>
      <trkpt lat="41.0769660" lon="0.4761620">
        <ele>299.3</ele>
        <time>2020-08-06T12:17:44Z</time>
      </trkpt>
      <trkpt lat="41.0769640" lon="0.4761500">
        <ele>299.3</ele>
        <time>2020-08-06T12:17:46Z</time>
      </trkpt>
      <trkpt lat="41.0769630" lon="0.4761400">
        <ele>299.3</ele>
        <time>2020-08-06T12:17:47Z</time>
      </trkpt>
      <trkpt lat="41.0769650" lon="0.4761310">
        <ele>299.3</ele>
        <time>2020-08-06T12:17:48Z</time>
      </trkpt>
      <trkpt lat="41.0769650" lon="0.4761260">
        <ele>299.3</ele>
        <time>2020-08-06T12:17:49Z</time>
      </trkpt>
      <trkpt lat="41.0769630" lon="0.4761200">
        <ele>299.3</ele>
        <time>2020-08-06T12:17:50Z</time>
      </trkpt>
      <trkpt lat="41.0769580" lon="0.4761170">
        <ele>299.3</ele>
        <time>2020-08-06T12:17:52Z</time>
      </trkpt>
      <trkpt lat="41.0769550" lon="0.4761160">
        <ele>299.3</ele>
        <time>2020-08-06T12:17:53Z</time>
      </trkpt>
      <trkpt lat="41.0769540" lon="0.4761140">
        <ele>299.3</ele>
        <time>2020-08-06T12:17:54Z</time>
      </trkpt>
      <trkpt lat="41.0769530" lon="0.4761080">
        <ele>299.3</ele>
        <time>2020-08-06T12:17:56Z</time>
      </trkpt>
      <trkpt lat="41.0769530" lon="0.4761040">
        <ele>299.3</ele>
        <time>2020-08-06T12:17:57Z</time>
      </trkpt>
      <trkpt lat="41.0769530" lon="0.4761000">
        <ele>299.3</ele>
        <time>2020-08-06T12:17:58Z</time>
      </trkpt>
      <trkpt lat="41.0769520" lon="0.4760950">
        <ele>299.3</ele>
        <time>2020-08-06T12:18:00Z</time>
      </trkpt>
      <trkpt lat="41.0769210" lon="0.4760540">
        <ele>299.3</ele>
        <time>2020-08-06T12:23:27Z</time>
      </trkpt>
      <trkpt lat="41.0769030" lon="0.4760390">
        <ele>299.3</ele>
        <time>2020-08-06T12:23:28Z</time>
      </trkpt>
      <trkpt lat="41.0768940" lon="0.4760270">
        <ele>299.4</ele>
        <time>2020-08-06T12:23:29Z</time>
      </trkpt>
      <trkpt lat="41.0768850" lon="0.4760010">
        <ele>299.4</ele>
        <time>2020-08-06T12:23:31Z</time>
      </trkpt>
      <trkpt lat="41.0768830" lon="0.4759740">
        <ele>299.4</ele>
        <time>2020-08-06T12:23:33Z</time>
      </trkpt>
      <trkpt lat="41.0768800" lon="0.4759370">
        <ele>299.4</ele>
        <time>2020-08-06T12:23:35Z</time>
      </trkpt>
      <trkpt lat="41.0768780" lon="0.4759180">
        <ele>299.4</ele>
        <time>2020-08-06T12:23:36Z</time>
      </trkpt>
      <trkpt lat="41.0768690" lon="0.4758780">
        <ele>299.4</ele>
        <time>2020-08-06T12:23:38Z</time>
      </trkpt>
      <trkpt lat="41.0768620" lon="0.4758550">
        <ele>299.4</ele>
        <time>2020-08-06T12:23:39Z</time>
      </trkpt>
      <trkpt lat="41.0768560" lon="0.4758340">
        <ele>299.4</ele>
        <time>2020-08-06T12:23:40Z</time>
      </trkpt>
      <trkpt lat="41.0768420" lon="0.4757930">
        <ele>299.4</ele>
        <time>2020-08-06T12:23:42Z</time>
      </trkpt>
      <trkpt lat="41.0768350" lon="0.4757420">
        <ele>299.5</ele>
        <time>2020-08-06T12:23:44Z</time>
      </trkpt>
      <trkpt lat="41.0768320" lon="0.4757160">
        <ele>299.5</ele>
        <time>2020-08-06T12:23:45Z</time>
      </trkpt>
      <trkpt lat="41.0768300" lon="0.4756790">
        <ele>299.5</ele>
        <time>2020-08-06T12:23:47Z</time>
      </trkpt>
      <trkpt lat="41.0768270" lon="0.4756590">
        <ele>299.5</ele>
        <time>2020-08-06T12:23:49Z</time>
      </trkpt>
      <trkpt lat="41.0768230" lon="0.4756440">
        <ele>299.5</ele>
        <time>2020-08-06T12:23:51Z</time>
      </trkpt>
      <trkpt lat="41.0768190" lon="0.4756300">
        <ele>299.5</ele>
        <time>2020-08-06T12:23:52Z</time>
      </trkpt>
      <trkpt lat="41.0767920" lon="0.4755720">
        <ele>299.5</ele>
        <time>2020-08-06T12:23:54Z</time>
      </trkpt>
      <trkpt lat="41.0767770" lon="0.4755370">
        <ele>299.6</ele>
        <time>2020-08-06T12:23:55Z</time>
      </trkpt>
      <trkpt lat="41.0767680" lon="0.4755060">
        <ele>299.6</ele>
        <time>2020-08-06T12:23:56Z</time>
      </trkpt>
      <trkpt lat="41.0767530" lon="0.4754400">
        <ele>299.6</ele>
        <time>2020-08-06T12:23:58Z</time>
      </trkpt>
      <trkpt lat="41.0767440" lon="0.4754020">
        <ele>299.6</ele>
        <time>2020-08-06T12:23:59Z</time>
      </trkpt>
      <trkpt lat="41.0767410" lon="0.4753890">
        <ele>299.6</ele>
        <time>2020-08-06T12:24:00Z</time>
      </trkpt>
      <trkpt lat="41.0767340" lon="0.4753650">
        <ele>299.6</ele>
        <time>2020-08-06T12:24:01Z</time>
      </trkpt>
      <trkpt lat="41.0767160" lon="0.4753080">
        <ele>299.6</ele>
        <time>2020-08-06T12:24:03Z</time>
      </trkpt>
      <trkpt lat="41.0767050" lon="0.4752750">
        <ele>299.6</ele>
        <time>2020-08-06T12:24:04Z</time>
      </trkpt>
      <trkpt lat="41.0767010" lon="0.4752630">
        <ele>299.6</ele>
        <time>2020-08-06T12:24:05Z</time>
      </trkpt>
      <trkpt lat="41.0766890" lon="0.4752170">
        <ele>299.6</ele>
        <time>2020-08-06T12:24:07Z</time>
      </trkpt>
      <trkpt lat="41.0766810" lon="0.4751950">
        <ele>299.6</ele>
        <time>2020-08-06T12:24:08Z</time>
      </trkpt>
      <trkpt lat="41.0766680" lon="0.4751530">
        <ele>299.5</ele>
        <time>2020-08-06T12:24:10Z</time>
      </trkpt>
      <trkpt lat="41.0766620" lon="0.4751270">
        <ele>299.5</ele>
        <time>2020-08-06T12:24:11Z</time>
      </trkpt>
      <trkpt lat="41.0766450" lon="0.4750770">
        <ele>299.5</ele>
        <time>2020-08-06T12:24:13Z</time>
      </trkpt>
      <trkpt lat="41.0766330" lon="0.4750310">
        <ele>299.5</ele>
        <time>2020-08-06T12:24:15Z</time>
      </trkpt>
      <trkpt lat="41.0766230" lon="0.4749920">
        <ele>299.5</ele>
        <time>2020-08-06T12:24:16Z</time>
      </trkpt>
      <trkpt lat="41.0766190" lon="0.4749810">
        <ele>299.5</ele>
        <time>2020-08-06T12:24:17Z</time>
      </trkpt>
      <trkpt lat="41.0766130" lon="0.4749550">
        <ele>299.5</ele>
        <time>2020-08-06T12:24:18Z</time>
      </trkpt>
      <trkpt lat="41.0766000" lon="0.4748970">
        <ele>299.5</ele>
        <time>2020-08-06T12:24:20Z</time>
      </trkpt>
      <trkpt lat="41.0765960" lon="0.4748680">
        <ele>299.5</ele>
        <time>2020-08-06T12:24:21Z</time>
      </trkpt>
      <trkpt lat="41.0765890" lon="0.4748120">
        <ele>299.5</ele>
        <time>2020-08-06T12:24:23Z</time>
      </trkpt>
      <trkpt lat="41.0765840" lon="0.4747880">
        <ele>299.5</ele>
        <time>2020-08-06T12:24:24Z</time>
      </trkpt>
      <trkpt lat="41.0765750" lon="0.4747380">
        <ele>299.5</ele>
        <time>2020-08-06T12:24:26Z</time>
      </trkpt>
      <trkpt lat="41.0765700" lon="0.4747130">
        <ele>299.5</ele>
        <time>2020-08-06T12:24:27Z</time>
      </trkpt>
      <trkpt lat="41.0765560" lon="0.4746580">
        <ele>299.4</ele>
        <time>2020-08-06T12:24:29Z</time>
      </trkpt>
      <trkpt lat="41.0765430" lon="0.4746090">
        <ele>299.4</ele>
        <time>2020-08-06T12:24:31Z</time>
      </trkpt>
      <trkpt lat="41.0765360" lon="0.4745810">
        <ele>299.4</ele>
        <time>2020-08-06T12:24:32Z</time>
      </trkpt>
      <trkpt lat="41.0765200" lon="0.4745230">
        <ele>299.4</ele>
        <time>2020-08-06T12:24:34Z</time>
      </trkpt>
      <trkpt lat="41.0765020" lon="0.4744610">
        <ele>299.4</ele>
        <time>2020-08-06T12:24:36Z</time>
      </trkpt>
      <trkpt lat="41.0764790" lon="0.4743980">
        <ele>299.3</ele>
        <time>2020-08-06T12:24:38Z</time>
      </trkpt>
      <trkpt lat="41.0764680" lon="0.4743690">
        <ele>299.3</ele>
        <time>2020-08-06T12:24:39Z</time>
      </trkpt>
      <trkpt lat="41.0764410" lon="0.4743030">
        <ele>299.3</ele>
        <time>2020-08-06T12:24:41Z</time>
      </trkpt>
      <trkpt lat="41.0764290" lon="0.4742720">
        <ele>299.3</ele>
        <time>2020-08-06T12:24:42Z</time>
      </trkpt>
      <trkpt lat="41.0764090" lon="0.4742060">
        <ele>299.3</ele>
        <time>2020-08-06T12:24:44Z</time>
      </trkpt>
      <trkpt lat="41.0764000" lon="0.4741720">
        <ele>299.3</ele>
        <time>2020-08-06T12:24:45Z</time>
      </trkpt>
      <trkpt lat="41.0763830" lon="0.4741150">
        <ele>299.3</ele>
        <time>2020-08-06T12:24:47Z</time>
      </trkpt>
      <trkpt lat="41.0763680" lon="0.4740650">
        <ele>299.2</ele>
        <time>2020-08-06T12:24:48Z</time>
      </trkpt>
      <trkpt lat="41.0763620" lon="0.4740480">
        <ele>299.2</ele>
        <time>2020-08-06T12:24:49Z</time>
      </trkpt>
      <trkpt lat="41.0763380" lon="0.4739730">
        <ele>299.2</ele>
        <time>2020-08-06T12:24:51Z</time>
      </trkpt>
      <trkpt lat="41.0763180" lon="0.4739140">
        <ele>299.2</ele>
        <time>2020-08-06T12:24:53Z</time>
      </trkpt>
      <trkpt lat="41.0763080" lon="0.4738870">
        <ele>299.2</ele>
        <time>2020-08-06T12:24:54Z</time>
      </trkpt>
      <trkpt lat="41.0763170" lon="0.4739600">
        <ele>299.1</ele>
        <time>2020-08-06T12:24:56Z</time>
      </trkpt>
      <trkpt lat="41.0763220" lon="0.4739960">
        <ele>299.1</ele>
        <time>2020-08-06T12:24:57Z</time>
      </trkpt>
      <trkpt lat="41.0763270" lon="0.4740160">
        <ele>299.1</ele>
        <time>2020-08-06T12:24:58Z</time>
      </trkpt>
      <trkpt lat="41.0763270" lon="0.4740210">
        <ele>299.1</ele>
        <time>2020-08-06T12:25:00Z</time>
      </trkpt>
      <trkpt lat="41.0763250" lon="0.4740130">
        <ele>299.1</ele>
        <time>2020-08-06T12:25:01Z</time>
      </trkpt>
      <trkpt lat="41.0763200" lon="0.4740000">
        <ele>299.1</ele>
        <time>2020-08-06T12:25:02Z</time>
      </trkpt>
      <trkpt lat="41.0763100" lon="0.4739710">
        <ele>299.1</ele>
        <time>2020-08-06T12:25:04Z</time>
      </trkpt>
      <trkpt lat="41.0763050" lon="0.4739260">
        <ele>299.1</ele>
        <time>2020-08-06T12:25:06Z</time>
      </trkpt>
      <trkpt lat="41.0762980" lon="0.4738930">
        <ele>299.1</ele>
        <time>2020-08-06T12:25:07Z</time>
      </trkpt>
      <trkpt lat="41.0762880" lon="0.4738490">
        <ele>299.0</ele>
        <time>2020-08-06T12:25:09Z</time>
      </trkpt>
      <trkpt lat="41.0762780" lon="0.4738070">
        <ele>299.0</ele>
        <time>2020-08-06T12:25:10Z</time>
      </trkpt>
      <trkpt lat="41.0762730" lon="0.4737770">
        <ele>298.9</ele>
        <time>2020-08-06T12:25:11Z</time>
      </trkpt>
      <trkpt lat="41.0762600" lon="0.4737140">
        <ele>298.8</ele>
        <time>2020-08-06T12:25:13Z</time>
      </trkpt>
      <trkpt lat="41.0762490" lon="0.4736700">
        <ele>298.8</ele>
        <time>2020-08-06T12:25:14Z</time>
      </trkpt>
      <trkpt lat="41.0762410" lon="0.4736400">
        <ele>298.7</ele>
        <time>2020-08-06T12:25:15Z</time>
      </trkpt>
      <trkpt lat="41.0762240" lon="0.4735880">
        <ele>298.7</ele>
        <time>2020-08-06T12:25:17Z</time>
      </trkpt>
      <trkpt lat="41.0762130" lon="0.4735450">
        <ele>298.7</ele>
        <time>2020-08-06T12:25:18Z</time>
      </trkpt>
      <trkpt lat="41.0762050" lon="0.4735140">
        <ele>298.6</ele>
        <time>2020-08-06T12:25:19Z</time>
      </trkpt>
      <trkpt lat="41.0761900" lon="0.4734650">
        <ele>298.6</ele>
        <time>2020-08-06T12:25:21Z</time>
      </trkpt>
      <trkpt lat="41.0761730" lon="0.4734110">
        <ele>298.5</ele>
        <time>2020-08-06T12:25:22Z</time>
      </trkpt>
      <trkpt lat="41.0761450" lon="0.4733410">
        <ele>298.3</ele>
        <time>2020-08-06T12:25:23Z</time>
      </trkpt>
      <trkpt lat="41.0760700" lon="0.4731740">
        <ele>297.6</ele>
        <time>2020-08-06T12:25:24Z</time>
      </trkpt>
      <trkpt lat="41.0759640" lon="0.4728580">
        <ele>296.2</ele>
        <time>2020-08-06T12:25:26Z</time>
      </trkpt>
      <trkpt lat="41.0759240" lon="0.4727190">
        <ele>295.6</ele>
        <time>2020-08-06T12:25:27Z</time>
      </trkpt>
      <trkpt lat="41.0758630" lon="0.4725020">
        <ele>294.8</ele>
        <time>2020-08-06T12:25:29Z</time>
      </trkpt>
      <trkpt lat="41.0758340" lon="0.4724050">
        <ele>294.4</ele>
        <time>2020-08-06T12:25:30Z</time>
      </trkpt>
      <trkpt lat="41.0757910" lon="0.4722250">
        <ele>293.8</ele>
        <time>2020-08-06T12:25:32Z</time>
      </trkpt>
      <trkpt lat="41.0757470" lon="0.4720520">
        <ele>293.3</ele>
        <time>2020-08-06T12:25:34Z</time>
      </trkpt>
      <trkpt lat="41.0757110" lon="0.4718860">
        <ele>292.9</ele>
        <time>2020-08-06T12:25:36Z</time>
      </trkpt>
      <trkpt lat="41.0756910" lon="0.4718020">
        <ele>292.7</ele>
        <time>2020-08-06T12:25:37Z</time>
      </trkpt>
      <trkpt lat="41.0756410" lon="0.4716380">
        <ele>292.3</ele>
        <time>2020-08-06T12:25:39Z</time>
      </trkpt>
      <trkpt lat="41.0756140" lon="0.4715570">
        <ele>292.2</ele>
        <time>2020-08-06T12:25:40Z</time>
      </trkpt>
      <trkpt lat="41.0755840" lon="0.4714860">
        <ele>292.1</ele>
        <time>2020-08-06T12:25:41Z</time>
      </trkpt>
      <trkpt lat="41.0755220" lon="0.4713540">
        <ele>291.8</ele>
        <time>2020-08-06T12:25:43Z</time>
      </trkpt>
      <trkpt lat="41.0754560" lon="0.4712320">
        <ele>291.6</ele>
        <time>2020-08-06T12:25:45Z</time>
      </trkpt>
      <trkpt lat="41.0754230" lon="0.4711820">
        <ele>291.6</ele>
        <time>2020-08-06T12:25:46Z</time>
      </trkpt>
      <trkpt lat="41.0753540" lon="0.4710780">
        <ele>291.5</ele>
        <time>2020-08-06T12:25:48Z</time>
      </trkpt>
      <trkpt lat="41.0753310" lon="0.4710240">
        <ele>291.5</ele>
        <time>2020-08-06T12:25:49Z</time>
      </trkpt>
      <trkpt lat="41.0752820" lon="0.4709120">
        <ele>291.5</ele>
        <time>2020-08-06T12:25:51Z</time>
      </trkpt>
      <trkpt lat="41.0752570" lon="0.4708580">
        <ele>291.5</ele>
        <time>2020-08-06T12:25:52Z</time>
      </trkpt>
      <trkpt lat="41.0752060" lon="0.4707440">
        <ele>291.5</ele>
        <time>2020-08-06T12:25:54Z</time>
      </trkpt>
      <trkpt lat="41.0751570" lon="0.4706500">
        <ele>291.5</ele>
        <time>2020-08-06T12:25:56Z</time>
      </trkpt>
      <trkpt lat="41.0751360" lon="0.4706090">
        <ele>291.5</ele>
        <time>2020-08-06T12:25:57Z</time>
      </trkpt>
      <trkpt lat="41.0751090" lon="0.4705580">
        <ele>291.6</ele>
        <time>2020-08-06T12:25:58Z</time>
      </trkpt>
      <trkpt lat="41.0750830" lon="0.4705170">
        <ele>291.6</ele>
        <time>2020-08-06T12:25:59Z</time>
      </trkpt>
      <trkpt lat="41.0750260" lon="0.4704310">
        <ele>291.7</ele>
        <time>2020-08-06T12:26:01Z</time>
      </trkpt>
      <trkpt lat="41.0750150" lon="0.4704050">
        <ele>291.7</ele>
        <time>2020-08-06T12:26:02Z</time>
      </trkpt>
      <trkpt lat="41.0750290" lon="0.4703950">
        <ele>291.7</ele>
        <time>2020-08-06T12:26:04Z</time>
      </trkpt>
      <trkpt lat="41.0750490" lon="0.4704050">
        <ele>291.7</ele>
        <time>2020-08-06T12:26:05Z</time>
      </trkpt>
      <trkpt lat="41.0750340" lon="0.4703510">
        <ele>291.8</ele>
        <time>2020-08-06T12:26:07Z</time>
      </trkpt>
      <trkpt lat="41.0749940" lon="0.4703150">
        <ele>291.8</ele>
        <time>2020-08-06T12:26:08Z</time>
      </trkpt>
      <trkpt lat="41.0749630" lon="0.4702910">
        <ele>291.9</ele>
        <time>2020-08-06T12:26:09Z</time>
      </trkpt>
      <trkpt lat="41.0749370" lon="0.4702700">
        <ele>291.9</ele>
        <time>2020-08-06T12:26:10Z</time>
      </trkpt>
      <trkpt lat="41.0749140" lon="0.4702450">
        <ele>292.0</ele>
        <time>2020-08-06T12:26:11Z</time>
      </trkpt>
      <trkpt lat="41.0748920" lon="0.4702040">
        <ele>292.0</ele>
        <time>2020-08-06T12:26:13Z</time>
      </trkpt>
      <trkpt lat="41.0748740" lon="0.4701640">
        <ele>292.1</ele>
        <time>2020-08-06T12:26:14Z</time>
      </trkpt>
      <trkpt lat="41.0748610" lon="0.4701360">
        <ele>292.1</ele>
        <time>2020-08-06T12:26:15Z</time>
      </trkpt>
      <trkpt lat="41.0748410" lon="0.4700970">
        <ele>292.2</ele>
        <time>2020-08-06T12:26:17Z</time>
      </trkpt>
      <trkpt lat="41.0748240" lon="0.4700640">
        <ele>292.2</ele>
        <time>2020-08-06T12:26:18Z</time>
      </trkpt>
      <trkpt lat="41.0748040" lon="0.4700230">
        <ele>292.3</ele>
        <time>2020-08-06T12:26:19Z</time>
      </trkpt>
      <trkpt lat="41.0747830" lon="0.4699750">
        <ele>292.4</ele>
        <time>2020-08-06T12:26:21Z</time>
      </trkpt>
      <trkpt lat="41.0747670" lon="0.4699400">
        <ele>292.4</ele>
        <time>2020-08-06T12:26:22Z</time>
      </trkpt>
      <trkpt lat="41.0747450" lon="0.4698950">
        <ele>292.4</ele>
        <time>2020-08-06T12:26:23Z</time>
      </trkpt>
      <trkpt lat="41.0747210" lon="0.4698520">
        <ele>292.4</ele>
        <time>2020-08-06T12:26:24Z</time>
      </trkpt>
      <trkpt lat="41.0747120" lon="0.4698370">
        <ele>292.4</ele>
        <time>2020-08-06T12:26:25Z</time>
      </trkpt>
      <trkpt lat="41.0745440" lon="0.4696140">
        <ele>292.3</ele>
        <time>2020-08-06T12:26:27Z</time>
      </trkpt>
      <trkpt lat="41.0744700" lon="0.4695150">
        <ele>292.3</ele>
        <time>2020-08-06T12:26:29Z</time>
      </trkpt>
      <trkpt lat="41.0744430" lon="0.4694780">
        <ele>292.2</ele>
        <time>2020-08-06T12:26:30Z</time>
      </trkpt>
      <trkpt lat="41.0743890" lon="0.4694020">
        <ele>292.1</ele>
        <time>2020-08-06T12:26:32Z</time>
      </trkpt>
      <trkpt lat="41.0743630" lon="0.4693630">
        <ele>292.1</ele>
        <time>2020-08-06T12:26:33Z</time>
      </trkpt>
      <trkpt lat="41.0743210" lon="0.4692880">
        <ele>292.0</ele>
        <time>2020-08-06T12:26:35Z</time>
      </trkpt>
      <trkpt lat="41.0742860" lon="0.4692160">
        <ele>291.9</ele>
        <time>2020-08-06T12:26:37Z</time>
      </trkpt>
      <trkpt lat="41.0742670" lon="0.4691720">
        <ele>291.9</ele>
        <time>2020-08-06T12:26:38Z</time>
      </trkpt>
      <trkpt lat="41.0742530" lon="0.4691380">
        <ele>291.8</ele>
        <time>2020-08-06T12:26:39Z</time>
      </trkpt>
      <trkpt lat="41.0742170" lon="0.4690630">
        <ele>291.7</ele>
        <time>2020-08-06T12:26:41Z</time>
      </trkpt>
      <trkpt lat="41.0741930" lon="0.4690170">
        <ele>291.7</ele>
        <time>2020-08-06T12:26:42Z</time>
      </trkpt>
      <trkpt lat="41.0741690" lon="0.4689690">
        <ele>291.6</ele>
        <time>2020-08-06T12:26:43Z</time>
      </trkpt>
      <trkpt lat="41.0741490" lon="0.4689280">
        <ele>291.6</ele>
        <time>2020-08-06T12:26:44Z</time>
      </trkpt>
      <trkpt lat="41.0741020" lon="0.4688410">
        <ele>291.5</ele>
        <time>2020-08-06T12:26:46Z</time>
      </trkpt>
      <trkpt lat="41.0740530" lon="0.4687650">
        <ele>291.4</ele>
        <time>2020-08-06T12:26:48Z</time>
      </trkpt>
      <trkpt lat="41.0740320" lon="0.4687300">
        <ele>291.4</ele>
        <time>2020-08-06T12:26:49Z</time>
      </trkpt>
      <trkpt lat="41.0740100" lon="0.4686900">
        <ele>291.3</ele>
        <time>2020-08-06T12:26:50Z</time>
      </trkpt>
      <trkpt lat="41.0739650" lon="0.4686090">
        <ele>291.3</ele>
        <time>2020-08-06T12:26:52Z</time>
      </trkpt>
      <trkpt lat="41.0739420" lon="0.4685670">
        <ele>291.2</ele>
        <time>2020-08-06T12:26:53Z</time>
      </trkpt>
      <trkpt lat="41.0739190" lon="0.4685250">
        <ele>291.2</ele>
        <time>2020-08-06T12:26:54Z</time>
      </trkpt>
      <trkpt lat="41.0739000" lon="0.4684910">
        <ele>291.2</ele>
        <time>2020-08-06T12:26:55Z</time>
      </trkpt>
      <trkpt lat="41.0738780" lon="0.4684530">
        <ele>291.2</ele>
        <time>2020-08-06T12:26:56Z</time>
      </trkpt>
      <trkpt lat="41.0738540" lon="0.4684130">
        <ele>291.2</ele>
        <time>2020-08-06T12:26:57Z</time>
      </trkpt>
      <trkpt lat="41.0738070" lon="0.4683340">
        <ele>291.2</ele>
        <time>2020-08-06T12:26:59Z</time>
      </trkpt>
      <trkpt lat="41.0737640" lon="0.4682610">
        <ele>291.2</ele>
        <time>2020-08-06T12:27:01Z</time>
      </trkpt>
      <trkpt lat="41.0737390" lon="0.4682190">
        <ele>291.2</ele>
        <time>2020-08-06T12:27:02Z</time>
      </trkpt>
      <trkpt lat="41.0737170" lon="0.4681810">
        <ele>291.3</ele>
        <time>2020-08-06T12:27:03Z</time>
      </trkpt>
      <trkpt lat="41.0736670" lon="0.4681000">
        <ele>291.3</ele>
        <time>2020-08-06T12:27:05Z</time>
      </trkpt>
      <trkpt lat="41.0736390" lon="0.4680540">
        <ele>291.2</ele>
        <time>2020-08-06T12:27:06Z</time>
      </trkpt>
      <trkpt lat="41.0736110" lon="0.4680110">
        <ele>291.2</ele>
        <time>2020-08-06T12:27:07Z</time>
      </trkpt>
      <trkpt lat="41.0735610" lon="0.4679290">
        <ele>291.2</ele>
        <time>2020-08-06T12:27:09Z</time>
      </trkpt>
      <trkpt lat="41.0735380" lon="0.4678890">
        <ele>291.2</ele>
        <time>2020-08-06T12:27:10Z</time>
      </trkpt>
      <trkpt lat="41.0734950" lon="0.4678120">
        <ele>291.2</ele>
        <time>2020-08-06T12:27:12Z</time>
      </trkpt>
      <trkpt lat="41.0734560" lon="0.4677380">
        <ele>291.2</ele>
        <time>2020-08-06T12:27:14Z</time>
      </trkpt>
      <trkpt lat="41.0734180" lon="0.4676730">
        <ele>291.3</ele>
        <time>2020-08-06T12:27:16Z</time>
      </trkpt>
      <trkpt lat="41.0733950" lon="0.4676350">
        <ele>291.3</ele>
        <time>2020-08-06T12:27:17Z</time>
      </trkpt>
      <trkpt lat="41.0733740" lon="0.4676030">
        <ele>291.3</ele>
        <time>2020-08-06T12:27:18Z</time>
      </trkpt>
      <trkpt lat="41.0733300" lon="0.4675310">
        <ele>291.3</ele>
        <time>2020-08-06T12:27:20Z</time>
      </trkpt>
      <trkpt lat="41.0733100" lon="0.4674960">
        <ele>291.4</ele>
        <time>2020-08-06T12:27:21Z</time>
      </trkpt>
      <trkpt lat="41.0732900" lon="0.4674630">
        <ele>291.4</ele>
        <time>2020-08-06T12:27:22Z</time>
      </trkpt>
      <trkpt lat="41.0732530" lon="0.4673980">
        <ele>291.4</ele>
        <time>2020-08-06T12:27:24Z</time>
      </trkpt>
      <trkpt lat="41.0732350" lon="0.4673670">
        <ele>291.5</ele>
        <time>2020-08-06T12:27:25Z</time>
      </trkpt>
      <trkpt lat="41.0731970" lon="0.4673080">
        <ele>291.5</ele>
        <time>2020-08-06T12:27:27Z</time>
      </trkpt>
      <trkpt lat="41.0731780" lon="0.4672780">
        <ele>291.6</ele>
        <time>2020-08-06T12:27:28Z</time>
      </trkpt>
      <trkpt lat="41.0731440" lon="0.4672180">
        <ele>291.7</ele>
        <time>2020-08-06T12:27:30Z</time>
      </trkpt>
      <trkpt lat="41.0731270" lon="0.4671860">
        <ele>291.7</ele>
        <time>2020-08-06T12:27:31Z</time>
      </trkpt>
      <trkpt lat="41.0730940" lon="0.4671210">
        <ele>291.8</ele>
        <time>2020-08-06T12:27:33Z</time>
      </trkpt>
      <trkpt lat="41.0730600" lon="0.4670600">
        <ele>291.9</ele>
        <time>2020-08-06T12:27:35Z</time>
      </trkpt>
      <trkpt lat="41.0730410" lon="0.4670290">
        <ele>291.9</ele>
        <time>2020-08-06T12:27:36Z</time>
      </trkpt>
      <trkpt lat="41.0730230" lon="0.4669970">
        <ele>292.0</ele>
        <time>2020-08-06T12:27:37Z</time>
      </trkpt>
      <trkpt lat="41.0730040" lon="0.4669660">
        <ele>292.0</ele>
        <time>2020-08-06T12:27:38Z</time>
      </trkpt>
      <trkpt lat="41.0729860" lon="0.4669370">
        <ele>292.1</ele>
        <time>2020-08-06T12:27:39Z</time>
      </trkpt>
      <trkpt lat="41.0729650" lon="0.4669050">
        <ele>292.1</ele>
        <time>2020-08-06T12:27:40Z</time>
      </trkpt>
      <trkpt lat="41.0729260" lon="0.4668390">
        <ele>292.2</ele>
        <time>2020-08-06T12:27:42Z</time>
      </trkpt>
      <trkpt lat="41.0728880" lon="0.4667750">
        <ele>292.3</ele>
        <time>2020-08-06T12:27:44Z</time>
      </trkpt>
      <trkpt lat="41.0728690" lon="0.4667460">
        <ele>292.3</ele>
        <time>2020-08-06T12:27:45Z</time>
      </trkpt>
      <trkpt lat="41.0728360" lon="0.4666890">
        <ele>292.4</ele>
        <time>2020-08-06T12:27:47Z</time>
      </trkpt>
      <trkpt lat="41.0728190" lon="0.4666540">
        <ele>292.4</ele>
        <time>2020-08-06T12:27:48Z</time>
      </trkpt>
      <trkpt lat="41.0728050" lon="0.4666220">
        <ele>292.5</ele>
        <time>2020-08-06T12:27:49Z</time>
      </trkpt>
      <trkpt lat="41.0727680" lon="0.4665550">
        <ele>292.6</ele>
        <time>2020-08-06T12:27:51Z</time>
      </trkpt>
      <trkpt lat="41.0727470" lon="0.4665220">
        <ele>292.7</ele>
        <time>2020-08-06T12:27:52Z</time>
      </trkpt>
      <trkpt lat="41.0727270" lon="0.4664880">
        <ele>292.7</ele>
        <time>2020-08-06T12:27:53Z</time>
      </trkpt>
      <trkpt lat="41.0727090" lon="0.4664530">
        <ele>292.8</ele>
        <time>2020-08-06T12:27:54Z</time>
      </trkpt>
      <trkpt lat="41.0726940" lon="0.4664190">
        <ele>292.8</ele>
        <time>2020-08-06T12:27:55Z</time>
      </trkpt>
      <trkpt lat="41.0726630" lon="0.4663580">
        <ele>292.9</ele>
        <time>2020-08-06T12:27:57Z</time>
      </trkpt>
      <trkpt lat="41.0726500" lon="0.4663330">
        <ele>293.0</ele>
        <time>2020-08-06T12:27:58Z</time>
      </trkpt>
      <trkpt lat="41.0726210" lon="0.4662690">
        <ele>293.1</ele>
        <time>2020-08-06T12:28:00Z</time>
      </trkpt>
      <trkpt lat="41.0726030" lon="0.4662380">
        <ele>293.2</ele>
        <time>2020-08-06T12:28:01Z</time>
      </trkpt>
      <trkpt lat="41.0725630" lon="0.4661800">
        <ele>293.3</ele>
        <time>2020-08-06T12:28:03Z</time>
      </trkpt>
      <trkpt lat="41.0725250" lon="0.4661200">
        <ele>293.4</ele>
        <time>2020-08-06T12:28:05Z</time>
      </trkpt>
      <trkpt lat="41.0725070" lon="0.4660870">
        <ele>293.4</ele>
        <time>2020-08-06T12:28:06Z</time>
      </trkpt>
      <trkpt lat="41.0724760" lon="0.4660250">
        <ele>293.5</ele>
        <time>2020-08-06T12:28:08Z</time>
      </trkpt>
      <trkpt lat="41.0724590" lon="0.4659930">
        <ele>293.5</ele>
        <time>2020-08-06T12:28:09Z</time>
      </trkpt>
      <trkpt lat="41.0724440" lon="0.4659660">
        <ele>293.6</ele>
        <time>2020-08-06T12:28:10Z</time>
      </trkpt>
      <trkpt lat="41.0724050" lon="0.4659020">
        <ele>293.6</ele>
        <time>2020-08-06T12:28:12Z</time>
      </trkpt>
      <trkpt lat="41.0723880" lon="0.4658720">
        <ele>293.7</ele>
        <time>2020-08-06T12:28:13Z</time>
      </trkpt>
      <trkpt lat="41.0723650" lon="0.4658300">
        <ele>293.7</ele>
        <time>2020-08-06T12:28:14Z</time>
      </trkpt>
      <trkpt lat="41.0723550" lon="0.4658130">
        <ele>293.7</ele>
        <time>2020-08-06T12:28:15Z</time>
      </trkpt>
      <trkpt lat="41.0723360" lon="0.4657800">
        <ele>293.7</ele>
        <time>2020-08-06T12:28:16Z</time>
      </trkpt>
      <trkpt lat="41.0723190" lon="0.4657490">
        <ele>293.8</ele>
        <time>2020-08-06T12:28:17Z</time>
      </trkpt>
      <trkpt lat="41.0723000" lon="0.4657140">
        <ele>293.8</ele>
        <time>2020-08-06T12:28:18Z</time>
      </trkpt>
      <trkpt lat="41.0722620" lon="0.4656460">
        <ele>293.8</ele>
        <time>2020-08-06T12:28:20Z</time>
      </trkpt>
      <trkpt lat="41.0722440" lon="0.4656110">
        <ele>293.9</ele>
        <time>2020-08-06T12:28:21Z</time>
      </trkpt>
      <trkpt lat="41.0722270" lon="0.4655760">
        <ele>293.9</ele>
        <time>2020-08-06T12:28:22Z</time>
      </trkpt>
      <trkpt lat="41.0722090" lon="0.4655390">
        <ele>293.9</ele>
        <time>2020-08-06T12:28:23Z</time>
      </trkpt>
      <trkpt lat="41.0721760" lon="0.4654740">
        <ele>294.0</ele>
        <time>2020-08-06T12:28:25Z</time>
      </trkpt>
      <trkpt lat="41.0721580" lon="0.4654410">
        <ele>294.0</ele>
        <time>2020-08-06T12:28:26Z</time>
      </trkpt>
      <trkpt lat="41.0721340" lon="0.4654000">
        <ele>294.1</ele>
        <time>2020-08-06T12:28:27Z</time>
      </trkpt>
      <trkpt lat="41.0720900" lon="0.4653240">
        <ele>294.2</ele>
        <time>2020-08-06T12:28:29Z</time>
      </trkpt>
      <trkpt lat="41.0720710" lon="0.4652870">
        <ele>294.2</ele>
        <time>2020-08-06T12:28:30Z</time>
      </trkpt>
      <trkpt lat="41.0720510" lon="0.4652500">
        <ele>294.3</ele>
        <time>2020-08-06T12:28:31Z</time>
      </trkpt>
      <trkpt lat="41.0720310" lon="0.4652140">
        <ele>294.3</ele>
        <time>2020-08-06T12:28:32Z</time>
      </trkpt>
      <trkpt lat="41.0720120" lon="0.4651800">
        <ele>294.3</ele>
        <time>2020-08-06T12:28:33Z</time>
      </trkpt>
      <trkpt lat="41.0719750" lon="0.4651090">
        <ele>294.4</ele>
        <time>2020-08-06T12:28:35Z</time>
      </trkpt>
      <trkpt lat="41.0719590" lon="0.4650800">
        <ele>294.4</ele>
        <time>2020-08-06T12:28:36Z</time>
      </trkpt>
      <trkpt lat="41.0719190" lon="0.4650130">
        <ele>294.5</ele>
        <time>2020-08-06T12:28:38Z</time>
      </trkpt>
      <trkpt lat="41.0718940" lon="0.4649730">
        <ele>294.5</ele>
        <time>2020-08-06T12:28:39Z</time>
      </trkpt>
      <trkpt lat="41.0718490" lon="0.4649010">
        <ele>294.6</ele>
        <time>2020-08-06T12:28:41Z</time>
      </trkpt>
      <trkpt lat="41.0718280" lon="0.4648670">
        <ele>294.6</ele>
        <time>2020-08-06T12:28:42Z</time>
      </trkpt>
      <trkpt lat="41.0718070" lon="0.4648330">
        <ele>294.7</ele>
        <time>2020-08-06T12:28:43Z</time>
      </trkpt>
      <trkpt lat="41.0717860" lon="0.4647980">
        <ele>294.7</ele>
        <time>2020-08-06T12:28:44Z</time>
      </trkpt>
      <trkpt lat="41.0717650" lon="0.4647630">
        <ele>294.8</ele>
        <time>2020-08-06T12:28:45Z</time>
      </trkpt>
      <trkpt lat="41.0717250" lon="0.4646950">
        <ele>294.9</ele>
        <time>2020-08-06T12:28:47Z</time>
      </trkpt>
      <trkpt lat="41.0717060" lon="0.4646600">
        <ele>294.9</ele>
        <time>2020-08-06T12:28:48Z</time>
      </trkpt>
      <trkpt lat="41.0716690" lon="0.4645930">
        <ele>295.1</ele>
        <time>2020-08-06T12:28:50Z</time>
      </trkpt>
      <trkpt lat="41.0716290" lon="0.4645240">
        <ele>295.2</ele>
        <time>2020-08-06T12:28:52Z</time>
      </trkpt>
      <trkpt lat="41.0715920" lon="0.4644560">
        <ele>295.3</ele>
        <time>2020-08-06T12:28:54Z</time>
      </trkpt>
      <trkpt lat="41.0715750" lon="0.4644220">
        <ele>295.4</ele>
        <time>2020-08-06T12:28:55Z</time>
      </trkpt>
      <trkpt lat="41.0715450" lon="0.4643600">
        <ele>295.5</ele>
        <time>2020-08-06T12:28:57Z</time>
      </trkpt>
      <trkpt lat="41.0715270" lon="0.4643240">
        <ele>295.6</ele>
        <time>2020-08-06T12:28:58Z</time>
      </trkpt>
      <trkpt lat="41.0715100" lon="0.4642910">
        <ele>295.7</ele>
        <time>2020-08-06T12:28:59Z</time>
      </trkpt>
      <trkpt lat="41.0714770" lon="0.4642280">
        <ele>295.9</ele>
        <time>2020-08-06T12:29:01Z</time>
      </trkpt>
      <trkpt lat="41.0714510" lon="0.4641830">
        <ele>296.0</ele>
        <time>2020-08-06T12:29:03Z</time>
      </trkpt>
      <trkpt lat="41.0714300" lon="0.4641490">
        <ele>296.1</ele>
        <time>2020-08-06T12:29:04Z</time>
      </trkpt>
      <trkpt lat="41.0714030" lon="0.4640980">
        <ele>296.2</ele>
        <time>2020-08-06T12:29:06Z</time>
      </trkpt>
      <trkpt lat="41.0713810" lon="0.4640600">
        <ele>296.3</ele>
        <time>2020-08-06T12:29:07Z</time>
      </trkpt>
      <trkpt lat="41.0713740" lon="0.4640480">
        <ele>296.4</ele>
        <time>2020-08-06T12:29:08Z</time>
      </trkpt>
      <trkpt lat="41.0713540" lon="0.4640190">
        <ele>296.5</ele>
        <time>2020-08-06T12:29:09Z</time>
      </trkpt>
      <trkpt lat="41.0713210" lon="0.4639640">
        <ele>296.6</ele>
        <time>2020-08-06T12:29:11Z</time>
      </trkpt>
      <trkpt lat="41.0712870" lon="0.4639180">
        <ele>296.7</ele>
        <time>2020-08-06T12:29:13Z</time>
      </trkpt>
      <trkpt lat="41.0712540" lon="0.4638670">
        <ele>296.8</ele>
        <time>2020-08-06T12:29:15Z</time>
      </trkpt>
      <trkpt lat="41.0712270" lon="0.4638310">
        <ele>296.9</ele>
        <time>2020-08-06T12:29:17Z</time>
      </trkpt>
      <trkpt lat="41.0712110" lon="0.4638060">
        <ele>296.9</ele>
        <time>2020-08-06T12:29:19Z</time>
      </trkpt>
      <trkpt lat="41.0712050" lon="0.4637960">
        <ele>297.0</ele>
        <time>2020-08-06T12:29:20Z</time>
      </trkpt>
      <trkpt lat="41.0711960" lon="0.4637820">
        <ele>297.0</ele>
        <time>2020-08-06T12:29:21Z</time>
      </trkpt>
      <trkpt lat="41.0711880" lon="0.4637690">
        <ele>297.0</ele>
        <time>2020-08-06T12:29:22Z</time>
      </trkpt>
      <trkpt lat="41.0711830" lon="0.4637560">
        <ele>297.1</ele>
        <time>2020-08-06T12:29:24Z</time>
      </trkpt>
      <trkpt lat="41.0711670" lon="0.4637240">
        <ele>297.1</ele>
        <time>2020-08-06T12:29:25Z</time>
      </trkpt>
      <trkpt lat="41.0711600" lon="0.4637100">
        <ele>297.2</ele>
        <time>2020-08-06T12:29:26Z</time>
      </trkpt>
      <trkpt lat="41.0711390" lon="0.4636700">
        <ele>297.3</ele>
        <time>2020-08-06T12:29:28Z</time>
      </trkpt>
      <trkpt lat="41.0711280" lon="0.4636490">
        <ele>297.3</ele>
        <time>2020-08-06T12:29:29Z</time>
      </trkpt>
      <trkpt lat="41.0711030" lon="0.4636070">
        <ele>297.5</ele>
        <time>2020-08-06T12:29:31Z</time>
      </trkpt>
      <trkpt lat="41.0710870" lon="0.4635790">
        <ele>297.5</ele>
        <time>2020-08-06T12:29:32Z</time>
      </trkpt>
      <trkpt lat="41.0710800" lon="0.4635680">
        <ele>297.6</ele>
        <time>2020-08-06T12:29:33Z</time>
      </trkpt>
      <trkpt lat="41.0710610" lon="0.4635350">
        <ele>297.7</ele>
        <time>2020-08-06T12:29:35Z</time>
      </trkpt>
      <trkpt lat="41.0710430" lon="0.4635030">
        <ele>297.8</ele>
        <time>2020-08-06T12:29:36Z</time>
      </trkpt>
      <trkpt lat="41.0710260" lon="0.4634720">
        <ele>297.9</ele>
        <time>2020-08-06T12:29:38Z</time>
      </trkpt>
      <trkpt lat="41.0710090" lon="0.4634420">
        <ele>298.0</ele>
        <time>2020-08-06T12:29:39Z</time>
      </trkpt>
      <trkpt lat="41.0709910" lon="0.4634130">
        <ele>298.1</ele>
        <time>2020-08-06T12:29:40Z</time>
      </trkpt>
      <trkpt lat="41.0709700" lon="0.4633750">
        <ele>298.2</ele>
        <time>2020-08-06T12:29:42Z</time>
      </trkpt>
      <trkpt lat="41.0709530" lon="0.4633410">
        <ele>298.3</ele>
        <time>2020-08-06T12:29:44Z</time>
      </trkpt>
      <trkpt lat="41.0709430" lon="0.4633210">
        <ele>298.4</ele>
        <time>2020-08-06T12:29:45Z</time>
      </trkpt>
      <trkpt lat="41.0709280" lon="0.4632840">
        <ele>298.5</ele>
        <time>2020-08-06T12:29:47Z</time>
      </trkpt>
      <trkpt lat="41.0709130" lon="0.4632480">
        <ele>298.6</ele>
        <time>2020-08-06T12:29:49Z</time>
      </trkpt>
      <trkpt lat="41.0708990" lon="0.4632170">
        <ele>298.6</ele>
        <time>2020-08-06T12:29:50Z</time>
      </trkpt>
      <trkpt lat="41.0708740" lon="0.4631700">
        <ele>298.8</ele>
        <time>2020-08-06T12:29:52Z</time>
      </trkpt>
      <trkpt lat="41.0708020" lon="0.4630300">
        <ele>299.1</ele>
        <time>2020-08-06T12:29:54Z</time>
      </trkpt>
      <trkpt lat="41.0707630" lon="0.4629680">
        <ele>299.3</ele>
        <time>2020-08-06T12:29:55Z</time>
      </trkpt>
      <trkpt lat="41.0707050" lon="0.4628950">
        <ele>299.6</ele>
        <time>2020-08-06T12:29:57Z</time>
      </trkpt>
      <trkpt lat="41.0706850" lon="0.4628700">
        <ele>299.7</ele>
        <time>2020-08-06T12:29:58Z</time>
      </trkpt>
      <trkpt lat="41.0706580" lon="0.4628360">
        <ele>299.8</ele>
        <time>2020-08-06T12:30:00Z</time>
      </trkpt>
      <trkpt lat="41.0706490" lon="0.4628210">
        <ele>299.8</ele>
        <time>2020-08-06T12:30:01Z</time>
      </trkpt>
      <trkpt lat="41.0706450" lon="0.4627880">
        <ele>299.9</ele>
        <time>2020-08-06T12:30:03Z</time>
      </trkpt>
      <trkpt lat="41.0706420" lon="0.4627970">
        <ele>299.9</ele>
        <time>2020-08-06T12:30:04Z</time>
      </trkpt>
      <trkpt lat="41.0706310" lon="0.4628090">
        <ele>300.0</ele>
        <time>2020-08-06T12:30:05Z</time>
      </trkpt>
      <trkpt lat="41.0706300" lon="0.4628090">
        <ele>300.0</ele>
        <time>2020-08-06T12:30:06Z</time>
      </trkpt>
      <trkpt lat="41.0706030" lon="0.4627050">
        <ele>300.2</ele>
        <time>2020-08-06T12:30:08Z</time>
      </trkpt>
      <trkpt lat="41.0705840" lon="0.4625900">
        <ele>300.5</ele>
        <time>2020-08-06T12:30:09Z</time>
      </trkpt>
      <trkpt lat="41.0705620" lon="0.4624640">
        <ele>300.7</ele>
        <time>2020-08-06T12:30:10Z</time>
      </trkpt>
      <trkpt lat="41.0705340" lon="0.4623170">
        <ele>301.1</ele>
        <time>2020-08-06T12:30:12Z</time>
      </trkpt>
      <trkpt lat="41.0705090" lon="0.4622010">
        <ele>301.3</ele>
        <time>2020-08-06T12:30:14Z</time>
      </trkpt>
      <trkpt lat="41.0704840" lon="0.4620990">
        <ele>301.5</ele>
        <time>2020-08-06T12:30:16Z</time>
      </trkpt>
      <trkpt lat="41.0704600" lon="0.4620160">
        <ele>301.7</ele>
        <time>2020-08-06T12:30:18Z</time>
      </trkpt>
      <trkpt lat="41.0704510" lon="0.4619790">
        <ele>301.8</ele>
        <time>2020-08-06T12:30:19Z</time>
      </trkpt>
      <trkpt lat="41.0704420" lon="0.4619400">
        <ele>301.8</ele>
        <time>2020-08-06T12:30:20Z</time>
      </trkpt>
      <trkpt lat="41.0704270" lon="0.4618660">
        <ele>301.9</ele>
        <time>2020-08-06T12:30:22Z</time>
      </trkpt>
      <trkpt lat="41.0704070" lon="0.4617980">
        <ele>302.1</ele>
        <time>2020-08-06T12:30:24Z</time>
      </trkpt>
      <trkpt lat="41.0703990" lon="0.4617630">
        <ele>302.1</ele>
        <time>2020-08-06T12:30:25Z</time>
      </trkpt>
      <trkpt lat="41.0703830" lon="0.4616930">
        <ele>302.2</ele>
        <time>2020-08-06T12:30:27Z</time>
      </trkpt>
      <trkpt lat="41.0703620" lon="0.4615870">
        <ele>302.4</ele>
        <time>2020-08-06T12:30:29Z</time>
      </trkpt>
      <trkpt lat="41.0703550" lon="0.4615470">
        <ele>302.5</ele>
        <time>2020-08-06T12:30:30Z</time>
      </trkpt>
      <trkpt lat="41.0703370" lon="0.4614650">
        <ele>302.6</ele>
        <time>2020-08-06T12:30:32Z</time>
      </trkpt>
      <trkpt lat="41.0703200" lon="0.4613860">
        <ele>302.7</ele>
        <time>2020-08-06T12:30:34Z</time>
      </trkpt>
      <trkpt lat="41.0703070" lon="0.4613090">
        <ele>302.7</ele>
        <time>2020-08-06T12:30:36Z</time>
      </trkpt>
      <trkpt lat="41.0703010" lon="0.4612680">
        <ele>302.7</ele>
        <time>2020-08-06T12:30:37Z</time>
      </trkpt>
      <trkpt lat="41.0702960" lon="0.4612190">
        <ele>302.7</ele>
        <time>2020-08-06T12:30:39Z</time>
      </trkpt>
      <trkpt lat="41.0702980" lon="0.4612200">
        <ele>302.7</ele>
        <time>2020-08-06T12:30:40Z</time>
      </trkpt>
      <trkpt lat="41.0702940" lon="0.4611900">
        <ele>302.7</ele>
        <time>2020-08-06T12:30:42Z</time>
      </trkpt>
      <trkpt lat="41.0702910" lon="0.4611540">
        <ele>302.7</ele>
        <time>2020-08-06T12:30:44Z</time>
      </trkpt>
      <trkpt lat="41.0702870" lon="0.4611170">
        <ele>302.6</ele>
        <time>2020-08-06T12:30:45Z</time>
      </trkpt>
      <trkpt lat="41.0702850" lon="0.4610970">
        <ele>302.6</ele>
        <time>2020-08-06T12:30:46Z</time>
      </trkpt>
      <trkpt lat="41.0702820" lon="0.4610460">
        <ele>302.7</ele>
        <time>2020-08-06T12:30:48Z</time>
      </trkpt>
      <trkpt lat="41.0702800" lon="0.4610050">
        <ele>302.7</ele>
        <time>2020-08-06T12:30:49Z</time>
      </trkpt>
      <trkpt lat="41.0702790" lon="0.4609430">
        <ele>302.7</ele>
        <time>2020-08-06T12:30:51Z</time>
      </trkpt>
      <trkpt lat="41.0702780" lon="0.4608980">
        <ele>302.7</ele>
        <time>2020-08-06T12:30:52Z</time>
      </trkpt>
      <trkpt lat="41.0702790" lon="0.4608210">
        <ele>302.7</ele>
        <time>2020-08-06T12:30:54Z</time>
      </trkpt>
      <trkpt lat="41.0702800" lon="0.4607600">
        <ele>302.7</ele>
        <time>2020-08-06T12:30:56Z</time>
      </trkpt>
      <trkpt lat="41.0702800" lon="0.4607110">
        <ele>302.7</ele>
        <time>2020-08-06T12:30:57Z</time>
      </trkpt>
      <trkpt lat="41.0702780" lon="0.4606700">
        <ele>302.8</ele>
        <time>2020-08-06T12:30:58Z</time>
      </trkpt>
      <trkpt lat="41.0702750" lon="0.4606310">
        <ele>302.8</ele>
        <time>2020-08-06T12:30:59Z</time>
      </trkpt>
      <trkpt lat="41.0702710" lon="0.4605950">
        <ele>302.8</ele>
        <time>2020-08-06T12:31:00Z</time>
      </trkpt>
      <trkpt lat="41.0702660" lon="0.4605400">
        <ele>302.8</ele>
        <time>2020-08-06T12:31:02Z</time>
      </trkpt>
      <trkpt lat="41.0702620" lon="0.4604970">
        <ele>302.8</ele>
        <time>2020-08-06T12:31:03Z</time>
      </trkpt>
      <trkpt lat="41.0702550" lon="0.4604450">
        <ele>302.8</ele>
        <time>2020-08-06T12:31:04Z</time>
      </trkpt>
      <trkpt lat="41.0702520" lon="0.4604280">
        <ele>302.8</ele>
        <time>2020-08-06T12:31:05Z</time>
      </trkpt>
      <trkpt lat="41.0702450" lon="0.4603420">
        <ele>302.8</ele>
        <time>2020-08-06T12:31:07Z</time>
      </trkpt>
      <trkpt lat="41.0702650" lon="0.4601850">
        <ele>302.8</ele>
        <time>2020-08-06T12:31:08Z</time>
      </trkpt>
      <trkpt lat="41.0702700" lon="0.4600830">
        <ele>302.8</ele>
        <time>2020-08-06T12:31:09Z</time>
      </trkpt>
      <trkpt lat="41.0702610" lon="0.4599240">
        <ele>302.9</ele>
        <time>2020-08-06T12:31:11Z</time>
      </trkpt>
      <trkpt lat="41.0702290" lon="0.4598120">
        <ele>302.9</ele>
        <time>2020-08-06T12:31:13Z</time>
      </trkpt>
      <trkpt lat="41.0702200" lon="0.4597680">
        <ele>302.9</ele>
        <time>2020-08-06T12:31:14Z</time>
      </trkpt>
      <trkpt lat="41.0701770" lon="0.4596910">
        <ele>302.9</ele>
        <time>2020-08-06T12:31:16Z</time>
      </trkpt>
      <trkpt lat="41.0701600" lon="0.4596550">
        <ele>302.9</ele>
        <time>2020-08-06T12:31:17Z</time>
      </trkpt>
      <trkpt lat="41.0701340" lon="0.4596120">
        <ele>302.9</ele>
        <time>2020-08-06T12:31:19Z</time>
      </trkpt>
      <trkpt lat="41.0701060" lon="0.4595470">
        <ele>302.9</ele>
        <time>2020-08-06T12:31:20Z</time>
      </trkpt>
      <trkpt lat="41.0700910" lon="0.4595050">
        <ele>302.9</ele>
        <time>2020-08-06T12:31:21Z</time>
      </trkpt>
      <trkpt lat="41.0700810" lon="0.4594670">
        <ele>302.9</ele>
        <time>2020-08-06T12:31:22Z</time>
      </trkpt>
      <trkpt lat="41.0700670" lon="0.4593870">
        <ele>303.0</ele>
        <time>2020-08-06T12:31:23Z</time>
      </trkpt>
      <trkpt lat="41.0700630" lon="0.4592770">
        <ele>303.0</ele>
        <time>2020-08-06T12:31:25Z</time>
      </trkpt>
      <trkpt lat="41.0700580" lon="0.4591610">
        <ele>303.0</ele>
        <time>2020-08-06T12:31:26Z</time>
      </trkpt>
      <trkpt lat="41.0700600" lon="0.4590190">
        <ele>302.9</ele>
        <time>2020-08-06T12:31:28Z</time>
      </trkpt>
      <trkpt lat="41.0700570" lon="0.4589400">
        <ele>302.9</ele>
        <time>2020-08-06T12:31:30Z</time>
      </trkpt>
      <trkpt lat="41.0700540" lon="0.4588990">
        <ele>302.8</ele>
        <time>2020-08-06T12:31:31Z</time>
      </trkpt>
      <trkpt lat="41.0700500" lon="0.4588520">
        <ele>302.8</ele>
        <time>2020-08-06T12:31:32Z</time>
      </trkpt>
      <trkpt lat="41.0700450" lon="0.4588170">
        <ele>302.8</ele>
        <time>2020-08-06T12:31:33Z</time>
      </trkpt>
      <trkpt lat="41.0700340" lon="0.4587470">
        <ele>302.8</ele>
        <time>2020-08-06T12:31:35Z</time>
      </trkpt>
      <trkpt lat="41.0700280" lon="0.4587100">
        <ele>302.7</ele>
        <time>2020-08-06T12:31:36Z</time>
      </trkpt>
      <trkpt lat="41.0700150" lon="0.4586340">
        <ele>302.7</ele>
        <time>2020-08-06T12:31:38Z</time>
      </trkpt>
      <trkpt lat="41.0700010" lon="0.4585590">
        <ele>302.7</ele>
        <time>2020-08-06T12:31:40Z</time>
      </trkpt>
      <trkpt lat="41.0699930" lon="0.4585230">
        <ele>302.7</ele>
        <time>2020-08-06T12:31:41Z</time>
      </trkpt>
      <trkpt lat="41.0699770" lon="0.4584140">
        <ele>302.7</ele>
        <time>2020-08-06T12:31:43Z</time>
      </trkpt>
      <trkpt lat="41.0699620" lon="0.4582360">
        <ele>302.6</ele>
        <time>2020-08-06T12:31:44Z</time>
      </trkpt>
      <trkpt lat="41.0699490" lon="0.4580770">
        <ele>302.6</ele>
        <time>2020-08-06T12:31:45Z</time>
      </trkpt>
      <trkpt lat="41.0699360" lon="0.4579170">
        <ele>302.5</ele>
        <time>2020-08-06T12:31:47Z</time>
      </trkpt>
      <trkpt lat="41.0699270" lon="0.4578410">
        <ele>302.5</ele>
        <time>2020-08-06T12:31:48Z</time>
      </trkpt>
      <trkpt lat="41.0699190" lon="0.4577410">
        <ele>302.5</ele>
        <time>2020-08-06T12:31:50Z</time>
      </trkpt>
      <trkpt lat="41.0699120" lon="0.4576770">
        <ele>302.5</ele>
        <time>2020-08-06T12:31:51Z</time>
      </trkpt>
      <trkpt lat="41.0699040" lon="0.4575650">
        <ele>302.4</ele>
        <time>2020-08-06T12:31:53Z</time>
      </trkpt>
      <trkpt lat="41.0699020" lon="0.4575230">
        <ele>302.4</ele>
        <time>2020-08-06T12:31:54Z</time>
      </trkpt>
      <trkpt lat="41.0698930" lon="0.4574240">
        <ele>302.4</ele>
        <time>2020-08-06T12:31:56Z</time>
      </trkpt>
      <trkpt lat="41.0698860" lon="0.4573680">
        <ele>302.4</ele>
        <time>2020-08-06T12:31:57Z</time>
      </trkpt>
      <trkpt lat="41.0698820" lon="0.4573300">
        <ele>302.4</ele>
        <time>2020-08-06T12:31:58Z</time>
      </trkpt>
      <trkpt lat="41.0698730" lon="0.4572300">
        <ele>302.3</ele>
        <time>2020-08-06T12:31:59Z</time>
      </trkpt>
      <trkpt lat="41.0698950" lon="0.4572670">
        <ele>302.3</ele>
        <time>2020-08-06T12:32:01Z</time>
      </trkpt>
      <trkpt lat="41.0699170" lon="0.4573130">
        <ele>302.3</ele>
        <time>2020-08-06T12:32:02Z</time>
      </trkpt>
      <trkpt lat="41.0699380" lon="0.4573280">
        <ele>302.3</ele>
        <time>2020-08-06T12:32:03Z</time>
      </trkpt>
      <trkpt lat="41.0699340" lon="0.4572910">
        <ele>302.3</ele>
        <time>2020-08-06T12:32:04Z</time>
      </trkpt>
      <trkpt lat="41.0699440" lon="0.4572530">
        <ele>302.3</ele>
        <time>2020-08-06T12:32:06Z</time>
      </trkpt>
      <trkpt lat="41.0699490" lon="0.4571820">
        <ele>302.3</ele>
        <time>2020-08-06T12:32:07Z</time>
      </trkpt>
      <trkpt lat="41.0699300" lon="0.4571120">
        <ele>302.2</ele>
        <time>2020-08-06T12:32:08Z</time>
      </trkpt>
      <trkpt lat="41.0699060" lon="0.4570620">
        <ele>302.2</ele>
        <time>2020-08-06T12:32:10Z</time>
      </trkpt>
      <trkpt lat="41.0699040" lon="0.4570560">
        <ele>302.2</ele>
        <time>2020-08-06T12:32:11Z</time>
      </trkpt>
      <trkpt lat="41.0698680" lon="0.4569040">
        <ele>302.2</ele>
        <time>2020-08-06T12:32:13Z</time>
      </trkpt>
      <trkpt lat="41.0698320" lon="0.4567390">
        <ele>302.2</ele>
        <time>2020-08-06T12:32:14Z</time>
      </trkpt>
      <trkpt lat="41.0698090" lon="0.4566240">
        <ele>302.2</ele>
        <time>2020-08-06T12:32:16Z</time>
      </trkpt>
      <trkpt lat="41.0697970" lon="0.4565320">
        <ele>302.2</ele>
        <time>2020-08-06T12:32:17Z</time>
      </trkpt>
      <trkpt lat="41.0697850" lon="0.4564440">
        <ele>302.1</ele>
        <time>2020-08-06T12:32:18Z</time>
      </trkpt>
      <trkpt lat="41.0697650" lon="0.4562480">
        <ele>302.1</ele>
        <time>2020-08-06T12:32:19Z</time>
      </trkpt>
      <trkpt lat="41.0697550" lon="0.4562240">
        <ele>302.0</ele>
        <time>2020-08-06T12:32:20Z</time>
      </trkpt>
      <trkpt lat="41.0697340" lon="0.4563190">
        <ele>302.0</ele>
        <time>2020-08-06T12:32:22Z</time>
      </trkpt>
      <trkpt lat="41.0697180" lon="0.4562740">
        <ele>302.0</ele>
        <time>2020-08-06T12:32:23Z</time>
      </trkpt>
      <trkpt lat="41.0697200" lon="0.4561220">
        <ele>302.0</ele>
        <time>2020-08-06T12:32:24Z</time>
      </trkpt>
      <trkpt lat="41.0696930" lon="0.4558670">
        <ele>302.0</ele>
        <time>2020-08-06T12:32:26Z</time>
      </trkpt>
      <trkpt lat="41.0696630" lon="0.4557060">
        <ele>302.0</ele>
        <time>2020-08-06T12:32:28Z</time>
      </trkpt>
      <trkpt lat="41.0696310" lon="0.4555510">
        <ele>302.0</ele>
        <time>2020-08-06T12:32:29Z</time>
      </trkpt>
      <trkpt lat="41.0696120" lon="0.4554260">
        <ele>302.1</ele>
        <time>2020-08-06T12:32:31Z</time>
      </trkpt>
      <trkpt lat="41.0696050" lon="0.4553710">
        <ele>302.1</ele>
        <time>2020-08-06T12:32:33Z</time>
      </trkpt>
      <trkpt lat="41.0695990" lon="0.4553230">
        <ele>302.1</ele>
        <time>2020-08-06T12:32:34Z</time>
      </trkpt>
      <trkpt lat="41.0695950" lon="0.4552740">
        <ele>302.2</ele>
        <time>2020-08-06T12:32:35Z</time>
      </trkpt>
      <trkpt lat="41.0695920" lon="0.4552390">
        <ele>302.3</ele>
        <time>2020-08-06T12:32:36Z</time>
      </trkpt>
      <trkpt lat="41.0695870" lon="0.4551770">
        <ele>302.4</ele>
        <time>2020-08-06T12:32:38Z</time>
      </trkpt>
      <trkpt lat="41.0695840" lon="0.4551280">
        <ele>302.5</ele>
        <time>2020-08-06T12:32:39Z</time>
      </trkpt>
      <trkpt lat="41.0695810" lon="0.4550670">
        <ele>302.5</ele>
        <time>2020-08-06T12:32:40Z</time>
      </trkpt>
      <trkpt lat="41.0695750" lon="0.4550170">
        <ele>302.6</ele>
        <time>2020-08-06T12:32:41Z</time>
      </trkpt>
      <trkpt lat="41.0695680" lon="0.4549530">
        <ele>302.6</ele>
        <time>2020-08-06T12:32:43Z</time>
      </trkpt>
      <trkpt lat="41.0695620" lon="0.4548930">
        <ele>302.6</ele>
        <time>2020-08-06T12:32:44Z</time>
      </trkpt>
      <trkpt lat="41.0695520" lon="0.4548220">
        <ele>302.6</ele>
        <time>2020-08-06T12:32:46Z</time>
      </trkpt>
      <trkpt lat="41.0695430" lon="0.4547540">
        <ele>302.6</ele>
        <time>2020-08-06T12:32:47Z</time>
      </trkpt>
      <trkpt lat="41.0695310" lon="0.4546630">
        <ele>302.6</ele>
        <time>2020-08-06T12:32:49Z</time>
      </trkpt>
      <trkpt lat="41.0695230" lon="0.4545160">
        <ele>302.8</ele>
        <time>2020-08-06T12:32:50Z</time>
      </trkpt>
      <trkpt lat="41.0695140" lon="0.4543410">
        <ele>303.2</ele>
        <time>2020-08-06T12:32:52Z</time>
      </trkpt>
      <trkpt lat="41.0695110" lon="0.4542650">
        <ele>303.4</ele>
        <time>2020-08-06T12:32:53Z</time>
      </trkpt>
      <trkpt lat="41.0695080" lon="0.4541570">
        <ele>303.7</ele>
        <time>2020-08-06T12:32:55Z</time>
      </trkpt>
      <trkpt lat="41.0695040" lon="0.4541070">
        <ele>303.9</ele>
        <time>2020-08-06T12:32:56Z</time>
      </trkpt>
      <trkpt lat="41.0694890" lon="0.4540080">
        <ele>304.1</ele>
        <time>2020-08-06T12:32:58Z</time>
      </trkpt>
      <trkpt lat="41.0694840" lon="0.4539560">
        <ele>304.2</ele>
        <time>2020-08-06T12:32:59Z</time>
      </trkpt>
      <trkpt lat="41.0694800" lon="0.4539030">
        <ele>304.4</ele>
        <time>2020-08-06T12:33:00Z</time>
      </trkpt>
      <trkpt lat="41.0694740" lon="0.4538250">
        <ele>304.6</ele>
        <time>2020-08-06T12:33:02Z</time>
      </trkpt>
      <trkpt lat="41.0694690" lon="0.4537790">
        <ele>304.7</ele>
        <time>2020-08-06T12:33:03Z</time>
      </trkpt>
      <trkpt lat="41.0694620" lon="0.4537120">
        <ele>304.9</ele>
        <time>2020-08-06T12:33:05Z</time>
      </trkpt>
      <trkpt lat="41.0694560" lon="0.4536630">
        <ele>305.1</ele>
        <time>2020-08-06T12:33:06Z</time>
      </trkpt>
      <trkpt lat="41.0694500" lon="0.4535970">
        <ele>305.3</ele>
        <time>2020-08-06T12:33:08Z</time>
      </trkpt>
      <trkpt lat="41.0694470" lon="0.4535410">
        <ele>305.5</ele>
        <time>2020-08-06T12:33:09Z</time>
      </trkpt>
      <trkpt lat="41.0694420" lon="0.4535010">
        <ele>305.6</ele>
        <time>2020-08-06T12:33:10Z</time>
      </trkpt>
      <trkpt lat="41.0694360" lon="0.4534590">
        <ele>305.8</ele>
        <time>2020-08-06T12:33:11Z</time>
      </trkpt>
      <trkpt lat="41.0694300" lon="0.4534200">
        <ele>305.9</ele>
        <time>2020-08-06T12:33:12Z</time>
      </trkpt>
      <trkpt lat="41.0694220" lon="0.4533590">
        <ele>306.2</ele>
        <time>2020-08-06T12:33:14Z</time>
      </trkpt>
      <trkpt lat="41.0694160" lon="0.4533040">
        <ele>306.4</ele>
        <time>2020-08-06T12:33:15Z</time>
      </trkpt>
      <trkpt lat="41.0694130" lon="0.4532530">
        <ele>306.6</ele>
        <time>2020-08-06T12:33:17Z</time>
      </trkpt>
      <trkpt lat="41.0694120" lon="0.4532280">
        <ele>306.7</ele>
        <time>2020-08-06T12:33:18Z</time>
      </trkpt>
      <trkpt lat="41.0694070" lon="0.4531840">
        <ele>306.9</ele>
        <time>2020-08-06T12:33:20Z</time>
      </trkpt>
      <trkpt lat="41.0694020" lon="0.4531640">
        <ele>307.0</ele>
        <time>2020-08-06T12:33:21Z</time>
      </trkpt>
      <trkpt lat="41.0694000" lon="0.4531440">
        <ele>307.0</ele>
        <time>2020-08-06T12:33:22Z</time>
      </trkpt>
      <trkpt lat="41.0693930" lon="0.4530880">
        <ele>307.2</ele>
        <time>2020-08-06T12:33:24Z</time>
      </trkpt>
      <trkpt lat="41.0693920" lon="0.4530700">
        <ele>307.3</ele>
        <time>2020-08-06T12:33:25Z</time>
      </trkpt>
      <trkpt lat="41.0693900" lon="0.4530510">
        <ele>307.4</ele>
        <time>2020-08-06T12:33:26Z</time>
      </trkpt>
      <trkpt lat="41.0693890" lon="0.4530290">
        <ele>307.4</ele>
        <time>2020-08-06T12:33:27Z</time>
      </trkpt>
      <trkpt lat="41.0693870" lon="0.4530040">
        <ele>307.5</ele>
        <time>2020-08-06T12:33:28Z</time>
      </trkpt>
      <trkpt lat="41.0693820" lon="0.4529530">
        <ele>307.6</ele>
        <time>2020-08-06T12:33:30Z</time>
      </trkpt>
      <trkpt lat="41.0693790" lon="0.4529340">
        <ele>307.7</ele>
        <time>2020-08-06T12:33:31Z</time>
      </trkpt>
      <trkpt lat="41.0693770" lon="0.4528940">
        <ele>307.8</ele>
        <time>2020-08-06T12:33:33Z</time>
      </trkpt>
      <trkpt lat="41.0693710" lon="0.4528490">
        <ele>308.0</ele>
        <time>2020-08-06T12:33:34Z</time>
      </trkpt>
      <trkpt lat="41.0693610" lon="0.4527900">
        <ele>308.1</ele>
        <time>2020-08-06T12:33:36Z</time>
      </trkpt>
      <trkpt lat="41.0693510" lon="0.4527430">
        <ele>308.3</ele>
        <time>2020-08-06T12:33:38Z</time>
      </trkpt>
      <trkpt lat="41.0693390" lon="0.4526780">
        <ele>308.5</ele>
        <time>2020-08-06T12:33:40Z</time>
      </trkpt>
      <trkpt lat="41.0693350" lon="0.4526460">
        <ele>308.6</ele>
        <time>2020-08-06T12:33:41Z</time>
      </trkpt>
      <trkpt lat="41.0693140" lon="0.4525080">
        <ele>309.0</ele>
        <time>2020-08-06T12:33:43Z</time>
      </trkpt>
      <trkpt lat="41.0693010" lon="0.4524400">
        <ele>309.3</ele>
        <time>2020-08-06T12:33:44Z</time>
      </trkpt>
      <trkpt lat="41.0692810" lon="0.4523330">
        <ele>309.7</ele>
        <time>2020-08-06T12:33:46Z</time>
      </trkpt>
      <trkpt lat="41.0692740" lon="0.4522880">
        <ele>309.9</ele>
        <time>2020-08-06T12:33:47Z</time>
      </trkpt>
      <trkpt lat="41.0692660" lon="0.4522200">
        <ele>310.1</ele>
        <time>2020-08-06T12:33:49Z</time>
      </trkpt>
      <trkpt lat="41.0692610" lon="0.4521740">
        <ele>310.3</ele>
        <time>2020-08-06T12:33:50Z</time>
      </trkpt>
      <trkpt lat="41.0692540" lon="0.4520850">
        <ele>310.6</ele>
        <time>2020-08-06T12:33:52Z</time>
      </trkpt>
      <trkpt lat="41.0692440" lon="0.4520210">
        <ele>310.8</ele>
        <time>2020-08-06T12:33:54Z</time>
      </trkpt>
      <trkpt lat="41.0692370" lon="0.4519830">
        <ele>311.0</ele>
        <time>2020-08-06T12:33:55Z</time>
      </trkpt>
      <trkpt lat="41.0692180" lon="0.4519210">
        <ele>311.2</ele>
        <time>2020-08-06T12:33:57Z</time>
      </trkpt>
      <trkpt lat="41.0692100" lon="0.4518820">
        <ele>311.3</ele>
        <time>2020-08-06T12:33:59Z</time>
      </trkpt>
      <trkpt lat="41.0692030" lon="0.4518520">
        <ele>311.4</ele>
        <time>2020-08-06T12:34:00Z</time>
      </trkpt>
      <trkpt lat="41.0691930" lon="0.4518170">
        <ele>311.5</ele>
        <time>2020-08-06T12:34:02Z</time>
      </trkpt>
      <trkpt lat="41.0691800" lon="0.4517770">
        <ele>311.6</ele>
        <time>2020-08-06T12:34:03Z</time>
      </trkpt>
      <trkpt lat="41.0691760" lon="0.4517660">
        <ele>311.7</ele>
        <time>2020-08-06T12:34:04Z</time>
      </trkpt>
      <trkpt lat="41.0691720" lon="0.4517510">
        <ele>311.7</ele>
        <time>2020-08-06T12:34:05Z</time>
      </trkpt>
      <trkpt lat="41.0691670" lon="0.4517320">
        <ele>311.8</ele>
        <time>2020-08-06T12:34:06Z</time>
      </trkpt>
      <trkpt lat="41.0691540" lon="0.4516920">
        <ele>311.9</ele>
        <time>2020-08-06T12:34:08Z</time>
      </trkpt>
      <trkpt lat="41.0691410" lon="0.4516550">
        <ele>312.0</ele>
        <time>2020-08-06T12:34:09Z</time>
      </trkpt>
      <trkpt lat="41.0691370" lon="0.4516420">
        <ele>312.1</ele>
        <time>2020-08-06T12:34:10Z</time>
      </trkpt>
      <trkpt lat="41.0691260" lon="0.4516060">
        <ele>312.2</ele>
        <time>2020-08-06T12:34:11Z</time>
      </trkpt>
      <trkpt lat="41.0691220" lon="0.4515940">
        <ele>312.2</ele>
        <time>2020-08-06T12:34:12Z</time>
      </trkpt>
      <trkpt lat="41.0691090" lon="0.4515470">
        <ele>312.4</ele>
        <time>2020-08-06T12:34:13Z</time>
      </trkpt>
      <trkpt lat="41.0691030" lon="0.4515290">
        <ele>312.4</ele>
        <time>2020-08-06T12:34:14Z</time>
      </trkpt>
      <trkpt lat="41.0690900" lon="0.4514860">
        <ele>312.6</ele>
        <time>2020-08-06T12:34:16Z</time>
      </trkpt>
      <trkpt lat="41.0690780" lon="0.4514470">
        <ele>312.7</ele>
        <time>2020-08-06T12:34:17Z</time>
      </trkpt>
      <trkpt lat="41.0690700" lon="0.4514210">
        <ele>312.8</ele>
        <time>2020-08-06T12:34:19Z</time>
      </trkpt>
      <trkpt lat="41.0690520" lon="0.4513680">
        <ele>313.0</ele>
        <time>2020-08-06T12:34:21Z</time>
      </trkpt>
      <trkpt lat="41.0690380" lon="0.4513260">
        <ele>313.1</ele>
        <time>2020-08-06T12:34:22Z</time>
      </trkpt>
      <trkpt lat="41.0690330" lon="0.4513090">
        <ele>313.2</ele>
        <time>2020-08-06T12:34:23Z</time>
      </trkpt>
      <trkpt lat="41.0690160" lon="0.4512520">
        <ele>313.4</ele>
        <time>2020-08-06T12:34:25Z</time>
      </trkpt>
      <trkpt lat="41.0690040" lon="0.4512110">
        <ele>313.5</ele>
        <time>2020-08-06T12:34:26Z</time>
      </trkpt>
      <trkpt lat="41.0689860" lon="0.4511550">
        <ele>313.7</ele>
        <time>2020-08-06T12:34:28Z</time>
      </trkpt>
      <trkpt lat="41.0689640" lon="0.4510940">
        <ele>313.9</ele>
        <time>2020-08-06T12:34:29Z</time>
      </trkpt>
      <trkpt lat="41.0689310" lon="0.4510200">
        <ele>314.3</ele>
        <time>2020-08-06T12:34:31Z</time>
      </trkpt>
      <trkpt lat="41.0689160" lon="0.4509870">
        <ele>314.5</ele>
        <time>2020-08-06T12:34:32Z</time>
      </trkpt>
      <trkpt lat="41.0688900" lon="0.4509320">
        <ele>314.9</ele>
        <time>2020-08-06T12:34:34Z</time>
      </trkpt>
      <trkpt lat="41.0688700" lon="0.4508910">
        <ele>315.1</ele>
        <time>2020-08-06T12:34:35Z</time>
      </trkpt>
      <trkpt lat="41.0687810" lon="0.4507030">
        <ele>315.6</ele>
        <time>2020-08-06T12:34:37Z</time>
      </trkpt>
      <trkpt lat="41.0687290" lon="0.4505800">
        <ele>316.0</ele>
        <time>2020-08-06T12:34:39Z</time>
      </trkpt>
      <trkpt lat="41.0687010" lon="0.4505190">
        <ele>316.1</ele>
        <time>2020-08-06T12:34:40Z</time>
      </trkpt>
      <trkpt lat="41.0686680" lon="0.4504460">
        <ele>316.3</ele>
        <time>2020-08-06T12:34:42Z</time>
      </trkpt>
      <trkpt lat="41.0686480" lon="0.4504040">
        <ele>316.4</ele>
        <time>2020-08-06T12:34:43Z</time>
      </trkpt>
      <trkpt lat="41.0686250" lon="0.4503560">
        <ele>316.6</ele>
        <time>2020-08-06T12:34:45Z</time>
      </trkpt>
      <trkpt lat="41.0686160" lon="0.4503400">
        <ele>316.6</ele>
        <time>2020-08-06T12:34:46Z</time>
      </trkpt>
      <trkpt lat="41.0685950" lon="0.4503050">
        <ele>316.8</ele>
        <time>2020-08-06T12:34:48Z</time>
      </trkpt>
      <trkpt lat="41.0685750" lon="0.4502700">
        <ele>316.9</ele>
        <time>2020-08-06T12:34:49Z</time>
      </trkpt>
      <trkpt lat="41.0685690" lon="0.4502600">
        <ele>316.9</ele>
        <time>2020-08-06T12:34:50Z</time>
      </trkpt>
      <trkpt lat="41.0685440" lon="0.4502200">
        <ele>317.1</ele>
        <time>2020-08-06T12:34:52Z</time>
      </trkpt>
      <trkpt lat="41.0685190" lon="0.4501710">
        <ele>317.2</ele>
        <time>2020-08-06T12:34:54Z</time>
      </trkpt>
      <trkpt lat="41.0685040" lon="0.4501470">
        <ele>317.3</ele>
        <time>2020-08-06T12:34:55Z</time>
      </trkpt>
      <trkpt lat="41.0684680" lon="0.4500860">
        <ele>317.5</ele>
        <time>2020-08-06T12:34:57Z</time>
      </trkpt>
      <trkpt lat="41.0684520" lon="0.4500600">
        <ele>317.6</ele>
        <time>2020-08-06T12:34:58Z</time>
      </trkpt>
      <trkpt lat="41.0684260" lon="0.4500080">
        <ele>317.7</ele>
        <time>2020-08-06T12:35:00Z</time>
      </trkpt>
      <trkpt lat="41.0684030" lon="0.4499590">
        <ele>317.9</ele>
        <time>2020-08-06T12:35:02Z</time>
      </trkpt>
      <trkpt lat="41.0683660" lon="0.4498910">
        <ele>318.1</ele>
        <time>2020-08-06T12:35:03Z</time>
      </trkpt>
      <trkpt lat="41.0683420" lon="0.4498470">
        <ele>318.2</ele>
        <time>2020-08-06T12:35:04Z</time>
      </trkpt>
      <trkpt lat="41.0683040" lon="0.4497550">
        <ele>318.4</ele>
        <time>2020-08-06T12:35:05Z</time>
      </trkpt>
      <trkpt lat="41.0682640" lon="0.4496660">
        <ele>318.7</ele>
        <time>2020-08-06T12:35:07Z</time>
      </trkpt>
      <trkpt lat="41.0682280" lon="0.4495860">
        <ele>319.0</ele>
        <time>2020-08-06T12:35:09Z</time>
      </trkpt>
      <trkpt lat="41.0681980" lon="0.4495220">
        <ele>319.2</ele>
        <time>2020-08-06T12:35:10Z</time>
      </trkpt>
      <trkpt lat="41.0681740" lon="0.4494770">
        <ele>319.3</ele>
        <time>2020-08-06T12:35:11Z</time>
      </trkpt>
      <trkpt lat="41.0681380" lon="0.4494070">
        <ele>319.5</ele>
        <time>2020-08-06T12:35:13Z</time>
      </trkpt>
      <trkpt lat="41.0681130" lon="0.4493640">
        <ele>319.6</ele>
        <time>2020-08-06T12:35:14Z</time>
      </trkpt>
      <trkpt lat="41.0680960" lon="0.4493310">
        <ele>319.7</ele>
        <time>2020-08-06T12:35:15Z</time>
      </trkpt>
      <trkpt lat="41.0680640" lon="0.4492670">
        <ele>319.9</ele>
        <time>2020-08-06T12:35:17Z</time>
      </trkpt>
      <trkpt lat="41.0680460" lon="0.4492330">
        <ele>320.0</ele>
        <time>2020-08-06T12:35:18Z</time>
      </trkpt>
      <trkpt lat="41.0680300" lon="0.4491990">
        <ele>320.1</ele>
        <time>2020-08-06T12:35:19Z</time>
      </trkpt>
      <trkpt lat="41.0680000" lon="0.4491540">
        <ele>320.2</ele>
        <time>2020-08-06T12:35:21Z</time>
      </trkpt>
      <trkpt lat="41.0679740" lon="0.4491070">
        <ele>320.4</ele>
        <time>2020-08-06T12:35:22Z</time>
      </trkpt>
      <trkpt lat="41.0679410" lon="0.4490470">
        <ele>320.5</ele>
        <time>2020-08-06T12:35:24Z</time>
      </trkpt>
      <trkpt lat="41.0679210" lon="0.4490140">
        <ele>320.6</ele>
        <time>2020-08-06T12:35:25Z</time>
      </trkpt>
      <trkpt lat="41.0678870" lon="0.4489520">
        <ele>320.8</ele>
        <time>2020-08-06T12:35:27Z</time>
      </trkpt>
      <trkpt lat="41.0678570" lon="0.4488990">
        <ele>320.9</ele>
        <time>2020-08-06T12:35:29Z</time>
      </trkpt>
      <trkpt lat="41.0678340" lon="0.4488600">
        <ele>321.0</ele>
        <time>2020-08-06T12:35:30Z</time>
      </trkpt>
      <trkpt lat="41.0678180" lon="0.4488270">
        <ele>321.0</ele>
        <time>2020-08-06T12:35:31Z</time>
      </trkpt>
      <trkpt lat="41.0677820" lon="0.4487670">
        <ele>321.2</ele>
        <time>2020-08-06T12:35:33Z</time>
      </trkpt>
      <trkpt lat="41.0677460" lon="0.4487110">
        <ele>321.2</ele>
        <time>2020-08-06T12:35:35Z</time>
      </trkpt>
      <trkpt lat="41.0677270" lon="0.4486920">
        <ele>321.3</ele>
        <time>2020-08-06T12:35:36Z</time>
      </trkpt>
      <trkpt lat="41.0676950" lon="0.4486580">
        <ele>321.3</ele>
        <time>2020-08-06T12:35:38Z</time>
      </trkpt>
      <trkpt lat="41.0676850" lon="0.4486440">
        <ele>321.3</ele>
        <time>2020-08-06T12:35:39Z</time>
      </trkpt>
      <trkpt lat="41.0676630" lon="0.4486140">
        <ele>321.4</ele>
        <time>2020-08-06T12:35:41Z</time>
      </trkpt>
      <trkpt lat="41.0676370" lon="0.4485790">
        <ele>321.4</ele>
        <time>2020-08-06T12:35:42Z</time>
      </trkpt>
      <trkpt lat="41.0676270" lon="0.4485670">
        <ele>321.5</ele>
        <time>2020-08-06T12:35:43Z</time>
      </trkpt>
      <trkpt lat="41.0676080" lon="0.4485390">
        <ele>321.5</ele>
        <time>2020-08-06T12:35:44Z</time>
      </trkpt>
      <trkpt lat="41.0675990" lon="0.4485280">
        <ele>321.5</ele>
        <time>2020-08-06T12:35:45Z</time>
      </trkpt>
      <trkpt lat="41.0675650" lon="0.4484830">
        <ele>321.6</ele>
        <time>2020-08-06T12:35:47Z</time>
      </trkpt>
      <trkpt lat="41.0675290" lon="0.4484290">
        <ele>321.7</ele>
        <time>2020-08-06T12:35:48Z</time>
      </trkpt>
      <trkpt lat="41.0674930" lon="0.4483860">
        <ele>321.8</ele>
        <time>2020-08-06T12:35:49Z</time>
      </trkpt>
      <trkpt lat="41.0674310" lon="0.4483070">
        <ele>321.9</ele>
        <time>2020-08-06T12:35:51Z</time>
      </trkpt>
      <trkpt lat="41.0673950" lon="0.4482620">
        <ele>322.0</ele>
        <time>2020-08-06T12:35:52Z</time>
      </trkpt>
      <trkpt lat="41.0673620" lon="0.4482200">
        <ele>322.0</ele>
        <time>2020-08-06T12:35:53Z</time>
      </trkpt>
      <trkpt lat="41.0673140" lon="0.4481640">
        <ele>322.1</ele>
        <time>2020-08-06T12:35:55Z</time>
      </trkpt>
      <trkpt lat="41.0672860" lon="0.4481360">
        <ele>322.1</ele>
        <time>2020-08-06T12:35:56Z</time>
      </trkpt>
      <trkpt lat="41.0672540" lon="0.4481040">
        <ele>322.1</ele>
        <time>2020-08-06T12:35:57Z</time>
      </trkpt>
      <trkpt lat="41.0672200" lon="0.4480710">
        <ele>322.1</ele>
        <time>2020-08-06T12:35:58Z</time>
      </trkpt>
      <trkpt lat="41.0671790" lon="0.4480270">
        <ele>322.1</ele>
        <time>2020-08-06T12:36:00Z</time>
      </trkpt>
      <trkpt lat="41.0671450" lon="0.4479920">
        <ele>322.1</ele>
        <time>2020-08-06T12:36:01Z</time>
      </trkpt>
      <trkpt lat="41.0670990" lon="0.4479460">
        <ele>322.1</ele>
        <time>2020-08-06T12:36:03Z</time>
      </trkpt>
      <trkpt lat="41.0670630" lon="0.4479070">
        <ele>322.1</ele>
        <time>2020-08-06T12:36:04Z</time>
      </trkpt>
      <trkpt lat="41.0670200" lon="0.4478640">
        <ele>322.1</ele>
        <time>2020-08-06T12:36:06Z</time>
      </trkpt>
      <trkpt lat="41.0669840" lon="0.4478290">
        <ele>322.1</ele>
        <time>2020-08-06T12:36:07Z</time>
      </trkpt>
      <trkpt lat="41.0669410" lon="0.4477890">
        <ele>322.1</ele>
        <time>2020-08-06T12:36:08Z</time>
      </trkpt>
      <trkpt lat="41.0669060" lon="0.4477560">
        <ele>322.1</ele>
        <time>2020-08-06T12:36:09Z</time>
      </trkpt>
      <trkpt lat="41.0668770" lon="0.4477240">
        <ele>322.1</ele>
        <time>2020-08-06T12:36:10Z</time>
      </trkpt>
      <trkpt lat="41.0668290" lon="0.4476730">
        <ele>322.1</ele>
        <time>2020-08-06T12:36:12Z</time>
      </trkpt>
      <trkpt lat="41.0668000" lon="0.4476390">
        <ele>322.1</ele>
        <time>2020-08-06T12:36:13Z</time>
      </trkpt>
      <trkpt lat="41.0667430" lon="0.4475800">
        <ele>322.1</ele>
        <time>2020-08-06T12:36:15Z</time>
      </trkpt>
      <trkpt lat="41.0667050" lon="0.4475370">
        <ele>322.1</ele>
        <time>2020-08-06T12:36:16Z</time>
      </trkpt>
      <trkpt lat="41.0666750" lon="0.4475080">
        <ele>322.1</ele>
        <time>2020-08-06T12:36:17Z</time>
      </trkpt>
      <trkpt lat="41.0666400" lon="0.4474770">
        <ele>322.1</ele>
        <time>2020-08-06T12:36:18Z</time>
      </trkpt>
      <trkpt lat="41.0665800" lon="0.4474260">
        <ele>322.0</ele>
        <time>2020-08-06T12:36:20Z</time>
      </trkpt>
      <trkpt lat="41.0665470" lon="0.4473960">
        <ele>322.0</ele>
        <time>2020-08-06T12:36:21Z</time>
      </trkpt>
      <trkpt lat="41.0665100" lon="0.4473600">
        <ele>322.0</ele>
        <time>2020-08-06T12:36:22Z</time>
      </trkpt>
      <trkpt lat="41.0664810" lon="0.4473280">
        <ele>321.9</ele>
        <time>2020-08-06T12:36:23Z</time>
      </trkpt>
      <trkpt lat="41.0664520" lon="0.4472970">
        <ele>321.9</ele>
        <time>2020-08-06T12:36:24Z</time>
      </trkpt>
      <trkpt lat="41.0663910" lon="0.4472410">
        <ele>321.8</ele>
        <time>2020-08-06T12:36:26Z</time>
      </trkpt>
      <trkpt lat="41.0663620" lon="0.4472140">
        <ele>321.8</ele>
        <time>2020-08-06T12:36:27Z</time>
      </trkpt>
      <trkpt lat="41.0663310" lon="0.4471850">
        <ele>321.8</ele>
        <time>2020-08-06T12:36:28Z</time>
      </trkpt>
      <trkpt lat="41.0663010" lon="0.4471520">
        <ele>321.8</ele>
        <time>2020-08-06T12:36:29Z</time>
      </trkpt>
      <trkpt lat="41.0662440" lon="0.4470880">
        <ele>321.7</ele>
        <time>2020-08-06T12:36:31Z</time>
      </trkpt>
      <trkpt lat="41.0661970" lon="0.4470370">
        <ele>321.7</ele>
        <time>2020-08-06T12:36:33Z</time>
      </trkpt>
      <trkpt lat="41.0661560" lon="0.4469950">
        <ele>321.7</ele>
        <time>2020-08-06T12:36:35Z</time>
      </trkpt>
      <trkpt lat="41.0661180" lon="0.4469540">
        <ele>321.7</ele>
        <time>2020-08-06T12:36:36Z</time>
      </trkpt>
      <trkpt lat="41.0660720" lon="0.4469080">
        <ele>321.8</ele>
        <time>2020-08-06T12:36:38Z</time>
      </trkpt>
      <trkpt lat="41.0660470" lon="0.4468780">
        <ele>321.8</ele>
        <time>2020-08-06T12:36:40Z</time>
      </trkpt>
      <trkpt lat="41.0660340" lon="0.4468640">
        <ele>321.8</ele>
        <time>2020-08-06T12:36:41Z</time>
      </trkpt>
      <trkpt lat="41.0660240" lon="0.4468530">
        <ele>321.8</ele>
        <time>2020-08-06T12:36:42Z</time>
      </trkpt>
      <trkpt lat="41.0659920" lon="0.4468200">
        <ele>321.8</ele>
        <time>2020-08-06T12:36:44Z</time>
      </trkpt>
      <trkpt lat="41.0659830" lon="0.4468070">
        <ele>321.8</ele>
        <time>2020-08-06T12:36:45Z</time>
      </trkpt>
      <trkpt lat="41.0659680" lon="0.4467870">
        <ele>321.8</ele>
        <time>2020-08-06T12:36:46Z</time>
      </trkpt>
      <trkpt lat="41.0659570" lon="0.4467720">
        <ele>321.9</ele>
        <time>2020-08-06T12:36:47Z</time>
      </trkpt>
      <trkpt lat="41.0659420" lon="0.4467550">
        <ele>321.9</ele>
        <time>2020-08-06T12:36:48Z</time>
      </trkpt>
      <trkpt lat="41.0659240" lon="0.4467340">
        <ele>321.9</ele>
        <time>2020-08-06T12:36:49Z</time>
      </trkpt>
      <trkpt lat="41.0658890" lon="0.4466950">
        <ele>322.0</ele>
        <time>2020-08-06T12:36:51Z</time>
      </trkpt>
      <trkpt lat="41.0658610" lon="0.4466670">
        <ele>322.0</ele>
        <time>2020-08-06T12:36:52Z</time>
      </trkpt>
      <trkpt lat="41.0658390" lon="0.4466460">
        <ele>322.1</ele>
        <time>2020-08-06T12:36:53Z</time>
      </trkpt>
      <trkpt lat="41.0657950" lon="0.4466080">
        <ele>322.1</ele>
        <time>2020-08-06T12:36:55Z</time>
      </trkpt>
      <trkpt lat="41.0657570" lon="0.4465720">
        <ele>322.2</ele>
        <time>2020-08-06T12:36:57Z</time>
      </trkpt>
      <trkpt lat="41.0657240" lon="0.4465440">
        <ele>322.3</ele>
        <time>2020-08-06T12:36:58Z</time>
      </trkpt>
      <trkpt lat="41.0656770" lon="0.4465050">
        <ele>322.4</ele>
        <time>2020-08-06T12:37:00Z</time>
      </trkpt>
      <trkpt lat="41.0656480" lon="0.4464820">
        <ele>322.5</ele>
        <time>2020-08-06T12:37:01Z</time>
      </trkpt>
      <trkpt lat="41.0656210" lon="0.4464630">
        <ele>322.6</ele>
        <time>2020-08-06T12:37:02Z</time>
      </trkpt>
      <trkpt lat="41.0655790" lon="0.4464280">
        <ele>322.7</ele>
        <time>2020-08-06T12:37:04Z</time>
      </trkpt>
      <trkpt lat="41.0655520" lon="0.4464000">
        <ele>322.8</ele>
        <time>2020-08-06T12:37:05Z</time>
      </trkpt>
      <trkpt lat="41.0655250" lon="0.4463680">
        <ele>322.9</ele>
        <time>2020-08-06T12:37:07Z</time>
      </trkpt>
      <trkpt lat="41.0654990" lon="0.4463420">
        <ele>323.0</ele>
        <time>2020-08-06T12:37:08Z</time>
      </trkpt>
      <trkpt lat="41.0654720" lon="0.4463100">
        <ele>323.1</ele>
        <time>2020-08-06T12:37:09Z</time>
      </trkpt>
      <trkpt lat="41.0653910" lon="0.4462030">
        <ele>323.5</ele>
        <time>2020-08-06T12:37:11Z</time>
      </trkpt>
      <trkpt lat="41.0653230" lon="0.4461090">
        <ele>323.8</ele>
        <time>2020-08-06T12:37:12Z</time>
      </trkpt>
      <trkpt lat="41.0652660" lon="0.4460380">
        <ele>324.1</ele>
        <time>2020-08-06T12:37:14Z</time>
      </trkpt>
      <trkpt lat="41.0652230" lon="0.4459980">
        <ele>324.3</ele>
        <time>2020-08-06T12:37:15Z</time>
      </trkpt>
      <trkpt lat="41.0651900" lon="0.4459620">
        <ele>324.5</ele>
        <time>2020-08-06T12:37:16Z</time>
      </trkpt>
      <trkpt lat="41.0651610" lon="0.4459310">
        <ele>324.7</ele>
        <time>2020-08-06T12:37:17Z</time>
      </trkpt>
      <trkpt lat="41.0651280" lon="0.4458870">
        <ele>324.9</ele>
        <time>2020-08-06T12:37:19Z</time>
      </trkpt>
      <trkpt lat="41.0651040" lon="0.4458520">
        <ele>325.0</ele>
        <time>2020-08-06T12:37:20Z</time>
      </trkpt>
      <trkpt lat="41.0650850" lon="0.4458240">
        <ele>325.2</ele>
        <time>2020-08-06T12:37:21Z</time>
      </trkpt>
      <trkpt lat="41.0650580" lon="0.4457970">
        <ele>325.5</ele>
        <time>2020-08-06T12:37:23Z</time>
      </trkpt>
      <trkpt lat="41.0650300" lon="0.4457600">
        <ele>325.8</ele>
        <time>2020-08-06T12:37:24Z</time>
      </trkpt>
      <trkpt lat="41.0649880" lon="0.4457220">
        <ele>326.2</ele>
        <time>2020-08-06T12:37:26Z</time>
      </trkpt>
      <trkpt lat="41.0649640" lon="0.4457050">
        <ele>326.3</ele>
        <time>2020-08-06T12:37:27Z</time>
      </trkpt>
      <trkpt lat="41.0649270" lon="0.4456750">
        <ele>326.6</ele>
        <time>2020-08-06T12:37:29Z</time>
      </trkpt>
      <trkpt lat="41.0649020" lon="0.4456540">
        <ele>326.7</ele>
        <time>2020-08-06T12:37:30Z</time>
      </trkpt>
      <trkpt lat="41.0648770" lon="0.4456340">
        <ele>326.9</ele>
        <time>2020-08-06T12:37:31Z</time>
      </trkpt>
      <trkpt lat="41.0648520" lon="0.4456070">
        <ele>327.1</ele>
        <time>2020-08-06T12:37:32Z</time>
      </trkpt>
      <trkpt lat="41.0648420" lon="0.4455990">
        <ele>327.1</ele>
        <time>2020-08-06T12:37:33Z</time>
      </trkpt>
      <trkpt lat="41.0648240" lon="0.4455840">
        <ele>327.2</ele>
        <time>2020-08-06T12:37:34Z</time>
      </trkpt>
      <trkpt lat="41.0647930" lon="0.4455520">
        <ele>327.4</ele>
        <time>2020-08-06T12:37:36Z</time>
      </trkpt>
      <trkpt lat="41.0647700" lon="0.4455290">
        <ele>327.6</ele>
        <time>2020-08-06T12:37:37Z</time>
      </trkpt>
      <trkpt lat="41.0647430" lon="0.4454900">
        <ele>327.8</ele>
        <time>2020-08-06T12:37:39Z</time>
      </trkpt>
      <trkpt lat="41.0647280" lon="0.4454690">
        <ele>327.9</ele>
        <time>2020-08-06T12:37:40Z</time>
      </trkpt>
      <trkpt lat="41.0646930" lon="0.4454310">
        <ele>328.2</ele>
        <time>2020-08-06T12:37:42Z</time>
      </trkpt>
      <trkpt lat="41.0646690" lon="0.4454110">
        <ele>328.3</ele>
        <time>2020-08-06T12:37:43Z</time>
      </trkpt>
      <trkpt lat="41.0646470" lon="0.4453920">
        <ele>328.5</ele>
        <time>2020-08-06T12:37:44Z</time>
      </trkpt>
      <trkpt lat="41.0646110" lon="0.4453550">
        <ele>328.7</ele>
        <time>2020-08-06T12:37:46Z</time>
      </trkpt>
      <trkpt lat="41.0645820" lon="0.4453290">
        <ele>328.9</ele>
        <time>2020-08-06T12:37:47Z</time>
      </trkpt>
      <trkpt lat="41.0645440" lon="0.4452880">
        <ele>329.2</ele>
        <time>2020-08-06T12:37:49Z</time>
      </trkpt>
      <trkpt lat="41.0645150" lon="0.4452550">
        <ele>329.4</ele>
        <time>2020-08-06T12:37:50Z</time>
      </trkpt>
      <trkpt lat="41.0644820" lon="0.4452180">
        <ele>329.7</ele>
        <time>2020-08-06T12:37:52Z</time>
      </trkpt>
      <trkpt lat="41.0644440" lon="0.4451730">
        <ele>329.9</ele>
        <time>2020-08-06T12:37:54Z</time>
      </trkpt>
      <trkpt lat="41.0644260" lon="0.4451460">
        <ele>330.1</ele>
        <time>2020-08-06T12:37:55Z</time>
      </trkpt>
      <trkpt lat="41.0643990" lon="0.4451090">
        <ele>330.3</ele>
        <time>2020-08-06T12:37:57Z</time>
      </trkpt>
      <trkpt lat="41.0643700" lon="0.4450780">
        <ele>330.5</ele>
        <time>2020-08-06T12:37:58Z</time>
      </trkpt>
      <trkpt lat="41.0643330" lon="0.4450320">
        <ele>330.8</ele>
        <time>2020-08-06T12:38:00Z</time>
      </trkpt>
      <trkpt lat="41.0643030" lon="0.4449970">
        <ele>331.0</ele>
        <time>2020-08-06T12:38:01Z</time>
      </trkpt>
      <trkpt lat="41.0642910" lon="0.4449850">
        <ele>331.0</ele>
        <time>2020-08-06T12:38:02Z</time>
      </trkpt>
      <trkpt lat="41.0642700" lon="0.4449620">
        <ele>331.2</ele>
        <time>2020-08-06T12:38:03Z</time>
      </trkpt>
      <trkpt lat="41.0642400" lon="0.4449270">
        <ele>331.4</ele>
        <time>2020-08-06T12:38:05Z</time>
      </trkpt>
      <trkpt lat="41.0642070" lon="0.4448910">
        <ele>331.6</ele>
        <time>2020-08-06T12:38:06Z</time>
      </trkpt>
      <trkpt lat="41.0641850" lon="0.4448710">
        <ele>331.7</ele>
        <time>2020-08-06T12:38:07Z</time>
      </trkpt>
      <trkpt lat="41.0641420" lon="0.4448310">
        <ele>332.0</ele>
        <time>2020-08-06T12:38:09Z</time>
      </trkpt>
      <trkpt lat="41.0641200" lon="0.4448140">
        <ele>332.1</ele>
        <time>2020-08-06T12:38:10Z</time>
      </trkpt>
      <trkpt lat="41.0640850" lon="0.4447830">
        <ele>332.3</ele>
        <time>2020-08-06T12:38:12Z</time>
      </trkpt>
      <trkpt lat="41.0640620" lon="0.4447600">
        <ele>332.5</ele>
        <time>2020-08-06T12:38:13Z</time>
      </trkpt>
      <trkpt lat="41.0640330" lon="0.4447320">
        <ele>332.7</ele>
        <time>2020-08-06T12:38:14Z</time>
      </trkpt>
      <trkpt lat="41.0640240" lon="0.4447240">
        <ele>332.7</ele>
        <time>2020-08-06T12:38:15Z</time>
      </trkpt>
      <trkpt lat="41.0639940" lon="0.4446960">
        <ele>332.9</ele>
        <time>2020-08-06T12:38:17Z</time>
      </trkpt>
      <trkpt lat="41.0639670" lon="0.4446730">
        <ele>333.0</ele>
        <time>2020-08-06T12:38:18Z</time>
      </trkpt>
      <trkpt lat="41.0639450" lon="0.4446510">
        <ele>333.2</ele>
        <time>2020-08-06T12:38:19Z</time>
      </trkpt>
      <trkpt lat="41.0639110" lon="0.4446180">
        <ele>333.4</ele>
        <time>2020-08-06T12:38:21Z</time>
      </trkpt>
      <trkpt lat="41.0638890" lon="0.4445950">
        <ele>333.5</ele>
        <time>2020-08-06T12:38:22Z</time>
      </trkpt>
      <trkpt lat="41.0638550" lon="0.4445550">
        <ele>333.7</ele>
        <time>2020-08-06T12:38:24Z</time>
      </trkpt>
      <trkpt lat="41.0638250" lon="0.4445200">
        <ele>333.9</ele>
        <time>2020-08-06T12:38:26Z</time>
      </trkpt>
      <trkpt lat="41.0638020" lon="0.4444920">
        <ele>334.1</ele>
        <time>2020-08-06T12:38:27Z</time>
      </trkpt>
      <trkpt lat="41.0637930" lon="0.4444830">
        <ele>334.1</ele>
        <time>2020-08-06T12:38:28Z</time>
      </trkpt>
      <trkpt lat="41.0637540" lon="0.4444450">
        <ele>334.4</ele>
        <time>2020-08-06T12:38:30Z</time>
      </trkpt>
      <trkpt lat="41.0637290" lon="0.4444230">
        <ele>334.5</ele>
        <time>2020-08-06T12:38:31Z</time>
      </trkpt>
      <trkpt lat="41.0636920" lon="0.4443890">
        <ele>334.7</ele>
        <time>2020-08-06T12:38:33Z</time>
      </trkpt>
      <trkpt lat="41.0636640" lon="0.4443580">
        <ele>334.9</ele>
        <time>2020-08-06T12:38:34Z</time>
      </trkpt>
      <trkpt lat="41.0636400" lon="0.4443290">
        <ele>335.1</ele>
        <time>2020-08-06T12:38:35Z</time>
      </trkpt>
      <trkpt lat="41.0635940" lon="0.4442820">
        <ele>335.4</ele>
        <time>2020-08-06T12:38:37Z</time>
      </trkpt>
      <trkpt lat="41.0635560" lon="0.4442370">
        <ele>335.6</ele>
        <time>2020-08-06T12:38:39Z</time>
      </trkpt>
      <trkpt lat="41.0635360" lon="0.4442130">
        <ele>335.8</ele>
        <time>2020-08-06T12:38:40Z</time>
      </trkpt>
      <trkpt lat="41.0635050" lon="0.4441760">
        <ele>336.0</ele>
        <time>2020-08-06T12:38:42Z</time>
      </trkpt>
      <trkpt lat="41.0634760" lon="0.4441450">
        <ele>336.1</ele>
        <time>2020-08-06T12:38:43Z</time>
      </trkpt>
      <trkpt lat="41.0634650" lon="0.4441340">
        <ele>336.2</ele>
        <time>2020-08-06T12:38:44Z</time>
      </trkpt>
      <trkpt lat="41.0634450" lon="0.4441140">
        <ele>336.3</ele>
        <time>2020-08-06T12:38:45Z</time>
      </trkpt>
      <trkpt lat="41.0634050" lon="0.4440730">
        <ele>336.5</ele>
        <time>2020-08-06T12:38:47Z</time>
      </trkpt>
      <trkpt lat="41.0633680" lon="0.4440370">
        <ele>336.7</ele>
        <time>2020-08-06T12:38:49Z</time>
      </trkpt>
      <trkpt lat="41.0633490" lon="0.4440170">
        <ele>336.9</ele>
        <time>2020-08-06T12:38:50Z</time>
      </trkpt>
      <trkpt lat="41.0633060" lon="0.4439760">
        <ele>337.1</ele>
        <time>2020-08-06T12:38:52Z</time>
      </trkpt>
      <trkpt lat="41.0632860" lon="0.4439590">
        <ele>337.2</ele>
        <time>2020-08-06T12:38:53Z</time>
      </trkpt>
      <trkpt lat="41.0632510" lon="0.4439210">
        <ele>337.4</ele>
        <time>2020-08-06T12:38:55Z</time>
      </trkpt>
      <trkpt lat="41.0632130" lon="0.4438830">
        <ele>337.6</ele>
        <time>2020-08-06T12:38:57Z</time>
      </trkpt>
      <trkpt lat="41.0631870" lon="0.4438510">
        <ele>337.8</ele>
        <time>2020-08-06T12:38:58Z</time>
      </trkpt>
      <trkpt lat="41.0631790" lon="0.4438400">
        <ele>337.8</ele>
        <time>2020-08-06T12:38:59Z</time>
      </trkpt>
      <trkpt lat="41.0631400" lon="0.4437980">
        <ele>338.0</ele>
        <time>2020-08-06T12:39:01Z</time>
      </trkpt>
      <trkpt lat="41.0631200" lon="0.4437700">
        <ele>338.1</ele>
        <time>2020-08-06T12:39:02Z</time>
      </trkpt>
      <trkpt lat="41.0630930" lon="0.4437380">
        <ele>338.2</ele>
        <time>2020-08-06T12:39:03Z</time>
      </trkpt>
      <trkpt lat="41.0630820" lon="0.4437270">
        <ele>338.3</ele>
        <time>2020-08-06T12:39:04Z</time>
      </trkpt>
      <trkpt lat="41.0630650" lon="0.4437060">
        <ele>338.3</ele>
        <time>2020-08-06T12:39:05Z</time>
      </trkpt>
      <trkpt lat="41.0630370" lon="0.4436750">
        <ele>338.4</ele>
        <time>2020-08-06T12:39:07Z</time>
      </trkpt>
      <trkpt lat="41.0630100" lon="0.4436470">
        <ele>338.5</ele>
        <time>2020-08-06T12:39:08Z</time>
      </trkpt>
      <trkpt lat="41.0629840" lon="0.4436200">
        <ele>338.6</ele>
        <time>2020-08-06T12:39:09Z</time>
      </trkpt>
      <trkpt lat="41.0629650" lon="0.4435980">
        <ele>338.7</ele>
        <time>2020-08-06T12:39:10Z</time>
      </trkpt>
      <trkpt lat="41.0629300" lon="0.4435450">
        <ele>338.9</ele>
        <time>2020-08-06T12:39:12Z</time>
      </trkpt>
      <trkpt lat="41.0629130" lon="0.4435170">
        <ele>338.9</ele>
        <time>2020-08-06T12:39:13Z</time>
      </trkpt>
      <trkpt lat="41.0628920" lon="0.4434940">
        <ele>339.0</ele>
        <time>2020-08-06T12:39:14Z</time>
      </trkpt>
      <trkpt lat="41.0628560" lon="0.4434630">
        <ele>339.2</ele>
        <time>2020-08-06T12:39:16Z</time>
      </trkpt>
      <trkpt lat="41.0628430" lon="0.4434520">
        <ele>339.2</ele>
        <time>2020-08-06T12:39:17Z</time>
      </trkpt>
      <trkpt lat="41.0628280" lon="0.4434390">
        <ele>339.2</ele>
        <time>2020-08-06T12:39:18Z</time>
      </trkpt>
      <trkpt lat="41.0628050" lon="0.4434130">
        <ele>339.3</ele>
        <time>2020-08-06T12:39:20Z</time>
      </trkpt>
      <trkpt lat="41.0627950" lon="0.4434030">
        <ele>339.4</ele>
        <time>2020-08-06T12:39:21Z</time>
      </trkpt>
      <trkpt lat="41.0627700" lon="0.4433720">
        <ele>339.5</ele>
        <time>2020-08-06T12:39:22Z</time>
      </trkpt>
      <trkpt lat="41.0627590" lon="0.4433570">
        <ele>339.5</ele>
        <time>2020-08-06T12:39:24Z</time>
      </trkpt>
      <trkpt lat="41.0627470" lon="0.4433420">
        <ele>339.6</ele>
        <time>2020-08-06T12:39:25Z</time>
      </trkpt>
      <trkpt lat="41.0627360" lon="0.4433270">
        <ele>339.6</ele>
        <time>2020-08-06T12:39:26Z</time>
      </trkpt>
      <trkpt lat="41.0627100" lon="0.4433000">
        <ele>339.7</ele>
        <time>2020-08-06T12:39:27Z</time>
      </trkpt>
      <trkpt lat="41.0627010" lon="0.4432920">
        <ele>339.8</ele>
        <time>2020-08-06T12:39:28Z</time>
      </trkpt>
      <trkpt lat="41.0626710" lon="0.4432620">
        <ele>339.9</ele>
        <time>2020-08-06T12:39:30Z</time>
      </trkpt>
      <trkpt lat="41.0626530" lon="0.4432440">
        <ele>340.0</ele>
        <time>2020-08-06T12:39:31Z</time>
      </trkpt>
      <trkpt lat="41.0626180" lon="0.4432160">
        <ele>340.1</ele>
        <time>2020-08-06T12:39:33Z</time>
      </trkpt>
      <trkpt lat="41.0625910" lon="0.4431950">
        <ele>340.2</ele>
        <time>2020-08-06T12:39:34Z</time>
      </trkpt>
      <trkpt lat="41.0625440" lon="0.4431620">
        <ele>340.4</ele>
        <time>2020-08-06T12:39:36Z</time>
      </trkpt>
      <trkpt lat="41.0625200" lon="0.4431440">
        <ele>340.5</ele>
        <time>2020-08-06T12:39:37Z</time>
      </trkpt>
      <trkpt lat="41.0624790" lon="0.4431170">
        <ele>340.6</ele>
        <time>2020-08-06T12:39:39Z</time>
      </trkpt>
      <trkpt lat="41.0624480" lon="0.4430970">
        <ele>340.7</ele>
        <time>2020-08-06T12:39:40Z</time>
      </trkpt>
      <trkpt lat="41.0624170" lon="0.4430760">
        <ele>340.8</ele>
        <time>2020-08-06T12:39:41Z</time>
      </trkpt>
      <trkpt lat="41.0624070" lon="0.4430710">
        <ele>340.8</ele>
        <time>2020-08-06T12:39:42Z</time>
      </trkpt>
      <trkpt lat="41.0623630" lon="0.4430450">
        <ele>340.9</ele>
        <time>2020-08-06T12:39:44Z</time>
      </trkpt>
      <trkpt lat="41.0623500" lon="0.4430370">
        <ele>340.9</ele>
        <time>2020-08-06T12:39:45Z</time>
      </trkpt>
      <trkpt lat="41.0623360" lon="0.4430300">
        <ele>341.0</ele>
        <time>2020-08-06T12:39:46Z</time>
      </trkpt>
      <trkpt lat="41.0622910" lon="0.4430120">
        <ele>341.1</ele>
        <time>2020-08-06T12:39:48Z</time>
      </trkpt>
      <trkpt lat="41.0622750" lon="0.4430050">
        <ele>341.1</ele>
        <time>2020-08-06T12:39:49Z</time>
      </trkpt>
      <trkpt lat="41.0622580" lon="0.4429980">
        <ele>341.2</ele>
        <time>2020-08-06T12:39:50Z</time>
      </trkpt>
      <trkpt lat="41.0622350" lon="0.4429910">
        <ele>341.3</ele>
        <time>2020-08-06T12:39:51Z</time>
      </trkpt>
      <trkpt lat="41.0622010" lon="0.4429850">
        <ele>341.4</ele>
        <time>2020-08-06T12:39:53Z</time>
      </trkpt>
      <trkpt lat="41.0621710" lon="0.4429770">
        <ele>341.4</ele>
        <time>2020-08-06T12:39:54Z</time>
      </trkpt>
      <trkpt lat="41.0621460" lon="0.4429720">
        <ele>341.5</ele>
        <time>2020-08-06T12:39:55Z</time>
      </trkpt>
      <trkpt lat="41.0621050" lon="0.4429620">
        <ele>341.6</ele>
        <time>2020-08-06T12:39:57Z</time>
      </trkpt>
      <trkpt lat="41.0620760" lon="0.4429550">
        <ele>341.7</ele>
        <time>2020-08-06T12:39:58Z</time>
      </trkpt>
      <trkpt lat="41.0620390" lon="0.4429420">
        <ele>341.8</ele>
        <time>2020-08-06T12:40:00Z</time>
      </trkpt>
      <trkpt lat="41.0620040" lon="0.4429260">
        <ele>341.9</ele>
        <time>2020-08-06T12:40:01Z</time>
      </trkpt>
      <trkpt lat="41.0619920" lon="0.4429200">
        <ele>341.9</ele>
        <time>2020-08-06T12:40:02Z</time>
      </trkpt>
      <trkpt lat="41.0619680" lon="0.4429080">
        <ele>342.0</ele>
        <time>2020-08-06T12:40:03Z</time>
      </trkpt>
      <trkpt lat="41.0619250" lon="0.4428850">
        <ele>342.1</ele>
        <time>2020-08-06T12:40:05Z</time>
      </trkpt>
      <trkpt lat="41.0618890" lon="0.4428660">
        <ele>342.2</ele>
        <time>2020-08-06T12:40:06Z</time>
      </trkpt>
      <trkpt lat="41.0618470" lon="0.4428400">
        <ele>342.4</ele>
        <time>2020-08-06T12:40:08Z</time>
      </trkpt>
      <trkpt lat="41.0618140" lon="0.4428230">
        <ele>342.5</ele>
        <time>2020-08-06T12:40:09Z</time>
      </trkpt>
      <trkpt lat="41.0617770" lon="0.4428070">
        <ele>342.6</ele>
        <time>2020-08-06T12:40:11Z</time>
      </trkpt>
      <trkpt lat="41.0617360" lon="0.4427920">
        <ele>342.7</ele>
        <time>2020-08-06T12:40:12Z</time>
      </trkpt>
      <trkpt lat="41.0617070" lon="0.4427830">
        <ele>342.8</ele>
        <time>2020-08-06T12:40:13Z</time>
      </trkpt>
      <trkpt lat="41.0616790" lon="0.4427730">
        <ele>342.9</ele>
        <time>2020-08-06T12:40:14Z</time>
      </trkpt>
      <trkpt lat="41.0616550" lon="0.4427650">
        <ele>342.9</ele>
        <time>2020-08-06T12:40:15Z</time>
      </trkpt>
      <trkpt lat="41.0616110" lon="0.4427450">
        <ele>343.1</ele>
        <time>2020-08-06T12:40:17Z</time>
      </trkpt>
      <trkpt lat="41.0615820" lon="0.4427300">
        <ele>343.2</ele>
        <time>2020-08-06T12:40:18Z</time>
      </trkpt>
      <trkpt lat="41.0615510" lon="0.4427160">
        <ele>343.3</ele>
        <time>2020-08-06T12:40:19Z</time>
      </trkpt>
      <trkpt lat="41.0615170" lon="0.4426990">
        <ele>343.4</ele>
        <time>2020-08-06T12:40:20Z</time>
      </trkpt>
      <trkpt lat="41.0614700" lon="0.4426710">
        <ele>343.5</ele>
        <time>2020-08-06T12:40:22Z</time>
      </trkpt>
      <trkpt lat="41.0614060" lon="0.4426330">
        <ele>343.8</ele>
        <time>2020-08-06T12:40:23Z</time>
      </trkpt>
      <trkpt lat="41.0613260" lon="0.4425950">
        <ele>344.0</ele>
        <time>2020-08-06T12:40:25Z</time>
      </trkpt>
      <trkpt lat="41.0612840" lon="0.4425740">
        <ele>344.1</ele>
        <time>2020-08-06T12:40:26Z</time>
      </trkpt>
      <trkpt lat="41.0612360" lon="0.4425500">
        <ele>344.3</ele>
        <time>2020-08-06T12:40:27Z</time>
      </trkpt>
      <trkpt lat="41.0611900" lon="0.4425300">
        <ele>344.4</ele>
        <time>2020-08-06T12:40:29Z</time>
      </trkpt>
      <trkpt lat="41.0611590" lon="0.4425150">
        <ele>344.5</ele>
        <time>2020-08-06T12:40:30Z</time>
      </trkpt>
      <trkpt lat="41.0611220" lon="0.4425000">
        <ele>344.6</ele>
        <time>2020-08-06T12:40:31Z</time>
      </trkpt>
      <trkpt lat="41.0610940" lon="0.4424890">
        <ele>344.7</ele>
        <time>2020-08-06T12:40:32Z</time>
      </trkpt>
      <trkpt lat="41.0610680" lon="0.4424760">
        <ele>344.8</ele>
        <time>2020-08-06T12:40:33Z</time>
      </trkpt>
      <trkpt lat="41.0610310" lon="0.4424610">
        <ele>344.9</ele>
        <time>2020-08-06T12:40:35Z</time>
      </trkpt>
      <trkpt lat="41.0610010" lon="0.4424400">
        <ele>345.0</ele>
        <time>2020-08-06T12:40:36Z</time>
      </trkpt>
      <trkpt lat="41.0609730" lon="0.4424190">
        <ele>345.1</ele>
        <time>2020-08-06T12:40:37Z</time>
      </trkpt>
      <trkpt lat="41.0609410" lon="0.4423970">
        <ele>345.3</ele>
        <time>2020-08-06T12:40:39Z</time>
      </trkpt>
      <trkpt lat="41.0608990" lon="0.4423740">
        <ele>345.4</ele>
        <time>2020-08-06T12:40:40Z</time>
      </trkpt>
      <trkpt lat="41.0608610" lon="0.4423580">
        <ele>345.6</ele>
        <time>2020-08-06T12:40:42Z</time>
      </trkpt>
      <trkpt lat="41.0608310" lon="0.4423470">
        <ele>345.7</ele>
        <time>2020-08-06T12:40:43Z</time>
      </trkpt>
      <trkpt lat="41.0608030" lon="0.4423360">
        <ele>345.8</ele>
        <time>2020-08-06T12:40:44Z</time>
      </trkpt>
      <trkpt lat="41.0607790" lon="0.4423240">
        <ele>345.9</ele>
        <time>2020-08-06T12:40:45Z</time>
      </trkpt>
      <trkpt lat="41.0607480" lon="0.4423050">
        <ele>346.0</ele>
        <time>2020-08-06T12:40:47Z</time>
      </trkpt>
      <trkpt lat="41.0607170" lon="0.4422870">
        <ele>346.1</ele>
        <time>2020-08-06T12:40:48Z</time>
      </trkpt>
      <trkpt lat="41.0606970" lon="0.4422770">
        <ele>346.2</ele>
        <time>2020-08-06T12:40:49Z</time>
      </trkpt>
      <trkpt lat="41.0606700" lon="0.4422630">
        <ele>346.3</ele>
        <time>2020-08-06T12:40:51Z</time>
      </trkpt>
      <trkpt lat="41.0606510" lon="0.4422530">
        <ele>346.4</ele>
        <time>2020-08-06T12:40:52Z</time>
      </trkpt>
      <trkpt lat="41.0606260" lon="0.4422420">
        <ele>346.5</ele>
        <time>2020-08-06T12:40:54Z</time>
      </trkpt>
      <trkpt lat="41.0606030" lon="0.4422250">
        <ele>346.6</ele>
        <time>2020-08-06T12:40:55Z</time>
      </trkpt>
      <trkpt lat="41.0605940" lon="0.4422200">
        <ele>346.7</ele>
        <time>2020-08-06T12:40:56Z</time>
      </trkpt>
      <trkpt lat="41.0605540" lon="0.4421950">
        <ele>346.8</ele>
        <time>2020-08-06T12:40:58Z</time>
      </trkpt>
      <trkpt lat="41.0605380" lon="0.4421850">
        <ele>346.9</ele>
        <time>2020-08-06T12:40:59Z</time>
      </trkpt>
      <trkpt lat="41.0605030" lon="0.4421610">
        <ele>347.1</ele>
        <time>2020-08-06T12:41:00Z</time>
      </trkpt>
      <trkpt lat="41.0604710" lon="0.4421410">
        <ele>347.2</ele>
        <time>2020-08-06T12:41:01Z</time>
      </trkpt>
      <trkpt lat="41.0604410" lon="0.4421240">
        <ele>347.3</ele>
        <time>2020-08-06T12:41:02Z</time>
      </trkpt>
      <trkpt lat="41.0604160" lon="0.4421120">
        <ele>347.5</ele>
        <time>2020-08-06T12:41:03Z</time>
      </trkpt>
      <trkpt lat="41.0603820" lon="0.4420980">
        <ele>347.6</ele>
        <time>2020-08-06T12:41:05Z</time>
      </trkpt>
      <trkpt lat="41.0603520" lon="0.4420830">
        <ele>347.7</ele>
        <time>2020-08-06T12:41:06Z</time>
      </trkpt>
      <trkpt lat="41.0603170" lon="0.4420690">
        <ele>347.9</ele>
        <time>2020-08-06T12:41:07Z</time>
      </trkpt>
      <trkpt lat="41.0603040" lon="0.4420640">
        <ele>347.9</ele>
        <time>2020-08-06T12:41:08Z</time>
      </trkpt>
      <trkpt lat="41.0602450" lon="0.4420330">
        <ele>348.2</ele>
        <time>2020-08-06T12:41:10Z</time>
      </trkpt>
      <trkpt lat="41.0602160" lon="0.4420190">
        <ele>348.3</ele>
        <time>2020-08-06T12:41:12Z</time>
      </trkpt>
      <trkpt lat="41.0601870" lon="0.4420050">
        <ele>348.5</ele>
        <time>2020-08-06T12:41:13Z</time>
      </trkpt>
      <trkpt lat="41.0601380" lon="0.4419770">
        <ele>348.7</ele>
        <time>2020-08-06T12:41:15Z</time>
      </trkpt>
      <trkpt lat="41.0601130" lon="0.4419620">
        <ele>348.9</ele>
        <time>2020-08-06T12:41:16Z</time>
      </trkpt>
      <trkpt lat="41.0600830" lon="0.4419450">
        <ele>349.0</ele>
        <time>2020-08-06T12:41:17Z</time>
      </trkpt>
      <trkpt lat="41.0600740" lon="0.4419410">
        <ele>349.0</ele>
        <time>2020-08-06T12:41:18Z</time>
      </trkpt>
      <trkpt lat="41.0600500" lon="0.4419320">
        <ele>349.2</ele>
        <time>2020-08-06T12:41:19Z</time>
      </trkpt>
      <trkpt lat="41.0600060" lon="0.4419160">
        <ele>349.4</ele>
        <time>2020-08-06T12:41:21Z</time>
      </trkpt>
      <trkpt lat="41.0599870" lon="0.4419120">
        <ele>349.5</ele>
        <time>2020-08-06T12:41:22Z</time>
      </trkpt>
      <trkpt lat="41.0599400" lon="0.4419040">
        <ele>349.7</ele>
        <time>2020-08-06T12:41:24Z</time>
      </trkpt>
      <trkpt lat="41.0599060" lon="0.4418950">
        <ele>349.8</ele>
        <time>2020-08-06T12:41:25Z</time>
      </trkpt>
      <trkpt lat="41.0598950" lon="0.4418930">
        <ele>349.9</ele>
        <time>2020-08-06T12:41:26Z</time>
      </trkpt>
      <trkpt lat="41.0598560" lon="0.4418770">
        <ele>350.0</ele>
        <time>2020-08-06T12:41:28Z</time>
      </trkpt>
      <trkpt lat="41.0598180" lon="0.4418630">
        <ele>350.2</ele>
        <time>2020-08-06T12:41:30Z</time>
      </trkpt>
      <trkpt lat="41.0597920" lon="0.4418550">
        <ele>350.3</ele>
        <time>2020-08-06T12:41:31Z</time>
      </trkpt>
      <trkpt lat="41.0597510" lon="0.4418450">
        <ele>350.5</ele>
        <time>2020-08-06T12:41:33Z</time>
      </trkpt>
      <trkpt lat="41.0597220" lon="0.4418380">
        <ele>350.7</ele>
        <time>2020-08-06T12:41:34Z</time>
      </trkpt>
      <trkpt lat="41.0597110" lon="0.4418350">
        <ele>350.8</ele>
        <time>2020-08-06T12:41:35Z</time>
      </trkpt>
      <trkpt lat="41.0596940" lon="0.4418300">
        <ele>351.0</ele>
        <time>2020-08-06T12:41:36Z</time>
      </trkpt>
      <trkpt lat="41.0596550" lon="0.4418190">
        <ele>351.2</ele>
        <time>2020-08-06T12:41:38Z</time>
      </trkpt>
      <trkpt lat="41.0596370" lon="0.4418150">
        <ele>351.4</ele>
        <time>2020-08-06T12:41:39Z</time>
      </trkpt>
      <trkpt lat="41.0596190" lon="0.4418110">
        <ele>351.5</ele>
        <time>2020-08-06T12:41:40Z</time>
      </trkpt>
      <trkpt lat="41.0595770" lon="0.4418030">
        <ele>351.7</ele>
        <time>2020-08-06T12:41:42Z</time>
      </trkpt>
      <trkpt lat="41.0595420" lon="0.4417950">
        <ele>351.9</ele>
        <time>2020-08-06T12:41:44Z</time>
      </trkpt>
      <trkpt lat="41.0595140" lon="0.4417860">
        <ele>352.1</ele>
        <time>2020-08-06T12:41:45Z</time>
      </trkpt>
      <trkpt lat="41.0595040" lon="0.4417850">
        <ele>352.1</ele>
        <time>2020-08-06T12:41:46Z</time>
      </trkpt>
      <trkpt lat="41.0594690" lon="0.4417800">
        <ele>352.3</ele>
        <time>2020-08-06T12:41:48Z</time>
      </trkpt>
      <trkpt lat="41.0594400" lon="0.4417800">
        <ele>352.5</ele>
        <time>2020-08-06T12:41:49Z</time>
      </trkpt>
      <trkpt lat="41.0594180" lon="0.4417790">
        <ele>352.6</ele>
        <time>2020-08-06T12:41:50Z</time>
      </trkpt>
      <trkpt lat="41.0593820" lon="0.4417720">
        <ele>352.8</ele>
        <time>2020-08-06T12:41:52Z</time>
      </trkpt>
      <trkpt lat="41.0593550" lon="0.4417620">
        <ele>352.9</ele>
        <time>2020-08-06T12:41:53Z</time>
      </trkpt>
      <trkpt lat="41.0593320" lon="0.4417550">
        <ele>353.0</ele>
        <time>2020-08-06T12:41:54Z</time>
      </trkpt>
      <trkpt lat="41.0592890" lon="0.4417400">
        <ele>353.2</ele>
        <time>2020-08-06T12:41:56Z</time>
      </trkpt>
      <trkpt lat="41.0592470" lon="0.4417290">
        <ele>353.4</ele>
        <time>2020-08-06T12:41:58Z</time>
      </trkpt>
      <trkpt lat="41.0592180" lon="0.4417230">
        <ele>353.6</ele>
        <time>2020-08-06T12:41:59Z</time>
      </trkpt>
      <trkpt lat="41.0591970" lon="0.4417160">
        <ele>353.7</ele>
        <time>2020-08-06T12:42:00Z</time>
      </trkpt>
      <trkpt lat="41.0591620" lon="0.4417060">
        <ele>353.9</ele>
        <time>2020-08-06T12:42:02Z</time>
      </trkpt>
      <trkpt lat="41.0591310" lon="0.4416980">
        <ele>354.0</ele>
        <time>2020-08-06T12:42:03Z</time>
      </trkpt>
      <trkpt lat="41.0591000" lon="0.4416870">
        <ele>354.2</ele>
        <time>2020-08-06T12:42:05Z</time>
      </trkpt>
      <trkpt lat="41.0590670" lon="0.4416780">
        <ele>354.4</ele>
        <time>2020-08-06T12:42:06Z</time>
      </trkpt>
      <trkpt lat="41.0590470" lon="0.4416700">
        <ele>354.5</ele>
        <time>2020-08-06T12:42:07Z</time>
      </trkpt>
      <trkpt lat="41.0590160" lon="0.4416560">
        <ele>354.7</ele>
        <time>2020-08-06T12:42:09Z</time>
      </trkpt>
      <trkpt lat="41.0589900" lon="0.4416420">
        <ele>354.8</ele>
        <time>2020-08-06T12:42:10Z</time>
      </trkpt>
      <trkpt lat="41.0589630" lon="0.4416360">
        <ele>355.0</ele>
        <time>2020-08-06T12:42:11Z</time>
      </trkpt>
      <trkpt lat="41.0589170" lon="0.4416210">
        <ele>355.2</ele>
        <time>2020-08-06T12:42:13Z</time>
      </trkpt>
      <trkpt lat="41.0589020" lon="0.4416180">
        <ele>355.3</ele>
        <time>2020-08-06T12:42:14Z</time>
      </trkpt>
      <trkpt lat="41.0588860" lon="0.4416160">
        <ele>355.4</ele>
        <time>2020-08-06T12:42:15Z</time>
      </trkpt>
      <trkpt lat="41.0588350" lon="0.4416050">
        <ele>355.7</ele>
        <time>2020-08-06T12:42:17Z</time>
      </trkpt>
      <trkpt lat="41.0588200" lon="0.4416000">
        <ele>355.7</ele>
        <time>2020-08-06T12:42:18Z</time>
      </trkpt>
      <trkpt lat="41.0588040" lon="0.4415950">
        <ele>355.8</ele>
        <time>2020-08-06T12:42:19Z</time>
      </trkpt>
      <trkpt lat="41.0587730" lon="0.4415790">
        <ele>356.0</ele>
        <time>2020-08-06T12:42:20Z</time>
      </trkpt>
      <trkpt lat="41.0587630" lon="0.4415730">
        <ele>356.1</ele>
        <time>2020-08-06T12:42:21Z</time>
      </trkpt>
      <trkpt lat="41.0587260" lon="0.4415510">
        <ele>356.3</ele>
        <time>2020-08-06T12:42:23Z</time>
      </trkpt>
      <trkpt lat="41.0587060" lon="0.4415430">
        <ele>356.4</ele>
        <time>2020-08-06T12:42:24Z</time>
      </trkpt>
      <trkpt lat="41.0586780" lon="0.4415320">
        <ele>356.6</ele>
        <time>2020-08-06T12:42:26Z</time>
      </trkpt>
      <trkpt lat="41.0586640" lon="0.4415250">
        <ele>356.6</ele>
        <time>2020-08-06T12:42:27Z</time>
      </trkpt>
      <trkpt lat="41.0586490" lon="0.4415200">
        <ele>356.7</ele>
        <time>2020-08-06T12:42:28Z</time>
      </trkpt>
      <trkpt lat="41.0586370" lon="0.4415130">
        <ele>356.8</ele>
        <time>2020-08-06T12:42:29Z</time>
      </trkpt>
      <trkpt lat="41.0586200" lon="0.4415070">
        <ele>356.9</ele>
        <time>2020-08-06T12:42:31Z</time>
      </trkpt>
      <trkpt lat="41.0585970" lon="0.4415000">
        <ele>357.0</ele>
        <time>2020-08-06T12:42:32Z</time>
      </trkpt>
      <trkpt lat="41.0585730" lon="0.4414940">
        <ele>357.1</ele>
        <time>2020-08-06T12:42:34Z</time>
      </trkpt>
      <trkpt lat="41.0585360" lon="0.4414860">
        <ele>357.3</ele>
        <time>2020-08-06T12:42:35Z</time>
      </trkpt>
      <trkpt lat="41.0585210" lon="0.4414820">
        <ele>357.4</ele>
        <time>2020-08-06T12:42:36Z</time>
      </trkpt>
      <trkpt lat="41.0584920" lon="0.4414760">
        <ele>357.5</ele>
        <time>2020-08-06T12:42:37Z</time>
      </trkpt>
      <trkpt lat="41.0584630" lon="0.4414680">
        <ele>357.6</ele>
        <time>2020-08-06T12:42:38Z</time>
      </trkpt>
      <trkpt lat="41.0584240" lon="0.4414590">
        <ele>357.8</ele>
        <time>2020-08-06T12:42:39Z</time>
      </trkpt>
      <trkpt lat="41.0583920" lon="0.4414500">
        <ele>357.9</ele>
        <time>2020-08-06T12:42:41Z</time>
      </trkpt>
      <trkpt lat="41.0583590" lon="0.4414350">
        <ele>358.0</ele>
        <time>2020-08-06T12:42:42Z</time>
      </trkpt>
      <trkpt lat="41.0583170" lon="0.4414210">
        <ele>358.1</ele>
        <time>2020-08-06T12:42:44Z</time>
      </trkpt>
      <trkpt lat="41.0582850" lon="0.4414150">
        <ele>358.1</ele>
        <time>2020-08-06T12:42:45Z</time>
      </trkpt>
      <trkpt lat="41.0582380" lon="0.4414020">
        <ele>358.0</ele>
        <time>2020-08-06T12:42:47Z</time>
      </trkpt>
      <trkpt lat="41.0582240" lon="0.4413970">
        <ele>358.2</ele>
        <time>2020-08-06T12:42:48Z</time>
      </trkpt>
      <trkpt lat="41.0582110" lon="0.4413920">
        <ele>358.3</ele>
        <time>2020-08-06T12:42:49Z</time>
      </trkpt>
      <trkpt lat="41.0581810" lon="0.4413800">
        <ele>358.6</ele>
        <time>2020-08-06T12:42:50Z</time>
      </trkpt>
      <trkpt lat="41.0581710" lon="0.4413770">
        <ele>358.7</ele>
        <time>2020-08-06T12:42:51Z</time>
      </trkpt>
      <trkpt lat="41.0581570" lon="0.4413720">
        <ele>358.8</ele>
        <time>2020-08-06T12:42:52Z</time>
      </trkpt>
      <trkpt lat="41.0581350" lon="0.4413630">
        <ele>359.0</ele>
        <time>2020-08-06T12:42:54Z</time>
      </trkpt>
      <trkpt lat="41.0581110" lon="0.4413550">
        <ele>359.3</ele>
        <time>2020-08-06T12:42:55Z</time>
      </trkpt>
      <trkpt lat="41.0581000" lon="0.4413520">
        <ele>359.4</ele>
        <time>2020-08-06T12:42:56Z</time>
      </trkpt>
      <trkpt lat="41.0580880" lon="0.4413500">
        <ele>359.5</ele>
        <time>2020-08-06T12:42:57Z</time>
      </trkpt>
      <trkpt lat="41.0580740" lon="0.4413460">
        <ele>359.5</ele>
        <time>2020-08-06T12:42:58Z</time>
      </trkpt>
      <trkpt lat="41.0580230" lon="0.4413350">
        <ele>359.7</ele>
        <time>2020-08-06T12:43:00Z</time>
      </trkpt>
      <trkpt lat="41.0579910" lon="0.4413300">
        <ele>359.9</ele>
        <time>2020-08-06T12:43:01Z</time>
      </trkpt>
      <trkpt lat="41.0579400" lon="0.4413250">
        <ele>360.1</ele>
        <time>2020-08-06T12:43:03Z</time>
      </trkpt>
      <trkpt lat="41.0578950" lon="0.4413230">
        <ele>360.2</ele>
        <time>2020-08-06T12:43:05Z</time>
      </trkpt>
      <trkpt lat="41.0578630" lon="0.4413060">
        <ele>360.4</ele>
        <time>2020-08-06T12:43:07Z</time>
      </trkpt>
      <trkpt lat="41.0578320" lon="0.4412950">
        <ele>360.5</ele>
        <time>2020-08-06T12:43:08Z</time>
      </trkpt>
      <trkpt lat="41.0578120" lon="0.4412870">
        <ele>360.5</ele>
        <time>2020-08-06T12:43:09Z</time>
      </trkpt>
      <trkpt lat="41.0577840" lon="0.4412750">
        <ele>360.6</ele>
        <time>2020-08-06T12:43:11Z</time>
      </trkpt>
      <trkpt lat="41.0577590" lon="0.4412640">
        <ele>360.7</ele>
        <time>2020-08-06T12:43:12Z</time>
      </trkpt>
      <trkpt lat="41.0577380" lon="0.4412530">
        <ele>360.8</ele>
        <time>2020-08-06T12:43:14Z</time>
      </trkpt>
      <trkpt lat="41.0577190" lon="0.4412490">
        <ele>360.8</ele>
        <time>2020-08-06T12:43:15Z</time>
      </trkpt>
      <trkpt lat="41.0576990" lon="0.4412370">
        <ele>360.9</ele>
        <time>2020-08-06T12:43:17Z</time>
      </trkpt>
      <trkpt lat="41.0576890" lon="0.4412330">
        <ele>360.9</ele>
        <time>2020-08-06T12:43:18Z</time>
      </trkpt>
      <trkpt lat="41.0576830" lon="0.4412310">
        <ele>360.9</ele>
        <time>2020-08-06T12:43:19Z</time>
      </trkpt>
      <trkpt lat="41.0576670" lon="0.4412240">
        <ele>360.9</ele>
        <time>2020-08-06T12:43:21Z</time>
      </trkpt>
      <trkpt lat="41.0576540" lon="0.4412190">
        <ele>361.0</ele>
        <time>2020-08-06T12:43:22Z</time>
      </trkpt>
      <trkpt lat="41.0576440" lon="0.4412120">
        <ele>361.0</ele>
        <time>2020-08-06T12:43:23Z</time>
      </trkpt>
      <trkpt lat="41.0576250" lon="0.4412090">
        <ele>361.0</ele>
        <time>2020-08-06T12:43:25Z</time>
      </trkpt>
      <trkpt lat="41.0576110" lon="0.4412050">
        <ele>361.1</ele>
        <time>2020-08-06T12:43:26Z</time>
      </trkpt>
      <trkpt lat="41.0576000" lon="0.4412000">
        <ele>361.1</ele>
        <time>2020-08-06T12:43:27Z</time>
      </trkpt>
      <trkpt lat="41.0575920" lon="0.4411960">
        <ele>361.1</ele>
        <time>2020-08-06T12:43:28Z</time>
      </trkpt>
      <trkpt lat="41.0575610" lon="0.4411820">
        <ele>361.2</ele>
        <time>2020-08-06T12:43:30Z</time>
      </trkpt>
      <trkpt lat="41.0575550" lon="0.4411790">
        <ele>361.2</ele>
        <time>2020-08-06T12:43:31Z</time>
      </trkpt>
      <trkpt lat="41.0575280" lon="0.4411720">
        <ele>361.2</ele>
        <time>2020-08-06T12:43:33Z</time>
      </trkpt>
      <trkpt lat="41.0575130" lon="0.4411680">
        <ele>361.3</ele>
        <time>2020-08-06T12:43:34Z</time>
      </trkpt>
      <trkpt lat="41.0574960" lon="0.4411650">
        <ele>361.3</ele>
        <time>2020-08-06T12:43:35Z</time>
      </trkpt>
      <trkpt lat="41.0574590" lon="0.4411590">
        <ele>361.3</ele>
        <time>2020-08-06T12:43:37Z</time>
      </trkpt>
      <trkpt lat="41.0574120" lon="0.4411530">
        <ele>361.4</ele>
        <time>2020-08-06T12:43:39Z</time>
      </trkpt>
      <trkpt lat="41.0573850" lon="0.4411470">
        <ele>361.5</ele>
        <time>2020-08-06T12:43:40Z</time>
      </trkpt>
      <trkpt lat="41.0573530" lon="0.4411460">
        <ele>361.6</ele>
        <time>2020-08-06T12:43:41Z</time>
      </trkpt>
      <trkpt lat="41.0573230" lon="0.4411420">
        <ele>361.7</ele>
        <time>2020-08-06T12:43:42Z</time>
      </trkpt>
      <trkpt lat="41.0572880" lon="0.4411320">
        <ele>361.8</ele>
        <time>2020-08-06T12:43:44Z</time>
      </trkpt>
      <trkpt lat="41.0572560" lon="0.4411230">
        <ele>361.9</ele>
        <time>2020-08-06T12:43:46Z</time>
      </trkpt>
      <trkpt lat="41.0572190" lon="0.4411100">
        <ele>362.0</ele>
        <time>2020-08-06T12:43:47Z</time>
      </trkpt>
      <trkpt lat="41.0571840" lon="0.4410950">
        <ele>362.0</ele>
        <time>2020-08-06T12:43:48Z</time>
      </trkpt>
      <trkpt lat="41.0571570" lon="0.4410830">
        <ele>362.1</ele>
        <time>2020-08-06T12:43:49Z</time>
      </trkpt>
      <trkpt lat="41.0571190" lon="0.4410680">
        <ele>362.2</ele>
        <time>2020-08-06T12:43:51Z</time>
      </trkpt>
      <trkpt lat="41.0570870" lon="0.4410560">
        <ele>362.3</ele>
        <time>2020-08-06T12:43:52Z</time>
      </trkpt>
      <trkpt lat="41.0570520" lon="0.4410470">
        <ele>362.3</ele>
        <time>2020-08-06T12:43:53Z</time>
      </trkpt>
      <trkpt lat="41.0570200" lon="0.4410400">
        <ele>362.4</ele>
        <time>2020-08-06T12:43:54Z</time>
      </trkpt>
      <trkpt lat="41.0569730" lon="0.4410300">
        <ele>362.5</ele>
        <time>2020-08-06T12:43:56Z</time>
      </trkpt>
      <trkpt lat="41.0569430" lon="0.4410210">
        <ele>362.5</ele>
        <time>2020-08-06T12:43:57Z</time>
      </trkpt>
      <trkpt lat="41.0569130" lon="0.4410120">
        <ele>362.5</ele>
        <time>2020-08-06T12:43:58Z</time>
      </trkpt>
      <trkpt lat="41.0568860" lon="0.4410040">
        <ele>362.6</ele>
        <time>2020-08-06T12:43:59Z</time>
      </trkpt>
      <trkpt lat="41.0568340" lon="0.4409890">
        <ele>362.7</ele>
        <time>2020-08-06T12:44:01Z</time>
      </trkpt>
      <trkpt lat="41.0568040" lon="0.4409830">
        <ele>362.7</ele>
        <time>2020-08-06T12:44:02Z</time>
      </trkpt>
      <trkpt lat="41.0567740" lon="0.4409790">
        <ele>362.7</ele>
        <time>2020-08-06T12:44:03Z</time>
      </trkpt>
      <trkpt lat="41.0567450" lon="0.4409740">
        <ele>362.7</ele>
        <time>2020-08-06T12:44:04Z</time>
      </trkpt>
      <trkpt lat="41.0566820" lon="0.4409570">
        <ele>362.8</ele>
        <time>2020-08-06T12:44:06Z</time>
      </trkpt>
      <trkpt lat="41.0566470" lon="0.4409500">
        <ele>362.9</ele>
        <time>2020-08-06T12:44:07Z</time>
      </trkpt>
      <trkpt lat="41.0566010" lon="0.4409350">
        <ele>362.9</ele>
        <time>2020-08-06T12:44:09Z</time>
      </trkpt>
      <trkpt lat="41.0565660" lon="0.4409240">
        <ele>363.0</ele>
        <time>2020-08-06T12:44:10Z</time>
      </trkpt>
      <trkpt lat="41.0565350" lon="0.4409150">
        <ele>363.0</ele>
        <time>2020-08-06T12:44:11Z</time>
      </trkpt>
      <trkpt lat="41.0565240" lon="0.4409130">
        <ele>363.1</ele>
        <time>2020-08-06T12:44:12Z</time>
      </trkpt>
      <trkpt lat="41.0565060" lon="0.4409090">
        <ele>363.1</ele>
        <time>2020-08-06T12:44:13Z</time>
      </trkpt>
      <trkpt lat="41.0564890" lon="0.4409060">
        <ele>363.1</ele>
        <time>2020-08-06T12:44:14Z</time>
      </trkpt>
      <trkpt lat="41.0564570" lon="0.4409020">
        <ele>363.2</ele>
        <time>2020-08-06T12:44:16Z</time>
      </trkpt>
      <trkpt lat="41.0564510" lon="0.4409020">
        <ele>363.2</ele>
        <time>2020-08-06T12:44:17Z</time>
      </trkpt>
      <trkpt lat="41.0564360" lon="0.4409000">
        <ele>363.2</ele>
        <time>2020-08-06T12:44:18Z</time>
      </trkpt>
      <trkpt lat="41.0564220" lon="0.4409000">
        <ele>363.2</ele>
        <time>2020-08-06T12:44:19Z</time>
      </trkpt>
      <trkpt lat="41.0563940" lon="0.4408970">
        <ele>363.2</ele>
        <time>2020-08-06T12:44:20Z</time>
      </trkpt>
      <trkpt lat="41.0563780" lon="0.4408950">
        <ele>363.2</ele>
        <time>2020-08-06T12:44:22Z</time>
      </trkpt>
      <trkpt lat="41.0563610" lon="0.4408930">
        <ele>363.2</ele>
        <time>2020-08-06T12:44:23Z</time>
      </trkpt>
      <trkpt lat="41.0563440" lon="0.4408910">
        <ele>363.2</ele>
        <time>2020-08-06T12:44:24Z</time>
      </trkpt>
      <trkpt lat="41.0563280" lon="0.4408870">
        <ele>363.3</ele>
        <time>2020-08-06T12:44:25Z</time>
      </trkpt>
      <trkpt lat="41.0563110" lon="0.4408850">
        <ele>363.3</ele>
        <time>2020-08-06T12:44:26Z</time>
      </trkpt>
      <trkpt lat="41.0562870" lon="0.4408810">
        <ele>363.3</ele>
        <time>2020-08-06T12:44:28Z</time>
      </trkpt>
      <trkpt lat="41.0562780" lon="0.4408790">
        <ele>363.3</ele>
        <time>2020-08-06T12:44:29Z</time>
      </trkpt>
      <trkpt lat="41.0562680" lon="0.4408770">
        <ele>363.3</ele>
        <time>2020-08-06T12:44:30Z</time>
      </trkpt>
      <trkpt lat="41.0562360" lon="0.4408670">
        <ele>363.3</ele>
        <time>2020-08-06T12:44:32Z</time>
      </trkpt>
      <trkpt lat="41.0562030" lon="0.4408520">
        <ele>363.3</ele>
        <time>2020-08-06T12:44:33Z</time>
      </trkpt>
      <trkpt lat="41.0561900" lon="0.4408460">
        <ele>363.3</ele>
        <time>2020-08-06T12:44:34Z</time>
      </trkpt>
      <trkpt lat="41.0561500" lon="0.4408240">
        <ele>363.3</ele>
        <time>2020-08-06T12:44:36Z</time>
      </trkpt>
      <trkpt lat="41.0561350" lon="0.4408150">
        <ele>363.3</ele>
        <time>2020-08-06T12:44:37Z</time>
      </trkpt>
      <trkpt lat="41.0561210" lon="0.4408070">
        <ele>363.3</ele>
        <time>2020-08-06T12:44:38Z</time>
      </trkpt>
      <trkpt lat="41.0560970" lon="0.4407910">
        <ele>363.3</ele>
        <time>2020-08-06T12:44:39Z</time>
      </trkpt>
      <trkpt lat="41.0560490" lon="0.4407570">
        <ele>363.3</ele>
        <time>2020-08-06T12:44:41Z</time>
      </trkpt>
      <trkpt lat="41.0560270" lon="0.4407410">
        <ele>363.4</ele>
        <time>2020-08-06T12:44:42Z</time>
      </trkpt>
      <trkpt lat="41.0559880" lon="0.4407120">
        <ele>363.4</ele>
        <time>2020-08-06T12:44:44Z</time>
      </trkpt>
      <trkpt lat="41.0559520" lon="0.4406830">
        <ele>363.4</ele>
        <time>2020-08-06T12:44:46Z</time>
      </trkpt>
      <trkpt lat="41.0559270" lon="0.4406620">
        <ele>363.4</ele>
        <time>2020-08-06T12:44:47Z</time>
      </trkpt>
      <trkpt lat="41.0559020" lon="0.4406420">
        <ele>363.4</ele>
        <time>2020-08-06T12:44:48Z</time>
      </trkpt>
      <trkpt lat="41.0558570" lon="0.4406070">
        <ele>363.4</ele>
        <time>2020-08-06T12:44:49Z</time>
      </trkpt>
      <trkpt lat="41.0557810" lon="0.4405330">
        <ele>363.5</ele>
        <time>2020-08-06T12:44:51Z</time>
      </trkpt>
      <trkpt lat="41.0556800" lon="0.4404290">
        <ele>363.5</ele>
        <time>2020-08-06T12:44:53Z</time>
      </trkpt>
      <trkpt lat="41.0556200" lon="0.4403660">
        <ele>363.6</ele>
        <time>2020-08-06T12:44:55Z</time>
      </trkpt>
      <trkpt lat="41.0555840" lon="0.4403390">
        <ele>363.6</ele>
        <time>2020-08-06T12:44:57Z</time>
      </trkpt>
      <trkpt lat="41.0555350" lon="0.4403160">
        <ele>363.7</ele>
        <time>2020-08-06T12:44:59Z</time>
      </trkpt>
      <trkpt lat="41.0554860" lon="0.4402850">
        <ele>363.7</ele>
        <time>2020-08-06T12:45:00Z</time>
      </trkpt>
      <trkpt lat="41.0554300" lon="0.4402560">
        <ele>363.8</ele>
        <time>2020-08-06T12:45:02Z</time>
      </trkpt>
      <trkpt lat="41.0553950" lon="0.4402460">
        <ele>363.8</ele>
        <time>2020-08-06T12:45:04Z</time>
      </trkpt>
      <trkpt lat="41.0553780" lon="0.4402410">
        <ele>363.9</ele>
        <time>2020-08-06T12:45:05Z</time>
      </trkpt>
      <trkpt lat="41.0553510" lon="0.4402340">
        <ele>363.9</ele>
        <time>2020-08-06T12:45:07Z</time>
      </trkpt>
      <trkpt lat="41.0553220" lon="0.4402190">
        <ele>364.0</ele>
        <time>2020-08-06T12:45:09Z</time>
      </trkpt>
      <trkpt lat="41.0553130" lon="0.4402100">
        <ele>364.0</ele>
        <time>2020-08-06T12:45:10Z</time>
      </trkpt>
      <trkpt lat="41.0553040" lon="0.4402010">
        <ele>364.0</ele>
        <time>2020-08-06T12:45:24Z</time>
      </trkpt>
      <trkpt lat="41.0552960" lon="0.4401920">
        <ele>364.0</ele>
        <time>2020-08-06T12:45:26Z</time>
      </trkpt>
      <trkpt lat="41.0552870" lon="0.4401830">
        <ele>364.0</ele>
        <time>2020-08-06T12:45:27Z</time>
      </trkpt>
      <trkpt lat="41.0552780" lon="0.4401740">
        <ele>364.0</ele>
        <time>2020-08-06T12:45:29Z</time>
      </trkpt>
      <trkpt lat="41.0552690" lon="0.4401650">
        <ele>364.1</ele>
        <time>2020-08-06T12:45:30Z</time>
      </trkpt>
      <trkpt lat="41.0552600" lon="0.4401590">
        <ele>364.1</ele>
        <time>2020-08-06T12:45:31Z</time>
      </trkpt>
      <trkpt lat="41.0552410" lon="0.4401400">
        <ele>364.1</ele>
        <time>2020-08-06T12:45:33Z</time>
      </trkpt>
      <trkpt lat="41.0552280" lon="0.4401240">
        <ele>364.1</ele>
        <time>2020-08-06T12:45:34Z</time>
      </trkpt>
      <trkpt lat="41.0552110" lon="0.4400990">
        <ele>364.2</ele>
        <time>2020-08-06T12:45:36Z</time>
      </trkpt>
      <trkpt lat="41.0551860" lon="0.4400700">
        <ele>364.2</ele>
        <time>2020-08-06T12:45:37Z</time>
      </trkpt>
      <trkpt lat="41.0551600" lon="0.4400270">
        <ele>364.3</ele>
        <time>2020-08-06T12:45:38Z</time>
      </trkpt>
      <trkpt lat="41.0551320" lon="0.4399910">
        <ele>364.3</ele>
        <time>2020-08-06T12:45:39Z</time>
      </trkpt>
      <trkpt lat="41.0550940" lon="0.4399440">
        <ele>364.4</ele>
        <time>2020-08-06T12:45:41Z</time>
      </trkpt>
      <trkpt lat="41.0550680" lon="0.4399160">
        <ele>364.4</ele>
        <time>2020-08-06T12:45:42Z</time>
      </trkpt>
      <trkpt lat="41.0550540" lon="0.4398940">
        <ele>364.4</ele>
        <time>2020-08-06T12:45:43Z</time>
      </trkpt>
      <trkpt lat="41.0550480" lon="0.4398860">
        <ele>364.4</ele>
        <time>2020-08-06T12:45:44Z</time>
      </trkpt>
      <trkpt lat="41.0550410" lon="0.4398780">
        <ele>364.5</ele>
        <time>2020-08-06T12:45:46Z</time>
      </trkpt>
      <trkpt lat="41.0550350" lon="0.4398700">
        <ele>364.5</ele>
        <time>2020-08-06T12:45:48Z</time>
      </trkpt>
      <trkpt lat="41.0550290" lon="0.4398620">
        <ele>364.5</ele>
        <time>2020-08-06T12:45:50Z</time>
      </trkpt>
      <trkpt lat="41.0550230" lon="0.4398540">
        <ele>364.5</ele>
        <time>2020-08-06T12:45:52Z</time>
      </trkpt>
      <trkpt lat="41.0550160" lon="0.4398470">
        <ele>364.5</ele>
        <time>2020-08-06T12:45:53Z</time>
      </trkpt>
      <trkpt lat="41.0550100" lon="0.4398390">
        <ele>364.5</ele>
        <time>2020-08-06T12:45:55Z</time>
      </trkpt>
      <trkpt lat="41.0550040" lon="0.4398310">
        <ele>364.5</ele>
        <time>2020-08-06T12:48:28Z</time>
      </trkpt>
      <trkpt lat="41.0549980" lon="0.4398230">
        <ele>364.5</ele>
        <time>2020-08-06T12:48:30Z</time>
      </trkpt>
      <trkpt lat="41.0549910" lon="0.4398150">
        <ele>364.5</ele>
        <time>2020-08-06T12:48:32Z</time>
      </trkpt>
      <trkpt lat="41.0549850" lon="0.4398070">
        <ele>364.5</ele>
        <time>2020-08-06T12:48:33Z</time>
      </trkpt>
      <trkpt lat="41.0549550" lon="0.4397830">
        <ele>364.6</ele>
        <time>2020-08-06T12:48:35Z</time>
      </trkpt>
      <trkpt lat="41.0549470" lon="0.4397770">
        <ele>364.6</ele>
        <time>2020-08-06T12:48:36Z</time>
      </trkpt>
      <trkpt lat="41.0549360" lon="0.4397630">
        <ele>364.6</ele>
        <time>2020-08-06T12:48:37Z</time>
      </trkpt>
      <trkpt lat="41.0549270" lon="0.4397480">
        <ele>364.6</ele>
        <time>2020-08-06T12:48:38Z</time>
      </trkpt>
      <trkpt lat="41.0549160" lon="0.4397340">
        <ele>364.7</ele>
        <time>2020-08-06T12:48:40Z</time>
      </trkpt>
      <trkpt lat="41.0549030" lon="0.4397150">
        <ele>364.7</ele>
        <time>2020-08-06T12:48:41Z</time>
      </trkpt>
      <trkpt lat="41.0548870" lon="0.4396890">
        <ele>364.7</ele>
        <time>2020-08-06T12:48:42Z</time>
      </trkpt>
      <trkpt lat="41.0548340" lon="0.4396270">
        <ele>364.8</ele>
        <time>2020-08-06T12:48:44Z</time>
      </trkpt>
      <trkpt lat="41.0547780" lon="0.4395540">
        <ele>365.0</ele>
        <time>2020-08-06T12:48:46Z</time>
      </trkpt>
      <trkpt lat="41.0547490" lon="0.4395210">
        <ele>365.1</ele>
        <time>2020-08-06T12:48:47Z</time>
      </trkpt>
      <trkpt lat="41.0547250" lon="0.4394930">
        <ele>365.2</ele>
        <time>2020-08-06T12:48:48Z</time>
      </trkpt>
      <trkpt lat="41.0546770" lon="0.4394360">
        <ele>365.3</ele>
        <time>2020-08-06T12:48:50Z</time>
      </trkpt>
      <trkpt lat="41.0546530" lon="0.4394010">
        <ele>365.3</ele>
        <time>2020-08-06T12:48:51Z</time>
      </trkpt>
      <trkpt lat="41.0546460" lon="0.4393910">
        <ele>365.3</ele>
        <time>2020-08-06T12:48:52Z</time>
      </trkpt>
      <trkpt lat="41.0546110" lon="0.4393470">
        <ele>365.4</ele>
        <time>2020-08-06T12:48:54Z</time>
      </trkpt>
      <trkpt lat="41.0546030" lon="0.4393330">
        <ele>365.4</ele>
        <time>2020-08-06T12:48:55Z</time>
      </trkpt>
      <trkpt lat="41.0545940" lon="0.4393200">
        <ele>365.5</ele>
        <time>2020-08-06T12:48:56Z</time>
      </trkpt>
      <trkpt lat="41.0545700" lon="0.4392830">
        <ele>365.5</ele>
        <time>2020-08-06T12:48:58Z</time>
      </trkpt>
      <trkpt lat="41.0545430" lon="0.4392460">
        <ele>365.6</ele>
        <time>2020-08-06T12:48:59Z</time>
      </trkpt>
      <trkpt lat="41.0545340" lon="0.4392370">
        <ele>365.6</ele>
        <time>2020-08-06T12:49:00Z</time>
      </trkpt>
      <trkpt lat="41.0545070" lon="0.4392100">
        <ele>365.7</ele>
        <time>2020-08-06T12:49:02Z</time>
      </trkpt>
      <trkpt lat="41.0544680" lon="0.4391910">
        <ele>365.8</ele>
        <time>2020-08-06T12:49:03Z</time>
      </trkpt>
      <trkpt lat="41.0544430" lon="0.4391760">
        <ele>365.9</ele>
        <time>2020-08-06T12:49:04Z</time>
      </trkpt>
      <trkpt lat="41.0543990" lon="0.4391360">
        <ele>366.0</ele>
        <time>2020-08-06T12:49:06Z</time>
      </trkpt>
      <trkpt lat="41.0543780" lon="0.4391130">
        <ele>366.1</ele>
        <time>2020-08-06T12:49:07Z</time>
      </trkpt>
      <trkpt lat="41.0543590" lon="0.4390920">
        <ele>366.1</ele>
        <time>2020-08-06T12:49:08Z</time>
      </trkpt>
      <trkpt lat="41.0543240" lon="0.4390630">
        <ele>366.2</ele>
        <time>2020-08-06T12:49:10Z</time>
      </trkpt>
      <trkpt lat="41.0543070" lon="0.4390490">
        <ele>366.2</ele>
        <time>2020-08-06T12:49:11Z</time>
      </trkpt>
      <trkpt lat="41.0542640" lon="0.4390100">
        <ele>366.3</ele>
        <time>2020-08-06T12:49:13Z</time>
      </trkpt>
      <trkpt lat="41.0542180" lon="0.4389650">
        <ele>366.4</ele>
        <time>2020-08-06T12:49:15Z</time>
      </trkpt>
      <trkpt lat="41.0541950" lon="0.4389360">
        <ele>366.5</ele>
        <time>2020-08-06T12:49:16Z</time>
      </trkpt>
      <trkpt lat="41.0541610" lon="0.4388950">
        <ele>366.6</ele>
        <time>2020-08-06T12:49:18Z</time>
      </trkpt>
      <trkpt lat="41.0541340" lon="0.4388670">
        <ele>366.6</ele>
        <time>2020-08-06T12:49:19Z</time>
      </trkpt>
      <trkpt lat="41.0541250" lon="0.4388570">
        <ele>366.6</ele>
        <time>2020-08-06T12:49:20Z</time>
      </trkpt>
      <trkpt lat="41.0540830" lon="0.4388090">
        <ele>366.7</ele>
        <time>2020-08-06T12:49:22Z</time>
      </trkpt>
      <trkpt lat="41.0540650" lon="0.4387830">
        <ele>366.7</ele>
        <time>2020-08-06T12:49:23Z</time>
      </trkpt>
      <trkpt lat="41.0540220" lon="0.4387170">
        <ele>366.8</ele>
        <time>2020-08-06T12:49:25Z</time>
      </trkpt>
      <trkpt lat="41.0540070" lon="0.4386880">
        <ele>366.9</ele>
        <time>2020-08-06T12:49:26Z</time>
      </trkpt>
      <trkpt lat="41.0539880" lon="0.4386100">
        <ele>367.1</ele>
        <time>2020-08-06T12:49:28Z</time>
      </trkpt>
      <trkpt lat="41.0539880" lon="0.4385710">
        <ele>367.3</ele>
        <time>2020-08-06T12:49:29Z</time>
      </trkpt>
      <trkpt lat="41.0539910" lon="0.4384860">
        <ele>367.3</ele>
        <time>2020-08-06T12:49:31Z</time>
      </trkpt>
      <trkpt lat="41.0539890" lon="0.4384430">
        <ele>367.4</ele>
        <time>2020-08-06T12:49:32Z</time>
      </trkpt>
      <trkpt lat="41.0539850" lon="0.4384030">
        <ele>367.3</ele>
        <time>2020-08-06T12:49:33Z</time>
      </trkpt>
      <trkpt lat="41.0539730" lon="0.4383580">
        <ele>367.2</ele>
        <time>2020-08-06T12:49:35Z</time>
      </trkpt>
      <trkpt lat="41.0539350" lon="0.4383420">
        <ele>367.1</ele>
        <time>2020-08-06T12:49:37Z</time>
      </trkpt>
      <trkpt lat="41.0539030" lon="0.4383350">
        <ele>367.0</ele>
        <time>2020-08-06T12:49:38Z</time>
      </trkpt>
      <trkpt lat="41.0538910" lon="0.4383320">
        <ele>367.0</ele>
        <time>2020-08-06T12:49:39Z</time>
      </trkpt>
      <trkpt lat="41.0538500" lon="0.4383240">
        <ele>366.8</ele>
        <time>2020-08-06T12:49:41Z</time>
      </trkpt>
      <trkpt lat="41.0538180" lon="0.4382870">
        <ele>367.5</ele>
        <time>2020-08-06T12:49:43Z</time>
      </trkpt>
      <trkpt lat="41.0538110" lon="0.4382730">
        <ele>367.7</ele>
        <time>2020-08-06T12:49:44Z</time>
      </trkpt>
      <trkpt lat="41.0538040" lon="0.4382600">
        <ele>367.9</ele>
        <time>2020-08-06T12:49:45Z</time>
      </trkpt>
      <trkpt lat="41.0537850" lon="0.4382320">
        <ele>368.3</ele>
        <time>2020-08-06T12:49:47Z</time>
      </trkpt>
      <trkpt lat="41.0537680" lon="0.4382240">
        <ele>368.5</ele>
        <time>2020-08-06T12:49:49Z</time>
      </trkpt>
      <trkpt lat="41.0537650" lon="0.4382200">
        <ele>368.5</ele>
        <time>2020-08-06T12:49:50Z</time>
      </trkpt>
      <trkpt lat="41.0537590" lon="0.4382120">
        <ele>368.5</ele>
        <time>2020-08-06T12:49:52Z</time>
      </trkpt>
      <trkpt lat="41.0537540" lon="0.4382080">
        <ele>368.5</ele>
        <time>2020-08-06T12:49:53Z</time>
      </trkpt>
      <trkpt lat="41.0537480" lon="0.4382050">
        <ele>368.5</ele>
        <time>2020-08-06T12:49:54Z</time>
      </trkpt>
      <trkpt lat="41.0537440" lon="0.4382050">
        <ele>368.6</ele>
        <time>2020-08-06T12:49:55Z</time>
      </trkpt>
      <trkpt lat="41.0537420" lon="0.4382070">
        <ele>368.6</ele>
        <time>2020-08-06T12:49:57Z</time>
      </trkpt>
      <trkpt lat="41.0537410" lon="0.4382090">
        <ele>368.6</ele>
        <time>2020-08-06T12:49:58Z</time>
      </trkpt>
      <trkpt lat="41.0537390" lon="0.4382110">
        <ele>368.6</ele>
        <time>2020-08-06T12:49:59Z</time>
      </trkpt>
      <trkpt lat="41.0537370" lon="0.4382130">
        <ele>368.6</ele>
        <time>2020-08-06T12:50:00Z</time>
      </trkpt>
      <trkpt lat="41.0537350" lon="0.4382170">
        <ele>368.6</ele>
        <time>2020-08-06T12:50:02Z</time>
      </trkpt>
      <trkpt lat="41.0537350" lon="0.4382180">
        <ele>368.6</ele>
        <time>2020-08-06T12:50:03Z</time>
      </trkpt>
      <trkpt lat="41.0537340" lon="0.4382190">
        <ele>368.6</ele>
        <time>2020-08-06T12:50:04Z</time>
      </trkpt>
      <trkpt lat="41.0537340" lon="0.4382210">
        <ele>368.6</ele>
        <time>2020-08-06T12:50:05Z</time>
      </trkpt>
      <trkpt lat="41.0537050" lon="0.4382260">
        <ele>368.6</ele>
        <time>2020-08-06T12:54:42Z</time>
      </trkpt>
      <trkpt lat="41.0537040" lon="0.4382270">
        <ele>368.6</ele>
        <time>2020-08-06T12:54:43Z</time>
      </trkpt>
      <trkpt lat="41.0537040" lon="0.4382270">
        <ele>368.6</ele>
        <time>2020-08-06T12:54:44Z</time>
      </trkpt>
      <trkpt lat="41.0537030" lon="0.4382260">
        <ele>368.6</ele>
        <time>2020-08-06T12:54:45Z</time>
      </trkpt>
      <trkpt lat="41.0536950" lon="0.4382230">
        <ele>368.6</ele>
        <time>2020-08-06T12:54:46Z</time>
      </trkpt>
      <trkpt lat="41.0536650" lon="0.4382140">
        <ele>368.7</ele>
        <time>2020-08-06T12:54:48Z</time>
      </trkpt>
      <trkpt lat="41.0536480" lon="0.4382120">
        <ele>368.7</ele>
        <time>2020-08-06T12:54:49Z</time>
      </trkpt>
      <trkpt lat="41.0536300" lon="0.4382090">
        <ele>368.7</ele>
        <time>2020-08-06T12:54:50Z</time>
      </trkpt>
      <trkpt lat="41.0536120" lon="0.4382070">
        <ele>368.8</ele>
        <time>2020-08-06T12:54:51Z</time>
      </trkpt>
      <trkpt lat="41.0535710" lon="0.4382080">
        <ele>368.9</ele>
        <time>2020-08-06T12:54:53Z</time>
      </trkpt>
      <trkpt lat="41.0535510" lon="0.4382100">
        <ele>368.9</ele>
        <time>2020-08-06T12:54:54Z</time>
      </trkpt>
      <trkpt lat="41.0535110" lon="0.4382140">
        <ele>369.0</ele>
        <time>2020-08-06T12:54:56Z</time>
      </trkpt>
      <trkpt lat="41.0534790" lon="0.4382130">
        <ele>369.1</ele>
        <time>2020-08-06T12:54:58Z</time>
      </trkpt>
      <trkpt lat="41.0534640" lon="0.4382100">
        <ele>369.2</ele>
        <time>2020-08-06T12:54:59Z</time>
      </trkpt>
      <trkpt lat="41.0534310" lon="0.4381990">
        <ele>369.3</ele>
        <time>2020-08-06T12:55:01Z</time>
      </trkpt>
      <trkpt lat="41.0534080" lon="0.4381980">
        <ele>369.3</ele>
        <time>2020-08-06T12:55:03Z</time>
      </trkpt>
      <trkpt lat="41.0533740" lon="0.4381930">
        <ele>369.5</ele>
        <time>2020-08-06T12:55:05Z</time>
      </trkpt>
      <trkpt lat="41.0533470" lon="0.4381890">
        <ele>369.6</ele>
        <time>2020-08-06T12:55:06Z</time>
      </trkpt>
      <trkpt lat="41.0533380" lon="0.4381890">
        <ele>369.6</ele>
        <time>2020-08-06T12:55:07Z</time>
      </trkpt>
      <trkpt lat="41.0533100" lon="0.4381880">
        <ele>369.7</ele>
        <time>2020-08-06T12:55:09Z</time>
      </trkpt>
      <trkpt lat="41.0532930" lon="0.4381880">
        <ele>369.7</ele>
        <time>2020-08-06T12:55:10Z</time>
      </trkpt>
      <trkpt lat="41.0532690" lon="0.4381840">
        <ele>369.8</ele>
        <time>2020-08-06T12:55:12Z</time>
      </trkpt>
      <trkpt lat="41.0532570" lon="0.4381810">
        <ele>369.9</ele>
        <time>2020-08-06T12:55:13Z</time>
      </trkpt>
      <trkpt lat="41.0532360" lon="0.4381720">
        <ele>369.9</ele>
        <time>2020-08-06T12:55:15Z</time>
      </trkpt>
      <trkpt lat="41.0532240" lon="0.4381660">
        <ele>370.0</ele>
        <time>2020-08-06T12:55:16Z</time>
      </trkpt>
      <trkpt lat="41.0532090" lon="0.4381610">
        <ele>370.0</ele>
        <time>2020-08-06T12:55:17Z</time>
      </trkpt>
      <trkpt lat="41.0531760" lon="0.4381590">
        <ele>370.1</ele>
        <time>2020-08-06T12:55:19Z</time>
      </trkpt>
      <trkpt lat="41.0531670" lon="0.4381590">
        <ele>370.1</ele>
        <time>2020-08-06T12:55:20Z</time>
      </trkpt>
      <trkpt lat="41.0531310" lon="0.4381720">
        <ele>370.2</ele>
        <time>2020-08-06T12:55:22Z</time>
      </trkpt>
      <trkpt lat="41.0530980" lon="0.4381690">
        <ele>370.3</ele>
        <time>2020-08-06T12:55:24Z</time>
      </trkpt>
      <trkpt lat="41.0530860" lon="0.4381690">
        <ele>370.3</ele>
        <time>2020-08-06T12:55:25Z</time>
      </trkpt>
      <trkpt lat="41.0530530" lon="0.4381820">
        <ele>371.4</ele>
        <time>2020-08-06T12:55:27Z</time>
      </trkpt>
      <trkpt lat="41.0530240" lon="0.4381980">
        <ele>371.9</ele>
        <time>2020-08-06T12:55:29Z</time>
      </trkpt>
      <trkpt lat="41.0530130" lon="0.4382130">
        <ele>372.1</ele>
        <time>2020-08-06T12:55:30Z</time>
      </trkpt>
      <trkpt lat="41.0529960" lon="0.4382530">
        <ele>372.7</ele>
        <time>2020-08-06T12:55:32Z</time>
      </trkpt>
      <trkpt lat="41.0529830" lon="0.4382840">
        <ele>373.1</ele>
        <time>2020-08-06T12:55:34Z</time>
      </trkpt>
      <trkpt lat="41.0529660" lon="0.4383280">
        <ele>373.7</ele>
        <time>2020-08-06T12:55:36Z</time>
      </trkpt>
      <trkpt lat="41.0529590" lon="0.4383470">
        <ele>374.0</ele>
        <time>2020-08-06T12:55:37Z</time>
      </trkpt>
      <trkpt lat="41.0529500" lon="0.4383740">
        <ele>374.3</ele>
        <time>2020-08-06T12:55:39Z</time>
      </trkpt>
      <trkpt lat="41.0529430" lon="0.4383960">
        <ele>374.6</ele>
        <time>2020-08-06T12:55:40Z</time>
      </trkpt>
      <trkpt lat="41.0529370" lon="0.4384430">
        <ele>375.3</ele>
        <time>2020-08-06T12:55:42Z</time>
      </trkpt>
      <trkpt lat="41.0529450" lon="0.4384630">
        <ele>375.3</ele>
        <time>2020-08-06T12:55:43Z</time>
      </trkpt>
      <trkpt lat="41.0529720" lon="0.4384880">
        <ele>375.2</ele>
        <time>2020-08-06T12:55:45Z</time>
      </trkpt>
      <trkpt lat="41.0530060" lon="0.4385120">
        <ele>375.0</ele>
        <time>2020-08-06T12:55:47Z</time>
      </trkpt>
      <trkpt lat="41.0530250" lon="0.4385270">
        <ele>374.9</ele>
        <time>2020-08-06T12:55:48Z</time>
      </trkpt>
      <trkpt lat="41.0530590" lon="0.4385570">
        <ele>374.8</ele>
        <time>2020-08-06T12:55:50Z</time>
      </trkpt>
      <trkpt lat="41.0530850" lon="0.4385840">
        <ele>374.8</ele>
        <time>2020-08-06T12:55:52Z</time>
      </trkpt>
      <trkpt lat="41.0530890" lon="0.4385900">
        <ele>374.8</ele>
        <time>2020-08-06T12:55:54Z</time>
      </trkpt>
      <trkpt lat="41.0530860" lon="0.4385890">
        <ele>374.8</ele>
        <time>2020-08-06T12:55:55Z</time>
      </trkpt>
      <trkpt lat="41.0530820" lon="0.4385780">
        <ele>374.9</ele>
        <time>2020-08-06T12:55:57Z</time>
      </trkpt>
      <trkpt lat="41.0530890" lon="0.4385660">
        <ele>374.9</ele>
        <time>2020-08-06T12:55:59Z</time>
      </trkpt>
      <trkpt lat="41.0530920" lon="0.4385650">
        <ele>374.9</ele>
        <time>2020-08-06T12:56:00Z</time>
      </trkpt>
      <trkpt lat="41.0530920" lon="0.4385590">
        <ele>374.9</ele>
        <time>2020-08-06T12:56:02Z</time>
      </trkpt>
      <trkpt lat="41.0530900" lon="0.4385460">
        <ele>374.9</ele>
        <time>2020-08-06T12:56:04Z</time>
      </trkpt>
      <trkpt lat="41.0530900" lon="0.4385400">
        <ele>374.9</ele>
        <time>2020-08-06T12:56:05Z</time>
      </trkpt>
      <trkpt lat="41.0530920" lon="0.4385310">
        <ele>375.0</ele>
        <time>2020-08-06T12:56:07Z</time>
      </trkpt>
      <trkpt lat="41.0530960" lon="0.4385240">
        <ele>375.0</ele>
        <time>2020-08-06T12:56:09Z</time>
      </trkpt>
      <trkpt lat="41.0530990" lon="0.4385200">
        <ele>375.0</ele>
        <time>2020-08-06T12:56:11Z</time>
      </trkpt>
      <trkpt lat="41.0531010" lon="0.4385170">
        <ele>375.0</ele>
        <time>2020-08-06T12:56:13Z</time>
      </trkpt>
      <trkpt lat="41.0531010" lon="0.4385170">
        <ele>375.0</ele>
        <time>2020-08-06T12:56:15Z</time>
      </trkpt>
      <trkpt lat="41.0531010" lon="0.4385170">
        <ele>375.0</ele>
        <time>2020-08-06T12:56:17Z</time>
      </trkpt>
      <trkpt lat="41.0531010" lon="0.4385170">
        <ele>375.0</ele>
        <time>2020-08-06T12:56:18Z</time>
      </trkpt>
      <trkpt lat="41.0531010" lon="0.4385170">
        <ele>375.0</ele>
        <time>2020-08-06T12:56:20Z</time>
      </trkpt>
      <trkpt lat="41.0530980" lon="0.4385120">
        <ele>375.0</ele>
        <time>2020-08-06T12:56:51Z</time>
      </trkpt>
      <trkpt lat="41.0530910" lon="0.4385070">
        <ele>375.0</ele>
        <time>2020-08-06T12:56:53Z</time>
      </trkpt>
      <trkpt lat="41.0530790" lon="0.4385060">
        <ele>375.0</ele>
        <time>2020-08-06T12:56:55Z</time>
      </trkpt>
      <trkpt lat="41.0530720" lon="0.4385040">
        <ele>375.1</ele>
        <time>2020-08-06T12:56:56Z</time>
      </trkpt>
      <trkpt lat="41.0530660" lon="0.4385020">
        <ele>375.1</ele>
        <time>2020-08-06T12:56:57Z</time>
      </trkpt>
      <trkpt lat="41.0530590" lon="0.4385010">
        <ele>375.1</ele>
        <time>2020-08-06T12:56:58Z</time>
      </trkpt>
      <trkpt lat="41.0530500" lon="0.4385010">
        <ele>375.1</ele>
        <time>2020-08-06T12:56:59Z</time>
      </trkpt>
      <trkpt lat="41.0530160" lon="0.4384820">
        <ele>375.2</ele>
        <time>2020-08-06T12:57:01Z</time>
      </trkpt>
      <trkpt lat="41.0529830" lon="0.4384560">
        <ele>375.3</ele>
        <time>2020-08-06T12:57:02Z</time>
      </trkpt>
      <trkpt lat="41.0529720" lon="0.4384480">
        <ele>375.3</ele>
        <time>2020-08-06T12:57:03Z</time>
      </trkpt>
      <trkpt lat="41.0529440" lon="0.4384140">
        <ele>375.4</ele>
        <time>2020-08-06T12:57:04Z</time>
      </trkpt>
      <trkpt lat="41.0529360" lon="0.4384030">
        <ele>374.7</ele>
        <time>2020-08-06T12:57:05Z</time>
      </trkpt>
      <trkpt lat="41.0529220" lon="0.4383790">
        <ele>374.4</ele>
        <time>2020-08-06T12:57:06Z</time>
      </trkpt>
      <trkpt lat="41.0529020" lon="0.4383190">
        <ele>373.7</ele>
        <time>2020-08-06T12:57:08Z</time>
      </trkpt>
      <trkpt lat="41.0529000" lon="0.4382830">
        <ele>373.3</ele>
        <time>2020-08-06T12:57:09Z</time>
      </trkpt>
      <trkpt lat="41.0529100" lon="0.4382150">
        <ele>372.5</ele>
        <time>2020-08-06T12:57:11Z</time>
      </trkpt>
      <trkpt lat="41.0529240" lon="0.4381580">
        <ele>371.9</ele>
        <time>2020-08-06T12:57:13Z</time>
      </trkpt>
      <trkpt lat="41.0529300" lon="0.4381390">
        <ele>371.7</ele>
        <time>2020-08-06T12:57:14Z</time>
      </trkpt>
      <trkpt lat="41.0529450" lon="0.4380840">
        <ele>371.1</ele>
        <time>2020-08-06T12:57:16Z</time>
      </trkpt>
      <trkpt lat="41.0529410" lon="0.4380220">
        <ele>370.5</ele>
        <time>2020-08-06T12:57:18Z</time>
      </trkpt>
      <trkpt lat="41.0529240" lon="0.4379910">
        <ele>370.7</ele>
        <time>2020-08-06T12:57:19Z</time>
      </trkpt>
      <trkpt lat="41.0529180" lon="0.4379830">
        <ele>370.7</ele>
        <time>2020-08-06T12:57:20Z</time>
      </trkpt>
      <trkpt lat="41.0529060" lon="0.4379660">
        <ele>370.7</ele>
        <time>2020-08-06T12:57:21Z</time>
      </trkpt>
      <trkpt lat="41.0528770" lon="0.4379260">
        <ele>370.8</ele>
        <time>2020-08-06T12:57:23Z</time>
      </trkpt>
      <trkpt lat="41.0528590" lon="0.4379100">
        <ele>370.9</ele>
        <time>2020-08-06T12:57:24Z</time>
      </trkpt>
      <trkpt lat="41.0528210" lon="0.4378920">
        <ele>371.0</ele>
        <time>2020-08-06T12:57:26Z</time>
      </trkpt>
      <trkpt lat="41.0527880" lon="0.4378660">
        <ele>371.0</ele>
        <time>2020-08-06T12:57:28Z</time>
      </trkpt>
      <trkpt lat="41.0527750" lon="0.4378460">
        <ele>371.1</ele>
        <time>2020-08-06T12:57:29Z</time>
      </trkpt>
      <trkpt lat="41.0527410" lon="0.4378150">
        <ele>371.2</ele>
        <time>2020-08-06T12:57:31Z</time>
      </trkpt>
      <trkpt lat="41.0527120" lon="0.4377970">
        <ele>371.3</ele>
        <time>2020-08-06T12:57:33Z</time>
      </trkpt>
      <trkpt lat="41.0527010" lon="0.4377890">
        <ele>371.4</ele>
        <time>2020-08-06T12:57:34Z</time>
      </trkpt>
      <trkpt lat="41.0526870" lon="0.4377790">
        <ele>371.4</ele>
        <time>2020-08-06T12:57:35Z</time>
      </trkpt>
      <trkpt lat="41.0526520" lon="0.4377560">
        <ele>371.5</ele>
        <time>2020-08-06T12:57:37Z</time>
      </trkpt>
      <trkpt lat="41.0526360" lon="0.4377440">
        <ele>371.5</ele>
        <time>2020-08-06T12:57:38Z</time>
      </trkpt>
      <trkpt lat="41.0526180" lon="0.4377090">
        <ele>371.6</ele>
        <time>2020-08-06T12:57:40Z</time>
      </trkpt>
      <trkpt lat="41.0526110" lon="0.4376730">
        <ele>373.8</ele>
        <time>2020-08-06T12:57:42Z</time>
      </trkpt>
      <trkpt lat="41.0526080" lon="0.4376540">
        <ele>374.4</ele>
        <time>2020-08-06T12:57:43Z</time>
      </trkpt>
      <trkpt lat="41.0526100" lon="0.4376390">
        <ele>375.0</ele>
        <time>2020-08-06T12:57:44Z</time>
      </trkpt>
      <trkpt lat="41.0526220" lon="0.4376010">
        <ele>376.3</ele>
        <time>2020-08-06T12:57:46Z</time>
      </trkpt>
      <trkpt lat="41.0526310" lon="0.4375820">
        <ele>377.1</ele>
        <time>2020-08-06T12:57:47Z</time>
      </trkpt>
      <trkpt lat="41.0526370" lon="0.4375620">
        <ele>377.0</ele>
        <time>2020-08-06T12:57:48Z</time>
      </trkpt>
      <trkpt lat="41.0526410" lon="0.4375440">
        <ele>377.0</ele>
        <time>2020-08-06T12:57:49Z</time>
      </trkpt>
      <trkpt lat="41.0526480" lon="0.4375160">
        <ele>377.0</ele>
        <time>2020-08-06T12:57:51Z</time>
      </trkpt>
      <trkpt lat="41.0526520" lon="0.4375100">
        <ele>377.0</ele>
        <time>2020-08-06T12:57:53Z</time>
      </trkpt>
      <trkpt lat="41.0526520" lon="0.4375090">
        <ele>377.0</ele>
        <time>2020-08-06T12:57:55Z</time>
      </trkpt>
      <trkpt lat="41.0526520" lon="0.4375070">
        <ele>377.0</ele>
        <time>2020-08-06T12:57:56Z</time>
      </trkpt>
      <trkpt lat="41.0526520" lon="0.4375060">
        <ele>377.0</ele>
        <time>2020-08-06T12:57:58Z</time>
      </trkpt>
      <trkpt lat="41.0526520" lon="0.4375050">
        <ele>377.0</ele>
        <time>2020-08-06T12:58:00Z</time>
      </trkpt>
      <trkpt lat="41.0526530" lon="0.4375040">
        <ele>377.0</ele>
        <time>2020-08-06T12:58:01Z</time>
      </trkpt>
      <trkpt lat="41.0526530" lon="0.4375030">
        <ele>377.0</ele>
        <time>2020-08-06T12:58:02Z</time>
      </trkpt>
      <trkpt lat="41.0526530" lon="0.4375020">
        <ele>377.0</ele>
        <time>2020-08-06T12:58:03Z</time>
      </trkpt>
      <trkpt lat="41.0526530" lon="0.4375000">
        <ele>377.0</ele>
        <time>2020-08-06T12:58:24Z</time>
      </trkpt>
      <trkpt lat="41.0526530" lon="0.4374990">
        <ele>377.0</ele>
        <time>2020-08-06T12:58:25Z</time>
      </trkpt>
      <trkpt lat="41.0526530" lon="0.4374980">
        <ele>377.0</ele>
        <time>2020-08-06T12:58:26Z</time>
      </trkpt>
      <trkpt lat="41.0526490" lon="0.4374930">
        <ele>377.0</ele>
        <time>2020-08-06T12:58:27Z</time>
      </trkpt>
      <trkpt lat="41.0526480" lon="0.4374930">
        <ele>377.0</ele>
        <time>2020-08-06T12:58:28Z</time>
      </trkpt>
      <trkpt lat="41.0526510" lon="0.4374980">
        <ele>377.0</ele>
        <time>2020-08-06T12:58:30Z</time>
      </trkpt>
      <trkpt lat="41.0526530" lon="0.4375000">
        <ele>377.0</ele>
        <time>2020-08-06T12:58:31Z</time>
      </trkpt>
      <trkpt lat="41.0526550" lon="0.4375020">
        <ele>377.0</ele>
        <time>2020-08-06T12:58:33Z</time>
      </trkpt>
      <trkpt lat="41.0526550" lon="0.4375030">
        <ele>377.0</ele>
        <time>2020-08-06T12:58:34Z</time>
      </trkpt>
      <trkpt lat="41.0526560" lon="0.4375030">
        <ele>377.0</ele>
        <time>2020-08-06T12:58:35Z</time>
      </trkpt>
      <trkpt lat="41.0526560" lon="0.4375030">
        <ele>377.0</ele>
        <time>2020-08-06T12:58:36Z</time>
      </trkpt>
      <trkpt lat="41.0526550" lon="0.4375030">
        <ele>377.0</ele>
        <time>2020-08-06T12:58:37Z</time>
      </trkpt>
      <trkpt lat="41.0526550" lon="0.4375030">
        <ele>377.0</ele>
        <time>2020-08-06T12:58:38Z</time>
      </trkpt>
      <trkpt lat="41.0526510" lon="0.4374600">
        <ele>376.9</ele>
        <time>2020-08-06T12:58:45Z</time>
      </trkpt>
      <trkpt lat="41.0526500" lon="0.4374350">
        <ele>376.9</ele>
        <time>2020-08-06T12:58:47Z</time>
      </trkpt>
      <trkpt lat="41.0526510" lon="0.4374570">
        <ele>376.9</ele>
        <time>2020-08-06T12:58:48Z</time>
      </trkpt>
      <trkpt lat="41.0526510" lon="0.4374740">
        <ele>376.9</ele>
        <time>2020-08-06T12:58:50Z</time>
      </trkpt>
      <trkpt lat="41.0526390" lon="0.4374810">
        <ele>377.0</ele>
        <time>2020-08-06T12:58:51Z</time>
      </trkpt>
      <trkpt lat="41.0526340" lon="0.4374790">
        <ele>377.0</ele>
        <time>2020-08-06T12:58:53Z</time>
      </trkpt>
      <trkpt lat="41.0526360" lon="0.4374660">
        <ele>377.0</ele>
        <time>2020-08-06T12:58:54Z</time>
      </trkpt>
      <trkpt lat="41.0526300" lon="0.4374540">
        <ele>377.0</ele>
        <time>2020-08-06T12:58:55Z</time>
      </trkpt>
      <trkpt lat="41.0526080" lon="0.4374660">
        <ele>377.0</ele>
        <time>2020-08-06T12:58:57Z</time>
      </trkpt>
      <trkpt lat="41.0526040" lon="0.4374770">
        <ele>377.0</ele>
        <time>2020-08-06T12:58:58Z</time>
      </trkpt>
      <trkpt lat="41.0526000" lon="0.4374840">
        <ele>377.0</ele>
        <time>2020-08-06T12:58:59Z</time>
      </trkpt>
      <trkpt lat="41.0526050" lon="0.4374880">
        <ele>377.0</ele>
        <time>2020-08-06T12:59:00Z</time>
      </trkpt>
      <trkpt lat="41.0526080" lon="0.4374920">
        <ele>377.0</ele>
        <time>2020-08-06T12:59:02Z</time>
      </trkpt>
      <trkpt lat="41.0526120" lon="0.4374960">
        <ele>377.0</ele>
        <time>2020-08-06T12:59:04Z</time>
      </trkpt>
      <trkpt lat="41.0526130" lon="0.4374980">
        <ele>377.0</ele>
        <time>2020-08-06T12:59:05Z</time>
      </trkpt>
      <trkpt lat="41.0526140" lon="0.4374990">
        <ele>377.0</ele>
        <time>2020-08-06T12:59:06Z</time>
      </trkpt>
      <trkpt lat="41.0526150" lon="0.4375010">
        <ele>377.0</ele>
        <time>2020-08-06T12:59:07Z</time>
      </trkpt>
      <trkpt lat="41.0526160" lon="0.4375020">
        <ele>377.0</ele>
        <time>2020-08-06T12:59:09Z</time>
      </trkpt>
      <trkpt lat="41.0526420" lon="0.4374950">
        <ele>377.0</ele>
        <time>2020-08-06T12:59:21Z</time>
      </trkpt>
      <trkpt lat="41.0526450" lon="0.4374970">
        <ele>377.0</ele>
        <time>2020-08-06T12:59:22Z</time>
      </trkpt>
      <trkpt lat="41.0526460" lon="0.4375070">
        <ele>377.0</ele>
        <time>2020-08-06T12:59:23Z</time>
      </trkpt>
      <trkpt lat="41.0526420" lon="0.4375190">
        <ele>377.0</ele>
        <time>2020-08-06T12:59:24Z</time>
      </trkpt>
      <trkpt lat="41.0526260" lon="0.4375430">
        <ele>377.0</ele>
        <time>2020-08-06T12:59:26Z</time>
      </trkpt>
      <trkpt lat="41.0526210" lon="0.4375460">
        <ele>377.0</ele>
        <time>2020-08-06T12:59:27Z</time>
      </trkpt>
      <trkpt lat="41.0526150" lon="0.4375470">
        <ele>377.1</ele>
        <time>2020-08-06T12:59:29Z</time>
      </trkpt>
      <trkpt lat="41.0526100" lon="0.4375440">
        <ele>377.1</ele>
        <time>2020-08-06T12:59:31Z</time>
      </trkpt>
      <trkpt lat="41.0526090" lon="0.4375430">
        <ele>377.1</ele>
        <time>2020-08-06T12:59:32Z</time>
      </trkpt>
      <trkpt lat="41.0526070" lon="0.4375420">
        <ele>377.1</ele>
        <time>2020-08-06T12:59:33Z</time>
      </trkpt>
      <trkpt lat="41.0526050" lon="0.4375420">
        <ele>377.1</ele>
        <time>2020-08-06T12:59:34Z</time>
      </trkpt>
      <trkpt lat="41.0526030" lon="0.4375420">
        <ele>377.1</ele>
        <time>2020-08-06T12:59:36Z</time>
      </trkpt>
      <trkpt lat="41.0526010" lon="0.4375420">
        <ele>377.1</ele>
        <time>2020-08-06T12:59:38Z</time>
      </trkpt>
      <trkpt lat="41.0525890" lon="0.4375900">
        <ele>377.1</ele>
        <time>2020-08-06T12:59:46Z</time>
      </trkpt>
      <trkpt lat="41.0525860" lon="0.4376040">
        <ele>376.3</ele>
        <time>2020-08-06T12:59:47Z</time>
      </trkpt>
      <trkpt lat="41.0525850" lon="0.4376120">
        <ele>376.1</ele>
        <time>2020-08-06T12:59:48Z</time>
      </trkpt>
      <trkpt lat="41.0525850" lon="0.4376150">
        <ele>376.0</ele>
        <time>2020-08-06T12:59:50Z</time>
      </trkpt>
      <trkpt lat="41.0525860" lon="0.4376130">
        <ele>375.9</ele>
        <time>2020-08-06T12:59:51Z</time>
      </trkpt>
      <trkpt lat="41.0525880" lon="0.4376120">
        <ele>375.8</ele>
        <time>2020-08-06T12:59:52Z</time>
      </trkpt>
      <trkpt lat="41.0525910" lon="0.4376100">
        <ele>375.7</ele>
        <time>2020-08-06T12:59:54Z</time>
      </trkpt>
      <trkpt lat="41.0525930" lon="0.4376090">
        <ele>375.7</ele>
        <time>2020-08-06T12:59:56Z</time>
      </trkpt>
      <trkpt lat="41.0525930" lon="0.4376090">
        <ele>375.7</ele>
        <time>2020-08-06T12:59:57Z</time>
      </trkpt>
      <trkpt lat="41.0525930" lon="0.4376090">
        <ele>375.7</ele>
        <time>2020-08-06T12:59:59Z</time>
      </trkpt>
      <trkpt lat="41.0525930" lon="0.4376090">
        <ele>375.7</ele>
        <time>2020-08-06T13:00:01Z</time>
      </trkpt>
      <trkpt lat="41.0525940" lon="0.4376280">
        <ele>375.2</ele>
        <time>2020-08-06T13:00:24Z</time>
      </trkpt>
      <trkpt lat="41.0525920" lon="0.4376490">
        <ele>374.6</ele>
        <time>2020-08-06T13:00:25Z</time>
      </trkpt>
      <trkpt lat="41.0525900" lon="0.4376730">
        <ele>374.0</ele>
        <time>2020-08-06T13:00:26Z</time>
      </trkpt>
      <trkpt lat="41.0525880" lon="0.4376910">
        <ele>373.6</ele>
        <time>2020-08-06T13:00:27Z</time>
      </trkpt>
      <trkpt lat="41.0525850" lon="0.4377020">
        <ele>373.3</ele>
        <time>2020-08-06T13:00:28Z</time>
      </trkpt>
      <trkpt lat="41.0525950" lon="0.4377040">
        <ele>372.9</ele>
        <time>2020-08-06T13:00:30Z</time>
      </trkpt>
      <trkpt lat="41.0526080" lon="0.4377030">
        <ele>372.5</ele>
        <time>2020-08-06T13:00:31Z</time>
      </trkpt>
      <trkpt lat="41.0526150" lon="0.4377090">
        <ele>371.6</ele>
        <time>2020-08-06T13:00:32Z</time>
      </trkpt>
      <trkpt lat="41.0526220" lon="0.4377230">
        <ele>371.6</ele>
        <time>2020-08-06T13:00:34Z</time>
      </trkpt>
      <trkpt lat="41.0526130" lon="0.4377450">
        <ele>371.6</ele>
        <time>2020-08-06T13:00:35Z</time>
      </trkpt>
      <trkpt lat="41.0525930" lon="0.4377550">
        <ele>371.6</ele>
        <time>2020-08-06T13:00:36Z</time>
      </trkpt>
      <trkpt lat="41.0525660" lon="0.4377600">
        <ele>371.6</ele>
        <time>2020-08-06T13:00:38Z</time>
      </trkpt>
      <trkpt lat="41.0525420" lon="0.4377590">
        <ele>371.6</ele>
        <time>2020-08-06T13:00:39Z</time>
      </trkpt>
      <trkpt lat="41.0525120" lon="0.4377650">
        <ele>373.2</ele>
        <time>2020-08-06T13:00:41Z</time>
      </trkpt>
      <trkpt lat="41.0524860" lon="0.4377740">
        <ele>373.7</ele>
        <time>2020-08-06T13:00:42Z</time>
      </trkpt>
      <trkpt lat="41.0524760" lon="0.4377770">
        <ele>373.9</ele>
        <time>2020-08-06T13:00:43Z</time>
      </trkpt>
      <trkpt lat="41.0524470" lon="0.4377940">
        <ele>374.4</ele>
        <time>2020-08-06T13:00:45Z</time>
      </trkpt>
      <trkpt lat="41.0524380" lon="0.4377980">
        <ele>374.6</ele>
        <time>2020-08-06T13:00:46Z</time>
      </trkpt>
      <trkpt lat="41.0524270" lon="0.4378020">
        <ele>374.8</ele>
        <time>2020-08-06T13:00:47Z</time>
      </trkpt>
      <trkpt lat="41.0524030" lon="0.4377990">
        <ele>375.3</ele>
        <time>2020-08-06T13:00:49Z</time>
      </trkpt>
      <trkpt lat="41.0523940" lon="0.4377890">
        <ele>375.5</ele>
        <time>2020-08-06T13:00:50Z</time>
      </trkpt>
      <trkpt lat="41.0523860" lon="0.4377790">
        <ele>375.7</ele>
        <time>2020-08-06T13:00:52Z</time>
      </trkpt>
      <trkpt lat="41.0523820" lon="0.4377770">
        <ele>375.7</ele>
        <time>2020-08-06T13:00:54Z</time>
      </trkpt>
      <trkpt lat="41.0523800" lon="0.4377850">
        <ele>375.9</ele>
        <time>2020-08-06T13:00:56Z</time>
      </trkpt>
      <trkpt lat="41.0523780" lon="0.4377880">
        <ele>375.9</ele>
        <time>2020-08-06T13:00:57Z</time>
      </trkpt>
      <trkpt lat="41.0523760" lon="0.4377900">
        <ele>376.0</ele>
        <time>2020-08-06T13:00:58Z</time>
      </trkpt>
      <trkpt lat="41.0523730" lon="0.4377930">
        <ele>376.0</ele>
        <time>2020-08-06T13:00:59Z</time>
      </trkpt>
      <trkpt lat="41.0523710" lon="0.4377950">
        <ele>376.1</ele>
        <time>2020-08-06T13:01:00Z</time>
      </trkpt>
      <trkpt lat="41.0523680" lon="0.4377980">
        <ele>376.1</ele>
        <time>2020-08-06T13:01:02Z</time>
      </trkpt>
      <trkpt lat="41.0523190" lon="0.4377950">
        <ele>377.0</ele>
        <time>2020-08-06T13:01:10Z</time>
      </trkpt>
      <trkpt lat="41.0522830" lon="0.4377880">
        <ele>377.7</ele>
        <time>2020-08-06T13:01:12Z</time>
      </trkpt>
      <trkpt lat="41.0522720" lon="0.4377770">
        <ele>377.6</ele>
        <time>2020-08-06T13:01:14Z</time>
      </trkpt>
      <trkpt lat="41.0522700" lon="0.4377690">
        <ele>377.5</ele>
        <time>2020-08-06T13:01:15Z</time>
      </trkpt>
      <trkpt lat="41.0522690" lon="0.4377620">
        <ele>377.5</ele>
        <time>2020-08-06T13:01:16Z</time>
      </trkpt>
      <trkpt lat="41.0522680" lon="0.4377550">
        <ele>377.4</ele>
        <time>2020-08-06T13:01:18Z</time>
      </trkpt>
      <trkpt lat="41.0522660" lon="0.4377480">
        <ele>377.4</ele>
        <time>2020-08-06T13:01:19Z</time>
      </trkpt>
      <trkpt lat="41.0522650" lon="0.4377400">
        <ele>377.3</ele>
        <time>2020-08-06T13:01:20Z</time>
      </trkpt>
      <trkpt lat="41.0522630" lon="0.4377330">
        <ele>377.3</ele>
        <time>2020-08-06T13:01:22Z</time>
      </trkpt>
      <trkpt lat="41.0522620" lon="0.4377260">
        <ele>377.2</ele>
        <time>2020-08-06T13:01:23Z</time>
      </trkpt>
      <trkpt lat="41.0522610" lon="0.4377190">
        <ele>377.2</ele>
        <time>2020-08-06T13:01:25Z</time>
      </trkpt>
      <trkpt lat="41.0522590" lon="0.4377110">
        <ele>377.2</ele>
        <time>2020-08-06T13:02:21Z</time>
      </trkpt>
      <trkpt lat="41.0522580" lon="0.4377040">
        <ele>377.1</ele>
        <time>2020-08-06T13:02:22Z</time>
      </trkpt>
      <trkpt lat="41.0522570" lon="0.4376970">
        <ele>377.1</ele>
        <time>2020-08-06T13:02:24Z</time>
      </trkpt>
      <trkpt lat="41.0522550" lon="0.4376900">
        <ele>377.0</ele>
        <time>2020-08-06T13:02:26Z</time>
      </trkpt>
      <trkpt lat="41.0522540" lon="0.4376820">
        <ele>377.0</ele>
        <time>2020-08-06T13:02:27Z</time>
      </trkpt>
      <trkpt lat="41.0522520" lon="0.4376750">
        <ele>376.9</ele>
        <time>2020-08-06T13:02:28Z</time>
      </trkpt>
      <trkpt lat="41.0522510" lon="0.4376680">
        <ele>376.9</ele>
        <time>2020-08-06T13:02:29Z</time>
      </trkpt>
      <trkpt lat="41.0522460" lon="0.4376580">
        <ele>376.8</ele>
        <time>2020-08-06T13:02:30Z</time>
      </trkpt>
      <trkpt lat="41.0522410" lon="0.4376580">
        <ele>376.8</ele>
        <time>2020-08-06T13:02:32Z</time>
      </trkpt>
      <trkpt lat="41.0522440" lon="0.4376600">
        <ele>376.8</ele>
        <time>2020-08-06T13:02:34Z</time>
      </trkpt>
      <trkpt lat="41.0522480" lon="0.4376530">
        <ele>376.7</ele>
        <time>2020-08-06T13:02:35Z</time>
      </trkpt>
      <trkpt lat="41.0522530" lon="0.4376440">
        <ele>376.6</ele>
        <time>2020-08-06T13:02:36Z</time>
      </trkpt>
      <trkpt lat="41.0522600" lon="0.4376310">
        <ele>376.5</ele>
        <time>2020-08-06T13:02:38Z</time>
      </trkpt>
      <trkpt lat="41.0522620" lon="0.4376250">
        <ele>376.5</ele>
        <time>2020-08-06T13:02:39Z</time>
      </trkpt>
      <trkpt lat="41.0522640" lon="0.4376220">
        <ele>376.5</ele>
        <time>2020-08-06T13:02:40Z</time>
      </trkpt>
      <trkpt lat="41.0522670" lon="0.4376180">
        <ele>376.4</ele>
        <time>2020-08-06T13:02:42Z</time>
      </trkpt>
      <trkpt lat="41.0522810" lon="0.4376660">
        <ele>376.1</ele>
        <time>2020-08-06T13:02:52Z</time>
      </trkpt>
      <trkpt lat="41.0522780" lon="0.4376790">
        <ele>376.1</ele>
        <time>2020-08-06T13:02:53Z</time>
      </trkpt>
      <trkpt lat="41.0522850" lon="0.4377100">
        <ele>375.9</ele>
        <time>2020-08-06T13:02:55Z</time>
      </trkpt>
      <trkpt lat="41.0522810" lon="0.4377160">
        <ele>375.8</ele>
        <time>2020-08-06T13:02:56Z</time>
      </trkpt>
      <trkpt lat="41.0522860" lon="0.4377180">
        <ele>375.8</ele>
        <time>2020-08-06T13:02:57Z</time>
      </trkpt>
      <trkpt lat="41.0522920" lon="0.4377100">
        <ele>375.7</ele>
        <time>2020-08-06T13:02:59Z</time>
      </trkpt>
      <trkpt lat="41.0523030" lon="0.4377080">
        <ele>375.6</ele>
        <time>2020-08-06T13:03:00Z</time>
      </trkpt>
      <trkpt lat="41.0523060" lon="0.4377100">
        <ele>375.6</ele>
        <time>2020-08-06T13:03:01Z</time>
      </trkpt>
      <trkpt lat="41.0523120" lon="0.4377130">
        <ele>375.5</ele>
        <time>2020-08-06T13:03:02Z</time>
      </trkpt>
      <trkpt lat="41.0523270" lon="0.4377450">
        <ele>375.3</ele>
        <time>2020-08-06T13:03:03Z</time>
      </trkpt>
      <trkpt lat="41.0523340" lon="0.4377730">
        <ele>375.1</ele>
        <time>2020-08-06T13:03:04Z</time>
      </trkpt>
      <trkpt lat="41.0523640" lon="0.4378400">
        <ele>374.7</ele>
        <time>2020-08-06T13:03:06Z</time>
      </trkpt>
      <trkpt lat="41.0523750" lon="0.4378670">
        <ele>374.5</ele>
        <time>2020-08-06T13:03:07Z</time>
      </trkpt>
      <trkpt lat="41.0524060" lon="0.4378970">
        <ele>374.2</ele>
        <time>2020-08-06T13:03:09Z</time>
      </trkpt>
      <trkpt lat="41.0524230" lon="0.4379080">
        <ele>374.0</ele>
        <time>2020-08-06T13:03:10Z</time>
      </trkpt>
      <trkpt lat="41.0524530" lon="0.4379200">
        <ele>373.8</ele>
        <time>2020-08-06T13:03:12Z</time>
      </trkpt>
      <trkpt lat="41.0524730" lon="0.4379270">
        <ele>371.4</ele>
        <time>2020-08-06T13:03:14Z</time>
      </trkpt>
      <trkpt lat="41.0524850" lon="0.4379490">
        <ele>371.4</ele>
        <time>2020-08-06T13:03:16Z</time>
      </trkpt>
      <trkpt lat="41.0524790" lon="0.4380030">
        <ele>371.3</ele>
        <time>2020-08-06T13:03:18Z</time>
      </trkpt>
      <trkpt lat="41.0524690" lon="0.4380300">
        <ele>371.3</ele>
        <time>2020-08-06T13:03:19Z</time>
      </trkpt>
      <trkpt lat="41.0524560" lon="0.4380780">
        <ele>371.3</ele>
        <time>2020-08-06T13:03:21Z</time>
      </trkpt>
      <trkpt lat="41.0524490" lon="0.4381070">
        <ele>371.4</ele>
        <time>2020-08-06T13:03:22Z</time>
      </trkpt>
      <trkpt lat="41.0524320" lon="0.4381660">
        <ele>371.4</ele>
        <time>2020-08-06T13:03:24Z</time>
      </trkpt>
      <trkpt lat="41.0524240" lon="0.4381960">
        <ele>371.5</ele>
        <time>2020-08-06T13:03:25Z</time>
      </trkpt>
      <trkpt lat="41.0524130" lon="0.4382570">
        <ele>371.5</ele>
        <time>2020-08-06T13:03:27Z</time>
      </trkpt>
      <trkpt lat="41.0523980" lon="0.4383240">
        <ele>371.6</ele>
        <time>2020-08-06T13:03:29Z</time>
      </trkpt>
      <trkpt lat="41.0523910" lon="0.4383570">
        <ele>371.6</ele>
        <time>2020-08-06T13:03:30Z</time>
      </trkpt>
      <trkpt lat="41.0523820" lon="0.4384190">
        <ele>371.6</ele>
        <time>2020-08-06T13:03:32Z</time>
      </trkpt>
      <trkpt lat="41.0523790" lon="0.4384480">
        <ele>371.6</ele>
        <time>2020-08-06T13:03:33Z</time>
      </trkpt>
      <trkpt lat="41.0523700" lon="0.4385000">
        <ele>371.7</ele>
        <time>2020-08-06T13:03:35Z</time>
      </trkpt>
      <trkpt lat="41.0523660" lon="0.4385200">
        <ele>371.7</ele>
        <time>2020-08-06T13:03:36Z</time>
      </trkpt>
      <trkpt lat="41.0523620" lon="0.4385430">
        <ele>371.7</ele>
        <time>2020-08-06T13:03:37Z</time>
      </trkpt>
      <trkpt lat="41.0523560" lon="0.4385930">
        <ele>371.7</ele>
        <time>2020-08-06T13:03:39Z</time>
      </trkpt>
      <trkpt lat="41.0523470" lon="0.4386320">
        <ele>371.7</ele>
        <time>2020-08-06T13:03:41Z</time>
      </trkpt>
      <trkpt lat="41.0523430" lon="0.4386440">
        <ele>371.7</ele>
        <time>2020-08-06T13:03:42Z</time>
      </trkpt>
      <trkpt lat="41.0523390" lon="0.4386570">
        <ele>371.7</ele>
        <time>2020-08-06T13:03:43Z</time>
      </trkpt>
      <trkpt lat="41.0523240" lon="0.4386950">
        <ele>371.8</ele>
        <time>2020-08-06T13:03:45Z</time>
      </trkpt>
      <trkpt lat="41.0523120" lon="0.4387320">
        <ele>371.8</ele>
        <time>2020-08-06T13:03:46Z</time>
      </trkpt>
      <trkpt lat="41.0523080" lon="0.4387460">
        <ele>371.8</ele>
        <time>2020-08-06T13:03:47Z</time>
      </trkpt>
      <trkpt lat="41.0522950" lon="0.4388090">
        <ele>371.9</ele>
        <time>2020-08-06T13:03:49Z</time>
      </trkpt>
      <trkpt lat="41.0522830" lon="0.4388690">
        <ele>372.0</ele>
        <time>2020-08-06T13:03:51Z</time>
      </trkpt>
      <trkpt lat="41.0522770" lon="0.4388970">
        <ele>372.1</ele>
        <time>2020-08-06T13:03:52Z</time>
      </trkpt>
      <trkpt lat="41.0522570" lon="0.4389530">
        <ele>372.2</ele>
        <time>2020-08-06T13:03:54Z</time>
      </trkpt>
      <trkpt lat="41.0522470" lon="0.4389760">
        <ele>372.2</ele>
        <time>2020-08-06T13:03:55Z</time>
      </trkpt>
      <trkpt lat="41.0522250" lon="0.4390050">
        <ele>372.3</ele>
        <time>2020-08-06T13:03:57Z</time>
      </trkpt>
      <trkpt lat="41.0522020" lon="0.4390450">
        <ele>372.2</ele>
        <time>2020-08-06T13:03:59Z</time>
      </trkpt>
      <trkpt lat="41.0521980" lon="0.4390930">
        <ele>372.2</ele>
        <time>2020-08-06T13:04:01Z</time>
      </trkpt>
      <trkpt lat="41.0521940" lon="0.4391320">
        <ele>372.1</ele>
        <time>2020-08-06T13:04:03Z</time>
      </trkpt>
      <trkpt lat="41.0521860" lon="0.4391430">
        <ele>372.1</ele>
        <time>2020-08-06T13:04:04Z</time>
      </trkpt>
      <trkpt lat="41.0521760" lon="0.4391470">
        <ele>372.1</ele>
        <time>2020-08-06T13:04:05Z</time>
      </trkpt>
      <trkpt lat="41.0521620" lon="0.4391360">
        <ele>372.1</ele>
        <time>2020-08-06T13:04:07Z</time>
      </trkpt>
      <trkpt lat="41.0521630" lon="0.4391260">
        <ele>372.1</ele>
        <time>2020-08-06T13:04:08Z</time>
      </trkpt>
      <trkpt lat="41.0521650" lon="0.4391220">
        <ele>372.1</ele>
        <time>2020-08-06T13:04:09Z</time>
      </trkpt>
      <trkpt lat="41.0521700" lon="0.4391190">
        <ele>372.1</ele>
        <time>2020-08-06T13:04:11Z</time>
      </trkpt>
      <trkpt lat="41.0521670" lon="0.4391170">
        <ele>372.1</ele>
        <time>2020-08-06T13:04:12Z</time>
      </trkpt>
      <trkpt lat="41.0521640" lon="0.4391130">
        <ele>372.1</ele>
        <time>2020-08-06T13:04:13Z</time>
      </trkpt>
      <trkpt lat="41.0521600" lon="0.4391090">
        <ele>372.1</ele>
        <time>2020-08-06T13:04:15Z</time>
      </trkpt>
      <trkpt lat="41.0521590" lon="0.4391080">
        <ele>372.1</ele>
        <time>2020-08-06T13:04:16Z</time>
      </trkpt>
      <trkpt lat="41.0521580" lon="0.4391070">
        <ele>372.1</ele>
        <time>2020-08-06T13:04:18Z</time>
      </trkpt>
      <trkpt lat="41.0521580" lon="0.4391070">
        <ele>372.1</ele>
        <time>2020-08-06T13:04:19Z</time>
      </trkpt>
      <trkpt lat="41.0521580" lon="0.4391070">
        <ele>372.1</ele>
        <time>2020-08-06T13:04:21Z</time>
      </trkpt>
      <trkpt lat="41.0521580" lon="0.4391060">
        <ele>372.1</ele>
        <time>2020-08-06T13:04:23Z</time>
      </trkpt>
      <trkpt lat="41.0521380" lon="0.4391650">
        <ele>372.0</ele>
        <time>2020-08-06T13:04:30Z</time>
      </trkpt>
      <trkpt lat="41.0521280" lon="0.4391780">
        <ele>372.0</ele>
        <time>2020-08-06T13:04:31Z</time>
      </trkpt>
      <trkpt lat="41.0521090" lon="0.4391980">
        <ele>371.9</ele>
        <time>2020-08-06T13:04:33Z</time>
      </trkpt>
      <trkpt lat="41.0521020" lon="0.4392110">
        <ele>371.9</ele>
        <time>2020-08-06T13:04:35Z</time>
      </trkpt>
      <trkpt lat="41.0520950" lon="0.4392170">
        <ele>371.9</ele>
        <time>2020-08-06T13:04:36Z</time>
      </trkpt>
      <trkpt lat="41.0520830" lon="0.4392340">
        <ele>371.9</ele>
        <time>2020-08-06T13:04:38Z</time>
      </trkpt>
      <trkpt lat="41.0520860" lon="0.4392400">
        <ele>371.9</ele>
        <time>2020-08-06T13:04:39Z</time>
      </trkpt>
      <trkpt lat="41.0520890" lon="0.4392450">
        <ele>371.9</ele>
        <time>2020-08-06T13:04:40Z</time>
      </trkpt>
      <trkpt lat="41.0521000" lon="0.4392530">
        <ele>371.9</ele>
        <time>2020-08-06T13:04:41Z</time>
      </trkpt>
      <trkpt lat="41.0520980" lon="0.4392670">
        <ele>371.9</ele>
        <time>2020-08-06T13:04:43Z</time>
      </trkpt>
      <trkpt lat="41.0521020" lon="0.4392750">
        <ele>371.9</ele>
        <time>2020-08-06T13:04:44Z</time>
      </trkpt>
      <trkpt lat="41.0521000" lon="0.4392860">
        <ele>371.9</ele>
        <time>2020-08-06T13:04:46Z</time>
      </trkpt>
      <trkpt lat="41.0521000" lon="0.4392940">
        <ele>371.9</ele>
        <time>2020-08-06T13:04:48Z</time>
      </trkpt>
      <trkpt lat="41.0521030" lon="0.4392960">
        <ele>371.9</ele>
        <time>2020-08-06T13:04:50Z</time>
      </trkpt>
      <trkpt lat="41.0521050" lon="0.4392960">
        <ele>371.9</ele>
        <time>2020-08-06T13:04:52Z</time>
      </trkpt>
      <trkpt lat="41.0521070" lon="0.4392950">
        <ele>371.9</ele>
        <time>2020-08-06T13:04:53Z</time>
      </trkpt>
      <trkpt lat="41.0520930" lon="0.4392620">
        <ele>371.9</ele>
        <time>2020-08-06T13:05:22Z</time>
      </trkpt>
      <trkpt lat="41.0520910" lon="0.4392630">
        <ele>371.9</ele>
        <time>2020-08-06T13:05:23Z</time>
      </trkpt>
      <trkpt lat="41.0520860" lon="0.4392680">
        <ele>371.9</ele>
        <time>2020-08-06T13:05:25Z</time>
      </trkpt>
      <trkpt lat="41.0520800" lon="0.4392700">
        <ele>371.9</ele>
        <time>2020-08-06T13:05:27Z</time>
      </trkpt>
      <trkpt lat="41.0520790" lon="0.4392740">
        <ele>371.9</ele>
        <time>2020-08-06T13:05:28Z</time>
      </trkpt>
      <trkpt lat="41.0520780" lon="0.4392790">
        <ele>371.9</ele>
        <time>2020-08-06T13:05:30Z</time>
      </trkpt>
      <trkpt lat="41.0520780" lon="0.4392780">
        <ele>371.9</ele>
        <time>2020-08-06T13:05:31Z</time>
      </trkpt>
      <trkpt lat="41.0520780" lon="0.4392770">
        <ele>371.9</ele>
        <time>2020-08-06T13:05:33Z</time>
      </trkpt>
      <trkpt lat="41.0520780" lon="0.4392770">
        <ele>371.9</ele>
        <time>2020-08-06T13:05:35Z</time>
      </trkpt>
      <trkpt lat="41.0521280" lon="0.4392520">
        <ele>371.9</ele>
        <time>2020-08-06T13:05:59Z</time>
      </trkpt>
      <trkpt lat="41.0521610" lon="0.4392830">
        <ele>371.9</ele>
        <time>2020-08-06T13:06:01Z</time>
      </trkpt>
      <trkpt lat="41.0521730" lon="0.4392990">
        <ele>371.9</ele>
        <time>2020-08-06T13:06:02Z</time>
      </trkpt>
      <trkpt lat="41.0521870" lon="0.4393200">
        <ele>371.7</ele>
        <time>2020-08-06T13:06:04Z</time>
      </trkpt>
      <trkpt lat="41.0521980" lon="0.4393340">
        <ele>371.7</ele>
        <time>2020-08-06T13:06:06Z</time>
      </trkpt>
      <trkpt lat="41.0522070" lon="0.4393420">
        <ele>371.7</ele>
        <time>2020-08-06T13:06:07Z</time>
      </trkpt>
      <trkpt lat="41.0522150" lon="0.4393470">
        <ele>371.7</ele>
        <time>2020-08-06T13:06:08Z</time>
      </trkpt>
      <trkpt lat="41.0522220" lon="0.4393470">
        <ele>371.6</ele>
        <time>2020-08-06T13:06:09Z</time>
      </trkpt>
      <trkpt lat="41.0522350" lon="0.4393360">
        <ele>371.6</ele>
        <time>2020-08-06T13:06:11Z</time>
      </trkpt>
      <trkpt lat="41.0522360" lon="0.4393420">
        <ele>371.6</ele>
        <time>2020-08-06T13:06:13Z</time>
      </trkpt>
      <trkpt lat="41.0522330" lon="0.4393520">
        <ele>371.6</ele>
        <time>2020-08-06T13:06:14Z</time>
      </trkpt>
      <trkpt lat="41.0522330" lon="0.4393720">
        <ele>371.6</ele>
        <time>2020-08-06T13:06:16Z</time>
      </trkpt>
      <trkpt lat="41.0522340" lon="0.4393800">
        <ele>371.6</ele>
        <time>2020-08-06T13:06:17Z</time>
      </trkpt>
      <trkpt lat="41.0522420" lon="0.4393730">
        <ele>371.7</ele>
        <time>2020-08-06T13:06:19Z</time>
      </trkpt>
      <trkpt lat="41.0522590" lon="0.4393440">
        <ele>371.7</ele>
        <time>2020-08-06T13:06:21Z</time>
      </trkpt>
      <trkpt lat="41.0522640" lon="0.4393300">
        <ele>371.7</ele>
        <time>2020-08-06T13:06:22Z</time>
      </trkpt>
      <trkpt lat="41.0522660" lon="0.4393200">
        <ele>371.7</ele>
        <time>2020-08-06T13:06:23Z</time>
      </trkpt>
      <trkpt lat="41.0522660" lon="0.4393140">
        <ele>371.7</ele>
        <time>2020-08-06T13:06:24Z</time>
      </trkpt>
      <trkpt lat="41.0522640" lon="0.4393100">
        <ele>371.7</ele>
        <time>2020-08-06T13:06:25Z</time>
      </trkpt>
      <trkpt lat="41.0522600" lon="0.4393070">
        <ele>371.7</ele>
        <time>2020-08-06T13:06:27Z</time>
      </trkpt>
      <trkpt lat="41.0522610" lon="0.4393100">
        <ele>371.7</ele>
        <time>2020-08-06T13:06:28Z</time>
      </trkpt>
      <trkpt lat="41.0522620" lon="0.4393120">
        <ele>371.7</ele>
        <time>2020-08-06T13:06:29Z</time>
      </trkpt>
      <trkpt lat="41.0522690" lon="0.4393200">
        <ele>371.7</ele>
        <time>2020-08-06T13:06:31Z</time>
      </trkpt>
      <trkpt lat="41.0522770" lon="0.4393130">
        <ele>371.8</ele>
        <time>2020-08-06T13:06:33Z</time>
      </trkpt>
      <trkpt lat="41.0522770" lon="0.4393110">
        <ele>371.8</ele>
        <time>2020-08-06T13:06:34Z</time>
      </trkpt>
      <trkpt lat="41.0522740" lon="0.4393130">
        <ele>371.8</ele>
        <time>2020-08-06T13:06:36Z</time>
      </trkpt>
      <trkpt lat="41.0522780" lon="0.4393140">
        <ele>371.8</ele>
        <time>2020-08-06T13:06:37Z</time>
      </trkpt>
      <trkpt lat="41.0522840" lon="0.4393150">
        <ele>371.8</ele>
        <time>2020-08-06T13:06:38Z</time>
      </trkpt>
      <trkpt lat="41.0522980" lon="0.4393140">
        <ele>371.8</ele>
        <time>2020-08-06T13:06:40Z</time>
      </trkpt>
      <trkpt lat="41.0523040" lon="0.4393070">
        <ele>371.8</ele>
        <time>2020-08-06T13:06:42Z</time>
      </trkpt>
      <trkpt lat="41.0523040" lon="0.4393070">
        <ele>371.8</ele>
        <time>2020-08-06T13:06:43Z</time>
      </trkpt>
      <trkpt lat="41.0523040" lon="0.4393090">
        <ele>371.8</ele>
        <time>2020-08-06T13:06:44Z</time>
      </trkpt>
      <trkpt lat="41.0523030" lon="0.4393300">
        <ele>371.8</ele>
        <time>2020-08-06T13:06:46Z</time>
      </trkpt>
      <trkpt lat="41.0523020" lon="0.4393360">
        <ele>371.8</ele>
        <time>2020-08-06T13:06:47Z</time>
      </trkpt>
      <trkpt lat="41.0523020" lon="0.4393380">
        <ele>371.8</ele>
        <time>2020-08-06T13:06:48Z</time>
      </trkpt>
      <trkpt lat="41.0522990" lon="0.4393370">
        <ele>371.8</ele>
        <time>2020-08-06T13:06:50Z</time>
      </trkpt>
      <trkpt lat="41.0522980" lon="0.4393330">
        <ele>371.8</ele>
        <time>2020-08-06T13:06:52Z</time>
      </trkpt>
      <trkpt lat="41.0523020" lon="0.4393290">
        <ele>371.8</ele>
        <time>2020-08-06T13:06:54Z</time>
      </trkpt>
      <trkpt lat="41.0523040" lon="0.4393280">
        <ele>371.8</ele>
        <time>2020-08-06T13:06:56Z</time>
      </trkpt>
      <trkpt lat="41.0523050" lon="0.4393280">
        <ele>371.8</ele>
        <time>2020-08-06T13:06:57Z</time>
      </trkpt>
      <trkpt lat="41.0523050" lon="0.4393280">
        <ele>371.8</ele>
        <time>2020-08-06T13:06:58Z</time>
      </trkpt>
      <trkpt lat="41.0522790" lon="0.4393630">
        <ele>371.9</ele>
        <time>2020-08-06T14:00:55Z</time>
      </trkpt>
      <trkpt lat="41.0522710" lon="0.4393630">
        <ele>371.9</ele>
        <time>2020-08-06T14:00:56Z</time>
      </trkpt>
      <trkpt lat="41.0522430" lon="0.4393630">
        <ele>371.9</ele>
        <time>2020-08-06T14:00:58Z</time>
      </trkpt>
      <trkpt lat="41.0522270" lon="0.4393630">
        <ele>371.9</ele>
        <time>2020-08-06T14:00:59Z</time>
      </trkpt>
      <trkpt lat="41.0522120" lon="0.4393580">
        <ele>371.9</ele>
        <time>2020-08-06T14:01:00Z</time>
      </trkpt>
      <trkpt lat="41.0521900" lon="0.4393260">
        <ele>372.0</ele>
        <time>2020-08-06T14:01:02Z</time>
      </trkpt>
      <trkpt lat="41.0521870" lon="0.4393190">
        <ele>372.0</ele>
        <time>2020-08-06T14:01:03Z</time>
      </trkpt>
      <trkpt lat="41.0521830" lon="0.4393010">
        <ele>372.0</ele>
        <time>2020-08-06T14:01:04Z</time>
      </trkpt>
      <trkpt lat="41.0521900" lon="0.4392820">
        <ele>372.0</ele>
        <time>2020-08-06T14:01:05Z</time>
      </trkpt>
      <trkpt lat="41.0522150" lon="0.4392830">
        <ele>372.0</ele>
        <time>2020-08-06T14:01:07Z</time>
      </trkpt>
      <trkpt lat="41.0522240" lon="0.4392850">
        <ele>372.0</ele>
        <time>2020-08-06T14:01:08Z</time>
      </trkpt>
      <trkpt lat="41.0522410" lon="0.4392810">
        <ele>372.1</ele>
        <time>2020-08-06T14:01:10Z</time>
      </trkpt>
      <trkpt lat="41.0522410" lon="0.4392660">
        <ele>372.1</ele>
        <time>2020-08-06T14:01:11Z</time>
      </trkpt>
      <trkpt lat="41.0522340" lon="0.4392470">
        <ele>372.1</ele>
        <time>2020-08-06T14:01:12Z</time>
      </trkpt>
      <trkpt lat="41.0522130" lon="0.4392100">
        <ele>372.1</ele>
        <time>2020-08-06T14:01:14Z</time>
      </trkpt>
      <trkpt lat="41.0522070" lon="0.4391960">
        <ele>372.1</ele>
        <time>2020-08-06T14:01:15Z</time>
      </trkpt>
      <trkpt lat="41.0522030" lon="0.4391730">
        <ele>372.1</ele>
        <time>2020-08-06T14:01:17Z</time>
      </trkpt>
      <trkpt lat="41.0522030" lon="0.4391560">
        <ele>372.1</ele>
        <time>2020-08-06T14:01:18Z</time>
      </trkpt>
      <trkpt lat="41.0521980" lon="0.4391290">
        <ele>372.2</ele>
        <time>2020-08-06T14:01:20Z</time>
      </trkpt>
      <trkpt lat="41.0521950" lon="0.4391080">
        <ele>372.2</ele>
        <time>2020-08-06T14:01:21Z</time>
      </trkpt>
      <trkpt lat="41.0521870" lon="0.4390780">
        <ele>372.2</ele>
        <time>2020-08-06T14:01:23Z</time>
      </trkpt>
      <trkpt lat="41.0521860" lon="0.4390670">
        <ele>372.2</ele>
        <time>2020-08-06T14:01:24Z</time>
      </trkpt>
      <trkpt lat="41.0521860" lon="0.4390510">
        <ele>372.2</ele>
        <time>2020-08-06T14:01:26Z</time>
      </trkpt>
      <trkpt lat="41.0521850" lon="0.4390470">
        <ele>372.2</ele>
        <time>2020-08-06T14:01:27Z</time>
      </trkpt>
      <trkpt lat="41.0521830" lon="0.4388960">
        <ele>372.1</ele>
        <time>2020-08-06T14:01:29Z</time>
      </trkpt>
      <trkpt lat="41.0521890" lon="0.4388390">
        <ele>372.0</ele>
        <time>2020-08-06T14:01:30Z</time>
      </trkpt>
      <trkpt lat="41.0521960" lon="0.4388150">
        <ele>372.0</ele>
        <time>2020-08-06T14:01:31Z</time>
      </trkpt>
      <trkpt lat="41.0522030" lon="0.4388110">
        <ele>372.1</ele>
        <time>2020-08-06T14:01:32Z</time>
      </trkpt>
      <trkpt lat="41.0522090" lon="0.4388120">
        <ele>372.1</ele>
        <time>2020-08-06T14:01:33Z</time>
      </trkpt>
      <trkpt lat="41.0522130" lon="0.4388160">
        <ele>372.1</ele>
        <time>2020-08-06T14:01:34Z</time>
      </trkpt>
      <trkpt lat="41.0522110" lon="0.4388200">
        <ele>372.1</ele>
        <time>2020-08-06T14:01:35Z</time>
      </trkpt>
      <trkpt lat="41.0522070" lon="0.4388630">
        <ele>372.1</ele>
        <time>2020-08-06T14:01:37Z</time>
      </trkpt>
      <trkpt lat="41.0522050" lon="0.4388900">
        <ele>372.2</ele>
        <time>2020-08-06T14:01:39Z</time>
      </trkpt>
      <trkpt lat="41.0522060" lon="0.4388940">
        <ele>372.2</ele>
        <time>2020-08-06T14:01:40Z</time>
      </trkpt>
      <trkpt lat="41.0522070" lon="0.4388970">
        <ele>372.2</ele>
        <time>2020-08-06T14:01:41Z</time>
      </trkpt>
      <trkpt lat="41.0522070" lon="0.4389010">
        <ele>372.2</ele>
        <time>2020-08-06T14:01:42Z</time>
      </trkpt>
      <trkpt lat="41.0522080" lon="0.4389050">
        <ele>372.2</ele>
        <time>2020-08-06T14:01:43Z</time>
      </trkpt>
      <trkpt lat="41.0522090" lon="0.4389090">
        <ele>372.2</ele>
        <time>2020-08-06T14:01:44Z</time>
      </trkpt>
      <trkpt lat="41.0522100" lon="0.4389130">
        <ele>372.2</ele>
        <time>2020-08-06T14:01:47Z</time>
      </trkpt>
      <trkpt lat="41.0522110" lon="0.4389160">
        <ele>372.2</ele>
        <time>2020-08-06T14:01:48Z</time>
      </trkpt>
      <trkpt lat="41.0522120" lon="0.4389200">
        <ele>372.2</ele>
        <time>2020-08-06T14:01:50Z</time>
      </trkpt>
      <trkpt lat="41.0522130" lon="0.4389240">
        <ele>372.2</ele>
        <time>2020-08-06T14:01:51Z</time>
      </trkpt>
      <trkpt lat="41.0522130" lon="0.4389280">
        <ele>372.2</ele>
        <time>2020-08-06T14:01:53Z</time>
      </trkpt>
      <trkpt lat="41.0522140" lon="0.4389320">
        <ele>372.2</ele>
        <time>2020-08-06T14:01:55Z</time>
      </trkpt>
      <trkpt lat="41.0522150" lon="0.4389360">
        <ele>372.2</ele>
        <time>2020-08-06T14:01:56Z</time>
      </trkpt>
      <trkpt lat="41.0522160" lon="0.4389390">
        <ele>372.2</ele>
        <time>2020-08-06T14:01:57Z</time>
      </trkpt>
      <trkpt lat="41.0522170" lon="0.4389430">
        <ele>372.2</ele>
        <time>2020-08-06T14:01:59Z</time>
      </trkpt>
      <trkpt lat="41.0522180" lon="0.4389470">
        <ele>372.2</ele>
        <time>2020-08-06T14:02:00Z</time>
      </trkpt>
      <trkpt lat="41.0522190" lon="0.4389510">
        <ele>372.2</ele>
        <time>2020-08-06T14:02:05Z</time>
      </trkpt>
      <trkpt lat="41.0522190" lon="0.4389550">
        <ele>372.2</ele>
        <time>2020-08-06T14:02:06Z</time>
      </trkpt>
      <trkpt lat="41.0522200" lon="0.4389580">
        <ele>372.3</ele>
        <time>2020-08-06T14:02:07Z</time>
      </trkpt>
      <trkpt lat="41.0522210" lon="0.4389620">
        <ele>372.3</ele>
        <time>2020-08-06T14:02:08Z</time>
      </trkpt>
      <trkpt lat="41.0522220" lon="0.4389660">
        <ele>372.3</ele>
        <time>2020-08-06T14:02:09Z</time>
      </trkpt>
      <trkpt lat="41.0522060" lon="0.4390140">
        <ele>372.3</ele>
        <time>2020-08-06T14:02:11Z</time>
      </trkpt>
      <trkpt lat="41.0521980" lon="0.4390260">
        <ele>376.1</ele>
        <time>2020-08-06T14:02:13Z</time>
      </trkpt>
      <trkpt lat="41.0521520" lon="0.4390130">
        <ele>376.2</ele>
        <time>2020-08-06T14:02:20Z</time>
      </trkpt>
      <trkpt lat="41.0521280" lon="0.4390240">
        <ele>376.3</ele>
        <time>2020-08-06T14:02:22Z</time>
      </trkpt>
      <trkpt lat="41.0521210" lon="0.4390270">
        <ele>376.3</ele>
        <time>2020-08-06T14:02:23Z</time>
      </trkpt>
      <trkpt lat="41.0521160" lon="0.4390290">
        <ele>376.3</ele>
        <time>2020-08-06T14:02:24Z</time>
      </trkpt>
      <trkpt lat="41.0521070" lon="0.4390340">
        <ele>376.3</ele>
        <time>2020-08-06T14:02:26Z</time>
      </trkpt>
      <trkpt lat="41.0521050" lon="0.4390410">
        <ele>376.4</ele>
        <time>2020-08-06T14:02:27Z</time>
      </trkpt>
      <trkpt lat="41.0521070" lon="0.4390590">
        <ele>376.4</ele>
        <time>2020-08-06T14:02:29Z</time>
      </trkpt>
      <trkpt lat="41.0521080" lon="0.4390670">
        <ele>376.4</ele>
        <time>2020-08-06T14:02:30Z</time>
      </trkpt>
      <trkpt lat="41.0521080" lon="0.4390760">
        <ele>376.4</ele>
        <time>2020-08-06T14:02:31Z</time>
      </trkpt>
      <trkpt lat="41.0521090" lon="0.4390830">
        <ele>376.4</ele>
        <time>2020-08-06T14:02:32Z</time>
      </trkpt>
      <trkpt lat="41.0521110" lon="0.4390930">
        <ele>376.5</ele>
        <time>2020-08-06T14:02:34Z</time>
      </trkpt>
      <trkpt lat="41.0521090" lon="0.4390920">
        <ele>376.5</ele>
        <time>2020-08-06T14:02:36Z</time>
      </trkpt>
      <trkpt lat="41.0521070" lon="0.4390900">
        <ele>376.5</ele>
        <time>2020-08-06T14:02:38Z</time>
      </trkpt>
      <trkpt lat="41.0521070" lon="0.4390910">
        <ele>376.5</ele>
        <time>2020-08-06T14:02:39Z</time>
      </trkpt>
      <trkpt lat="41.0521210" lon="0.4391010">
        <ele>376.5</ele>
        <time>2020-08-06T14:02:40Z</time>
      </trkpt>
      <trkpt lat="41.0521310" lon="0.4391070">
        <ele>376.6</ele>
        <time>2020-08-06T14:02:41Z</time>
      </trkpt>
      <trkpt lat="41.0521520" lon="0.4391110">
        <ele>376.6</ele>
        <time>2020-08-06T14:02:43Z</time>
      </trkpt>
      <trkpt lat="41.0521750" lon="0.4390600">
        <ele>376.8</ele>
        <time>2020-08-06T14:02:45Z</time>
      </trkpt>
      <trkpt lat="41.0521810" lon="0.4390340">
        <ele>376.8</ele>
        <time>2020-08-06T14:02:46Z</time>
      </trkpt>
      <trkpt lat="41.0521820" lon="0.4390200">
        <ele>376.8</ele>
        <time>2020-08-06T14:02:47Z</time>
      </trkpt>
      <trkpt lat="41.0521810" lon="0.4390110">
        <ele>376.9</ele>
        <time>2020-08-06T14:02:48Z</time>
      </trkpt>
      <trkpt lat="41.0521900" lon="0.4389970">
        <ele>376.9</ele>
        <time>2020-08-06T14:02:50Z</time>
      </trkpt>
      <trkpt lat="41.0521930" lon="0.4389810">
        <ele>376.9</ele>
        <time>2020-08-06T14:02:52Z</time>
      </trkpt>
      <trkpt lat="41.0521830" lon="0.4389510">
        <ele>377.0</ele>
        <time>2020-08-06T14:02:54Z</time>
      </trkpt>
      <trkpt lat="41.0521780" lon="0.4389410">
        <ele>377.5</ele>
        <time>2020-08-06T14:02:55Z</time>
      </trkpt>
      <trkpt lat="41.0521710" lon="0.4389260">
        <ele>377.5</ele>
        <time>2020-08-06T14:02:57Z</time>
      </trkpt>
      <trkpt lat="41.0521690" lon="0.4389200">
        <ele>377.5</ele>
        <time>2020-08-06T14:02:58Z</time>
      </trkpt>
      <trkpt lat="41.0521660" lon="0.4389130">
        <ele>377.5</ele>
        <time>2020-08-06T14:02:59Z</time>
      </trkpt>
      <trkpt lat="41.0521630" lon="0.4389070">
        <ele>377.6</ele>
        <time>2020-08-06T14:03:00Z</time>
      </trkpt>
      <trkpt lat="41.0521610" lon="0.4389000">
        <ele>377.6</ele>
        <time>2020-08-06T14:03:02Z</time>
      </trkpt>
      <trkpt lat="41.0521580" lon="0.4388940">
        <ele>377.6</ele>
        <time>2020-08-06T14:03:03Z</time>
      </trkpt>
      <trkpt lat="41.0521510" lon="0.4388510">
        <ele>377.6</ele>
        <time>2020-08-06T14:03:05Z</time>
      </trkpt>
      <trkpt lat="41.0521510" lon="0.4388350">
        <ele>377.6</ele>
        <time>2020-08-06T14:03:06Z</time>
      </trkpt>
      <trkpt lat="41.0521440" lon="0.4388190">
        <ele>377.6</ele>
        <time>2020-08-06T14:03:07Z</time>
      </trkpt>
      <trkpt lat="41.0521340" lon="0.4387940">
        <ele>377.7</ele>
        <time>2020-08-06T14:03:09Z</time>
      </trkpt>
      <trkpt lat="41.0521270" lon="0.4387760">
        <ele>377.7</ele>
        <time>2020-08-06T14:03:10Z</time>
      </trkpt>
      <trkpt lat="41.0521190" lon="0.4387640">
        <ele>377.7</ele>
        <time>2020-08-06T14:03:11Z</time>
      </trkpt>
      <trkpt lat="41.0521030" lon="0.4387300">
        <ele>377.7</ele>
        <time>2020-08-06T14:03:13Z</time>
      </trkpt>
      <trkpt lat="41.0520980" lon="0.4387190">
        <ele>377.7</ele>
        <time>2020-08-06T14:03:14Z</time>
      </trkpt>
      <trkpt lat="41.0520940" lon="0.4386970">
        <ele>377.7</ele>
        <time>2020-08-06T14:03:15Z</time>
      </trkpt>
      <trkpt lat="41.0520890" lon="0.4386760">
        <ele>377.7</ele>
        <time>2020-08-06T14:03:16Z</time>
      </trkpt>
      <trkpt lat="41.0520870" lon="0.4386330">
        <ele>377.8</ele>
        <time>2020-08-06T14:03:18Z</time>
      </trkpt>
      <trkpt lat="41.0520880" lon="0.4385930">
        <ele>377.8</ele>
        <time>2020-08-06T14:03:20Z</time>
      </trkpt>
      <trkpt lat="41.0520930" lon="0.4385690">
        <ele>377.8</ele>
        <time>2020-08-06T14:03:21Z</time>
      </trkpt>
      <trkpt lat="41.0520980" lon="0.4385490">
        <ele>377.8</ele>
        <time>2020-08-06T14:03:22Z</time>
      </trkpt>
      <trkpt lat="41.0521130" lon="0.4385180">
        <ele>377.8</ele>
        <time>2020-08-06T14:03:24Z</time>
      </trkpt>
      <trkpt lat="41.0521230" lon="0.4385010">
        <ele>377.8</ele>
        <time>2020-08-06T14:03:25Z</time>
      </trkpt>
      <trkpt lat="41.0521290" lon="0.4384850">
        <ele>377.8</ele>
        <time>2020-08-06T14:03:26Z</time>
      </trkpt>
      <trkpt lat="41.0521210" lon="0.4384410">
        <ele>377.8</ele>
        <time>2020-08-06T14:03:28Z</time>
      </trkpt>
      <trkpt lat="41.0521150" lon="0.4384270">
        <ele>377.8</ele>
        <time>2020-08-06T14:03:29Z</time>
      </trkpt>
      <trkpt lat="41.0521170" lon="0.4384060">
        <ele>377.8</ele>
        <time>2020-08-06T14:03:30Z</time>
      </trkpt>
      <trkpt lat="41.0521190" lon="0.4383860">
        <ele>377.8</ele>
        <time>2020-08-06T14:03:31Z</time>
      </trkpt>
      <trkpt lat="41.0521220" lon="0.4383690">
        <ele>377.7</ele>
        <time>2020-08-06T14:03:32Z</time>
      </trkpt>
      <trkpt lat="41.0521230" lon="0.4383540">
        <ele>377.7</ele>
        <time>2020-08-06T14:03:33Z</time>
      </trkpt>
      <trkpt lat="41.0521290" lon="0.4383210">
        <ele>377.7</ele>
        <time>2020-08-06T14:03:35Z</time>
      </trkpt>
      <trkpt lat="41.0521340" lon="0.4382990">
        <ele>377.7</ele>
        <time>2020-08-06T14:03:36Z</time>
      </trkpt>
      <trkpt lat="41.0521390" lon="0.4382530">
        <ele>377.7</ele>
        <time>2020-08-06T14:03:38Z</time>
      </trkpt>
      <trkpt lat="41.0521380" lon="0.4382000">
        <ele>377.7</ele>
        <time>2020-08-06T14:03:40Z</time>
      </trkpt>
      <trkpt lat="41.0521370" lon="0.4381830">
        <ele>377.7</ele>
        <time>2020-08-06T14:03:41Z</time>
      </trkpt>
      <trkpt lat="41.0521360" lon="0.4381670">
        <ele>377.7</ele>
        <time>2020-08-06T14:03:42Z</time>
      </trkpt>
      <trkpt lat="41.0521360" lon="0.4381220">
        <ele>377.7</ele>
        <time>2020-08-06T14:03:44Z</time>
      </trkpt>
      <trkpt lat="41.0521440" lon="0.4380990">
        <ele>377.7</ele>
        <time>2020-08-06T14:03:45Z</time>
      </trkpt>
      <trkpt lat="41.0521540" lon="0.4380580">
        <ele>377.7</ele>
        <time>2020-08-06T14:03:47Z</time>
      </trkpt>
      <trkpt lat="41.0521610" lon="0.4380340">
        <ele>377.7</ele>
        <time>2020-08-06T14:03:48Z</time>
      </trkpt>
      <trkpt lat="41.0521590" lon="0.4380020">
        <ele>377.7</ele>
        <time>2020-08-06T14:03:50Z</time>
      </trkpt>
      <trkpt lat="41.0521610" lon="0.4379610">
        <ele>377.7</ele>
        <time>2020-08-06T14:03:51Z</time>
      </trkpt>
      <trkpt lat="41.0521640" lon="0.4379450">
        <ele>377.7</ele>
        <time>2020-08-06T14:03:52Z</time>
      </trkpt>
      <trkpt lat="41.0521690" lon="0.4379160">
        <ele>377.7</ele>
        <time>2020-08-06T14:03:53Z</time>
      </trkpt>
      <trkpt lat="41.0521760" lon="0.4378720">
        <ele>377.7</ele>
        <time>2020-08-06T14:03:55Z</time>
      </trkpt>
      <trkpt lat="41.0521790" lon="0.4378280">
        <ele>377.6</ele>
        <time>2020-08-06T14:03:56Z</time>
      </trkpt>
      <trkpt lat="41.0521810" lon="0.4377730">
        <ele>377.4</ele>
        <time>2020-08-06T14:03:58Z</time>
      </trkpt>
      <trkpt lat="41.0521850" lon="0.4377370">
        <ele>377.2</ele>
        <time>2020-08-06T14:03:59Z</time>
      </trkpt>
      <trkpt lat="41.0521890" lon="0.4377110">
        <ele>377.2</ele>
        <time>2020-08-06T14:04:00Z</time>
      </trkpt>
      <trkpt lat="41.0521960" lon="0.4376720">
        <ele>377.0</ele>
        <time>2020-08-06T14:04:02Z</time>
      </trkpt>
      <trkpt lat="41.0522070" lon="0.4376290">
        <ele>376.9</ele>
        <time>2020-08-06T14:04:03Z</time>
      </trkpt>
      <trkpt lat="41.0522170" lon="0.4376060">
        <ele>376.8</ele>
        <time>2020-08-06T14:04:04Z</time>
      </trkpt>
      <trkpt lat="41.0522320" lon="0.4375570">
        <ele>376.6</ele>
        <time>2020-08-06T14:04:06Z</time>
      </trkpt>
      <trkpt lat="41.0522430" lon="0.4374980">
        <ele>376.4</ele>
        <time>2020-08-06T14:04:08Z</time>
      </trkpt>
      <trkpt lat="41.0522490" lon="0.4374610">
        <ele>376.3</ele>
        <time>2020-08-06T14:04:09Z</time>
      </trkpt>
      <trkpt lat="41.0522490" lon="0.4374490">
        <ele>376.2</ele>
        <time>2020-08-06T14:04:10Z</time>
      </trkpt>
      <trkpt lat="41.0522490" lon="0.4374270">
        <ele>376.2</ele>
        <time>2020-08-06T14:04:11Z</time>
      </trkpt>
      <trkpt lat="41.0522470" lon="0.4374080">
        <ele>376.1</ele>
        <time>2020-08-06T14:04:12Z</time>
      </trkpt>
      <trkpt lat="41.0522490" lon="0.4373640">
        <ele>375.9</ele>
        <time>2020-08-06T14:04:14Z</time>
      </trkpt>
      <trkpt lat="41.0522450" lon="0.4373590">
        <ele>375.9</ele>
        <time>2020-08-06T14:04:15Z</time>
      </trkpt>
      <trkpt lat="41.0522430" lon="0.4373490">
        <ele>375.9</ele>
        <time>2020-08-06T14:04:17Z</time>
      </trkpt>
      <trkpt lat="41.0522440" lon="0.4373330">
        <ele>375.8</ele>
        <time>2020-08-06T14:04:18Z</time>
      </trkpt>
      <trkpt lat="41.0522450" lon="0.4373240">
        <ele>375.8</ele>
        <time>2020-08-06T14:04:19Z</time>
      </trkpt>
      <trkpt lat="41.0522510" lon="0.4372840">
        <ele>375.7</ele>
        <time>2020-08-06T14:04:21Z</time>
      </trkpt>
      <trkpt lat="41.0522540" lon="0.4372740">
        <ele>375.6</ele>
        <time>2020-08-06T14:04:22Z</time>
      </trkpt>
      <trkpt lat="41.0522570" lon="0.4372620">
        <ele>375.6</ele>
        <time>2020-08-06T14:04:23Z</time>
      </trkpt>
      <trkpt lat="41.0522780" lon="0.4372270">
        <ele>375.4</ele>
        <time>2020-08-06T14:04:25Z</time>
      </trkpt>
      <trkpt lat="41.0523090" lon="0.4371810">
        <ele>375.2</ele>
        <time>2020-08-06T14:04:27Z</time>
      </trkpt>
      <trkpt lat="41.0523170" lon="0.4371680">
        <ele>375.2</ele>
        <time>2020-08-06T14:04:28Z</time>
      </trkpt>
      <trkpt lat="41.0523240" lon="0.4371540">
        <ele>375.1</ele>
        <time>2020-08-06T14:04:29Z</time>
      </trkpt>
      <trkpt lat="41.0523490" lon="0.4371120">
        <ele>374.9</ele>
        <time>2020-08-06T14:04:31Z</time>
      </trkpt>
      <trkpt lat="41.0523570" lon="0.4370960">
        <ele>374.9</ele>
        <time>2020-08-06T14:04:32Z</time>
      </trkpt>
      <trkpt lat="41.0523820" lon="0.4370690">
        <ele>374.7</ele>
        <time>2020-08-06T14:04:34Z</time>
      </trkpt>
      <trkpt lat="41.0523870" lon="0.4370630">
        <ele>374.7</ele>
        <time>2020-08-06T14:04:35Z</time>
      </trkpt>
      <trkpt lat="41.0523960" lon="0.4370520">
        <ele>374.6</ele>
        <time>2020-08-06T14:04:36Z</time>
      </trkpt>
      <trkpt lat="41.0524040" lon="0.4370430">
        <ele>374.6</ele>
        <time>2020-08-06T14:04:37Z</time>
      </trkpt>
      <trkpt lat="41.0524150" lon="0.4370280">
        <ele>374.5</ele>
        <time>2020-08-06T14:04:39Z</time>
      </trkpt>
      <trkpt lat="41.0524230" lon="0.4370120">
        <ele>374.4</ele>
        <time>2020-08-06T14:04:41Z</time>
      </trkpt>
      <trkpt lat="41.0524280" lon="0.4370040">
        <ele>374.4</ele>
        <time>2020-08-06T14:04:42Z</time>
      </trkpt>
      <trkpt lat="41.0524340" lon="0.4369960">
        <ele>374.4</ele>
        <time>2020-08-06T14:04:43Z</time>
      </trkpt>
      <trkpt lat="41.0524410" lon="0.4369850">
        <ele>374.3</ele>
        <time>2020-08-06T14:04:44Z</time>
      </trkpt>
      <trkpt lat="41.0524490" lon="0.4369740">
        <ele>374.3</ele>
        <time>2020-08-06T14:04:46Z</time>
      </trkpt>
      <trkpt lat="41.0524510" lon="0.4369680">
        <ele>374.3</ele>
        <time>2020-08-06T14:04:47Z</time>
      </trkpt>
      <trkpt lat="41.0524530" lon="0.4369620">
        <ele>374.2</ele>
        <time>2020-08-06T14:04:48Z</time>
      </trkpt>
      <trkpt lat="41.0524560" lon="0.4369560">
        <ele>374.2</ele>
        <time>2020-08-06T14:04:49Z</time>
      </trkpt>
      <trkpt lat="41.0524610" lon="0.4369440">
        <ele>374.2</ele>
        <time>2020-08-06T14:04:51Z</time>
      </trkpt>
      <trkpt lat="41.0524640" lon="0.4369380">
        <ele>374.1</ele>
        <time>2020-08-06T14:04:52Z</time>
      </trkpt>
      <trkpt lat="41.0525160" lon="0.4368670">
        <ele>373.8</ele>
        <time>2020-08-06T14:04:54Z</time>
      </trkpt>
      <trkpt lat="41.0525520" lon="0.4368170">
        <ele>374.0</ele>
        <time>2020-08-06T14:04:55Z</time>
      </trkpt>
      <trkpt lat="41.0525850" lon="0.4367680">
        <ele>374.1</ele>
        <time>2020-08-06T14:04:56Z</time>
      </trkpt>
      <trkpt lat="41.0526130" lon="0.4367280">
        <ele>374.1</ele>
        <time>2020-08-06T14:04:58Z</time>
      </trkpt>
      <trkpt lat="41.0526140" lon="0.4367270">
        <ele>374.1</ele>
        <time>2020-08-06T14:04:59Z</time>
      </trkpt>
      <trkpt lat="41.0526090" lon="0.4367360">
        <ele>374.1</ele>
        <time>2020-08-06T14:05:01Z</time>
      </trkpt>
      <trkpt lat="41.0526060" lon="0.4367400">
        <ele>374.1</ele>
        <time>2020-08-06T14:05:02Z</time>
      </trkpt>
      <trkpt lat="41.0526010" lon="0.4367440">
        <ele>374.1</ele>
        <time>2020-08-06T14:05:04Z</time>
      </trkpt>
      <trkpt lat="41.0525990" lon="0.4367450">
        <ele>374.1</ele>
        <time>2020-08-06T14:05:05Z</time>
      </trkpt>
      <trkpt lat="41.0525980" lon="0.4367450">
        <ele>374.1</ele>
        <time>2020-08-06T14:05:06Z</time>
      </trkpt>
      <trkpt lat="41.0525970" lon="0.4367450">
        <ele>374.1</ele>
        <time>2020-08-06T14:05:07Z</time>
      </trkpt>
      <trkpt lat="41.0525960" lon="0.4367450">
        <ele>374.1</ele>
        <time>2020-08-06T14:05:09Z</time>
      </trkpt>
      <trkpt lat="41.0525960" lon="0.4367460">
        <ele>374.1</ele>
        <time>2020-08-06T14:05:10Z</time>
      </trkpt>
      <trkpt lat="41.0525830" lon="0.4367140">
        <ele>374.2</ele>
        <time>2020-08-06T14:05:53Z</time>
      </trkpt>
      <trkpt lat="41.0525880" lon="0.4367040">
        <ele>374.2</ele>
        <time>2020-08-06T14:05:55Z</time>
      </trkpt>
      <trkpt lat="41.0525990" lon="0.4367090">
        <ele>374.2</ele>
        <time>2020-08-06T14:05:56Z</time>
      </trkpt>
      <trkpt lat="41.0526050" lon="0.4367060">
        <ele>374.2</ele>
        <time>2020-08-06T14:05:57Z</time>
      </trkpt>
      <trkpt lat="41.0526160" lon="0.4367080">
        <ele>374.2</ele>
        <time>2020-08-06T14:05:59Z</time>
      </trkpt>
      <trkpt lat="41.0526190" lon="0.4367000">
        <ele>374.2</ele>
        <time>2020-08-06T14:06:01Z</time>
      </trkpt>
      <trkpt lat="41.0526210" lon="0.4366990">
        <ele>374.2</ele>
        <time>2020-08-06T14:06:02Z</time>
      </trkpt>
      <trkpt lat="41.0526310" lon="0.4367030">
        <ele>374.2</ele>
        <time>2020-08-06T14:06:04Z</time>
      </trkpt>
      <trkpt lat="41.0526380" lon="0.4366960">
        <ele>374.2</ele>
        <time>2020-08-06T14:06:05Z</time>
      </trkpt>
      <trkpt lat="41.0526420" lon="0.4366870">
        <ele>374.2</ele>
        <time>2020-08-06T14:06:06Z</time>
      </trkpt>
      <trkpt lat="41.0526540" lon="0.4366690">
        <ele>374.2</ele>
        <time>2020-08-06T14:06:08Z</time>
      </trkpt>
      <trkpt lat="41.0526590" lon="0.4366630">
        <ele>374.2</ele>
        <time>2020-08-06T14:06:09Z</time>
      </trkpt>
      <trkpt lat="41.0526640" lon="0.4366560">
        <ele>374.2</ele>
        <time>2020-08-06T14:06:11Z</time>
      </trkpt>
      <trkpt lat="41.0526690" lon="0.4366500">
        <ele>374.1</ele>
        <time>2020-08-06T14:06:12Z</time>
      </trkpt>
      <trkpt lat="41.0526750" lon="0.4366380">
        <ele>374.1</ele>
        <time>2020-08-06T14:06:13Z</time>
      </trkpt>
      <trkpt lat="41.0526730" lon="0.4366170">
        <ele>374.0</ele>
        <time>2020-08-06T14:06:15Z</time>
      </trkpt>
      <trkpt lat="41.0526730" lon="0.4366070">
        <ele>373.9</ele>
        <time>2020-08-06T14:06:16Z</time>
      </trkpt>
      <trkpt lat="41.0526760" lon="0.4365830">
        <ele>373.8</ele>
        <time>2020-08-06T14:06:17Z</time>
      </trkpt>
      <trkpt lat="41.0526800" lon="0.4365690">
        <ele>373.7</ele>
        <time>2020-08-06T14:06:19Z</time>
      </trkpt>
      <trkpt lat="41.0526830" lon="0.4365560">
        <ele>373.7</ele>
        <time>2020-08-06T14:06:20Z</time>
      </trkpt>
      <trkpt lat="41.0526860" lon="0.4365310">
        <ele>373.5</ele>
        <time>2020-08-06T14:06:21Z</time>
      </trkpt>
      <trkpt lat="41.0526940" lon="0.4364980">
        <ele>373.3</ele>
        <time>2020-08-06T14:06:23Z</time>
      </trkpt>
      <trkpt lat="41.0527120" lon="0.4364510">
        <ele>373.0</ele>
        <time>2020-08-06T14:06:25Z</time>
      </trkpt>
      <trkpt lat="41.0527180" lon="0.4364370">
        <ele>372.9</ele>
        <time>2020-08-06T14:06:26Z</time>
      </trkpt>
      <trkpt lat="41.0527240" lon="0.4364220">
        <ele>372.8</ele>
        <time>2020-08-06T14:06:27Z</time>
      </trkpt>
      <trkpt lat="41.0527380" lon="0.4363910">
        <ele>372.5</ele>
        <time>2020-08-06T14:06:29Z</time>
      </trkpt>
      <trkpt lat="41.0527450" lon="0.4363690">
        <ele>372.4</ele>
        <time>2020-08-06T14:06:30Z</time>
      </trkpt>
      <trkpt lat="41.0527570" lon="0.4363350">
        <ele>372.1</ele>
        <time>2020-08-06T14:06:32Z</time>
      </trkpt>
      <trkpt lat="41.0527650" lon="0.4363110">
        <ele>371.9</ele>
        <time>2020-08-06T14:06:33Z</time>
      </trkpt>
      <trkpt lat="41.0527700" lon="0.4362990">
        <ele>371.8</ele>
        <time>2020-08-06T14:06:34Z</time>
      </trkpt>
      <trkpt lat="41.0527870" lon="0.4362330">
        <ele>371.2</ele>
        <time>2020-08-06T14:06:36Z</time>
      </trkpt>
      <trkpt lat="41.0527930" lon="0.4362090">
        <ele>371.1</ele>
        <time>2020-08-06T14:06:38Z</time>
      </trkpt>
      <trkpt lat="41.0527990" lon="0.4361860">
        <ele>370.9</ele>
        <time>2020-08-06T14:06:39Z</time>
      </trkpt>
      <trkpt lat="41.0528050" lon="0.4361620">
        <ele>370.7</ele>
        <time>2020-08-06T14:06:40Z</time>
      </trkpt>
      <trkpt lat="41.0528110" lon="0.4361440">
        <ele>370.5</ele>
        <time>2020-08-06T14:06:41Z</time>
      </trkpt>
      <trkpt lat="41.0528260" lon="0.4361160">
        <ele>370.3</ele>
        <time>2020-08-06T14:06:43Z</time>
      </trkpt>
      <trkpt lat="41.0528340" lon="0.4361100">
        <ele>370.2</ele>
        <time>2020-08-06T14:06:44Z</time>
      </trkpt>
      <trkpt lat="41.0528410" lon="0.4361030">
        <ele>370.1</ele>
        <time>2020-08-06T14:06:45Z</time>
      </trkpt>
      <trkpt lat="41.0528550" lon="0.4360910">
        <ele>369.9</ele>
        <time>2020-08-06T14:06:47Z</time>
      </trkpt>
      <trkpt lat="41.0528610" lon="0.4360840">
        <ele>369.8</ele>
        <time>2020-08-06T14:06:48Z</time>
      </trkpt>
      <trkpt lat="41.0528760" lon="0.4360770">
        <ele>369.6</ele>
        <time>2020-08-06T14:06:50Z</time>
      </trkpt>
      <trkpt lat="41.0528810" lon="0.4360660">
        <ele>369.4</ele>
        <time>2020-08-06T14:06:51Z</time>
      </trkpt>
      <trkpt lat="41.0528890" lon="0.4360230">
        <ele>369.0</ele>
        <time>2020-08-06T14:06:53Z</time>
      </trkpt>
      <trkpt lat="41.0529060" lon="0.4359860">
        <ele>368.5</ele>
        <time>2020-08-06T14:06:54Z</time>
      </trkpt>
      <trkpt lat="41.0529160" lon="0.4359800">
        <ele>368.5</ele>
        <time>2020-08-06T14:06:55Z</time>
      </trkpt>
      <trkpt lat="41.0529040" lon="0.4359780">
        <ele>368.5</ele>
        <time>2020-08-06T14:06:57Z</time>
      </trkpt>
      <trkpt lat="41.0528960" lon="0.4359700">
        <ele>368.5</ele>
        <time>2020-08-06T14:06:58Z</time>
      </trkpt>
      <trkpt lat="41.0528880" lon="0.4359730">
        <ele>368.5</ele>
        <time>2020-08-06T14:06:59Z</time>
      </trkpt>
      <trkpt lat="41.0528820" lon="0.4359790">
        <ele>368.6</ele>
        <time>2020-08-06T14:07:01Z</time>
      </trkpt>
      <trkpt lat="41.0528800" lon="0.4359830">
        <ele>368.6</ele>
        <time>2020-08-06T14:07:02Z</time>
      </trkpt>
      <trkpt lat="41.0528770" lon="0.4359890">
        <ele>368.6</ele>
        <time>2020-08-06T14:07:03Z</time>
      </trkpt>
      <trkpt lat="41.0528740" lon="0.4360050">
        <ele>368.6</ele>
        <time>2020-08-06T14:07:05Z</time>
      </trkpt>
      <trkpt lat="41.0528720" lon="0.4360130">
        <ele>368.6</ele>
        <time>2020-08-06T14:07:06Z</time>
      </trkpt>
      <trkpt lat="41.0528720" lon="0.4360180">
        <ele>368.6</ele>
        <time>2020-08-06T14:07:07Z</time>
      </trkpt>
      <trkpt lat="41.0528720" lon="0.4360220">
        <ele>368.6</ele>
        <time>2020-08-06T14:07:08Z</time>
      </trkpt>
      <trkpt lat="41.0528740" lon="0.4360240">
        <ele>368.6</ele>
        <time>2020-08-06T14:07:09Z</time>
      </trkpt>
      <trkpt lat="41.0528770" lon="0.4360320">
        <ele>368.6</ele>
        <time>2020-08-06T14:07:10Z</time>
      </trkpt>
      <trkpt lat="41.0528830" lon="0.4360440">
        <ele>368.6</ele>
        <time>2020-08-06T14:07:12Z</time>
      </trkpt>
      <trkpt lat="41.0528870" lon="0.4360410">
        <ele>368.6</ele>
        <time>2020-08-06T14:07:13Z</time>
      </trkpt>
      <trkpt lat="41.0528860" lon="0.4360110">
        <ele>368.7</ele>
        <time>2020-08-06T14:07:15Z</time>
      </trkpt>
      <trkpt lat="41.0528870" lon="0.4359970">
        <ele>368.7</ele>
        <time>2020-08-06T14:07:16Z</time>
      </trkpt>
      <trkpt lat="41.0528940" lon="0.4359720">
        <ele>368.7</ele>
        <time>2020-08-06T14:07:18Z</time>
      </trkpt>
      <trkpt lat="41.0528990" lon="0.4359650">
        <ele>368.7</ele>
        <time>2020-08-06T14:07:19Z</time>
      </trkpt>
      <trkpt lat="41.0529120" lon="0.4359590">
        <ele>368.7</ele>
        <time>2020-08-06T14:07:21Z</time>
      </trkpt>
      <trkpt lat="41.0529250" lon="0.4359460">
        <ele>368.8</ele>
        <time>2020-08-06T14:07:23Z</time>
      </trkpt>
      <trkpt lat="41.0529350" lon="0.4359380">
        <ele>368.8</ele>
        <time>2020-08-06T14:07:24Z</time>
      </trkpt>
      <trkpt lat="41.0529570" lon="0.4359420">
        <ele>368.8</ele>
        <time>2020-08-06T14:07:26Z</time>
      </trkpt>
      <trkpt lat="41.0529730" lon="0.4359470">
        <ele>368.8</ele>
        <time>2020-08-06T14:07:28Z</time>
      </trkpt>
      <trkpt lat="41.0529880" lon="0.4359490">
        <ele>368.9</ele>
        <time>2020-08-06T14:07:30Z</time>
      </trkpt>
      <trkpt lat="41.0529930" lon="0.4359470">
        <ele>368.9</ele>
        <time>2020-08-06T14:07:31Z</time>
      </trkpt>
      <trkpt lat="41.0529950" lon="0.4359430">
        <ele>368.9</ele>
        <time>2020-08-06T14:07:32Z</time>
      </trkpt>
      <trkpt lat="41.0529980" lon="0.4359330">
        <ele>368.9</ele>
        <time>2020-08-06T14:07:34Z</time>
      </trkpt>
      <trkpt lat="41.0530090" lon="0.4359280">
        <ele>368.9</ele>
        <time>2020-08-06T14:07:35Z</time>
      </trkpt>
      <trkpt lat="41.0530260" lon="0.4359360">
        <ele>368.9</ele>
        <time>2020-08-06T14:07:37Z</time>
      </trkpt>
      <trkpt lat="41.0530380" lon="0.4359430">
        <ele>368.9</ele>
        <time>2020-08-06T14:07:38Z</time>
      </trkpt>
      <trkpt lat="41.0530510" lon="0.4359490">
        <ele>369.0</ele>
        <time>2020-08-06T14:07:39Z</time>
      </trkpt>
      <trkpt lat="41.0530760" lon="0.4359560">
        <ele>369.0</ele>
        <time>2020-08-06T14:07:41Z</time>
      </trkpt>
      <trkpt lat="41.0531030" lon="0.4359670">
        <ele>369.0</ele>
        <time>2020-08-06T14:07:43Z</time>
      </trkpt>
      <trkpt lat="41.0531050" lon="0.4359730">
        <ele>369.0</ele>
        <time>2020-08-06T14:07:44Z</time>
      </trkpt>
      <trkpt lat="41.0531060" lon="0.4359780">
        <ele>369.0</ele>
        <time>2020-08-06T14:07:45Z</time>
      </trkpt>
      <trkpt lat="41.0530990" lon="0.4359870">
        <ele>369.1</ele>
        <time>2020-08-06T14:07:47Z</time>
      </trkpt>
      <trkpt lat="41.0530950" lon="0.4359920">
        <ele>369.1</ele>
        <time>2020-08-06T14:07:49Z</time>
      </trkpt>
      <trkpt lat="41.0530940" lon="0.4359930">
        <ele>369.1</ele>
        <time>2020-08-06T14:07:51Z</time>
      </trkpt>
      <trkpt lat="41.0530940" lon="0.4359880">
        <ele>369.1</ele>
        <time>2020-08-06T14:07:53Z</time>
      </trkpt>
      <trkpt lat="41.0530970" lon="0.4360060">
        <ele>369.1</ele>
        <time>2020-08-06T14:09:19Z</time>
      </trkpt>
      <trkpt lat="41.0531120" lon="0.4360280">
        <ele>369.1</ele>
        <time>2020-08-06T14:09:21Z</time>
      </trkpt>
      <trkpt lat="41.0531200" lon="0.4360370">
        <ele>369.1</ele>
        <time>2020-08-06T14:09:22Z</time>
      </trkpt>
      <trkpt lat="41.0531290" lon="0.4360380">
        <ele>369.1</ele>
        <time>2020-08-06T14:09:23Z</time>
      </trkpt>
      <trkpt lat="41.0531380" lon="0.4360310">
        <ele>369.1</ele>
        <time>2020-08-06T14:09:24Z</time>
      </trkpt>
      <trkpt lat="41.0531470" lon="0.4360200">
        <ele>369.1</ele>
        <time>2020-08-06T14:09:25Z</time>
      </trkpt>
      <trkpt lat="41.0531610" lon="0.4360000">
        <ele>369.1</ele>
        <time>2020-08-06T14:09:27Z</time>
      </trkpt>
      <trkpt lat="41.0531690" lon="0.4359980">
        <ele>369.1</ele>
        <time>2020-08-06T14:09:28Z</time>
      </trkpt>
      <trkpt lat="41.0531830" lon="0.4359940">
        <ele>369.1</ele>
        <time>2020-08-06T14:09:30Z</time>
      </trkpt>
      <trkpt lat="41.0531890" lon="0.4359930">
        <ele>369.0</ele>
        <time>2020-08-06T14:09:31Z</time>
      </trkpt>
      <trkpt lat="41.0531970" lon="0.4359870">
        <ele>369.0</ele>
        <time>2020-08-06T14:09:33Z</time>
      </trkpt>
      <trkpt lat="41.0532080" lon="0.4359910">
        <ele>369.0</ele>
        <time>2020-08-06T14:09:35Z</time>
      </trkpt>
      <trkpt lat="41.0532160" lon="0.4360100">
        <ele>369.0</ele>
        <time>2020-08-06T14:09:37Z</time>
      </trkpt>
      <trkpt lat="41.0532240" lon="0.4360440">
        <ele>369.1</ele>
        <time>2020-08-06T14:09:39Z</time>
      </trkpt>
      <trkpt lat="41.0532360" lon="0.4360630">
        <ele>369.1</ele>
        <time>2020-08-06T14:09:41Z</time>
      </trkpt>
      <trkpt lat="41.0532420" lon="0.4360690">
        <ele>369.2</ele>
        <time>2020-08-06T14:09:43Z</time>
      </trkpt>
      <trkpt lat="41.0532450" lon="0.4360700">
        <ele>369.2</ele>
        <time>2020-08-06T14:09:44Z</time>
      </trkpt>
      <trkpt lat="41.0532470" lon="0.4360700">
        <ele>369.2</ele>
        <time>2020-08-06T14:09:45Z</time>
      </trkpt>
      <trkpt lat="41.0532460" lon="0.4360700">
        <ele>369.2</ele>
        <time>2020-08-06T14:09:46Z</time>
      </trkpt>
      <trkpt lat="41.0532440" lon="0.4360690">
        <ele>369.2</ele>
        <time>2020-08-06T14:09:48Z</time>
      </trkpt>
      <trkpt lat="41.0532440" lon="0.4360700">
        <ele>369.2</ele>
        <time>2020-08-06T14:09:50Z</time>
      </trkpt>
      <trkpt lat="41.0532440" lon="0.4360700">
        <ele>369.2</ele>
        <time>2020-08-06T14:09:51Z</time>
      </trkpt>
      <trkpt lat="41.0532440" lon="0.4360700">
        <ele>369.2</ele>
        <time>2020-08-06T14:09:52Z</time>
      </trkpt>
      <trkpt lat="41.0532430" lon="0.4360700">
        <ele>369.2</ele>
        <time>2020-08-06T14:09:54Z</time>
      </trkpt>
      <trkpt lat="41.0532630" lon="0.4360980">
        <ele>369.4</ele>
        <time>2020-08-06T14:11:32Z</time>
      </trkpt>
      <trkpt lat="41.0532770" lon="0.4361160">
        <ele>369.5</ele>
        <time>2020-08-06T14:11:34Z</time>
      </trkpt>
      <trkpt lat="41.0532790" lon="0.4361280">
        <ele>369.5</ele>
        <time>2020-08-06T14:11:35Z</time>
      </trkpt>
      <trkpt lat="41.0532760" lon="0.4361470">
        <ele>369.6</ele>
        <time>2020-08-06T14:11:36Z</time>
      </trkpt>
      <trkpt lat="41.0532740" lon="0.4361570">
        <ele>369.6</ele>
        <time>2020-08-06T14:11:37Z</time>
      </trkpt>
      <trkpt lat="41.0532730" lon="0.4361660">
        <ele>369.6</ele>
        <time>2020-08-06T14:11:39Z</time>
      </trkpt>
      <trkpt lat="41.0532710" lon="0.4361760">
        <ele>369.7</ele>
        <time>2020-08-06T14:11:40Z</time>
      </trkpt>
      <trkpt lat="41.0532650" lon="0.4361920">
        <ele>369.7</ele>
        <time>2020-08-06T14:11:42Z</time>
      </trkpt>
      <trkpt lat="41.0532600" lon="0.4362100">
        <ele>369.8</ele>
        <time>2020-08-06T14:11:43Z</time>
      </trkpt>
      <trkpt lat="41.0532570" lon="0.4362360">
        <ele>369.9</ele>
        <time>2020-08-06T14:11:44Z</time>
      </trkpt>
      <trkpt lat="41.0532570" lon="0.4362490">
        <ele>369.9</ele>
        <time>2020-08-06T14:11:45Z</time>
      </trkpt>
      <trkpt lat="41.0532550" lon="0.4362630">
        <ele>370.0</ele>
        <time>2020-08-06T14:11:47Z</time>
      </trkpt>
      <trkpt lat="41.0532510" lon="0.4362650">
        <ele>370.0</ele>
        <time>2020-08-06T14:11:48Z</time>
      </trkpt>
      <trkpt lat="41.0532440" lon="0.4362720">
        <ele>370.1</ele>
        <time>2020-08-06T14:11:50Z</time>
      </trkpt>
      <trkpt lat="41.0532390" lon="0.4362800">
        <ele>370.1</ele>
        <time>2020-08-06T14:11:51Z</time>
      </trkpt>
      <trkpt lat="41.0532370" lon="0.4362850">
        <ele>370.1</ele>
        <time>2020-08-06T14:11:52Z</time>
      </trkpt>
      <trkpt lat="41.0532340" lon="0.4362920">
        <ele>370.1</ele>
        <time>2020-08-06T14:11:53Z</time>
      </trkpt>
      <trkpt lat="41.0532300" lon="0.4363030">
        <ele>370.2</ele>
        <time>2020-08-06T14:11:55Z</time>
      </trkpt>
      <trkpt lat="41.0532190" lon="0.4364140">
        <ele>370.6</ele>
        <time>2020-08-06T14:12:07Z</time>
      </trkpt>
      <trkpt lat="41.0532210" lon="0.4364650">
        <ele>370.8</ele>
        <time>2020-08-06T14:12:09Z</time>
      </trkpt>
      <trkpt lat="41.0532210" lon="0.4364720">
        <ele>370.8</ele>
        <time>2020-08-06T14:12:11Z</time>
      </trkpt>
      <trkpt lat="41.0532220" lon="0.4364700">
        <ele>370.8</ele>
        <time>2020-08-06T14:12:12Z</time>
      </trkpt>
      <trkpt lat="41.0532170" lon="0.4364350">
        <ele>370.9</ele>
        <time>2020-08-06T14:12:13Z</time>
      </trkpt>
      <trkpt lat="41.0532150" lon="0.4364310">
        <ele>370.9</ele>
        <time>2020-08-06T14:12:14Z</time>
      </trkpt>
      <trkpt lat="41.0532230" lon="0.4364460">
        <ele>371.0</ele>
        <time>2020-08-06T14:12:16Z</time>
      </trkpt>
      <trkpt lat="41.0532270" lon="0.4364570">
        <ele>371.1</ele>
        <time>2020-08-06T14:12:17Z</time>
      </trkpt>
      <trkpt lat="41.0532450" lon="0.4364710">
        <ele>371.2</ele>
        <time>2020-08-06T14:12:19Z</time>
      </trkpt>
      <trkpt lat="41.0532430" lon="0.4364880">
        <ele>371.2</ele>
        <time>2020-08-06T14:12:20Z</time>
      </trkpt>
      <trkpt lat="41.0532420" lon="0.4365080">
        <ele>371.3</ele>
        <time>2020-08-06T14:12:21Z</time>
      </trkpt>
      <trkpt lat="41.0532360" lon="0.4365500">
        <ele>371.4</ele>
        <time>2020-08-06T14:12:23Z</time>
      </trkpt>
      <trkpt lat="41.0532360" lon="0.4365700">
        <ele>371.5</ele>
        <time>2020-08-06T14:12:24Z</time>
      </trkpt>
      <trkpt lat="41.0532240" lon="0.4366180">
        <ele>371.7</ele>
        <time>2020-08-06T14:12:26Z</time>
      </trkpt>
      <trkpt lat="41.0532170" lon="0.4366340">
        <ele>371.7</ele>
        <time>2020-08-06T14:12:27Z</time>
      </trkpt>
      <trkpt lat="41.0532070" lon="0.4366480">
        <ele>371.8</ele>
        <time>2020-08-06T14:12:28Z</time>
      </trkpt>
      <trkpt lat="41.0531950" lon="0.4366640">
        <ele>371.9</ele>
        <time>2020-08-06T14:12:29Z</time>
      </trkpt>
      <trkpt lat="41.0531780" lon="0.4366890">
        <ele>372.0</ele>
        <time>2020-08-06T14:12:31Z</time>
      </trkpt>
      <trkpt lat="41.0531750" lon="0.4366880">
        <ele>372.0</ele>
        <time>2020-08-06T14:12:32Z</time>
      </trkpt>
      <trkpt lat="41.0531710" lon="0.4366870">
        <ele>372.1</ele>
        <time>2020-08-06T14:12:33Z</time>
      </trkpt>
      <trkpt lat="41.0531680" lon="0.4366900">
        <ele>372.1</ele>
        <time>2020-08-06T14:12:34Z</time>
      </trkpt>
      <trkpt lat="41.0531610" lon="0.4367050">
        <ele>372.1</ele>
        <time>2020-08-06T14:12:36Z</time>
      </trkpt>
      <trkpt lat="41.0531580" lon="0.4367050">
        <ele>372.1</ele>
        <time>2020-08-06T14:12:37Z</time>
      </trkpt>
      <trkpt lat="41.0531560" lon="0.4367060">
        <ele>372.2</ele>
        <time>2020-08-06T14:12:38Z</time>
      </trkpt>
      <trkpt lat="41.0531530" lon="0.4367070">
        <ele>372.2</ele>
        <time>2020-08-06T14:12:39Z</time>
      </trkpt>
      <trkpt lat="41.0531510" lon="0.4367090">
        <ele>372.2</ele>
        <time>2020-08-06T14:12:40Z</time>
      </trkpt>
      <trkpt lat="41.0531490" lon="0.4367110">
        <ele>372.2</ele>
        <time>2020-08-06T14:12:42Z</time>
      </trkpt>
      <trkpt lat="41.0531480" lon="0.4367140">
        <ele>372.2</ele>
        <time>2020-08-06T14:12:44Z</time>
      </trkpt>
      <trkpt lat="41.0531940" lon="0.4367660">
        <ele>372.5</ele>
        <time>2020-08-06T14:13:04Z</time>
      </trkpt>
      <trkpt lat="41.0531970" lon="0.4367730">
        <ele>372.5</ele>
        <time>2020-08-06T14:13:05Z</time>
      </trkpt>
      <trkpt lat="41.0531990" lon="0.4367750">
        <ele>372.5</ele>
        <time>2020-08-06T14:13:06Z</time>
      </trkpt>
      <trkpt lat="41.0532040" lon="0.4367650">
        <ele>372.6</ele>
        <time>2020-08-06T14:13:08Z</time>
      </trkpt>
      <trkpt lat="41.0532140" lon="0.4367560">
        <ele>372.6</ele>
        <time>2020-08-06T14:13:09Z</time>
      </trkpt>
      <trkpt lat="41.0532320" lon="0.4367310">
        <ele>372.8</ele>
        <time>2020-08-06T14:13:11Z</time>
      </trkpt>
      <trkpt lat="41.0532440" lon="0.4367390">
        <ele>372.8</ele>
        <time>2020-08-06T14:13:12Z</time>
      </trkpt>
      <trkpt lat="41.0532510" lon="0.4367430">
        <ele>372.9</ele>
        <time>2020-08-06T14:13:14Z</time>
      </trkpt>
      <trkpt lat="41.0532580" lon="0.4367480">
        <ele>372.9</ele>
        <time>2020-08-06T14:13:15Z</time>
      </trkpt>
      <trkpt lat="41.0532650" lon="0.4367520">
        <ele>372.9</ele>
        <time>2020-08-06T14:13:16Z</time>
      </trkpt>
      <trkpt lat="41.0532720" lon="0.4367570">
        <ele>373.0</ele>
        <time>2020-08-06T14:13:18Z</time>
      </trkpt>
      <trkpt lat="41.0532790" lon="0.4367620">
        <ele>373.0</ele>
        <time>2020-08-06T14:13:19Z</time>
      </trkpt>
      <trkpt lat="41.0532860" lon="0.4367660">
        <ele>373.0</ele>
        <time>2020-08-06T14:13:21Z</time>
      </trkpt>
      <trkpt lat="41.0532930" lon="0.4367710">
        <ele>373.1</ele>
        <time>2020-08-06T14:13:22Z</time>
      </trkpt>
      <trkpt lat="41.0533030" lon="0.4367750">
        <ele>373.1</ele>
        <time>2020-08-06T14:13:23Z</time>
      </trkpt>
      <trkpt lat="41.0533200" lon="0.4367870">
        <ele>373.2</ele>
        <time>2020-08-06T14:13:25Z</time>
      </trkpt>
      <trkpt lat="41.0533330" lon="0.4367900">
        <ele>373.3</ele>
        <time>2020-08-06T14:13:26Z</time>
      </trkpt>
      <trkpt lat="41.0533440" lon="0.4367880">
        <ele>373.3</ele>
        <time>2020-08-06T14:13:27Z</time>
      </trkpt>
      <trkpt lat="41.0533450" lon="0.4367850">
        <ele>373.3</ele>
        <time>2020-08-06T14:13:29Z</time>
      </trkpt>
      <trkpt lat="41.0533440" lon="0.4367910">
        <ele>373.4</ele>
        <time>2020-08-06T14:13:30Z</time>
      </trkpt>
      <trkpt lat="41.0533420" lon="0.4368030">
        <ele>373.4</ele>
        <time>2020-08-06T14:13:31Z</time>
      </trkpt>
      <trkpt lat="41.0533410" lon="0.4368180">
        <ele>373.5</ele>
        <time>2020-08-06T14:13:33Z</time>
      </trkpt>
      <trkpt lat="41.0533370" lon="0.4368360">
        <ele>373.5</ele>
        <time>2020-08-06T14:13:34Z</time>
      </trkpt>
      <trkpt lat="41.0533360" lon="0.4368460">
        <ele>373.6</ele>
        <time>2020-08-06T14:13:35Z</time>
      </trkpt>
      <trkpt lat="41.0533360" lon="0.4368590">
        <ele>373.6</ele>
        <time>2020-08-06T14:13:36Z</time>
      </trkpt>
      <trkpt lat="41.0533330" lon="0.4368730">
        <ele>373.7</ele>
        <time>2020-08-06T14:13:38Z</time>
      </trkpt>
      <trkpt lat="41.0533270" lon="0.4368920">
        <ele>373.7</ele>
        <time>2020-08-06T14:13:39Z</time>
      </trkpt>
      <trkpt lat="41.0533190" lon="0.4369060">
        <ele>373.8</ele>
        <time>2020-08-06T14:13:41Z</time>
      </trkpt>
      <trkpt lat="41.0533140" lon="0.4369130">
        <ele>373.8</ele>
        <time>2020-08-06T14:13:42Z</time>
      </trkpt>
      <trkpt lat="41.0533030" lon="0.4369240">
        <ele>373.9</ele>
        <time>2020-08-06T14:13:43Z</time>
      </trkpt>
      <trkpt lat="41.0532890" lon="0.4369330">
        <ele>374.0</ele>
        <time>2020-08-06T14:13:45Z</time>
      </trkpt>
      <trkpt lat="41.0532810" lon="0.4369320">
        <ele>374.0</ele>
        <time>2020-08-06T14:13:46Z</time>
      </trkpt>
      <trkpt lat="41.0532720" lon="0.4369150">
        <ele>374.1</ele>
        <time>2020-08-06T14:13:48Z</time>
      </trkpt>
      <trkpt lat="41.0532680" lon="0.4369010">
        <ele>374.1</ele>
        <time>2020-08-06T14:13:49Z</time>
      </trkpt>
      <trkpt lat="41.0532560" lon="0.4368980">
        <ele>374.2</ele>
        <time>2020-08-06T14:13:51Z</time>
      </trkpt>
      <trkpt lat="41.0532470" lon="0.4369040">
        <ele>374.2</ele>
        <time>2020-08-06T14:13:52Z</time>
      </trkpt>
      <trkpt lat="41.0532380" lon="0.4369110">
        <ele>374.3</ele>
        <time>2020-08-06T14:13:54Z</time>
      </trkpt>
      <trkpt lat="41.0532290" lon="0.4369170">
        <ele>374.3</ele>
        <time>2020-08-06T14:13:55Z</time>
      </trkpt>
      <trkpt lat="41.0532060" lon="0.4369440">
        <ele>374.5</ele>
        <time>2020-08-06T14:13:56Z</time>
      </trkpt>
      <trkpt lat="41.0531990" lon="0.4369520">
        <ele>374.5</ele>
        <time>2020-08-06T14:13:57Z</time>
      </trkpt>
      <trkpt lat="41.0531840" lon="0.4369730">
        <ele>374.6</ele>
        <time>2020-08-06T14:13:59Z</time>
      </trkpt>
      <trkpt lat="41.0531750" lon="0.4369890">
        <ele>374.7</ele>
        <time>2020-08-06T14:14:00Z</time>
      </trkpt>
      <trkpt lat="41.0531650" lon="0.4370150">
        <ele>374.8</ele>
        <time>2020-08-06T14:14:01Z</time>
      </trkpt>
      <trkpt lat="41.0531600" lon="0.4370280">
        <ele>374.8</ele>
        <time>2020-08-06T14:14:02Z</time>
      </trkpt>
      <trkpt lat="41.0531540" lon="0.4370410">
        <ele>374.9</ele>
        <time>2020-08-06T14:14:03Z</time>
      </trkpt>
      <trkpt lat="41.0531430" lon="0.4370610">
        <ele>375.0</ele>
        <time>2020-08-06T14:14:04Z</time>
      </trkpt>
      <trkpt lat="41.0531330" lon="0.4370800">
        <ele>375.1</ele>
        <time>2020-08-06T14:14:05Z</time>
      </trkpt>
      <trkpt lat="41.0531080" lon="0.4371310">
        <ele>374.9</ele>
        <time>2020-08-06T14:14:07Z</time>
      </trkpt>
      <trkpt lat="41.0531000" lon="0.4371470">
        <ele>374.8</ele>
        <time>2020-08-06T14:14:08Z</time>
      </trkpt>
      <trkpt lat="41.0530910" lon="0.4371630">
        <ele>374.7</ele>
        <time>2020-08-06T14:14:09Z</time>
      </trkpt>
      <trkpt lat="41.0530790" lon="0.4371860">
        <ele>374.6</ele>
        <time>2020-08-06T14:14:10Z</time>
      </trkpt>
      <trkpt lat="41.0530660" lon="0.4372210">
        <ele>374.4</ele>
        <time>2020-08-06T14:14:12Z</time>
      </trkpt>
      <trkpt lat="41.0530550" lon="0.4372520">
        <ele>374.3</ele>
        <time>2020-08-06T14:14:13Z</time>
      </trkpt>
      <trkpt lat="41.0530400" lon="0.4372910">
        <ele>374.1</ele>
        <time>2020-08-06T14:14:15Z</time>
      </trkpt>
      <trkpt lat="41.0530280" lon="0.4373230">
        <ele>374.0</ele>
        <time>2020-08-06T14:14:16Z</time>
      </trkpt>
      <trkpt lat="41.0530190" lon="0.4373490">
        <ele>373.8</ele>
        <time>2020-08-06T14:14:17Z</time>
      </trkpt>
      <trkpt lat="41.0530070" lon="0.4373980">
        <ele>373.6</ele>
        <time>2020-08-06T14:14:19Z</time>
      </trkpt>
      <trkpt lat="41.0530030" lon="0.4374340">
        <ele>373.5</ele>
        <time>2020-08-06T14:14:21Z</time>
      </trkpt>
      <trkpt lat="41.0530000" lon="0.4374530">
        <ele>373.4</ele>
        <time>2020-08-06T14:14:22Z</time>
      </trkpt>
      <trkpt lat="41.0529980" lon="0.4374840">
        <ele>373.2</ele>
        <time>2020-08-06T14:14:24Z</time>
      </trkpt>
      <trkpt lat="41.0529910" lon="0.4375250">
        <ele>373.1</ele>
        <time>2020-08-06T14:14:25Z</time>
      </trkpt>
      <trkpt lat="41.0529890" lon="0.4375360">
        <ele>373.0</ele>
        <time>2020-08-06T14:14:26Z</time>
      </trkpt>
      <trkpt lat="41.0529830" lon="0.4375550">
        <ele>372.9</ele>
        <time>2020-08-06T14:14:27Z</time>
      </trkpt>
      <trkpt lat="41.0529770" lon="0.4375720">
        <ele>372.8</ele>
        <time>2020-08-06T14:14:28Z</time>
      </trkpt>
      <trkpt lat="41.0529730" lon="0.4375910">
        <ele>372.7</ele>
        <time>2020-08-06T14:14:29Z</time>
      </trkpt>
      <trkpt lat="41.0529680" lon="0.4376100">
        <ele>372.7</ele>
        <time>2020-08-06T14:14:30Z</time>
      </trkpt>
      <trkpt lat="41.0529650" lon="0.4376310">
        <ele>372.6</ele>
        <time>2020-08-06T14:14:31Z</time>
      </trkpt>
      <trkpt lat="41.0529580" lon="0.4376610">
        <ele>372.4</ele>
        <time>2020-08-06T14:14:33Z</time>
      </trkpt>
      <trkpt lat="41.0529550" lon="0.4376800">
        <ele>372.4</ele>
        <time>2020-08-06T14:14:34Z</time>
      </trkpt>
      <trkpt lat="41.0529510" lon="0.4377010">
        <ele>372.3</ele>
        <time>2020-08-06T14:14:35Z</time>
      </trkpt>
      <trkpt lat="41.0529480" lon="0.4377180">
        <ele>372.2</ele>
        <time>2020-08-06T14:14:36Z</time>
      </trkpt>
      <trkpt lat="41.0529420" lon="0.4377380">
        <ele>372.1</ele>
        <time>2020-08-06T14:14:37Z</time>
      </trkpt>
      <trkpt lat="41.0529340" lon="0.4377810">
        <ele>371.9</ele>
        <time>2020-08-06T14:14:39Z</time>
      </trkpt>
      <trkpt lat="41.0529300" lon="0.4377940">
        <ele>371.8</ele>
        <time>2020-08-06T14:14:40Z</time>
      </trkpt>
      <trkpt lat="41.0529270" lon="0.4378100">
        <ele>371.8</ele>
        <time>2020-08-06T14:14:41Z</time>
      </trkpt>
      <trkpt lat="41.0529180" lon="0.4378380">
        <ele>371.6</ele>
        <time>2020-08-06T14:14:43Z</time>
      </trkpt>
      <trkpt lat="41.0529160" lon="0.4378460">
        <ele>371.6</ele>
        <time>2020-08-06T14:14:44Z</time>
      </trkpt>
      <trkpt lat="41.0529100" lon="0.4378630">
        <ele>371.5</ele>
        <time>2020-08-06T14:14:46Z</time>
      </trkpt>
      <trkpt lat="41.0528810" lon="0.4378850">
        <ele>371.3</ele>
        <time>2020-08-06T14:14:49Z</time>
      </trkpt>
      <trkpt lat="41.0528610" lon="0.4379000">
        <ele>371.2</ele>
        <time>2020-08-06T14:14:51Z</time>
      </trkpt>
      <trkpt lat="41.0528610" lon="0.4379060">
        <ele>371.2</ele>
        <time>2020-08-06T14:14:52Z</time>
      </trkpt>
      <trkpt lat="41.0528580" lon="0.4379200">
        <ele>371.1</ele>
        <time>2020-08-06T14:14:54Z</time>
      </trkpt>
      <trkpt lat="41.0528510" lon="0.4379340">
        <ele>371.2</ele>
        <time>2020-08-06T14:14:56Z</time>
      </trkpt>
      <trkpt lat="41.0528450" lon="0.4379420">
        <ele>371.2</ele>
        <time>2020-08-06T14:14:57Z</time>
      </trkpt>
      <trkpt lat="41.0528280" lon="0.4379570">
        <ele>371.3</ele>
        <time>2020-08-06T14:14:59Z</time>
      </trkpt>
      <trkpt lat="41.0528210" lon="0.4379640">
        <ele>371.3</ele>
        <time>2020-08-06T14:15:00Z</time>
      </trkpt>
      <trkpt lat="41.0528110" lon="0.4379750">
        <ele>371.4</ele>
        <time>2020-08-06T14:15:01Z</time>
      </trkpt>
      <trkpt lat="41.0527850" lon="0.4380000">
        <ele>371.5</ele>
        <time>2020-08-06T14:15:03Z</time>
      </trkpt>
      <trkpt lat="41.0527750" lon="0.4380120">
        <ele>371.6</ele>
        <time>2020-08-06T14:15:04Z</time>
      </trkpt>
      <trkpt lat="41.0527680" lon="0.4380330">
        <ele>371.6</ele>
        <time>2020-08-06T14:15:06Z</time>
      </trkpt>
      <trkpt lat="41.0527610" lon="0.4380560">
        <ele>371.7</ele>
        <time>2020-08-06T14:15:08Z</time>
      </trkpt>
      <trkpt lat="41.0527430" lon="0.4380880">
        <ele>371.7</ele>
        <time>2020-08-06T14:15:11Z</time>
      </trkpt>
      <trkpt lat="41.0527370" lon="0.4380980">
        <ele>371.8</ele>
        <time>2020-08-06T14:15:12Z</time>
      </trkpt>
      <trkpt lat="41.0526950" lon="0.4382190">
        <ele>371.7</ele>
        <time>2020-08-06T14:15:14Z</time>
      </trkpt>
      <trkpt lat="41.0526690" lon="0.4383190">
        <ele>371.6</ele>
        <time>2020-08-06T14:15:15Z</time>
      </trkpt>
      <trkpt lat="41.0526370" lon="0.4384570">
        <ele>371.5</ele>
        <time>2020-08-06T14:15:16Z</time>
      </trkpt>
      <trkpt lat="41.0526890" lon="0.4383770">
        <ele>371.5</ele>
        <time>2020-08-06T14:15:18Z</time>
      </trkpt>
      <trkpt lat="41.0527090" lon="0.4383710">
        <ele>371.6</ele>
        <time>2020-08-06T14:15:19Z</time>
      </trkpt>
      <trkpt lat="41.0527070" lon="0.4383690">
        <ele>371.6</ele>
        <time>2020-08-06T14:15:20Z</time>
      </trkpt>
      <trkpt lat="41.0527000" lon="0.4383740">
        <ele>371.6</ele>
        <time>2020-08-06T14:15:21Z</time>
      </trkpt>
      <trkpt lat="41.0526940" lon="0.4383820">
        <ele>371.6</ele>
        <time>2020-08-06T14:15:22Z</time>
      </trkpt>
      <trkpt lat="41.0526880" lon="0.4383880">
        <ele>371.6</ele>
        <time>2020-08-06T14:15:23Z</time>
      </trkpt>
      <trkpt lat="41.0526780" lon="0.4383900">
        <ele>371.6</ele>
        <time>2020-08-06T14:15:24Z</time>
      </trkpt>
      <trkpt lat="41.0526500" lon="0.4383900">
        <ele>371.7</ele>
        <time>2020-08-06T14:15:26Z</time>
      </trkpt>
      <trkpt lat="41.0526310" lon="0.4383910">
        <ele>371.7</ele>
        <time>2020-08-06T14:15:28Z</time>
      </trkpt>
      <trkpt lat="41.0526230" lon="0.4384050">
        <ele>371.7</ele>
        <time>2020-08-06T14:15:30Z</time>
      </trkpt>
      <trkpt lat="41.0526160" lon="0.4384120">
        <ele>371.7</ele>
        <time>2020-08-06T14:15:31Z</time>
      </trkpt>
      <trkpt lat="41.0526080" lon="0.4384190">
        <ele>371.8</ele>
        <time>2020-08-06T14:15:32Z</time>
      </trkpt>
      <trkpt lat="41.0525930" lon="0.4384170">
        <ele>371.8</ele>
        <time>2020-08-06T14:15:33Z</time>
      </trkpt>
      <trkpt lat="41.0525840" lon="0.4384200">
        <ele>371.8</ele>
        <time>2020-08-06T14:15:34Z</time>
      </trkpt>
      <trkpt lat="41.0525770" lon="0.4384280">
        <ele>371.8</ele>
        <time>2020-08-06T14:15:35Z</time>
      </trkpt>
      <trkpt lat="41.0525610" lon="0.4384540">
        <ele>371.9</ele>
        <time>2020-08-06T14:15:37Z</time>
      </trkpt>
      <trkpt lat="41.0525530" lon="0.4384890">
        <ele>371.9</ele>
        <time>2020-08-06T14:15:39Z</time>
      </trkpt>
      <trkpt lat="41.0525480" lon="0.4385030">
        <ele>371.9</ele>
        <time>2020-08-06T14:15:40Z</time>
      </trkpt>
      <trkpt lat="41.0525430" lon="0.4385160">
        <ele>371.9</ele>
        <time>2020-08-06T14:15:41Z</time>
      </trkpt>
      <trkpt lat="41.0525380" lon="0.4385270">
        <ele>372.0</ele>
        <time>2020-08-06T14:15:42Z</time>
      </trkpt>
      <trkpt lat="41.0525340" lon="0.4385360">
        <ele>372.0</ele>
        <time>2020-08-06T14:15:43Z</time>
      </trkpt>
      <trkpt lat="41.0525250" lon="0.4385540">
        <ele>372.0</ele>
        <time>2020-08-06T14:15:45Z</time>
      </trkpt>
      <trkpt lat="41.0525150" lon="0.4385710">
        <ele>372.0</ele>
        <time>2020-08-06T14:15:47Z</time>
      </trkpt>
      <trkpt lat="41.0523290" lon="0.4389100">
        <ele>372.4</ele>
        <time>2020-08-06T14:15:53Z</time>
      </trkpt>
      <trkpt lat="41.0522810" lon="0.4390040">
        <ele>373.9</ele>
        <time>2020-08-06T14:15:54Z</time>
      </trkpt>
      <trkpt lat="41.0522580" lon="0.4390500">
        <ele>374.4</ele>
        <time>2020-08-06T14:15:55Z</time>
      </trkpt>
      <trkpt lat="41.0522480" lon="0.4390660">
        <ele>374.5</ele>
        <time>2020-08-06T14:15:56Z</time>
      </trkpt>
      <trkpt lat="41.0522460" lon="0.4390690">
        <ele>374.6</ele>
        <time>2020-08-06T14:15:57Z</time>
      </trkpt>
      <trkpt lat="41.0522430" lon="0.4390720">
        <ele>374.6</ele>
        <time>2020-08-06T14:15:58Z</time>
      </trkpt>
      <trkpt lat="41.0522410" lon="0.4390750">
        <ele>374.7</ele>
        <time>2020-08-06T14:15:59Z</time>
      </trkpt>
      <trkpt lat="41.0522380" lon="0.4390780">
        <ele>374.7</ele>
        <time>2020-08-06T14:16:00Z</time>
      </trkpt>
      <trkpt lat="41.0522360" lon="0.4390810">
        <ele>374.7</ele>
        <time>2020-08-06T14:16:02Z</time>
      </trkpt>
      <trkpt lat="41.0522330" lon="0.4390840">
        <ele>374.8</ele>
        <time>2020-08-06T14:16:03Z</time>
      </trkpt>
      <trkpt lat="41.0522310" lon="0.4390870">
        <ele>374.8</ele>
        <time>2020-08-06T14:16:05Z</time>
      </trkpt>
      <trkpt lat="41.0522280" lon="0.4390900">
        <ele>374.8</ele>
        <time>2020-08-06T14:16:07Z</time>
      </trkpt>
      <trkpt lat="41.0522260" lon="0.4390930">
        <ele>374.9</ele>
        <time>2020-08-06T14:16:08Z</time>
      </trkpt>
      <trkpt lat="41.0522230" lon="0.4390960">
        <ele>374.9</ele>
        <time>2020-08-06T14:17:01Z</time>
      </trkpt>
      <trkpt lat="41.0522210" lon="0.4390990">
        <ele>374.9</ele>
        <time>2020-08-06T14:17:02Z</time>
      </trkpt>
      <trkpt lat="41.0522180" lon="0.4391020">
        <ele>375.0</ele>
        <time>2020-08-06T14:17:03Z</time>
      </trkpt>
      <trkpt lat="41.0522160" lon="0.4391050">
        <ele>375.0</ele>
        <time>2020-08-06T14:17:05Z</time>
      </trkpt>
      <trkpt lat="41.0522130" lon="0.4391080">
        <ele>375.1</ele>
        <time>2020-08-06T14:17:06Z</time>
      </trkpt>
      <trkpt lat="41.0521980" lon="0.4391440">
        <ele>377.5</ele>
        <time>2020-08-06T14:17:08Z</time>
      </trkpt>
      <trkpt lat="41.0522030" lon="0.4391160">
        <ele>377.5</ele>
        <time>2020-08-06T14:17:10Z</time>
      </trkpt>
      <trkpt lat="41.0521910" lon="0.4390930">
        <ele>377.5</ele>
        <time>2020-08-06T14:17:12Z</time>
      </trkpt>
      <trkpt lat="41.0521880" lon="0.4390650">
        <ele>377.5</ele>
        <time>2020-08-06T14:17:14Z</time>
      </trkpt>
      <trkpt lat="41.0522000" lon="0.4390410">
        <ele>377.5</ele>
        <time>2020-08-06T14:17:16Z</time>
      </trkpt>
      <trkpt lat="41.0521880" lon="0.4390430">
        <ele>377.5</ele>
        <time>2020-08-06T14:17:17Z</time>
      </trkpt>
      <trkpt lat="41.0521760" lon="0.4390410">
        <ele>377.5</ele>
        <time>2020-08-06T14:17:18Z</time>
      </trkpt>
      <trkpt lat="41.0521670" lon="0.4390480">
        <ele>377.5</ele>
        <time>2020-08-06T14:17:19Z</time>
      </trkpt>
      <trkpt lat="41.0521550" lon="0.4390550">
        <ele>377.5</ele>
        <time>2020-08-06T14:17:20Z</time>
      </trkpt>
      <trkpt lat="41.0521430" lon="0.4390490">
        <ele>377.4</ele>
        <time>2020-08-06T14:17:22Z</time>
      </trkpt>
      <trkpt lat="41.0521360" lon="0.4390470">
        <ele>377.4</ele>
        <time>2020-08-06T14:17:23Z</time>
      </trkpt>
      <trkpt lat="41.0521260" lon="0.4390450">
        <ele>377.4</ele>
        <time>2020-08-06T14:17:24Z</time>
      </trkpt>
      <trkpt lat="41.0521000" lon="0.4390390">
        <ele>377.4</ele>
        <time>2020-08-06T14:17:26Z</time>
      </trkpt>
      <trkpt lat="41.0520750" lon="0.4390260">
        <ele>377.4</ele>
        <time>2020-08-06T14:17:27Z</time>
      </trkpt>
      <trkpt lat="41.0520470" lon="0.4390190">
        <ele>370.9</ele>
        <time>2020-08-06T14:17:28Z</time>
      </trkpt>
      <trkpt lat="41.0520130" lon="0.4389950">
        <ele>370.8</ele>
        <time>2020-08-06T14:17:30Z</time>
      </trkpt>
      <trkpt lat="41.0520030" lon="0.4389830">
        <ele>370.8</ele>
        <time>2020-08-06T14:17:31Z</time>
      </trkpt>
      <trkpt lat="41.0519900" lon="0.4389600">
        <ele>370.7</ele>
        <time>2020-08-06T14:17:32Z</time>
      </trkpt>
      <trkpt lat="41.0519590" lon="0.4389160">
        <ele>370.6</ele>
        <time>2020-08-06T14:17:34Z</time>
      </trkpt>
      <trkpt lat="41.0519400" lon="0.4388990">
        <ele>370.6</ele>
        <time>2020-08-06T14:17:35Z</time>
      </trkpt>
      <trkpt lat="41.0519070" lon="0.4388500">
        <ele>370.5</ele>
        <time>2020-08-06T14:17:37Z</time>
      </trkpt>
      <trkpt lat="41.0518880" lon="0.4388220">
        <ele>370.4</ele>
        <time>2020-08-06T14:17:38Z</time>
      </trkpt>
      <trkpt lat="41.0518630" lon="0.4387840">
        <ele>370.3</ele>
        <time>2020-08-06T14:17:40Z</time>
      </trkpt>
      <trkpt lat="41.0518430" lon="0.4387340">
        <ele>370.3</ele>
        <time>2020-08-06T14:17:41Z</time>
      </trkpt>
      <trkpt lat="41.0518190" lon="0.4386680">
        <ele>370.2</ele>
        <time>2020-08-06T14:17:43Z</time>
      </trkpt>
      <trkpt lat="41.0518050" lon="0.4386310">
        <ele>370.1</ele>
        <time>2020-08-06T14:17:44Z</time>
      </trkpt>
      <trkpt lat="41.0517850" lon="0.4385750">
        <ele>370.0</ele>
        <time>2020-08-06T14:17:46Z</time>
      </trkpt>
      <trkpt lat="41.0516290" lon="0.4383140">
        <ele>369.5</ele>
        <time>2020-08-06T14:17:47Z</time>
      </trkpt>
      <trkpt lat="41.0515720" lon="0.4382070">
        <ele>369.6</ele>
        <time>2020-08-06T14:17:48Z</time>
      </trkpt>
      <trkpt lat="41.0515340" lon="0.4381090">
        <ele>369.9</ele>
        <time>2020-08-06T14:17:49Z</time>
      </trkpt>
      <trkpt lat="41.0515030" lon="0.4379340">
        <ele>369.4</ele>
        <time>2020-08-06T14:17:51Z</time>
      </trkpt>
      <trkpt lat="41.0514880" lon="0.4377770">
        <ele>368.7</ele>
        <time>2020-08-06T14:17:53Z</time>
      </trkpt>
      <trkpt lat="41.0514730" lon="0.4377040">
        <ele>368.4</ele>
        <time>2020-08-06T14:17:54Z</time>
      </trkpt>
      <trkpt lat="41.0514650" lon="0.4376260">
        <ele>368.0</ele>
        <time>2020-08-06T14:17:55Z</time>
      </trkpt>
      <trkpt lat="41.0514610" lon="0.4374620">
        <ele>367.2</ele>
        <time>2020-08-06T14:17:57Z</time>
      </trkpt>
      <trkpt lat="41.0514600" lon="0.4373780">
        <ele>366.9</ele>
        <time>2020-08-06T14:17:58Z</time>
      </trkpt>
      <trkpt lat="41.0514430" lon="0.4372930">
        <ele>366.7</ele>
        <time>2020-08-06T14:17:59Z</time>
      </trkpt>
      <trkpt lat="41.0514250" lon="0.4372090">
        <ele>366.5</ele>
        <time>2020-08-06T14:18:00Z</time>
      </trkpt>
      <trkpt lat="41.0514030" lon="0.4371220">
        <ele>366.3</ele>
        <time>2020-08-06T14:18:01Z</time>
      </trkpt>
      <trkpt lat="41.0513900" lon="0.4370290">
        <ele>366.1</ele>
        <time>2020-08-06T14:18:02Z</time>
      </trkpt>
      <trkpt lat="41.0513720" lon="0.4369410">
        <ele>366.0</ele>
        <time>2020-08-06T14:18:03Z</time>
      </trkpt>
      <trkpt lat="41.0513600" lon="0.4367760">
        <ele>365.9</ele>
        <time>2020-08-06T14:18:05Z</time>
      </trkpt>
      <trkpt lat="41.0513320" lon="0.4367070">
        <ele>365.9</ele>
        <time>2020-08-06T14:18:06Z</time>
      </trkpt>
      <trkpt lat="41.0512700" lon="0.4365750">
        <ele>365.7</ele>
        <time>2020-08-06T14:18:08Z</time>
      </trkpt>
      <trkpt lat="41.0512300" lon="0.4365140">
        <ele>365.7</ele>
        <time>2020-08-06T14:18:09Z</time>
      </trkpt>
      <trkpt lat="41.0511350" lon="0.4364200">
        <ele>365.6</ele>
        <time>2020-08-06T14:18:11Z</time>
      </trkpt>
      <trkpt lat="41.0510980" lon="0.4363580">
        <ele>365.5</ele>
        <time>2020-08-06T14:18:12Z</time>
      </trkpt>
      <trkpt lat="41.0510540" lon="0.4362480">
        <ele>365.4</ele>
        <time>2020-08-06T14:18:14Z</time>
      </trkpt>
      <trkpt lat="41.0510300" lon="0.4361180">
        <ele>365.1</ele>
        <time>2020-08-06T14:18:16Z</time>
      </trkpt>
      <trkpt lat="41.0510360" lon="0.4360370">
        <ele>364.9</ele>
        <time>2020-08-06T14:18:17Z</time>
      </trkpt>
      <trkpt lat="41.0510460" lon="0.4358860">
        <ele>364.6</ele>
        <time>2020-08-06T14:18:19Z</time>
      </trkpt>
      <trkpt lat="41.0510440" lon="0.4358160">
        <ele>364.4</ele>
        <time>2020-08-06T14:18:20Z</time>
      </trkpt>
      <trkpt lat="41.0510410" lon="0.4356790">
        <ele>364.1</ele>
        <time>2020-08-06T14:18:22Z</time>
      </trkpt>
      <trkpt lat="41.0510420" lon="0.4356170">
        <ele>363.9</ele>
        <time>2020-08-06T14:18:23Z</time>
      </trkpt>
      <trkpt lat="41.0510460" lon="0.4354890">
        <ele>363.7</ele>
        <time>2020-08-06T14:18:25Z</time>
      </trkpt>
      <trkpt lat="41.0510480" lon="0.4354250">
        <ele>363.6</ele>
        <time>2020-08-06T14:18:26Z</time>
      </trkpt>
      <trkpt lat="41.0510630" lon="0.4353150">
        <ele>363.4</ele>
        <time>2020-08-06T14:18:28Z</time>
      </trkpt>
      <trkpt lat="41.0510620" lon="0.4352600">
        <ele>363.3</ele>
        <time>2020-08-06T14:18:29Z</time>
      </trkpt>
      <trkpt lat="41.0510600" lon="0.4352160">
        <ele>363.2</ele>
        <time>2020-08-06T14:18:30Z</time>
      </trkpt>
      <trkpt lat="41.0510680" lon="0.4351590">
        <ele>363.1</ele>
        <time>2020-08-06T14:18:31Z</time>
      </trkpt>
      <trkpt lat="41.0510730" lon="0.4350470">
        <ele>362.9</ele>
        <time>2020-08-06T14:18:33Z</time>
      </trkpt>
      <trkpt lat="41.0510760" lon="0.4349880">
        <ele>362.8</ele>
        <time>2020-08-06T14:18:34Z</time>
      </trkpt>
      <trkpt lat="41.0510980" lon="0.4349480">
        <ele>362.8</ele>
        <time>2020-08-06T14:18:35Z</time>
      </trkpt>
      <trkpt lat="41.0511230" lon="0.4349120">
        <ele>362.7</ele>
        <time>2020-08-06T14:18:37Z</time>
      </trkpt>
      <trkpt lat="41.0511200" lon="0.4348920">
        <ele>362.7</ele>
        <time>2020-08-06T14:18:38Z</time>
      </trkpt>
      <trkpt lat="41.0511120" lon="0.4348530">
        <ele>362.7</ele>
        <time>2020-08-06T14:18:40Z</time>
      </trkpt>
      <trkpt lat="41.0511170" lon="0.4347500">
        <ele>362.5</ele>
        <time>2020-08-06T14:18:41Z</time>
      </trkpt>
      <trkpt lat="41.0510670" lon="0.4347770">
        <ele>362.5</ele>
        <time>2020-08-06T14:18:43Z</time>
      </trkpt>
      <trkpt lat="41.0510550" lon="0.4347640">
        <ele>362.5</ele>
        <time>2020-08-06T14:18:44Z</time>
      </trkpt>
      <trkpt lat="41.0510720" lon="0.4347400">
        <ele>362.4</ele>
        <time>2020-08-06T14:18:45Z</time>
      </trkpt>
      <trkpt lat="41.0510870" lon="0.4347080">
        <ele>362.4</ele>
        <time>2020-08-06T14:18:46Z</time>
      </trkpt>
      <trkpt lat="41.0510990" lon="0.4346660">
        <ele>362.4</ele>
        <time>2020-08-06T14:18:48Z</time>
      </trkpt>
      <trkpt lat="41.0511050" lon="0.4346190">
        <ele>362.3</ele>
        <time>2020-08-06T14:18:49Z</time>
      </trkpt>
      <trkpt lat="41.0511170" lon="0.4345340">
        <ele>362.3</ele>
        <time>2020-08-06T14:18:50Z</time>
      </trkpt>
      <trkpt lat="41.0511520" lon="0.4344090">
        <ele>362.2</ele>
        <time>2020-08-06T14:18:52Z</time>
      </trkpt>
      <trkpt lat="41.0511640" lon="0.4343650">
        <ele>362.2</ele>
        <time>2020-08-06T14:18:53Z</time>
      </trkpt>
      <trkpt lat="41.0511660" lon="0.4342860">
        <ele>362.1</ele>
        <time>2020-08-06T14:18:54Z</time>
      </trkpt>
      <trkpt lat="41.0511790" lon="0.4342310">
        <ele>362.1</ele>
        <time>2020-08-06T14:18:56Z</time>
      </trkpt>
      <trkpt lat="41.0511830" lon="0.4342080">
        <ele>362.1</ele>
        <time>2020-08-06T14:18:57Z</time>
      </trkpt>
      <trkpt lat="41.0511870" lon="0.4341630">
        <ele>362.1</ele>
        <time>2020-08-06T14:18:59Z</time>
      </trkpt>
      <trkpt lat="41.0511810" lon="0.4341210">
        <ele>362.1</ele>
        <time>2020-08-06T14:19:01Z</time>
      </trkpt>
      <trkpt lat="41.0511780" lon="0.4340940">
        <ele>362.0</ele>
        <time>2020-08-06T14:19:02Z</time>
      </trkpt>
      <trkpt lat="41.0511800" lon="0.4340760">
        <ele>362.0</ele>
        <time>2020-08-06T14:19:03Z</time>
      </trkpt>
      <trkpt lat="41.0511870" lon="0.4340320">
        <ele>362.0</ele>
        <time>2020-08-06T14:19:05Z</time>
      </trkpt>
      <trkpt lat="41.0511900" lon="0.4340070">
        <ele>362.0</ele>
        <time>2020-08-06T14:19:06Z</time>
      </trkpt>
      <trkpt lat="41.0511880" lon="0.4339540">
        <ele>362.0</ele>
        <time>2020-08-06T14:19:08Z</time>
      </trkpt>
      <trkpt lat="41.0511900" lon="0.4339280">
        <ele>362.0</ele>
        <time>2020-08-06T14:19:09Z</time>
      </trkpt>
      <trkpt lat="41.0511880" lon="0.4338790">
        <ele>362.0</ele>
        <time>2020-08-06T14:19:11Z</time>
      </trkpt>
      <trkpt lat="41.0511840" lon="0.4338560">
        <ele>362.0</ele>
        <time>2020-08-06T14:19:12Z</time>
      </trkpt>
      <trkpt lat="41.0511810" lon="0.4338340">
        <ele>361.9</ele>
        <time>2020-08-06T14:19:13Z</time>
      </trkpt>
      <trkpt lat="41.0511830" lon="0.4337910">
        <ele>361.9</ele>
        <time>2020-08-06T14:19:15Z</time>
      </trkpt>
      <trkpt lat="41.0511840" lon="0.4337830">
        <ele>361.9</ele>
        <time>2020-08-06T14:19:16Z</time>
      </trkpt>
      <trkpt lat="41.0511930" lon="0.4337380">
        <ele>361.9</ele>
        <time>2020-08-06T14:19:18Z</time>
      </trkpt>
      <trkpt lat="41.0511970" lon="0.4337160">
        <ele>361.9</ele>
        <time>2020-08-06T14:19:19Z</time>
      </trkpt>
      <trkpt lat="41.0512000" lon="0.4336770">
        <ele>362.0</ele>
        <time>2020-08-06T14:19:21Z</time>
      </trkpt>
      <trkpt lat="41.0512050" lon="0.4336560">
        <ele>362.0</ele>
        <time>2020-08-06T14:19:22Z</time>
      </trkpt>
      <trkpt lat="41.0512090" lon="0.4336380">
        <ele>362.0</ele>
        <time>2020-08-06T14:19:23Z</time>
      </trkpt>
      <trkpt lat="41.0512190" lon="0.4336080">
        <ele>362.0</ele>
        <time>2020-08-06T14:19:25Z</time>
      </trkpt>
      <trkpt lat="41.0512230" lon="0.4335940">
        <ele>362.0</ele>
        <time>2020-08-06T14:19:26Z</time>
      </trkpt>
      <trkpt lat="41.0512290" lon="0.4335760">
        <ele>362.0</ele>
        <time>2020-08-06T14:19:27Z</time>
      </trkpt>
      <trkpt lat="41.0512350" lon="0.4335340">
        <ele>362.0</ele>
        <time>2020-08-06T14:19:29Z</time>
      </trkpt>
      <trkpt lat="41.0512390" lon="0.4334950">
        <ele>362.0</ele>
        <time>2020-08-06T14:19:31Z</time>
      </trkpt>
      <trkpt lat="41.0512390" lon="0.4334680">
        <ele>362.1</ele>
        <time>2020-08-06T14:19:32Z</time>
      </trkpt>
      <trkpt lat="41.0512460" lon="0.4334200">
        <ele>362.1</ele>
        <time>2020-08-06T14:19:34Z</time>
      </trkpt>
      <trkpt lat="41.0512500" lon="0.4333650">
        <ele>362.1</ele>
        <time>2020-08-06T14:19:36Z</time>
      </trkpt>
      <trkpt lat="41.0512510" lon="0.4333040">
        <ele>362.0</ele>
        <time>2020-08-06T14:19:38Z</time>
      </trkpt>
      <trkpt lat="41.0512530" lon="0.4332710">
        <ele>362.0</ele>
        <time>2020-08-06T14:19:39Z</time>
      </trkpt>
      <trkpt lat="41.0512560" lon="0.4332170">
        <ele>362.0</ele>
        <time>2020-08-06T14:19:41Z</time>
      </trkpt>
      <trkpt lat="41.0512590" lon="0.4331910">
        <ele>362.0</ele>
        <time>2020-08-06T14:19:42Z</time>
      </trkpt>
      <trkpt lat="41.0512640" lon="0.4331370">
        <ele>362.0</ele>
        <time>2020-08-06T14:19:44Z</time>
      </trkpt>
      <trkpt lat="41.0512670" lon="0.4331100">
        <ele>361.9</ele>
        <time>2020-08-06T14:19:45Z</time>
      </trkpt>
      <trkpt lat="41.0512710" lon="0.4330510">
        <ele>361.9</ele>
        <time>2020-08-06T14:19:47Z</time>
      </trkpt>
      <trkpt lat="41.0512780" lon="0.4329890">
        <ele>362.0</ele>
        <time>2020-08-06T14:19:49Z</time>
      </trkpt>
      <trkpt lat="41.0512790" lon="0.4329510">
        <ele>362.0</ele>
        <time>2020-08-06T14:19:50Z</time>
      </trkpt>
      <trkpt lat="41.0512870" lon="0.4328900">
        <ele>362.0</ele>
        <time>2020-08-06T14:19:52Z</time>
      </trkpt>
      <trkpt lat="41.0512960" lon="0.4328370">
        <ele>362.0</ele>
        <time>2020-08-06T14:19:53Z</time>
      </trkpt>
      <trkpt lat="41.0512980" lon="0.4328190">
        <ele>362.0</ele>
        <time>2020-08-06T14:19:54Z</time>
      </trkpt>
      <trkpt lat="41.0513080" lon="0.4327550">
        <ele>362.0</ele>
        <time>2020-08-06T14:19:56Z</time>
      </trkpt>
      <trkpt lat="41.0513130" lon="0.4327200">
        <ele>362.0</ele>
        <time>2020-08-06T14:19:57Z</time>
      </trkpt>
      <trkpt lat="41.0513130" lon="0.4325690">
        <ele>362.0</ele>
        <time>2020-08-06T14:19:59Z</time>
      </trkpt>
      <trkpt lat="41.0513160" lon="0.4324360">
        <ele>362.0</ele>
        <time>2020-08-06T14:20:01Z</time>
      </trkpt>
      <trkpt lat="41.0513150" lon="0.4323890">
        <ele>362.0</ele>
        <time>2020-08-06T14:20:02Z</time>
      </trkpt>
      <trkpt lat="41.0513240" lon="0.4323010">
        <ele>362.1</ele>
        <time>2020-08-06T14:20:04Z</time>
      </trkpt>
      <trkpt lat="41.0513320" lon="0.4322630">
        <ele>362.1</ele>
        <time>2020-08-06T14:20:05Z</time>
      </trkpt>
      <trkpt lat="41.0513640" lon="0.4321910">
        <ele>362.1</ele>
        <time>2020-08-06T14:20:07Z</time>
      </trkpt>
      <trkpt lat="41.0513700" lon="0.4321590">
        <ele>362.2</ele>
        <time>2020-08-06T14:20:08Z</time>
      </trkpt>
      <trkpt lat="41.0513890" lon="0.4320890">
        <ele>362.2</ele>
        <time>2020-08-06T14:20:10Z</time>
      </trkpt>
      <trkpt lat="41.0514030" lon="0.4320540">
        <ele>362.2</ele>
        <time>2020-08-06T14:20:11Z</time>
      </trkpt>
      <trkpt lat="41.0514200" lon="0.4320100">
        <ele>362.2</ele>
        <time>2020-08-06T14:20:13Z</time>
      </trkpt>
      <trkpt lat="41.0514330" lon="0.4319600">
        <ele>362.3</ele>
        <time>2020-08-06T14:20:14Z</time>
      </trkpt>
      <trkpt lat="41.0514520" lon="0.4318920">
        <ele>362.3</ele>
        <time>2020-08-06T14:20:16Z</time>
      </trkpt>
      <trkpt lat="41.0514640" lon="0.4318570">
        <ele>362.3</ele>
        <time>2020-08-06T14:20:17Z</time>
      </trkpt>
      <trkpt lat="41.0514810" lon="0.4318060">
        <ele>362.4</ele>
        <time>2020-08-06T14:20:19Z</time>
      </trkpt>
      <trkpt lat="41.0514960" lon="0.4317150">
        <ele>362.5</ele>
        <time>2020-08-06T14:20:20Z</time>
      </trkpt>
      <trkpt lat="41.0515130" lon="0.4316360">
        <ele>362.6</ele>
        <time>2020-08-06T14:20:21Z</time>
      </trkpt>
      <trkpt lat="41.0515240" lon="0.4314780">
        <ele>362.8</ele>
        <time>2020-08-06T14:20:23Z</time>
      </trkpt>
      <trkpt lat="41.0515350" lon="0.4313960">
        <ele>362.9</ele>
        <time>2020-08-06T14:20:25Z</time>
      </trkpt>
      <trkpt lat="41.0515280" lon="0.4313380">
        <ele>363.0</ele>
        <time>2020-08-06T14:20:27Z</time>
      </trkpt>
      <trkpt lat="41.0515250" lon="0.4312890">
        <ele>363.1</ele>
        <time>2020-08-06T14:20:28Z</time>
      </trkpt>
      <trkpt lat="41.0515230" lon="0.4312710">
        <ele>363.2</ele>
        <time>2020-08-06T14:20:29Z</time>
      </trkpt>
      <trkpt lat="41.0515260" lon="0.4312260">
        <ele>363.3</ele>
        <time>2020-08-06T14:20:31Z</time>
      </trkpt>
      <trkpt lat="41.0515330" lon="0.4311820">
        <ele>363.4</ele>
        <time>2020-08-06T14:20:32Z</time>
      </trkpt>
      <trkpt lat="41.0515400" lon="0.4311380">
        <ele>363.4</ele>
        <time>2020-08-06T14:20:33Z</time>
      </trkpt>
      <trkpt lat="41.0515410" lon="0.4311230">
        <ele>363.5</ele>
        <time>2020-08-06T14:20:34Z</time>
      </trkpt>
      <trkpt lat="41.0515390" lon="0.4310800">
        <ele>363.5</ele>
        <time>2020-08-06T14:20:36Z</time>
      </trkpt>
      <trkpt lat="41.0515430" lon="0.4310400">
        <ele>363.6</ele>
        <time>2020-08-06T14:20:37Z</time>
      </trkpt>
      <trkpt lat="41.0515440" lon="0.4309980">
        <ele>363.7</ele>
        <time>2020-08-06T14:20:39Z</time>
      </trkpt>
      <trkpt lat="41.0515470" lon="0.4309580">
        <ele>363.8</ele>
        <time>2020-08-06T14:20:40Z</time>
      </trkpt>
      <trkpt lat="41.0515490" lon="0.4309200">
        <ele>363.9</ele>
        <time>2020-08-06T14:20:41Z</time>
      </trkpt>
      <trkpt lat="41.0515530" lon="0.4308810">
        <ele>363.9</ele>
        <time>2020-08-06T14:20:42Z</time>
      </trkpt>
      <trkpt lat="41.0515540" lon="0.4308660">
        <ele>364.0</ele>
        <time>2020-08-06T14:20:43Z</time>
      </trkpt>
      <trkpt lat="41.0515570" lon="0.4308240">
        <ele>364.1</ele>
        <time>2020-08-06T14:20:45Z</time>
      </trkpt>
      <trkpt lat="41.0515610" lon="0.4307880">
        <ele>364.1</ele>
        <time>2020-08-06T14:20:46Z</time>
      </trkpt>
      <trkpt lat="41.0515650" lon="0.4307460">
        <ele>364.2</ele>
        <time>2020-08-06T14:20:48Z</time>
      </trkpt>
      <trkpt lat="41.0515650" lon="0.4307370">
        <ele>364.3</ele>
        <time>2020-08-06T14:20:49Z</time>
      </trkpt>
      <trkpt lat="41.0515630" lon="0.4307010">
        <ele>364.4</ele>
        <time>2020-08-06T14:20:51Z</time>
      </trkpt>
      <trkpt lat="41.0515650" lon="0.4306850">
        <ele>364.4</ele>
        <time>2020-08-06T14:20:52Z</time>
      </trkpt>
      <trkpt lat="41.0515570" lon="0.4306410">
        <ele>364.5</ele>
        <time>2020-08-06T14:20:54Z</time>
      </trkpt>
      <trkpt lat="41.0515470" lon="0.4305990">
        <ele>364.6</ele>
        <time>2020-08-06T14:20:56Z</time>
      </trkpt>
      <trkpt lat="41.0515400" lon="0.4305740">
        <ele>364.7</ele>
        <time>2020-08-06T14:20:57Z</time>
      </trkpt>
      <trkpt lat="41.0515120" lon="0.4304210">
        <ele>365.1</ele>
        <time>2020-08-06T14:20:59Z</time>
      </trkpt>
      <trkpt lat="41.0515010" lon="0.4303540">
        <ele>365.3</ele>
        <time>2020-08-06T14:21:00Z</time>
      </trkpt>
      <trkpt lat="41.0514870" lon="0.4302480">
        <ele>365.6</ele>
        <time>2020-08-06T14:21:02Z</time>
      </trkpt>
      <trkpt lat="41.0514860" lon="0.4301880">
        <ele>365.8</ele>
        <time>2020-08-06T14:21:03Z</time>
      </trkpt>
      <trkpt lat="41.0514820" lon="0.4301740">
        <ele>365.9</ele>
        <time>2020-08-06T14:21:04Z</time>
      </trkpt>
      <trkpt lat="41.0514730" lon="0.4301460">
        <ele>366.0</ele>
        <time>2020-08-06T14:21:06Z</time>
      </trkpt>
      <trkpt lat="41.0514730" lon="0.4301240">
        <ele>366.0</ele>
        <time>2020-08-06T14:21:07Z</time>
      </trkpt>
      <trkpt lat="41.0514610" lon="0.4300920">
        <ele>366.2</ele>
        <time>2020-08-06T14:21:09Z</time>
      </trkpt>
      <trkpt lat="41.0514520" lon="0.4300550">
        <ele>366.3</ele>
        <time>2020-08-06T14:21:10Z</time>
      </trkpt>
      <trkpt lat="41.0514450" lon="0.4300390">
        <ele>366.4</ele>
        <time>2020-08-06T14:21:11Z</time>
      </trkpt>
      <trkpt lat="41.0514300" lon="0.4300010">
        <ele>366.5</ele>
        <time>2020-08-06T14:21:13Z</time>
      </trkpt>
      <trkpt lat="41.0514210" lon="0.4299840">
        <ele>366.6</ele>
        <time>2020-08-06T14:21:14Z</time>
      </trkpt>
      <trkpt lat="41.0514080" lon="0.4299360">
        <ele>366.7</ele>
        <time>2020-08-06T14:21:16Z</time>
      </trkpt>
      <trkpt lat="41.0513740" lon="0.4298810">
        <ele>367.0</ele>
        <time>2020-08-06T14:21:18Z</time>
      </trkpt>
      <trkpt lat="41.0513590" lon="0.4298590">
        <ele>367.1</ele>
        <time>2020-08-06T14:21:20Z</time>
      </trkpt>
      <trkpt lat="41.0513450" lon="0.4298360">
        <ele>367.2</ele>
        <time>2020-08-06T14:21:22Z</time>
      </trkpt>
      <trkpt lat="41.0513300" lon="0.4298140">
        <ele>367.3</ele>
        <time>2020-08-06T14:21:24Z</time>
      </trkpt>
      <trkpt lat="41.0513150" lon="0.4297920">
        <ele>367.4</ele>
        <time>2020-08-06T14:21:25Z</time>
      </trkpt>
      <trkpt lat="41.0513000" lon="0.4297700">
        <ele>367.5</ele>
        <time>2020-08-06T14:21:26Z</time>
      </trkpt>
      <trkpt lat="41.0512800" lon="0.4297370">
        <ele>367.7</ele>
        <time>2020-08-06T14:21:28Z</time>
      </trkpt>
      <trkpt lat="41.0512590" lon="0.4296990">
        <ele>367.9</ele>
        <time>2020-08-06T14:21:30Z</time>
      </trkpt>
      <trkpt lat="41.0512390" lon="0.4296760">
        <ele>368.0</ele>
        <time>2020-08-06T14:21:32Z</time>
      </trkpt>
      <trkpt lat="41.0512230" lon="0.4296600">
        <ele>368.1</ele>
        <time>2020-08-06T14:21:34Z</time>
      </trkpt>
      <trkpt lat="41.0512090" lon="0.4296490">
        <ele>368.2</ele>
        <time>2020-08-06T14:21:35Z</time>
      </trkpt>
      <trkpt lat="41.0511790" lon="0.4296100">
        <ele>368.5</ele>
        <time>2020-08-06T14:21:37Z</time>
      </trkpt>
      <trkpt lat="41.0511670" lon="0.4296000">
        <ele>368.5</ele>
        <time>2020-08-06T14:21:38Z</time>
      </trkpt>
      <trkpt lat="41.0511550" lon="0.4295910">
        <ele>368.6</ele>
        <time>2020-08-06T14:21:39Z</time>
      </trkpt>
      <trkpt lat="41.0511230" lon="0.4295720">
        <ele>368.8</ele>
        <time>2020-08-06T14:21:42Z</time>
      </trkpt>
      <trkpt lat="41.0511130" lon="0.4295660">
        <ele>368.8</ele>
        <time>2020-08-06T14:21:43Z</time>
      </trkpt>
      <trkpt lat="41.0510960" lon="0.4295610">
        <ele>368.9</ele>
        <time>2020-08-06T14:21:45Z</time>
      </trkpt>
      <trkpt lat="41.0510840" lon="0.4295290">
        <ele>369.0</ele>
        <time>2020-08-06T14:21:46Z</time>
      </trkpt>
      <trkpt lat="41.0510600" lon="0.4294680">
        <ele>369.2</ele>
        <time>2020-08-06T14:21:48Z</time>
      </trkpt>
      <trkpt lat="41.0509860" lon="0.4290410">
        <ele>369.5</ele>
        <time>2020-08-06T14:21:49Z</time>
      </trkpt>
      <trkpt lat="41.0509660" lon="0.4288760">
        <ele>369.1</ele>
        <time>2020-08-06T14:21:51Z</time>
      </trkpt>
      <trkpt lat="41.0509800" lon="0.4286510">
        <ele>368.3</ele>
        <time>2020-08-06T14:21:53Z</time>
      </trkpt>
      <trkpt lat="41.0509930" lon="0.4285480">
        <ele>368.0</ele>
        <time>2020-08-06T14:21:54Z</time>
      </trkpt>
      <trkpt lat="41.0510060" lon="0.4284430">
        <ele>367.6</ele>
        <time>2020-08-06T14:21:55Z</time>
      </trkpt>
      <trkpt lat="41.0510280" lon="0.4282480">
        <ele>367.1</ele>
        <time>2020-08-06T14:21:57Z</time>
      </trkpt>
      <trkpt lat="41.0510430" lon="0.4281470">
        <ele>366.8</ele>
        <time>2020-08-06T14:21:58Z</time>
      </trkpt>
      <trkpt lat="41.0510600" lon="0.4279450">
        <ele>366.3</ele>
        <time>2020-08-06T14:22:00Z</time>
      </trkpt>
      <trkpt lat="41.0510920" lon="0.4277450">
        <ele>365.8</ele>
        <time>2020-08-06T14:22:02Z</time>
      </trkpt>
      <trkpt lat="41.0511050" lon="0.4275460">
        <ele>365.2</ele>
        <time>2020-08-06T14:22:04Z</time>
      </trkpt>
      <trkpt lat="41.0511070" lon="0.4274510">
        <ele>364.9</ele>
        <time>2020-08-06T14:22:05Z</time>
      </trkpt>
      <trkpt lat="41.0511110" lon="0.4272890">
        <ele>364.4</ele>
        <time>2020-08-06T14:22:07Z</time>
      </trkpt>
      <trkpt lat="41.0511060" lon="0.4271990">
        <ele>364.1</ele>
        <time>2020-08-06T14:22:08Z</time>
      </trkpt>
      <trkpt lat="41.0510890" lon="0.4270320">
        <ele>363.7</ele>
        <time>2020-08-06T14:22:10Z</time>
      </trkpt>
      <trkpt lat="41.0510460" lon="0.4268350">
        <ele>363.2</ele>
        <time>2020-08-06T14:22:12Z</time>
      </trkpt>
      <trkpt lat="41.0510060" lon="0.4266550">
        <ele>362.8</ele>
        <time>2020-08-06T14:22:14Z</time>
      </trkpt>
      <trkpt lat="41.0509900" lon="0.4265700">
        <ele>362.7</ele>
        <time>2020-08-06T14:22:15Z</time>
      </trkpt>
      <trkpt lat="41.0509800" lon="0.4264860">
        <ele>362.5</ele>
        <time>2020-08-06T14:22:16Z</time>
      </trkpt>
      <trkpt lat="41.0509820" lon="0.4263260">
        <ele>362.3</ele>
        <time>2020-08-06T14:22:18Z</time>
      </trkpt>
      <trkpt lat="41.0509890" lon="0.4262450">
        <ele>362.3</ele>
        <time>2020-08-06T14:22:19Z</time>
      </trkpt>
      <trkpt lat="41.0510040" lon="0.4260830">
        <ele>362.1</ele>
        <time>2020-08-06T14:22:21Z</time>
      </trkpt>
      <trkpt lat="41.0510110" lon="0.4259230">
        <ele>362.1</ele>
        <time>2020-08-06T14:22:23Z</time>
      </trkpt>
      <trkpt lat="41.0510210" lon="0.4258510">
        <ele>362.2</ele>
        <time>2020-08-06T14:22:24Z</time>
      </trkpt>
      <trkpt lat="41.0510290" lon="0.4257020">
        <ele>362.4</ele>
        <time>2020-08-06T14:22:26Z</time>
      </trkpt>
      <trkpt lat="41.0510280" lon="0.4256210">
        <ele>362.6</ele>
        <time>2020-08-06T14:22:27Z</time>
      </trkpt>
      <trkpt lat="41.0510310" lon="0.4254730">
        <ele>362.8</ele>
        <time>2020-08-06T14:22:29Z</time>
      </trkpt>
      <trkpt lat="41.0510320" lon="0.4254040">
        <ele>362.8</ele>
        <time>2020-08-06T14:22:30Z</time>
      </trkpt>
      <trkpt lat="41.0510190" lon="0.4252660">
        <ele>363.0</ele>
        <time>2020-08-06T14:22:32Z</time>
      </trkpt>
      <trkpt lat="41.0510130" lon="0.4252030">
        <ele>363.1</ele>
        <time>2020-08-06T14:22:33Z</time>
      </trkpt>
      <trkpt lat="41.0510110" lon="0.4251020">
        <ele>363.2</ele>
        <time>2020-08-06T14:22:35Z</time>
      </trkpt>
      <trkpt lat="41.0510140" lon="0.4250360">
        <ele>363.4</ele>
        <time>2020-08-06T14:22:36Z</time>
      </trkpt>
      <trkpt lat="41.0510230" lon="0.4249160">
        <ele>363.6</ele>
        <time>2020-08-06T14:22:38Z</time>
      </trkpt>
      <trkpt lat="41.0510280" lon="0.4248700">
        <ele>363.7</ele>
        <time>2020-08-06T14:22:39Z</time>
      </trkpt>
      <trkpt lat="41.0510070" lon="0.4247900">
        <ele>363.8</ele>
        <time>2020-08-06T14:22:41Z</time>
      </trkpt>
      <trkpt lat="41.0509990" lon="0.4247680">
        <ele>363.9</ele>
        <time>2020-08-06T14:22:43Z</time>
      </trkpt>
      <trkpt lat="41.0510100" lon="0.4247220">
        <ele>364.0</ele>
        <time>2020-08-06T14:22:44Z</time>
      </trkpt>
      <trkpt lat="41.0510220" lon="0.4246760">
        <ele>364.1</ele>
        <time>2020-08-06T14:22:45Z</time>
      </trkpt>
      <trkpt lat="41.0510570" lon="0.4245470">
        <ele>364.5</ele>
        <time>2020-08-06T14:22:47Z</time>
      </trkpt>
      <trkpt lat="41.0510670" lon="0.4244920">
        <ele>364.6</ele>
        <time>2020-08-06T14:22:48Z</time>
      </trkpt>
      <trkpt lat="41.0510700" lon="0.4244410">
        <ele>364.8</ele>
        <time>2020-08-06T14:22:49Z</time>
      </trkpt>
      <trkpt lat="41.0510730" lon="0.4243480">
        <ele>365.1</ele>
        <time>2020-08-06T14:22:51Z</time>
      </trkpt>
      <trkpt lat="41.0510700" lon="0.4242740">
        <ele>365.3</ele>
        <time>2020-08-06T14:22:53Z</time>
      </trkpt>
      <trkpt lat="41.0510710" lon="0.4241980">
        <ele>365.5</ele>
        <time>2020-08-06T14:22:55Z</time>
      </trkpt>
      <trkpt lat="41.0510690" lon="0.4241280">
        <ele>365.7</ele>
        <time>2020-08-06T14:22:57Z</time>
      </trkpt>
      <trkpt lat="41.0510690" lon="0.4240900">
        <ele>365.8</ele>
        <time>2020-08-06T14:22:58Z</time>
      </trkpt>
      <trkpt lat="41.0510680" lon="0.4240590">
        <ele>365.9</ele>
        <time>2020-08-06T14:22:59Z</time>
      </trkpt>
      <trkpt lat="41.0510680" lon="0.4239950">
        <ele>366.1</ele>
        <time>2020-08-06T14:23:01Z</time>
      </trkpt>
      <trkpt lat="41.0510690" lon="0.4239610">
        <ele>366.2</ele>
        <time>2020-08-06T14:23:02Z</time>
      </trkpt>
      <trkpt lat="41.0510720" lon="0.4239000">
        <ele>366.4</ele>
        <time>2020-08-06T14:23:04Z</time>
      </trkpt>
      <trkpt lat="41.0510740" lon="0.4238640">
        <ele>366.5</ele>
        <time>2020-08-06T14:23:05Z</time>
      </trkpt>
      <trkpt lat="41.0510800" lon="0.4237940">
        <ele>366.7</ele>
        <time>2020-08-06T14:23:07Z</time>
      </trkpt>
      <trkpt lat="41.0510840" lon="0.4237220">
        <ele>366.9</ele>
        <time>2020-08-06T14:23:09Z</time>
      </trkpt>
      <trkpt lat="41.0510870" lon="0.4236940">
        <ele>367.0</ele>
        <time>2020-08-06T14:23:10Z</time>
      </trkpt>
      <trkpt lat="41.0510910" lon="0.4236310">
        <ele>367.2</ele>
        <time>2020-08-06T14:23:12Z</time>
      </trkpt>
      <trkpt lat="41.0510930" lon="0.4235820">
        <ele>367.4</ele>
        <time>2020-08-06T14:23:13Z</time>
      </trkpt>
      <trkpt lat="41.0510940" lon="0.4235640">
        <ele>367.5</ele>
        <time>2020-08-06T14:23:14Z</time>
      </trkpt>
      <trkpt lat="41.0510880" lon="0.4236550">
        <ele>367.8</ele>
        <time>2020-08-06T14:23:16Z</time>
      </trkpt>
      <trkpt lat="41.0510830" lon="0.4236990">
        <ele>367.9</ele>
        <time>2020-08-06T14:23:17Z</time>
      </trkpt>
      <trkpt lat="41.0510820" lon="0.4237030">
        <ele>367.9</ele>
        <time>2020-08-06T14:23:19Z</time>
      </trkpt>
      <trkpt lat="41.0510830" lon="0.4236810">
        <ele>368.0</ele>
        <time>2020-08-06T14:23:20Z</time>
      </trkpt>
      <trkpt lat="41.0510870" lon="0.4236460">
        <ele>368.1</ele>
        <time>2020-08-06T14:23:22Z</time>
      </trkpt>
      <trkpt lat="41.0510910" lon="0.4236290">
        <ele>368.1</ele>
        <time>2020-08-06T14:23:23Z</time>
      </trkpt>
      <trkpt lat="41.0510940" lon="0.4235690">
        <ele>368.3</ele>
        <time>2020-08-06T14:23:25Z</time>
      </trkpt>
      <trkpt lat="41.0511000" lon="0.4235150">
        <ele>368.4</ele>
        <time>2020-08-06T14:23:27Z</time>
      </trkpt>
      <trkpt lat="41.0511070" lon="0.4234470">
        <ele>368.6</ele>
        <time>2020-08-06T14:23:29Z</time>
      </trkpt>
      <trkpt lat="41.0511090" lon="0.4234230">
        <ele>368.7</ele>
        <time>2020-08-06T14:23:30Z</time>
      </trkpt>
      <trkpt lat="41.0511110" lon="0.4233980">
        <ele>368.8</ele>
        <time>2020-08-06T14:23:31Z</time>
      </trkpt>
      <trkpt lat="41.0511100" lon="0.4233600">
        <ele>368.9</ele>
        <time>2020-08-06T14:23:32Z</time>
      </trkpt>
      <trkpt lat="41.0511100" lon="0.4233250">
        <ele>369.0</ele>
        <time>2020-08-06T14:23:33Z</time>
      </trkpt>
      <trkpt lat="41.0511100" lon="0.4232430">
        <ele>369.2</ele>
        <time>2020-08-06T14:23:35Z</time>
      </trkpt>
      <trkpt lat="41.0511180" lon="0.4231870">
        <ele>369.3</ele>
        <time>2020-08-06T14:23:36Z</time>
      </trkpt>
      <trkpt lat="41.0511370" lon="0.4231240">
        <ele>369.5</ele>
        <time>2020-08-06T14:23:37Z</time>
      </trkpt>
      <trkpt lat="41.0511500" lon="0.4230270">
        <ele>369.8</ele>
        <time>2020-08-06T14:23:38Z</time>
      </trkpt>
      <trkpt lat="41.0511610" lon="0.4229550">
        <ele>370.0</ele>
        <time>2020-08-06T14:23:39Z</time>
      </trkpt>
      <trkpt lat="41.0511320" lon="0.4228100">
        <ele>370.3</ele>
        <time>2020-08-06T14:23:41Z</time>
      </trkpt>
      <trkpt lat="41.0511040" lon="0.4227280">
        <ele>370.5</ele>
        <time>2020-08-06T14:23:43Z</time>
      </trkpt>
      <trkpt lat="41.0510940" lon="0.4226920">
        <ele>370.6</ele>
        <time>2020-08-06T14:23:44Z</time>
      </trkpt>
      <trkpt lat="41.0510870" lon="0.4226570">
        <ele>370.7</ele>
        <time>2020-08-06T14:23:45Z</time>
      </trkpt>
      <trkpt lat="41.0510760" lon="0.4225960">
        <ele>370.9</ele>
        <time>2020-08-06T14:23:47Z</time>
      </trkpt>
      <trkpt lat="41.0510610" lon="0.4225180">
        <ele>371.1</ele>
        <time>2020-08-06T14:23:48Z</time>
      </trkpt>
      <trkpt lat="41.0510460" lon="0.4223810">
        <ele>371.4</ele>
        <time>2020-08-06T14:23:50Z</time>
      </trkpt>
      <trkpt lat="41.0510390" lon="0.4222920">
        <ele>371.6</ele>
        <time>2020-08-06T14:23:51Z</time>
      </trkpt>
      <trkpt lat="41.0510290" lon="0.4221750">
        <ele>371.8</ele>
        <time>2020-08-06T14:23:53Z</time>
      </trkpt>
      <trkpt lat="41.0510240" lon="0.4221310">
        <ele>371.9</ele>
        <time>2020-08-06T14:23:54Z</time>
      </trkpt>
      <trkpt lat="41.0510200" lon="0.4220830">
        <ele>372.0</ele>
        <time>2020-08-06T14:23:55Z</time>
      </trkpt>
      <trkpt lat="41.0510160" lon="0.4220360">
        <ele>372.1</ele>
        <time>2020-08-06T14:23:56Z</time>
      </trkpt>
      <trkpt lat="41.0510130" lon="0.4219610">
        <ele>372.3</ele>
        <time>2020-08-06T14:23:58Z</time>
      </trkpt>
      <trkpt lat="41.0510130" lon="0.4219230">
        <ele>372.4</ele>
        <time>2020-08-06T14:23:59Z</time>
      </trkpt>
      <trkpt lat="41.0510160" lon="0.4218500">
        <ele>372.6</ele>
        <time>2020-08-06T14:24:01Z</time>
      </trkpt>
      <trkpt lat="41.0510190" lon="0.4218040">
        <ele>372.6</ele>
        <time>2020-08-06T14:24:02Z</time>
      </trkpt>
      <trkpt lat="41.0510220" lon="0.4217420">
        <ele>372.8</ele>
        <time>2020-08-06T14:24:04Z</time>
      </trkpt>
      <trkpt lat="41.0510210" lon="0.4216620">
        <ele>372.9</ele>
        <time>2020-08-06T14:24:06Z</time>
      </trkpt>
      <trkpt lat="41.0510250" lon="0.4216260">
        <ele>372.9</ele>
        <time>2020-08-06T14:24:07Z</time>
      </trkpt>
      <trkpt lat="41.0510320" lon="0.4215490">
        <ele>373.0</ele>
        <time>2020-08-06T14:24:09Z</time>
      </trkpt>
      <trkpt lat="41.0510330" lon="0.4215120">
        <ele>373.1</ele>
        <time>2020-08-06T14:24:10Z</time>
      </trkpt>
      <trkpt lat="41.0510370" lon="0.4214410">
        <ele>373.2</ele>
        <time>2020-08-06T14:24:12Z</time>
      </trkpt>
      <trkpt lat="41.0510410" lon="0.4213870">
        <ele>373.3</ele>
        <time>2020-08-06T14:24:13Z</time>
      </trkpt>
      <trkpt lat="41.0510420" lon="0.4213390">
        <ele>373.3</ele>
        <time>2020-08-06T14:24:14Z</time>
      </trkpt>
      <trkpt lat="41.0510440" lon="0.4212570">
        <ele>373.5</ele>
        <time>2020-08-06T14:24:16Z</time>
      </trkpt>
      <trkpt lat="41.0510500" lon="0.4211730">
        <ele>373.6</ele>
        <time>2020-08-06T14:24:18Z</time>
      </trkpt>
      <trkpt lat="41.0510560" lon="0.4211250">
        <ele>373.7</ele>
        <time>2020-08-06T14:24:19Z</time>
      </trkpt>
      <trkpt lat="41.0510600" lon="0.4210770">
        <ele>373.8</ele>
        <time>2020-08-06T14:24:20Z</time>
      </trkpt>
      <trkpt lat="41.0510650" lon="0.4210040">
        <ele>373.9</ele>
        <time>2020-08-06T14:24:22Z</time>
      </trkpt>
      <trkpt lat="41.0510650" lon="0.4209260">
        <ele>374.0</ele>
        <time>2020-08-06T14:24:24Z</time>
      </trkpt>
      <trkpt lat="41.0510710" lon="0.4208420">
        <ele>374.1</ele>
        <time>2020-08-06T14:24:26Z</time>
      </trkpt>
      <trkpt lat="41.0510750" lon="0.4207940">
        <ele>374.2</ele>
        <time>2020-08-06T14:24:27Z</time>
      </trkpt>
      <trkpt lat="41.0510720" lon="0.4207150">
        <ele>374.4</ele>
        <time>2020-08-06T14:24:29Z</time>
      </trkpt>
      <trkpt lat="41.0510680" lon="0.4206370">
        <ele>374.6</ele>
        <time>2020-08-06T14:24:30Z</time>
      </trkpt>
      <trkpt lat="41.0510610" lon="0.4205470">
        <ele>374.7</ele>
        <time>2020-08-06T14:24:32Z</time>
      </trkpt>
      <trkpt lat="41.0510560" lon="0.4204540">
        <ele>374.9</ele>
        <time>2020-08-06T14:24:34Z</time>
      </trkpt>
      <trkpt lat="41.0510490" lon="0.4204120">
        <ele>375.0</ele>
        <time>2020-08-06T14:24:35Z</time>
      </trkpt>
      <trkpt lat="41.0510430" lon="0.4203700">
        <ele>375.0</ele>
        <time>2020-08-06T14:24:36Z</time>
      </trkpt>
      <trkpt lat="41.0510360" lon="0.4203000">
        <ele>375.2</ele>
        <time>2020-08-06T14:24:38Z</time>
      </trkpt>
      <trkpt lat="41.0510360" lon="0.4202530">
        <ele>375.2</ele>
        <time>2020-08-06T14:24:39Z</time>
      </trkpt>
      <trkpt lat="41.0510360" lon="0.4202370">
        <ele>375.3</ele>
        <time>2020-08-06T14:24:40Z</time>
      </trkpt>
      <trkpt lat="41.0510340" lon="0.4201780">
        <ele>375.4</ele>
        <time>2020-08-06T14:24:42Z</time>
      </trkpt>
      <trkpt lat="41.0510330" lon="0.4201300">
        <ele>375.5</ele>
        <time>2020-08-06T14:24:43Z</time>
      </trkpt>
      <trkpt lat="41.0510300" lon="0.4200820">
        <ele>375.6</ele>
        <time>2020-08-06T14:24:44Z</time>
      </trkpt>
      <trkpt lat="41.0510260" lon="0.4200330">
        <ele>375.7</ele>
        <time>2020-08-06T14:24:45Z</time>
      </trkpt>
      <trkpt lat="41.0510210" lon="0.4199620">
        <ele>375.8</ele>
        <time>2020-08-06T14:24:47Z</time>
      </trkpt>
      <trkpt lat="41.0510190" lon="0.4199030">
        <ele>376.0</ele>
        <time>2020-08-06T14:24:49Z</time>
      </trkpt>
      <trkpt lat="41.0510170" lon="0.4198510">
        <ele>376.1</ele>
        <time>2020-08-06T14:24:50Z</time>
      </trkpt>
      <trkpt lat="41.0510150" lon="0.4197970">
        <ele>376.3</ele>
        <time>2020-08-06T14:24:52Z</time>
      </trkpt>
      <trkpt lat="41.0510150" lon="0.4197580">
        <ele>376.4</ele>
        <time>2020-08-06T14:24:53Z</time>
      </trkpt>
      <trkpt lat="41.0510190" lon="0.4197150">
        <ele>376.6</ele>
        <time>2020-08-06T14:24:54Z</time>
      </trkpt>
      <trkpt lat="41.0510160" lon="0.4196620">
        <ele>376.8</ele>
        <time>2020-08-06T14:24:55Z</time>
      </trkpt>
      <trkpt lat="41.0510130" lon="0.4196460">
        <ele>376.8</ele>
        <time>2020-08-06T14:24:56Z</time>
      </trkpt>
      <trkpt lat="41.0510090" lon="0.4196170">
        <ele>376.9</ele>
        <time>2020-08-06T14:24:57Z</time>
      </trkpt>
      <trkpt lat="41.0510070" lon="0.4195620">
        <ele>377.1</ele>
        <time>2020-08-06T14:24:59Z</time>
      </trkpt>
      <trkpt lat="41.0510060" lon="0.4195130">
        <ele>377.3</ele>
        <time>2020-08-06T14:25:00Z</time>
      </trkpt>
      <trkpt lat="41.0510050" lon="0.4194950">
        <ele>377.3</ele>
        <time>2020-08-06T14:25:01Z</time>
      </trkpt>
      <trkpt lat="41.0510030" lon="0.4194500">
        <ele>377.5</ele>
        <time>2020-08-06T14:25:02Z</time>
      </trkpt>
      <trkpt lat="41.0510020" lon="0.4194340">
        <ele>377.5</ele>
        <time>2020-08-06T14:25:03Z</time>
      </trkpt>
      <trkpt lat="41.0510010" lon="0.4194000">
        <ele>377.6</ele>
        <time>2020-08-06T14:25:04Z</time>
      </trkpt>
      <trkpt lat="41.0510010" lon="0.4193430">
        <ele>377.8</ele>
        <time>2020-08-06T14:25:06Z</time>
      </trkpt>
      <trkpt lat="41.0509970" lon="0.4192920">
        <ele>378.0</ele>
        <time>2020-08-06T14:25:07Z</time>
      </trkpt>
      <trkpt lat="41.0509960" lon="0.4192750">
        <ele>378.0</ele>
        <time>2020-08-06T14:25:08Z</time>
      </trkpt>
      <trkpt lat="41.0509970" lon="0.4192180">
        <ele>378.2</ele>
        <time>2020-08-06T14:25:10Z</time>
      </trkpt>
      <trkpt lat="41.0509950" lon="0.4191770">
        <ele>378.3</ele>
        <time>2020-08-06T14:25:11Z</time>
      </trkpt>
      <trkpt lat="41.0509950" lon="0.4191380">
        <ele>378.4</ele>
        <time>2020-08-06T14:25:12Z</time>
      </trkpt>
      <trkpt lat="41.0509950" lon="0.4190980">
        <ele>378.5</ele>
        <time>2020-08-06T14:25:13Z</time>
      </trkpt>
      <trkpt lat="41.0509930" lon="0.4190250">
        <ele>378.8</ele>
        <time>2020-08-06T14:25:15Z</time>
      </trkpt>
      <trkpt lat="41.0509940" lon="0.4189390">
        <ele>379.0</ele>
        <time>2020-08-06T14:25:17Z</time>
      </trkpt>
      <trkpt lat="41.0509990" lon="0.4188650">
        <ele>379.2</ele>
        <time>2020-08-06T14:25:19Z</time>
      </trkpt>
      <trkpt lat="41.0509970" lon="0.4188290">
        <ele>379.3</ele>
        <time>2020-08-06T14:25:20Z</time>
      </trkpt>
      <trkpt lat="41.0509950" lon="0.4187760">
        <ele>379.5</ele>
        <time>2020-08-06T14:25:22Z</time>
      </trkpt>
      <trkpt lat="41.0509930" lon="0.4187210">
        <ele>379.6</ele>
        <time>2020-08-06T14:25:23Z</time>
      </trkpt>
      <trkpt lat="41.0509890" lon="0.4186510">
        <ele>379.9</ele>
        <time>2020-08-06T14:25:25Z</time>
      </trkpt>
      <trkpt lat="41.0509880" lon="0.4186060">
        <ele>380.0</ele>
        <time>2020-08-06T14:25:26Z</time>
      </trkpt>
      <trkpt lat="41.0509840" lon="0.4185690">
        <ele>380.1</ele>
        <time>2020-08-06T14:25:27Z</time>
      </trkpt>
      <trkpt lat="41.0509790" lon="0.4185160">
        <ele>380.3</ele>
        <time>2020-08-06T14:25:29Z</time>
      </trkpt>
      <trkpt lat="41.0509740" lon="0.4184640">
        <ele>380.5</ele>
        <time>2020-08-06T14:25:30Z</time>
      </trkpt>
      <trkpt lat="41.0509700" lon="0.4184150">
        <ele>380.6</ele>
        <time>2020-08-06T14:25:31Z</time>
      </trkpt>
      <trkpt lat="41.0509650" lon="0.4183630">
        <ele>380.8</ele>
        <time>2020-08-06T14:25:33Z</time>
      </trkpt>
      <trkpt lat="41.0509620" lon="0.4183270">
        <ele>380.9</ele>
        <time>2020-08-06T14:25:34Z</time>
      </trkpt>
      <trkpt lat="41.0509550" lon="0.4182760">
        <ele>381.1</ele>
        <time>2020-08-06T14:25:36Z</time>
      </trkpt>
      <trkpt lat="41.0509490" lon="0.4182280">
        <ele>381.2</ele>
        <time>2020-08-06T14:25:37Z</time>
      </trkpt>
      <trkpt lat="41.0509430" lon="0.4181960">
        <ele>381.3</ele>
        <time>2020-08-06T14:25:38Z</time>
      </trkpt>
      <trkpt lat="41.0509330" lon="0.4181260">
        <ele>381.5</ele>
        <time>2020-08-06T14:25:40Z</time>
      </trkpt>
      <trkpt lat="41.0509280" lon="0.4180730">
        <ele>381.6</ele>
        <time>2020-08-06T14:25:41Z</time>
      </trkpt>
      <trkpt lat="41.0509120" lon="0.4179950">
        <ele>381.8</ele>
        <time>2020-08-06T14:25:43Z</time>
      </trkpt>
      <trkpt lat="41.0509020" lon="0.4179470">
        <ele>381.8</ele>
        <time>2020-08-06T14:25:44Z</time>
      </trkpt>
      <trkpt lat="41.0508890" lon="0.4178940">
        <ele>381.8</ele>
        <time>2020-08-06T14:25:45Z</time>
      </trkpt>
      <trkpt lat="41.0508740" lon="0.4178310">
        <ele>381.7</ele>
        <time>2020-08-06T14:25:47Z</time>
      </trkpt>
      <trkpt lat="41.0508620" lon="0.4177770">
        <ele>381.8</ele>
        <time>2020-08-06T14:25:49Z</time>
      </trkpt>
      <trkpt lat="41.0508510" lon="0.4177170">
        <ele>381.9</ele>
        <time>2020-08-06T14:25:50Z</time>
      </trkpt>
      <trkpt lat="41.0508420" lon="0.4176770">
        <ele>381.9</ele>
        <time>2020-08-06T14:25:51Z</time>
      </trkpt>
      <trkpt lat="41.0508290" lon="0.4176100">
        <ele>382.0</ele>
        <time>2020-08-06T14:25:53Z</time>
      </trkpt>
      <trkpt lat="41.0508220" lon="0.4175650">
        <ele>382.1</ele>
        <time>2020-08-06T14:25:54Z</time>
      </trkpt>
      <trkpt lat="41.0508140" lon="0.4175160">
        <ele>382.1</ele>
        <time>2020-08-06T14:25:55Z</time>
      </trkpt>
      <trkpt lat="41.0508090" lon="0.4174700">
        <ele>382.2</ele>
        <time>2020-08-06T14:25:56Z</time>
      </trkpt>
      <trkpt lat="41.0507980" lon="0.4174010">
        <ele>382.3</ele>
        <time>2020-08-06T14:25:58Z</time>
      </trkpt>
      <trkpt lat="41.0507890" lon="0.4173490">
        <ele>382.3</ele>
        <time>2020-08-06T14:25:59Z</time>
      </trkpt>
      <trkpt lat="41.0507810" lon="0.4173040">
        <ele>382.4</ele>
        <time>2020-08-06T14:26:00Z</time>
      </trkpt>
      <trkpt lat="41.0507750" lon="0.4172650">
        <ele>382.4</ele>
        <time>2020-08-06T14:26:01Z</time>
      </trkpt>
      <trkpt lat="41.0507650" lon="0.4171930">
        <ele>382.5</ele>
        <time>2020-08-06T14:26:03Z</time>
      </trkpt>
      <trkpt lat="41.0507570" lon="0.4171440">
        <ele>382.5</ele>
        <time>2020-08-06T14:26:04Z</time>
      </trkpt>
      <trkpt lat="41.0507480" lon="0.4170690">
        <ele>382.6</ele>
        <time>2020-08-06T14:26:06Z</time>
      </trkpt>
      <trkpt lat="41.0507390" lon="0.4170100">
        <ele>382.7</ele>
        <time>2020-08-06T14:26:07Z</time>
      </trkpt>
      <trkpt lat="41.0507310" lon="0.4169370">
        <ele>382.7</ele>
        <time>2020-08-06T14:26:09Z</time>
      </trkpt>
      <trkpt lat="41.0507250" lon="0.4168710">
        <ele>382.7</ele>
        <time>2020-08-06T14:26:11Z</time>
      </trkpt>
      <trkpt lat="41.0507150" lon="0.4168090">
        <ele>382.7</ele>
        <time>2020-08-06T14:26:12Z</time>
      </trkpt>
      <trkpt lat="41.0506980" lon="0.4167240">
        <ele>382.7</ele>
        <time>2020-08-06T14:26:14Z</time>
      </trkpt>
      <trkpt lat="41.0506860" lon="0.4166690">
        <ele>382.7</ele>
        <time>2020-08-06T14:26:15Z</time>
      </trkpt>
      <trkpt lat="41.0506660" lon="0.4165860">
        <ele>382.6</ele>
        <time>2020-08-06T14:26:17Z</time>
      </trkpt>
      <trkpt lat="41.0506530" lon="0.4165310">
        <ele>382.6</ele>
        <time>2020-08-06T14:26:18Z</time>
      </trkpt>
      <trkpt lat="41.0506370" lon="0.4164640">
        <ele>382.5</ele>
        <time>2020-08-06T14:26:20Z</time>
      </trkpt>
      <trkpt lat="41.0506290" lon="0.4164430">
        <ele>382.5</ele>
        <time>2020-08-06T14:26:21Z</time>
      </trkpt>
      <trkpt lat="41.0506210" lon="0.4164210">
        <ele>382.4</ele>
        <time>2020-08-06T14:26:22Z</time>
      </trkpt>
      <trkpt lat="41.0506040" lon="0.4163710">
        <ele>382.4</ele>
        <time>2020-08-06T14:26:24Z</time>
      </trkpt>
      <trkpt lat="41.0505680" lon="0.4162310">
        <ele>382.2</ele>
        <time>2020-08-06T14:26:25Z</time>
      </trkpt>
      <trkpt lat="41.0505420" lon="0.4161250">
        <ele>382.0</ele>
        <time>2020-08-06T14:26:27Z</time>
      </trkpt>
      <trkpt lat="41.0505200" lon="0.4160280">
        <ele>381.8</ele>
        <time>2020-08-06T14:26:28Z</time>
      </trkpt>
      <trkpt lat="41.0505000" lon="0.4159460">
        <ele>381.6</ele>
        <time>2020-08-06T14:26:29Z</time>
      </trkpt>
      <trkpt lat="41.0504560" lon="0.4157260">
        <ele>380.7</ele>
        <time>2020-08-06T14:26:32Z</time>
      </trkpt>
      <trkpt lat="41.0504210" lon="0.4155720">
        <ele>380.1</ele>
        <time>2020-08-06T14:26:34Z</time>
      </trkpt>
      <trkpt lat="41.0503250" lon="0.4152070">
        <ele>378.4</ele>
        <time>2020-08-06T14:26:39Z</time>
      </trkpt>
      <trkpt lat="41.0502720" lon="0.4149850">
        <ele>377.4</ele>
        <time>2020-08-06T14:26:40Z</time>
      </trkpt>
      <trkpt lat="41.0502210" lon="0.4147540">
        <ele>376.2</ele>
        <time>2020-08-06T14:26:42Z</time>
      </trkpt>
      <trkpt lat="41.0501990" lon="0.4146350">
        <ele>375.5</ele>
        <time>2020-08-06T14:26:43Z</time>
      </trkpt>
      <trkpt lat="41.0501780" lon="0.4145140">
        <ele>374.9</ele>
        <time>2020-08-06T14:26:44Z</time>
      </trkpt>
      <trkpt lat="41.0501570" lon="0.4142580">
        <ele>373.6</ele>
        <time>2020-08-06T14:26:46Z</time>
      </trkpt>
      <trkpt lat="41.0501540" lon="0.4141200">
        <ele>372.9</ele>
        <time>2020-08-06T14:26:47Z</time>
      </trkpt>
      <trkpt lat="41.0501500" lon="0.4138580">
        <ele>371.6</ele>
        <time>2020-08-06T14:26:49Z</time>
      </trkpt>
      <trkpt lat="41.0501400" lon="0.4137280">
        <ele>370.9</ele>
        <time>2020-08-06T14:26:50Z</time>
      </trkpt>
      <trkpt lat="41.0501290" lon="0.4134820">
        <ele>369.9</ele>
        <time>2020-08-06T14:26:52Z</time>
      </trkpt>
      <trkpt lat="41.0501340" lon="0.4133530">
        <ele>369.4</ele>
        <time>2020-08-06T14:26:53Z</time>
      </trkpt>
      <trkpt lat="41.0501150" lon="0.4130990">
        <ele>368.4</ele>
        <time>2020-08-06T14:26:55Z</time>
      </trkpt>
      <trkpt lat="41.0500990" lon="0.4129690">
        <ele>368.0</ele>
        <time>2020-08-06T14:26:56Z</time>
      </trkpt>
      <trkpt lat="41.0500870" lon="0.4128550">
        <ele>367.7</ele>
        <time>2020-08-06T14:26:57Z</time>
      </trkpt>
      <trkpt lat="41.0500650" lon="0.4126410">
        <ele>367.3</ele>
        <time>2020-08-06T14:26:59Z</time>
      </trkpt>
      <trkpt lat="41.0500390" lon="0.4124440">
        <ele>366.9</ele>
        <time>2020-08-06T14:27:01Z</time>
      </trkpt>
      <trkpt lat="41.0500290" lon="0.4123430">
        <ele>366.7</ele>
        <time>2020-08-06T14:27:02Z</time>
      </trkpt>
      <trkpt lat="41.0500100" lon="0.4121500">
        <ele>366.4</ele>
        <time>2020-08-06T14:27:04Z</time>
      </trkpt>
      <trkpt lat="41.0499830" lon="0.4119670">
        <ele>366.2</ele>
        <time>2020-08-06T14:27:06Z</time>
      </trkpt>
      <trkpt lat="41.0499690" lon="0.4118710">
        <ele>366.2</ele>
        <time>2020-08-06T14:27:07Z</time>
      </trkpt>
      <trkpt lat="41.0499490" lon="0.4116890">
        <ele>366.1</ele>
        <time>2020-08-06T14:27:09Z</time>
      </trkpt>
      <trkpt lat="41.0499290" lon="0.4115200">
        <ele>366.0</ele>
        <time>2020-08-06T14:27:11Z</time>
      </trkpt>
      <trkpt lat="41.0499100" lon="0.4114290">
        <ele>366.0</ele>
        <time>2020-08-06T14:27:12Z</time>
      </trkpt>
      <trkpt lat="41.0498760" lon="0.4112510">
        <ele>366.0</ele>
        <time>2020-08-06T14:27:14Z</time>
      </trkpt>
      <trkpt lat="41.0498500" lon="0.4110960">
        <ele>366.1</ele>
        <time>2020-08-06T14:27:16Z</time>
      </trkpt>
      <trkpt lat="41.0498290" lon="0.4109540">
        <ele>366.1</ele>
        <time>2020-08-06T14:27:18Z</time>
      </trkpt>
      <trkpt lat="41.0498250" lon="0.4108960">
        <ele>366.1</ele>
        <time>2020-08-06T14:27:19Z</time>
      </trkpt>
      <trkpt lat="41.0498080" lon="0.4107740">
        <ele>366.2</ele>
        <time>2020-08-06T14:27:21Z</time>
      </trkpt>
      <trkpt lat="41.0497900" lon="0.4107230">
        <ele>366.2</ele>
        <time>2020-08-06T14:27:22Z</time>
      </trkpt>
      <trkpt lat="41.0497670" lon="0.4106070">
        <ele>366.3</ele>
        <time>2020-08-06T14:27:24Z</time>
      </trkpt>
      <trkpt lat="41.0497620" lon="0.4105470">
        <ele>366.3</ele>
        <time>2020-08-06T14:27:25Z</time>
      </trkpt>
      <trkpt lat="41.0497510" lon="0.4104820">
        <ele>366.4</ele>
        <time>2020-08-06T14:27:26Z</time>
      </trkpt>
      <trkpt lat="41.0497350" lon="0.4104160">
        <ele>366.4</ele>
        <time>2020-08-06T14:27:27Z</time>
      </trkpt>
      <trkpt lat="41.0497180" lon="0.4103000">
        <ele>366.5</ele>
        <time>2020-08-06T14:27:29Z</time>
      </trkpt>
      <trkpt lat="41.0497130" lon="0.4102600">
        <ele>366.5</ele>
        <time>2020-08-06T14:27:30Z</time>
      </trkpt>
      <trkpt lat="41.0497030" lon="0.4101730">
        <ele>366.6</ele>
        <time>2020-08-06T14:27:32Z</time>
      </trkpt>
      <trkpt lat="41.0496990" lon="0.4101220">
        <ele>366.6</ele>
        <time>2020-08-06T14:27:33Z</time>
      </trkpt>
      <trkpt lat="41.0496960" lon="0.4100820">
        <ele>366.7</ele>
        <time>2020-08-06T14:27:34Z</time>
      </trkpt>
      <trkpt lat="41.0496840" lon="0.4099780">
        <ele>366.7</ele>
        <time>2020-08-06T14:27:36Z</time>
      </trkpt>
      <trkpt lat="41.0496560" lon="0.4099400">
        <ele>366.8</ele>
        <time>2020-08-06T14:27:37Z</time>
      </trkpt>
      <trkpt lat="41.0496210" lon="0.4098970">
        <ele>366.8</ele>
        <time>2020-08-06T14:27:39Z</time>
      </trkpt>
      <trkpt lat="41.0496230" lon="0.4098580">
        <ele>366.9</ele>
        <time>2020-08-06T14:27:40Z</time>
      </trkpt>
      <trkpt lat="41.0496080" lon="0.4098070">
        <ele>366.9</ele>
        <time>2020-08-06T14:27:42Z</time>
      </trkpt>
      <trkpt lat="41.0495910" lon="0.4097660">
        <ele>366.9</ele>
        <time>2020-08-06T14:27:44Z</time>
      </trkpt>
      <trkpt lat="41.0495760" lon="0.4097320">
        <ele>367.0</ele>
        <time>2020-08-06T14:27:45Z</time>
      </trkpt>
      <trkpt lat="41.0495580" lon="0.4096830">
        <ele>367.0</ele>
        <time>2020-08-06T14:27:47Z</time>
      </trkpt>
      <trkpt lat="41.0495360" lon="0.4096390">
        <ele>367.0</ele>
        <time>2020-08-06T14:27:48Z</time>
      </trkpt>
      <trkpt lat="41.0495040" lon="0.4095820">
        <ele>367.1</ele>
        <time>2020-08-06T14:27:50Z</time>
      </trkpt>
      <trkpt lat="41.0494860" lon="0.4095230">
        <ele>367.1</ele>
        <time>2020-08-06T14:27:51Z</time>
      </trkpt>
      <trkpt lat="41.0494490" lon="0.4094530">
        <ele>367.1</ele>
        <time>2020-08-06T14:27:53Z</time>
      </trkpt>
      <trkpt lat="41.0494490" lon="0.4093840">
        <ele>367.1</ele>
        <time>2020-08-06T14:27:55Z</time>
      </trkpt>
      <trkpt lat="41.0494240" lon="0.4093600">
        <ele>367.1</ele>
        <time>2020-08-06T14:27:56Z</time>
      </trkpt>
      <trkpt lat="41.0493620" lon="0.4093400">
        <ele>367.1</ele>
        <time>2020-08-06T14:27:58Z</time>
      </trkpt>
      <trkpt lat="41.0493070" lon="0.4092260">
        <ele>367.1</ele>
        <time>2020-08-06T14:27:59Z</time>
      </trkpt>
      <trkpt lat="41.0492700" lon="0.4091170">
        <ele>367.1</ele>
        <time>2020-08-06T14:28:01Z</time>
      </trkpt>
      <trkpt lat="41.0492660" lon="0.4090250">
        <ele>367.0</ele>
        <time>2020-08-06T14:28:02Z</time>
      </trkpt>
      <trkpt lat="41.0492170" lon="0.4089310">
        <ele>367.0</ele>
        <time>2020-08-06T14:28:04Z</time>
      </trkpt>
      <trkpt lat="41.0491690" lon="0.4089610">
        <ele>367.0</ele>
        <time>2020-08-06T14:28:06Z</time>
      </trkpt>
      <trkpt lat="41.0491680" lon="0.4089500">
        <ele>367.0</ele>
        <time>2020-08-06T14:28:08Z</time>
      </trkpt>
      <trkpt lat="41.0491470" lon="0.4089380">
        <ele>367.0</ele>
        <time>2020-08-06T14:28:09Z</time>
      </trkpt>
      <trkpt lat="41.0491270" lon="0.4089270">
        <ele>367.0</ele>
        <time>2020-08-06T14:28:10Z</time>
      </trkpt>
      <trkpt lat="41.0491060" lon="0.4089150">
        <ele>366.9</ele>
        <time>2020-08-06T14:28:12Z</time>
      </trkpt>
      <trkpt lat="41.0490850" lon="0.4089030">
        <ele>366.9</ele>
        <time>2020-08-06T14:28:13Z</time>
      </trkpt>
      <trkpt lat="41.0490250" lon="0.4087950">
        <ele>366.9</ele>
        <time>2020-08-06T14:28:15Z</time>
      </trkpt>
      <trkpt lat="41.0490020" lon="0.4087370">
        <ele>366.9</ele>
        <time>2020-08-06T14:28:16Z</time>
      </trkpt>
      <trkpt lat="41.0489850" lon="0.4086900">
        <ele>366.9</ele>
        <time>2020-08-06T14:28:17Z</time>
      </trkpt>
      <trkpt lat="41.0489720" lon="0.4086480">
        <ele>366.9</ele>
        <time>2020-08-06T14:28:18Z</time>
      </trkpt>
      <trkpt lat="41.0488350" lon="0.4082820">
        <ele>366.2</ele>
        <time>2020-08-06T14:28:19Z</time>
      </trkpt>
      <trkpt lat="41.0487940" lon="0.4081720">
        <ele>365.9</ele>
        <time>2020-08-06T14:28:21Z</time>
      </trkpt>
      <trkpt lat="41.0487280" lon="0.4080070">
        <ele>365.2</ele>
        <time>2020-08-06T14:28:23Z</time>
      </trkpt>
      <trkpt lat="41.0486870" lon="0.4079490">
        <ele>364.9</ele>
        <time>2020-08-06T14:28:24Z</time>
      </trkpt>
      <trkpt lat="41.0486120" lon="0.4077900">
        <ele>364.2</ele>
        <time>2020-08-06T14:28:26Z</time>
      </trkpt>
      <trkpt lat="41.0485310" lon="0.4076010">
        <ele>363.3</ele>
        <time>2020-08-06T14:28:28Z</time>
      </trkpt>
      <trkpt lat="41.0484920" lon="0.4075020">
        <ele>362.9</ele>
        <time>2020-08-06T14:28:29Z</time>
      </trkpt>
      <trkpt lat="41.0484560" lon="0.4074100">
        <ele>362.5</ele>
        <time>2020-08-06T14:28:30Z</time>
      </trkpt>
      <trkpt lat="41.0484240" lon="0.4073160">
        <ele>362.1</ele>
        <time>2020-08-06T14:28:31Z</time>
      </trkpt>
      <trkpt lat="41.0483600" lon="0.4071160">
        <ele>361.4</ele>
        <time>2020-08-06T14:28:33Z</time>
      </trkpt>
      <trkpt lat="41.0482840" lon="0.4069180">
        <ele>360.6</ele>
        <time>2020-08-06T14:28:35Z</time>
      </trkpt>
      <trkpt lat="41.0482120" lon="0.4067300">
        <ele>359.7</ele>
        <time>2020-08-06T14:28:37Z</time>
      </trkpt>
      <trkpt lat="41.0481800" lon="0.4066340">
        <ele>359.2</ele>
        <time>2020-08-06T14:28:38Z</time>
      </trkpt>
      <trkpt lat="41.0481130" lon="0.4064530">
        <ele>358.4</ele>
        <time>2020-08-06T14:28:40Z</time>
      </trkpt>
      <trkpt lat="41.0480440" lon="0.4062720">
        <ele>357.9</ele>
        <time>2020-08-06T14:28:42Z</time>
      </trkpt>
      <trkpt lat="41.0480090" lon="0.4061790">
        <ele>357.6</ele>
        <time>2020-08-06T14:28:43Z</time>
      </trkpt>
      <trkpt lat="41.0479440" lon="0.4059990">
        <ele>357.0</ele>
        <time>2020-08-06T14:28:45Z</time>
      </trkpt>
      <trkpt lat="41.0478990" lon="0.4058020">
        <ele>356.2</ele>
        <time>2020-08-06T14:28:47Z</time>
      </trkpt>
      <trkpt lat="41.0478760" lon="0.4056980">
        <ele>355.9</ele>
        <time>2020-08-06T14:28:48Z</time>
      </trkpt>
      <trkpt lat="41.0478410" lon="0.4054900">
        <ele>355.4</ele>
        <time>2020-08-06T14:28:50Z</time>
      </trkpt>
      <trkpt lat="41.0478130" lon="0.4053840">
        <ele>355.2</ele>
        <time>2020-08-06T14:28:51Z</time>
      </trkpt>
      <trkpt lat="41.0477830" lon="0.4052790">
        <ele>355.1</ele>
        <time>2020-08-06T14:28:52Z</time>
      </trkpt>
      <trkpt lat="41.0477240" lon="0.4050800">
        <ele>354.8</ele>
        <time>2020-08-06T14:28:54Z</time>
      </trkpt>
      <trkpt lat="41.0476420" lon="0.4049130">
        <ele>354.6</ele>
        <time>2020-08-06T14:28:56Z</time>
      </trkpt>
      <trkpt lat="41.0476020" lon="0.4048150">
        <ele>354.5</ele>
        <time>2020-08-06T14:28:58Z</time>
      </trkpt>
      <trkpt lat="41.0475390" lon="0.4046920">
        <ele>354.4</ele>
        <time>2020-08-06T14:28:59Z</time>
      </trkpt>
      <trkpt lat="41.0475010" lon="0.4046250">
        <ele>354.4</ele>
        <time>2020-08-06T14:29:00Z</time>
      </trkpt>
      <trkpt lat="41.0474690" lon="0.4045540">
        <ele>354.4</ele>
        <time>2020-08-06T14:29:01Z</time>
      </trkpt>
      <trkpt lat="41.0474110" lon="0.4043980">
        <ele>354.3</ele>
        <time>2020-08-06T14:29:03Z</time>
      </trkpt>
      <trkpt lat="41.0473450" lon="0.4042710">
        <ele>354.3</ele>
        <time>2020-08-06T14:29:05Z</time>
      </trkpt>
      <trkpt lat="41.0473180" lon="0.4042020">
        <ele>354.3</ele>
        <time>2020-08-06T14:29:06Z</time>
      </trkpt>
      <trkpt lat="41.0472550" lon="0.4040700">
        <ele>354.2</ele>
        <time>2020-08-06T14:29:08Z</time>
      </trkpt>
      <trkpt lat="41.0472220" lon="0.4040150">
        <ele>354.2</ele>
        <time>2020-08-06T14:29:09Z</time>
      </trkpt>
      <trkpt lat="41.0471650" lon="0.4039000">
        <ele>354.2</ele>
        <time>2020-08-06T14:29:11Z</time>
      </trkpt>
      <trkpt lat="41.0471380" lon="0.4038420">
        <ele>354.2</ele>
        <time>2020-08-06T14:29:12Z</time>
      </trkpt>
      <trkpt lat="41.0470750" lon="0.4037280">
        <ele>354.2</ele>
        <time>2020-08-06T14:29:14Z</time>
      </trkpt>
      <trkpt lat="41.0470420" lon="0.4036720">
        <ele>354.2</ele>
        <time>2020-08-06T14:29:15Z</time>
      </trkpt>
      <trkpt lat="41.0469760" lon="0.4035720">
        <ele>354.3</ele>
        <time>2020-08-06T14:29:17Z</time>
      </trkpt>
      <trkpt lat="41.0469030" lon="0.4034710">
        <ele>354.3</ele>
        <time>2020-08-06T14:29:19Z</time>
      </trkpt>
      <trkpt lat="41.0468710" lon="0.4034310">
        <ele>354.3</ele>
        <time>2020-08-06T14:29:20Z</time>
      </trkpt>
      <trkpt lat="41.0468100" lon="0.4033530">
        <ele>354.4</ele>
        <time>2020-08-06T14:29:22Z</time>
      </trkpt>
      <trkpt lat="41.0467890" lon="0.4033170">
        <ele>354.4</ele>
        <time>2020-08-06T14:29:23Z</time>
      </trkpt>
      <trkpt lat="41.0467370" lon="0.4032400">
        <ele>354.5</ele>
        <time>2020-08-06T14:29:25Z</time>
      </trkpt>
      <trkpt lat="41.0467000" lon="0.4031630">
        <ele>354.5</ele>
        <time>2020-08-06T14:29:27Z</time>
      </trkpt>
      <trkpt lat="41.0466710" lon="0.4031140">
        <ele>354.6</ele>
        <time>2020-08-06T14:29:28Z</time>
      </trkpt>
      <trkpt lat="41.0466250" lon="0.4030360">
        <ele>354.6</ele>
        <time>2020-08-06T14:29:30Z</time>
      </trkpt>
      <trkpt lat="41.0466010" lon="0.4029970">
        <ele>354.6</ele>
        <time>2020-08-06T14:29:31Z</time>
      </trkpt>
      <trkpt lat="41.0465550" lon="0.4029150">
        <ele>354.6</ele>
        <time>2020-08-06T14:29:33Z</time>
      </trkpt>
      <trkpt lat="41.0465320" lon="0.4028670">
        <ele>354.5</ele>
        <time>2020-08-06T14:29:34Z</time>
      </trkpt>
      <trkpt lat="41.0465140" lon="0.4028190">
        <ele>354.5</ele>
        <time>2020-08-06T14:29:35Z</time>
      </trkpt>
      <trkpt lat="41.0464820" lon="0.4027220">
        <ele>354.4</ele>
        <time>2020-08-06T14:29:37Z</time>
      </trkpt>
      <trkpt lat="41.0464620" lon="0.4026630">
        <ele>354.3</ele>
        <time>2020-08-06T14:29:38Z</time>
      </trkpt>
      <trkpt lat="41.0464290" lon="0.4025540">
        <ele>354.2</ele>
        <time>2020-08-06T14:29:40Z</time>
      </trkpt>
      <trkpt lat="41.0463910" lon="0.4024330">
        <ele>354.1</ele>
        <time>2020-08-06T14:29:42Z</time>
      </trkpt>
      <trkpt lat="41.0463700" lon="0.4023690">
        <ele>354.0</ele>
        <time>2020-08-06T14:29:43Z</time>
      </trkpt>
      <trkpt lat="41.0463270" lon="0.4022550">
        <ele>353.9</ele>
        <time>2020-08-06T14:29:45Z</time>
      </trkpt>
      <trkpt lat="41.0462990" lon="0.4021590">
        <ele>353.9</ele>
        <time>2020-08-06T14:29:47Z</time>
      </trkpt>
      <trkpt lat="41.0462890" lon="0.4021040">
        <ele>353.9</ele>
        <time>2020-08-06T14:29:48Z</time>
      </trkpt>
      <trkpt lat="41.0462540" lon="0.4019960">
        <ele>353.8</ele>
        <time>2020-08-06T14:29:50Z</time>
      </trkpt>
      <trkpt lat="41.0462220" lon="0.4019030">
        <ele>353.8</ele>
        <time>2020-08-06T14:29:52Z</time>
      </trkpt>
      <trkpt lat="41.0462070" lon="0.4018530">
        <ele>353.8</ele>
        <time>2020-08-06T14:29:53Z</time>
      </trkpt>
      <trkpt lat="41.0461920" lon="0.4017980">
        <ele>353.8</ele>
        <time>2020-08-06T14:29:54Z</time>
      </trkpt>
      <trkpt lat="41.0461740" lon="0.4017420">
        <ele>353.8</ele>
        <time>2020-08-06T14:29:55Z</time>
      </trkpt>
      <trkpt lat="41.0461580" lon="0.4016970">
        <ele>353.9</ele>
        <time>2020-08-06T14:29:56Z</time>
      </trkpt>
      <trkpt lat="41.0461130" lon="0.4016010">
        <ele>353.9</ele>
        <time>2020-08-06T14:29:58Z</time>
      </trkpt>
      <trkpt lat="41.0460890" lon="0.4015460">
        <ele>353.9</ele>
        <time>2020-08-06T14:29:59Z</time>
      </trkpt>
      <trkpt lat="41.0460630" lon="0.4014910">
        <ele>353.9</ele>
        <time>2020-08-06T14:30:00Z</time>
      </trkpt>
      <trkpt lat="41.0460180" lon="0.4013960">
        <ele>353.9</ele>
        <time>2020-08-06T14:30:02Z</time>
      </trkpt>
      <trkpt lat="41.0459900" lon="0.4013460">
        <ele>353.9</ele>
        <time>2020-08-06T14:30:03Z</time>
      </trkpt>
      <trkpt lat="41.0459660" lon="0.4013040">
        <ele>353.9</ele>
        <time>2020-08-06T14:30:04Z</time>
      </trkpt>
      <trkpt lat="41.0459400" lon="0.4012660">
        <ele>353.9</ele>
        <time>2020-08-06T14:30:05Z</time>
      </trkpt>
      <trkpt lat="41.0458840" lon="0.4011900">
        <ele>353.9</ele>
        <time>2020-08-06T14:30:07Z</time>
      </trkpt>
      <trkpt lat="41.0458320" lon="0.4011190">
        <ele>353.9</ele>
        <time>2020-08-06T14:30:09Z</time>
      </trkpt>
      <trkpt lat="41.0458060" lon="0.4010800">
        <ele>353.9</ele>
        <time>2020-08-06T14:30:10Z</time>
      </trkpt>
      <trkpt lat="41.0457750" lon="0.4010360">
        <ele>353.9</ele>
        <time>2020-08-06T14:30:11Z</time>
      </trkpt>
      <trkpt lat="41.0457470" lon="0.4009930">
        <ele>353.9</ele>
        <time>2020-08-06T14:30:12Z</time>
      </trkpt>
      <trkpt lat="41.0457260" lon="0.4009600">
        <ele>353.9</ele>
        <time>2020-08-06T14:30:13Z</time>
      </trkpt>
      <trkpt lat="41.0456800" lon="0.4008860">
        <ele>353.9</ele>
        <time>2020-08-06T14:30:15Z</time>
      </trkpt>
      <trkpt lat="41.0456340" lon="0.4008080">
        <ele>353.9</ele>
        <time>2020-08-06T14:30:17Z</time>
      </trkpt>
      <trkpt lat="41.0455940" lon="0.4007240">
        <ele>354.0</ele>
        <time>2020-08-06T14:30:19Z</time>
      </trkpt>
      <trkpt lat="41.0455760" lon="0.4006800">
        <ele>354.0</ele>
        <time>2020-08-06T14:30:20Z</time>
      </trkpt>
      <trkpt lat="41.0455540" lon="0.4006290">
        <ele>354.0</ele>
        <time>2020-08-06T14:30:22Z</time>
      </trkpt>
      <trkpt lat="41.0455220" lon="0.4005600">
        <ele>354.1</ele>
        <time>2020-08-06T14:30:24Z</time>
      </trkpt>
      <trkpt lat="41.0455030" lon="0.4005140">
        <ele>354.1</ele>
        <time>2020-08-06T14:30:26Z</time>
      </trkpt>
      <trkpt lat="41.0454700" lon="0.4004050">
        <ele>354.1</ele>
        <time>2020-08-06T14:30:28Z</time>
      </trkpt>
      <trkpt lat="41.0454600" lon="0.4003770">
        <ele>354.0</ele>
        <time>2020-08-06T14:30:29Z</time>
      </trkpt>
      <trkpt lat="41.0454260" lon="0.4002690">
        <ele>353.9</ele>
        <time>2020-08-06T14:30:31Z</time>
      </trkpt>
      <trkpt lat="41.0454110" lon="0.4002180">
        <ele>353.9</ele>
        <time>2020-08-06T14:30:32Z</time>
      </trkpt>
      <trkpt lat="41.0453810" lon="0.4001090">
        <ele>353.7</ele>
        <time>2020-08-06T14:30:34Z</time>
      </trkpt>
      <trkpt lat="41.0453570" lon="0.4000210">
        <ele>353.5</ele>
        <time>2020-08-06T14:30:36Z</time>
      </trkpt>
      <trkpt lat="41.0453150" lon="0.3998920">
        <ele>353.3</ele>
        <time>2020-08-06T14:30:37Z</time>
      </trkpt>
      <trkpt lat="41.0452950" lon="0.3998320">
        <ele>353.2</ele>
        <time>2020-08-06T14:30:38Z</time>
      </trkpt>
      <trkpt lat="41.0452620" lon="0.3997100">
        <ele>353.0</ele>
        <time>2020-08-06T14:30:40Z</time>
      </trkpt>
      <trkpt lat="41.0452430" lon="0.3996510">
        <ele>352.9</ele>
        <time>2020-08-06T14:30:41Z</time>
      </trkpt>
      <trkpt lat="41.0451750" lon="0.3994700">
        <ele>352.6</ele>
        <time>2020-08-06T14:30:44Z</time>
      </trkpt>
      <trkpt lat="41.0451520" lon="0.3994110">
        <ele>352.5</ele>
        <time>2020-08-06T14:30:45Z</time>
      </trkpt>
      <trkpt lat="41.0451330" lon="0.3993480">
        <ele>352.4</ele>
        <time>2020-08-06T14:30:46Z</time>
      </trkpt>
      <trkpt lat="41.0450890" lon="0.3992230">
        <ele>352.3</ele>
        <time>2020-08-06T14:30:48Z</time>
      </trkpt>
      <trkpt lat="41.0450690" lon="0.3991610">
        <ele>352.2</ele>
        <time>2020-08-06T14:30:49Z</time>
      </trkpt>
      <trkpt lat="41.0450480" lon="0.3991000">
        <ele>352.1</ele>
        <time>2020-08-06T14:30:50Z</time>
      </trkpt>
      <trkpt lat="41.0450290" lon="0.3990360">
        <ele>352.0</ele>
        <time>2020-08-06T14:30:51Z</time>
      </trkpt>
      <trkpt lat="41.0449840" lon="0.3989060">
        <ele>351.8</ele>
        <time>2020-08-06T14:30:53Z</time>
      </trkpt>
      <trkpt lat="41.0449610" lon="0.3988430">
        <ele>351.8</ele>
        <time>2020-08-06T14:30:54Z</time>
      </trkpt>
      <trkpt lat="41.0449380" lon="0.3987800">
        <ele>351.7</ele>
        <time>2020-08-06T14:30:55Z</time>
      </trkpt>
      <trkpt lat="41.0448870" lon="0.3986560">
        <ele>351.6</ele>
        <time>2020-08-06T14:30:57Z</time>
      </trkpt>
      <trkpt lat="41.0448620" lon="0.3985910">
        <ele>351.5</ele>
        <time>2020-08-06T14:30:58Z</time>
      </trkpt>
      <trkpt lat="41.0448400" lon="0.3985270">
        <ele>351.4</ele>
        <time>2020-08-06T14:30:59Z</time>
      </trkpt>
      <trkpt lat="41.0448180" lon="0.3984650">
        <ele>351.3</ele>
        <time>2020-08-06T14:31:00Z</time>
      </trkpt>
      <trkpt lat="41.0447960" lon="0.3984020">
        <ele>351.2</ele>
        <time>2020-08-06T14:31:01Z</time>
      </trkpt>
      <trkpt lat="41.0447530" lon="0.3982770">
        <ele>351.1</ele>
        <time>2020-08-06T14:31:03Z</time>
      </trkpt>
      <trkpt lat="41.0447360" lon="0.3982170">
        <ele>351.0</ele>
        <time>2020-08-06T14:31:04Z</time>
      </trkpt>
      <trkpt lat="41.0447000" lon="0.3980990">
        <ele>350.9</ele>
        <time>2020-08-06T14:31:06Z</time>
      </trkpt>
      <trkpt lat="41.0446520" lon="0.3979860">
        <ele>350.8</ele>
        <time>2020-08-06T14:31:08Z</time>
      </trkpt>
      <trkpt lat="41.0446080" lon="0.3978710">
        <ele>350.8</ele>
        <time>2020-08-06T14:31:10Z</time>
      </trkpt>
      <trkpt lat="41.0445850" lon="0.3978090">
        <ele>350.8</ele>
        <time>2020-08-06T14:31:11Z</time>
      </trkpt>
      <trkpt lat="41.0445460" lon="0.3976870">
        <ele>350.8</ele>
        <time>2020-08-06T14:31:13Z</time>
      </trkpt>
      <trkpt lat="41.0445000" lon="0.3975760">
        <ele>350.8</ele>
        <time>2020-08-06T14:31:15Z</time>
      </trkpt>
      <trkpt lat="41.0444790" lon="0.3975230">
        <ele>350.8</ele>
        <time>2020-08-06T14:31:16Z</time>
      </trkpt>
      <trkpt lat="41.0444620" lon="0.3974690">
        <ele>350.8</ele>
        <time>2020-08-06T14:31:17Z</time>
      </trkpt>
      <trkpt lat="41.0444460" lon="0.3974140">
        <ele>350.8</ele>
        <time>2020-08-06T14:31:18Z</time>
      </trkpt>
      <trkpt lat="41.0444290" lon="0.3973630">
        <ele>350.8</ele>
        <time>2020-08-06T14:31:19Z</time>
      </trkpt>
      <trkpt lat="41.0444080" lon="0.3973130">
        <ele>350.9</ele>
        <time>2020-08-06T14:31:20Z</time>
      </trkpt>
      <trkpt lat="41.0443850" lon="0.3972630">
        <ele>350.9</ele>
        <time>2020-08-06T14:31:21Z</time>
      </trkpt>
      <trkpt lat="41.0443440" lon="0.3971720">
        <ele>350.9</ele>
        <time>2020-08-06T14:31:23Z</time>
      </trkpt>
      <trkpt lat="41.0443240" lon="0.3971240">
        <ele>351.0</ele>
        <time>2020-08-06T14:31:24Z</time>
      </trkpt>
      <trkpt lat="41.0443050" lon="0.3970750">
        <ele>351.1</ele>
        <time>2020-08-06T14:31:25Z</time>
      </trkpt>
      <trkpt lat="41.0442790" lon="0.3969910">
        <ele>351.2</ele>
        <time>2020-08-06T14:31:27Z</time>
      </trkpt>
      <trkpt lat="41.0442630" lon="0.3969460">
        <ele>351.2</ele>
        <time>2020-08-06T14:31:28Z</time>
      </trkpt>
      <trkpt lat="41.0442480" lon="0.3969070">
        <ele>351.3</ele>
        <time>2020-08-06T14:31:29Z</time>
      </trkpt>
      <trkpt lat="41.0442340" lon="0.3968650">
        <ele>351.4</ele>
        <time>2020-08-06T14:31:31Z</time>
      </trkpt>
      <trkpt lat="41.0442150" lon="0.3968180">
        <ele>351.5</ele>
        <time>2020-08-06T14:31:32Z</time>
      </trkpt>
      <trkpt lat="41.0441980" lon="0.3967720">
        <ele>351.6</ele>
        <time>2020-08-06T14:31:33Z</time>
      </trkpt>
      <trkpt lat="41.0441920" lon="0.3967550">
        <ele>351.6</ele>
        <time>2020-08-06T14:31:34Z</time>
      </trkpt>
      <trkpt lat="41.0441650" lon="0.3966810">
        <ele>351.8</ele>
        <time>2020-08-06T14:31:36Z</time>
      </trkpt>
      <trkpt lat="41.0441550" lon="0.3966480">
        <ele>351.9</ele>
        <time>2020-08-06T14:31:37Z</time>
      </trkpt>
      <trkpt lat="41.0441310" lon="0.3965820">
        <ele>352.0</ele>
        <time>2020-08-06T14:31:39Z</time>
      </trkpt>
      <trkpt lat="41.0441160" lon="0.3965370">
        <ele>352.1</ele>
        <time>2020-08-06T14:31:40Z</time>
      </trkpt>
      <trkpt lat="41.0441010" lon="0.3964990">
        <ele>352.2</ele>
        <time>2020-08-06T14:31:42Z</time>
      </trkpt>
      <trkpt lat="41.0440790" lon="0.3964430">
        <ele>352.4</ele>
        <time>2020-08-06T14:31:43Z</time>
      </trkpt>
      <trkpt lat="41.0440670" lon="0.3964130">
        <ele>352.4</ele>
        <time>2020-08-06T14:31:44Z</time>
      </trkpt>
      <trkpt lat="41.0440480" lon="0.3963610">
        <ele>352.6</ele>
        <time>2020-08-06T14:31:46Z</time>
      </trkpt>
      <trkpt lat="41.0440290" lon="0.3963220">
        <ele>352.7</ele>
        <time>2020-08-06T14:31:47Z</time>
      </trkpt>
      <trkpt lat="41.0440170" lon="0.3962920">
        <ele>352.7</ele>
        <time>2020-08-06T14:31:48Z</time>
      </trkpt>
      <trkpt lat="41.0439960" lon="0.3962380">
        <ele>352.9</ele>
        <time>2020-08-06T14:31:50Z</time>
      </trkpt>
      <trkpt lat="41.0439790" lon="0.3961920">
        <ele>353.0</ele>
        <time>2020-08-06T14:31:51Z</time>
      </trkpt>
      <trkpt lat="41.0439730" lon="0.3961780">
        <ele>353.0</ele>
        <time>2020-08-06T14:31:52Z</time>
      </trkpt>
      <trkpt lat="41.0439590" lon="0.3961470">
        <ele>353.1</ele>
        <time>2020-08-06T14:31:53Z</time>
      </trkpt>
      <trkpt lat="41.0439390" lon="0.3960960">
        <ele>353.3</ele>
        <time>2020-08-06T14:31:55Z</time>
      </trkpt>
      <trkpt lat="41.0439300" lon="0.3960660">
        <ele>353.3</ele>
        <time>2020-08-06T14:31:56Z</time>
      </trkpt>
      <trkpt lat="41.0439140" lon="0.3960090">
        <ele>353.5</ele>
        <time>2020-08-06T14:31:58Z</time>
      </trkpt>
      <trkpt lat="41.0439000" lon="0.3959620">
        <ele>353.6</ele>
        <time>2020-08-06T14:32:00Z</time>
      </trkpt>
      <trkpt lat="41.0438850" lon="0.3959260">
        <ele>353.7</ele>
        <time>2020-08-06T14:32:01Z</time>
      </trkpt>
      <trkpt lat="41.0438670" lon="0.3958670">
        <ele>353.9</ele>
        <time>2020-08-06T14:32:03Z</time>
      </trkpt>
      <trkpt lat="41.0438560" lon="0.3958350">
        <ele>354.0</ele>
        <time>2020-08-06T14:32:04Z</time>
      </trkpt>
      <trkpt lat="41.0438350" lon="0.3957770">
        <ele>354.2</ele>
        <time>2020-08-06T14:32:06Z</time>
      </trkpt>
      <trkpt lat="41.0438230" lon="0.3957480">
        <ele>354.3</ele>
        <time>2020-08-06T14:32:07Z</time>
      </trkpt>
      <trkpt lat="41.0438020" lon="0.3956840">
        <ele>354.5</ele>
        <time>2020-08-06T14:32:09Z</time>
      </trkpt>
      <trkpt lat="41.0437890" lon="0.3956500">
        <ele>354.5</ele>
        <time>2020-08-06T14:32:10Z</time>
      </trkpt>
      <trkpt lat="41.0437710" lon="0.3956100">
        <ele>354.7</ele>
        <time>2020-08-06T14:32:11Z</time>
      </trkpt>
      <trkpt lat="41.0437650" lon="0.3955960">
        <ele>354.7</ele>
        <time>2020-08-06T14:32:12Z</time>
      </trkpt>
      <trkpt lat="41.0437430" lon="0.3955330">
        <ele>354.9</ele>
        <time>2020-08-06T14:32:14Z</time>
      </trkpt>
      <trkpt lat="41.0437220" lon="0.3954700">
        <ele>355.1</ele>
        <time>2020-08-06T14:32:16Z</time>
      </trkpt>
      <trkpt lat="41.0437100" lon="0.3954390">
        <ele>355.2</ele>
        <time>2020-08-06T14:32:17Z</time>
      </trkpt>
      <trkpt lat="41.0436970" lon="0.3953730">
        <ele>355.4</ele>
        <time>2020-08-06T14:32:19Z</time>
      </trkpt>
      <trkpt lat="41.0436730" lon="0.3953080">
        <ele>355.6</ele>
        <time>2020-08-06T14:32:21Z</time>
      </trkpt>
      <trkpt lat="41.0436620" lon="0.3952700">
        <ele>355.7</ele>
        <time>2020-08-06T14:32:22Z</time>
      </trkpt>
      <trkpt lat="41.0436560" lon="0.3952370">
        <ele>355.8</ele>
        <time>2020-08-06T14:32:23Z</time>
      </trkpt>
      <trkpt lat="41.0436380" lon="0.3951740">
        <ele>355.9</ele>
        <time>2020-08-06T14:32:25Z</time>
      </trkpt>
      <trkpt lat="41.0436080" lon="0.3951460">
        <ele>356.1</ele>
        <time>2020-08-06T14:32:26Z</time>
      </trkpt>
      <trkpt lat="41.0435980" lon="0.3951380">
        <ele>356.1</ele>
        <time>2020-08-06T14:32:27Z</time>
      </trkpt>
      <trkpt lat="41.0435790" lon="0.3950900">
        <ele>356.3</ele>
        <time>2020-08-06T14:32:29Z</time>
      </trkpt>
      <trkpt lat="41.0435800" lon="0.3950810">
        <ele>356.3</ele>
        <time>2020-08-06T14:32:31Z</time>
      </trkpt>
      <trkpt lat="41.0435810" lon="0.3950710">
        <ele>356.3</ele>
        <time>2020-08-06T14:32:32Z</time>
      </trkpt>
      <trkpt lat="41.0435820" lon="0.3950610">
        <ele>356.3</ele>
        <time>2020-08-06T14:32:33Z</time>
      </trkpt>
      <trkpt lat="41.0435830" lon="0.3950510">
        <ele>356.4</ele>
        <time>2020-08-06T14:32:34Z</time>
      </trkpt>
      <trkpt lat="41.0435840" lon="0.3950420">
        <ele>356.4</ele>
        <time>2020-08-06T14:32:35Z</time>
      </trkpt>
      <trkpt lat="41.0435850" lon="0.3950320">
        <ele>356.4</ele>
        <time>2020-08-06T14:32:37Z</time>
      </trkpt>
      <trkpt lat="41.0435860" lon="0.3950220">
        <ele>356.5</ele>
        <time>2020-08-06T14:32:39Z</time>
      </trkpt>
      <trkpt lat="41.0435870" lon="0.3950120">
        <ele>356.5</ele>
        <time>2020-08-06T14:33:17Z</time>
      </trkpt>
      <trkpt lat="41.0435880" lon="0.3950030">
        <ele>356.5</ele>
        <time>2020-08-06T14:33:18Z</time>
      </trkpt>
      <trkpt lat="41.0435890" lon="0.3949930">
        <ele>356.5</ele>
        <time>2020-08-06T14:33:19Z</time>
      </trkpt>
      <trkpt lat="41.0435860" lon="0.3949420">
        <ele>356.7</ele>
        <time>2020-08-06T14:33:21Z</time>
      </trkpt>
      <trkpt lat="41.0435790" lon="0.3948980">
        <ele>356.8</ele>
        <time>2020-08-06T14:33:22Z</time>
      </trkpt>
      <trkpt lat="41.0435750" lon="0.3948850">
        <ele>356.8</ele>
        <time>2020-08-06T14:33:23Z</time>
      </trkpt>
      <trkpt lat="41.0435940" lon="0.3949160">
        <ele>356.9</ele>
        <time>2020-08-06T14:33:25Z</time>
      </trkpt>
      <trkpt lat="41.0436010" lon="0.3948900">
        <ele>356.9</ele>
        <time>2020-08-06T14:33:26Z</time>
      </trkpt>
      <trkpt lat="41.0435800" lon="0.3948160">
        <ele>357.0</ele>
        <time>2020-08-06T14:33:28Z</time>
      </trkpt>
      <trkpt lat="41.0435670" lon="0.3947690">
        <ele>357.1</ele>
        <time>2020-08-06T14:33:29Z</time>
      </trkpt>
      <trkpt lat="41.0435540" lon="0.3947220">
        <ele>357.2</ele>
        <time>2020-08-06T14:33:31Z</time>
      </trkpt>
      <trkpt lat="41.0435410" lon="0.3946720">
        <ele>357.3</ele>
        <time>2020-08-06T14:33:32Z</time>
      </trkpt>
      <trkpt lat="41.0435290" lon="0.3946190">
        <ele>357.3</ele>
        <time>2020-08-06T14:33:33Z</time>
      </trkpt>
      <trkpt lat="41.0435130" lon="0.3945480">
        <ele>357.4</ele>
        <time>2020-08-06T14:33:35Z</time>
      </trkpt>
      <trkpt lat="41.0435030" lon="0.3945070">
        <ele>357.4</ele>
        <time>2020-08-06T14:33:36Z</time>
      </trkpt>
      <trkpt lat="41.0434850" lon="0.3944380">
        <ele>357.5</ele>
        <time>2020-08-06T14:33:38Z</time>
      </trkpt>
      <trkpt lat="41.0434680" lon="0.3943690">
        <ele>357.6</ele>
        <time>2020-08-06T14:33:39Z</time>
      </trkpt>
      <trkpt lat="41.0434580" lon="0.3943240">
        <ele>357.6</ele>
        <time>2020-08-06T14:33:40Z</time>
      </trkpt>
      <trkpt lat="41.0434380" lon="0.3942450">
        <ele>357.7</ele>
        <time>2020-08-06T14:33:42Z</time>
      </trkpt>
      <trkpt lat="41.0434240" lon="0.3941900">
        <ele>357.7</ele>
        <time>2020-08-06T14:33:43Z</time>
      </trkpt>
      <trkpt lat="41.0433980" lon="0.3940970">
        <ele>357.7</ele>
        <time>2020-08-06T14:33:45Z</time>
      </trkpt>
      <trkpt lat="41.0433860" lon="0.3940510">
        <ele>357.8</ele>
        <time>2020-08-06T14:33:46Z</time>
      </trkpt>
      <trkpt lat="41.0433730" lon="0.3940030">
        <ele>357.8</ele>
        <time>2020-08-06T14:33:47Z</time>
      </trkpt>
      <trkpt lat="41.0433520" lon="0.3939130">
        <ele>357.8</ele>
        <time>2020-08-06T14:33:49Z</time>
      </trkpt>
      <trkpt lat="41.0433280" lon="0.3938320">
        <ele>357.9</ele>
        <time>2020-08-06T14:33:51Z</time>
      </trkpt>
      <trkpt lat="41.0433130" lon="0.3937720">
        <ele>357.9</ele>
        <time>2020-08-06T14:33:52Z</time>
      </trkpt>
      <trkpt lat="41.0433000" lon="0.3937210">
        <ele>357.9</ele>
        <time>2020-08-06T14:33:53Z</time>
      </trkpt>
      <trkpt lat="41.0432730" lon="0.3936270">
        <ele>357.9</ele>
        <time>2020-08-06T14:33:55Z</time>
      </trkpt>
      <trkpt lat="41.0432460" lon="0.3935420">
        <ele>357.9</ele>
        <time>2020-08-06T14:33:57Z</time>
      </trkpt>
      <trkpt lat="41.0432300" lon="0.3934840">
        <ele>357.9</ele>
        <time>2020-08-06T14:33:58Z</time>
      </trkpt>
      <trkpt lat="41.0432190" lon="0.3934310">
        <ele>357.9</ele>
        <time>2020-08-06T14:33:59Z</time>
      </trkpt>
      <trkpt lat="41.0431980" lon="0.3933460">
        <ele>357.9</ele>
        <time>2020-08-06T14:34:01Z</time>
      </trkpt>
      <trkpt lat="41.0431770" lon="0.3932740">
        <ele>357.9</ele>
        <time>2020-08-06T14:34:02Z</time>
      </trkpt>
      <trkpt lat="41.0431640" lon="0.3932210">
        <ele>357.9</ele>
        <time>2020-08-06T14:34:03Z</time>
      </trkpt>
      <trkpt lat="41.0431380" lon="0.3931250">
        <ele>358.0</ele>
        <time>2020-08-06T14:34:05Z</time>
      </trkpt>
      <trkpt lat="41.0431170" lon="0.3930390">
        <ele>358.0</ele>
        <time>2020-08-06T14:34:07Z</time>
      </trkpt>
      <trkpt lat="41.0431010" lon="0.3929770">
        <ele>358.0</ele>
        <time>2020-08-06T14:34:08Z</time>
      </trkpt>
      <trkpt lat="41.0430870" lon="0.3929270">
        <ele>358.0</ele>
        <time>2020-08-06T14:34:09Z</time>
      </trkpt>
      <trkpt lat="41.0430760" lon="0.3928820">
        <ele>358.0</ele>
        <time>2020-08-06T14:34:10Z</time>
      </trkpt>
      <trkpt lat="41.0430510" lon="0.3927850">
        <ele>358.0</ele>
        <time>2020-08-06T14:34:12Z</time>
      </trkpt>
      <trkpt lat="41.0430380" lon="0.3927410">
        <ele>358.1</ele>
        <time>2020-08-06T14:34:13Z</time>
      </trkpt>
      <trkpt lat="41.0430150" lon="0.3926570">
        <ele>358.1</ele>
        <time>2020-08-06T14:34:15Z</time>
      </trkpt>
      <trkpt lat="41.0429960" lon="0.3925930">
        <ele>358.1</ele>
        <time>2020-08-06T14:34:16Z</time>
      </trkpt>
      <trkpt lat="41.0429830" lon="0.3925460">
        <ele>358.2</ele>
        <time>2020-08-06T14:34:17Z</time>
      </trkpt>
      <trkpt lat="41.0429600" lon="0.3924560">
        <ele>358.2</ele>
        <time>2020-08-06T14:34:19Z</time>
      </trkpt>
      <trkpt lat="41.0429380" lon="0.3923740">
        <ele>358.2</ele>
        <time>2020-08-06T14:34:21Z</time>
      </trkpt>
      <trkpt lat="41.0429240" lon="0.3923220">
        <ele>358.2</ele>
        <time>2020-08-06T14:34:22Z</time>
      </trkpt>
      <trkpt lat="41.0429110" lon="0.3922630">
        <ele>358.2</ele>
        <time>2020-08-06T14:34:23Z</time>
      </trkpt>
      <trkpt lat="41.0428860" lon="0.3921820">
        <ele>358.3</ele>
        <time>2020-08-06T14:34:25Z</time>
      </trkpt>
      <trkpt lat="41.0428730" lon="0.3921260">
        <ele>358.3</ele>
        <time>2020-08-06T14:34:26Z</time>
      </trkpt>
      <trkpt lat="41.0428590" lon="0.3920670">
        <ele>358.3</ele>
        <time>2020-08-06T14:34:27Z</time>
      </trkpt>
      <trkpt lat="41.0428480" lon="0.3920220">
        <ele>358.4</ele>
        <time>2020-08-06T14:34:28Z</time>
      </trkpt>
      <trkpt lat="41.0428360" lon="0.3919770">
        <ele>358.4</ele>
        <time>2020-08-06T14:34:29Z</time>
      </trkpt>
      <trkpt lat="41.0428240" lon="0.3919330">
        <ele>358.4</ele>
        <time>2020-08-06T14:34:30Z</time>
      </trkpt>
      <trkpt lat="41.0428030" lon="0.3918380">
        <ele>358.4</ele>
        <time>2020-08-06T14:34:32Z</time>
      </trkpt>
      <trkpt lat="41.0427940" lon="0.3917910">
        <ele>358.4</ele>
        <time>2020-08-06T14:34:33Z</time>
      </trkpt>
      <trkpt lat="41.0427860" lon="0.3917510">
        <ele>358.3</ele>
        <time>2020-08-06T14:34:34Z</time>
      </trkpt>
      <trkpt lat="41.0427740" lon="0.3916970">
        <ele>358.3</ele>
        <time>2020-08-06T14:34:35Z</time>
      </trkpt>
      <trkpt lat="41.0427570" lon="0.3916350">
        <ele>358.3</ele>
        <time>2020-08-06T14:34:37Z</time>
      </trkpt>
      <trkpt lat="41.0427360" lon="0.3915610">
        <ele>358.2</ele>
        <time>2020-08-06T14:34:38Z</time>
      </trkpt>
      <trkpt lat="41.0427120" lon="0.3914730">
        <ele>358.1</ele>
        <time>2020-08-06T14:34:40Z</time>
      </trkpt>
      <trkpt lat="41.0426920" lon="0.3913570">
        <ele>357.9</ele>
        <time>2020-08-06T14:34:41Z</time>
      </trkpt>
      <trkpt lat="41.0426770" lon="0.3912920">
        <ele>357.8</ele>
        <time>2020-08-06T14:34:42Z</time>
      </trkpt>
      <trkpt lat="41.0426560" lon="0.3912280">
        <ele>357.7</ele>
        <time>2020-08-06T14:34:43Z</time>
      </trkpt>
      <trkpt lat="41.0426160" lon="0.3911030">
        <ele>357.5</ele>
        <time>2020-08-06T14:34:45Z</time>
      </trkpt>
      <trkpt lat="41.0426000" lon="0.3910380">
        <ele>357.3</ele>
        <time>2020-08-06T14:34:46Z</time>
      </trkpt>
      <trkpt lat="41.0425750" lon="0.3909720">
        <ele>357.2</ele>
        <time>2020-08-06T14:34:47Z</time>
      </trkpt>
      <trkpt lat="41.0425290" lon="0.3908340">
        <ele>356.8</ele>
        <time>2020-08-06T14:34:49Z</time>
      </trkpt>
      <trkpt lat="41.0425070" lon="0.3907560">
        <ele>356.6</ele>
        <time>2020-08-06T14:34:50Z</time>
      </trkpt>
      <trkpt lat="41.0424820" lon="0.3906800">
        <ele>356.4</ele>
        <time>2020-08-06T14:34:51Z</time>
      </trkpt>
      <trkpt lat="41.0424350" lon="0.3905280">
        <ele>356.0</ele>
        <time>2020-08-06T14:34:53Z</time>
      </trkpt>
      <trkpt lat="41.0424140" lon="0.3904430">
        <ele>355.7</ele>
        <time>2020-08-06T14:34:54Z</time>
      </trkpt>
      <trkpt lat="41.0423910" lon="0.3903570">
        <ele>355.5</ele>
        <time>2020-08-06T14:34:55Z</time>
      </trkpt>
      <trkpt lat="41.0423410" lon="0.3901890">
        <ele>355.1</ele>
        <time>2020-08-06T14:34:57Z</time>
      </trkpt>
      <trkpt lat="41.0423170" lon="0.3901080">
        <ele>354.8</ele>
        <time>2020-08-06T14:34:58Z</time>
      </trkpt>
      <trkpt lat="41.0422660" lon="0.3899360">
        <ele>354.5</ele>
        <time>2020-08-06T14:35:00Z</time>
      </trkpt>
      <trkpt lat="41.0422400" lon="0.3898480">
        <ele>354.3</ele>
        <time>2020-08-06T14:35:01Z</time>
      </trkpt>
      <trkpt lat="41.0422160" lon="0.3897660">
        <ele>354.1</ele>
        <time>2020-08-06T14:35:02Z</time>
      </trkpt>
      <trkpt lat="41.0421900" lon="0.3896860">
        <ele>353.9</ele>
        <time>2020-08-06T14:35:03Z</time>
      </trkpt>
      <trkpt lat="41.0421630" lon="0.3896010">
        <ele>353.6</ele>
        <time>2020-08-06T14:35:04Z</time>
      </trkpt>
      <trkpt lat="41.0421210" lon="0.3894610">
        <ele>353.3</ele>
        <time>2020-08-06T14:35:06Z</time>
      </trkpt>
      <trkpt lat="41.0420990" lon="0.3893850">
        <ele>353.1</ele>
        <time>2020-08-06T14:35:07Z</time>
      </trkpt>
      <trkpt lat="41.0420490" lon="0.3892410">
        <ele>353.0</ele>
        <time>2020-08-06T14:35:09Z</time>
      </trkpt>
      <trkpt lat="41.0419990" lon="0.3890890">
        <ele>353.0</ele>
        <time>2020-08-06T14:35:11Z</time>
      </trkpt>
      <trkpt lat="41.0419760" lon="0.3890130">
        <ele>353.0</ele>
        <time>2020-08-06T14:35:12Z</time>
      </trkpt>
      <trkpt lat="41.0419230" lon="0.3888660">
        <ele>353.1</ele>
        <time>2020-08-06T14:35:14Z</time>
      </trkpt>
      <trkpt lat="41.0418730" lon="0.3887390">
        <ele>353.2</ele>
        <time>2020-08-06T14:35:16Z</time>
      </trkpt>
      <trkpt lat="41.0418450" lon="0.3886730">
        <ele>353.3</ele>
        <time>2020-08-06T14:35:17Z</time>
      </trkpt>
      <trkpt lat="41.0418020" lon="0.3885560">
        <ele>353.4</ele>
        <time>2020-08-06T14:35:19Z</time>
      </trkpt>
      <trkpt lat="41.0417840" lon="0.3885030">
        <ele>353.5</ele>
        <time>2020-08-06T14:35:20Z</time>
      </trkpt>
      <trkpt lat="41.0417650" lon="0.3884480">
        <ele>353.6</ele>
        <time>2020-08-06T14:35:21Z</time>
      </trkpt>
      <trkpt lat="41.0417490" lon="0.3883920">
        <ele>353.7</ele>
        <time>2020-08-06T14:35:22Z</time>
      </trkpt>
      <trkpt lat="41.0417210" lon="0.3883090">
        <ele>353.9</ele>
        <time>2020-08-06T14:35:24Z</time>
      </trkpt>
      <trkpt lat="41.0417030" lon="0.3882620">
        <ele>354.0</ele>
        <time>2020-08-06T14:35:25Z</time>
      </trkpt>
      <trkpt lat="41.0416890" lon="0.3882290">
        <ele>354.1</ele>
        <time>2020-08-06T14:35:26Z</time>
      </trkpt>
      <trkpt lat="41.0416740" lon="0.3882000">
        <ele>354.2</ele>
        <time>2020-08-06T14:35:27Z</time>
      </trkpt>
      <trkpt lat="41.0416590" lon="0.3881340">
        <ele>354.4</ele>
        <time>2020-08-06T14:35:29Z</time>
      </trkpt>
      <trkpt lat="41.0416620" lon="0.3880940">
        <ele>354.4</ele>
        <time>2020-08-06T14:35:30Z</time>
      </trkpt>
      <trkpt lat="41.0416500" lon="0.3880500">
        <ele>354.6</ele>
        <time>2020-08-06T14:35:32Z</time>
      </trkpt>
      <trkpt lat="41.0416400" lon="0.3880110">
        <ele>354.7</ele>
        <time>2020-08-06T14:35:33Z</time>
      </trkpt>
      <trkpt lat="41.0416270" lon="0.3879730">
        <ele>354.7</ele>
        <time>2020-08-06T14:35:34Z</time>
      </trkpt>
      <trkpt lat="41.0416080" lon="0.3879210">
        <ele>354.9</ele>
        <time>2020-08-06T14:35:36Z</time>
      </trkpt>
      <trkpt lat="41.0415910" lon="0.3878730">
        <ele>354.9</ele>
        <time>2020-08-06T14:35:37Z</time>
      </trkpt>
      <trkpt lat="41.0415700" lon="0.3878260">
        <ele>355.0</ele>
        <time>2020-08-06T14:35:38Z</time>
      </trkpt>
      <trkpt lat="41.0415470" lon="0.3877670">
        <ele>355.1</ele>
        <time>2020-08-06T14:35:40Z</time>
      </trkpt>
      <trkpt lat="41.0415270" lon="0.3877210">
        <ele>355.1</ele>
        <time>2020-08-06T14:35:41Z</time>
      </trkpt>
      <trkpt lat="41.0415030" lon="0.3876600">
        <ele>355.1</ele>
        <time>2020-08-06T14:35:43Z</time>
      </trkpt>
      <trkpt lat="41.0414880" lon="0.3876230">
        <ele>355.1</ele>
        <time>2020-08-06T14:35:44Z</time>
      </trkpt>
      <trkpt lat="41.0414720" lon="0.3875830">
        <ele>355.1</ele>
        <time>2020-08-06T14:35:45Z</time>
      </trkpt>
      <trkpt lat="41.0414440" lon="0.3875070">
        <ele>355.0</ele>
        <time>2020-08-06T14:35:47Z</time>
      </trkpt>
      <trkpt lat="41.0414280" lon="0.3874580">
        <ele>354.9</ele>
        <time>2020-08-06T14:35:48Z</time>
      </trkpt>
      <trkpt lat="41.0414080" lon="0.3874020">
        <ele>354.8</ele>
        <time>2020-08-06T14:35:49Z</time>
      </trkpt>
      <trkpt lat="41.0413840" lon="0.3873180">
        <ele>354.6</ele>
        <time>2020-08-06T14:35:51Z</time>
      </trkpt>
      <trkpt lat="41.0413460" lon="0.3872040">
        <ele>354.3</ele>
        <time>2020-08-06T14:35:52Z</time>
      </trkpt>
      <trkpt lat="41.0413250" lon="0.3871350">
        <ele>354.2</ele>
        <time>2020-08-06T14:35:53Z</time>
      </trkpt>
      <trkpt lat="41.0413010" lon="0.3870680">
        <ele>354.0</ele>
        <time>2020-08-06T14:35:54Z</time>
      </trkpt>
      <trkpt lat="41.0412590" lon="0.3869260">
        <ele>353.6</ele>
        <time>2020-08-06T14:35:56Z</time>
      </trkpt>
      <trkpt lat="41.0412370" lon="0.3868530">
        <ele>353.5</ele>
        <time>2020-08-06T14:35:57Z</time>
      </trkpt>
      <trkpt lat="41.0411930" lon="0.3867120">
        <ele>353.3</ele>
        <time>2020-08-06T14:35:59Z</time>
      </trkpt>
      <trkpt lat="41.0411470" lon="0.3865650">
        <ele>353.1</ele>
        <time>2020-08-06T14:36:01Z</time>
      </trkpt>
      <trkpt lat="41.0411250" lon="0.3864900">
        <ele>353.0</ele>
        <time>2020-08-06T14:36:02Z</time>
      </trkpt>
      <trkpt lat="41.0410770" lon="0.3863450">
        <ele>352.9</ele>
        <time>2020-08-06T14:36:04Z</time>
      </trkpt>
      <trkpt lat="41.0410300" lon="0.3862120">
        <ele>352.8</ele>
        <time>2020-08-06T14:36:06Z</time>
      </trkpt>
      <trkpt lat="41.0410040" lon="0.3861430">
        <ele>352.8</ele>
        <time>2020-08-06T14:36:07Z</time>
      </trkpt>
      <trkpt lat="41.0409510" lon="0.3860250">
        <ele>352.7</ele>
        <time>2020-08-06T14:36:09Z</time>
      </trkpt>
      <trkpt lat="41.0408840" lon="0.3859130">
        <ele>352.6</ele>
        <time>2020-08-06T14:36:11Z</time>
      </trkpt>
      <trkpt lat="41.0408470" lon="0.3858640">
        <ele>352.6</ele>
        <time>2020-08-06T14:36:12Z</time>
      </trkpt>
      <trkpt lat="41.0408070" lon="0.3858190">
        <ele>352.5</ele>
        <time>2020-08-06T14:36:13Z</time>
      </trkpt>
      <trkpt lat="41.0407620" lon="0.3857800">
        <ele>352.5</ele>
        <time>2020-08-06T14:36:14Z</time>
      </trkpt>
      <trkpt lat="41.0407160" lon="0.3857520">
        <ele>352.4</ele>
        <time>2020-08-06T14:36:15Z</time>
      </trkpt>
      <trkpt lat="41.0406190" lon="0.3856980">
        <ele>352.3</ele>
        <time>2020-08-06T14:36:17Z</time>
      </trkpt>
      <trkpt lat="41.0405880" lon="0.3856730">
        <ele>352.3</ele>
        <time>2020-08-06T14:36:18Z</time>
      </trkpt>
      <trkpt lat="41.0405110" lon="0.3856280">
        <ele>352.2</ele>
        <time>2020-08-06T14:36:20Z</time>
      </trkpt>
      <trkpt lat="41.0404210" lon="0.3855770">
        <ele>352.1</ele>
        <time>2020-08-06T14:36:22Z</time>
      </trkpt>
      <trkpt lat="41.0403810" lon="0.3855530">
        <ele>352.1</ele>
        <time>2020-08-06T14:36:23Z</time>
      </trkpt>
      <trkpt lat="41.0402930" lon="0.3855010">
        <ele>352.1</ele>
        <time>2020-08-06T14:36:25Z</time>
      </trkpt>
      <trkpt lat="41.0402510" lon="0.3854780">
        <ele>352.1</ele>
        <time>2020-08-06T14:36:26Z</time>
      </trkpt>
      <trkpt lat="41.0401820" lon="0.3854450">
        <ele>352.1</ele>
        <time>2020-08-06T14:36:28Z</time>
      </trkpt>
      <trkpt lat="41.0401450" lon="0.3854190">
        <ele>352.1</ele>
        <time>2020-08-06T14:36:29Z</time>
      </trkpt>
      <trkpt lat="41.0400630" lon="0.3853540">
        <ele>352.1</ele>
        <time>2020-08-06T14:36:31Z</time>
      </trkpt>
      <trkpt lat="41.0400020" lon="0.3853080">
        <ele>352.1</ele>
        <time>2020-08-06T14:36:33Z</time>
      </trkpt>
      <trkpt lat="41.0399640" lon="0.3852710">
        <ele>352.1</ele>
        <time>2020-08-06T14:36:34Z</time>
      </trkpt>
      <trkpt lat="41.0399310" lon="0.3852290">
        <ele>352.1</ele>
        <time>2020-08-06T14:36:35Z</time>
      </trkpt>
      <trkpt lat="41.0398710" lon="0.3851690">
        <ele>352.1</ele>
        <time>2020-08-06T14:36:37Z</time>
      </trkpt>
      <trkpt lat="41.0398290" lon="0.3850980">
        <ele>352.1</ele>
        <time>2020-08-06T14:36:39Z</time>
      </trkpt>
      <trkpt lat="41.0398190" lon="0.3850670">
        <ele>352.1</ele>
        <time>2020-08-06T14:36:40Z</time>
      </trkpt>
      <trkpt lat="41.0397910" lon="0.3850090">
        <ele>352.1</ele>
        <time>2020-08-06T14:36:42Z</time>
      </trkpt>
      <trkpt lat="41.0397680" lon="0.3849710">
        <ele>352.1</ele>
        <time>2020-08-06T14:36:44Z</time>
      </trkpt>
      <trkpt lat="41.0397540" lon="0.3849470">
        <ele>352.1</ele>
        <time>2020-08-06T14:36:45Z</time>
      </trkpt>
      <trkpt lat="41.0397210" lon="0.3848950">
        <ele>352.1</ele>
        <time>2020-08-06T14:36:47Z</time>
      </trkpt>
      <trkpt lat="41.0397010" lon="0.3848570">
        <ele>352.1</ele>
        <time>2020-08-06T14:36:48Z</time>
      </trkpt>
      <trkpt lat="41.0396930" lon="0.3848430">
        <ele>352.1</ele>
        <time>2020-08-06T14:36:49Z</time>
      </trkpt>
      <trkpt lat="41.0396550" lon="0.3847880">
        <ele>352.1</ele>
        <time>2020-08-06T14:36:51Z</time>
      </trkpt>
      <trkpt lat="41.0396160" lon="0.3847360">
        <ele>352.1</ele>
        <time>2020-08-06T14:36:52Z</time>
      </trkpt>
      <trkpt lat="41.0395820" lon="0.3846920">
        <ele>352.1</ele>
        <time>2020-08-06T14:36:54Z</time>
      </trkpt>
      <trkpt lat="41.0395410" lon="0.3846500">
        <ele>352.1</ele>
        <time>2020-08-06T14:36:55Z</time>
      </trkpt>
      <trkpt lat="41.0394940" lon="0.3845930">
        <ele>352.2</ele>
        <time>2020-08-06T14:36:57Z</time>
      </trkpt>
      <trkpt lat="41.0394680" lon="0.3845540">
        <ele>352.2</ele>
        <time>2020-08-06T14:36:58Z</time>
      </trkpt>
      <trkpt lat="41.0394530" lon="0.3845120">
        <ele>352.3</ele>
        <time>2020-08-06T14:37:00Z</time>
      </trkpt>
      <trkpt lat="41.0394390" lon="0.3844780">
        <ele>352.3</ele>
        <time>2020-08-06T14:37:01Z</time>
      </trkpt>
      <trkpt lat="41.0394190" lon="0.3843110">
        <ele>352.5</ele>
        <time>2020-08-06T14:37:02Z</time>
      </trkpt>
      <trkpt lat="41.0394170" lon="0.3841640">
        <ele>352.7</ele>
        <time>2020-08-06T14:37:04Z</time>
      </trkpt>
      <trkpt lat="41.0393680" lon="0.3840450">
        <ele>352.8</ele>
        <time>2020-08-06T14:37:06Z</time>
      </trkpt>
      <trkpt lat="41.0393250" lon="0.3839950">
        <ele>352.9</ele>
        <time>2020-08-06T14:37:08Z</time>
      </trkpt>
      <trkpt lat="41.0393020" lon="0.3839720">
        <ele>352.9</ele>
        <time>2020-08-06T14:37:09Z</time>
      </trkpt>
      <trkpt lat="41.0392660" lon="0.3839230">
        <ele>352.9</ele>
        <time>2020-08-06T14:37:11Z</time>
      </trkpt>
      <trkpt lat="41.0392370" lon="0.3838730">
        <ele>352.9</ele>
        <time>2020-08-06T14:37:13Z</time>
      </trkpt>
      <trkpt lat="41.0392150" lon="0.3838350">
        <ele>352.9</ele>
        <time>2020-08-06T14:37:14Z</time>
      </trkpt>
      <trkpt lat="41.0391950" lon="0.3838010">
        <ele>352.9</ele>
        <time>2020-08-06T14:37:15Z</time>
      </trkpt>
      <trkpt lat="41.0391770" lon="0.3837710">
        <ele>352.9</ele>
        <time>2020-08-06T14:37:16Z</time>
      </trkpt>
      <trkpt lat="41.0391320" lon="0.3836890">
        <ele>352.9</ele>
        <time>2020-08-06T14:37:18Z</time>
      </trkpt>
      <trkpt lat="41.0390750" lon="0.3835920">
        <ele>352.8</ele>
        <time>2020-08-06T14:37:19Z</time>
      </trkpt>
      <trkpt lat="41.0390330" lon="0.3835210">
        <ele>352.8</ele>
        <time>2020-08-06T14:37:20Z</time>
      </trkpt>
      <trkpt lat="41.0389690" lon="0.3834180">
        <ele>352.7</ele>
        <time>2020-08-06T14:37:22Z</time>
      </trkpt>
      <trkpt lat="41.0389410" lon="0.3833680">
        <ele>352.7</ele>
        <time>2020-08-06T14:37:23Z</time>
      </trkpt>
      <trkpt lat="41.0389160" lon="0.3833250">
        <ele>352.7</ele>
        <time>2020-08-06T14:37:24Z</time>
      </trkpt>
      <trkpt lat="41.0388950" lon="0.3832920">
        <ele>352.7</ele>
        <time>2020-08-06T14:37:25Z</time>
      </trkpt>
      <trkpt lat="41.0388730" lon="0.3832560">
        <ele>352.6</ele>
        <time>2020-08-06T14:37:26Z</time>
      </trkpt>
      <trkpt lat="41.0388370" lon="0.3831950">
        <ele>352.6</ele>
        <time>2020-08-06T14:37:28Z</time>
      </trkpt>
      <trkpt lat="41.0388110" lon="0.3831510">
        <ele>352.6</ele>
        <time>2020-08-06T14:37:29Z</time>
      </trkpt>
      <trkpt lat="41.0387890" lon="0.3831190">
        <ele>352.5</ele>
        <time>2020-08-06T14:37:30Z</time>
      </trkpt>
      <trkpt lat="41.0387400" lon="0.3830400">
        <ele>352.4</ele>
        <time>2020-08-06T14:37:32Z</time>
      </trkpt>
      <trkpt lat="41.0387140" lon="0.3830040">
        <ele>352.4</ele>
        <time>2020-08-06T14:37:33Z</time>
      </trkpt>
      <trkpt lat="41.0386770" lon="0.3829400">
        <ele>352.2</ele>
        <time>2020-08-06T14:37:35Z</time>
      </trkpt>
      <trkpt lat="41.0386360" lon="0.3828670">
        <ele>352.1</ele>
        <time>2020-08-06T14:37:37Z</time>
      </trkpt>
      <trkpt lat="41.0385950" lon="0.3827830">
        <ele>351.8</ele>
        <time>2020-08-06T14:37:39Z</time>
      </trkpt>
      <trkpt lat="41.0385710" lon="0.3827400">
        <ele>351.7</ele>
        <time>2020-08-06T14:37:40Z</time>
      </trkpt>
      <trkpt lat="41.0385490" lon="0.3826940">
        <ele>351.5</ele>
        <time>2020-08-06T14:37:41Z</time>
      </trkpt>
      <trkpt lat="41.0385240" lon="0.3826430">
        <ele>351.3</ele>
        <time>2020-08-06T14:37:42Z</time>
      </trkpt>
      <trkpt lat="41.0385030" lon="0.3825740">
        <ele>351.1</ele>
        <time>2020-08-06T14:37:43Z</time>
      </trkpt>
      <trkpt lat="41.0384790" lon="0.3825050">
        <ele>350.8</ele>
        <time>2020-08-06T14:37:44Z</time>
      </trkpt>
      <trkpt lat="41.0384520" lon="0.3824350">
        <ele>350.5</ele>
        <time>2020-08-06T14:37:45Z</time>
      </trkpt>
      <trkpt lat="41.0383970" lon="0.3822970">
        <ele>349.9</ele>
        <time>2020-08-06T14:37:47Z</time>
      </trkpt>
      <trkpt lat="41.0383700" lon="0.3822190">
        <ele>349.6</ele>
        <time>2020-08-06T14:37:48Z</time>
      </trkpt>
      <trkpt lat="41.0383080" lon="0.3820640">
        <ele>348.8</ele>
        <time>2020-08-06T14:37:50Z</time>
      </trkpt>
      <trkpt lat="41.0382760" lon="0.3819820">
        <ele>348.4</ele>
        <time>2020-08-06T14:37:51Z</time>
      </trkpt>
      <trkpt lat="41.0382130" lon="0.3818130">
        <ele>347.6</ele>
        <time>2020-08-06T14:37:53Z</time>
      </trkpt>
      <trkpt lat="41.0381610" lon="0.3816490">
        <ele>346.8</ele>
        <time>2020-08-06T14:37:55Z</time>
      </trkpt>
      <trkpt lat="41.0381290" lon="0.3815560">
        <ele>346.4</ele>
        <time>2020-08-06T14:37:56Z</time>
      </trkpt>
      <trkpt lat="41.0380970" lon="0.3814560">
        <ele>345.9</ele>
        <time>2020-08-06T14:37:57Z</time>
      </trkpt>
      <trkpt lat="41.0380410" lon="0.3812570">
        <ele>344.8</ele>
        <time>2020-08-06T14:37:59Z</time>
      </trkpt>
      <trkpt lat="41.0380150" lon="0.3811590">
        <ele>344.3</ele>
        <time>2020-08-06T14:38:00Z</time>
      </trkpt>
      <trkpt lat="41.0379610" lon="0.3809430">
        <ele>343.4</ele>
        <time>2020-08-06T14:38:02Z</time>
      </trkpt>
      <trkpt lat="41.0379430" lon="0.3808370">
        <ele>342.9</ele>
        <time>2020-08-06T14:38:03Z</time>
      </trkpt>
      <trkpt lat="41.0378920" lon="0.3806060">
        <ele>342.0</ele>
        <time>2020-08-06T14:38:05Z</time>
      </trkpt>
      <trkpt lat="41.0378650" lon="0.3804840">
        <ele>341.6</ele>
        <time>2020-08-06T14:38:06Z</time>
      </trkpt>
      <trkpt lat="41.0378030" lon="0.3802480">
        <ele>341.0</ele>
        <time>2020-08-06T14:38:08Z</time>
      </trkpt>
      <trkpt lat="41.0377440" lon="0.3800000">
        <ele>340.5</ele>
        <time>2020-08-06T14:38:10Z</time>
      </trkpt>
      <trkpt lat="41.0377070" lon="0.3798720">
        <ele>339.9</ele>
        <time>2020-08-06T14:38:11Z</time>
      </trkpt>
      <trkpt lat="41.0376690" lon="0.3797480">
        <ele>339.3</ele>
        <time>2020-08-06T14:38:12Z</time>
      </trkpt>
      <trkpt lat="41.0376300" lon="0.3796330">
        <ele>338.9</ele>
        <time>2020-08-06T14:38:13Z</time>
      </trkpt>
      <trkpt lat="41.0375280" lon="0.3794240">
        <ele>338.1</ele>
        <time>2020-08-06T14:38:15Z</time>
      </trkpt>
      <trkpt lat="41.0374660" lon="0.3793460">
        <ele>338.0</ele>
        <time>2020-08-06T14:38:16Z</time>
      </trkpt>
      <trkpt lat="41.0374010" lon="0.3792770">
        <ele>338.0</ele>
        <time>2020-08-06T14:38:17Z</time>
      </trkpt>
      <trkpt lat="41.0372570" lon="0.3791780">
        <ele>338.1</ele>
        <time>2020-08-06T14:38:19Z</time>
      </trkpt>
      <trkpt lat="41.0371940" lon="0.3791410">
        <ele>338.2</ele>
        <time>2020-08-06T14:38:20Z</time>
      </trkpt>
      <trkpt lat="41.0370680" lon="0.3790750">
        <ele>338.2</ele>
        <time>2020-08-06T14:38:22Z</time>
      </trkpt>
      <trkpt lat="41.0370120" lon="0.3790470">
        <ele>338.2</ele>
        <time>2020-08-06T14:38:23Z</time>
      </trkpt>
      <trkpt lat="41.0369060" lon="0.3789930">
        <ele>338.2</ele>
        <time>2020-08-06T14:38:25Z</time>
      </trkpt>
      <trkpt lat="41.0368560" lon="0.3789740">
        <ele>338.2</ele>
        <time>2020-08-06T14:38:26Z</time>
      </trkpt>
      <trkpt lat="41.0368100" lon="0.3789500">
        <ele>338.2</ele>
        <time>2020-08-06T14:38:27Z</time>
      </trkpt>
      <trkpt lat="41.0367270" lon="0.3789070">
        <ele>338.3</ele>
        <time>2020-08-06T14:38:29Z</time>
      </trkpt>
      <trkpt lat="41.0367000" lon="0.3788890">
        <ele>338.4</ele>
        <time>2020-08-06T14:38:30Z</time>
      </trkpt>
      <trkpt lat="41.0366210" lon="0.3788430">
        <ele>338.6</ele>
        <time>2020-08-06T14:38:32Z</time>
      </trkpt>
      <trkpt lat="41.0365420" lon="0.3788070">
        <ele>338.7</ele>
        <time>2020-08-06T14:38:34Z</time>
      </trkpt>
      <trkpt lat="41.0365000" lon="0.3787910">
        <ele>338.8</ele>
        <time>2020-08-06T14:38:35Z</time>
      </trkpt>
      <trkpt lat="41.0364620" lon="0.3787780">
        <ele>338.9</ele>
        <time>2020-08-06T14:38:36Z</time>
      </trkpt>
      <trkpt lat="41.0364390" lon="0.3788030">
        <ele>339.0</ele>
        <time>2020-08-06T14:38:37Z</time>
      </trkpt>
      <trkpt lat="41.0363800" lon="0.3787880">
        <ele>339.1</ele>
        <time>2020-08-06T14:38:39Z</time>
      </trkpt>
      <trkpt lat="41.0363520" lon="0.3787680">
        <ele>339.2</ele>
        <time>2020-08-06T14:38:40Z</time>
      </trkpt>
      <trkpt lat="41.0363150" lon="0.3787510">
        <ele>339.3</ele>
        <time>2020-08-06T14:38:41Z</time>
      </trkpt>
      <trkpt lat="41.0362580" lon="0.3787180">
        <ele>339.4</ele>
        <time>2020-08-06T14:38:43Z</time>
      </trkpt>
      <trkpt lat="41.0362160" lon="0.3786980">
        <ele>339.5</ele>
        <time>2020-08-06T14:38:44Z</time>
      </trkpt>
      <trkpt lat="41.0361780" lon="0.3786840">
        <ele>339.6</ele>
        <time>2020-08-06T14:38:45Z</time>
      </trkpt>
      <trkpt lat="41.0361260" lon="0.3786740">
        <ele>339.7</ele>
        <time>2020-08-06T14:38:47Z</time>
      </trkpt>
      <trkpt lat="41.0360900" lon="0.3786690">
        <ele>339.8</ele>
        <time>2020-08-06T14:38:48Z</time>
      </trkpt>
      <trkpt lat="41.0360460" lon="0.3786680">
        <ele>340.0</ele>
        <time>2020-08-06T14:38:49Z</time>
      </trkpt>
      <trkpt lat="41.0359910" lon="0.3786670">
        <ele>340.1</ele>
        <time>2020-08-06T14:38:51Z</time>
      </trkpt>
      <trkpt lat="41.0359460" lon="0.3786640">
        <ele>340.3</ele>
        <time>2020-08-06T14:38:52Z</time>
      </trkpt>
      <trkpt lat="41.0359150" lon="0.3786630">
        <ele>340.4</ele>
        <time>2020-08-06T14:38:53Z</time>
      </trkpt>
      <trkpt lat="41.0358550" lon="0.3786620">
        <ele>340.7</ele>
        <time>2020-08-06T14:38:55Z</time>
      </trkpt>
      <trkpt lat="41.0357920" lon="0.3786530">
        <ele>341.0</ele>
        <time>2020-08-06T14:38:57Z</time>
      </trkpt>
      <trkpt lat="41.0357590" lon="0.3786500">
        <ele>341.2</ele>
        <time>2020-08-06T14:38:58Z</time>
      </trkpt>
      <trkpt lat="41.0357040" lon="0.3786430">
        <ele>341.4</ele>
        <time>2020-08-06T14:39:00Z</time>
      </trkpt>
      <trkpt lat="41.0356470" lon="0.3786380">
        <ele>341.7</ele>
        <time>2020-08-06T14:39:02Z</time>
      </trkpt>
      <trkpt lat="41.0356060" lon="0.3786380">
        <ele>341.9</ele>
        <time>2020-08-06T14:39:04Z</time>
      </trkpt>
      <trkpt lat="41.0355660" lon="0.3786420">
        <ele>342.1</ele>
        <time>2020-08-06T14:39:05Z</time>
      </trkpt>
      <trkpt lat="41.0355440" lon="0.3786430">
        <ele>342.2</ele>
        <time>2020-08-06T14:39:06Z</time>
      </trkpt>
      <trkpt lat="41.0355090" lon="0.3786490">
        <ele>342.4</ele>
        <time>2020-08-06T14:39:08Z</time>
      </trkpt>
      <trkpt lat="41.0354740" lon="0.3786610">
        <ele>342.6</ele>
        <time>2020-08-06T14:39:09Z</time>
      </trkpt>
      <trkpt lat="41.0354630" lon="0.3786630">
        <ele>342.6</ele>
        <time>2020-08-06T14:39:10Z</time>
      </trkpt>
      <trkpt lat="41.0354330" lon="0.3786690">
        <ele>342.8</ele>
        <time>2020-08-06T14:39:12Z</time>
      </trkpt>
      <trkpt lat="41.0354240" lon="0.3786680">
        <ele>342.8</ele>
        <time>2020-08-06T14:39:13Z</time>
      </trkpt>
      <trkpt lat="41.0353990" lon="0.3786730">
        <ele>342.9</ele>
        <time>2020-08-06T14:39:15Z</time>
      </trkpt>
      <trkpt lat="41.0353760" lon="0.3786780">
        <ele>343.0</ele>
        <time>2020-08-06T14:39:17Z</time>
      </trkpt>
      <trkpt lat="41.0353640" lon="0.3786780">
        <ele>343.1</ele>
        <time>2020-08-06T14:39:18Z</time>
      </trkpt>
      <trkpt lat="41.0353160" lon="0.3786850">
        <ele>343.3</ele>
        <time>2020-08-06T14:39:19Z</time>
      </trkpt>
      <trkpt lat="41.0352630" lon="0.3786870">
        <ele>343.6</ele>
        <time>2020-08-06T14:39:21Z</time>
      </trkpt>
      <trkpt lat="41.0352110" lon="0.3786720">
        <ele>343.9</ele>
        <time>2020-08-06T14:39:22Z</time>
      </trkpt>
      <trkpt lat="41.0351540" lon="0.3786780">
        <ele>344.2</ele>
        <time>2020-08-06T14:39:24Z</time>
      </trkpt>
      <trkpt lat="41.0351010" lon="0.3786770">
        <ele>344.5</ele>
        <time>2020-08-06T14:39:26Z</time>
      </trkpt>
      <trkpt lat="41.0350600" lon="0.3786800">
        <ele>344.7</ele>
        <time>2020-08-06T14:39:27Z</time>
      </trkpt>
      <trkpt lat="41.0350420" lon="0.3786810">
        <ele>344.8</ele>
        <time>2020-08-06T14:39:28Z</time>
      </trkpt>
      <trkpt lat="41.0350020" lon="0.3786770">
        <ele>345.1</ele>
        <time>2020-08-06T14:39:30Z</time>
      </trkpt>
      <trkpt lat="41.0349690" lon="0.3786800">
        <ele>345.3</ele>
        <time>2020-08-06T14:39:32Z</time>
      </trkpt>
      <trkpt lat="41.0349330" lon="0.3786760">
        <ele>345.6</ele>
        <time>2020-08-06T14:39:34Z</time>
      </trkpt>
      <trkpt lat="41.0349100" lon="0.3786790">
        <ele>345.7</ele>
        <time>2020-08-06T14:39:35Z</time>
      </trkpt>
      <trkpt lat="41.0348870" lon="0.3786740">
        <ele>345.9</ele>
        <time>2020-08-06T14:39:37Z</time>
      </trkpt>
      <trkpt lat="41.0348550" lon="0.3786750">
        <ele>346.1</ele>
        <time>2020-08-06T14:39:38Z</time>
      </trkpt>
      <trkpt lat="41.0348190" lon="0.3786800">
        <ele>346.4</ele>
        <time>2020-08-06T14:39:40Z</time>
      </trkpt>
      <trkpt lat="41.0347890" lon="0.3786810">
        <ele>346.5</ele>
        <time>2020-08-06T14:39:41Z</time>
      </trkpt>
      <trkpt lat="41.0347690" lon="0.3786800">
        <ele>346.7</ele>
        <time>2020-08-06T14:39:42Z</time>
      </trkpt>
      <trkpt lat="41.0347300" lon="0.3786810">
        <ele>346.9</ele>
        <time>2020-08-06T14:39:44Z</time>
      </trkpt>
      <trkpt lat="41.0346980" lon="0.3786810">
        <ele>347.1</ele>
        <time>2020-08-06T14:39:45Z</time>
      </trkpt>
      <trkpt lat="41.0346870" lon="0.3786800">
        <ele>347.2</ele>
        <time>2020-08-06T14:39:46Z</time>
      </trkpt>
      <trkpt lat="41.0346440" lon="0.3786780">
        <ele>347.4</ele>
        <time>2020-08-06T14:39:48Z</time>
      </trkpt>
      <trkpt lat="41.0346190" lon="0.3786780">
        <ele>347.5</ele>
        <time>2020-08-06T14:39:49Z</time>
      </trkpt>
      <trkpt lat="41.0345720" lon="0.3786750">
        <ele>347.7</ele>
        <time>2020-08-06T14:39:51Z</time>
      </trkpt>
      <trkpt lat="41.0345340" lon="0.3786790">
        <ele>347.9</ele>
        <time>2020-08-06T14:39:52Z</time>
      </trkpt>
      <trkpt lat="41.0345220" lon="0.3786810">
        <ele>348.0</ele>
        <time>2020-08-06T14:39:53Z</time>
      </trkpt>
      <trkpt lat="41.0344980" lon="0.3786850">
        <ele>348.1</ele>
        <time>2020-08-06T14:39:54Z</time>
      </trkpt>
      <trkpt lat="41.0344630" lon="0.3786880">
        <ele>348.3</ele>
        <time>2020-08-06T14:39:56Z</time>
      </trkpt>
      <trkpt lat="41.0344350" lon="0.3786790">
        <ele>348.4</ele>
        <time>2020-08-06T14:39:57Z</time>
      </trkpt>
      <trkpt lat="41.0344130" lon="0.3786740">
        <ele>348.5</ele>
        <time>2020-08-06T14:39:58Z</time>
      </trkpt>
      <trkpt lat="41.0343650" lon="0.3786690">
        <ele>348.8</ele>
        <time>2020-08-06T14:40:00Z</time>
      </trkpt>
      <trkpt lat="41.0343410" lon="0.3786650">
        <ele>348.9</ele>
        <time>2020-08-06T14:40:01Z</time>
      </trkpt>
      <trkpt lat="41.0343070" lon="0.3786550">
        <ele>349.1</ele>
        <time>2020-08-06T14:40:03Z</time>
      </trkpt>
      <trkpt lat="41.0342780" lon="0.3786370">
        <ele>349.3</ele>
        <time>2020-08-06T14:40:04Z</time>
      </trkpt>
      <trkpt lat="41.0342610" lon="0.3786300">
        <ele>349.4</ele>
        <time>2020-08-06T14:40:05Z</time>
      </trkpt>
      <trkpt lat="41.0342360" lon="0.3786180">
        <ele>349.5</ele>
        <time>2020-08-06T14:40:07Z</time>
      </trkpt>
      <trkpt lat="41.0342220" lon="0.3786140">
        <ele>349.6</ele>
        <time>2020-08-06T14:40:08Z</time>
      </trkpt>
      <trkpt lat="41.0341930" lon="0.3786110">
        <ele>349.7</ele>
        <time>2020-08-06T14:40:10Z</time>
      </trkpt>
      <trkpt lat="41.0341600" lon="0.3786270">
        <ele>349.9</ele>
        <time>2020-08-06T14:40:12Z</time>
      </trkpt>
      <trkpt lat="41.0341470" lon="0.3786330">
        <ele>350.0</ele>
        <time>2020-08-06T14:40:13Z</time>
      </trkpt>
      <trkpt lat="41.0341170" lon="0.3786580">
        <ele>350.2</ele>
        <time>2020-08-06T14:40:15Z</time>
      </trkpt>
      <trkpt lat="41.0340920" lon="0.3786820">
        <ele>350.3</ele>
        <time>2020-08-06T14:40:16Z</time>
      </trkpt>
      <trkpt lat="41.0340670" lon="0.3787100">
        <ele>350.5</ele>
        <time>2020-08-06T14:40:17Z</time>
      </trkpt>
      <trkpt lat="41.0340600" lon="0.3787190">
        <ele>350.5</ele>
        <time>2020-08-06T14:40:18Z</time>
      </trkpt>
      <trkpt lat="41.0340520" lon="0.3787330">
        <ele>350.5</ele>
        <time>2020-08-06T14:40:19Z</time>
      </trkpt>
      <trkpt lat="41.0340440" lon="0.3787470">
        <ele>350.6</ele>
        <time>2020-08-06T14:40:20Z</time>
      </trkpt>
      <trkpt lat="41.0340320" lon="0.3787750">
        <ele>350.7</ele>
        <time>2020-08-06T14:40:22Z</time>
      </trkpt>
      <trkpt lat="41.0340140" lon="0.3788070">
        <ele>350.8</ele>
        <time>2020-08-06T14:40:23Z</time>
      </trkpt>
      <trkpt lat="41.0339970" lon="0.3788360">
        <ele>350.8</ele>
        <time>2020-08-06T14:40:25Z</time>
      </trkpt>
      <trkpt lat="41.0339850" lon="0.3788570">
        <ele>350.8</ele>
        <time>2020-08-06T14:40:26Z</time>
      </trkpt>
      <trkpt lat="41.0339620" lon="0.3788930">
        <ele>350.9</ele>
        <time>2020-08-06T14:40:28Z</time>
      </trkpt>
      <trkpt lat="41.0339360" lon="0.3789340">
        <ele>350.9</ele>
        <time>2020-08-06T14:40:30Z</time>
      </trkpt>
      <trkpt lat="41.0339110" lon="0.3789710">
        <ele>350.9</ele>
        <time>2020-08-06T14:40:31Z</time>
      </trkpt>
      <trkpt lat="41.0339020" lon="0.3789820">
        <ele>350.9</ele>
        <time>2020-08-06T14:40:32Z</time>
      </trkpt>
      <trkpt lat="41.0338590" lon="0.3790390">
        <ele>350.8</ele>
        <time>2020-08-06T14:40:34Z</time>
      </trkpt>
      <trkpt lat="41.0338200" lon="0.3790980">
        <ele>350.8</ele>
        <time>2020-08-06T14:40:35Z</time>
      </trkpt>
      <trkpt lat="41.0337760" lon="0.3791650">
        <ele>350.6</ele>
        <time>2020-08-06T14:40:36Z</time>
      </trkpt>
      <trkpt lat="41.0337210" lon="0.3792520">
        <ele>350.4</ele>
        <time>2020-08-06T14:40:38Z</time>
      </trkpt>
      <trkpt lat="41.0336790" lon="0.3793170">
        <ele>350.2</ele>
        <time>2020-08-06T14:40:40Z</time>
      </trkpt>
      <trkpt lat="41.0336530" lon="0.3793580">
        <ele>350.1</ele>
        <time>2020-08-06T14:40:41Z</time>
      </trkpt>
      <trkpt lat="41.0336280" lon="0.3793940">
        <ele>350.0</ele>
        <time>2020-08-06T14:40:42Z</time>
      </trkpt>
      <trkpt lat="41.0335990" lon="0.3794290">
        <ele>349.8</ele>
        <time>2020-08-06T14:40:43Z</time>
      </trkpt>
      <trkpt lat="41.0335660" lon="0.3794640">
        <ele>349.7</ele>
        <time>2020-08-06T14:40:44Z</time>
      </trkpt>
      <trkpt lat="41.0335140" lon="0.3795120">
        <ele>349.4</ele>
        <time>2020-08-06T14:40:46Z</time>
      </trkpt>
      <trkpt lat="41.0334810" lon="0.3795460">
        <ele>349.3</ele>
        <time>2020-08-06T14:40:47Z</time>
      </trkpt>
      <trkpt lat="41.0334410" lon="0.3795820">
        <ele>349.1</ele>
        <time>2020-08-06T14:40:49Z</time>
      </trkpt>
      <trkpt lat="41.0334100" lon="0.3796100">
        <ele>349.0</ele>
        <time>2020-08-06T14:40:50Z</time>
      </trkpt>
      <trkpt lat="41.0333750" lon="0.3796410">
        <ele>348.8</ele>
        <time>2020-08-06T14:40:51Z</time>
      </trkpt>
      <trkpt lat="41.0333510" lon="0.3796660">
        <ele>348.7</ele>
        <time>2020-08-06T14:40:52Z</time>
      </trkpt>
      <trkpt lat="41.0332980" lon="0.3797120">
        <ele>348.5</ele>
        <time>2020-08-06T14:40:54Z</time>
      </trkpt>
      <trkpt lat="41.0332620" lon="0.3797430">
        <ele>348.3</ele>
        <time>2020-08-06T14:40:55Z</time>
      </trkpt>
      <trkpt lat="41.0332290" lon="0.3797720">
        <ele>348.2</ele>
        <time>2020-08-06T14:40:57Z</time>
      </trkpt>
      <trkpt lat="41.0331830" lon="0.3798110">
        <ele>348.0</ele>
        <time>2020-08-06T14:40:58Z</time>
      </trkpt>
      <trkpt lat="41.0331430" lon="0.3798470">
        <ele>347.9</ele>
        <time>2020-08-06T14:40:59Z</time>
      </trkpt>
      <trkpt lat="41.0331100" lon="0.3798730">
        <ele>347.7</ele>
        <time>2020-08-06T14:41:00Z</time>
      </trkpt>
      <trkpt lat="41.0330440" lon="0.3799260">
        <ele>347.5</ele>
        <time>2020-08-06T14:41:02Z</time>
      </trkpt>
      <trkpt lat="41.0330000" lon="0.3799620">
        <ele>347.3</ele>
        <time>2020-08-06T14:41:03Z</time>
      </trkpt>
      <trkpt lat="41.0329210" lon="0.3800100">
        <ele>346.9</ele>
        <time>2020-08-06T14:41:05Z</time>
      </trkpt>
      <trkpt lat="41.0328830" lon="0.3800430">
        <ele>346.7</ele>
        <time>2020-08-06T14:41:06Z</time>
      </trkpt>
      <trkpt lat="41.0327770" lon="0.3801100">
        <ele>346.0</ele>
        <time>2020-08-06T14:41:08Z</time>
      </trkpt>
      <trkpt lat="41.0327330" lon="0.3801390">
        <ele>345.8</ele>
        <time>2020-08-06T14:41:09Z</time>
      </trkpt>
      <trkpt lat="41.0326470" lon="0.3802080">
        <ele>345.3</ele>
        <time>2020-08-06T14:41:11Z</time>
      </trkpt>
      <trkpt lat="41.0325610" lon="0.3802710">
        <ele>344.9</ele>
        <time>2020-08-06T14:41:13Z</time>
      </trkpt>
      <trkpt lat="41.0325420" lon="0.3802890">
        <ele>344.8</ele>
        <time>2020-08-06T14:41:14Z</time>
      </trkpt>
      <trkpt lat="41.0325540" lon="0.3803110">
        <ele>344.7</ele>
        <time>2020-08-06T14:41:15Z</time>
      </trkpt>
      <trkpt lat="41.0324930" lon="0.3803290">
        <ele>344.4</ele>
        <time>2020-08-06T14:41:17Z</time>
      </trkpt>
      <trkpt lat="41.0324840" lon="0.3803260">
        <ele>344.4</ele>
        <time>2020-08-06T14:41:18Z</time>
      </trkpt>
      <trkpt lat="41.0324850" lon="0.3803210">
        <ele>344.4</ele>
        <time>2020-08-06T14:41:19Z</time>
      </trkpt>
      <trkpt lat="41.0324850" lon="0.3803160">
        <ele>344.4</ele>
        <time>2020-08-06T14:41:20Z</time>
      </trkpt>
      <trkpt lat="41.0324840" lon="0.3803080">
        <ele>344.3</ele>
        <time>2020-08-06T14:41:22Z</time>
      </trkpt>
      <trkpt lat="41.0324850" lon="0.3803090">
        <ele>344.3</ele>
        <time>2020-08-06T14:41:23Z</time>
      </trkpt>
      <trkpt lat="41.0324860" lon="0.3803090">
        <ele>344.3</ele>
        <time>2020-08-06T14:41:24Z</time>
      </trkpt>
      <trkpt lat="41.0324870" lon="0.3803100">
        <ele>344.3</ele>
        <time>2020-08-06T14:41:26Z</time>
      </trkpt>
      <trkpt lat="41.0324870" lon="0.3803120">
        <ele>344.3</ele>
        <time>2020-08-06T14:41:28Z</time>
      </trkpt>
      <trkpt lat="41.0324230" lon="0.3803140">
        <ele>344.0</ele>
        <time>2020-08-06T14:42:06Z</time>
      </trkpt>
      <trkpt lat="41.0323890" lon="0.3803290">
        <ele>343.8</ele>
        <time>2020-08-06T14:42:08Z</time>
      </trkpt>
      <trkpt lat="41.0323720" lon="0.3803400">
        <ele>343.7</ele>
        <time>2020-08-06T14:42:09Z</time>
      </trkpt>
      <trkpt lat="41.0323410" lon="0.3803600">
        <ele>343.6</ele>
        <time>2020-08-06T14:42:11Z</time>
      </trkpt>
      <trkpt lat="41.0322970" lon="0.3803790">
        <ele>343.4</ele>
        <time>2020-08-06T14:42:12Z</time>
      </trkpt>
      <trkpt lat="41.0322360" lon="0.3804100">
        <ele>343.0</ele>
        <time>2020-08-06T14:42:13Z</time>
      </trkpt>
      <trkpt lat="41.0321740" lon="0.3804410">
        <ele>342.7</ele>
        <time>2020-08-06T14:42:14Z</time>
      </trkpt>
      <trkpt lat="41.0321190" lon="0.3804650">
        <ele>342.5</ele>
        <time>2020-08-06T14:42:15Z</time>
      </trkpt>
      <trkpt lat="41.0319720" lon="0.3805290">
        <ele>342.0</ele>
        <time>2020-08-06T14:42:17Z</time>
      </trkpt>
      <trkpt lat="41.0318530" lon="0.3805690">
        <ele>341.6</ele>
        <time>2020-08-06T14:42:19Z</time>
      </trkpt>
      <trkpt lat="41.0317560" lon="0.3805950">
        <ele>341.3</ele>
        <time>2020-08-06T14:42:21Z</time>
      </trkpt>
      <trkpt lat="41.0317020" lon="0.3806050">
        <ele>341.2</ele>
        <time>2020-08-06T14:42:22Z</time>
      </trkpt>
      <trkpt lat="41.0316040" lon="0.3806190">
        <ele>341.0</ele>
        <time>2020-08-06T14:42:24Z</time>
      </trkpt>
      <trkpt lat="41.0315530" lon="0.3806250">
        <ele>340.9</ele>
        <time>2020-08-06T14:42:25Z</time>
      </trkpt>
      <trkpt lat="41.0315080" lon="0.3806250">
        <ele>340.8</ele>
        <time>2020-08-06T14:42:26Z</time>
      </trkpt>
      <trkpt lat="41.0314200" lon="0.3806380">
        <ele>340.7</ele>
        <time>2020-08-06T14:42:28Z</time>
      </trkpt>
      <trkpt lat="41.0313810" lon="0.3806560">
        <ele>340.6</ele>
        <time>2020-08-06T14:42:29Z</time>
      </trkpt>
      <trkpt lat="41.0313380" lon="0.3806720">
        <ele>340.6</ele>
        <time>2020-08-06T14:42:30Z</time>
      </trkpt>
      <trkpt lat="41.0312480" lon="0.3807020">
        <ele>340.5</ele>
        <time>2020-08-06T14:42:32Z</time>
      </trkpt>
      <trkpt lat="41.0312000" lon="0.3807080">
        <ele>340.4</ele>
        <time>2020-08-06T14:42:33Z</time>
      </trkpt>
      <trkpt lat="41.0311500" lon="0.3807170">
        <ele>340.4</ele>
        <time>2020-08-06T14:42:34Z</time>
      </trkpt>
      <trkpt lat="41.0310470" lon="0.3807220">
        <ele>340.3</ele>
        <time>2020-08-06T14:42:36Z</time>
      </trkpt>
      <trkpt lat="41.0309980" lon="0.3807280">
        <ele>340.3</ele>
        <time>2020-08-06T14:42:37Z</time>
      </trkpt>
      <trkpt lat="41.0309050" lon="0.3807550">
        <ele>340.2</ele>
        <time>2020-08-06T14:42:39Z</time>
      </trkpt>
      <trkpt lat="41.0308570" lon="0.3807700">
        <ele>340.2</ele>
        <time>2020-08-06T14:42:40Z</time>
      </trkpt>
      <trkpt lat="41.0307820" lon="0.3807900">
        <ele>340.3</ele>
        <time>2020-08-06T14:42:42Z</time>
      </trkpt>
      <trkpt lat="41.0307270" lon="0.3807970">
        <ele>340.3</ele>
        <time>2020-08-06T14:42:44Z</time>
      </trkpt>
      <trkpt lat="41.0306730" lon="0.3808080">
        <ele>340.4</ele>
        <time>2020-08-06T14:42:45Z</time>
      </trkpt>
      <trkpt lat="41.0306300" lon="0.3808080">
        <ele>340.4</ele>
        <time>2020-08-06T14:42:46Z</time>
      </trkpt>
      <trkpt lat="41.0305720" lon="0.3808110">
        <ele>340.4</ele>
        <time>2020-08-06T14:42:48Z</time>
      </trkpt>
      <trkpt lat="41.0305040" lon="0.3808110">
        <ele>340.4</ele>
        <time>2020-08-06T14:42:49Z</time>
      </trkpt>
      <trkpt lat="41.0304380" lon="0.3808070">
        <ele>340.4</ele>
        <time>2020-08-06T14:42:51Z</time>
      </trkpt>
      <trkpt lat="41.0303910" lon="0.3808000">
        <ele>340.4</ele>
        <time>2020-08-06T14:42:52Z</time>
      </trkpt>
      <trkpt lat="41.0303500" lon="0.3807870">
        <ele>340.3</ele>
        <time>2020-08-06T14:42:53Z</time>
      </trkpt>
      <trkpt lat="41.0303060" lon="0.3807790">
        <ele>340.3</ele>
        <time>2020-08-06T14:42:54Z</time>
      </trkpt>
      <trkpt lat="41.0302650" lon="0.3807720">
        <ele>340.4</ele>
        <time>2020-08-06T14:42:56Z</time>
      </trkpt>
      <trkpt lat="41.0302250" lon="0.3807630">
        <ele>340.4</ele>
        <time>2020-08-06T14:42:57Z</time>
      </trkpt>
      <trkpt lat="41.0301800" lon="0.3807490">
        <ele>340.4</ele>
        <time>2020-08-06T14:42:58Z</time>
      </trkpt>
      <trkpt lat="41.0301490" lon="0.3807400">
        <ele>340.4</ele>
        <time>2020-08-06T14:42:59Z</time>
      </trkpt>
      <trkpt lat="41.0300950" lon="0.3807160">
        <ele>340.4</ele>
        <time>2020-08-06T14:43:01Z</time>
      </trkpt>
      <trkpt lat="41.0300570" lon="0.3807030">
        <ele>340.4</ele>
        <time>2020-08-06T14:43:02Z</time>
      </trkpt>
      <trkpt lat="41.0300210" lon="0.3806890">
        <ele>340.4</ele>
        <time>2020-08-06T14:43:03Z</time>
      </trkpt>
      <trkpt lat="41.0299790" lon="0.3806760">
        <ele>340.4</ele>
        <time>2020-08-06T14:43:04Z</time>
      </trkpt>
      <trkpt lat="41.0299100" lon="0.3806530">
        <ele>340.5</ele>
        <time>2020-08-06T14:43:06Z</time>
      </trkpt>
      <trkpt lat="41.0298710" lon="0.3806380">
        <ele>340.5</ele>
        <time>2020-08-06T14:43:07Z</time>
      </trkpt>
      <trkpt lat="41.0297980" lon="0.3806160">
        <ele>340.5</ele>
        <time>2020-08-06T14:43:09Z</time>
      </trkpt>
      <trkpt lat="41.0297590" lon="0.3806060">
        <ele>340.5</ele>
        <time>2020-08-06T14:43:10Z</time>
      </trkpt>
      <trkpt lat="41.0297220" lon="0.3805960">
        <ele>340.5</ele>
        <time>2020-08-06T14:43:11Z</time>
      </trkpt>
      <trkpt lat="41.0296540" lon="0.3805720">
        <ele>340.6</ele>
        <time>2020-08-06T14:43:13Z</time>
      </trkpt>
      <trkpt lat="41.0296070" lon="0.3805550">
        <ele>340.6</ele>
        <time>2020-08-06T14:43:14Z</time>
      </trkpt>
      <trkpt lat="41.0295360" lon="0.3805340">
        <ele>340.6</ele>
        <time>2020-08-06T14:43:16Z</time>
      </trkpt>
      <trkpt lat="41.0294910" lon="0.3805200">
        <ele>340.6</ele>
        <time>2020-08-06T14:43:17Z</time>
      </trkpt>
      <trkpt lat="41.0294170" lon="0.3805020">
        <ele>340.7</ele>
        <time>2020-08-06T14:43:19Z</time>
      </trkpt>
      <trkpt lat="41.0293590" lon="0.3804840">
        <ele>340.7</ele>
        <time>2020-08-06T14:43:21Z</time>
      </trkpt>
      <trkpt lat="41.0293090" lon="0.3804690">
        <ele>340.7</ele>
        <time>2020-08-06T14:43:22Z</time>
      </trkpt>
      <trkpt lat="41.0292690" lon="0.3804590">
        <ele>340.7</ele>
        <time>2020-08-06T14:43:23Z</time>
      </trkpt>
      <trkpt lat="41.0292110" lon="0.3804420">
        <ele>340.7</ele>
        <time>2020-08-06T14:43:25Z</time>
      </trkpt>
      <trkpt lat="41.0291670" lon="0.3804320">
        <ele>340.7</ele>
        <time>2020-08-06T14:43:26Z</time>
      </trkpt>
      <trkpt lat="41.0291250" lon="0.3804230">
        <ele>340.7</ele>
        <time>2020-08-06T14:43:27Z</time>
      </trkpt>
      <trkpt lat="41.0290840" lon="0.3804140">
        <ele>340.7</ele>
        <time>2020-08-06T14:43:28Z</time>
      </trkpt>
      <trkpt lat="41.0290330" lon="0.3803980">
        <ele>340.7</ele>
        <time>2020-08-06T14:43:30Z</time>
      </trkpt>
      <trkpt lat="41.0289880" lon="0.3803840">
        <ele>340.7</ele>
        <time>2020-08-06T14:43:31Z</time>
      </trkpt>
      <trkpt lat="41.0289460" lon="0.3803700">
        <ele>340.7</ele>
        <time>2020-08-06T14:43:32Z</time>
      </trkpt>
      <trkpt lat="41.0289070" lon="0.3803600">
        <ele>340.7</ele>
        <time>2020-08-06T14:43:33Z</time>
      </trkpt>
      <trkpt lat="41.0288620" lon="0.3803490">
        <ele>340.6</ele>
        <time>2020-08-06T14:43:34Z</time>
      </trkpt>
      <trkpt lat="41.0288280" lon="0.3803370">
        <ele>340.6</ele>
        <time>2020-08-06T14:43:35Z</time>
      </trkpt>
      <trkpt lat="41.0287660" lon="0.3803160">
        <ele>340.5</ele>
        <time>2020-08-06T14:43:37Z</time>
      </trkpt>
      <trkpt lat="41.0286960" lon="0.3802860">
        <ele>340.4</ele>
        <time>2020-08-06T14:43:39Z</time>
      </trkpt>
      <trkpt lat="41.0286250" lon="0.3802600">
        <ele>340.2</ele>
        <time>2020-08-06T14:43:41Z</time>
      </trkpt>
      <trkpt lat="41.0285670" lon="0.3802390">
        <ele>340.1</ele>
        <time>2020-08-06T14:43:43Z</time>
      </trkpt>
      <trkpt lat="41.0285090" lon="0.3802190">
        <ele>339.9</ele>
        <time>2020-08-06T14:43:44Z</time>
      </trkpt>
      <trkpt lat="41.0284460" lon="0.3802000">
        <ele>339.7</ele>
        <time>2020-08-06T14:43:46Z</time>
      </trkpt>
      <trkpt lat="41.0283860" lon="0.3801800">
        <ele>339.5</ele>
        <time>2020-08-06T14:43:47Z</time>
      </trkpt>
      <trkpt lat="41.0283390" lon="0.3801630">
        <ele>339.3</ele>
        <time>2020-08-06T14:43:48Z</time>
      </trkpt>
      <trkpt lat="41.0282800" lon="0.3801430">
        <ele>339.0</ele>
        <time>2020-08-06T14:43:49Z</time>
      </trkpt>
      <trkpt lat="41.0282240" lon="0.3801180">
        <ele>338.8</ele>
        <time>2020-08-06T14:43:50Z</time>
      </trkpt>
      <trkpt lat="41.0281000" lon="0.3800550">
        <ele>338.2</ele>
        <time>2020-08-06T14:43:52Z</time>
      </trkpt>
      <trkpt lat="41.0280410" lon="0.3800230">
        <ele>337.8</ele>
        <time>2020-08-06T14:43:53Z</time>
      </trkpt>
      <trkpt lat="41.0279320" lon="0.3799920">
        <ele>337.2</ele>
        <time>2020-08-06T14:43:55Z</time>
      </trkpt>
      <trkpt lat="41.0278710" lon="0.3799790">
        <ele>336.9</ele>
        <time>2020-08-06T14:43:56Z</time>
      </trkpt>
      <trkpt lat="41.0278110" lon="0.3799580">
        <ele>336.5</ele>
        <time>2020-08-06T14:43:57Z</time>
      </trkpt>
      <trkpt lat="41.0277520" lon="0.3799340">
        <ele>336.2</ele>
        <time>2020-08-06T14:43:58Z</time>
      </trkpt>
      <trkpt lat="41.0276280" lon="0.3798750">
        <ele>335.4</ele>
        <time>2020-08-06T14:44:00Z</time>
      </trkpt>
      <trkpt lat="41.0274870" lon="0.3798200">
        <ele>334.6</ele>
        <time>2020-08-06T14:44:02Z</time>
      </trkpt>
      <trkpt lat="41.0274170" lon="0.3797960">
        <ele>334.2</ele>
        <time>2020-08-06T14:44:03Z</time>
      </trkpt>
      <trkpt lat="41.0272690" lon="0.3797170">
        <ele>333.5</ele>
        <time>2020-08-06T14:44:05Z</time>
      </trkpt>
      <trkpt lat="41.0271220" lon="0.3796500">
        <ele>332.6</ele>
        <time>2020-08-06T14:44:07Z</time>
      </trkpt>
      <trkpt lat="41.0270450" lon="0.3796160">
        <ele>332.2</ele>
        <time>2020-08-06T14:44:08Z</time>
      </trkpt>
      <trkpt lat="41.0269640" lon="0.3795780">
        <ele>331.7</ele>
        <time>2020-08-06T14:44:09Z</time>
      </trkpt>
      <trkpt lat="41.0268830" lon="0.3795470">
        <ele>331.2</ele>
        <time>2020-08-06T14:44:10Z</time>
      </trkpt>
      <trkpt lat="41.0267160" lon="0.3794790">
        <ele>330.1</ele>
        <time>2020-08-06T14:44:12Z</time>
      </trkpt>
      <trkpt lat="41.0266220" lon="0.3794480">
        <ele>329.6</ele>
        <time>2020-08-06T14:44:13Z</time>
      </trkpt>
      <trkpt lat="41.0264540" lon="0.3794360">
        <ele>328.6</ele>
        <time>2020-08-06T14:44:15Z</time>
      </trkpt>
      <trkpt lat="41.0263690" lon="0.3794570">
        <ele>328.1</ele>
        <time>2020-08-06T14:44:16Z</time>
      </trkpt>
      <trkpt lat="41.0262910" lon="0.3794800">
        <ele>327.6</ele>
        <time>2020-08-06T14:44:17Z</time>
      </trkpt>
      <trkpt lat="41.0261400" lon="0.3795710">
        <ele>326.7</ele>
        <time>2020-08-06T14:44:19Z</time>
      </trkpt>
      <trkpt lat="41.0259950" lon="0.3796900">
        <ele>325.7</ele>
        <time>2020-08-06T14:44:21Z</time>
      </trkpt>
      <trkpt lat="41.0259220" lon="0.3797530">
        <ele>325.2</ele>
        <time>2020-08-06T14:44:22Z</time>
      </trkpt>
      <trkpt lat="41.0257700" lon="0.3798640">
        <ele>324.2</ele>
        <time>2020-08-06T14:44:24Z</time>
      </trkpt>
      <trkpt lat="41.0256240" lon="0.3799800">
        <ele>323.2</ele>
        <time>2020-08-06T14:44:26Z</time>
      </trkpt>
      <trkpt lat="41.0255490" lon="0.3800310">
        <ele>322.7</ele>
        <time>2020-08-06T14:44:27Z</time>
      </trkpt>
      <trkpt lat="41.0254780" lon="0.3800860">
        <ele>322.2</ele>
        <time>2020-08-06T14:44:28Z</time>
      </trkpt>
      <trkpt lat="41.0253440" lon="0.3801770">
        <ele>321.2</ele>
        <time>2020-08-06T14:44:30Z</time>
      </trkpt>
      <trkpt lat="41.0252000" lon="0.3802880">
        <ele>320.2</ele>
        <time>2020-08-06T14:44:32Z</time>
      </trkpt>
      <trkpt lat="41.0251180" lon="0.3803420">
        <ele>319.7</ele>
        <time>2020-08-06T14:44:33Z</time>
      </trkpt>
      <trkpt lat="41.0250410" lon="0.3803950">
        <ele>319.1</ele>
        <time>2020-08-06T14:44:34Z</time>
      </trkpt>
      <trkpt lat="41.0248690" lon="0.3804770">
        <ele>317.8</ele>
        <time>2020-08-06T14:44:36Z</time>
      </trkpt>
      <trkpt lat="41.0246790" lon="0.3805460">
        <ele>316.7</ele>
        <time>2020-08-06T14:44:38Z</time>
      </trkpt>
      <trkpt lat="41.0244990" lon="0.3806360">
        <ele>315.5</ele>
        <time>2020-08-06T14:44:40Z</time>
      </trkpt>
      <trkpt lat="41.0244090" lon="0.3806790">
        <ele>314.9</ele>
        <time>2020-08-06T14:44:41Z</time>
      </trkpt>
      <trkpt lat="41.0242350" lon="0.3807560">
        <ele>313.9</ele>
        <time>2020-08-06T14:44:43Z</time>
      </trkpt>
      <trkpt lat="41.0241500" lon="0.3807930">
        <ele>313.4</ele>
        <time>2020-08-06T14:44:44Z</time>
      </trkpt>
      <trkpt lat="41.0239750" lon="0.3808660">
        <ele>312.3</ele>
        <time>2020-08-06T14:44:46Z</time>
      </trkpt>
      <trkpt lat="41.0238850" lon="0.3809010">
        <ele>311.8</ele>
        <time>2020-08-06T14:44:47Z</time>
      </trkpt>
      <trkpt lat="41.0237960" lon="0.3809420">
        <ele>311.2</ele>
        <time>2020-08-06T14:44:48Z</time>
      </trkpt>
      <trkpt lat="41.0236150" lon="0.3810180">
        <ele>310.1</ele>
        <time>2020-08-06T14:44:50Z</time>
      </trkpt>
      <trkpt lat="41.0234470" lon="0.3810920">
        <ele>309.1</ele>
        <time>2020-08-06T14:44:52Z</time>
      </trkpt>
      <trkpt lat="41.0232760" lon="0.3811800">
        <ele>308.0</ele>
        <time>2020-08-06T14:44:54Z</time>
      </trkpt>
      <trkpt lat="41.0231090" lon="0.3812770">
        <ele>306.8</ele>
        <time>2020-08-06T14:44:56Z</time>
      </trkpt>
      <trkpt lat="41.0230350" lon="0.3813250">
        <ele>306.4</ele>
        <time>2020-08-06T14:44:57Z</time>
      </trkpt>
      <trkpt lat="41.0228860" lon="0.3814510">
        <ele>305.3</ele>
        <time>2020-08-06T14:44:59Z</time>
      </trkpt>
      <trkpt lat="41.0227330" lon="0.3816120">
        <ele>304.2</ele>
        <time>2020-08-06T14:45:01Z</time>
      </trkpt>
      <trkpt lat="41.0226560" lon="0.3817010">
        <ele>303.5</ele>
        <time>2020-08-06T14:45:02Z</time>
      </trkpt>
      <trkpt lat="41.0225010" lon="0.3818590">
        <ele>302.2</ele>
        <time>2020-08-06T14:45:04Z</time>
      </trkpt>
      <trkpt lat="41.0223360" lon="0.3820040">
        <ele>301.1</ele>
        <time>2020-08-06T14:45:06Z</time>
      </trkpt>
      <trkpt lat="41.0222530" lon="0.3820680">
        <ele>300.6</ele>
        <time>2020-08-06T14:45:07Z</time>
      </trkpt>
      <trkpt lat="41.0220910" lon="0.3822200">
        <ele>299.6</ele>
        <time>2020-08-06T14:45:09Z</time>
      </trkpt>
      <trkpt lat="41.0220110" lon="0.3823070">
        <ele>299.0</ele>
        <time>2020-08-06T14:45:10Z</time>
      </trkpt>
      <trkpt lat="41.0219420" lon="0.3823720">
        <ele>298.6</ele>
        <time>2020-08-06T14:45:11Z</time>
      </trkpt>
      <trkpt lat="41.0218040" lon="0.3824260">
        <ele>297.7</ele>
        <time>2020-08-06T14:45:13Z</time>
      </trkpt>
      <trkpt lat="41.0217350" lon="0.3824100">
        <ele>297.3</ele>
        <time>2020-08-06T14:45:14Z</time>
      </trkpt>
      <trkpt lat="41.0216650" lon="0.3823860">
        <ele>296.9</ele>
        <time>2020-08-06T14:45:15Z</time>
      </trkpt>
      <trkpt lat="41.0215370" lon="0.3822870">
        <ele>295.9</ele>
        <time>2020-08-06T14:45:17Z</time>
      </trkpt>
      <trkpt lat="41.0214760" lon="0.3822290">
        <ele>295.4</ele>
        <time>2020-08-06T14:45:18Z</time>
      </trkpt>
      <trkpt lat="41.0213590" lon="0.3820980">
        <ele>294.4</ele>
        <time>2020-08-06T14:45:20Z</time>
      </trkpt>
      <trkpt lat="41.0213040" lon="0.3820300">
        <ele>293.9</ele>
        <time>2020-08-06T14:45:21Z</time>
      </trkpt>
      <trkpt lat="41.0212410" lon="0.3819620">
        <ele>293.4</ele>
        <time>2020-08-06T14:45:22Z</time>
      </trkpt>
      <trkpt lat="41.0211110" lon="0.3818320">
        <ele>292.5</ele>
        <time>2020-08-06T14:45:24Z</time>
      </trkpt>
      <trkpt lat="41.0210440" lon="0.3817530">
        <ele>291.9</ele>
        <time>2020-08-06T14:45:25Z</time>
      </trkpt>
      <trkpt lat="41.0209740" lon="0.3816640">
        <ele>291.4</ele>
        <time>2020-08-06T14:45:26Z</time>
      </trkpt>
      <trkpt lat="41.0208540" lon="0.3814620">
        <ele>290.2</ele>
        <time>2020-08-06T14:45:28Z</time>
      </trkpt>
      <trkpt lat="41.0207970" lon="0.3813470">
        <ele>289.6</ele>
        <time>2020-08-06T14:45:29Z</time>
      </trkpt>
      <trkpt lat="41.0207430" lon="0.3812390">
        <ele>289.0</ele>
        <time>2020-08-06T14:45:30Z</time>
      </trkpt>
      <trkpt lat="41.0206200" lon="0.3810380">
        <ele>287.7</ele>
        <time>2020-08-06T14:45:32Z</time>
      </trkpt>
      <trkpt lat="41.0205040" lon="0.3809420">
        <ele>286.9</ele>
        <time>2020-08-06T14:45:34Z</time>
      </trkpt>
      <trkpt lat="41.0204400" lon="0.3808920">
        <ele>286.5</ele>
        <time>2020-08-06T14:45:35Z</time>
      </trkpt>
      <trkpt lat="41.0203680" lon="0.3808650">
        <ele>286.0</ele>
        <time>2020-08-06T14:45:36Z</time>
      </trkpt>
      <trkpt lat="41.0202160" lon="0.3808370">
        <ele>285.1</ele>
        <time>2020-08-06T14:45:38Z</time>
      </trkpt>
      <trkpt lat="41.0200590" lon="0.3808130">
        <ele>284.0</ele>
        <time>2020-08-06T14:45:40Z</time>
      </trkpt>
      <trkpt lat="41.0199780" lon="0.3808110">
        <ele>283.4</ele>
        <time>2020-08-06T14:45:41Z</time>
      </trkpt>
      <trkpt lat="41.0198980" lon="0.3808260">
        <ele>282.8</ele>
        <time>2020-08-06T14:45:42Z</time>
      </trkpt>
      <trkpt lat="41.0197660" lon="0.3809170">
        <ele>281.8</ele>
        <time>2020-08-06T14:45:44Z</time>
      </trkpt>
      <trkpt lat="41.0196890" lon="0.3810800">
        <ele>281.0</ele>
        <time>2020-08-06T14:45:46Z</time>
      </trkpt>
      <trkpt lat="41.0196650" lon="0.3811870">
        <ele>280.6</ele>
        <time>2020-08-06T14:45:47Z</time>
      </trkpt>
      <trkpt lat="41.0196260" lon="0.3814090">
        <ele>279.9</ele>
        <time>2020-08-06T14:45:49Z</time>
      </trkpt>
      <trkpt lat="41.0196040" lon="0.3815180">
        <ele>279.5</ele>
        <time>2020-08-06T14:45:50Z</time>
      </trkpt>
      <trkpt lat="41.0195820" lon="0.3816230">
        <ele>279.1</ele>
        <time>2020-08-06T14:45:51Z</time>
      </trkpt>
      <trkpt lat="41.0195090" lon="0.3818130">
        <ele>278.3</ele>
        <time>2020-08-06T14:45:53Z</time>
      </trkpt>
      <trkpt lat="41.0194590" lon="0.3818890">
        <ele>277.9</ele>
        <time>2020-08-06T14:45:54Z</time>
      </trkpt>
      <trkpt lat="41.0194020" lon="0.3819490">
        <ele>277.5</ele>
        <time>2020-08-06T14:45:55Z</time>
      </trkpt>
      <trkpt lat="41.0193370" lon="0.3820080">
        <ele>277.0</ele>
        <time>2020-08-06T14:45:56Z</time>
      </trkpt>
      <trkpt lat="41.0192700" lon="0.3820530">
        <ele>276.6</ele>
        <time>2020-08-06T14:45:57Z</time>
      </trkpt>
      <trkpt lat="41.0192010" lon="0.3821020">
        <ele>276.1</ele>
        <time>2020-08-06T14:45:58Z</time>
      </trkpt>
      <trkpt lat="41.0191330" lon="0.3821530">
        <ele>275.7</ele>
        <time>2020-08-06T14:45:59Z</time>
      </trkpt>
      <trkpt lat="41.0190650" lon="0.3822040">
        <ele>275.2</ele>
        <time>2020-08-06T14:46:00Z</time>
      </trkpt>
      <trkpt lat="41.0189280" lon="0.3823110">
        <ele>274.4</ele>
        <time>2020-08-06T14:46:02Z</time>
      </trkpt>
      <trkpt lat="41.0188030" lon="0.3824550">
        <ele>273.4</ele>
        <time>2020-08-06T14:46:04Z</time>
      </trkpt>
      <trkpt lat="41.0187580" lon="0.3825330">
        <ele>273.0</ele>
        <time>2020-08-06T14:46:05Z</time>
      </trkpt>
      <trkpt lat="41.0186980" lon="0.3827260">
        <ele>272.1</ele>
        <time>2020-08-06T14:46:07Z</time>
      </trkpt>
      <trkpt lat="41.0186820" lon="0.3828360">
        <ele>271.5</ele>
        <time>2020-08-06T14:46:08Z</time>
      </trkpt>
      <trkpt lat="41.0186670" lon="0.3829430">
        <ele>271.0</ele>
        <time>2020-08-06T14:46:09Z</time>
      </trkpt>
      <trkpt lat="41.0186530" lon="0.3830480">
        <ele>270.4</ele>
        <time>2020-08-06T14:46:10Z</time>
      </trkpt>
      <trkpt lat="41.0186250" lon="0.3831560">
        <ele>269.8</ele>
        <time>2020-08-06T14:46:11Z</time>
      </trkpt>
      <trkpt lat="41.0185520" lon="0.3833420">
        <ele>268.6</ele>
        <time>2020-08-06T14:46:13Z</time>
      </trkpt>
      <trkpt lat="41.0185060" lon="0.3834360">
        <ele>268.1</ele>
        <time>2020-08-06T14:46:14Z</time>
      </trkpt>
      <trkpt lat="41.0183990" lon="0.3836170">
        <ele>266.8</ele>
        <time>2020-08-06T14:46:16Z</time>
      </trkpt>
      <trkpt lat="41.0183380" lon="0.3837100">
        <ele>266.2</ele>
        <time>2020-08-06T14:46:17Z</time>
      </trkpt>
      <trkpt lat="41.0182360" lon="0.3838800">
        <ele>265.1</ele>
        <time>2020-08-06T14:46:19Z</time>
      </trkpt>
      <trkpt lat="41.0181450" lon="0.3840290">
        <ele>264.2</ele>
        <time>2020-08-06T14:46:21Z</time>
      </trkpt>
      <trkpt lat="41.0181030" lon="0.3840940">
        <ele>263.9</ele>
        <time>2020-08-06T14:46:22Z</time>
      </trkpt>
      <trkpt lat="41.0180280" lon="0.3842230">
        <ele>262.9</ele>
        <time>2020-08-06T14:46:24Z</time>
      </trkpt>
      <trkpt lat="41.0179670" lon="0.3843460">
        <ele>262.0</ele>
        <time>2020-08-06T14:46:26Z</time>
      </trkpt>
      <trkpt lat="41.0179380" lon="0.3843970">
        <ele>261.6</ele>
        <time>2020-08-06T14:46:27Z</time>
      </trkpt>
      <trkpt lat="41.0178980" lon="0.3844750">
        <ele>261.1</ele>
        <time>2020-08-06T14:46:29Z</time>
      </trkpt>
      <trkpt lat="41.0178910" lon="0.3845090">
        <ele>260.9</ele>
        <time>2020-08-06T14:46:30Z</time>
      </trkpt>
      <trkpt lat="41.0178920" lon="0.3845440">
        <ele>260.7</ele>
        <time>2020-08-06T14:46:31Z</time>
      </trkpt>
      <trkpt lat="41.0179030" lon="0.3846130">
        <ele>260.3</ele>
        <time>2020-08-06T14:46:33Z</time>
      </trkpt>
      <trkpt lat="41.0179080" lon="0.3846280">
        <ele>260.3</ele>
        <time>2020-08-06T14:46:34Z</time>
      </trkpt>
      <trkpt lat="41.0179040" lon="0.3846440">
        <ele>260.2</ele>
        <time>2020-08-06T14:46:36Z</time>
      </trkpt>
      <trkpt lat="41.0178930" lon="0.3846500">
        <ele>260.1</ele>
        <time>2020-08-06T14:46:37Z</time>
      </trkpt>
      <trkpt lat="41.0178620" lon="0.3846580">
        <ele>259.9</ele>
        <time>2020-08-06T14:46:39Z</time>
      </trkpt>
      <trkpt lat="41.0178250" lon="0.3846760">
        <ele>259.7</ele>
        <time>2020-08-06T14:46:41Z</time>
      </trkpt>
      <trkpt lat="41.0177970" lon="0.3846930">
        <ele>259.5</ele>
        <time>2020-08-06T14:46:43Z</time>
      </trkpt>
      <trkpt lat="41.0177960" lon="0.3846990">
        <ele>259.5</ele>
        <time>2020-08-06T14:46:44Z</time>
      </trkpt>
      <trkpt lat="41.0178060" lon="0.3847120">
        <ele>259.4</ele>
        <time>2020-08-06T14:46:46Z</time>
      </trkpt>
      <trkpt lat="41.0178190" lon="0.3847200">
        <ele>259.4</ele>
        <time>2020-08-06T14:46:47Z</time>
      </trkpt>
      <trkpt lat="41.0178170" lon="0.3847180">
        <ele>259.3</ele>
        <time>2020-08-06T14:46:48Z</time>
      </trkpt>
      <trkpt lat="41.0178060" lon="0.3847120">
        <ele>259.3</ele>
        <time>2020-08-06T14:46:50Z</time>
      </trkpt>
      <trkpt lat="41.0177950" lon="0.3847050">
        <ele>259.2</ele>
        <time>2020-08-06T14:46:52Z</time>
      </trkpt>
      <trkpt lat="41.0177840" lon="0.3846980">
        <ele>259.2</ele>
        <time>2020-08-06T14:46:59Z</time>
      </trkpt>
      <trkpt lat="41.0177720" lon="0.3846920">
        <ele>259.1</ele>
        <time>2020-08-06T14:47:00Z</time>
      </trkpt>
      <trkpt lat="41.0177610" lon="0.3846850">
        <ele>259.1</ele>
        <time>2020-08-06T14:47:47Z</time>
      </trkpt>
      <trkpt lat="41.0177500" lon="0.3846790">
        <ele>259.0</ele>
        <time>2020-08-06T14:47:48Z</time>
      </trkpt>
      <trkpt lat="41.0177390" lon="0.3846720">
        <ele>259.0</ele>
        <time>2020-08-06T14:47:49Z</time>
      </trkpt>
      <trkpt lat="41.0176690" lon="0.3846400">
        <ele>258.7</ele>
        <time>2020-08-06T14:47:51Z</time>
      </trkpt>
      <trkpt lat="41.0176220" lon="0.3846400">
        <ele>258.6</ele>
        <time>2020-08-06T14:47:52Z</time>
      </trkpt>
      <trkpt lat="41.0175970" lon="0.3846770">
        <ele>258.5</ele>
        <time>2020-08-06T14:47:54Z</time>
      </trkpt>
      <trkpt lat="41.0175720" lon="0.3846930">
        <ele>258.5</ele>
        <time>2020-08-06T14:47:55Z</time>
      </trkpt>
      <trkpt lat="41.0175610" lon="0.3846920">
        <ele>258.5</ele>
        <time>2020-08-06T14:47:56Z</time>
      </trkpt>
      <trkpt lat="41.0175340" lon="0.3846690">
        <ele>258.5</ele>
        <time>2020-08-06T14:47:57Z</time>
      </trkpt>
      <trkpt lat="41.0175250" lon="0.3846580">
        <ele>258.4</ele>
        <time>2020-08-06T14:47:58Z</time>
      </trkpt>
      <trkpt lat="41.0174850" lon="0.3846350">
        <ele>258.4</ele>
        <time>2020-08-06T14:48:00Z</time>
      </trkpt>
      <trkpt lat="41.0174420" lon="0.3846140">
        <ele>258.4</ele>
        <time>2020-08-06T14:48:01Z</time>
      </trkpt>
      <trkpt lat="41.0174180" lon="0.3846070">
        <ele>258.4</ele>
        <time>2020-08-06T14:48:02Z</time>
      </trkpt>
      <trkpt lat="41.0173160" lon="0.3845870">
        <ele>258.5</ele>
        <time>2020-08-06T14:48:04Z</time>
      </trkpt>
      <trkpt lat="41.0172120" lon="0.3845850">
        <ele>258.7</ele>
        <time>2020-08-06T14:48:06Z</time>
      </trkpt>
      <trkpt lat="41.0171630" lon="0.3845890">
        <ele>258.7</ele>
        <time>2020-08-06T14:48:07Z</time>
      </trkpt>
      <trkpt lat="41.0171190" lon="0.3845950">
        <ele>258.8</ele>
        <time>2020-08-06T14:48:08Z</time>
      </trkpt>
      <trkpt lat="41.0170770" lon="0.3846080">
        <ele>258.8</ele>
        <time>2020-08-06T14:48:10Z</time>
      </trkpt>
      <trkpt lat="41.0170370" lon="0.3846270">
        <ele>258.9</ele>
        <time>2020-08-06T14:48:11Z</time>
      </trkpt>
      <trkpt lat="41.0169970" lon="0.3846570">
        <ele>259.0</ele>
        <time>2020-08-06T14:48:13Z</time>
      </trkpt>
      <trkpt lat="41.0169710" lon="0.3846830">
        <ele>259.1</ele>
        <time>2020-08-06T14:48:14Z</time>
      </trkpt>
      <trkpt lat="41.0169650" lon="0.3846890">
        <ele>259.1</ele>
        <time>2020-08-06T14:48:15Z</time>
      </trkpt>
      <trkpt lat="41.0169550" lon="0.3847050">
        <ele>259.2</ele>
        <time>2020-08-06T14:48:16Z</time>
      </trkpt>
      <trkpt lat="41.0169320" lon="0.3847410">
        <ele>259.2</ele>
        <time>2020-08-06T14:48:18Z</time>
      </trkpt>
      <trkpt lat="41.0169210" lon="0.3847650">
        <ele>259.3</ele>
        <time>2020-08-06T14:48:19Z</time>
      </trkpt>
      <trkpt lat="41.0168970" lon="0.3848060">
        <ele>259.4</ele>
        <time>2020-08-06T14:48:21Z</time>
      </trkpt>
      <trkpt lat="41.0168810" lon="0.3848370">
        <ele>259.5</ele>
        <time>2020-08-06T14:48:22Z</time>
      </trkpt>
      <trkpt lat="41.0168650" lon="0.3848680">
        <ele>259.5</ele>
        <time>2020-08-06T14:48:23Z</time>
      </trkpt>
      <trkpt lat="41.0168450" lon="0.3849080">
        <ele>259.6</ele>
        <time>2020-08-06T14:48:24Z</time>
      </trkpt>
      <trkpt lat="41.0168220" lon="0.3849550">
        <ele>259.7</ele>
        <time>2020-08-06T14:48:26Z</time>
      </trkpt>
      <trkpt lat="41.0167970" lon="0.3850000">
        <ele>259.8</ele>
        <time>2020-08-06T14:48:27Z</time>
      </trkpt>
      <trkpt lat="41.0167750" lon="0.3850370">
        <ele>259.9</ele>
        <time>2020-08-06T14:48:28Z</time>
      </trkpt>
      <trkpt lat="41.0167500" lon="0.3850790">
        <ele>260.0</ele>
        <time>2020-08-06T14:48:29Z</time>
      </trkpt>
      <trkpt lat="41.0167170" lon="0.3851240">
        <ele>260.2</ele>
        <time>2020-08-06T14:48:31Z</time>
      </trkpt>
      <trkpt lat="41.0166800" lon="0.3851550">
        <ele>260.4</ele>
        <time>2020-08-06T14:48:33Z</time>
      </trkpt>
      <trkpt lat="41.0166620" lon="0.3851690">
        <ele>260.4</ele>
        <time>2020-08-06T14:48:34Z</time>
      </trkpt>
      <trkpt lat="41.0166370" lon="0.3851870">
        <ele>260.5</ele>
        <time>2020-08-06T14:48:36Z</time>
      </trkpt>
      <trkpt lat="41.0166070" lon="0.3852120">
        <ele>260.7</ele>
        <time>2020-08-06T14:48:37Z</time>
      </trkpt>
      <trkpt lat="41.0165980" lon="0.3852170">
        <ele>260.7</ele>
        <time>2020-08-06T14:48:38Z</time>
      </trkpt>
      <trkpt lat="41.0165650" lon="0.3852350">
        <ele>260.8</ele>
        <time>2020-08-06T14:48:40Z</time>
      </trkpt>
      <trkpt lat="41.0165370" lon="0.3852520">
        <ele>260.9</ele>
        <time>2020-08-06T14:48:42Z</time>
      </trkpt>
      <trkpt lat="41.0165200" lon="0.3852630">
        <ele>261.0</ele>
        <time>2020-08-06T14:48:43Z</time>
      </trkpt>
      <trkpt lat="41.0164860" lon="0.3852760">
        <ele>261.1</ele>
        <time>2020-08-06T14:48:45Z</time>
      </trkpt>
      <trkpt lat="41.0164540" lon="0.3852900">
        <ele>261.3</ele>
        <time>2020-08-06T14:48:47Z</time>
      </trkpt>
      <trkpt lat="41.0164400" lon="0.3853020">
        <ele>261.3</ele>
        <time>2020-08-06T14:48:48Z</time>
      </trkpt>
      <trkpt lat="41.0164130" lon="0.3853230">
        <ele>261.4</ele>
        <time>2020-08-06T14:48:50Z</time>
      </trkpt>
      <trkpt lat="41.0163750" lon="0.3853460">
        <ele>261.6</ele>
        <time>2020-08-06T14:48:51Z</time>
      </trkpt>
      <trkpt lat="41.0163450" lon="0.3853640">
        <ele>261.7</ele>
        <time>2020-08-06T14:48:52Z</time>
      </trkpt>
      <trkpt lat="41.0162950" lon="0.3853900">
        <ele>261.9</ele>
        <time>2020-08-06T14:48:54Z</time>
      </trkpt>
      <trkpt lat="41.0162670" lon="0.3854070">
        <ele>262.0</ele>
        <time>2020-08-06T14:48:56Z</time>
      </trkpt>
      <trkpt lat="41.0162380" lon="0.3854170">
        <ele>262.1</ele>
        <time>2020-08-06T14:48:57Z</time>
      </trkpt>
      <trkpt lat="41.0162100" lon="0.3854260">
        <ele>262.2</ele>
        <time>2020-08-06T14:48:58Z</time>
      </trkpt>
      <trkpt lat="41.0162000" lon="0.3854270">
        <ele>262.2</ele>
        <time>2020-08-06T14:48:59Z</time>
      </trkpt>
      <trkpt lat="41.0161200" lon="0.3854290">
        <ele>262.4</ele>
        <time>2020-08-06T14:49:01Z</time>
      </trkpt>
      <trkpt lat="41.0160560" lon="0.3854210">
        <ele>262.6</ele>
        <time>2020-08-06T14:49:02Z</time>
      </trkpt>
      <trkpt lat="41.0159690" lon="0.3854310">
        <ele>262.9</ele>
        <time>2020-08-06T14:49:03Z</time>
      </trkpt>
      <trkpt lat="41.0159160" lon="0.3854330">
        <ele>263.1</ele>
        <time>2020-08-06T14:49:04Z</time>
      </trkpt>
      <trkpt lat="41.0158780" lon="0.3854330">
        <ele>263.2</ele>
        <time>2020-08-06T14:49:05Z</time>
      </trkpt>
      <trkpt lat="41.0158490" lon="0.3854330">
        <ele>263.4</ele>
        <time>2020-08-06T14:49:06Z</time>
      </trkpt>
      <trkpt lat="41.0158080" lon="0.3854250">
        <ele>263.5</ele>
        <time>2020-08-06T14:49:08Z</time>
      </trkpt>
      <trkpt lat="41.0157810" lon="0.3854200">
        <ele>263.7</ele>
        <time>2020-08-06T14:49:09Z</time>
      </trkpt>
      <trkpt lat="41.0157710" lon="0.3854210">
        <ele>263.7</ele>
        <time>2020-08-06T14:49:10Z</time>
      </trkpt>
      <trkpt lat="41.0157500" lon="0.3854160">
        <ele>263.8</ele>
        <time>2020-08-06T14:49:11Z</time>
      </trkpt>
      <trkpt lat="41.0157010" lon="0.3854200">
        <ele>264.1</ele>
        <time>2020-08-06T14:49:13Z</time>
      </trkpt>
      <trkpt lat="41.0156720" lon="0.3854220">
        <ele>264.2</ele>
        <time>2020-08-06T14:49:14Z</time>
      </trkpt>
      <trkpt lat="41.0156330" lon="0.3854250">
        <ele>264.4</ele>
        <time>2020-08-06T14:49:15Z</time>
      </trkpt>
      <trkpt lat="41.0156220" lon="0.3854250">
        <ele>264.5</ele>
        <time>2020-08-06T14:49:16Z</time>
      </trkpt>
      <trkpt lat="41.0155750" lon="0.3854290">
        <ele>264.8</ele>
        <time>2020-08-06T14:49:17Z</time>
      </trkpt>
      <trkpt lat="41.0154750" lon="0.3854380">
        <ele>265.4</ele>
        <time>2020-08-06T14:49:19Z</time>
      </trkpt>
      <trkpt lat="41.0153920" lon="0.3854490">
        <ele>265.7</ele>
        <time>2020-08-06T14:49:21Z</time>
      </trkpt>
      <trkpt lat="41.0153500" lon="0.3854540">
        <ele>265.9</ele>
        <time>2020-08-06T14:49:22Z</time>
      </trkpt>
      <trkpt lat="41.0153270" lon="0.3854570">
        <ele>265.9</ele>
        <time>2020-08-06T14:49:23Z</time>
      </trkpt>
      <trkpt lat="41.0152910" lon="0.3854590">
        <ele>266.1</ele>
        <time>2020-08-06T14:49:25Z</time>
      </trkpt>
      <trkpt lat="41.0152540" lon="0.3854560">
        <ele>266.2</ele>
        <time>2020-08-06T14:49:26Z</time>
      </trkpt>
      <trkpt lat="41.0152330" lon="0.3854550">
        <ele>266.3</ele>
        <time>2020-08-06T14:49:27Z</time>
      </trkpt>
      <trkpt lat="41.0151930" lon="0.3854620">
        <ele>266.4</ele>
        <time>2020-08-06T14:49:29Z</time>
      </trkpt>
      <trkpt lat="41.0151610" lon="0.3854670">
        <ele>266.5</ele>
        <time>2020-08-06T14:49:30Z</time>
      </trkpt>
      <trkpt lat="41.0151190" lon="0.3854810">
        <ele>266.7</ele>
        <time>2020-08-06T14:49:32Z</time>
      </trkpt>
      <trkpt lat="41.0150130" lon="0.3854870">
        <ele>267.0</ele>
        <time>2020-08-06T14:49:38Z</time>
      </trkpt>
      <trkpt lat="41.0149610" lon="0.3854930">
        <ele>267.2</ele>
        <time>2020-08-06T14:49:40Z</time>
      </trkpt>
      <trkpt lat="41.0149350" lon="0.3854940">
        <ele>267.3</ele>
        <time>2020-08-06T14:49:41Z</time>
      </trkpt>
      <trkpt lat="41.0148930" lon="0.3854940">
        <ele>267.4</ele>
        <time>2020-08-06T14:49:43Z</time>
      </trkpt>
      <trkpt lat="41.0148750" lon="0.3854950">
        <ele>267.5</ele>
        <time>2020-08-06T14:49:44Z</time>
      </trkpt>
      <trkpt lat="41.0148580" lon="0.3854980">
        <ele>267.5</ele>
        <time>2020-08-06T14:49:45Z</time>
      </trkpt>
      <trkpt lat="41.0148450" lon="0.3855000">
        <ele>267.6</ele>
        <time>2020-08-06T14:49:46Z</time>
      </trkpt>
      <trkpt lat="41.0148160" lon="0.3855010">
        <ele>267.7</ele>
        <time>2020-08-06T14:49:48Z</time>
      </trkpt>
      <trkpt lat="41.0147930" lon="0.3854970">
        <ele>267.7</ele>
        <time>2020-08-06T14:49:50Z</time>
      </trkpt>
      <trkpt lat="41.0147850" lon="0.3854960">
        <ele>267.8</ele>
        <time>2020-08-06T14:49:51Z</time>
      </trkpt>
      <trkpt lat="41.0147760" lon="0.3854960">
        <ele>267.8</ele>
        <time>2020-08-06T14:49:52Z</time>
      </trkpt>
      <trkpt lat="41.0147430" lon="0.3854970">
        <ele>267.9</ele>
        <time>2020-08-06T14:49:54Z</time>
      </trkpt>
      <trkpt lat="41.0147320" lon="0.3854970">
        <ele>267.9</ele>
        <time>2020-08-06T14:49:55Z</time>
      </trkpt>
      <trkpt lat="41.0147180" lon="0.3854960">
        <ele>268.0</ele>
        <time>2020-08-06T14:49:56Z</time>
      </trkpt>
      <trkpt lat="41.0146940" lon="0.3854930">
        <ele>268.1</ele>
        <time>2020-08-06T14:49:58Z</time>
      </trkpt>
      <trkpt lat="41.0146820" lon="0.3854910">
        <ele>268.1</ele>
        <time>2020-08-06T14:49:59Z</time>
      </trkpt>
      <trkpt lat="41.0146580" lon="0.3854850">
        <ele>268.2</ele>
        <time>2020-08-06T14:50:01Z</time>
      </trkpt>
      <trkpt lat="41.0146450" lon="0.3854810">
        <ele>268.2</ele>
        <time>2020-08-06T14:50:02Z</time>
      </trkpt>
      <trkpt lat="41.0146220" lon="0.3854750">
        <ele>268.3</ele>
        <time>2020-08-06T14:50:04Z</time>
      </trkpt>
      <trkpt lat="41.0146090" lon="0.3854710">
        <ele>268.3</ele>
        <time>2020-08-06T14:50:05Z</time>
      </trkpt>
      <trkpt lat="41.0145790" lon="0.3854630">
        <ele>268.4</ele>
        <time>2020-08-06T14:50:07Z</time>
      </trkpt>
      <trkpt lat="41.0145610" lon="0.3854560">
        <ele>268.5</ele>
        <time>2020-08-06T14:50:08Z</time>
      </trkpt>
      <trkpt lat="41.0145260" lon="0.3854440">
        <ele>268.6</ele>
        <time>2020-08-06T14:50:10Z</time>
      </trkpt>
      <trkpt lat="41.0145090" lon="0.3854390">
        <ele>268.7</ele>
        <time>2020-08-06T14:50:11Z</time>
      </trkpt>
      <trkpt lat="41.0144930" lon="0.3854320">
        <ele>268.7</ele>
        <time>2020-08-06T14:50:12Z</time>
      </trkpt>
      <trkpt lat="41.0144630" lon="0.3854230">
        <ele>268.8</ele>
        <time>2020-08-06T14:50:14Z</time>
      </trkpt>
      <trkpt lat="41.0144470" lon="0.3854180">
        <ele>268.9</ele>
        <time>2020-08-06T14:50:15Z</time>
      </trkpt>
      <trkpt lat="41.0144360" lon="0.3854160">
        <ele>268.9</ele>
        <time>2020-08-06T14:50:16Z</time>
      </trkpt>
      <trkpt lat="41.0144200" lon="0.3854100">
        <ele>269.0</ele>
        <time>2020-08-06T14:50:17Z</time>
      </trkpt>
      <trkpt lat="41.0143870" lon="0.3854050">
        <ele>269.1</ele>
        <time>2020-08-06T14:50:19Z</time>
      </trkpt>
      <trkpt lat="41.0143720" lon="0.3854010">
        <ele>269.1</ele>
        <time>2020-08-06T14:50:20Z</time>
      </trkpt>
      <trkpt lat="41.0143570" lon="0.3853970">
        <ele>269.2</ele>
        <time>2020-08-06T14:50:21Z</time>
      </trkpt>
      <trkpt lat="41.0142920" lon="0.3853800">
        <ele>269.4</ele>
        <time>2020-08-06T14:50:23Z</time>
      </trkpt>
      <trkpt lat="41.0142550" lon="0.3853720">
        <ele>269.5</ele>
        <time>2020-08-06T14:50:25Z</time>
      </trkpt>
      <trkpt lat="41.0142190" lon="0.3853650">
        <ele>269.7</ele>
        <time>2020-08-06T14:50:26Z</time>
      </trkpt>
      <trkpt lat="41.0141820" lon="0.3853570">
        <ele>269.8</ele>
        <time>2020-08-06T14:50:27Z</time>
      </trkpt>
      <trkpt lat="41.0140890" lon="0.3853520">
        <ele>270.1</ele>
        <time>2020-08-06T14:50:28Z</time>
      </trkpt>
      <trkpt lat="41.0140080" lon="0.3853490">
        <ele>270.3</ele>
        <time>2020-08-06T14:50:29Z</time>
      </trkpt>
      <trkpt lat="41.0138760" lon="0.3853420">
        <ele>270.7</ele>
        <time>2020-08-06T14:50:31Z</time>
      </trkpt>
      <trkpt lat="41.0138970" lon="0.3853180">
        <ele>270.8</ele>
        <time>2020-08-06T14:50:33Z</time>
      </trkpt>
      <trkpt lat="41.0139340" lon="0.3853050">
        <ele>270.9</ele>
        <time>2020-08-06T14:50:34Z</time>
      </trkpt>
      <trkpt lat="41.0140050" lon="0.3852840">
        <ele>271.2</ele>
        <time>2020-08-06T14:50:35Z</time>
      </trkpt>
      <trkpt lat="41.0140330" lon="0.3852580">
        <ele>271.3</ele>
        <time>2020-08-06T14:50:37Z</time>
      </trkpt>
      <trkpt lat="41.0140310" lon="0.3852310">
        <ele>271.3</ele>
        <time>2020-08-06T14:50:38Z</time>
      </trkpt>
      <trkpt lat="41.0140260" lon="0.3852120">
        <ele>271.4</ele>
        <time>2020-08-06T14:50:40Z</time>
      </trkpt>
      <trkpt lat="41.0140230" lon="0.3852050">
        <ele>271.4</ele>
        <time>2020-08-06T14:50:41Z</time>
      </trkpt>
      <trkpt lat="41.0140090" lon="0.3851940">
        <ele>271.5</ele>
        <time>2020-08-06T14:50:42Z</time>
      </trkpt>
      <trkpt lat="41.0139850" lon="0.3851800">
        <ele>271.5</ele>
        <time>2020-08-06T14:50:44Z</time>
      </trkpt>
      <trkpt lat="41.0139700" lon="0.3851750">
        <ele>271.6</ele>
        <time>2020-08-06T14:50:45Z</time>
      </trkpt>
      <trkpt lat="41.0139470" lon="0.3851630">
        <ele>271.7</ele>
        <time>2020-08-06T14:50:47Z</time>
      </trkpt>
      <trkpt lat="41.0139200" lon="0.3851550">
        <ele>271.8</ele>
        <time>2020-08-06T14:50:48Z</time>
      </trkpt>
      <trkpt lat="41.0138910" lon="0.3851470">
        <ele>271.9</ele>
        <time>2020-08-06T14:50:50Z</time>
      </trkpt>
      <trkpt lat="41.0138630" lon="0.3851320">
        <ele>272.0</ele>
        <time>2020-08-06T14:50:51Z</time>
      </trkpt>
      <trkpt lat="41.0138220" lon="0.3851200">
        <ele>272.1</ele>
        <time>2020-08-06T14:50:53Z</time>
      </trkpt>
      <trkpt lat="41.0137820" lon="0.3851140">
        <ele>272.2</ele>
        <time>2020-08-06T14:50:55Z</time>
      </trkpt>
      <trkpt lat="41.0137650" lon="0.3851110">
        <ele>272.3</ele>
        <time>2020-08-06T14:50:56Z</time>
      </trkpt>
      <trkpt lat="41.0137480" lon="0.3851090">
        <ele>272.3</ele>
        <time>2020-08-06T14:50:57Z</time>
      </trkpt>
      <trkpt lat="41.0137150" lon="0.3851040">
        <ele>272.5</ele>
        <time>2020-08-06T14:50:59Z</time>
      </trkpt>
      <trkpt lat="41.0136980" lon="0.3851000">
        <ele>272.5</ele>
        <time>2020-08-06T14:51:00Z</time>
      </trkpt>
      <trkpt lat="41.0136350" lon="0.3850880">
        <ele>272.7</ele>
        <time>2020-08-06T14:51:02Z</time>
      </trkpt>
      <trkpt lat="41.0135770" lon="0.3850890">
        <ele>272.9</ele>
        <time>2020-08-06T14:51:03Z</time>
      </trkpt>
      <trkpt lat="41.0135180" lon="0.3850760">
        <ele>273.1</ele>
        <time>2020-08-06T14:51:04Z</time>
      </trkpt>
      <trkpt lat="41.0133690" lon="0.3850610">
        <ele>273.6</ele>
        <time>2020-08-06T14:51:06Z</time>
      </trkpt>
      <trkpt lat="41.0132580" lon="0.3850580">
        <ele>274.0</ele>
        <time>2020-08-06T14:51:08Z</time>
      </trkpt>
      <trkpt lat="41.0132050" lon="0.3850640">
        <ele>274.2</ele>
        <time>2020-08-06T14:51:09Z</time>
      </trkpt>
      <trkpt lat="41.0130630" lon="0.3850860">
        <ele>274.6</ele>
        <time>2020-08-06T14:51:11Z</time>
      </trkpt>
      <trkpt lat="41.0129510" lon="0.3851170">
        <ele>275.0</ele>
        <time>2020-08-06T14:51:13Z</time>
      </trkpt>
      <trkpt lat="41.0129350" lon="0.3851190">
        <ele>275.0</ele>
        <time>2020-08-06T14:51:14Z</time>
      </trkpt>
      <trkpt lat="41.0129210" lon="0.3851200">
        <ele>275.1</ele>
        <time>2020-08-06T14:51:15Z</time>
      </trkpt>
      <trkpt lat="41.0128960" lon="0.3851210">
        <ele>275.1</ele>
        <time>2020-08-06T14:51:17Z</time>
      </trkpt>
      <trkpt lat="41.0128720" lon="0.3851290">
        <ele>275.2</ele>
        <time>2020-08-06T14:51:19Z</time>
      </trkpt>
      <trkpt lat="41.0127890" lon="0.3851490">
        <ele>275.5</ele>
        <time>2020-08-06T14:51:20Z</time>
      </trkpt>
      <trkpt lat="41.0127410" lon="0.3851660">
        <ele>275.7</ele>
        <time>2020-08-06T14:51:22Z</time>
      </trkpt>
      <trkpt lat="41.0127500" lon="0.3851630">
        <ele>275.7</ele>
        <time>2020-08-06T14:51:23Z</time>
      </trkpt>
      <trkpt lat="41.0127470" lon="0.3851650">
        <ele>275.7</ele>
        <time>2020-08-06T14:51:24Z</time>
      </trkpt>
      <trkpt lat="41.0127430" lon="0.3851680">
        <ele>275.7</ele>
        <time>2020-08-06T14:51:25Z</time>
      </trkpt>
      <trkpt lat="41.0127380" lon="0.3851700">
        <ele>275.7</ele>
        <time>2020-08-06T14:51:26Z</time>
      </trkpt>
      <trkpt lat="41.0127380" lon="0.3851710">
        <ele>275.7</ele>
        <time>2020-08-06T14:51:27Z</time>
      </trkpt>
      <trkpt lat="41.0127170" lon="0.3851750">
        <ele>275.8</ele>
        <time>2020-08-06T14:51:29Z</time>
      </trkpt>
      <trkpt lat="41.0127120" lon="0.3851760">
        <ele>275.8</ele>
        <time>2020-08-06T14:51:30Z</time>
      </trkpt>
      <trkpt lat="41.0126830" lon="0.3851810">
        <ele>275.9</ele>
        <time>2020-08-06T14:51:32Z</time>
      </trkpt>
      <trkpt lat="41.0126760" lon="0.3851830">
        <ele>276.0</ele>
        <time>2020-08-06T14:51:33Z</time>
      </trkpt>
      <trkpt lat="41.0126460" lon="0.3851860">
        <ele>276.1</ele>
        <time>2020-08-06T14:51:35Z</time>
      </trkpt>
      <trkpt lat="41.0126350" lon="0.3851860">
        <ele>276.1</ele>
        <time>2020-08-06T14:51:36Z</time>
      </trkpt>
      <trkpt lat="41.0126030" lon="0.3851880">
        <ele>276.2</ele>
        <time>2020-08-06T14:51:38Z</time>
      </trkpt>
      <trkpt lat="41.0125900" lon="0.3851870">
        <ele>276.2</ele>
        <time>2020-08-06T14:51:39Z</time>
      </trkpt>
      <trkpt lat="41.0125570" lon="0.3851880">
        <ele>276.3</ele>
        <time>2020-08-06T14:51:41Z</time>
      </trkpt>
      <trkpt lat="41.0125390" lon="0.3851870">
        <ele>276.4</ele>
        <time>2020-08-06T14:51:42Z</time>
      </trkpt>
      <trkpt lat="41.0125260" lon="0.3851820">
        <ele>276.4</ele>
        <time>2020-08-06T14:51:43Z</time>
      </trkpt>
      <trkpt lat="41.0124970" lon="0.3851690">
        <ele>276.5</ele>
        <time>2020-08-06T14:51:45Z</time>
      </trkpt>
      <trkpt lat="41.0124880" lon="0.3851590">
        <ele>276.5</ele>
        <time>2020-08-06T14:51:46Z</time>
      </trkpt>
      <trkpt lat="41.0124800" lon="0.3851510">
        <ele>276.6</ele>
        <time>2020-08-06T14:51:47Z</time>
      </trkpt>
      <trkpt lat="41.0124060" lon="0.3851480">
        <ele>276.8</ele>
        <time>2020-08-06T14:51:49Z</time>
      </trkpt>
      <trkpt lat="41.0123280" lon="0.3851730">
        <ele>277.1</ele>
        <time>2020-08-06T14:51:50Z</time>
      </trkpt>
      <trkpt lat="41.0122540" lon="0.3851930">
        <ele>277.3</ele>
        <time>2020-08-06T14:51:51Z</time>
      </trkpt>
      <trkpt lat="41.0121880" lon="0.3852040">
        <ele>277.6</ele>
        <time>2020-08-06T14:51:52Z</time>
      </trkpt>
      <trkpt lat="41.0120930" lon="0.3852070">
        <ele>277.9</ele>
        <time>2020-08-06T14:51:54Z</time>
      </trkpt>
      <trkpt lat="41.0120600" lon="0.3852020">
        <ele>278.2</ele>
        <time>2020-08-06T14:51:55Z</time>
      </trkpt>
      <trkpt lat="41.0120480" lon="0.3852020">
        <ele>278.2</ele>
        <time>2020-08-06T14:51:56Z</time>
      </trkpt>
      <trkpt lat="41.0120180" lon="0.3852020">
        <ele>278.3</ele>
        <time>2020-08-06T14:51:57Z</time>
      </trkpt>
      <trkpt lat="41.0120110" lon="0.3852010">
        <ele>278.3</ele>
        <time>2020-08-06T14:51:58Z</time>
      </trkpt>
      <trkpt lat="41.0119840" lon="0.3852050">
        <ele>278.4</ele>
        <time>2020-08-06T14:52:00Z</time>
      </trkpt>
      <trkpt lat="41.0119350" lon="0.3851930">
        <ele>278.5</ele>
        <time>2020-08-06T14:52:02Z</time>
      </trkpt>
      <trkpt lat="41.0119170" lon="0.3851890">
        <ele>278.5</ele>
        <time>2020-08-06T14:52:03Z</time>
      </trkpt>
      <trkpt lat="41.0119080" lon="0.3851870">
        <ele>278.6</ele>
        <time>2020-08-06T14:52:05Z</time>
      </trkpt>
      <trkpt lat="41.0119020" lon="0.3851860">
        <ele>278.6</ele>
        <time>2020-08-06T14:52:06Z</time>
      </trkpt>
      <trkpt lat="41.0118930" lon="0.3851850">
        <ele>278.6</ele>
        <time>2020-08-06T14:52:07Z</time>
      </trkpt>
      <trkpt lat="41.0118980" lon="0.3851950">
        <ele>278.6</ele>
        <time>2020-08-06T14:52:09Z</time>
      </trkpt>
      <trkpt lat="41.0118960" lon="0.3852000">
        <ele>278.6</ele>
        <time>2020-08-06T14:52:11Z</time>
      </trkpt>
      <trkpt lat="41.0118850" lon="0.3852190">
        <ele>278.7</ele>
        <time>2020-08-06T14:52:12Z</time>
      </trkpt>
      <trkpt lat="41.0118780" lon="0.3852290">
        <ele>278.7</ele>
        <time>2020-08-06T14:52:14Z</time>
      </trkpt>
      <trkpt lat="41.0118680" lon="0.3852430">
        <ele>278.7</ele>
        <time>2020-08-06T14:52:15Z</time>
      </trkpt>
      <trkpt lat="41.0118670" lon="0.3852530">
        <ele>278.7</ele>
        <time>2020-08-06T14:52:17Z</time>
      </trkpt>
      <trkpt lat="41.0118610" lon="0.3852650">
        <ele>278.8</ele>
        <time>2020-08-06T14:52:18Z</time>
      </trkpt>
      <trkpt lat="41.0118310" lon="0.3852830">
        <ele>278.8</ele>
        <time>2020-08-06T14:52:20Z</time>
      </trkpt>
      <trkpt lat="41.0118020" lon="0.3852960">
        <ele>278.9</ele>
        <time>2020-08-06T14:52:21Z</time>
      </trkpt>
      <trkpt lat="41.0117670" lon="0.3853070">
        <ele>278.9</ele>
        <time>2020-08-06T14:52:22Z</time>
      </trkpt>
      <trkpt lat="41.0117290" lon="0.3853100">
        <ele>279.0</ele>
        <time>2020-08-06T14:52:24Z</time>
      </trkpt>
      <trkpt lat="41.0116920" lon="0.3853150">
        <ele>279.0</ele>
        <time>2020-08-06T14:52:25Z</time>
      </trkpt>
      <trkpt lat="41.0116660" lon="0.3853190">
        <ele>279.0</ele>
        <time>2020-08-06T14:52:26Z</time>
      </trkpt>
      <trkpt lat="41.0116140" lon="0.3853320">
        <ele>279.0</ele>
        <time>2020-08-06T14:52:28Z</time>
      </trkpt>
      <trkpt lat="41.0115680" lon="0.3853430">
        <ele>278.9</ele>
        <time>2020-08-06T14:52:30Z</time>
      </trkpt>
      <trkpt lat="41.0115480" lon="0.3853460">
        <ele>278.8</ele>
        <time>2020-08-06T14:52:31Z</time>
      </trkpt>
      <trkpt lat="41.0115060" lon="0.3853530">
        <ele>278.9</ele>
        <time>2020-08-06T14:52:34Z</time>
      </trkpt>
      <trkpt lat="41.0114800" lon="0.3853670">
        <ele>279.0</ele>
        <time>2020-08-06T14:52:35Z</time>
      </trkpt>
      <trkpt lat="41.0114400" lon="0.3853780">
        <ele>279.2</ele>
        <time>2020-08-06T14:52:37Z</time>
      </trkpt>
      <trkpt lat="41.0114270" lon="0.3853830">
        <ele>279.3</ele>
        <time>2020-08-06T14:52:39Z</time>
      </trkpt>
      <trkpt lat="41.0114140" lon="0.3853870">
        <ele>279.4</ele>
        <time>2020-08-06T14:52:40Z</time>
      </trkpt>
      <trkpt lat="41.0113840" lon="0.3853890">
        <ele>279.5</ele>
        <time>2020-08-06T14:52:42Z</time>
      </trkpt>
      <trkpt lat="41.0113690" lon="0.3853870">
        <ele>279.6</ele>
        <time>2020-08-06T14:52:43Z</time>
      </trkpt>
      <trkpt lat="41.0112800" lon="0.3853900">
        <ele>280.0</ele>
        <time>2020-08-06T14:52:45Z</time>
      </trkpt>
      <trkpt lat="41.0112170" lon="0.3854060">
        <ele>280.3</ele>
        <time>2020-08-06T14:52:46Z</time>
      </trkpt>
      <trkpt lat="41.0111710" lon="0.3854040">
        <ele>280.6</ele>
        <time>2020-08-06T14:52:48Z</time>
      </trkpt>
      <trkpt lat="41.0111520" lon="0.3854080">
        <ele>280.7</ele>
        <time>2020-08-06T14:52:49Z</time>
      </trkpt>
      <trkpt lat="41.0111110" lon="0.3854160">
        <ele>280.9</ele>
        <time>2020-08-06T14:52:51Z</time>
      </trkpt>
      <trkpt lat="41.0110720" lon="0.3854190">
        <ele>281.1</ele>
        <time>2020-08-06T14:52:52Z</time>
      </trkpt>
      <trkpt lat="41.0110560" lon="0.3854220">
        <ele>281.2</ele>
        <time>2020-08-06T14:52:53Z</time>
      </trkpt>
      <trkpt lat="41.0109950" lon="0.3854210">
        <ele>281.5</ele>
        <time>2020-08-06T14:52:55Z</time>
      </trkpt>
      <trkpt lat="41.0109390" lon="0.3854450">
        <ele>281.8</ele>
        <time>2020-08-06T14:52:56Z</time>
      </trkpt>
      <trkpt lat="41.0108900" lon="0.3854690">
        <ele>282.0</ele>
        <time>2020-08-06T14:52:57Z</time>
      </trkpt>
      <trkpt lat="41.0108120" lon="0.3854930">
        <ele>282.4</ele>
        <time>2020-08-06T14:52:59Z</time>
      </trkpt>
      <trkpt lat="41.0107640" lon="0.3855080">
        <ele>282.6</ele>
        <time>2020-08-06T14:53:01Z</time>
      </trkpt>
      <trkpt lat="41.0107430" lon="0.3855190">
        <ele>282.7</ele>
        <time>2020-08-06T14:53:02Z</time>
      </trkpt>
      <trkpt lat="41.0107150" lon="0.3855320">
        <ele>282.8</ele>
        <time>2020-08-06T14:53:04Z</time>
      </trkpt>
      <trkpt lat="41.0107030" lon="0.3855360">
        <ele>282.9</ele>
        <time>2020-08-06T14:53:05Z</time>
      </trkpt>
      <trkpt lat="41.0106840" lon="0.3855400">
        <ele>283.0</ele>
        <time>2020-08-06T14:53:07Z</time>
      </trkpt>
      <trkpt lat="41.0106740" lon="0.3855450">
        <ele>283.0</ele>
        <time>2020-08-06T14:53:08Z</time>
      </trkpt>
      <trkpt lat="41.0106660" lon="0.3855420">
        <ele>283.0</ele>
        <time>2020-08-06T14:53:10Z</time>
      </trkpt>
      <trkpt lat="41.0106660" lon="0.3855410">
        <ele>283.0</ele>
        <time>2020-08-06T14:53:11Z</time>
      </trkpt>
      <trkpt lat="41.0106730" lon="0.3855400">
        <ele>283.1</ele>
        <time>2020-08-06T14:53:13Z</time>
      </trkpt>
      <trkpt lat="41.0106750" lon="0.3855410">
        <ele>283.1</ele>
        <time>2020-08-06T14:53:15Z</time>
      </trkpt>
      <trkpt lat="41.0106750" lon="0.3855340">
        <ele>283.1</ele>
        <time>2020-08-06T14:53:17Z</time>
      </trkpt>
      <trkpt lat="41.0106770" lon="0.3855290">
        <ele>283.1</ele>
        <time>2020-08-06T14:53:18Z</time>
      </trkpt>
      <trkpt lat="41.0106800" lon="0.3855240">
        <ele>283.1</ele>
        <time>2020-08-06T14:53:20Z</time>
      </trkpt>
      <trkpt lat="41.0105860" lon="0.3855590">
        <ele>283.6</ele>
        <time>2020-08-06T14:53:35Z</time>
      </trkpt>
      <trkpt lat="41.0105740" lon="0.3855660">
        <ele>283.7</ele>
        <time>2020-08-06T14:53:37Z</time>
      </trkpt>
      <trkpt lat="41.0105750" lon="0.3855660">
        <ele>283.7</ele>
        <time>2020-08-06T14:53:38Z</time>
      </trkpt>
      <trkpt lat="41.0105780" lon="0.3855650">
        <ele>283.7</ele>
        <time>2020-08-06T14:53:39Z</time>
      </trkpt>
      <trkpt lat="41.0105820" lon="0.3855640">
        <ele>283.7</ele>
        <time>2020-08-06T14:53:41Z</time>
      </trkpt>
      <trkpt lat="41.0105840" lon="0.3855630">
        <ele>283.7</ele>
        <time>2020-08-06T14:53:43Z</time>
      </trkpt>
      <trkpt lat="41.0105850" lon="0.3855630">
        <ele>283.8</ele>
        <time>2020-08-06T14:53:45Z</time>
      </trkpt>
      <trkpt lat="41.0105850" lon="0.3855630">
        <ele>283.8</ele>
        <time>2020-08-06T14:53:47Z</time>
      </trkpt>
      <trkpt lat="41.0105850" lon="0.3855630">
        <ele>283.8</ele>
        <time>2020-08-06T14:53:48Z</time>
      </trkpt>
      <trkpt lat="41.0105240" lon="0.3855420">
        <ele>284.1</ele>
        <time>2020-08-06T14:55:03Z</time>
      </trkpt>
      <trkpt lat="41.0105190" lon="0.3855340">
        <ele>284.1</ele>
        <time>2020-08-06T14:55:04Z</time>
      </trkpt>
      <trkpt lat="41.0105010" lon="0.3855240">
        <ele>284.2</ele>
        <time>2020-08-06T14:55:06Z</time>
      </trkpt>
      <trkpt lat="41.0104900" lon="0.3855210">
        <ele>284.3</ele>
        <time>2020-08-06T14:55:07Z</time>
      </trkpt>
      <trkpt lat="41.0104800" lon="0.3855440">
        <ele>284.4</ele>
        <time>2020-08-06T14:55:09Z</time>
      </trkpt>
      <trkpt lat="41.0104710" lon="0.3855490">
        <ele>284.5</ele>
        <time>2020-08-06T14:55:10Z</time>
      </trkpt>
      <trkpt lat="41.0104550" lon="0.3855500">
        <ele>284.5</ele>
        <time>2020-08-06T14:55:12Z</time>
      </trkpt>
      <trkpt lat="41.0104430" lon="0.3855530">
        <ele>284.6</ele>
        <time>2020-08-06T14:55:13Z</time>
      </trkpt>
      <trkpt lat="41.0104300" lon="0.3855490">
        <ele>284.7</ele>
        <time>2020-08-06T14:55:14Z</time>
      </trkpt>
      <trkpt lat="41.0104150" lon="0.3855400">
        <ele>284.8</ele>
        <time>2020-08-06T14:55:15Z</time>
      </trkpt>
      <trkpt lat="41.0104010" lon="0.3855370">
        <ele>284.8</ele>
        <time>2020-08-06T14:55:16Z</time>
      </trkpt>
      <trkpt lat="41.0103760" lon="0.3855340">
        <ele>285.0</ele>
        <time>2020-08-06T14:55:18Z</time>
      </trkpt>
      <trkpt lat="41.0103600" lon="0.3855300">
        <ele>285.1</ele>
        <time>2020-08-06T14:55:19Z</time>
      </trkpt>
      <trkpt lat="41.0103470" lon="0.3855220">
        <ele>285.1</ele>
        <time>2020-08-06T14:55:20Z</time>
      </trkpt>
      <trkpt lat="41.0103320" lon="0.3855160">
        <ele>285.3</ele>
        <time>2020-08-06T14:55:22Z</time>
      </trkpt>
      <trkpt lat="41.0103090" lon="0.3855090">
        <ele>285.5</ele>
        <time>2020-08-06T14:55:24Z</time>
      </trkpt>
      <trkpt lat="41.0102960" lon="0.3855070">
        <ele>285.6</ele>
        <time>2020-08-06T14:55:25Z</time>
      </trkpt>
      <trkpt lat="41.0102670" lon="0.3855000">
        <ele>285.8</ele>
        <time>2020-08-06T14:55:27Z</time>
      </trkpt>
      <trkpt lat="41.0102530" lon="0.3855040">
        <ele>285.9</ele>
        <time>2020-08-06T14:55:28Z</time>
      </trkpt>
      <trkpt lat="41.0102380" lon="0.3855030">
        <ele>286.0</ele>
        <time>2020-08-06T14:55:29Z</time>
      </trkpt>
      <trkpt lat="41.0102060" lon="0.3855020">
        <ele>286.3</ele>
        <time>2020-08-06T14:55:31Z</time>
      </trkpt>
      <trkpt lat="41.0101980" lon="0.3855000">
        <ele>286.3</ele>
        <time>2020-08-06T14:55:32Z</time>
      </trkpt>
      <trkpt lat="41.0101790" lon="0.3854990">
        <ele>286.5</ele>
        <time>2020-08-06T14:55:33Z</time>
      </trkpt>
      <trkpt lat="41.0101650" lon="0.3854920">
        <ele>286.6</ele>
        <time>2020-08-06T14:55:34Z</time>
      </trkpt>
      <trkpt lat="41.0101510" lon="0.3854920">
        <ele>286.7</ele>
        <time>2020-08-06T14:55:35Z</time>
      </trkpt>
      <trkpt lat="41.0101220" lon="0.3854860">
        <ele>286.9</ele>
        <time>2020-08-06T14:55:37Z</time>
      </trkpt>
      <trkpt lat="41.0101020" lon="0.3854730">
        <ele>287.0</ele>
        <time>2020-08-06T14:55:39Z</time>
      </trkpt>
      <trkpt lat="41.0100970" lon="0.3854740">
        <ele>287.0</ele>
        <time>2020-08-06T14:55:40Z</time>
      </trkpt>
      <trkpt lat="41.0100930" lon="0.3854810">
        <ele>287.0</ele>
        <time>2020-08-06T14:55:42Z</time>
      </trkpt>
      <trkpt lat="41.0100920" lon="0.3854900">
        <ele>287.0</ele>
        <time>2020-08-06T14:55:43Z</time>
      </trkpt>
      <trkpt lat="41.0100890" lon="0.3854930">
        <ele>287.0</ele>
        <time>2020-08-06T14:55:44Z</time>
      </trkpt>
      <trkpt lat="41.0100830" lon="0.3854930">
        <ele>287.0</ele>
        <time>2020-08-06T14:55:45Z</time>
      </trkpt>
      <trkpt lat="41.0100780" lon="0.3854920">
        <ele>287.0</ele>
        <time>2020-08-06T14:55:47Z</time>
      </trkpt>
      <trkpt lat="41.0100700" lon="0.3854910">
        <ele>287.0</ele>
        <time>2020-08-06T14:55:49Z</time>
      </trkpt>
      <trkpt lat="41.0100630" lon="0.3854910">
        <ele>287.2</ele>
        <time>2020-08-06T14:55:51Z</time>
      </trkpt>
      <trkpt lat="41.0100280" lon="0.3854860">
        <ele>287.2</ele>
        <time>2020-08-06T14:56:02Z</time>
      </trkpt>
      <trkpt lat="41.0100170" lon="0.3854830">
        <ele>287.3</ele>
        <time>2020-08-06T14:56:03Z</time>
      </trkpt>
      <trkpt lat="41.0099940" lon="0.3854740">
        <ele>287.3</ele>
        <time>2020-08-06T14:56:05Z</time>
      </trkpt>
      <trkpt lat="41.0099590" lon="0.3854690">
        <ele>287.3</ele>
        <time>2020-08-06T14:56:06Z</time>
      </trkpt>
      <trkpt lat="41.0099350" lon="0.3854660">
        <ele>287.4</ele>
        <time>2020-08-06T14:56:07Z</time>
      </trkpt>
      <trkpt lat="41.0099120" lon="0.3854620">
        <ele>287.4</ele>
        <time>2020-08-06T14:56:08Z</time>
      </trkpt>
      <trkpt lat="41.0098540" lon="0.3854530">
        <ele>287.6</ele>
        <time>2020-08-06T14:56:09Z</time>
      </trkpt>
      <trkpt lat="41.0097420" lon="0.3854380">
        <ele>287.8</ele>
        <time>2020-08-06T14:56:11Z</time>
      </trkpt>
      <trkpt lat="41.0097180" lon="0.3854370">
        <ele>287.8</ele>
        <time>2020-08-06T14:56:12Z</time>
      </trkpt>
      <trkpt lat="41.0097130" lon="0.3854380">
        <ele>287.8</ele>
        <time>2020-08-06T14:56:13Z</time>
      </trkpt>
      <trkpt lat="41.0097190" lon="0.3854400">
        <ele>287.9</ele>
        <time>2020-08-06T14:56:15Z</time>
      </trkpt>
      <trkpt lat="41.0097240" lon="0.3854390">
        <ele>287.9</ele>
        <time>2020-08-06T14:56:16Z</time>
      </trkpt>
      <trkpt lat="41.0097290" lon="0.3854380">
        <ele>287.9</ele>
        <time>2020-08-06T14:56:17Z</time>
      </trkpt>
      <trkpt lat="41.0097330" lon="0.3854380">
        <ele>287.9</ele>
        <time>2020-08-06T14:56:19Z</time>
      </trkpt>
      <trkpt lat="41.0097340" lon="0.3854380">
        <ele>287.9</ele>
        <time>2020-08-06T14:56:21Z</time>
      </trkpt>
      <trkpt lat="41.0097340" lon="0.3854390">
        <ele>287.9</ele>
        <time>2020-08-06T14:56:22Z</time>
      </trkpt>
      <trkpt lat="41.0097330" lon="0.3854390">
        <ele>287.9</ele>
        <time>2020-08-06T14:56:24Z</time>
      </trkpt>
      <trkpt lat="41.0097330" lon="0.3854390">
        <ele>287.9</ele>
        <time>2020-08-06T14:56:25Z</time>
      </trkpt>
      <trkpt lat="41.0096790" lon="0.3854370">
        <ele>288.0</ele>
        <time>2020-08-06T14:56:35Z</time>
      </trkpt>
      <trkpt lat="41.0096610" lon="0.3854270">
        <ele>288.0</ele>
        <time>2020-08-06T14:56:36Z</time>
      </trkpt>
      <trkpt lat="41.0096200" lon="0.3854110">
        <ele>288.1</ele>
        <time>2020-08-06T14:56:38Z</time>
      </trkpt>
      <trkpt lat="41.0096030" lon="0.3854040">
        <ele>288.1</ele>
        <time>2020-08-06T14:56:39Z</time>
      </trkpt>
      <trkpt lat="41.0095740" lon="0.3853870">
        <ele>288.2</ele>
        <time>2020-08-06T14:56:41Z</time>
      </trkpt>
      <trkpt lat="41.0095610" lon="0.3853750">
        <ele>288.2</ele>
        <time>2020-08-06T14:56:42Z</time>
      </trkpt>
      <trkpt lat="41.0095370" lon="0.3853400">
        <ele>288.3</ele>
        <time>2020-08-06T14:56:44Z</time>
      </trkpt>
      <trkpt lat="41.0095190" lon="0.3853080">
        <ele>288.5</ele>
        <time>2020-08-06T14:56:45Z</time>
      </trkpt>
      <trkpt lat="41.0095140" lon="0.3852990">
        <ele>288.5</ele>
        <time>2020-08-06T14:56:46Z</time>
      </trkpt>
      <trkpt lat="41.0095080" lon="0.3852570">
        <ele>288.7</ele>
        <time>2020-08-06T14:56:48Z</time>
      </trkpt>
      <trkpt lat="41.0095110" lon="0.3852290">
        <ele>288.9</ele>
        <time>2020-08-06T14:56:49Z</time>
      </trkpt>
      <trkpt lat="41.0095110" lon="0.3852170">
        <ele>288.9</ele>
        <time>2020-08-06T14:56:50Z</time>
      </trkpt>
      <trkpt lat="41.0095090" lon="0.3852030">
        <ele>289.0</ele>
        <time>2020-08-06T14:56:51Z</time>
      </trkpt>
      <trkpt lat="41.0095100" lon="0.3851590">
        <ele>289.2</ele>
        <time>2020-08-06T14:56:53Z</time>
      </trkpt>
      <trkpt lat="41.0095110" lon="0.3851370">
        <ele>289.4</ele>
        <time>2020-08-06T14:56:54Z</time>
      </trkpt>
      <trkpt lat="41.0095150" lon="0.3851200">
        <ele>289.5</ele>
        <time>2020-08-06T14:56:55Z</time>
      </trkpt>
      <trkpt lat="41.0095190" lon="0.3850960">
        <ele>290.1</ele>
        <time>2020-08-06T14:56:57Z</time>
      </trkpt>
      <trkpt lat="41.0095090" lon="0.3851220">
        <ele>290.1</ele>
        <time>2020-08-06T14:56:58Z</time>
      </trkpt>
      <trkpt lat="41.0094990" lon="0.3851410">
        <ele>290.1</ele>
        <time>2020-08-06T14:57:00Z</time>
      </trkpt>
      <trkpt lat="41.0094910" lon="0.3851560">
        <ele>290.1</ele>
        <time>2020-08-06T14:57:01Z</time>
      </trkpt>
      <trkpt lat="41.0094860" lon="0.3851620">
        <ele>290.1</ele>
        <time>2020-08-06T14:57:02Z</time>
      </trkpt>
      <trkpt lat="41.0094800" lon="0.3851590">
        <ele>290.1</ele>
        <time>2020-08-06T14:57:03Z</time>
      </trkpt>
      <trkpt lat="41.0094680" lon="0.3851490">
        <ele>290.1</ele>
        <time>2020-08-06T14:57:05Z</time>
      </trkpt>
      <trkpt lat="41.0094600" lon="0.3851430">
        <ele>290.1</ele>
        <time>2020-08-06T14:57:06Z</time>
      </trkpt>
      <trkpt lat="41.0094560" lon="0.3851300">
        <ele>290.1</ele>
        <time>2020-08-06T14:57:07Z</time>
      </trkpt>
      <trkpt lat="41.0094490" lon="0.3851060">
        <ele>290.1</ele>
        <time>2020-08-06T14:57:09Z</time>
      </trkpt>
      <trkpt lat="41.0094390" lon="0.3850880">
        <ele>290.5</ele>
        <time>2020-08-06T14:57:10Z</time>
      </trkpt>
      <trkpt lat="41.0094310" lon="0.3850810">
        <ele>290.5</ele>
        <time>2020-08-06T14:57:11Z</time>
      </trkpt>
      <trkpt lat="41.0094170" lon="0.3850620">
        <ele>290.5</ele>
        <time>2020-08-06T14:57:13Z</time>
      </trkpt>
      <trkpt lat="41.0094090" lon="0.3850550">
        <ele>290.5</ele>
        <time>2020-08-06T14:57:14Z</time>
      </trkpt>
      <trkpt lat="41.0094060" lon="0.3850430">
        <ele>290.6</ele>
        <time>2020-08-06T14:57:15Z</time>
      </trkpt>
      <trkpt lat="41.0094000" lon="0.3850360">
        <ele>290.6</ele>
        <time>2020-08-06T14:57:16Z</time>
      </trkpt>
      <trkpt lat="41.0093900" lon="0.3850310">
        <ele>290.6</ele>
        <time>2020-08-06T14:57:17Z</time>
      </trkpt>
      <trkpt lat="41.0093820" lon="0.3850120">
        <ele>290.6</ele>
        <time>2020-08-06T14:57:19Z</time>
      </trkpt>
      <trkpt lat="41.0093770" lon="0.3849930">
        <ele>290.7</ele>
        <time>2020-08-06T14:57:20Z</time>
      </trkpt>
      <trkpt lat="41.0093760" lon="0.3849800">
        <ele>290.7</ele>
        <time>2020-08-06T14:57:21Z</time>
      </trkpt>
      <trkpt lat="41.0093770" lon="0.3849680">
        <ele>290.7</ele>
        <time>2020-08-06T14:57:23Z</time>
      </trkpt>
      <trkpt lat="41.0093740" lon="0.3849620">
        <ele>290.7</ele>
        <time>2020-08-06T14:57:24Z</time>
      </trkpt>
      <trkpt lat="41.0093700" lon="0.3849530">
        <ele>290.8</ele>
        <time>2020-08-06T14:57:25Z</time>
      </trkpt>
      <trkpt lat="41.0093540" lon="0.3849360">
        <ele>290.8</ele>
        <time>2020-08-06T14:57:26Z</time>
      </trkpt>
      <trkpt lat="41.0093440" lon="0.3849310">
        <ele>290.8</ele>
        <time>2020-08-06T14:57:28Z</time>
      </trkpt>
      <trkpt lat="41.0093340" lon="0.3849250">
        <ele>290.8</ele>
        <time>2020-08-06T14:57:30Z</time>
      </trkpt>
      <trkpt lat="41.0093240" lon="0.3849200">
        <ele>290.9</ele>
        <time>2020-08-06T14:57:31Z</time>
      </trkpt>
      <trkpt lat="41.0093140" lon="0.3849140">
        <ele>290.9</ele>
        <time>2020-08-06T14:57:33Z</time>
      </trkpt>
      <trkpt lat="41.0093040" lon="0.3849090">
        <ele>290.9</ele>
        <time>2020-08-06T14:57:35Z</time>
      </trkpt>
      <trkpt lat="41.0092940" lon="0.3849030">
        <ele>290.9</ele>
        <time>2020-08-06T14:57:36Z</time>
      </trkpt>
      <trkpt lat="41.0092840" lon="0.3848980">
        <ele>291.0</ele>
        <time>2020-08-06T14:57:37Z</time>
      </trkpt>
      <trkpt lat="41.0092740" lon="0.3848920">
        <ele>291.0</ele>
        <time>2020-08-06T14:57:38Z</time>
      </trkpt>
      <trkpt lat="41.0092030" lon="0.3848140">
        <ele>291.1</ele>
        <time>2020-08-06T14:57:40Z</time>
      </trkpt>
      <trkpt lat="41.0091730" lon="0.3847810">
        <ele>291.1</ele>
        <time>2020-08-06T14:57:41Z</time>
      </trkpt>
      <trkpt lat="41.0091580" lon="0.3847660">
        <ele>291.1</ele>
        <time>2020-08-06T14:57:42Z</time>
      </trkpt>
      <trkpt lat="41.0091550" lon="0.3847640">
        <ele>291.1</ele>
        <time>2020-08-06T14:57:44Z</time>
      </trkpt>
      <trkpt lat="41.0091580" lon="0.3847670">
        <ele>291.1</ele>
        <time>2020-08-06T14:57:46Z</time>
      </trkpt>
      <trkpt lat="41.0091670" lon="0.3847780">
        <ele>291.1</ele>
        <time>2020-08-06T14:57:51Z</time>
      </trkpt>
      <trkpt lat="41.0091670" lon="0.3847780">
        <ele>291.1</ele>
        <time>2020-08-06T14:57:53Z</time>
      </trkpt>
      <trkpt lat="41.0091660" lon="0.3847780">
        <ele>291.1</ele>
        <time>2020-08-06T14:57:54Z</time>
      </trkpt>
      <trkpt lat="41.0091660" lon="0.3847780">
        <ele>291.1</ele>
        <time>2020-08-06T14:57:56Z</time>
      </trkpt>
      <trkpt lat="41.0091500" lon="0.3847540">
        <ele>291.1</ele>
        <time>2020-08-06T14:58:37Z</time>
      </trkpt>
      <trkpt lat="41.0091500" lon="0.3847450">
        <ele>291.1</ele>
        <time>2020-08-06T14:58:38Z</time>
      </trkpt>
      <trkpt lat="41.0091480" lon="0.3847370">
        <ele>291.1</ele>
        <time>2020-08-06T14:58:39Z</time>
      </trkpt>
      <trkpt lat="41.0091400" lon="0.3847290">
        <ele>291.1</ele>
        <time>2020-08-06T14:58:41Z</time>
      </trkpt>
      <trkpt lat="41.0091380" lon="0.3847270">
        <ele>291.1</ele>
        <time>2020-08-06T14:58:42Z</time>
      </trkpt>
      <trkpt lat="41.0091350" lon="0.3847250">
        <ele>291.1</ele>
        <time>2020-08-06T14:58:43Z</time>
      </trkpt>
      <trkpt lat="41.0091380" lon="0.3847410">
        <ele>291.1</ele>
        <time>2020-08-06T14:58:45Z</time>
      </trkpt>
      <trkpt lat="41.0091570" lon="0.3847570">
        <ele>291.1</ele>
        <time>2020-08-06T14:58:47Z</time>
      </trkpt>
      <trkpt lat="41.0091730" lon="0.3847570">
        <ele>291.1</ele>
        <time>2020-08-06T14:58:48Z</time>
      </trkpt>
      <trkpt lat="41.0091780" lon="0.3847550">
        <ele>291.1</ele>
        <time>2020-08-06T14:58:49Z</time>
      </trkpt>
      <trkpt lat="41.0091660" lon="0.3847600">
        <ele>291.1</ele>
        <time>2020-08-06T14:58:51Z</time>
      </trkpt>
      <trkpt lat="41.0091640" lon="0.3847620">
        <ele>291.1</ele>
        <time>2020-08-06T14:58:53Z</time>
      </trkpt>
      <trkpt lat="41.0091620" lon="0.3847620">
        <ele>291.1</ele>
        <time>2020-08-06T14:58:54Z</time>
      </trkpt>
      <trkpt lat="41.0091610" lon="0.3847630">
        <ele>291.1</ele>
        <time>2020-08-06T14:58:55Z</time>
      </trkpt>
      <trkpt lat="41.0091590" lon="0.3847640">
        <ele>291.1</ele>
        <time>2020-08-06T14:58:57Z</time>
      </trkpt>
      <trkpt lat="41.0091610" lon="0.3847630">
        <ele>291.1</ele>
        <time>2020-08-06T14:58:58Z</time>
      </trkpt>
      <trkpt lat="41.0091680" lon="0.3847600">
        <ele>291.1</ele>
        <time>2020-08-06T14:59:00Z</time>
      </trkpt>
      <trkpt lat="41.0092000" lon="0.3847270">
        <ele>291.1</ele>
        <time>2020-08-06T14:59:12Z</time>
      </trkpt>
      <trkpt lat="41.0092200" lon="0.3847240">
        <ele>291.1</ele>
        <time>2020-08-06T14:59:13Z</time>
      </trkpt>
      <trkpt lat="41.0092330" lon="0.3847260">
        <ele>291.1</ele>
        <time>2020-08-06T14:59:14Z</time>
      </trkpt>
      <trkpt lat="41.0092320" lon="0.3847280">
        <ele>291.1</ele>
        <time>2020-08-06T14:59:16Z</time>
      </trkpt>
      <trkpt lat="41.0092290" lon="0.3847270">
        <ele>291.1</ele>
        <time>2020-08-06T14:59:17Z</time>
      </trkpt>
      <trkpt lat="41.0092320" lon="0.3847170">
        <ele>291.1</ele>
        <time>2020-08-06T14:59:19Z</time>
      </trkpt>
      <trkpt lat="41.0092260" lon="0.3847220">
        <ele>291.1</ele>
        <time>2020-08-06T14:59:20Z</time>
      </trkpt>
      <trkpt lat="41.0092230" lon="0.3847250">
        <ele>291.1</ele>
        <time>2020-08-06T14:59:21Z</time>
      </trkpt>
      <trkpt lat="41.0092210" lon="0.3847260">
        <ele>291.1</ele>
        <time>2020-08-06T14:59:22Z</time>
      </trkpt>
      <trkpt lat="41.0092190" lon="0.3847240">
        <ele>291.1</ele>
        <time>2020-08-06T14:59:24Z</time>
      </trkpt>
      <trkpt lat="41.0091940" lon="0.3846640">
        <ele>291.1</ele>
        <time>2020-08-06T15:02:37Z</time>
      </trkpt>
      <trkpt lat="41.0091910" lon="0.3846520">
        <ele>291.1</ele>
        <time>2020-08-06T15:02:39Z</time>
      </trkpt>
      <trkpt lat="41.0091930" lon="0.3846390">
        <ele>291.1</ele>
        <time>2020-08-06T15:02:40Z</time>
      </trkpt>
      <trkpt lat="41.0091880" lon="0.3846420">
        <ele>291.1</ele>
        <time>2020-08-06T15:02:42Z</time>
      </trkpt>
      <trkpt lat="41.0091800" lon="0.3846590">
        <ele>291.1</ele>
        <time>2020-08-06T15:02:44Z</time>
      </trkpt>
      <trkpt lat="41.0091810" lon="0.3846930">
        <ele>291.1</ele>
        <time>2020-08-06T15:02:45Z</time>
      </trkpt>
      <trkpt lat="41.0091750" lon="0.3847210">
        <ele>291.1</ele>
        <time>2020-08-06T15:02:47Z</time>
      </trkpt>
      <trkpt lat="41.0091750" lon="0.3847500">
        <ele>291.1</ele>
        <time>2020-08-06T15:02:49Z</time>
      </trkpt>
      <trkpt lat="41.0091680" lon="0.3847610">
        <ele>291.1</ele>
        <time>2020-08-06T15:02:50Z</time>
      </trkpt>
      <trkpt lat="41.0091600" lon="0.3847780">
        <ele>291.1</ele>
        <time>2020-08-06T15:02:52Z</time>
      </trkpt>
      <trkpt lat="41.0091520" lon="0.3847800">
        <ele>291.1</ele>
        <time>2020-08-06T15:02:53Z</time>
      </trkpt>
      <trkpt lat="41.0091400" lon="0.3847860">
        <ele>291.1</ele>
        <time>2020-08-06T15:02:55Z</time>
      </trkpt>
      <trkpt lat="41.0091420" lon="0.3848080">
        <ele>291.0</ele>
        <time>2020-08-06T15:02:57Z</time>
      </trkpt>
      <trkpt lat="41.0091450" lon="0.3848260">
        <ele>291.0</ele>
        <time>2020-08-06T15:02:58Z</time>
      </trkpt>
      <trkpt lat="41.0091270" lon="0.3848600">
        <ele>291.0</ele>
        <time>2020-08-06T15:02:59Z</time>
      </trkpt>
      <trkpt lat="41.0091070" lon="0.3848880">
        <ele>291.0</ele>
        <time>2020-08-06T15:03:01Z</time>
      </trkpt>
      <trkpt lat="41.0090870" lon="0.3849160">
        <ele>291.0</ele>
        <time>2020-08-06T15:03:02Z</time>
      </trkpt>
      <trkpt lat="41.0090670" lon="0.3849440">
        <ele>291.0</ele>
        <time>2020-08-06T15:03:04Z</time>
      </trkpt>
      <trkpt lat="41.0090470" lon="0.3849720">
        <ele>291.0</ele>
        <time>2020-08-06T15:03:13Z</time>
      </trkpt>
      <trkpt lat="41.0090270" lon="0.3850000">
        <ele>291.0</ele>
        <time>2020-08-06T15:03:14Z</time>
      </trkpt>
      <trkpt lat="41.0090080" lon="0.3850180">
        <ele>291.0</ele>
        <time>2020-08-06T15:03:16Z</time>
      </trkpt>
      <trkpt lat="41.0090090" lon="0.3850160">
        <ele>291.0</ele>
        <time>2020-08-06T15:03:17Z</time>
      </trkpt>
      <trkpt lat="41.0090130" lon="0.3850120">
        <ele>291.0</ele>
        <time>2020-08-06T15:03:18Z</time>
      </trkpt>
      <trkpt lat="41.0090510" lon="0.3849800">
        <ele>291.0</ele>
        <time>2020-08-06T15:03:19Z</time>
      </trkpt>
      <trkpt lat="41.0090870" lon="0.3849550">
        <ele>291.0</ele>
        <time>2020-08-06T15:03:21Z</time>
      </trkpt>
      <trkpt lat="41.0090950" lon="0.3849710">
        <ele>291.0</ele>
        <time>2020-08-06T15:03:22Z</time>
      </trkpt>
      <trkpt lat="41.0091040" lon="0.3849980">
        <ele>291.0</ele>
        <time>2020-08-06T15:03:24Z</time>
      </trkpt>
      <trkpt lat="41.0091020" lon="0.3850220">
        <ele>290.9</ele>
        <time>2020-08-06T15:03:25Z</time>
      </trkpt>
      <trkpt lat="41.0090940" lon="0.3850400">
        <ele>290.9</ele>
        <time>2020-08-06T15:03:26Z</time>
      </trkpt>
      <trkpt lat="41.0090720" lon="0.3850910">
        <ele>290.9</ele>
        <time>2020-08-06T15:03:28Z</time>
      </trkpt>
      <trkpt lat="41.0090520" lon="0.3851030">
        <ele>290.9</ele>
        <time>2020-08-06T15:03:29Z</time>
      </trkpt>
      <trkpt lat="41.0090420" lon="0.3850940">
        <ele>290.8</ele>
        <time>2020-08-06T15:03:30Z</time>
      </trkpt>
      <trkpt lat="41.0090290" lon="0.3850830">
        <ele>290.8</ele>
        <time>2020-08-06T15:03:32Z</time>
      </trkpt>
      <trkpt lat="41.0090110" lon="0.3850680">
        <ele>290.8</ele>
        <time>2020-08-06T15:03:34Z</time>
      </trkpt>
      <trkpt lat="41.0089960" lon="0.3850620">
        <ele>290.8</ele>
        <time>2020-08-06T15:03:36Z</time>
      </trkpt>
      <trkpt lat="41.0089910" lon="0.3850570">
        <ele>290.8</ele>
        <time>2020-08-06T15:03:37Z</time>
      </trkpt>
      <trkpt lat="41.0089870" lon="0.3850520">
        <ele>290.8</ele>
        <time>2020-08-06T15:03:38Z</time>
      </trkpt>
      <trkpt lat="41.0089820" lon="0.3850490">
        <ele>290.8</ele>
        <time>2020-08-06T15:03:39Z</time>
      </trkpt>
      <trkpt lat="41.0089770" lon="0.3850460">
        <ele>290.8</ele>
        <time>2020-08-06T15:03:40Z</time>
      </trkpt>
      <trkpt lat="41.0089630" lon="0.3850380">
        <ele>290.7</ele>
        <time>2020-08-06T15:03:42Z</time>
      </trkpt>
      <trkpt lat="41.0089580" lon="0.3850360">
        <ele>290.7</ele>
        <time>2020-08-06T15:03:43Z</time>
      </trkpt>
      <trkpt lat="41.0089540" lon="0.3850350">
        <ele>290.7</ele>
        <time>2020-08-06T15:03:44Z</time>
      </trkpt>
      <trkpt lat="41.0089200" lon="0.3850480">
        <ele>290.7</ele>
        <time>2020-08-06T15:03:52Z</time>
      </trkpt>
      <trkpt lat="41.0089090" lon="0.3850480">
        <ele>290.7</ele>
        <time>2020-08-06T15:03:53Z</time>
      </trkpt>
      <trkpt lat="41.0089000" lon="0.3850520">
        <ele>290.7</ele>
        <time>2020-08-06T15:03:54Z</time>
      </trkpt>
      <trkpt lat="41.0088910" lon="0.3850600">
        <ele>290.6</ele>
        <time>2020-08-06T15:03:56Z</time>
      </trkpt>
      <trkpt lat="41.0088890" lon="0.3850590">
        <ele>290.6</ele>
        <time>2020-08-06T15:03:57Z</time>
      </trkpt>
      <trkpt lat="41.0088870" lon="0.3850580">
        <ele>290.6</ele>
        <time>2020-08-06T15:03:58Z</time>
      </trkpt>
      <trkpt lat="41.0088850" lon="0.3850580">
        <ele>290.6</ele>
        <time>2020-08-06T15:03:59Z</time>
      </trkpt>
      <trkpt lat="41.0088840" lon="0.3850580">
        <ele>290.6</ele>
        <time>2020-08-06T15:04:00Z</time>
      </trkpt>
      <trkpt lat="41.0088810" lon="0.3850580">
        <ele>290.6</ele>
        <time>2020-08-06T15:04:01Z</time>
      </trkpt>
      <trkpt lat="41.0088790" lon="0.3850580">
        <ele>290.6</ele>
        <time>2020-08-06T15:04:02Z</time>
      </trkpt>
      <trkpt lat="41.0088780" lon="0.3850580">
        <ele>290.6</ele>
        <time>2020-08-06T15:04:03Z</time>
      </trkpt>
      <trkpt lat="41.0088760" lon="0.3850590">
        <ele>290.6</ele>
        <time>2020-08-06T15:04:04Z</time>
      </trkpt>
      <trkpt lat="41.0088330" lon="0.3850570">
        <ele>290.6</ele>
        <time>2020-08-06T15:04:36Z</time>
      </trkpt>
      <trkpt lat="41.0088260" lon="0.3850560">
        <ele>290.6</ele>
        <time>2020-08-06T15:04:37Z</time>
      </trkpt>
      <trkpt lat="41.0088140" lon="0.3850560">
        <ele>290.6</ele>
        <time>2020-08-06T15:04:38Z</time>
      </trkpt>
      <trkpt lat="41.0087750" lon="0.3850550">
        <ele>290.5</ele>
        <time>2020-08-06T15:04:41Z</time>
      </trkpt>
      <trkpt lat="41.0087580" lon="0.3850610">
        <ele>290.5</ele>
        <time>2020-08-06T15:04:43Z</time>
      </trkpt>
      <trkpt lat="41.0087390" lon="0.3850700">
        <ele>290.5</ele>
        <time>2020-08-06T15:04:44Z</time>
      </trkpt>
      <trkpt lat="41.0087250" lon="0.3850750">
        <ele>290.4</ele>
        <time>2020-08-06T15:04:45Z</time>
      </trkpt>
      <trkpt lat="41.0087130" lon="0.3850760">
        <ele>290.4</ele>
        <time>2020-08-06T15:04:46Z</time>
      </trkpt>
      <trkpt lat="41.0086990" lon="0.3850790">
        <ele>290.4</ele>
        <time>2020-08-06T15:04:47Z</time>
      </trkpt>
      <trkpt lat="41.0086790" lon="0.3850800">
        <ele>290.4</ele>
        <time>2020-08-06T15:04:49Z</time>
      </trkpt>
      <trkpt lat="41.0086660" lon="0.3850750">
        <ele>290.4</ele>
        <time>2020-08-06T15:04:50Z</time>
      </trkpt>
      <trkpt lat="41.0086580" lon="0.3850680">
        <ele>290.4</ele>
        <time>2020-08-06T15:04:51Z</time>
      </trkpt>
      <trkpt lat="41.0086540" lon="0.3850680">
        <ele>290.4</ele>
        <time>2020-08-06T15:04:52Z</time>
      </trkpt>
      <trkpt lat="41.0086450" lon="0.3850740">
        <ele>290.4</ele>
        <time>2020-08-06T15:04:54Z</time>
      </trkpt>
      <trkpt lat="41.0086320" lon="0.3850830">
        <ele>290.4</ele>
        <time>2020-08-06T15:04:56Z</time>
      </trkpt>
      <trkpt lat="41.0086260" lon="0.3850870">
        <ele>290.4</ele>
        <time>2020-08-06T15:04:57Z</time>
      </trkpt>
      <trkpt lat="41.0086140" lon="0.3850940">
        <ele>290.3</ele>
        <time>2020-08-06T15:04:59Z</time>
      </trkpt>
      <trkpt lat="41.0086090" lon="0.3850970">
        <ele>290.3</ele>
        <time>2020-08-06T15:05:00Z</time>
      </trkpt>
      <trkpt lat="41.0086050" lon="0.3850990">
        <ele>290.3</ele>
        <time>2020-08-06T15:05:01Z</time>
      </trkpt>
      <trkpt lat="41.0085190" lon="0.3851410">
        <ele>290.3</ele>
        <time>2020-08-06T15:05:12Z</time>
      </trkpt>
      <trkpt lat="41.0084980" lon="0.3851520">
        <ele>290.2</ele>
        <time>2020-08-06T15:05:13Z</time>
      </trkpt>
      <trkpt lat="41.0084730" lon="0.3851530">
        <ele>290.2</ele>
        <time>2020-08-06T15:05:15Z</time>
      </trkpt>
      <trkpt lat="41.0084650" lon="0.3851480">
        <ele>290.2</ele>
        <time>2020-08-06T15:05:16Z</time>
      </trkpt>
      <trkpt lat="41.0084560" lon="0.3851470">
        <ele>290.2</ele>
        <time>2020-08-06T15:05:17Z</time>
      </trkpt>
      <trkpt lat="41.0084400" lon="0.3851560">
        <ele>290.2</ele>
        <time>2020-08-06T15:05:19Z</time>
      </trkpt>
      <trkpt lat="41.0084420" lon="0.3851580">
        <ele>290.2</ele>
        <time>2020-08-06T15:05:21Z</time>
      </trkpt>
      <trkpt lat="41.0084570" lon="0.3851530">
        <ele>290.2</ele>
        <time>2020-08-06T15:05:22Z</time>
      </trkpt>
      <trkpt lat="41.0084630" lon="0.3851530">
        <ele>290.2</ele>
        <time>2020-08-06T15:05:23Z</time>
      </trkpt>
      <trkpt lat="41.0084750" lon="0.3851470">
        <ele>290.2</ele>
        <time>2020-08-06T15:05:25Z</time>
      </trkpt>
      <trkpt lat="41.0084840" lon="0.3851410">
        <ele>290.2</ele>
        <time>2020-08-06T15:05:26Z</time>
      </trkpt>
      <trkpt lat="41.0084910" lon="0.3851350">
        <ele>290.2</ele>
        <time>2020-08-06T15:05:28Z</time>
      </trkpt>
      <trkpt lat="41.0084940" lon="0.3851310">
        <ele>290.2</ele>
        <time>2020-08-06T15:05:30Z</time>
      </trkpt>
      <trkpt lat="41.0084950" lon="0.3851340">
        <ele>290.2</ele>
        <time>2020-08-06T15:05:32Z</time>
      </trkpt>
      <trkpt lat="41.0084950" lon="0.3851340">
        <ele>290.2</ele>
        <time>2020-08-06T15:05:33Z</time>
      </trkpt>
      <trkpt lat="41.0084220" lon="0.3851900">
        <ele>290.1</ele>
        <time>2020-08-06T15:05:43Z</time>
      </trkpt>
      <trkpt lat="41.0084050" lon="0.3852050">
        <ele>289.7</ele>
        <time>2020-08-06T15:05:44Z</time>
      </trkpt>
      <trkpt lat="41.0083970" lon="0.3852120">
        <ele>289.7</ele>
        <time>2020-08-06T15:05:45Z</time>
      </trkpt>
      <trkpt lat="41.0083960" lon="0.3852130">
        <ele>289.6</ele>
        <time>2020-08-06T15:05:46Z</time>
      </trkpt>
      <trkpt lat="41.0083960" lon="0.3852130">
        <ele>289.6</ele>
        <time>2020-08-06T15:05:47Z</time>
      </trkpt>
      <trkpt lat="41.0084010" lon="0.3852090">
        <ele>289.6</ele>
        <time>2020-08-06T15:05:49Z</time>
      </trkpt>
      <trkpt lat="41.0084020" lon="0.3852080">
        <ele>289.6</ele>
        <time>2020-08-06T15:05:51Z</time>
      </trkpt>
      <trkpt lat="41.0084020" lon="0.3852080">
        <ele>289.6</ele>
        <time>2020-08-06T15:05:53Z</time>
      </trkpt>
      <trkpt lat="41.0084020" lon="0.3852080">
        <ele>289.6</ele>
        <time>2020-08-06T15:05:54Z</time>
      </trkpt>
      <trkpt lat="41.0084020" lon="0.3852080">
        <ele>289.6</ele>
        <time>2020-08-06T15:05:56Z</time>
      </trkpt>
      <trkpt lat="41.0084020" lon="0.3852080">
        <ele>289.6</ele>
        <time>2020-08-06T15:05:57Z</time>
      </trkpt>
      <trkpt lat="41.0083800" lon="0.3851830">
        <ele>289.4</ele>
        <time>2020-08-06T15:07:16Z</time>
      </trkpt>
      <trkpt lat="41.0083830" lon="0.3851780">
        <ele>289.3</ele>
        <time>2020-08-06T15:07:17Z</time>
      </trkpt>
      <trkpt lat="41.0083880" lon="0.3851730">
        <ele>289.3</ele>
        <time>2020-08-06T15:07:18Z</time>
      </trkpt>
      <trkpt lat="41.0084270" lon="0.3851430">
        <ele>288.9</ele>
        <time>2020-08-06T15:07:21Z</time>
      </trkpt>
      <trkpt lat="41.0084500" lon="0.3851210">
        <ele>288.7</ele>
        <time>2020-08-06T15:07:23Z</time>
      </trkpt>
      <trkpt lat="41.0084620" lon="0.3851150">
        <ele>288.6</ele>
        <time>2020-08-06T15:07:24Z</time>
      </trkpt>
      <trkpt lat="41.0084730" lon="0.3851040">
        <ele>288.5</ele>
        <time>2020-08-06T15:07:26Z</time>
      </trkpt>
      <trkpt lat="41.0084790" lon="0.3851010">
        <ele>288.4</ele>
        <time>2020-08-06T15:07:27Z</time>
      </trkpt>
      <trkpt lat="41.0084800" lon="0.3850990">
        <ele>288.4</ele>
        <time>2020-08-06T15:07:29Z</time>
      </trkpt>
      <trkpt lat="41.0084890" lon="0.3850950">
        <ele>288.3</ele>
        <time>2020-08-06T15:07:30Z</time>
      </trkpt>
      <trkpt lat="41.0084960" lon="0.3850920">
        <ele>288.3</ele>
        <time>2020-08-06T15:07:31Z</time>
      </trkpt>
      <trkpt lat="41.0085030" lon="0.3850860">
        <ele>288.2</ele>
        <time>2020-08-06T15:07:33Z</time>
      </trkpt>
      <trkpt lat="41.0085020" lon="0.3850820">
        <ele>288.2</ele>
        <time>2020-08-06T15:07:34Z</time>
      </trkpt>
      <trkpt lat="41.0085040" lon="0.3850750">
        <ele>288.1</ele>
        <time>2020-08-06T15:07:35Z</time>
      </trkpt>
      <trkpt lat="41.0085020" lon="0.3850650">
        <ele>288.1</ele>
        <time>2020-08-06T15:07:36Z</time>
      </trkpt>
      <trkpt lat="41.0084990" lon="0.3850470">
        <ele>288.0</ele>
        <time>2020-08-06T15:07:38Z</time>
      </trkpt>
      <trkpt lat="41.0084840" lon="0.3849760">
        <ele>287.5</ele>
        <time>2020-08-06T15:07:40Z</time>
      </trkpt>
      <trkpt lat="41.0084800" lon="0.3849440">
        <ele>287.3</ele>
        <time>2020-08-06T15:07:41Z</time>
      </trkpt>
      <trkpt lat="41.0084750" lon="0.3848800">
        <ele>286.9</ele>
        <time>2020-08-06T15:07:43Z</time>
      </trkpt>
      <trkpt lat="41.0084730" lon="0.3848520">
        <ele>286.8</ele>
        <time>2020-08-06T15:07:44Z</time>
      </trkpt>
      <trkpt lat="41.0084730" lon="0.3847920">
        <ele>286.9</ele>
        <time>2020-08-06T15:07:46Z</time>
      </trkpt>
      <trkpt lat="41.0084750" lon="0.3847310">
        <ele>287.0</ele>
        <time>2020-08-06T15:07:48Z</time>
      </trkpt>
      <trkpt lat="41.0084770" lon="0.3846820">
        <ele>287.1</ele>
        <time>2020-08-06T15:07:49Z</time>
      </trkpt>
      <trkpt lat="41.0084770" lon="0.3846640">
        <ele>287.1</ele>
        <time>2020-08-06T15:07:50Z</time>
      </trkpt>
      <trkpt lat="41.0084790" lon="0.3845930">
        <ele>287.2</ele>
        <time>2020-08-06T15:07:52Z</time>
      </trkpt>
      <trkpt lat="41.0084680" lon="0.3846550">
        <ele>287.3</ele>
        <time>2020-08-06T15:07:53Z</time>
      </trkpt>
      <trkpt lat="41.0084520" lon="0.3847420">
        <ele>287.4</ele>
        <time>2020-08-06T15:07:54Z</time>
      </trkpt>
      <trkpt lat="41.0084420" lon="0.3847510">
        <ele>287.4</ele>
        <time>2020-08-06T15:07:56Z</time>
      </trkpt>
      <trkpt lat="41.0084430" lon="0.3847470">
        <ele>287.4</ele>
        <time>2020-08-06T15:07:57Z</time>
      </trkpt>
      <trkpt lat="41.0084470" lon="0.3847590">
        <ele>287.4</ele>
        <time>2020-08-06T15:07:58Z</time>
      </trkpt>
      <trkpt lat="41.0084540" lon="0.3847690">
        <ele>287.5</ele>
        <time>2020-08-06T15:07:59Z</time>
      </trkpt>
      <trkpt lat="41.0084600" lon="0.3847780">
        <ele>287.5</ele>
        <time>2020-08-06T15:08:00Z</time>
      </trkpt>
      <trkpt lat="41.0084700" lon="0.3847880">
        <ele>287.5</ele>
        <time>2020-08-06T15:08:02Z</time>
      </trkpt>
      <trkpt lat="41.0084750" lon="0.3847960">
        <ele>287.5</ele>
        <time>2020-08-06T15:08:04Z</time>
      </trkpt>
      <trkpt lat="41.0084780" lon="0.3847930">
        <ele>287.5</ele>
        <time>2020-08-06T15:08:06Z</time>
      </trkpt>
      <trkpt lat="41.0084840" lon="0.3847800">
        <ele>287.5</ele>
        <time>2020-08-06T15:08:08Z</time>
      </trkpt>
      <trkpt lat="41.0084870" lon="0.3847710">
        <ele>287.6</ele>
        <time>2020-08-06T15:08:10Z</time>
      </trkpt>
      <trkpt lat="41.0084860" lon="0.3847690">
        <ele>287.6</ele>
        <time>2020-08-06T15:08:11Z</time>
      </trkpt>
      <trkpt lat="41.0084840" lon="0.3847680">
        <ele>287.6</ele>
        <time>2020-08-06T15:08:12Z</time>
      </trkpt>
      <trkpt lat="41.0084820" lon="0.3847640">
        <ele>287.6</ele>
        <time>2020-08-06T15:08:14Z</time>
      </trkpt>
      <trkpt lat="41.0084990" lon="0.3846120">
        <ele>287.8</ele>
        <time>2020-08-06T15:08:16Z</time>
      </trkpt>
      <trkpt lat="41.0085110" lon="0.3845190">
        <ele>287.9</ele>
        <time>2020-08-06T15:08:17Z</time>
      </trkpt>
      <trkpt lat="41.0085210" lon="0.3844390">
        <ele>288.0</ele>
        <time>2020-08-06T15:08:18Z</time>
      </trkpt>
      <trkpt lat="41.0085260" lon="0.3843950">
        <ele>288.3</ele>
        <time>2020-08-06T15:08:19Z</time>
      </trkpt>
      <trkpt lat="41.0085280" lon="0.3843790">
        <ele>288.3</ele>
        <time>2020-08-06T15:08:20Z</time>
      </trkpt>
      <trkpt lat="41.0085270" lon="0.3843880">
        <ele>288.4</ele>
        <time>2020-08-06T15:08:22Z</time>
      </trkpt>
      <trkpt lat="41.0085250" lon="0.3844020">
        <ele>288.4</ele>
        <time>2020-08-06T15:08:24Z</time>
      </trkpt>
      <trkpt lat="41.0085230" lon="0.3844090">
        <ele>288.4</ele>
        <time>2020-08-06T15:08:26Z</time>
      </trkpt>
      <trkpt lat="41.0085230" lon="0.3844110">
        <ele>288.4</ele>
        <time>2020-08-06T15:08:28Z</time>
      </trkpt>
      <trkpt lat="41.0085230" lon="0.3844120">
        <ele>288.4</ele>
        <time>2020-08-06T15:08:30Z</time>
      </trkpt>
      <trkpt lat="41.0085230" lon="0.3844120">
        <ele>288.4</ele>
        <time>2020-08-06T15:08:31Z</time>
      </trkpt>
      <trkpt lat="41.0085230" lon="0.3844120">
        <ele>288.4</ele>
        <time>2020-08-06T15:08:32Z</time>
      </trkpt>
      <trkpt lat="41.0085250" lon="0.3844360">
        <ele>288.4</ele>
        <time>2020-08-06T15:09:05Z</time>
      </trkpt>
      <trkpt lat="41.0085280" lon="0.3844360">
        <ele>288.4</ele>
        <time>2020-08-06T15:09:06Z</time>
      </trkpt>
      <trkpt lat="41.0085300" lon="0.3844340">
        <ele>288.4</ele>
        <time>2020-08-06T15:09:07Z</time>
      </trkpt>
      <trkpt lat="41.0085340" lon="0.3844350">
        <ele>288.4</ele>
        <time>2020-08-06T15:09:09Z</time>
      </trkpt>
      <trkpt lat="41.0085420" lon="0.3844370">
        <ele>288.4</ele>
        <time>2020-08-06T15:09:11Z</time>
      </trkpt>
      <trkpt lat="41.0085910" lon="0.3844090">
        <ele>288.9</ele>
        <time>2020-08-06T15:09:13Z</time>
      </trkpt>
      <trkpt lat="41.0086270" lon="0.3843700">
        <ele>289.5</ele>
        <time>2020-08-06T15:09:14Z</time>
      </trkpt>
      <trkpt lat="41.0086950" lon="0.3843140">
        <ele>290.7</ele>
        <time>2020-08-06T15:09:16Z</time>
      </trkpt>
      <trkpt lat="41.0087350" lon="0.3842810">
        <ele>291.3</ele>
        <time>2020-08-06T15:09:17Z</time>
      </trkpt>
      <trkpt lat="41.0087620" lon="0.3842670">
        <ele>291.8</ele>
        <time>2020-08-06T15:09:18Z</time>
      </trkpt>
      <trkpt lat="41.0088140" lon="0.3842440">
        <ele>292.0</ele>
        <time>2020-08-06T15:09:20Z</time>
      </trkpt>
      <trkpt lat="41.0088500" lon="0.3842300">
        <ele>292.1</ele>
        <time>2020-08-06T15:09:22Z</time>
      </trkpt>
      <trkpt lat="41.0088690" lon="0.3842260">
        <ele>292.2</ele>
        <time>2020-08-06T15:09:23Z</time>
      </trkpt>
      <trkpt lat="41.0089180" lon="0.3842250">
        <ele>292.3</ele>
        <time>2020-08-06T15:09:25Z</time>
      </trkpt>
      <trkpt lat="41.0089530" lon="0.3842210">
        <ele>292.1</ele>
        <time>2020-08-06T15:09:26Z</time>
      </trkpt>
      <trkpt lat="41.0089640" lon="0.3842190">
        <ele>292.0</ele>
        <time>2020-08-06T15:09:27Z</time>
      </trkpt>
      <trkpt lat="41.0089850" lon="0.3842180">
        <ele>291.9</ele>
        <time>2020-08-06T15:09:28Z</time>
      </trkpt>
      <trkpt lat="41.0089990" lon="0.3842150">
        <ele>291.9</ele>
        <time>2020-08-06T15:09:29Z</time>
      </trkpt>
      <trkpt lat="41.0090210" lon="0.3842010">
        <ele>291.7</ele>
        <time>2020-08-06T15:09:31Z</time>
      </trkpt>
      <trkpt lat="41.0090200" lon="0.3842000">
        <ele>291.7</ele>
        <time>2020-08-06T15:09:32Z</time>
      </trkpt>
      <trkpt lat="41.0090210" lon="0.3842110">
        <ele>291.7</ele>
        <time>2020-08-06T15:09:33Z</time>
      </trkpt>
      <trkpt lat="41.0090270" lon="0.3842250">
        <ele>291.7</ele>
        <time>2020-08-06T15:09:34Z</time>
      </trkpt>
      <trkpt lat="41.0090430" lon="0.3842600">
        <ele>291.1</ele>
        <time>2020-08-06T15:09:36Z</time>
      </trkpt>
      <trkpt lat="41.0090500" lon="0.3842830">
        <ele>291.1</ele>
        <time>2020-08-06T15:09:37Z</time>
      </trkpt>
      <trkpt lat="41.0090600" lon="0.3843290">
        <ele>291.1</ele>
        <time>2020-08-06T15:09:39Z</time>
      </trkpt>
      <trkpt lat="41.0090630" lon="0.3843530">
        <ele>291.2</ele>
        <time>2020-08-06T15:09:40Z</time>
      </trkpt>
      <trkpt lat="41.0090720" lon="0.3844000">
        <ele>291.2</ele>
        <time>2020-08-06T15:09:42Z</time>
      </trkpt>
      <trkpt lat="41.0090870" lon="0.3844570">
        <ele>291.2</ele>
        <time>2020-08-06T15:09:44Z</time>
      </trkpt>
      <trkpt lat="41.0090960" lon="0.3844870">
        <ele>291.3</ele>
        <time>2020-08-06T15:09:45Z</time>
      </trkpt>
      <trkpt lat="41.0091080" lon="0.3845230">
        <ele>291.3</ele>
        <time>2020-08-06T15:09:47Z</time>
      </trkpt>
      <trkpt lat="41.0091200" lon="0.3845540">
        <ele>291.3</ele>
        <time>2020-08-06T15:09:49Z</time>
      </trkpt>
      <trkpt lat="41.0091270" lon="0.3845770">
        <ele>291.3</ele>
        <time>2020-08-06T15:09:51Z</time>
      </trkpt>
      <trkpt lat="41.0090390" lon="0.3845020">
        <ele>291.4</ele>
        <time>2020-08-06T15:09:53Z</time>
      </trkpt>
      <trkpt lat="41.0090230" lon="0.3844880">
        <ele>291.5</ele>
        <time>2020-08-06T15:09:54Z</time>
      </trkpt>
      <trkpt lat="41.0090110" lon="0.3844720">
        <ele>291.6</ele>
        <time>2020-08-06T15:09:56Z</time>
      </trkpt>
      <trkpt lat="41.0090130" lon="0.3844740">
        <ele>291.6</ele>
        <time>2020-08-06T15:09:57Z</time>
      </trkpt>
      <trkpt lat="41.0090160" lon="0.3844730">
        <ele>291.6</ele>
        <time>2020-08-06T15:09:58Z</time>
      </trkpt>
      <trkpt lat="41.0090200" lon="0.3844710">
        <ele>291.6</ele>
        <time>2020-08-06T15:09:59Z</time>
      </trkpt>
      <trkpt lat="41.0090310" lon="0.3844710">
        <ele>291.6</ele>
        <time>2020-08-06T15:10:01Z</time>
      </trkpt>
      <trkpt lat="41.0090310" lon="0.3844660">
        <ele>291.6</ele>
        <time>2020-08-06T15:10:02Z</time>
      </trkpt>
      <trkpt lat="41.0090320" lon="0.3844620">
        <ele>291.7</ele>
        <time>2020-08-06T15:10:03Z</time>
      </trkpt>
      <trkpt lat="41.0090350" lon="0.3844540">
        <ele>291.7</ele>
        <time>2020-08-06T15:10:05Z</time>
      </trkpt>
      <trkpt lat="41.0090550" lon="0.3844480">
        <ele>291.7</ele>
        <time>2020-08-06T15:10:07Z</time>
      </trkpt>
      <trkpt lat="41.0090660" lon="0.3844450">
        <ele>291.7</ele>
        <time>2020-08-06T15:10:08Z</time>
      </trkpt>
      <trkpt lat="41.0090750" lon="0.3844410">
        <ele>291.7</ele>
        <time>2020-08-06T15:10:09Z</time>
      </trkpt>
      <trkpt lat="41.0091320" lon="0.3844710">
        <ele>291.7</ele>
        <time>2020-08-06T15:10:11Z</time>
      </trkpt>
      <trkpt lat="41.0092530" lon="0.3845320">
        <ele>291.8</ele>
        <time>2020-08-06T15:10:13Z</time>
      </trkpt>
      <trkpt lat="41.0093010" lon="0.3845570">
        <ele>291.9</ele>
        <time>2020-08-06T15:10:14Z</time>
      </trkpt>
      <trkpt lat="41.0093220" lon="0.3845660">
        <ele>291.9</ele>
        <time>2020-08-06T15:10:15Z</time>
      </trkpt>
      <trkpt lat="41.0093220" lon="0.3845640">
        <ele>291.9</ele>
        <time>2020-08-06T15:10:17Z</time>
      </trkpt>
      <trkpt lat="41.0093150" lon="0.3845600">
        <ele>291.9</ele>
        <time>2020-08-06T15:10:18Z</time>
      </trkpt>
      <trkpt lat="41.0093100" lon="0.3845560">
        <ele>291.9</ele>
        <time>2020-08-06T15:10:19Z</time>
      </trkpt>
      <trkpt lat="41.0093020" lon="0.3845520">
        <ele>291.9</ele>
        <time>2020-08-06T15:10:21Z</time>
      </trkpt>
      <trkpt lat="41.0093010" lon="0.3845520">
        <ele>291.9</ele>
        <time>2020-08-06T15:10:23Z</time>
      </trkpt>
      <trkpt lat="41.0093010" lon="0.3845520">
        <ele>291.9</ele>
        <time>2020-08-06T15:10:25Z</time>
      </trkpt>
      <trkpt lat="41.0093010" lon="0.3845520">
        <ele>291.9</ele>
        <time>2020-08-06T15:10:27Z</time>
      </trkpt>
      <trkpt lat="41.0093020" lon="0.3845520">
        <ele>291.9</ele>
        <time>2020-08-06T15:10:29Z</time>
      </trkpt>
      <trkpt lat="41.0093230" lon="0.3845260">
        <ele>291.9</ele>
        <time>2020-08-06T15:38:11Z</time>
      </trkpt>
      <trkpt lat="41.0093330" lon="0.3845210">
        <ele>291.9</ele>
        <time>2020-08-06T15:38:13Z</time>
      </trkpt>
      <trkpt lat="41.0093380" lon="0.3845180">
        <ele>292.0</ele>
        <time>2020-08-06T15:38:14Z</time>
      </trkpt>
      <trkpt lat="41.0093430" lon="0.3845160">
        <ele>292.0</ele>
        <time>2020-08-06T15:38:15Z</time>
      </trkpt>
      <trkpt lat="41.0093510" lon="0.3845140">
        <ele>292.0</ele>
        <time>2020-08-06T15:38:16Z</time>
      </trkpt>
      <trkpt lat="41.0093610" lon="0.3845130">
        <ele>292.0</ele>
        <time>2020-08-06T15:38:17Z</time>
      </trkpt>
      <trkpt lat="41.0093690" lon="0.3845100">
        <ele>292.0</ele>
        <time>2020-08-06T15:38:18Z</time>
      </trkpt>
      <trkpt lat="41.0093790" lon="0.3845070">
        <ele>292.0</ele>
        <time>2020-08-06T15:38:19Z</time>
      </trkpt>
      <trkpt lat="41.0094000" lon="0.3844990">
        <ele>292.0</ele>
        <time>2020-08-06T15:38:20Z</time>
      </trkpt>
      <trkpt lat="41.0094090" lon="0.3844930">
        <ele>292.0</ele>
        <time>2020-08-06T15:38:21Z</time>
      </trkpt>
      <trkpt lat="41.0094190" lon="0.3844880">
        <ele>292.0</ele>
        <time>2020-08-06T15:38:22Z</time>
      </trkpt>
      <trkpt lat="41.0094340" lon="0.3844810">
        <ele>292.0</ele>
        <time>2020-08-06T15:38:24Z</time>
      </trkpt>
      <trkpt lat="41.0094410" lon="0.3844790">
        <ele>292.0</ele>
        <time>2020-08-06T15:38:25Z</time>
      </trkpt>
      <trkpt lat="41.0094520" lon="0.3844770">
        <ele>292.1</ele>
        <time>2020-08-06T15:38:27Z</time>
      </trkpt>
      <trkpt lat="41.0094530" lon="0.3844770">
        <ele>292.1</ele>
        <time>2020-08-06T15:38:28Z</time>
      </trkpt>
      <trkpt lat="41.0094520" lon="0.3844770">
        <ele>292.1</ele>
        <time>2020-08-06T15:38:29Z</time>
      </trkpt>
      <trkpt lat="41.0094500" lon="0.3844780">
        <ele>292.1</ele>
        <time>2020-08-06T15:38:31Z</time>
      </trkpt>
      <trkpt lat="41.0094480" lon="0.3844780">
        <ele>292.1</ele>
        <time>2020-08-06T15:38:32Z</time>
      </trkpt>
      <trkpt lat="41.0094480" lon="0.3844780">
        <ele>292.1</ele>
        <time>2020-08-06T15:38:33Z</time>
      </trkpt>
      <trkpt lat="41.0094480" lon="0.3844780">
        <ele>292.1</ele>
        <time>2020-08-06T15:38:35Z</time>
      </trkpt>
      <trkpt lat="41.0094480" lon="0.3844780">
        <ele>292.1</ele>
        <time>2020-08-06T15:38:36Z</time>
      </trkpt>
      <trkpt lat="41.0094480" lon="0.3844780">
        <ele>292.1</ele>
        <time>2020-08-06T15:38:37Z</time>
      </trkpt>
      <trkpt lat="41.0094480" lon="0.3844780">
        <ele>292.1</ele>
        <time>2020-08-06T15:38:39Z</time>
      </trkpt>
      <trkpt lat="41.0094750" lon="0.3844540">
        <ele>292.1</ele>
        <time>2020-08-06T15:38:55Z</time>
      </trkpt>
      <trkpt lat="41.0094850" lon="0.3844400">
        <ele>292.1</ele>
        <time>2020-08-06T15:38:57Z</time>
      </trkpt>
      <trkpt lat="41.0094900" lon="0.3844330">
        <ele>292.1</ele>
        <time>2020-08-06T15:38:58Z</time>
      </trkpt>
      <trkpt lat="41.0094930" lon="0.3844080">
        <ele>292.2</ele>
        <time>2020-08-06T15:39:00Z</time>
      </trkpt>
      <trkpt lat="41.0094930" lon="0.3843780">
        <ele>292.2</ele>
        <time>2020-08-06T15:39:02Z</time>
      </trkpt>
      <trkpt lat="41.0094960" lon="0.3843710">
        <ele>292.2</ele>
        <time>2020-08-06T15:39:03Z</time>
      </trkpt>
      <trkpt lat="41.0094950" lon="0.3843520">
        <ele>292.2</ele>
        <time>2020-08-06T15:39:04Z</time>
      </trkpt>
      <trkpt lat="41.0094930" lon="0.3843290">
        <ele>292.2</ele>
        <time>2020-08-06T15:39:05Z</time>
      </trkpt>
      <trkpt lat="41.0094870" lon="0.3842960">
        <ele>292.2</ele>
        <time>2020-08-06T15:39:07Z</time>
      </trkpt>
      <trkpt lat="41.0094700" lon="0.3843260">
        <ele>292.2</ele>
        <time>2020-08-06T15:39:09Z</time>
      </trkpt>
      <trkpt lat="41.0094610" lon="0.3843350">
        <ele>292.2</ele>
        <time>2020-08-06T15:39:10Z</time>
      </trkpt>
      <trkpt lat="41.0094460" lon="0.3843290">
        <ele>292.2</ele>
        <time>2020-08-06T15:39:12Z</time>
      </trkpt>
      <trkpt lat="41.0094440" lon="0.3843130">
        <ele>292.2</ele>
        <time>2020-08-06T15:39:14Z</time>
      </trkpt>
      <trkpt lat="41.0094490" lon="0.3842990">
        <ele>292.2</ele>
        <time>2020-08-06T15:39:15Z</time>
      </trkpt>
      <trkpt lat="41.0094500" lon="0.3842910">
        <ele>292.2</ele>
        <time>2020-08-06T15:39:16Z</time>
      </trkpt>
      <trkpt lat="41.0094490" lon="0.3842770">
        <ele>292.2</ele>
        <time>2020-08-06T15:39:17Z</time>
      </trkpt>
      <trkpt lat="41.0094490" lon="0.3842630">
        <ele>292.2</ele>
        <time>2020-08-06T15:39:18Z</time>
      </trkpt>
      <trkpt lat="41.0094470" lon="0.3842510">
        <ele>292.2</ele>
        <time>2020-08-06T15:39:19Z</time>
      </trkpt>
      <trkpt lat="41.0094460" lon="0.3842420">
        <ele>292.2</ele>
        <time>2020-08-06T15:39:20Z</time>
      </trkpt>
      <trkpt lat="41.0094480" lon="0.3842320">
        <ele>292.2</ele>
        <time>2020-08-06T15:39:21Z</time>
      </trkpt>
      <trkpt lat="41.0094480" lon="0.3842270">
        <ele>292.2</ele>
        <time>2020-08-06T15:39:22Z</time>
      </trkpt>
      <trkpt lat="41.0094540" lon="0.3842230">
        <ele>292.2</ele>
        <time>2020-08-06T15:39:24Z</time>
      </trkpt>
      <trkpt lat="41.0094560" lon="0.3842180">
        <ele>292.2</ele>
        <time>2020-08-06T15:39:25Z</time>
      </trkpt>
      <trkpt lat="41.0094600" lon="0.3842130">
        <ele>292.2</ele>
        <time>2020-08-06T15:39:27Z</time>
      </trkpt>
      <trkpt lat="41.0094620" lon="0.3842070">
        <ele>292.2</ele>
        <time>2020-08-06T15:39:29Z</time>
      </trkpt>
      <trkpt lat="41.0094630" lon="0.3842040">
        <ele>292.2</ele>
        <time>2020-08-06T15:39:30Z</time>
      </trkpt>
      <trkpt lat="41.0094650" lon="0.3842010">
        <ele>292.2</ele>
        <time>2020-08-06T15:39:32Z</time>
      </trkpt>
      <trkpt lat="41.0094650" lon="0.3842000">
        <ele>292.2</ele>
        <time>2020-08-06T15:39:33Z</time>
      </trkpt>
      <trkpt lat="41.0094270" lon="0.3840550">
        <ele>292.1</ele>
        <time>2020-08-06T15:39:35Z</time>
      </trkpt>
      <trkpt lat="41.0094270" lon="0.3840550">
        <ele>292.1</ele>
        <time>2020-08-06T15:39:35Z</time>
      </trkpt>
      <trkpt lat="41.0094190" lon="0.3840340">
        <ele>292.1</ele>
        <time>2020-08-06T15:39:37Z</time>
      </trkpt>
      <trkpt lat="41.0094200" lon="0.3840340">
        <ele>292.1</ele>
        <time>2020-08-06T15:39:39Z</time>
      </trkpt>
      <trkpt lat="41.0094210" lon="0.3840340">
        <ele>292.1</ele>
        <time>2020-08-06T15:39:40Z</time>
      </trkpt>
      <trkpt lat="41.0094210" lon="0.3840310">
        <ele>292.1</ele>
        <time>2020-08-06T15:39:42Z</time>
      </trkpt>
      <trkpt lat="41.0094200" lon="0.3840280">
        <ele>292.1</ele>
        <time>2020-08-06T15:39:44Z</time>
      </trkpt>
      <trkpt lat="41.0094200" lon="0.3840270">
        <ele>292.1</ele>
        <time>2020-08-06T15:39:45Z</time>
      </trkpt>
      <trkpt lat="41.0094210" lon="0.3840260">
        <ele>292.1</ele>
        <time>2020-08-06T15:39:46Z</time>
      </trkpt>
      <trkpt lat="41.0094210" lon="0.3839900">
        <ele>292.0</ele>
        <time>2020-08-06T15:39:48Z</time>
      </trkpt>
      <trkpt lat="41.0094210" lon="0.3839900">
        <ele>292.0</ele>
        <time>2020-08-06T15:39:48Z</time>
      </trkpt>
      <trkpt lat="41.0094210" lon="0.3839450">
        <ele>291.9</ele>
        <time>2020-08-06T15:39:50Z</time>
      </trkpt>
      <trkpt lat="41.0094190" lon="0.3839190">
        <ele>291.9</ele>
        <time>2020-08-06T15:39:51Z</time>
      </trkpt>
      <trkpt lat="41.0094170" lon="0.3838650">
        <ele>291.8</ele>
        <time>2020-08-06T15:39:53Z</time>
      </trkpt>
      <trkpt lat="41.0094160" lon="0.3838400">
        <ele>291.8</ele>
        <time>2020-08-06T15:39:54Z</time>
      </trkpt>
      <trkpt lat="41.0094130" lon="0.3837910">
        <ele>291.5</ele>
        <time>2020-08-06T15:39:56Z</time>
      </trkpt>
      <trkpt lat="41.0094190" lon="0.3837490">
        <ele>291.4</ele>
        <time>2020-08-06T15:39:58Z</time>
      </trkpt>
      <trkpt lat="41.0094270" lon="0.3837170">
        <ele>291.3</ele>
        <time>2020-08-06T15:40:00Z</time>
      </trkpt>
      <trkpt lat="41.0094340" lon="0.3837150">
        <ele>291.3</ele>
        <time>2020-08-06T15:40:01Z</time>
      </trkpt>
      <trkpt lat="41.0094370" lon="0.3837110">
        <ele>291.3</ele>
        <time>2020-08-06T15:40:03Z</time>
      </trkpt>
      <trkpt lat="41.0094340" lon="0.3837020">
        <ele>291.3</ele>
        <time>2020-08-06T15:40:04Z</time>
      </trkpt>
      <trkpt lat="41.0094290" lon="0.3836940">
        <ele>291.2</ele>
        <time>2020-08-06T15:40:05Z</time>
      </trkpt>
      <trkpt lat="41.0094060" lon="0.3837060">
        <ele>291.2</ele>
        <time>2020-08-06T15:40:07Z</time>
      </trkpt>
      <trkpt lat="41.0093970" lon="0.3837100">
        <ele>291.1</ele>
        <time>2020-08-06T15:40:08Z</time>
      </trkpt>
      <trkpt lat="41.0093870" lon="0.3837190">
        <ele>291.1</ele>
        <time>2020-08-06T15:40:09Z</time>
      </trkpt>
      <trkpt lat="41.0093890" lon="0.3837530">
        <ele>291.1</ele>
        <time>2020-08-06T15:40:11Z</time>
      </trkpt>
      <trkpt lat="41.0093720" lon="0.3837880">
        <ele>291.0</ele>
        <time>2020-08-06T15:40:12Z</time>
      </trkpt>
      <trkpt lat="41.0093650" lon="0.3837950">
        <ele>291.0</ele>
        <time>2020-08-06T15:40:13Z</time>
      </trkpt>
      <trkpt lat="41.0093500" lon="0.3838040">
        <ele>290.9</ele>
        <time>2020-08-06T15:40:15Z</time>
      </trkpt>
      <trkpt lat="41.0093290" lon="0.3838090">
        <ele>290.9</ele>
        <time>2020-08-06T15:40:17Z</time>
      </trkpt>
      <trkpt lat="41.0093080" lon="0.3838090">
        <ele>290.9</ele>
        <time>2020-08-06T15:40:18Z</time>
      </trkpt>
      <trkpt lat="41.0092870" lon="0.3838050">
        <ele>290.8</ele>
        <time>2020-08-06T15:40:20Z</time>
      </trkpt>
      <trkpt lat="41.0092500" lon="0.3838030">
        <ele>290.8</ele>
        <time>2020-08-06T15:40:21Z</time>
      </trkpt>
      <trkpt lat="41.0092400" lon="0.3838010">
        <ele>290.8</ele>
        <time>2020-08-06T15:40:22Z</time>
      </trkpt>
      <trkpt lat="41.0092130" lon="0.3838020">
        <ele>290.7</ele>
        <time>2020-08-06T15:40:24Z</time>
      </trkpt>
      <trkpt lat="41.0091990" lon="0.3838090">
        <ele>290.6</ele>
        <time>2020-08-06T15:40:26Z</time>
      </trkpt>
      <trkpt lat="41.0091950" lon="0.3838170">
        <ele>290.7</ele>
        <time>2020-08-06T15:40:27Z</time>
      </trkpt>
      <trkpt lat="41.0091940" lon="0.3838280">
        <ele>290.7</ele>
        <time>2020-08-06T15:40:28Z</time>
      </trkpt>
      <trkpt lat="41.0091880" lon="0.3838420">
        <ele>290.7</ele>
        <time>2020-08-06T15:40:30Z</time>
      </trkpt>
      <trkpt lat="41.0091860" lon="0.3838490">
        <ele>290.7</ele>
        <time>2020-08-06T15:40:31Z</time>
      </trkpt>
      <trkpt lat="41.0091850" lon="0.3838640">
        <ele>290.7</ele>
        <time>2020-08-06T15:40:33Z</time>
      </trkpt>
      <trkpt lat="41.0091840" lon="0.3838770">
        <ele>290.7</ele>
        <time>2020-08-06T15:40:34Z</time>
      </trkpt>
      <trkpt lat="41.0091840" lon="0.3839050">
        <ele>290.7</ele>
        <time>2020-08-06T15:40:36Z</time>
      </trkpt>
      <trkpt lat="41.0091830" lon="0.3839300">
        <ele>290.7</ele>
        <time>2020-08-06T15:40:38Z</time>
      </trkpt>
      <trkpt lat="41.0091810" lon="0.3839410">
        <ele>290.7</ele>
        <time>2020-08-06T15:40:39Z</time>
      </trkpt>
      <trkpt lat="41.0091640" lon="0.3840050">
        <ele>290.8</ele>
        <time>2020-08-06T15:40:41Z</time>
      </trkpt>
      <trkpt lat="41.0091530" lon="0.3840470">
        <ele>290.8</ele>
        <time>2020-08-06T15:40:42Z</time>
      </trkpt>
      <trkpt lat="41.0091360" lon="0.3841100">
        <ele>290.9</ele>
        <time>2020-08-06T15:40:43Z</time>
      </trkpt>
      <trkpt lat="41.0091240" lon="0.3841530">
        <ele>290.9</ele>
        <time>2020-08-06T15:40:44Z</time>
      </trkpt>
      <trkpt lat="41.0091040" lon="0.3842070">
        <ele>291.0</ele>
        <time>2020-08-06T15:40:46Z</time>
      </trkpt>
      <trkpt lat="41.0091000" lon="0.3842270">
        <ele>291.0</ele>
        <time>2020-08-06T15:40:47Z</time>
      </trkpt>
      <trkpt lat="41.0090990" lon="0.3842440">
        <ele>291.1</ele>
        <time>2020-08-06T15:40:48Z</time>
      </trkpt>
      <trkpt lat="41.0090990" lon="0.3842630">
        <ele>291.1</ele>
        <time>2020-08-06T15:40:49Z</time>
      </trkpt>
      <trkpt lat="41.0090990" lon="0.3842960">
        <ele>291.1</ele>
        <time>2020-08-06T15:40:51Z</time>
      </trkpt>
      <trkpt lat="41.0091010" lon="0.3843130">
        <ele>291.2</ele>
        <time>2020-08-06T15:40:52Z</time>
      </trkpt>
      <trkpt lat="41.0091110" lon="0.3843520">
        <ele>291.2</ele>
        <time>2020-08-06T15:40:54Z</time>
      </trkpt>
      <trkpt lat="41.0091130" lon="0.3843730">
        <ele>291.3</ele>
        <time>2020-08-06T15:40:55Z</time>
      </trkpt>
      <trkpt lat="41.0091160" lon="0.3844090">
        <ele>291.3</ele>
        <time>2020-08-06T15:40:57Z</time>
      </trkpt>
      <trkpt lat="41.0091160" lon="0.3844270">
        <ele>291.4</ele>
        <time>2020-08-06T15:40:58Z</time>
      </trkpt>
      <trkpt lat="41.0091190" lon="0.3844680">
        <ele>291.4</ele>
        <time>2020-08-06T15:41:00Z</time>
      </trkpt>
      <trkpt lat="41.0091210" lon="0.3844880">
        <ele>291.5</ele>
        <time>2020-08-06T15:41:01Z</time>
      </trkpt>
      <trkpt lat="41.0091220" lon="0.3845080">
        <ele>291.5</ele>
        <time>2020-08-06T15:41:02Z</time>
      </trkpt>
      <trkpt lat="41.0091250" lon="0.3845480">
        <ele>291.6</ele>
        <time>2020-08-06T15:41:04Z</time>
      </trkpt>
      <trkpt lat="41.0091280" lon="0.3845740">
        <ele>291.6</ele>
        <time>2020-08-06T15:41:05Z</time>
      </trkpt>
      <trkpt lat="41.0091340" lon="0.3846190">
        <ele>291.6</ele>
        <time>2020-08-06T15:41:07Z</time>
      </trkpt>
      <trkpt lat="41.0091350" lon="0.3846660">
        <ele>291.6</ele>
        <time>2020-08-06T15:41:09Z</time>
      </trkpt>
      <trkpt lat="41.0091370" lon="0.3846870">
        <ele>291.6</ele>
        <time>2020-08-06T15:41:10Z</time>
      </trkpt>
      <trkpt lat="41.0091450" lon="0.3847310">
        <ele>291.5</ele>
        <time>2020-08-06T15:41:12Z</time>
      </trkpt>
      <trkpt lat="41.0091500" lon="0.3847520">
        <ele>291.5</ele>
        <time>2020-08-06T15:41:13Z</time>
      </trkpt>
      <trkpt lat="41.0091560" lon="0.3847870">
        <ele>291.5</ele>
        <time>2020-08-06T15:41:15Z</time>
      </trkpt>
      <trkpt lat="41.0091610" lon="0.3848350">
        <ele>291.4</ele>
        <time>2020-08-06T15:41:17Z</time>
      </trkpt>
      <trkpt lat="41.0091650" lon="0.3848740">
        <ele>291.4</ele>
        <time>2020-08-06T15:41:19Z</time>
      </trkpt>
      <trkpt lat="41.0091690" lon="0.3848990">
        <ele>291.4</ele>
        <time>2020-08-06T15:41:21Z</time>
      </trkpt>
      <trkpt lat="41.0091810" lon="0.3849270">
        <ele>291.3</ele>
        <time>2020-08-06T15:41:23Z</time>
      </trkpt>
      <trkpt lat="41.0091880" lon="0.3849360">
        <ele>291.3</ele>
        <time>2020-08-06T15:41:25Z</time>
      </trkpt>
      <trkpt lat="41.0091910" lon="0.3849350">
        <ele>291.3</ele>
        <time>2020-08-06T15:41:26Z</time>
      </trkpt>
      <trkpt lat="41.0091940" lon="0.3849320">
        <ele>291.3</ele>
        <time>2020-08-06T15:41:27Z</time>
      </trkpt>
      <trkpt lat="41.0091950" lon="0.3849290">
        <ele>291.3</ele>
        <time>2020-08-06T15:41:29Z</time>
      </trkpt>
      <trkpt lat="41.0091940" lon="0.3849300">
        <ele>291.3</ele>
        <time>2020-08-06T15:41:30Z</time>
      </trkpt>
      <trkpt lat="41.0091940" lon="0.3849330">
        <ele>291.3</ele>
        <time>2020-08-06T15:41:32Z</time>
      </trkpt>
      <trkpt lat="41.0091940" lon="0.3849360">
        <ele>291.3</ele>
        <time>2020-08-06T15:41:34Z</time>
      </trkpt>
      <trkpt lat="41.0091950" lon="0.3849370">
        <ele>291.3</ele>
        <time>2020-08-06T15:41:35Z</time>
      </trkpt>
      <trkpt lat="41.0091950" lon="0.3849370">
        <ele>291.3</ele>
        <time>2020-08-06T15:41:36Z</time>
      </trkpt>
      <trkpt lat="41.0091940" lon="0.3849720">
        <ele>291.2</ele>
        <time>2020-08-06T15:42:31Z</time>
      </trkpt>
      <trkpt lat="41.0091930" lon="0.3849820">
        <ele>291.2</ele>
        <time>2020-08-06T15:42:32Z</time>
      </trkpt>
      <trkpt lat="41.0091840" lon="0.3850060">
        <ele>291.1</ele>
        <time>2020-08-06T15:42:34Z</time>
      </trkpt>
      <trkpt lat="41.0091640" lon="0.3850290">
        <ele>291.1</ele>
        <time>2020-08-06T15:42:36Z</time>
      </trkpt>
      <trkpt lat="41.0091670" lon="0.3850230">
        <ele>291.1</ele>
        <time>2020-08-06T15:42:37Z</time>
      </trkpt>
      <trkpt lat="41.0091670" lon="0.3850200">
        <ele>291.1</ele>
        <time>2020-08-06T15:42:38Z</time>
      </trkpt>
      <trkpt lat="41.0091630" lon="0.3850140">
        <ele>291.1</ele>
        <time>2020-08-06T15:42:40Z</time>
      </trkpt>
      <trkpt lat="41.0091650" lon="0.3850090">
        <ele>291.1</ele>
        <time>2020-08-06T15:42:41Z</time>
      </trkpt>
      <trkpt lat="41.0091680" lon="0.3850060">
        <ele>291.1</ele>
        <time>2020-08-06T15:42:42Z</time>
      </trkpt>
      <trkpt lat="41.0091600" lon="0.3850090">
        <ele>291.0</ele>
        <time>2020-08-06T15:42:44Z</time>
      </trkpt>
      <trkpt lat="41.0091570" lon="0.3850100">
        <ele>291.0</ele>
        <time>2020-08-06T15:42:45Z</time>
      </trkpt>
      <trkpt lat="41.0091450" lon="0.3850040">
        <ele>291.0</ele>
        <time>2020-08-06T15:42:47Z</time>
      </trkpt>
      <trkpt lat="41.0091290" lon="0.3850050">
        <ele>291.0</ele>
        <time>2020-08-06T15:42:48Z</time>
      </trkpt>
      <trkpt lat="41.0091200" lon="0.3850040">
        <ele>291.0</ele>
        <time>2020-08-06T15:42:49Z</time>
      </trkpt>
      <trkpt lat="41.0091120" lon="0.3850030">
        <ele>291.0</ele>
        <time>2020-08-06T15:42:50Z</time>
      </trkpt>
      <trkpt lat="41.0091030" lon="0.3850030">
        <ele>291.0</ele>
        <time>2020-08-06T15:42:52Z</time>
      </trkpt>
      <trkpt lat="41.0090950" lon="0.3850020">
        <ele>291.0</ele>
        <time>2020-08-06T15:42:53Z</time>
      </trkpt>
      <trkpt lat="41.0090860" lon="0.3850010">
        <ele>291.0</ele>
        <time>2020-08-06T15:42:54Z</time>
      </trkpt>
      <trkpt lat="41.0090780" lon="0.3850000">
        <ele>291.0</ele>
        <time>2020-08-06T15:42:55Z</time>
      </trkpt>
      <trkpt lat="41.0090550" lon="0.3849910">
        <ele>291.0</ele>
        <time>2020-08-06T15:42:57Z</time>
      </trkpt>
      <trkpt lat="41.0090350" lon="0.3849950">
        <ele>291.0</ele>
        <time>2020-08-06T15:42:59Z</time>
      </trkpt>
      <trkpt lat="41.0090150" lon="0.3850070">
        <ele>291.0</ele>
        <time>2020-08-06T15:43:00Z</time>
      </trkpt>
      <trkpt lat="41.0089940" lon="0.3850180">
        <ele>290.9</ele>
        <time>2020-08-06T15:43:02Z</time>
      </trkpt>
      <trkpt lat="41.0089750" lon="0.3850240">
        <ele>290.9</ele>
        <time>2020-08-06T15:43:04Z</time>
      </trkpt>
      <trkpt lat="41.0089630" lon="0.3850280">
        <ele>290.9</ele>
        <time>2020-08-06T15:43:05Z</time>
      </trkpt>
      <trkpt lat="41.0089490" lon="0.3850310">
        <ele>290.9</ele>
        <time>2020-08-06T15:43:06Z</time>
      </trkpt>
      <trkpt lat="41.0089380" lon="0.3850330">
        <ele>290.8</ele>
        <time>2020-08-06T15:43:07Z</time>
      </trkpt>
      <trkpt lat="41.0089120" lon="0.3850340">
        <ele>290.8</ele>
        <time>2020-08-06T15:43:09Z</time>
      </trkpt>
      <trkpt lat="41.0088890" lon="0.3850460">
        <ele>290.7</ele>
        <time>2020-08-06T15:43:11Z</time>
      </trkpt>
      <trkpt lat="41.0088680" lon="0.3850510">
        <ele>290.7</ele>
        <time>2020-08-06T15:43:13Z</time>
      </trkpt>
      <trkpt lat="41.0088460" lon="0.3850560">
        <ele>290.6</ele>
        <time>2020-08-06T15:43:14Z</time>
      </trkpt>
      <trkpt lat="41.0088340" lon="0.3850610">
        <ele>290.6</ele>
        <time>2020-08-06T15:43:15Z</time>
      </trkpt>
      <trkpt lat="41.0088060" lon="0.3850700">
        <ele>290.5</ele>
        <time>2020-08-06T15:43:17Z</time>
      </trkpt>
      <trkpt lat="41.0087790" lon="0.3850790">
        <ele>290.5</ele>
        <time>2020-08-06T15:43:19Z</time>
      </trkpt>
      <trkpt lat="41.0087610" lon="0.3850880">
        <ele>290.5</ele>
        <time>2020-08-06T15:43:21Z</time>
      </trkpt>
      <trkpt lat="41.0087440" lon="0.3850910">
        <ele>290.4</ele>
        <time>2020-08-06T15:43:22Z</time>
      </trkpt>
      <trkpt lat="41.0087310" lon="0.3850970">
        <ele>290.4</ele>
        <time>2020-08-06T15:43:23Z</time>
      </trkpt>
      <trkpt lat="41.0087190" lon="0.3851050">
        <ele>290.4</ele>
        <time>2020-08-06T15:43:24Z</time>
      </trkpt>
      <trkpt lat="41.0086910" lon="0.3851060">
        <ele>290.4</ele>
        <time>2020-08-06T15:43:26Z</time>
      </trkpt>
      <trkpt lat="41.0086820" lon="0.3851060">
        <ele>290.4</ele>
        <time>2020-08-06T15:43:27Z</time>
      </trkpt>
      <trkpt lat="41.0086710" lon="0.3851070">
        <ele>290.3</ele>
        <time>2020-08-06T15:43:28Z</time>
      </trkpt>
      <trkpt lat="41.0086590" lon="0.3851090">
        <ele>290.3</ele>
        <time>2020-08-06T15:43:29Z</time>
      </trkpt>
      <trkpt lat="41.0086380" lon="0.3851180">
        <ele>290.3</ele>
        <time>2020-08-06T15:43:31Z</time>
      </trkpt>
      <trkpt lat="41.0086310" lon="0.3851210">
        <ele>290.3</ele>
        <time>2020-08-06T15:43:32Z</time>
      </trkpt>
      <trkpt lat="41.0086190" lon="0.3851260">
        <ele>290.3</ele>
        <time>2020-08-06T15:43:33Z</time>
      </trkpt>
      <trkpt lat="41.0085950" lon="0.3851330">
        <ele>290.2</ele>
        <time>2020-08-06T15:43:35Z</time>
      </trkpt>
      <trkpt lat="41.0085850" lon="0.3851330">
        <ele>290.2</ele>
        <time>2020-08-06T15:43:36Z</time>
      </trkpt>
      <trkpt lat="41.0085720" lon="0.3851330">
        <ele>290.2</ele>
        <time>2020-08-06T15:43:37Z</time>
      </trkpt>
      <trkpt lat="41.0085480" lon="0.3851280">
        <ele>290.2</ele>
        <time>2020-08-06T15:43:39Z</time>
      </trkpt>
      <trkpt lat="41.0085170" lon="0.3851260">
        <ele>290.2</ele>
        <time>2020-08-06T15:43:40Z</time>
      </trkpt>
      <trkpt lat="41.0084850" lon="0.3851270">
        <ele>290.1</ele>
        <time>2020-08-06T15:43:41Z</time>
      </trkpt>
      <trkpt lat="41.0084480" lon="0.3851180">
        <ele>290.1</ele>
        <time>2020-08-06T15:43:43Z</time>
      </trkpt>
      <trkpt lat="41.0084250" lon="0.3851220">
        <ele>290.0</ele>
        <time>2020-08-06T15:43:44Z</time>
      </trkpt>
      <trkpt lat="41.0083730" lon="0.3851470">
        <ele>289.9</ele>
        <time>2020-08-06T15:43:46Z</time>
      </trkpt>
      <trkpt lat="41.0083380" lon="0.3851640">
        <ele>289.8</ele>
        <time>2020-08-06T15:43:47Z</time>
      </trkpt>
      <trkpt lat="41.0082880" lon="0.3851770">
        <ele>289.7</ele>
        <time>2020-08-06T15:43:49Z</time>
      </trkpt>
      <trkpt lat="41.0082570" lon="0.3851960">
        <ele>289.6</ele>
        <time>2020-08-06T15:43:50Z</time>
      </trkpt>
      <trkpt lat="41.0082480" lon="0.3852020">
        <ele>289.6</ele>
        <time>2020-08-06T15:43:51Z</time>
      </trkpt>
      <trkpt lat="41.0082340" lon="0.3852100">
        <ele>289.5</ele>
        <time>2020-08-06T15:43:52Z</time>
      </trkpt>
      <trkpt lat="41.0081170" lon="0.3852460">
        <ele>285.8</ele>
        <time>2020-08-06T15:43:54Z</time>
      </trkpt>
      <trkpt lat="41.0080400" lon="0.3852640">
        <ele>282.8</ele>
        <time>2020-08-06T15:43:55Z</time>
      </trkpt>
      <trkpt lat="41.0079860" lon="0.3852780">
        <ele>280.7</ele>
        <time>2020-08-06T15:43:56Z</time>
      </trkpt>
      <trkpt lat="41.0079490" lon="0.3852880">
        <ele>279.2</ele>
        <time>2020-08-06T15:43:57Z</time>
      </trkpt>
      <trkpt lat="41.0079090" lon="0.3852990">
        <ele>277.6</ele>
        <time>2020-08-06T15:43:59Z</time>
      </trkpt>
      <trkpt lat="41.0078970" lon="0.3853030">
        <ele>277.4</ele>
        <time>2020-08-06T15:44:00Z</time>
      </trkpt>
      <trkpt lat="41.0078850" lon="0.3853070">
        <ele>277.9</ele>
        <time>2020-08-06T15:44:02Z</time>
      </trkpt>
      <trkpt lat="41.0079390" lon="0.3853520">
        <ele>280.1</ele>
        <time>2020-08-06T15:51:58Z</time>
      </trkpt>
      <trkpt lat="41.0079680" lon="0.3853520">
        <ele>281.2</ele>
        <time>2020-08-06T15:52:01Z</time>
      </trkpt>
      <trkpt lat="41.0079820" lon="0.3853560">
        <ele>281.7</ele>
        <time>2020-08-06T15:52:02Z</time>
      </trkpt>
      <trkpt lat="41.0080160" lon="0.3853610">
        <ele>282.9</ele>
        <time>2020-08-06T15:52:04Z</time>
      </trkpt>
      <trkpt lat="41.0080310" lon="0.3853570">
        <ele>283.4</ele>
        <time>2020-08-06T15:52:05Z</time>
      </trkpt>
      <trkpt lat="41.0080590" lon="0.3853530">
        <ele>284.4</ele>
        <time>2020-08-06T15:52:07Z</time>
      </trkpt>
      <trkpt lat="41.0080900" lon="0.3853500">
        <ele>285.4</ele>
        <time>2020-08-06T15:52:09Z</time>
      </trkpt>
      <trkpt lat="41.0080960" lon="0.3853490">
        <ele>285.6</ele>
        <time>2020-08-06T15:52:10Z</time>
      </trkpt>
      <trkpt lat="41.0081060" lon="0.3853490">
        <ele>285.9</ele>
        <time>2020-08-06T15:52:11Z</time>
      </trkpt>
      <trkpt lat="41.0081160" lon="0.3853500">
        <ele>286.3</ele>
        <time>2020-08-06T15:52:12Z</time>
      </trkpt>
      <trkpt lat="41.0081240" lon="0.3853510">
        <ele>286.5</ele>
        <time>2020-08-06T15:52:13Z</time>
      </trkpt>
      <trkpt lat="41.0081480" lon="0.3853620">
        <ele>287.4</ele>
        <time>2020-08-06T15:52:15Z</time>
      </trkpt>
      <trkpt lat="41.0081650" lon="0.3853700">
        <ele>288.0</ele>
        <time>2020-08-06T15:52:17Z</time>
      </trkpt>
      <trkpt lat="41.0081700" lon="0.3853740">
        <ele>288.2</ele>
        <time>2020-08-06T15:52:18Z</time>
      </trkpt>
      <trkpt lat="41.0081800" lon="0.3853780">
        <ele>289.4</ele>
        <time>2020-08-06T15:52:20Z</time>
      </trkpt>
      <trkpt lat="41.0081950" lon="0.3853690">
        <ele>289.3</ele>
        <time>2020-08-06T15:52:22Z</time>
      </trkpt>
      <trkpt lat="41.0082010" lon="0.3853180">
        <ele>289.3</ele>
        <time>2020-08-06T15:52:24Z</time>
      </trkpt>
      <trkpt lat="41.0082010" lon="0.3852910">
        <ele>289.3</ele>
        <time>2020-08-06T15:52:25Z</time>
      </trkpt>
      <trkpt lat="41.0082040" lon="0.3852270">
        <ele>289.2</ele>
        <time>2020-08-06T15:52:27Z</time>
      </trkpt>
      <trkpt lat="41.0082060" lon="0.3851990">
        <ele>289.2</ele>
        <time>2020-08-06T15:52:28Z</time>
      </trkpt>
      <trkpt lat="41.0082090" lon="0.3851440">
        <ele>289.2</ele>
        <time>2020-08-06T15:52:30Z</time>
      </trkpt>
      <trkpt lat="41.0082110" lon="0.3851030">
        <ele>289.1</ele>
        <time>2020-08-06T15:52:31Z</time>
      </trkpt>
      <trkpt lat="41.0082110" lon="0.3850890">
        <ele>289.1</ele>
        <time>2020-08-06T15:52:32Z</time>
      </trkpt>
      <trkpt lat="41.0082060" lon="0.3850390">
        <ele>289.1</ele>
        <time>2020-08-06T15:52:34Z</time>
      </trkpt>
      <trkpt lat="41.0082030" lon="0.3850120">
        <ele>289.1</ele>
        <time>2020-08-06T15:52:35Z</time>
      </trkpt>
      <trkpt lat="41.0082000" lon="0.3849750">
        <ele>289.0</ele>
        <time>2020-08-06T15:52:37Z</time>
      </trkpt>
      <trkpt lat="41.0081980" lon="0.3849270">
        <ele>289.0</ele>
        <time>2020-08-06T15:52:39Z</time>
      </trkpt>
      <trkpt lat="41.0081970" lon="0.3849010">
        <ele>288.9</ele>
        <time>2020-08-06T15:52:40Z</time>
      </trkpt>
      <trkpt lat="41.0081950" lon="0.3848510">
        <ele>288.9</ele>
        <time>2020-08-06T15:52:42Z</time>
      </trkpt>
      <trkpt lat="41.0081940" lon="0.3848110">
        <ele>288.8</ele>
        <time>2020-08-06T15:52:43Z</time>
      </trkpt>
      <trkpt lat="41.0081930" lon="0.3847970">
        <ele>288.8</ele>
        <time>2020-08-06T15:52:44Z</time>
      </trkpt>
      <trkpt lat="41.0081890" lon="0.3847420">
        <ele>288.8</ele>
        <time>2020-08-06T15:52:46Z</time>
      </trkpt>
      <trkpt lat="41.0081870" lon="0.3847180">
        <ele>288.7</ele>
        <time>2020-08-06T15:52:47Z</time>
      </trkpt>
      <trkpt lat="41.0081830" lon="0.3846670">
        <ele>288.7</ele>
        <time>2020-08-06T15:52:49Z</time>
      </trkpt>
      <trkpt lat="41.0081830" lon="0.3846340">
        <ele>288.6</ele>
        <time>2020-08-06T15:52:50Z</time>
      </trkpt>
      <trkpt lat="41.0081840" lon="0.3846120">
        <ele>288.6</ele>
        <time>2020-08-06T15:52:52Z</time>
      </trkpt>
      <trkpt lat="41.0081780" lon="0.3846480">
        <ele>288.6</ele>
        <time>2020-08-06T15:52:53Z</time>
      </trkpt>
      <trkpt lat="41.0081680" lon="0.3846470">
        <ele>288.6</ele>
        <time>2020-08-06T15:52:54Z</time>
      </trkpt>
      <trkpt lat="41.0081630" lon="0.3846340">
        <ele>288.5</ele>
        <time>2020-08-06T15:52:55Z</time>
      </trkpt>
      <trkpt lat="41.0081570" lon="0.3846220">
        <ele>288.5</ele>
        <time>2020-08-06T15:52:57Z</time>
      </trkpt>
      <trkpt lat="41.0081510" lon="0.3846090">
        <ele>288.5</ele>
        <time>2020-08-06T15:52:58Z</time>
      </trkpt>
      <trkpt lat="41.0081470" lon="0.3845110">
        <ele>288.3</ele>
        <time>2020-08-06T15:52:59Z</time>
      </trkpt>
      <trkpt lat="41.0081380" lon="0.3844760">
        <ele>288.2</ele>
        <time>2020-08-06T15:53:00Z</time>
      </trkpt>
      <trkpt lat="41.0081470" lon="0.3843190">
        <ele>287.7</ele>
        <time>2020-08-06T15:53:01Z</time>
      </trkpt>
      <trkpt lat="41.0081450" lon="0.3844460">
        <ele>287.2</ele>
        <time>2020-08-06T15:53:02Z</time>
      </trkpt>
      <trkpt lat="41.0081630" lon="0.3845160">
        <ele>287.0</ele>
        <time>2020-08-06T15:53:04Z</time>
      </trkpt>
      <trkpt lat="41.0081490" lon="0.3844810">
        <ele>286.8</ele>
        <time>2020-08-06T15:53:05Z</time>
      </trkpt>
      <trkpt lat="41.0081230" lon="0.3844480">
        <ele>286.7</ele>
        <time>2020-08-06T15:53:07Z</time>
      </trkpt>
      <trkpt lat="41.0081030" lon="0.3844110">
        <ele>286.5</ele>
        <time>2020-08-06T15:53:08Z</time>
      </trkpt>
      <trkpt lat="41.0080960" lon="0.3843990">
        <ele>286.4</ele>
        <time>2020-08-06T15:53:09Z</time>
      </trkpt>
      <trkpt lat="41.0080840" lon="0.3843590">
        <ele>286.3</ele>
        <time>2020-08-06T15:53:10Z</time>
      </trkpt>
      <trkpt lat="41.0080740" lon="0.3843070">
        <ele>286.1</ele>
        <time>2020-08-06T15:53:11Z</time>
      </trkpt>
      <trkpt lat="41.0080700" lon="0.3842910">
        <ele>286.0</ele>
        <time>2020-08-06T15:53:12Z</time>
      </trkpt>
      <trkpt lat="41.0080610" lon="0.3842300">
        <ele>285.8</ele>
        <time>2020-08-06T15:53:14Z</time>
      </trkpt>
      <trkpt lat="41.0080570" lon="0.3841790">
        <ele>285.6</ele>
        <time>2020-08-06T15:53:15Z</time>
      </trkpt>
      <trkpt lat="41.0080530" lon="0.3841130">
        <ele>285.4</ele>
        <time>2020-08-06T15:53:17Z</time>
      </trkpt>
      <trkpt lat="41.0080500" lon="0.3840500">
        <ele>285.2</ele>
        <time>2020-08-06T15:53:18Z</time>
      </trkpt>
      <trkpt lat="41.0080620" lon="0.3839360">
        <ele>284.9</ele>
        <time>2020-08-06T15:53:20Z</time>
      </trkpt>
      <trkpt lat="41.0080820" lon="0.3836880">
        <ele>284.2</ele>
        <time>2020-08-06T15:53:21Z</time>
      </trkpt>
      <trkpt lat="41.0080960" lon="0.3835130">
        <ele>283.8</ele>
        <time>2020-08-06T15:53:22Z</time>
      </trkpt>
      <trkpt lat="41.0080950" lon="0.3833560">
        <ele>283.4</ele>
        <time>2020-08-06T15:53:24Z</time>
      </trkpt>
      <trkpt lat="41.0080860" lon="0.3833090">
        <ele>282.9</ele>
        <time>2020-08-06T15:53:25Z</time>
      </trkpt>
      <trkpt lat="41.0080830" lon="0.3832890">
        <ele>282.7</ele>
        <time>2020-08-06T15:53:26Z</time>
      </trkpt>
      <trkpt lat="41.0080830" lon="0.3832750">
        <ele>282.6</ele>
        <time>2020-08-06T15:53:27Z</time>
      </trkpt>
      <trkpt lat="41.0080860" lon="0.3832690">
        <ele>282.5</ele>
        <time>2020-08-06T15:53:29Z</time>
      </trkpt>
      <trkpt lat="41.0080850" lon="0.3832680">
        <ele>282.5</ele>
        <time>2020-08-06T15:53:30Z</time>
      </trkpt>
      <trkpt lat="41.0080820" lon="0.3832610">
        <ele>282.4</ele>
        <time>2020-08-06T15:53:32Z</time>
      </trkpt>
      <trkpt lat="41.0080800" lon="0.3832620">
        <ele>282.4</ele>
        <time>2020-08-06T15:53:33Z</time>
      </trkpt>
      <trkpt lat="41.0080780" lon="0.3832630">
        <ele>282.3</ele>
        <time>2020-08-06T15:53:34Z</time>
      </trkpt>
      <trkpt lat="41.0080680" lon="0.3832620">
        <ele>282.2</ele>
        <time>2020-08-06T15:53:36Z</time>
      </trkpt>
      <trkpt lat="41.0080560" lon="0.3832580">
        <ele>282.1</ele>
        <time>2020-08-06T15:53:37Z</time>
      </trkpt>
      <trkpt lat="41.0080270" lon="0.3832590">
        <ele>281.7</ele>
        <time>2020-08-06T15:53:38Z</time>
      </trkpt>
      <trkpt lat="41.0080160" lon="0.3832590">
        <ele>281.5</ele>
        <time>2020-08-06T15:53:39Z</time>
      </trkpt>
      <trkpt lat="41.0079850" lon="0.3832610">
        <ele>281.1</ele>
        <time>2020-08-06T15:53:41Z</time>
      </trkpt>
      <trkpt lat="41.0079740" lon="0.3832610">
        <ele>280.9</ele>
        <time>2020-08-06T15:53:42Z</time>
      </trkpt>
      <trkpt lat="41.0079360" lon="0.3832550">
        <ele>280.4</ele>
        <time>2020-08-06T15:53:44Z</time>
      </trkpt>
      <trkpt lat="41.0079220" lon="0.3832550">
        <ele>280.2</ele>
        <time>2020-08-06T15:53:45Z</time>
      </trkpt>
      <trkpt lat="41.0079070" lon="0.3832170">
        <ele>278.9</ele>
        <time>2020-08-06T15:53:47Z</time>
      </trkpt>
      <trkpt lat="41.0079030" lon="0.3832050">
        <ele>279.0</ele>
        <time>2020-08-06T15:53:48Z</time>
      </trkpt>
      <trkpt lat="41.0078740" lon="0.3831430">
        <ele>279.0</ele>
        <time>2020-08-06T15:53:50Z</time>
      </trkpt>
      <trkpt lat="41.0078610" lon="0.3831240">
        <ele>278.9</ele>
        <time>2020-08-06T15:53:51Z</time>
      </trkpt>
      <trkpt lat="41.0078260" lon="0.3831230">
        <ele>278.6</ele>
        <time>2020-08-06T15:53:53Z</time>
      </trkpt>
      <trkpt lat="41.0078040" lon="0.3831430">
        <ele>278.4</ele>
        <time>2020-08-06T15:53:54Z</time>
      </trkpt>
      <trkpt lat="41.0077740" lon="0.3832060">
        <ele>278.0</ele>
        <time>2020-08-06T15:53:56Z</time>
      </trkpt>
      <trkpt lat="41.0077510" lon="0.3832790">
        <ele>277.6</ele>
        <time>2020-08-06T15:53:58Z</time>
      </trkpt>
      <trkpt lat="41.0077340" lon="0.3833620">
        <ele>277.1</ele>
        <time>2020-08-06T15:54:00Z</time>
      </trkpt>
      <trkpt lat="41.0077210" lon="0.3834100">
        <ele>276.8</ele>
        <time>2020-08-06T15:54:01Z</time>
      </trkpt>
      <trkpt lat="41.0077150" lon="0.3834280">
        <ele>276.7</ele>
        <time>2020-08-06T15:54:02Z</time>
      </trkpt>
      <trkpt lat="41.0077000" lon="0.3834660">
        <ele>276.4</ele>
        <time>2020-08-06T15:54:03Z</time>
      </trkpt>
      <trkpt lat="41.0076660" lon="0.3835550">
        <ele>275.8</ele>
        <time>2020-08-06T15:54:05Z</time>
      </trkpt>
      <trkpt lat="41.0076340" lon="0.3836460">
        <ele>275.2</ele>
        <time>2020-08-06T15:54:07Z</time>
      </trkpt>
      <trkpt lat="41.0076190" lon="0.3836960">
        <ele>274.8</ele>
        <time>2020-08-06T15:54:08Z</time>
      </trkpt>
      <trkpt lat="41.0075960" lon="0.3838050">
        <ele>274.2</ele>
        <time>2020-08-06T15:54:10Z</time>
      </trkpt>
      <trkpt lat="41.0075850" lon="0.3839120">
        <ele>273.6</ele>
        <time>2020-08-06T15:54:12Z</time>
      </trkpt>
      <trkpt lat="41.0075830" lon="0.3839720">
        <ele>273.2</ele>
        <time>2020-08-06T15:54:13Z</time>
      </trkpt>
      <trkpt lat="41.0075850" lon="0.3840230">
        <ele>273.0</ele>
        <time>2020-08-06T15:54:14Z</time>
      </trkpt>
      <trkpt lat="41.0075890" lon="0.3841260">
        <ele>272.4</ele>
        <time>2020-08-06T15:54:16Z</time>
      </trkpt>
      <trkpt lat="41.0075790" lon="0.3842080">
        <ele>271.9</ele>
        <time>2020-08-06T15:54:18Z</time>
      </trkpt>
      <trkpt lat="41.0075580" lon="0.3842600">
        <ele>271.6</ele>
        <time>2020-08-06T15:54:20Z</time>
      </trkpt>
      <trkpt lat="41.0075350" lon="0.3842890">
        <ele>271.3</ele>
        <time>2020-08-06T15:54:21Z</time>
      </trkpt>
      <trkpt lat="41.0074940" lon="0.3843220">
        <ele>270.9</ele>
        <time>2020-08-06T15:54:22Z</time>
      </trkpt>
      <trkpt lat="41.0074520" lon="0.3843320">
        <ele>270.6</ele>
        <time>2020-08-06T15:54:23Z</time>
      </trkpt>
      <trkpt lat="41.0074190" lon="0.3843410">
        <ele>270.3</ele>
        <time>2020-08-06T15:54:24Z</time>
      </trkpt>
      <trkpt lat="41.0073710" lon="0.3843630">
        <ele>269.7</ele>
        <time>2020-08-06T15:54:26Z</time>
      </trkpt>
      <trkpt lat="41.0073400" lon="0.3843850">
        <ele>269.6</ele>
        <time>2020-08-06T15:54:27Z</time>
      </trkpt>
      <trkpt lat="41.0073290" lon="0.3843930">
        <ele>269.5</ele>
        <time>2020-08-06T15:54:28Z</time>
      </trkpt>
      <trkpt lat="41.0073120" lon="0.3844110">
        <ele>269.4</ele>
        <time>2020-08-06T15:54:29Z</time>
      </trkpt>
      <trkpt lat="41.0072870" lon="0.3844430">
        <ele>269.3</ele>
        <time>2020-08-06T15:54:31Z</time>
      </trkpt>
      <trkpt lat="41.0072820" lon="0.3844620">
        <ele>269.3</ele>
        <time>2020-08-06T15:54:32Z</time>
      </trkpt>
      <trkpt lat="41.0072780" lon="0.3844790">
        <ele>269.3</ele>
        <time>2020-08-06T15:54:33Z</time>
      </trkpt>
      <trkpt lat="41.0072650" lon="0.3845160">
        <ele>269.4</ele>
        <time>2020-08-06T15:54:35Z</time>
      </trkpt>
      <trkpt lat="41.0072640" lon="0.3845250">
        <ele>269.4</ele>
        <time>2020-08-06T15:54:36Z</time>
      </trkpt>
      <trkpt lat="41.0072570" lon="0.3845390">
        <ele>269.4</ele>
        <time>2020-08-06T15:54:37Z</time>
      </trkpt>
      <trkpt lat="41.0072510" lon="0.3845540">
        <ele>269.4</ele>
        <time>2020-08-06T15:54:38Z</time>
      </trkpt>
      <trkpt lat="41.0072310" lon="0.3845820">
        <ele>269.5</ele>
        <time>2020-08-06T15:54:40Z</time>
      </trkpt>
      <trkpt lat="41.0072250" lon="0.3846040">
        <ele>269.5</ele>
        <time>2020-08-06T15:54:41Z</time>
      </trkpt>
      <trkpt lat="41.0072190" lon="0.3846220">
        <ele>269.5</ele>
        <time>2020-08-06T15:54:42Z</time>
      </trkpt>
      <trkpt lat="41.0072280" lon="0.3846550">
        <ele>269.6</ele>
        <time>2020-08-06T15:54:44Z</time>
      </trkpt>
      <trkpt lat="41.0072310" lon="0.3846680">
        <ele>269.6</ele>
        <time>2020-08-06T15:54:45Z</time>
      </trkpt>
      <trkpt lat="41.0072410" lon="0.3846870">
        <ele>269.6</ele>
        <time>2020-08-06T15:54:46Z</time>
      </trkpt>
      <trkpt lat="41.0072660" lon="0.3846940">
        <ele>269.6</ele>
        <time>2020-08-06T15:54:48Z</time>
      </trkpt>
      <trkpt lat="41.0072790" lon="0.3846490">
        <ele>269.7</ele>
        <time>2020-08-06T15:54:50Z</time>
      </trkpt>
      <trkpt lat="41.0072770" lon="0.3846350">
        <ele>269.7</ele>
        <time>2020-08-06T15:54:51Z</time>
      </trkpt>
      <trkpt lat="41.0072730" lon="0.3846190">
        <ele>269.7</ele>
        <time>2020-08-06T15:54:52Z</time>
      </trkpt>
      <trkpt lat="41.0072700" lon="0.3845890">
        <ele>269.7</ele>
        <time>2020-08-06T15:54:54Z</time>
      </trkpt>
      <trkpt lat="41.0072740" lon="0.3845470">
        <ele>269.7</ele>
        <time>2020-08-06T15:54:55Z</time>
      </trkpt>
      <trkpt lat="41.0072740" lon="0.3845300">
        <ele>269.7</ele>
        <time>2020-08-06T15:54:56Z</time>
      </trkpt>
      <trkpt lat="41.0072830" lon="0.3844850">
        <ele>269.7</ele>
        <time>2020-08-06T15:54:58Z</time>
      </trkpt>
      <trkpt lat="41.0072850" lon="0.3844710">
        <ele>269.7</ele>
        <time>2020-08-06T15:54:59Z</time>
      </trkpt>
      <trkpt lat="41.0072890" lon="0.3844520">
        <ele>269.7</ele>
        <time>2020-08-06T15:55:00Z</time>
      </trkpt>
      <trkpt lat="41.0072910" lon="0.3844260">
        <ele>269.7</ele>
        <time>2020-08-06T15:55:02Z</time>
      </trkpt>
      <trkpt lat="41.0072940" lon="0.3844180">
        <ele>269.8</ele>
        <time>2020-08-06T15:55:04Z</time>
      </trkpt>
      <trkpt lat="41.0072970" lon="0.3844180">
        <ele>269.8</ele>
        <time>2020-08-06T15:55:05Z</time>
      </trkpt>
      <trkpt lat="41.0073000" lon="0.3844160">
        <ele>269.8</ele>
        <time>2020-08-06T15:55:07Z</time>
      </trkpt>
      <trkpt lat="41.0073010" lon="0.3844150">
        <ele>269.8</ele>
        <time>2020-08-06T15:55:08Z</time>
      </trkpt>
      <trkpt lat="41.0073020" lon="0.3844150">
        <ele>269.8</ele>
        <time>2020-08-06T15:55:09Z</time>
      </trkpt>
      <trkpt lat="41.0073030" lon="0.3844120">
        <ele>269.8</ele>
        <time>2020-08-06T15:55:11Z</time>
      </trkpt>
      <trkpt lat="41.0073040" lon="0.3844090">
        <ele>269.8</ele>
        <time>2020-08-06T15:55:13Z</time>
      </trkpt>
      <trkpt lat="41.0072630" lon="0.3844570">
        <ele>269.8</ele>
        <time>2020-08-06T15:55:25Z</time>
      </trkpt>
      <trkpt lat="41.0072530" lon="0.3844630">
        <ele>269.8</ele>
        <time>2020-08-06T15:55:26Z</time>
      </trkpt>
      <trkpt lat="41.0072410" lon="0.3844680">
        <ele>269.8</ele>
        <time>2020-08-06T15:55:27Z</time>
      </trkpt>
      <trkpt lat="41.0072310" lon="0.3844860">
        <ele>269.8</ele>
        <time>2020-08-06T15:55:29Z</time>
      </trkpt>
      <trkpt lat="41.0072290" lon="0.3845040">
        <ele>269.8</ele>
        <time>2020-08-06T15:55:30Z</time>
      </trkpt>
      <trkpt lat="41.0072260" lon="0.3845290">
        <ele>269.8</ele>
        <time>2020-08-06T15:55:31Z</time>
      </trkpt>
      <trkpt lat="41.0072260" lon="0.3845510">
        <ele>269.8</ele>
        <time>2020-08-06T15:55:32Z</time>
      </trkpt>
      <trkpt lat="41.0072240" lon="0.3845770">
        <ele>269.8</ele>
        <time>2020-08-06T15:55:34Z</time>
      </trkpt>
      <trkpt lat="41.0072200" lon="0.3846020">
        <ele>269.8</ele>
        <time>2020-08-06T15:55:35Z</time>
      </trkpt>
      <trkpt lat="41.0072260" lon="0.3846260">
        <ele>269.8</ele>
        <time>2020-08-06T15:55:37Z</time>
      </trkpt>
      <trkpt lat="41.0072320" lon="0.3846680">
        <ele>269.8</ele>
        <time>2020-08-06T15:55:38Z</time>
      </trkpt>
      <trkpt lat="41.0072320" lon="0.3846840">
        <ele>269.8</ele>
        <time>2020-08-06T15:55:39Z</time>
      </trkpt>
      <trkpt lat="41.0072370" lon="0.3847380">
        <ele>269.9</ele>
        <time>2020-08-06T15:55:41Z</time>
      </trkpt>
      <trkpt lat="41.0072390" lon="0.3847540">
        <ele>269.9</ele>
        <time>2020-08-06T15:55:42Z</time>
      </trkpt>
      <trkpt lat="41.0072420" lon="0.3847710">
        <ele>269.9</ele>
        <time>2020-08-06T15:55:43Z</time>
      </trkpt>
      <trkpt lat="41.0072490" lon="0.3847880">
        <ele>269.9</ele>
        <time>2020-08-06T15:55:45Z</time>
      </trkpt>
      <trkpt lat="41.0072540" lon="0.3848140">
        <ele>269.9</ele>
        <time>2020-08-06T15:55:46Z</time>
      </trkpt>
      <trkpt lat="41.0072670" lon="0.3848500">
        <ele>269.9</ele>
        <time>2020-08-06T15:55:47Z</time>
      </trkpt>
      <trkpt lat="41.0072710" lon="0.3848610">
        <ele>269.9</ele>
        <time>2020-08-06T15:55:48Z</time>
      </trkpt>
      <trkpt lat="41.0072760" lon="0.3848800">
        <ele>269.9</ele>
        <time>2020-08-06T15:55:49Z</time>
      </trkpt>
      <trkpt lat="41.0072800" lon="0.3849180">
        <ele>269.9</ele>
        <time>2020-08-06T15:55:51Z</time>
      </trkpt>
      <trkpt lat="41.0072820" lon="0.3849460">
        <ele>269.9</ele>
        <time>2020-08-06T15:55:52Z</time>
      </trkpt>
      <trkpt lat="41.0072780" lon="0.3849900">
        <ele>269.9</ele>
        <time>2020-08-06T15:55:54Z</time>
      </trkpt>
      <trkpt lat="41.0072780" lon="0.3850280">
        <ele>269.9</ele>
        <time>2020-08-06T15:55:55Z</time>
      </trkpt>
      <trkpt lat="41.0072910" lon="0.3850740">
        <ele>269.9</ele>
        <time>2020-08-06T15:55:57Z</time>
      </trkpt>
      <trkpt lat="41.0072930" lon="0.3851060">
        <ele>269.9</ele>
        <time>2020-08-06T15:55:58Z</time>
      </trkpt>
      <trkpt lat="41.0073030" lon="0.3851520">
        <ele>269.8</ele>
        <time>2020-08-06T15:56:00Z</time>
      </trkpt>
      <trkpt lat="41.0073090" lon="0.3851900">
        <ele>269.8</ele>
        <time>2020-08-06T15:56:01Z</time>
      </trkpt>
      <trkpt lat="41.0073120" lon="0.3852280">
        <ele>269.8</ele>
        <time>2020-08-06T15:56:03Z</time>
      </trkpt>
      <trkpt lat="41.0073120" lon="0.3852660">
        <ele>269.8</ele>
        <time>2020-08-06T15:56:04Z</time>
      </trkpt>
      <trkpt lat="41.0073150" lon="0.3853020">
        <ele>269.8</ele>
        <time>2020-08-06T15:56:05Z</time>
      </trkpt>
      <trkpt lat="41.0073180" lon="0.3853550">
        <ele>269.7</ele>
        <time>2020-08-06T15:56:07Z</time>
      </trkpt>
      <trkpt lat="41.0073200" lon="0.3854010">
        <ele>269.7</ele>
        <time>2020-08-06T15:56:09Z</time>
      </trkpt>
      <trkpt lat="41.0073190" lon="0.3854130">
        <ele>269.7</ele>
        <time>2020-08-06T15:56:10Z</time>
      </trkpt>
      <trkpt lat="41.0073160" lon="0.3854410">
        <ele>269.7</ele>
        <time>2020-08-06T15:56:12Z</time>
      </trkpt>
      <trkpt lat="41.0073090" lon="0.3854480">
        <ele>269.7</ele>
        <time>2020-08-06T15:56:14Z</time>
      </trkpt>
      <trkpt lat="41.0072980" lon="0.3854540">
        <ele>269.7</ele>
        <time>2020-08-06T15:56:15Z</time>
      </trkpt>
      <trkpt lat="41.0072830" lon="0.3854590">
        <ele>269.7</ele>
        <time>2020-08-06T15:56:16Z</time>
      </trkpt>
      <trkpt lat="41.0072700" lon="0.3854650">
        <ele>269.7</ele>
        <time>2020-08-06T15:56:17Z</time>
      </trkpt>
      <trkpt lat="41.0072580" lon="0.3854720">
        <ele>269.3</ele>
        <time>2020-08-06T15:56:18Z</time>
      </trkpt>
      <trkpt lat="41.0072410" lon="0.3854700">
        <ele>269.4</ele>
        <time>2020-08-06T15:56:20Z</time>
      </trkpt>
      <trkpt lat="41.0072390" lon="0.3854690">
        <ele>269.5</ele>
        <time>2020-08-06T15:56:21Z</time>
      </trkpt>
      <trkpt lat="41.0072230" lon="0.3854770">
        <ele>269.3</ele>
        <time>2020-08-06T15:56:23Z</time>
      </trkpt>
      <trkpt lat="41.0072180" lon="0.3854840">
        <ele>269.4</ele>
        <time>2020-08-06T15:56:24Z</time>
      </trkpt>
      <trkpt lat="41.0072140" lon="0.3854920">
        <ele>269.5</ele>
        <time>2020-08-06T15:56:25Z</time>
      </trkpt>
      <trkpt lat="41.0072110" lon="0.3855060">
        <ele>269.6</ele>
        <time>2020-08-06T15:56:27Z</time>
      </trkpt>
      <trkpt lat="41.0071990" lon="0.3855260">
        <ele>269.2</ele>
        <time>2020-08-06T15:56:28Z</time>
      </trkpt>
      <trkpt lat="41.0071730" lon="0.3855540">
        <ele>269.2</ele>
        <time>2020-08-06T15:56:30Z</time>
      </trkpt>
      <trkpt lat="41.0071650" lon="0.3855630">
        <ele>269.0</ele>
        <time>2020-08-06T15:56:31Z</time>
      </trkpt>
      <trkpt lat="41.0071370" lon="0.3855810">
        <ele>268.8</ele>
        <time>2020-08-06T15:56:33Z</time>
      </trkpt>
      <trkpt lat="41.0071310" lon="0.3855870">
        <ele>268.9</ele>
        <time>2020-08-06T15:56:34Z</time>
      </trkpt>
      <trkpt lat="41.0071240" lon="0.3856060">
        <ele>268.9</ele>
        <time>2020-08-06T15:56:36Z</time>
      </trkpt>
      <trkpt lat="41.0071220" lon="0.3856300">
        <ele>269.0</ele>
        <time>2020-08-06T15:56:37Z</time>
      </trkpt>
      <trkpt lat="41.0071210" lon="0.3856340">
        <ele>269.2</ele>
        <time>2020-08-06T15:56:39Z</time>
      </trkpt>
      <trkpt lat="41.0071140" lon="0.3856280">
        <ele>269.3</ele>
        <time>2020-08-06T15:56:41Z</time>
      </trkpt>
      <trkpt lat="41.0071120" lon="0.3856280">
        <ele>269.4</ele>
        <time>2020-08-06T15:56:42Z</time>
      </trkpt>
      <trkpt lat="41.0071150" lon="0.3856280">
        <ele>269.6</ele>
        <time>2020-08-06T15:56:43Z</time>
      </trkpt>
      <trkpt lat="41.0071180" lon="0.3856040">
        <ele>269.7</ele>
        <time>2020-08-06T15:56:48Z</time>
      </trkpt>
      <trkpt lat="41.0071090" lon="0.3856170">
        <ele>269.8</ele>
        <time>2020-08-06T15:56:50Z</time>
      </trkpt>
      <trkpt lat="41.0071050" lon="0.3856200">
        <ele>269.7</ele>
        <time>2020-08-06T15:56:51Z</time>
      </trkpt>
      <trkpt lat="41.0070980" lon="0.3856260">
        <ele>269.8</ele>
        <time>2020-08-06T15:56:54Z</time>
      </trkpt>
      <trkpt lat="41.0070660" lon="0.3856040">
        <ele>269.8</ele>
        <time>2020-08-06T16:00:32Z</time>
      </trkpt>
      <trkpt lat="41.0070720" lon="0.3855930">
        <ele>269.8</ele>
        <time>2020-08-06T16:00:34Z</time>
      </trkpt>
      <trkpt lat="41.0070750" lon="0.3855950">
        <ele>269.8</ele>
        <time>2020-08-06T16:00:36Z</time>
      </trkpt>
      <trkpt lat="41.0070770" lon="0.3855950">
        <ele>269.8</ele>
        <time>2020-08-06T16:00:37Z</time>
      </trkpt>
      <trkpt lat="41.0070790" lon="0.3855970">
        <ele>269.8</ele>
        <time>2020-08-06T16:00:38Z</time>
      </trkpt>
      <trkpt lat="41.0070800" lon="0.3855930">
        <ele>269.8</ele>
        <time>2020-08-06T16:00:39Z</time>
      </trkpt>
      <trkpt lat="41.0070820" lon="0.3855790">
        <ele>269.8</ele>
        <time>2020-08-06T16:00:41Z</time>
      </trkpt>
      <trkpt lat="41.0070790" lon="0.3855810">
        <ele>269.8</ele>
        <time>2020-08-06T16:00:43Z</time>
      </trkpt>
      <trkpt lat="41.0070780" lon="0.3855820">
        <ele>269.8</ele>
        <time>2020-08-06T16:00:44Z</time>
      </trkpt>
      <trkpt lat="41.0070760" lon="0.3855820">
        <ele>269.8</ele>
        <time>2020-08-06T16:00:46Z</time>
      </trkpt>
      <trkpt lat="41.0070740" lon="0.3855810">
        <ele>269.8</ele>
        <time>2020-08-06T16:00:48Z</time>
      </trkpt>
      <trkpt lat="41.0070720" lon="0.3855790">
        <ele>269.8</ele>
        <time>2020-08-06T16:00:50Z</time>
      </trkpt>
      <trkpt lat="41.0070680" lon="0.3855610">
        <ele>269.8</ele>
        <time>2020-08-06T16:01:25Z</time>
      </trkpt>
      <trkpt lat="41.0070620" lon="0.3855500">
        <ele>269.7</ele>
        <time>2020-08-06T16:01:27Z</time>
      </trkpt>
      <trkpt lat="41.0070560" lon="0.3855430">
        <ele>269.7</ele>
        <time>2020-08-06T16:01:28Z</time>
      </trkpt>
      <trkpt lat="41.0070500" lon="0.3855310">
        <ele>269.7</ele>
        <time>2020-08-06T16:01:29Z</time>
      </trkpt>
      <trkpt lat="41.0070460" lon="0.3855010">
        <ele>269.7</ele>
        <time>2020-08-06T16:01:30Z</time>
      </trkpt>
      <trkpt lat="41.0070450" lon="0.3854800">
        <ele>269.7</ele>
        <time>2020-08-06T16:01:32Z</time>
      </trkpt>
      <trkpt lat="41.0070440" lon="0.3854590">
        <ele>269.7</ele>
        <time>2020-08-06T16:01:33Z</time>
      </trkpt>
      <trkpt lat="41.0070430" lon="0.3854380">
        <ele>269.7</ele>
        <time>2020-08-06T16:01:34Z</time>
      </trkpt>
      <trkpt lat="41.0070430" lon="0.3854140">
        <ele>269.6</ele>
        <time>2020-08-06T16:01:35Z</time>
      </trkpt>
      <trkpt lat="41.0070430" lon="0.3853330">
        <ele>269.6</ele>
        <time>2020-08-06T16:01:37Z</time>
      </trkpt>
      <trkpt lat="41.0070460" lon="0.3852930">
        <ele>269.6</ele>
        <time>2020-08-06T16:01:38Z</time>
      </trkpt>
      <trkpt lat="41.0070430" lon="0.3852600">
        <ele>269.5</ele>
        <time>2020-08-06T16:01:39Z</time>
      </trkpt>
      <trkpt lat="41.0070450" lon="0.3852130">
        <ele>269.5</ele>
        <time>2020-08-06T16:01:41Z</time>
      </trkpt>
      <trkpt lat="41.0070450" lon="0.3851740">
        <ele>269.5</ele>
        <time>2020-08-06T16:01:42Z</time>
      </trkpt>
      <trkpt lat="41.0070440" lon="0.3851380">
        <ele>269.5</ele>
        <time>2020-08-06T16:01:43Z</time>
      </trkpt>
      <trkpt lat="41.0070450" lon="0.3851110">
        <ele>269.5</ele>
        <time>2020-08-06T16:01:44Z</time>
      </trkpt>
      <trkpt lat="41.0070410" lon="0.3850590">
        <ele>269.4</ele>
        <time>2020-08-06T16:01:46Z</time>
      </trkpt>
      <trkpt lat="41.0070380" lon="0.3850220">
        <ele>269.4</ele>
        <time>2020-08-06T16:01:47Z</time>
      </trkpt>
      <trkpt lat="41.0070390" lon="0.3849830">
        <ele>269.4</ele>
        <time>2020-08-06T16:01:49Z</time>
      </trkpt>
      <trkpt lat="41.0070420" lon="0.3849480">
        <ele>269.4</ele>
        <time>2020-08-06T16:01:50Z</time>
      </trkpt>
      <trkpt lat="41.0070450" lon="0.3849140">
        <ele>269.3</ele>
        <time>2020-08-06T16:01:51Z</time>
      </trkpt>
      <trkpt lat="41.0070450" lon="0.3848790">
        <ele>269.3</ele>
        <time>2020-08-06T16:01:53Z</time>
      </trkpt>
      <trkpt lat="41.0070450" lon="0.3848390">
        <ele>269.3</ele>
        <time>2020-08-06T16:01:54Z</time>
      </trkpt>
      <trkpt lat="41.0070460" lon="0.3848250">
        <ele>269.3</ele>
        <time>2020-08-06T16:01:55Z</time>
      </trkpt>
      <trkpt lat="41.0070490" lon="0.3847910">
        <ele>269.3</ele>
        <time>2020-08-06T16:01:56Z</time>
      </trkpt>
      <trkpt lat="41.0070460" lon="0.3847650">
        <ele>269.3</ele>
        <time>2020-08-06T16:01:58Z</time>
      </trkpt>
      <trkpt lat="41.0070470" lon="0.3847200">
        <ele>269.2</ele>
        <time>2020-08-06T16:01:59Z</time>
      </trkpt>
      <trkpt lat="41.0070480" lon="0.3847020">
        <ele>269.2</ele>
        <time>2020-08-06T16:02:00Z</time>
      </trkpt>
      <trkpt lat="41.0070500" lon="0.3846740">
        <ele>269.2</ele>
        <time>2020-08-06T16:02:01Z</time>
      </trkpt>
      <trkpt lat="41.0070510" lon="0.3846470">
        <ele>269.2</ele>
        <time>2020-08-06T16:02:03Z</time>
      </trkpt>
      <trkpt lat="41.0070540" lon="0.3846220">
        <ele>269.2</ele>
        <time>2020-08-06T16:02:04Z</time>
      </trkpt>
      <trkpt lat="41.0070510" lon="0.3846000">
        <ele>269.1</ele>
        <time>2020-08-06T16:02:05Z</time>
      </trkpt>
      <trkpt lat="41.0070550" lon="0.3845770">
        <ele>269.1</ele>
        <time>2020-08-06T16:02:06Z</time>
      </trkpt>
      <trkpt lat="41.0070620" lon="0.3845560">
        <ele>269.1</ele>
        <time>2020-08-06T16:02:08Z</time>
      </trkpt>
      <trkpt lat="41.0070640" lon="0.3845530">
        <ele>269.1</ele>
        <time>2020-08-06T16:02:10Z</time>
      </trkpt>
      <trkpt lat="41.0070630" lon="0.3845460">
        <ele>269.1</ele>
        <time>2020-08-06T16:02:11Z</time>
      </trkpt>
      <trkpt lat="41.0070680" lon="0.3845200">
        <ele>269.1</ele>
        <time>2020-08-06T16:02:13Z</time>
      </trkpt>
      <trkpt lat="41.0070770" lon="0.3844950">
        <ele>269.0</ele>
        <time>2020-08-06T16:02:14Z</time>
      </trkpt>
      <trkpt lat="41.0070840" lon="0.3844650">
        <ele>269.0</ele>
        <time>2020-08-06T16:02:16Z</time>
      </trkpt>
      <trkpt lat="41.0070940" lon="0.3844280">
        <ele>269.0</ele>
        <time>2020-08-06T16:02:17Z</time>
      </trkpt>
      <trkpt lat="41.0070970" lon="0.3844120">
        <ele>268.9</ele>
        <time>2020-08-06T16:02:18Z</time>
      </trkpt>
      <trkpt lat="41.0071030" lon="0.3843750">
        <ele>268.9</ele>
        <time>2020-08-06T16:02:19Z</time>
      </trkpt>
      <trkpt lat="41.0071040" lon="0.3843610">
        <ele>268.9</ele>
        <time>2020-08-06T16:02:20Z</time>
      </trkpt>
      <trkpt lat="41.0071070" lon="0.3843390">
        <ele>268.9</ele>
        <time>2020-08-06T16:02:22Z</time>
      </trkpt>
      <trkpt lat="41.0071130" lon="0.3843180">
        <ele>268.9</ele>
        <time>2020-08-06T16:02:23Z</time>
      </trkpt>
      <trkpt lat="41.0071200" lon="0.3843000">
        <ele>268.9</ele>
        <time>2020-08-06T16:02:24Z</time>
      </trkpt>
      <trkpt lat="41.0071280" lon="0.3842780">
        <ele>268.9</ele>
        <time>2020-08-06T16:02:25Z</time>
      </trkpt>
      <trkpt lat="41.0071330" lon="0.3842580">
        <ele>268.9</ele>
        <time>2020-08-06T16:02:26Z</time>
      </trkpt>
      <trkpt lat="41.0071370" lon="0.3842380">
        <ele>268.9</ele>
        <time>2020-08-06T16:02:27Z</time>
      </trkpt>
      <trkpt lat="41.0071490" lon="0.3841600">
        <ele>268.9</ele>
        <time>2020-08-06T16:02:29Z</time>
      </trkpt>
      <trkpt lat="41.0071540" lon="0.3841100">
        <ele>268.9</ele>
        <time>2020-08-06T16:02:30Z</time>
      </trkpt>
      <trkpt lat="41.0071660" lon="0.3840520">
        <ele>268.9</ele>
        <time>2020-08-06T16:02:32Z</time>
      </trkpt>
      <trkpt lat="41.0071740" lon="0.3840110">
        <ele>268.9</ele>
        <time>2020-08-06T16:02:33Z</time>
      </trkpt>
      <trkpt lat="41.0071810" lon="0.3839800">
        <ele>268.9</ele>
        <time>2020-08-06T16:02:34Z</time>
      </trkpt>
      <trkpt lat="41.0071920" lon="0.3839230">
        <ele>268.9</ele>
        <time>2020-08-06T16:02:36Z</time>
      </trkpt>
      <trkpt lat="41.0072000" lon="0.3838900">
        <ele>268.9</ele>
        <time>2020-08-06T16:02:37Z</time>
      </trkpt>
      <trkpt lat="41.0072080" lon="0.3838410">
        <ele>268.9</ele>
        <time>2020-08-06T16:02:39Z</time>
      </trkpt>
      <trkpt lat="41.0072180" lon="0.3838060">
        <ele>268.9</ele>
        <time>2020-08-06T16:02:40Z</time>
      </trkpt>
      <trkpt lat="41.0072340" lon="0.3837470">
        <ele>269.0</ele>
        <time>2020-08-06T16:02:42Z</time>
      </trkpt>
      <trkpt lat="41.0072530" lon="0.3836840">
        <ele>269.0</ele>
        <time>2020-08-06T16:02:44Z</time>
      </trkpt>
      <trkpt lat="41.0072620" lon="0.3836350">
        <ele>269.0</ele>
        <time>2020-08-06T16:02:46Z</time>
      </trkpt>
      <trkpt lat="41.0072720" lon="0.3835960">
        <ele>269.0</ele>
        <time>2020-08-06T16:02:47Z</time>
      </trkpt>
      <trkpt lat="41.0072840" lon="0.3835520">
        <ele>269.0</ele>
        <time>2020-08-06T16:02:49Z</time>
      </trkpt>
      <trkpt lat="41.0072940" lon="0.3835170">
        <ele>269.0</ele>
        <time>2020-08-06T16:02:50Z</time>
      </trkpt>
      <trkpt lat="41.0072990" lon="0.3834880">
        <ele>269.0</ele>
        <time>2020-08-06T16:02:51Z</time>
      </trkpt>
      <trkpt lat="41.0073130" lon="0.3834410">
        <ele>269.1</ele>
        <time>2020-08-06T16:02:53Z</time>
      </trkpt>
      <trkpt lat="41.0073210" lon="0.3833900">
        <ele>269.1</ele>
        <time>2020-08-06T16:02:54Z</time>
      </trkpt>
      <trkpt lat="41.0073250" lon="0.3833710">
        <ele>269.1</ele>
        <time>2020-08-06T16:02:55Z</time>
      </trkpt>
      <trkpt lat="41.0073400" lon="0.3833270">
        <ele>269.1</ele>
        <time>2020-08-06T16:02:57Z</time>
      </trkpt>
      <trkpt lat="41.0073580" lon="0.3832830">
        <ele>269.1</ele>
        <time>2020-08-06T16:02:58Z</time>
      </trkpt>
      <trkpt lat="41.0073640" lon="0.3832570">
        <ele>269.1</ele>
        <time>2020-08-06T16:02:59Z</time>
      </trkpt>
      <trkpt lat="41.0073740" lon="0.3832210">
        <ele>269.1</ele>
        <time>2020-08-06T16:03:01Z</time>
      </trkpt>
      <trkpt lat="41.0073890" lon="0.3831810">
        <ele>269.1</ele>
        <time>2020-08-06T16:03:02Z</time>
      </trkpt>
      <trkpt lat="41.0073920" lon="0.3831720">
        <ele>269.1</ele>
        <time>2020-08-06T16:03:03Z</time>
      </trkpt>
      <trkpt lat="41.0073970" lon="0.3831400">
        <ele>269.1</ele>
        <time>2020-08-06T16:03:04Z</time>
      </trkpt>
      <trkpt lat="41.0074000" lon="0.3831270">
        <ele>269.1</ele>
        <time>2020-08-06T16:03:06Z</time>
      </trkpt>
      <trkpt lat="41.0074040" lon="0.3831140">
        <ele>269.1</ele>
        <time>2020-08-06T16:03:07Z</time>
      </trkpt>
      <trkpt lat="41.0074080" lon="0.3831010">
        <ele>269.0</ele>
        <time>2020-08-06T16:03:09Z</time>
      </trkpt>
      <trkpt lat="41.0074110" lon="0.3830880">
        <ele>269.0</ele>
        <time>2020-08-06T16:03:11Z</time>
      </trkpt>
      <trkpt lat="41.0074150" lon="0.3830760">
        <ele>269.0</ele>
        <time>2020-08-06T16:03:13Z</time>
      </trkpt>
      <trkpt lat="41.0074180" lon="0.3830630">
        <ele>269.0</ele>
        <time>2020-08-06T16:03:15Z</time>
      </trkpt>
      <trkpt lat="41.0074220" lon="0.3830500">
        <ele>269.0</ele>
        <time>2020-08-06T16:03:16Z</time>
      </trkpt>
      <trkpt lat="41.0074260" lon="0.3830370">
        <ele>269.0</ele>
        <time>2020-08-06T16:03:18Z</time>
      </trkpt>
      <trkpt lat="41.0074290" lon="0.3830240">
        <ele>269.0</ele>
        <time>2020-08-06T16:06:34Z</time>
      </trkpt>
      <trkpt lat="41.0074330" lon="0.3830110">
        <ele>269.0</ele>
        <time>2020-08-06T16:06:35Z</time>
      </trkpt>
      <trkpt lat="41.0074390" lon="0.3829700">
        <ele>269.0</ele>
        <time>2020-08-06T16:06:36Z</time>
      </trkpt>
      <trkpt lat="41.0074410" lon="0.3829570">
        <ele>269.0</ele>
        <time>2020-08-06T16:06:37Z</time>
      </trkpt>
      <trkpt lat="41.0074440" lon="0.3829310">
        <ele>269.0</ele>
        <time>2020-08-06T16:06:38Z</time>
      </trkpt>
      <trkpt lat="41.0074470" lon="0.3829110">
        <ele>269.0</ele>
        <time>2020-08-06T16:06:39Z</time>
      </trkpt>
      <trkpt lat="41.0074510" lon="0.3828690">
        <ele>269.0</ele>
        <time>2020-08-06T16:06:41Z</time>
      </trkpt>
      <trkpt lat="41.0074520" lon="0.3828580">
        <ele>269.0</ele>
        <time>2020-08-06T16:06:42Z</time>
      </trkpt>
      <trkpt lat="41.0074620" lon="0.3828210">
        <ele>269.0</ele>
        <time>2020-08-06T16:06:43Z</time>
      </trkpt>
      <trkpt lat="41.0074670" lon="0.3828030">
        <ele>269.0</ele>
        <time>2020-08-06T16:06:45Z</time>
      </trkpt>
      <trkpt lat="41.0074710" lon="0.3827860">
        <ele>269.0</ele>
        <time>2020-08-06T16:06:46Z</time>
      </trkpt>
      <trkpt lat="41.0074760" lon="0.3827680">
        <ele>269.0</ele>
        <time>2020-08-06T16:06:47Z</time>
      </trkpt>
      <trkpt lat="41.0074820" lon="0.3827450">
        <ele>269.0</ele>
        <time>2020-08-06T16:06:48Z</time>
      </trkpt>
      <trkpt lat="41.0074900" lon="0.3827090">
        <ele>269.0</ele>
        <time>2020-08-06T16:06:50Z</time>
      </trkpt>
      <trkpt lat="41.0075120" lon="0.3826150">
        <ele>268.9</ele>
        <time>2020-08-06T16:06:51Z</time>
      </trkpt>
      <trkpt lat="41.0075300" lon="0.3825410">
        <ele>268.9</ele>
        <time>2020-08-06T16:06:53Z</time>
      </trkpt>
      <trkpt lat="41.0075430" lon="0.3825000">
        <ele>268.9</ele>
        <time>2020-08-06T16:06:54Z</time>
      </trkpt>
      <trkpt lat="41.0075620" lon="0.3824350">
        <ele>268.9</ele>
        <time>2020-08-06T16:06:56Z</time>
      </trkpt>
      <trkpt lat="41.0075720" lon="0.3823910">
        <ele>268.9</ele>
        <time>2020-08-06T16:06:57Z</time>
      </trkpt>
      <trkpt lat="41.0075860" lon="0.3823400">
        <ele>268.9</ele>
        <time>2020-08-06T16:06:58Z</time>
      </trkpt>
      <trkpt lat="41.0075910" lon="0.3823220">
        <ele>268.9</ele>
        <time>2020-08-06T16:06:59Z</time>
      </trkpt>
      <trkpt lat="41.0076130" lon="0.3822490">
        <ele>268.9</ele>
        <time>2020-08-06T16:07:01Z</time>
      </trkpt>
      <trkpt lat="41.0076330" lon="0.3821850">
        <ele>268.9</ele>
        <time>2020-08-06T16:07:03Z</time>
      </trkpt>
      <trkpt lat="41.0076460" lon="0.3821520">
        <ele>268.9</ele>
        <time>2020-08-06T16:07:04Z</time>
      </trkpt>
      <trkpt lat="41.0076550" lon="0.3821240">
        <ele>268.9</ele>
        <time>2020-08-06T16:07:05Z</time>
      </trkpt>
      <trkpt lat="41.0076700" lon="0.3820740">
        <ele>268.9</ele>
        <time>2020-08-06T16:07:07Z</time>
      </trkpt>
      <trkpt lat="41.0076810" lon="0.3820400">
        <ele>268.9</ele>
        <time>2020-08-06T16:07:08Z</time>
      </trkpt>
      <trkpt lat="41.0076950" lon="0.3820020">
        <ele>269.0</ele>
        <time>2020-08-06T16:07:09Z</time>
      </trkpt>
      <trkpt lat="41.0077060" lon="0.3819690">
        <ele>269.0</ele>
        <time>2020-08-06T16:07:10Z</time>
      </trkpt>
      <trkpt lat="41.0077170" lon="0.3819280">
        <ele>269.0</ele>
        <time>2020-08-06T16:07:11Z</time>
      </trkpt>
      <trkpt lat="41.0077260" lon="0.3818920">
        <ele>269.0</ele>
        <time>2020-08-06T16:07:12Z</time>
      </trkpt>
      <trkpt lat="41.0077400" lon="0.3818450">
        <ele>269.0</ele>
        <time>2020-08-06T16:07:14Z</time>
      </trkpt>
      <trkpt lat="41.0077480" lon="0.3818110">
        <ele>269.0</ele>
        <time>2020-08-06T16:07:15Z</time>
      </trkpt>
      <trkpt lat="41.0077670" lon="0.3817610">
        <ele>269.0</ele>
        <time>2020-08-06T16:07:16Z</time>
      </trkpt>
      <trkpt lat="41.0077730" lon="0.3817430">
        <ele>269.0</ele>
        <time>2020-08-06T16:07:17Z</time>
      </trkpt>
      <trkpt lat="41.0077820" lon="0.3817030">
        <ele>269.0</ele>
        <time>2020-08-06T16:07:18Z</time>
      </trkpt>
      <trkpt lat="41.0077920" lon="0.3816740">
        <ele>269.0</ele>
        <time>2020-08-06T16:07:19Z</time>
      </trkpt>
      <trkpt lat="41.0078040" lon="0.3816280">
        <ele>269.0</ele>
        <time>2020-08-06T16:07:21Z</time>
      </trkpt>
      <trkpt lat="41.0078120" lon="0.3815920">
        <ele>269.1</ele>
        <time>2020-08-06T16:07:22Z</time>
      </trkpt>
      <trkpt lat="41.0078200" lon="0.3815540">
        <ele>269.1</ele>
        <time>2020-08-06T16:07:23Z</time>
      </trkpt>
      <trkpt lat="41.0078330" lon="0.3815140">
        <ele>269.1</ele>
        <time>2020-08-06T16:07:24Z</time>
      </trkpt>
      <trkpt lat="41.0078480" lon="0.3814530">
        <ele>269.1</ele>
        <time>2020-08-06T16:07:26Z</time>
      </trkpt>
      <trkpt lat="41.0078590" lon="0.3814090">
        <ele>269.1</ele>
        <time>2020-08-06T16:07:27Z</time>
      </trkpt>
      <trkpt lat="41.0078680" lon="0.3813820">
        <ele>269.1</ele>
        <time>2020-08-06T16:07:28Z</time>
      </trkpt>
      <trkpt lat="41.0078870" lon="0.3813230">
        <ele>269.1</ele>
        <time>2020-08-06T16:07:30Z</time>
      </trkpt>
      <trkpt lat="41.0079030" lon="0.3812640">
        <ele>269.1</ele>
        <time>2020-08-06T16:07:32Z</time>
      </trkpt>
      <trkpt lat="41.0079100" lon="0.3812340">
        <ele>269.1</ele>
        <time>2020-08-06T16:07:33Z</time>
      </trkpt>
      <trkpt lat="41.0079210" lon="0.3811700">
        <ele>269.1</ele>
        <time>2020-08-06T16:07:35Z</time>
      </trkpt>
      <trkpt lat="41.0079330" lon="0.3811230">
        <ele>269.1</ele>
        <time>2020-08-06T16:07:36Z</time>
      </trkpt>
      <trkpt lat="41.0079370" lon="0.3811050">
        <ele>269.1</ele>
        <time>2020-08-06T16:07:37Z</time>
      </trkpt>
      <trkpt lat="41.0079560" lon="0.3810380">
        <ele>269.0</ele>
        <time>2020-08-06T16:07:39Z</time>
      </trkpt>
      <trkpt lat="41.0079660" lon="0.3810020">
        <ele>269.0</ele>
        <time>2020-08-06T16:07:40Z</time>
      </trkpt>
      <trkpt lat="41.0079750" lon="0.3809710">
        <ele>269.0</ele>
        <time>2020-08-06T16:07:41Z</time>
      </trkpt>
      <trkpt lat="41.0079950" lon="0.3809030">
        <ele>269.0</ele>
        <time>2020-08-06T16:07:43Z</time>
      </trkpt>
      <trkpt lat="41.0080030" lon="0.3808690">
        <ele>268.9</ele>
        <time>2020-08-06T16:07:44Z</time>
      </trkpt>
      <trkpt lat="41.0080130" lon="0.3808290">
        <ele>268.9</ele>
        <time>2020-08-06T16:07:45Z</time>
      </trkpt>
      <trkpt lat="41.0080220" lon="0.3807930">
        <ele>268.9</ele>
        <time>2020-08-06T16:07:46Z</time>
      </trkpt>
      <trkpt lat="41.0080380" lon="0.3807270">
        <ele>268.9</ele>
        <time>2020-08-06T16:07:48Z</time>
      </trkpt>
      <trkpt lat="41.0080470" lon="0.3806800">
        <ele>268.9</ele>
        <time>2020-08-06T16:07:49Z</time>
      </trkpt>
      <trkpt lat="41.0080510" lon="0.3806620">
        <ele>268.9</ele>
        <time>2020-08-06T16:07:50Z</time>
      </trkpt>
      <trkpt lat="41.0080600" lon="0.3806100">
        <ele>268.9</ele>
        <time>2020-08-06T16:07:51Z</time>
      </trkpt>
      <trkpt lat="41.0080630" lon="0.3805920">
        <ele>268.9</ele>
        <time>2020-08-06T16:07:52Z</time>
      </trkpt>
      <trkpt lat="41.0080730" lon="0.3805420">
        <ele>268.9</ele>
        <time>2020-08-06T16:07:53Z</time>
      </trkpt>
      <trkpt lat="41.0080770" lon="0.3805230">
        <ele>268.9</ele>
        <time>2020-08-06T16:07:54Z</time>
      </trkpt>
      <trkpt lat="41.0080930" lon="0.3804540">
        <ele>268.8</ele>
        <time>2020-08-06T16:07:56Z</time>
      </trkpt>
      <trkpt lat="41.0081030" lon="0.3803850">
        <ele>268.8</ele>
        <time>2020-08-06T16:07:58Z</time>
      </trkpt>
      <trkpt lat="41.0081130" lon="0.3803090">
        <ele>268.8</ele>
        <time>2020-08-06T16:08:00Z</time>
      </trkpt>
      <trkpt lat="41.0081190" lon="0.3802740">
        <ele>268.8</ele>
        <time>2020-08-06T16:08:01Z</time>
      </trkpt>
      <trkpt lat="41.0081250" lon="0.3802390">
        <ele>268.8</ele>
        <time>2020-08-06T16:08:02Z</time>
      </trkpt>
      <trkpt lat="41.0081360" lon="0.3801720">
        <ele>268.8</ele>
        <time>2020-08-06T16:08:04Z</time>
      </trkpt>
      <trkpt lat="41.0081410" lon="0.3801270">
        <ele>268.8</ele>
        <time>2020-08-06T16:08:05Z</time>
      </trkpt>
      <trkpt lat="41.0081420" lon="0.3801120">
        <ele>268.8</ele>
        <time>2020-08-06T16:08:06Z</time>
      </trkpt>
      <trkpt lat="41.0081460" lon="0.3800660">
        <ele>268.8</ele>
        <time>2020-08-06T16:08:07Z</time>
      </trkpt>
      <trkpt lat="41.0081470" lon="0.3800480">
        <ele>268.8</ele>
        <time>2020-08-06T16:08:08Z</time>
      </trkpt>
      <trkpt lat="41.0081580" lon="0.3799750">
        <ele>268.8</ele>
        <time>2020-08-06T16:08:10Z</time>
      </trkpt>
      <trkpt lat="41.0081630" lon="0.3799350">
        <ele>268.8</ele>
        <time>2020-08-06T16:08:11Z</time>
      </trkpt>
      <trkpt lat="41.0081670" lon="0.3798890">
        <ele>268.8</ele>
        <time>2020-08-06T16:08:12Z</time>
      </trkpt>
      <trkpt lat="41.0081680" lon="0.3798720">
        <ele>268.8</ele>
        <time>2020-08-06T16:08:13Z</time>
      </trkpt>
      <trkpt lat="41.0081770" lon="0.3797920">
        <ele>268.8</ele>
        <time>2020-08-06T16:08:15Z</time>
      </trkpt>
      <trkpt lat="41.0081840" lon="0.3797440">
        <ele>268.8</ele>
        <time>2020-08-06T16:08:16Z</time>
      </trkpt>
      <trkpt lat="41.0081860" lon="0.3797270">
        <ele>268.8</ele>
        <time>2020-08-06T16:08:17Z</time>
      </trkpt>
      <trkpt lat="41.0081890" lon="0.3796890">
        <ele>268.8</ele>
        <time>2020-08-06T16:08:18Z</time>
      </trkpt>
      <trkpt lat="41.0081900" lon="0.3796140">
        <ele>268.8</ele>
        <time>2020-08-06T16:08:20Z</time>
      </trkpt>
      <trkpt lat="41.0081900" lon="0.3795710">
        <ele>268.9</ele>
        <time>2020-08-06T16:08:21Z</time>
      </trkpt>
      <trkpt lat="41.0081900" lon="0.3795340">
        <ele>268.9</ele>
        <time>2020-08-06T16:08:22Z</time>
      </trkpt>
      <trkpt lat="41.0081910" lon="0.3794920">
        <ele>268.9</ele>
        <time>2020-08-06T16:08:23Z</time>
      </trkpt>
      <trkpt lat="41.0081910" lon="0.3794130">
        <ele>268.9</ele>
        <time>2020-08-06T16:08:25Z</time>
      </trkpt>
      <trkpt lat="41.0081880" lon="0.3793470">
        <ele>268.9</ele>
        <time>2020-08-06T16:08:27Z</time>
      </trkpt>
      <trkpt lat="41.0081860" lon="0.3792960">
        <ele>268.9</ele>
        <time>2020-08-06T16:08:28Z</time>
      </trkpt>
      <trkpt lat="41.0081850" lon="0.3792780">
        <ele>269.0</ele>
        <time>2020-08-06T16:08:29Z</time>
      </trkpt>
      <trkpt lat="41.0081830" lon="0.3792060">
        <ele>269.0</ele>
        <time>2020-08-06T16:08:31Z</time>
      </trkpt>
      <trkpt lat="41.0081770" lon="0.3791390">
        <ele>269.0</ele>
        <time>2020-08-06T16:08:33Z</time>
      </trkpt>
      <trkpt lat="41.0081680" lon="0.3790650">
        <ele>269.0</ele>
        <time>2020-08-06T16:08:35Z</time>
      </trkpt>
      <trkpt lat="41.0081590" lon="0.3789970">
        <ele>269.1</ele>
        <time>2020-08-06T16:08:37Z</time>
      </trkpt>
      <trkpt lat="41.0081490" lon="0.3789300">
        <ele>269.1</ele>
        <time>2020-08-06T16:08:39Z</time>
      </trkpt>
      <trkpt lat="41.0081430" lon="0.3788920">
        <ele>269.2</ele>
        <time>2020-08-06T16:08:40Z</time>
      </trkpt>
      <trkpt lat="41.0081320" lon="0.3788420">
        <ele>269.2</ele>
        <time>2020-08-06T16:08:42Z</time>
      </trkpt>
      <trkpt lat="41.0081200" lon="0.3787850">
        <ele>269.3</ele>
        <time>2020-08-06T16:08:44Z</time>
      </trkpt>
      <trkpt lat="41.0081140" lon="0.3787500">
        <ele>269.3</ele>
        <time>2020-08-06T16:08:45Z</time>
      </trkpt>
      <trkpt lat="41.0081070" lon="0.3787150">
        <ele>269.4</ele>
        <time>2020-08-06T16:08:46Z</time>
      </trkpt>
      <trkpt lat="41.0080900" lon="0.3786460">
        <ele>269.5</ele>
        <time>2020-08-06T16:08:48Z</time>
      </trkpt>
      <trkpt lat="41.0080770" lon="0.3785960">
        <ele>269.5</ele>
        <time>2020-08-06T16:08:49Z</time>
      </trkpt>
      <trkpt lat="41.0080720" lon="0.3785770">
        <ele>269.5</ele>
        <time>2020-08-06T16:08:50Z</time>
      </trkpt>
      <trkpt lat="41.0080640" lon="0.3785500">
        <ele>269.6</ele>
        <time>2020-08-06T16:08:51Z</time>
      </trkpt>
      <trkpt lat="41.0080460" lon="0.3784870">
        <ele>269.6</ele>
        <time>2020-08-06T16:08:53Z</time>
      </trkpt>
      <trkpt lat="41.0080320" lon="0.3784320">
        <ele>269.7</ele>
        <time>2020-08-06T16:08:55Z</time>
      </trkpt>
      <trkpt lat="41.0080240" lon="0.3784050">
        <ele>269.7</ele>
        <time>2020-08-06T16:08:56Z</time>
      </trkpt>
      <trkpt lat="41.0080090" lon="0.3783460">
        <ele>269.8</ele>
        <time>2020-08-06T16:08:58Z</time>
      </trkpt>
      <trkpt lat="41.0079880" lon="0.3783080">
        <ele>269.9</ele>
        <time>2020-08-06T16:09:00Z</time>
      </trkpt>
      <trkpt lat="41.0079830" lon="0.3782990">
        <ele>269.9</ele>
        <time>2020-08-06T16:09:02Z</time>
      </trkpt>
      <trkpt lat="41.0079790" lon="0.3782900">
        <ele>269.9</ele>
        <time>2020-08-06T16:09:08Z</time>
      </trkpt>
      <trkpt lat="41.0079740" lon="0.3782820">
        <ele>269.9</ele>
        <time>2020-08-06T16:09:09Z</time>
      </trkpt>
      <trkpt lat="41.0079690" lon="0.3782730">
        <ele>269.9</ele>
        <time>2020-08-06T16:09:10Z</time>
      </trkpt>
      <trkpt lat="41.0079640" lon="0.3782640">
        <ele>269.9</ele>
        <time>2020-08-06T16:09:11Z</time>
      </trkpt>
      <trkpt lat="41.0079590" lon="0.3782550">
        <ele>270.0</ele>
        <time>2020-08-06T16:09:13Z</time>
      </trkpt>
      <trkpt lat="41.0079540" lon="0.3782460">
        <ele>270.0</ele>
        <time>2020-08-06T16:09:31Z</time>
      </trkpt>
      <trkpt lat="41.0079500" lon="0.3782370">
        <ele>270.0</ele>
        <time>2020-08-06T16:09:32Z</time>
      </trkpt>
      <trkpt lat="41.0079450" lon="0.3782290">
        <ele>270.0</ele>
        <time>2020-08-06T16:09:34Z</time>
      </trkpt>
      <trkpt lat="41.0079400" lon="0.3782200">
        <ele>270.0</ele>
        <time>2020-08-06T16:09:35Z</time>
      </trkpt>
      <trkpt lat="41.0079350" lon="0.3782110">
        <ele>270.0</ele>
        <time>2020-08-06T16:09:36Z</time>
      </trkpt>
      <trkpt lat="41.0079260" lon="0.3781730">
        <ele>270.1</ele>
        <time>2020-08-06T16:09:37Z</time>
      </trkpt>
      <trkpt lat="41.0079240" lon="0.3781600">
        <ele>270.1</ele>
        <time>2020-08-06T16:09:38Z</time>
      </trkpt>
      <trkpt lat="41.0079200" lon="0.3781380">
        <ele>270.1</ele>
        <time>2020-08-06T16:09:39Z</time>
      </trkpt>
      <trkpt lat="41.0079050" lon="0.3780810">
        <ele>270.2</ele>
        <time>2020-08-06T16:09:41Z</time>
      </trkpt>
      <trkpt lat="41.0078840" lon="0.3780140">
        <ele>270.4</ele>
        <time>2020-08-06T16:09:42Z</time>
      </trkpt>
      <trkpt lat="41.0078700" lon="0.3779740">
        <ele>270.4</ele>
        <time>2020-08-06T16:09:43Z</time>
      </trkpt>
      <trkpt lat="41.0078560" lon="0.3779380">
        <ele>270.5</ele>
        <time>2020-08-06T16:09:44Z</time>
      </trkpt>
      <trkpt lat="41.0078440" lon="0.3779060">
        <ele>270.6</ele>
        <time>2020-08-06T16:09:45Z</time>
      </trkpt>
      <trkpt lat="41.0078300" lon="0.3778730">
        <ele>270.6</ele>
        <time>2020-08-06T16:09:46Z</time>
      </trkpt>
      <trkpt lat="41.0078040" lon="0.3778200">
        <ele>270.8</ele>
        <time>2020-08-06T16:09:48Z</time>
      </trkpt>
      <trkpt lat="41.0077830" lon="0.3777790">
        <ele>270.9</ele>
        <time>2020-08-06T16:09:50Z</time>
      </trkpt>
      <trkpt lat="41.0077660" lon="0.3777470">
        <ele>270.9</ele>
        <time>2020-08-06T16:09:51Z</time>
      </trkpt>
      <trkpt lat="41.0077450" lon="0.3777110">
        <ele>271.0</ele>
        <time>2020-08-06T16:09:52Z</time>
      </trkpt>
      <trkpt lat="41.0077270" lon="0.3776790">
        <ele>271.1</ele>
        <time>2020-08-06T16:09:53Z</time>
      </trkpt>
      <trkpt lat="41.0077120" lon="0.3776490">
        <ele>271.2</ele>
        <time>2020-08-06T16:09:54Z</time>
      </trkpt>
      <trkpt lat="41.0076910" lon="0.3776110">
        <ele>271.2</ele>
        <time>2020-08-06T16:09:55Z</time>
      </trkpt>
      <trkpt lat="41.0076840" lon="0.3776000">
        <ele>271.2</ele>
        <time>2020-08-06T16:09:56Z</time>
      </trkpt>
      <trkpt lat="41.0076650" lon="0.3775720">
        <ele>271.3</ele>
        <time>2020-08-06T16:09:57Z</time>
      </trkpt>
      <trkpt lat="41.0076500" lon="0.3775500">
        <ele>271.4</ele>
        <time>2020-08-06T16:09:58Z</time>
      </trkpt>
      <trkpt lat="41.0076260" lon="0.3775070">
        <ele>271.5</ele>
        <time>2020-08-06T16:10:00Z</time>
      </trkpt>
      <trkpt lat="41.0076030" lon="0.3774710">
        <ele>271.7</ele>
        <time>2020-08-06T16:10:01Z</time>
      </trkpt>
      <trkpt lat="41.0075870" lon="0.3774420">
        <ele>271.8</ele>
        <time>2020-08-06T16:10:02Z</time>
      </trkpt>
      <trkpt lat="41.0075570" lon="0.3774030">
        <ele>272.0</ele>
        <time>2020-08-06T16:10:04Z</time>
      </trkpt>
      <trkpt lat="41.0075300" lon="0.3773720">
        <ele>272.1</ele>
        <time>2020-08-06T16:10:05Z</time>
      </trkpt>
      <trkpt lat="41.0075220" lon="0.3773650">
        <ele>272.2</ele>
        <time>2020-08-06T16:10:06Z</time>
      </trkpt>
      <trkpt lat="41.0075070" lon="0.3773500">
        <ele>272.2</ele>
        <time>2020-08-06T16:10:07Z</time>
      </trkpt>
      <trkpt lat="41.0074830" lon="0.3773270">
        <ele>272.4</ele>
        <time>2020-08-06T16:10:09Z</time>
      </trkpt>
      <trkpt lat="41.0074610" lon="0.3773070">
        <ele>272.5</ele>
        <time>2020-08-06T16:10:10Z</time>
      </trkpt>
      <trkpt lat="41.0074340" lon="0.3772720">
        <ele>272.6</ele>
        <time>2020-08-06T16:10:12Z</time>
      </trkpt>
      <trkpt lat="41.0074250" lon="0.3772610">
        <ele>272.6</ele>
        <time>2020-08-06T16:10:13Z</time>
      </trkpt>
      <trkpt lat="41.0074140" lon="0.3772480">
        <ele>272.7</ele>
        <time>2020-08-06T16:10:14Z</time>
      </trkpt>
      <trkpt lat="41.0074020" lon="0.3772360">
        <ele>272.7</ele>
        <time>2020-08-06T16:10:15Z</time>
      </trkpt>
      <trkpt lat="41.0073670" lon="0.3771990">
        <ele>272.9</ele>
        <time>2020-08-06T16:10:17Z</time>
      </trkpt>
      <trkpt lat="41.0073550" lon="0.3771870">
        <ele>272.9</ele>
        <time>2020-08-06T16:10:18Z</time>
      </trkpt>
      <trkpt lat="41.0073430" lon="0.3771740">
        <ele>273.0</ele>
        <time>2020-08-06T16:10:19Z</time>
      </trkpt>
      <trkpt lat="41.0073290" lon="0.3771560">
        <ele>273.0</ele>
        <time>2020-08-06T16:10:20Z</time>
      </trkpt>
      <trkpt lat="41.0073070" lon="0.3771270">
        <ele>273.1</ele>
        <time>2020-08-06T16:10:22Z</time>
      </trkpt>
      <trkpt lat="41.0072120" lon="0.3770090">
        <ele>273.5</ele>
        <time>2020-08-06T16:10:23Z</time>
      </trkpt>
      <trkpt lat="41.0071850" lon="0.3769750">
        <ele>273.6</ele>
        <time>2020-08-06T16:10:24Z</time>
      </trkpt>
      <trkpt lat="41.0071390" lon="0.3769150">
        <ele>273.8</ele>
        <time>2020-08-06T16:10:26Z</time>
      </trkpt>
      <trkpt lat="41.0070980" lon="0.3768620">
        <ele>274.0</ele>
        <time>2020-08-06T16:10:28Z</time>
      </trkpt>
      <trkpt lat="41.0070700" lon="0.3768260">
        <ele>274.1</ele>
        <time>2020-08-06T16:10:29Z</time>
      </trkpt>
      <trkpt lat="41.0070600" lon="0.3768140">
        <ele>274.2</ele>
        <time>2020-08-06T16:10:30Z</time>
      </trkpt>
      <trkpt lat="41.0070310" lon="0.3767790">
        <ele>274.3</ele>
        <time>2020-08-06T16:10:31Z</time>
      </trkpt>
      <trkpt lat="41.0070200" lon="0.3767670">
        <ele>274.4</ele>
        <time>2020-08-06T16:10:32Z</time>
      </trkpt>
      <trkpt lat="41.0069740" lon="0.3767180">
        <ele>274.6</ele>
        <time>2020-08-06T16:10:34Z</time>
      </trkpt>
      <trkpt lat="41.0069510" lon="0.3766950">
        <ele>274.7</ele>
        <time>2020-08-06T16:10:35Z</time>
      </trkpt>
      <trkpt lat="41.0069230" lon="0.3766650">
        <ele>274.9</ele>
        <time>2020-08-06T16:10:36Z</time>
      </trkpt>
      <trkpt lat="41.0069120" lon="0.3766550">
        <ele>274.9</ele>
        <time>2020-08-06T16:10:37Z</time>
      </trkpt>
      <trkpt lat="41.0068890" lon="0.3766330">
        <ele>275.0</ele>
        <time>2020-08-06T16:10:38Z</time>
      </trkpt>
      <trkpt lat="41.0068500" lon="0.3765880">
        <ele>275.2</ele>
        <time>2020-08-06T16:10:40Z</time>
      </trkpt>
      <trkpt lat="41.0068220" lon="0.3765550">
        <ele>275.3</ele>
        <time>2020-08-06T16:10:41Z</time>
      </trkpt>
      <trkpt lat="41.0068120" lon="0.3765430">
        <ele>275.4</ele>
        <time>2020-08-06T16:10:42Z</time>
      </trkpt>
      <trkpt lat="41.0067750" lon="0.3764990">
        <ele>275.6</ele>
        <time>2020-08-06T16:10:44Z</time>
      </trkpt>
      <trkpt lat="41.0067540" lon="0.3764730">
        <ele>275.7</ele>
        <time>2020-08-06T16:10:45Z</time>
      </trkpt>
      <trkpt lat="41.0067150" lon="0.3764280">
        <ele>275.9</ele>
        <time>2020-08-06T16:10:47Z</time>
      </trkpt>
      <trkpt lat="41.0066760" lon="0.3763880">
        <ele>276.1</ele>
        <time>2020-08-06T16:10:49Z</time>
      </trkpt>
      <trkpt lat="41.0066570" lon="0.3763710">
        <ele>276.1</ele>
        <time>2020-08-06T16:10:50Z</time>
      </trkpt>
      <trkpt lat="41.0066180" lon="0.3763420">
        <ele>276.3</ele>
        <time>2020-08-06T16:10:52Z</time>
      </trkpt>
      <trkpt lat="41.0065910" lon="0.3763180">
        <ele>276.4</ele>
        <time>2020-08-06T16:10:53Z</time>
      </trkpt>
      <trkpt lat="41.0065820" lon="0.3763090">
        <ele>276.5</ele>
        <time>2020-08-06T16:10:54Z</time>
      </trkpt>
      <trkpt lat="41.0065480" lon="0.3762700">
        <ele>276.6</ele>
        <time>2020-08-06T16:10:56Z</time>
      </trkpt>
      <trkpt lat="41.0065310" lon="0.3762520">
        <ele>276.7</ele>
        <time>2020-08-06T16:10:57Z</time>
      </trkpt>
      <trkpt lat="41.0065000" lon="0.3762180">
        <ele>276.9</ele>
        <time>2020-08-06T16:10:59Z</time>
      </trkpt>
      <trkpt lat="41.0064840" lon="0.3762030">
        <ele>276.9</ele>
        <time>2020-08-06T16:11:00Z</time>
      </trkpt>
      <trkpt lat="41.0064540" lon="0.3761800">
        <ele>277.1</ele>
        <time>2020-08-06T16:11:02Z</time>
      </trkpt>
      <trkpt lat="41.0064330" lon="0.3761610">
        <ele>277.2</ele>
        <time>2020-08-06T16:11:04Z</time>
      </trkpt>
      <trkpt lat="41.0064120" lon="0.3761410">
        <ele>277.2</ele>
        <time>2020-08-06T16:11:06Z</time>
      </trkpt>
      <trkpt lat="41.0063970" lon="0.3761260">
        <ele>277.3</ele>
        <time>2020-08-06T16:11:07Z</time>
      </trkpt>
      <trkpt lat="41.0063890" lon="0.3761160">
        <ele>277.3</ele>
        <time>2020-08-06T16:11:09Z</time>
      </trkpt>
      <trkpt lat="41.0063800" lon="0.3761050">
        <ele>277.4</ele>
        <time>2020-08-06T16:11:11Z</time>
      </trkpt>
      <trkpt lat="41.0063720" lon="0.3760950">
        <ele>277.4</ele>
        <time>2020-08-06T16:11:13Z</time>
      </trkpt>
      <trkpt lat="41.0063640" lon="0.3760850">
        <ele>277.5</ele>
        <time>2020-08-06T16:11:15Z</time>
      </trkpt>
      <trkpt lat="41.0063560" lon="0.3760750">
        <ele>277.5</ele>
        <time>2020-08-06T16:11:17Z</time>
      </trkpt>
      <trkpt lat="41.0063470" lon="0.3760650">
        <ele>277.5</ele>
        <time>2020-08-06T16:11:18Z</time>
      </trkpt>
      <trkpt lat="41.0063390" lon="0.3760550">
        <ele>277.6</ele>
        <time>2020-08-06T16:11:20Z</time>
      </trkpt>
      <trkpt lat="41.0063310" lon="0.3760440">
        <ele>277.6</ele>
        <time>2020-08-06T16:11:32Z</time>
      </trkpt>
      <trkpt lat="41.0063230" lon="0.3760340">
        <ele>277.6</ele>
        <time>2020-08-06T16:11:34Z</time>
      </trkpt>
      <trkpt lat="41.0063140" lon="0.3760240">
        <ele>277.7</ele>
        <time>2020-08-06T16:11:35Z</time>
      </trkpt>
      <trkpt lat="41.0063060" lon="0.3760140">
        <ele>277.7</ele>
        <time>2020-08-06T16:11:36Z</time>
      </trkpt>
      <trkpt lat="41.0062950" lon="0.3760020">
        <ele>277.8</ele>
        <time>2020-08-06T16:11:37Z</time>
      </trkpt>
      <trkpt lat="41.0062850" lon="0.3759890">
        <ele>277.8</ele>
        <time>2020-08-06T16:11:38Z</time>
      </trkpt>
      <trkpt lat="41.0062590" lon="0.3759670">
        <ele>277.9</ele>
        <time>2020-08-06T16:11:40Z</time>
      </trkpt>
      <trkpt lat="41.0062510" lon="0.3759620">
        <ele>278.0</ele>
        <time>2020-08-06T16:11:41Z</time>
      </trkpt>
      <trkpt lat="41.0062370" lon="0.3759420">
        <ele>278.0</ele>
        <time>2020-08-06T16:11:43Z</time>
      </trkpt>
      <trkpt lat="41.0062180" lon="0.3759100">
        <ele>278.2</ele>
        <time>2020-08-06T16:11:49Z</time>
      </trkpt>
      <trkpt lat="41.0062160" lon="0.3759190">
        <ele>278.2</ele>
        <time>2020-08-06T16:11:50Z</time>
      </trkpt>
      <trkpt lat="41.0062070" lon="0.3759240">
        <ele>278.2</ele>
        <time>2020-08-06T16:11:52Z</time>
      </trkpt>
      <trkpt lat="41.0062040" lon="0.3759240">
        <ele>278.2</ele>
        <time>2020-08-06T16:11:53Z</time>
      </trkpt>
      <trkpt lat="41.0061990" lon="0.3759250">
        <ele>278.3</ele>
        <time>2020-08-06T16:11:55Z</time>
      </trkpt>
      <trkpt lat="41.0061970" lon="0.3759250">
        <ele>278.3</ele>
        <time>2020-08-06T16:11:56Z</time>
      </trkpt>
      <trkpt lat="41.0061940" lon="0.3759250">
        <ele>278.3</ele>
        <time>2020-08-06T16:11:58Z</time>
      </trkpt>
      <trkpt lat="41.0061940" lon="0.3759240">
        <ele>278.3</ele>
        <time>2020-08-06T16:11:59Z</time>
      </trkpt>
      <trkpt lat="41.0061630" lon="0.3759230">
        <ele>278.4</ele>
        <time>2020-08-06T16:12:15Z</time>
      </trkpt>
      <trkpt lat="41.0061540" lon="0.3759190">
        <ele>278.4</ele>
        <time>2020-08-06T16:12:16Z</time>
      </trkpt>
      <trkpt lat="41.0061530" lon="0.3759230">
        <ele>278.5</ele>
        <time>2020-08-06T16:12:17Z</time>
      </trkpt>
      <trkpt lat="41.0061520" lon="0.3759290">
        <ele>278.5</ele>
        <time>2020-08-06T16:12:19Z</time>
      </trkpt>
      <trkpt lat="41.0061530" lon="0.3759270">
        <ele>278.5</ele>
        <time>2020-08-06T16:12:20Z</time>
      </trkpt>
      <trkpt lat="41.0061400" lon="0.3759250">
        <ele>278.5</ele>
        <time>2020-08-06T16:12:21Z</time>
      </trkpt>
      <trkpt lat="41.0061280" lon="0.3759200">
        <ele>278.6</ele>
        <time>2020-08-06T16:12:22Z</time>
      </trkpt>
      <trkpt lat="41.0061030" lon="0.3759030">
        <ele>278.7</ele>
        <time>2020-08-06T16:12:24Z</time>
      </trkpt>
      <trkpt lat="41.0060900" lon="0.3758970">
        <ele>278.7</ele>
        <time>2020-08-06T16:12:25Z</time>
      </trkpt>
      <trkpt lat="41.0060590" lon="0.3758800">
        <ele>278.8</ele>
        <time>2020-08-06T16:12:27Z</time>
      </trkpt>
      <trkpt lat="41.0060320" lon="0.3758530">
        <ele>279.0</ele>
        <time>2020-08-06T16:12:29Z</time>
      </trkpt>
      <trkpt lat="41.0060170" lon="0.3758350">
        <ele>279.0</ele>
        <time>2020-08-06T16:12:30Z</time>
      </trkpt>
      <trkpt lat="41.0060040" lon="0.3758120">
        <ele>279.1</ele>
        <time>2020-08-06T16:12:32Z</time>
      </trkpt>
      <trkpt lat="41.0059830" lon="0.3757930">
        <ele>279.2</ele>
        <time>2020-08-06T16:12:33Z</time>
      </trkpt>
      <trkpt lat="41.0059740" lon="0.3757870">
        <ele>279.2</ele>
        <time>2020-08-06T16:12:34Z</time>
      </trkpt>
      <trkpt lat="41.0059570" lon="0.3757740">
        <ele>279.2</ele>
        <time>2020-08-06T16:12:35Z</time>
      </trkpt>
      <trkpt lat="41.0059330" lon="0.3757530">
        <ele>279.4</ele>
        <time>2020-08-06T16:12:37Z</time>
      </trkpt>
      <trkpt lat="41.0059160" lon="0.3757400">
        <ele>279.5</ele>
        <time>2020-08-06T16:12:38Z</time>
      </trkpt>
      <trkpt lat="41.0059010" lon="0.3757340">
        <ele>279.6</ele>
        <time>2020-08-06T16:12:39Z</time>
      </trkpt>
      <trkpt lat="41.0058730" lon="0.3757180">
        <ele>279.8</ele>
        <time>2020-08-06T16:12:41Z</time>
      </trkpt>
      <trkpt lat="41.0058660" lon="0.3757130">
        <ele>279.8</ele>
        <time>2020-08-06T16:12:42Z</time>
      </trkpt>
      <trkpt lat="41.0058520" lon="0.3757040">
        <ele>279.9</ele>
        <time>2020-08-06T16:12:43Z</time>
      </trkpt>
      <trkpt lat="41.0058380" lon="0.3756930">
        <ele>279.9</ele>
        <time>2020-08-06T16:12:45Z</time>
      </trkpt>
      <trkpt lat="41.0058230" lon="0.3756830">
        <ele>280.0</ele>
        <time>2020-08-06T16:12:46Z</time>
      </trkpt>
      <trkpt lat="41.0058100" lon="0.3756740">
        <ele>280.1</ele>
        <time>2020-08-06T16:12:47Z</time>
      </trkpt>
      <trkpt lat="41.0057870" lon="0.3756600">
        <ele>280.2</ele>
        <time>2020-08-06T16:12:48Z</time>
      </trkpt>
      <trkpt lat="41.0057740" lon="0.3756510">
        <ele>280.3</ele>
        <time>2020-08-06T16:12:50Z</time>
      </trkpt>
      <trkpt lat="41.0057600" lon="0.3756430">
        <ele>280.3</ele>
        <time>2020-08-06T16:12:51Z</time>
      </trkpt>
      <trkpt lat="41.0057470" lon="0.3756350">
        <ele>280.4</ele>
        <time>2020-08-06T16:12:52Z</time>
      </trkpt>
      <trkpt lat="41.0057350" lon="0.3756300">
        <ele>280.4</ele>
        <time>2020-08-06T16:12:53Z</time>
      </trkpt>
      <trkpt lat="41.0057160" lon="0.3756240">
        <ele>280.5</ele>
        <time>2020-08-06T16:12:55Z</time>
      </trkpt>
      <trkpt lat="41.0057000" lon="0.3756190">
        <ele>280.5</ele>
        <time>2020-08-06T16:12:56Z</time>
      </trkpt>
      <trkpt lat="41.0056850" lon="0.3756130">
        <ele>280.6</ele>
        <time>2020-08-06T16:12:58Z</time>
      </trkpt>
      <trkpt lat="41.0056670" lon="0.3756080">
        <ele>280.6</ele>
        <time>2020-08-06T16:12:59Z</time>
      </trkpt>
      <trkpt lat="41.0050130" lon="0.3752160">
        <ele>281.4</ele>
        <time>2020-08-06T16:13:27Z</time>
      </trkpt>
      <trkpt lat="41.0049660" lon="0.3752190">
        <ele>281.3</ele>
        <time>2020-08-06T16:13:28Z</time>
      </trkpt>
      <trkpt lat="41.0049070" lon="0.3752090">
        <ele>281.3</ele>
        <time>2020-08-06T16:13:30Z</time>
      </trkpt>
      <trkpt lat="41.0048860" lon="0.3752000">
        <ele>281.4</ele>
        <time>2020-08-06T16:13:31Z</time>
      </trkpt>
      <trkpt lat="41.0048840" lon="0.3751990">
        <ele>281.5</ele>
        <time>2020-08-06T16:13:32Z</time>
      </trkpt>
      <trkpt lat="41.0048830" lon="0.3751950">
        <ele>281.5</ele>
        <time>2020-08-06T16:13:34Z</time>
      </trkpt>
      <trkpt lat="41.0048820" lon="0.3751910">
        <ele>281.5</ele>
        <time>2020-08-06T16:13:36Z</time>
      </trkpt>
      <trkpt lat="41.0048780" lon="0.3751880">
        <ele>281.5</ele>
        <time>2020-08-06T16:13:38Z</time>
      </trkpt>
      <trkpt lat="41.0048770" lon="0.3751870">
        <ele>281.5</ele>
        <time>2020-08-06T16:13:39Z</time>
      </trkpt>
      <trkpt lat="41.0048740" lon="0.3751860">
        <ele>281.5</ele>
        <time>2020-08-06T16:13:41Z</time>
      </trkpt>
      <trkpt lat="41.0048520" lon="0.3751950">
        <ele>281.6</ele>
        <time>2020-08-06T16:13:50Z</time>
      </trkpt>
      <trkpt lat="41.0048540" lon="0.3751890">
        <ele>281.7</ele>
        <time>2020-08-06T16:13:52Z</time>
      </trkpt>
      <trkpt lat="41.0048540" lon="0.3751880">
        <ele>281.7</ele>
        <time>2020-08-06T16:13:53Z</time>
      </trkpt>
      <trkpt lat="41.0048540" lon="0.3751890">
        <ele>281.7</ele>
        <time>2020-08-06T16:13:55Z</time>
      </trkpt>
      <trkpt lat="41.0048500" lon="0.3751970">
        <ele>281.7</ele>
        <time>2020-08-06T16:13:59Z</time>
      </trkpt>
      <trkpt lat="41.0048440" lon="0.3752100">
        <ele>281.7</ele>
        <time>2020-08-06T16:14:01Z</time>
      </trkpt>
      <trkpt lat="41.0048400" lon="0.3752160">
        <ele>281.8</ele>
        <time>2020-08-06T16:14:02Z</time>
      </trkpt>
      <trkpt lat="41.0048390" lon="0.3752180">
        <ele>281.8</ele>
        <time>2020-08-06T16:14:03Z</time>
      </trkpt>
      <trkpt lat="41.0048380" lon="0.3752190">
        <ele>281.8</ele>
        <time>2020-08-06T16:14:04Z</time>
      </trkpt>
      <trkpt lat="41.0048380" lon="0.3752180">
        <ele>281.8</ele>
        <time>2020-08-06T16:14:06Z</time>
      </trkpt>
      <trkpt lat="41.0048400" lon="0.3752170">
        <ele>281.8</ele>
        <time>2020-08-06T16:14:08Z</time>
      </trkpt>
      <trkpt lat="41.0048410" lon="0.3752170">
        <ele>281.8</ele>
        <time>2020-08-06T16:14:09Z</time>
      </trkpt>
      <trkpt lat="41.0048410" lon="0.3752170">
        <ele>281.8</ele>
        <time>2020-08-06T16:14:10Z</time>
      </trkpt>
      <trkpt lat="41.0048400" lon="0.3752170">
        <ele>281.8</ele>
        <time>2020-08-06T16:14:11Z</time>
      </trkpt>
      <trkpt lat="41.0048400" lon="0.3752170">
        <ele>281.8</ele>
        <time>2020-08-06T16:14:12Z</time>
      </trkpt>
      <trkpt lat="41.0048400" lon="0.3752170">
        <ele>281.8</ele>
        <time>2020-08-06T16:14:14Z</time>
      </trkpt>
      <trkpt lat="41.0048150" lon="0.3751950">
        <ele>281.9</ele>
        <time>2020-08-06T16:14:57Z</time>
      </trkpt>
      <trkpt lat="41.0048000" lon="0.3751930">
        <ele>281.9</ele>
        <time>2020-08-06T16:14:59Z</time>
      </trkpt>
      <trkpt lat="41.0047830" lon="0.3751900">
        <ele>282.0</ele>
        <time>2020-08-06T16:15:01Z</time>
      </trkpt>
      <trkpt lat="41.0047720" lon="0.3751850">
        <ele>282.0</ele>
        <time>2020-08-06T16:15:02Z</time>
      </trkpt>
      <trkpt lat="41.0047620" lon="0.3751810">
        <ele>282.0</ele>
        <time>2020-08-06T16:15:03Z</time>
      </trkpt>
      <trkpt lat="41.0047400" lon="0.3751770">
        <ele>282.1</ele>
        <time>2020-08-06T16:15:05Z</time>
      </trkpt>
      <trkpt lat="41.0047200" lon="0.3751770">
        <ele>282.1</ele>
        <time>2020-08-06T16:15:07Z</time>
      </trkpt>
      <trkpt lat="41.0047130" lon="0.3751780">
        <ele>282.1</ele>
        <time>2020-08-06T16:15:08Z</time>
      </trkpt>
      <trkpt lat="41.0047150" lon="0.3751810">
        <ele>282.1</ele>
        <time>2020-08-06T16:15:09Z</time>
      </trkpt>
      <trkpt lat="41.0047170" lon="0.3751850">
        <ele>282.2</ele>
        <time>2020-08-06T16:15:10Z</time>
      </trkpt>
      <trkpt lat="41.0047240" lon="0.3751900">
        <ele>282.2</ele>
        <time>2020-08-06T16:15:12Z</time>
      </trkpt>
      <trkpt lat="41.0047240" lon="0.3751910">
        <ele>282.2</ele>
        <time>2020-08-06T16:15:14Z</time>
      </trkpt>
      <trkpt lat="41.0047250" lon="0.3751920">
        <ele>282.2</ele>
        <time>2020-08-06T16:15:15Z</time>
      </trkpt>
      <trkpt lat="41.0047280" lon="0.3751910">
        <ele>282.2</ele>
        <time>2020-08-06T16:15:17Z</time>
      </trkpt>
      <trkpt lat="41.0047290" lon="0.3751900">
        <ele>282.2</ele>
        <time>2020-08-06T16:15:18Z</time>
      </trkpt>
      <trkpt lat="41.0047290" lon="0.3751890">
        <ele>282.2</ele>
        <time>2020-08-06T16:15:19Z</time>
      </trkpt>
      <trkpt lat="41.0046410" lon="0.3751850">
        <ele>282.4</ele>
        <time>2020-08-06T16:15:25Z</time>
      </trkpt>
      <trkpt lat="41.0045560" lon="0.3751780">
        <ele>282.6</ele>
        <time>2020-08-06T16:15:27Z</time>
      </trkpt>
      <trkpt lat="41.0045190" lon="0.3751730">
        <ele>282.6</ele>
        <time>2020-08-06T16:15:28Z</time>
      </trkpt>
      <trkpt lat="41.0044370" lon="0.3751590">
        <ele>282.8</ele>
        <time>2020-08-06T16:15:30Z</time>
      </trkpt>
      <trkpt lat="41.0044060" lon="0.3751550">
        <ele>282.9</ele>
        <time>2020-08-06T16:15:31Z</time>
      </trkpt>
      <trkpt lat="41.0043650" lon="0.3751480">
        <ele>283.0</ele>
        <time>2020-08-06T16:15:32Z</time>
      </trkpt>
      <trkpt lat="41.0043280" lon="0.3751410">
        <ele>283.1</ele>
        <time>2020-08-06T16:15:33Z</time>
      </trkpt>
      <trkpt lat="41.0042580" lon="0.3751240">
        <ele>283.2</ele>
        <time>2020-08-06T16:15:35Z</time>
      </trkpt>
      <trkpt lat="41.0042200" lon="0.3751140">
        <ele>283.3</ele>
        <time>2020-08-06T16:15:36Z</time>
      </trkpt>
      <trkpt lat="41.0041840" lon="0.3751040">
        <ele>283.4</ele>
        <time>2020-08-06T16:15:37Z</time>
      </trkpt>
      <trkpt lat="41.0041220" lon="0.3750890">
        <ele>283.5</ele>
        <time>2020-08-06T16:15:39Z</time>
      </trkpt>
      <trkpt lat="41.0040870" lon="0.3750810">
        <ele>283.6</ele>
        <time>2020-08-06T16:15:40Z</time>
      </trkpt>
      <trkpt lat="41.0040550" lon="0.3750730">
        <ele>283.6</ele>
        <time>2020-08-06T16:15:41Z</time>
      </trkpt>
      <trkpt lat="41.0040260" lon="0.3750660">
        <ele>283.7</ele>
        <time>2020-08-06T16:15:42Z</time>
      </trkpt>
      <trkpt lat="41.0039910" lon="0.3750590">
        <ele>283.8</ele>
        <time>2020-08-06T16:15:43Z</time>
      </trkpt>
      <trkpt lat="41.0039590" lon="0.3750540">
        <ele>283.8</ele>
        <time>2020-08-06T16:15:44Z</time>
      </trkpt>
      <trkpt lat="41.0039280" lon="0.3750500">
        <ele>283.9</ele>
        <time>2020-08-06T16:15:45Z</time>
      </trkpt>
      <trkpt lat="41.0038920" lon="0.3750440">
        <ele>284.0</ele>
        <time>2020-08-06T16:15:46Z</time>
      </trkpt>
      <trkpt lat="41.0038580" lon="0.3750380">
        <ele>284.0</ele>
        <time>2020-08-06T16:15:47Z</time>
      </trkpt>
      <trkpt lat="41.0037920" lon="0.3750240">
        <ele>284.1</ele>
        <time>2020-08-06T16:15:49Z</time>
      </trkpt>
      <trkpt lat="41.0037650" lon="0.3750160">
        <ele>284.2</ele>
        <time>2020-08-06T16:15:50Z</time>
      </trkpt>
      <trkpt lat="41.0037060" lon="0.3749970">
        <ele>284.3</ele>
        <time>2020-08-06T16:15:52Z</time>
      </trkpt>
      <trkpt lat="41.0036690" lon="0.3749910">
        <ele>284.4</ele>
        <time>2020-08-06T16:15:53Z</time>
      </trkpt>
      <trkpt lat="41.0036110" lon="0.3749840">
        <ele>284.5</ele>
        <time>2020-08-06T16:15:55Z</time>
      </trkpt>
      <trkpt lat="41.0035450" lon="0.3749650">
        <ele>284.7</ele>
        <time>2020-08-06T16:15:57Z</time>
      </trkpt>
      <trkpt lat="41.0035110" lon="0.3749530">
        <ele>284.8</ele>
        <time>2020-08-06T16:15:58Z</time>
      </trkpt>
      <trkpt lat="41.0033220" lon="0.3748960">
        <ele>285.2</ele>
        <time>2020-08-06T16:16:04Z</time>
      </trkpt>
      <trkpt lat="41.0032770" lon="0.3748820">
        <ele>285.3</ele>
        <time>2020-08-06T16:16:06Z</time>
      </trkpt>
      <trkpt lat="41.0032160" lon="0.3748600">
        <ele>285.5</ele>
        <time>2020-08-06T16:16:08Z</time>
      </trkpt>
      <trkpt lat="41.0031650" lon="0.3748340">
        <ele>285.7</ele>
        <time>2020-08-06T16:16:10Z</time>
      </trkpt>
      <trkpt lat="41.0031390" lon="0.3748190">
        <ele>285.7</ele>
        <time>2020-08-06T16:16:11Z</time>
      </trkpt>
      <trkpt lat="41.0030780" lon="0.3747880">
        <ele>285.9</ele>
        <time>2020-08-06T16:16:13Z</time>
      </trkpt>
      <trkpt lat="41.0030390" lon="0.3747750">
        <ele>286.0</ele>
        <time>2020-08-06T16:16:14Z</time>
      </trkpt>
      <trkpt lat="41.0030240" lon="0.3747700">
        <ele>286.0</ele>
        <time>2020-08-06T16:16:15Z</time>
      </trkpt>
      <trkpt lat="41.0029680" lon="0.3747490">
        <ele>286.2</ele>
        <time>2020-08-06T16:16:17Z</time>
      </trkpt>
      <trkpt lat="41.0029440" lon="0.3747360">
        <ele>286.2</ele>
        <time>2020-08-06T16:16:18Z</time>
      </trkpt>
      <trkpt lat="41.0028900" lon="0.3747020">
        <ele>286.4</ele>
        <time>2020-08-06T16:16:20Z</time>
      </trkpt>
      <trkpt lat="41.0028660" lon="0.3746870">
        <ele>286.4</ele>
        <time>2020-08-06T16:16:21Z</time>
      </trkpt>
      <trkpt lat="41.0028150" lon="0.3746560">
        <ele>286.6</ele>
        <time>2020-08-06T16:16:23Z</time>
      </trkpt>
      <trkpt lat="41.0027830" lon="0.3746380">
        <ele>286.6</ele>
        <time>2020-08-06T16:16:24Z</time>
      </trkpt>
      <trkpt lat="41.0027380" lon="0.3746110">
        <ele>286.8</ele>
        <time>2020-08-06T16:16:26Z</time>
      </trkpt>
      <trkpt lat="41.0027110" lon="0.3745920">
        <ele>286.8</ele>
        <time>2020-08-06T16:16:27Z</time>
      </trkpt>
      <trkpt lat="41.0026580" lon="0.3745530">
        <ele>287.0</ele>
        <time>2020-08-06T16:16:29Z</time>
      </trkpt>
      <trkpt lat="41.0026330" lon="0.3745350">
        <ele>287.0</ele>
        <time>2020-08-06T16:16:30Z</time>
      </trkpt>
      <trkpt lat="41.0025840" lon="0.3745010">
        <ele>287.1</ele>
        <time>2020-08-06T16:16:32Z</time>
      </trkpt>
      <trkpt lat="41.0025360" lon="0.3744600">
        <ele>287.3</ele>
        <time>2020-08-06T16:16:34Z</time>
      </trkpt>
      <trkpt lat="41.0025100" lon="0.3744360">
        <ele>287.3</ele>
        <time>2020-08-06T16:16:35Z</time>
      </trkpt>
      <trkpt lat="41.0024600" lon="0.3743900">
        <ele>287.5</ele>
        <time>2020-08-06T16:16:37Z</time>
      </trkpt>
      <trkpt lat="41.0024350" lon="0.3743660">
        <ele>287.5</ele>
        <time>2020-08-06T16:16:38Z</time>
      </trkpt>
      <trkpt lat="41.0024070" lon="0.3743420">
        <ele>287.6</ele>
        <time>2020-08-06T16:16:39Z</time>
      </trkpt>
      <trkpt lat="41.0023460" lon="0.3742960">
        <ele>287.7</ele>
        <time>2020-08-06T16:16:41Z</time>
      </trkpt>
      <trkpt lat="41.0023190" lon="0.3742720">
        <ele>287.8</ele>
        <time>2020-08-06T16:16:42Z</time>
      </trkpt>
      <trkpt lat="41.0022690" lon="0.3742220">
        <ele>287.9</ele>
        <time>2020-08-06T16:16:44Z</time>
      </trkpt>
      <trkpt lat="41.0022400" lon="0.3741930">
        <ele>288.0</ele>
        <time>2020-08-06T16:16:45Z</time>
      </trkpt>
      <trkpt lat="41.0021860" lon="0.3741290">
        <ele>288.1</ele>
        <time>2020-08-06T16:16:47Z</time>
      </trkpt>
      <trkpt lat="41.0021350" lon="0.3740620">
        <ele>288.2</ele>
        <time>2020-08-06T16:16:49Z</time>
      </trkpt>
      <trkpt lat="41.0020850" lon="0.3740050">
        <ele>288.4</ele>
        <time>2020-08-06T16:16:51Z</time>
      </trkpt>
      <trkpt lat="41.0020580" lon="0.3739770">
        <ele>288.4</ele>
        <time>2020-08-06T16:16:52Z</time>
      </trkpt>
      <trkpt lat="41.0020280" lon="0.3739460">
        <ele>288.5</ele>
        <time>2020-08-06T16:16:53Z</time>
      </trkpt>
      <trkpt lat="41.0020030" lon="0.3739180">
        <ele>288.6</ele>
        <time>2020-08-06T16:16:54Z</time>
      </trkpt>
      <trkpt lat="41.0019470" lon="0.3738580">
        <ele>288.7</ele>
        <time>2020-08-06T16:16:56Z</time>
      </trkpt>
      <trkpt lat="41.0018990" lon="0.3738120">
        <ele>288.8</ele>
        <time>2020-08-06T16:16:58Z</time>
      </trkpt>
      <trkpt lat="41.0018440" lon="0.3737590">
        <ele>288.9</ele>
        <time>2020-08-06T16:17:00Z</time>
      </trkpt>
      <trkpt lat="41.0018190" lon="0.3737350">
        <ele>289.0</ele>
        <time>2020-08-06T16:17:01Z</time>
      </trkpt>
      <trkpt lat="41.0017990" lon="0.3737130">
        <ele>289.0</ele>
        <time>2020-08-06T16:17:02Z</time>
      </trkpt>
      <trkpt lat="41.0017580" lon="0.3736630">
        <ele>289.1</ele>
        <time>2020-08-06T16:17:04Z</time>
      </trkpt>
      <trkpt lat="41.0017120" lon="0.3736130">
        <ele>289.2</ele>
        <time>2020-08-06T16:17:06Z</time>
      </trkpt>
      <trkpt lat="41.0016890" lon="0.3735890">
        <ele>289.3</ele>
        <time>2020-08-06T16:17:07Z</time>
      </trkpt>
      <trkpt lat="41.0016450" lon="0.3735400">
        <ele>289.5</ele>
        <time>2020-08-06T16:17:09Z</time>
      </trkpt>
      <trkpt lat="41.0016020" lon="0.3734980">
        <ele>289.6</ele>
        <time>2020-08-06T16:17:11Z</time>
      </trkpt>
      <trkpt lat="41.0015820" lon="0.3734790">
        <ele>289.6</ele>
        <time>2020-08-06T16:17:12Z</time>
      </trkpt>
      <trkpt lat="41.0015400" lon="0.3734300">
        <ele>289.8</ele>
        <time>2020-08-06T16:17:14Z</time>
      </trkpt>
      <trkpt lat="41.0014960" lon="0.3733820">
        <ele>289.9</ele>
        <time>2020-08-06T16:17:16Z</time>
      </trkpt>
      <trkpt lat="41.0014480" lon="0.3733340">
        <ele>290.0</ele>
        <time>2020-08-06T16:17:18Z</time>
      </trkpt>
      <trkpt lat="41.0014180" lon="0.3732980">
        <ele>290.1</ele>
        <time>2020-08-06T16:17:19Z</time>
      </trkpt>
      <trkpt lat="41.0014070" lon="0.3732860">
        <ele>290.1</ele>
        <time>2020-08-06T16:17:20Z</time>
      </trkpt>
      <trkpt lat="41.0013820" lon="0.3732580">
        <ele>290.2</ele>
        <time>2020-08-06T16:17:21Z</time>
      </trkpt>
      <trkpt lat="41.0013360" lon="0.3732120">
        <ele>290.4</ele>
        <time>2020-08-06T16:17:23Z</time>
      </trkpt>
      <trkpt lat="41.0012900" lon="0.3731710">
        <ele>290.5</ele>
        <time>2020-08-06T16:17:25Z</time>
      </trkpt>
      <trkpt lat="41.0012620" lon="0.3731440">
        <ele>290.6</ele>
        <time>2020-08-06T16:17:26Z</time>
      </trkpt>
      <trkpt lat="41.0012510" lon="0.3731340">
        <ele>290.6</ele>
        <time>2020-08-06T16:17:27Z</time>
      </trkpt>
      <trkpt lat="41.0012290" lon="0.3731090">
        <ele>290.7</ele>
        <time>2020-08-06T16:17:28Z</time>
      </trkpt>
      <trkpt lat="41.0012120" lon="0.3730870">
        <ele>290.8</ele>
        <time>2020-08-06T16:17:29Z</time>
      </trkpt>
      <trkpt lat="41.0011760" lon="0.3730460">
        <ele>290.9</ele>
        <time>2020-08-06T16:17:31Z</time>
      </trkpt>
      <trkpt lat="41.0011550" lon="0.3730240">
        <ele>291.0</ele>
        <time>2020-08-06T16:17:32Z</time>
      </trkpt>
      <trkpt lat="41.0011120" lon="0.3729820">
        <ele>291.1</ele>
        <time>2020-08-06T16:17:34Z</time>
      </trkpt>
      <trkpt lat="41.0010930" lon="0.3729640">
        <ele>291.2</ele>
        <time>2020-08-06T16:17:35Z</time>
      </trkpt>
      <trkpt lat="41.0010510" lon="0.3729190">
        <ele>291.4</ele>
        <time>2020-08-06T16:17:37Z</time>
      </trkpt>
      <trkpt lat="41.0010240" lon="0.3728850">
        <ele>291.5</ele>
        <time>2020-08-06T16:17:38Z</time>
      </trkpt>
      <trkpt lat="41.0010140" lon="0.3728740">
        <ele>291.5</ele>
        <time>2020-08-06T16:17:39Z</time>
      </trkpt>
      <trkpt lat="41.0009910" lon="0.3728500">
        <ele>291.6</ele>
        <time>2020-08-06T16:17:40Z</time>
      </trkpt>
      <trkpt lat="41.0009480" lon="0.3728080">
        <ele>291.7</ele>
        <time>2020-08-06T16:17:42Z</time>
      </trkpt>
      <trkpt lat="41.0009280" lon="0.3727870">
        <ele>291.8</ele>
        <time>2020-08-06T16:17:43Z</time>
      </trkpt>
      <trkpt lat="41.0008870" lon="0.3727380">
        <ele>291.9</ele>
        <time>2020-08-06T16:17:45Z</time>
      </trkpt>
      <trkpt lat="41.0008590" lon="0.3727050">
        <ele>292.0</ele>
        <time>2020-08-06T16:17:46Z</time>
      </trkpt>
      <trkpt lat="41.0008480" lon="0.3726920">
        <ele>292.0</ele>
        <time>2020-08-06T16:17:47Z</time>
      </trkpt>
      <trkpt lat="41.0008280" lon="0.3726680">
        <ele>292.1</ele>
        <time>2020-08-06T16:17:48Z</time>
      </trkpt>
      <trkpt lat="41.0007880" lon="0.3726180">
        <ele>292.2</ele>
        <time>2020-08-06T16:17:50Z</time>
      </trkpt>
      <trkpt lat="41.0007520" lon="0.3725690">
        <ele>292.2</ele>
        <time>2020-08-06T16:17:52Z</time>
      </trkpt>
      <trkpt lat="41.0007140" lon="0.3725150">
        <ele>292.3</ele>
        <time>2020-08-06T16:17:54Z</time>
      </trkpt>
      <trkpt lat="41.0006730" lon="0.3724560">
        <ele>292.4</ele>
        <time>2020-08-06T16:17:56Z</time>
      </trkpt>
      <trkpt lat="41.0006580" lon="0.3724340">
        <ele>292.4</ele>
        <time>2020-08-06T16:17:57Z</time>
      </trkpt>
      <trkpt lat="41.0006230" lon="0.3723810">
        <ele>292.5</ele>
        <time>2020-08-06T16:17:59Z</time>
      </trkpt>
      <trkpt lat="41.0006050" lon="0.3723520">
        <ele>292.5</ele>
        <time>2020-08-06T16:18:00Z</time>
      </trkpt>
      <trkpt lat="41.0005860" lon="0.3723230">
        <ele>292.6</ele>
        <time>2020-08-06T16:18:01Z</time>
      </trkpt>
      <trkpt lat="41.0005680" lon="0.3722950">
        <ele>292.6</ele>
        <time>2020-08-06T16:18:02Z</time>
      </trkpt>
      <trkpt lat="41.0005330" lon="0.3722350">
        <ele>292.8</ele>
        <time>2020-08-06T16:18:04Z</time>
      </trkpt>
      <trkpt lat="41.0005150" lon="0.3722020">
        <ele>292.8</ele>
        <time>2020-08-06T16:18:05Z</time>
      </trkpt>
      <trkpt lat="41.0004790" lon="0.3721340">
        <ele>292.9</ele>
        <time>2020-08-06T16:18:07Z</time>
      </trkpt>
      <trkpt lat="41.0004640" lon="0.3721040">
        <ele>293.0</ele>
        <time>2020-08-06T16:18:08Z</time>
      </trkpt>
      <trkpt lat="41.0004410" lon="0.3720640">
        <ele>293.1</ele>
        <time>2020-08-06T16:18:09Z</time>
      </trkpt>
      <trkpt lat="41.0004320" lon="0.3720500">
        <ele>293.1</ele>
        <time>2020-08-06T16:18:10Z</time>
      </trkpt>
      <trkpt lat="41.0003930" lon="0.3719920">
        <ele>293.3</ele>
        <time>2020-08-06T16:18:12Z</time>
      </trkpt>
      <trkpt lat="41.0003750" lon="0.3719580">
        <ele>293.3</ele>
        <time>2020-08-06T16:18:13Z</time>
      </trkpt>
      <trkpt lat="41.0003500" lon="0.3718980">
        <ele>293.4</ele>
        <time>2020-08-06T16:18:15Z</time>
      </trkpt>
      <trkpt lat="41.0003280" lon="0.3718360">
        <ele>293.5</ele>
        <time>2020-08-06T16:18:17Z</time>
      </trkpt>
      <trkpt lat="41.0003120" lon="0.3717900">
        <ele>293.6</ele>
        <time>2020-08-06T16:18:18Z</time>
      </trkpt>
      <trkpt lat="41.0003060" lon="0.3717750">
        <ele>293.7</ele>
        <time>2020-08-06T16:18:19Z</time>
      </trkpt>
      <trkpt lat="41.0002810" lon="0.3717130">
        <ele>293.8</ele>
        <time>2020-08-06T16:18:21Z</time>
      </trkpt>
      <trkpt lat="41.0002680" lon="0.3716780">
        <ele>293.8</ele>
        <time>2020-08-06T16:18:22Z</time>
      </trkpt>
      <trkpt lat="41.0002570" lon="0.3716440">
        <ele>293.9</ele>
        <time>2020-08-06T16:18:23Z</time>
      </trkpt>
      <trkpt lat="41.0002370" lon="0.3715820">
        <ele>294.0</ele>
        <time>2020-08-06T16:18:25Z</time>
      </trkpt>
      <trkpt lat="41.0002250" lon="0.3715490">
        <ele>294.1</ele>
        <time>2020-08-06T16:18:26Z</time>
      </trkpt>
      <trkpt lat="41.0002140" lon="0.3715220">
        <ele>294.1</ele>
        <time>2020-08-06T16:18:27Z</time>
      </trkpt>
      <trkpt lat="41.0001880" lon="0.3714570">
        <ele>294.3</ele>
        <time>2020-08-06T16:18:29Z</time>
      </trkpt>
      <trkpt lat="41.0001770" lon="0.3714250">
        <ele>294.3</ele>
        <time>2020-08-06T16:18:30Z</time>
      </trkpt>
      <trkpt lat="41.0001560" lon="0.3713650">
        <ele>294.4</ele>
        <time>2020-08-06T16:18:32Z</time>
      </trkpt>
      <trkpt lat="41.0001350" lon="0.3713080">
        <ele>294.5</ele>
        <time>2020-08-06T16:18:34Z</time>
      </trkpt>
      <trkpt lat="41.0001180" lon="0.3712440">
        <ele>294.6</ele>
        <time>2020-08-06T16:18:36Z</time>
      </trkpt>
      <trkpt lat="41.0001030" lon="0.3711760">
        <ele>294.6</ele>
        <time>2020-08-06T16:18:38Z</time>
      </trkpt>
      <trkpt lat="41.0000960" lon="0.3711450">
        <ele>294.7</ele>
        <time>2020-08-06T16:18:39Z</time>
      </trkpt>
      <trkpt lat="41.0000790" lon="0.3710730">
        <ele>294.8</ele>
        <time>2020-08-06T16:18:41Z</time>
      </trkpt>
      <trkpt lat="41.0000690" lon="0.3710390">
        <ele>294.8</ele>
        <time>2020-08-06T16:18:42Z</time>
      </trkpt>
      <trkpt lat="41.0000460" lon="0.3709760">
        <ele>294.9</ele>
        <time>2020-08-06T16:18:44Z</time>
      </trkpt>
      <trkpt lat="41.0000340" lon="0.3709470">
        <ele>295.0</ele>
        <time>2020-08-06T16:18:45Z</time>
      </trkpt>
      <trkpt lat="41.0000150" lon="0.3709000">
        <ele>295.1</ele>
        <time>2020-08-06T16:18:47Z</time>
      </trkpt>
      <trkpt lat="40.9999980" lon="0.3708510">
        <ele>295.2</ele>
        <time>2020-08-06T16:18:48Z</time>
      </trkpt>
      <trkpt lat="40.9999920" lon="0.3708350">
        <ele>295.2</ele>
        <time>2020-08-06T16:18:49Z</time>
      </trkpt>
      <trkpt lat="40.9999720" lon="0.3707780">
        <ele>295.3</ele>
        <time>2020-08-06T16:18:51Z</time>
      </trkpt>
      <trkpt lat="40.9999620" lon="0.3707340">
        <ele>295.4</ele>
        <time>2020-08-06T16:18:52Z</time>
      </trkpt>
      <trkpt lat="40.9999580" lon="0.3707200">
        <ele>295.4</ele>
        <time>2020-08-06T16:18:53Z</time>
      </trkpt>
      <trkpt lat="40.9999380" lon="0.3706650">
        <ele>295.5</ele>
        <time>2020-08-06T16:18:55Z</time>
      </trkpt>
      <trkpt lat="40.9999230" lon="0.3706240">
        <ele>295.6</ele>
        <time>2020-08-06T16:18:56Z</time>
      </trkpt>
      <trkpt lat="40.9999180" lon="0.3706110">
        <ele>295.6</ele>
        <time>2020-08-06T16:18:57Z</time>
      </trkpt>
      <trkpt lat="40.9998960" lon="0.3705560">
        <ele>295.7</ele>
        <time>2020-08-06T16:18:59Z</time>
      </trkpt>
      <trkpt lat="40.9998780" lon="0.3705130">
        <ele>295.7</ele>
        <time>2020-08-06T16:19:00Z</time>
      </trkpt>
      <trkpt lat="40.9998720" lon="0.3704990">
        <ele>295.8</ele>
        <time>2020-08-06T16:19:01Z</time>
      </trkpt>
      <trkpt lat="40.9998480" lon="0.3704370">
        <ele>295.9</ele>
        <time>2020-08-06T16:19:03Z</time>
      </trkpt>
      <trkpt lat="40.9998360" lon="0.3704050">
        <ele>295.9</ele>
        <time>2020-08-06T16:19:04Z</time>
      </trkpt>
      <trkpt lat="40.9998160" lon="0.3703420">
        <ele>296.1</ele>
        <time>2020-08-06T16:19:06Z</time>
      </trkpt>
      <trkpt lat="40.9998020" lon="0.3703030">
        <ele>296.1</ele>
        <time>2020-08-06T16:19:07Z</time>
      </trkpt>
      <trkpt lat="40.9997980" lon="0.3702910">
        <ele>296.2</ele>
        <time>2020-08-06T16:19:08Z</time>
      </trkpt>
      <trkpt lat="40.9997800" lon="0.3702310">
        <ele>296.3</ele>
        <time>2020-08-06T16:19:10Z</time>
      </trkpt>
      <trkpt lat="40.9997670" lon="0.3701840">
        <ele>296.4</ele>
        <time>2020-08-06T16:19:11Z</time>
      </trkpt>
      <trkpt lat="40.9997630" lon="0.3701710">
        <ele>296.4</ele>
        <time>2020-08-06T16:19:12Z</time>
      </trkpt>
      <trkpt lat="40.9997540" lon="0.3701410">
        <ele>296.5</ele>
        <time>2020-08-06T16:19:13Z</time>
      </trkpt>
      <trkpt lat="40.9997370" lon="0.3700760">
        <ele>296.6</ele>
        <time>2020-08-06T16:19:15Z</time>
      </trkpt>
      <trkpt lat="40.9997200" lon="0.3700120">
        <ele>296.7</ele>
        <time>2020-08-06T16:19:17Z</time>
      </trkpt>
      <trkpt lat="40.9997120" lon="0.3699800">
        <ele>296.8</ele>
        <time>2020-08-06T16:19:18Z</time>
      </trkpt>
      <trkpt lat="40.9996970" lon="0.3699280">
        <ele>296.9</ele>
        <time>2020-08-06T16:19:20Z</time>
      </trkpt>
      <trkpt lat="40.9996890" lon="0.3699000">
        <ele>296.9</ele>
        <time>2020-08-06T16:19:21Z</time>
      </trkpt>
      <trkpt lat="40.9996710" lon="0.3698360">
        <ele>297.0</ele>
        <time>2020-08-06T16:19:23Z</time>
      </trkpt>
      <trkpt lat="40.9996620" lon="0.3698040">
        <ele>297.1</ele>
        <time>2020-08-06T16:19:24Z</time>
      </trkpt>
      <trkpt lat="40.9996420" lon="0.3697370">
        <ele>297.2</ele>
        <time>2020-08-06T16:19:26Z</time>
      </trkpt>
      <trkpt lat="40.9996340" lon="0.3697030">
        <ele>297.3</ele>
        <time>2020-08-06T16:19:27Z</time>
      </trkpt>
      <trkpt lat="40.9996230" lon="0.3696590">
        <ele>297.4</ele>
        <time>2020-08-06T16:19:28Z</time>
      </trkpt>
      <trkpt lat="40.9996190" lon="0.3696450">
        <ele>297.4</ele>
        <time>2020-08-06T16:19:29Z</time>
      </trkpt>
      <trkpt lat="40.9996090" lon="0.3696120">
        <ele>297.5</ele>
        <time>2020-08-06T16:19:30Z</time>
      </trkpt>
      <trkpt lat="40.9995980" lon="0.3695780">
        <ele>297.6</ele>
        <time>2020-08-06T16:19:31Z</time>
      </trkpt>
      <trkpt lat="40.9995920" lon="0.3695500">
        <ele>297.7</ele>
        <time>2020-08-06T16:19:32Z</time>
      </trkpt>
      <trkpt lat="40.9995790" lon="0.3694910">
        <ele>297.8</ele>
        <time>2020-08-06T16:19:34Z</time>
      </trkpt>
      <trkpt lat="40.9995720" lon="0.3694570">
        <ele>297.8</ele>
        <time>2020-08-06T16:19:35Z</time>
      </trkpt>
      <trkpt lat="40.9995610" lon="0.3693960">
        <ele>297.9</ele>
        <time>2020-08-06T16:19:37Z</time>
      </trkpt>
      <trkpt lat="40.9995530" lon="0.3693630">
        <ele>298.0</ele>
        <time>2020-08-06T16:19:38Z</time>
      </trkpt>
      <trkpt lat="40.9995370" lon="0.3693090">
        <ele>298.1</ele>
        <time>2020-08-06T16:19:40Z</time>
      </trkpt>
      <trkpt lat="40.9995210" lon="0.3692650">
        <ele>298.1</ele>
        <time>2020-08-06T16:19:42Z</time>
      </trkpt>
      <trkpt lat="40.9995060" lon="0.3692240">
        <ele>298.2</ele>
        <time>2020-08-06T16:19:43Z</time>
      </trkpt>
      <trkpt lat="40.9994970" lon="0.3691820">
        <ele>298.3</ele>
        <time>2020-08-06T16:19:44Z</time>
      </trkpt>
      <trkpt lat="40.9994900" lon="0.3691480">
        <ele>298.4</ele>
        <time>2020-08-06T16:19:45Z</time>
      </trkpt>
      <trkpt lat="40.9994720" lon="0.3690910">
        <ele>298.6</ele>
        <time>2020-08-06T16:19:47Z</time>
      </trkpt>
      <trkpt lat="40.9994520" lon="0.3690270">
        <ele>298.7</ele>
        <time>2020-08-06T16:19:49Z</time>
      </trkpt>
      <trkpt lat="40.9994430" lon="0.3690000">
        <ele>298.8</ele>
        <time>2020-08-06T16:19:50Z</time>
      </trkpt>
      <trkpt lat="40.9994340" lon="0.3689740">
        <ele>298.8</ele>
        <time>2020-08-06T16:19:51Z</time>
      </trkpt>
      <trkpt lat="40.9994190" lon="0.3689200">
        <ele>298.9</ele>
        <time>2020-08-06T16:19:52Z</time>
      </trkpt>
      <trkpt lat="40.9994120" lon="0.3689000">
        <ele>299.0</ele>
        <time>2020-08-06T16:19:53Z</time>
      </trkpt>
      <trkpt lat="40.9994030" lon="0.3688680">
        <ele>299.0</ele>
        <time>2020-08-06T16:19:54Z</time>
      </trkpt>
      <trkpt lat="40.9993840" lon="0.3688140">
        <ele>299.1</ele>
        <time>2020-08-06T16:19:56Z</time>
      </trkpt>
      <trkpt lat="40.9993700" lon="0.3687600">
        <ele>299.2</ele>
        <time>2020-08-06T16:19:58Z</time>
      </trkpt>
      <trkpt lat="40.9993550" lon="0.3687240">
        <ele>299.3</ele>
        <time>2020-08-06T16:19:59Z</time>
      </trkpt>
      <trkpt lat="40.9993400" lon="0.3686880">
        <ele>299.3</ele>
        <time>2020-08-06T16:20:00Z</time>
      </trkpt>
      <trkpt lat="40.9993200" lon="0.3686490">
        <ele>299.4</ele>
        <time>2020-08-06T16:20:02Z</time>
      </trkpt>
      <trkpt lat="40.9993020" lon="0.3686110">
        <ele>299.5</ele>
        <time>2020-08-06T16:20:03Z</time>
      </trkpt>
      <trkpt lat="40.9992840" lon="0.3685730">
        <ele>299.6</ele>
        <time>2020-08-06T16:20:04Z</time>
      </trkpt>
      <trkpt lat="40.9992660" lon="0.3685320">
        <ele>299.7</ele>
        <time>2020-08-06T16:20:05Z</time>
      </trkpt>
      <trkpt lat="40.9992500" lon="0.3684970">
        <ele>299.8</ele>
        <time>2020-08-06T16:20:06Z</time>
      </trkpt>
      <trkpt lat="40.9992330" lon="0.3684510">
        <ele>299.9</ele>
        <time>2020-08-06T16:20:08Z</time>
      </trkpt>
      <trkpt lat="40.9992210" lon="0.3684040">
        <ele>299.9</ele>
        <time>2020-08-06T16:20:09Z</time>
      </trkpt>
      <trkpt lat="40.9992080" lon="0.3683470">
        <ele>300.1</ele>
        <time>2020-08-06T16:20:11Z</time>
      </trkpt>
      <trkpt lat="40.9992050" lon="0.3683300">
        <ele>300.1</ele>
        <time>2020-08-06T16:20:12Z</time>
      </trkpt>
      <trkpt lat="40.9992010" lon="0.3683120">
        <ele>300.1</ele>
        <time>2020-08-06T16:20:13Z</time>
      </trkpt>
      <trkpt lat="40.9991910" lon="0.3682710">
        <ele>300.2</ele>
        <time>2020-08-06T16:20:15Z</time>
      </trkpt>
      <trkpt lat="40.9991800" lon="0.3682390">
        <ele>300.3</ele>
        <time>2020-08-06T16:20:16Z</time>
      </trkpt>
      <trkpt lat="40.9991700" lon="0.3682080">
        <ele>300.3</ele>
        <time>2020-08-06T16:20:18Z</time>
      </trkpt>
      <trkpt lat="40.9991600" lon="0.3681720">
        <ele>300.4</ele>
        <time>2020-08-06T16:20:19Z</time>
      </trkpt>
      <trkpt lat="40.9991520" lon="0.3681440">
        <ele>300.5</ele>
        <time>2020-08-06T16:20:20Z</time>
      </trkpt>
      <trkpt lat="40.9991390" lon="0.3680950">
        <ele>300.6</ele>
        <time>2020-08-06T16:20:22Z</time>
      </trkpt>
      <trkpt lat="40.9991210" lon="0.3680340">
        <ele>300.7</ele>
        <time>2020-08-06T16:20:23Z</time>
      </trkpt>
      <trkpt lat="40.9991000" lon="0.3679600">
        <ele>300.8</ele>
        <time>2020-08-06T16:20:24Z</time>
      </trkpt>
      <trkpt lat="40.9990810" lon="0.3679090">
        <ele>300.9</ele>
        <time>2020-08-06T16:20:25Z</time>
      </trkpt>
      <trkpt lat="40.9990590" lon="0.3678340">
        <ele>301.1</ele>
        <time>2020-08-06T16:20:27Z</time>
      </trkpt>
      <trkpt lat="40.9990510" lon="0.3677790">
        <ele>301.1</ele>
        <time>2020-08-06T16:20:28Z</time>
      </trkpt>
      <trkpt lat="40.9990360" lon="0.3677170">
        <ele>301.2</ele>
        <time>2020-08-06T16:20:30Z</time>
      </trkpt>
      <trkpt lat="40.9990250" lon="0.3676770">
        <ele>301.2</ele>
        <time>2020-08-06T16:20:31Z</time>
      </trkpt>
      <trkpt lat="40.9990160" lon="0.3676420">
        <ele>301.2</ele>
        <time>2020-08-06T16:20:32Z</time>
      </trkpt>
      <trkpt lat="40.9989980" lon="0.3675810">
        <ele>301.1</ele>
        <time>2020-08-06T16:20:34Z</time>
      </trkpt>
      <trkpt lat="40.9989910" lon="0.3675570">
        <ele>301.2</ele>
        <time>2020-08-06T16:20:35Z</time>
      </trkpt>
      <trkpt lat="40.9989840" lon="0.3675320">
        <ele>301.2</ele>
        <time>2020-08-06T16:20:36Z</time>
      </trkpt>
      <trkpt lat="40.9989730" lon="0.3674850">
        <ele>301.4</ele>
        <time>2020-08-06T16:20:37Z</time>
      </trkpt>
      <trkpt lat="40.9989610" lon="0.3674450">
        <ele>301.5</ele>
        <time>2020-08-06T16:20:38Z</time>
      </trkpt>
      <trkpt lat="40.9989380" lon="0.3673760">
        <ele>301.6</ele>
        <time>2020-08-06T16:20:40Z</time>
      </trkpt>
      <trkpt lat="40.9989240" lon="0.3673340">
        <ele>301.7</ele>
        <time>2020-08-06T16:20:41Z</time>
      </trkpt>
      <trkpt lat="40.9989090" lon="0.3672890">
        <ele>301.8</ele>
        <time>2020-08-06T16:20:42Z</time>
      </trkpt>
      <trkpt lat="40.9988870" lon="0.3672160">
        <ele>302.0</ele>
        <time>2020-08-06T16:20:44Z</time>
      </trkpt>
      <trkpt lat="40.9988660" lon="0.3671440">
        <ele>302.1</ele>
        <time>2020-08-06T16:20:46Z</time>
      </trkpt>
      <trkpt lat="40.9988550" lon="0.3671030">
        <ele>302.2</ele>
        <time>2020-08-06T16:20:47Z</time>
      </trkpt>
      <trkpt lat="40.9988370" lon="0.3670270">
        <ele>302.4</ele>
        <time>2020-08-06T16:20:49Z</time>
      </trkpt>
      <trkpt lat="40.9988290" lon="0.3669940">
        <ele>302.5</ele>
        <time>2020-08-06T16:20:50Z</time>
      </trkpt>
      <trkpt lat="40.9988220" lon="0.3669620">
        <ele>302.5</ele>
        <time>2020-08-06T16:20:52Z</time>
      </trkpt>
      <trkpt lat="40.9988030" lon="0.3668970">
        <ele>302.7</ele>
        <time>2020-08-06T16:20:53Z</time>
      </trkpt>
      <trkpt lat="40.9987950" lon="0.3668730">
        <ele>302.8</ele>
        <time>2020-08-06T16:20:54Z</time>
      </trkpt>
      <trkpt lat="40.9987750" lon="0.3668090">
        <ele>302.9</ele>
        <time>2020-08-06T16:20:56Z</time>
      </trkpt>
      <trkpt lat="40.9987640" lon="0.3667750">
        <ele>302.9</ele>
        <time>2020-08-06T16:20:57Z</time>
      </trkpt>
      <trkpt lat="40.9987440" lon="0.3667100">
        <ele>303.0</ele>
        <time>2020-08-06T16:20:59Z</time>
      </trkpt>
      <trkpt lat="40.9987320" lon="0.3666780">
        <ele>303.1</ele>
        <time>2020-08-06T16:21:00Z</time>
      </trkpt>
      <trkpt lat="40.9987100" lon="0.3666130">
        <ele>303.2</ele>
        <time>2020-08-06T16:21:02Z</time>
      </trkpt>
      <trkpt lat="40.9986860" lon="0.3665450">
        <ele>303.4</ele>
        <time>2020-08-06T16:21:04Z</time>
      </trkpt>
      <trkpt lat="40.9986670" lon="0.3664910">
        <ele>303.5</ele>
        <time>2020-08-06T16:21:06Z</time>
      </trkpt>
      <trkpt lat="40.9986440" lon="0.3664250">
        <ele>303.6</ele>
        <time>2020-08-06T16:21:08Z</time>
      </trkpt>
      <trkpt lat="40.9986260" lon="0.3663640">
        <ele>303.7</ele>
        <time>2020-08-06T16:21:10Z</time>
      </trkpt>
      <trkpt lat="40.9986150" lon="0.3663220">
        <ele>303.8</ele>
        <time>2020-08-06T16:21:11Z</time>
      </trkpt>
      <trkpt lat="40.9986100" lon="0.3663080">
        <ele>303.8</ele>
        <time>2020-08-06T16:21:12Z</time>
      </trkpt>
      <trkpt lat="40.9985930" lon="0.3662600">
        <ele>303.9</ele>
        <time>2020-08-06T16:21:14Z</time>
      </trkpt>
      <trkpt lat="40.9985800" lon="0.3662260">
        <ele>303.9</ele>
        <time>2020-08-06T16:21:15Z</time>
      </trkpt>
      <trkpt lat="40.9985710" lon="0.3661850">
        <ele>304.0</ele>
        <time>2020-08-06T16:21:16Z</time>
      </trkpt>
      <trkpt lat="40.9985570" lon="0.3661460">
        <ele>304.0</ele>
        <time>2020-08-06T16:21:17Z</time>
      </trkpt>
      <trkpt lat="40.9985430" lon="0.3661140">
        <ele>304.1</ele>
        <time>2020-08-06T16:21:18Z</time>
      </trkpt>
      <trkpt lat="40.9985230" lon="0.3660670">
        <ele>304.2</ele>
        <time>2020-08-06T16:21:20Z</time>
      </trkpt>
      <trkpt lat="40.9985070" lon="0.3660330">
        <ele>304.3</ele>
        <time>2020-08-06T16:21:21Z</time>
      </trkpt>
      <trkpt lat="40.9984890" lon="0.3659980">
        <ele>304.3</ele>
        <time>2020-08-06T16:21:22Z</time>
      </trkpt>
      <trkpt lat="40.9984640" lon="0.3659550">
        <ele>304.5</ele>
        <time>2020-08-06T16:21:23Z</time>
      </trkpt>
      <trkpt lat="40.9984360" lon="0.3659080">
        <ele>304.6</ele>
        <time>2020-08-06T16:21:25Z</time>
      </trkpt>
      <trkpt lat="40.9984180" lon="0.3658750">
        <ele>304.6</ele>
        <time>2020-08-06T16:21:26Z</time>
      </trkpt>
      <trkpt lat="40.9983930" lon="0.3658380">
        <ele>304.7</ele>
        <time>2020-08-06T16:21:28Z</time>
      </trkpt>
      <trkpt lat="40.9983700" lon="0.3658040">
        <ele>304.8</ele>
        <time>2020-08-06T16:21:29Z</time>
      </trkpt>
      <trkpt lat="40.9983600" lon="0.3657860">
        <ele>304.9</ele>
        <time>2020-08-06T16:21:30Z</time>
      </trkpt>
      <trkpt lat="40.9983370" lon="0.3657480">
        <ele>304.9</ele>
        <time>2020-08-06T16:21:32Z</time>
      </trkpt>
      <trkpt lat="40.9983170" lon="0.3657250">
        <ele>305.0</ele>
        <time>2020-08-06T16:21:33Z</time>
      </trkpt>
      <trkpt lat="40.9983100" lon="0.3657160">
        <ele>305.0</ele>
        <time>2020-08-06T16:21:34Z</time>
      </trkpt>
      <trkpt lat="40.9982830" lon="0.3656750">
        <ele>305.1</ele>
        <time>2020-08-06T16:21:36Z</time>
      </trkpt>
      <trkpt lat="40.9982730" lon="0.3656610">
        <ele>305.1</ele>
        <time>2020-08-06T16:21:37Z</time>
      </trkpt>
      <trkpt lat="40.9982560" lon="0.3656400">
        <ele>305.1</ele>
        <time>2020-08-06T16:21:38Z</time>
      </trkpt>
      <trkpt lat="40.9982290" lon="0.3656060">
        <ele>305.2</ele>
        <time>2020-08-06T16:21:40Z</time>
      </trkpt>
      <trkpt lat="40.9982020" lon="0.3655680">
        <ele>305.2</ele>
        <time>2020-08-06T16:21:41Z</time>
      </trkpt>
      <trkpt lat="40.9981930" lon="0.3655560">
        <ele>305.2</ele>
        <time>2020-08-06T16:21:42Z</time>
      </trkpt>
      <trkpt lat="40.9981760" lon="0.3655310">
        <ele>305.3</ele>
        <time>2020-08-06T16:21:43Z</time>
      </trkpt>
      <trkpt lat="40.9981440" lon="0.3654850">
        <ele>305.4</ele>
        <time>2020-08-06T16:21:45Z</time>
      </trkpt>
      <trkpt lat="40.9981240" lon="0.3654580">
        <ele>305.4</ele>
        <time>2020-08-06T16:21:46Z</time>
      </trkpt>
      <trkpt lat="40.9981030" lon="0.3654300">
        <ele>305.4</ele>
        <time>2020-08-06T16:21:47Z</time>
      </trkpt>
      <trkpt lat="40.9980830" lon="0.3654030">
        <ele>305.5</ele>
        <time>2020-08-06T16:21:48Z</time>
      </trkpt>
      <trkpt lat="40.9980450" lon="0.3653580">
        <ele>305.6</ele>
        <time>2020-08-06T16:21:50Z</time>
      </trkpt>
      <trkpt lat="40.9980210" lon="0.3653320">
        <ele>305.6</ele>
        <time>2020-08-06T16:21:51Z</time>
      </trkpt>
      <trkpt lat="40.9979850" lon="0.3652870">
        <ele>305.7</ele>
        <time>2020-08-06T16:21:53Z</time>
      </trkpt>
      <trkpt lat="40.9979630" lon="0.3652640">
        <ele>305.7</ele>
        <time>2020-08-06T16:21:54Z</time>
      </trkpt>
      <trkpt lat="40.9978960" lon="0.3651990">
        <ele>305.8</ele>
        <time>2020-08-06T16:21:56Z</time>
      </trkpt>
      <trkpt lat="40.9978490" lon="0.3651520">
        <ele>305.9</ele>
        <time>2020-08-06T16:21:57Z</time>
      </trkpt>
      <trkpt lat="40.9977960" lon="0.3651050">
        <ele>306.0</ele>
        <time>2020-08-06T16:21:58Z</time>
      </trkpt>
      <trkpt lat="40.9977390" lon="0.3650500">
        <ele>306.1</ele>
        <time>2020-08-06T16:22:00Z</time>
      </trkpt>
      <trkpt lat="40.9977010" lon="0.3650170">
        <ele>306.2</ele>
        <time>2020-08-06T16:22:01Z</time>
      </trkpt>
      <trkpt lat="40.9976740" lon="0.3649990">
        <ele>306.2</ele>
        <time>2020-08-06T16:22:02Z</time>
      </trkpt>
      <trkpt lat="40.9976390" lon="0.3649730">
        <ele>306.3</ele>
        <time>2020-08-06T16:22:04Z</time>
      </trkpt>
      <trkpt lat="40.9976110" lon="0.3649490">
        <ele>306.4</ele>
        <time>2020-08-06T16:22:05Z</time>
      </trkpt>
      <trkpt lat="40.9975810" lon="0.3649280">
        <ele>306.5</ele>
        <time>2020-08-06T16:22:06Z</time>
      </trkpt>
      <trkpt lat="40.9975540" lon="0.3649160">
        <ele>306.5</ele>
        <time>2020-08-06T16:22:07Z</time>
      </trkpt>
      <trkpt lat="40.9975110" lon="0.3648800">
        <ele>306.7</ele>
        <time>2020-08-06T16:22:09Z</time>
      </trkpt>
      <trkpt lat="40.9974700" lon="0.3648420">
        <ele>306.8</ele>
        <time>2020-08-06T16:22:11Z</time>
      </trkpt>
      <trkpt lat="40.9974450" lon="0.3648230">
        <ele>306.9</ele>
        <time>2020-08-06T16:22:12Z</time>
      </trkpt>
      <trkpt lat="40.9974100" lon="0.3647960">
        <ele>307.0</ele>
        <time>2020-08-06T16:22:14Z</time>
      </trkpt>
      <trkpt lat="40.9973860" lon="0.3647800">
        <ele>307.0</ele>
        <time>2020-08-06T16:22:15Z</time>
      </trkpt>
      <trkpt lat="40.9973540" lon="0.3647580">
        <ele>307.1</ele>
        <time>2020-08-06T16:22:16Z</time>
      </trkpt>
      <trkpt lat="40.9973440" lon="0.3647530">
        <ele>307.2</ele>
        <time>2020-08-06T16:22:17Z</time>
      </trkpt>
      <trkpt lat="40.9973160" lon="0.3647320">
        <ele>307.2</ele>
        <time>2020-08-06T16:22:19Z</time>
      </trkpt>
      <trkpt lat="40.9972880" lon="0.3647120">
        <ele>307.3</ele>
        <time>2020-08-06T16:22:20Z</time>
      </trkpt>
      <trkpt lat="40.9972570" lon="0.3646890">
        <ele>307.4</ele>
        <time>2020-08-06T16:22:21Z</time>
      </trkpt>
      <trkpt lat="40.9972170" lon="0.3646600">
        <ele>307.5</ele>
        <time>2020-08-06T16:22:23Z</time>
      </trkpt>
      <trkpt lat="40.9971860" lon="0.3646400">
        <ele>307.6</ele>
        <time>2020-08-06T16:22:24Z</time>
      </trkpt>
      <trkpt lat="40.9971510" lon="0.3646150">
        <ele>307.6</ele>
        <time>2020-08-06T16:22:26Z</time>
      </trkpt>
      <trkpt lat="40.9971150" lon="0.3645980">
        <ele>307.7</ele>
        <time>2020-08-06T16:22:27Z</time>
      </trkpt>
      <trkpt lat="40.9971040" lon="0.3645930">
        <ele>307.7</ele>
        <time>2020-08-06T16:22:28Z</time>
      </trkpt>
      <trkpt lat="40.9970810" lon="0.3645800">
        <ele>307.8</ele>
        <time>2020-08-06T16:22:29Z</time>
      </trkpt>
      <trkpt lat="40.9970590" lon="0.3645650">
        <ele>307.8</ele>
        <time>2020-08-06T16:22:31Z</time>
      </trkpt>
      <trkpt lat="40.9970280" lon="0.3645460">
        <ele>307.9</ele>
        <time>2020-08-06T16:22:32Z</time>
      </trkpt>
      <trkpt lat="40.9970190" lon="0.3645420">
        <ele>307.9</ele>
        <time>2020-08-06T16:22:33Z</time>
      </trkpt>
      <trkpt lat="40.9969890" lon="0.3645230">
        <ele>307.9</ele>
        <time>2020-08-06T16:22:35Z</time>
      </trkpt>
      <trkpt lat="40.9969680" lon="0.3645060">
        <ele>308.0</ele>
        <time>2020-08-06T16:22:36Z</time>
      </trkpt>
      <trkpt lat="40.9969330" lon="0.3644820">
        <ele>308.1</ele>
        <time>2020-08-06T16:22:38Z</time>
      </trkpt>
      <trkpt lat="40.9969070" lon="0.3644600">
        <ele>308.1</ele>
        <time>2020-08-06T16:22:39Z</time>
      </trkpt>
      <trkpt lat="40.9968730" lon="0.3644310">
        <ele>308.2</ele>
        <time>2020-08-06T16:22:41Z</time>
      </trkpt>
      <trkpt lat="40.9968510" lon="0.3644110">
        <ele>308.3</ele>
        <time>2020-08-06T16:22:42Z</time>
      </trkpt>
      <trkpt lat="40.9968150" lon="0.3643760">
        <ele>308.4</ele>
        <time>2020-08-06T16:22:44Z</time>
      </trkpt>
      <trkpt lat="40.9967920" lon="0.3643560">
        <ele>308.5</ele>
        <time>2020-08-06T16:22:45Z</time>
      </trkpt>
      <trkpt lat="40.9967680" lon="0.3643330">
        <ele>308.5</ele>
        <time>2020-08-06T16:22:46Z</time>
      </trkpt>
      <trkpt lat="40.9967300" lon="0.3643020">
        <ele>308.6</ele>
        <time>2020-08-06T16:22:48Z</time>
      </trkpt>
      <trkpt lat="40.9967050" lon="0.3642790">
        <ele>308.7</ele>
        <time>2020-08-06T16:22:49Z</time>
      </trkpt>
      <trkpt lat="40.9966800" lon="0.3642560">
        <ele>308.7</ele>
        <time>2020-08-06T16:22:50Z</time>
      </trkpt>
      <trkpt lat="40.9966500" lon="0.3642270">
        <ele>308.8</ele>
        <time>2020-08-06T16:22:51Z</time>
      </trkpt>
      <trkpt lat="40.9966260" lon="0.3642040">
        <ele>308.9</ele>
        <time>2020-08-06T16:22:52Z</time>
      </trkpt>
      <trkpt lat="40.9965740" lon="0.3641640">
        <ele>309.1</ele>
        <time>2020-08-06T16:22:54Z</time>
      </trkpt>
      <trkpt lat="40.9965100" lon="0.3641290">
        <ele>309.3</ele>
        <time>2020-08-06T16:22:55Z</time>
      </trkpt>
      <trkpt lat="40.9964670" lon="0.3641050">
        <ele>309.4</ele>
        <time>2020-08-06T16:22:56Z</time>
      </trkpt>
      <trkpt lat="40.9964150" lon="0.3640720">
        <ele>309.6</ele>
        <time>2020-08-06T16:22:58Z</time>
      </trkpt>
      <trkpt lat="40.9963720" lon="0.3640410">
        <ele>309.7</ele>
        <time>2020-08-06T16:22:59Z</time>
      </trkpt>
      <trkpt lat="40.9963400" lon="0.3640120">
        <ele>309.8</ele>
        <time>2020-08-06T16:23:00Z</time>
      </trkpt>
      <trkpt lat="40.9963080" lon="0.3639800">
        <ele>309.9</ele>
        <time>2020-08-06T16:23:01Z</time>
      </trkpt>
      <trkpt lat="40.9962810" lon="0.3639520">
        <ele>310.0</ele>
        <time>2020-08-06T16:23:03Z</time>
      </trkpt>
      <trkpt lat="40.9962600" lon="0.3639270">
        <ele>310.0</ele>
        <time>2020-08-06T16:23:04Z</time>
      </trkpt>
      <trkpt lat="40.9962290" lon="0.3638940">
        <ele>310.1</ele>
        <time>2020-08-06T16:23:05Z</time>
      </trkpt>
      <trkpt lat="40.9961920" lon="0.3638540">
        <ele>310.2</ele>
        <time>2020-08-06T16:23:07Z</time>
      </trkpt>
      <trkpt lat="40.9961620" lon="0.3638260">
        <ele>310.3</ele>
        <time>2020-08-06T16:23:08Z</time>
      </trkpt>
      <trkpt lat="40.9961240" lon="0.3637900">
        <ele>310.4</ele>
        <time>2020-08-06T16:23:10Z</time>
      </trkpt>
      <trkpt lat="40.9960990" lon="0.3637640">
        <ele>310.4</ele>
        <time>2020-08-06T16:23:11Z</time>
      </trkpt>
      <trkpt lat="40.9960780" lon="0.3637410">
        <ele>310.5</ele>
        <time>2020-08-06T16:23:12Z</time>
      </trkpt>
      <trkpt lat="40.9960520" lon="0.3637090">
        <ele>310.5</ele>
        <time>2020-08-06T16:23:14Z</time>
      </trkpt>
      <trkpt lat="40.9960440" lon="0.3636990">
        <ele>310.6</ele>
        <time>2020-08-06T16:23:15Z</time>
      </trkpt>
      <trkpt lat="40.9960190" lon="0.3636640">
        <ele>310.6</ele>
        <time>2020-08-06T16:23:16Z</time>
      </trkpt>
      <trkpt lat="40.9960100" lon="0.3636530">
        <ele>310.7</ele>
        <time>2020-08-06T16:23:17Z</time>
      </trkpt>
      <trkpt lat="40.9959830" lon="0.3636140">
        <ele>310.7</ele>
        <time>2020-08-06T16:23:19Z</time>
      </trkpt>
      <trkpt lat="40.9959750" lon="0.3636010">
        <ele>310.8</ele>
        <time>2020-08-06T16:23:20Z</time>
      </trkpt>
      <trkpt lat="40.9959620" lon="0.3635770">
        <ele>310.8</ele>
        <time>2020-08-06T16:23:21Z</time>
      </trkpt>
      <trkpt lat="40.9959450" lon="0.3635450">
        <ele>310.9</ele>
        <time>2020-08-06T16:23:23Z</time>
      </trkpt>
      <trkpt lat="40.9959260" lon="0.3635100">
        <ele>310.9</ele>
        <time>2020-08-06T16:23:24Z</time>
      </trkpt>
      <trkpt lat="40.9959030" lon="0.3634590">
        <ele>311.0</ele>
        <time>2020-08-06T16:23:26Z</time>
      </trkpt>
      <trkpt lat="40.9958940" lon="0.3634420">
        <ele>311.1</ele>
        <time>2020-08-06T16:23:27Z</time>
      </trkpt>
      <trkpt lat="40.9958860" lon="0.3634240">
        <ele>311.1</ele>
        <time>2020-08-06T16:23:28Z</time>
      </trkpt>
      <trkpt lat="40.9958660" lon="0.3633800">
        <ele>311.2</ele>
        <time>2020-08-06T16:23:29Z</time>
      </trkpt>
      <trkpt lat="40.9958600" lon="0.3633670">
        <ele>311.2</ele>
        <time>2020-08-06T16:23:30Z</time>
      </trkpt>
      <trkpt lat="40.9958470" lon="0.3633400">
        <ele>311.3</ele>
        <time>2020-08-06T16:23:31Z</time>
      </trkpt>
      <trkpt lat="40.9958280" lon="0.3632990">
        <ele>311.3</ele>
        <time>2020-08-06T16:23:33Z</time>
      </trkpt>
      <trkpt lat="40.9958090" lon="0.3632500">
        <ele>311.4</ele>
        <time>2020-08-06T16:23:34Z</time>
      </trkpt>
      <trkpt lat="40.9958010" lon="0.3632310">
        <ele>311.5</ele>
        <time>2020-08-06T16:23:35Z</time>
      </trkpt>
      <trkpt lat="40.9957890" lon="0.3632020">
        <ele>311.5</ele>
        <time>2020-08-06T16:23:36Z</time>
      </trkpt>
      <trkpt lat="40.9957610" lon="0.3631470">
        <ele>311.6</ele>
        <time>2020-08-06T16:23:38Z</time>
      </trkpt>
      <trkpt lat="40.9957440" lon="0.3631160">
        <ele>311.7</ele>
        <time>2020-08-06T16:23:39Z</time>
      </trkpt>
      <trkpt lat="40.9957190" lon="0.3630680">
        <ele>311.8</ele>
        <time>2020-08-06T16:23:41Z</time>
      </trkpt>
      <trkpt lat="40.9957060" lon="0.3630440">
        <ele>311.8</ele>
        <time>2020-08-06T16:23:42Z</time>
      </trkpt>
      <trkpt lat="40.9956880" lon="0.3630080">
        <ele>311.9</ele>
        <time>2020-08-06T16:23:44Z</time>
      </trkpt>
      <trkpt lat="40.9956710" lon="0.3629700">
        <ele>312.0</ele>
        <time>2020-08-06T16:23:45Z</time>
      </trkpt>
      <trkpt lat="40.9956520" lon="0.3629280">
        <ele>312.1</ele>
        <time>2020-08-06T16:23:47Z</time>
      </trkpt>
      <trkpt lat="40.9956370" lon="0.3628920">
        <ele>312.1</ele>
        <time>2020-08-06T16:23:48Z</time>
      </trkpt>
      <trkpt lat="40.9956190" lon="0.3628550">
        <ele>312.2</ele>
        <time>2020-08-06T16:23:49Z</time>
      </trkpt>
      <trkpt lat="40.9955990" lon="0.3628150">
        <ele>312.3</ele>
        <time>2020-08-06T16:23:50Z</time>
      </trkpt>
      <trkpt lat="40.9955660" lon="0.3627410">
        <ele>312.5</ele>
        <time>2020-08-06T16:23:52Z</time>
      </trkpt>
      <trkpt lat="40.9955290" lon="0.3626600">
        <ele>312.6</ele>
        <time>2020-08-06T16:23:53Z</time>
      </trkpt>
      <trkpt lat="40.9954990" lon="0.3625940">
        <ele>312.8</ele>
        <time>2020-08-06T16:23:54Z</time>
      </trkpt>
      <trkpt lat="40.9954690" lon="0.3625270">
        <ele>312.9</ele>
        <time>2020-08-06T16:23:56Z</time>
      </trkpt>
      <trkpt lat="40.9954460" lon="0.3624760">
        <ele>313.0</ele>
        <time>2020-08-06T16:23:57Z</time>
      </trkpt>
      <trkpt lat="40.9954260" lon="0.3624270">
        <ele>313.1</ele>
        <time>2020-08-06T16:23:58Z</time>
      </trkpt>
      <trkpt lat="40.9954090" lon="0.3623890">
        <ele>313.2</ele>
        <time>2020-08-06T16:23:59Z</time>
      </trkpt>
      <trkpt lat="40.9953760" lon="0.3623220">
        <ele>313.4</ele>
        <time>2020-08-06T16:24:01Z</time>
      </trkpt>
      <trkpt lat="40.9953610" lon="0.3622880">
        <ele>313.5</ele>
        <time>2020-08-06T16:24:02Z</time>
      </trkpt>
      <trkpt lat="40.9953480" lon="0.3622550">
        <ele>313.5</ele>
        <time>2020-08-06T16:24:03Z</time>
      </trkpt>
      <trkpt lat="40.9953280" lon="0.3622130">
        <ele>313.6</ele>
        <time>2020-08-06T16:24:05Z</time>
      </trkpt>
      <trkpt lat="40.9953120" lon="0.3621780">
        <ele>313.7</ele>
        <time>2020-08-06T16:24:06Z</time>
      </trkpt>
      <trkpt lat="40.9952940" lon="0.3621400">
        <ele>313.8</ele>
        <time>2020-08-06T16:24:07Z</time>
      </trkpt>
      <trkpt lat="40.9952770" lon="0.3621080">
        <ele>313.9</ele>
        <time>2020-08-06T16:24:08Z</time>
      </trkpt>
      <trkpt lat="40.9952590" lon="0.3620730">
        <ele>314.0</ele>
        <time>2020-08-06T16:24:09Z</time>
      </trkpt>
      <trkpt lat="40.9952280" lon="0.3620220">
        <ele>314.1</ele>
        <time>2020-08-06T16:24:11Z</time>
      </trkpt>
      <trkpt lat="40.9952100" lon="0.3619870">
        <ele>314.2</ele>
        <time>2020-08-06T16:24:12Z</time>
      </trkpt>
      <trkpt lat="40.9951860" lon="0.3619360">
        <ele>314.3</ele>
        <time>2020-08-06T16:24:14Z</time>
      </trkpt>
      <trkpt lat="40.9951670" lon="0.3618900">
        <ele>314.3</ele>
        <time>2020-08-06T16:24:16Z</time>
      </trkpt>
      <trkpt lat="40.9951460" lon="0.3618480">
        <ele>314.4</ele>
        <time>2020-08-06T16:24:17Z</time>
      </trkpt>
      <trkpt lat="40.9951270" lon="0.3618160">
        <ele>314.5</ele>
        <time>2020-08-06T16:24:18Z</time>
      </trkpt>
      <trkpt lat="40.9951090" lon="0.3617820">
        <ele>314.5</ele>
        <time>2020-08-06T16:24:19Z</time>
      </trkpt>
      <trkpt lat="40.9950940" lon="0.3617470">
        <ele>314.6</ele>
        <time>2020-08-06T16:24:20Z</time>
      </trkpt>
      <trkpt lat="40.9950700" lon="0.3617110">
        <ele>314.7</ele>
        <time>2020-08-06T16:24:22Z</time>
      </trkpt>
      <trkpt lat="40.9950460" lon="0.3616670">
        <ele>314.8</ele>
        <time>2020-08-06T16:24:23Z</time>
      </trkpt>
      <trkpt lat="40.9950290" lon="0.3616360">
        <ele>314.8</ele>
        <time>2020-08-06T16:24:24Z</time>
      </trkpt>
      <trkpt lat="40.9950080" lon="0.3615920">
        <ele>314.9</ele>
        <time>2020-08-06T16:24:25Z</time>
      </trkpt>
      <trkpt lat="40.9950010" lon="0.3615770">
        <ele>314.9</ele>
        <time>2020-08-06T16:24:26Z</time>
      </trkpt>
      <trkpt lat="40.9949790" lon="0.3615380">
        <ele>315.0</ele>
        <time>2020-08-06T16:24:27Z</time>
      </trkpt>
      <trkpt lat="40.9949590" lon="0.3615020">
        <ele>315.1</ele>
        <time>2020-08-06T16:24:28Z</time>
      </trkpt>
      <trkpt lat="40.9949430" lon="0.3614660">
        <ele>315.1</ele>
        <time>2020-08-06T16:24:30Z</time>
      </trkpt>
      <trkpt lat="40.9949260" lon="0.3614350">
        <ele>315.2</ele>
        <time>2020-08-06T16:24:31Z</time>
      </trkpt>
      <trkpt lat="40.9949030" lon="0.3613960">
        <ele>315.3</ele>
        <time>2020-08-06T16:24:32Z</time>
      </trkpt>
      <trkpt lat="40.9948930" lon="0.3613680">
        <ele>315.3</ele>
        <time>2020-08-06T16:24:33Z</time>
      </trkpt>
      <trkpt lat="40.9948740" lon="0.3613200">
        <ele>315.4</ele>
        <time>2020-08-06T16:24:35Z</time>
      </trkpt>
      <trkpt lat="40.9948580" lon="0.3612890">
        <ele>315.5</ele>
        <time>2020-08-06T16:24:36Z</time>
      </trkpt>
      <trkpt lat="40.9948490" lon="0.3612660">
        <ele>315.5</ele>
        <time>2020-08-06T16:24:37Z</time>
      </trkpt>
      <trkpt lat="40.9948380" lon="0.3612340">
        <ele>315.6</ele>
        <time>2020-08-06T16:24:39Z</time>
      </trkpt>
      <trkpt lat="40.9948270" lon="0.3611940">
        <ele>315.6</ele>
        <time>2020-08-06T16:24:40Z</time>
      </trkpt>
      <trkpt lat="40.9948230" lon="0.3611830">
        <ele>315.6</ele>
        <time>2020-08-06T16:24:41Z</time>
      </trkpt>
      <trkpt lat="40.9948170" lon="0.3611630">
        <ele>315.7</ele>
        <time>2020-08-06T16:24:42Z</time>
      </trkpt>
      <trkpt lat="40.9948130" lon="0.3611440">
        <ele>315.7</ele>
        <time>2020-08-06T16:24:43Z</time>
      </trkpt>
      <trkpt lat="40.9947960" lon="0.3611010">
        <ele>315.8</ele>
        <time>2020-08-06T16:24:44Z</time>
      </trkpt>
      <trkpt lat="40.9947620" lon="0.3610430">
        <ele>315.9</ele>
        <time>2020-08-06T16:24:46Z</time>
      </trkpt>
      <trkpt lat="40.9947410" lon="0.3610160">
        <ele>316.0</ele>
        <time>2020-08-06T16:24:47Z</time>
      </trkpt>
      <trkpt lat="40.9947340" lon="0.3610080">
        <ele>316.0</ele>
        <time>2020-08-06T16:24:48Z</time>
      </trkpt>
      <trkpt lat="40.9947070" lon="0.3609710">
        <ele>316.1</ele>
        <time>2020-08-06T16:24:50Z</time>
      </trkpt>
      <trkpt lat="40.9946870" lon="0.3609350">
        <ele>316.1</ele>
        <time>2020-08-06T16:24:52Z</time>
      </trkpt>
      <trkpt lat="40.9946770" lon="0.3609120">
        <ele>316.2</ele>
        <time>2020-08-06T16:24:53Z</time>
      </trkpt>
      <trkpt lat="40.9946690" lon="0.3608930">
        <ele>316.2</ele>
        <time>2020-08-06T16:24:54Z</time>
      </trkpt>
      <trkpt lat="40.9946610" lon="0.3608750">
        <ele>316.2</ele>
        <time>2020-08-06T16:24:55Z</time>
      </trkpt>
      <trkpt lat="40.9946490" lon="0.3608600">
        <ele>316.3</ele>
        <time>2020-08-06T16:24:57Z</time>
      </trkpt>
      <trkpt lat="40.9946470" lon="0.3608640">
        <ele>316.3</ele>
        <time>2020-08-06T16:24:58Z</time>
      </trkpt>
      <trkpt lat="40.9946430" lon="0.3608710">
        <ele>316.3</ele>
        <time>2020-08-06T16:24:59Z</time>
      </trkpt>
      <trkpt lat="40.9946420" lon="0.3608790">
        <ele>316.3</ele>
        <time>2020-08-06T16:25:00Z</time>
      </trkpt>
      <trkpt lat="40.9946520" lon="0.3608850">
        <ele>316.3</ele>
        <time>2020-08-06T16:25:02Z</time>
      </trkpt>
      <trkpt lat="40.9946590" lon="0.3608860">
        <ele>316.3</ele>
        <time>2020-08-06T16:25:09Z</time>
      </trkpt>
      <trkpt lat="40.9946560" lon="0.3608850">
        <ele>316.3</ele>
        <time>2020-08-06T16:25:11Z</time>
      </trkpt>
      <trkpt lat="40.9946350" lon="0.3608240">
        <ele>316.4</ele>
        <time>2020-08-06T16:29:08Z</time>
      </trkpt>
      <trkpt lat="40.9946310" lon="0.3608130">
        <ele>316.4</ele>
        <time>2020-08-06T16:29:09Z</time>
      </trkpt>
      <trkpt lat="40.9946190" lon="0.3607890">
        <ele>316.4</ele>
        <time>2020-08-06T16:29:11Z</time>
      </trkpt>
      <trkpt lat="40.9946100" lon="0.3607910">
        <ele>316.5</ele>
        <time>2020-08-06T16:29:12Z</time>
      </trkpt>
      <trkpt lat="40.9946010" lon="0.3607810">
        <ele>316.5</ele>
        <time>2020-08-06T16:29:14Z</time>
      </trkpt>
      <trkpt lat="40.9945960" lon="0.3607610">
        <ele>316.5</ele>
        <time>2020-08-06T16:29:15Z</time>
      </trkpt>
      <trkpt lat="40.9945900" lon="0.3607500">
        <ele>316.5</ele>
        <time>2020-08-06T16:29:16Z</time>
      </trkpt>
      <trkpt lat="40.9945880" lon="0.3607410">
        <ele>316.6</ele>
        <time>2020-08-06T16:29:17Z</time>
      </trkpt>
      <trkpt lat="40.9945850" lon="0.3607270">
        <ele>316.6</ele>
        <time>2020-08-06T16:29:18Z</time>
      </trkpt>
      <trkpt lat="40.9945760" lon="0.3606850">
        <ele>316.6</ele>
        <time>2020-08-06T16:29:20Z</time>
      </trkpt>
      <trkpt lat="40.9945720" lon="0.3606720">
        <ele>316.7</ele>
        <time>2020-08-06T16:29:21Z</time>
      </trkpt>
      <trkpt lat="40.9945570" lon="0.3606300">
        <ele>316.7</ele>
        <time>2020-08-06T16:29:22Z</time>
      </trkpt>
      <trkpt lat="40.9945380" lon="0.3605880">
        <ele>316.8</ele>
        <time>2020-08-06T16:29:23Z</time>
      </trkpt>
      <trkpt lat="40.9945250" lon="0.3605520">
        <ele>316.9</ele>
        <time>2020-08-06T16:29:24Z</time>
      </trkpt>
      <trkpt lat="40.9945130" lon="0.3605080">
        <ele>317.0</ele>
        <time>2020-08-06T16:29:26Z</time>
      </trkpt>
      <trkpt lat="40.9944970" lon="0.3604650">
        <ele>317.1</ele>
        <time>2020-08-06T16:29:27Z</time>
      </trkpt>
      <trkpt lat="40.9944820" lon="0.3604250">
        <ele>317.2</ele>
        <time>2020-08-06T16:29:28Z</time>
      </trkpt>
      <trkpt lat="40.9944630" lon="0.3603780">
        <ele>317.3</ele>
        <time>2020-08-06T16:29:30Z</time>
      </trkpt>
      <trkpt lat="40.9944490" lon="0.3603330">
        <ele>317.3</ele>
        <time>2020-08-06T16:29:31Z</time>
      </trkpt>
      <trkpt lat="40.9944440" lon="0.3603170">
        <ele>317.4</ele>
        <time>2020-08-06T16:29:32Z</time>
      </trkpt>
      <trkpt lat="40.9944340" lon="0.3602820">
        <ele>317.4</ele>
        <time>2020-08-06T16:29:33Z</time>
      </trkpt>
      <trkpt lat="40.9944260" lon="0.3602510">
        <ele>317.5</ele>
        <time>2020-08-06T16:29:34Z</time>
      </trkpt>
      <trkpt lat="40.9944080" lon="0.3602000">
        <ele>317.6</ele>
        <time>2020-08-06T16:29:36Z</time>
      </trkpt>
      <trkpt lat="40.9943960" lon="0.3601530">
        <ele>317.7</ele>
        <time>2020-08-06T16:29:38Z</time>
      </trkpt>
      <trkpt lat="40.9943870" lon="0.3601070">
        <ele>317.8</ele>
        <time>2020-08-06T16:29:39Z</time>
      </trkpt>
      <trkpt lat="40.9943830" lon="0.3600920">
        <ele>317.8</ele>
        <time>2020-08-06T16:29:40Z</time>
      </trkpt>
      <trkpt lat="40.9943770" lon="0.3600560">
        <ele>317.8</ele>
        <time>2020-08-06T16:29:41Z</time>
      </trkpt>
      <trkpt lat="40.9943690" lon="0.3599960">
        <ele>318.0</ele>
        <time>2020-08-06T16:29:43Z</time>
      </trkpt>
      <trkpt lat="40.9943670" lon="0.3599770">
        <ele>318.0</ele>
        <time>2020-08-06T16:29:44Z</time>
      </trkpt>
      <trkpt lat="40.9943640" lon="0.3599570">
        <ele>318.0</ele>
        <time>2020-08-06T16:29:45Z</time>
      </trkpt>
      <trkpt lat="40.9943590" lon="0.3599170">
        <ele>318.1</ele>
        <time>2020-08-06T16:29:47Z</time>
      </trkpt>
      <trkpt lat="40.9943530" lon="0.3598810">
        <ele>318.2</ele>
        <time>2020-08-06T16:29:48Z</time>
      </trkpt>
      <trkpt lat="40.9943450" lon="0.3598310">
        <ele>318.3</ele>
        <time>2020-08-06T16:29:49Z</time>
      </trkpt>
      <trkpt lat="40.9943420" lon="0.3598150">
        <ele>318.3</ele>
        <time>2020-08-06T16:29:50Z</time>
      </trkpt>
      <trkpt lat="40.9943370" lon="0.3597670">
        <ele>318.4</ele>
        <time>2020-08-06T16:29:51Z</time>
      </trkpt>
      <trkpt lat="40.9943350" lon="0.3597540">
        <ele>318.4</ele>
        <time>2020-08-06T16:29:52Z</time>
      </trkpt>
      <trkpt lat="40.9943300" lon="0.3597230">
        <ele>318.5</ele>
        <time>2020-08-06T16:29:53Z</time>
      </trkpt>
      <trkpt lat="40.9943210" lon="0.3596600">
        <ele>318.6</ele>
        <time>2020-08-06T16:29:55Z</time>
      </trkpt>
      <trkpt lat="40.9943190" lon="0.3596000">
        <ele>318.8</ele>
        <time>2020-08-06T16:29:57Z</time>
      </trkpt>
      <trkpt lat="40.9943160" lon="0.3595540">
        <ele>318.8</ele>
        <time>2020-08-06T16:29:58Z</time>
      </trkpt>
      <trkpt lat="40.9943150" lon="0.3595390">
        <ele>318.9</ele>
        <time>2020-08-06T16:29:59Z</time>
      </trkpt>
      <trkpt lat="40.9943140" lon="0.3595050">
        <ele>318.9</ele>
        <time>2020-08-06T16:30:00Z</time>
      </trkpt>
      <trkpt lat="40.9943100" lon="0.3594490">
        <ele>319.0</ele>
        <time>2020-08-06T16:30:02Z</time>
      </trkpt>
      <trkpt lat="40.9943060" lon="0.3594120">
        <ele>319.1</ele>
        <time>2020-08-06T16:30:03Z</time>
      </trkpt>
      <trkpt lat="40.9943010" lon="0.3593610">
        <ele>319.1</ele>
        <time>2020-08-06T16:30:05Z</time>
      </trkpt>
      <trkpt lat="40.9942970" lon="0.3593110">
        <ele>319.0</ele>
        <time>2020-08-06T16:30:06Z</time>
      </trkpt>
      <trkpt lat="40.9942940" lon="0.3592950">
        <ele>319.0</ele>
        <time>2020-08-06T16:30:07Z</time>
      </trkpt>
      <trkpt lat="40.9942960" lon="0.3592520">
        <ele>318.9</ele>
        <time>2020-08-06T16:30:08Z</time>
      </trkpt>
      <trkpt lat="40.9942960" lon="0.3592370">
        <ele>318.9</ele>
        <time>2020-08-06T16:30:09Z</time>
      </trkpt>
      <trkpt lat="40.9942950" lon="0.3591890">
        <ele>319.0</ele>
        <time>2020-08-06T16:30:11Z</time>
      </trkpt>
      <trkpt lat="40.9942960" lon="0.3591540">
        <ele>319.0</ele>
        <time>2020-08-06T16:30:12Z</time>
      </trkpt>
      <trkpt lat="40.9942960" lon="0.3591400">
        <ele>319.0</ele>
        <time>2020-08-06T16:30:13Z</time>
      </trkpt>
      <trkpt lat="40.9942950" lon="0.3590970">
        <ele>319.1</ele>
        <time>2020-08-06T16:30:15Z</time>
      </trkpt>
      <trkpt lat="40.9942950" lon="0.3590820">
        <ele>319.1</ele>
        <time>2020-08-06T16:30:16Z</time>
      </trkpt>
      <trkpt lat="40.9942970" lon="0.3590570">
        <ele>319.1</ele>
        <time>2020-08-06T16:30:18Z</time>
      </trkpt>
      <trkpt lat="40.9942980" lon="0.3590410">
        <ele>319.1</ele>
        <time>2020-08-06T16:30:19Z</time>
      </trkpt>
      <trkpt lat="40.9942990" lon="0.3590210">
        <ele>319.1</ele>
        <time>2020-08-06T16:30:21Z</time>
      </trkpt>
      <trkpt lat="40.9942980" lon="0.3589980">
        <ele>319.1</ele>
        <time>2020-08-06T16:30:22Z</time>
      </trkpt>
      <trkpt lat="40.9942980" lon="0.3589800">
        <ele>319.2</ele>
        <time>2020-08-06T16:30:23Z</time>
      </trkpt>
      <trkpt lat="40.9945770" lon="0.3556210">
        <ele>325.0</ele>
        <time>2020-08-06T16:33:28Z</time>
      </trkpt>
      <trkpt lat="40.9945710" lon="0.3555940">
        <ele>325.0</ele>
        <time>2020-08-06T16:33:29Z</time>
      </trkpt>
      <trkpt lat="40.9945560" lon="0.3555210">
        <ele>325.2</ele>
        <time>2020-08-06T16:33:31Z</time>
      </trkpt>
      <trkpt lat="40.9945400" lon="0.3554490">
        <ele>325.4</ele>
        <time>2020-08-06T16:33:33Z</time>
      </trkpt>
      <trkpt lat="40.9945260" lon="0.3554040">
        <ele>325.5</ele>
        <time>2020-08-06T16:33:35Z</time>
      </trkpt>
      <trkpt lat="40.9945060" lon="0.3553890">
        <ele>325.6</ele>
        <time>2020-08-06T16:33:36Z</time>
      </trkpt>
      <trkpt lat="40.9944960" lon="0.3553790">
        <ele>325.6</ele>
        <time>2020-08-06T16:33:37Z</time>
      </trkpt>
      <trkpt lat="40.9944870" lon="0.3553610">
        <ele>325.7</ele>
        <time>2020-08-06T16:33:39Z</time>
      </trkpt>
      <trkpt lat="40.9944840" lon="0.3553380">
        <ele>325.7</ele>
        <time>2020-08-06T16:33:40Z</time>
      </trkpt>
      <trkpt lat="40.9944810" lon="0.3552870">
        <ele>325.8</ele>
        <time>2020-08-06T16:33:41Z</time>
      </trkpt>
      <trkpt lat="40.9944770" lon="0.3552650">
        <ele>325.9</ele>
        <time>2020-08-06T16:33:42Z</time>
      </trkpt>
      <trkpt lat="40.9944720" lon="0.3552220">
        <ele>326.0</ele>
        <time>2020-08-06T16:33:44Z</time>
      </trkpt>
      <trkpt lat="40.9944650" lon="0.3551860">
        <ele>326.0</ele>
        <time>2020-08-06T16:33:45Z</time>
      </trkpt>
      <trkpt lat="40.9944540" lon="0.3551320">
        <ele>326.1</ele>
        <time>2020-08-06T16:33:46Z</time>
      </trkpt>
      <trkpt lat="40.9944360" lon="0.3550600">
        <ele>326.1</ele>
        <time>2020-08-06T16:33:48Z</time>
      </trkpt>
      <trkpt lat="40.9944160" lon="0.3549890">
        <ele>326.1</ele>
        <time>2020-08-06T16:33:49Z</time>
      </trkpt>
      <trkpt lat="40.9943940" lon="0.3549290">
        <ele>326.1</ele>
        <time>2020-08-06T16:33:50Z</time>
      </trkpt>
      <trkpt lat="40.9943810" lon="0.3548810">
        <ele>326.1</ele>
        <time>2020-08-06T16:33:51Z</time>
      </trkpt>
      <trkpt lat="40.9943710" lon="0.3548360">
        <ele>326.2</ele>
        <time>2020-08-06T16:33:52Z</time>
      </trkpt>
      <trkpt lat="40.9943590" lon="0.3547950">
        <ele>326.2</ele>
        <time>2020-08-06T16:33:53Z</time>
      </trkpt>
      <trkpt lat="40.9943440" lon="0.3547590">
        <ele>326.2</ele>
        <time>2020-08-06T16:33:54Z</time>
      </trkpt>
      <trkpt lat="40.9943230" lon="0.3547090">
        <ele>326.3</ele>
        <time>2020-08-06T16:33:56Z</time>
      </trkpt>
      <trkpt lat="40.9943080" lon="0.3546680">
        <ele>326.3</ele>
        <time>2020-08-06T16:33:57Z</time>
      </trkpt>
      <trkpt lat="40.9943030" lon="0.3546550">
        <ele>326.3</ele>
        <time>2020-08-06T16:33:58Z</time>
      </trkpt>
      <trkpt lat="40.9942870" lon="0.3546220">
        <ele>326.3</ele>
        <time>2020-08-06T16:33:59Z</time>
      </trkpt>
      <trkpt lat="40.9942820" lon="0.3546110">
        <ele>326.3</ele>
        <time>2020-08-06T16:34:00Z</time>
      </trkpt>
      <trkpt lat="40.9942730" lon="0.3545870">
        <ele>326.3</ele>
        <time>2020-08-06T16:34:01Z</time>
      </trkpt>
      <trkpt lat="40.9942620" lon="0.3545520">
        <ele>326.3</ele>
        <time>2020-08-06T16:34:03Z</time>
      </trkpt>
      <trkpt lat="40.9942450" lon="0.3545150">
        <ele>326.4</ele>
        <time>2020-08-06T16:34:04Z</time>
      </trkpt>
      <trkpt lat="40.9942390" lon="0.3545040">
        <ele>326.4</ele>
        <time>2020-08-06T16:34:05Z</time>
      </trkpt>
      <trkpt lat="40.9942200" lon="0.3544730">
        <ele>326.4</ele>
        <time>2020-08-06T16:34:07Z</time>
      </trkpt>
      <trkpt lat="40.9942070" lon="0.3544560">
        <ele>326.4</ele>
        <time>2020-08-06T16:34:08Z</time>
      </trkpt>
      <trkpt lat="40.9941990" lon="0.3544430">
        <ele>326.4</ele>
        <time>2020-08-06T16:34:09Z</time>
      </trkpt>
      <trkpt lat="40.9941960" lon="0.3544320">
        <ele>326.4</ele>
        <time>2020-08-06T16:34:10Z</time>
      </trkpt>
      <trkpt lat="40.9941990" lon="0.3544320">
        <ele>326.4</ele>
        <time>2020-08-06T16:34:11Z</time>
      </trkpt>
      <trkpt lat="40.9942040" lon="0.3544320">
        <ele>326.4</ele>
        <time>2020-08-06T16:34:13Z</time>
      </trkpt>
      <trkpt lat="40.9942050" lon="0.3544310">
        <ele>326.4</ele>
        <time>2020-08-06T16:34:14Z</time>
      </trkpt>
      <trkpt lat="40.9942070" lon="0.3544310">
        <ele>326.4</ele>
        <time>2020-08-06T16:34:15Z</time>
      </trkpt>
      <trkpt lat="40.9942080" lon="0.3544310">
        <ele>326.4</ele>
        <time>2020-08-06T16:34:16Z</time>
      </trkpt>
      <trkpt lat="40.9942090" lon="0.3544310">
        <ele>326.4</ele>
        <time>2020-08-06T16:34:17Z</time>
      </trkpt>
      <trkpt lat="40.9942100" lon="0.3544300">
        <ele>326.4</ele>
        <time>2020-08-06T16:34:18Z</time>
      </trkpt>
      <trkpt lat="40.9942120" lon="0.3544280">
        <ele>326.4</ele>
        <time>2020-08-06T16:34:20Z</time>
      </trkpt>
      <trkpt lat="40.9941940" lon="0.3543550">
        <ele>326.4</ele>
        <time>2020-08-06T16:39:20Z</time>
      </trkpt>
      <trkpt lat="40.9942080" lon="0.3543380">
        <ele>326.4</ele>
        <time>2020-08-06T16:39:22Z</time>
      </trkpt>
      <trkpt lat="40.9942060" lon="0.3543300">
        <ele>326.4</ele>
        <time>2020-08-06T16:39:25Z</time>
      </trkpt>
      <trkpt lat="40.9942090" lon="0.3543360">
        <ele>326.4</ele>
        <time>2020-08-06T16:39:26Z</time>
      </trkpt>
      <trkpt lat="40.9942080" lon="0.3543380">
        <ele>326.4</ele>
        <time>2020-08-06T16:39:27Z</time>
      </trkpt>
      <trkpt lat="40.9942090" lon="0.3543400">
        <ele>326.4</ele>
        <time>2020-08-06T16:39:28Z</time>
      </trkpt>
      <trkpt lat="40.9942120" lon="0.3543440">
        <ele>326.4</ele>
        <time>2020-08-06T16:39:30Z</time>
      </trkpt>
      <trkpt lat="40.9942140" lon="0.3543450">
        <ele>326.4</ele>
        <time>2020-08-06T16:39:32Z</time>
      </trkpt>
      <trkpt lat="40.9942160" lon="0.3543450">
        <ele>326.4</ele>
        <time>2020-08-06T16:39:33Z</time>
      </trkpt>
      <trkpt lat="40.9942170" lon="0.3543430">
        <ele>326.5</ele>
        <time>2020-08-06T16:39:35Z</time>
      </trkpt>
      <trkpt lat="40.9942190" lon="0.3543420">
        <ele>326.5</ele>
        <time>2020-08-06T16:39:37Z</time>
      </trkpt>
      <trkpt lat="40.9942000" lon="0.3543020">
        <ele>326.5</ele>
        <time>2020-08-06T16:40:27Z</time>
      </trkpt>
      <trkpt lat="40.9942020" lon="0.3542880">
        <ele>326.5</ele>
        <time>2020-08-06T16:40:29Z</time>
      </trkpt>
      <trkpt lat="40.9942010" lon="0.3542790">
        <ele>326.5</ele>
        <time>2020-08-06T16:40:30Z</time>
      </trkpt>
      <trkpt lat="40.9941940" lon="0.3542610">
        <ele>326.5</ele>
        <time>2020-08-06T16:40:32Z</time>
      </trkpt>
      <trkpt lat="40.9941870" lon="0.3542450">
        <ele>326.5</ele>
        <time>2020-08-06T16:40:33Z</time>
      </trkpt>
      <trkpt lat="40.9941780" lon="0.3542280">
        <ele>326.6</ele>
        <time>2020-08-06T16:40:34Z</time>
      </trkpt>
      <trkpt lat="40.9941720" lon="0.3542070">
        <ele>326.6</ele>
        <time>2020-08-06T16:40:35Z</time>
      </trkpt>
      <trkpt lat="40.9941660" lon="0.3541870">
        <ele>326.6</ele>
        <time>2020-08-06T16:40:36Z</time>
      </trkpt>
      <trkpt lat="40.9941540" lon="0.3541640">
        <ele>326.6</ele>
        <time>2020-08-06T16:40:37Z</time>
      </trkpt>
      <trkpt lat="40.9941420" lon="0.3541370">
        <ele>326.6</ele>
        <time>2020-08-06T16:40:39Z</time>
      </trkpt>
      <trkpt lat="40.9941320" lon="0.3541110">
        <ele>326.7</ele>
        <time>2020-08-06T16:40:40Z</time>
      </trkpt>
      <trkpt lat="40.9941250" lon="0.3541020">
        <ele>326.7</ele>
        <time>2020-08-06T16:40:41Z</time>
      </trkpt>
      <trkpt lat="40.9941170" lon="0.3540900">
        <ele>326.7</ele>
        <time>2020-08-06T16:40:42Z</time>
      </trkpt>
      <trkpt lat="40.9940610" lon="0.3540250">
        <ele>326.8</ele>
        <time>2020-08-06T16:40:44Z</time>
      </trkpt>
      <trkpt lat="40.9940100" lon="0.3539770">
        <ele>326.8</ele>
        <time>2020-08-06T16:40:46Z</time>
      </trkpt>
      <trkpt lat="40.9939820" lon="0.3539470">
        <ele>326.8</ele>
        <time>2020-08-06T16:40:48Z</time>
      </trkpt>
      <trkpt lat="40.9939650" lon="0.3539100">
        <ele>326.8</ele>
        <time>2020-08-06T16:40:50Z</time>
      </trkpt>
      <trkpt lat="40.9939550" lon="0.3538930">
        <ele>326.8</ele>
        <time>2020-08-06T16:40:51Z</time>
      </trkpt>
      <trkpt lat="40.9939330" lon="0.3538510">
        <ele>326.8</ele>
        <time>2020-08-06T16:40:53Z</time>
      </trkpt>
      <trkpt lat="40.9939030" lon="0.3538060">
        <ele>326.8</ele>
        <time>2020-08-06T16:40:55Z</time>
      </trkpt>
      <trkpt lat="40.9938710" lon="0.3537680">
        <ele>326.8</ele>
        <time>2020-08-06T16:40:57Z</time>
      </trkpt>
      <trkpt lat="40.9938580" lon="0.3537480">
        <ele>326.8</ele>
        <time>2020-08-06T16:40:58Z</time>
      </trkpt>
      <trkpt lat="40.9938260" lon="0.3537020">
        <ele>326.8</ele>
        <time>2020-08-06T16:41:00Z</time>
      </trkpt>
      <trkpt lat="40.9937990" lon="0.3536640">
        <ele>326.8</ele>
        <time>2020-08-06T16:41:02Z</time>
      </trkpt>
      <trkpt lat="40.9937750" lon="0.3536310">
        <ele>326.8</ele>
        <time>2020-08-06T16:41:03Z</time>
      </trkpt>
      <trkpt lat="40.9937670" lon="0.3536200">
        <ele>326.8</ele>
        <time>2020-08-06T16:41:04Z</time>
      </trkpt>
      <trkpt lat="40.9937350" lon="0.3535780">
        <ele>326.8</ele>
        <time>2020-08-06T16:41:06Z</time>
      </trkpt>
      <trkpt lat="40.9937100" lon="0.3535470">
        <ele>326.8</ele>
        <time>2020-08-06T16:41:07Z</time>
      </trkpt>
      <trkpt lat="40.9937010" lon="0.3535360">
        <ele>326.8</ele>
        <time>2020-08-06T16:41:08Z</time>
      </trkpt>
      <trkpt lat="40.9936690" lon="0.3535000">
        <ele>326.8</ele>
        <time>2020-08-06T16:41:10Z</time>
      </trkpt>
      <trkpt lat="40.9936500" lon="0.3534790">
        <ele>326.7</ele>
        <time>2020-08-06T16:41:11Z</time>
      </trkpt>
      <trkpt lat="40.9936120" lon="0.3534420">
        <ele>326.7</ele>
        <time>2020-08-06T16:41:13Z</time>
      </trkpt>
      <trkpt lat="40.9935860" lon="0.3534160">
        <ele>326.7</ele>
        <time>2020-08-06T16:41:14Z</time>
      </trkpt>
      <trkpt lat="40.9935760" lon="0.3534070">
        <ele>326.7</ele>
        <time>2020-08-06T16:41:15Z</time>
      </trkpt>
      <trkpt lat="40.9935480" lon="0.3533790">
        <ele>326.9</ele>
        <time>2020-08-06T16:41:16Z</time>
      </trkpt>
      <trkpt lat="40.9935380" lon="0.3533700">
        <ele>326.9</ele>
        <time>2020-08-06T16:41:17Z</time>
      </trkpt>
      <trkpt lat="40.9934990" lon="0.3533300">
        <ele>327.1</ele>
        <time>2020-08-06T16:41:19Z</time>
      </trkpt>
      <trkpt lat="40.9934750" lon="0.3533020">
        <ele>327.2</ele>
        <time>2020-08-06T16:41:20Z</time>
      </trkpt>
      <trkpt lat="40.9934650" lon="0.3532930">
        <ele>327.3</ele>
        <time>2020-08-06T16:41:21Z</time>
      </trkpt>
      <trkpt lat="40.9934260" lon="0.3532610">
        <ele>327.5</ele>
        <time>2020-08-06T16:41:23Z</time>
      </trkpt>
      <trkpt lat="40.9933970" lon="0.3532370">
        <ele>327.6</ele>
        <time>2020-08-06T16:41:24Z</time>
      </trkpt>
      <trkpt lat="40.9933880" lon="0.3532290">
        <ele>327.6</ele>
        <time>2020-08-06T16:41:25Z</time>
      </trkpt>
      <trkpt lat="40.9933580" lon="0.3531970">
        <ele>327.8</ele>
        <time>2020-08-06T16:41:27Z</time>
      </trkpt>
      <trkpt lat="40.9933420" lon="0.3531810">
        <ele>327.9</ele>
        <time>2020-08-06T16:41:28Z</time>
      </trkpt>
      <trkpt lat="40.9933100" lon="0.3531450">
        <ele>328.1</ele>
        <time>2020-08-06T16:41:30Z</time>
      </trkpt>
      <trkpt lat="40.9932920" lon="0.3531260">
        <ele>328.2</ele>
        <time>2020-08-06T16:41:31Z</time>
      </trkpt>
      <trkpt lat="40.9932560" lon="0.3530880">
        <ele>328.3</ele>
        <time>2020-08-06T16:41:33Z</time>
      </trkpt>
      <trkpt lat="40.9932390" lon="0.3530720">
        <ele>328.4</ele>
        <time>2020-08-06T16:41:34Z</time>
      </trkpt>
      <trkpt lat="40.9932030" lon="0.3530350">
        <ele>328.6</ele>
        <time>2020-08-06T16:41:36Z</time>
      </trkpt>
      <trkpt lat="40.9931840" lon="0.3530140">
        <ele>328.7</ele>
        <time>2020-08-06T16:41:37Z</time>
      </trkpt>
      <trkpt lat="40.9931470" lon="0.3529730">
        <ele>328.9</ele>
        <time>2020-08-06T16:41:39Z</time>
      </trkpt>
      <trkpt lat="40.9931130" lon="0.3529380">
        <ele>329.0</ele>
        <time>2020-08-06T16:41:41Z</time>
      </trkpt>
      <trkpt lat="40.9931000" lon="0.3529270">
        <ele>329.1</ele>
        <time>2020-08-06T16:41:42Z</time>
      </trkpt>
      <trkpt lat="40.9930840" lon="0.3529140">
        <ele>329.1</ele>
        <time>2020-08-06T16:41:43Z</time>
      </trkpt>
      <trkpt lat="40.9930520" lon="0.3528880">
        <ele>329.2</ele>
        <time>2020-08-06T16:41:45Z</time>
      </trkpt>
      <trkpt lat="40.9930150" lon="0.3528580">
        <ele>329.4</ele>
        <time>2020-08-06T16:41:47Z</time>
      </trkpt>
      <trkpt lat="40.9929770" lon="0.3528250">
        <ele>329.5</ele>
        <time>2020-08-06T16:41:49Z</time>
      </trkpt>
      <trkpt lat="40.9929490" lon="0.3527950">
        <ele>329.6</ele>
        <time>2020-08-06T16:41:50Z</time>
      </trkpt>
      <trkpt lat="40.9929410" lon="0.3527870">
        <ele>329.7</ele>
        <time>2020-08-06T16:41:51Z</time>
      </trkpt>
      <trkpt lat="40.9929210" lon="0.3527670">
        <ele>329.8</ele>
        <time>2020-08-06T16:41:52Z</time>
      </trkpt>
      <trkpt lat="40.9928860" lon="0.3527330">
        <ele>329.9</ele>
        <time>2020-08-06T16:41:54Z</time>
      </trkpt>
      <trkpt lat="40.9928700" lon="0.3527160">
        <ele>330.0</ele>
        <time>2020-08-06T16:41:55Z</time>
      </trkpt>
      <trkpt lat="40.9928370" lon="0.3526840">
        <ele>330.1</ele>
        <time>2020-08-06T16:41:57Z</time>
      </trkpt>
      <trkpt lat="40.9927990" lon="0.3526500">
        <ele>330.2</ele>
        <time>2020-08-06T16:41:59Z</time>
      </trkpt>
      <trkpt lat="40.9927600" lon="0.3526120">
        <ele>330.4</ele>
        <time>2020-08-06T16:42:01Z</time>
      </trkpt>
      <trkpt lat="40.9927430" lon="0.3525930">
        <ele>330.4</ele>
        <time>2020-08-06T16:42:02Z</time>
      </trkpt>
      <trkpt lat="40.9927040" lon="0.3525520">
        <ele>330.6</ele>
        <time>2020-08-06T16:42:04Z</time>
      </trkpt>
      <trkpt lat="40.9926760" lon="0.3525240">
        <ele>330.7</ele>
        <time>2020-08-06T16:42:05Z</time>
      </trkpt>
      <trkpt lat="40.9926660" lon="0.3525150">
        <ele>330.7</ele>
        <time>2020-08-06T16:42:06Z</time>
      </trkpt>
      <trkpt lat="40.9926410" lon="0.3524900">
        <ele>330.8</ele>
        <time>2020-08-06T16:42:07Z</time>
      </trkpt>
      <trkpt lat="40.9926330" lon="0.3524830">
        <ele>330.9</ele>
        <time>2020-08-06T16:42:08Z</time>
      </trkpt>
      <trkpt lat="40.9926080" lon="0.3524580">
        <ele>331.0</ele>
        <time>2020-08-06T16:42:09Z</time>
      </trkpt>
      <trkpt lat="40.9926000" lon="0.3524500">
        <ele>331.0</ele>
        <time>2020-08-06T16:42:10Z</time>
      </trkpt>
      <trkpt lat="40.9925650" lon="0.3524110">
        <ele>331.2</ele>
        <time>2020-08-06T16:42:12Z</time>
      </trkpt>
      <trkpt lat="40.9925250" lon="0.3523730">
        <ele>331.3</ele>
        <time>2020-08-06T16:42:14Z</time>
      </trkpt>
      <trkpt lat="40.9925120" lon="0.3523620">
        <ele>331.4</ele>
        <time>2020-08-06T16:42:15Z</time>
      </trkpt>
      <trkpt lat="40.9924990" lon="0.3523520">
        <ele>331.4</ele>
        <time>2020-08-06T16:42:16Z</time>
      </trkpt>
      <trkpt lat="40.9924780" lon="0.3523350">
        <ele>331.5</ele>
        <time>2020-08-06T16:42:17Z</time>
      </trkpt>
      <trkpt lat="40.9924440" lon="0.3523080">
        <ele>331.7</ele>
        <time>2020-08-06T16:42:19Z</time>
      </trkpt>
      <trkpt lat="40.9923780" lon="0.3522500">
        <ele>331.9</ele>
        <time>2020-08-06T16:42:25Z</time>
      </trkpt>
      <trkpt lat="40.9923100" lon="0.3521770">
        <ele>332.2</ele>
        <time>2020-08-06T16:42:27Z</time>
      </trkpt>
      <trkpt lat="40.9922820" lon="0.3521490">
        <ele>332.3</ele>
        <time>2020-08-06T16:42:28Z</time>
      </trkpt>
      <trkpt lat="40.9922570" lon="0.3521280">
        <ele>332.4</ele>
        <time>2020-08-06T16:42:29Z</time>
      </trkpt>
      <trkpt lat="40.9922260" lon="0.3521030">
        <ele>332.5</ele>
        <time>2020-08-06T16:42:30Z</time>
      </trkpt>
      <trkpt lat="40.9922150" lon="0.3520950">
        <ele>332.5</ele>
        <time>2020-08-06T16:42:31Z</time>
      </trkpt>
      <trkpt lat="40.9921930" lon="0.3520780">
        <ele>332.6</ele>
        <time>2020-08-06T16:42:32Z</time>
      </trkpt>
      <trkpt lat="40.9921460" lon="0.3520420">
        <ele>332.8</ele>
        <time>2020-08-06T16:42:34Z</time>
      </trkpt>
      <trkpt lat="40.9921240" lon="0.3520270">
        <ele>332.9</ele>
        <time>2020-08-06T16:42:35Z</time>
      </trkpt>
      <trkpt lat="40.9920880" lon="0.3520050">
        <ele>333.0</ele>
        <time>2020-08-06T16:42:37Z</time>
      </trkpt>
      <trkpt lat="40.9920380" lon="0.3519750">
        <ele>333.2</ele>
        <time>2020-08-06T16:42:39Z</time>
      </trkpt>
      <trkpt lat="40.9919920" lon="0.3519560">
        <ele>333.4</ele>
        <time>2020-08-06T16:42:41Z</time>
      </trkpt>
      <trkpt lat="40.9919700" lon="0.3519480">
        <ele>333.5</ele>
        <time>2020-08-06T16:42:42Z</time>
      </trkpt>
      <trkpt lat="40.9919440" lon="0.3519370">
        <ele>333.6</ele>
        <time>2020-08-06T16:42:43Z</time>
      </trkpt>
      <trkpt lat="40.9918980" lon="0.3519170">
        <ele>333.8</ele>
        <time>2020-08-06T16:42:45Z</time>
      </trkpt>
      <trkpt lat="40.9918710" lon="0.3519030">
        <ele>333.9</ele>
        <time>2020-08-06T16:42:46Z</time>
      </trkpt>
      <trkpt lat="40.9918250" lon="0.3518760">
        <ele>334.1</ele>
        <time>2020-08-06T16:42:48Z</time>
      </trkpt>
      <trkpt lat="40.9917980" lon="0.3518590">
        <ele>334.2</ele>
        <time>2020-08-06T16:42:49Z</time>
      </trkpt>
      <trkpt lat="40.9917680" lon="0.3518410">
        <ele>334.4</ele>
        <time>2020-08-06T16:42:50Z</time>
      </trkpt>
      <trkpt lat="40.9917130" lon="0.3518100">
        <ele>334.5</ele>
        <time>2020-08-06T16:42:52Z</time>
      </trkpt>
      <trkpt lat="40.9916860" lon="0.3517940">
        <ele>334.6</ele>
        <time>2020-08-06T16:42:53Z</time>
      </trkpt>
      <trkpt lat="40.9916610" lon="0.3517810">
        <ele>334.7</ele>
        <time>2020-08-06T16:42:54Z</time>
      </trkpt>
      <trkpt lat="40.9916190" lon="0.3517680">
        <ele>334.8</ele>
        <time>2020-08-06T16:42:56Z</time>
      </trkpt>
      <trkpt lat="40.9915690" lon="0.3517430">
        <ele>334.9</ele>
        <time>2020-08-06T16:42:58Z</time>
      </trkpt>
      <trkpt lat="40.9915410" lon="0.3517180">
        <ele>335.0</ele>
        <time>2020-08-06T16:42:59Z</time>
      </trkpt>
      <trkpt lat="40.9914880" lon="0.3516860">
        <ele>335.2</ele>
        <time>2020-08-06T16:43:01Z</time>
      </trkpt>
      <trkpt lat="40.9914590" lon="0.3516820">
        <ele>335.3</ele>
        <time>2020-08-06T16:43:02Z</time>
      </trkpt>
      <trkpt lat="40.9914090" lon="0.3516710">
        <ele>335.4</ele>
        <time>2020-08-06T16:43:04Z</time>
      </trkpt>
      <trkpt lat="40.9913740" lon="0.3516600">
        <ele>335.5</ele>
        <time>2020-08-06T16:43:05Z</time>
      </trkpt>
      <trkpt lat="40.9913610" lon="0.3516570">
        <ele>335.6</ele>
        <time>2020-08-06T16:43:06Z</time>
      </trkpt>
      <trkpt lat="40.9913350" lon="0.3516490">
        <ele>335.6</ele>
        <time>2020-08-06T16:43:07Z</time>
      </trkpt>
      <trkpt lat="40.9912810" lon="0.3516320">
        <ele>335.8</ele>
        <time>2020-08-06T16:43:09Z</time>
      </trkpt>
      <trkpt lat="40.9912100" lon="0.3516210">
        <ele>336.0</ele>
        <time>2020-08-06T16:43:11Z</time>
      </trkpt>
      <trkpt lat="40.9911740" lon="0.3516200">
        <ele>336.1</ele>
        <time>2020-08-06T16:43:12Z</time>
      </trkpt>
      <trkpt lat="40.9911410" lon="0.3516190">
        <ele>336.2</ele>
        <time>2020-08-06T16:43:13Z</time>
      </trkpt>
      <trkpt lat="40.9911100" lon="0.3516170">
        <ele>336.3</ele>
        <time>2020-08-06T16:43:14Z</time>
      </trkpt>
      <trkpt lat="40.9910720" lon="0.3516140">
        <ele>336.4</ele>
        <time>2020-08-06T16:43:15Z</time>
      </trkpt>
      <trkpt lat="40.9910580" lon="0.3516120">
        <ele>336.5</ele>
        <time>2020-08-06T16:43:16Z</time>
      </trkpt>
      <trkpt lat="40.9910320" lon="0.3516010">
        <ele>336.5</ele>
        <time>2020-08-06T16:43:17Z</time>
      </trkpt>
      <trkpt lat="40.9909990" lon="0.3515750">
        <ele>336.6</ele>
        <time>2020-08-06T16:43:18Z</time>
      </trkpt>
      <trkpt lat="40.9909880" lon="0.3515660">
        <ele>336.7</ele>
        <time>2020-08-06T16:43:19Z</time>
      </trkpt>
      <trkpt lat="40.9909420" lon="0.3515330">
        <ele>336.8</ele>
        <time>2020-08-06T16:43:21Z</time>
      </trkpt>
      <trkpt lat="40.9908920" lon="0.3515060">
        <ele>337.0</ele>
        <time>2020-08-06T16:43:23Z</time>
      </trkpt>
      <trkpt lat="40.9908680" lon="0.3514940">
        <ele>337.0</ele>
        <time>2020-08-06T16:43:24Z</time>
      </trkpt>
      <trkpt lat="40.9908280" lon="0.3514770">
        <ele>337.2</ele>
        <time>2020-08-06T16:43:26Z</time>
      </trkpt>
      <trkpt lat="40.9908030" lon="0.3514740">
        <ele>337.2</ele>
        <time>2020-08-06T16:43:27Z</time>
      </trkpt>
      <trkpt lat="40.9907500" lon="0.3514670">
        <ele>337.4</ele>
        <time>2020-08-06T16:43:29Z</time>
      </trkpt>
      <trkpt lat="40.9907250" lon="0.3514640">
        <ele>337.5</ele>
        <time>2020-08-06T16:43:30Z</time>
      </trkpt>
      <trkpt lat="40.9906720" lon="0.3514500">
        <ele>337.7</ele>
        <time>2020-08-06T16:43:32Z</time>
      </trkpt>
      <trkpt lat="40.9906490" lon="0.3514430">
        <ele>337.7</ele>
        <time>2020-08-06T16:43:33Z</time>
      </trkpt>
      <trkpt lat="40.9906110" lon="0.3514220">
        <ele>337.9</ele>
        <time>2020-08-06T16:43:35Z</time>
      </trkpt>
      <trkpt lat="40.9905900" lon="0.3514100">
        <ele>338.0</ele>
        <time>2020-08-06T16:43:36Z</time>
      </trkpt>
      <trkpt lat="40.9905450" lon="0.3513850">
        <ele>338.1</ele>
        <time>2020-08-06T16:43:38Z</time>
      </trkpt>
      <trkpt lat="40.9905070" lon="0.3513570">
        <ele>338.3</ele>
        <time>2020-08-06T16:43:40Z</time>
      </trkpt>
      <trkpt lat="40.9904750" lon="0.3513370">
        <ele>338.4</ele>
        <time>2020-08-06T16:43:41Z</time>
      </trkpt>
      <trkpt lat="40.9904640" lon="0.3513320">
        <ele>338.4</ele>
        <time>2020-08-06T16:43:42Z</time>
      </trkpt>
      <trkpt lat="40.9904270" lon="0.3513220">
        <ele>338.6</ele>
        <time>2020-08-06T16:43:43Z</time>
      </trkpt>
      <trkpt lat="40.9904140" lon="0.3513200">
        <ele>338.6</ele>
        <time>2020-08-06T16:43:44Z</time>
      </trkpt>
      <trkpt lat="40.9903510" lon="0.3513150">
        <ele>338.8</ele>
        <time>2020-08-06T16:43:46Z</time>
      </trkpt>
      <trkpt lat="40.9903230" lon="0.3513120">
        <ele>338.9</ele>
        <time>2020-08-06T16:43:47Z</time>
      </trkpt>
      <trkpt lat="40.9902910" lon="0.3513080">
        <ele>339.0</ele>
        <time>2020-08-06T16:43:48Z</time>
      </trkpt>
      <trkpt lat="40.9902820" lon="0.3513080">
        <ele>339.0</ele>
        <time>2020-08-06T16:43:49Z</time>
      </trkpt>
      <trkpt lat="40.9902530" lon="0.3513140">
        <ele>339.0</ele>
        <time>2020-08-06T16:43:51Z</time>
      </trkpt>
      <trkpt lat="40.9902280" lon="0.3513220">
        <ele>339.1</ele>
        <time>2020-08-06T16:43:53Z</time>
      </trkpt>
      <trkpt lat="40.9858360" lon="0.3483300">
        <ele>348.4</ele>
        <time>2020-08-06T16:47:07Z</time>
      </trkpt>
      <trkpt lat="40.9858300" lon="0.3482770">
        <ele>348.5</ele>
        <time>2020-08-06T16:47:09Z</time>
      </trkpt>
      <trkpt lat="40.9858180" lon="0.3482420">
        <ele>348.6</ele>
        <time>2020-08-06T16:47:10Z</time>
      </trkpt>
      <trkpt lat="40.9857910" lon="0.3481990">
        <ele>348.7</ele>
        <time>2020-08-06T16:47:11Z</time>
      </trkpt>
      <trkpt lat="40.9857530" lon="0.3481310">
        <ele>348.8</ele>
        <time>2020-08-06T16:47:13Z</time>
      </trkpt>
      <trkpt lat="40.9857230" lon="0.3481060">
        <ele>348.9</ele>
        <time>2020-08-06T16:47:15Z</time>
      </trkpt>
      <trkpt lat="40.9857040" lon="0.3481040">
        <ele>348.9</ele>
        <time>2020-08-06T16:47:16Z</time>
      </trkpt>
      <trkpt lat="40.9856910" lon="0.3480980">
        <ele>348.9</ele>
        <time>2020-08-06T16:47:17Z</time>
      </trkpt>
      <trkpt lat="40.9856800" lon="0.3480790">
        <ele>348.9</ele>
        <time>2020-08-06T16:47:18Z</time>
      </trkpt>
      <trkpt lat="40.9856660" lon="0.3480410">
        <ele>349.0</ele>
        <time>2020-08-06T16:47:20Z</time>
      </trkpt>
      <trkpt lat="40.9856550" lon="0.3480050">
        <ele>349.0</ele>
        <time>2020-08-06T16:47:21Z</time>
      </trkpt>
      <trkpt lat="40.9856450" lon="0.3479550">
        <ele>349.0</ele>
        <time>2020-08-06T16:47:23Z</time>
      </trkpt>
      <trkpt lat="40.9856240" lon="0.3479060">
        <ele>349.1</ele>
        <time>2020-08-06T16:47:24Z</time>
      </trkpt>
      <trkpt lat="40.9855870" lon="0.3478400">
        <ele>349.1</ele>
        <time>2020-08-06T16:47:25Z</time>
      </trkpt>
      <trkpt lat="40.9855580" lon="0.3477900">
        <ele>349.2</ele>
        <time>2020-08-06T16:47:26Z</time>
      </trkpt>
      <trkpt lat="40.9855230" lon="0.3477300">
        <ele>349.2</ele>
        <time>2020-08-06T16:47:28Z</time>
      </trkpt>
      <trkpt lat="40.9854950" lon="0.3476780">
        <ele>349.3</ele>
        <time>2020-08-06T16:47:29Z</time>
      </trkpt>
      <trkpt lat="40.9854630" lon="0.3476150">
        <ele>349.4</ele>
        <time>2020-08-06T16:47:31Z</time>
      </trkpt>
      <trkpt lat="40.9854420" lon="0.3475710">
        <ele>349.4</ele>
        <time>2020-08-06T16:47:32Z</time>
      </trkpt>
      <trkpt lat="40.9854220" lon="0.3475250">
        <ele>349.5</ele>
        <time>2020-08-06T16:47:34Z</time>
      </trkpt>
      <trkpt lat="40.9854010" lon="0.3474830">
        <ele>349.5</ele>
        <time>2020-08-06T16:47:35Z</time>
      </trkpt>
      <trkpt lat="40.9853840" lon="0.3474560">
        <ele>349.6</ele>
        <time>2020-08-06T16:47:36Z</time>
      </trkpt>
      <trkpt lat="40.9853570" lon="0.3474150">
        <ele>349.6</ele>
        <time>2020-08-06T16:47:38Z</time>
      </trkpt>
      <trkpt lat="40.9853340" lon="0.3473760">
        <ele>349.7</ele>
        <time>2020-08-06T16:47:39Z</time>
      </trkpt>
      <trkpt lat="40.9853140" lon="0.3473480">
        <ele>349.7</ele>
        <time>2020-08-06T16:47:40Z</time>
      </trkpt>
      <trkpt lat="40.9852960" lon="0.3473180">
        <ele>349.8</ele>
        <time>2020-08-06T16:47:41Z</time>
      </trkpt>
      <trkpt lat="40.9852780" lon="0.3472880">
        <ele>349.8</ele>
        <time>2020-08-06T16:47:42Z</time>
      </trkpt>
      <trkpt lat="40.9852530" lon="0.3472420">
        <ele>349.9</ele>
        <time>2020-08-06T16:47:44Z</time>
      </trkpt>
      <trkpt lat="40.9852230" lon="0.3472050">
        <ele>349.9</ele>
        <time>2020-08-06T16:47:45Z</time>
      </trkpt>
      <trkpt lat="40.9852020" lon="0.3471740">
        <ele>349.9</ele>
        <time>2020-08-06T16:47:46Z</time>
      </trkpt>
      <trkpt lat="40.9851830" lon="0.3471460">
        <ele>350.0</ele>
        <time>2020-08-06T16:47:47Z</time>
      </trkpt>
      <trkpt lat="40.9851540" lon="0.3470910">
        <ele>350.0</ele>
        <time>2020-08-06T16:47:49Z</time>
      </trkpt>
      <trkpt lat="40.9851340" lon="0.3470650">
        <ele>350.1</ele>
        <time>2020-08-06T16:47:50Z</time>
      </trkpt>
      <trkpt lat="40.9851150" lon="0.3470340">
        <ele>350.1</ele>
        <time>2020-08-06T16:47:51Z</time>
      </trkpt>
      <trkpt lat="40.9850960" lon="0.3470070">
        <ele>350.1</ele>
        <time>2020-08-06T16:47:52Z</time>
      </trkpt>
      <trkpt lat="40.9850630" lon="0.3469590">
        <ele>350.2</ele>
        <time>2020-08-06T16:47:54Z</time>
      </trkpt>
      <trkpt lat="40.9850430" lon="0.3469290">
        <ele>350.2</ele>
        <time>2020-08-06T16:47:55Z</time>
      </trkpt>
      <trkpt lat="40.9850220" lon="0.3469020">
        <ele>350.2</ele>
        <time>2020-08-06T16:47:56Z</time>
      </trkpt>
      <trkpt lat="40.9850030" lon="0.3468710">
        <ele>350.3</ele>
        <time>2020-08-06T16:47:57Z</time>
      </trkpt>
      <trkpt lat="40.9849800" lon="0.3468290">
        <ele>350.3</ele>
        <time>2020-08-06T16:47:59Z</time>
      </trkpt>
      <trkpt lat="40.9849660" lon="0.3467990">
        <ele>350.3</ele>
        <time>2020-08-06T16:48:00Z</time>
      </trkpt>
      <trkpt lat="40.9849400" lon="0.3467630">
        <ele>350.4</ele>
        <time>2020-08-06T16:48:01Z</time>
      </trkpt>
      <trkpt lat="40.9849190" lon="0.3467170">
        <ele>350.5</ele>
        <time>2020-08-06T16:48:02Z</time>
      </trkpt>
      <trkpt lat="40.9849110" lon="0.3467030">
        <ele>350.5</ele>
        <time>2020-08-06T16:48:03Z</time>
      </trkpt>
      <trkpt lat="40.9848880" lon="0.3466590">
        <ele>350.6</ele>
        <time>2020-08-06T16:48:05Z</time>
      </trkpt>
      <trkpt lat="40.9848700" lon="0.3466240">
        <ele>350.6</ele>
        <time>2020-08-06T16:48:06Z</time>
      </trkpt>
      <trkpt lat="40.9848520" lon="0.3465920">
        <ele>350.7</ele>
        <time>2020-08-06T16:48:07Z</time>
      </trkpt>
      <trkpt lat="40.9848240" lon="0.3465450">
        <ele>350.7</ele>
        <time>2020-08-06T16:48:09Z</time>
      </trkpt>
      <trkpt lat="40.9847980" lon="0.3464990">
        <ele>350.8</ele>
        <time>2020-08-06T16:48:10Z</time>
      </trkpt>
      <trkpt lat="40.9847800" lon="0.3464680">
        <ele>350.8</ele>
        <time>2020-08-06T16:48:11Z</time>
      </trkpt>
      <trkpt lat="40.9847590" lon="0.3464380">
        <ele>350.9</ele>
        <time>2020-08-06T16:48:12Z</time>
      </trkpt>
      <trkpt lat="40.9847160" lon="0.3463810">
        <ele>351.0</ele>
        <time>2020-08-06T16:48:14Z</time>
      </trkpt>
      <trkpt lat="40.9846790" lon="0.3463320">
        <ele>351.1</ele>
        <time>2020-08-06T16:48:16Z</time>
      </trkpt>
      <trkpt lat="40.9846510" lon="0.3462930">
        <ele>351.1</ele>
        <time>2020-08-06T16:48:17Z</time>
      </trkpt>
      <trkpt lat="40.9846300" lon="0.3462640">
        <ele>351.2</ele>
        <time>2020-08-06T16:48:18Z</time>
      </trkpt>
      <trkpt lat="40.9845990" lon="0.3462270">
        <ele>351.2</ele>
        <time>2020-08-06T16:48:20Z</time>
      </trkpt>
      <trkpt lat="40.9845660" lon="0.3461880">
        <ele>351.3</ele>
        <time>2020-08-06T16:48:21Z</time>
      </trkpt>
      <trkpt lat="40.9845420" lon="0.3461620">
        <ele>351.4</ele>
        <time>2020-08-06T16:48:22Z</time>
      </trkpt>
      <trkpt lat="40.9845210" lon="0.3461380">
        <ele>351.4</ele>
        <time>2020-08-06T16:48:23Z</time>
      </trkpt>
      <trkpt lat="40.9844920" lon="0.3461020">
        <ele>351.5</ele>
        <time>2020-08-06T16:48:25Z</time>
      </trkpt>
      <trkpt lat="40.9844700" lon="0.3460740">
        <ele>351.5</ele>
        <time>2020-08-06T16:48:26Z</time>
      </trkpt>
      <trkpt lat="40.9844490" lon="0.3460430">
        <ele>351.6</ele>
        <time>2020-08-06T16:48:27Z</time>
      </trkpt>
      <trkpt lat="40.9844290" lon="0.3460110">
        <ele>351.6</ele>
        <time>2020-08-06T16:48:28Z</time>
      </trkpt>
      <trkpt lat="40.9844050" lon="0.3459780">
        <ele>351.6</ele>
        <time>2020-08-06T16:48:29Z</time>
      </trkpt>
      <trkpt lat="40.9843820" lon="0.3459460">
        <ele>351.7</ele>
        <time>2020-08-06T16:48:30Z</time>
      </trkpt>
      <trkpt lat="40.9843540" lon="0.3459100">
        <ele>351.7</ele>
        <time>2020-08-06T16:48:31Z</time>
      </trkpt>
      <trkpt lat="40.9843220" lon="0.3458670">
        <ele>351.8</ele>
        <time>2020-08-06T16:48:33Z</time>
      </trkpt>
      <trkpt lat="40.9842970" lon="0.3458320">
        <ele>351.8</ele>
        <time>2020-08-06T16:48:34Z</time>
      </trkpt>
      <trkpt lat="40.9842550" lon="0.3457800">
        <ele>351.9</ele>
        <time>2020-08-06T16:48:36Z</time>
      </trkpt>
      <trkpt lat="40.9842350" lon="0.3457540">
        <ele>351.9</ele>
        <time>2020-08-06T16:48:37Z</time>
      </trkpt>
      <trkpt lat="40.9842000" lon="0.3457090">
        <ele>352.0</ele>
        <time>2020-08-06T16:48:39Z</time>
      </trkpt>
      <trkpt lat="40.9841890" lon="0.3456940">
        <ele>352.0</ele>
        <time>2020-08-06T16:48:40Z</time>
      </trkpt>
      <trkpt lat="40.9841770" lon="0.3456800">
        <ele>352.0</ele>
        <time>2020-08-06T16:48:41Z</time>
      </trkpt>
      <trkpt lat="40.9841650" lon="0.3456650">
        <ele>352.0</ele>
        <time>2020-08-06T16:48:43Z</time>
      </trkpt>
      <trkpt lat="40.9841490" lon="0.3456520">
        <ele>352.1</ele>
        <time>2020-08-06T16:48:44Z</time>
      </trkpt>
      <trkpt lat="40.9841340" lon="0.3456440">
        <ele>352.1</ele>
        <time>2020-08-06T16:48:45Z</time>
      </trkpt>
      <trkpt lat="40.9841280" lon="0.3456390">
        <ele>352.1</ele>
        <time>2020-08-06T16:48:47Z</time>
      </trkpt>
      <trkpt lat="40.9841230" lon="0.3456340">
        <ele>352.1</ele>
        <time>2020-08-06T16:48:48Z</time>
      </trkpt>
      <trkpt lat="40.9841170" lon="0.3456290">
        <ele>352.1</ele>
        <time>2020-08-06T16:48:50Z</time>
      </trkpt>
      <trkpt lat="40.9841120" lon="0.3456240">
        <ele>352.1</ele>
        <time>2020-08-06T16:48:51Z</time>
      </trkpt>
      <trkpt lat="40.9841060" lon="0.3456190">
        <ele>352.1</ele>
        <time>2020-08-06T16:48:52Z</time>
      </trkpt>
      <trkpt lat="40.9841010" lon="0.3456150">
        <ele>352.1</ele>
        <time>2020-08-06T16:48:55Z</time>
      </trkpt>
      <trkpt lat="40.9840950" lon="0.3456100">
        <ele>352.1</ele>
        <time>2020-08-06T16:51:25Z</time>
      </trkpt>
      <trkpt lat="40.9840900" lon="0.3456050">
        <ele>352.1</ele>
        <time>2020-08-06T16:51:27Z</time>
      </trkpt>
      <trkpt lat="40.9840840" lon="0.3456000">
        <ele>352.1</ele>
        <time>2020-08-06T16:51:28Z</time>
      </trkpt>
      <trkpt lat="40.9840790" lon="0.3455950">
        <ele>352.1</ele>
        <time>2020-08-06T16:51:29Z</time>
      </trkpt>
      <trkpt lat="40.9840730" lon="0.3455900">
        <ele>352.2</ele>
        <time>2020-08-06T16:51:31Z</time>
      </trkpt>
      <trkpt lat="40.9840680" lon="0.3455850">
        <ele>352.2</ele>
        <time>2020-08-06T16:51:32Z</time>
      </trkpt>
      <trkpt lat="40.9840490" lon="0.3455620">
        <ele>352.2</ele>
        <time>2020-08-06T16:51:33Z</time>
      </trkpt>
      <trkpt lat="40.9840360" lon="0.3455440">
        <ele>352.2</ele>
        <time>2020-08-06T16:51:35Z</time>
      </trkpt>
      <trkpt lat="40.9840160" lon="0.3455130">
        <ele>352.2</ele>
        <time>2020-08-06T16:51:37Z</time>
      </trkpt>
      <trkpt lat="40.9840020" lon="0.3455030">
        <ele>352.3</ele>
        <time>2020-08-06T16:51:38Z</time>
      </trkpt>
      <trkpt lat="40.9839900" lon="0.3454890">
        <ele>352.3</ele>
        <time>2020-08-06T16:51:39Z</time>
      </trkpt>
      <trkpt lat="40.9839650" lon="0.3454620">
        <ele>352.3</ele>
        <time>2020-08-06T16:51:41Z</time>
      </trkpt>
      <trkpt lat="40.9839550" lon="0.3454550">
        <ele>352.3</ele>
        <time>2020-08-06T16:51:42Z</time>
      </trkpt>
      <trkpt lat="40.9839430" lon="0.3454380">
        <ele>352.4</ele>
        <time>2020-08-06T16:51:43Z</time>
      </trkpt>
      <trkpt lat="40.9839200" lon="0.3454110">
        <ele>352.4</ele>
        <time>2020-08-06T16:51:45Z</time>
      </trkpt>
      <trkpt lat="40.9839010" lon="0.3453930">
        <ele>352.4</ele>
        <time>2020-08-06T16:51:46Z</time>
      </trkpt>
      <trkpt lat="40.9838750" lon="0.3453630">
        <ele>352.4</ele>
        <time>2020-08-06T16:51:48Z</time>
      </trkpt>
      <trkpt lat="40.9838480" lon="0.3453250">
        <ele>352.5</ele>
        <time>2020-08-06T16:51:49Z</time>
      </trkpt>
      <trkpt lat="40.9838360" lon="0.3453100">
        <ele>352.5</ele>
        <time>2020-08-06T16:51:50Z</time>
      </trkpt>
      <trkpt lat="40.9838180" lon="0.3452820">
        <ele>352.6</ele>
        <time>2020-08-06T16:51:51Z</time>
      </trkpt>
      <trkpt lat="40.9837770" lon="0.3452320">
        <ele>352.7</ele>
        <time>2020-08-06T16:51:53Z</time>
      </trkpt>
      <trkpt lat="40.9837520" lon="0.3452030">
        <ele>352.8</ele>
        <time>2020-08-06T16:51:54Z</time>
      </trkpt>
      <trkpt lat="40.9837200" lon="0.3451730">
        <ele>352.9</ele>
        <time>2020-08-06T16:51:56Z</time>
      </trkpt>
      <trkpt lat="40.9837040" lon="0.3451510">
        <ele>352.9</ele>
        <time>2020-08-06T16:51:57Z</time>
      </trkpt>
      <trkpt lat="40.9836790" lon="0.3451310">
        <ele>353.0</ele>
        <time>2020-08-06T16:51:59Z</time>
      </trkpt>
      <trkpt lat="40.9836660" lon="0.3451180">
        <ele>353.1</ele>
        <time>2020-08-06T16:52:00Z</time>
      </trkpt>
      <trkpt lat="40.9836590" lon="0.3451090">
        <ele>353.1</ele>
        <time>2020-08-06T16:52:01Z</time>
      </trkpt>
      <trkpt lat="40.9836580" lon="0.3451030">
        <ele>353.1</ele>
        <time>2020-08-06T16:52:03Z</time>
      </trkpt>
      <trkpt lat="40.9836610" lon="0.3451000">
        <ele>353.1</ele>
        <time>2020-08-06T16:52:05Z</time>
      </trkpt>
      <trkpt lat="40.9836630" lon="0.3450990">
        <ele>353.1</ele>
        <time>2020-08-06T16:52:06Z</time>
      </trkpt>
      <trkpt lat="40.9836640" lon="0.3450990">
        <ele>353.1</ele>
        <time>2020-08-06T16:52:07Z</time>
      </trkpt>
      <trkpt lat="40.9836640" lon="0.3450980">
        <ele>353.1</ele>
        <time>2020-08-06T16:52:08Z</time>
      </trkpt>
      <trkpt lat="40.9836660" lon="0.3450980">
        <ele>353.1</ele>
        <time>2020-08-06T16:52:10Z</time>
      </trkpt>
      <trkpt lat="40.9836680" lon="0.3450980">
        <ele>353.1</ele>
        <time>2020-08-06T16:52:12Z</time>
      </trkpt>
      <trkpt lat="40.9836900" lon="0.3450870">
        <ele>353.2</ele>
        <time>2020-08-06T16:52:23Z</time>
      </trkpt>
      <trkpt lat="40.9836950" lon="0.3450790">
        <ele>353.2</ele>
        <time>2020-08-06T16:52:25Z</time>
      </trkpt>
      <trkpt lat="40.9836970" lon="0.3450740">
        <ele>353.2</ele>
        <time>2020-08-06T16:52:26Z</time>
      </trkpt>
      <trkpt lat="40.9836960" lon="0.3450700">
        <ele>353.2</ele>
        <time>2020-08-06T16:52:27Z</time>
      </trkpt>
      <trkpt lat="40.9836960" lon="0.3450720">
        <ele>353.2</ele>
        <time>2020-08-06T16:52:28Z</time>
      </trkpt>
      <trkpt lat="40.9836990" lon="0.3450790">
        <ele>353.2</ele>
        <time>2020-08-06T16:52:30Z</time>
      </trkpt>
      <trkpt lat="40.9837010" lon="0.3450820">
        <ele>353.2</ele>
        <time>2020-08-06T16:52:31Z</time>
      </trkpt>
      <trkpt lat="40.9837030" lon="0.3450860">
        <ele>353.2</ele>
        <time>2020-08-06T16:52:32Z</time>
      </trkpt>
      <trkpt lat="40.9837040" lon="0.3450880">
        <ele>353.2</ele>
        <time>2020-08-06T16:52:34Z</time>
      </trkpt>
      <trkpt lat="40.9837040" lon="0.3450880">
        <ele>353.2</ele>
        <time>2020-08-06T16:52:35Z</time>
      </trkpt>
      <trkpt lat="40.9837040" lon="0.3450880">
        <ele>353.2</ele>
        <time>2020-08-06T16:52:36Z</time>
      </trkpt>
      <trkpt lat="40.9837040" lon="0.3450880">
        <ele>353.2</ele>
        <time>2020-08-06T16:52:37Z</time>
      </trkpt>
      <trkpt lat="40.9837030" lon="0.3450890">
        <ele>353.2</ele>
        <time>2020-08-06T16:52:39Z</time>
      </trkpt>
      <trkpt lat="40.9837030" lon="0.3450890">
        <ele>353.2</ele>
        <time>2020-08-06T16:52:40Z</time>
      </trkpt>
      <trkpt lat="40.9837030" lon="0.3450890">
        <ele>353.2</ele>
        <time>2020-08-06T16:52:41Z</time>
      </trkpt>
      <trkpt lat="40.9837030" lon="0.3450890">
        <ele>353.2</ele>
        <time>2020-08-06T16:52:43Z</time>
      </trkpt>
      <trkpt lat="40.9836650" lon="0.3451140">
        <ele>353.3</ele>
        <time>2020-08-06T16:53:29Z</time>
      </trkpt>
      <trkpt lat="40.9836600" lon="0.3451090">
        <ele>353.4</ele>
        <time>2020-08-06T16:53:31Z</time>
      </trkpt>
      <trkpt lat="40.9836620" lon="0.3451060">
        <ele>353.4</ele>
        <time>2020-08-06T16:53:32Z</time>
      </trkpt>
      <trkpt lat="40.9836630" lon="0.3451020">
        <ele>353.4</ele>
        <time>2020-08-06T16:53:33Z</time>
      </trkpt>
      <trkpt lat="40.9836640" lon="0.3450990">
        <ele>353.4</ele>
        <time>2020-08-06T16:53:34Z</time>
      </trkpt>
      <trkpt lat="40.9836660" lon="0.3450920">
        <ele>353.4</ele>
        <time>2020-08-06T16:53:36Z</time>
      </trkpt>
      <trkpt lat="40.9836660" lon="0.3450860">
        <ele>353.4</ele>
        <time>2020-08-06T16:53:38Z</time>
      </trkpt>
      <trkpt lat="40.9836680" lon="0.3450830">
        <ele>353.4</ele>
        <time>2020-08-06T16:53:40Z</time>
      </trkpt>
      <trkpt lat="40.9836670" lon="0.3450820">
        <ele>353.4</ele>
        <time>2020-08-06T16:53:41Z</time>
      </trkpt>
      <trkpt lat="40.9836670" lon="0.3450820">
        <ele>353.4</ele>
        <time>2020-08-06T16:53:42Z</time>
      </trkpt>
      <trkpt lat="40.9836680" lon="0.3450810">
        <ele>353.4</ele>
        <time>2020-08-06T16:53:44Z</time>
      </trkpt>
      <trkpt lat="40.9836690" lon="0.3450820">
        <ele>353.4</ele>
        <time>2020-08-06T16:53:45Z</time>
      </trkpt>
      <trkpt lat="40.9836700" lon="0.3450830">
        <ele>353.4</ele>
        <time>2020-08-06T16:53:46Z</time>
      </trkpt>
      <trkpt lat="40.9836700" lon="0.3450840">
        <ele>353.4</ele>
        <time>2020-08-06T16:53:48Z</time>
      </trkpt>
      <trkpt lat="40.9836700" lon="0.3450840">
        <ele>353.4</ele>
        <time>2020-08-06T16:53:49Z</time>
      </trkpt>
      <trkpt lat="40.9836700" lon="0.3450830">
        <ele>353.4</ele>
        <time>2020-08-06T16:53:51Z</time>
      </trkpt>
      <trkpt lat="40.9836700" lon="0.3450820">
        <ele>353.4</ele>
        <time>2020-08-06T16:53:56Z</time>
      </trkpt>
      <trkpt lat="40.9836690" lon="0.3450800">
        <ele>353.4</ele>
        <time>2020-08-06T16:53:57Z</time>
      </trkpt>
      <trkpt lat="40.9836630" lon="0.3450740">
        <ele>353.4</ele>
        <time>2020-08-06T16:53:58Z</time>
      </trkpt>
      <trkpt lat="40.9836350" lon="0.3450430">
        <ele>353.5</ele>
        <time>2020-08-06T16:53:59Z</time>
      </trkpt>
      <trkpt lat="40.9836250" lon="0.3450330">
        <ele>353.5</ele>
        <time>2020-08-06T16:54:00Z</time>
      </trkpt>
      <trkpt lat="40.9835900" lon="0.3450040">
        <ele>353.6</ele>
        <time>2020-08-06T16:54:02Z</time>
      </trkpt>
      <trkpt lat="40.9835590" lon="0.3449810">
        <ele>353.7</ele>
        <time>2020-08-06T16:54:03Z</time>
      </trkpt>
      <trkpt lat="40.9835360" lon="0.3449630">
        <ele>353.7</ele>
        <time>2020-08-06T16:54:04Z</time>
      </trkpt>
      <trkpt lat="40.9835110" lon="0.3449450">
        <ele>353.8</ele>
        <time>2020-08-06T16:54:05Z</time>
      </trkpt>
      <trkpt lat="40.9834550" lon="0.3449060">
        <ele>353.9</ele>
        <time>2020-08-06T16:54:07Z</time>
      </trkpt>
      <trkpt lat="40.9833840" lon="0.3448560">
        <ele>354.1</ele>
        <time>2020-08-06T16:54:08Z</time>
      </trkpt>
      <trkpt lat="40.9833240" lon="0.3448180">
        <ele>354.2</ele>
        <time>2020-08-06T16:54:10Z</time>
      </trkpt>
      <trkpt lat="40.9832840" lon="0.3447950">
        <ele>354.3</ele>
        <time>2020-08-06T16:54:11Z</time>
      </trkpt>
      <trkpt lat="40.9832500" lon="0.3447820">
        <ele>354.3</ele>
        <time>2020-08-06T16:54:12Z</time>
      </trkpt>
      <trkpt lat="40.9832190" lon="0.3447730">
        <ele>354.3</ele>
        <time>2020-08-06T16:54:13Z</time>
      </trkpt>
      <trkpt lat="40.9832020" lon="0.3447680">
        <ele>354.4</ele>
        <time>2020-08-06T16:54:14Z</time>
      </trkpt>
      <trkpt lat="40.9832000" lon="0.3447700">
        <ele>354.4</ele>
        <time>2020-08-06T16:54:15Z</time>
      </trkpt>
      <trkpt lat="40.9832120" lon="0.3447740">
        <ele>354.4</ele>
        <time>2020-08-06T16:54:16Z</time>
      </trkpt>
      <trkpt lat="40.9832240" lon="0.3447760">
        <ele>354.4</ele>
        <time>2020-08-06T16:54:18Z</time>
      </trkpt>
      <trkpt lat="40.9832300" lon="0.3447760">
        <ele>354.4</ele>
        <time>2020-08-06T16:54:20Z</time>
      </trkpt>
      <trkpt lat="40.9832300" lon="0.3447760">
        <ele>354.4</ele>
        <time>2020-08-06T16:54:21Z</time>
      </trkpt>
      <trkpt lat="40.9832310" lon="0.3447740">
        <ele>354.4</ele>
        <time>2020-08-06T16:54:22Z</time>
      </trkpt>
      <trkpt lat="40.9832300" lon="0.3447740">
        <ele>354.4</ele>
        <time>2020-08-06T16:54:23Z</time>
      </trkpt>
      <trkpt lat="40.9832270" lon="0.3447720">
        <ele>354.4</ele>
        <time>2020-08-06T16:54:25Z</time>
      </trkpt>
      <trkpt lat="40.9831960" lon="0.3447500">
        <ele>354.4</ele>
        <time>2020-08-06T16:54:29Z</time>
      </trkpt>
      <trkpt lat="40.9831810" lon="0.3447370">
        <ele>354.5</ele>
        <time>2020-08-06T16:54:30Z</time>
      </trkpt>
      <trkpt lat="40.9831380" lon="0.3447050">
        <ele>354.5</ele>
        <time>2020-08-06T16:54:32Z</time>
      </trkpt>
      <trkpt lat="40.9831140" lon="0.3446900">
        <ele>354.5</ele>
        <time>2020-08-06T16:54:33Z</time>
      </trkpt>
      <trkpt lat="40.9830510" lon="0.3446560">
        <ele>354.6</ele>
        <time>2020-08-06T16:54:35Z</time>
      </trkpt>
      <trkpt lat="40.9830200" lon="0.3446420">
        <ele>354.6</ele>
        <time>2020-08-06T16:54:36Z</time>
      </trkpt>
      <trkpt lat="40.9829890" lon="0.3446270">
        <ele>354.7</ele>
        <time>2020-08-06T16:54:37Z</time>
      </trkpt>
      <trkpt lat="40.9829580" lon="0.3446150">
        <ele>354.8</ele>
        <time>2020-08-06T16:54:38Z</time>
      </trkpt>
      <trkpt lat="40.9829230" lon="0.3446010">
        <ele>354.9</ele>
        <time>2020-08-06T16:54:39Z</time>
      </trkpt>
      <trkpt lat="40.9828540" lon="0.3445800">
        <ele>355.1</ele>
        <time>2020-08-06T16:54:41Z</time>
      </trkpt>
      <trkpt lat="40.9828190" lon="0.3445680">
        <ele>355.2</ele>
        <time>2020-08-06T16:54:42Z</time>
      </trkpt>
      <trkpt lat="40.9827850" lon="0.3445560">
        <ele>355.3</ele>
        <time>2020-08-06T16:54:43Z</time>
      </trkpt>
      <trkpt lat="40.9827190" lon="0.3445330">
        <ele>355.6</ele>
        <time>2020-08-06T16:54:45Z</time>
      </trkpt>
      <trkpt lat="40.9826840" lon="0.3445210">
        <ele>355.7</ele>
        <time>2020-08-06T16:54:46Z</time>
      </trkpt>
      <trkpt lat="40.9826110" lon="0.3445000">
        <ele>355.9</ele>
        <time>2020-08-06T16:54:48Z</time>
      </trkpt>
      <trkpt lat="40.9825790" lon="0.3444930">
        <ele>356.0</ele>
        <time>2020-08-06T16:54:49Z</time>
      </trkpt>
      <trkpt lat="40.9825450" lon="0.3444850">
        <ele>356.1</ele>
        <time>2020-08-06T16:54:50Z</time>
      </trkpt>
      <trkpt lat="40.9825050" lon="0.3444780">
        <ele>356.2</ele>
        <time>2020-08-06T16:54:51Z</time>
      </trkpt>
      <trkpt lat="40.9824360" lon="0.3444730">
        <ele>356.4</ele>
        <time>2020-08-06T16:54:53Z</time>
      </trkpt>
      <trkpt lat="40.9824000" lon="0.3444750">
        <ele>356.5</ele>
        <time>2020-08-06T16:54:54Z</time>
      </trkpt>
      <trkpt lat="40.9823650" lon="0.3444770">
        <ele>356.6</ele>
        <time>2020-08-06T16:54:55Z</time>
      </trkpt>
      <trkpt lat="40.9822940" lon="0.3444720">
        <ele>356.9</ele>
        <time>2020-08-06T16:54:57Z</time>
      </trkpt>
      <trkpt lat="40.9822560" lon="0.3444700">
        <ele>357.0</ele>
        <time>2020-08-06T16:54:58Z</time>
      </trkpt>
      <trkpt lat="40.9821870" lon="0.3444640">
        <ele>357.2</ele>
        <time>2020-08-06T16:55:00Z</time>
      </trkpt>
      <trkpt lat="40.9821170" lon="0.3444560">
        <ele>357.5</ele>
        <time>2020-08-06T16:55:02Z</time>
      </trkpt>
      <trkpt lat="40.9820670" lon="0.3444530">
        <ele>357.6</ele>
        <time>2020-08-06T16:55:04Z</time>
      </trkpt>
      <trkpt lat="40.9820260" lon="0.3444500">
        <ele>357.8</ele>
        <time>2020-08-06T16:55:05Z</time>
      </trkpt>
      <trkpt lat="40.9819860" lon="0.3444480">
        <ele>357.9</ele>
        <time>2020-08-06T16:55:06Z</time>
      </trkpt>
      <trkpt lat="40.9819450" lon="0.3444420">
        <ele>358.0</ele>
        <time>2020-08-06T16:55:07Z</time>
      </trkpt>
      <trkpt lat="40.9818960" lon="0.3444500">
        <ele>358.2</ele>
        <time>2020-08-06T16:55:09Z</time>
      </trkpt>
      <trkpt lat="40.9818640" lon="0.3444600">
        <ele>358.3</ele>
        <time>2020-08-06T16:55:11Z</time>
      </trkpt>
      <trkpt lat="40.9818360" lon="0.3444710">
        <ele>358.4</ele>
        <time>2020-08-06T16:55:12Z</time>
      </trkpt>
      <trkpt lat="40.9818160" lon="0.3444770">
        <ele>358.5</ele>
        <time>2020-08-06T16:55:13Z</time>
      </trkpt>
      <trkpt lat="40.9817490" lon="0.3444800">
        <ele>358.8</ele>
        <time>2020-08-06T16:55:15Z</time>
      </trkpt>
      <trkpt lat="40.9816670" lon="0.3444770">
        <ele>359.2</ele>
        <time>2020-08-06T16:55:16Z</time>
      </trkpt>
      <trkpt lat="40.9816250" lon="0.3444800">
        <ele>359.3</ele>
        <time>2020-08-06T16:55:17Z</time>
      </trkpt>
      <trkpt lat="40.9815530" lon="0.3444940">
        <ele>359.6</ele>
        <time>2020-08-06T16:55:19Z</time>
      </trkpt>
      <trkpt lat="40.9815170" lon="0.3445040">
        <ele>359.7</ele>
        <time>2020-08-06T16:55:20Z</time>
      </trkpt>
      <trkpt lat="40.9814520" lon="0.3445220">
        <ele>359.9</ele>
        <time>2020-08-06T16:55:22Z</time>
      </trkpt>
      <trkpt lat="40.9814230" lon="0.3445320">
        <ele>360.0</ele>
        <time>2020-08-06T16:55:23Z</time>
      </trkpt>
      <trkpt lat="40.9813520" lon="0.3445690">
        <ele>360.2</ele>
        <time>2020-08-06T16:55:25Z</time>
      </trkpt>
      <trkpt lat="40.9812930" lon="0.3446020">
        <ele>360.3</ele>
        <time>2020-08-06T16:55:27Z</time>
      </trkpt>
      <trkpt lat="40.9812670" lon="0.3446160">
        <ele>360.4</ele>
        <time>2020-08-06T16:55:28Z</time>
      </trkpt>
      <trkpt lat="40.9812380" lon="0.3446340">
        <ele>360.4</ele>
        <time>2020-08-06T16:55:29Z</time>
      </trkpt>
      <trkpt lat="40.9811910" lon="0.3446640">
        <ele>360.6</ele>
        <time>2020-08-06T16:55:31Z</time>
      </trkpt>
      <trkpt lat="40.9811670" lon="0.3446790">
        <ele>360.6</ele>
        <time>2020-08-06T16:55:32Z</time>
      </trkpt>
      <trkpt lat="40.9811350" lon="0.3446970">
        <ele>360.7</ele>
        <time>2020-08-06T16:55:33Z</time>
      </trkpt>
      <trkpt lat="40.9810850" lon="0.3447320">
        <ele>360.8</ele>
        <time>2020-08-06T16:55:35Z</time>
      </trkpt>
      <trkpt lat="40.9810610" lon="0.3447500">
        <ele>360.9</ele>
        <time>2020-08-06T16:55:36Z</time>
      </trkpt>
      <trkpt lat="40.9810370" lon="0.3447670">
        <ele>360.9</ele>
        <time>2020-08-06T16:55:37Z</time>
      </trkpt>
      <trkpt lat="40.9809920" lon="0.3447940">
        <ele>361.0</ele>
        <time>2020-08-06T16:55:39Z</time>
      </trkpt>
      <trkpt lat="40.9809670" lon="0.3448050">
        <ele>361.1</ele>
        <time>2020-08-06T16:55:40Z</time>
      </trkpt>
      <trkpt lat="40.9809190" lon="0.3448290">
        <ele>361.2</ele>
        <time>2020-08-06T16:55:42Z</time>
      </trkpt>
      <trkpt lat="40.9809000" lon="0.3448380">
        <ele>361.2</ele>
        <time>2020-08-06T16:55:43Z</time>
      </trkpt>
      <trkpt lat="40.9808430" lon="0.3448710">
        <ele>361.4</ele>
        <time>2020-08-06T16:55:45Z</time>
      </trkpt>
      <trkpt lat="40.9808130" lon="0.3448910">
        <ele>361.4</ele>
        <time>2020-08-06T16:55:46Z</time>
      </trkpt>
      <trkpt lat="40.9807540" lon="0.3449340">
        <ele>361.6</ele>
        <time>2020-08-06T16:55:48Z</time>
      </trkpt>
      <trkpt lat="40.9807030" lon="0.3449740">
        <ele>361.7</ele>
        <time>2020-08-06T16:55:50Z</time>
      </trkpt>
      <trkpt lat="40.9806860" lon="0.3449860">
        <ele>361.7</ele>
        <time>2020-08-06T16:55:51Z</time>
      </trkpt>
      <trkpt lat="40.9806530" lon="0.3450130">
        <ele>361.8</ele>
        <time>2020-08-06T16:55:53Z</time>
      </trkpt>
      <trkpt lat="40.9806260" lon="0.3450310">
        <ele>361.9</ele>
        <time>2020-08-06T16:55:54Z</time>
      </trkpt>
      <trkpt lat="40.9805760" lon="0.3450630">
        <ele>362.1</ele>
        <time>2020-08-06T16:55:56Z</time>
      </trkpt>
      <trkpt lat="40.9805440" lon="0.3450830">
        <ele>362.2</ele>
        <time>2020-08-06T16:55:57Z</time>
      </trkpt>
      <trkpt lat="40.9805320" lon="0.3450900">
        <ele>362.2</ele>
        <time>2020-08-06T16:55:58Z</time>
      </trkpt>
      <trkpt lat="40.9804720" lon="0.3451290">
        <ele>362.4</ele>
        <time>2020-08-06T16:56:00Z</time>
      </trkpt>
      <trkpt lat="40.9804420" lon="0.3451500">
        <ele>362.5</ele>
        <time>2020-08-06T16:56:01Z</time>
      </trkpt>
      <trkpt lat="40.9803810" lon="0.3451900">
        <ele>362.7</ele>
        <time>2020-08-06T16:56:03Z</time>
      </trkpt>
      <trkpt lat="40.9803500" lon="0.3452090">
        <ele>362.8</ele>
        <time>2020-08-06T16:56:04Z</time>
      </trkpt>
      <trkpt lat="40.9803210" lon="0.3452290">
        <ele>362.9</ele>
        <time>2020-08-06T16:56:05Z</time>
      </trkpt>
      <trkpt lat="40.9802730" lon="0.3452640">
        <ele>363.0</ele>
        <time>2020-08-06T16:56:07Z</time>
      </trkpt>
      <trkpt lat="40.9802430" lon="0.3452850">
        <ele>363.1</ele>
        <time>2020-08-06T16:56:08Z</time>
      </trkpt>
      <trkpt lat="40.9802110" lon="0.3453060">
        <ele>363.2</ele>
        <time>2020-08-06T16:56:09Z</time>
      </trkpt>
      <trkpt lat="40.9801450" lon="0.3453500">
        <ele>363.5</ele>
        <time>2020-08-06T16:56:11Z</time>
      </trkpt>
      <trkpt lat="40.9800800" lon="0.3453920">
        <ele>363.7</ele>
        <time>2020-08-06T16:56:13Z</time>
      </trkpt>
      <trkpt lat="40.9800520" lon="0.3454120">
        <ele>363.8</ele>
        <time>2020-08-06T16:56:14Z</time>
      </trkpt>
      <trkpt lat="40.9800780" lon="0.3453920">
        <ele>363.9</ele>
        <time>2020-08-06T16:56:15Z</time>
      </trkpt>
      <trkpt lat="40.9801070" lon="0.3453700">
        <ele>364.0</ele>
        <time>2020-08-06T16:56:16Z</time>
      </trkpt>
      <trkpt lat="40.9801350" lon="0.3453480">
        <ele>364.1</ele>
        <time>2020-08-06T16:56:18Z</time>
      </trkpt>
      <trkpt lat="40.9801420" lon="0.3453420">
        <ele>364.2</ele>
        <time>2020-08-06T16:56:19Z</time>
      </trkpt>
      <trkpt lat="40.9801370" lon="0.3453440">
        <ele>364.2</ele>
        <time>2020-08-06T16:56:20Z</time>
      </trkpt>
      <trkpt lat="40.9801260" lon="0.3453510">
        <ele>364.2</ele>
        <time>2020-08-06T16:56:21Z</time>
      </trkpt>
      <trkpt lat="40.9801160" lon="0.3453580">
        <ele>364.3</ele>
        <time>2020-08-06T16:56:22Z</time>
      </trkpt>
      <trkpt lat="40.9801050" lon="0.3453640">
        <ele>364.3</ele>
        <time>2020-08-06T16:56:23Z</time>
      </trkpt>
      <trkpt lat="40.9800950" lon="0.3453710">
        <ele>364.3</ele>
        <time>2020-08-06T16:56:25Z</time>
      </trkpt>
      <trkpt lat="40.9800840" lon="0.3453780">
        <ele>364.4</ele>
        <time>2020-08-06T16:56:26Z</time>
      </trkpt>
      <trkpt lat="40.9800740" lon="0.3453850">
        <ele>364.4</ele>
        <time>2020-08-06T16:56:27Z</time>
      </trkpt>
      <trkpt lat="40.9800430" lon="0.3453830">
        <ele>364.5</ele>
        <time>2020-08-06T16:56:29Z</time>
      </trkpt>
      <trkpt lat="40.9800320" lon="0.3453820">
        <ele>364.6</ele>
        <time>2020-08-06T16:56:30Z</time>
      </trkpt>
      <trkpt lat="40.9800150" lon="0.3453890">
        <ele>364.6</ele>
        <time>2020-08-06T16:56:32Z</time>
      </trkpt>
      <trkpt lat="40.9800070" lon="0.3453970">
        <ele>364.7</ele>
        <time>2020-08-06T16:56:33Z</time>
      </trkpt>
      <trkpt lat="40.9799980" lon="0.3454050">
        <ele>364.7</ele>
        <time>2020-08-06T16:56:34Z</time>
      </trkpt>
      <trkpt lat="40.9770030" lon="0.3455670">
        <ele>369.4</ele>
        <time>2020-08-06T17:01:43Z</time>
      </trkpt>
      <trkpt lat="40.9769800" lon="0.3455500">
        <ele>369.4</ele>
        <time>2020-08-06T17:01:44Z</time>
      </trkpt>
      <trkpt lat="40.9769200" lon="0.3455050">
        <ele>369.7</ele>
        <time>2020-08-06T17:01:46Z</time>
      </trkpt>
      <trkpt lat="40.9768600" lon="0.3454660">
        <ele>370.0</ele>
        <time>2020-08-06T17:01:48Z</time>
      </trkpt>
      <trkpt lat="40.9768310" lon="0.3454700">
        <ele>370.2</ele>
        <time>2020-08-06T17:01:50Z</time>
      </trkpt>
      <trkpt lat="40.9768100" lon="0.3454750">
        <ele>370.3</ele>
        <time>2020-08-06T17:01:51Z</time>
      </trkpt>
      <trkpt lat="40.9767850" lon="0.3454460">
        <ele>370.4</ele>
        <time>2020-08-06T17:01:53Z</time>
      </trkpt>
      <trkpt lat="40.9767610" lon="0.3454110">
        <ele>370.5</ele>
        <time>2020-08-06T17:01:54Z</time>
      </trkpt>
      <trkpt lat="40.9767530" lon="0.3454010">
        <ele>370.5</ele>
        <time>2020-08-06T17:01:55Z</time>
      </trkpt>
      <trkpt lat="40.9767160" lon="0.3453700">
        <ele>370.6</ele>
        <time>2020-08-06T17:01:57Z</time>
      </trkpt>
      <trkpt lat="40.9767030" lon="0.3453590">
        <ele>370.7</ele>
        <time>2020-08-06T17:01:58Z</time>
      </trkpt>
      <trkpt lat="40.9766890" lon="0.3453490">
        <ele>370.7</ele>
        <time>2020-08-06T17:01:59Z</time>
      </trkpt>
      <trkpt lat="40.9766470" lon="0.3453070">
        <ele>370.8</ele>
        <time>2020-08-06T17:02:00Z</time>
      </trkpt>
      <trkpt lat="40.9766090" lon="0.3452680">
        <ele>371.0</ele>
        <time>2020-08-06T17:02:01Z</time>
      </trkpt>
      <trkpt lat="40.9765750" lon="0.3452350">
        <ele>371.0</ele>
        <time>2020-08-06T17:02:02Z</time>
      </trkpt>
      <trkpt lat="40.9765500" lon="0.3452170">
        <ele>371.1</ele>
        <time>2020-08-06T17:02:03Z</time>
      </trkpt>
      <trkpt lat="40.9765120" lon="0.3451850">
        <ele>371.2</ele>
        <time>2020-08-06T17:02:05Z</time>
      </trkpt>
      <trkpt lat="40.9764850" lon="0.3451640">
        <ele>371.2</ele>
        <time>2020-08-06T17:02:06Z</time>
      </trkpt>
      <trkpt lat="40.9764530" lon="0.3451300">
        <ele>371.3</ele>
        <time>2020-08-06T17:02:07Z</time>
      </trkpt>
      <trkpt lat="40.9764420" lon="0.3451190">
        <ele>371.3</ele>
        <time>2020-08-06T17:02:08Z</time>
      </trkpt>
      <trkpt lat="40.9763990" lon="0.3450890">
        <ele>371.4</ele>
        <time>2020-08-06T17:02:10Z</time>
      </trkpt>
      <trkpt lat="40.9763730" lon="0.3450680">
        <ele>371.4</ele>
        <time>2020-08-06T17:02:11Z</time>
      </trkpt>
      <trkpt lat="40.9763510" lon="0.3450420">
        <ele>371.5</ele>
        <time>2020-08-06T17:02:12Z</time>
      </trkpt>
      <trkpt lat="40.9763280" lon="0.3450210">
        <ele>371.5</ele>
        <time>2020-08-06T17:02:13Z</time>
      </trkpt>
      <trkpt lat="40.9762980" lon="0.3449920">
        <ele>371.6</ele>
        <time>2020-08-06T17:02:15Z</time>
      </trkpt>
      <trkpt lat="40.9762730" lon="0.3449720">
        <ele>371.7</ele>
        <time>2020-08-06T17:02:16Z</time>
      </trkpt>
      <trkpt lat="40.9762380" lon="0.3449480">
        <ele>371.7</ele>
        <time>2020-08-06T17:02:17Z</time>
      </trkpt>
      <trkpt lat="40.9761910" lon="0.3449150">
        <ele>371.9</ele>
        <time>2020-08-06T17:02:19Z</time>
      </trkpt>
      <trkpt lat="40.9761680" lon="0.3448950">
        <ele>371.9</ele>
        <time>2020-08-06T17:02:20Z</time>
      </trkpt>
      <trkpt lat="40.9761320" lon="0.3448660">
        <ele>372.1</ele>
        <time>2020-08-06T17:02:22Z</time>
      </trkpt>
      <trkpt lat="40.9761040" lon="0.3448400">
        <ele>372.2</ele>
        <time>2020-08-06T17:02:23Z</time>
      </trkpt>
      <trkpt lat="40.9760850" lon="0.3448190">
        <ele>372.2</ele>
        <time>2020-08-06T17:02:24Z</time>
      </trkpt>
      <trkpt lat="40.9760670" lon="0.3448010">
        <ele>372.3</ele>
        <time>2020-08-06T17:02:26Z</time>
      </trkpt>
      <trkpt lat="40.9760430" lon="0.3447790">
        <ele>372.4</ele>
        <time>2020-08-06T17:02:27Z</time>
      </trkpt>
      <trkpt lat="40.9760130" lon="0.3447490">
        <ele>372.5</ele>
        <time>2020-08-06T17:02:29Z</time>
      </trkpt>
      <trkpt lat="40.9759780" lon="0.3447300">
        <ele>372.6</ele>
        <time>2020-08-06T17:02:30Z</time>
      </trkpt>
      <trkpt lat="40.9759400" lon="0.3447000">
        <ele>372.7</ele>
        <time>2020-08-06T17:02:32Z</time>
      </trkpt>
      <trkpt lat="40.9759040" lon="0.3446790">
        <ele>372.8</ele>
        <time>2020-08-06T17:02:33Z</time>
      </trkpt>
      <trkpt lat="40.9758820" lon="0.3446620">
        <ele>372.9</ele>
        <time>2020-08-06T17:02:34Z</time>
      </trkpt>
      <trkpt lat="40.9758450" lon="0.3446380">
        <ele>373.0</ele>
        <time>2020-08-06T17:02:36Z</time>
      </trkpt>
      <trkpt lat="40.9758090" lon="0.3446160">
        <ele>373.1</ele>
        <time>2020-08-06T17:02:37Z</time>
      </trkpt>
      <trkpt lat="40.9757970" lon="0.3446070">
        <ele>373.2</ele>
        <time>2020-08-06T17:02:38Z</time>
      </trkpt>
      <trkpt lat="40.9757660" lon="0.3445800">
        <ele>373.3</ele>
        <time>2020-08-06T17:02:39Z</time>
      </trkpt>
      <trkpt lat="40.9757570" lon="0.3445720">
        <ele>373.3</ele>
        <time>2020-08-06T17:02:40Z</time>
      </trkpt>
      <trkpt lat="40.9757410" lon="0.3445580">
        <ele>373.3</ele>
        <time>2020-08-06T17:02:41Z</time>
      </trkpt>
      <trkpt lat="40.9757070" lon="0.3445370">
        <ele>373.5</ele>
        <time>2020-08-06T17:02:43Z</time>
      </trkpt>
      <trkpt lat="40.9756820" lon="0.3445230">
        <ele>373.6</ele>
        <time>2020-08-06T17:02:45Z</time>
      </trkpt>
      <trkpt lat="40.9756520" lon="0.3445080">
        <ele>373.7</ele>
        <time>2020-08-06T17:02:46Z</time>
      </trkpt>
      <trkpt lat="40.9756340" lon="0.3445000">
        <ele>373.7</ele>
        <time>2020-08-06T17:02:47Z</time>
      </trkpt>
      <trkpt lat="40.9756080" lon="0.3444870">
        <ele>373.8</ele>
        <time>2020-08-06T17:02:49Z</time>
      </trkpt>
      <trkpt lat="40.9755690" lon="0.3444680">
        <ele>374.0</ele>
        <time>2020-08-06T17:02:50Z</time>
      </trkpt>
      <trkpt lat="40.9755550" lon="0.3444620">
        <ele>374.0</ele>
        <time>2020-08-06T17:02:51Z</time>
      </trkpt>
      <trkpt lat="40.9755040" lon="0.3444360">
        <ele>374.2</ele>
        <time>2020-08-06T17:02:53Z</time>
      </trkpt>
      <trkpt lat="40.9754840" lon="0.3444260">
        <ele>374.2</ele>
        <time>2020-08-06T17:02:54Z</time>
      </trkpt>
      <trkpt lat="40.9754650" lon="0.3444160">
        <ele>374.3</ele>
        <time>2020-08-06T17:02:55Z</time>
      </trkpt>
      <trkpt lat="40.9754140" lon="0.3443780">
        <ele>374.4</ele>
        <time>2020-08-06T17:02:56Z</time>
      </trkpt>
      <trkpt lat="40.9753320" lon="0.3443170">
        <ele>374.6</ele>
        <time>2020-08-06T17:02:58Z</time>
      </trkpt>
      <trkpt lat="40.9752780" lon="0.3442820">
        <ele>374.8</ele>
        <time>2020-08-06T17:03:00Z</time>
      </trkpt>
      <trkpt lat="40.9752380" lon="0.3442610">
        <ele>374.9</ele>
        <time>2020-08-06T17:03:01Z</time>
      </trkpt>
      <trkpt lat="40.9752090" lon="0.3442500">
        <ele>375.0</ele>
        <time>2020-08-06T17:03:02Z</time>
      </trkpt>
      <trkpt lat="40.9751810" lon="0.3442440">
        <ele>375.1</ele>
        <time>2020-08-06T17:03:03Z</time>
      </trkpt>
      <trkpt lat="40.9751560" lon="0.3442380">
        <ele>375.2</ele>
        <time>2020-08-06T17:03:04Z</time>
      </trkpt>
      <trkpt lat="40.9751100" lon="0.3442270">
        <ele>375.3</ele>
        <time>2020-08-06T17:03:06Z</time>
      </trkpt>
      <trkpt lat="40.9750780" lon="0.3442170">
        <ele>375.4</ele>
        <time>2020-08-06T17:03:07Z</time>
      </trkpt>
      <trkpt lat="40.9750500" lon="0.3442070">
        <ele>375.5</ele>
        <time>2020-08-06T17:03:08Z</time>
      </trkpt>
      <trkpt lat="40.9750210" lon="0.3441990">
        <ele>375.6</ele>
        <time>2020-08-06T17:03:09Z</time>
      </trkpt>
      <trkpt lat="40.9749940" lon="0.3441940">
        <ele>375.6</ele>
        <time>2020-08-06T17:03:10Z</time>
      </trkpt>
      <trkpt lat="40.9749660" lon="0.3441910">
        <ele>375.7</ele>
        <time>2020-08-06T17:03:11Z</time>
      </trkpt>
      <trkpt lat="40.9749320" lon="0.3441860">
        <ele>375.8</ele>
        <time>2020-08-06T17:03:13Z</time>
      </trkpt>
      <trkpt lat="40.9748940" lon="0.3441770">
        <ele>375.9</ele>
        <time>2020-08-06T17:03:14Z</time>
      </trkpt>
      <trkpt lat="40.9748520" lon="0.3441680">
        <ele>375.9</ele>
        <time>2020-08-06T17:03:16Z</time>
      </trkpt>
      <trkpt lat="40.9748190" lon="0.3441640">
        <ele>376.0</ele>
        <time>2020-08-06T17:03:17Z</time>
      </trkpt>
      <trkpt lat="40.9747790" lon="0.3441630">
        <ele>376.1</ele>
        <time>2020-08-06T17:03:18Z</time>
      </trkpt>
      <trkpt lat="40.9747520" lon="0.3441660">
        <ele>376.1</ele>
        <time>2020-08-06T17:03:19Z</time>
      </trkpt>
      <trkpt lat="40.9747000" lon="0.3441700">
        <ele>376.2</ele>
        <time>2020-08-06T17:03:21Z</time>
      </trkpt>
      <trkpt lat="40.9746620" lon="0.3441690">
        <ele>376.3</ele>
        <time>2020-08-06T17:03:22Z</time>
      </trkpt>
      <trkpt lat="40.9746020" lon="0.3441680">
        <ele>376.4</ele>
        <time>2020-08-06T17:03:24Z</time>
      </trkpt>
      <trkpt lat="40.9745440" lon="0.3441660">
        <ele>376.5</ele>
        <time>2020-08-06T17:03:26Z</time>
      </trkpt>
      <trkpt lat="40.9745110" lon="0.3441640">
        <ele>376.6</ele>
        <time>2020-08-06T17:03:27Z</time>
      </trkpt>
      <trkpt lat="40.9744790" lon="0.3441700">
        <ele>376.6</ele>
        <time>2020-08-06T17:03:28Z</time>
      </trkpt>
      <trkpt lat="40.9744250" lon="0.3441770">
        <ele>376.8</ele>
        <time>2020-08-06T17:03:30Z</time>
      </trkpt>
      <trkpt lat="40.9743970" lon="0.3441840">
        <ele>376.9</ele>
        <time>2020-08-06T17:03:31Z</time>
      </trkpt>
      <trkpt lat="40.9743550" lon="0.3441910">
        <ele>377.0</ele>
        <time>2020-08-06T17:03:33Z</time>
      </trkpt>
      <trkpt lat="40.9743190" lon="0.3441980">
        <ele>377.1</ele>
        <time>2020-08-06T17:03:34Z</time>
      </trkpt>
      <trkpt lat="40.9742860" lon="0.3442100">
        <ele>377.2</ele>
        <time>2020-08-06T17:03:35Z</time>
      </trkpt>
      <trkpt lat="40.9742560" lon="0.3442160">
        <ele>377.2</ele>
        <time>2020-08-06T17:03:36Z</time>
      </trkpt>
      <trkpt lat="40.9742220" lon="0.3442240">
        <ele>377.3</ele>
        <time>2020-08-06T17:03:37Z</time>
      </trkpt>
      <trkpt lat="40.9741930" lon="0.3442280">
        <ele>377.4</ele>
        <time>2020-08-06T17:03:38Z</time>
      </trkpt>
      <trkpt lat="40.9741620" lon="0.3442340">
        <ele>377.5</ele>
        <time>2020-08-06T17:03:39Z</time>
      </trkpt>
      <trkpt lat="40.9741030" lon="0.3442470">
        <ele>377.6</ele>
        <time>2020-08-06T17:03:41Z</time>
      </trkpt>
      <trkpt lat="40.9740700" lon="0.3442540">
        <ele>377.7</ele>
        <time>2020-08-06T17:03:42Z</time>
      </trkpt>
      <trkpt lat="40.9740390" lon="0.3442630">
        <ele>377.8</ele>
        <time>2020-08-06T17:03:43Z</time>
      </trkpt>
      <trkpt lat="40.9739830" lon="0.3442850">
        <ele>377.9</ele>
        <time>2020-08-06T17:03:45Z</time>
      </trkpt>
      <trkpt lat="40.9739390" lon="0.3442960">
        <ele>378.0</ele>
        <time>2020-08-06T17:03:46Z</time>
      </trkpt>
      <trkpt lat="40.9738750" lon="0.3443200">
        <ele>378.1</ele>
        <time>2020-08-06T17:03:48Z</time>
      </trkpt>
      <trkpt lat="40.9738230" lon="0.3443440">
        <ele>378.2</ele>
        <time>2020-08-06T17:03:50Z</time>
      </trkpt>
      <trkpt lat="40.9737860" lon="0.3443570">
        <ele>378.3</ele>
        <time>2020-08-06T17:03:51Z</time>
      </trkpt>
      <trkpt lat="40.9737430" lon="0.3443690">
        <ele>378.4</ele>
        <time>2020-08-06T17:03:52Z</time>
      </trkpt>
      <trkpt lat="40.9736740" lon="0.3443930">
        <ele>378.5</ele>
        <time>2020-08-06T17:03:54Z</time>
      </trkpt>
      <trkpt lat="40.9736250" lon="0.3444050">
        <ele>378.6</ele>
        <time>2020-08-06T17:03:56Z</time>
      </trkpt>
      <trkpt lat="40.9735910" lon="0.3444170">
        <ele>378.7</ele>
        <time>2020-08-06T17:03:57Z</time>
      </trkpt>
      <trkpt lat="40.9735660" lon="0.3444260">
        <ele>378.7</ele>
        <time>2020-08-06T17:03:58Z</time>
      </trkpt>
      <trkpt lat="40.9735370" lon="0.3444370">
        <ele>378.8</ele>
        <time>2020-08-06T17:04:00Z</time>
      </trkpt>
      <trkpt lat="40.9735070" lon="0.3444500">
        <ele>378.9</ele>
        <time>2020-08-06T17:04:01Z</time>
      </trkpt>
      <trkpt lat="40.9734980" lon="0.3444540">
        <ele>378.9</ele>
        <time>2020-08-06T17:04:02Z</time>
      </trkpt>
      <trkpt lat="40.9734660" lon="0.3444690">
        <ele>379.0</ele>
        <time>2020-08-06T17:04:03Z</time>
      </trkpt>
      <trkpt lat="40.9734550" lon="0.3444730">
        <ele>379.0</ele>
        <time>2020-08-06T17:04:04Z</time>
      </trkpt>
      <trkpt lat="40.9734240" lon="0.3444830">
        <ele>379.0</ele>
        <time>2020-08-06T17:04:06Z</time>
      </trkpt>
      <trkpt lat="40.9733930" lon="0.3444940">
        <ele>379.1</ele>
        <time>2020-08-06T17:04:07Z</time>
      </trkpt>
      <trkpt lat="40.9733570" lon="0.3445080">
        <ele>379.2</ele>
        <time>2020-08-06T17:04:08Z</time>
      </trkpt>
      <trkpt lat="40.9733430" lon="0.3445130">
        <ele>379.2</ele>
        <time>2020-08-06T17:04:09Z</time>
      </trkpt>
      <trkpt lat="40.9733040" lon="0.3445240">
        <ele>379.3</ele>
        <time>2020-08-06T17:04:11Z</time>
      </trkpt>
      <trkpt lat="40.9732720" lon="0.3445340">
        <ele>379.4</ele>
        <time>2020-08-06T17:04:12Z</time>
      </trkpt>
      <trkpt lat="40.9732350" lon="0.3445420">
        <ele>379.5</ele>
        <time>2020-08-06T17:04:14Z</time>
      </trkpt>
      <trkpt lat="40.9731990" lon="0.3445530">
        <ele>379.6</ele>
        <time>2020-08-06T17:04:15Z</time>
      </trkpt>
      <trkpt lat="40.9731720" lon="0.3445620">
        <ele>379.6</ele>
        <time>2020-08-06T17:04:16Z</time>
      </trkpt>
      <trkpt lat="40.9731360" lon="0.3445750">
        <ele>379.7</ele>
        <time>2020-08-06T17:04:18Z</time>
      </trkpt>
      <trkpt lat="40.9731060" lon="0.3445870">
        <ele>379.8</ele>
        <time>2020-08-06T17:04:19Z</time>
      </trkpt>
      <trkpt lat="40.9730780" lon="0.3445990">
        <ele>379.8</ele>
        <time>2020-08-06T17:04:20Z</time>
      </trkpt>
      <trkpt lat="40.9730390" lon="0.3446140">
        <ele>379.9</ele>
        <time>2020-08-06T17:04:22Z</time>
      </trkpt>
      <trkpt lat="40.9730060" lon="0.3446240">
        <ele>380.0</ele>
        <time>2020-08-06T17:04:23Z</time>
      </trkpt>
      <trkpt lat="40.9729690" lon="0.3446350">
        <ele>380.1</ele>
        <time>2020-08-06T17:04:24Z</time>
      </trkpt>
      <trkpt lat="40.9729350" lon="0.3446480">
        <ele>380.2</ele>
        <time>2020-08-06T17:04:26Z</time>
      </trkpt>
      <trkpt lat="40.9729010" lon="0.3446610">
        <ele>380.3</ele>
        <time>2020-08-06T17:04:27Z</time>
      </trkpt>
      <trkpt lat="40.9728710" lon="0.3446700">
        <ele>380.4</ele>
        <time>2020-08-06T17:04:28Z</time>
      </trkpt>
      <trkpt lat="40.9728280" lon="0.3446820">
        <ele>380.5</ele>
        <time>2020-08-06T17:04:30Z</time>
      </trkpt>
      <trkpt lat="40.9727920" lon="0.3446910">
        <ele>380.5</ele>
        <time>2020-08-06T17:04:31Z</time>
      </trkpt>
      <trkpt lat="40.9727630" lon="0.3447000">
        <ele>380.6</ele>
        <time>2020-08-06T17:04:32Z</time>
      </trkpt>
      <trkpt lat="40.9727200" lon="0.3447070">
        <ele>380.7</ele>
        <time>2020-08-06T17:04:34Z</time>
      </trkpt>
      <trkpt lat="40.9726800" lon="0.3447140">
        <ele>380.8</ele>
        <time>2020-08-06T17:04:35Z</time>
      </trkpt>
      <trkpt lat="40.9726290" lon="0.3447180">
        <ele>380.9</ele>
        <time>2020-08-06T17:04:37Z</time>
      </trkpt>
      <trkpt lat="40.9725760" lon="0.3447300">
        <ele>381.0</ele>
        <time>2020-08-06T17:04:39Z</time>
      </trkpt>
      <trkpt lat="40.9725490" lon="0.3447340">
        <ele>381.1</ele>
        <time>2020-08-06T17:04:40Z</time>
      </trkpt>
      <trkpt lat="40.9725190" lon="0.3447370">
        <ele>381.2</ele>
        <time>2020-08-06T17:04:41Z</time>
      </trkpt>
      <trkpt lat="40.9724860" lon="0.3447420">
        <ele>381.2</ele>
        <time>2020-08-06T17:04:42Z</time>
      </trkpt>
      <trkpt lat="40.9724530" lon="0.3447430">
        <ele>381.3</ele>
        <time>2020-08-06T17:04:43Z</time>
      </trkpt>
      <trkpt lat="40.9723870" lon="0.3447540">
        <ele>381.5</ele>
        <time>2020-08-06T17:04:44Z</time>
      </trkpt>
      <trkpt lat="40.9722340" lon="0.3447930">
        <ele>381.9</ele>
        <time>2020-08-06T17:04:46Z</time>
      </trkpt>
      <trkpt lat="40.9721970" lon="0.3447840">
        <ele>382.0</ele>
        <time>2020-08-06T17:04:47Z</time>
      </trkpt>
      <trkpt lat="40.9721530" lon="0.3447790">
        <ele>382.1</ele>
        <time>2020-08-06T17:04:49Z</time>
      </trkpt>
      <trkpt lat="40.9721140" lon="0.3447830">
        <ele>382.2</ele>
        <time>2020-08-06T17:04:50Z</time>
      </trkpt>
      <trkpt lat="40.9720370" lon="0.3447890">
        <ele>382.3</ele>
        <time>2020-08-06T17:04:51Z</time>
      </trkpt>
      <trkpt lat="40.9719740" lon="0.3447840">
        <ele>382.4</ele>
        <time>2020-08-06T17:04:52Z</time>
      </trkpt>
      <trkpt lat="40.9719290" lon="0.3447770">
        <ele>382.5</ele>
        <time>2020-08-06T17:04:53Z</time>
      </trkpt>
      <trkpt lat="40.9718780" lon="0.3447650">
        <ele>382.5</ele>
        <time>2020-08-06T17:04:54Z</time>
      </trkpt>
      <trkpt lat="40.9718100" lon="0.3447440">
        <ele>382.6</ele>
        <time>2020-08-06T17:04:56Z</time>
      </trkpt>
      <trkpt lat="40.9717780" lon="0.3447340">
        <ele>382.7</ele>
        <time>2020-08-06T17:04:57Z</time>
      </trkpt>
      <trkpt lat="40.9717470" lon="0.3447240">
        <ele>382.7</ele>
        <time>2020-08-06T17:04:58Z</time>
      </trkpt>
      <trkpt lat="40.9716910" lon="0.3447070">
        <ele>382.8</ele>
        <time>2020-08-06T17:05:00Z</time>
      </trkpt>
      <trkpt lat="40.9716310" lon="0.3446940">
        <ele>382.9</ele>
        <time>2020-08-06T17:05:02Z</time>
      </trkpt>
      <trkpt lat="40.9715910" lon="0.3446870">
        <ele>383.0</ele>
        <time>2020-08-06T17:05:03Z</time>
      </trkpt>
      <trkpt lat="40.9715770" lon="0.3446850">
        <ele>383.0</ele>
        <time>2020-08-06T17:05:04Z</time>
      </trkpt>
      <trkpt lat="40.9715460" lon="0.3446780">
        <ele>383.1</ele>
        <time>2020-08-06T17:05:05Z</time>
      </trkpt>
      <trkpt lat="40.9715170" lon="0.3446710">
        <ele>383.2</ele>
        <time>2020-08-06T17:05:06Z</time>
      </trkpt>
      <trkpt lat="40.9714550" lon="0.3446530">
        <ele>383.3</ele>
        <time>2020-08-06T17:05:08Z</time>
      </trkpt>
      <trkpt lat="40.9713950" lon="0.3446380">
        <ele>383.4</ele>
        <time>2020-08-06T17:05:10Z</time>
      </trkpt>
      <trkpt lat="40.9713310" lon="0.3446270">
        <ele>383.5</ele>
        <time>2020-08-06T17:05:12Z</time>
      </trkpt>
      <trkpt lat="40.9713050" lon="0.3446210">
        <ele>383.5</ele>
        <time>2020-08-06T17:05:13Z</time>
      </trkpt>
      <trkpt lat="40.9712460" lon="0.3446000">
        <ele>383.7</ele>
        <time>2020-08-06T17:05:15Z</time>
      </trkpt>
      <trkpt lat="40.9712160" lon="0.3445890">
        <ele>383.7</ele>
        <time>2020-08-06T17:05:16Z</time>
      </trkpt>
      <trkpt lat="40.9711880" lon="0.3445760">
        <ele>383.8</ele>
        <time>2020-08-06T17:05:17Z</time>
      </trkpt>
      <trkpt lat="40.9711330" lon="0.3445470">
        <ele>383.9</ele>
        <time>2020-08-06T17:05:19Z</time>
      </trkpt>
      <trkpt lat="40.9711060" lon="0.3445350">
        <ele>384.0</ele>
        <time>2020-08-06T17:05:20Z</time>
      </trkpt>
      <trkpt lat="40.9710520" lon="0.3445140">
        <ele>384.1</ele>
        <time>2020-08-06T17:05:22Z</time>
      </trkpt>
      <trkpt lat="40.9710240" lon="0.3445010">
        <ele>384.2</ele>
        <time>2020-08-06T17:05:23Z</time>
      </trkpt>
      <trkpt lat="40.9709940" lon="0.3444840">
        <ele>384.3</ele>
        <time>2020-08-06T17:05:25Z</time>
      </trkpt>
      <trkpt lat="40.9709870" lon="0.3444810">
        <ele>384.4</ele>
        <time>2020-08-06T17:05:26Z</time>
      </trkpt>
      <trkpt lat="40.9709660" lon="0.3444710">
        <ele>384.4</ele>
        <time>2020-08-06T17:05:27Z</time>
      </trkpt>
      <trkpt lat="40.9709440" lon="0.3444610">
        <ele>384.5</ele>
        <time>2020-08-06T17:05:29Z</time>
      </trkpt>
      <trkpt lat="40.9709170" lon="0.3444480">
        <ele>384.6</ele>
        <time>2020-08-06T17:05:30Z</time>
      </trkpt>
      <trkpt lat="40.9708810" lon="0.3444270">
        <ele>384.7</ele>
        <time>2020-08-06T17:05:32Z</time>
      </trkpt>
      <trkpt lat="40.9708610" lon="0.3444180">
        <ele>384.7</ele>
        <time>2020-08-06T17:05:33Z</time>
      </trkpt>
      <trkpt lat="40.9708270" lon="0.3444020">
        <ele>384.8</ele>
        <time>2020-08-06T17:05:35Z</time>
      </trkpt>
      <trkpt lat="40.9707920" lon="0.3443860">
        <ele>384.9</ele>
        <time>2020-08-06T17:05:36Z</time>
      </trkpt>
      <trkpt lat="40.9707810" lon="0.3443810">
        <ele>384.9</ele>
        <time>2020-08-06T17:05:37Z</time>
      </trkpt>
      <trkpt lat="40.9707590" lon="0.3443690">
        <ele>385.0</ele>
        <time>2020-08-06T17:05:38Z</time>
      </trkpt>
      <trkpt lat="40.9707210" lon="0.3443510">
        <ele>385.1</ele>
        <time>2020-08-06T17:05:40Z</time>
      </trkpt>
      <trkpt lat="40.9706900" lon="0.3443360">
        <ele>385.1</ele>
        <time>2020-08-06T17:05:41Z</time>
      </trkpt>
      <trkpt lat="40.9706640" lon="0.3443220">
        <ele>385.2</ele>
        <time>2020-08-06T17:05:42Z</time>
      </trkpt>
      <trkpt lat="40.9706350" lon="0.3443070">
        <ele>385.2</ele>
        <time>2020-08-06T17:05:43Z</time>
      </trkpt>
      <trkpt lat="40.9706010" lon="0.3442860">
        <ele>385.3</ele>
        <time>2020-08-06T17:05:44Z</time>
      </trkpt>
      <trkpt lat="40.9705700" lon="0.3442670">
        <ele>385.4</ele>
        <time>2020-08-06T17:05:45Z</time>
      </trkpt>
      <trkpt lat="40.9705380" lon="0.3442490">
        <ele>385.5</ele>
        <time>2020-08-06T17:05:47Z</time>
      </trkpt>
      <trkpt lat="40.9705100" lon="0.3442340">
        <ele>385.6</ele>
        <time>2020-08-06T17:05:48Z</time>
      </trkpt>
      <trkpt lat="40.9704770" lon="0.3442160">
        <ele>385.6</ele>
        <time>2020-08-06T17:05:49Z</time>
      </trkpt>
      <trkpt lat="40.9704440" lon="0.3441940">
        <ele>385.7</ele>
        <time>2020-08-06T17:05:50Z</time>
      </trkpt>
      <trkpt lat="40.9704070" lon="0.3441710">
        <ele>385.8</ele>
        <time>2020-08-06T17:05:51Z</time>
      </trkpt>
      <trkpt lat="40.9703940" lon="0.3441630">
        <ele>385.8</ele>
        <time>2020-08-06T17:05:52Z</time>
      </trkpt>
      <trkpt lat="40.9703620" lon="0.3441420">
        <ele>385.9</ele>
        <time>2020-08-06T17:05:54Z</time>
      </trkpt>
      <trkpt lat="40.9703350" lon="0.3441220">
        <ele>385.9</ele>
        <time>2020-08-06T17:05:55Z</time>
      </trkpt>
      <trkpt lat="40.9702980" lon="0.3440960">
        <ele>386.0</ele>
        <time>2020-08-06T17:05:56Z</time>
      </trkpt>
      <trkpt lat="40.9702630" lon="0.3440740">
        <ele>386.0</ele>
        <time>2020-08-06T17:05:58Z</time>
      </trkpt>
      <trkpt lat="40.9702360" lon="0.3440600">
        <ele>386.1</ele>
        <time>2020-08-06T17:05:59Z</time>
      </trkpt>
      <trkpt lat="40.9702110" lon="0.3440460">
        <ele>386.1</ele>
        <time>2020-08-06T17:06:00Z</time>
      </trkpt>
      <trkpt lat="40.9701800" lon="0.3440280">
        <ele>386.1</ele>
        <time>2020-08-06T17:06:01Z</time>
      </trkpt>
      <trkpt lat="40.9701540" lon="0.3440170">
        <ele>386.2</ele>
        <time>2020-08-06T17:06:02Z</time>
      </trkpt>
      <trkpt lat="40.9701230" lon="0.3440020">
        <ele>386.2</ele>
        <time>2020-08-06T17:06:04Z</time>
      </trkpt>
      <trkpt lat="40.9700900" lon="0.3439850">
        <ele>386.3</ele>
        <time>2020-08-06T17:06:05Z</time>
      </trkpt>
      <trkpt lat="40.9700530" lon="0.3439650">
        <ele>386.3</ele>
        <time>2020-08-06T17:06:06Z</time>
      </trkpt>
      <trkpt lat="40.9700210" lon="0.3439500">
        <ele>386.4</ele>
        <time>2020-08-06T17:06:07Z</time>
      </trkpt>
      <trkpt lat="40.9699940" lon="0.3439340">
        <ele>386.4</ele>
        <time>2020-08-06T17:06:08Z</time>
      </trkpt>
      <trkpt lat="40.9699550" lon="0.3439110">
        <ele>386.5</ele>
        <time>2020-08-06T17:06:10Z</time>
      </trkpt>
      <trkpt lat="40.9699250" lon="0.3438930">
        <ele>386.6</ele>
        <time>2020-08-06T17:06:11Z</time>
      </trkpt>
      <trkpt lat="40.9698820" lon="0.3438650">
        <ele>386.7</ele>
        <time>2020-08-06T17:06:13Z</time>
      </trkpt>
      <trkpt lat="40.9698700" lon="0.3438570">
        <ele>386.8</ele>
        <time>2020-08-06T17:06:14Z</time>
      </trkpt>
      <trkpt lat="40.9698580" lon="0.3438490">
        <ele>386.8</ele>
        <time>2020-08-06T17:06:15Z</time>
      </trkpt>
      <trkpt lat="40.9698310" lon="0.3438290">
        <ele>386.9</ele>
        <time>2020-08-06T17:06:17Z</time>
      </trkpt>
      <trkpt lat="40.9698120" lon="0.3438160">
        <ele>387.0</ele>
        <time>2020-08-06T17:06:18Z</time>
      </trkpt>
      <trkpt lat="40.9697950" lon="0.3438040">
        <ele>387.1</ele>
        <time>2020-08-06T17:06:20Z</time>
      </trkpt>
      <trkpt lat="40.9697790" lon="0.3437920">
        <ele>387.1</ele>
        <time>2020-08-06T17:06:21Z</time>
      </trkpt>
      <trkpt lat="40.9697660" lon="0.3437800">
        <ele>387.2</ele>
        <time>2020-08-06T17:06:22Z</time>
      </trkpt>
      <trkpt lat="40.9697470" lon="0.3437630">
        <ele>387.2</ele>
        <time>2020-08-06T17:06:23Z</time>
      </trkpt>
      <trkpt lat="40.9697370" lon="0.3437540">
        <ele>387.3</ele>
        <time>2020-08-06T17:06:25Z</time>
      </trkpt>
      <trkpt lat="40.9697260" lon="0.3437410">
        <ele>387.3</ele>
        <time>2020-08-06T17:06:26Z</time>
      </trkpt>
      <trkpt lat="40.9697160" lon="0.3437280">
        <ele>387.3</ele>
        <time>2020-08-06T17:06:27Z</time>
      </trkpt>
      <trkpt lat="40.9696120" lon="0.3436790">
        <ele>387.6</ele>
        <time>2020-08-06T17:06:31Z</time>
      </trkpt>
      <trkpt lat="40.9694130" lon="0.3435800">
        <ele>388.0</ele>
        <time>2020-08-06T17:06:33Z</time>
      </trkpt>
      <trkpt lat="40.9692510" lon="0.3434980">
        <ele>388.4</ele>
        <time>2020-08-06T17:06:34Z</time>
      </trkpt>
      <trkpt lat="40.9691980" lon="0.3434470">
        <ele>388.6</ele>
        <time>2020-08-06T17:06:35Z</time>
      </trkpt>
      <trkpt lat="40.9691280" lon="0.3433630">
        <ele>389.0</ele>
        <time>2020-08-06T17:06:37Z</time>
      </trkpt>
      <trkpt lat="40.9691010" lon="0.3433600">
        <ele>389.1</ele>
        <time>2020-08-06T17:06:38Z</time>
      </trkpt>
      <trkpt lat="40.9690140" lon="0.3433720">
        <ele>389.5</ele>
        <time>2020-08-06T17:06:42Z</time>
      </trkpt>
      <trkpt lat="40.9690360" lon="0.3433800">
        <ele>389.5</ele>
        <time>2020-08-06T17:06:44Z</time>
      </trkpt>
      <trkpt lat="40.9690430" lon="0.3433650">
        <ele>389.6</ele>
        <time>2020-08-06T17:06:45Z</time>
      </trkpt>
      <trkpt lat="40.9690090" lon="0.3432710">
        <ele>389.9</ele>
        <time>2020-08-06T17:06:46Z</time>
      </trkpt>
      <trkpt lat="40.9689690" lon="0.3432090">
        <ele>390.0</ele>
        <time>2020-08-06T17:06:48Z</time>
      </trkpt>
      <trkpt lat="40.9689280" lon="0.3431500">
        <ele>390.2</ele>
        <time>2020-08-06T17:06:49Z</time>
      </trkpt>
      <trkpt lat="40.9688910" lon="0.3430990">
        <ele>390.4</ele>
        <time>2020-08-06T17:06:50Z</time>
      </trkpt>
      <trkpt lat="40.9688550" lon="0.3430520">
        <ele>390.5</ele>
        <time>2020-08-06T17:06:52Z</time>
      </trkpt>
      <trkpt lat="40.9688040" lon="0.3429750">
        <ele>390.7</ele>
        <time>2020-08-06T17:06:53Z</time>
      </trkpt>
      <trkpt lat="40.9687580" lon="0.3429080">
        <ele>390.9</ele>
        <time>2020-08-06T17:06:54Z</time>
      </trkpt>
      <trkpt lat="40.9687160" lon="0.3428450">
        <ele>391.0</ele>
        <time>2020-08-06T17:06:55Z</time>
      </trkpt>
      <trkpt lat="40.9686800" lon="0.3427860">
        <ele>391.1</ele>
        <time>2020-08-06T17:06:57Z</time>
      </trkpt>
      <trkpt lat="40.9686610" lon="0.3427420">
        <ele>391.4</ele>
        <time>2020-08-06T17:06:58Z</time>
      </trkpt>
      <trkpt lat="40.9686560" lon="0.3427280">
        <ele>391.6</ele>
        <time>2020-08-06T17:06:59Z</time>
      </trkpt>
      <trkpt lat="40.9686350" lon="0.3426700">
        <ele>392.0</ele>
        <time>2020-08-06T17:07:01Z</time>
      </trkpt>
      <trkpt lat="40.9686270" lon="0.3426480">
        <ele>392.1</ele>
        <time>2020-08-06T17:07:02Z</time>
      </trkpt>
      <trkpt lat="40.9686190" lon="0.3426210">
        <ele>392.2</ele>
        <time>2020-08-06T17:07:04Z</time>
      </trkpt>
      <trkpt lat="40.9686110" lon="0.3426010">
        <ele>392.3</ele>
        <time>2020-08-06T17:07:05Z</time>
      </trkpt>
      <trkpt lat="40.9686020" lon="0.3425660">
        <ele>392.4</ele>
        <time>2020-08-06T17:07:07Z</time>
      </trkpt>
      <trkpt lat="40.9685960" lon="0.3425470">
        <ele>392.5</ele>
        <time>2020-08-06T17:07:09Z</time>
      </trkpt>
      <trkpt lat="40.9685900" lon="0.3425250">
        <ele>392.6</ele>
        <time>2020-08-06T17:07:10Z</time>
      </trkpt>
      <trkpt lat="40.9685860" lon="0.3425110">
        <ele>392.6</ele>
        <time>2020-08-06T17:07:11Z</time>
      </trkpt>
      <trkpt lat="40.9685410" lon="0.3424350">
        <ele>392.8</ele>
        <time>2020-08-06T17:07:52Z</time>
      </trkpt>
      <trkpt lat="40.9681320" lon="0.3414540">
        <ele>394.8</ele>
        <time>2020-08-06T17:07:54Z</time>
      </trkpt>
      <trkpt lat="40.9679560" lon="0.3410110">
        <ele>395.3</ele>
        <time>2020-08-06T17:07:55Z</time>
      </trkpt>
      <trkpt lat="40.9678960" lon="0.3408640">
        <ele>394.8</ele>
        <time>2020-08-06T17:07:56Z</time>
      </trkpt>
      <trkpt lat="40.9678400" lon="0.3407450">
        <ele>395.2</ele>
        <time>2020-08-06T17:07:57Z</time>
      </trkpt>
      <trkpt lat="40.9678090" lon="0.3406690">
        <ele>395.3</ele>
        <time>2020-08-06T17:07:58Z</time>
      </trkpt>
      <trkpt lat="40.9677810" lon="0.3405750">
        <ele>395.5</ele>
        <time>2020-08-06T17:08:00Z</time>
      </trkpt>
      <trkpt lat="40.9677630" lon="0.3404910">
        <ele>395.6</ele>
        <time>2020-08-06T17:08:02Z</time>
      </trkpt>
      <trkpt lat="40.9677550" lon="0.3404530">
        <ele>395.6</ele>
        <time>2020-08-06T17:08:03Z</time>
      </trkpt>
      <trkpt lat="40.9677490" lon="0.3404230">
        <ele>395.7</ele>
        <time>2020-08-06T17:08:04Z</time>
      </trkpt>
      <trkpt lat="40.9677340" lon="0.3403620">
        <ele>395.8</ele>
        <time>2020-08-06T17:08:06Z</time>
      </trkpt>
      <trkpt lat="40.9677240" lon="0.3403290">
        <ele>395.8</ele>
        <time>2020-08-06T17:08:07Z</time>
      </trkpt>
      <trkpt lat="40.9677110" lon="0.3402770">
        <ele>395.9</ele>
        <time>2020-08-06T17:08:08Z</time>
      </trkpt>
      <trkpt lat="40.9677060" lon="0.3402600">
        <ele>396.0</ele>
        <time>2020-08-06T17:08:09Z</time>
      </trkpt>
      <trkpt lat="40.9676870" lon="0.3401780">
        <ele>396.1</ele>
        <time>2020-08-06T17:08:11Z</time>
      </trkpt>
      <trkpt lat="40.9676790" lon="0.3401430">
        <ele>396.1</ele>
        <time>2020-08-06T17:08:12Z</time>
      </trkpt>
      <trkpt lat="40.9676700" lon="0.3401060">
        <ele>396.2</ele>
        <time>2020-08-06T17:08:13Z</time>
      </trkpt>
      <trkpt lat="40.9676530" lon="0.3400360">
        <ele>396.3</ele>
        <time>2020-08-06T17:08:15Z</time>
      </trkpt>
      <trkpt lat="40.9676440" lon="0.3399990">
        <ele>396.3</ele>
        <time>2020-08-06T17:08:16Z</time>
      </trkpt>
      <trkpt lat="40.9676410" lon="0.3399880">
        <ele>396.3</ele>
        <time>2020-08-06T17:08:17Z</time>
      </trkpt>
      <trkpt lat="40.9676340" lon="0.3399500">
        <ele>396.4</ele>
        <time>2020-08-06T17:08:19Z</time>
      </trkpt>
      <trkpt lat="40.9676330" lon="0.3399360">
        <ele>396.4</ele>
        <time>2020-08-06T17:08:20Z</time>
      </trkpt>
      <trkpt lat="40.9676330" lon="0.3399270">
        <ele>396.4</ele>
        <time>2020-08-06T17:08:21Z</time>
      </trkpt>
      <trkpt lat="40.9676380" lon="0.3399130">
        <ele>396.4</ele>
        <time>2020-08-06T17:08:23Z</time>
      </trkpt>
      <trkpt lat="40.9676420" lon="0.3399100">
        <ele>396.5</ele>
        <time>2020-08-06T17:08:25Z</time>
      </trkpt>
      <trkpt lat="40.9676420" lon="0.3399100">
        <ele>396.5</ele>
        <time>2020-08-06T17:08:26Z</time>
      </trkpt>
      <trkpt lat="40.9676390" lon="0.3399080">
        <ele>396.5</ele>
        <time>2020-08-06T17:08:27Z</time>
      </trkpt>
      <trkpt lat="40.9676360" lon="0.3399040">
        <ele>396.5</ele>
        <time>2020-08-06T17:08:29Z</time>
      </trkpt>
      <trkpt lat="40.9676330" lon="0.3399010">
        <ele>396.5</ele>
        <time>2020-08-06T17:08:30Z</time>
      </trkpt>
      <trkpt lat="40.9676320" lon="0.3399010">
        <ele>396.5</ele>
        <time>2020-08-06T17:08:32Z</time>
      </trkpt>
      <trkpt lat="40.9676310" lon="0.3399010">
        <ele>396.5</ele>
        <time>2020-08-06T17:08:34Z</time>
      </trkpt>
      <trkpt lat="40.9676130" lon="0.3398430">
        <ele>396.6</ele>
        <time>2020-08-06T17:09:00Z</time>
      </trkpt>
      <trkpt lat="40.9676040" lon="0.3398230">
        <ele>396.6</ele>
        <time>2020-08-06T17:09:01Z</time>
      </trkpt>
      <trkpt lat="40.9675900" lon="0.3398060">
        <ele>396.6</ele>
        <time>2020-08-06T17:09:03Z</time>
      </trkpt>
      <trkpt lat="40.9675840" lon="0.3397830">
        <ele>396.7</ele>
        <time>2020-08-06T17:09:04Z</time>
      </trkpt>
      <trkpt lat="40.9675740" lon="0.3397540">
        <ele>396.7</ele>
        <time>2020-08-06T17:09:06Z</time>
      </trkpt>
      <trkpt lat="40.9675670" lon="0.3397200">
        <ele>396.7</ele>
        <time>2020-08-06T17:09:07Z</time>
      </trkpt>
      <trkpt lat="40.9675630" lon="0.3397080">
        <ele>396.8</ele>
        <time>2020-08-06T17:09:08Z</time>
      </trkpt>
      <trkpt lat="40.9675530" lon="0.3396700">
        <ele>396.8</ele>
        <time>2020-08-06T17:09:09Z</time>
      </trkpt>
      <trkpt lat="40.9675470" lon="0.3396170">
        <ele>396.9</ele>
        <time>2020-08-06T17:09:10Z</time>
      </trkpt>
      <trkpt lat="40.9675460" lon="0.3395740">
        <ele>396.9</ele>
        <time>2020-08-06T17:09:11Z</time>
      </trkpt>
      <trkpt lat="40.9675410" lon="0.3395320">
        <ele>397.0</ele>
        <time>2020-08-06T17:09:12Z</time>
      </trkpt>
      <trkpt lat="40.9675360" lon="0.3394920">
        <ele>397.1</ele>
        <time>2020-08-06T17:09:13Z</time>
      </trkpt>
      <trkpt lat="40.9675290" lon="0.3394370">
        <ele>397.2</ele>
        <time>2020-08-06T17:09:15Z</time>
      </trkpt>
      <trkpt lat="40.9675240" lon="0.3393830">
        <ele>397.3</ele>
        <time>2020-08-06T17:09:16Z</time>
      </trkpt>
      <trkpt lat="40.9675180" lon="0.3393380">
        <ele>397.4</ele>
        <time>2020-08-06T17:09:17Z</time>
      </trkpt>
      <trkpt lat="40.9675040" lon="0.3392690">
        <ele>397.5</ele>
        <time>2020-08-06T17:09:19Z</time>
      </trkpt>
      <trkpt lat="40.9674980" lon="0.3392260">
        <ele>397.6</ele>
        <time>2020-08-06T17:09:20Z</time>
      </trkpt>
      <trkpt lat="40.9674870" lon="0.3391750">
        <ele>397.8</ele>
        <time>2020-08-06T17:09:21Z</time>
      </trkpt>
      <trkpt lat="40.9674820" lon="0.3391570">
        <ele>397.8</ele>
        <time>2020-08-06T17:09:22Z</time>
      </trkpt>
      <trkpt lat="40.9674760" lon="0.3391220">
        <ele>397.9</ele>
        <time>2020-08-06T17:09:23Z</time>
      </trkpt>
      <trkpt lat="40.9674600" lon="0.3390460">
        <ele>398.0</ele>
        <time>2020-08-06T17:09:25Z</time>
      </trkpt>
      <trkpt lat="40.9674500" lon="0.3389830">
        <ele>398.2</ele>
        <time>2020-08-06T17:09:27Z</time>
      </trkpt>
      <trkpt lat="40.9674420" lon="0.3389450">
        <ele>398.3</ele>
        <time>2020-08-06T17:09:28Z</time>
      </trkpt>
      <trkpt lat="40.9674320" lon="0.3388970">
        <ele>398.4</ele>
        <time>2020-08-06T17:09:29Z</time>
      </trkpt>
      <trkpt lat="40.9674280" lon="0.3388810">
        <ele>398.4</ele>
        <time>2020-08-06T17:09:30Z</time>
      </trkpt>
      <trkpt lat="40.9674140" lon="0.3388310">
        <ele>398.5</ele>
        <time>2020-08-06T17:09:32Z</time>
      </trkpt>
      <trkpt lat="40.9674020" lon="0.3387960">
        <ele>398.5</ele>
        <time>2020-08-06T17:09:33Z</time>
      </trkpt>
      <trkpt lat="40.9673880" lon="0.3387500">
        <ele>398.6</ele>
        <time>2020-08-06T17:09:34Z</time>
      </trkpt>
      <trkpt lat="40.9673750" lon="0.3387060">
        <ele>398.7</ele>
        <time>2020-08-06T17:09:35Z</time>
      </trkpt>
      <trkpt lat="40.9673580" lon="0.3386480">
        <ele>398.8</ele>
        <time>2020-08-06T17:09:37Z</time>
      </trkpt>
      <trkpt lat="40.9673460" lon="0.3386080">
        <ele>398.8</ele>
        <time>2020-08-06T17:09:38Z</time>
      </trkpt>
      <trkpt lat="40.9673220" lon="0.3385610">
        <ele>398.9</ele>
        <time>2020-08-06T17:09:39Z</time>
      </trkpt>
      <trkpt lat="40.9673120" lon="0.3385430">
        <ele>399.0</ele>
        <time>2020-08-06T17:09:40Z</time>
      </trkpt>
      <trkpt lat="40.9672930" lon="0.3385050">
        <ele>399.0</ele>
        <time>2020-08-06T17:09:41Z</time>
      </trkpt>
      <trkpt lat="40.9672770" lon="0.3384720">
        <ele>399.1</ele>
        <time>2020-08-06T17:09:42Z</time>
      </trkpt>
      <trkpt lat="40.9672480" lon="0.3384190">
        <ele>399.2</ele>
        <time>2020-08-06T17:09:44Z</time>
      </trkpt>
      <trkpt lat="40.9672200" lon="0.3383680">
        <ele>399.3</ele>
        <time>2020-08-06T17:09:46Z</time>
      </trkpt>
      <trkpt lat="40.9672120" lon="0.3383520">
        <ele>399.3</ele>
        <time>2020-08-06T17:09:47Z</time>
      </trkpt>
      <trkpt lat="40.9672030" lon="0.3383350">
        <ele>399.3</ele>
        <time>2020-08-06T17:09:48Z</time>
      </trkpt>
      <trkpt lat="40.9671910" lon="0.3383120">
        <ele>399.4</ele>
        <time>2020-08-06T17:09:49Z</time>
      </trkpt>
      <trkpt lat="40.9671740" lon="0.3382800">
        <ele>399.4</ele>
        <time>2020-08-06T17:09:51Z</time>
      </trkpt>
      <trkpt lat="40.9671570" lon="0.3382470">
        <ele>399.4</ele>
        <time>2020-08-06T17:09:52Z</time>
      </trkpt>
      <trkpt lat="40.9671380" lon="0.3382120">
        <ele>399.5</ele>
        <time>2020-08-06T17:09:53Z</time>
      </trkpt>
      <trkpt lat="40.9671160" lon="0.3381650">
        <ele>399.6</ele>
        <time>2020-08-06T17:09:55Z</time>
      </trkpt>
      <trkpt lat="40.9670970" lon="0.3381290">
        <ele>399.6</ele>
        <time>2020-08-06T17:09:56Z</time>
      </trkpt>
      <trkpt lat="40.9670760" lon="0.3380920">
        <ele>399.7</ele>
        <time>2020-08-06T17:09:57Z</time>
      </trkpt>
      <trkpt lat="40.9670570" lon="0.3380580">
        <ele>399.7</ele>
        <time>2020-08-06T17:09:58Z</time>
      </trkpt>
      <trkpt lat="40.9670370" lon="0.3380240">
        <ele>399.8</ele>
        <time>2020-08-06T17:09:59Z</time>
      </trkpt>
      <trkpt lat="40.9670080" lon="0.3379710">
        <ele>399.9</ele>
        <time>2020-08-06T17:10:01Z</time>
      </trkpt>
      <trkpt lat="40.9669850" lon="0.3379280">
        <ele>400.0</ele>
        <time>2020-08-06T17:10:02Z</time>
      </trkpt>
      <trkpt lat="40.9669520" lon="0.3378660">
        <ele>400.0</ele>
        <time>2020-08-06T17:10:03Z</time>
      </trkpt>
      <trkpt lat="40.9669140" lon="0.3377900">
        <ele>400.1</ele>
        <time>2020-08-06T17:10:04Z</time>
      </trkpt>
      <trkpt lat="40.9668820" lon="0.3377260">
        <ele>400.2</ele>
        <time>2020-08-06T17:10:05Z</time>
      </trkpt>
      <trkpt lat="40.9668430" lon="0.3376490">
        <ele>400.4</ele>
        <time>2020-08-06T17:10:07Z</time>
      </trkpt>
      <trkpt lat="40.9668200" lon="0.3376010">
        <ele>400.5</ele>
        <time>2020-08-06T17:10:08Z</time>
      </trkpt>
      <trkpt lat="40.9667950" lon="0.3375560">
        <ele>400.5</ele>
        <time>2020-08-06T17:10:09Z</time>
      </trkpt>
      <trkpt lat="40.9667680" lon="0.3375010">
        <ele>400.6</ele>
        <time>2020-08-06T17:10:11Z</time>
      </trkpt>
      <trkpt lat="40.9667510" lon="0.3374600">
        <ele>400.7</ele>
        <time>2020-08-06T17:10:12Z</time>
      </trkpt>
      <trkpt lat="40.9667330" lon="0.3374210">
        <ele>400.8</ele>
        <time>2020-08-06T17:10:13Z</time>
      </trkpt>
      <trkpt lat="40.9667160" lon="0.3373900">
        <ele>400.8</ele>
        <time>2020-08-06T17:10:14Z</time>
      </trkpt>
      <trkpt lat="40.9666990" lon="0.3373590">
        <ele>400.9</ele>
        <time>2020-08-06T17:10:15Z</time>
      </trkpt>
      <trkpt lat="40.9666740" lon="0.3373090">
        <ele>401.0</ele>
        <time>2020-08-06T17:10:17Z</time>
      </trkpt>
      <trkpt lat="40.9666540" lon="0.3372740">
        <ele>401.0</ele>
        <time>2020-08-06T17:10:18Z</time>
      </trkpt>
      <trkpt lat="40.9666330" lon="0.3372250">
        <ele>401.1</ele>
        <time>2020-08-06T17:10:19Z</time>
      </trkpt>
      <trkpt lat="40.9666180" lon="0.3371930">
        <ele>401.2</ele>
        <time>2020-08-06T17:10:20Z</time>
      </trkpt>
      <trkpt lat="40.9666020" lon="0.3371620">
        <ele>401.2</ele>
        <time>2020-08-06T17:10:21Z</time>
      </trkpt>
      <trkpt lat="40.9665790" lon="0.3371200">
        <ele>401.3</ele>
        <time>2020-08-06T17:10:22Z</time>
      </trkpt>
      <trkpt lat="40.9665710" lon="0.3371060">
        <ele>401.3</ele>
        <time>2020-08-06T17:10:23Z</time>
      </trkpt>
      <trkpt lat="40.9665380" lon="0.3370570">
        <ele>401.5</ele>
        <time>2020-08-06T17:10:25Z</time>
      </trkpt>
      <trkpt lat="40.9665170" lon="0.3370170">
        <ele>401.6</ele>
        <time>2020-08-06T17:10:26Z</time>
      </trkpt>
      <trkpt lat="40.9665020" lon="0.3369860">
        <ele>401.7</ele>
        <time>2020-08-06T17:10:27Z</time>
      </trkpt>
      <trkpt lat="40.9664860" lon="0.3369540">
        <ele>401.8</ele>
        <time>2020-08-06T17:10:28Z</time>
      </trkpt>
      <trkpt lat="40.9664600" lon="0.3368970">
        <ele>401.9</ele>
        <time>2020-08-06T17:10:30Z</time>
      </trkpt>
      <trkpt lat="40.9664410" lon="0.3368520">
        <ele>402.0</ele>
        <time>2020-08-06T17:10:31Z</time>
      </trkpt>
      <trkpt lat="40.9664260" lon="0.3368170">
        <ele>402.1</ele>
        <time>2020-08-06T17:10:32Z</time>
      </trkpt>
      <trkpt lat="40.9663910" lon="0.3367510">
        <ele>402.2</ele>
        <time>2020-08-06T17:10:34Z</time>
      </trkpt>
      <trkpt lat="40.9663600" lon="0.3366900">
        <ele>402.3</ele>
        <time>2020-08-06T17:10:36Z</time>
      </trkpt>
      <trkpt lat="40.9663490" lon="0.3366520">
        <ele>402.4</ele>
        <time>2020-08-06T17:10:37Z</time>
      </trkpt>
      <trkpt lat="40.9663380" lon="0.3366160">
        <ele>402.4</ele>
        <time>2020-08-06T17:10:38Z</time>
      </trkpt>
      <trkpt lat="40.9663230" lon="0.3365770">
        <ele>402.5</ele>
        <time>2020-08-06T17:10:40Z</time>
      </trkpt>
      <trkpt lat="40.9663140" lon="0.3365550">
        <ele>402.5</ele>
        <time>2020-08-06T17:10:41Z</time>
      </trkpt>
      <trkpt lat="40.9663000" lon="0.3365210">
        <ele>402.6</ele>
        <time>2020-08-06T17:10:43Z</time>
      </trkpt>
      <trkpt lat="40.9662880" lon="0.3364890">
        <ele>402.6</ele>
        <time>2020-08-06T17:10:44Z</time>
      </trkpt>
      <trkpt lat="40.9662790" lon="0.3364670">
        <ele>402.7</ele>
        <time>2020-08-06T17:10:45Z</time>
      </trkpt>
      <trkpt lat="40.9662650" lon="0.3364350">
        <ele>402.7</ele>
        <time>2020-08-06T17:10:47Z</time>
      </trkpt>
      <trkpt lat="40.9662450" lon="0.3363870">
        <ele>402.8</ele>
        <time>2020-08-06T17:10:48Z</time>
      </trkpt>
      <trkpt lat="40.9662380" lon="0.3363720">
        <ele>402.9</ele>
        <time>2020-08-06T17:10:49Z</time>
      </trkpt>
      <trkpt lat="40.9662010" lon="0.3362760">
        <ele>403.1</ele>
        <time>2020-08-06T17:10:51Z</time>
      </trkpt>
      <trkpt lat="40.9661530" lon="0.3361460">
        <ele>403.3</ele>
        <time>2020-08-06T17:10:52Z</time>
      </trkpt>
      <trkpt lat="40.9661300" lon="0.3360750">
        <ele>403.4</ele>
        <time>2020-08-06T17:10:53Z</time>
      </trkpt>
      <trkpt lat="40.9661030" lon="0.3359830">
        <ele>403.6</ele>
        <time>2020-08-06T17:10:55Z</time>
      </trkpt>
      <trkpt lat="40.9660930" lon="0.3359450">
        <ele>403.6</ele>
        <time>2020-08-06T17:10:56Z</time>
      </trkpt>
      <trkpt lat="40.9660710" lon="0.3358690">
        <ele>403.8</ele>
        <time>2020-08-06T17:10:58Z</time>
      </trkpt>
      <trkpt lat="40.9660570" lon="0.3358290">
        <ele>403.8</ele>
        <time>2020-08-06T17:10:59Z</time>
      </trkpt>
      <trkpt lat="40.9660290" lon="0.3357470">
        <ele>404.0</ele>
        <time>2020-08-06T17:11:01Z</time>
      </trkpt>
      <trkpt lat="40.9660020" lon="0.3356770">
        <ele>404.1</ele>
        <time>2020-08-06T17:11:03Z</time>
      </trkpt>
      <trkpt lat="40.9659740" lon="0.3356050">
        <ele>404.2</ele>
        <time>2020-08-06T17:11:05Z</time>
      </trkpt>
      <trkpt lat="40.9659580" lon="0.3355680">
        <ele>404.3</ele>
        <time>2020-08-06T17:11:06Z</time>
      </trkpt>
      <trkpt lat="40.9659300" lon="0.3355000">
        <ele>404.5</ele>
        <time>2020-08-06T17:11:08Z</time>
      </trkpt>
      <trkpt lat="40.9659140" lon="0.3354610">
        <ele>404.6</ele>
        <time>2020-08-06T17:11:09Z</time>
      </trkpt>
      <trkpt lat="40.9659010" lon="0.3354260">
        <ele>404.6</ele>
        <time>2020-08-06T17:11:10Z</time>
      </trkpt>
      <trkpt lat="40.9658800" lon="0.3353600">
        <ele>404.8</ele>
        <time>2020-08-06T17:11:12Z</time>
      </trkpt>
      <trkpt lat="40.9658630" lon="0.3352860">
        <ele>404.9</ele>
        <time>2020-08-06T17:11:14Z</time>
      </trkpt>
      <trkpt lat="40.9658540" lon="0.3352490">
        <ele>404.9</ele>
        <time>2020-08-06T17:11:15Z</time>
      </trkpt>
      <trkpt lat="40.9658300" lon="0.3351680">
        <ele>405.1</ele>
        <time>2020-08-06T17:11:17Z</time>
      </trkpt>
      <trkpt lat="40.9658160" lon="0.3351270">
        <ele>405.1</ele>
        <time>2020-08-06T17:11:18Z</time>
      </trkpt>
      <trkpt lat="40.9658020" lon="0.3350840">
        <ele>405.2</ele>
        <time>2020-08-06T17:11:19Z</time>
      </trkpt>
      <trkpt lat="40.9657880" lon="0.3350400">
        <ele>405.2</ele>
        <time>2020-08-06T17:11:20Z</time>
      </trkpt>
      <trkpt lat="40.9657550" lon="0.3349550">
        <ele>405.4</ele>
        <time>2020-08-06T17:11:22Z</time>
      </trkpt>
      <trkpt lat="40.9657400" lon="0.3349160">
        <ele>405.4</ele>
        <time>2020-08-06T17:11:23Z</time>
      </trkpt>
      <trkpt lat="40.9657100" lon="0.3348430">
        <ele>405.6</ele>
        <time>2020-08-06T17:11:25Z</time>
      </trkpt>
      <trkpt lat="40.9656900" lon="0.3347930">
        <ele>405.7</ele>
        <time>2020-08-06T17:11:26Z</time>
      </trkpt>
      <trkpt lat="40.9656830" lon="0.3347750">
        <ele>405.7</ele>
        <time>2020-08-06T17:11:27Z</time>
      </trkpt>
      <trkpt lat="40.9656510" lon="0.3346970">
        <ele>405.8</ele>
        <time>2020-08-06T17:11:29Z</time>
      </trkpt>
      <trkpt lat="40.9656320" lon="0.3346560">
        <ele>405.9</ele>
        <time>2020-08-06T17:11:30Z</time>
      </trkpt>
      <trkpt lat="40.9655960" lon="0.3345840">
        <ele>406.0</ele>
        <time>2020-08-06T17:11:32Z</time>
      </trkpt>
      <trkpt lat="40.9655800" lon="0.3345450">
        <ele>406.1</ele>
        <time>2020-08-06T17:11:33Z</time>
      </trkpt>
      <trkpt lat="40.9655530" lon="0.3344700">
        <ele>406.2</ele>
        <time>2020-08-06T17:11:35Z</time>
      </trkpt>
      <trkpt lat="40.9655400" lon="0.3344390">
        <ele>406.2</ele>
        <time>2020-08-06T17:11:36Z</time>
      </trkpt>
      <trkpt lat="40.9655180" lon="0.3344030">
        <ele>406.3</ele>
        <time>2020-08-06T17:11:38Z</time>
      </trkpt>
      <trkpt lat="40.9655210" lon="0.3343990">
        <ele>406.3</ele>
        <time>2020-08-06T17:11:39Z</time>
      </trkpt>
      <trkpt lat="40.9655310" lon="0.3343910">
        <ele>406.3</ele>
        <time>2020-08-06T17:11:41Z</time>
      </trkpt>
      <trkpt lat="40.9655420" lon="0.3343840">
        <ele>406.3</ele>
        <time>2020-08-06T17:11:46Z</time>
      </trkpt>
      <trkpt lat="40.9655430" lon="0.3343820">
        <ele>406.3</ele>
        <time>2020-08-06T17:11:47Z</time>
      </trkpt>
      <trkpt lat="40.9655430" lon="0.3343810">
        <ele>406.3</ele>
        <time>2020-08-06T17:11:48Z</time>
      </trkpt>
      <trkpt lat="40.9655420" lon="0.3343800">
        <ele>406.3</ele>
        <time>2020-08-06T17:11:49Z</time>
      </trkpt>
      <trkpt lat="40.9655420" lon="0.3343790">
        <ele>406.3</ele>
        <time>2020-08-06T17:11:50Z</time>
      </trkpt>
      <trkpt lat="40.9655390" lon="0.3343760">
        <ele>406.3</ele>
        <time>2020-08-06T17:11:52Z</time>
      </trkpt>
      <trkpt lat="40.9655200" lon="0.3343180">
        <ele>406.4</ele>
        <time>2020-08-06T17:12:07Z</time>
      </trkpt>
      <trkpt lat="40.9655180" lon="0.3342950">
        <ele>406.4</ele>
        <time>2020-08-06T17:12:08Z</time>
      </trkpt>
      <trkpt lat="40.9655100" lon="0.3342360">
        <ele>406.5</ele>
        <time>2020-08-06T17:12:10Z</time>
      </trkpt>
      <trkpt lat="40.9655020" lon="0.3342000">
        <ele>406.5</ele>
        <time>2020-08-06T17:12:11Z</time>
      </trkpt>
      <trkpt lat="40.9654830" lon="0.3341370">
        <ele>406.6</ele>
        <time>2020-08-06T17:12:13Z</time>
      </trkpt>
      <trkpt lat="40.9654570" lon="0.3340700">
        <ele>406.8</ele>
        <time>2020-08-06T17:12:15Z</time>
      </trkpt>
      <trkpt lat="40.9654430" lon="0.3340300">
        <ele>406.8</ele>
        <time>2020-08-06T17:12:16Z</time>
      </trkpt>
      <trkpt lat="40.9654160" lon="0.3339580">
        <ele>407.0</ele>
        <time>2020-08-06T17:12:18Z</time>
      </trkpt>
      <trkpt lat="40.9653900" lon="0.3338670">
        <ele>407.2</ele>
        <time>2020-08-06T17:12:20Z</time>
      </trkpt>
      <trkpt lat="40.9653740" lon="0.3338210">
        <ele>407.3</ele>
        <time>2020-08-06T17:12:21Z</time>
      </trkpt>
      <trkpt lat="40.9653390" lon="0.3337150">
        <ele>407.5</ele>
        <time>2020-08-06T17:12:23Z</time>
      </trkpt>
      <trkpt lat="40.9653220" lon="0.3336630">
        <ele>407.6</ele>
        <time>2020-08-06T17:12:24Z</time>
      </trkpt>
      <trkpt lat="40.9652860" lon="0.3335570">
        <ele>407.8</ele>
        <time>2020-08-06T17:12:26Z</time>
      </trkpt>
      <trkpt lat="40.9652440" lon="0.3334390">
        <ele>408.0</ele>
        <time>2020-08-06T17:12:28Z</time>
      </trkpt>
      <trkpt lat="40.9652230" lon="0.3333810">
        <ele>408.1</ele>
        <time>2020-08-06T17:12:29Z</time>
      </trkpt>
      <trkpt lat="40.9651750" lon="0.3332490">
        <ele>408.3</ele>
        <time>2020-08-06T17:12:31Z</time>
      </trkpt>
      <trkpt lat="40.9651520" lon="0.3331870">
        <ele>408.4</ele>
        <time>2020-08-06T17:12:32Z</time>
      </trkpt>
      <trkpt lat="40.9651380" lon="0.3331310">
        <ele>408.5</ele>
        <time>2020-08-06T17:12:33Z</time>
      </trkpt>
      <trkpt lat="40.9650970" lon="0.3329900">
        <ele>408.7</ele>
        <time>2020-08-06T17:12:35Z</time>
      </trkpt>
      <trkpt lat="40.9650730" lon="0.3329220">
        <ele>408.8</ele>
        <time>2020-08-06T17:12:36Z</time>
      </trkpt>
      <trkpt lat="40.9650420" lon="0.3328280">
        <ele>408.9</ele>
        <time>2020-08-06T17:12:38Z</time>
      </trkpt>
      <trkpt lat="40.9650220" lon="0.3327770">
        <ele>409.0</ele>
        <time>2020-08-06T17:12:39Z</time>
      </trkpt>
      <trkpt lat="40.9649770" lon="0.3326900">
        <ele>409.1</ele>
        <time>2020-08-06T17:12:41Z</time>
      </trkpt>
      <trkpt lat="40.9649570" lon="0.3326470">
        <ele>409.2</ele>
        <time>2020-08-06T17:12:42Z</time>
      </trkpt>
      <trkpt lat="40.9649090" lon="0.3325380">
        <ele>409.5</ele>
        <time>2020-08-06T17:12:44Z</time>
      </trkpt>
      <trkpt lat="40.9648870" lon="0.3324870">
        <ele>409.6</ele>
        <time>2020-08-06T17:12:45Z</time>
      </trkpt>
      <trkpt lat="40.9648640" lon="0.3324260">
        <ele>409.8</ele>
        <time>2020-08-06T17:12:46Z</time>
      </trkpt>
      <trkpt lat="40.9648200" lon="0.3323220">
        <ele>410.0</ele>
        <time>2020-08-06T17:12:48Z</time>
      </trkpt>
      <trkpt lat="40.9647990" lon="0.3322800">
        <ele>410.1</ele>
        <time>2020-08-06T17:12:49Z</time>
      </trkpt>
      <trkpt lat="40.9647710" lon="0.3322390">
        <ele>410.2</ele>
        <time>2020-08-06T17:12:50Z</time>
      </trkpt>
      <trkpt lat="40.9647450" lon="0.3322070">
        <ele>410.3</ele>
        <time>2020-08-06T17:12:51Z</time>
      </trkpt>
      <trkpt lat="40.9646920" lon="0.3321240">
        <ele>410.4</ele>
        <time>2020-08-06T17:12:53Z</time>
      </trkpt>
      <trkpt lat="40.9646610" lon="0.3320830">
        <ele>410.5</ele>
        <time>2020-08-06T17:12:54Z</time>
      </trkpt>
      <trkpt lat="40.9645890" lon="0.3319760">
        <ele>410.6</ele>
        <time>2020-08-06T17:12:56Z</time>
      </trkpt>
      <trkpt lat="40.9645530" lon="0.3319280">
        <ele>410.7</ele>
        <time>2020-08-06T17:12:57Z</time>
      </trkpt>
      <trkpt lat="40.9645200" lon="0.3318860">
        <ele>410.8</ele>
        <time>2020-08-06T17:12:58Z</time>
      </trkpt>
      <trkpt lat="40.9644870" lon="0.3318460">
        <ele>410.9</ele>
        <time>2020-08-06T17:12:59Z</time>
      </trkpt>
      <trkpt lat="40.9644550" lon="0.3318040">
        <ele>411.0</ele>
        <time>2020-08-06T17:13:00Z</time>
      </trkpt>
      <trkpt lat="40.9644270" lon="0.3317630">
        <ele>411.1</ele>
        <time>2020-08-06T17:13:01Z</time>
      </trkpt>
      <trkpt lat="40.9643670" lon="0.3316870">
        <ele>411.3</ele>
        <time>2020-08-06T17:13:03Z</time>
      </trkpt>
      <trkpt lat="40.9643440" lon="0.3316620">
        <ele>411.3</ele>
        <time>2020-08-06T17:13:04Z</time>
      </trkpt>
      <trkpt lat="40.9643150" lon="0.3316240">
        <ele>411.4</ele>
        <time>2020-08-06T17:13:05Z</time>
      </trkpt>
      <trkpt lat="40.9642540" lon="0.3315310">
        <ele>411.6</ele>
        <time>2020-08-06T17:13:07Z</time>
      </trkpt>
      <trkpt lat="40.9642200" lon="0.3314720">
        <ele>411.7</ele>
        <time>2020-08-06T17:13:08Z</time>
      </trkpt>
      <trkpt lat="40.9641620" lon="0.3314020">
        <ele>411.8</ele>
        <time>2020-08-06T17:13:10Z</time>
      </trkpt>
      <trkpt lat="40.9641330" lon="0.3313610">
        <ele>411.8</ele>
        <time>2020-08-06T17:13:11Z</time>
      </trkpt>
      <trkpt lat="40.9641100" lon="0.3313250">
        <ele>411.9</ele>
        <time>2020-08-06T17:13:12Z</time>
      </trkpt>
      <trkpt lat="40.9640550" lon="0.3312490">
        <ele>412.1</ele>
        <time>2020-08-06T17:13:14Z</time>
      </trkpt>
      <trkpt lat="40.9640310" lon="0.3312180">
        <ele>412.2</ele>
        <time>2020-08-06T17:13:15Z</time>
      </trkpt>
      <trkpt lat="40.9640090" lon="0.3311910">
        <ele>412.3</ele>
        <time>2020-08-06T17:13:16Z</time>
      </trkpt>
      <trkpt lat="40.9639850" lon="0.3311580">
        <ele>412.5</ele>
        <time>2020-08-06T17:13:17Z</time>
      </trkpt>
      <trkpt lat="40.9639620" lon="0.3311230">
        <ele>412.6</ele>
        <time>2020-08-06T17:13:18Z</time>
      </trkpt>
      <trkpt lat="40.9639200" lon="0.3310660">
        <ele>412.7</ele>
        <time>2020-08-06T17:13:20Z</time>
      </trkpt>
      <trkpt lat="40.9638830" lon="0.3310160">
        <ele>412.9</ele>
        <time>2020-08-06T17:13:22Z</time>
      </trkpt>
      <trkpt lat="40.9638650" lon="0.3309920">
        <ele>412.9</ele>
        <time>2020-08-06T17:13:23Z</time>
      </trkpt>
      <trkpt lat="40.9638320" lon="0.3309520">
        <ele>413.1</ele>
        <time>2020-08-06T17:13:25Z</time>
      </trkpt>
      <trkpt lat="40.9638100" lon="0.3309210">
        <ele>413.1</ele>
        <time>2020-08-06T17:13:26Z</time>
      </trkpt>
      <trkpt lat="40.9638040" lon="0.3309140">
        <ele>413.2</ele>
        <time>2020-08-06T17:13:27Z</time>
      </trkpt>
      <trkpt lat="40.9637720" lon="0.3308660">
        <ele>413.3</ele>
        <time>2020-08-06T17:13:29Z</time>
      </trkpt>
      <trkpt lat="40.9637620" lon="0.3308530">
        <ele>413.3</ele>
        <time>2020-08-06T17:13:30Z</time>
      </trkpt>
      <trkpt lat="40.9637520" lon="0.3308400">
        <ele>413.3</ele>
        <time>2020-08-06T17:13:31Z</time>
      </trkpt>
      <trkpt lat="40.9637280" lon="0.3308070">
        <ele>413.4</ele>
        <time>2020-08-06T17:13:32Z</time>
      </trkpt>
      <trkpt lat="40.9637190" lon="0.3307960">
        <ele>413.5</ele>
        <time>2020-08-06T17:13:33Z</time>
      </trkpt>
      <trkpt lat="40.9637050" lon="0.3307790">
        <ele>413.5</ele>
        <time>2020-08-06T17:13:34Z</time>
      </trkpt>
      <trkpt lat="40.9636780" lon="0.3307450">
        <ele>413.6</ele>
        <time>2020-08-06T17:13:36Z</time>
      </trkpt>
      <trkpt lat="40.9636660" lon="0.3307310">
        <ele>413.7</ele>
        <time>2020-08-06T17:13:37Z</time>
      </trkpt>
      <trkpt lat="40.9636540" lon="0.3307140">
        <ele>413.8</ele>
        <time>2020-08-06T17:13:38Z</time>
      </trkpt>
      <trkpt lat="40.9636330" lon="0.3306800">
        <ele>413.9</ele>
        <time>2020-08-06T17:13:40Z</time>
      </trkpt>
      <trkpt lat="40.9636230" lon="0.3306640">
        <ele>413.9</ele>
        <time>2020-08-06T17:13:41Z</time>
      </trkpt>
      <trkpt lat="40.9636140" lon="0.3306500">
        <ele>413.9</ele>
        <time>2020-08-06T17:13:42Z</time>
      </trkpt>
      <trkpt lat="40.9635960" lon="0.3306270">
        <ele>414.0</ele>
        <time>2020-08-06T17:13:44Z</time>
      </trkpt>
      <trkpt lat="40.9635780" lon="0.3305990">
        <ele>414.1</ele>
        <time>2020-08-06T17:13:46Z</time>
      </trkpt>
      <trkpt lat="40.9635570" lon="0.3305650">
        <ele>414.2</ele>
        <time>2020-08-06T17:13:48Z</time>
      </trkpt>
      <trkpt lat="40.9635520" lon="0.3305580">
        <ele>414.2</ele>
        <time>2020-08-06T17:13:49Z</time>
      </trkpt>
      <trkpt lat="40.9635290" lon="0.3305300">
        <ele>414.3</ele>
        <time>2020-08-06T17:13:51Z</time>
      </trkpt>
      <trkpt lat="40.9635230" lon="0.3305230">
        <ele>414.3</ele>
        <time>2020-08-06T17:13:52Z</time>
      </trkpt>
      <trkpt lat="40.9635100" lon="0.3305070">
        <ele>414.4</ele>
        <time>2020-08-06T17:13:53Z</time>
      </trkpt>
      <trkpt lat="40.9634890" lon="0.3304770">
        <ele>414.5</ele>
        <time>2020-08-06T17:13:55Z</time>
      </trkpt>
      <trkpt lat="40.9634760" lon="0.3304600">
        <ele>414.5</ele>
        <time>2020-08-06T17:13:56Z</time>
      </trkpt>
      <trkpt lat="40.9634520" lon="0.3304220">
        <ele>414.7</ele>
        <time>2020-08-06T17:13:58Z</time>
      </trkpt>
      <trkpt lat="40.9634410" lon="0.3304040">
        <ele>414.7</ele>
        <time>2020-08-06T17:13:59Z</time>
      </trkpt>
      <trkpt lat="40.9634160" lon="0.3303600">
        <ele>414.8</ele>
        <time>2020-08-06T17:14:01Z</time>
      </trkpt>
      <trkpt lat="40.9633950" lon="0.3303210">
        <ele>415.0</ele>
        <time>2020-08-06T17:14:02Z</time>
      </trkpt>
      <trkpt lat="40.9633880" lon="0.3303080">
        <ele>415.0</ele>
        <time>2020-08-06T17:14:03Z</time>
      </trkpt>
      <trkpt lat="40.9633620" lon="0.3302620">
        <ele>415.1</ele>
        <time>2020-08-06T17:14:05Z</time>
      </trkpt>
      <trkpt lat="40.9633380" lon="0.3302200">
        <ele>415.3</ele>
        <time>2020-08-06T17:14:06Z</time>
      </trkpt>
      <trkpt lat="40.9633280" lon="0.3302050">
        <ele>415.3</ele>
        <time>2020-08-06T17:14:07Z</time>
      </trkpt>
      <trkpt lat="40.9632940" lon="0.3301520">
        <ele>415.4</ele>
        <time>2020-08-06T17:14:09Z</time>
      </trkpt>
      <trkpt lat="40.9632610" lon="0.3300970">
        <ele>415.6</ele>
        <time>2020-08-06T17:14:11Z</time>
      </trkpt>
      <trkpt lat="40.9632430" lon="0.3300680">
        <ele>415.7</ele>
        <time>2020-08-06T17:14:12Z</time>
      </trkpt>
      <trkpt lat="40.9632100" lon="0.3300160">
        <ele>415.8</ele>
        <time>2020-08-06T17:14:14Z</time>
      </trkpt>
      <trkpt lat="40.9631860" lon="0.3299720">
        <ele>415.9</ele>
        <time>2020-08-06T17:14:15Z</time>
      </trkpt>
      <trkpt lat="40.9631770" lon="0.3299560">
        <ele>416.0</ele>
        <time>2020-08-06T17:14:16Z</time>
      </trkpt>
      <trkpt lat="40.9631630" lon="0.3299270">
        <ele>416.0</ele>
        <time>2020-08-06T17:14:17Z</time>
      </trkpt>
      <trkpt lat="40.9631380" lon="0.3298640">
        <ele>416.2</ele>
        <time>2020-08-06T17:14:19Z</time>
      </trkpt>
      <trkpt lat="40.9631190" lon="0.3298180">
        <ele>416.3</ele>
        <time>2020-08-06T17:14:20Z</time>
      </trkpt>
      <trkpt lat="40.9631110" lon="0.3298020">
        <ele>416.4</ele>
        <time>2020-08-06T17:14:21Z</time>
      </trkpt>
      <trkpt lat="40.9630790" lon="0.3297450">
        <ele>416.5</ele>
        <time>2020-08-06T17:14:23Z</time>
      </trkpt>
      <trkpt lat="40.9630470" lon="0.3296860">
        <ele>416.6</ele>
        <time>2020-08-06T17:14:25Z</time>
      </trkpt>
      <trkpt lat="40.9630340" lon="0.3296580">
        <ele>416.7</ele>
        <time>2020-08-06T17:14:26Z</time>
      </trkpt>
      <trkpt lat="40.9630070" lon="0.3295930">
        <ele>416.8</ele>
        <time>2020-08-06T17:14:28Z</time>
      </trkpt>
      <trkpt lat="40.9629820" lon="0.3295350">
        <ele>416.9</ele>
        <time>2020-08-06T17:14:30Z</time>
      </trkpt>
      <trkpt lat="40.9629650" lon="0.3294970">
        <ele>417.0</ele>
        <time>2020-08-06T17:14:31Z</time>
      </trkpt>
      <trkpt lat="40.9629410" lon="0.3294450">
        <ele>417.1</ele>
        <time>2020-08-06T17:14:33Z</time>
      </trkpt>
      <trkpt lat="40.9629250" lon="0.3294030">
        <ele>417.2</ele>
        <time>2020-08-06T17:14:34Z</time>
      </trkpt>
      <trkpt lat="40.9629070" lon="0.3293570">
        <ele>417.3</ele>
        <time>2020-08-06T17:14:35Z</time>
      </trkpt>
      <trkpt lat="40.9628920" lon="0.3293180">
        <ele>417.4</ele>
        <time>2020-08-06T17:14:36Z</time>
      </trkpt>
      <trkpt lat="40.9628790" lon="0.3292860">
        <ele>417.5</ele>
        <time>2020-08-06T17:14:38Z</time>
      </trkpt>
      <trkpt lat="40.9628580" lon="0.3292340">
        <ele>417.6</ele>
        <time>2020-08-06T17:14:39Z</time>
      </trkpt>
      <trkpt lat="40.9628380" lon="0.3291950">
        <ele>417.7</ele>
        <time>2020-08-06T17:14:40Z</time>
      </trkpt>
      <trkpt lat="40.9628150" lon="0.3291410">
        <ele>417.8</ele>
        <time>2020-08-06T17:14:42Z</time>
      </trkpt>
      <trkpt lat="40.9627850" lon="0.3290760">
        <ele>417.9</ele>
        <time>2020-08-06T17:14:44Z</time>
      </trkpt>
      <trkpt lat="40.9627720" lon="0.3290450">
        <ele>418.0</ele>
        <time>2020-08-06T17:14:45Z</time>
      </trkpt>
      <trkpt lat="40.9627480" lon="0.3289870">
        <ele>418.2</ele>
        <time>2020-08-06T17:14:47Z</time>
      </trkpt>
      <trkpt lat="40.9627340" lon="0.3289470">
        <ele>418.3</ele>
        <time>2020-08-06T17:14:48Z</time>
      </trkpt>
      <trkpt lat="40.9627210" lon="0.3289140">
        <ele>418.3</ele>
        <time>2020-08-06T17:14:49Z</time>
      </trkpt>
      <trkpt lat="40.9627080" lon="0.3288830">
        <ele>418.4</ele>
        <time>2020-08-06T17:14:50Z</time>
      </trkpt>
      <trkpt lat="40.9626820" lon="0.3288080">
        <ele>418.6</ele>
        <time>2020-08-06T17:14:52Z</time>
      </trkpt>
      <trkpt lat="40.9626550" lon="0.3287570">
        <ele>418.7</ele>
        <time>2020-08-06T17:14:54Z</time>
      </trkpt>
      <trkpt lat="40.9626340" lon="0.3287180">
        <ele>418.7</ele>
        <time>2020-08-06T17:14:55Z</time>
      </trkpt>
      <trkpt lat="40.9626260" lon="0.3287040">
        <ele>418.8</ele>
        <time>2020-08-06T17:14:56Z</time>
      </trkpt>
      <trkpt lat="40.9626100" lon="0.3286730">
        <ele>418.8</ele>
        <time>2020-08-06T17:14:58Z</time>
      </trkpt>
      <trkpt lat="40.9625940" lon="0.3286400">
        <ele>418.9</ele>
        <time>2020-08-06T17:14:59Z</time>
      </trkpt>
      <trkpt lat="40.9625790" lon="0.3286070">
        <ele>419.0</ele>
        <time>2020-08-06T17:15:00Z</time>
      </trkpt>
      <trkpt lat="40.9625720" lon="0.3285940">
        <ele>419.0</ele>
        <time>2020-08-06T17:15:01Z</time>
      </trkpt>
      <trkpt lat="40.9625550" lon="0.3285500">
        <ele>419.1</ele>
        <time>2020-08-06T17:15:03Z</time>
      </trkpt>
      <trkpt lat="40.9625490" lon="0.3285340">
        <ele>419.1</ele>
        <time>2020-08-06T17:15:04Z</time>
      </trkpt>
      <trkpt lat="40.9625310" lon="0.3284870">
        <ele>419.2</ele>
        <time>2020-08-06T17:15:05Z</time>
      </trkpt>
      <trkpt lat="40.9625240" lon="0.3284710">
        <ele>419.3</ele>
        <time>2020-08-06T17:15:06Z</time>
      </trkpt>
      <trkpt lat="40.9625110" lon="0.3284370">
        <ele>419.3</ele>
        <time>2020-08-06T17:15:07Z</time>
      </trkpt>
      <trkpt lat="40.9624860" lon="0.3283700">
        <ele>419.5</ele>
        <time>2020-08-06T17:15:09Z</time>
      </trkpt>
      <trkpt lat="40.9624660" lon="0.3283090">
        <ele>419.6</ele>
        <time>2020-08-06T17:15:11Z</time>
      </trkpt>
      <trkpt lat="40.9624490" lon="0.3282650">
        <ele>419.7</ele>
        <time>2020-08-06T17:15:12Z</time>
      </trkpt>
      <trkpt lat="40.9624340" lon="0.3282250">
        <ele>419.8</ele>
        <time>2020-08-06T17:15:13Z</time>
      </trkpt>
      <trkpt lat="40.9624120" lon="0.3281670">
        <ele>419.9</ele>
        <time>2020-08-06T17:15:15Z</time>
      </trkpt>
      <trkpt lat="40.9624000" lon="0.3281290">
        <ele>420.0</ele>
        <time>2020-08-06T17:15:16Z</time>
      </trkpt>
      <trkpt lat="40.9623810" lon="0.3280720">
        <ele>420.1</ele>
        <time>2020-08-06T17:15:18Z</time>
      </trkpt>
      <trkpt lat="40.9623670" lon="0.3280260">
        <ele>420.2</ele>
        <time>2020-08-06T17:15:19Z</time>
      </trkpt>
      <trkpt lat="40.9623570" lon="0.3279890">
        <ele>420.3</ele>
        <time>2020-08-06T17:15:20Z</time>
      </trkpt>
      <trkpt lat="40.9623400" lon="0.3279410">
        <ele>420.4</ele>
        <time>2020-08-06T17:15:22Z</time>
      </trkpt>
      <trkpt lat="40.9623240" lon="0.3279080">
        <ele>420.5</ele>
        <time>2020-08-06T17:15:23Z</time>
      </trkpt>
      <trkpt lat="40.9623150" lon="0.3278860">
        <ele>420.5</ele>
        <time>2020-08-06T17:15:24Z</time>
      </trkpt>
      <trkpt lat="40.9623080" lon="0.3278660">
        <ele>420.6</ele>
        <time>2020-08-06T17:15:25Z</time>
      </trkpt>
      <trkpt lat="40.9622880" lon="0.3278270">
        <ele>420.7</ele>
        <time>2020-08-06T17:15:27Z</time>
      </trkpt>
      <trkpt lat="40.9622820" lon="0.3278180">
        <ele>420.7</ele>
        <time>2020-08-06T17:15:28Z</time>
      </trkpt>
      <trkpt lat="40.9622730" lon="0.3277990">
        <ele>420.8</ele>
        <time>2020-08-06T17:15:29Z</time>
      </trkpt>
      <trkpt lat="40.9622620" lon="0.3277800">
        <ele>420.8</ele>
        <time>2020-08-06T17:15:30Z</time>
      </trkpt>
      <trkpt lat="40.9621370" lon="0.3239640">
        <ele>425.7</ele>
        <time>2020-08-06T17:17:11Z</time>
      </trkpt>
      <trkpt lat="40.9621490" lon="0.3238620">
        <ele>425.8</ele>
        <time>2020-08-06T17:17:13Z</time>
      </trkpt>
      <trkpt lat="40.9621720" lon="0.3237600">
        <ele>426.0</ele>
        <time>2020-08-06T17:17:15Z</time>
      </trkpt>
      <trkpt lat="40.9621990" lon="0.3236650">
        <ele>426.2</ele>
        <time>2020-08-06T17:17:17Z</time>
      </trkpt>
      <trkpt lat="40.9622270" lon="0.3236640">
        <ele>426.3</ele>
        <time>2020-08-06T17:17:19Z</time>
      </trkpt>
      <trkpt lat="40.9622580" lon="0.3236750">
        <ele>426.4</ele>
        <time>2020-08-06T17:17:20Z</time>
      </trkpt>
      <trkpt lat="40.9622810" lon="0.3236380">
        <ele>426.4</ele>
        <time>2020-08-06T17:17:22Z</time>
      </trkpt>
      <trkpt lat="40.9622900" lon="0.3236200">
        <ele>426.5</ele>
        <time>2020-08-06T17:17:23Z</time>
      </trkpt>
      <trkpt lat="40.9623010" lon="0.3235930">
        <ele>426.5</ele>
        <time>2020-08-06T17:17:24Z</time>
      </trkpt>
      <trkpt lat="40.9623170" lon="0.3235420">
        <ele>426.6</ele>
        <time>2020-08-06T17:17:26Z</time>
      </trkpt>
      <trkpt lat="40.9623300" lon="0.3234960">
        <ele>426.6</ele>
        <time>2020-08-06T17:17:27Z</time>
      </trkpt>
      <trkpt lat="40.9623480" lon="0.3234420">
        <ele>426.7</ele>
        <time>2020-08-06T17:17:29Z</time>
      </trkpt>
      <trkpt lat="40.9623680" lon="0.3234090">
        <ele>426.7</ele>
        <time>2020-08-06T17:17:30Z</time>
      </trkpt>
      <trkpt lat="40.9623850" lon="0.3233810">
        <ele>426.8</ele>
        <time>2020-08-06T17:17:31Z</time>
      </trkpt>
      <trkpt lat="40.9624370" lon="0.3233010">
        <ele>426.9</ele>
        <time>2020-08-06T17:17:32Z</time>
      </trkpt>
      <trkpt lat="40.9624970" lon="0.3232070">
        <ele>427.1</ele>
        <time>2020-08-06T17:17:34Z</time>
      </trkpt>
      <trkpt lat="40.9625530" lon="0.3231320">
        <ele>427.2</ele>
        <time>2020-08-06T17:17:35Z</time>
      </trkpt>
      <trkpt lat="40.9626060" lon="0.3230770">
        <ele>427.3</ele>
        <time>2020-08-06T17:17:37Z</time>
      </trkpt>
      <trkpt lat="40.9626350" lon="0.3230470">
        <ele>427.4</ele>
        <time>2020-08-06T17:17:38Z</time>
      </trkpt>
      <trkpt lat="40.9626570" lon="0.3230220">
        <ele>427.4</ele>
        <time>2020-08-06T17:17:39Z</time>
      </trkpt>
      <trkpt lat="40.9627010" lon="0.3229670">
        <ele>427.5</ele>
        <time>2020-08-06T17:17:41Z</time>
      </trkpt>
      <trkpt lat="40.9627240" lon="0.3229390">
        <ele>427.6</ele>
        <time>2020-08-06T17:17:42Z</time>
      </trkpt>
      <trkpt lat="40.9627490" lon="0.3229090">
        <ele>427.6</ele>
        <time>2020-08-06T17:17:43Z</time>
      </trkpt>
      <trkpt lat="40.9627920" lon="0.3228580">
        <ele>427.7</ele>
        <time>2020-08-06T17:17:45Z</time>
      </trkpt>
      <trkpt lat="40.9628110" lon="0.3228330">
        <ele>427.8</ele>
        <time>2020-08-06T17:17:46Z</time>
      </trkpt>
      <trkpt lat="40.9628490" lon="0.3227900">
        <ele>427.9</ele>
        <time>2020-08-06T17:17:48Z</time>
      </trkpt>
      <trkpt lat="40.9628810" lon="0.3227490">
        <ele>428.0</ele>
        <time>2020-08-06T17:17:50Z</time>
      </trkpt>
      <trkpt lat="40.9629200" lon="0.3227060">
        <ele>428.1</ele>
        <time>2020-08-06T17:17:52Z</time>
      </trkpt>
      <trkpt lat="40.9629430" lon="0.3226860">
        <ele>428.1</ele>
        <time>2020-08-06T17:17:53Z</time>
      </trkpt>
      <trkpt lat="40.9629610" lon="0.3226670">
        <ele>428.2</ele>
        <time>2020-08-06T17:17:54Z</time>
      </trkpt>
      <trkpt lat="40.9630000" lon="0.3226200">
        <ele>428.3</ele>
        <time>2020-08-06T17:17:56Z</time>
      </trkpt>
      <trkpt lat="40.9630390" lon="0.3225700">
        <ele>428.4</ele>
        <time>2020-08-06T17:17:58Z</time>
      </trkpt>
      <trkpt lat="40.9630560" lon="0.3225470">
        <ele>428.4</ele>
        <time>2020-08-06T17:17:59Z</time>
      </trkpt>
      <trkpt lat="40.9630970" lon="0.3225010">
        <ele>428.5</ele>
        <time>2020-08-06T17:18:01Z</time>
      </trkpt>
      <trkpt lat="40.9631170" lon="0.3224780">
        <ele>428.6</ele>
        <time>2020-08-06T17:18:02Z</time>
      </trkpt>
      <trkpt lat="40.9631530" lon="0.3224340">
        <ele>428.6</ele>
        <time>2020-08-06T17:18:04Z</time>
      </trkpt>
      <trkpt lat="40.9631840" lon="0.3223980">
        <ele>428.7</ele>
        <time>2020-08-06T17:18:06Z</time>
      </trkpt>
      <trkpt lat="40.9632170" lon="0.3223650">
        <ele>428.8</ele>
        <time>2020-08-06T17:18:07Z</time>
      </trkpt>
      <trkpt lat="40.9632470" lon="0.3223310">
        <ele>428.8</ele>
        <time>2020-08-06T17:18:09Z</time>
      </trkpt>
      <trkpt lat="40.9632730" lon="0.3223030">
        <ele>428.8</ele>
        <time>2020-08-06T17:18:10Z</time>
      </trkpt>
      <trkpt lat="40.9633060" lon="0.3222740">
        <ele>428.9</ele>
        <time>2020-08-06T17:18:11Z</time>
      </trkpt>
      <trkpt lat="40.9633340" lon="0.3222490">
        <ele>428.9</ele>
        <time>2020-08-06T17:18:12Z</time>
      </trkpt>
      <trkpt lat="40.9633680" lon="0.3222140">
        <ele>429.0</ele>
        <time>2020-08-06T17:18:14Z</time>
      </trkpt>
      <trkpt lat="40.9633970" lon="0.3221860">
        <ele>429.0</ele>
        <time>2020-08-06T17:18:15Z</time>
      </trkpt>
      <trkpt lat="40.9634240" lon="0.3221570">
        <ele>429.0</ele>
        <time>2020-08-06T17:18:16Z</time>
      </trkpt>
      <trkpt lat="40.9634330" lon="0.3221470">
        <ele>429.0</ele>
        <time>2020-08-06T17:18:17Z</time>
      </trkpt>
      <trkpt lat="40.9634670" lon="0.3221010">
        <ele>429.1</ele>
        <time>2020-08-06T17:18:19Z</time>
      </trkpt>
      <trkpt lat="40.9634770" lon="0.3220860">
        <ele>429.1</ele>
        <time>2020-08-06T17:18:20Z</time>
      </trkpt>
      <trkpt lat="40.9634880" lon="0.3220720">
        <ele>429.1</ele>
        <time>2020-08-06T17:18:21Z</time>
      </trkpt>
      <trkpt lat="40.9635120" lon="0.3220390">
        <ele>429.1</ele>
        <time>2020-08-06T17:18:22Z</time>
      </trkpt>
      <trkpt lat="40.9635190" lon="0.3220310">
        <ele>429.1</ele>
        <time>2020-08-06T17:18:23Z</time>
      </trkpt>
      <trkpt lat="40.9635300" lon="0.3220190">
        <ele>429.1</ele>
        <time>2020-08-06T17:18:24Z</time>
      </trkpt>
      <trkpt lat="40.9635420" lon="0.3220010">
        <ele>429.1</ele>
        <time>2020-08-06T17:18:25Z</time>
      </trkpt>
      <trkpt lat="40.9635660" lon="0.3219810">
        <ele>429.1</ele>
        <time>2020-08-06T17:18:27Z</time>
      </trkpt>
      <trkpt lat="40.9635900" lon="0.3220120">
        <ele>429.1</ele>
        <time>2020-08-06T17:18:28Z</time>
      </trkpt>
      <trkpt lat="40.9636040" lon="0.3220120">
        <ele>429.1</ele>
        <time>2020-08-06T17:18:29Z</time>
      </trkpt>
      <trkpt lat="40.9636170" lon="0.3220140">
        <ele>429.1</ele>
        <time>2020-08-06T17:18:30Z</time>
      </trkpt>
      <trkpt lat="40.9636480" lon="0.3220160">
        <ele>429.1</ele>
        <time>2020-08-06T17:18:32Z</time>
      </trkpt>
      <trkpt lat="40.9636550" lon="0.3220150">
        <ele>429.1</ele>
        <time>2020-08-06T17:18:33Z</time>
      </trkpt>
      <trkpt lat="40.9636790" lon="0.3219820">
        <ele>429.1</ele>
        <time>2020-08-06T17:18:35Z</time>
      </trkpt>
      <trkpt lat="40.9636910" lon="0.3219610">
        <ele>429.1</ele>
        <time>2020-08-06T17:18:40Z</time>
      </trkpt>
      <trkpt lat="40.9637020" lon="0.3219390">
        <ele>429.1</ele>
        <time>2020-08-06T17:18:41Z</time>
      </trkpt>
      <trkpt lat="40.9637140" lon="0.3219170">
        <ele>429.1</ele>
        <time>2020-08-06T17:18:42Z</time>
      </trkpt>
      <trkpt lat="40.9637270" lon="0.3218430">
        <ele>429.1</ele>
        <time>2020-08-06T17:18:44Z</time>
      </trkpt>
      <trkpt lat="40.9637440" lon="0.3217810">
        <ele>429.1</ele>
        <time>2020-08-06T17:18:45Z</time>
      </trkpt>
      <trkpt lat="40.9637640" lon="0.3217370">
        <ele>429.1</ele>
        <time>2020-08-06T17:18:46Z</time>
      </trkpt>
      <trkpt lat="40.9637790" lon="0.3217020">
        <ele>429.1</ele>
        <time>2020-08-06T17:18:47Z</time>
      </trkpt>
      <trkpt lat="40.9637910" lon="0.3216780">
        <ele>429.1</ele>
        <time>2020-08-06T17:18:48Z</time>
      </trkpt>
      <trkpt lat="40.9638060" lon="0.3216420">
        <ele>429.1</ele>
        <time>2020-08-06T17:18:50Z</time>
      </trkpt>
      <trkpt lat="40.9638240" lon="0.3216060">
        <ele>429.1</ele>
        <time>2020-08-06T17:18:51Z</time>
      </trkpt>
      <trkpt lat="40.9638390" lon="0.3215720">
        <ele>429.1</ele>
        <time>2020-08-06T17:18:52Z</time>
      </trkpt>
      <trkpt lat="40.9638600" lon="0.3215270">
        <ele>429.1</ele>
        <time>2020-08-06T17:18:53Z</time>
      </trkpt>
      <trkpt lat="40.9638680" lon="0.3215110">
        <ele>429.1</ele>
        <time>2020-08-06T17:18:54Z</time>
      </trkpt>
      <trkpt lat="40.9638860" lon="0.3214870">
        <ele>429.0</ele>
        <time>2020-08-06T17:18:55Z</time>
      </trkpt>
      <trkpt lat="40.9639140" lon="0.3214590">
        <ele>429.0</ele>
        <time>2020-08-06T17:18:57Z</time>
      </trkpt>
      <trkpt lat="40.9639550" lon="0.3214190">
        <ele>429.0</ele>
        <time>2020-08-06T17:18:58Z</time>
      </trkpt>
      <trkpt lat="40.9639830" lon="0.3213900">
        <ele>429.0</ele>
        <time>2020-08-06T17:18:59Z</time>
      </trkpt>
      <trkpt lat="40.9640200" lon="0.3213390">
        <ele>429.0</ele>
        <time>2020-08-06T17:19:01Z</time>
      </trkpt>
      <trkpt lat="40.9640500" lon="0.3213010">
        <ele>429.0</ele>
        <time>2020-08-06T17:19:02Z</time>
      </trkpt>
      <trkpt lat="40.9640820" lon="0.3212640">
        <ele>429.0</ele>
        <time>2020-08-06T17:19:03Z</time>
      </trkpt>
      <trkpt lat="40.9641200" lon="0.3212210">
        <ele>429.0</ele>
        <time>2020-08-06T17:19:05Z</time>
      </trkpt>
      <trkpt lat="40.9641600" lon="0.3211710">
        <ele>429.0</ele>
        <time>2020-08-06T17:19:06Z</time>
      </trkpt>
      <trkpt lat="40.9642200" lon="0.3210900">
        <ele>428.9</ele>
        <time>2020-08-06T17:19:07Z</time>
      </trkpt>
      <trkpt lat="40.9642610" lon="0.3210430">
        <ele>428.9</ele>
        <time>2020-08-06T17:19:08Z</time>
      </trkpt>
      <trkpt lat="40.9643290" lon="0.3209430">
        <ele>428.9</ele>
        <time>2020-08-06T17:19:10Z</time>
      </trkpt>
      <trkpt lat="40.9643550" lon="0.3209040">
        <ele>428.9</ele>
        <time>2020-08-06T17:19:11Z</time>
      </trkpt>
      <trkpt lat="40.9643830" lon="0.3208600">
        <ele>428.8</ele>
        <time>2020-08-06T17:19:12Z</time>
      </trkpt>
      <trkpt lat="40.9644180" lon="0.3207960">
        <ele>428.8</ele>
        <time>2020-08-06T17:19:14Z</time>
      </trkpt>
      <trkpt lat="40.9644350" lon="0.3207610">
        <ele>428.8</ele>
        <time>2020-08-06T17:19:15Z</time>
      </trkpt>
      <trkpt lat="40.9644510" lon="0.3207320">
        <ele>428.8</ele>
        <time>2020-08-06T17:19:16Z</time>
      </trkpt>
      <trkpt lat="40.9644810" lon="0.3206690">
        <ele>428.8</ele>
        <time>2020-08-06T17:19:18Z</time>
      </trkpt>
      <trkpt lat="40.9645070" lon="0.3206350">
        <ele>428.8</ele>
        <time>2020-08-06T17:19:19Z</time>
      </trkpt>
      <trkpt lat="40.9645250" lon="0.3205940">
        <ele>428.8</ele>
        <time>2020-08-06T17:19:21Z</time>
      </trkpt>
      <trkpt lat="40.9645470" lon="0.3205450">
        <ele>428.8</ele>
        <time>2020-08-06T17:19:22Z</time>
      </trkpt>
      <trkpt lat="40.9645540" lon="0.3205260">
        <ele>428.8</ele>
        <time>2020-08-06T17:19:23Z</time>
      </trkpt>
      <trkpt lat="40.9645700" lon="0.3204930">
        <ele>428.8</ele>
        <time>2020-08-06T17:19:24Z</time>
      </trkpt>
      <trkpt lat="40.9645810" lon="0.3204610">
        <ele>428.8</ele>
        <time>2020-08-06T17:19:25Z</time>
      </trkpt>
      <trkpt lat="40.9646090" lon="0.3204020">
        <ele>428.8</ele>
        <time>2020-08-06T17:19:27Z</time>
      </trkpt>
      <trkpt lat="40.9646320" lon="0.3203590">
        <ele>428.8</ele>
        <time>2020-08-06T17:19:29Z</time>
      </trkpt>
      <trkpt lat="40.9646530" lon="0.3203210">
        <ele>428.8</ele>
        <time>2020-08-06T17:19:30Z</time>
      </trkpt>
      <trkpt lat="40.9646740" lon="0.3202810">
        <ele>428.8</ele>
        <time>2020-08-06T17:19:32Z</time>
      </trkpt>
      <trkpt lat="40.9646940" lon="0.3202400">
        <ele>428.8</ele>
        <time>2020-08-06T17:19:33Z</time>
      </trkpt>
      <trkpt lat="40.9647000" lon="0.3202250">
        <ele>428.8</ele>
        <time>2020-08-06T17:19:34Z</time>
      </trkpt>
      <trkpt lat="40.9647210" lon="0.3201910">
        <ele>428.8</ele>
        <time>2020-08-06T17:19:35Z</time>
      </trkpt>
      <trkpt lat="40.9647280" lon="0.3201800">
        <ele>428.8</ele>
        <time>2020-08-06T17:19:36Z</time>
      </trkpt>
      <trkpt lat="40.9647420" lon="0.3201450">
        <ele>428.8</ele>
        <time>2020-08-06T17:19:38Z</time>
      </trkpt>
      <trkpt lat="40.9647470" lon="0.3201300">
        <ele>428.8</ele>
        <time>2020-08-06T17:19:39Z</time>
      </trkpt>
      <trkpt lat="40.9647610" lon="0.3201030">
        <ele>428.8</ele>
        <time>2020-08-06T17:19:40Z</time>
      </trkpt>
      <trkpt lat="40.9647770" lon="0.3200670">
        <ele>428.8</ele>
        <time>2020-08-06T17:19:42Z</time>
      </trkpt>
      <trkpt lat="40.9647910" lon="0.3200300">
        <ele>428.8</ele>
        <time>2020-08-06T17:19:44Z</time>
      </trkpt>
      <trkpt lat="40.9647950" lon="0.3200190">
        <ele>428.8</ele>
        <time>2020-08-06T17:19:45Z</time>
      </trkpt>
      <trkpt lat="40.9648010" lon="0.3200010">
        <ele>428.8</ele>
        <time>2020-08-06T17:19:46Z</time>
      </trkpt>
      <trkpt lat="40.9648090" lon="0.3199840">
        <ele>428.8</ele>
        <time>2020-08-06T17:19:47Z</time>
      </trkpt>
      <trkpt lat="40.9648130" lon="0.3199690">
        <ele>428.8</ele>
        <time>2020-08-06T17:19:48Z</time>
      </trkpt>
      <trkpt lat="40.9648140" lon="0.3199640">
        <ele>428.8</ele>
        <time>2020-08-06T17:19:50Z</time>
      </trkpt>
      <trkpt lat="40.9648140" lon="0.3199650">
        <ele>428.8</ele>
        <time>2020-08-06T17:19:52Z</time>
      </trkpt>
      <trkpt lat="40.9648140" lon="0.3199680">
        <ele>428.8</ele>
        <time>2020-08-06T17:19:53Z</time>
      </trkpt>
      <trkpt lat="40.9648130" lon="0.3199700">
        <ele>428.8</ele>
        <time>2020-08-06T17:19:54Z</time>
      </trkpt>
      <trkpt lat="40.9648130" lon="0.3199720">
        <ele>428.8</ele>
        <time>2020-08-06T17:19:55Z</time>
      </trkpt>
      <trkpt lat="40.9648130" lon="0.3199760">
        <ele>428.8</ele>
        <time>2020-08-06T17:19:57Z</time>
      </trkpt>
      <trkpt lat="40.9648050" lon="0.3200370">
        <ele>428.8</ele>
        <time>2020-08-06T17:20:46Z</time>
      </trkpt>
      <trkpt lat="40.9648130" lon="0.3200490">
        <ele>428.8</ele>
        <time>2020-08-06T17:20:48Z</time>
      </trkpt>
      <trkpt lat="40.9648160" lon="0.3200420">
        <ele>428.8</ele>
        <time>2020-08-06T17:20:50Z</time>
      </trkpt>
      <trkpt lat="40.9648210" lon="0.3200370">
        <ele>428.8</ele>
        <time>2020-08-06T17:20:51Z</time>
      </trkpt>
      <trkpt lat="40.9648210" lon="0.3200310">
        <ele>428.8</ele>
        <time>2020-08-06T17:20:53Z</time>
      </trkpt>
      <trkpt lat="40.9648170" lon="0.3200280">
        <ele>428.8</ele>
        <time>2020-08-06T17:20:54Z</time>
      </trkpt>
      <trkpt lat="40.9648160" lon="0.3200230">
        <ele>428.8</ele>
        <time>2020-08-06T17:20:56Z</time>
      </trkpt>
      <trkpt lat="40.9648150" lon="0.3200170">
        <ele>428.8</ele>
        <time>2020-08-06T17:20:57Z</time>
      </trkpt>
      <trkpt lat="40.9648140" lon="0.3200110">
        <ele>428.8</ele>
        <time>2020-08-06T17:21:03Z</time>
      </trkpt>
      <trkpt lat="40.9648350" lon="0.3199400">
        <ele>428.8</ele>
        <time>2020-08-06T17:22:05Z</time>
      </trkpt>
      <trkpt lat="40.9648370" lon="0.3199380">
        <ele>428.8</ele>
        <time>2020-08-06T17:22:06Z</time>
      </trkpt>
      <trkpt lat="40.9648340" lon="0.3199370">
        <ele>428.8</ele>
        <time>2020-08-06T17:22:08Z</time>
      </trkpt>
      <trkpt lat="40.9648330" lon="0.3199380">
        <ele>428.8</ele>
        <time>2020-08-06T17:22:09Z</time>
      </trkpt>
      <trkpt lat="40.9648310" lon="0.3199370">
        <ele>428.8</ele>
        <time>2020-08-06T17:22:11Z</time>
      </trkpt>
      <trkpt lat="40.9648240" lon="0.3199340">
        <ele>428.8</ele>
        <time>2020-08-06T17:22:13Z</time>
      </trkpt>
      <trkpt lat="40.9648210" lon="0.3199340">
        <ele>428.8</ele>
        <time>2020-08-06T17:22:14Z</time>
      </trkpt>
      <trkpt lat="40.9648200" lon="0.3199340">
        <ele>428.8</ele>
        <time>2020-08-06T17:22:15Z</time>
      </trkpt>
      <trkpt lat="40.9648200" lon="0.3199340">
        <ele>428.8</ele>
        <time>2020-08-06T17:22:16Z</time>
      </trkpt>
      <trkpt lat="40.9648200" lon="0.3199340">
        <ele>428.8</ele>
        <time>2020-08-06T17:22:17Z</time>
      </trkpt>
      <trkpt lat="40.9648200" lon="0.3199340">
        <ele>428.8</ele>
        <time>2020-08-06T17:22:19Z</time>
      </trkpt>
      <trkpt lat="40.9648200" lon="0.3199350">
        <ele>428.8</ele>
        <time>2020-08-06T17:22:20Z</time>
      </trkpt>
      <trkpt lat="40.9648200" lon="0.3199350">
        <ele>428.8</ele>
        <time>2020-08-06T17:22:21Z</time>
      </trkpt>
      <trkpt lat="40.9648200" lon="0.3199350">
        <ele>428.8</ele>
        <time>2020-08-06T17:22:22Z</time>
      </trkpt>
      <trkpt lat="40.9648200" lon="0.3199360">
        <ele>428.8</ele>
        <time>2020-08-06T17:22:24Z</time>
      </trkpt>
      <trkpt lat="40.9648080" lon="0.3199270">
        <ele>428.8</ele>
        <time>2020-08-06T17:24:21Z</time>
      </trkpt>
      <trkpt lat="40.9648000" lon="0.3199280">
        <ele>428.8</ele>
        <time>2020-08-06T17:24:23Z</time>
      </trkpt>
      <trkpt lat="40.9648010" lon="0.3199310">
        <ele>428.8</ele>
        <time>2020-08-06T17:24:24Z</time>
      </trkpt>
      <trkpt lat="40.9648000" lon="0.3199420">
        <ele>428.8</ele>
        <time>2020-08-06T17:24:26Z</time>
      </trkpt>
      <trkpt lat="40.9647980" lon="0.3199440">
        <ele>428.8</ele>
        <time>2020-08-06T17:24:27Z</time>
      </trkpt>
      <trkpt lat="40.9647970" lon="0.3199460">
        <ele>428.8</ele>
        <time>2020-08-06T17:24:28Z</time>
      </trkpt>
      <trkpt lat="40.9647990" lon="0.3199480">
        <ele>428.8</ele>
        <time>2020-08-06T17:24:29Z</time>
      </trkpt>
      <trkpt lat="40.9648020" lon="0.3199530">
        <ele>428.8</ele>
        <time>2020-08-06T17:24:30Z</time>
      </trkpt>
      <trkpt lat="40.9648030" lon="0.3199560">
        <ele>428.8</ele>
        <time>2020-08-06T17:24:32Z</time>
      </trkpt>
      <trkpt lat="40.9648040" lon="0.3199580">
        <ele>428.8</ele>
        <time>2020-08-06T17:24:33Z</time>
      </trkpt>
      <trkpt lat="40.9648010" lon="0.3199490">
        <ele>428.8</ele>
        <time>2020-08-06T17:24:35Z</time>
      </trkpt>
      <trkpt lat="40.9647960" lon="0.3199480">
        <ele>428.8</ele>
        <time>2020-08-06T17:24:36Z</time>
      </trkpt>
      <trkpt lat="40.9648070" lon="0.3199580">
        <ele>428.8</ele>
        <time>2020-08-06T17:24:38Z</time>
      </trkpt>
      <trkpt lat="40.9648150" lon="0.3199660">
        <ele>428.8</ele>
        <time>2020-08-06T17:24:40Z</time>
      </trkpt>
      <trkpt lat="40.9648220" lon="0.3199700">
        <ele>428.8</ele>
        <time>2020-08-06T17:24:42Z</time>
      </trkpt>
      <trkpt lat="40.9648240" lon="0.3199710">
        <ele>428.8</ele>
        <time>2020-08-06T17:24:43Z</time>
      </trkpt>
      <trkpt lat="40.9648260" lon="0.3199720">
        <ele>428.8</ele>
        <time>2020-08-06T17:24:45Z</time>
      </trkpt>
      <trkpt lat="40.9648400" lon="0.3199310">
        <ele>428.8</ele>
        <time>2020-08-06T17:25:09Z</time>
      </trkpt>
      <trkpt lat="40.9648450" lon="0.3199140">
        <ele>428.8</ele>
        <time>2020-08-06T17:25:11Z</time>
      </trkpt>
      <trkpt lat="40.9648570" lon="0.3198980">
        <ele>428.8</ele>
        <time>2020-08-06T17:25:12Z</time>
      </trkpt>
      <trkpt lat="40.9648700" lon="0.3198860">
        <ele>428.8</ele>
        <time>2020-08-06T17:25:13Z</time>
      </trkpt>
      <trkpt lat="40.9648840" lon="0.3198660">
        <ele>428.8</ele>
        <time>2020-08-06T17:25:14Z</time>
      </trkpt>
      <trkpt lat="40.9649070" lon="0.3198260">
        <ele>428.8</ele>
        <time>2020-08-06T17:25:16Z</time>
      </trkpt>
      <trkpt lat="40.9649320" lon="0.3197770">
        <ele>428.8</ele>
        <time>2020-08-06T17:25:17Z</time>
      </trkpt>
      <trkpt lat="40.9649420" lon="0.3197550">
        <ele>428.7</ele>
        <time>2020-08-06T17:25:18Z</time>
      </trkpt>
      <trkpt lat="40.9649690" lon="0.3196920">
        <ele>428.7</ele>
        <time>2020-08-06T17:25:20Z</time>
      </trkpt>
      <trkpt lat="40.9649860" lon="0.3196430">
        <ele>428.7</ele>
        <time>2020-08-06T17:25:21Z</time>
      </trkpt>
      <trkpt lat="40.9650020" lon="0.3195980">
        <ele>428.6</ele>
        <time>2020-08-06T17:25:22Z</time>
      </trkpt>
      <trkpt lat="40.9650220" lon="0.3195630">
        <ele>428.6</ele>
        <time>2020-08-06T17:25:24Z</time>
      </trkpt>
      <trkpt lat="40.9650270" lon="0.3195520">
        <ele>428.6</ele>
        <time>2020-08-06T17:25:26Z</time>
      </trkpt>
      <trkpt lat="40.9650300" lon="0.3195460">
        <ele>428.6</ele>
        <time>2020-08-06T17:25:27Z</time>
      </trkpt>
      <trkpt lat="40.9650340" lon="0.3195350">
        <ele>428.5</ele>
        <time>2020-08-06T17:25:29Z</time>
      </trkpt>
      <trkpt lat="40.9650360" lon="0.3195300">
        <ele>428.5</ele>
        <time>2020-08-06T17:25:30Z</time>
      </trkpt>
      <trkpt lat="40.9650380" lon="0.3195260">
        <ele>428.5</ele>
        <time>2020-08-06T17:25:31Z</time>
      </trkpt>
      <trkpt lat="40.9650410" lon="0.3195200">
        <ele>428.5</ele>
        <time>2020-08-06T17:25:33Z</time>
      </trkpt>
      <trkpt lat="40.9650540" lon="0.3194980">
        <ele>428.5</ele>
        <time>2020-08-06T17:25:39Z</time>
      </trkpt>
      <trkpt lat="40.9650690" lon="0.3194660">
        <ele>428.5</ele>
        <time>2020-08-06T17:25:41Z</time>
      </trkpt>
      <trkpt lat="40.9650800" lon="0.3194440">
        <ele>428.5</ele>
        <time>2020-08-06T17:25:43Z</time>
      </trkpt>
      <trkpt lat="40.9650880" lon="0.3194270">
        <ele>428.5</ele>
        <time>2020-08-06T17:25:44Z</time>
      </trkpt>
      <trkpt lat="40.9651020" lon="0.3193900">
        <ele>428.4</ele>
        <time>2020-08-06T17:25:45Z</time>
      </trkpt>
      <trkpt lat="40.9651070" lon="0.3193760">
        <ele>428.4</ele>
        <time>2020-08-06T17:25:46Z</time>
      </trkpt>
      <trkpt lat="40.9651200" lon="0.3193410">
        <ele>428.4</ele>
        <time>2020-08-06T17:25:47Z</time>
      </trkpt>
      <trkpt lat="40.9651240" lon="0.3193270">
        <ele>428.4</ele>
        <time>2020-08-06T17:25:48Z</time>
      </trkpt>
      <trkpt lat="40.9651400" lon="0.3192850">
        <ele>428.4</ele>
        <time>2020-08-06T17:25:50Z</time>
      </trkpt>
      <trkpt lat="40.9651620" lon="0.3192460">
        <ele>428.4</ele>
        <time>2020-08-06T17:25:51Z</time>
      </trkpt>
      <trkpt lat="40.9651770" lon="0.3192040">
        <ele>428.3</ele>
        <time>2020-08-06T17:25:52Z</time>
      </trkpt>
      <trkpt lat="40.9651970" lon="0.3191640">
        <ele>428.3</ele>
        <time>2020-08-06T17:25:53Z</time>
      </trkpt>
      <trkpt lat="40.9652080" lon="0.3191290">
        <ele>428.3</ele>
        <time>2020-08-06T17:25:54Z</time>
      </trkpt>
      <trkpt lat="40.9652220" lon="0.3190860">
        <ele>428.3</ele>
        <time>2020-08-06T17:25:55Z</time>
      </trkpt>
      <trkpt lat="40.9652260" lon="0.3190750">
        <ele>428.3</ele>
        <time>2020-08-06T17:25:56Z</time>
      </trkpt>
      <trkpt lat="40.9652460" lon="0.3190380">
        <ele>428.3</ele>
        <time>2020-08-06T17:25:58Z</time>
      </trkpt>
      <trkpt lat="40.9652510" lon="0.3190280">
        <ele>428.3</ele>
        <time>2020-08-06T17:25:59Z</time>
      </trkpt>
      <trkpt lat="40.9652610" lon="0.3190080">
        <ele>428.2</ele>
        <time>2020-08-06T17:26:01Z</time>
      </trkpt>
      <trkpt lat="40.9652700" lon="0.3189900">
        <ele>428.2</ele>
        <time>2020-08-06T17:26:02Z</time>
      </trkpt>
      <trkpt lat="40.9652800" lon="0.3189750">
        <ele>428.2</ele>
        <time>2020-08-06T17:26:03Z</time>
      </trkpt>
      <trkpt lat="40.9652860" lon="0.3189610">
        <ele>428.2</ele>
        <time>2020-08-06T17:26:04Z</time>
      </trkpt>
      <trkpt lat="40.9652860" lon="0.3189500">
        <ele>428.2</ele>
        <time>2020-08-06T17:26:06Z</time>
      </trkpt>
      <trkpt lat="40.9652850" lon="0.3189540">
        <ele>428.2</ele>
        <time>2020-08-06T17:26:07Z</time>
      </trkpt>
      <trkpt lat="40.9652850" lon="0.3189570">
        <ele>428.2</ele>
        <time>2020-08-06T17:26:08Z</time>
      </trkpt>
      <trkpt lat="40.9652840" lon="0.3189600">
        <ele>428.2</ele>
        <time>2020-08-06T17:26:10Z</time>
      </trkpt>
      <trkpt lat="40.9652840" lon="0.3189610">
        <ele>428.2</ele>
        <time>2020-08-06T17:26:11Z</time>
      </trkpt>
      <trkpt lat="40.9652860" lon="0.3189550">
        <ele>428.2</ele>
        <time>2020-08-06T17:26:13Z</time>
      </trkpt>
      <trkpt lat="40.9652940" lon="0.3189360">
        <ele>428.2</ele>
        <time>2020-08-06T17:26:14Z</time>
      </trkpt>
      <trkpt lat="40.9652990" lon="0.3189220">
        <ele>428.2</ele>
        <time>2020-08-06T17:26:15Z</time>
      </trkpt>
      <trkpt lat="40.9653130" lon="0.3188850">
        <ele>428.2</ele>
        <time>2020-08-06T17:26:17Z</time>
      </trkpt>
      <trkpt lat="40.9653170" lon="0.3188750">
        <ele>428.2</ele>
        <time>2020-08-06T17:26:18Z</time>
      </trkpt>
      <trkpt lat="40.9653360" lon="0.3188410">
        <ele>428.2</ele>
        <time>2020-08-06T17:26:20Z</time>
      </trkpt>
      <trkpt lat="40.9653520" lon="0.3188090">
        <ele>428.1</ele>
        <time>2020-08-06T17:26:22Z</time>
      </trkpt>
      <trkpt lat="40.9653760" lon="0.3187650">
        <ele>428.1</ele>
        <time>2020-08-06T17:26:23Z</time>
      </trkpt>
      <trkpt lat="40.9653950" lon="0.3187140">
        <ele>428.1</ele>
        <time>2020-08-06T17:26:25Z</time>
      </trkpt>
      <trkpt lat="40.9654100" lon="0.3186790">
        <ele>428.1</ele>
        <time>2020-08-06T17:26:26Z</time>
      </trkpt>
      <trkpt lat="40.9654310" lon="0.3186320">
        <ele>428.1</ele>
        <time>2020-08-06T17:26:27Z</time>
      </trkpt>
      <trkpt lat="40.9654380" lon="0.3186130">
        <ele>428.1</ele>
        <time>2020-08-06T17:26:28Z</time>
      </trkpt>
      <trkpt lat="40.9654530" lon="0.3185820">
        <ele>428.1</ele>
        <time>2020-08-06T17:26:30Z</time>
      </trkpt>
      <trkpt lat="40.9654690" lon="0.3185450">
        <ele>428.1</ele>
        <time>2020-08-06T17:26:31Z</time>
      </trkpt>
      <trkpt lat="40.9654790" lon="0.3185140">
        <ele>428.1</ele>
        <time>2020-08-06T17:26:32Z</time>
      </trkpt>
      <trkpt lat="40.9655010" lon="0.3184730">
        <ele>428.1</ele>
        <time>2020-08-06T17:26:34Z</time>
      </trkpt>
      <trkpt lat="40.9655140" lon="0.3184340">
        <ele>428.1</ele>
        <time>2020-08-06T17:26:35Z</time>
      </trkpt>
      <trkpt lat="40.9655280" lon="0.3184050">
        <ele>428.1</ele>
        <time>2020-08-06T17:26:36Z</time>
      </trkpt>
      <trkpt lat="40.9655410" lon="0.3183620">
        <ele>428.2</ele>
        <time>2020-08-06T17:26:38Z</time>
      </trkpt>
      <trkpt lat="40.9655580" lon="0.3183280">
        <ele>428.2</ele>
        <time>2020-08-06T17:26:39Z</time>
      </trkpt>
      <trkpt lat="40.9655790" lon="0.3182700">
        <ele>428.2</ele>
        <time>2020-08-06T17:26:41Z</time>
      </trkpt>
      <trkpt lat="40.9655870" lon="0.3182520">
        <ele>428.3</ele>
        <time>2020-08-06T17:26:42Z</time>
      </trkpt>
      <trkpt lat="40.9655950" lon="0.3182330">
        <ele>428.3</ele>
        <time>2020-08-06T17:26:43Z</time>
      </trkpt>
      <trkpt lat="40.9656020" lon="0.3182170">
        <ele>428.3</ele>
        <time>2020-08-06T17:26:44Z</time>
      </trkpt>
      <trkpt lat="40.9656080" lon="0.3181930">
        <ele>428.3</ele>
        <time>2020-08-06T17:26:46Z</time>
      </trkpt>
      <trkpt lat="40.9656080" lon="0.3181880">
        <ele>428.3</ele>
        <time>2020-08-06T17:26:47Z</time>
      </trkpt>
      <trkpt lat="40.9656130" lon="0.3181750">
        <ele>428.4</ele>
        <time>2020-08-06T17:26:49Z</time>
      </trkpt>
      <trkpt lat="40.9656110" lon="0.3181660">
        <ele>428.4</ele>
        <time>2020-08-06T17:26:50Z</time>
      </trkpt>
      <trkpt lat="40.9656100" lon="0.3181560">
        <ele>428.4</ele>
        <time>2020-08-06T17:26:51Z</time>
      </trkpt>
      <trkpt lat="40.9656060" lon="0.3181480">
        <ele>428.4</ele>
        <time>2020-08-06T17:26:52Z</time>
      </trkpt>
      <trkpt lat="40.9655970" lon="0.3181330">
        <ele>426.8</ele>
        <time>2020-08-06T17:26:54Z</time>
      </trkpt>
      <trkpt lat="40.9655860" lon="0.3181190">
        <ele>426.8</ele>
        <time>2020-08-06T17:26:56Z</time>
      </trkpt>
      <trkpt lat="40.9655740" lon="0.3181050">
        <ele>426.9</ele>
        <time>2020-08-06T17:26:57Z</time>
      </trkpt>
      <trkpt lat="40.9655640" lon="0.3180940">
        <ele>427.0</ele>
        <time>2020-08-06T17:26:58Z</time>
      </trkpt>
      <trkpt lat="40.9655540" lon="0.3180820">
        <ele>427.0</ele>
        <time>2020-08-06T17:26:59Z</time>
      </trkpt>
      <trkpt lat="40.9655010" lon="0.3180110">
        <ele>427.3</ele>
        <time>2020-08-06T17:27:01Z</time>
      </trkpt>
      <trkpt lat="40.9654730" lon="0.3179800">
        <ele>427.4</ele>
        <time>2020-08-06T17:27:02Z</time>
      </trkpt>
      <trkpt lat="40.9654320" lon="0.3179380">
        <ele>427.6</ele>
        <time>2020-08-06T17:27:04Z</time>
      </trkpt>
      <trkpt lat="40.9654010" lon="0.3179100">
        <ele>427.7</ele>
        <time>2020-08-06T17:27:05Z</time>
      </trkpt>
      <trkpt lat="40.9653740" lon="0.3178750">
        <ele>427.9</ele>
        <time>2020-08-06T17:27:06Z</time>
      </trkpt>
      <trkpt lat="40.9653470" lon="0.3178530">
        <ele>428.0</ele>
        <time>2020-08-06T17:27:07Z</time>
      </trkpt>
      <trkpt lat="40.9653380" lon="0.3178450">
        <ele>428.1</ele>
        <time>2020-08-06T17:27:08Z</time>
      </trkpt>
      <trkpt lat="40.9652970" lon="0.3178100">
        <ele>428.3</ele>
        <time>2020-08-06T17:27:10Z</time>
      </trkpt>
      <trkpt lat="40.9652840" lon="0.3178020">
        <ele>428.4</ele>
        <time>2020-08-06T17:27:11Z</time>
      </trkpt>
      <trkpt lat="40.9652710" lon="0.3177940">
        <ele>428.5</ele>
        <time>2020-08-06T17:27:12Z</time>
      </trkpt>
      <trkpt lat="40.9652540" lon="0.3177730">
        <ele>428.6</ele>
        <time>2020-08-06T17:27:13Z</time>
      </trkpt>
      <trkpt lat="40.9652240" lon="0.3177500">
        <ele>428.8</ele>
        <time>2020-08-06T17:27:15Z</time>
      </trkpt>
      <trkpt lat="40.9652070" lon="0.3177380">
        <ele>428.9</ele>
        <time>2020-08-06T17:27:16Z</time>
      </trkpt>
      <trkpt lat="40.9651850" lon="0.3177180">
        <ele>429.0</ele>
        <time>2020-08-06T17:27:18Z</time>
      </trkpt>
      <trkpt lat="40.9651580" lon="0.3176980">
        <ele>429.2</ele>
        <time>2020-08-06T17:27:19Z</time>
      </trkpt>
      <trkpt lat="40.9651520" lon="0.3176900">
        <ele>429.2</ele>
        <time>2020-08-06T17:27:20Z</time>
      </trkpt>
      <trkpt lat="40.9651400" lon="0.3176710">
        <ele>429.3</ele>
        <time>2020-08-06T17:27:21Z</time>
      </trkpt>
      <trkpt lat="40.9651150" lon="0.3176390">
        <ele>429.5</ele>
        <time>2020-08-06T17:27:23Z</time>
      </trkpt>
      <trkpt lat="40.9650970" lon="0.3175760">
        <ele>429.8</ele>
        <time>2020-08-06T17:27:28Z</time>
      </trkpt>
      <trkpt lat="40.9650840" lon="0.3175420">
        <ele>430.0</ele>
        <time>2020-08-06T17:27:29Z</time>
      </trkpt>
      <trkpt lat="40.9650540" lon="0.3174890">
        <ele>430.3</ele>
        <time>2020-08-06T17:27:31Z</time>
      </trkpt>
      <trkpt lat="40.9650390" lon="0.3174540">
        <ele>430.5</ele>
        <time>2020-08-06T17:27:32Z</time>
      </trkpt>
      <trkpt lat="40.9650340" lon="0.3174420">
        <ele>430.5</ele>
        <time>2020-08-06T17:27:33Z</time>
      </trkpt>
      <trkpt lat="40.9650190" lon="0.3173860">
        <ele>430.8</ele>
        <time>2020-08-06T17:27:35Z</time>
      </trkpt>
      <trkpt lat="40.9650080" lon="0.3173480">
        <ele>431.0</ele>
        <time>2020-08-06T17:27:36Z</time>
      </trkpt>
      <trkpt lat="40.9650040" lon="0.3173350">
        <ele>431.1</ele>
        <time>2020-08-06T17:27:37Z</time>
      </trkpt>
      <trkpt lat="40.9649940" lon="0.3172830">
        <ele>431.4</ele>
        <time>2020-08-06T17:27:39Z</time>
      </trkpt>
      <trkpt lat="40.9649890" lon="0.3172410">
        <ele>431.6</ele>
        <time>2020-08-06T17:27:40Z</time>
      </trkpt>
      <trkpt lat="40.9649880" lon="0.3172230">
        <ele>431.7</ele>
        <time>2020-08-06T17:27:41Z</time>
      </trkpt>
      <trkpt lat="40.9649860" lon="0.3171750">
        <ele>431.9</ele>
        <time>2020-08-06T17:27:43Z</time>
      </trkpt>
      <trkpt lat="40.9649680" lon="0.3171330">
        <ele>432.1</ele>
        <time>2020-08-06T17:27:45Z</time>
      </trkpt>
      <trkpt lat="40.9649710" lon="0.3170730">
        <ele>432.4</ele>
        <time>2020-08-06T17:27:46Z</time>
      </trkpt>
      <trkpt lat="40.9649700" lon="0.3170470">
        <ele>432.6</ele>
        <time>2020-08-06T17:27:47Z</time>
      </trkpt>
      <trkpt lat="40.9649720" lon="0.3169950">
        <ele>432.8</ele>
        <time>2020-08-06T17:27:49Z</time>
      </trkpt>
      <trkpt lat="40.9649700" lon="0.3169680">
        <ele>432.9</ele>
        <time>2020-08-06T17:27:50Z</time>
      </trkpt>
      <trkpt lat="40.9649670" lon="0.3169040">
        <ele>433.2</ele>
        <time>2020-08-06T17:27:52Z</time>
      </trkpt>
      <trkpt lat="40.9649660" lon="0.3168590">
        <ele>433.4</ele>
        <time>2020-08-06T17:27:53Z</time>
      </trkpt>
      <trkpt lat="40.9649630" lon="0.3168450">
        <ele>433.5</ele>
        <time>2020-08-06T17:27:54Z</time>
      </trkpt>
      <trkpt lat="40.9649600" lon="0.3167980">
        <ele>433.7</ele>
        <time>2020-08-06T17:27:56Z</time>
      </trkpt>
      <trkpt lat="40.9649590" lon="0.3167790">
        <ele>433.8</ele>
        <time>2020-08-06T17:27:57Z</time>
      </trkpt>
      <trkpt lat="40.9649560" lon="0.3167350">
        <ele>434.0</ele>
        <time>2020-08-06T17:27:58Z</time>
      </trkpt>
      <trkpt lat="40.9649550" lon="0.3167200">
        <ele>434.1</ele>
        <time>2020-08-06T17:27:59Z</time>
      </trkpt>
      <trkpt lat="40.9649500" lon="0.3166570">
        <ele>434.4</ele>
        <time>2020-08-06T17:28:01Z</time>
      </trkpt>
      <trkpt lat="40.9649430" lon="0.3166060">
        <ele>434.7</ele>
        <time>2020-08-06T17:28:03Z</time>
      </trkpt>
      <trkpt lat="40.9649370" lon="0.3165610">
        <ele>434.9</ele>
        <time>2020-08-06T17:28:04Z</time>
      </trkpt>
      <trkpt lat="40.9649300" lon="0.3165070">
        <ele>435.2</ele>
        <time>2020-08-06T17:28:06Z</time>
      </trkpt>
      <trkpt lat="40.9649270" lon="0.3164680">
        <ele>435.4</ele>
        <time>2020-08-06T17:28:07Z</time>
      </trkpt>
      <trkpt lat="40.9649190" lon="0.3164120">
        <ele>435.7</ele>
        <time>2020-08-06T17:28:09Z</time>
      </trkpt>
      <trkpt lat="40.9649160" lon="0.3163760">
        <ele>435.8</ele>
        <time>2020-08-06T17:28:10Z</time>
      </trkpt>
      <trkpt lat="40.9649140" lon="0.3163310">
        <ele>436.0</ele>
        <time>2020-08-06T17:28:11Z</time>
      </trkpt>
      <trkpt lat="40.9649110" lon="0.3162810">
        <ele>436.3</ele>
        <time>2020-08-06T17:28:13Z</time>
      </trkpt>
      <trkpt lat="40.9649080" lon="0.3162190">
        <ele>436.6</ele>
        <time>2020-08-06T17:28:14Z</time>
      </trkpt>
      <trkpt lat="40.9649120" lon="0.3161840">
        <ele>436.7</ele>
        <time>2020-08-06T17:28:15Z</time>
      </trkpt>
      <trkpt lat="40.9649100" lon="0.3161330">
        <ele>437.0</ele>
        <time>2020-08-06T17:28:17Z</time>
      </trkpt>
      <trkpt lat="40.9649070" lon="0.3160880">
        <ele>437.2</ele>
        <time>2020-08-06T17:28:18Z</time>
      </trkpt>
      <trkpt lat="40.9649080" lon="0.3160590">
        <ele>437.4</ele>
        <time>2020-08-06T17:28:19Z</time>
      </trkpt>
      <trkpt lat="40.9649020" lon="0.3159970">
        <ele>437.7</ele>
        <time>2020-08-06T17:28:21Z</time>
      </trkpt>
      <trkpt lat="40.9649000" lon="0.3159560">
        <ele>437.9</ele>
        <time>2020-08-06T17:28:22Z</time>
      </trkpt>
      <trkpt lat="40.9648990" lon="0.3159440">
        <ele>438.0</ele>
        <time>2020-08-06T17:28:23Z</time>
      </trkpt>
      <trkpt lat="40.9648960" lon="0.3158780">
        <ele>438.3</ele>
        <time>2020-08-06T17:28:25Z</time>
      </trkpt>
      <trkpt lat="40.9648980" lon="0.3158310">
        <ele>438.5</ele>
        <time>2020-08-06T17:28:26Z</time>
      </trkpt>
      <trkpt lat="40.9648970" lon="0.3158180">
        <ele>438.6</ele>
        <time>2020-08-06T17:28:27Z</time>
      </trkpt>
      <trkpt lat="40.9648920" lon="0.3157630">
        <ele>438.9</ele>
        <time>2020-08-06T17:28:29Z</time>
      </trkpt>
      <trkpt lat="40.9648900" lon="0.3157370">
        <ele>439.0</ele>
        <time>2020-08-06T17:28:30Z</time>
      </trkpt>
      <trkpt lat="40.9648870" lon="0.3156870">
        <ele>439.3</ele>
        <time>2020-08-06T17:28:32Z</time>
      </trkpt>
      <trkpt lat="40.9648850" lon="0.3156510">
        <ele>439.5</ele>
        <time>2020-08-06T17:28:33Z</time>
      </trkpt>
      <trkpt lat="40.9648840" lon="0.3156180">
        <ele>439.6</ele>
        <time>2020-08-06T17:28:34Z</time>
      </trkpt>
      <trkpt lat="40.9648810" lon="0.3155750">
        <ele>439.8</ele>
        <time>2020-08-06T17:28:36Z</time>
      </trkpt>
      <trkpt lat="40.9648790" lon="0.3155480">
        <ele>440.0</ele>
        <time>2020-08-06T17:28:37Z</time>
      </trkpt>
      <trkpt lat="40.9648730" lon="0.3154860">
        <ele>440.3</ele>
        <time>2020-08-06T17:28:39Z</time>
      </trkpt>
      <trkpt lat="40.9648680" lon="0.3154440">
        <ele>440.5</ele>
        <time>2020-08-06T17:28:40Z</time>
      </trkpt>
      <trkpt lat="40.9648650" lon="0.3154300">
        <ele>440.6</ele>
        <time>2020-08-06T17:28:41Z</time>
      </trkpt>
      <trkpt lat="40.9648510" lon="0.3153790">
        <ele>440.8</ele>
        <time>2020-08-06T17:28:43Z</time>
      </trkpt>
      <trkpt lat="40.9648380" lon="0.3153310">
        <ele>441.1</ele>
        <time>2020-08-06T17:28:45Z</time>
      </trkpt>
      <trkpt lat="40.9648280" lon="0.3153080">
        <ele>441.2</ele>
        <time>2020-08-06T17:28:46Z</time>
      </trkpt>
      <trkpt lat="40.9648010" lon="0.3152590">
        <ele>441.5</ele>
        <time>2020-08-06T17:28:48Z</time>
      </trkpt>
      <trkpt lat="40.9647820" lon="0.3152270">
        <ele>441.7</ele>
        <time>2020-08-06T17:28:49Z</time>
      </trkpt>
      <trkpt lat="40.9647610" lon="0.3151870">
        <ele>441.9</ele>
        <time>2020-08-06T17:28:50Z</time>
      </trkpt>
      <trkpt lat="40.9647520" lon="0.3151740">
        <ele>442.0</ele>
        <time>2020-08-06T17:28:51Z</time>
      </trkpt>
      <trkpt lat="40.9647300" lon="0.3151440">
        <ele>442.2</ele>
        <time>2020-08-06T17:28:52Z</time>
      </trkpt>
      <trkpt lat="40.9647220" lon="0.3151350">
        <ele>442.3</ele>
        <time>2020-08-06T17:28:53Z</time>
      </trkpt>
      <trkpt lat="40.9647070" lon="0.3151240">
        <ele>442.4</ele>
        <time>2020-08-06T17:28:54Z</time>
      </trkpt>
      <trkpt lat="40.9646720" lon="0.3151020">
        <ele>442.7</ele>
        <time>2020-08-06T17:28:56Z</time>
      </trkpt>
      <trkpt lat="40.9646430" lon="0.3150840">
        <ele>442.9</ele>
        <time>2020-08-06T17:28:58Z</time>
      </trkpt>
      <trkpt lat="40.9646190" lon="0.3150710">
        <ele>443.1</ele>
        <time>2020-08-06T17:28:59Z</time>
      </trkpt>
      <trkpt lat="40.9645790" lon="0.3150470">
        <ele>443.4</ele>
        <time>2020-08-06T17:29:01Z</time>
      </trkpt>
      <trkpt lat="40.9645620" lon="0.3150350">
        <ele>443.5</ele>
        <time>2020-08-06T17:29:02Z</time>
      </trkpt>
      <trkpt lat="40.9645170" lon="0.3149960">
        <ele>443.8</ele>
        <time>2020-08-06T17:29:04Z</time>
      </trkpt>
      <trkpt lat="40.9644990" lon="0.3149820">
        <ele>444.0</ele>
        <time>2020-08-06T17:29:05Z</time>
      </trkpt>
      <trkpt lat="40.9644740" lon="0.3149570">
        <ele>444.2</ele>
        <time>2020-08-06T17:29:07Z</time>
      </trkpt>
      <trkpt lat="40.9644450" lon="0.3149310">
        <ele>444.4</ele>
        <time>2020-08-06T17:29:08Z</time>
      </trkpt>
      <trkpt lat="40.9644350" lon="0.3149230">
        <ele>444.5</ele>
        <time>2020-08-06T17:29:09Z</time>
      </trkpt>
      <trkpt lat="40.9644080" lon="0.3148990">
        <ele>444.6</ele>
        <time>2020-08-06T17:29:10Z</time>
      </trkpt>
      <trkpt lat="40.9643990" lon="0.3148920">
        <ele>444.7</ele>
        <time>2020-08-06T17:29:11Z</time>
      </trkpt>
      <trkpt lat="40.9643730" lon="0.3148710">
        <ele>444.9</ele>
        <time>2020-08-06T17:29:12Z</time>
      </trkpt>
      <trkpt lat="40.9643450" lon="0.3148550">
        <ele>445.1</ele>
        <time>2020-08-06T17:29:14Z</time>
      </trkpt>
      <trkpt lat="40.9643180" lon="0.3148490">
        <ele>445.3</ele>
        <time>2020-08-06T17:29:15Z</time>
      </trkpt>
      <trkpt lat="40.9643010" lon="0.3148370">
        <ele>445.4</ele>
        <time>2020-08-06T17:29:16Z</time>
      </trkpt>
      <trkpt lat="40.9642720" lon="0.3148070">
        <ele>445.6</ele>
        <time>2020-08-06T17:29:18Z</time>
      </trkpt>
      <trkpt lat="40.9642440" lon="0.3147820">
        <ele>445.8</ele>
        <time>2020-08-06T17:29:19Z</time>
      </trkpt>
      <trkpt lat="40.9642350" lon="0.3147740">
        <ele>445.9</ele>
        <time>2020-08-06T17:29:20Z</time>
      </trkpt>
      <trkpt lat="40.9642190" lon="0.3147560">
        <ele>446.0</ele>
        <time>2020-08-06T17:29:21Z</time>
      </trkpt>
      <trkpt lat="40.9641820" lon="0.3147290">
        <ele>446.3</ele>
        <time>2020-08-06T17:29:23Z</time>
      </trkpt>
      <trkpt lat="40.9641400" lon="0.3147040">
        <ele>446.5</ele>
        <time>2020-08-06T17:29:25Z</time>
      </trkpt>
      <trkpt lat="40.9641130" lon="0.3146860">
        <ele>446.7</ele>
        <time>2020-08-06T17:29:26Z</time>
      </trkpt>
      <trkpt lat="40.9641030" lon="0.3146800">
        <ele>446.8</ele>
        <time>2020-08-06T17:29:27Z</time>
      </trkpt>
      <trkpt lat="40.9640670" lon="0.3146620">
        <ele>447.0</ele>
        <time>2020-08-06T17:29:29Z</time>
      </trkpt>
      <trkpt lat="40.9640330" lon="0.3146410">
        <ele>447.2</ele>
        <time>2020-08-06T17:29:31Z</time>
      </trkpt>
      <trkpt lat="40.9640200" lon="0.3146290">
        <ele>447.3</ele>
        <time>2020-08-06T17:29:32Z</time>
      </trkpt>
      <trkpt lat="40.9640060" lon="0.3146130">
        <ele>447.4</ele>
        <time>2020-08-06T17:29:33Z</time>
      </trkpt>
      <trkpt lat="40.9639730" lon="0.3145850">
        <ele>447.6</ele>
        <time>2020-08-06T17:29:35Z</time>
      </trkpt>
      <trkpt lat="40.9639450" lon="0.3145630">
        <ele>447.8</ele>
        <time>2020-08-06T17:29:37Z</time>
      </trkpt>
      <trkpt lat="40.9639190" lon="0.3145440">
        <ele>448.0</ele>
        <time>2020-08-06T17:29:38Z</time>
      </trkpt>
      <trkpt lat="40.9638860" lon="0.3145230">
        <ele>448.2</ele>
        <time>2020-08-06T17:29:40Z</time>
      </trkpt>
      <trkpt lat="40.9638560" lon="0.3144980">
        <ele>448.5</ele>
        <time>2020-08-06T17:29:41Z</time>
      </trkpt>
      <trkpt lat="40.9638430" lon="0.3144860">
        <ele>448.6</ele>
        <time>2020-08-06T17:29:42Z</time>
      </trkpt>
      <trkpt lat="40.9638120" lon="0.3144610">
        <ele>448.8</ele>
        <time>2020-08-06T17:29:43Z</time>
      </trkpt>
      <trkpt lat="40.9638010" lon="0.3144520">
        <ele>448.9</ele>
        <time>2020-08-06T17:29:44Z</time>
      </trkpt>
      <trkpt lat="40.9637700" lon="0.3144240">
        <ele>449.1</ele>
        <time>2020-08-06T17:29:46Z</time>
      </trkpt>
      <trkpt lat="40.9637530" lon="0.3144100">
        <ele>449.2</ele>
        <time>2020-08-06T17:29:47Z</time>
      </trkpt>
      <trkpt lat="40.9637180" lon="0.3143710">
        <ele>449.5</ele>
        <time>2020-08-06T17:29:49Z</time>
      </trkpt>
      <trkpt lat="40.9636840" lon="0.3143310">
        <ele>449.7</ele>
        <time>2020-08-06T17:29:51Z</time>
      </trkpt>
      <trkpt lat="40.9636470" lon="0.3142940">
        <ele>449.9</ele>
        <time>2020-08-06T17:29:53Z</time>
      </trkpt>
      <trkpt lat="40.9636140" lon="0.3142640">
        <ele>450.1</ele>
        <time>2020-08-06T17:29:55Z</time>
      </trkpt>
      <trkpt lat="40.9635840" lon="0.3142370">
        <ele>450.3</ele>
        <time>2020-08-06T17:29:57Z</time>
      </trkpt>
      <trkpt lat="40.9635540" lon="0.3142100">
        <ele>450.5</ele>
        <time>2020-08-06T17:29:59Z</time>
      </trkpt>
      <trkpt lat="40.9635250" lon="0.3141830">
        <ele>450.7</ele>
        <time>2020-08-06T17:30:00Z</time>
      </trkpt>
      <trkpt lat="40.9635170" lon="0.3141750">
        <ele>450.8</ele>
        <time>2020-08-06T17:30:01Z</time>
      </trkpt>
      <trkpt lat="40.9634820" lon="0.3141480">
        <ele>451.0</ele>
        <time>2020-08-06T17:30:03Z</time>
      </trkpt>
      <trkpt lat="40.9634610" lon="0.3141220">
        <ele>451.2</ele>
        <time>2020-08-06T17:30:04Z</time>
      </trkpt>
      <trkpt lat="40.9634530" lon="0.3141130">
        <ele>451.2</ele>
        <time>2020-08-06T17:30:05Z</time>
      </trkpt>
      <trkpt lat="40.9634270" lon="0.3140860">
        <ele>451.4</ele>
        <time>2020-08-06T17:30:06Z</time>
      </trkpt>
      <trkpt lat="40.9634190" lon="0.3140770">
        <ele>451.5</ele>
        <time>2020-08-06T17:30:07Z</time>
      </trkpt>
      <trkpt lat="40.9633890" lon="0.3140360">
        <ele>451.7</ele>
        <time>2020-08-06T17:30:09Z</time>
      </trkpt>
      <trkpt lat="40.9633620" lon="0.3139990">
        <ele>452.0</ele>
        <time>2020-08-06T17:30:11Z</time>
      </trkpt>
      <trkpt lat="40.9633370" lon="0.3139720">
        <ele>452.1</ele>
        <time>2020-08-06T17:30:12Z</time>
      </trkpt>
      <trkpt lat="40.9633200" lon="0.3139510">
        <ele>452.3</ele>
        <time>2020-08-06T17:30:13Z</time>
      </trkpt>
      <trkpt lat="40.9632900" lon="0.3139150">
        <ele>452.5</ele>
        <time>2020-08-06T17:30:15Z</time>
      </trkpt>
      <trkpt lat="40.9632640" lon="0.3138910">
        <ele>452.7</ele>
        <time>2020-08-06T17:30:16Z</time>
      </trkpt>
      <trkpt lat="40.9632360" lon="0.3138590">
        <ele>453.0</ele>
        <time>2020-08-06T17:30:17Z</time>
      </trkpt>
      <trkpt lat="40.9632270" lon="0.3138510">
        <ele>453.0</ele>
        <time>2020-08-06T17:30:18Z</time>
      </trkpt>
      <trkpt lat="40.9632070" lon="0.3138300">
        <ele>453.2</ele>
        <time>2020-08-06T17:30:19Z</time>
      </trkpt>
      <trkpt lat="40.9631720" lon="0.3137920">
        <ele>453.5</ele>
        <time>2020-08-06T17:30:21Z</time>
      </trkpt>
      <trkpt lat="40.9631550" lon="0.3137790">
        <ele>453.6</ele>
        <time>2020-08-06T17:30:22Z</time>
      </trkpt>
      <trkpt lat="40.9631270" lon="0.3137410">
        <ele>453.9</ele>
        <time>2020-08-06T17:30:24Z</time>
      </trkpt>
      <trkpt lat="40.9631100" lon="0.3137270">
        <ele>454.0</ele>
        <time>2020-08-06T17:30:25Z</time>
      </trkpt>
      <trkpt lat="40.9630810" lon="0.3137060">
        <ele>454.2</ele>
        <time>2020-08-06T17:30:27Z</time>
      </trkpt>
      <trkpt lat="40.9630410" lon="0.3136940">
        <ele>454.7</ele>
        <time>2020-08-06T17:30:28Z</time>
      </trkpt>
      <trkpt lat="40.9630260" lon="0.3136890">
        <ele>454.9</ele>
        <time>2020-08-06T17:30:29Z</time>
      </trkpt>
      <trkpt lat="40.9629850" lon="0.3136650">
        <ele>455.5</ele>
        <time>2020-08-06T17:30:31Z</time>
      </trkpt>
      <trkpt lat="40.9629510" lon="0.3136500">
        <ele>456.0</ele>
        <time>2020-08-06T17:30:32Z</time>
      </trkpt>
      <trkpt lat="40.9629380" lon="0.3136440">
        <ele>456.2</ele>
        <time>2020-08-06T17:30:33Z</time>
      </trkpt>
      <trkpt lat="40.9628980" lon="0.3136300">
        <ele>456.7</ele>
        <time>2020-08-06T17:30:35Z</time>
      </trkpt>
      <trkpt lat="40.9628600" lon="0.3136340">
        <ele>457.1</ele>
        <time>2020-08-06T17:30:36Z</time>
      </trkpt>
      <trkpt lat="40.9628440" lon="0.3136350">
        <ele>457.3</ele>
        <time>2020-08-06T17:30:37Z</time>
      </trkpt>
      <trkpt lat="40.9628050" lon="0.3136400">
        <ele>457.7</ele>
        <time>2020-08-06T17:30:39Z</time>
      </trkpt>
      <trkpt lat="40.9627710" lon="0.3136540">
        <ele>458.1</ele>
        <time>2020-08-06T17:30:40Z</time>
      </trkpt>
      <trkpt lat="40.9627420" lon="0.3136710">
        <ele>458.5</ele>
        <time>2020-08-06T17:30:42Z</time>
      </trkpt>
      <trkpt lat="40.9627210" lon="0.3136800">
        <ele>458.2</ele>
        <time>2020-08-06T17:30:43Z</time>
      </trkpt>
      <trkpt lat="40.9626850" lon="0.3137070">
        <ele>457.2</ele>
        <time>2020-08-06T17:30:45Z</time>
      </trkpt>
      <trkpt lat="40.9626660" lon="0.3137160">
        <ele>457.3</ele>
        <time>2020-08-06T17:30:46Z</time>
      </trkpt>
      <trkpt lat="40.9626410" lon="0.3137550">
        <ele>457.4</ele>
        <time>2020-08-06T17:30:48Z</time>
      </trkpt>
      <trkpt lat="40.9626130" lon="0.3137840">
        <ele>457.6</ele>
        <time>2020-08-06T17:30:49Z</time>
      </trkpt>
      <trkpt lat="40.9626010" lon="0.3138080">
        <ele>457.6</ele>
        <time>2020-08-06T17:30:50Z</time>
      </trkpt>
      <trkpt lat="40.9625750" lon="0.3138500">
        <ele>457.8</ele>
        <time>2020-08-06T17:30:52Z</time>
      </trkpt>
      <trkpt lat="40.9625660" lon="0.3138740">
        <ele>457.9</ele>
        <time>2020-08-06T17:30:53Z</time>
      </trkpt>
      <trkpt lat="40.9625400" lon="0.3139200">
        <ele>458.0</ele>
        <time>2020-08-06T17:30:55Z</time>
      </trkpt>
      <trkpt lat="40.9625310" lon="0.3139420">
        <ele>458.1</ele>
        <time>2020-08-06T17:30:56Z</time>
      </trkpt>
      <trkpt lat="40.9625280" lon="0.3139650">
        <ele>458.2</ele>
        <time>2020-08-06T17:30:57Z</time>
      </trkpt>
      <trkpt lat="40.9625070" lon="0.3140030">
        <ele>458.3</ele>
        <time>2020-08-06T17:30:59Z</time>
      </trkpt>
      <trkpt lat="40.9625010" lon="0.3140570">
        <ele>458.5</ele>
        <time>2020-08-06T17:31:01Z</time>
      </trkpt>
      <trkpt lat="40.9624980" lon="0.3140860">
        <ele>458.5</ele>
        <time>2020-08-06T17:31:02Z</time>
      </trkpt>
      <trkpt lat="40.9624950" lon="0.3141460">
        <ele>458.7</ele>
        <time>2020-08-06T17:31:04Z</time>
      </trkpt>
      <trkpt lat="40.9625000" lon="0.3141860">
        <ele>458.8</ele>
        <time>2020-08-06T17:31:05Z</time>
      </trkpt>
      <trkpt lat="40.9625020" lon="0.3141990">
        <ele>458.9</ele>
        <time>2020-08-06T17:31:06Z</time>
      </trkpt>
      <trkpt lat="40.9625050" lon="0.3142230">
        <ele>458.9</ele>
        <time>2020-08-06T17:31:07Z</time>
      </trkpt>
      <trkpt lat="40.9625100" lon="0.3142450">
        <ele>459.0</ele>
        <time>2020-08-06T17:31:08Z</time>
      </trkpt>
      <trkpt lat="40.9625160" lon="0.3142690">
        <ele>459.0</ele>
        <time>2020-08-06T17:31:09Z</time>
      </trkpt>
      <trkpt lat="40.9625350" lon="0.3143200">
        <ele>459.3</ele>
        <time>2020-08-06T17:31:11Z</time>
      </trkpt>
      <trkpt lat="40.9625460" lon="0.3143600">
        <ele>459.4</ele>
        <time>2020-08-06T17:31:13Z</time>
      </trkpt>
      <trkpt lat="40.9625590" lon="0.3143980">
        <ele>459.6</ele>
        <time>2020-08-06T17:31:14Z</time>
      </trkpt>
      <trkpt lat="40.9625740" lon="0.3144520">
        <ele>459.8</ele>
        <time>2020-08-06T17:31:16Z</time>
      </trkpt>
      <trkpt lat="40.9625860" lon="0.3144880">
        <ele>459.9</ele>
        <time>2020-08-06T17:31:17Z</time>
      </trkpt>
      <trkpt lat="40.9625900" lon="0.3145000">
        <ele>459.9</ele>
        <time>2020-08-06T17:31:18Z</time>
      </trkpt>
      <trkpt lat="40.9626000" lon="0.3145370">
        <ele>460.0</ele>
        <time>2020-08-06T17:31:19Z</time>
      </trkpt>
      <trkpt lat="40.9626040" lon="0.3145500">
        <ele>460.1</ele>
        <time>2020-08-06T17:31:20Z</time>
      </trkpt>
      <trkpt lat="40.9626050" lon="0.3145800">
        <ele>460.1</ele>
        <time>2020-08-06T17:31:21Z</time>
      </trkpt>
      <trkpt lat="40.9626100" lon="0.3146370">
        <ele>460.3</ele>
        <time>2020-08-06T17:31:23Z</time>
      </trkpt>
      <trkpt lat="40.9626100" lon="0.3146770">
        <ele>460.4</ele>
        <time>2020-08-06T17:31:24Z</time>
      </trkpt>
      <trkpt lat="40.9626100" lon="0.3146910">
        <ele>460.4</ele>
        <time>2020-08-06T17:31:25Z</time>
      </trkpt>
      <trkpt lat="40.9626050" lon="0.3147410">
        <ele>460.5</ele>
        <time>2020-08-06T17:31:27Z</time>
      </trkpt>
      <trkpt lat="40.9625990" lon="0.3148010">
        <ele>460.6</ele>
        <time>2020-08-06T17:31:29Z</time>
      </trkpt>
      <trkpt lat="40.9625940" lon="0.3148290">
        <ele>460.7</ele>
        <time>2020-08-06T17:31:30Z</time>
      </trkpt>
      <trkpt lat="40.9625890" lon="0.3148690">
        <ele>460.8</ele>
        <time>2020-08-06T17:31:32Z</time>
      </trkpt>
      <trkpt lat="40.9625860" lon="0.3149060">
        <ele>460.9</ele>
        <time>2020-08-06T17:31:33Z</time>
      </trkpt>
      <trkpt lat="40.9625840" lon="0.3149190">
        <ele>460.9</ele>
        <time>2020-08-06T17:31:34Z</time>
      </trkpt>
      <trkpt lat="40.9625800" lon="0.3149460">
        <ele>461.0</ele>
        <time>2020-08-06T17:31:35Z</time>
      </trkpt>
      <trkpt lat="40.9625740" lon="0.3150020">
        <ele>461.1</ele>
        <time>2020-08-06T17:31:37Z</time>
      </trkpt>
      <trkpt lat="40.9625700" lon="0.3150520">
        <ele>461.3</ele>
        <time>2020-08-06T17:31:38Z</time>
      </trkpt>
      <trkpt lat="40.9625680" lon="0.3150680">
        <ele>461.3</ele>
        <time>2020-08-06T17:31:39Z</time>
      </trkpt>
      <trkpt lat="40.9625670" lon="0.3151250">
        <ele>461.5</ele>
        <time>2020-08-06T17:31:41Z</time>
      </trkpt>
      <trkpt lat="40.9625630" lon="0.3151490">
        <ele>461.5</ele>
        <time>2020-08-06T17:31:42Z</time>
      </trkpt>
      <trkpt lat="40.9625610" lon="0.3152050">
        <ele>461.7</ele>
        <time>2020-08-06T17:31:44Z</time>
      </trkpt>
      <trkpt lat="40.9625580" lon="0.3152470">
        <ele>461.9</ele>
        <time>2020-08-06T17:31:45Z</time>
      </trkpt>
      <trkpt lat="40.9625570" lon="0.3152610">
        <ele>461.9</ele>
        <time>2020-08-06T17:31:46Z</time>
      </trkpt>
      <trkpt lat="40.9625600" lon="0.3152910">
        <ele>462.0</ele>
        <time>2020-08-06T17:31:47Z</time>
      </trkpt>
      <trkpt lat="40.9625590" lon="0.3153420">
        <ele>462.2</ele>
        <time>2020-08-06T17:31:49Z</time>
      </trkpt>
      <trkpt lat="40.9625580" lon="0.3153810">
        <ele>462.4</ele>
        <time>2020-08-06T17:31:50Z</time>
      </trkpt>
      <trkpt lat="40.9625580" lon="0.3154240">
        <ele>462.6</ele>
        <time>2020-08-06T17:31:51Z</time>
      </trkpt>
      <trkpt lat="40.9625570" lon="0.3154380">
        <ele>462.6</ele>
        <time>2020-08-06T17:31:52Z</time>
      </trkpt>
      <trkpt lat="40.9625680" lon="0.3154960">
        <ele>462.9</ele>
        <time>2020-08-06T17:31:54Z</time>
      </trkpt>
      <trkpt lat="40.9625670" lon="0.3155450">
        <ele>463.1</ele>
        <time>2020-08-06T17:31:56Z</time>
      </trkpt>
      <trkpt lat="40.9625620" lon="0.3155680">
        <ele>463.2</ele>
        <time>2020-08-06T17:31:57Z</time>
      </trkpt>
      <trkpt lat="40.9625550" lon="0.3155890">
        <ele>463.4</ele>
        <time>2020-08-06T17:31:59Z</time>
      </trkpt>
      <trkpt lat="40.9625540" lon="0.3155960">
        <ele>463.4</ele>
        <time>2020-08-06T17:32:05Z</time>
      </trkpt>
      <trkpt lat="40.9625540" lon="0.3155900">
        <ele>463.4</ele>
        <time>2020-08-06T17:32:06Z</time>
      </trkpt>
      <trkpt lat="40.9625550" lon="0.3155880">
        <ele>463.4</ele>
        <time>2020-08-06T17:32:07Z</time>
      </trkpt>
      <trkpt lat="40.9625480" lon="0.3156270">
        <ele>463.7</ele>
        <time>2020-08-06T17:32:24Z</time>
      </trkpt>
      <trkpt lat="40.9625400" lon="0.3156680">
        <ele>463.9</ele>
        <time>2020-08-06T17:32:26Z</time>
      </trkpt>
      <trkpt lat="40.9625260" lon="0.3157230">
        <ele>464.3</ele>
        <time>2020-08-06T17:32:28Z</time>
      </trkpt>
      <trkpt lat="40.9625120" lon="0.3157720">
        <ele>464.6</ele>
        <time>2020-08-06T17:32:30Z</time>
      </trkpt>
      <trkpt lat="40.9624990" lon="0.3158110">
        <ele>464.9</ele>
        <time>2020-08-06T17:32:31Z</time>
      </trkpt>
      <trkpt lat="40.9624940" lon="0.3158240">
        <ele>465.0</ele>
        <time>2020-08-06T17:32:32Z</time>
      </trkpt>
      <trkpt lat="40.9624830" lon="0.3158480">
        <ele>465.2</ele>
        <time>2020-08-06T17:32:33Z</time>
      </trkpt>
      <trkpt lat="40.9624670" lon="0.3158770">
        <ele>465.4</ele>
        <time>2020-08-06T17:32:35Z</time>
      </trkpt>
      <trkpt lat="40.9624520" lon="0.3159080">
        <ele>465.6</ele>
        <time>2020-08-06T17:32:36Z</time>
      </trkpt>
      <trkpt lat="40.9624370" lon="0.3159240">
        <ele>465.8</ele>
        <time>2020-08-06T17:32:37Z</time>
      </trkpt>
      <trkpt lat="40.9624250" lon="0.3159360">
        <ele>465.9</ele>
        <time>2020-08-06T17:32:38Z</time>
      </trkpt>
      <trkpt lat="40.9624090" lon="0.3159480">
        <ele>466.1</ele>
        <time>2020-08-06T17:32:39Z</time>
      </trkpt>
      <trkpt lat="40.9623810" lon="0.3159730">
        <ele>466.4</ele>
        <time>2020-08-06T17:32:41Z</time>
      </trkpt>
      <trkpt lat="40.9623690" lon="0.3159820">
        <ele>466.5</ele>
        <time>2020-08-06T17:32:42Z</time>
      </trkpt>
      <trkpt lat="40.9623510" lon="0.3159950">
        <ele>466.7</ele>
        <time>2020-08-06T17:32:44Z</time>
      </trkpt>
      <trkpt lat="40.9623350" lon="0.3160000">
        <ele>466.8</ele>
        <time>2020-08-06T17:32:46Z</time>
      </trkpt>
      <trkpt lat="40.9623290" lon="0.3160010">
        <ele>466.9</ele>
        <time>2020-08-06T17:32:47Z</time>
      </trkpt>
      <trkpt lat="40.9623230" lon="0.3160020">
        <ele>466.9</ele>
        <time>2020-08-06T17:32:48Z</time>
      </trkpt>
      <trkpt lat="40.9623150" lon="0.3160040">
        <ele>467.0</ele>
        <time>2020-08-06T17:32:49Z</time>
      </trkpt>
      <trkpt lat="40.9622960" lon="0.3160070">
        <ele>467.2</ele>
        <time>2020-08-06T17:32:51Z</time>
      </trkpt>
      <trkpt lat="40.9622730" lon="0.3160140">
        <ele>467.4</ele>
        <time>2020-08-06T17:32:53Z</time>
      </trkpt>
      <trkpt lat="40.9622300" lon="0.3160300">
        <ele>467.7</ele>
        <time>2020-08-06T17:32:54Z</time>
      </trkpt>
      <trkpt lat="40.9621980" lon="0.3160450">
        <ele>468.0</ele>
        <time>2020-08-06T17:32:55Z</time>
      </trkpt>
      <trkpt lat="40.9621870" lon="0.3160510">
        <ele>468.1</ele>
        <time>2020-08-06T17:32:56Z</time>
      </trkpt>
      <trkpt lat="40.9621630" lon="0.3160630">
        <ele>468.3</ele>
        <time>2020-08-06T17:32:57Z</time>
      </trkpt>
      <trkpt lat="40.9621010" lon="0.3161150">
        <ele>468.9</ele>
        <time>2020-08-06T17:32:59Z</time>
      </trkpt>
      <trkpt lat="40.9620760" lon="0.3161550">
        <ele>469.1</ele>
        <time>2020-08-06T17:33:01Z</time>
      </trkpt>
      <trkpt lat="40.9620540" lon="0.3161900">
        <ele>469.4</ele>
        <time>2020-08-06T17:33:03Z</time>
      </trkpt>
      <trkpt lat="40.9620450" lon="0.3162100">
        <ele>469.5</ele>
        <time>2020-08-06T17:33:04Z</time>
      </trkpt>
      <trkpt lat="40.9620360" lon="0.3162300">
        <ele>469.6</ele>
        <time>2020-08-06T17:33:05Z</time>
      </trkpt>
      <trkpt lat="40.9620210" lon="0.3162700">
        <ele>469.8</ele>
        <time>2020-08-06T17:33:07Z</time>
      </trkpt>
      <trkpt lat="40.9620130" lon="0.3162900">
        <ele>469.9</ele>
        <time>2020-08-06T17:33:08Z</time>
      </trkpt>
      <trkpt lat="40.9620050" lon="0.3163090">
        <ele>470.0</ele>
        <time>2020-08-06T17:33:09Z</time>
      </trkpt>
      <trkpt lat="40.9619970" lon="0.3163280">
        <ele>470.1</ele>
        <time>2020-08-06T17:33:10Z</time>
      </trkpt>
      <trkpt lat="40.9619860" lon="0.3163670">
        <ele>470.2</ele>
        <time>2020-08-06T17:33:12Z</time>
      </trkpt>
      <trkpt lat="40.9619820" lon="0.3163860">
        <ele>470.3</ele>
        <time>2020-08-06T17:33:13Z</time>
      </trkpt>
      <trkpt lat="40.9619770" lon="0.3164050">
        <ele>470.4</ele>
        <time>2020-08-06T17:33:14Z</time>
      </trkpt>
      <trkpt lat="40.9619630" lon="0.3164430">
        <ele>470.6</ele>
        <time>2020-08-06T17:33:16Z</time>
      </trkpt>
      <trkpt lat="40.9619500" lon="0.3164810">
        <ele>470.8</ele>
        <time>2020-08-06T17:33:18Z</time>
      </trkpt>
      <trkpt lat="40.9619430" lon="0.3165030">
        <ele>470.9</ele>
        <time>2020-08-06T17:33:19Z</time>
      </trkpt>
      <trkpt lat="40.9619380" lon="0.3165230">
        <ele>470.9</ele>
        <time>2020-08-06T17:33:20Z</time>
      </trkpt>
      <trkpt lat="40.9619260" lon="0.3165610">
        <ele>471.1</ele>
        <time>2020-08-06T17:33:22Z</time>
      </trkpt>
      <trkpt lat="40.9619190" lon="0.3165850">
        <ele>471.2</ele>
        <time>2020-08-06T17:33:23Z</time>
      </trkpt>
      <trkpt lat="40.9619080" lon="0.3166310">
        <ele>471.4</ele>
        <time>2020-08-06T17:33:25Z</time>
      </trkpt>
      <trkpt lat="40.9619030" lon="0.3166520">
        <ele>471.5</ele>
        <time>2020-08-06T17:33:26Z</time>
      </trkpt>
      <trkpt lat="40.9619000" lon="0.3166720">
        <ele>471.6</ele>
        <time>2020-08-06T17:33:27Z</time>
      </trkpt>
      <trkpt lat="40.9618990" lon="0.3167030">
        <ele>471.7</ele>
        <time>2020-08-06T17:33:29Z</time>
      </trkpt>
      <trkpt lat="40.9618910" lon="0.3167380">
        <ele>471.9</ele>
        <time>2020-08-06T17:33:31Z</time>
      </trkpt>
      <trkpt lat="40.9618880" lon="0.3167550">
        <ele>472.0</ele>
        <time>2020-08-06T17:33:32Z</time>
      </trkpt>
      <trkpt lat="40.9618830" lon="0.3167720">
        <ele>472.0</ele>
        <time>2020-08-06T17:33:33Z</time>
      </trkpt>
      <trkpt lat="40.9618780" lon="0.3167910">
        <ele>472.1</ele>
        <time>2020-08-06T17:33:34Z</time>
      </trkpt>
      <trkpt lat="40.9618690" lon="0.3168250">
        <ele>472.3</ele>
        <time>2020-08-06T17:33:36Z</time>
      </trkpt>
      <trkpt lat="40.9618670" lon="0.3168410">
        <ele>472.4</ele>
        <time>2020-08-06T17:33:37Z</time>
      </trkpt>
      <trkpt lat="40.9618620" lon="0.3168780">
        <ele>472.6</ele>
        <time>2020-08-06T17:33:39Z</time>
      </trkpt>
      <trkpt lat="40.9618600" lon="0.3168960">
        <ele>472.7</ele>
        <time>2020-08-06T17:33:40Z</time>
      </trkpt>
      <trkpt lat="40.9618580" lon="0.3169140">
        <ele>472.8</ele>
        <time>2020-08-06T17:33:41Z</time>
      </trkpt>
      <trkpt lat="40.9618570" lon="0.3169300">
        <ele>472.9</ele>
        <time>2020-08-06T17:33:42Z</time>
      </trkpt>
      <trkpt lat="40.9618510" lon="0.3169630">
        <ele>473.1</ele>
        <time>2020-08-06T17:33:44Z</time>
      </trkpt>
      <trkpt lat="40.9618450" lon="0.3169920">
        <ele>473.3</ele>
        <time>2020-08-06T17:33:45Z</time>
      </trkpt>
      <trkpt lat="40.9618430" lon="0.3170030">
        <ele>473.3</ele>
        <time>2020-08-06T17:33:46Z</time>
      </trkpt>
      <trkpt lat="40.9618400" lon="0.3170150">
        <ele>473.4</ele>
        <time>2020-08-06T17:33:47Z</time>
      </trkpt>
      <trkpt lat="40.9618340" lon="0.3170540">
        <ele>473.7</ele>
        <time>2020-08-06T17:33:49Z</time>
      </trkpt>
      <trkpt lat="40.9618290" lon="0.3170920">
        <ele>473.9</ele>
        <time>2020-08-06T17:33:51Z</time>
      </trkpt>
      <trkpt lat="40.9618260" lon="0.3171120">
        <ele>474.0</ele>
        <time>2020-08-06T17:33:52Z</time>
      </trkpt>
      <trkpt lat="40.9618200" lon="0.3171460">
        <ele>474.2</ele>
        <time>2020-08-06T17:33:54Z</time>
      </trkpt>
      <trkpt lat="40.9618190" lon="0.3171670">
        <ele>474.4</ele>
        <time>2020-08-06T17:33:55Z</time>
      </trkpt>
      <trkpt lat="40.9618110" lon="0.3172100">
        <ele>474.7</ele>
        <time>2020-08-06T17:33:57Z</time>
      </trkpt>
      <trkpt lat="40.9618010" lon="0.3172480">
        <ele>474.9</ele>
        <time>2020-08-06T17:33:59Z</time>
      </trkpt>
      <trkpt lat="40.9617960" lon="0.3172680">
        <ele>475.1</ele>
        <time>2020-08-06T17:34:00Z</time>
      </trkpt>
      <trkpt lat="40.9617860" lon="0.3173020">
        <ele>475.3</ele>
        <time>2020-08-06T17:34:02Z</time>
      </trkpt>
      <trkpt lat="40.9617810" lon="0.3173200">
        <ele>475.4</ele>
        <time>2020-08-06T17:34:03Z</time>
      </trkpt>
      <trkpt lat="40.9617740" lon="0.3173360">
        <ele>475.5</ele>
        <time>2020-08-06T17:34:04Z</time>
      </trkpt>
      <trkpt lat="40.9617590" lon="0.3173690">
        <ele>475.7</ele>
        <time>2020-08-06T17:34:06Z</time>
      </trkpt>
      <trkpt lat="40.9617420" lon="0.3173990">
        <ele>476.0</ele>
        <time>2020-08-06T17:34:08Z</time>
      </trkpt>
      <trkpt lat="40.9617310" lon="0.3174120">
        <ele>476.1</ele>
        <time>2020-08-06T17:34:09Z</time>
      </trkpt>
      <trkpt lat="40.9617200" lon="0.3174260">
        <ele>476.2</ele>
        <time>2020-08-06T17:34:10Z</time>
      </trkpt>
      <trkpt lat="40.9616980" lon="0.3174540">
        <ele>476.4</ele>
        <time>2020-08-06T17:34:12Z</time>
      </trkpt>
      <trkpt lat="40.9616870" lon="0.3174690">
        <ele>476.5</ele>
        <time>2020-08-06T17:34:13Z</time>
      </trkpt>
      <trkpt lat="40.9616760" lon="0.3174830">
        <ele>476.6</ele>
        <time>2020-08-06T17:34:14Z</time>
      </trkpt>
      <trkpt lat="40.9616640" lon="0.3174980">
        <ele>476.7</ele>
        <time>2020-08-06T17:34:15Z</time>
      </trkpt>
      <trkpt lat="40.9616520" lon="0.3175120">
        <ele>476.9</ele>
        <time>2020-08-06T17:34:16Z</time>
      </trkpt>
      <trkpt lat="40.9616250" lon="0.3175370">
        <ele>477.1</ele>
        <time>2020-08-06T17:34:18Z</time>
      </trkpt>
      <trkpt lat="40.9616110" lon="0.3175480">
        <ele>477.2</ele>
        <time>2020-08-06T17:34:19Z</time>
      </trkpt>
      <trkpt lat="40.9615950" lon="0.3175600">
        <ele>477.3</ele>
        <time>2020-08-06T17:34:20Z</time>
      </trkpt>
      <trkpt lat="40.9615790" lon="0.3175730">
        <ele>477.5</ele>
        <time>2020-08-06T17:34:21Z</time>
      </trkpt>
      <trkpt lat="40.9615470" lon="0.3175960">
        <ele>477.7</ele>
        <time>2020-08-06T17:34:23Z</time>
      </trkpt>
      <trkpt lat="40.9615320" lon="0.3176070">
        <ele>477.8</ele>
        <time>2020-08-06T17:34:24Z</time>
      </trkpt>
      <trkpt lat="40.9615180" lon="0.3176180">
        <ele>477.9</ele>
        <time>2020-08-06T17:34:25Z</time>
      </trkpt>
      <trkpt lat="40.9615030" lon="0.3176290">
        <ele>478.0</ele>
        <time>2020-08-06T17:34:26Z</time>
      </trkpt>
      <trkpt lat="40.9614740" lon="0.3176500">
        <ele>478.2</ele>
        <time>2020-08-06T17:34:28Z</time>
      </trkpt>
      <trkpt lat="40.9614600" lon="0.3176600">
        <ele>478.3</ele>
        <time>2020-08-06T17:34:29Z</time>
      </trkpt>
      <trkpt lat="40.9614460" lon="0.3176680">
        <ele>478.4</ele>
        <time>2020-08-06T17:34:30Z</time>
      </trkpt>
      <trkpt lat="40.9614110" lon="0.3176890">
        <ele>478.6</ele>
        <time>2020-08-06T17:34:32Z</time>
      </trkpt>
      <trkpt lat="40.9614000" lon="0.3176960">
        <ele>478.7</ele>
        <time>2020-08-06T17:34:33Z</time>
      </trkpt>
      <trkpt lat="40.9613820" lon="0.3177070">
        <ele>478.8</ele>
        <time>2020-08-06T17:34:34Z</time>
      </trkpt>
      <trkpt lat="40.9613630" lon="0.3177200">
        <ele>478.9</ele>
        <time>2020-08-06T17:34:35Z</time>
      </trkpt>
      <trkpt lat="40.9613310" lon="0.3177410">
        <ele>479.1</ele>
        <time>2020-08-06T17:34:37Z</time>
      </trkpt>
      <trkpt lat="40.9613150" lon="0.3177520">
        <ele>479.2</ele>
        <time>2020-08-06T17:34:38Z</time>
      </trkpt>
      <trkpt lat="40.9613030" lon="0.3177580">
        <ele>479.3</ele>
        <time>2020-08-06T17:34:39Z</time>
      </trkpt>
      <trkpt lat="40.9612660" lon="0.3177790">
        <ele>479.6</ele>
        <time>2020-08-06T17:34:41Z</time>
      </trkpt>
      <trkpt lat="40.9612550" lon="0.3177840">
        <ele>479.6</ele>
        <time>2020-08-06T17:34:42Z</time>
      </trkpt>
      <trkpt lat="40.9612430" lon="0.3177900">
        <ele>479.7</ele>
        <time>2020-08-06T17:34:43Z</time>
      </trkpt>
      <trkpt lat="40.9612200" lon="0.3178090">
        <ele>479.9</ele>
        <time>2020-08-06T17:34:44Z</time>
      </trkpt>
      <trkpt lat="40.9612110" lon="0.3178160">
        <ele>479.9</ele>
        <time>2020-08-06T17:34:45Z</time>
      </trkpt>
      <trkpt lat="40.9611790" lon="0.3178390">
        <ele>480.1</ele>
        <time>2020-08-06T17:34:47Z</time>
      </trkpt>
      <trkpt lat="40.9611620" lon="0.3178490">
        <ele>480.3</ele>
        <time>2020-08-06T17:34:48Z</time>
      </trkpt>
      <trkpt lat="40.9611300" lon="0.3178710">
        <ele>480.5</ele>
        <time>2020-08-06T17:34:50Z</time>
      </trkpt>
      <trkpt lat="40.9611130" lon="0.3178810">
        <ele>480.6</ele>
        <time>2020-08-06T17:34:51Z</time>
      </trkpt>
      <trkpt lat="40.9610790" lon="0.3179020">
        <ele>480.8</ele>
        <time>2020-08-06T17:34:53Z</time>
      </trkpt>
      <trkpt lat="40.9610620" lon="0.3179130">
        <ele>480.9</ele>
        <time>2020-08-06T17:34:54Z</time>
      </trkpt>
      <trkpt lat="40.9610470" lon="0.3179220">
        <ele>481.0</ele>
        <time>2020-08-06T17:34:55Z</time>
      </trkpt>
      <trkpt lat="40.9610150" lon="0.3179380">
        <ele>481.3</ele>
        <time>2020-08-06T17:34:57Z</time>
      </trkpt>
      <trkpt lat="40.9609970" lon="0.3179460">
        <ele>481.4</ele>
        <time>2020-08-06T17:34:58Z</time>
      </trkpt>
      <trkpt lat="40.9609630" lon="0.3179650">
        <ele>481.6</ele>
        <time>2020-08-06T17:35:00Z</time>
      </trkpt>
      <trkpt lat="40.9609470" lon="0.3179740">
        <ele>481.7</ele>
        <time>2020-08-06T17:35:01Z</time>
      </trkpt>
      <trkpt lat="40.9609320" lon="0.3179810">
        <ele>481.8</ele>
        <time>2020-08-06T17:35:02Z</time>
      </trkpt>
      <trkpt lat="40.9609030" lon="0.3179950">
        <ele>482.0</ele>
        <time>2020-08-06T17:35:04Z</time>
      </trkpt>
      <trkpt lat="40.9608750" lon="0.3180100">
        <ele>482.2</ele>
        <time>2020-08-06T17:35:06Z</time>
      </trkpt>
      <trkpt lat="40.9608600" lon="0.3180180">
        <ele>482.3</ele>
        <time>2020-08-06T17:35:07Z</time>
      </trkpt>
      <trkpt lat="40.9608440" lon="0.3180250">
        <ele>482.4</ele>
        <time>2020-08-06T17:35:08Z</time>
      </trkpt>
      <trkpt lat="40.9608300" lon="0.3180300">
        <ele>482.5</ele>
        <time>2020-08-06T17:35:09Z</time>
      </trkpt>
      <trkpt lat="40.9608110" lon="0.3180380">
        <ele>482.6</ele>
        <time>2020-08-06T17:35:10Z</time>
      </trkpt>
      <trkpt lat="40.9607730" lon="0.3180480">
        <ele>482.8</ele>
        <time>2020-08-06T17:35:12Z</time>
      </trkpt>
      <trkpt lat="40.9607350" lon="0.3180520">
        <ele>483.0</ele>
        <time>2020-08-06T17:35:14Z</time>
      </trkpt>
      <trkpt lat="40.9606890" lon="0.3180580">
        <ele>483.2</ele>
        <time>2020-08-06T17:35:16Z</time>
      </trkpt>
      <trkpt lat="40.9606690" lon="0.3180590">
        <ele>483.3</ele>
        <time>2020-08-06T17:35:17Z</time>
      </trkpt>
      <trkpt lat="40.9606300" lon="0.3180600">
        <ele>483.5</ele>
        <time>2020-08-06T17:35:19Z</time>
      </trkpt>
      <trkpt lat="40.9606100" lon="0.3180600">
        <ele>483.5</ele>
        <time>2020-08-06T17:35:20Z</time>
      </trkpt>
      <trkpt lat="40.9605650" lon="0.3180620">
        <ele>483.7</ele>
        <time>2020-08-06T17:35:22Z</time>
      </trkpt>
      <trkpt lat="40.9605220" lon="0.3180600">
        <ele>483.8</ele>
        <time>2020-08-06T17:35:24Z</time>
      </trkpt>
      <trkpt lat="40.9604810" lon="0.3180520">
        <ele>484.0</ele>
        <time>2020-08-06T17:35:26Z</time>
      </trkpt>
      <trkpt lat="40.9604480" lon="0.3180420">
        <ele>484.1</ele>
        <time>2020-08-06T17:35:27Z</time>
      </trkpt>
      <trkpt lat="40.9604000" lon="0.3180410">
        <ele>484.2</ele>
        <time>2020-08-06T17:35:29Z</time>
      </trkpt>
      <trkpt lat="40.9603640" lon="0.3180320">
        <ele>484.4</ele>
        <time>2020-08-06T17:35:30Z</time>
      </trkpt>
      <trkpt lat="40.9603530" lon="0.3180280">
        <ele>484.4</ele>
        <time>2020-08-06T17:35:31Z</time>
      </trkpt>
      <trkpt lat="40.9603210" lon="0.3180150">
        <ele>484.5</ele>
        <time>2020-08-06T17:35:33Z</time>
      </trkpt>
      <trkpt lat="40.9602890" lon="0.3180070">
        <ele>484.6</ele>
        <time>2020-08-06T17:35:34Z</time>
      </trkpt>
      <trkpt lat="40.9602460" lon="0.3179930">
        <ele>484.8</ele>
        <time>2020-08-06T17:35:36Z</time>
      </trkpt>
      <trkpt lat="40.9602210" lon="0.3179850">
        <ele>484.9</ele>
        <time>2020-08-06T17:35:37Z</time>
      </trkpt>
      <trkpt lat="40.9601810" lon="0.3179770">
        <ele>485.0</ele>
        <time>2020-08-06T17:35:39Z</time>
      </trkpt>
      <trkpt lat="40.9601470" lon="0.3179730">
        <ele>485.2</ele>
        <time>2020-08-06T17:35:40Z</time>
      </trkpt>
      <trkpt lat="40.9601360" lon="0.3179720">
        <ele>485.2</ele>
        <time>2020-08-06T17:35:41Z</time>
      </trkpt>
      <trkpt lat="40.9601170" lon="0.3179730">
        <ele>485.3</ele>
        <time>2020-08-06T17:35:42Z</time>
      </trkpt>
      <trkpt lat="40.9600750" lon="0.3179750">
        <ele>485.5</ele>
        <time>2020-08-06T17:35:44Z</time>
      </trkpt>
      <trkpt lat="40.9600460" lon="0.3179820">
        <ele>485.7</ele>
        <time>2020-08-06T17:35:45Z</time>
      </trkpt>
      <trkpt lat="40.9600090" lon="0.3179900">
        <ele>485.9</ele>
        <time>2020-08-06T17:35:47Z</time>
      </trkpt>
      <trkpt lat="40.9599720" lon="0.3180030">
        <ele>486.1</ele>
        <time>2020-08-06T17:35:48Z</time>
      </trkpt>
      <trkpt lat="40.9599600" lon="0.3180080">
        <ele>486.1</ele>
        <time>2020-08-06T17:35:49Z</time>
      </trkpt>
      <trkpt lat="40.9599320" lon="0.3180190">
        <ele>486.3</ele>
        <time>2020-08-06T17:35:50Z</time>
      </trkpt>
      <trkpt lat="40.9599230" lon="0.3180230">
        <ele>486.3</ele>
        <time>2020-08-06T17:35:51Z</time>
      </trkpt>
      <trkpt lat="40.9598880" lon="0.3180490">
        <ele>486.6</ele>
        <time>2020-08-06T17:35:53Z</time>
      </trkpt>
      <trkpt lat="40.9598590" lon="0.3180640">
        <ele>486.8</ele>
        <time>2020-08-06T17:35:54Z</time>
      </trkpt>
      <trkpt lat="40.9598490" lon="0.3180690">
        <ele>486.8</ele>
        <time>2020-08-06T17:35:55Z</time>
      </trkpt>
      <trkpt lat="40.9598300" lon="0.3180780">
        <ele>487.0</ele>
        <time>2020-08-06T17:35:56Z</time>
      </trkpt>
      <trkpt lat="40.9597880" lon="0.3180930">
        <ele>487.2</ele>
        <time>2020-08-06T17:35:58Z</time>
      </trkpt>
      <trkpt lat="40.9597530" lon="0.3181140">
        <ele>487.5</ele>
        <time>2020-08-06T17:36:00Z</time>
      </trkpt>
      <trkpt lat="40.9597200" lon="0.3181350">
        <ele>487.7</ele>
        <time>2020-08-06T17:36:02Z</time>
      </trkpt>
      <trkpt lat="40.9596840" lon="0.3181520">
        <ele>487.9</ele>
        <time>2020-08-06T17:36:04Z</time>
      </trkpt>
      <trkpt lat="40.9596500" lon="0.3181720">
        <ele>488.1</ele>
        <time>2020-08-06T17:36:06Z</time>
      </trkpt>
      <trkpt lat="40.9596300" lon="0.3181780">
        <ele>488.3</ele>
        <time>2020-08-06T17:36:07Z</time>
      </trkpt>
      <trkpt lat="40.9595930" lon="0.3181940">
        <ele>488.5</ele>
        <time>2020-08-06T17:36:09Z</time>
      </trkpt>
      <trkpt lat="40.9595620" lon="0.3182100">
        <ele>488.7</ele>
        <time>2020-08-06T17:36:10Z</time>
      </trkpt>
      <trkpt lat="40.9595300" lon="0.3182260">
        <ele>488.9</ele>
        <time>2020-08-06T17:36:12Z</time>
      </trkpt>
      <trkpt lat="40.9595020" lon="0.3182420">
        <ele>489.0</ele>
        <time>2020-08-06T17:36:13Z</time>
      </trkpt>
      <trkpt lat="40.9594750" lon="0.3182550">
        <ele>489.2</ele>
        <time>2020-08-06T17:36:14Z</time>
      </trkpt>
      <trkpt lat="40.9594410" lon="0.3182700">
        <ele>489.4</ele>
        <time>2020-08-06T17:36:16Z</time>
      </trkpt>
      <trkpt lat="40.9594110" lon="0.3182860">
        <ele>489.6</ele>
        <time>2020-08-06T17:36:17Z</time>
      </trkpt>
      <trkpt lat="40.9594010" lon="0.3182900">
        <ele>489.7</ele>
        <time>2020-08-06T17:36:18Z</time>
      </trkpt>
      <trkpt lat="40.9593840" lon="0.3182990">
        <ele>489.8</ele>
        <time>2020-08-06T17:36:19Z</time>
      </trkpt>
      <trkpt lat="40.9593460" lon="0.3183240">
        <ele>490.1</ele>
        <time>2020-08-06T17:36:21Z</time>
      </trkpt>
      <trkpt lat="40.9593270" lon="0.3183330">
        <ele>490.2</ele>
        <time>2020-08-06T17:36:22Z</time>
      </trkpt>
      <trkpt lat="40.9592860" lon="0.3183600">
        <ele>490.5</ele>
        <time>2020-08-06T17:36:24Z</time>
      </trkpt>
      <trkpt lat="40.9592480" lon="0.3183820">
        <ele>490.7</ele>
        <time>2020-08-06T17:36:26Z</time>
      </trkpt>
      <trkpt lat="40.9592290" lon="0.3183940">
        <ele>490.9</ele>
        <time>2020-08-06T17:36:27Z</time>
      </trkpt>
      <trkpt lat="40.9592030" lon="0.3184160">
        <ele>491.1</ele>
        <time>2020-08-06T17:36:29Z</time>
      </trkpt>
      <trkpt lat="40.9591790" lon="0.3184320">
        <ele>491.2</ele>
        <time>2020-08-06T17:36:30Z</time>
      </trkpt>
      <trkpt lat="40.9591430" lon="0.3184440">
        <ele>491.5</ele>
        <time>2020-08-06T17:36:32Z</time>
      </trkpt>
      <trkpt lat="40.9591270" lon="0.3184500">
        <ele>491.6</ele>
        <time>2020-08-06T17:36:33Z</time>
      </trkpt>
      <trkpt lat="40.9591010" lon="0.3184570">
        <ele>491.7</ele>
        <time>2020-08-06T17:36:35Z</time>
      </trkpt>
      <trkpt lat="40.9590760" lon="0.3184630">
        <ele>491.9</ele>
        <time>2020-08-06T17:36:36Z</time>
      </trkpt>
      <trkpt lat="40.9590400" lon="0.3184780">
        <ele>492.1</ele>
        <time>2020-08-06T17:36:38Z</time>
      </trkpt>
      <trkpt lat="40.9590220" lon="0.3184760">
        <ele>492.2</ele>
        <time>2020-08-06T17:36:39Z</time>
      </trkpt>
      <trkpt lat="40.9589860" lon="0.3184870">
        <ele>492.5</ele>
        <time>2020-08-06T17:36:41Z</time>
      </trkpt>
      <trkpt lat="40.9589410" lon="0.3184930">
        <ele>492.8</ele>
        <time>2020-08-06T17:36:43Z</time>
      </trkpt>
      <trkpt lat="40.9589180" lon="0.3184940">
        <ele>493.0</ele>
        <time>2020-08-06T17:36:44Z</time>
      </trkpt>
      <trkpt lat="40.9588840" lon="0.3184940">
        <ele>493.2</ele>
        <time>2020-08-06T17:36:46Z</time>
      </trkpt>
      <trkpt lat="40.9588600" lon="0.3184920">
        <ele>493.4</ele>
        <time>2020-08-06T17:36:47Z</time>
      </trkpt>
      <trkpt lat="40.9588230" lon="0.3184890">
        <ele>493.6</ele>
        <time>2020-08-06T17:36:49Z</time>
      </trkpt>
      <trkpt lat="40.9587870" lon="0.3184800">
        <ele>493.9</ele>
        <time>2020-08-06T17:36:51Z</time>
      </trkpt>
      <trkpt lat="40.9587690" lon="0.3184810">
        <ele>494.0</ele>
        <time>2020-08-06T17:36:52Z</time>
      </trkpt>
      <trkpt lat="40.9587350" lon="0.3184770">
        <ele>494.2</ele>
        <time>2020-08-06T17:36:54Z</time>
      </trkpt>
      <trkpt lat="40.9586990" lon="0.3184760">
        <ele>494.5</ele>
        <time>2020-08-06T17:36:56Z</time>
      </trkpt>
      <trkpt lat="40.9586550" lon="0.3184660">
        <ele>494.8</ele>
        <time>2020-08-06T17:36:58Z</time>
      </trkpt>
      <trkpt lat="40.9586230" lon="0.3184550">
        <ele>495.0</ele>
        <time>2020-08-06T17:37:00Z</time>
      </trkpt>
      <trkpt lat="40.9585880" lon="0.3184390">
        <ele>495.3</ele>
        <time>2020-08-06T17:37:02Z</time>
      </trkpt>
      <trkpt lat="40.9585560" lon="0.3184170">
        <ele>495.5</ele>
        <time>2020-08-06T17:37:04Z</time>
      </trkpt>
      <trkpt lat="40.9585400" lon="0.3184060">
        <ele>495.6</ele>
        <time>2020-08-06T17:37:05Z</time>
      </trkpt>
      <trkpt lat="40.9585080" lon="0.3183820">
        <ele>495.9</ele>
        <time>2020-08-06T17:37:07Z</time>
      </trkpt>
      <trkpt lat="40.9584950" lon="0.3183640">
        <ele>496.0</ele>
        <time>2020-08-06T17:37:08Z</time>
      </trkpt>
      <trkpt lat="40.9584610" lon="0.3183120">
        <ele>496.3</ele>
        <time>2020-08-06T17:37:10Z</time>
      </trkpt>
      <trkpt lat="40.9584400" lon="0.3182710">
        <ele>496.6</ele>
        <time>2020-08-06T17:37:11Z</time>
      </trkpt>
      <trkpt lat="40.9584330" lon="0.3182590">
        <ele>496.7</ele>
        <time>2020-08-06T17:37:12Z</time>
      </trkpt>
      <trkpt lat="40.9584130" lon="0.3182180">
        <ele>497.0</ele>
        <time>2020-08-06T17:37:14Z</time>
      </trkpt>
      <trkpt lat="40.9584020" lon="0.3181920">
        <ele>497.2</ele>
        <time>2020-08-06T17:37:15Z</time>
      </trkpt>
      <trkpt lat="40.9583870" lon="0.3181400">
        <ele>497.4</ele>
        <time>2020-08-06T17:37:17Z</time>
      </trkpt>
      <trkpt lat="40.9583790" lon="0.3180970">
        <ele>497.6</ele>
        <time>2020-08-06T17:37:19Z</time>
      </trkpt>
      <trkpt lat="40.9583740" lon="0.3180690">
        <ele>497.7</ele>
        <time>2020-08-06T17:37:20Z</time>
      </trkpt>
      <trkpt lat="40.9583620" lon="0.3180200">
        <ele>497.9</ele>
        <time>2020-08-06T17:37:22Z</time>
      </trkpt>
      <trkpt lat="40.9583530" lon="0.3179800">
        <ele>498.1</ele>
        <time>2020-08-06T17:37:23Z</time>
      </trkpt>
      <trkpt lat="40.9583500" lon="0.3179670">
        <ele>498.2</ele>
        <time>2020-08-06T17:37:24Z</time>
      </trkpt>
      <trkpt lat="40.9583340" lon="0.3179140">
        <ele>498.5</ele>
        <time>2020-08-06T17:37:26Z</time>
      </trkpt>
      <trkpt lat="40.9583280" lon="0.3178970">
        <ele>498.6</ele>
        <time>2020-08-06T17:37:27Z</time>
      </trkpt>
      <trkpt lat="40.9583230" lon="0.3178810">
        <ele>498.7</ele>
        <time>2020-08-06T17:37:28Z</time>
      </trkpt>
      <trkpt lat="40.9583050" lon="0.3178230">
        <ele>499.0</ele>
        <time>2020-08-06T17:37:30Z</time>
      </trkpt>
      <trkpt lat="40.9583000" lon="0.3178050">
        <ele>499.1</ele>
        <time>2020-08-06T17:37:31Z</time>
      </trkpt>
      <trkpt lat="40.9582940" lon="0.3177880">
        <ele>499.1</ele>
        <time>2020-08-06T17:37:32Z</time>
      </trkpt>
      <trkpt lat="40.9582810" lon="0.3177680">
        <ele>499.3</ele>
        <time>2020-08-06T17:37:33Z</time>
      </trkpt>
      <trkpt lat="40.9582630" lon="0.3177260">
        <ele>499.5</ele>
        <time>2020-08-06T17:37:35Z</time>
      </trkpt>
      <trkpt lat="40.9582450" lon="0.3176940">
        <ele>499.7</ele>
        <time>2020-08-06T17:37:36Z</time>
      </trkpt>
      <trkpt lat="40.9582200" lon="0.3176450">
        <ele>499.9</ele>
        <time>2020-08-06T17:37:38Z</time>
      </trkpt>
      <trkpt lat="40.9582070" lon="0.3176260">
        <ele>500.0</ele>
        <time>2020-08-06T17:37:39Z</time>
      </trkpt>
      <trkpt lat="40.9581760" lon="0.3175840">
        <ele>500.3</ele>
        <time>2020-08-06T17:37:41Z</time>
      </trkpt>
      <trkpt lat="40.9581620" lon="0.3175650">
        <ele>500.4</ele>
        <time>2020-08-06T17:37:42Z</time>
      </trkpt>
      <trkpt lat="40.9581340" lon="0.3175230">
        <ele>500.7</ele>
        <time>2020-08-06T17:37:44Z</time>
      </trkpt>
      <trkpt lat="40.9581120" lon="0.3174870">
        <ele>500.9</ele>
        <time>2020-08-06T17:37:45Z</time>
      </trkpt>
      <trkpt lat="40.9581050" lon="0.3174760">
        <ele>500.9</ele>
        <time>2020-08-06T17:37:46Z</time>
      </trkpt>
      <trkpt lat="40.9580820" lon="0.3174380">
        <ele>501.1</ele>
        <time>2020-08-06T17:37:48Z</time>
      </trkpt>
      <trkpt lat="40.9580530" lon="0.3173810">
        <ele>501.4</ele>
        <time>2020-08-06T17:37:50Z</time>
      </trkpt>
      <trkpt lat="40.9580440" lon="0.3173620">
        <ele>501.5</ele>
        <time>2020-08-06T17:37:52Z</time>
      </trkpt>
      <trkpt lat="40.9580340" lon="0.3173420">
        <ele>501.6</ele>
        <time>2020-08-06T17:37:53Z</time>
      </trkpt>
      <trkpt lat="40.9580240" lon="0.3173230">
        <ele>501.7</ele>
        <time>2020-08-06T17:37:54Z</time>
      </trkpt>
      <trkpt lat="40.9580120" lon="0.3173010">
        <ele>501.8</ele>
        <time>2020-08-06T17:37:55Z</time>
      </trkpt>
      <trkpt lat="40.9579840" lon="0.3172630">
        <ele>502.0</ele>
        <time>2020-08-06T17:37:57Z</time>
      </trkpt>
      <trkpt lat="40.9579480" lon="0.3172120">
        <ele>502.3</ele>
        <time>2020-08-06T17:37:59Z</time>
      </trkpt>
      <trkpt lat="40.9579330" lon="0.3171930">
        <ele>502.4</ele>
        <time>2020-08-06T17:38:00Z</time>
      </trkpt>
      <trkpt lat="40.9579220" lon="0.3171790">
        <ele>502.5</ele>
        <time>2020-08-06T17:38:01Z</time>
      </trkpt>
      <trkpt lat="40.9579000" lon="0.3171500">
        <ele>502.7</ele>
        <time>2020-08-06T17:38:03Z</time>
      </trkpt>
      <trkpt lat="40.9578900" lon="0.3171350">
        <ele>502.8</ele>
        <time>2020-08-06T17:38:04Z</time>
      </trkpt>
      <trkpt lat="40.9578800" lon="0.3171190">
        <ele>502.9</ele>
        <time>2020-08-06T17:38:05Z</time>
      </trkpt>
      <trkpt lat="40.9578700" lon="0.3171020">
        <ele>503.0</ele>
        <time>2020-08-06T17:38:06Z</time>
      </trkpt>
      <trkpt lat="40.9578450" lon="0.3170720">
        <ele>503.1</ele>
        <time>2020-08-06T17:38:08Z</time>
      </trkpt>
      <trkpt lat="40.9578350" lon="0.3170600">
        <ele>503.2</ele>
        <time>2020-08-06T17:38:09Z</time>
      </trkpt>
      <trkpt lat="40.9578240" lon="0.3170460">
        <ele>503.3</ele>
        <time>2020-08-06T17:38:10Z</time>
      </trkpt>
      <trkpt lat="40.9578030" lon="0.3170180">
        <ele>503.5</ele>
        <time>2020-08-06T17:38:12Z</time>
      </trkpt>
      <trkpt lat="40.9577900" lon="0.3170130">
        <ele>503.5</ele>
        <time>2020-08-06T17:38:13Z</time>
      </trkpt>
      <trkpt lat="40.9577790" lon="0.3170140">
        <ele>503.6</ele>
        <time>2020-08-06T17:38:14Z</time>
      </trkpt>
      <trkpt lat="40.9577630" lon="0.3170420">
        <ele>503.7</ele>
        <time>2020-08-06T17:38:16Z</time>
      </trkpt>
      <trkpt lat="40.9577600" lon="0.3170800">
        <ele>503.9</ele>
        <time>2020-08-06T17:38:18Z</time>
      </trkpt>
      <trkpt lat="40.9577590" lon="0.3170950">
        <ele>503.9</ele>
        <time>2020-08-06T17:38:19Z</time>
      </trkpt>
      <trkpt lat="40.9577580" lon="0.3171090">
        <ele>504.0</ele>
        <time>2020-08-06T17:38:21Z</time>
      </trkpt>
      <trkpt lat="40.9577580" lon="0.3171050">
        <ele>504.0</ele>
        <time>2020-08-06T17:38:22Z</time>
      </trkpt>
      <trkpt lat="40.9577570" lon="0.3171000">
        <ele>504.0</ele>
        <time>2020-08-06T17:38:23Z</time>
      </trkpt>
      <trkpt lat="40.9577690" lon="0.3170960">
        <ele>504.1</ele>
        <time>2020-08-06T17:38:30Z</time>
      </trkpt>
      <trkpt lat="40.9577700" lon="0.3170970">
        <ele>504.1</ele>
        <time>2020-08-06T17:38:31Z</time>
      </trkpt>
      <trkpt lat="40.9577920" lon="0.3170750">
        <ele>504.2</ele>
        <time>2020-08-06T17:38:53Z</time>
      </trkpt>
      <trkpt lat="40.9578010" lon="0.3170530">
        <ele>504.3</ele>
        <time>2020-08-06T17:38:55Z</time>
      </trkpt>
      <trkpt lat="40.9577950" lon="0.3170130">
        <ele>504.5</ele>
        <time>2020-08-06T17:38:57Z</time>
      </trkpt>
      <trkpt lat="40.9577820" lon="0.3169860">
        <ele>504.6</ele>
        <time>2020-08-06T17:38:59Z</time>
      </trkpt>
      <trkpt lat="40.9577770" lon="0.3169730">
        <ele>504.7</ele>
        <time>2020-08-06T17:39:00Z</time>
      </trkpt>
      <trkpt lat="40.9577700" lon="0.3169620">
        <ele>504.8</ele>
        <time>2020-08-06T17:39:01Z</time>
      </trkpt>
      <trkpt lat="40.9577650" lon="0.3169510">
        <ele>504.9</ele>
        <time>2020-08-06T17:39:02Z</time>
      </trkpt>
      <trkpt lat="40.9577540" lon="0.3169290">
        <ele>505.0</ele>
        <time>2020-08-06T17:39:04Z</time>
      </trkpt>
      <trkpt lat="40.9577520" lon="0.3169150">
        <ele>505.1</ele>
        <time>2020-08-06T17:39:05Z</time>
      </trkpt>
      <trkpt lat="40.9577440" lon="0.3168890">
        <ele>505.2</ele>
        <time>2020-08-06T17:39:07Z</time>
      </trkpt>
      <trkpt lat="40.9577350" lon="0.3168730">
        <ele>505.3</ele>
        <time>2020-08-06T17:39:08Z</time>
      </trkpt>
      <trkpt lat="40.9577270" lon="0.3168600">
        <ele>505.4</ele>
        <time>2020-08-06T17:39:09Z</time>
      </trkpt>
      <trkpt lat="40.9577110" lon="0.3168320">
        <ele>505.6</ele>
        <time>2020-08-06T17:39:11Z</time>
      </trkpt>
      <trkpt lat="40.9576880" lon="0.3167770">
        <ele>505.9</ele>
        <time>2020-08-06T17:39:13Z</time>
      </trkpt>
      <trkpt lat="40.9576690" lon="0.3167430">
        <ele>506.1</ele>
        <time>2020-08-06T17:39:14Z</time>
      </trkpt>
      <trkpt lat="40.9576230" lon="0.3166430">
        <ele>506.6</ele>
        <time>2020-08-06T17:39:16Z</time>
      </trkpt>
      <trkpt lat="40.9575960" lon="0.3165910">
        <ele>506.9</ele>
        <time>2020-08-06T17:39:18Z</time>
      </trkpt>
      <trkpt lat="40.9575780" lon="0.3165590">
        <ele>507.1</ele>
        <time>2020-08-06T17:39:20Z</time>
      </trkpt>
      <trkpt lat="40.9575690" lon="0.3165460">
        <ele>507.1</ele>
        <time>2020-08-06T17:39:21Z</time>
      </trkpt>
      <trkpt lat="40.9575540" lon="0.3165180">
        <ele>507.3</ele>
        <time>2020-08-06T17:39:23Z</time>
      </trkpt>
      <trkpt lat="40.9575470" lon="0.3165020">
        <ele>507.4</ele>
        <time>2020-08-06T17:39:24Z</time>
      </trkpt>
      <trkpt lat="40.9575380" lon="0.3164870">
        <ele>507.5</ele>
        <time>2020-08-06T17:39:25Z</time>
      </trkpt>
      <trkpt lat="40.9575280" lon="0.3164720">
        <ele>507.6</ele>
        <time>2020-08-06T17:39:26Z</time>
      </trkpt>
      <trkpt lat="40.9575190" lon="0.3164580">
        <ele>507.7</ele>
        <time>2020-08-06T17:39:27Z</time>
      </trkpt>
      <trkpt lat="40.9575100" lon="0.3164440">
        <ele>507.8</ele>
        <time>2020-08-06T17:39:28Z</time>
      </trkpt>
      <trkpt lat="40.9575000" lon="0.3164280">
        <ele>507.9</ele>
        <time>2020-08-06T17:39:29Z</time>
      </trkpt>
      <trkpt lat="40.9574830" lon="0.3163950">
        <ele>508.0</ele>
        <time>2020-08-06T17:39:31Z</time>
      </trkpt>
      <trkpt lat="40.9574740" lon="0.3163760">
        <ele>508.1</ele>
        <time>2020-08-06T17:39:32Z</time>
      </trkpt>
      <trkpt lat="40.9574650" lon="0.3163670">
        <ele>508.2</ele>
        <time>2020-08-06T17:39:33Z</time>
      </trkpt>
      <trkpt lat="40.9574540" lon="0.3163640">
        <ele>508.3</ele>
        <time>2020-08-06T17:39:34Z</time>
      </trkpt>
      <trkpt lat="40.9574470" lon="0.3163500">
        <ele>508.4</ele>
        <time>2020-08-06T17:39:35Z</time>
      </trkpt>
      <trkpt lat="40.9574390" lon="0.3163350">
        <ele>508.5</ele>
        <time>2020-08-06T17:39:36Z</time>
      </trkpt>
      <trkpt lat="40.9574320" lon="0.3163200">
        <ele>508.5</ele>
        <time>2020-08-06T17:39:37Z</time>
      </trkpt>
      <trkpt lat="40.9574250" lon="0.3163010">
        <ele>508.6</ele>
        <time>2020-08-06T17:39:38Z</time>
      </trkpt>
      <trkpt lat="40.9574060" lon="0.3162670">
        <ele>508.8</ele>
        <time>2020-08-06T17:39:40Z</time>
      </trkpt>
      <trkpt lat="40.9573860" lon="0.3162220">
        <ele>509.1</ele>
        <time>2020-08-06T17:39:42Z</time>
      </trkpt>
      <trkpt lat="40.9573670" lon="0.3161900">
        <ele>509.3</ele>
        <time>2020-08-06T17:39:44Z</time>
      </trkpt>
      <trkpt lat="40.9573440" lon="0.3161590">
        <ele>509.5</ele>
        <time>2020-08-06T17:39:46Z</time>
      </trkpt>
      <trkpt lat="40.9573200" lon="0.3161220">
        <ele>509.7</ele>
        <time>2020-08-06T17:39:48Z</time>
      </trkpt>
      <trkpt lat="40.9573080" lon="0.3161040">
        <ele>509.8</ele>
        <time>2020-08-06T17:39:49Z</time>
      </trkpt>
      <trkpt lat="40.9572980" lon="0.3160870">
        <ele>509.9</ele>
        <time>2020-08-06T17:39:50Z</time>
      </trkpt>
      <trkpt lat="40.9572700" lon="0.3160420">
        <ele>510.2</ele>
        <time>2020-08-06T17:39:52Z</time>
      </trkpt>
      <trkpt lat="40.9572610" lon="0.3160310">
        <ele>510.3</ele>
        <time>2020-08-06T17:39:53Z</time>
      </trkpt>
      <trkpt lat="40.9572530" lon="0.3160190">
        <ele>510.4</ele>
        <time>2020-08-06T17:39:54Z</time>
      </trkpt>
      <trkpt lat="40.9572270" lon="0.3159780">
        <ele>510.6</ele>
        <time>2020-08-06T17:39:56Z</time>
      </trkpt>
      <trkpt lat="40.9572090" lon="0.3159480">
        <ele>510.8</ele>
        <time>2020-08-06T17:39:57Z</time>
      </trkpt>
      <trkpt lat="40.9572030" lon="0.3159390">
        <ele>510.8</ele>
        <time>2020-08-06T17:39:58Z</time>
      </trkpt>
      <trkpt lat="40.9571930" lon="0.3159210">
        <ele>511.0</ele>
        <time>2020-08-06T17:39:59Z</time>
      </trkpt>
      <trkpt lat="40.9571750" lon="0.3158840">
        <ele>511.1</ele>
        <time>2020-08-06T17:40:01Z</time>
      </trkpt>
      <trkpt lat="40.9571560" lon="0.3158490">
        <ele>511.3</ele>
        <time>2020-08-06T17:40:03Z</time>
      </trkpt>
      <trkpt lat="40.9571460" lon="0.3158320">
        <ele>511.4</ele>
        <time>2020-08-06T17:40:04Z</time>
      </trkpt>
      <trkpt lat="40.9571370" lon="0.3158150">
        <ele>511.5</ele>
        <time>2020-08-06T17:40:05Z</time>
      </trkpt>
      <trkpt lat="40.9571150" lon="0.3157860">
        <ele>511.7</ele>
        <time>2020-08-06T17:40:07Z</time>
      </trkpt>
      <trkpt lat="40.9570890" lon="0.3157500">
        <ele>511.9</ele>
        <time>2020-08-06T17:40:09Z</time>
      </trkpt>
      <trkpt lat="40.9570670" lon="0.3157180">
        <ele>512.1</ele>
        <time>2020-08-06T17:40:11Z</time>
      </trkpt>
      <trkpt lat="40.9570550" lon="0.3157040">
        <ele>512.2</ele>
        <time>2020-08-06T17:40:12Z</time>
      </trkpt>
      <trkpt lat="40.9570320" lon="0.3156840">
        <ele>512.4</ele>
        <time>2020-08-06T17:40:14Z</time>
      </trkpt>
      <trkpt lat="40.9570170" lon="0.3156780">
        <ele>512.5</ele>
        <time>2020-08-06T17:40:15Z</time>
      </trkpt>
      <trkpt lat="40.9570000" lon="0.3156740">
        <ele>512.6</ele>
        <time>2020-08-06T17:40:16Z</time>
      </trkpt>
      <trkpt lat="40.9569660" lon="0.3156620">
        <ele>512.8</ele>
        <time>2020-08-06T17:40:18Z</time>
      </trkpt>
      <trkpt lat="40.9569420" lon="0.3156460">
        <ele>512.9</ele>
        <time>2020-08-06T17:40:20Z</time>
      </trkpt>
      <trkpt lat="40.9569300" lon="0.3156370">
        <ele>513.0</ele>
        <time>2020-08-06T17:40:22Z</time>
      </trkpt>
      <trkpt lat="40.9569260" lon="0.3156360">
        <ele>513.0</ele>
        <time>2020-08-06T17:40:23Z</time>
      </trkpt>
      <trkpt lat="40.9569210" lon="0.3156360">
        <ele>513.1</ele>
        <time>2020-08-06T17:40:24Z</time>
      </trkpt>
      <trkpt lat="40.9569160" lon="0.3156350">
        <ele>513.1</ele>
        <time>2020-08-06T17:40:25Z</time>
      </trkpt>
      <trkpt lat="40.9569090" lon="0.3156330">
        <ele>513.1</ele>
        <time>2020-08-06T17:40:26Z</time>
      </trkpt>
      <trkpt lat="40.9568720" lon="0.3156380">
        <ele>513.3</ele>
        <time>2020-08-06T17:40:28Z</time>
      </trkpt>
      <trkpt lat="40.9568600" lon="0.3156410">
        <ele>513.4</ele>
        <time>2020-08-06T17:40:29Z</time>
      </trkpt>
      <trkpt lat="40.9568310" lon="0.3156470">
        <ele>513.6</ele>
        <time>2020-08-06T17:40:30Z</time>
      </trkpt>
      <trkpt lat="40.9567550" lon="0.3156550">
        <ele>514.0</ele>
        <time>2020-08-06T17:40:32Z</time>
      </trkpt>
      <trkpt lat="40.9567250" lon="0.3156530">
        <ele>514.2</ele>
        <time>2020-08-06T17:40:33Z</time>
      </trkpt>
      <trkpt lat="40.9566670" lon="0.3156360">
        <ele>514.5</ele>
        <time>2020-08-06T17:40:35Z</time>
      </trkpt>
      <trkpt lat="40.9566380" lon="0.3156270">
        <ele>514.7</ele>
        <time>2020-08-06T17:40:36Z</time>
      </trkpt>
      <trkpt lat="40.9566140" lon="0.3156180">
        <ele>514.8</ele>
        <time>2020-08-06T17:40:37Z</time>
      </trkpt>
      <trkpt lat="40.9565760" lon="0.3155980">
        <ele>515.1</ele>
        <time>2020-08-06T17:40:39Z</time>
      </trkpt>
      <trkpt lat="40.9565470" lon="0.3155900">
        <ele>515.2</ele>
        <time>2020-08-06T17:40:41Z</time>
      </trkpt>
      <trkpt lat="40.9565040" lon="0.3155920">
        <ele>515.4</ele>
        <time>2020-08-06T17:40:43Z</time>
      </trkpt>
      <trkpt lat="40.9565340" lon="0.3156100">
        <ele>515.6</ele>
        <time>2020-08-06T17:40:44Z</time>
      </trkpt>
      <trkpt lat="40.9565610" lon="0.3156250">
        <ele>515.8</ele>
        <time>2020-08-06T17:40:45Z</time>
      </trkpt>
      <trkpt lat="40.9566180" lon="0.3156550">
        <ele>516.1</ele>
        <time>2020-08-06T17:40:47Z</time>
      </trkpt>
      <trkpt lat="40.9566030" lon="0.3156700">
        <ele>516.2</ele>
        <time>2020-08-06T17:40:49Z</time>
      </trkpt>
      <trkpt lat="40.9565890" lon="0.3156730">
        <ele>516.3</ele>
        <time>2020-08-06T17:40:50Z</time>
      </trkpt>
      <trkpt lat="40.9565760" lon="0.3156760">
        <ele>516.4</ele>
        <time>2020-08-06T17:40:52Z</time>
      </trkpt>
      <trkpt lat="40.9565620" lon="0.3156790">
        <ele>516.4</ele>
        <time>2020-08-06T17:40:53Z</time>
      </trkpt>
      <trkpt lat="40.9565480" lon="0.3156820">
        <ele>516.5</ele>
        <time>2020-08-06T17:40:54Z</time>
      </trkpt>
      <trkpt lat="40.9565140" lon="0.3156820">
        <ele>516.7</ele>
        <time>2020-08-06T17:40:56Z</time>
      </trkpt>
      <trkpt lat="40.9564930" lon="0.3156800">
        <ele>516.8</ele>
        <time>2020-08-06T17:40:57Z</time>
      </trkpt>
      <trkpt lat="40.9564730" lon="0.3156760">
        <ele>517.0</ele>
        <time>2020-08-06T17:40:59Z</time>
      </trkpt>
      <trkpt lat="40.9564460" lon="0.3156680">
        <ele>517.1</ele>
        <time>2020-08-06T17:41:00Z</time>
      </trkpt>
      <trkpt lat="40.9564350" lon="0.3156660">
        <ele>517.2</ele>
        <time>2020-08-06T17:41:01Z</time>
      </trkpt>
      <trkpt lat="40.9564040" lon="0.3156600">
        <ele>517.4</ele>
        <time>2020-08-06T17:41:02Z</time>
      </trkpt>
      <trkpt lat="40.9563550" lon="0.3156400">
        <ele>517.7</ele>
        <time>2020-08-06T17:41:04Z</time>
      </trkpt>
      <trkpt lat="40.9563380" lon="0.3156320">
        <ele>517.8</ele>
        <time>2020-08-06T17:41:05Z</time>
      </trkpt>
      <trkpt lat="40.9563220" lon="0.3156230">
        <ele>517.9</ele>
        <time>2020-08-06T17:41:06Z</time>
      </trkpt>
      <trkpt lat="40.9562940" lon="0.3156090">
        <ele>518.1</ele>
        <time>2020-08-06T17:41:08Z</time>
      </trkpt>
      <trkpt lat="40.9562810" lon="0.3156050">
        <ele>518.2</ele>
        <time>2020-08-06T17:41:09Z</time>
      </trkpt>
      <trkpt lat="40.9562710" lon="0.3156020">
        <ele>518.2</ele>
        <time>2020-08-06T17:41:11Z</time>
      </trkpt>
      <trkpt lat="40.9562680" lon="0.3156010">
        <ele>518.2</ele>
        <time>2020-08-06T17:41:12Z</time>
      </trkpt>
      <trkpt lat="40.9562650" lon="0.3156010">
        <ele>518.2</ele>
        <time>2020-08-06T17:41:13Z</time>
      </trkpt>
      <trkpt lat="40.9562570" lon="0.3155990">
        <ele>518.3</ele>
        <time>2020-08-06T17:41:15Z</time>
      </trkpt>
      <trkpt lat="40.9562550" lon="0.3155990">
        <ele>518.3</ele>
        <time>2020-08-06T17:41:16Z</time>
      </trkpt>
      <trkpt lat="40.9562530" lon="0.3155990">
        <ele>518.3</ele>
        <time>2020-08-06T17:41:17Z</time>
      </trkpt>
      <trkpt lat="40.9562490" lon="0.3155980">
        <ele>518.3</ele>
        <time>2020-08-06T17:41:19Z</time>
      </trkpt>
      <trkpt lat="40.9561540" lon="0.3155670">
        <ele>519.0</ele>
        <time>2020-08-06T17:41:29Z</time>
      </trkpt>
      <trkpt lat="40.9561320" lon="0.3155580">
        <ele>519.1</ele>
        <time>2020-08-06T17:41:30Z</time>
      </trkpt>
      <trkpt lat="40.9561190" lon="0.3155520">
        <ele>519.2</ele>
        <time>2020-08-06T17:41:32Z</time>
      </trkpt>
      <trkpt lat="40.9561220" lon="0.3155540">
        <ele>519.2</ele>
        <time>2020-08-06T17:41:34Z</time>
      </trkpt>
      <trkpt lat="40.9561240" lon="0.3155540">
        <ele>519.2</ele>
        <time>2020-08-06T17:41:35Z</time>
      </trkpt>
      <trkpt lat="40.9561260" lon="0.3155550">
        <ele>519.2</ele>
        <time>2020-08-06T17:41:36Z</time>
      </trkpt>
      <trkpt lat="40.9561280" lon="0.3155560">
        <ele>519.2</ele>
        <time>2020-08-06T17:41:38Z</time>
      </trkpt>
      <trkpt lat="40.9561290" lon="0.3155560">
        <ele>519.2</ele>
        <time>2020-08-06T17:41:39Z</time>
      </trkpt>
      <trkpt lat="40.9561290" lon="0.3155560">
        <ele>519.2</ele>
        <time>2020-08-06T17:41:40Z</time>
      </trkpt>
      <trkpt lat="40.9561290" lon="0.3155560">
        <ele>519.2</ele>
        <time>2020-08-06T17:41:41Z</time>
      </trkpt>
      <trkpt lat="40.9561290" lon="0.3155560">
        <ele>519.2</ele>
        <time>2020-08-06T17:41:43Z</time>
      </trkpt>
      <trkpt lat="40.9561290" lon="0.3155560">
        <ele>519.2</ele>
        <time>2020-08-06T17:41:45Z</time>
      </trkpt>
      <trkpt lat="40.9560830" lon="0.3155570">
        <ele>519.5</ele>
        <time>2020-08-06T17:42:07Z</time>
      </trkpt>
      <trkpt lat="40.9560660" lon="0.3155670">
        <ele>519.6</ele>
        <time>2020-08-06T17:42:08Z</time>
      </trkpt>
      <trkpt lat="40.9560290" lon="0.3155710">
        <ele>520.0</ele>
        <time>2020-08-06T17:42:10Z</time>
      </trkpt>
      <trkpt lat="40.9559990" lon="0.3155650">
        <ele>520.3</ele>
        <time>2020-08-06T17:42:12Z</time>
      </trkpt>
      <trkpt lat="40.9559710" lon="0.3155450">
        <ele>520.7</ele>
        <time>2020-08-06T17:42:13Z</time>
      </trkpt>
      <trkpt lat="40.9559560" lon="0.3155240">
        <ele>520.9</ele>
        <time>2020-08-06T17:42:14Z</time>
      </trkpt>
      <trkpt lat="40.9559380" lon="0.3155010">
        <ele>521.2</ele>
        <time>2020-08-06T17:42:16Z</time>
      </trkpt>
      <trkpt lat="40.9559260" lon="0.3154980">
        <ele>521.4</ele>
        <time>2020-08-06T17:42:17Z</time>
      </trkpt>
      <trkpt lat="40.9558860" lon="0.3154770">
        <ele>521.8</ele>
        <time>2020-08-06T17:42:19Z</time>
      </trkpt>
      <trkpt lat="40.9558510" lon="0.3154650">
        <ele>522.2</ele>
        <time>2020-08-06T17:42:20Z</time>
      </trkpt>
      <trkpt lat="40.9558390" lon="0.3154620">
        <ele>522.3</ele>
        <time>2020-08-06T17:42:21Z</time>
      </trkpt>
      <trkpt lat="40.9558100" lon="0.3154500">
        <ele>522.4</ele>
        <time>2020-08-06T17:42:22Z</time>
      </trkpt>
      <trkpt lat="40.9558000" lon="0.3154470">
        <ele>522.5</ele>
        <time>2020-08-06T17:42:23Z</time>
      </trkpt>
      <trkpt lat="40.9557820" lon="0.3154410">
        <ele>522.5</ele>
        <time>2020-08-06T17:42:24Z</time>
      </trkpt>
      <trkpt lat="40.9557680" lon="0.3154330">
        <ele>522.6</ele>
        <time>2020-08-06T17:42:25Z</time>
      </trkpt>
      <trkpt lat="40.9557530" lon="0.3154240">
        <ele>522.7</ele>
        <time>2020-08-06T17:42:26Z</time>
      </trkpt>
      <trkpt lat="40.9556970" lon="0.3153790">
        <ele>522.9</ele>
        <time>2020-08-06T17:42:28Z</time>
      </trkpt>
      <trkpt lat="40.9556780" lon="0.3153570">
        <ele>523.0</ele>
        <time>2020-08-06T17:42:29Z</time>
      </trkpt>
      <trkpt lat="40.9556410" lon="0.3153270">
        <ele>523.1</ele>
        <time>2020-08-06T17:42:31Z</time>
      </trkpt>
      <trkpt lat="40.9556120" lon="0.3152800">
        <ele>523.0</ele>
        <time>2020-08-06T17:42:33Z</time>
      </trkpt>
      <trkpt lat="40.9556020" lon="0.3152610">
        <ele>523.0</ele>
        <time>2020-08-06T17:42:35Z</time>
      </trkpt>
      <trkpt lat="40.9555920" lon="0.3152410">
        <ele>523.0</ele>
        <time>2020-08-06T17:42:36Z</time>
      </trkpt>
      <trkpt lat="40.9555790" lon="0.3152140">
        <ele>523.0</ele>
        <time>2020-08-06T17:42:37Z</time>
      </trkpt>
      <trkpt lat="40.9555620" lon="0.3151810">
        <ele>522.9</ele>
        <time>2020-08-06T17:42:39Z</time>
      </trkpt>
      <trkpt lat="40.9555530" lon="0.3151660">
        <ele>522.9</ele>
        <time>2020-08-06T17:42:40Z</time>
      </trkpt>
      <trkpt lat="40.9555450" lon="0.3151490">
        <ele>522.9</ele>
        <time>2020-08-06T17:42:41Z</time>
      </trkpt>
      <trkpt lat="40.9555240" lon="0.3151140">
        <ele>522.8</ele>
        <time>2020-08-06T17:42:43Z</time>
      </trkpt>
      <trkpt lat="40.9555130" lon="0.3150930">
        <ele>522.8</ele>
        <time>2020-08-06T17:42:44Z</time>
      </trkpt>
      <trkpt lat="40.9555050" lon="0.3150750">
        <ele>522.8</ele>
        <time>2020-08-06T17:42:45Z</time>
      </trkpt>
      <trkpt lat="40.9554910" lon="0.3150340">
        <ele>522.7</ele>
        <time>2020-08-06T17:42:47Z</time>
      </trkpt>
      <trkpt lat="40.9554750" lon="0.3149870">
        <ele>522.6</ele>
        <time>2020-08-06T17:42:49Z</time>
      </trkpt>
      <trkpt lat="40.9554640" lon="0.3149680">
        <ele>522.6</ele>
        <time>2020-08-06T17:42:50Z</time>
      </trkpt>
      <trkpt lat="40.9554260" lon="0.3149450">
        <ele>522.5</ele>
        <time>2020-08-06T17:42:52Z</time>
      </trkpt>
      <trkpt lat="40.9553730" lon="0.3149200">
        <ele>522.1</ele>
        <time>2020-08-06T17:42:54Z</time>
      </trkpt>
      <trkpt lat="40.9553280" lon="0.3148820">
        <ele>521.7</ele>
        <time>2020-08-06T17:42:56Z</time>
      </trkpt>
      <trkpt lat="40.9553040" lon="0.3148560">
        <ele>521.4</ele>
        <time>2020-08-06T17:42:57Z</time>
      </trkpt>
      <trkpt lat="40.9552780" lon="0.3148240">
        <ele>521.1</ele>
        <time>2020-08-06T17:42:58Z</time>
      </trkpt>
      <trkpt lat="40.9552530" lon="0.3147940">
        <ele>520.7</ele>
        <time>2020-08-06T17:42:59Z</time>
      </trkpt>
      <trkpt lat="40.9552160" lon="0.3147470">
        <ele>520.2</ele>
        <time>2020-08-06T17:43:01Z</time>
      </trkpt>
      <trkpt lat="40.9552030" lon="0.3147230">
        <ele>519.9</ele>
        <time>2020-08-06T17:43:02Z</time>
      </trkpt>
      <trkpt lat="40.9551840" lon="0.3146920">
        <ele>519.6</ele>
        <time>2020-08-06T17:43:04Z</time>
      </trkpt>
      <trkpt lat="40.9551690" lon="0.3146800">
        <ele>519.5</ele>
        <time>2020-08-06T17:43:05Z</time>
      </trkpt>
      <trkpt lat="40.9551560" lon="0.3146680">
        <ele>519.5</ele>
        <time>2020-08-06T17:43:06Z</time>
      </trkpt>
      <trkpt lat="40.9551360" lon="0.3146340">
        <ele>519.3</ele>
        <time>2020-08-06T17:43:08Z</time>
      </trkpt>
      <trkpt lat="40.9551320" lon="0.3146260">
        <ele>519.3</ele>
        <time>2020-08-06T17:43:09Z</time>
      </trkpt>
      <trkpt lat="40.9551240" lon="0.3146070">
        <ele>519.3</ele>
        <time>2020-08-06T17:43:10Z</time>
      </trkpt>
      <trkpt lat="40.9551180" lon="0.3145880">
        <ele>519.2</ele>
        <time>2020-08-06T17:43:11Z</time>
      </trkpt>
      <trkpt lat="40.9550970" lon="0.3145410">
        <ele>519.1</ele>
        <time>2020-08-06T17:43:13Z</time>
      </trkpt>
      <trkpt lat="40.9550680" lon="0.3144850">
        <ele>519.0</ele>
        <time>2020-08-06T17:43:15Z</time>
      </trkpt>
      <trkpt lat="40.9550550" lon="0.3144560">
        <ele>519.0</ele>
        <time>2020-08-06T17:43:16Z</time>
      </trkpt>
      <trkpt lat="40.9550310" lon="0.3144030">
        <ele>519.0</ele>
        <time>2020-08-06T17:43:18Z</time>
      </trkpt>
      <trkpt lat="40.9549200" lon="0.3142920">
        <ele>518.9</ele>
        <time>2020-08-06T17:43:24Z</time>
      </trkpt>
      <trkpt lat="40.9548920" lon="0.3142510">
        <ele>518.8</ele>
        <time>2020-08-06T17:43:25Z</time>
      </trkpt>
      <trkpt lat="40.9548440" lon="0.3141440">
        <ele>518.3</ele>
        <time>2020-08-06T17:43:27Z</time>
      </trkpt>
      <trkpt lat="40.9548270" lon="0.3141010">
        <ele>518.1</ele>
        <time>2020-08-06T17:43:28Z</time>
      </trkpt>
      <trkpt lat="40.9548090" lon="0.3140550">
        <ele>518.0</ele>
        <time>2020-08-06T17:43:29Z</time>
      </trkpt>
      <trkpt lat="40.9547920" lon="0.3140100">
        <ele>517.7</ele>
        <time>2020-08-06T17:43:30Z</time>
      </trkpt>
      <trkpt lat="40.9547740" lon="0.3139650">
        <ele>517.4</ele>
        <time>2020-08-06T17:43:31Z</time>
      </trkpt>
      <trkpt lat="40.9547510" lon="0.3139150">
        <ele>517.1</ele>
        <time>2020-08-06T17:43:32Z</time>
      </trkpt>
      <trkpt lat="40.9547220" lon="0.3138610">
        <ele>516.7</ele>
        <time>2020-08-06T17:43:33Z</time>
      </trkpt>
      <trkpt lat="40.9546880" lon="0.3138190">
        <ele>516.5</ele>
        <time>2020-08-06T17:43:34Z</time>
      </trkpt>
      <trkpt lat="40.9546450" lon="0.3137920">
        <ele>516.3</ele>
        <time>2020-08-06T17:43:35Z</time>
      </trkpt>
      <trkpt lat="40.9545490" lon="0.3136520">
        <ele>515.7</ele>
        <time>2020-08-06T17:43:38Z</time>
      </trkpt>
      <trkpt lat="40.9545480" lon="0.3135920">
        <ele>515.5</ele>
        <time>2020-08-06T17:43:39Z</time>
      </trkpt>
      <trkpt lat="40.9545400" lon="0.3135010">
        <ele>515.4</ele>
        <time>2020-08-06T17:43:42Z</time>
      </trkpt>
      <trkpt lat="40.9545000" lon="0.3133790">
        <ele>515.0</ele>
        <time>2020-08-06T17:43:43Z</time>
      </trkpt>
      <trkpt lat="40.9544730" lon="0.3133080">
        <ele>514.7</ele>
        <time>2020-08-06T17:43:44Z</time>
      </trkpt>
      <trkpt lat="40.9544460" lon="0.3132370">
        <ele>514.4</ele>
        <time>2020-08-06T17:43:45Z</time>
      </trkpt>
      <trkpt lat="40.9543870" lon="0.3130880">
        <ele>513.6</ele>
        <time>2020-08-06T17:43:47Z</time>
      </trkpt>
      <trkpt lat="40.9543620" lon="0.3130090">
        <ele>513.2</ele>
        <time>2020-08-06T17:43:48Z</time>
      </trkpt>
      <trkpt lat="40.9543360" lon="0.3129280">
        <ele>513.0</ele>
        <time>2020-08-06T17:43:49Z</time>
      </trkpt>
      <trkpt lat="40.9543130" lon="0.3128480">
        <ele>512.8</ele>
        <time>2020-08-06T17:43:50Z</time>
      </trkpt>
      <trkpt lat="40.9542940" lon="0.3127720">
        <ele>512.6</ele>
        <time>2020-08-06T17:43:51Z</time>
      </trkpt>
      <trkpt lat="40.9542620" lon="0.3126230">
        <ele>512.2</ele>
        <time>2020-08-06T17:43:53Z</time>
      </trkpt>
      <trkpt lat="40.9542500" lon="0.3124870">
        <ele>511.4</ele>
        <time>2020-08-06T17:43:55Z</time>
      </trkpt>
      <trkpt lat="40.9542480" lon="0.3124200">
        <ele>511.0</ele>
        <time>2020-08-06T17:43:56Z</time>
      </trkpt>
      <trkpt lat="40.9542540" lon="0.3123510">
        <ele>510.7</ele>
        <time>2020-08-06T17:43:57Z</time>
      </trkpt>
      <trkpt lat="40.9542640" lon="0.3122020">
        <ele>510.0</ele>
        <time>2020-08-06T17:43:59Z</time>
      </trkpt>
      <trkpt lat="40.9542640" lon="0.3121240">
        <ele>509.6</ele>
        <time>2020-08-06T17:44:00Z</time>
      </trkpt>
      <trkpt lat="40.9542580" lon="0.3120440">
        <ele>509.3</ele>
        <time>2020-08-06T17:44:01Z</time>
      </trkpt>
      <trkpt lat="40.9542470" lon="0.3119670">
        <ele>509.0</ele>
        <time>2020-08-06T17:44:02Z</time>
      </trkpt>
      <trkpt lat="40.9542260" lon="0.3118940">
        <ele>508.7</ele>
        <time>2020-08-06T17:44:03Z</time>
      </trkpt>
      <trkpt lat="40.9541640" lon="0.3117590">
        <ele>508.0</ele>
        <time>2020-08-06T17:44:05Z</time>
      </trkpt>
      <trkpt lat="40.9541330" lon="0.3116970">
        <ele>507.7</ele>
        <time>2020-08-06T17:44:06Z</time>
      </trkpt>
      <trkpt lat="40.9540830" lon="0.3115820">
        <ele>507.1</ele>
        <time>2020-08-06T17:44:08Z</time>
      </trkpt>
      <trkpt lat="40.9540660" lon="0.3114860">
        <ele>506.8</ele>
        <time>2020-08-06T17:44:10Z</time>
      </trkpt>
      <trkpt lat="40.9540570" lon="0.3114250">
        <ele>506.7</ele>
        <time>2020-08-06T17:44:11Z</time>
      </trkpt>
      <trkpt lat="40.9540470" lon="0.3113590">
        <ele>506.5</ele>
        <time>2020-08-06T17:44:12Z</time>
      </trkpt>
      <trkpt lat="40.9540250" lon="0.3112230">
        <ele>506.0</ele>
        <time>2020-08-06T17:44:14Z</time>
      </trkpt>
      <trkpt lat="40.9540210" lon="0.3111650">
        <ele>505.8</ele>
        <time>2020-08-06T17:44:15Z</time>
      </trkpt>
      <trkpt lat="40.9540220" lon="0.3111160">
        <ele>505.6</ele>
        <time>2020-08-06T17:44:16Z</time>
      </trkpt>
      <trkpt lat="40.9540240" lon="0.3110370">
        <ele>505.4</ele>
        <time>2020-08-06T17:44:18Z</time>
      </trkpt>
      <trkpt lat="40.9540260" lon="0.3109960">
        <ele>505.4</ele>
        <time>2020-08-06T17:44:19Z</time>
      </trkpt>
      <trkpt lat="40.9540380" lon="0.3109230">
        <ele>505.2</ele>
        <time>2020-08-06T17:44:21Z</time>
      </trkpt>
      <trkpt lat="40.9540570" lon="0.3108590">
        <ele>505.0</ele>
        <time>2020-08-06T17:44:23Z</time>
      </trkpt>
      <trkpt lat="40.9540630" lon="0.3108220">
        <ele>504.8</ele>
        <time>2020-08-06T17:44:24Z</time>
      </trkpt>
      <trkpt lat="40.9540670" lon="0.3108080">
        <ele>504.8</ele>
        <time>2020-08-06T17:44:26Z</time>
      </trkpt>
      <trkpt lat="40.9540710" lon="0.3107940">
        <ele>504.7</ele>
        <time>2020-08-06T17:44:28Z</time>
      </trkpt>
      <trkpt lat="40.9540760" lon="0.3107790">
        <ele>504.7</ele>
        <time>2020-08-06T17:44:29Z</time>
      </trkpt>
      <trkpt lat="40.9540800" lon="0.3107650">
        <ele>504.6</ele>
        <time>2020-08-06T17:44:31Z</time>
      </trkpt>
      <trkpt lat="40.9540840" lon="0.3107510">
        <ele>504.5</ele>
        <time>2020-08-06T17:44:32Z</time>
      </trkpt>
      <trkpt lat="40.9540880" lon="0.3107370">
        <ele>504.5</ele>
        <time>2020-08-06T17:44:33Z</time>
      </trkpt>
      <trkpt lat="40.9540920" lon="0.3107210">
        <ele>504.4</ele>
        <time>2020-08-06T17:44:34Z</time>
      </trkpt>
      <trkpt lat="40.9541070" lon="0.3106860">
        <ele>504.3</ele>
        <time>2020-08-06T17:44:36Z</time>
      </trkpt>
      <trkpt lat="40.9541140" lon="0.3106660">
        <ele>504.2</ele>
        <time>2020-08-06T17:44:37Z</time>
      </trkpt>
      <trkpt lat="40.9541160" lon="0.3106550">
        <ele>504.2</ele>
        <time>2020-08-06T17:44:38Z</time>
      </trkpt>
      <trkpt lat="40.9541270" lon="0.3106370">
        <ele>504.1</ele>
        <time>2020-08-06T17:44:41Z</time>
      </trkpt>
      <trkpt lat="40.9541390" lon="0.3106240">
        <ele>504.0</ele>
        <time>2020-08-06T17:44:42Z</time>
      </trkpt>
      <trkpt lat="40.9541490" lon="0.3106100">
        <ele>503.9</ele>
        <time>2020-08-06T17:44:44Z</time>
      </trkpt>
      <trkpt lat="40.9541570" lon="0.3105960">
        <ele>504.0</ele>
        <time>2020-08-06T17:44:46Z</time>
      </trkpt>
      <trkpt lat="40.9541610" lon="0.3105880">
        <ele>504.0</ele>
        <time>2020-08-06T17:44:47Z</time>
      </trkpt>
      <trkpt lat="40.9541650" lon="0.3105810">
        <ele>504.0</ele>
        <time>2020-08-06T17:44:48Z</time>
      </trkpt>
      <trkpt lat="40.9541970" lon="0.3105080">
        <ele>504.3</ele>
        <time>2020-08-06T17:44:57Z</time>
      </trkpt>
      <trkpt lat="40.9542010" lon="0.3105010">
        <ele>504.3</ele>
        <time>2020-08-06T17:44:58Z</time>
      </trkpt>
      <trkpt lat="40.9542020" lon="0.3104990">
        <ele>504.3</ele>
        <time>2020-08-06T17:44:59Z</time>
      </trkpt>
      <trkpt lat="40.9542020" lon="0.3104960">
        <ele>504.3</ele>
        <time>2020-08-06T17:45:00Z</time>
      </trkpt>
      <trkpt lat="40.9542080" lon="0.3104930">
        <ele>504.4</ele>
        <time>2020-08-06T17:45:02Z</time>
      </trkpt>
      <trkpt lat="40.9542160" lon="0.3104920">
        <ele>504.4</ele>
        <time>2020-08-06T17:45:03Z</time>
      </trkpt>
      <trkpt lat="40.9542210" lon="0.3105090">
        <ele>504.4</ele>
        <time>2020-08-06T17:45:05Z</time>
      </trkpt>
      <trkpt lat="40.9542130" lon="0.3105340">
        <ele>504.5</ele>
        <time>2020-08-06T17:45:07Z</time>
      </trkpt>
      <trkpt lat="40.9542030" lon="0.3105510">
        <ele>504.6</ele>
        <time>2020-08-06T17:45:08Z</time>
      </trkpt>
      <trkpt lat="40.9541840" lon="0.3105940">
        <ele>504.8</ele>
        <time>2020-08-06T17:45:10Z</time>
      </trkpt>
      <trkpt lat="40.9541790" lon="0.3106060">
        <ele>504.8</ele>
        <time>2020-08-06T17:45:11Z</time>
      </trkpt>
      <trkpt lat="40.9541670" lon="0.3106380">
        <ele>504.9</ele>
        <time>2020-08-06T17:45:12Z</time>
      </trkpt>
      <trkpt lat="40.9541510" lon="0.3106700">
        <ele>505.0</ele>
        <time>2020-08-06T17:45:14Z</time>
      </trkpt>
      <trkpt lat="40.9541310" lon="0.3107110">
        <ele>505.1</ele>
        <time>2020-08-06T17:45:15Z</time>
      </trkpt>
      <trkpt lat="40.9541010" lon="0.3107680">
        <ele>505.3</ele>
        <time>2020-08-06T17:45:16Z</time>
      </trkpt>
      <trkpt lat="40.9540680" lon="0.3108350">
        <ele>505.4</ele>
        <time>2020-08-06T17:45:18Z</time>
      </trkpt>
      <trkpt lat="40.9540470" lon="0.3108760">
        <ele>505.5</ele>
        <time>2020-08-06T17:45:19Z</time>
      </trkpt>
      <trkpt lat="40.9540270" lon="0.3109200">
        <ele>505.6</ele>
        <time>2020-08-06T17:45:21Z</time>
      </trkpt>
      <trkpt lat="40.9540150" lon="0.3109370">
        <ele>505.7</ele>
        <time>2020-08-06T17:45:22Z</time>
      </trkpt>
      <trkpt lat="40.9540070" lon="0.3109550">
        <ele>505.7</ele>
        <time>2020-08-06T17:45:23Z</time>
      </trkpt>
      <trkpt lat="40.9540030" lon="0.3109740">
        <ele>505.8</ele>
        <time>2020-08-06T17:45:24Z</time>
      </trkpt>
      <trkpt lat="40.9540040" lon="0.3109820">
        <ele>505.8</ele>
        <time>2020-08-06T17:45:25Z</time>
      </trkpt>
      <trkpt lat="40.9540060" lon="0.3109910">
        <ele>505.8</ele>
        <time>2020-08-06T17:45:27Z</time>
      </trkpt>
      <trkpt lat="40.9540070" lon="0.3110000">
        <ele>505.9</ele>
        <time>2020-08-06T17:45:29Z</time>
      </trkpt>
      <trkpt lat="40.9540080" lon="0.3110080">
        <ele>505.9</ele>
        <time>2020-08-06T17:45:30Z</time>
      </trkpt>
      <trkpt lat="40.9540090" lon="0.3110170">
        <ele>505.9</ele>
        <time>2020-08-06T17:45:32Z</time>
      </trkpt>
      <trkpt lat="40.9540100" lon="0.3110260">
        <ele>506.0</ele>
        <time>2020-08-06T17:45:33Z</time>
      </trkpt>
      <trkpt lat="40.9540120" lon="0.3110350">
        <ele>506.0</ele>
        <time>2020-08-06T17:45:57Z</time>
      </trkpt>
      <trkpt lat="40.9540130" lon="0.3110430">
        <ele>506.0</ele>
        <time>2020-08-06T17:45:58Z</time>
      </trkpt>
      <trkpt lat="40.9540140" lon="0.3110520">
        <ele>506.0</ele>
        <time>2020-08-06T17:45:59Z</time>
      </trkpt>
      <trkpt lat="40.9540150" lon="0.3110970">
        <ele>506.2</ele>
        <time>2020-08-06T17:46:01Z</time>
      </trkpt>
      <trkpt lat="40.9540150" lon="0.3111110">
        <ele>506.2</ele>
        <time>2020-08-06T17:46:02Z</time>
      </trkpt>
      <trkpt lat="40.9540250" lon="0.3111500">
        <ele>506.3</ele>
        <time>2020-08-06T17:46:03Z</time>
      </trkpt>
      <trkpt lat="40.9540300" lon="0.3111680">
        <ele>506.4</ele>
        <time>2020-08-06T17:46:05Z</time>
      </trkpt>
      <trkpt lat="40.9540340" lon="0.3111850">
        <ele>506.4</ele>
        <time>2020-08-06T17:46:06Z</time>
      </trkpt>
      <trkpt lat="40.9540380" lon="0.3112030">
        <ele>506.5</ele>
        <time>2020-08-06T17:46:07Z</time>
      </trkpt>
      <trkpt lat="40.9540350" lon="0.3112260">
        <ele>506.6</ele>
        <time>2020-08-06T17:46:08Z</time>
      </trkpt>
      <trkpt lat="40.9540340" lon="0.3112790">
        <ele>506.7</ele>
        <time>2020-08-06T17:46:10Z</time>
      </trkpt>
      <trkpt lat="40.9540360" lon="0.3113670">
        <ele>506.9</ele>
        <time>2020-08-06T17:46:11Z</time>
      </trkpt>
      <trkpt lat="40.9540370" lon="0.3114290">
        <ele>507.1</ele>
        <time>2020-08-06T17:46:12Z</time>
      </trkpt>
      <trkpt lat="40.9540420" lon="0.3114800">
        <ele>507.2</ele>
        <time>2020-08-06T17:46:13Z</time>
      </trkpt>
      <trkpt lat="40.9540550" lon="0.3115330">
        <ele>507.4</ele>
        <time>2020-08-06T17:46:14Z</time>
      </trkpt>
      <trkpt lat="40.9540660" lon="0.3115870">
        <ele>507.6</ele>
        <time>2020-08-06T17:46:16Z</time>
      </trkpt>
      <trkpt lat="40.9540820" lon="0.3116350">
        <ele>507.8</ele>
        <time>2020-08-06T17:46:17Z</time>
      </trkpt>
      <trkpt lat="40.9540880" lon="0.3116520">
        <ele>507.9</ele>
        <time>2020-08-06T17:46:18Z</time>
      </trkpt>
      <trkpt lat="40.9541060" lon="0.3116820">
        <ele>508.0</ele>
        <time>2020-08-06T17:46:19Z</time>
      </trkpt>
      <trkpt lat="40.9541230" lon="0.3117100">
        <ele>508.2</ele>
        <time>2020-08-06T17:46:20Z</time>
      </trkpt>
      <trkpt lat="40.9541460" lon="0.3117430">
        <ele>508.3</ele>
        <time>2020-08-06T17:46:22Z</time>
      </trkpt>
      <trkpt lat="40.9541700" lon="0.3117750">
        <ele>508.5</ele>
        <time>2020-08-06T17:46:23Z</time>
      </trkpt>
      <trkpt lat="40.9541910" lon="0.3118170">
        <ele>508.6</ele>
        <time>2020-08-06T17:46:25Z</time>
      </trkpt>
      <trkpt lat="40.9542020" lon="0.3118530">
        <ele>508.8</ele>
        <time>2020-08-06T17:46:26Z</time>
      </trkpt>
      <trkpt lat="40.9542160" lon="0.3118900">
        <ele>508.9</ele>
        <time>2020-08-06T17:46:27Z</time>
      </trkpt>
      <trkpt lat="40.9542300" lon="0.3119230">
        <ele>509.0</ele>
        <time>2020-08-06T17:46:28Z</time>
      </trkpt>
      <trkpt lat="40.9542400" lon="0.3119550">
        <ele>509.1</ele>
        <time>2020-08-06T17:46:29Z</time>
      </trkpt>
      <trkpt lat="40.9542490" lon="0.3120020">
        <ele>509.3</ele>
        <time>2020-08-06T17:46:31Z</time>
      </trkpt>
      <trkpt lat="40.9542600" lon="0.3120400">
        <ele>509.5</ele>
        <time>2020-08-06T17:46:32Z</time>
      </trkpt>
      <trkpt lat="40.9542710" lon="0.3120850">
        <ele>509.6</ele>
        <time>2020-08-06T17:46:33Z</time>
      </trkpt>
      <trkpt lat="40.9542730" lon="0.3121000">
        <ele>509.7</ele>
        <time>2020-08-06T17:46:34Z</time>
      </trkpt>
      <trkpt lat="40.9542740" lon="0.3121300">
        <ele>509.8</ele>
        <time>2020-08-06T17:46:35Z</time>
      </trkpt>
      <trkpt lat="40.9542780" lon="0.3121840">
        <ele>510.0</ele>
        <time>2020-08-06T17:46:37Z</time>
      </trkpt>
      <trkpt lat="40.9542830" lon="0.3122240">
        <ele>510.2</ele>
        <time>2020-08-06T17:46:38Z</time>
      </trkpt>
      <trkpt lat="40.9542860" lon="0.3122740">
        <ele>510.4</ele>
        <time>2020-08-06T17:46:39Z</time>
      </trkpt>
      <trkpt lat="40.9542850" lon="0.3122920">
        <ele>510.5</ele>
        <time>2020-08-06T17:46:40Z</time>
      </trkpt>
      <trkpt lat="40.9542810" lon="0.3123400">
        <ele>510.6</ele>
        <time>2020-08-06T17:46:42Z</time>
      </trkpt>
      <trkpt lat="40.9542820" lon="0.3123810">
        <ele>510.8</ele>
        <time>2020-08-06T17:46:43Z</time>
      </trkpt>
      <trkpt lat="40.9542840" lon="0.3124120">
        <ele>510.9</ele>
        <time>2020-08-06T17:46:44Z</time>
      </trkpt>
      <trkpt lat="40.9542860" lon="0.3124530">
        <ele>511.2</ele>
        <time>2020-08-06T17:46:46Z</time>
      </trkpt>
      <trkpt lat="40.9542860" lon="0.3124960">
        <ele>511.5</ele>
        <time>2020-08-06T17:46:47Z</time>
      </trkpt>
      <trkpt lat="40.9542870" lon="0.3125250">
        <ele>511.7</ele>
        <time>2020-08-06T17:46:48Z</time>
      </trkpt>
      <trkpt lat="40.9542940" lon="0.3125600">
        <ele>511.9</ele>
        <time>2020-08-06T17:46:50Z</time>
      </trkpt>
      <trkpt lat="40.9543030" lon="0.3126000">
        <ele>512.1</ele>
        <time>2020-08-06T17:46:51Z</time>
      </trkpt>
      <trkpt lat="40.9543090" lon="0.3126500">
        <ele>512.3</ele>
        <time>2020-08-06T17:46:53Z</time>
      </trkpt>
      <trkpt lat="40.9543130" lon="0.3126990">
        <ele>512.4</ele>
        <time>2020-08-06T17:46:54Z</time>
      </trkpt>
      <trkpt lat="40.9543160" lon="0.3127510">
        <ele>512.6</ele>
        <time>2020-08-06T17:46:56Z</time>
      </trkpt>
      <trkpt lat="40.9543190" lon="0.3127930">
        <ele>512.7</ele>
        <time>2020-08-06T17:46:57Z</time>
      </trkpt>
      <trkpt lat="40.9543260" lon="0.3128370">
        <ele>512.8</ele>
        <time>2020-08-06T17:46:58Z</time>
      </trkpt>
      <trkpt lat="40.9543320" lon="0.3128690">
        <ele>512.9</ele>
        <time>2020-08-06T17:46:59Z</time>
      </trkpt>
      <trkpt lat="40.9543410" lon="0.3129210">
        <ele>513.0</ele>
        <time>2020-08-06T17:47:01Z</time>
      </trkpt>
      <trkpt lat="40.9543530" lon="0.3129580">
        <ele>513.1</ele>
        <time>2020-08-06T17:47:02Z</time>
      </trkpt>
      <trkpt lat="40.9543600" lon="0.3129870">
        <ele>513.2</ele>
        <time>2020-08-06T17:47:03Z</time>
      </trkpt>
      <trkpt lat="40.9543800" lon="0.3130470">
        <ele>513.4</ele>
        <time>2020-08-06T17:47:05Z</time>
      </trkpt>
      <trkpt lat="40.9543930" lon="0.3130860">
        <ele>513.6</ele>
        <time>2020-08-06T17:47:06Z</time>
      </trkpt>
      <trkpt lat="40.9544080" lon="0.3131280">
        <ele>513.8</ele>
        <time>2020-08-06T17:47:07Z</time>
      </trkpt>
      <trkpt lat="40.9544110" lon="0.3131410">
        <ele>513.9</ele>
        <time>2020-08-06T17:47:08Z</time>
      </trkpt>
      <trkpt lat="40.9544240" lon="0.3131770">
        <ele>514.1</ele>
        <time>2020-08-06T17:47:10Z</time>
      </trkpt>
      <trkpt lat="40.9544340" lon="0.3132010">
        <ele>514.2</ele>
        <time>2020-08-06T17:47:11Z</time>
      </trkpt>
      <trkpt lat="40.9544530" lon="0.3132370">
        <ele>514.4</ele>
        <time>2020-08-06T17:47:13Z</time>
      </trkpt>
      <trkpt lat="40.9544690" lon="0.3132790">
        <ele>514.6</ele>
        <time>2020-08-06T17:47:15Z</time>
      </trkpt>
      <trkpt lat="40.9544750" lon="0.3132950">
        <ele>514.7</ele>
        <time>2020-08-06T17:47:16Z</time>
      </trkpt>
      <trkpt lat="40.9544890" lon="0.3133300">
        <ele>514.8</ele>
        <time>2020-08-06T17:47:17Z</time>
      </trkpt>
      <trkpt lat="40.9544940" lon="0.3133420">
        <ele>514.9</ele>
        <time>2020-08-06T17:47:18Z</time>
      </trkpt>
      <trkpt lat="40.9545040" lon="0.3133680">
        <ele>515.0</ele>
        <time>2020-08-06T17:47:19Z</time>
      </trkpt>
      <trkpt lat="40.9545150" lon="0.3134050">
        <ele>515.1</ele>
        <time>2020-08-06T17:47:21Z</time>
      </trkpt>
      <trkpt lat="40.9545290" lon="0.3134480">
        <ele>515.2</ele>
        <time>2020-08-06T17:47:22Z</time>
      </trkpt>
      <trkpt lat="40.9545340" lon="0.3134640">
        <ele>515.3</ele>
        <time>2020-08-06T17:47:23Z</time>
      </trkpt>
      <trkpt lat="40.9545410" lon="0.3134990">
        <ele>515.4</ele>
        <time>2020-08-06T17:47:24Z</time>
      </trkpt>
      <trkpt lat="40.9545480" lon="0.3135290">
        <ele>515.4</ele>
        <time>2020-08-06T17:47:26Z</time>
      </trkpt>
      <trkpt lat="40.9545600" lon="0.3135720">
        <ele>515.5</ele>
        <time>2020-08-06T17:47:27Z</time>
      </trkpt>
      <trkpt lat="40.9545630" lon="0.3135860">
        <ele>515.5</ele>
        <time>2020-08-06T17:47:28Z</time>
      </trkpt>
      <trkpt lat="40.9545740" lon="0.3136250">
        <ele>515.7</ele>
        <time>2020-08-06T17:47:29Z</time>
      </trkpt>
      <trkpt lat="40.9545740" lon="0.3136540">
        <ele>515.7</ele>
        <time>2020-08-06T17:47:30Z</time>
      </trkpt>
      <trkpt lat="40.9545710" lon="0.3136900">
        <ele>515.8</ele>
        <time>2020-08-06T17:47:32Z</time>
      </trkpt>
      <trkpt lat="40.9545610" lon="0.3137270">
        <ele>515.9</ele>
        <time>2020-08-06T17:47:33Z</time>
      </trkpt>
      <trkpt lat="40.9545570" lon="0.3137380">
        <ele>516.0</ele>
        <time>2020-08-06T17:47:34Z</time>
      </trkpt>
      <trkpt lat="40.9545510" lon="0.3137560">
        <ele>516.0</ele>
        <time>2020-08-06T17:47:35Z</time>
      </trkpt>
      <trkpt lat="40.9545470" lon="0.3137830">
        <ele>516.5</ele>
        <time>2020-08-06T17:47:36Z</time>
      </trkpt>
      <trkpt lat="40.9545340" lon="0.3138230">
        <ele>515.9</ele>
        <time>2020-08-06T17:47:38Z</time>
      </trkpt>
      <trkpt lat="40.9545250" lon="0.3138310">
        <ele>515.9</ele>
        <time>2020-08-06T17:47:39Z</time>
      </trkpt>
      <trkpt lat="40.9545080" lon="0.3138260">
        <ele>515.8</ele>
        <time>2020-08-06T17:47:41Z</time>
      </trkpt>
      <trkpt lat="40.9544990" lon="0.3138090">
        <ele>515.8</ele>
        <time>2020-08-06T17:47:42Z</time>
      </trkpt>
      <trkpt lat="40.9544920" lon="0.3137940">
        <ele>515.7</ele>
        <time>2020-08-06T17:47:43Z</time>
      </trkpt>
      <trkpt lat="40.9544870" lon="0.3137820">
        <ele>515.7</ele>
        <time>2020-08-06T17:47:44Z</time>
      </trkpt>
      <trkpt lat="40.9544820" lon="0.3137710">
        <ele>515.6</ele>
        <time>2020-08-06T17:47:45Z</time>
      </trkpt>
      <trkpt lat="40.9544760" lon="0.3137630">
        <ele>515.6</ele>
        <time>2020-08-06T17:47:46Z</time>
      </trkpt>
      <trkpt lat="40.9544680" lon="0.3137580">
        <ele>515.6</ele>
        <time>2020-08-06T17:47:47Z</time>
      </trkpt>
      <trkpt lat="40.9544550" lon="0.3137490">
        <ele>515.5</ele>
        <time>2020-08-06T17:47:49Z</time>
      </trkpt>
      <trkpt lat="40.9544420" lon="0.3137410">
        <ele>515.5</ele>
        <time>2020-08-06T17:47:50Z</time>
      </trkpt>
      <trkpt lat="40.9544310" lon="0.3137410">
        <ele>515.4</ele>
        <time>2020-08-06T17:47:51Z</time>
      </trkpt>
      <trkpt lat="40.9544240" lon="0.3137420">
        <ele>515.4</ele>
        <time>2020-08-06T17:47:52Z</time>
      </trkpt>
      <trkpt lat="40.9544160" lon="0.3137410">
        <ele>515.4</ele>
        <time>2020-08-06T17:47:53Z</time>
      </trkpt>
      <trkpt lat="40.9544120" lon="0.3137400">
        <ele>515.4</ele>
        <time>2020-08-06T17:47:54Z</time>
      </trkpt>
      <trkpt lat="40.9544150" lon="0.3137430">
        <ele>515.4</ele>
        <time>2020-08-06T17:47:56Z</time>
      </trkpt>
      <trkpt lat="40.9544190" lon="0.3137450">
        <ele>515.3</ele>
        <time>2020-08-06T17:47:57Z</time>
      </trkpt>
      <trkpt lat="40.9544210" lon="0.3137460">
        <ele>515.3</ele>
        <time>2020-08-06T17:47:58Z</time>
      </trkpt>
      <trkpt lat="40.9544220" lon="0.3137510">
        <ele>515.3</ele>
        <time>2020-08-06T17:48:00Z</time>
      </trkpt>
      <trkpt lat="40.9544220" lon="0.3137520">
        <ele>515.3</ele>
        <time>2020-08-06T17:48:01Z</time>
      </trkpt>
      <trkpt lat="40.9544200" lon="0.3137520">
        <ele>515.3</ele>
        <time>2020-08-06T17:48:02Z</time>
      </trkpt>
      <trkpt lat="40.9544170" lon="0.3137520">
        <ele>515.3</ele>
        <time>2020-08-06T17:48:03Z</time>
      </trkpt>
      <trkpt lat="40.9544150" lon="0.3137520">
        <ele>515.3</ele>
        <time>2020-08-06T17:48:04Z</time>
      </trkpt>
      <trkpt lat="40.9543890" lon="0.3137640">
        <ele>514.8</ele>
        <time>2020-08-06T17:50:04Z</time>
      </trkpt>
      <trkpt lat="40.9543740" lon="0.3137720">
        <ele>514.7</ele>
        <time>2020-08-06T17:50:05Z</time>
      </trkpt>
      <trkpt lat="40.9543540" lon="0.3137890">
        <ele>514.7</ele>
        <time>2020-08-06T17:50:08Z</time>
      </trkpt>
      <trkpt lat="40.9543530" lon="0.3138010">
        <ele>514.7</ele>
        <time>2020-08-06T17:50:09Z</time>
      </trkpt>
      <trkpt lat="40.9543480" lon="0.3138190">
        <ele>514.6</ele>
        <time>2020-08-06T17:50:10Z</time>
      </trkpt>
      <trkpt lat="40.9543390" lon="0.3138430">
        <ele>514.6</ele>
        <time>2020-08-06T17:50:12Z</time>
      </trkpt>
      <trkpt lat="40.9543340" lon="0.3138700">
        <ele>514.5</ele>
        <time>2020-08-06T17:50:13Z</time>
      </trkpt>
      <trkpt lat="40.9543260" lon="0.3139090">
        <ele>514.4</ele>
        <time>2020-08-06T17:50:15Z</time>
      </trkpt>
      <trkpt lat="40.9543240" lon="0.3139450">
        <ele>514.4</ele>
        <time>2020-08-06T17:50:16Z</time>
      </trkpt>
      <trkpt lat="40.9543230" lon="0.3139940">
        <ele>514.3</ele>
        <time>2020-08-06T17:50:18Z</time>
      </trkpt>
      <trkpt lat="40.9543220" lon="0.3140430">
        <ele>514.2</ele>
        <time>2020-08-06T17:50:19Z</time>
      </trkpt>
      <trkpt lat="40.9543240" lon="0.3140900">
        <ele>514.1</ele>
        <time>2020-08-06T17:50:20Z</time>
      </trkpt>
      <trkpt lat="40.9543240" lon="0.3141070">
        <ele>514.0</ele>
        <time>2020-08-06T17:50:21Z</time>
      </trkpt>
      <trkpt lat="40.9543210" lon="0.3141540">
        <ele>513.9</ele>
        <time>2020-08-06T17:50:23Z</time>
      </trkpt>
      <trkpt lat="40.9543160" lon="0.3141890">
        <ele>513.9</ele>
        <time>2020-08-06T17:50:24Z</time>
      </trkpt>
      <trkpt lat="40.9543140" lon="0.3142120">
        <ele>513.8</ele>
        <time>2020-08-06T17:50:25Z</time>
      </trkpt>
      <trkpt lat="40.9543140" lon="0.3142440">
        <ele>513.7</ele>
        <time>2020-08-06T17:50:27Z</time>
      </trkpt>
      <trkpt lat="40.9542950" lon="0.3144690">
        <ele>513.3</ele>
        <time>2020-08-06T17:50:28Z</time>
      </trkpt>
      <trkpt lat="40.9542880" lon="0.3145640">
        <ele>513.1</ele>
        <time>2020-08-06T17:50:29Z</time>
      </trkpt>
      <trkpt lat="40.9542780" lon="0.3147020">
        <ele>512.8</ele>
        <time>2020-08-06T17:50:31Z</time>
      </trkpt>
      <trkpt lat="40.9542710" lon="0.3147780">
        <ele>512.6</ele>
        <time>2020-08-06T17:50:33Z</time>
      </trkpt>
      <trkpt lat="40.9542680" lon="0.3148250">
        <ele>512.6</ele>
        <time>2020-08-06T17:50:34Z</time>
      </trkpt>
      <trkpt lat="40.9542670" lon="0.3148410">
        <ele>512.5</ele>
        <time>2020-08-06T17:50:35Z</time>
      </trkpt>
      <trkpt lat="40.9542650" lon="0.3148900">
        <ele>512.4</ele>
        <time>2020-08-06T17:50:37Z</time>
      </trkpt>
      <trkpt lat="40.9542610" lon="0.3149070">
        <ele>512.4</ele>
        <time>2020-08-06T17:50:38Z</time>
      </trkpt>
      <trkpt lat="40.9542550" lon="0.3149250">
        <ele>512.3</ele>
        <time>2020-08-06T17:50:39Z</time>
      </trkpt>
      <trkpt lat="40.9542430" lon="0.3149460">
        <ele>512.3</ele>
        <time>2020-08-06T17:50:41Z</time>
      </trkpt>
      <trkpt lat="40.9542400" lon="0.3149480">
        <ele>511.5</ele>
        <time>2020-08-06T17:50:42Z</time>
      </trkpt>
      <trkpt lat="40.9542410" lon="0.3149470">
        <ele>511.5</ele>
        <time>2020-08-06T17:50:43Z</time>
      </trkpt>
      <trkpt lat="40.9542440" lon="0.3149470">
        <ele>511.4</ele>
        <time>2020-08-06T17:50:45Z</time>
      </trkpt>
      <trkpt lat="40.9542420" lon="0.3149560">
        <ele>511.4</ele>
        <time>2020-08-06T17:50:47Z</time>
      </trkpt>
      <trkpt lat="40.9542400" lon="0.3149600">
        <ele>511.3</ele>
        <time>2020-08-06T17:50:48Z</time>
      </trkpt>
      <trkpt lat="40.9542400" lon="0.3149640">
        <ele>511.3</ele>
        <time>2020-08-06T17:50:50Z</time>
      </trkpt>
      <trkpt lat="40.9542400" lon="0.3149650">
        <ele>511.3</ele>
        <time>2020-08-06T17:50:51Z</time>
      </trkpt>
      <trkpt lat="40.9542370" lon="0.3149640">
        <ele>511.3</ele>
        <time>2020-08-06T17:50:53Z</time>
      </trkpt>
      <trkpt lat="40.9542370" lon="0.3149630">
        <ele>511.3</ele>
        <time>2020-08-06T17:50:54Z</time>
      </trkpt>
      <trkpt lat="40.9542360" lon="0.3149630">
        <ele>511.3</ele>
        <time>2020-08-06T17:50:55Z</time>
      </trkpt>
      <trkpt lat="40.9542360" lon="0.3149620">
        <ele>511.3</ele>
        <time>2020-08-06T17:50:57Z</time>
      </trkpt>
      <trkpt lat="40.9542360" lon="0.3149620">
        <ele>511.3</ele>
        <time>2020-08-06T17:50:58Z</time>
      </trkpt>
      <trkpt lat="40.9542090" lon="0.3149930">
        <ele>511.0</ele>
        <time>2020-08-06T17:51:43Z</time>
      </trkpt>
      <trkpt lat="40.9542150" lon="0.3150010">
        <ele>511.0</ele>
        <time>2020-08-06T17:51:44Z</time>
      </trkpt>
      <trkpt lat="40.9542460" lon="0.3149790">
        <ele>510.7</ele>
        <time>2020-08-06T17:51:46Z</time>
      </trkpt>
      <trkpt lat="40.9542670" lon="0.3149140">
        <ele>510.4</ele>
        <time>2020-08-06T17:51:48Z</time>
      </trkpt>
      <trkpt lat="40.9542700" lon="0.3148910">
        <ele>510.3</ele>
        <time>2020-08-06T17:51:50Z</time>
      </trkpt>
      <trkpt lat="40.9542690" lon="0.3148930">
        <ele>510.3</ele>
        <time>2020-08-06T17:51:51Z</time>
      </trkpt>
      <trkpt lat="40.9542710" lon="0.3149050">
        <ele>510.2</ele>
        <time>2020-08-06T17:51:52Z</time>
      </trkpt>
      <trkpt lat="40.9542770" lon="0.3149270">
        <ele>510.1</ele>
        <time>2020-08-06T17:51:54Z</time>
      </trkpt>
      <trkpt lat="40.9542800" lon="0.3149320">
        <ele>510.1</ele>
        <time>2020-08-06T17:51:55Z</time>
      </trkpt>
      <trkpt lat="40.9542800" lon="0.3149340">
        <ele>510.1</ele>
        <time>2020-08-06T17:51:56Z</time>
      </trkpt>
      <trkpt lat="40.9542690" lon="0.3149330">
        <ele>510.0</ele>
        <time>2020-08-06T17:51:58Z</time>
      </trkpt>
      <trkpt lat="40.9542650" lon="0.3149320">
        <ele>510.0</ele>
        <time>2020-08-06T17:52:00Z</time>
      </trkpt>
      <trkpt lat="40.9542630" lon="0.3149310">
        <ele>510.0</ele>
        <time>2020-08-06T17:52:02Z</time>
      </trkpt>
      <trkpt lat="40.9542590" lon="0.3149270">
        <ele>509.9</ele>
        <time>2020-08-06T17:52:03Z</time>
      </trkpt>
      <trkpt lat="40.9542500" lon="0.3149220">
        <ele>509.9</ele>
        <time>2020-08-06T17:52:04Z</time>
      </trkpt>
      <trkpt lat="40.9542300" lon="0.3149220">
        <ele>509.7</ele>
        <time>2020-08-06T17:52:06Z</time>
      </trkpt>
      <trkpt lat="40.9542180" lon="0.3149240">
        <ele>509.7</ele>
        <time>2020-08-06T17:52:07Z</time>
      </trkpt>
      <trkpt lat="40.9542030" lon="0.3149230">
        <ele>509.6</ele>
        <time>2020-08-06T17:52:08Z</time>
      </trkpt>
      <trkpt lat="40.9541640" lon="0.3149240">
        <ele>509.3</ele>
        <time>2020-08-06T17:52:10Z</time>
      </trkpt>
      <trkpt lat="40.9541490" lon="0.3149260">
        <ele>509.3</ele>
        <time>2020-08-06T17:52:11Z</time>
      </trkpt>
      <trkpt lat="40.9541050" lon="0.3149330">
        <ele>509.0</ele>
        <time>2020-08-06T17:52:13Z</time>
      </trkpt>
      <trkpt lat="40.9540650" lon="0.3149390">
        <ele>508.7</ele>
        <time>2020-08-06T17:52:14Z</time>
      </trkpt>
      <trkpt lat="40.9540180" lon="0.3149470">
        <ele>508.5</ele>
        <time>2020-08-06T17:52:15Z</time>
      </trkpt>
      <trkpt lat="40.9539890" lon="0.3149520">
        <ele>508.3</ele>
        <time>2020-08-06T17:52:16Z</time>
      </trkpt>
      <trkpt lat="40.9539320" lon="0.3149590">
        <ele>508.0</ele>
        <time>2020-08-06T17:52:17Z</time>
      </trkpt>
      <trkpt lat="40.9538340" lon="0.3149560">
        <ele>507.4</ele>
        <time>2020-08-06T17:52:19Z</time>
      </trkpt>
      <trkpt lat="40.9537610" lon="0.3149500">
        <ele>507.0</ele>
        <time>2020-08-06T17:52:20Z</time>
      </trkpt>
      <trkpt lat="40.9537200" lon="0.3149390">
        <ele>506.8</ele>
        <time>2020-08-06T17:52:21Z</time>
      </trkpt>
      <trkpt lat="40.9536820" lon="0.3149230">
        <ele>506.6</ele>
        <time>2020-08-06T17:52:22Z</time>
      </trkpt>
      <trkpt lat="40.9536500" lon="0.3149100">
        <ele>506.4</ele>
        <time>2020-08-06T17:52:23Z</time>
      </trkpt>
      <trkpt lat="40.9536140" lon="0.3148920">
        <ele>506.3</ele>
        <time>2020-08-06T17:52:25Z</time>
      </trkpt>
      <trkpt lat="40.9535920" lon="0.3148800">
        <ele>507.0</ele>
        <time>2020-08-06T17:52:26Z</time>
      </trkpt>
      <trkpt lat="40.9535710" lon="0.3148720">
        <ele>507.2</ele>
        <time>2020-08-06T17:52:28Z</time>
      </trkpt>
      <trkpt lat="40.9535220" lon="0.3148700">
        <ele>507.4</ele>
        <time>2020-08-06T17:52:29Z</time>
      </trkpt>
      <trkpt lat="40.9534940" lon="0.3148690">
        <ele>507.2</ele>
        <time>2020-08-06T17:52:30Z</time>
      </trkpt>
      <trkpt lat="40.9534520" lon="0.3148660">
        <ele>507.1</ele>
        <time>2020-08-06T17:52:31Z</time>
      </trkpt>
      <trkpt lat="40.9533980" lon="0.3148550">
        <ele>507.5</ele>
        <time>2020-08-06T17:52:33Z</time>
      </trkpt>
      <trkpt lat="40.9533710" lon="0.3148500">
        <ele>507.0</ele>
        <time>2020-08-06T17:52:34Z</time>
      </trkpt>
      <trkpt lat="40.9533200" lon="0.3148460">
        <ele>506.2</ele>
        <time>2020-08-06T17:52:36Z</time>
      </trkpt>
      <trkpt lat="40.9532980" lon="0.3148340">
        <ele>505.9</ele>
        <time>2020-08-06T17:52:37Z</time>
      </trkpt>
      <trkpt lat="40.9532530" lon="0.3148120">
        <ele>505.3</ele>
        <time>2020-08-06T17:52:39Z</time>
      </trkpt>
      <trkpt lat="40.9532210" lon="0.3148070">
        <ele>505.0</ele>
        <time>2020-08-06T17:52:40Z</time>
      </trkpt>
      <trkpt lat="40.9532100" lon="0.3148050">
        <ele>504.9</ele>
        <time>2020-08-06T17:52:41Z</time>
      </trkpt>
      <trkpt lat="40.9531860" lon="0.3148070">
        <ele>504.8</ele>
        <time>2020-08-06T17:52:42Z</time>
      </trkpt>
      <trkpt lat="40.9531390" lon="0.3148120">
        <ele>504.4</ele>
        <time>2020-08-06T17:52:44Z</time>
      </trkpt>
      <trkpt lat="40.9530830" lon="0.3148120">
        <ele>503.9</ele>
        <time>2020-08-06T17:52:46Z</time>
      </trkpt>
      <trkpt lat="40.9530620" lon="0.3148130">
        <ele>503.6</ele>
        <time>2020-08-06T17:52:47Z</time>
      </trkpt>
      <trkpt lat="40.9530410" lon="0.3148150">
        <ele>503.4</ele>
        <time>2020-08-06T17:52:48Z</time>
      </trkpt>
      <trkpt lat="40.9530130" lon="0.3148200">
        <ele>503.1</ele>
        <time>2020-08-06T17:52:49Z</time>
      </trkpt>
      <trkpt lat="40.9529790" lon="0.3148180">
        <ele>502.7</ele>
        <time>2020-08-06T17:52:50Z</time>
      </trkpt>
      <trkpt lat="40.9529330" lon="0.3148080">
        <ele>502.1</ele>
        <time>2020-08-06T17:52:52Z</time>
      </trkpt>
      <trkpt lat="40.9529120" lon="0.3148090">
        <ele>501.8</ele>
        <time>2020-08-06T17:52:53Z</time>
      </trkpt>
      <trkpt lat="40.9529050" lon="0.3148140">
        <ele>501.7</ele>
        <time>2020-08-06T17:52:55Z</time>
      </trkpt>
      <trkpt lat="40.9528990" lon="0.3148200">
        <ele>501.6</ele>
        <time>2020-08-06T17:52:56Z</time>
      </trkpt>
      <trkpt lat="40.9528930" lon="0.3148260">
        <ele>501.5</ele>
        <time>2020-08-06T17:52:57Z</time>
      </trkpt>
      <trkpt lat="40.9528860" lon="0.3148310">
        <ele>501.4</ele>
        <time>2020-08-06T17:52:59Z</time>
      </trkpt>
      <trkpt lat="40.9528800" lon="0.3148370">
        <ele>501.3</ele>
        <time>2020-08-06T17:53:00Z</time>
      </trkpt>
      <trkpt lat="40.9528740" lon="0.3148430">
        <ele>501.2</ele>
        <time>2020-08-06T17:53:01Z</time>
      </trkpt>
      <trkpt lat="40.9528670" lon="0.3148480">
        <ele>501.1</ele>
        <time>2020-08-06T17:53:03Z</time>
      </trkpt>
      <trkpt lat="40.9528610" lon="0.3148540">
        <ele>501.0</ele>
        <time>2020-08-06T17:53:05Z</time>
      </trkpt>
      <trkpt lat="40.9528550" lon="0.3148600">
        <ele>500.9</ele>
        <time>2020-08-06T17:53:17Z</time>
      </trkpt>
      <trkpt lat="40.9528480" lon="0.3148650">
        <ele>500.7</ele>
        <time>2020-08-06T17:53:18Z</time>
      </trkpt>
      <trkpt lat="40.9528420" lon="0.3148710">
        <ele>500.6</ele>
        <time>2020-08-06T17:53:19Z</time>
      </trkpt>
      <trkpt lat="40.9528070" lon="0.3148880">
        <ele>499.8</ele>
        <time>2020-08-06T17:53:21Z</time>
      </trkpt>
      <trkpt lat="40.9527900" lon="0.3148890">
        <ele>499.5</ele>
        <time>2020-08-06T17:53:22Z</time>
      </trkpt>
      <trkpt lat="40.9527840" lon="0.3148880">
        <ele>499.5</ele>
        <time>2020-08-06T17:53:23Z</time>
      </trkpt>
      <trkpt lat="40.9527900" lon="0.3148840">
        <ele>499.4</ele>
        <time>2020-08-06T17:53:25Z</time>
      </trkpt>
      <trkpt lat="40.9527960" lon="0.3148820">
        <ele>499.3</ele>
        <time>2020-08-06T17:53:26Z</time>
      </trkpt>
      <trkpt lat="40.9528010" lon="0.3148790">
        <ele>499.2</ele>
        <time>2020-08-06T17:53:27Z</time>
      </trkpt>
      <trkpt lat="40.9528060" lon="0.3148740">
        <ele>499.2</ele>
        <time>2020-08-06T17:53:29Z</time>
      </trkpt>
      <trkpt lat="40.9528070" lon="0.3148720">
        <ele>499.1</ele>
        <time>2020-08-06T17:53:30Z</time>
      </trkpt>
      <trkpt lat="40.9528080" lon="0.3148700">
        <ele>499.1</ele>
        <time>2020-08-06T17:53:31Z</time>
      </trkpt>
      <trkpt lat="40.9528090" lon="0.3148690">
        <ele>499.1</ele>
        <time>2020-08-06T17:53:32Z</time>
      </trkpt>
      <trkpt lat="40.9528100" lon="0.3148680">
        <ele>499.1</ele>
        <time>2020-08-06T17:53:33Z</time>
      </trkpt>
      <trkpt lat="40.9528120" lon="0.3148670">
        <ele>499.1</ele>
        <time>2020-08-06T17:53:35Z</time>
      </trkpt>
      <trkpt lat="40.9528120" lon="0.3148670">
        <ele>499.1</ele>
        <time>2020-08-06T17:53:36Z</time>
      </trkpt>
      <trkpt lat="40.9528120" lon="0.3148670">
        <ele>499.1</ele>
        <time>2020-08-06T17:53:37Z</time>
      </trkpt>
      <trkpt lat="40.9528120" lon="0.3148670">
        <ele>499.1</ele>
        <time>2020-08-06T17:53:39Z</time>
      </trkpt>
      <trkpt lat="40.9527940" lon="0.3148220">
        <ele>498.6</ele>
        <time>2020-08-06T17:53:45Z</time>
      </trkpt>
      <trkpt lat="40.9527880" lon="0.3147330">
        <ele>497.9</ele>
        <time>2020-08-06T17:53:47Z</time>
      </trkpt>
      <trkpt lat="40.9527820" lon="0.3146810">
        <ele>497.5</ele>
        <time>2020-08-06T17:53:48Z</time>
      </trkpt>
      <trkpt lat="40.9527650" lon="0.3146090">
        <ele>497.0</ele>
        <time>2020-08-06T17:53:49Z</time>
      </trkpt>
      <trkpt lat="40.9527290" lon="0.3144440">
        <ele>495.6</ele>
        <time>2020-08-06T17:53:51Z</time>
      </trkpt>
      <trkpt lat="40.9527140" lon="0.3143480">
        <ele>495.0</ele>
        <time>2020-08-06T17:53:52Z</time>
      </trkpt>
      <trkpt lat="40.9527010" lon="0.3142360">
        <ele>494.3</ele>
        <time>2020-08-06T17:53:53Z</time>
      </trkpt>
      <trkpt lat="40.9526740" lon="0.3140130">
        <ele>493.2</ele>
        <time>2020-08-06T17:53:55Z</time>
      </trkpt>
      <trkpt lat="40.9526640" lon="0.3138110">
        <ele>492.3</ele>
        <time>2020-08-06T17:53:57Z</time>
      </trkpt>
      <trkpt lat="40.9526550" lon="0.3137170">
        <ele>492.1</ele>
        <time>2020-08-06T17:53:58Z</time>
      </trkpt>
      <trkpt lat="40.9526460" lon="0.3136200">
        <ele>492.0</ele>
        <time>2020-08-06T17:53:59Z</time>
      </trkpt>
      <trkpt lat="40.9526230" lon="0.3134490">
        <ele>491.9</ele>
        <time>2020-08-06T17:54:01Z</time>
      </trkpt>
      <trkpt lat="40.9526140" lon="0.3133650">
        <ele>491.9</ele>
        <time>2020-08-06T17:54:02Z</time>
      </trkpt>
      <trkpt lat="40.9526020" lon="0.3131920">
        <ele>492.0</ele>
        <time>2020-08-06T17:54:04Z</time>
      </trkpt>
      <trkpt lat="40.9525960" lon="0.3130400">
        <ele>491.9</ele>
        <time>2020-08-06T17:54:06Z</time>
      </trkpt>
      <trkpt lat="40.9526030" lon="0.3129740">
        <ele>491.6</ele>
        <time>2020-08-06T17:54:07Z</time>
      </trkpt>
      <trkpt lat="40.9526090" lon="0.3129190">
        <ele>491.4</ele>
        <time>2020-08-06T17:54:08Z</time>
      </trkpt>
      <trkpt lat="40.9526120" lon="0.3128820">
        <ele>491.2</ele>
        <time>2020-08-06T17:54:09Z</time>
      </trkpt>
      <trkpt lat="40.9526070" lon="0.3127920">
        <ele>491.0</ele>
        <time>2020-08-06T17:54:11Z</time>
      </trkpt>
      <trkpt lat="40.9525990" lon="0.3126950">
        <ele>491.0</ele>
        <time>2020-08-06T17:54:13Z</time>
      </trkpt>
      <trkpt lat="40.9526040" lon="0.3126370">
        <ele>491.0</ele>
        <time>2020-08-06T17:54:14Z</time>
      </trkpt>
      <trkpt lat="40.9526170" lon="0.3125780">
        <ele>491.0</ele>
        <time>2020-08-06T17:54:15Z</time>
      </trkpt>
      <trkpt lat="40.9526460" lon="0.3124630">
        <ele>491.0</ele>
        <time>2020-08-06T17:54:17Z</time>
      </trkpt>
      <trkpt lat="40.9526740" lon="0.3123260">
        <ele>490.9</ele>
        <time>2020-08-06T17:54:19Z</time>
      </trkpt>
      <trkpt lat="40.9526820" lon="0.3122570">
        <ele>490.9</ele>
        <time>2020-08-06T17:54:20Z</time>
      </trkpt>
      <trkpt lat="40.9526920" lon="0.3121910">
        <ele>490.9</ele>
        <time>2020-08-06T17:54:21Z</time>
      </trkpt>
      <trkpt lat="40.9527050" lon="0.3122860">
        <ele>490.9</ele>
        <time>2020-08-06T17:54:23Z</time>
      </trkpt>
      <trkpt lat="40.9527160" lon="0.3123390">
        <ele>490.9</ele>
        <time>2020-08-06T17:54:24Z</time>
      </trkpt>
      <trkpt lat="40.9527360" lon="0.3123490">
        <ele>490.9</ele>
        <time>2020-08-06T17:54:26Z</time>
      </trkpt>
      <trkpt lat="40.9527430" lon="0.3123360">
        <ele>490.9</ele>
        <time>2020-08-06T17:54:27Z</time>
      </trkpt>
      <trkpt lat="40.9527510" lon="0.3123240">
        <ele>490.8</ele>
        <time>2020-08-06T17:54:28Z</time>
      </trkpt>
      <trkpt lat="40.9527530" lon="0.3123020">
        <ele>490.8</ele>
        <time>2020-08-06T17:54:29Z</time>
      </trkpt>
      <trkpt lat="40.9527560" lon="0.3122660">
        <ele>490.8</ele>
        <time>2020-08-06T17:54:31Z</time>
      </trkpt>
      <trkpt lat="40.9527560" lon="0.3122370">
        <ele>490.8</ele>
        <time>2020-08-06T17:54:32Z</time>
      </trkpt>
      <trkpt lat="40.9527580" lon="0.3122220">
        <ele>490.8</ele>
        <time>2020-08-06T17:54:33Z</time>
      </trkpt>
      <trkpt lat="40.9527680" lon="0.3121990">
        <ele>490.8</ele>
        <time>2020-08-06T17:54:35Z</time>
      </trkpt>
      <trkpt lat="40.9527740" lon="0.3121820">
        <ele>490.8</ele>
        <time>2020-08-06T17:54:36Z</time>
      </trkpt>
      <trkpt lat="40.9527800" lon="0.3121660">
        <ele>490.8</ele>
        <time>2020-08-06T17:54:37Z</time>
      </trkpt>
      <trkpt lat="40.9527860" lon="0.3121500">
        <ele>490.8</ele>
        <time>2020-08-06T17:54:38Z</time>
      </trkpt>
      <trkpt lat="40.9527910" lon="0.3121360">
        <ele>490.8</ele>
        <time>2020-08-06T17:54:39Z</time>
      </trkpt>
      <trkpt lat="40.9528010" lon="0.3121110">
        <ele>490.8</ele>
        <time>2020-08-06T17:54:41Z</time>
      </trkpt>
      <trkpt lat="40.9528090" lon="0.3120950">
        <ele>490.8</ele>
        <time>2020-08-06T17:54:43Z</time>
      </trkpt>
      <trkpt lat="40.9528410" lon="0.3120080">
        <ele>490.8</ele>
        <time>2020-08-06T17:54:51Z</time>
      </trkpt>
      <trkpt lat="40.9528420" lon="0.3120000">
        <ele>490.8</ele>
        <time>2020-08-06T17:54:52Z</time>
      </trkpt>
      <trkpt lat="40.9528410" lon="0.3119860">
        <ele>490.8</ele>
        <time>2020-08-06T17:54:54Z</time>
      </trkpt>
      <trkpt lat="40.9528450" lon="0.3119900">
        <ele>490.8</ele>
        <time>2020-08-06T17:54:55Z</time>
      </trkpt>
      <trkpt lat="40.9528550" lon="0.3119870">
        <ele>490.8</ele>
        <time>2020-08-06T17:54:57Z</time>
      </trkpt>
      <trkpt lat="40.9528620" lon="0.3119770">
        <ele>490.8</ele>
        <time>2020-08-06T17:54:58Z</time>
      </trkpt>
      <trkpt lat="40.9528680" lon="0.3119580">
        <ele>490.8</ele>
        <time>2020-08-06T17:55:00Z</time>
      </trkpt>
      <trkpt lat="40.9528690" lon="0.3119470">
        <ele>490.8</ele>
        <time>2020-08-06T17:55:01Z</time>
      </trkpt>
      <trkpt lat="40.9528700" lon="0.3119360">
        <ele>490.8</ele>
        <time>2020-08-06T17:55:02Z</time>
      </trkpt>
      <trkpt lat="40.9528690" lon="0.3119130">
        <ele>490.8</ele>
        <time>2020-08-06T17:55:04Z</time>
      </trkpt>
      <trkpt lat="40.9528650" lon="0.3119090">
        <ele>490.7</ele>
        <time>2020-08-06T17:55:05Z</time>
      </trkpt>
      <trkpt lat="40.9528570" lon="0.3119030">
        <ele>490.7</ele>
        <time>2020-08-06T17:55:07Z</time>
      </trkpt>
      <trkpt lat="40.9528540" lon="0.3118990">
        <ele>490.7</ele>
        <time>2020-08-06T17:55:08Z</time>
      </trkpt>
      <trkpt lat="40.9528480" lon="0.3118910">
        <ele>490.7</ele>
        <time>2020-08-06T17:55:10Z</time>
      </trkpt>
      <trkpt lat="40.9528460" lon="0.3118880">
        <ele>490.7</ele>
        <time>2020-08-06T17:55:11Z</time>
      </trkpt>
      <trkpt lat="40.9528420" lon="0.3118810">
        <ele>490.7</ele>
        <time>2020-08-06T17:55:13Z</time>
      </trkpt>
      <trkpt lat="40.9528040" lon="0.3118500">
        <ele>490.7</ele>
        <time>2020-08-06T18:03:32Z</time>
      </trkpt>
      <trkpt lat="40.9527760" lon="0.3118780">
        <ele>490.7</ele>
        <time>2020-08-06T18:03:34Z</time>
      </trkpt>
      <trkpt lat="40.9527720" lon="0.3118940">
        <ele>490.7</ele>
        <time>2020-08-06T18:03:35Z</time>
      </trkpt>
      <trkpt lat="40.9527750" lon="0.3119210">
        <ele>490.7</ele>
        <time>2020-08-06T18:03:36Z</time>
      </trkpt>
      <trkpt lat="40.9527650" lon="0.3119390">
        <ele>490.7</ele>
        <time>2020-08-06T18:03:38Z</time>
      </trkpt>
      <trkpt lat="40.9527600" lon="0.3119520">
        <ele>490.7</ele>
        <time>2020-08-06T18:03:39Z</time>
      </trkpt>
      <trkpt lat="40.9527690" lon="0.3119750">
        <ele>490.7</ele>
        <time>2020-08-06T18:03:40Z</time>
      </trkpt>
      <trkpt lat="40.9527730" lon="0.3119860">
        <ele>490.7</ele>
        <time>2020-08-06T18:03:42Z</time>
      </trkpt>
      <trkpt lat="40.9527770" lon="0.3119980">
        <ele>490.7</ele>
        <time>2020-08-06T18:03:43Z</time>
      </trkpt>
      <trkpt lat="40.9527790" lon="0.3120230">
        <ele>490.7</ele>
        <time>2020-08-06T18:03:45Z</time>
      </trkpt>
      <trkpt lat="40.9527690" lon="0.3120350">
        <ele>490.7</ele>
        <time>2020-08-06T18:03:46Z</time>
      </trkpt>
      <trkpt lat="40.9527460" lon="0.3120680">
        <ele>490.7</ele>
        <time>2020-08-06T18:03:47Z</time>
      </trkpt>
      <trkpt lat="40.9527190" lon="0.3121040">
        <ele>490.7</ele>
        <time>2020-08-06T18:03:48Z</time>
      </trkpt>
      <trkpt lat="40.9526810" lon="0.3121600">
        <ele>490.7</ele>
        <time>2020-08-06T18:03:50Z</time>
      </trkpt>
      <trkpt lat="40.9526460" lon="0.3122220">
        <ele>490.7</ele>
        <time>2020-08-06T18:03:51Z</time>
      </trkpt>
      <trkpt lat="40.9526330" lon="0.3122810">
        <ele>490.8</ele>
        <time>2020-08-06T18:03:52Z</time>
      </trkpt>
      <trkpt lat="40.9526230" lon="0.3123650">
        <ele>490.8</ele>
        <time>2020-08-06T18:03:54Z</time>
      </trkpt>
      <trkpt lat="40.9526190" lon="0.3124250">
        <ele>490.8</ele>
        <time>2020-08-06T18:03:55Z</time>
      </trkpt>
      <trkpt lat="40.9526130" lon="0.3124860">
        <ele>490.9</ele>
        <time>2020-08-06T18:03:57Z</time>
      </trkpt>
      <trkpt lat="40.9526060" lon="0.3125390">
        <ele>490.9</ele>
        <time>2020-08-06T18:03:58Z</time>
      </trkpt>
      <trkpt lat="40.9526000" lon="0.3125850">
        <ele>490.9</ele>
        <time>2020-08-06T18:03:59Z</time>
      </trkpt>
      <trkpt lat="40.9525910" lon="0.3126380">
        <ele>490.9</ele>
        <time>2020-08-06T18:04:01Z</time>
      </trkpt>
      <trkpt lat="40.9525820" lon="0.3126800">
        <ele>491.0</ele>
        <time>2020-08-06T18:04:02Z</time>
      </trkpt>
      <trkpt lat="40.9525780" lon="0.3127270">
        <ele>491.0</ele>
        <time>2020-08-06T18:04:03Z</time>
      </trkpt>
      <trkpt lat="40.9525700" lon="0.3127630">
        <ele>491.0</ele>
        <time>2020-08-06T18:04:04Z</time>
      </trkpt>
      <trkpt lat="40.9525640" lon="0.3128210">
        <ele>491.0</ele>
        <time>2020-08-06T18:04:06Z</time>
      </trkpt>
      <trkpt lat="40.9525620" lon="0.3128680">
        <ele>491.2</ele>
        <time>2020-08-06T18:04:07Z</time>
      </trkpt>
      <trkpt lat="40.9525610" lon="0.3129000">
        <ele>491.3</ele>
        <time>2020-08-06T18:04:08Z</time>
      </trkpt>
      <trkpt lat="40.9525590" lon="0.3129490">
        <ele>491.5</ele>
        <time>2020-08-06T18:04:10Z</time>
      </trkpt>
      <trkpt lat="40.9525580" lon="0.3129970">
        <ele>491.8</ele>
        <time>2020-08-06T18:04:11Z</time>
      </trkpt>
      <trkpt lat="40.9525570" lon="0.3130110">
        <ele>491.8</ele>
        <time>2020-08-06T18:04:12Z</time>
      </trkpt>
      <trkpt lat="40.9525580" lon="0.3130700">
        <ele>492.0</ele>
        <time>2020-08-06T18:04:14Z</time>
      </trkpt>
      <trkpt lat="40.9525600" lon="0.3130900">
        <ele>492.1</ele>
        <time>2020-08-06T18:04:15Z</time>
      </trkpt>
      <trkpt lat="40.9525610" lon="0.3131100">
        <ele>492.1</ele>
        <time>2020-08-06T18:04:16Z</time>
      </trkpt>
      <trkpt lat="40.9525670" lon="0.3131650">
        <ele>492.0</ele>
        <time>2020-08-06T18:04:18Z</time>
      </trkpt>
      <trkpt lat="40.9525760" lon="0.3132130">
        <ele>492.0</ele>
        <time>2020-08-06T18:04:20Z</time>
      </trkpt>
      <trkpt lat="40.9525790" lon="0.3132290">
        <ele>491.9</ele>
        <time>2020-08-06T18:04:21Z</time>
      </trkpt>
      <trkpt lat="40.9525900" lon="0.3132720">
        <ele>491.9</ele>
        <time>2020-08-06T18:04:22Z</time>
      </trkpt>
      <trkpt lat="40.9525940" lon="0.3132880">
        <ele>491.9</ele>
        <time>2020-08-06T18:04:23Z</time>
      </trkpt>
      <trkpt lat="40.9526030" lon="0.3133220">
        <ele>491.9</ele>
        <time>2020-08-06T18:04:24Z</time>
      </trkpt>
      <trkpt lat="40.9526120" lon="0.3133720">
        <ele>491.9</ele>
        <time>2020-08-06T18:04:25Z</time>
      </trkpt>
      <trkpt lat="40.9526150" lon="0.3133890">
        <ele>491.9</ele>
        <time>2020-08-06T18:04:26Z</time>
      </trkpt>
      <trkpt lat="40.9526270" lon="0.3134480">
        <ele>492.0</ele>
        <time>2020-08-06T18:04:28Z</time>
      </trkpt>
      <trkpt lat="40.9526380" lon="0.3134930">
        <ele>492.0</ele>
        <time>2020-08-06T18:04:29Z</time>
      </trkpt>
      <trkpt lat="40.9526400" lon="0.3135080">
        <ele>492.0</ele>
        <time>2020-08-06T18:04:30Z</time>
      </trkpt>
      <trkpt lat="40.9526480" lon="0.3135700">
        <ele>492.0</ele>
        <time>2020-08-06T18:04:31Z</time>
      </trkpt>
      <trkpt lat="40.9526740" lon="0.3137450">
        <ele>492.3</ele>
        <time>2020-08-06T18:04:33Z</time>
      </trkpt>
      <trkpt lat="40.9526850" lon="0.3138560">
        <ele>492.7</ele>
        <time>2020-08-06T18:04:35Z</time>
      </trkpt>
      <trkpt lat="40.9526870" lon="0.3138960">
        <ele>493.0</ele>
        <time>2020-08-06T18:04:36Z</time>
      </trkpt>
      <trkpt lat="40.9526890" lon="0.3139350">
        <ele>493.2</ele>
        <time>2020-08-06T18:04:37Z</time>
      </trkpt>
      <trkpt lat="40.9526900" lon="0.3140050">
        <ele>493.6</ele>
        <time>2020-08-06T18:04:39Z</time>
      </trkpt>
      <trkpt lat="40.9526900" lon="0.3140720">
        <ele>493.9</ele>
        <time>2020-08-06T18:04:41Z</time>
      </trkpt>
      <trkpt lat="40.9526950" lon="0.3141440">
        <ele>494.3</ele>
        <time>2020-08-06T18:04:43Z</time>
      </trkpt>
      <trkpt lat="40.9527040" lon="0.3141990">
        <ele>494.6</ele>
        <time>2020-08-06T18:04:45Z</time>
      </trkpt>
      <trkpt lat="40.9527110" lon="0.3142490">
        <ele>494.8</ele>
        <time>2020-08-06T18:04:47Z</time>
      </trkpt>
      <trkpt lat="40.9527120" lon="0.3142760">
        <ele>495.0</ele>
        <time>2020-08-06T18:04:48Z</time>
      </trkpt>
      <trkpt lat="40.9527100" lon="0.3142980">
        <ele>495.2</ele>
        <time>2020-08-06T18:04:49Z</time>
      </trkpt>
      <trkpt lat="40.9527120" lon="0.3143200">
        <ele>495.4</ele>
        <time>2020-08-06T18:04:50Z</time>
      </trkpt>
      <trkpt lat="40.9527150" lon="0.3143550">
        <ele>495.6</ele>
        <time>2020-08-06T18:04:52Z</time>
      </trkpt>
      <trkpt lat="40.9527190" lon="0.3143760">
        <ele>495.8</ele>
        <time>2020-08-06T18:04:53Z</time>
      </trkpt>
      <trkpt lat="40.9527290" lon="0.3143920">
        <ele>496.0</ele>
        <time>2020-08-06T18:04:54Z</time>
      </trkpt>
      <trkpt lat="40.9527470" lon="0.3144260">
        <ele>496.3</ele>
        <time>2020-08-06T18:04:56Z</time>
      </trkpt>
      <trkpt lat="40.9527520" lon="0.3144660">
        <ele>496.7</ele>
        <time>2020-08-06T18:04:58Z</time>
      </trkpt>
      <trkpt lat="40.9527520" lon="0.3145060">
        <ele>497.0</ele>
        <time>2020-08-06T18:05:00Z</time>
      </trkpt>
      <trkpt lat="40.9527550" lon="0.3145290">
        <ele>497.1</ele>
        <time>2020-08-06T18:05:01Z</time>
      </trkpt>
      <trkpt lat="40.9527680" lon="0.3145690">
        <ele>497.5</ele>
        <time>2020-08-06T18:05:03Z</time>
      </trkpt>
      <trkpt lat="40.9527750" lon="0.3145960">
        <ele>497.7</ele>
        <time>2020-08-06T18:05:04Z</time>
      </trkpt>
      <trkpt lat="40.9527760" lon="0.3146500">
        <ele>498.1</ele>
        <time>2020-08-06T18:05:06Z</time>
      </trkpt>
      <trkpt lat="40.9527740" lon="0.3146760">
        <ele>498.3</ele>
        <time>2020-08-06T18:05:07Z</time>
      </trkpt>
      <trkpt lat="40.9527820" lon="0.3147220">
        <ele>498.7</ele>
        <time>2020-08-06T18:05:09Z</time>
      </trkpt>
      <trkpt lat="40.9527940" lon="0.3147600">
        <ele>499.1</ele>
        <time>2020-08-06T18:05:11Z</time>
      </trkpt>
      <trkpt lat="40.9528010" lon="0.3147810">
        <ele>499.4</ele>
        <time>2020-08-06T18:05:12Z</time>
      </trkpt>
      <trkpt lat="40.9528200" lon="0.3148230">
        <ele>499.8</ele>
        <time>2020-08-06T18:05:14Z</time>
      </trkpt>
      <trkpt lat="40.9528320" lon="0.3148580">
        <ele>500.0</ele>
        <time>2020-08-06T18:05:15Z</time>
      </trkpt>
      <trkpt lat="40.9528340" lon="0.3148710">
        <ele>500.1</ele>
        <time>2020-08-06T18:05:16Z</time>
      </trkpt>
      <trkpt lat="40.9528390" lon="0.3149160">
        <ele>500.3</ele>
        <time>2020-08-06T18:05:18Z</time>
      </trkpt>
      <trkpt lat="40.9528330" lon="0.3149590">
        <ele>500.6</ele>
        <time>2020-08-06T18:05:20Z</time>
      </trkpt>
      <trkpt lat="40.9528290" lon="0.3149790">
        <ele>500.7</ele>
        <time>2020-08-06T18:05:21Z</time>
      </trkpt>
      <trkpt lat="40.9528130" lon="0.3150300">
        <ele>501.0</ele>
        <time>2020-08-06T18:05:23Z</time>
      </trkpt>
      <trkpt lat="40.9528030" lon="0.3150570">
        <ele>501.2</ele>
        <time>2020-08-06T18:05:24Z</time>
      </trkpt>
      <trkpt lat="40.9527790" lon="0.3151150">
        <ele>501.3</ele>
        <time>2020-08-06T18:05:26Z</time>
      </trkpt>
      <trkpt lat="40.9527650" lon="0.3151460">
        <ele>501.3</ele>
        <time>2020-08-06T18:05:27Z</time>
      </trkpt>
      <trkpt lat="40.9527490" lon="0.3151770">
        <ele>501.3</ele>
        <time>2020-08-06T18:05:28Z</time>
      </trkpt>
      <trkpt lat="40.9527270" lon="0.3152150">
        <ele>501.3</ele>
        <time>2020-08-06T18:05:29Z</time>
      </trkpt>
      <trkpt lat="40.9527200" lon="0.3152250">
        <ele>501.3</ele>
        <time>2020-08-06T18:05:30Z</time>
      </trkpt>
      <trkpt lat="40.9527050" lon="0.3152460">
        <ele>501.3</ele>
        <time>2020-08-06T18:05:31Z</time>
      </trkpt>
      <trkpt lat="40.9526710" lon="0.3152860">
        <ele>501.3</ele>
        <time>2020-08-06T18:05:33Z</time>
      </trkpt>
      <trkpt lat="40.9526480" lon="0.3153140">
        <ele>501.2</ele>
        <time>2020-08-06T18:05:34Z</time>
      </trkpt>
      <trkpt lat="40.9526410" lon="0.3153230">
        <ele>501.2</ele>
        <time>2020-08-06T18:05:35Z</time>
      </trkpt>
      <trkpt lat="40.9526200" lon="0.3153560">
        <ele>501.1</ele>
        <time>2020-08-06T18:05:37Z</time>
      </trkpt>
      <trkpt lat="40.9526090" lon="0.3153720">
        <ele>501.1</ele>
        <time>2020-08-06T18:05:38Z</time>
      </trkpt>
      <trkpt lat="40.9525850" lon="0.3154060">
        <ele>501.0</ele>
        <time>2020-08-06T18:05:40Z</time>
      </trkpt>
      <trkpt lat="40.9525660" lon="0.3154340">
        <ele>500.9</ele>
        <time>2020-08-06T18:05:41Z</time>
      </trkpt>
      <trkpt lat="40.9525580" lon="0.3154450">
        <ele>500.9</ele>
        <time>2020-08-06T18:05:42Z</time>
      </trkpt>
      <trkpt lat="40.9525250" lon="0.3154870">
        <ele>500.7</ele>
        <time>2020-08-06T18:05:44Z</time>
      </trkpt>
      <trkpt lat="40.9525010" lon="0.3155150">
        <ele>500.6</ele>
        <time>2020-08-06T18:05:45Z</time>
      </trkpt>
      <trkpt lat="40.9524940" lon="0.3155220">
        <ele>500.6</ele>
        <time>2020-08-06T18:05:46Z</time>
      </trkpt>
      <trkpt lat="40.9524660" lon="0.3155510">
        <ele>500.4</ele>
        <time>2020-08-06T18:05:48Z</time>
      </trkpt>
      <trkpt lat="40.9524490" lon="0.3155710">
        <ele>500.3</ele>
        <time>2020-08-06T18:05:49Z</time>
      </trkpt>
      <trkpt lat="40.9524160" lon="0.3156090">
        <ele>500.1</ele>
        <time>2020-08-06T18:05:51Z</time>
      </trkpt>
      <trkpt lat="40.9523840" lon="0.3156500">
        <ele>500.0</ele>
        <time>2020-08-06T18:05:53Z</time>
      </trkpt>
      <trkpt lat="40.9523680" lon="0.3156710">
        <ele>499.9</ele>
        <time>2020-08-06T18:05:54Z</time>
      </trkpt>
      <trkpt lat="40.9523380" lon="0.3157090">
        <ele>499.7</ele>
        <time>2020-08-06T18:05:56Z</time>
      </trkpt>
      <trkpt lat="40.9523140" lon="0.3157400">
        <ele>499.6</ele>
        <time>2020-08-06T18:05:58Z</time>
      </trkpt>
      <trkpt lat="40.9523040" lon="0.3157570">
        <ele>499.5</ele>
        <time>2020-08-06T18:05:59Z</time>
      </trkpt>
      <trkpt lat="40.9522990" lon="0.3157890">
        <ele>499.4</ele>
        <time>2020-08-06T18:06:01Z</time>
      </trkpt>
      <trkpt lat="40.9523020" lon="0.3157990">
        <ele>499.3</ele>
        <time>2020-08-06T18:06:02Z</time>
      </trkpt>
      <trkpt lat="40.9523060" lon="0.3158070">
        <ele>499.3</ele>
        <time>2020-08-06T18:06:03Z</time>
      </trkpt>
      <trkpt lat="40.9523120" lon="0.3158090">
        <ele>499.3</ele>
        <time>2020-08-06T18:06:05Z</time>
      </trkpt>
      <trkpt lat="40.9523170" lon="0.3158040">
        <ele>499.3</ele>
        <time>2020-08-06T18:06:06Z</time>
      </trkpt>
      <trkpt lat="40.9523250" lon="0.3157940">
        <ele>499.2</ele>
        <time>2020-08-06T18:06:08Z</time>
      </trkpt>
      <trkpt lat="40.9523250" lon="0.3157940">
        <ele>499.2</ele>
        <time>2020-08-06T18:06:09Z</time>
      </trkpt>
      <trkpt lat="40.9523240" lon="0.3157940">
        <ele>499.2</ele>
        <time>2020-08-06T18:06:10Z</time>
      </trkpt>
      <trkpt lat="40.9523310" lon="0.3158090">
        <ele>499.2</ele>
        <time>2020-08-06T18:06:12Z</time>
      </trkpt>
      <trkpt lat="40.9523530" lon="0.3158380">
        <ele>499.0</ele>
        <time>2020-08-06T18:06:14Z</time>
      </trkpt>
      <trkpt lat="40.9523780" lon="0.3158400">
        <ele>499.1</ele>
        <time>2020-08-06T18:06:15Z</time>
      </trkpt>
      <trkpt lat="40.9524200" lon="0.3158040">
        <ele>499.3</ele>
        <time>2020-08-06T18:06:17Z</time>
      </trkpt>
      <trkpt lat="40.9524430" lon="0.3157800">
        <ele>499.4</ele>
        <time>2020-08-06T18:06:18Z</time>
      </trkpt>
      <trkpt lat="40.9524940" lon="0.3157220">
        <ele>499.6</ele>
        <time>2020-08-06T18:06:20Z</time>
      </trkpt>
      <trkpt lat="40.9525430" lon="0.3156650">
        <ele>499.8</ele>
        <time>2020-08-06T18:06:22Z</time>
      </trkpt>
      <trkpt lat="40.9525670" lon="0.3156370">
        <ele>499.8</ele>
        <time>2020-08-06T18:06:23Z</time>
      </trkpt>
      <trkpt lat="40.9526140" lon="0.3155820">
        <ele>500.0</ele>
        <time>2020-08-06T18:06:25Z</time>
      </trkpt>
      <trkpt lat="40.9526320" lon="0.3155580">
        <ele>500.1</ele>
        <time>2020-08-06T18:06:26Z</time>
      </trkpt>
      <trkpt lat="40.9526650" lon="0.3155090">
        <ele>500.2</ele>
        <time>2020-08-06T18:06:28Z</time>
      </trkpt>
      <trkpt lat="40.9526850" lon="0.3154890">
        <ele>500.3</ele>
        <time>2020-08-06T18:06:29Z</time>
      </trkpt>
      <trkpt lat="40.9527260" lon="0.3154550">
        <ele>500.4</ele>
        <time>2020-08-06T18:06:31Z</time>
      </trkpt>
      <trkpt lat="40.9527430" lon="0.3154390">
        <ele>500.5</ele>
        <time>2020-08-06T18:06:32Z</time>
      </trkpt>
      <trkpt lat="40.9527810" lon="0.3154050">
        <ele>500.6</ele>
        <time>2020-08-06T18:06:34Z</time>
      </trkpt>
      <trkpt lat="40.9528080" lon="0.3153800">
        <ele>500.8</ele>
        <time>2020-08-06T18:06:35Z</time>
      </trkpt>
      <trkpt lat="40.9528150" lon="0.3153730">
        <ele>500.8</ele>
        <time>2020-08-06T18:06:36Z</time>
      </trkpt>
      <trkpt lat="40.9528450" lon="0.3153390">
        <ele>500.9</ele>
        <time>2020-08-06T18:06:38Z</time>
      </trkpt>
      <trkpt lat="40.9528660" lon="0.3153120">
        <ele>501.1</ele>
        <time>2020-08-06T18:06:39Z</time>
      </trkpt>
      <trkpt lat="40.9528730" lon="0.3153030">
        <ele>501.1</ele>
        <time>2020-08-06T18:06:40Z</time>
      </trkpt>
      <trkpt lat="40.9529100" lon="0.3152740">
        <ele>501.3</ele>
        <time>2020-08-06T18:06:42Z</time>
      </trkpt>
      <trkpt lat="40.9529420" lon="0.3152590">
        <ele>501.5</ele>
        <time>2020-08-06T18:06:43Z</time>
      </trkpt>
      <trkpt lat="40.9529540" lon="0.3152540">
        <ele>501.6</ele>
        <time>2020-08-06T18:06:44Z</time>
      </trkpt>
      <trkpt lat="40.9529980" lon="0.3152480">
        <ele>501.8</ele>
        <time>2020-08-06T18:06:46Z</time>
      </trkpt>
      <trkpt lat="40.9530390" lon="0.3152300">
        <ele>502.0</ele>
        <time>2020-08-06T18:06:48Z</time>
      </trkpt>
      <trkpt lat="40.9530600" lon="0.3152250">
        <ele>502.2</ele>
        <time>2020-08-06T18:06:49Z</time>
      </trkpt>
      <trkpt lat="40.9531000" lon="0.3152150">
        <ele>502.4</ele>
        <time>2020-08-06T18:06:51Z</time>
      </trkpt>
      <trkpt lat="40.9531350" lon="0.3152140">
        <ele>502.7</ele>
        <time>2020-08-06T18:06:53Z</time>
      </trkpt>
      <trkpt lat="40.9531520" lon="0.3152160">
        <ele>502.8</ele>
        <time>2020-08-06T18:06:54Z</time>
      </trkpt>
      <trkpt lat="40.9531960" lon="0.3152160">
        <ele>503.1</ele>
        <time>2020-08-06T18:06:56Z</time>
      </trkpt>
      <trkpt lat="40.9532420" lon="0.3152140">
        <ele>503.4</ele>
        <time>2020-08-06T18:06:58Z</time>
      </trkpt>
      <trkpt lat="40.9532660" lon="0.3152110">
        <ele>503.6</ele>
        <time>2020-08-06T18:06:59Z</time>
      </trkpt>
      <trkpt lat="40.9533120" lon="0.3152010">
        <ele>504.0</ele>
        <time>2020-08-06T18:07:01Z</time>
      </trkpt>
      <trkpt lat="40.9533590" lon="0.3151880">
        <ele>504.3</ele>
        <time>2020-08-06T18:07:03Z</time>
      </trkpt>
      <trkpt lat="40.9533780" lon="0.3151840">
        <ele>504.5</ele>
        <time>2020-08-06T18:07:04Z</time>
      </trkpt>
      <trkpt lat="40.9534230" lon="0.3151750">
        <ele>504.9</ele>
        <time>2020-08-06T18:07:06Z</time>
      </trkpt>
      <trkpt lat="40.9534580" lon="0.3151660">
        <ele>505.2</ele>
        <time>2020-08-06T18:07:07Z</time>
      </trkpt>
      <trkpt lat="40.9534700" lon="0.3151630">
        <ele>505.3</ele>
        <time>2020-08-06T18:07:08Z</time>
      </trkpt>
      <trkpt lat="40.9535090" lon="0.3151430">
        <ele>505.6</ele>
        <time>2020-08-06T18:07:10Z</time>
      </trkpt>
      <trkpt lat="40.9535280" lon="0.3151310">
        <ele>505.8</ele>
        <time>2020-08-06T18:07:11Z</time>
      </trkpt>
      <trkpt lat="40.9535710" lon="0.3151040">
        <ele>506.0</ele>
        <time>2020-08-06T18:07:13Z</time>
      </trkpt>
      <trkpt lat="40.9536090" lon="0.3150900">
        <ele>506.1</ele>
        <time>2020-08-06T18:07:14Z</time>
      </trkpt>
      <trkpt lat="40.9536210" lon="0.3150860">
        <ele>506.2</ele>
        <time>2020-08-06T18:07:15Z</time>
      </trkpt>
      <trkpt lat="40.9536700" lon="0.3150700">
        <ele>506.5</ele>
        <time>2020-08-06T18:07:17Z</time>
      </trkpt>
      <trkpt lat="40.9537210" lon="0.3150550">
        <ele>506.7</ele>
        <time>2020-08-06T18:07:19Z</time>
      </trkpt>
      <trkpt lat="40.9537420" lon="0.3150510">
        <ele>506.8</ele>
        <time>2020-08-06T18:07:20Z</time>
      </trkpt>
      <trkpt lat="40.9537830" lon="0.3150470">
        <ele>507.1</ele>
        <time>2020-08-06T18:07:22Z</time>
      </trkpt>
      <trkpt lat="40.9538030" lon="0.3150460">
        <ele>507.3</ele>
        <time>2020-08-06T18:07:23Z</time>
      </trkpt>
      <trkpt lat="40.9538420" lon="0.3150470">
        <ele>507.6</ele>
        <time>2020-08-06T18:07:25Z</time>
      </trkpt>
      <trkpt lat="40.9538840" lon="0.3150450">
        <ele>508.0</ele>
        <time>2020-08-06T18:07:27Z</time>
      </trkpt>
      <trkpt lat="40.9539130" lon="0.3150420">
        <ele>508.3</ele>
        <time>2020-08-06T18:07:28Z</time>
      </trkpt>
      <trkpt lat="40.9539200" lon="0.3150410">
        <ele>508.3</ele>
        <time>2020-08-06T18:07:29Z</time>
      </trkpt>
      <trkpt lat="40.9539570" lon="0.3150390">
        <ele>508.6</ele>
        <time>2020-08-06T18:07:31Z</time>
      </trkpt>
      <trkpt lat="40.9539960" lon="0.3150340">
        <ele>509.0</ele>
        <time>2020-08-06T18:07:33Z</time>
      </trkpt>
      <trkpt lat="40.9540090" lon="0.3150340">
        <ele>509.1</ele>
        <time>2020-08-06T18:07:34Z</time>
      </trkpt>
      <trkpt lat="40.9540440" lon="0.3150340">
        <ele>509.4</ele>
        <time>2020-08-06T18:07:36Z</time>
      </trkpt>
      <trkpt lat="40.9540620" lon="0.3150360">
        <ele>509.6</ele>
        <time>2020-08-06T18:07:37Z</time>
      </trkpt>
      <trkpt lat="40.9540790" lon="0.3150360">
        <ele>509.8</ele>
        <time>2020-08-06T18:07:38Z</time>
      </trkpt>
      <trkpt lat="40.9541120" lon="0.3150400">
        <ele>510.1</ele>
        <time>2020-08-06T18:07:40Z</time>
      </trkpt>
      <trkpt lat="40.9541220" lon="0.3150420">
        <ele>510.2</ele>
        <time>2020-08-06T18:07:41Z</time>
      </trkpt>
      <trkpt lat="40.9541540" lon="0.3150410">
        <ele>510.5</ele>
        <time>2020-08-06T18:07:43Z</time>
      </trkpt>
      <trkpt lat="40.9541730" lon="0.3150390">
        <ele>510.7</ele>
        <time>2020-08-06T18:07:44Z</time>
      </trkpt>
      <trkpt lat="40.9542040" lon="0.3150320">
        <ele>511.0</ele>
        <time>2020-08-06T18:07:46Z</time>
      </trkpt>
      <trkpt lat="40.9542230" lon="0.3150250">
        <ele>511.2</ele>
        <time>2020-08-06T18:07:47Z</time>
      </trkpt>
      <trkpt lat="40.9542640" lon="0.3150110">
        <ele>511.7</ele>
        <time>2020-08-06T18:07:49Z</time>
      </trkpt>
      <trkpt lat="40.9542820" lon="0.3150060">
        <ele>511.9</ele>
        <time>2020-08-06T18:07:50Z</time>
      </trkpt>
      <trkpt lat="40.9543180" lon="0.3149950">
        <ele>512.3</ele>
        <time>2020-08-06T18:07:52Z</time>
      </trkpt>
      <trkpt lat="40.9543380" lon="0.3149870">
        <ele>512.5</ele>
        <time>2020-08-06T18:07:53Z</time>
      </trkpt>
      <trkpt lat="40.9543710" lon="0.3149710">
        <ele>512.8</ele>
        <time>2020-08-06T18:07:55Z</time>
      </trkpt>
      <trkpt lat="40.9543880" lon="0.3149630">
        <ele>512.9</ele>
        <time>2020-08-06T18:07:56Z</time>
      </trkpt>
      <trkpt lat="40.9544060" lon="0.3149590">
        <ele>513.1</ele>
        <time>2020-08-06T18:07:57Z</time>
      </trkpt>
      <trkpt lat="40.9544430" lon="0.3149550">
        <ele>513.4</ele>
        <time>2020-08-06T18:07:59Z</time>
      </trkpt>
      <trkpt lat="40.9544600" lon="0.3149530">
        <ele>513.5</ele>
        <time>2020-08-06T18:08:00Z</time>
      </trkpt>
      <trkpt lat="40.9544920" lon="0.3149510">
        <ele>513.8</ele>
        <time>2020-08-06T18:08:02Z</time>
      </trkpt>
      <trkpt lat="40.9545260" lon="0.3149470">
        <ele>514.0</ele>
        <time>2020-08-06T18:08:04Z</time>
      </trkpt>
      <trkpt lat="40.9545580" lon="0.3149410">
        <ele>514.3</ele>
        <time>2020-08-06T18:08:06Z</time>
      </trkpt>
      <trkpt lat="40.9545740" lon="0.3149400">
        <ele>514.4</ele>
        <time>2020-08-06T18:08:07Z</time>
      </trkpt>
      <trkpt lat="40.9545920" lon="0.3149380">
        <ele>514.6</ele>
        <time>2020-08-06T18:08:08Z</time>
      </trkpt>
      <trkpt lat="40.9546040" lon="0.3149370">
        <ele>514.7</ele>
        <time>2020-08-06T18:08:09Z</time>
      </trkpt>
      <trkpt lat="40.9546210" lon="0.3149330">
        <ele>514.9</ele>
        <time>2020-08-06T18:08:10Z</time>
      </trkpt>
      <trkpt lat="40.9546390" lon="0.3149290">
        <ele>515.1</ele>
        <time>2020-08-06T18:08:11Z</time>
      </trkpt>
      <trkpt lat="40.9546750" lon="0.3149240">
        <ele>515.4</ele>
        <time>2020-08-06T18:08:13Z</time>
      </trkpt>
      <trkpt lat="40.9547170" lon="0.3149170">
        <ele>515.8</ele>
        <time>2020-08-06T18:08:15Z</time>
      </trkpt>
      <trkpt lat="40.9547390" lon="0.3149130">
        <ele>516.0</ele>
        <time>2020-08-06T18:08:16Z</time>
      </trkpt>
      <trkpt lat="40.9547780" lon="0.3149150">
        <ele>516.4</ele>
        <time>2020-08-06T18:08:18Z</time>
      </trkpt>
      <trkpt lat="40.9547970" lon="0.3149170">
        <ele>516.6</ele>
        <time>2020-08-06T18:08:19Z</time>
      </trkpt>
      <trkpt lat="40.9548350" lon="0.3149110">
        <ele>516.9</ele>
        <time>2020-08-06T18:08:21Z</time>
      </trkpt>
      <trkpt lat="40.9548620" lon="0.3148990">
        <ele>517.2</ele>
        <time>2020-08-06T18:08:22Z</time>
      </trkpt>
      <trkpt lat="40.9548710" lon="0.3148940">
        <ele>517.3</ele>
        <time>2020-08-06T18:08:23Z</time>
      </trkpt>
      <trkpt lat="40.9549070" lon="0.3148740">
        <ele>517.6</ele>
        <time>2020-08-06T18:08:25Z</time>
      </trkpt>
      <trkpt lat="40.9549230" lon="0.3148650">
        <ele>517.6</ele>
        <time>2020-08-06T18:08:26Z</time>
      </trkpt>
      <trkpt lat="40.9549540" lon="0.3148430">
        <ele>517.8</ele>
        <time>2020-08-06T18:08:28Z</time>
      </trkpt>
      <trkpt lat="40.9549790" lon="0.3148240">
        <ele>517.9</ele>
        <time>2020-08-06T18:08:29Z</time>
      </trkpt>
      <trkpt lat="40.9549870" lon="0.3148180">
        <ele>518.0</ele>
        <time>2020-08-06T18:08:30Z</time>
      </trkpt>
      <trkpt lat="40.9550210" lon="0.3148000">
        <ele>518.2</ele>
        <time>2020-08-06T18:08:32Z</time>
      </trkpt>
      <trkpt lat="40.9550530" lon="0.3147850">
        <ele>518.4</ele>
        <time>2020-08-06T18:08:34Z</time>
      </trkpt>
      <trkpt lat="40.9550720" lon="0.3147710">
        <ele>518.5</ele>
        <time>2020-08-06T18:08:35Z</time>
      </trkpt>
      <trkpt lat="40.9551060" lon="0.3147420">
        <ele>518.8</ele>
        <time>2020-08-06T18:08:37Z</time>
      </trkpt>
      <trkpt lat="40.9551360" lon="0.3147140">
        <ele>519.1</ele>
        <time>2020-08-06T18:08:39Z</time>
      </trkpt>
      <trkpt lat="40.9551510" lon="0.3147000">
        <ele>519.2</ele>
        <time>2020-08-06T18:08:40Z</time>
      </trkpt>
      <trkpt lat="40.9551630" lon="0.3146880">
        <ele>519.3</ele>
        <time>2020-08-06T18:08:41Z</time>
      </trkpt>
      <trkpt lat="40.9551960" lon="0.3146760">
        <ele>519.5</ele>
        <time>2020-08-06T18:08:43Z</time>
      </trkpt>
      <trkpt lat="40.9552270" lon="0.3146970">
        <ele>520.0</ele>
        <time>2020-08-06T18:08:45Z</time>
      </trkpt>
      <trkpt lat="40.9552400" lon="0.3147210">
        <ele>520.3</ele>
        <time>2020-08-06T18:08:46Z</time>
      </trkpt>
      <trkpt lat="40.9552610" lon="0.3147830">
        <ele>520.8</ele>
        <time>2020-08-06T18:08:48Z</time>
      </trkpt>
      <trkpt lat="40.9552710" lon="0.3148510">
        <ele>521.3</ele>
        <time>2020-08-06T18:08:50Z</time>
      </trkpt>
      <trkpt lat="40.9552890" lon="0.3149010">
        <ele>521.7</ele>
        <time>2020-08-06T18:08:52Z</time>
      </trkpt>
      <trkpt lat="40.9553170" lon="0.3149360">
        <ele>522.0</ele>
        <time>2020-08-06T18:08:54Z</time>
      </trkpt>
      <trkpt lat="40.9553320" lon="0.3149500">
        <ele>522.1</ele>
        <time>2020-08-06T18:08:55Z</time>
      </trkpt>
      <trkpt lat="40.9553610" lon="0.3149740">
        <ele>522.4</ele>
        <time>2020-08-06T18:08:57Z</time>
      </trkpt>
      <trkpt lat="40.9553760" lon="0.3149840">
        <ele>522.6</ele>
        <time>2020-08-06T18:08:58Z</time>
      </trkpt>
      <trkpt lat="40.9553930" lon="0.3149930">
        <ele>522.6</ele>
        <time>2020-08-06T18:08:59Z</time>
      </trkpt>
      <trkpt lat="40.9554080" lon="0.3149990">
        <ele>522.6</ele>
        <time>2020-08-06T18:09:00Z</time>
      </trkpt>
      <trkpt lat="40.9554320" lon="0.3150230">
        <ele>522.6</ele>
        <time>2020-08-06T18:09:02Z</time>
      </trkpt>
      <trkpt lat="40.9554400" lon="0.3150410">
        <ele>522.7</ele>
        <time>2020-08-06T18:09:03Z</time>
      </trkpt>
      <trkpt lat="40.9554480" lon="0.3150580">
        <ele>522.7</ele>
        <time>2020-08-06T18:09:04Z</time>
      </trkpt>
      <trkpt lat="40.9554650" lon="0.3150950">
        <ele>522.7</ele>
        <time>2020-08-06T18:09:06Z</time>
      </trkpt>
      <trkpt lat="40.9554690" lon="0.3151020">
        <ele>522.7</ele>
        <time>2020-08-06T18:09:07Z</time>
      </trkpt>
      <trkpt lat="40.9554790" lon="0.3151150">
        <ele>522.7</ele>
        <time>2020-08-06T18:09:08Z</time>
      </trkpt>
      <trkpt lat="40.9555040" lon="0.3151380">
        <ele>522.8</ele>
        <time>2020-08-06T18:09:10Z</time>
      </trkpt>
      <trkpt lat="40.9555320" lon="0.3151560">
        <ele>522.8</ele>
        <time>2020-08-06T18:09:12Z</time>
      </trkpt>
      <trkpt lat="40.9555440" lon="0.3151610">
        <ele>522.8</ele>
        <time>2020-08-06T18:09:13Z</time>
      </trkpt>
      <trkpt lat="40.9555690" lon="0.3151650">
        <ele>522.8</ele>
        <time>2020-08-06T18:09:15Z</time>
      </trkpt>
      <trkpt lat="40.9555830" lon="0.3151580">
        <ele>522.8</ele>
        <time>2020-08-06T18:09:17Z</time>
      </trkpt>
      <trkpt lat="40.9555860" lon="0.3151510">
        <ele>522.8</ele>
        <time>2020-08-06T18:09:18Z</time>
      </trkpt>
      <trkpt lat="40.9555880" lon="0.3151470">
        <ele>522.8</ele>
        <time>2020-08-06T18:09:19Z</time>
      </trkpt>
      <trkpt lat="40.9555900" lon="0.3151380">
        <ele>522.8</ele>
        <time>2020-08-06T18:09:21Z</time>
      </trkpt>
      <trkpt lat="40.9555940" lon="0.3151350">
        <ele>522.9</ele>
        <time>2020-08-06T18:09:22Z</time>
      </trkpt>
      <trkpt lat="40.9556110" lon="0.3151270">
        <ele>522.9</ele>
        <time>2020-08-06T18:09:24Z</time>
      </trkpt>
      <trkpt lat="40.9556310" lon="0.3151150">
        <ele>522.9</ele>
        <time>2020-08-06T18:09:26Z</time>
      </trkpt>
      <trkpt lat="40.9556390" lon="0.3151050">
        <ele>522.9</ele>
        <time>2020-08-06T18:09:28Z</time>
      </trkpt>
      <trkpt lat="40.9556400" lon="0.3151050">
        <ele>522.9</ele>
        <time>2020-08-06T18:09:29Z</time>
      </trkpt>
      <trkpt lat="40.9556410" lon="0.3151040">
        <ele>522.9</ele>
        <time>2020-08-06T18:09:30Z</time>
      </trkpt>
      <trkpt lat="40.9556430" lon="0.3151030">
        <ele>522.9</ele>
        <time>2020-08-06T18:09:31Z</time>
      </trkpt>
      <trkpt lat="40.9556450" lon="0.3151020">
        <ele>522.9</ele>
        <time>2020-08-06T18:09:32Z</time>
      </trkpt>
      <trkpt lat="40.9556490" lon="0.3150990">
        <ele>522.9</ele>
        <time>2020-08-06T18:09:34Z</time>
      </trkpt>
      <trkpt lat="40.9556500" lon="0.3150990">
        <ele>522.9</ele>
        <time>2020-08-06T18:09:35Z</time>
      </trkpt>
      <trkpt lat="40.9556510" lon="0.3150990">
        <ele>522.9</ele>
        <time>2020-08-06T18:09:36Z</time>
      </trkpt>
      <trkpt lat="40.9556010" lon="0.3151310">
        <ele>522.9</ele>
        <time>2020-08-06T18:59:42Z</time>
      </trkpt>
      <trkpt lat="40.9555940" lon="0.3151280">
        <ele>522.9</ele>
        <time>2020-08-06T18:59:44Z</time>
      </trkpt>
      <trkpt lat="40.9555930" lon="0.3151280">
        <ele>522.9</ele>
        <time>2020-08-06T18:59:46Z</time>
      </trkpt>
      <trkpt lat="40.9555920" lon="0.3151270">
        <ele>522.9</ele>
        <time>2020-08-06T18:59:47Z</time>
      </trkpt>
      <trkpt lat="40.9555860" lon="0.3151240">
        <ele>522.9</ele>
        <time>2020-08-06T18:59:49Z</time>
      </trkpt>
      <trkpt lat="40.9555810" lon="0.3151230">
        <ele>523.0</ele>
        <time>2020-08-06T18:59:50Z</time>
      </trkpt>
      <trkpt lat="40.9555770" lon="0.3151230">
        <ele>523.0</ele>
        <time>2020-08-06T18:59:51Z</time>
      </trkpt>
      <trkpt lat="40.9555700" lon="0.3151230">
        <ele>523.0</ele>
        <time>2020-08-06T18:59:52Z</time>
      </trkpt>
      <trkpt lat="40.9555610" lon="0.3151270">
        <ele>523.0</ele>
        <time>2020-08-06T18:59:54Z</time>
      </trkpt>
      <trkpt lat="40.9555620" lon="0.3151300">
        <ele>523.0</ele>
        <time>2020-08-06T18:59:55Z</time>
      </trkpt>
      <trkpt lat="40.9555520" lon="0.3151420">
        <ele>523.0</ele>
        <time>2020-08-06T18:59:57Z</time>
      </trkpt>
      <trkpt lat="40.9555460" lon="0.3151520">
        <ele>523.0</ele>
        <time>2020-08-06T18:59:58Z</time>
      </trkpt>
      <trkpt lat="40.9555470" lon="0.3152070">
        <ele>523.0</ele>
        <time>2020-08-06T19:00:00Z</time>
      </trkpt>
      <trkpt lat="40.9555530" lon="0.3152240">
        <ele>523.0</ele>
        <time>2020-08-06T19:00:02Z</time>
      </trkpt>
      <trkpt lat="40.9555600" lon="0.3152410">
        <ele>523.0</ele>
        <time>2020-08-06T19:00:03Z</time>
      </trkpt>
      <trkpt lat="40.9555680" lon="0.3152600">
        <ele>523.0</ele>
        <time>2020-08-06T19:00:04Z</time>
      </trkpt>
      <trkpt lat="40.9555760" lon="0.3152780">
        <ele>523.0</ele>
        <time>2020-08-06T19:00:05Z</time>
      </trkpt>
      <trkpt lat="40.9555900" lon="0.3153160">
        <ele>523.0</ele>
        <time>2020-08-06T19:00:07Z</time>
      </trkpt>
      <trkpt lat="40.9555980" lon="0.3153330">
        <ele>523.0</ele>
        <time>2020-08-06T19:00:08Z</time>
      </trkpt>
      <trkpt lat="40.9556070" lon="0.3153480">
        <ele>523.5</ele>
        <time>2020-08-06T19:00:09Z</time>
      </trkpt>
      <trkpt lat="40.9556100" lon="0.3153630">
        <ele>523.5</ele>
        <time>2020-08-06T19:00:10Z</time>
      </trkpt>
      <trkpt lat="40.9555880" lon="0.3154290">
        <ele>523.9</ele>
        <time>2020-08-06T19:00:19Z</time>
      </trkpt>
      <trkpt lat="40.9555640" lon="0.3154550">
        <ele>523.2</ele>
        <time>2020-08-06T19:00:20Z</time>
      </trkpt>
      <trkpt lat="40.9555360" lon="0.3154820">
        <ele>523.1</ele>
        <time>2020-08-06T19:00:21Z</time>
      </trkpt>
      <trkpt lat="40.9555140" lon="0.3155150">
        <ele>523.0</ele>
        <time>2020-08-06T19:00:23Z</time>
      </trkpt>
      <trkpt lat="40.9555110" lon="0.3155280">
        <ele>523.0</ele>
        <time>2020-08-06T19:00:24Z</time>
      </trkpt>
      <trkpt lat="40.9555080" lon="0.3155440">
        <ele>523.0</ele>
        <time>2020-08-06T19:00:25Z</time>
      </trkpt>
      <trkpt lat="40.9555020" lon="0.3155790">
        <ele>522.9</ele>
        <time>2020-08-06T19:00:27Z</time>
      </trkpt>
      <trkpt lat="40.9554950" lon="0.3155930">
        <ele>522.9</ele>
        <time>2020-08-06T19:00:28Z</time>
      </trkpt>
      <trkpt lat="40.9554850" lon="0.3156080">
        <ele>522.8</ele>
        <time>2020-08-06T19:00:29Z</time>
      </trkpt>
      <trkpt lat="40.9554770" lon="0.3156230">
        <ele>522.8</ele>
        <time>2020-08-06T19:00:30Z</time>
      </trkpt>
      <trkpt lat="40.9554690" lon="0.3156390">
        <ele>522.7</ele>
        <time>2020-08-06T19:00:31Z</time>
      </trkpt>
      <trkpt lat="40.9554640" lon="0.3156690">
        <ele>522.6</ele>
        <time>2020-08-06T19:00:32Z</time>
      </trkpt>
      <trkpt lat="40.9554650" lon="0.3156830">
        <ele>522.5</ele>
        <time>2020-08-06T19:00:34Z</time>
      </trkpt>
      <trkpt lat="40.9554650" lon="0.3156980">
        <ele>522.5</ele>
        <time>2020-08-06T19:00:35Z</time>
      </trkpt>
      <trkpt lat="40.9554730" lon="0.3157100">
        <ele>522.6</ele>
        <time>2020-08-06T19:00:36Z</time>
      </trkpt>
      <trkpt lat="40.9554870" lon="0.3157390">
        <ele>522.7</ele>
        <time>2020-08-06T19:00:38Z</time>
      </trkpt>
      <trkpt lat="40.9554900" lon="0.3157650">
        <ele>522.8</ele>
        <time>2020-08-06T19:00:39Z</time>
      </trkpt>
      <trkpt lat="40.9554890" lon="0.3157780">
        <ele>522.9</ele>
        <time>2020-08-06T19:00:40Z</time>
      </trkpt>
      <trkpt lat="40.9554890" lon="0.3157900">
        <ele>522.9</ele>
        <time>2020-08-06T19:00:41Z</time>
      </trkpt>
      <trkpt lat="40.9554830" lon="0.3158180">
        <ele>523.0</ele>
        <time>2020-08-06T19:00:43Z</time>
      </trkpt>
      <trkpt lat="40.9554650" lon="0.3158550">
        <ele>523.1</ele>
        <time>2020-08-06T19:00:45Z</time>
      </trkpt>
      <trkpt lat="40.9554580" lon="0.3158670">
        <ele>523.2</ele>
        <time>2020-08-06T19:00:46Z</time>
      </trkpt>
      <trkpt lat="40.9554470" lon="0.3158870">
        <ele>523.2</ele>
        <time>2020-08-06T19:00:48Z</time>
      </trkpt>
      <trkpt lat="40.9554410" lon="0.3159020">
        <ele>523.3</ele>
        <time>2020-08-06T19:00:49Z</time>
      </trkpt>
      <trkpt lat="40.9554350" lon="0.3159210">
        <ele>523.3</ele>
        <time>2020-08-06T19:00:50Z</time>
      </trkpt>
      <trkpt lat="40.9554220" lon="0.3159570">
        <ele>523.4</ele>
        <time>2020-08-06T19:00:52Z</time>
      </trkpt>
      <trkpt lat="40.9554160" lon="0.3159980">
        <ele>523.5</ele>
        <time>2020-08-06T19:00:54Z</time>
      </trkpt>
      <trkpt lat="40.9554100" lon="0.3160430">
        <ele>523.6</ele>
        <time>2020-08-06T19:00:56Z</time>
      </trkpt>
      <trkpt lat="40.9554090" lon="0.3160640">
        <ele>523.7</ele>
        <time>2020-08-06T19:00:58Z</time>
      </trkpt>
      <trkpt lat="40.9554120" lon="0.3160710">
        <ele>523.7</ele>
        <time>2020-08-06T19:01:00Z</time>
      </trkpt>
      <trkpt lat="40.9554070" lon="0.3160790">
        <ele>523.7</ele>
        <time>2020-08-06T19:01:01Z</time>
      </trkpt>
      <trkpt lat="40.9553900" lon="0.3161150">
        <ele>523.8</ele>
        <time>2020-08-06T19:01:03Z</time>
      </trkpt>
      <trkpt lat="40.9553870" lon="0.3161230">
        <ele>523.8</ele>
        <time>2020-08-06T19:01:04Z</time>
      </trkpt>
      <trkpt lat="40.9553750" lon="0.3161550">
        <ele>523.9</ele>
        <time>2020-08-06T19:01:06Z</time>
      </trkpt>
      <trkpt lat="40.9553710" lon="0.3161690">
        <ele>524.0</ele>
        <time>2020-08-06T19:01:07Z</time>
      </trkpt>
      <trkpt lat="40.9553630" lon="0.3161880">
        <ele>524.0</ele>
        <time>2020-08-06T19:01:09Z</time>
      </trkpt>
      <trkpt lat="40.9553540" lon="0.3162080">
        <ele>524.1</ele>
        <time>2020-08-06T19:01:11Z</time>
      </trkpt>
      <trkpt lat="40.9553600" lon="0.3161870">
        <ele>524.1</ele>
        <time>2020-08-06T19:01:12Z</time>
      </trkpt>
      <trkpt lat="40.9553830" lon="0.3161300">
        <ele>524.3</ele>
        <time>2020-08-06T19:01:14Z</time>
      </trkpt>
      <trkpt lat="40.9553890" lon="0.3161180">
        <ele>524.3</ele>
        <time>2020-08-06T19:01:15Z</time>
      </trkpt>
      <trkpt lat="40.9553890" lon="0.3161230">
        <ele>524.3</ele>
        <time>2020-08-06T19:01:17Z</time>
      </trkpt>
      <trkpt lat="40.9553830" lon="0.3161400">
        <ele>524.4</ele>
        <time>2020-08-06T19:01:19Z</time>
      </trkpt>
      <trkpt lat="40.9553830" lon="0.3161410">
        <ele>524.4</ele>
        <time>2020-08-06T19:01:20Z</time>
      </trkpt>
      <trkpt lat="40.9553810" lon="0.3161420">
        <ele>524.4</ele>
        <time>2020-08-06T19:01:21Z</time>
      </trkpt>
      <trkpt lat="40.9553780" lon="0.3161480">
        <ele>524.4</ele>
        <time>2020-08-06T19:01:22Z</time>
      </trkpt>
      <trkpt lat="40.9553740" lon="0.3161600">
        <ele>524.4</ele>
        <time>2020-08-06T19:01:24Z</time>
      </trkpt>
      <trkpt lat="40.9553700" lon="0.3161680">
        <ele>524.5</ele>
        <time>2020-08-06T19:01:25Z</time>
      </trkpt>
      <trkpt lat="40.9553580" lon="0.3161950">
        <ele>524.5</ele>
        <time>2020-08-06T19:01:26Z</time>
      </trkpt>
      <trkpt lat="40.9553510" lon="0.3162120">
        <ele>524.6</ele>
        <time>2020-08-06T19:01:28Z</time>
      </trkpt>
      <trkpt lat="40.9553430" lon="0.3162280">
        <ele>524.6</ele>
        <time>2020-08-06T19:01:30Z</time>
      </trkpt>
      <trkpt lat="40.9553350" lon="0.3162450">
        <ele>524.7</ele>
        <time>2020-08-06T19:01:31Z</time>
      </trkpt>
      <trkpt lat="40.9553290" lon="0.3162640">
        <ele>524.7</ele>
        <time>2020-08-06T19:01:32Z</time>
      </trkpt>
      <trkpt lat="40.9553280" lon="0.3162740">
        <ele>524.7</ele>
        <time>2020-08-06T19:03:56Z</time>
      </trkpt>
      <trkpt lat="40.9553270" lon="0.3162830">
        <ele>524.8</ele>
        <time>2020-08-06T19:03:57Z</time>
      </trkpt>
      <trkpt lat="40.9553260" lon="0.3162920">
        <ele>524.8</ele>
        <time>2020-08-06T19:03:58Z</time>
      </trkpt>
      <trkpt lat="40.9553250" lon="0.3163020">
        <ele>524.8</ele>
        <time>2020-08-06T19:03:59Z</time>
      </trkpt>
      <trkpt lat="40.9553240" lon="0.3163110">
        <ele>524.8</ele>
        <time>2020-08-06T19:04:01Z</time>
      </trkpt>
      <trkpt lat="40.9553230" lon="0.3163200">
        <ele>524.8</ele>
        <time>2020-08-06T19:04:02Z</time>
      </trkpt>
      <trkpt lat="40.9553220" lon="0.3163300">
        <ele>524.9</ele>
        <time>2020-08-06T19:04:03Z</time>
      </trkpt>
      <trkpt lat="40.9553210" lon="0.3163390">
        <ele>524.9</ele>
        <time>2020-08-06T19:04:05Z</time>
      </trkpt>
      <trkpt lat="40.9553190" lon="0.3163480">
        <ele>524.9</ele>
        <time>2020-08-06T19:04:06Z</time>
      </trkpt>
      <trkpt lat="40.9553180" lon="0.3163570">
        <ele>524.9</ele>
        <time>2020-08-06T19:04:07Z</time>
      </trkpt>
      <trkpt lat="40.9553170" lon="0.3163670">
        <ele>525.0</ele>
        <time>2020-08-06T19:04:09Z</time>
      </trkpt>
      <trkpt lat="40.9553160" lon="0.3163760">
        <ele>525.0</ele>
        <time>2020-08-06T19:04:10Z</time>
      </trkpt>
      <trkpt lat="40.9553150" lon="0.3163850">
        <ele>525.0</ele>
        <time>2020-08-06T19:04:12Z</time>
      </trkpt>
      <trkpt lat="40.9553140" lon="0.3163950">
        <ele>525.0</ele>
        <time>2020-08-06T19:04:14Z</time>
      </trkpt>
      <trkpt lat="40.9553130" lon="0.3164040">
        <ele>525.0</ele>
        <time>2020-08-06T19:04:48Z</time>
      </trkpt>
      <trkpt lat="40.9553120" lon="0.3164130">
        <ele>525.1</ele>
        <time>2020-08-06T19:04:49Z</time>
      </trkpt>
      <trkpt lat="40.9553110" lon="0.3164230">
        <ele>525.1</ele>
        <time>2020-08-06T19:04:51Z</time>
      </trkpt>
      <trkpt lat="40.9553100" lon="0.3164320">
        <ele>525.1</ele>
        <time>2020-08-06T19:04:52Z</time>
      </trkpt>
      <trkpt lat="40.9552870" lon="0.3164730">
        <ele>525.2</ele>
        <time>2020-08-06T19:04:54Z</time>
      </trkpt>
      <trkpt lat="40.9552710" lon="0.3165020">
        <ele>525.3</ele>
        <time>2020-08-06T19:04:55Z</time>
      </trkpt>
      <trkpt lat="40.9552530" lon="0.3165230">
        <ele>525.4</ele>
        <time>2020-08-06T19:04:56Z</time>
      </trkpt>
      <trkpt lat="40.9552280" lon="0.3165410">
        <ele>525.5</ele>
        <time>2020-08-06T19:04:58Z</time>
      </trkpt>
      <trkpt lat="40.9552090" lon="0.3165460">
        <ele>525.6</ele>
        <time>2020-08-06T19:04:59Z</time>
      </trkpt>
      <trkpt lat="40.9551720" lon="0.3165620">
        <ele>525.7</ele>
        <time>2020-08-06T19:05:01Z</time>
      </trkpt>
      <trkpt lat="40.9551420" lon="0.3165710">
        <ele>525.8</ele>
        <time>2020-08-06T19:05:02Z</time>
      </trkpt>
      <trkpt lat="40.9551300" lon="0.3165730">
        <ele>525.9</ele>
        <time>2020-08-06T19:05:03Z</time>
      </trkpt>
      <trkpt lat="40.9551040" lon="0.3165790">
        <ele>526.0</ele>
        <time>2020-08-06T19:05:04Z</time>
      </trkpt>
      <trkpt lat="40.9550590" lon="0.3165950">
        <ele>526.1</ele>
        <time>2020-08-06T19:05:06Z</time>
      </trkpt>
      <trkpt lat="40.9550300" lon="0.3166090">
        <ele>526.2</ele>
        <time>2020-08-06T19:05:07Z</time>
      </trkpt>
      <trkpt lat="40.9549860" lon="0.3166360">
        <ele>526.4</ele>
        <time>2020-08-06T19:05:08Z</time>
      </trkpt>
      <trkpt lat="40.9549420" lon="0.3166670">
        <ele>526.5</ele>
        <time>2020-08-06T19:05:10Z</time>
      </trkpt>
      <trkpt lat="40.9549100" lon="0.3166910">
        <ele>526.6</ele>
        <time>2020-08-06T19:05:11Z</time>
      </trkpt>
      <trkpt lat="40.9548830" lon="0.3167060">
        <ele>526.7</ele>
        <time>2020-08-06T19:05:12Z</time>
      </trkpt>
      <trkpt lat="40.9548630" lon="0.3167140">
        <ele>526.8</ele>
        <time>2020-08-06T19:05:13Z</time>
      </trkpt>
      <trkpt lat="40.9548300" lon="0.3167360">
        <ele>526.9</ele>
        <time>2020-08-06T19:05:15Z</time>
      </trkpt>
      <trkpt lat="40.9548060" lon="0.3167580">
        <ele>527.0</ele>
        <time>2020-08-06T19:05:16Z</time>
      </trkpt>
      <trkpt lat="40.9547890" lon="0.3167760">
        <ele>527.1</ele>
        <time>2020-08-06T19:05:17Z</time>
      </trkpt>
      <trkpt lat="40.9547650" lon="0.3167950">
        <ele>527.2</ele>
        <time>2020-08-06T19:05:19Z</time>
      </trkpt>
      <trkpt lat="40.9547470" lon="0.3168110">
        <ele>527.3</ele>
        <time>2020-08-06T19:05:20Z</time>
      </trkpt>
      <trkpt lat="40.9547370" lon="0.3168260">
        <ele>527.3</ele>
        <time>2020-08-06T19:05:22Z</time>
      </trkpt>
      <trkpt lat="40.9547140" lon="0.3168450">
        <ele>527.4</ele>
        <time>2020-08-06T19:05:23Z</time>
      </trkpt>
      <trkpt lat="40.9547050" lon="0.3168510">
        <ele>527.5</ele>
        <time>2020-08-06T19:05:24Z</time>
      </trkpt>
      <trkpt lat="40.9546780" lon="0.3168710">
        <ele>527.6</ele>
        <time>2020-08-06T19:05:26Z</time>
      </trkpt>
      <trkpt lat="40.9546700" lon="0.3168750">
        <ele>527.6</ele>
        <time>2020-08-06T19:05:27Z</time>
      </trkpt>
      <trkpt lat="40.9546440" lon="0.3168940">
        <ele>527.7</ele>
        <time>2020-08-06T19:05:29Z</time>
      </trkpt>
      <trkpt lat="40.9546380" lon="0.3169010">
        <ele>527.8</ele>
        <time>2020-08-06T19:05:30Z</time>
      </trkpt>
      <trkpt lat="40.9546200" lon="0.3169160">
        <ele>527.8</ele>
        <time>2020-08-06T19:05:32Z</time>
      </trkpt>
      <trkpt lat="40.9546100" lon="0.3169220">
        <ele>527.9</ele>
        <time>2020-08-06T19:05:33Z</time>
      </trkpt>
      <trkpt lat="40.9546030" lon="0.3169180">
        <ele>527.9</ele>
        <time>2020-08-06T19:05:35Z</time>
      </trkpt>
      <trkpt lat="40.9546020" lon="0.3169200">
        <ele>527.9</ele>
        <time>2020-08-06T19:05:36Z</time>
      </trkpt>
      <trkpt lat="40.9546020" lon="0.3169170">
        <ele>527.9</ele>
        <time>2020-08-06T19:05:37Z</time>
      </trkpt>
      <trkpt lat="40.9546010" lon="0.3169120">
        <ele>527.9</ele>
        <time>2020-08-06T19:05:39Z</time>
      </trkpt>
      <trkpt lat="40.9545990" lon="0.3169080">
        <ele>527.9</ele>
        <time>2020-08-06T19:05:41Z</time>
      </trkpt>
      <trkpt lat="40.9545970" lon="0.3169070">
        <ele>528.0</ele>
        <time>2020-08-06T19:05:42Z</time>
      </trkpt>
      <trkpt lat="40.9545960" lon="0.3169070">
        <ele>528.0</ele>
        <time>2020-08-06T19:05:43Z</time>
      </trkpt>
      <trkpt lat="40.9545950" lon="0.3169060">
        <ele>528.0</ele>
        <time>2020-08-06T19:05:44Z</time>
      </trkpt>
      <trkpt lat="40.9545930" lon="0.3169060">
        <ele>528.0</ele>
        <time>2020-08-06T19:05:45Z</time>
      </trkpt>
      <trkpt lat="40.9545430" lon="0.3169510">
        <ele>528.2</ele>
        <time>2020-08-06T19:05:51Z</time>
      </trkpt>
      <trkpt lat="40.9545180" lon="0.3169730">
        <ele>528.4</ele>
        <time>2020-08-06T19:05:52Z</time>
      </trkpt>
      <trkpt lat="40.9544820" lon="0.3169950">
        <ele>528.5</ele>
        <time>2020-08-06T19:05:53Z</time>
      </trkpt>
      <trkpt lat="40.9545130" lon="0.3169790">
        <ele>528.7</ele>
        <time>2020-08-06T19:05:55Z</time>
      </trkpt>
      <trkpt lat="40.9545260" lon="0.3169710">
        <ele>528.8</ele>
        <time>2020-08-06T19:05:56Z</time>
      </trkpt>
      <trkpt lat="40.9545310" lon="0.3169950">
        <ele>528.9</ele>
        <time>2020-08-06T19:05:58Z</time>
      </trkpt>
      <trkpt lat="40.9545130" lon="0.3170400">
        <ele>529.1</ele>
        <time>2020-08-06T19:06:00Z</time>
      </trkpt>
      <trkpt lat="40.9544900" lon="0.3170750">
        <ele>529.4</ele>
        <time>2020-08-06T19:06:02Z</time>
      </trkpt>
      <trkpt lat="40.9544660" lon="0.3170970">
        <ele>529.6</ele>
        <time>2020-08-06T19:06:04Z</time>
      </trkpt>
      <trkpt lat="40.9544540" lon="0.3171090">
        <ele>529.7</ele>
        <time>2020-08-06T19:06:06Z</time>
      </trkpt>
      <trkpt lat="40.9544490" lon="0.3171140">
        <ele>529.7</ele>
        <time>2020-08-06T19:06:07Z</time>
      </trkpt>
      <trkpt lat="40.9544430" lon="0.3171230">
        <ele>529.8</ele>
        <time>2020-08-06T19:06:09Z</time>
      </trkpt>
      <trkpt lat="40.9544400" lon="0.3171270">
        <ele>529.8</ele>
        <time>2020-08-06T19:06:10Z</time>
      </trkpt>
      <trkpt lat="40.9544350" lon="0.3171330">
        <ele>529.9</ele>
        <time>2020-08-06T19:06:12Z</time>
      </trkpt>
      <trkpt lat="40.9544230" lon="0.3171600">
        <ele>530.1</ele>
        <time>2020-08-06T19:06:24Z</time>
      </trkpt>
      <trkpt lat="40.9544240" lon="0.3171590">
        <ele>530.1</ele>
        <time>2020-08-06T19:06:26Z</time>
      </trkpt>
      <trkpt lat="40.9544240" lon="0.3171580">
        <ele>530.1</ele>
        <time>2020-08-06T19:06:27Z</time>
      </trkpt>
      <trkpt lat="40.9544230" lon="0.3171580">
        <ele>530.1</ele>
        <time>2020-08-06T19:06:28Z</time>
      </trkpt>
      <trkpt lat="40.9544220" lon="0.3171580">
        <ele>530.1</ele>
        <time>2020-08-06T19:06:29Z</time>
      </trkpt>
      <trkpt lat="40.9544200" lon="0.3171590">
        <ele>530.1</ele>
        <time>2020-08-06T19:06:30Z</time>
      </trkpt>
      <trkpt lat="40.9544190" lon="0.3171600">
        <ele>530.1</ele>
        <time>2020-08-06T19:06:31Z</time>
      </trkpt>
      <trkpt lat="40.9544170" lon="0.3171610">
        <ele>530.1</ele>
        <time>2020-08-06T19:06:32Z</time>
      </trkpt>
      <trkpt lat="40.9544160" lon="0.3171620">
        <ele>530.2</ele>
        <time>2020-08-06T19:06:34Z</time>
      </trkpt>
      <trkpt lat="40.9543960" lon="0.3171750">
        <ele>530.3</ele>
        <time>2020-08-06T19:07:01Z</time>
      </trkpt>
      <trkpt lat="40.9543910" lon="0.3171800">
        <ele>530.4</ele>
        <time>2020-08-06T19:07:02Z</time>
      </trkpt>
      <trkpt lat="40.9543890" lon="0.3171840">
        <ele>530.4</ele>
        <time>2020-08-06T19:07:03Z</time>
      </trkpt>
      <trkpt lat="40.9543880" lon="0.3171890">
        <ele>530.4</ele>
        <time>2020-08-06T19:07:05Z</time>
      </trkpt>
      <trkpt lat="40.9543800" lon="0.3171850">
        <ele>530.5</ele>
        <time>2020-08-06T19:07:06Z</time>
      </trkpt>
      <trkpt lat="40.9543570" lon="0.3171590">
        <ele>530.7</ele>
        <time>2020-08-06T19:07:08Z</time>
      </trkpt>
      <trkpt lat="40.9543430" lon="0.3171320">
        <ele>530.9</ele>
        <time>2020-08-06T19:07:09Z</time>
      </trkpt>
      <trkpt lat="40.9543210" lon="0.3170950">
        <ele>531.1</ele>
        <time>2020-08-06T19:07:11Z</time>
      </trkpt>
      <trkpt lat="40.9543090" lon="0.3170830">
        <ele>531.2</ele>
        <time>2020-08-06T19:07:12Z</time>
      </trkpt>
      <trkpt lat="40.9542990" lon="0.3170660">
        <ele>531.3</ele>
        <time>2020-08-06T19:07:13Z</time>
      </trkpt>
      <trkpt lat="40.9542930" lon="0.3170430">
        <ele>531.4</ele>
        <time>2020-08-06T19:07:14Z</time>
      </trkpt>
      <trkpt lat="40.9542870" lon="0.3169970">
        <ele>531.7</ele>
        <time>2020-08-06T19:07:16Z</time>
      </trkpt>
      <trkpt lat="40.9542720" lon="0.3169540">
        <ele>531.9</ele>
        <time>2020-08-06T19:07:17Z</time>
      </trkpt>
      <trkpt lat="40.9542690" lon="0.3169430">
        <ele>531.9</ele>
        <time>2020-08-06T19:07:18Z</time>
      </trkpt>
      <trkpt lat="40.9542660" lon="0.3168980">
        <ele>532.1</ele>
        <time>2020-08-06T19:07:19Z</time>
      </trkpt>
      <trkpt lat="40.9542640" lon="0.3168870">
        <ele>532.2</ele>
        <time>2020-08-06T19:07:20Z</time>
      </trkpt>
      <trkpt lat="40.9542470" lon="0.3168440">
        <ele>532.4</ele>
        <time>2020-08-06T19:07:22Z</time>
      </trkpt>
      <trkpt lat="40.9542410" lon="0.3168310">
        <ele>532.5</ele>
        <time>2020-08-06T19:07:23Z</time>
      </trkpt>
      <trkpt lat="40.9542420" lon="0.3168030">
        <ele>532.6</ele>
        <time>2020-08-06T19:07:24Z</time>
      </trkpt>
      <trkpt lat="40.9542390" lon="0.3167580">
        <ele>532.8</ele>
        <time>2020-08-06T19:07:26Z</time>
      </trkpt>
      <trkpt lat="40.9542240" lon="0.3167330">
        <ele>532.9</ele>
        <time>2020-08-06T19:07:28Z</time>
      </trkpt>
      <trkpt lat="40.9542170" lon="0.3167230">
        <ele>533.0</ele>
        <time>2020-08-06T19:07:29Z</time>
      </trkpt>
      <trkpt lat="40.9542090" lon="0.3167170">
        <ele>533.0</ele>
        <time>2020-08-06T19:07:30Z</time>
      </trkpt>
      <trkpt lat="40.9542020" lon="0.3167110">
        <ele>533.7</ele>
        <time>2020-08-06T19:07:32Z</time>
      </trkpt>
      <trkpt lat="40.9541980" lon="0.3167060">
        <ele>534.3</ele>
        <time>2020-08-06T19:07:34Z</time>
      </trkpt>
      <trkpt lat="40.9541950" lon="0.3167030">
        <ele>534.3</ele>
        <time>2020-08-06T19:07:35Z</time>
      </trkpt>
      <trkpt lat="40.9541920" lon="0.3167000">
        <ele>534.3</ele>
        <time>2020-08-06T19:07:37Z</time>
      </trkpt>
      <trkpt lat="40.9541880" lon="0.3166960">
        <ele>534.3</ele>
        <time>2020-08-06T19:07:38Z</time>
      </trkpt>
      <trkpt lat="40.9541860" lon="0.3166940">
        <ele>534.4</ele>
        <time>2020-08-06T19:07:39Z</time>
      </trkpt>
      <trkpt lat="40.9541830" lon="0.3166910">
        <ele>534.4</ele>
        <time>2020-08-06T19:07:40Z</time>
      </trkpt>
      <trkpt lat="40.9541670" lon="0.3166810">
        <ele>534.9</ele>
        <time>2020-08-06T19:07:59Z</time>
      </trkpt>
      <trkpt lat="40.9541620" lon="0.3166810">
        <ele>534.9</ele>
        <time>2020-08-06T19:08:00Z</time>
      </trkpt>
      <trkpt lat="40.9541510" lon="0.3166680">
        <ele>535.6</ele>
        <time>2020-08-06T19:08:02Z</time>
      </trkpt>
      <trkpt lat="40.9541460" lon="0.3166560">
        <ele>535.6</ele>
        <time>2020-08-06T19:08:03Z</time>
      </trkpt>
      <trkpt lat="40.9541330" lon="0.3166350">
        <ele>536.0</ele>
        <time>2020-08-06T19:08:05Z</time>
      </trkpt>
      <trkpt lat="40.9541270" lon="0.3166210">
        <ele>536.5</ele>
        <time>2020-08-06T19:08:06Z</time>
      </trkpt>
      <trkpt lat="40.9541150" lon="0.3166080">
        <ele>536.5</ele>
        <time>2020-08-06T19:08:08Z</time>
      </trkpt>
      <trkpt lat="40.9541050" lon="0.3165940">
        <ele>536.5</ele>
        <time>2020-08-06T19:08:09Z</time>
      </trkpt>
      <trkpt lat="40.9540900" lon="0.3166310">
        <ele>536.5</ele>
        <time>2020-08-06T19:08:11Z</time>
      </trkpt>
      <trkpt lat="40.9540850" lon="0.3166440">
        <ele>536.5</ele>
        <time>2020-08-06T19:08:12Z</time>
      </trkpt>
      <trkpt lat="40.9540770" lon="0.3166530">
        <ele>536.5</ele>
        <time>2020-08-06T19:08:13Z</time>
      </trkpt>
      <trkpt lat="40.9540720" lon="0.3166660">
        <ele>536.5</ele>
        <time>2020-08-06T19:08:15Z</time>
      </trkpt>
      <trkpt lat="40.9540420" lon="0.3167230">
        <ele>535.7</ele>
        <time>2020-08-06T19:08:19Z</time>
      </trkpt>
      <trkpt lat="40.9539630" lon="0.3168390">
        <ele>535.7</ele>
        <time>2020-08-06T19:08:21Z</time>
      </trkpt>
      <trkpt lat="40.9539250" lon="0.3168920">
        <ele>535.4</ele>
        <time>2020-08-06T19:08:23Z</time>
      </trkpt>
      <trkpt lat="40.9539200" lon="0.3168970">
        <ele>535.4</ele>
        <time>2020-08-06T19:08:24Z</time>
      </trkpt>
      <trkpt lat="40.9539290" lon="0.3168850">
        <ele>535.8</ele>
        <time>2020-08-06T19:08:25Z</time>
      </trkpt>
      <trkpt lat="40.9539290" lon="0.3168840">
        <ele>535.8</ele>
        <time>2020-08-06T19:08:27Z</time>
      </trkpt>
      <trkpt lat="40.9539290" lon="0.3168830">
        <ele>535.8</ele>
        <time>2020-08-06T19:08:28Z</time>
      </trkpt>
      <trkpt lat="40.9539300" lon="0.3168810">
        <ele>535.8</ele>
        <time>2020-08-06T19:08:30Z</time>
      </trkpt>
      <trkpt lat="40.9539300" lon="0.3168810">
        <ele>535.9</ele>
        <time>2020-08-06T19:08:31Z</time>
      </trkpt>
      <trkpt lat="40.9539300" lon="0.3168800">
        <ele>535.9</ele>
        <time>2020-08-06T19:08:35Z</time>
      </trkpt>
      <trkpt lat="40.9538970" lon="0.3168960">
        <ele>535.9</ele>
        <time>2020-08-06T19:08:52Z</time>
      </trkpt>
      <trkpt lat="40.9538400" lon="0.3169190">
        <ele>536.5</ele>
        <time>2020-08-06T19:08:56Z</time>
      </trkpt>
      <trkpt lat="40.9538690" lon="0.3169140">
        <ele>536.3</ele>
        <time>2020-08-06T19:08:59Z</time>
      </trkpt>
      <trkpt lat="40.9539010" lon="0.3169070">
        <ele>536.0</ele>
        <time>2020-08-06T19:09:00Z</time>
      </trkpt>
      <trkpt lat="40.9539070" lon="0.3169070">
        <ele>536.0</ele>
        <time>2020-08-06T19:09:01Z</time>
      </trkpt>
      <trkpt lat="40.9539240" lon="0.3169050">
        <ele>535.7</ele>
        <time>2020-08-06T19:09:03Z</time>
      </trkpt>
      <trkpt lat="40.9539330" lon="0.3169050">
        <ele>535.7</ele>
        <time>2020-08-06T19:09:05Z</time>
      </trkpt>
      <trkpt lat="40.9539460" lon="0.3169200">
        <ele>535.4</ele>
        <time>2020-08-06T19:09:07Z</time>
      </trkpt>
      <trkpt lat="40.9539540" lon="0.3169280">
        <ele>535.4</ele>
        <time>2020-08-06T19:09:08Z</time>
      </trkpt>
      <trkpt lat="40.9539560" lon="0.3169430">
        <ele>535.1</ele>
        <time>2020-08-06T19:09:10Z</time>
      </trkpt>
      <trkpt lat="40.9539600" lon="0.3169480">
        <ele>535.1</ele>
        <time>2020-08-06T19:09:12Z</time>
      </trkpt>
      <trkpt lat="40.9539640" lon="0.3169270">
        <ele>535.4</ele>
        <time>2020-08-06T19:09:14Z</time>
      </trkpt>
      <trkpt lat="40.9539680" lon="0.3169240">
        <ele>535.5</ele>
        <time>2020-08-06T19:09:15Z</time>
      </trkpt>
      <trkpt lat="40.9539700" lon="0.3169130">
        <ele>535.5</ele>
        <time>2020-08-06T19:09:16Z</time>
      </trkpt>
      <trkpt lat="40.9539700" lon="0.3168960">
        <ele>535.5</ele>
        <time>2020-08-06T19:09:17Z</time>
      </trkpt>
      <trkpt lat="40.9539740" lon="0.3168880">
        <ele>535.5</ele>
        <time>2020-08-06T19:09:19Z</time>
      </trkpt>
      <trkpt lat="40.9539630" lon="0.3168930">
        <ele>535.6</ele>
        <time>2020-08-06T19:09:21Z</time>
      </trkpt>
      <trkpt lat="40.9539520" lon="0.3168940">
        <ele>535.6</ele>
        <time>2020-08-06T19:09:22Z</time>
      </trkpt>
      <trkpt lat="40.9539480" lon="0.3168960">
        <ele>535.6</ele>
        <time>2020-08-06T19:09:23Z</time>
      </trkpt>
      <trkpt lat="40.9539390" lon="0.3168860">
        <ele>536.3</ele>
        <time>2020-08-06T19:09:25Z</time>
      </trkpt>
      <trkpt lat="40.9539350" lon="0.3168880">
        <ele>536.0</ele>
        <time>2020-08-06T19:09:26Z</time>
      </trkpt>
      <trkpt lat="40.9539320" lon="0.3168900">
        <ele>536.0</ele>
        <time>2020-08-06T19:09:27Z</time>
      </trkpt>
      <trkpt lat="40.9539280" lon="0.3168910">
        <ele>536.1</ele>
        <time>2020-08-06T19:09:28Z</time>
      </trkpt>
      <trkpt lat="40.9539240" lon="0.3168890">
        <ele>536.1</ele>
        <time>2020-08-06T19:09:29Z</time>
      </trkpt>
      <trkpt lat="40.9539210" lon="0.3168870">
        <ele>536.1</ele>
        <time>2020-08-06T19:09:30Z</time>
      </trkpt>
      <trkpt lat="40.9539160" lon="0.3168860">
        <ele>536.4</ele>
        <time>2020-08-06T19:09:32Z</time>
      </trkpt>
      <trkpt lat="40.9539140" lon="0.3168860">
        <ele>536.5</ele>
        <time>2020-08-06T19:09:33Z</time>
      </trkpt>
      <trkpt lat="40.9539120" lon="0.3168870">
        <ele>536.2</ele>
        <time>2020-08-06T19:09:34Z</time>
      </trkpt>
      <trkpt lat="40.9538970" lon="0.3169060">
        <ele>536.5</ele>
        <time>2020-08-06T19:09:35Z</time>
      </trkpt>
      <trkpt lat="40.9538830" lon="0.3169240">
        <ele>536.6</ele>
        <time>2020-08-06T19:09:36Z</time>
      </trkpt>
      <trkpt lat="40.9538700" lon="0.3169430">
        <ele>536.6</ele>
        <time>2020-08-06T19:09:38Z</time>
      </trkpt>
      <trkpt lat="40.9538560" lon="0.3169610">
        <ele>536.6</ele>
        <time>2020-08-06T19:09:39Z</time>
      </trkpt>
      <trkpt lat="40.9538430" lon="0.3169790">
        <ele>536.5</ele>
        <time>2020-08-06T19:09:40Z</time>
      </trkpt>
      <trkpt lat="40.9538470" lon="0.3169670">
        <ele>536.6</ele>
        <time>2020-08-06T19:09:41Z</time>
      </trkpt>
      <trkpt lat="40.9538500" lon="0.3169640">
        <ele>536.6</ele>
        <time>2020-08-06T19:09:42Z</time>
      </trkpt>
      <trkpt lat="40.9538490" lon="0.3169630">
        <ele>536.7</ele>
        <time>2020-08-06T19:09:43Z</time>
      </trkpt>
      <trkpt lat="40.9538410" lon="0.3169640">
        <ele>537.0</ele>
        <time>2020-08-06T19:09:45Z</time>
      </trkpt>
      <trkpt lat="40.9538310" lon="0.3169740">
        <ele>536.6</ele>
        <time>2020-08-06T19:09:46Z</time>
      </trkpt>
      <trkpt lat="40.9538220" lon="0.3169860">
        <ele>536.7</ele>
        <time>2020-08-06T19:09:47Z</time>
      </trkpt>
      <trkpt lat="40.9538100" lon="0.3170070">
        <ele>536.9</ele>
        <time>2020-08-06T19:09:49Z</time>
      </trkpt>
      <trkpt lat="40.9537980" lon="0.3170220">
        <ele>536.6</ele>
        <time>2020-08-06T19:09:50Z</time>
      </trkpt>
      <trkpt lat="40.9537840" lon="0.3170320">
        <ele>536.6</ele>
        <time>2020-08-06T19:09:51Z</time>
      </trkpt>
      <trkpt lat="40.9537640" lon="0.3170480">
        <ele>536.9</ele>
        <time>2020-08-06T19:09:53Z</time>
      </trkpt>
      <trkpt lat="40.9537520" lon="0.3170610">
        <ele>537.0</ele>
        <time>2020-08-06T19:09:55Z</time>
      </trkpt>
      <trkpt lat="40.9537180" lon="0.3170980">
        <ele>537.3</ele>
        <time>2020-08-06T19:09:57Z</time>
      </trkpt>
      <trkpt lat="40.9537050" lon="0.3171090">
        <ele>537.4</ele>
        <time>2020-08-06T19:09:59Z</time>
      </trkpt>
      <trkpt lat="40.9536920" lon="0.3171200">
        <ele>537.5</ele>
        <time>2020-08-06T19:10:00Z</time>
      </trkpt>
      <trkpt lat="40.9536790" lon="0.3171310">
        <ele>537.6</ele>
        <time>2020-08-06T19:10:01Z</time>
      </trkpt>
      <trkpt lat="40.9536660" lon="0.3171420">
        <ele>537.7</ele>
        <time>2020-08-06T19:10:02Z</time>
      </trkpt>
      <trkpt lat="40.9536460" lon="0.3171720">
        <ele>537.9</ele>
        <time>2020-08-06T19:10:04Z</time>
      </trkpt>
      <trkpt lat="40.9536250" lon="0.3171950">
        <ele>538.0</ele>
        <time>2020-08-06T19:10:06Z</time>
      </trkpt>
      <trkpt lat="40.9536120" lon="0.3172060">
        <ele>538.1</ele>
        <time>2020-08-06T19:10:07Z</time>
      </trkpt>
      <trkpt lat="40.9535990" lon="0.3172230">
        <ele>538.1</ele>
        <time>2020-08-06T19:10:08Z</time>
      </trkpt>
      <trkpt lat="40.9535860" lon="0.3172440">
        <ele>538.2</ele>
        <time>2020-08-06T19:10:09Z</time>
      </trkpt>
      <trkpt lat="40.9535780" lon="0.3172530">
        <ele>538.2</ele>
        <time>2020-08-06T19:10:10Z</time>
      </trkpt>
      <trkpt lat="40.9535670" lon="0.3172590">
        <ele>538.3</ele>
        <time>2020-08-06T19:10:11Z</time>
      </trkpt>
      <trkpt lat="40.9535470" lon="0.3172860">
        <ele>538.3</ele>
        <time>2020-08-06T19:10:13Z</time>
      </trkpt>
      <trkpt lat="40.9535320" lon="0.3172940">
        <ele>538.4</ele>
        <time>2020-08-06T19:10:14Z</time>
      </trkpt>
      <trkpt lat="40.9535180" lon="0.3173050">
        <ele>538.4</ele>
        <time>2020-08-06T19:10:15Z</time>
      </trkpt>
      <trkpt lat="40.9535040" lon="0.3173170">
        <ele>538.4</ele>
        <time>2020-08-06T19:10:16Z</time>
      </trkpt>
      <trkpt lat="40.9534910" lon="0.3173250">
        <ele>538.4</ele>
        <time>2020-08-06T19:10:17Z</time>
      </trkpt>
      <trkpt lat="40.9534650" lon="0.3173470">
        <ele>538.5</ele>
        <time>2020-08-06T19:10:19Z</time>
      </trkpt>
      <trkpt lat="40.9534560" lon="0.3173540">
        <ele>538.5</ele>
        <time>2020-08-06T19:10:20Z</time>
      </trkpt>
      <trkpt lat="40.9534430" lon="0.3173660">
        <ele>538.5</ele>
        <time>2020-08-06T19:10:21Z</time>
      </trkpt>
      <trkpt lat="40.9534270" lon="0.3173780">
        <ele>538.4</ele>
        <time>2020-08-06T19:10:22Z</time>
      </trkpt>
      <trkpt lat="40.9534120" lon="0.3173880">
        <ele>538.4</ele>
        <time>2020-08-06T19:10:23Z</time>
      </trkpt>
      <trkpt lat="40.9533990" lon="0.3174000">
        <ele>538.4</ele>
        <time>2020-08-06T19:10:24Z</time>
      </trkpt>
      <trkpt lat="40.9533630" lon="0.3174450">
        <ele>538.2</ele>
        <time>2020-08-06T19:10:26Z</time>
      </trkpt>
      <trkpt lat="40.9533530" lon="0.3174600">
        <ele>538.1</ele>
        <time>2020-08-06T19:10:27Z</time>
      </trkpt>
      <trkpt lat="40.9533360" lon="0.3174750">
        <ele>538.0</ele>
        <time>2020-08-06T19:10:29Z</time>
      </trkpt>
      <trkpt lat="40.9533170" lon="0.3174820">
        <ele>538.0</ele>
        <time>2020-08-06T19:10:30Z</time>
      </trkpt>
      <trkpt lat="40.9532860" lon="0.3174860">
        <ele>537.8</ele>
        <time>2020-08-06T19:10:32Z</time>
      </trkpt>
      <trkpt lat="40.9532590" lon="0.3174880">
        <ele>537.7</ele>
        <time>2020-08-06T19:10:33Z</time>
      </trkpt>
      <trkpt lat="40.9532490" lon="0.3174900">
        <ele>537.6</ele>
        <time>2020-08-06T19:10:34Z</time>
      </trkpt>
      <trkpt lat="40.9532260" lon="0.3174990">
        <ele>537.5</ele>
        <time>2020-08-06T19:10:35Z</time>
      </trkpt>
      <trkpt lat="40.9531870" lon="0.3175150">
        <ele>537.2</ele>
        <time>2020-08-06T19:10:37Z</time>
      </trkpt>
      <trkpt lat="40.9531550" lon="0.3175330">
        <ele>536.9</ele>
        <time>2020-08-06T19:10:38Z</time>
      </trkpt>
      <trkpt lat="40.9530950" lon="0.3175760">
        <ele>536.0</ele>
        <time>2020-08-06T19:10:40Z</time>
      </trkpt>
      <trkpt lat="40.9530500" lon="0.3176120">
        <ele>535.7</ele>
        <time>2020-08-06T19:10:41Z</time>
      </trkpt>
      <trkpt lat="40.9529590" lon="0.3176710">
        <ele>534.7</ele>
        <time>2020-08-06T19:10:43Z</time>
      </trkpt>
      <trkpt lat="40.9529220" lon="0.3176920">
        <ele>534.4</ele>
        <time>2020-08-06T19:10:44Z</time>
      </trkpt>
      <trkpt lat="40.9528990" lon="0.3176970">
        <ele>534.2</ele>
        <time>2020-08-06T19:10:45Z</time>
      </trkpt>
      <trkpt lat="40.9528730" lon="0.3176880">
        <ele>534.0</ele>
        <time>2020-08-06T19:10:47Z</time>
      </trkpt>
      <trkpt lat="40.9528640" lon="0.3176700">
        <ele>533.9</ele>
        <time>2020-08-06T19:10:49Z</time>
      </trkpt>
      <trkpt lat="40.9528690" lon="0.3176590">
        <ele>534.5</ele>
        <time>2020-08-06T19:10:51Z</time>
      </trkpt>
      <trkpt lat="40.9528740" lon="0.3176490">
        <ele>534.6</ele>
        <time>2020-08-06T19:10:52Z</time>
      </trkpt>
      <trkpt lat="40.9528800" lon="0.3176390">
        <ele>534.7</ele>
        <time>2020-08-06T19:10:53Z</time>
      </trkpt>
      <trkpt lat="40.9528850" lon="0.3176280">
        <ele>534.7</ele>
        <time>2020-08-06T19:10:54Z</time>
      </trkpt>
      <trkpt lat="40.9528900" lon="0.3176180">
        <ele>534.8</ele>
        <time>2020-08-06T19:10:56Z</time>
      </trkpt>
      <trkpt lat="40.9528950" lon="0.3176070">
        <ele>534.8</ele>
        <time>2020-08-06T19:10:58Z</time>
      </trkpt>
      <trkpt lat="40.9529000" lon="0.3175970">
        <ele>534.9</ele>
        <time>2020-08-06T19:10:59Z</time>
      </trkpt>
      <trkpt lat="40.9529060" lon="0.3175820">
        <ele>534.9</ele>
        <time>2020-08-06T19:11:00Z</time>
      </trkpt>
      <trkpt lat="40.9529100" lon="0.3175680">
        <ele>535.0</ele>
        <time>2020-08-06T19:11:01Z</time>
      </trkpt>
      <trkpt lat="40.9529100" lon="0.3175530">
        <ele>535.0</ele>
        <time>2020-08-06T19:11:02Z</time>
      </trkpt>
      <trkpt lat="40.9529090" lon="0.3175370">
        <ele>535.0</ele>
        <time>2020-08-06T19:11:03Z</time>
      </trkpt>
      <trkpt lat="40.9529050" lon="0.3175000">
        <ele>535.1</ele>
        <time>2020-08-06T19:11:05Z</time>
      </trkpt>
      <trkpt lat="40.9529070" lon="0.3174840">
        <ele>535.1</ele>
        <time>2020-08-06T19:11:06Z</time>
      </trkpt>
      <trkpt lat="40.9529120" lon="0.3174730">
        <ele>535.1</ele>
        <time>2020-08-06T19:11:07Z</time>
      </trkpt>
      <trkpt lat="40.9529280" lon="0.3174560">
        <ele>535.1</ele>
        <time>2020-08-06T19:11:09Z</time>
      </trkpt>
      <trkpt lat="40.9529420" lon="0.3174530">
        <ele>535.1</ele>
        <time>2020-08-06T19:11:10Z</time>
      </trkpt>
      <trkpt lat="40.9529570" lon="0.3174470">
        <ele>535.1</ele>
        <time>2020-08-06T19:11:11Z</time>
      </trkpt>
      <trkpt lat="40.9529740" lon="0.3174390">
        <ele>535.1</ele>
        <time>2020-08-06T19:11:12Z</time>
      </trkpt>
      <trkpt lat="40.9529890" lon="0.3174300">
        <ele>535.1</ele>
        <time>2020-08-06T19:11:13Z</time>
      </trkpt>
      <trkpt lat="40.9530140" lon="0.3174010">
        <ele>535.1</ele>
        <time>2020-08-06T19:11:15Z</time>
      </trkpt>
      <trkpt lat="40.9530280" lon="0.3173790">
        <ele>535.1</ele>
        <time>2020-08-06T19:11:17Z</time>
      </trkpt>
      <trkpt lat="40.9530760" lon="0.3173340">
        <ele>535.2</ele>
        <time>2020-08-06T19:11:24Z</time>
      </trkpt>
      <trkpt lat="40.9530850" lon="0.3173080">
        <ele>535.3</ele>
        <time>2020-08-06T19:11:25Z</time>
      </trkpt>
      <trkpt lat="40.9530910" lon="0.3172980">
        <ele>535.3</ele>
        <time>2020-08-06T19:11:26Z</time>
      </trkpt>
      <trkpt lat="40.9531010" lon="0.3172850">
        <ele>535.3</ele>
        <time>2020-08-06T19:11:27Z</time>
      </trkpt>
      <trkpt lat="40.9531080" lon="0.3172700">
        <ele>535.3</ele>
        <time>2020-08-06T19:11:28Z</time>
      </trkpt>
      <trkpt lat="40.9531150" lon="0.3172380">
        <ele>535.4</ele>
        <time>2020-08-06T19:11:30Z</time>
      </trkpt>
      <trkpt lat="40.9531300" lon="0.3172120">
        <ele>535.4</ele>
        <time>2020-08-06T19:11:32Z</time>
      </trkpt>
      <trkpt lat="40.9531430" lon="0.3172130">
        <ele>535.4</ele>
        <time>2020-08-06T19:11:33Z</time>
      </trkpt>
      <trkpt lat="40.9531700" lon="0.3172130">
        <ele>535.5</ele>
        <time>2020-08-06T19:11:35Z</time>
      </trkpt>
      <trkpt lat="40.9531840" lon="0.3172020">
        <ele>535.5</ele>
        <time>2020-08-06T19:11:36Z</time>
      </trkpt>
      <trkpt lat="40.9532390" lon="0.3171890">
        <ele>535.5</ele>
        <time>2020-08-06T19:11:39Z</time>
      </trkpt>
      <trkpt lat="40.9532670" lon="0.3171840">
        <ele>535.6</ele>
        <time>2020-08-06T19:11:40Z</time>
      </trkpt>
      <trkpt lat="40.9533010" lon="0.3171670">
        <ele>535.7</ele>
        <time>2020-08-06T19:11:42Z</time>
      </trkpt>
      <trkpt lat="40.9533200" lon="0.3171450">
        <ele>535.8</ele>
        <time>2020-08-06T19:11:44Z</time>
      </trkpt>
      <trkpt lat="40.9533250" lon="0.3171420">
        <ele>535.8</ele>
        <time>2020-08-06T19:11:45Z</time>
      </trkpt>
      <trkpt lat="40.9533310" lon="0.3171380">
        <ele>535.8</ele>
        <time>2020-08-06T19:11:46Z</time>
      </trkpt>
      <trkpt lat="40.9533460" lon="0.3171460">
        <ele>535.9</ele>
        <time>2020-08-06T19:11:48Z</time>
      </trkpt>
      <trkpt lat="40.9533490" lon="0.3171530">
        <ele>535.9</ele>
        <time>2020-08-06T19:11:49Z</time>
      </trkpt>
      <trkpt lat="40.9533470" lon="0.3171560">
        <ele>535.9</ele>
        <time>2020-08-06T19:11:50Z</time>
      </trkpt>
      <trkpt lat="40.9533420" lon="0.3171480">
        <ele>535.9</ele>
        <time>2020-08-06T19:11:52Z</time>
      </trkpt>
      <trkpt lat="40.9533430" lon="0.3171340">
        <ele>536.0</ele>
        <time>2020-08-06T19:11:53Z</time>
      </trkpt>
      <trkpt lat="40.9533460" lon="0.3171100">
        <ele>536.0</ele>
        <time>2020-08-06T19:11:55Z</time>
      </trkpt>
      <trkpt lat="40.9533440" lon="0.3170980">
        <ele>536.0</ele>
        <time>2020-08-06T19:11:56Z</time>
      </trkpt>
      <trkpt lat="40.9533480" lon="0.3170830">
        <ele>536.1</ele>
        <time>2020-08-06T19:11:57Z</time>
      </trkpt>
      <trkpt lat="40.9533520" lon="0.3170670">
        <ele>536.1</ele>
        <time>2020-08-06T19:11:58Z</time>
      </trkpt>
      <trkpt lat="40.9533570" lon="0.3170290">
        <ele>536.0</ele>
        <time>2020-08-06T19:12:00Z</time>
      </trkpt>
      <trkpt lat="40.9533550" lon="0.3170000">
        <ele>535.9</ele>
        <time>2020-08-06T19:12:02Z</time>
      </trkpt>
      <trkpt lat="40.9533580" lon="0.3169940">
        <ele>535.9</ele>
        <time>2020-08-06T19:12:03Z</time>
      </trkpt>
      <trkpt lat="40.9533650" lon="0.3169900">
        <ele>535.9</ele>
        <time>2020-08-06T19:12:05Z</time>
      </trkpt>
      <trkpt lat="40.9533710" lon="0.3169870">
        <ele>535.9</ele>
        <time>2020-08-06T19:12:06Z</time>
      </trkpt>
      <trkpt lat="40.9533920" lon="0.3169810">
        <ele>535.7</ele>
        <time>2020-08-06T19:12:08Z</time>
      </trkpt>
      <trkpt lat="40.9533980" lon="0.3169790">
        <ele>535.7</ele>
        <time>2020-08-06T19:12:09Z</time>
      </trkpt>
      <trkpt lat="40.9534100" lon="0.3169720">
        <ele>535.6</ele>
        <time>2020-08-06T19:12:11Z</time>
      </trkpt>
      <trkpt lat="40.9534320" lon="0.3169600">
        <ele>535.3</ele>
        <time>2020-08-06T19:12:13Z</time>
      </trkpt>
      <trkpt lat="40.9534450" lon="0.3169550">
        <ele>535.1</ele>
        <time>2020-08-06T19:12:14Z</time>
      </trkpt>
      <trkpt lat="40.9534580" lon="0.3169530">
        <ele>534.9</ele>
        <time>2020-08-06T19:12:15Z</time>
      </trkpt>
      <trkpt lat="40.9534870" lon="0.3169510">
        <ele>534.5</ele>
        <time>2020-08-06T19:12:17Z</time>
      </trkpt>
      <trkpt lat="40.9535110" lon="0.3169530">
        <ele>534.5</ele>
        <time>2020-08-06T19:12:18Z</time>
      </trkpt>
      <trkpt lat="40.9535230" lon="0.3169540">
        <ele>534.5</ele>
        <time>2020-08-06T19:12:19Z</time>
      </trkpt>
      <trkpt lat="40.9535270" lon="0.3169570">
        <ele>534.5</ele>
        <time>2020-08-06T19:12:20Z</time>
      </trkpt>
      <trkpt lat="40.9535280" lon="0.3169570">
        <ele>534.5</ele>
        <time>2020-08-06T19:12:21Z</time>
      </trkpt>
      <trkpt lat="40.9535240" lon="0.3169390">
        <ele>534.5</ele>
        <time>2020-08-06T19:12:23Z</time>
      </trkpt>
      <trkpt lat="40.9535190" lon="0.3169250">
        <ele>534.5</ele>
        <time>2020-08-06T19:12:24Z</time>
      </trkpt>
      <trkpt lat="40.9535150" lon="0.3169120">
        <ele>534.5</ele>
        <time>2020-08-06T19:12:25Z</time>
      </trkpt>
      <trkpt lat="40.9535160" lon="0.3168780">
        <ele>534.5</ele>
        <time>2020-08-06T19:12:27Z</time>
      </trkpt>
      <trkpt lat="40.9535110" lon="0.3168640">
        <ele>534.5</ele>
        <time>2020-08-06T19:12:28Z</time>
      </trkpt>
      <trkpt lat="40.9535020" lon="0.3168520">
        <ele>534.5</ele>
        <time>2020-08-06T19:12:29Z</time>
      </trkpt>
      <trkpt lat="40.9534870" lon="0.3168360">
        <ele>534.5</ele>
        <time>2020-08-06T19:12:31Z</time>
      </trkpt>
      <trkpt lat="40.9534850" lon="0.3168260">
        <ele>534.5</ele>
        <time>2020-08-06T19:12:33Z</time>
      </trkpt>
      <trkpt lat="40.9534880" lon="0.3168040">
        <ele>534.5</ele>
        <time>2020-08-06T19:12:35Z</time>
      </trkpt>
      <trkpt lat="40.9534970" lon="0.3167970">
        <ele>534.5</ele>
        <time>2020-08-06T19:12:36Z</time>
      </trkpt>
      <trkpt lat="40.9535020" lon="0.3167900">
        <ele>534.5</ele>
        <time>2020-08-06T19:12:37Z</time>
      </trkpt>
      <trkpt lat="40.9535050" lon="0.3167780">
        <ele>534.5</ele>
        <time>2020-08-06T19:12:38Z</time>
      </trkpt>
      <trkpt lat="40.9535080" lon="0.3167500">
        <ele>534.5</ele>
        <time>2020-08-06T19:12:40Z</time>
      </trkpt>
      <trkpt lat="40.9535070" lon="0.3167370">
        <ele>534.5</ele>
        <time>2020-08-06T19:12:41Z</time>
      </trkpt>
      <trkpt lat="40.9535030" lon="0.3167210">
        <ele>534.5</ele>
        <time>2020-08-06T19:12:42Z</time>
      </trkpt>
      <trkpt lat="40.9535010" lon="0.3167080">
        <ele>534.5</ele>
        <time>2020-08-06T19:12:43Z</time>
      </trkpt>
      <trkpt lat="40.9534950" lon="0.3167040">
        <ele>534.5</ele>
        <time>2020-08-06T19:12:44Z</time>
      </trkpt>
      <trkpt lat="40.9534920" lon="0.3167030">
        <ele>534.5</ele>
        <time>2020-08-06T19:12:45Z</time>
      </trkpt>
      <trkpt lat="40.9534920" lon="0.3167070">
        <ele>534.5</ele>
        <time>2020-08-06T19:12:46Z</time>
      </trkpt>
      <trkpt lat="40.9534960" lon="0.3167090">
        <ele>534.5</ele>
        <time>2020-08-06T19:12:47Z</time>
      </trkpt>
      <trkpt lat="40.9534990" lon="0.3167130">
        <ele>534.5</ele>
        <time>2020-08-06T19:12:48Z</time>
      </trkpt>
      <trkpt lat="40.9534920" lon="0.3167310">
        <ele>534.5</ele>
        <time>2020-08-06T19:12:50Z</time>
      </trkpt>
      <trkpt lat="40.9534860" lon="0.3167350">
        <ele>534.5</ele>
        <time>2020-08-06T19:12:52Z</time>
      </trkpt>
      <trkpt lat="40.9534860" lon="0.3167330">
        <ele>534.5</ele>
        <time>2020-08-06T19:12:53Z</time>
      </trkpt>
      <trkpt lat="40.9534870" lon="0.3167320">
        <ele>534.5</ele>
        <time>2020-08-06T19:12:54Z</time>
      </trkpt>
      <trkpt lat="40.9534850" lon="0.3167340">
        <ele>534.5</ele>
        <time>2020-08-06T19:12:55Z</time>
      </trkpt>
      <trkpt lat="40.9534840" lon="0.3167300">
        <ele>534.5</ele>
        <time>2020-08-06T19:12:57Z</time>
      </trkpt>
      <trkpt lat="40.9534880" lon="0.3167250">
        <ele>534.5</ele>
        <time>2020-08-06T19:12:58Z</time>
      </trkpt>
      <trkpt lat="40.9535050" lon="0.3167220">
        <ele>534.5</ele>
        <time>2020-08-06T19:13:00Z</time>
      </trkpt>
      <trkpt lat="40.9535100" lon="0.3167250">
        <ele>534.5</ele>
        <time>2020-08-06T19:13:01Z</time>
      </trkpt>
      <trkpt lat="40.9535150" lon="0.3167240">
        <ele>534.5</ele>
        <time>2020-08-06T19:13:03Z</time>
      </trkpt>
      <trkpt lat="40.9535160" lon="0.3167170">
        <ele>534.5</ele>
        <time>2020-08-06T19:13:04Z</time>
      </trkpt>
      <trkpt lat="40.9535140" lon="0.3166880">
        <ele>534.5</ele>
        <time>2020-08-06T19:13:06Z</time>
      </trkpt>
      <trkpt lat="40.9535120" lon="0.3166830">
        <ele>534.5</ele>
        <time>2020-08-06T19:13:07Z</time>
      </trkpt>
      <trkpt lat="40.9535030" lon="0.3166860">
        <ele>534.5</ele>
        <time>2020-08-06T19:13:09Z</time>
      </trkpt>
      <trkpt lat="40.9534850" lon="0.3166930">
        <ele>534.5</ele>
        <time>2020-08-06T19:13:11Z</time>
      </trkpt>
      <trkpt lat="40.9534730" lon="0.3167010">
        <ele>534.5</ele>
        <time>2020-08-06T19:13:12Z</time>
      </trkpt>
      <trkpt lat="40.9534640" lon="0.3167090">
        <ele>534.5</ele>
        <time>2020-08-06T19:13:13Z</time>
      </trkpt>
      <trkpt lat="40.9534570" lon="0.3167190">
        <ele>534.5</ele>
        <time>2020-08-06T19:13:14Z</time>
      </trkpt>
      <trkpt lat="40.9534530" lon="0.3167270">
        <ele>534.5</ele>
        <time>2020-08-06T19:13:15Z</time>
      </trkpt>
      <trkpt lat="40.9534540" lon="0.3167370">
        <ele>534.5</ele>
        <time>2020-08-06T19:13:17Z</time>
      </trkpt>
      <trkpt lat="40.9534590" lon="0.3167490">
        <ele>534.5</ele>
        <time>2020-08-06T19:13:19Z</time>
      </trkpt>
      <trkpt lat="40.9534630" lon="0.3167530">
        <ele>534.5</ele>
        <time>2020-08-06T19:13:20Z</time>
      </trkpt>
      <trkpt lat="40.9534670" lon="0.3167530">
        <ele>534.5</ele>
        <time>2020-08-06T19:13:23Z</time>
      </trkpt>
      <trkpt lat="40.9534630" lon="0.3167450">
        <ele>534.5</ele>
        <time>2020-08-06T19:13:30Z</time>
      </trkpt>
      <trkpt lat="40.9534970" lon="0.3167080">
        <ele>534.6</ele>
        <time>2020-08-06T19:13:56Z</time>
      </trkpt>
      <trkpt lat="40.9535580" lon="0.3166870">
        <ele>534.6</ele>
        <time>2020-08-06T19:13:58Z</time>
      </trkpt>
      <trkpt lat="40.9535950" lon="0.3166800">
        <ele>534.6</ele>
        <time>2020-08-06T19:13:59Z</time>
      </trkpt>
      <trkpt lat="40.9536310" lon="0.3166740">
        <ele>534.7</ele>
        <time>2020-08-06T19:14:00Z</time>
      </trkpt>
      <trkpt lat="40.9536610" lon="0.3166570">
        <ele>535.5</ele>
        <time>2020-08-06T19:14:02Z</time>
      </trkpt>
      <trkpt lat="40.9536660" lon="0.3166480">
        <ele>535.8</ele>
        <time>2020-08-06T19:14:03Z</time>
      </trkpt>
      <trkpt lat="40.9536770" lon="0.3166350">
        <ele>536.2</ele>
        <time>2020-08-06T19:14:04Z</time>
      </trkpt>
      <trkpt lat="40.9536900" lon="0.3166150">
        <ele>536.7</ele>
        <time>2020-08-06T19:14:06Z</time>
      </trkpt>
      <trkpt lat="40.9536910" lon="0.3166090">
        <ele>536.8</ele>
        <time>2020-08-06T19:14:07Z</time>
      </trkpt>
      <trkpt lat="40.9537000" lon="0.3166040">
        <ele>537.0</ele>
        <time>2020-08-06T19:14:08Z</time>
      </trkpt>
      <trkpt lat="40.9537280" lon="0.3166000">
        <ele>537.4</ele>
        <time>2020-08-06T19:14:10Z</time>
      </trkpt>
      <trkpt lat="40.9537540" lon="0.3165880">
        <ele>537.7</ele>
        <time>2020-08-06T19:14:11Z</time>
      </trkpt>
      <trkpt lat="40.9537630" lon="0.3165800">
        <ele>537.7</ele>
        <time>2020-08-06T19:14:12Z</time>
      </trkpt>
      <trkpt lat="40.9537950" lon="0.3165710">
        <ele>537.6</ele>
        <time>2020-08-06T19:14:14Z</time>
      </trkpt>
      <trkpt lat="40.9538070" lon="0.3165740">
        <ele>537.6</ele>
        <time>2020-08-06T19:14:16Z</time>
      </trkpt>
      <trkpt lat="40.9538130" lon="0.3165680">
        <ele>537.5</ele>
        <time>2020-08-06T19:14:18Z</time>
      </trkpt>
      <trkpt lat="40.9538130" lon="0.3165640">
        <ele>537.5</ele>
        <time>2020-08-06T19:14:20Z</time>
      </trkpt>
      <trkpt lat="40.9538030" lon="0.3165370">
        <ele>537.2</ele>
        <time>2020-08-06T19:14:25Z</time>
      </trkpt>
      <trkpt lat="40.9538010" lon="0.3165370">
        <ele>537.2</ele>
        <time>2020-08-06T19:14:26Z</time>
      </trkpt>
      <trkpt lat="40.9538090" lon="0.3165190">
        <ele>537.0</ele>
        <time>2020-08-06T19:14:28Z</time>
      </trkpt>
      <trkpt lat="40.9538170" lon="0.3165020">
        <ele>536.7</ele>
        <time>2020-08-06T19:14:29Z</time>
      </trkpt>
      <trkpt lat="40.9538360" lon="0.3164740">
        <ele>536.2</ele>
        <time>2020-08-06T19:14:31Z</time>
      </trkpt>
      <trkpt lat="40.9538410" lon="0.3164670">
        <ele>536.0</ele>
        <time>2020-08-06T19:14:32Z</time>
      </trkpt>
      <trkpt lat="40.9538500" lon="0.3164530">
        <ele>535.7</ele>
        <time>2020-08-06T19:14:33Z</time>
      </trkpt>
      <trkpt lat="40.9538620" lon="0.3164390">
        <ele>535.0</ele>
        <time>2020-08-06T19:14:34Z</time>
      </trkpt>
      <trkpt lat="40.9538810" lon="0.3164260">
        <ele>535.1</ele>
        <time>2020-08-06T19:14:35Z</time>
      </trkpt>
      <trkpt lat="40.9538890" lon="0.3164210">
        <ele>535.1</ele>
        <time>2020-08-06T19:14:36Z</time>
      </trkpt>
      <trkpt lat="40.9538960" lon="0.3164150">
        <ele>535.1</ele>
        <time>2020-08-06T19:14:37Z</time>
      </trkpt>
      <trkpt lat="40.9539250" lon="0.3163880">
        <ele>534.9</ele>
        <time>2020-08-06T19:14:39Z</time>
      </trkpt>
      <trkpt lat="40.9539320" lon="0.3163800">
        <ele>534.8</ele>
        <time>2020-08-06T19:14:40Z</time>
      </trkpt>
      <trkpt lat="40.9539690" lon="0.3163460">
        <ele>534.5</ele>
        <time>2020-08-06T19:14:42Z</time>
      </trkpt>
      <trkpt lat="40.9539800" lon="0.3163360">
        <ele>534.4</ele>
        <time>2020-08-06T19:14:45Z</time>
      </trkpt>
      <trkpt lat="40.9539910" lon="0.3163250">
        <ele>534.2</ele>
        <time>2020-08-06T19:14:46Z</time>
      </trkpt>
      <trkpt lat="40.9540060" lon="0.3163080">
        <ele>534.0</ele>
        <time>2020-08-06T19:14:48Z</time>
      </trkpt>
      <trkpt lat="40.9540130" lon="0.3162990">
        <ele>533.9</ele>
        <time>2020-08-06T19:14:49Z</time>
      </trkpt>
      <trkpt lat="40.9540190" lon="0.3162870">
        <ele>533.7</ele>
        <time>2020-08-06T19:14:50Z</time>
      </trkpt>
      <trkpt lat="40.9540340" lon="0.3162670">
        <ele>533.4</ele>
        <time>2020-08-06T19:14:52Z</time>
      </trkpt>
      <trkpt lat="40.9540410" lon="0.3162580">
        <ele>533.3</ele>
        <time>2020-08-06T19:14:53Z</time>
      </trkpt>
      <trkpt lat="40.9540470" lon="0.3162470">
        <ele>533.2</ele>
        <time>2020-08-06T19:14:54Z</time>
      </trkpt>
      <trkpt lat="40.9540530" lon="0.3162360">
        <ele>533.0</ele>
        <time>2020-08-06T19:14:55Z</time>
      </trkpt>
      <trkpt lat="40.9540590" lon="0.3162260">
        <ele>532.8</ele>
        <time>2020-08-06T19:14:56Z</time>
      </trkpt>
      <trkpt lat="40.9540640" lon="0.3162170">
        <ele>532.7</ele>
        <time>2020-08-06T19:14:57Z</time>
      </trkpt>
      <trkpt lat="40.9540680" lon="0.3162080">
        <ele>532.6</ele>
        <time>2020-08-06T19:14:59Z</time>
      </trkpt>
      <trkpt lat="40.9540690" lon="0.3162010">
        <ele>532.5</ele>
        <time>2020-08-06T19:15:00Z</time>
      </trkpt>
      <trkpt lat="40.9540850" lon="0.3161740">
        <ele>532.0</ele>
        <time>2020-08-06T19:15:02Z</time>
      </trkpt>
      <trkpt lat="40.9541430" lon="0.3161440">
        <ele>532.0</ele>
        <time>2020-08-06T19:15:04Z</time>
      </trkpt>
      <trkpt lat="40.9542170" lon="0.3160860">
        <ele>531.1</ele>
        <time>2020-08-06T19:15:06Z</time>
      </trkpt>
      <trkpt lat="40.9542600" lon="0.3160220">
        <ele>530.5</ele>
        <time>2020-08-06T19:15:08Z</time>
      </trkpt>
      <trkpt lat="40.9542740" lon="0.3159860">
        <ele>530.2</ele>
        <time>2020-08-06T19:15:09Z</time>
      </trkpt>
      <trkpt lat="40.9542870" lon="0.3159470">
        <ele>529.9</ele>
        <time>2020-08-06T19:15:10Z</time>
      </trkpt>
      <trkpt lat="40.9542910" lon="0.3159340">
        <ele>529.8</ele>
        <time>2020-08-06T19:15:11Z</time>
      </trkpt>
      <trkpt lat="40.9543070" lon="0.3158790">
        <ele>529.5</ele>
        <time>2020-08-06T19:15:13Z</time>
      </trkpt>
      <trkpt lat="40.9543220" lon="0.3158350">
        <ele>529.2</ele>
        <time>2020-08-06T19:15:14Z</time>
      </trkpt>
      <trkpt lat="40.9543270" lon="0.3158200">
        <ele>529.1</ele>
        <time>2020-08-06T19:15:15Z</time>
      </trkpt>
      <trkpt lat="40.9543530" lon="0.3157590">
        <ele>528.7</ele>
        <time>2020-08-06T19:15:17Z</time>
      </trkpt>
      <trkpt lat="40.9543800" lon="0.3157000">
        <ele>528.3</ele>
        <time>2020-08-06T19:15:19Z</time>
      </trkpt>
      <trkpt lat="40.9544210" lon="0.3156490">
        <ele>527.9</ele>
        <time>2020-08-06T19:15:21Z</time>
      </trkpt>
      <trkpt lat="40.9544510" lon="0.3156200">
        <ele>527.7</ele>
        <time>2020-08-06T19:15:22Z</time>
      </trkpt>
      <trkpt lat="40.9544590" lon="0.3156120">
        <ele>527.6</ele>
        <time>2020-08-06T19:15:23Z</time>
      </trkpt>
      <trkpt lat="40.9544900" lon="0.3156070">
        <ele>527.4</ele>
        <time>2020-08-06T19:15:24Z</time>
      </trkpt>
      <trkpt lat="40.9545010" lon="0.3156080">
        <ele>527.3</ele>
        <time>2020-08-06T19:15:25Z</time>
      </trkpt>
      <trkpt lat="40.9545470" lon="0.3156130">
        <ele>527.0</ele>
        <time>2020-08-06T19:15:27Z</time>
      </trkpt>
      <trkpt lat="40.9545900" lon="0.3156110">
        <ele>526.6</ele>
        <time>2020-08-06T19:15:29Z</time>
      </trkpt>
      <trkpt lat="40.9546090" lon="0.3156110">
        <ele>526.5</ele>
        <time>2020-08-06T19:15:30Z</time>
      </trkpt>
      <trkpt lat="40.9546410" lon="0.3156120">
        <ele>526.2</ele>
        <time>2020-08-06T19:15:32Z</time>
      </trkpt>
      <trkpt lat="40.9546780" lon="0.3155980">
        <ele>525.7</ele>
        <time>2020-08-06T19:15:34Z</time>
      </trkpt>
      <trkpt lat="40.9546950" lon="0.3155880">
        <ele>525.5</ele>
        <time>2020-08-06T19:15:35Z</time>
      </trkpt>
      <trkpt lat="40.9547090" lon="0.3155770">
        <ele>525.3</ele>
        <time>2020-08-06T19:15:36Z</time>
      </trkpt>
      <trkpt lat="40.9547220" lon="0.3155630">
        <ele>525.3</ele>
        <time>2020-08-06T19:15:37Z</time>
      </trkpt>
      <trkpt lat="40.9547530" lon="0.3155330">
        <ele>525.5</ele>
        <time>2020-08-06T19:15:39Z</time>
      </trkpt>
      <trkpt lat="40.9547870" lon="0.3155150">
        <ele>525.7</ele>
        <time>2020-08-06T19:15:40Z</time>
      </trkpt>
      <trkpt lat="40.9547990" lon="0.3155090">
        <ele>525.7</ele>
        <time>2020-08-06T19:15:41Z</time>
      </trkpt>
      <trkpt lat="40.9548490" lon="0.3154860">
        <ele>525.5</ele>
        <time>2020-08-06T19:15:43Z</time>
      </trkpt>
      <trkpt lat="40.9548710" lon="0.3154690">
        <ele>525.4</ele>
        <time>2020-08-06T19:15:44Z</time>
      </trkpt>
      <trkpt lat="40.9549100" lon="0.3154270">
        <ele>525.0</ele>
        <time>2020-08-06T19:15:46Z</time>
      </trkpt>
      <trkpt lat="40.9549440" lon="0.3153930">
        <ele>524.6</ele>
        <time>2020-08-06T19:15:48Z</time>
      </trkpt>
      <trkpt lat="40.9549700" lon="0.3153690">
        <ele>524.3</ele>
        <time>2020-08-06T19:15:49Z</time>
      </trkpt>
      <trkpt lat="40.9549790" lon="0.3153600">
        <ele>524.2</ele>
        <time>2020-08-06T19:15:50Z</time>
      </trkpt>
      <trkpt lat="40.9550110" lon="0.3153330">
        <ele>523.7</ele>
        <time>2020-08-06T19:15:52Z</time>
      </trkpt>
      <trkpt lat="40.9550330" lon="0.3153190">
        <ele>523.5</ele>
        <time>2020-08-06T19:15:53Z</time>
      </trkpt>
      <trkpt lat="40.9550830" lon="0.3152850">
        <ele>522.9</ele>
        <time>2020-08-06T19:15:55Z</time>
      </trkpt>
      <trkpt lat="40.9551060" lon="0.3152700">
        <ele>522.6</ele>
        <time>2020-08-06T19:15:56Z</time>
      </trkpt>
      <trkpt lat="40.9551220" lon="0.3152550">
        <ele>522.5</ele>
        <time>2020-08-06T19:15:58Z</time>
      </trkpt>
      <trkpt lat="40.9551220" lon="0.3152510">
        <ele>522.5</ele>
        <time>2020-08-06T19:15:59Z</time>
      </trkpt>
      <trkpt lat="40.9551140" lon="0.3152420">
        <ele>522.5</ele>
        <time>2020-08-06T19:16:01Z</time>
      </trkpt>
      <trkpt lat="40.9551070" lon="0.3152250">
        <ele>522.6</ele>
        <time>2020-08-06T19:16:02Z</time>
      </trkpt>
      <trkpt lat="40.9550940" lon="0.3151690">
        <ele>522.8</ele>
        <time>2020-08-06T19:16:04Z</time>
      </trkpt>
      <trkpt lat="40.9550770" lon="0.3150970">
        <ele>523.0</ele>
        <time>2020-08-06T19:16:06Z</time>
      </trkpt>
      <trkpt lat="40.9550600" lon="0.3150670">
        <ele>523.0</ele>
        <time>2020-08-06T19:16:07Z</time>
      </trkpt>
      <trkpt lat="40.9550100" lon="0.3150380">
        <ele>522.9</ele>
        <time>2020-08-06T19:16:09Z</time>
      </trkpt>
      <trkpt lat="40.9549790" lon="0.3150340">
        <ele>522.8</ele>
        <time>2020-08-06T19:16:10Z</time>
      </trkpt>
      <trkpt lat="40.9549140" lon="0.3150350">
        <ele>522.4</ele>
        <time>2020-08-06T19:16:12Z</time>
      </trkpt>
      <trkpt lat="40.9548510" lon="0.3150410">
        <ele>522.7</ele>
        <time>2020-08-06T19:16:14Z</time>
      </trkpt>
      <trkpt lat="40.9548200" lon="0.3150480">
        <ele>522.9</ele>
        <time>2020-08-06T19:16:15Z</time>
      </trkpt>
      <trkpt lat="40.9548100" lon="0.3150510">
        <ele>522.9</ele>
        <time>2020-08-06T19:16:16Z</time>
      </trkpt>
      <trkpt lat="40.9547930" lon="0.3150580">
        <ele>523.0</ele>
        <time>2020-08-06T19:16:17Z</time>
      </trkpt>
      <trkpt lat="40.9547780" lon="0.3150650">
        <ele>523.1</ele>
        <time>2020-08-06T19:16:18Z</time>
      </trkpt>
      <trkpt lat="40.9547640" lon="0.3150770">
        <ele>523.2</ele>
        <time>2020-08-06T19:16:19Z</time>
      </trkpt>
      <trkpt lat="40.9547530" lon="0.3150890">
        <ele>523.2</ele>
        <time>2020-08-06T19:16:20Z</time>
      </trkpt>
      <trkpt lat="40.9547280" lon="0.3151170">
        <ele>523.4</ele>
        <time>2020-08-06T19:16:22Z</time>
      </trkpt>
      <trkpt lat="40.9546990" lon="0.3151480">
        <ele>523.6</ele>
        <time>2020-08-06T19:16:24Z</time>
      </trkpt>
      <trkpt lat="40.9546800" lon="0.3151650">
        <ele>523.7</ele>
        <time>2020-08-06T19:16:25Z</time>
      </trkpt>
      <trkpt lat="40.9546390" lon="0.3152020">
        <ele>523.9</ele>
        <time>2020-08-06T19:16:27Z</time>
      </trkpt>
      <trkpt lat="40.9546160" lon="0.3152250">
        <ele>524.1</ele>
        <time>2020-08-06T19:16:28Z</time>
      </trkpt>
      <trkpt lat="40.9545760" lon="0.3152720">
        <ele>524.3</ele>
        <time>2020-08-06T19:16:30Z</time>
      </trkpt>
      <trkpt lat="40.9545440" lon="0.3153070">
        <ele>524.4</ele>
        <time>2020-08-06T19:16:32Z</time>
      </trkpt>
      <trkpt lat="40.9545330" lon="0.3153200">
        <ele>524.4</ele>
        <time>2020-08-06T19:16:33Z</time>
      </trkpt>
      <trkpt lat="40.9545250" lon="0.3153340">
        <ele>524.4</ele>
        <time>2020-08-06T19:16:34Z</time>
      </trkpt>
      <trkpt lat="40.9545200" lon="0.3153500">
        <ele>524.4</ele>
        <time>2020-08-06T19:16:35Z</time>
      </trkpt>
      <trkpt lat="40.9545160" lon="0.3153800">
        <ele>524.4</ele>
        <time>2020-08-06T19:16:37Z</time>
      </trkpt>
      <trkpt lat="40.9545160" lon="0.3153900">
        <ele>524.4</ele>
        <time>2020-08-06T19:16:38Z</time>
      </trkpt>
      <trkpt lat="40.9545170" lon="0.3154020">
        <ele>524.4</ele>
        <time>2020-08-06T19:16:39Z</time>
      </trkpt>
      <trkpt lat="40.9545110" lon="0.3154290">
        <ele>524.4</ele>
        <time>2020-08-06T19:16:41Z</time>
      </trkpt>
      <trkpt lat="40.9544990" lon="0.3154420">
        <ele>524.4</ele>
        <time>2020-08-06T19:16:42Z</time>
      </trkpt>
      <trkpt lat="40.9544810" lon="0.3154510">
        <ele>524.4</ele>
        <time>2020-08-06T19:16:43Z</time>
      </trkpt>
      <trkpt lat="40.9544560" lon="0.3154540">
        <ele>524.4</ele>
        <time>2020-08-06T19:16:44Z</time>
      </trkpt>
      <trkpt lat="40.9544040" lon="0.3154580">
        <ele>524.4</ele>
        <time>2020-08-06T19:16:46Z</time>
      </trkpt>
      <trkpt lat="40.9543570" lon="0.3154610">
        <ele>524.3</ele>
        <time>2020-08-06T19:16:48Z</time>
      </trkpt>
      <trkpt lat="40.9543200" lon="0.3154640">
        <ele>524.3</ele>
        <time>2020-08-06T19:16:49Z</time>
      </trkpt>
      <trkpt lat="40.9543070" lon="0.3154660">
        <ele>524.3</ele>
        <time>2020-08-06T19:16:50Z</time>
      </trkpt>
      <trkpt lat="40.9542850" lon="0.3154750">
        <ele>524.3</ele>
        <time>2020-08-06T19:16:51Z</time>
      </trkpt>
      <trkpt lat="40.9542470" lon="0.3155120">
        <ele>524.3</ele>
        <time>2020-08-06T19:16:53Z</time>
      </trkpt>
      <trkpt lat="40.9542090" lon="0.3155670">
        <ele>524.3</ele>
        <time>2020-08-06T19:16:55Z</time>
      </trkpt>
      <trkpt lat="40.9541640" lon="0.3156060">
        <ele>524.2</ele>
        <time>2020-08-06T19:16:57Z</time>
      </trkpt>
      <trkpt lat="40.9541450" lon="0.3156130">
        <ele>524.2</ele>
        <time>2020-08-06T19:16:58Z</time>
      </trkpt>
      <trkpt lat="40.9540990" lon="0.3156130">
        <ele>524.2</ele>
        <time>2020-08-06T19:17:00Z</time>
      </trkpt>
      <trkpt lat="40.9540530" lon="0.3156090">
        <ele>524.2</ele>
        <time>2020-08-06T19:17:02Z</time>
      </trkpt>
      <trkpt lat="40.9540360" lon="0.3156080">
        <ele>524.2</ele>
        <time>2020-08-06T19:17:03Z</time>
      </trkpt>
      <trkpt lat="40.9540190" lon="0.3156080">
        <ele>524.2</ele>
        <time>2020-08-06T19:17:04Z</time>
      </trkpt>
      <trkpt lat="40.9539500" lon="0.3156190">
        <ele>524.2</ele>
        <time>2020-08-06T19:17:11Z</time>
      </trkpt>
      <trkpt lat="40.9539170" lon="0.3156360">
        <ele>524.2</ele>
        <time>2020-08-06T19:17:13Z</time>
      </trkpt>
      <trkpt lat="40.9538870" lon="0.3156520">
        <ele>524.3</ele>
        <time>2020-08-06T19:17:15Z</time>
      </trkpt>
      <trkpt lat="40.9538750" lon="0.3156590">
        <ele>524.3</ele>
        <time>2020-08-06T19:17:16Z</time>
      </trkpt>
      <trkpt lat="40.9538650" lon="0.3156660">
        <ele>524.3</ele>
        <time>2020-08-06T19:17:17Z</time>
      </trkpt>
      <trkpt lat="40.9538550" lon="0.3156750">
        <ele>524.3</ele>
        <time>2020-08-06T19:17:18Z</time>
      </trkpt>
      <trkpt lat="40.9538760" lon="0.3156790">
        <ele>524.3</ele>
        <time>2020-08-06T19:17:20Z</time>
      </trkpt>
      <trkpt lat="40.9538810" lon="0.3156850">
        <ele>524.3</ele>
        <time>2020-08-06T19:17:21Z</time>
      </trkpt>
      <trkpt lat="40.9538870" lon="0.3156930">
        <ele>524.3</ele>
        <time>2020-08-06T19:17:22Z</time>
      </trkpt>
      <trkpt lat="40.9538860" lon="0.3157000">
        <ele>524.3</ele>
        <time>2020-08-06T19:17:23Z</time>
      </trkpt>
      <trkpt lat="40.9538880" lon="0.3157050">
        <ele>524.3</ele>
        <time>2020-08-06T19:17:24Z</time>
      </trkpt>
      <trkpt lat="40.9538800" lon="0.3157220">
        <ele>524.3</ele>
        <time>2020-08-06T19:17:26Z</time>
      </trkpt>
      <trkpt lat="40.9538750" lon="0.3157290">
        <ele>524.3</ele>
        <time>2020-08-06T19:17:27Z</time>
      </trkpt>
      <trkpt lat="40.9538620" lon="0.3157450">
        <ele>524.3</ele>
        <time>2020-08-06T19:17:29Z</time>
      </trkpt>
      <trkpt lat="40.9538540" lon="0.3157540">
        <ele>524.3</ele>
        <time>2020-08-06T19:17:30Z</time>
      </trkpt>
      <trkpt lat="40.9538430" lon="0.3157660">
        <ele>524.3</ele>
        <time>2020-08-06T19:17:32Z</time>
      </trkpt>
      <trkpt lat="40.9538380" lon="0.3157700">
        <ele>524.3</ele>
        <time>2020-08-06T19:17:33Z</time>
      </trkpt>
      <trkpt lat="40.9538260" lon="0.3157810">
        <ele>524.3</ele>
        <time>2020-08-06T19:17:35Z</time>
      </trkpt>
      <trkpt lat="40.9538230" lon="0.3157830">
        <ele>524.3</ele>
        <time>2020-08-06T19:17:36Z</time>
      </trkpt>
      <trkpt lat="40.9538210" lon="0.3157850">
        <ele>524.3</ele>
        <time>2020-08-06T19:17:37Z</time>
      </trkpt>
      <trkpt lat="40.9538110" lon="0.3157920">
        <ele>524.3</ele>
        <time>2020-08-06T19:17:45Z</time>
      </trkpt>
      <trkpt lat="40.9537690" lon="0.3158260">
        <ele>524.3</ele>
        <time>2020-08-06T19:17:50Z</time>
      </trkpt>
      <trkpt lat="40.9537390" lon="0.3158520">
        <ele>524.4</ele>
        <time>2020-08-06T19:17:51Z</time>
      </trkpt>
      <trkpt lat="40.9537140" lon="0.3158730">
        <ele>524.4</ele>
        <time>2020-08-06T19:17:52Z</time>
      </trkpt>
      <trkpt lat="40.9536930" lon="0.3158910">
        <ele>524.4</ele>
        <time>2020-08-06T19:17:53Z</time>
      </trkpt>
      <trkpt lat="40.9536830" lon="0.3159010">
        <ele>524.4</ele>
        <time>2020-08-06T19:17:55Z</time>
      </trkpt>
      <trkpt lat="40.9536910" lon="0.3158940">
        <ele>524.5</ele>
        <time>2020-08-06T19:17:56Z</time>
      </trkpt>
      <trkpt lat="40.9536900" lon="0.3158930">
        <ele>524.5</ele>
        <time>2020-08-06T19:17:58Z</time>
      </trkpt>
      <trkpt lat="40.9536890" lon="0.3158930">
        <ele>524.5</ele>
        <time>2020-08-06T19:17:59Z</time>
      </trkpt>
      <trkpt lat="40.9536880" lon="0.3158920">
        <ele>524.5</ele>
        <time>2020-08-06T19:18:00Z</time>
      </trkpt>
      <trkpt lat="40.9536870" lon="0.3158920">
        <ele>524.5</ele>
        <time>2020-08-06T19:18:01Z</time>
      </trkpt>
      <trkpt lat="40.9536800" lon="0.3159230">
        <ele>524.5</ele>
        <time>2020-08-06T19:18:02Z</time>
      </trkpt>
      <trkpt lat="40.9536620" lon="0.3159560">
        <ele>524.5</ele>
        <time>2020-08-06T19:18:04Z</time>
      </trkpt>
      <trkpt lat="40.9536540" lon="0.3159750">
        <ele>524.6</ele>
        <time>2020-08-06T19:18:05Z</time>
      </trkpt>
      <trkpt lat="40.9536450" lon="0.3159940">
        <ele>524.6</ele>
        <time>2020-08-06T19:18:06Z</time>
      </trkpt>
      <trkpt lat="40.9536290" lon="0.3160010">
        <ele>524.6</ele>
        <time>2020-08-06T19:18:07Z</time>
      </trkpt>
      <trkpt lat="40.9536150" lon="0.3160050">
        <ele>524.6</ele>
        <time>2020-08-06T19:18:08Z</time>
      </trkpt>
      <trkpt lat="40.9535870" lon="0.3160040">
        <ele>524.7</ele>
        <time>2020-08-06T19:18:10Z</time>
      </trkpt>
      <trkpt lat="40.9535760" lon="0.3160040">
        <ele>524.7</ele>
        <time>2020-08-06T19:18:11Z</time>
      </trkpt>
      <trkpt lat="40.9535520" lon="0.3159970">
        <ele>524.8</ele>
        <time>2020-08-06T19:18:12Z</time>
      </trkpt>
      <trkpt lat="40.9535280" lon="0.3159840">
        <ele>524.8</ele>
        <time>2020-08-06T19:18:14Z</time>
      </trkpt>
      <trkpt lat="40.9535120" lon="0.3159780">
        <ele>524.8</ele>
        <time>2020-08-06T19:18:15Z</time>
      </trkpt>
      <trkpt lat="40.9534950" lon="0.3159750">
        <ele>524.9</ele>
        <time>2020-08-06T19:18:16Z</time>
      </trkpt>
      <trkpt lat="40.9534610" lon="0.3159740">
        <ele>524.9</ele>
        <time>2020-08-06T19:18:17Z</time>
      </trkpt>
      <trkpt lat="40.9534510" lon="0.3159750">
        <ele>524.9</ele>
        <time>2020-08-06T19:18:18Z</time>
      </trkpt>
      <trkpt lat="40.9534130" lon="0.3159820">
        <ele>525.0</ele>
        <time>2020-08-06T19:18:20Z</time>
      </trkpt>
      <trkpt lat="40.9533840" lon="0.3159890">
        <ele>525.1</ele>
        <time>2020-08-06T19:18:21Z</time>
      </trkpt>
      <trkpt lat="40.9533520" lon="0.3159970">
        <ele>525.2</ele>
        <time>2020-08-06T19:18:22Z</time>
      </trkpt>
      <trkpt lat="40.9533250" lon="0.3160080">
        <ele>525.2</ele>
        <time>2020-08-06T19:18:24Z</time>
      </trkpt>
      <trkpt lat="40.9533000" lon="0.3160200">
        <ele>525.3</ele>
        <time>2020-08-06T19:18:25Z</time>
      </trkpt>
      <trkpt lat="40.9532690" lon="0.3160420">
        <ele>525.4</ele>
        <time>2020-08-06T19:18:26Z</time>
      </trkpt>
      <trkpt lat="40.9532590" lon="0.3160490">
        <ele>525.4</ele>
        <time>2020-08-06T19:18:27Z</time>
      </trkpt>
      <trkpt lat="40.9532190" lon="0.3160770">
        <ele>525.5</ele>
        <time>2020-08-06T19:18:29Z</time>
      </trkpt>
      <trkpt lat="40.9532050" lon="0.3160870">
        <ele>525.6</ele>
        <time>2020-08-06T19:18:30Z</time>
      </trkpt>
      <trkpt lat="40.9531920" lon="0.3160970">
        <ele>525.6</ele>
        <time>2020-08-06T19:18:31Z</time>
      </trkpt>
      <trkpt lat="40.9531690" lon="0.3161200">
        <ele>525.8</ele>
        <time>2020-08-06T19:18:33Z</time>
      </trkpt>
      <trkpt lat="40.9531510" lon="0.3161370">
        <ele>525.8</ele>
        <time>2020-08-06T19:18:34Z</time>
      </trkpt>
      <trkpt lat="40.9531410" lon="0.3161510">
        <ele>525.9</ele>
        <time>2020-08-06T19:18:35Z</time>
      </trkpt>
      <trkpt lat="40.9531200" lon="0.3161790">
        <ele>526.0</ele>
        <time>2020-08-06T19:18:36Z</time>
      </trkpt>
      <trkpt lat="40.9531130" lon="0.3161860">
        <ele>526.1</ele>
        <time>2020-08-06T19:18:37Z</time>
      </trkpt>
      <trkpt lat="40.9530910" lon="0.3162110">
        <ele>526.3</ele>
        <time>2020-08-06T19:18:39Z</time>
      </trkpt>
      <trkpt lat="40.9530690" lon="0.3162350">
        <ele>526.5</ele>
        <time>2020-08-06T19:18:40Z</time>
      </trkpt>
      <trkpt lat="40.9530070" lon="0.3162850">
        <ele>526.8</ele>
        <time>2020-08-06T19:18:42Z</time>
      </trkpt>
      <trkpt lat="40.9529180" lon="0.3163720">
        <ele>527.0</ele>
        <time>2020-08-06T19:18:43Z</time>
      </trkpt>
      <trkpt lat="40.9528600" lon="0.3164480">
        <ele>527.2</ele>
        <time>2020-08-06T19:18:45Z</time>
      </trkpt>
      <trkpt lat="40.9528530" lon="0.3164680">
        <ele>527.2</ele>
        <time>2020-08-06T19:18:46Z</time>
      </trkpt>
      <trkpt lat="40.9528460" lon="0.3165110">
        <ele>527.2</ele>
        <time>2020-08-06T19:18:48Z</time>
      </trkpt>
      <trkpt lat="40.9528430" lon="0.3165300">
        <ele>527.2</ele>
        <time>2020-08-06T19:18:49Z</time>
      </trkpt>
      <trkpt lat="40.9528420" lon="0.3165450">
        <ele>527.2</ele>
        <time>2020-08-06T19:18:50Z</time>
      </trkpt>
      <trkpt lat="40.9528380" lon="0.3165830">
        <ele>527.1</ele>
        <time>2020-08-06T19:18:52Z</time>
      </trkpt>
      <trkpt lat="40.9528400" lon="0.3166080">
        <ele>527.0</ele>
        <time>2020-08-06T19:18:54Z</time>
      </trkpt>
      <trkpt lat="40.9528440" lon="0.3166060">
        <ele>527.0</ele>
        <time>2020-08-06T19:18:55Z</time>
      </trkpt>
      <trkpt lat="40.9528530" lon="0.3165890">
        <ele>526.9</ele>
        <time>2020-08-06T19:18:57Z</time>
      </trkpt>
      <trkpt lat="40.9528550" lon="0.3165890">
        <ele>526.9</ele>
        <time>2020-08-06T19:18:59Z</time>
      </trkpt>
      <trkpt lat="40.9528540" lon="0.3165930">
        <ele>526.9</ele>
        <time>2020-08-06T19:19:01Z</time>
      </trkpt>
      <trkpt lat="40.9528500" lon="0.3165950">
        <ele>526.9</ele>
        <time>2020-08-06T19:19:03Z</time>
      </trkpt>
      <trkpt lat="40.9528480" lon="0.3165950">
        <ele>526.9</ele>
        <time>2020-08-06T19:19:04Z</time>
      </trkpt>
      <trkpt lat="40.9528460" lon="0.3165950">
        <ele>526.9</ele>
        <time>2020-08-06T19:19:06Z</time>
      </trkpt>
      <trkpt lat="40.9528460" lon="0.3165960">
        <ele>526.9</ele>
        <time>2020-08-06T19:19:07Z</time>
      </trkpt>
      <trkpt lat="40.9528400" lon="0.3166340">
        <ele>526.7</ele>
        <time>2020-08-06T19:19:33Z</time>
      </trkpt>
      <trkpt lat="40.9528350" lon="0.3166820">
        <ele>526.5</ele>
        <time>2020-08-06T19:19:35Z</time>
      </trkpt>
      <trkpt lat="40.9528310" lon="0.3167120">
        <ele>526.3</ele>
        <time>2020-08-06T19:19:36Z</time>
      </trkpt>
      <trkpt lat="40.9528040" lon="0.3167920">
        <ele>525.8</ele>
        <time>2020-08-06T19:19:38Z</time>
      </trkpt>
      <trkpt lat="40.9527820" lon="0.3168310">
        <ele>525.5</ele>
        <time>2020-08-06T19:19:39Z</time>
      </trkpt>
      <trkpt lat="40.9527570" lon="0.3168680">
        <ele>525.2</ele>
        <time>2020-08-06T19:19:40Z</time>
      </trkpt>
      <trkpt lat="40.9527130" lon="0.3169400">
        <ele>524.6</ele>
        <time>2020-08-06T19:19:42Z</time>
      </trkpt>
      <trkpt lat="40.9526750" lon="0.3170080">
        <ele>524.1</ele>
        <time>2020-08-06T19:19:44Z</time>
      </trkpt>
      <trkpt lat="40.9526280" lon="0.3170800">
        <ele>523.5</ele>
        <time>2020-08-06T19:19:46Z</time>
      </trkpt>
      <trkpt lat="40.9526030" lon="0.3171190">
        <ele>523.0</ele>
        <time>2020-08-06T19:19:47Z</time>
      </trkpt>
      <trkpt lat="40.9525730" lon="0.3171620">
        <ele>522.5</ele>
        <time>2020-08-06T19:19:48Z</time>
      </trkpt>
      <trkpt lat="40.9525420" lon="0.3172020">
        <ele>522.1</ele>
        <time>2020-08-06T19:19:49Z</time>
      </trkpt>
      <trkpt lat="40.9524790" lon="0.3172620">
        <ele>521.1</ele>
        <time>2020-08-06T19:19:51Z</time>
      </trkpt>
      <trkpt lat="40.9524510" lon="0.3172840">
        <ele>520.7</ele>
        <time>2020-08-06T19:19:52Z</time>
      </trkpt>
      <trkpt lat="40.9524050" lon="0.3172990">
        <ele>520.1</ele>
        <time>2020-08-06T19:19:54Z</time>
      </trkpt>
      <trkpt lat="40.9523750" lon="0.3172840">
        <ele>520.1</ele>
        <time>2020-08-06T19:19:55Z</time>
      </trkpt>
      <trkpt lat="40.9523650" lon="0.3172760">
        <ele>520.0</ele>
        <time>2020-08-06T19:19:56Z</time>
      </trkpt>
      <trkpt lat="40.9523630" lon="0.3172260">
        <ele>520.7</ele>
        <time>2020-08-06T19:19:58Z</time>
      </trkpt>
      <trkpt lat="40.9523780" lon="0.3171710">
        <ele>521.2</ele>
        <time>2020-08-06T19:20:00Z</time>
      </trkpt>
      <trkpt lat="40.9523940" lon="0.3171350">
        <ele>521.6</ele>
        <time>2020-08-06T19:20:01Z</time>
      </trkpt>
      <trkpt lat="40.9524000" lon="0.3171210">
        <ele>521.7</ele>
        <time>2020-08-06T19:20:02Z</time>
      </trkpt>
      <trkpt lat="40.9524350" lon="0.3170680">
        <ele>522.2</ele>
        <time>2020-08-06T19:20:04Z</time>
      </trkpt>
      <trkpt lat="40.9524770" lon="0.3170250">
        <ele>522.5</ele>
        <time>2020-08-06T19:20:06Z</time>
      </trkpt>
      <trkpt lat="40.9524960" lon="0.3170060">
        <ele>522.7</ele>
        <time>2020-08-06T19:20:07Z</time>
      </trkpt>
      <trkpt lat="40.9525350" lon="0.3169680">
        <ele>522.9</ele>
        <time>2020-08-06T19:20:09Z</time>
      </trkpt>
      <trkpt lat="40.9525580" lon="0.3169430">
        <ele>523.1</ele>
        <time>2020-08-06T19:20:10Z</time>
      </trkpt>
      <trkpt lat="40.9526000" lon="0.3168780">
        <ele>523.5</ele>
        <time>2020-08-06T19:20:12Z</time>
      </trkpt>
      <trkpt lat="40.9526400" lon="0.3167760">
        <ele>523.4</ele>
        <time>2020-08-06T19:20:14Z</time>
      </trkpt>
      <trkpt lat="40.9526550" lon="0.3167190">
        <ele>522.9</ele>
        <time>2020-08-06T19:20:15Z</time>
      </trkpt>
      <trkpt lat="40.9526650" lon="0.3166650">
        <ele>522.5</ele>
        <time>2020-08-06T19:20:16Z</time>
      </trkpt>
      <trkpt lat="40.9526750" lon="0.3166060">
        <ele>522.1</ele>
        <time>2020-08-06T19:20:17Z</time>
      </trkpt>
      <trkpt lat="40.9526810" lon="0.3164770">
        <ele>520.8</ele>
        <time>2020-08-06T19:20:19Z</time>
      </trkpt>
      <trkpt lat="40.9526930" lon="0.3163490">
        <ele>519.8</ele>
        <time>2020-08-06T19:20:21Z</time>
      </trkpt>
      <trkpt lat="40.9527020" lon="0.3162810">
        <ele>519.3</ele>
        <time>2020-08-06T19:20:22Z</time>
      </trkpt>
      <trkpt lat="40.9527080" lon="0.3161580">
        <ele>518.6</ele>
        <time>2020-08-06T19:20:24Z</time>
      </trkpt>
      <trkpt lat="40.9527510" lon="0.3160720">
        <ele>519.1</ele>
        <time>2020-08-06T19:20:26Z</time>
      </trkpt>
      <trkpt lat="40.9527730" lon="0.3160400">
        <ele>519.1</ele>
        <time>2020-08-06T19:20:27Z</time>
      </trkpt>
      <trkpt lat="40.9528050" lon="0.3159530">
        <ele>518.9</ele>
        <time>2020-08-06T19:20:29Z</time>
      </trkpt>
      <trkpt lat="40.9528350" lon="0.3159230">
        <ele>518.7</ele>
        <time>2020-08-06T19:20:30Z</time>
      </trkpt>
      <trkpt lat="40.9528660" lon="0.3159020">
        <ele>518.4</ele>
        <time>2020-08-06T19:20:31Z</time>
      </trkpt>
      <trkpt lat="40.9529190" lon="0.3158280">
        <ele>517.7</ele>
        <time>2020-08-06T19:20:33Z</time>
      </trkpt>
      <trkpt lat="40.9529440" lon="0.3157870">
        <ele>517.1</ele>
        <time>2020-08-06T19:20:34Z</time>
      </trkpt>
      <trkpt lat="40.9529690" lon="0.3157550">
        <ele>516.6</ele>
        <time>2020-08-06T19:20:35Z</time>
      </trkpt>
      <trkpt lat="40.9530310" lon="0.3156810">
        <ele>515.3</ele>
        <time>2020-08-06T19:20:37Z</time>
      </trkpt>
      <trkpt lat="40.9530580" lon="0.3156540">
        <ele>515.0</ele>
        <time>2020-08-06T19:20:38Z</time>
      </trkpt>
      <trkpt lat="40.9530870" lon="0.3156270">
        <ele>514.9</ele>
        <time>2020-08-06T19:20:39Z</time>
      </trkpt>
      <trkpt lat="40.9531450" lon="0.3155700">
        <ele>514.6</ele>
        <time>2020-08-06T19:20:41Z</time>
      </trkpt>
      <trkpt lat="40.9531690" lon="0.3155410">
        <ele>514.4</ele>
        <time>2020-08-06T19:20:42Z</time>
      </trkpt>
      <trkpt lat="40.9531930" lon="0.3155130">
        <ele>514.2</ele>
        <time>2020-08-06T19:20:43Z</time>
      </trkpt>
      <trkpt lat="40.9532340" lon="0.3154660">
        <ele>513.8</ele>
        <time>2020-08-06T19:20:45Z</time>
      </trkpt>
      <trkpt lat="40.9532620" lon="0.3154290">
        <ele>513.6</ele>
        <time>2020-08-06T19:20:47Z</time>
      </trkpt>
      <trkpt lat="40.9532770" lon="0.3154130">
        <ele>513.5</ele>
        <time>2020-08-06T19:20:48Z</time>
      </trkpt>
      <trkpt lat="40.9532890" lon="0.3154010">
        <ele>513.5</ele>
        <time>2020-08-06T19:20:49Z</time>
      </trkpt>
      <trkpt lat="40.9532920" lon="0.3153800">
        <ele>513.4</ele>
        <time>2020-08-06T19:20:50Z</time>
      </trkpt>
      <trkpt lat="40.9532860" lon="0.3153710">
        <ele>513.4</ele>
        <time>2020-08-06T19:20:52Z</time>
      </trkpt>
      <trkpt lat="40.9532800" lon="0.3153630">
        <ele>513.4</ele>
        <time>2020-08-06T19:20:53Z</time>
      </trkpt>
      <trkpt lat="40.9532750" lon="0.3153540">
        <ele>513.1</ele>
        <time>2020-08-06T19:20:55Z</time>
      </trkpt>
      <trkpt lat="40.9532690" lon="0.3153450">
        <ele>512.7</ele>
        <time>2020-08-06T19:20:56Z</time>
      </trkpt>
      <trkpt lat="40.9532630" lon="0.3153360">
        <ele>512.4</ele>
        <time>2020-08-06T19:20:58Z</time>
      </trkpt>
      <trkpt lat="40.9532570" lon="0.3153280">
        <ele>512.1</ele>
        <time>2020-08-06T19:20:59Z</time>
      </trkpt>
      <trkpt lat="40.9532510" lon="0.3153190">
        <ele>511.7</ele>
        <time>2020-08-06T19:21:00Z</time>
      </trkpt>
      <trkpt lat="40.9532290" lon="0.3152990">
        <ele>510.7</ele>
        <time>2020-08-06T19:21:01Z</time>
      </trkpt>
      <trkpt lat="40.9531760" lon="0.3152540">
        <ele>508.4</ele>
        <time>2020-08-06T19:21:03Z</time>
      </trkpt>
      <trkpt lat="40.9531520" lon="0.3152340">
        <ele>507.3</ele>
        <time>2020-08-06T19:21:04Z</time>
      </trkpt>
      <trkpt lat="40.9531290" lon="0.3152130">
        <ele>506.3</ele>
        <time>2020-08-06T19:21:05Z</time>
      </trkpt>
      <trkpt lat="40.9530890" lon="0.3151720">
        <ele>504.4</ele>
        <time>2020-08-06T19:21:07Z</time>
      </trkpt>
      <trkpt lat="40.9530550" lon="0.3151470">
        <ele>502.9</ele>
        <time>2020-08-06T19:21:08Z</time>
      </trkpt>
      <trkpt lat="40.9530430" lon="0.3151400">
        <ele>502.4</ele>
        <time>2020-08-06T19:21:09Z</time>
      </trkpt>
      <trkpt lat="40.9530190" lon="0.3151350">
        <ele>502.0</ele>
        <time>2020-08-06T19:21:10Z</time>
      </trkpt>
      <trkpt lat="40.9529710" lon="0.3151530">
        <ele>501.7</ele>
        <time>2020-08-06T19:21:12Z</time>
      </trkpt>
      <trkpt lat="40.9529480" lon="0.3151660">
        <ele>501.6</ele>
        <time>2020-08-06T19:21:13Z</time>
      </trkpt>
      <trkpt lat="40.9529000" lon="0.3151950">
        <ele>501.4</ele>
        <time>2020-08-06T19:21:15Z</time>
      </trkpt>
      <trkpt lat="40.9528740" lon="0.3152160">
        <ele>501.2</ele>
        <time>2020-08-06T19:21:16Z</time>
      </trkpt>
      <trkpt lat="40.9528510" lon="0.3152380">
        <ele>501.1</ele>
        <time>2020-08-06T19:21:17Z</time>
      </trkpt>
      <trkpt lat="40.9528300" lon="0.3152640">
        <ele>501.0</ele>
        <time>2020-08-06T19:21:18Z</time>
      </trkpt>
      <trkpt lat="40.9528080" lon="0.3152900">
        <ele>500.9</ele>
        <time>2020-08-06T19:21:19Z</time>
      </trkpt>
      <trkpt lat="40.9527880" lon="0.3153140">
        <ele>500.8</ele>
        <time>2020-08-06T19:21:20Z</time>
      </trkpt>
      <trkpt lat="40.9527360" lon="0.3153760">
        <ele>500.6</ele>
        <time>2020-08-06T19:21:22Z</time>
      </trkpt>
      <trkpt lat="40.9527100" lon="0.3154110">
        <ele>500.4</ele>
        <time>2020-08-06T19:21:23Z</time>
      </trkpt>
      <trkpt lat="40.9526580" lon="0.3154810">
        <ele>500.2</ele>
        <time>2020-08-06T19:21:25Z</time>
      </trkpt>
      <trkpt lat="40.9526310" lon="0.3155170">
        <ele>500.2</ele>
        <time>2020-08-06T19:21:26Z</time>
      </trkpt>
      <trkpt lat="40.9525760" lon="0.3155890">
        <ele>499.9</ele>
        <time>2020-08-06T19:21:28Z</time>
      </trkpt>
      <trkpt lat="40.9525250" lon="0.3156490">
        <ele>499.7</ele>
        <time>2020-08-06T19:21:30Z</time>
      </trkpt>
      <trkpt lat="40.9524610" lon="0.3157270">
        <ele>499.5</ele>
        <time>2020-08-06T19:21:32Z</time>
      </trkpt>
      <trkpt lat="40.9524370" lon="0.3157550">
        <ele>499.4</ele>
        <time>2020-08-06T19:21:33Z</time>
      </trkpt>
      <trkpt lat="40.9524020" lon="0.3157970">
        <ele>499.2</ele>
        <time>2020-08-06T19:21:34Z</time>
      </trkpt>
      <trkpt lat="40.9523780" lon="0.3158250">
        <ele>499.2</ele>
        <time>2020-08-06T19:21:35Z</time>
      </trkpt>
      <trkpt lat="40.9523260" lon="0.3158700">
        <ele>499.0</ele>
        <time>2020-08-06T19:21:37Z</time>
      </trkpt>
      <trkpt lat="40.9522930" lon="0.3158800">
        <ele>499.1</ele>
        <time>2020-08-06T19:21:39Z</time>
      </trkpt>
      <trkpt lat="40.9522840" lon="0.3158610">
        <ele>499.2</ele>
        <time>2020-08-06T19:21:40Z</time>
      </trkpt>
      <trkpt lat="40.9522920" lon="0.3158200">
        <ele>499.3</ele>
        <time>2020-08-06T19:21:42Z</time>
      </trkpt>
      <trkpt lat="40.9523050" lon="0.3158060">
        <ele>499.4</ele>
        <time>2020-08-06T19:21:43Z</time>
      </trkpt>
      <trkpt lat="40.9523420" lon="0.3157730">
        <ele>499.6</ele>
        <time>2020-08-06T19:21:45Z</time>
      </trkpt>
      <trkpt lat="40.9523640" lon="0.3157530">
        <ele>499.7</ele>
        <time>2020-08-06T19:21:46Z</time>
      </trkpt>
      <trkpt lat="40.9524120" lon="0.3157120">
        <ele>499.9</ele>
        <time>2020-08-06T19:21:48Z</time>
      </trkpt>
      <trkpt lat="40.9524550" lon="0.3156670">
        <ele>500.2</ele>
        <time>2020-08-06T19:21:50Z</time>
      </trkpt>
      <trkpt lat="40.9524960" lon="0.3156140">
        <ele>500.4</ele>
        <time>2020-08-06T19:21:52Z</time>
      </trkpt>
      <trkpt lat="40.9525270" lon="0.3155690">
        <ele>500.6</ele>
        <time>2020-08-06T19:21:54Z</time>
      </trkpt>
      <trkpt lat="40.9525650" lon="0.3155090">
        <ele>500.8</ele>
        <time>2020-08-06T19:21:56Z</time>
      </trkpt>
      <trkpt lat="40.9526080" lon="0.3154350">
        <ele>501.0</ele>
        <time>2020-08-06T19:21:58Z</time>
      </trkpt>
      <trkpt lat="40.9526300" lon="0.3153980">
        <ele>501.1</ele>
        <time>2020-08-06T19:21:59Z</time>
      </trkpt>
      <trkpt lat="40.9526920" lon="0.3152970">
        <ele>501.3</ele>
        <time>2020-08-06T19:22:01Z</time>
      </trkpt>
      <trkpt lat="40.9527520" lon="0.3151710">
        <ele>501.3</ele>
        <time>2020-08-06T19:22:03Z</time>
      </trkpt>
      <trkpt lat="40.9527960" lon="0.3150700">
        <ele>501.3</ele>
        <time>2020-08-06T19:22:05Z</time>
      </trkpt>
      <trkpt lat="40.9528120" lon="0.3150360">
        <ele>501.0</ele>
        <time>2020-08-06T19:22:06Z</time>
      </trkpt>
      <trkpt lat="40.9528210" lon="0.3149900">
        <ele>500.8</ele>
        <time>2020-08-06T19:22:07Z</time>
      </trkpt>
      <trkpt lat="40.9528100" lon="0.3148920">
        <ele>500.2</ele>
        <time>2020-08-06T19:22:09Z</time>
      </trkpt>
      <trkpt lat="40.9527820" lon="0.3147710">
        <ele>499.2</ele>
        <time>2020-08-06T19:22:11Z</time>
      </trkpt>
      <trkpt lat="40.9526940" lon="0.3141790">
        <ele>494.5</ele>
        <time>2020-08-06T19:22:17Z</time>
      </trkpt>
      <trkpt lat="40.9526850" lon="0.3140470">
        <ele>493.8</ele>
        <time>2020-08-06T19:22:18Z</time>
      </trkpt>
      <trkpt lat="40.9526790" lon="0.3139240">
        <ele>493.1</ele>
        <time>2020-08-06T19:22:19Z</time>
      </trkpt>
      <trkpt lat="40.9526760" lon="0.3138170">
        <ele>492.6</ele>
        <time>2020-08-06T19:22:20Z</time>
      </trkpt>
      <trkpt lat="40.9526680" lon="0.3137170">
        <ele>492.2</ele>
        <time>2020-08-06T19:22:21Z</time>
      </trkpt>
      <trkpt lat="40.9526640" lon="0.3136130">
        <ele>492.1</ele>
        <time>2020-08-06T19:22:22Z</time>
      </trkpt>
      <trkpt lat="40.9526430" lon="0.3134150">
        <ele>491.9</ele>
        <time>2020-08-06T19:22:24Z</time>
      </trkpt>
      <trkpt lat="40.9526300" lon="0.3133220">
        <ele>491.9</ele>
        <time>2020-08-06T19:22:25Z</time>
      </trkpt>
      <trkpt lat="40.9526110" lon="0.3131420">
        <ele>492.1</ele>
        <time>2020-08-06T19:22:27Z</time>
      </trkpt>
      <trkpt lat="40.9526070" lon="0.3130630">
        <ele>492.0</ele>
        <time>2020-08-06T19:22:28Z</time>
      </trkpt>
      <trkpt lat="40.9526060" lon="0.3129050">
        <ele>491.3</ele>
        <time>2020-08-06T19:22:30Z</time>
      </trkpt>
      <trkpt lat="40.9526070" lon="0.3128230">
        <ele>491.0</ele>
        <time>2020-08-06T19:22:31Z</time>
      </trkpt>
      <trkpt lat="40.9526210" lon="0.3126480">
        <ele>491.0</ele>
        <time>2020-08-06T19:22:33Z</time>
      </trkpt>
      <trkpt lat="40.9526300" lon="0.3125560">
        <ele>491.0</ele>
        <time>2020-08-06T19:22:34Z</time>
      </trkpt>
      <trkpt lat="40.9526400" lon="0.3124670">
        <ele>490.9</ele>
        <time>2020-08-06T19:22:35Z</time>
      </trkpt>
      <trkpt lat="40.9526710" lon="0.3122970">
        <ele>490.9</ele>
        <time>2020-08-06T19:22:37Z</time>
      </trkpt>
      <trkpt lat="40.9526940" lon="0.3122340">
        <ele>490.9</ele>
        <time>2020-08-06T19:22:38Z</time>
      </trkpt>
      <trkpt lat="40.9527560" lon="0.3121760">
        <ele>490.8</ele>
        <time>2020-08-06T19:22:40Z</time>
      </trkpt>
      <trkpt lat="40.9528290" lon="0.3121590">
        <ele>490.8</ele>
        <time>2020-08-06T19:22:42Z</time>
      </trkpt>
      <trkpt lat="40.9528500" lon="0.3121410">
        <ele>490.8</ele>
        <time>2020-08-06T19:22:43Z</time>
      </trkpt>
      <trkpt lat="40.9528530" lon="0.3120880">
        <ele>490.8</ele>
        <time>2020-08-06T19:22:45Z</time>
      </trkpt>
      <trkpt lat="40.9528360" lon="0.3120540">
        <ele>490.8</ele>
        <time>2020-08-06T19:22:47Z</time>
      </trkpt>
      <trkpt lat="40.9528290" lon="0.3120430">
        <ele>490.8</ele>
        <time>2020-08-06T19:22:48Z</time>
      </trkpt>
      <trkpt lat="40.9528240" lon="0.3120280">
        <ele>490.8</ele>
        <time>2020-08-06T19:22:49Z</time>
      </trkpt>
      <trkpt lat="40.9528160" lon="0.3119790">
        <ele>490.8</ele>
        <time>2020-08-06T19:22:51Z</time>
      </trkpt>
      <trkpt lat="40.9528150" lon="0.3119130">
        <ele>490.7</ele>
        <time>2020-08-06T19:22:53Z</time>
      </trkpt>
      <trkpt lat="40.9528220" lon="0.3118850">
        <ele>490.7</ele>
        <time>2020-08-06T19:22:54Z</time>
      </trkpt>
      <trkpt lat="40.9528580" lon="0.3118430">
        <ele>490.7</ele>
        <time>2020-08-06T19:22:56Z</time>
      </trkpt>
      <trkpt lat="40.9528960" lon="0.3118190">
        <ele>490.7</ele>
        <time>2020-08-06T19:22:58Z</time>
      </trkpt>
      <trkpt lat="40.9529110" lon="0.3118080">
        <ele>490.7</ele>
        <time>2020-08-06T19:22:59Z</time>
      </trkpt>
      <trkpt lat="40.9529280" lon="0.3117950">
        <ele>490.7</ele>
        <time>2020-08-06T19:23:01Z</time>
      </trkpt>
      <trkpt lat="40.9529260" lon="0.3117960">
        <ele>490.7</ele>
        <time>2020-08-06T19:23:02Z</time>
      </trkpt>
      <trkpt lat="40.9529220" lon="0.3118040">
        <ele>490.7</ele>
        <time>2020-08-06T19:23:04Z</time>
      </trkpt>
      <trkpt lat="40.9529190" lon="0.3118130">
        <ele>490.7</ele>
        <time>2020-08-06T19:23:05Z</time>
      </trkpt>
      <trkpt lat="40.9529150" lon="0.3118210">
        <ele>490.7</ele>
        <time>2020-08-06T19:23:07Z</time>
      </trkpt>
      <trkpt lat="40.9529120" lon="0.3118290">
        <ele>490.7</ele>
        <time>2020-08-06T19:23:09Z</time>
      </trkpt>
      <trkpt lat="40.9529080" lon="0.3118370">
        <ele>490.7</ele>
        <time>2020-08-06T19:23:10Z</time>
      </trkpt>
      <trkpt lat="40.9529020" lon="0.3118460">
        <ele>490.7</ele>
        <time>2020-08-06T19:23:11Z</time>
      </trkpt>
      <trkpt lat="40.9528940" lon="0.3118450">
        <ele>490.7</ele>
        <time>2020-08-06T19:23:14Z</time>
      </trkpt>
      <trkpt lat="40.9528910" lon="0.3118430">
        <ele>490.7</ele>
        <time>2020-08-06T19:23:15Z</time>
      </trkpt>
      <trkpt lat="40.9528900" lon="0.3118430">
        <ele>490.7</ele>
        <time>2020-08-06T19:23:16Z</time>
      </trkpt>
      <trkpt lat="40.9528910" lon="0.3118440">
        <ele>490.7</ele>
        <time>2020-08-06T19:23:18Z</time>
      </trkpt>
      <trkpt lat="40.9528910" lon="0.3118440">
        <ele>490.7</ele>
        <time>2020-08-06T19:23:20Z</time>
      </trkpt>
      <trkpt lat="40.9528910" lon="0.3118440">
        <ele>490.7</ele>
        <time>2020-08-06T19:23:21Z</time>
      </trkpt>
      <trkpt lat="40.9528910" lon="0.3118440">
        <ele>490.7</ele>
        <time>2020-08-06T19:23:23Z</time>
      </trkpt>
      <trkpt lat="40.9528910" lon="0.3118440">
        <ele>490.7</ele>
        <time>2020-08-06T19:23:25Z</time>
      </trkpt>
      <trkpt lat="40.9527780" lon="0.3120350">
        <ele>490.7</ele>
        <time>2020-08-07T08:14:12Z</time>
      </trkpt>
      <trkpt lat="40.9528100" lon="0.3120560">
        <ele>490.7</ele>
        <time>2020-08-07T08:14:13Z</time>
      </trkpt>
      <trkpt lat="40.9528180" lon="0.3120640">
        <ele>490.7</ele>
        <time>2020-08-07T08:14:14Z</time>
      </trkpt>
      <trkpt lat="40.9528290" lon="0.3120850">
        <ele>490.7</ele>
        <time>2020-08-07T08:14:15Z</time>
      </trkpt>
      <trkpt lat="40.9528410" lon="0.3121300">
        <ele>490.7</ele>
        <time>2020-08-07T08:14:17Z</time>
      </trkpt>
      <trkpt lat="40.9528440" lon="0.3121530">
        <ele>490.7</ele>
        <time>2020-08-07T08:14:18Z</time>
      </trkpt>
      <trkpt lat="40.9528370" lon="0.3121770">
        <ele>490.7</ele>
        <time>2020-08-07T08:14:19Z</time>
      </trkpt>
      <trkpt lat="40.9528280" lon="0.3121910">
        <ele>490.7</ele>
        <time>2020-08-07T08:14:21Z</time>
      </trkpt>
      <trkpt lat="40.9528200" lon="0.3122000">
        <ele>490.7</ele>
        <time>2020-08-07T08:14:22Z</time>
      </trkpt>
      <trkpt lat="40.9528090" lon="0.3122000">
        <ele>490.7</ele>
        <time>2020-08-07T08:14:24Z</time>
      </trkpt>
      <trkpt lat="40.9528010" lon="0.3121970">
        <ele>490.7</ele>
        <time>2020-08-07T08:14:26Z</time>
      </trkpt>
      <trkpt lat="40.9528020" lon="0.3121920">
        <ele>490.7</ele>
        <time>2020-08-07T08:14:27Z</time>
      </trkpt>
      <trkpt lat="40.9528020" lon="0.3121870">
        <ele>490.8</ele>
        <time>2020-08-07T08:14:28Z</time>
      </trkpt>
      <trkpt lat="40.9528040" lon="0.3121790">
        <ele>490.8</ele>
        <time>2020-08-07T08:14:30Z</time>
      </trkpt>
      <trkpt lat="40.9528050" lon="0.3121730">
        <ele>490.8</ele>
        <time>2020-08-07T08:14:32Z</time>
      </trkpt>
      <trkpt lat="40.9528050" lon="0.3121700">
        <ele>490.8</ele>
        <time>2020-08-07T08:14:33Z</time>
      </trkpt>
      <trkpt lat="40.9528030" lon="0.3121660">
        <ele>490.8</ele>
        <time>2020-08-07T08:14:35Z</time>
      </trkpt>
      <trkpt lat="40.9527760" lon="0.3121520">
        <ele>490.8</ele>
        <time>2020-08-07T08:14:51Z</time>
      </trkpt>
      <trkpt lat="40.9527600" lon="0.3121540">
        <ele>490.8</ele>
        <time>2020-08-07T08:14:53Z</time>
      </trkpt>
      <trkpt lat="40.9527480" lon="0.3121590">
        <ele>490.8</ele>
        <time>2020-08-07T08:14:54Z</time>
      </trkpt>
      <trkpt lat="40.9527470" lon="0.3121840">
        <ele>490.8</ele>
        <time>2020-08-07T08:14:56Z</time>
      </trkpt>
      <trkpt lat="40.9527520" lon="0.3122010">
        <ele>490.8</ele>
        <time>2020-08-07T08:14:57Z</time>
      </trkpt>
      <trkpt lat="40.9527520" lon="0.3122190">
        <ele>490.8</ele>
        <time>2020-08-07T08:14:58Z</time>
      </trkpt>
      <trkpt lat="40.9527440" lon="0.3122410">
        <ele>490.8</ele>
        <time>2020-08-07T08:14:59Z</time>
      </trkpt>
      <trkpt lat="40.9527290" lon="0.3122800">
        <ele>490.8</ele>
        <time>2020-08-07T08:15:01Z</time>
      </trkpt>
      <trkpt lat="40.9527230" lon="0.3122940">
        <ele>490.8</ele>
        <time>2020-08-07T08:15:02Z</time>
      </trkpt>
      <trkpt lat="40.9527050" lon="0.3123460">
        <ele>490.9</ele>
        <time>2020-08-07T08:15:03Z</time>
      </trkpt>
      <trkpt lat="40.9526730" lon="0.3124380">
        <ele>490.9</ele>
        <time>2020-08-07T08:15:05Z</time>
      </trkpt>
      <trkpt lat="40.9526580" lon="0.3124870">
        <ele>490.9</ele>
        <time>2020-08-07T08:15:06Z</time>
      </trkpt>
      <trkpt lat="40.9526410" lon="0.3125390">
        <ele>490.9</ele>
        <time>2020-08-07T08:15:07Z</time>
      </trkpt>
      <trkpt lat="40.9526210" lon="0.3126020">
        <ele>491.0</ele>
        <time>2020-08-07T08:15:09Z</time>
      </trkpt>
      <trkpt lat="40.9526130" lon="0.3126480">
        <ele>491.0</ele>
        <time>2020-08-07T08:15:10Z</time>
      </trkpt>
      <trkpt lat="40.9526030" lon="0.3126960">
        <ele>491.0</ele>
        <time>2020-08-07T08:15:11Z</time>
      </trkpt>
      <trkpt lat="40.9526000" lon="0.3127110">
        <ele>491.0</ele>
        <time>2020-08-07T08:15:12Z</time>
      </trkpt>
      <trkpt lat="40.9525940" lon="0.3127560">
        <ele>491.0</ele>
        <time>2020-08-07T08:15:13Z</time>
      </trkpt>
      <trkpt lat="40.9525910" lon="0.3127700">
        <ele>491.0</ele>
        <time>2020-08-07T08:15:14Z</time>
      </trkpt>
      <trkpt lat="40.9525850" lon="0.3128130">
        <ele>491.0</ele>
        <time>2020-08-07T08:15:15Z</time>
      </trkpt>
      <trkpt lat="40.9525830" lon="0.3128270">
        <ele>491.0</ele>
        <time>2020-08-07T08:15:16Z</time>
      </trkpt>
      <trkpt lat="40.9525830" lon="0.3128530">
        <ele>491.1</ele>
        <time>2020-08-07T08:15:17Z</time>
      </trkpt>
      <trkpt lat="40.9525810" lon="0.3128980">
        <ele>491.3</ele>
        <time>2020-08-07T08:15:19Z</time>
      </trkpt>
      <trkpt lat="40.9525800" lon="0.3129350">
        <ele>491.5</ele>
        <time>2020-08-07T08:15:20Z</time>
      </trkpt>
      <trkpt lat="40.9525810" lon="0.3129630">
        <ele>491.6</ele>
        <time>2020-08-07T08:15:21Z</time>
      </trkpt>
      <trkpt lat="40.9525830" lon="0.3130080">
        <ele>491.8</ele>
        <time>2020-08-07T08:15:23Z</time>
      </trkpt>
      <trkpt lat="40.9525910" lon="0.3130610">
        <ele>492.0</ele>
        <time>2020-08-07T08:15:24Z</time>
      </trkpt>
      <trkpt lat="40.9525940" lon="0.3130810">
        <ele>492.1</ele>
        <time>2020-08-07T08:15:25Z</time>
      </trkpt>
      <trkpt lat="40.9525990" lon="0.3131110">
        <ele>492.1</ele>
        <time>2020-08-07T08:15:26Z</time>
      </trkpt>
      <trkpt lat="40.9526050" lon="0.3131680">
        <ele>492.0</ele>
        <time>2020-08-07T08:15:28Z</time>
      </trkpt>
      <trkpt lat="40.9526070" lon="0.3132150">
        <ele>492.0</ele>
        <time>2020-08-07T08:15:29Z</time>
      </trkpt>
      <trkpt lat="40.9526090" lon="0.3132590">
        <ele>491.9</ele>
        <time>2020-08-07T08:15:30Z</time>
      </trkpt>
      <trkpt lat="40.9526090" lon="0.3133060">
        <ele>491.9</ele>
        <time>2020-08-07T08:15:31Z</time>
      </trkpt>
      <trkpt lat="40.9526080" lon="0.3133540">
        <ele>491.9</ele>
        <time>2020-08-07T08:15:32Z</time>
      </trkpt>
      <trkpt lat="40.9526080" lon="0.3133950">
        <ele>491.9</ele>
        <time>2020-08-07T08:15:34Z</time>
      </trkpt>
      <trkpt lat="40.9526140" lon="0.3134390">
        <ele>492.0</ele>
        <time>2020-08-07T08:15:35Z</time>
      </trkpt>
      <trkpt lat="40.9526200" lon="0.3134900">
        <ele>492.0</ele>
        <time>2020-08-07T08:15:36Z</time>
      </trkpt>
      <trkpt lat="40.9526270" lon="0.3135550">
        <ele>492.0</ele>
        <time>2020-08-07T08:15:37Z</time>
      </trkpt>
      <trkpt lat="40.9526350" lon="0.3136020">
        <ele>492.1</ele>
        <time>2020-08-07T08:15:39Z</time>
      </trkpt>
      <trkpt lat="40.9526450" lon="0.3136530">
        <ele>492.1</ele>
        <time>2020-08-07T08:15:40Z</time>
      </trkpt>
      <trkpt lat="40.9526550" lon="0.3136990">
        <ele>492.1</ele>
        <time>2020-08-07T08:15:41Z</time>
      </trkpt>
      <trkpt lat="40.9526690" lon="0.3137720">
        <ele>492.3</ele>
        <time>2020-08-07T08:15:43Z</time>
      </trkpt>
      <trkpt lat="40.9526730" lon="0.3138160">
        <ele>492.5</ele>
        <time>2020-08-07T08:15:44Z</time>
      </trkpt>
      <trkpt lat="40.9526790" lon="0.3138630">
        <ele>492.8</ele>
        <time>2020-08-07T08:15:45Z</time>
      </trkpt>
      <trkpt lat="40.9526830" lon="0.3139110">
        <ele>493.0</ele>
        <time>2020-08-07T08:15:46Z</time>
      </trkpt>
      <trkpt lat="40.9526910" lon="0.3139800">
        <ele>493.4</ele>
        <time>2020-08-07T08:15:48Z</time>
      </trkpt>
      <trkpt lat="40.9526960" lon="0.3140180">
        <ele>493.6</ele>
        <time>2020-08-07T08:15:49Z</time>
      </trkpt>
      <trkpt lat="40.9527030" lon="0.3140710">
        <ele>493.9</ele>
        <time>2020-08-07T08:15:50Z</time>
      </trkpt>
      <trkpt lat="40.9527030" lon="0.3141140">
        <ele>494.1</ele>
        <time>2020-08-07T08:15:52Z</time>
      </trkpt>
      <trkpt lat="40.9526990" lon="0.3141700">
        <ele>494.4</ele>
        <time>2020-08-07T08:15:54Z</time>
      </trkpt>
      <trkpt lat="40.9527010" lon="0.3142110">
        <ele>494.6</ele>
        <time>2020-08-07T08:15:55Z</time>
      </trkpt>
      <trkpt lat="40.9527050" lon="0.3142620">
        <ele>494.9</ele>
        <time>2020-08-07T08:15:56Z</time>
      </trkpt>
      <trkpt lat="40.9527060" lon="0.3142830">
        <ele>495.1</ele>
        <time>2020-08-07T08:15:57Z</time>
      </trkpt>
      <trkpt lat="40.9527110" lon="0.3143250">
        <ele>495.4</ele>
        <time>2020-08-07T08:15:59Z</time>
      </trkpt>
      <trkpt lat="40.9527120" lon="0.3143360">
        <ele>495.5</ele>
        <time>2020-08-07T08:16:00Z</time>
      </trkpt>
      <trkpt lat="40.9527120" lon="0.3143540">
        <ele>495.6</ele>
        <time>2020-08-07T08:16:01Z</time>
      </trkpt>
      <trkpt lat="40.9527090" lon="0.3143700">
        <ele>495.7</ele>
        <time>2020-08-07T08:16:02Z</time>
      </trkpt>
      <trkpt lat="40.9527100" lon="0.3143940">
        <ele>495.9</ele>
        <time>2020-08-07T08:16:04Z</time>
      </trkpt>
      <trkpt lat="40.9527120" lon="0.3144060">
        <ele>496.0</ele>
        <time>2020-08-07T08:16:05Z</time>
      </trkpt>
      <trkpt lat="40.9527150" lon="0.3144200">
        <ele>496.1</ele>
        <time>2020-08-07T08:16:06Z</time>
      </trkpt>
      <trkpt lat="40.9527230" lon="0.3144490">
        <ele>496.4</ele>
        <time>2020-08-07T08:16:08Z</time>
      </trkpt>
      <trkpt lat="40.9527270" lon="0.3144660">
        <ele>496.5</ele>
        <time>2020-08-07T08:16:09Z</time>
      </trkpt>
      <trkpt lat="40.9527290" lon="0.3144830">
        <ele>496.7</ele>
        <time>2020-08-07T08:16:10Z</time>
      </trkpt>
      <trkpt lat="40.9527300" lon="0.3145120">
        <ele>496.9</ele>
        <time>2020-08-07T08:16:12Z</time>
      </trkpt>
      <trkpt lat="40.9527420" lon="0.3145580">
        <ele>497.3</ele>
        <time>2020-08-07T08:16:14Z</time>
      </trkpt>
      <trkpt lat="40.9527490" lon="0.3145710">
        <ele>497.4</ele>
        <time>2020-08-07T08:16:16Z</time>
      </trkpt>
      <trkpt lat="40.9527550" lon="0.3145840">
        <ele>497.5</ele>
        <time>2020-08-07T08:16:17Z</time>
      </trkpt>
      <trkpt lat="40.9527610" lon="0.3145970">
        <ele>497.6</ele>
        <time>2020-08-07T08:16:18Z</time>
      </trkpt>
      <trkpt lat="40.9527660" lon="0.3146140">
        <ele>497.8</ele>
        <time>2020-08-07T08:16:19Z</time>
      </trkpt>
      <trkpt lat="40.9527720" lon="0.3146480">
        <ele>498.1</ele>
        <time>2020-08-07T08:16:21Z</time>
      </trkpt>
      <trkpt lat="40.9527760" lon="0.3146630">
        <ele>498.2</ele>
        <time>2020-08-07T08:16:22Z</time>
      </trkpt>
      <trkpt lat="40.9527870" lon="0.3146920">
        <ele>498.5</ele>
        <time>2020-08-07T08:16:24Z</time>
      </trkpt>
      <trkpt lat="40.9527930" lon="0.3147050">
        <ele>498.6</ele>
        <time>2020-08-07T08:16:25Z</time>
      </trkpt>
      <trkpt lat="40.9528060" lon="0.3147320">
        <ele>498.9</ele>
        <time>2020-08-07T08:16:27Z</time>
      </trkpt>
      <trkpt lat="40.9528130" lon="0.3147560">
        <ele>499.1</ele>
        <time>2020-08-07T08:16:28Z</time>
      </trkpt>
      <trkpt lat="40.9528180" lon="0.3147830">
        <ele>499.4</ele>
        <time>2020-08-07T08:16:30Z</time>
      </trkpt>
      <trkpt lat="40.9528160" lon="0.3148080">
        <ele>499.7</ele>
        <time>2020-08-07T08:16:32Z</time>
      </trkpt>
      <trkpt lat="40.9528160" lon="0.3148200">
        <ele>499.8</ele>
        <time>2020-08-07T08:16:33Z</time>
      </trkpt>
      <trkpt lat="40.9528190" lon="0.3148410">
        <ele>499.9</ele>
        <time>2020-08-07T08:16:35Z</time>
      </trkpt>
      <trkpt lat="40.9528230" lon="0.3148760">
        <ele>500.1</ele>
        <time>2020-08-07T08:16:37Z</time>
      </trkpt>
      <trkpt lat="40.9528260" lon="0.3149000">
        <ele>500.2</ele>
        <time>2020-08-07T08:16:39Z</time>
      </trkpt>
      <trkpt lat="40.9528180" lon="0.3149340">
        <ele>500.4</ele>
        <time>2020-08-07T08:16:41Z</time>
      </trkpt>
      <trkpt lat="40.9527940" lon="0.3149700">
        <ele>500.7</ele>
        <time>2020-08-07T08:16:43Z</time>
      </trkpt>
      <trkpt lat="40.9527790" lon="0.3149890">
        <ele>500.9</ele>
        <time>2020-08-07T08:16:44Z</time>
      </trkpt>
      <trkpt lat="40.9527560" lon="0.3150360">
        <ele>501.2</ele>
        <time>2020-08-07T08:16:46Z</time>
      </trkpt>
      <trkpt lat="40.9527460" lon="0.3150560">
        <ele>501.3</ele>
        <time>2020-08-07T08:16:47Z</time>
      </trkpt>
      <trkpt lat="40.9527360" lon="0.3150750">
        <ele>501.3</ele>
        <time>2020-08-07T08:16:48Z</time>
      </trkpt>
      <trkpt lat="40.9527130" lon="0.3151050">
        <ele>501.3</ele>
        <time>2020-08-07T08:16:50Z</time>
      </trkpt>
      <trkpt lat="40.9527040" lon="0.3151190">
        <ele>501.3</ele>
        <time>2020-08-07T08:16:51Z</time>
      </trkpt>
      <trkpt lat="40.9526970" lon="0.3151380">
        <ele>501.3</ele>
        <time>2020-08-07T08:16:52Z</time>
      </trkpt>
      <trkpt lat="40.9526930" lon="0.3151520">
        <ele>501.3</ele>
        <time>2020-08-07T08:16:53Z</time>
      </trkpt>
      <trkpt lat="40.9526880" lon="0.3151680">
        <ele>501.3</ele>
        <time>2020-08-07T08:16:54Z</time>
      </trkpt>
      <trkpt lat="40.9526780" lon="0.3151930">
        <ele>501.3</ele>
        <time>2020-08-07T08:16:56Z</time>
      </trkpt>
      <trkpt lat="40.9526590" lon="0.3152320">
        <ele>501.3</ele>
        <time>2020-08-07T08:16:58Z</time>
      </trkpt>
      <trkpt lat="40.9526500" lon="0.3152490">
        <ele>501.3</ele>
        <time>2020-08-07T08:16:59Z</time>
      </trkpt>
      <trkpt lat="40.9526440" lon="0.3152630">
        <ele>501.3</ele>
        <time>2020-08-07T08:17:00Z</time>
      </trkpt>
      <trkpt lat="40.9526340" lon="0.3152890">
        <ele>501.3</ele>
        <time>2020-08-07T08:17:01Z</time>
      </trkpt>
      <trkpt lat="40.9526310" lon="0.3152990">
        <ele>501.2</ele>
        <time>2020-08-07T08:17:02Z</time>
      </trkpt>
      <trkpt lat="40.9526270" lon="0.3153100">
        <ele>501.2</ele>
        <time>2020-08-07T08:17:03Z</time>
      </trkpt>
      <trkpt lat="40.9526190" lon="0.3153260">
        <ele>501.2</ele>
        <time>2020-08-07T08:17:04Z</time>
      </trkpt>
      <trkpt lat="40.9525970" lon="0.3153510">
        <ele>501.1</ele>
        <time>2020-08-07T08:17:06Z</time>
      </trkpt>
      <trkpt lat="40.9525850" lon="0.3153640">
        <ele>501.1</ele>
        <time>2020-08-07T08:17:07Z</time>
      </trkpt>
      <trkpt lat="40.9525620" lon="0.3153840">
        <ele>501.0</ele>
        <time>2020-08-07T08:17:09Z</time>
      </trkpt>
      <trkpt lat="40.9525500" lon="0.3153980">
        <ele>501.0</ele>
        <time>2020-08-07T08:17:10Z</time>
      </trkpt>
      <trkpt lat="40.9525370" lon="0.3154130">
        <ele>500.9</ele>
        <time>2020-08-07T08:17:11Z</time>
      </trkpt>
      <trkpt lat="40.9525140" lon="0.3154440">
        <ele>500.8</ele>
        <time>2020-08-07T08:17:13Z</time>
      </trkpt>
      <trkpt lat="40.9525040" lon="0.3154570">
        <ele>500.7</ele>
        <time>2020-08-07T08:17:14Z</time>
      </trkpt>
      <trkpt lat="40.9524940" lon="0.3154750">
        <ele>500.7</ele>
        <time>2020-08-07T08:17:15Z</time>
      </trkpt>
      <trkpt lat="40.9524800" lon="0.3155090">
        <ele>500.6</ele>
        <time>2020-08-07T08:17:17Z</time>
      </trkpt>
      <trkpt lat="40.9524640" lon="0.3155490">
        <ele>500.4</ele>
        <time>2020-08-07T08:17:19Z</time>
      </trkpt>
      <trkpt lat="40.9524370" lon="0.3155910">
        <ele>500.2</ele>
        <time>2020-08-07T08:17:21Z</time>
      </trkpt>
      <trkpt lat="40.9524030" lon="0.3156280">
        <ele>500.1</ele>
        <time>2020-08-07T08:17:23Z</time>
      </trkpt>
      <trkpt lat="40.9523930" lon="0.3156380">
        <ele>500.0</ele>
        <time>2020-08-07T08:17:24Z</time>
      </trkpt>
      <trkpt lat="40.9523830" lon="0.3156490">
        <ele>500.0</ele>
        <time>2020-08-07T08:17:25Z</time>
      </trkpt>
      <trkpt lat="40.9523530" lon="0.3156870">
        <ele>499.8</ele>
        <time>2020-08-07T08:17:27Z</time>
      </trkpt>
      <trkpt lat="40.9523350" lon="0.3157150">
        <ele>499.7</ele>
        <time>2020-08-07T08:17:28Z</time>
      </trkpt>
      <trkpt lat="40.9523280" lon="0.3157230">
        <ele>499.6</ele>
        <time>2020-08-07T08:17:29Z</time>
      </trkpt>
      <trkpt lat="40.9523030" lon="0.3157560">
        <ele>499.5</ele>
        <time>2020-08-07T08:17:31Z</time>
      </trkpt>
      <trkpt lat="40.9522920" lon="0.3157730">
        <ele>499.4</ele>
        <time>2020-08-07T08:17:32Z</time>
      </trkpt>
      <trkpt lat="40.9522820" lon="0.3157890">
        <ele>499.3</ele>
        <time>2020-08-07T08:17:33Z</time>
      </trkpt>
      <trkpt lat="40.9522670" lon="0.3158080">
        <ele>499.3</ele>
        <time>2020-08-07T08:17:34Z</time>
      </trkpt>
      <trkpt lat="40.9522670" lon="0.3158350">
        <ele>499.2</ele>
        <time>2020-08-07T08:17:36Z</time>
      </trkpt>
      <trkpt lat="40.9522570" lon="0.3158730">
        <ele>499.0</ele>
        <time>2020-08-07T08:17:37Z</time>
      </trkpt>
      <trkpt lat="40.9522540" lon="0.3158840">
        <ele>498.9</ele>
        <time>2020-08-07T08:17:38Z</time>
      </trkpt>
      <trkpt lat="40.9522320" lon="0.3159340">
        <ele>498.9</ele>
        <time>2020-08-07T08:17:40Z</time>
      </trkpt>
      <trkpt lat="40.9522090" lon="0.3159870">
        <ele>498.8</ele>
        <time>2020-08-07T08:17:42Z</time>
      </trkpt>
      <trkpt lat="40.9521900" lon="0.3160240">
        <ele>498.7</ele>
        <time>2020-08-07T08:17:43Z</time>
      </trkpt>
      <trkpt lat="40.9521580" lon="0.3160880">
        <ele>498.6</ele>
        <time>2020-08-07T08:17:45Z</time>
      </trkpt>
      <trkpt lat="40.9521230" lon="0.3161640">
        <ele>498.5</ele>
        <time>2020-08-07T08:17:47Z</time>
      </trkpt>
      <trkpt lat="40.9521010" lon="0.3162060">
        <ele>498.4</ele>
        <time>2020-08-07T08:17:48Z</time>
      </trkpt>
      <trkpt lat="40.9520630" lon="0.3162960">
        <ele>498.3</ele>
        <time>2020-08-07T08:17:50Z</time>
      </trkpt>
      <trkpt lat="40.9520440" lon="0.3163390">
        <ele>498.2</ele>
        <time>2020-08-07T08:17:51Z</time>
      </trkpt>
      <trkpt lat="40.9520100" lon="0.3164310">
        <ele>498.1</ele>
        <time>2020-08-07T08:17:53Z</time>
      </trkpt>
      <trkpt lat="40.9519720" lon="0.3165130">
        <ele>497.9</ele>
        <time>2020-08-07T08:17:55Z</time>
      </trkpt>
      <trkpt lat="40.9519390" lon="0.3165890">
        <ele>497.8</ele>
        <time>2020-08-07T08:17:57Z</time>
      </trkpt>
      <trkpt lat="40.9519110" lon="0.3166500">
        <ele>497.7</ele>
        <time>2020-08-07T08:17:58Z</time>
      </trkpt>
      <trkpt lat="40.9518910" lon="0.3166960">
        <ele>497.7</ele>
        <time>2020-08-07T08:17:59Z</time>
      </trkpt>
      <trkpt lat="40.9518720" lon="0.3167480">
        <ele>497.6</ele>
        <time>2020-08-07T08:18:00Z</time>
      </trkpt>
      <trkpt lat="40.9518360" lon="0.3168430">
        <ele>497.5</ele>
        <time>2020-08-07T08:18:02Z</time>
      </trkpt>
      <trkpt lat="40.9518150" lon="0.3168950">
        <ele>497.5</ele>
        <time>2020-08-07T08:18:03Z</time>
      </trkpt>
      <trkpt lat="40.9517770" lon="0.3169730">
        <ele>497.4</ele>
        <time>2020-08-07T08:18:05Z</time>
      </trkpt>
      <trkpt lat="40.9517490" lon="0.3170370">
        <ele>497.3</ele>
        <time>2020-08-07T08:18:06Z</time>
      </trkpt>
      <trkpt lat="40.9517100" lon="0.3171260">
        <ele>497.2</ele>
        <time>2020-08-07T08:18:08Z</time>
      </trkpt>
      <trkpt lat="40.9516860" lon="0.3171910">
        <ele>497.2</ele>
        <time>2020-08-07T08:18:09Z</time>
      </trkpt>
      <trkpt lat="40.9516670" lon="0.3172380">
        <ele>497.1</ele>
        <time>2020-08-07T08:18:10Z</time>
      </trkpt>
      <trkpt lat="40.9516400" lon="0.3173090">
        <ele>497.1</ele>
        <time>2020-08-07T08:18:12Z</time>
      </trkpt>
      <trkpt lat="40.9516270" lon="0.3173610">
        <ele>497.2</ele>
        <time>2020-08-07T08:18:13Z</time>
      </trkpt>
      <trkpt lat="40.9516170" lon="0.3174190">
        <ele>497.6</ele>
        <time>2020-08-07T08:18:14Z</time>
      </trkpt>
      <trkpt lat="40.9516120" lon="0.3174650">
        <ele>498.0</ele>
        <time>2020-08-07T08:18:15Z</time>
      </trkpt>
      <trkpt lat="40.9516130" lon="0.3175320">
        <ele>498.6</ele>
        <time>2020-08-07T08:18:16Z</time>
      </trkpt>
      <trkpt lat="40.9516170" lon="0.3175780">
        <ele>499.0</ele>
        <time>2020-08-07T08:18:18Z</time>
      </trkpt>
      <trkpt lat="40.9516200" lon="0.3176050">
        <ele>499.3</ele>
        <time>2020-08-07T08:18:19Z</time>
      </trkpt>
      <trkpt lat="40.9516240" lon="0.3176390">
        <ele>499.6</ele>
        <time>2020-08-07T08:18:21Z</time>
      </trkpt>
      <trkpt lat="40.9516320" lon="0.3176580">
        <ele>499.8</ele>
        <time>2020-08-07T08:18:22Z</time>
      </trkpt>
      <trkpt lat="40.9516390" lon="0.3176860">
        <ele>500.2</ele>
        <time>2020-08-07T08:18:24Z</time>
      </trkpt>
      <trkpt lat="40.9516400" lon="0.3177020">
        <ele>500.4</ele>
        <time>2020-08-07T08:18:25Z</time>
      </trkpt>
      <trkpt lat="40.9516400" lon="0.3177210">
        <ele>500.6</ele>
        <time>2020-08-07T08:18:27Z</time>
      </trkpt>
      <trkpt lat="40.9516430" lon="0.3177310">
        <ele>500.7</ele>
        <time>2020-08-07T08:18:28Z</time>
      </trkpt>
      <trkpt lat="40.9516520" lon="0.3177440">
        <ele>501.0</ele>
        <time>2020-08-07T08:18:29Z</time>
      </trkpt>
      <trkpt lat="40.9516610" lon="0.3177580">
        <ele>501.2</ele>
        <time>2020-08-07T08:18:30Z</time>
      </trkpt>
      <trkpt lat="40.9516730" lon="0.3177740">
        <ele>501.5</ele>
        <time>2020-08-07T08:18:32Z</time>
      </trkpt>
      <trkpt lat="40.9516850" lon="0.3177900">
        <ele>501.9</ele>
        <time>2020-08-07T08:18:33Z</time>
      </trkpt>
      <trkpt lat="40.9516980" lon="0.3178050">
        <ele>502.2</ele>
        <time>2020-08-07T08:18:35Z</time>
      </trkpt>
      <trkpt lat="40.9517120" lon="0.3178120">
        <ele>502.5</ele>
        <time>2020-08-07T08:18:36Z</time>
      </trkpt>
      <trkpt lat="40.9517270" lon="0.3178180">
        <ele>502.9</ele>
        <time>2020-08-07T08:18:37Z</time>
      </trkpt>
      <trkpt lat="40.9517480" lon="0.3178260">
        <ele>503.4</ele>
        <time>2020-08-07T08:18:38Z</time>
      </trkpt>
      <trkpt lat="40.9517550" lon="0.3178290">
        <ele>503.5</ele>
        <time>2020-08-07T08:18:39Z</time>
      </trkpt>
      <trkpt lat="40.9517630" lon="0.3178320">
        <ele>503.5</ele>
        <time>2020-08-07T08:18:40Z</time>
      </trkpt>
      <trkpt lat="40.9517680" lon="0.3178330">
        <ele>503.6</ele>
        <time>2020-08-07T08:18:41Z</time>
      </trkpt>
      <trkpt lat="40.9517690" lon="0.3178270">
        <ele>503.6</ele>
        <time>2020-08-07T08:18:43Z</time>
      </trkpt>
      <trkpt lat="40.9517690" lon="0.3178240">
        <ele>503.7</ele>
        <time>2020-08-07T08:18:45Z</time>
      </trkpt>
      <trkpt lat="40.9517690" lon="0.3178260">
        <ele>503.7</ele>
        <time>2020-08-07T08:18:46Z</time>
      </trkpt>
      <trkpt lat="40.9517710" lon="0.3178270">
        <ele>503.7</ele>
        <time>2020-08-07T08:18:47Z</time>
      </trkpt>
      <trkpt lat="40.9517740" lon="0.3178280">
        <ele>503.7</ele>
        <time>2020-08-07T08:18:48Z</time>
      </trkpt>
      <trkpt lat="40.9517910" lon="0.3178350">
        <ele>503.9</ele>
        <time>2020-08-07T08:18:50Z</time>
      </trkpt>
      <trkpt lat="40.9518020" lon="0.3178410">
        <ele>504.0</ele>
        <time>2020-08-07T08:18:51Z</time>
      </trkpt>
      <trkpt lat="40.9518260" lon="0.3178640">
        <ele>504.4</ele>
        <time>2020-08-07T08:18:53Z</time>
      </trkpt>
      <trkpt lat="40.9518390" lon="0.3178740">
        <ele>504.7</ele>
        <time>2020-08-07T08:18:54Z</time>
      </trkpt>
      <trkpt lat="40.9518520" lon="0.3178820">
        <ele>504.9</ele>
        <time>2020-08-07T08:18:55Z</time>
      </trkpt>
      <trkpt lat="40.9518620" lon="0.3178890">
        <ele>505.1</ele>
        <time>2020-08-07T08:18:56Z</time>
      </trkpt>
      <trkpt lat="40.9518860" lon="0.3179030">
        <ele>505.5</ele>
        <time>2020-08-07T08:18:58Z</time>
      </trkpt>
      <trkpt lat="40.9518960" lon="0.3179080">
        <ele>505.6</ele>
        <time>2020-08-07T08:18:59Z</time>
      </trkpt>
      <trkpt lat="40.9519080" lon="0.3179190">
        <ele>505.8</ele>
        <time>2020-08-07T08:19:00Z</time>
      </trkpt>
      <trkpt lat="40.9519270" lon="0.3179410">
        <ele>506.2</ele>
        <time>2020-08-07T08:19:02Z</time>
      </trkpt>
      <trkpt lat="40.9519360" lon="0.3179410">
        <ele>506.3</ele>
        <time>2020-08-07T08:19:04Z</time>
      </trkpt>
      <trkpt lat="40.9519370" lon="0.3179240">
        <ele>506.5</ele>
        <time>2020-08-07T08:19:05Z</time>
      </trkpt>
      <trkpt lat="40.9519510" lon="0.3179240">
        <ele>506.7</ele>
        <time>2020-08-07T08:19:07Z</time>
      </trkpt>
      <trkpt lat="40.9519610" lon="0.3179430">
        <ele>507.0</ele>
        <time>2020-08-07T08:19:09Z</time>
      </trkpt>
      <trkpt lat="40.9519660" lon="0.3179520">
        <ele>507.1</ele>
        <time>2020-08-07T08:19:10Z</time>
      </trkpt>
      <trkpt lat="40.9519760" lon="0.3179640">
        <ele>507.3</ele>
        <time>2020-08-07T08:19:12Z</time>
      </trkpt>
      <trkpt lat="40.9519870" lon="0.3179660">
        <ele>507.4</ele>
        <time>2020-08-07T08:19:13Z</time>
      </trkpt>
      <trkpt lat="40.9519990" lon="0.3179900">
        <ele>507.7</ele>
        <time>2020-08-07T08:19:15Z</time>
      </trkpt>
      <trkpt lat="40.9520060" lon="0.3180040">
        <ele>507.9</ele>
        <time>2020-08-07T08:19:16Z</time>
      </trkpt>
      <trkpt lat="40.9520130" lon="0.3180170">
        <ele>508.1</ele>
        <time>2020-08-07T08:19:17Z</time>
      </trkpt>
      <trkpt lat="40.9520300" lon="0.3180410">
        <ele>508.4</ele>
        <time>2020-08-07T08:19:19Z</time>
      </trkpt>
      <trkpt lat="40.9520380" lon="0.3180500">
        <ele>508.5</ele>
        <time>2020-08-07T08:19:20Z</time>
      </trkpt>
      <trkpt lat="40.9520460" lon="0.3180590">
        <ele>508.7</ele>
        <time>2020-08-07T08:19:21Z</time>
      </trkpt>
      <trkpt lat="40.9520560" lon="0.3180830">
        <ele>509.0</ele>
        <time>2020-08-07T08:19:23Z</time>
      </trkpt>
      <trkpt lat="40.9520710" lon="0.3181070">
        <ele>509.3</ele>
        <time>2020-08-07T08:19:25Z</time>
      </trkpt>
      <trkpt lat="40.9520870" lon="0.3181330">
        <ele>509.6</ele>
        <time>2020-08-07T08:19:27Z</time>
      </trkpt>
      <trkpt lat="40.9520970" lon="0.3181550">
        <ele>509.9</ele>
        <time>2020-08-07T08:19:29Z</time>
      </trkpt>
      <trkpt lat="40.9521050" lon="0.3181640">
        <ele>510.0</ele>
        <time>2020-08-07T08:19:30Z</time>
      </trkpt>
      <trkpt lat="40.9521140" lon="0.3181730">
        <ele>510.2</ele>
        <time>2020-08-07T08:19:31Z</time>
      </trkpt>
      <trkpt lat="40.9521220" lon="0.3181830">
        <ele>510.3</ele>
        <time>2020-08-07T08:19:32Z</time>
      </trkpt>
      <trkpt lat="40.9521310" lon="0.3182040">
        <ele>510.6</ele>
        <time>2020-08-07T08:19:34Z</time>
      </trkpt>
      <trkpt lat="40.9521380" lon="0.3182230">
        <ele>510.6</ele>
        <time>2020-08-07T08:19:36Z</time>
      </trkpt>
      <trkpt lat="40.9521440" lon="0.3182320">
        <ele>510.5</ele>
        <time>2020-08-07T08:19:37Z</time>
      </trkpt>
      <trkpt lat="40.9521580" lon="0.3182530">
        <ele>510.5</ele>
        <time>2020-08-07T08:19:39Z</time>
      </trkpt>
      <trkpt lat="40.9521640" lon="0.3182730">
        <ele>510.5</ele>
        <time>2020-08-07T08:19:41Z</time>
      </trkpt>
      <trkpt lat="40.9521660" lon="0.3182810">
        <ele>510.5</ele>
        <time>2020-08-07T08:19:42Z</time>
      </trkpt>
      <trkpt lat="40.9521700" lon="0.3182910">
        <ele>510.5</ele>
        <time>2020-08-07T08:19:44Z</time>
      </trkpt>
      <trkpt lat="40.9521720" lon="0.3182970">
        <ele>510.5</ele>
        <time>2020-08-07T08:19:45Z</time>
      </trkpt>
      <trkpt lat="40.9521750" lon="0.3183160">
        <ele>510.5</ele>
        <time>2020-08-07T08:19:46Z</time>
      </trkpt>
      <trkpt lat="40.9521810" lon="0.3183460">
        <ele>510.1</ele>
        <time>2020-08-07T08:19:48Z</time>
      </trkpt>
      <trkpt lat="40.9521800" lon="0.3183650">
        <ele>509.9</ele>
        <time>2020-08-07T08:19:49Z</time>
      </trkpt>
      <trkpt lat="40.9521750" lon="0.3183860">
        <ele>509.7</ele>
        <time>2020-08-07T08:19:50Z</time>
      </trkpt>
      <trkpt lat="40.9521720" lon="0.3184230">
        <ele>509.4</ele>
        <time>2020-08-07T08:19:52Z</time>
      </trkpt>
      <trkpt lat="40.9521730" lon="0.3184310">
        <ele>509.3</ele>
        <time>2020-08-07T08:19:54Z</time>
      </trkpt>
      <trkpt lat="40.9521720" lon="0.3184320">
        <ele>509.3</ele>
        <time>2020-08-07T08:19:55Z</time>
      </trkpt>
      <trkpt lat="40.9521680" lon="0.3184400">
        <ele>509.2</ele>
        <time>2020-08-07T08:20:00Z</time>
      </trkpt>
      <trkpt lat="40.9521660" lon="0.3184420">
        <ele>509.1</ele>
        <time>2020-08-07T08:20:01Z</time>
      </trkpt>
      <trkpt lat="40.9521620" lon="0.3184500">
        <ele>509.0</ele>
        <time>2020-08-07T08:20:03Z</time>
      </trkpt>
      <trkpt lat="40.9521590" lon="0.3185020">
        <ele>508.5</ele>
        <time>2020-08-07T08:20:13Z</time>
      </trkpt>
      <trkpt lat="40.9521560" lon="0.3185520">
        <ele>508.0</ele>
        <time>2020-08-07T08:20:15Z</time>
      </trkpt>
      <trkpt lat="40.9521730" lon="0.3187030">
        <ele>506.4</ele>
        <time>2020-08-07T08:20:16Z</time>
      </trkpt>
      <trkpt lat="40.9521880" lon="0.3188730">
        <ele>504.9</ele>
        <time>2020-08-07T08:20:18Z</time>
      </trkpt>
      <trkpt lat="40.9521960" lon="0.3189460">
        <ele>504.3</ele>
        <time>2020-08-07T08:20:19Z</time>
      </trkpt>
      <trkpt lat="40.9521990" lon="0.3190190">
        <ele>503.6</ele>
        <time>2020-08-07T08:20:20Z</time>
      </trkpt>
      <trkpt lat="40.9522160" lon="0.3191660">
        <ele>502.2</ele>
        <time>2020-08-07T08:20:22Z</time>
      </trkpt>
      <trkpt lat="40.9522270" lon="0.3192430">
        <ele>501.5</ele>
        <time>2020-08-07T08:20:23Z</time>
      </trkpt>
      <trkpt lat="40.9522450" lon="0.3193220">
        <ele>500.8</ele>
        <time>2020-08-07T08:20:24Z</time>
      </trkpt>
      <trkpt lat="40.9522620" lon="0.3194010">
        <ele>500.1</ele>
        <time>2020-08-07T08:20:25Z</time>
      </trkpt>
      <trkpt lat="40.9523040" lon="0.3195570">
        <ele>498.9</ele>
        <time>2020-08-07T08:20:27Z</time>
      </trkpt>
      <trkpt lat="40.9523310" lon="0.3196790">
        <ele>498.0</ele>
        <time>2020-08-07T08:20:29Z</time>
      </trkpt>
      <trkpt lat="40.9523350" lon="0.3197460">
        <ele>497.6</ele>
        <time>2020-08-07T08:20:30Z</time>
      </trkpt>
      <trkpt lat="40.9523270" lon="0.3198940">
        <ele>496.8</ele>
        <time>2020-08-07T08:20:32Z</time>
      </trkpt>
      <trkpt lat="40.9523170" lon="0.3199650">
        <ele>496.5</ele>
        <time>2020-08-07T08:20:33Z</time>
      </trkpt>
      <trkpt lat="40.9523000" lon="0.3200300">
        <ele>496.1</ele>
        <time>2020-08-07T08:20:34Z</time>
      </trkpt>
      <trkpt lat="40.9522410" lon="0.3201310">
        <ele>495.5</ele>
        <time>2020-08-07T08:20:36Z</time>
      </trkpt>
      <trkpt lat="40.9522010" lon="0.3201670">
        <ele>495.1</ele>
        <time>2020-08-07T08:20:37Z</time>
      </trkpt>
      <trkpt lat="40.9521190" lon="0.3202220">
        <ele>494.3</ele>
        <time>2020-08-07T08:20:39Z</time>
      </trkpt>
      <trkpt lat="40.9520410" lon="0.3202770">
        <ele>493.3</ele>
        <time>2020-08-07T08:20:41Z</time>
      </trkpt>
      <trkpt lat="40.9520180" lon="0.3202990">
        <ele>492.9</ele>
        <time>2020-08-07T08:20:42Z</time>
      </trkpt>
      <trkpt lat="40.9519720" lon="0.3203930">
        <ele>491.6</ele>
        <time>2020-08-07T08:20:44Z</time>
      </trkpt>
      <trkpt lat="40.9519640" lon="0.3204550">
        <ele>491.2</ele>
        <time>2020-08-07T08:20:45Z</time>
      </trkpt>
      <trkpt lat="40.9519680" lon="0.3205220">
        <ele>490.7</ele>
        <time>2020-08-07T08:20:46Z</time>
      </trkpt>
      <trkpt lat="40.9519880" lon="0.3205850">
        <ele>490.3</ele>
        <time>2020-08-07T08:20:47Z</time>
      </trkpt>
      <trkpt lat="40.9520400" lon="0.3207240">
        <ele>489.1</ele>
        <time>2020-08-07T08:20:49Z</time>
      </trkpt>
      <trkpt lat="40.9520910" lon="0.3208800">
        <ele>487.8</ele>
        <time>2020-08-07T08:20:51Z</time>
      </trkpt>
      <trkpt lat="40.9521110" lon="0.3209670">
        <ele>487.1</ele>
        <time>2020-08-07T08:20:52Z</time>
      </trkpt>
      <trkpt lat="40.9521310" lon="0.3210530">
        <ele>486.4</ele>
        <time>2020-08-07T08:20:53Z</time>
      </trkpt>
      <trkpt lat="40.9521660" lon="0.3212110">
        <ele>485.1</ele>
        <time>2020-08-07T08:20:55Z</time>
      </trkpt>
      <trkpt lat="40.9521830" lon="0.3212870">
        <ele>484.5</ele>
        <time>2020-08-07T08:20:56Z</time>
      </trkpt>
      <trkpt lat="40.9522020" lon="0.3213620">
        <ele>483.8</ele>
        <time>2020-08-07T08:20:57Z</time>
      </trkpt>
      <trkpt lat="40.9522220" lon="0.3214370">
        <ele>483.2</ele>
        <time>2020-08-07T08:20:58Z</time>
      </trkpt>
      <trkpt lat="40.9522430" lon="0.3215140">
        <ele>482.5</ele>
        <time>2020-08-07T08:20:59Z</time>
      </trkpt>
      <trkpt lat="40.9522630" lon="0.3215870">
        <ele>481.9</ele>
        <time>2020-08-07T08:21:00Z</time>
      </trkpt>
      <trkpt lat="40.9523100" lon="0.3217230">
        <ele>480.7</ele>
        <time>2020-08-07T08:21:02Z</time>
      </trkpt>
      <trkpt lat="40.9523520" lon="0.3218630">
        <ele>479.4</ele>
        <time>2020-08-07T08:21:04Z</time>
      </trkpt>
      <trkpt lat="40.9523730" lon="0.3219330">
        <ele>478.8</ele>
        <time>2020-08-07T08:21:05Z</time>
      </trkpt>
      <trkpt lat="40.9523940" lon="0.3220040">
        <ele>478.3</ele>
        <time>2020-08-07T08:21:06Z</time>
      </trkpt>
      <trkpt lat="40.9524490" lon="0.3221540">
        <ele>477.0</ele>
        <time>2020-08-07T08:21:08Z</time>
      </trkpt>
      <trkpt lat="40.9525030" lon="0.3222920">
        <ele>475.9</ele>
        <time>2020-08-07T08:21:10Z</time>
      </trkpt>
      <trkpt lat="40.9525390" lon="0.3223550">
        <ele>475.4</ele>
        <time>2020-08-07T08:21:11Z</time>
      </trkpt>
      <trkpt lat="40.9525820" lon="0.3224090">
        <ele>474.9</ele>
        <time>2020-08-07T08:21:12Z</time>
      </trkpt>
      <trkpt lat="40.9526340" lon="0.3224650">
        <ele>474.4</ele>
        <time>2020-08-07T08:21:13Z</time>
      </trkpt>
      <trkpt lat="40.9527350" lon="0.3225900">
        <ele>473.2</ele>
        <time>2020-08-07T08:21:15Z</time>
      </trkpt>
      <trkpt lat="40.9527940" lon="0.3226540">
        <ele>472.6</ele>
        <time>2020-08-07T08:21:16Z</time>
      </trkpt>
      <trkpt lat="40.9529150" lon="0.3227780">
        <ele>471.4</ele>
        <time>2020-08-07T08:21:18Z</time>
      </trkpt>
      <trkpt lat="40.9529770" lon="0.3228350">
        <ele>470.8</ele>
        <time>2020-08-07T08:21:19Z</time>
      </trkpt>
      <trkpt lat="40.9530820" lon="0.3229410">
        <ele>469.7</ele>
        <time>2020-08-07T08:21:21Z</time>
      </trkpt>
      <trkpt lat="40.9531250" lon="0.3229860">
        <ele>469.3</ele>
        <time>2020-08-07T08:21:22Z</time>
      </trkpt>
      <trkpt lat="40.9531610" lon="0.3230230">
        <ele>468.9</ele>
        <time>2020-08-07T08:21:23Z</time>
      </trkpt>
      <trkpt lat="40.9531890" lon="0.3230560">
        <ele>468.6</ele>
        <time>2020-08-07T08:21:24Z</time>
      </trkpt>
      <trkpt lat="40.9532110" lon="0.3230790">
        <ele>468.3</ele>
        <time>2020-08-07T08:21:25Z</time>
      </trkpt>
      <trkpt lat="40.9532300" lon="0.3230990">
        <ele>468.1</ele>
        <time>2020-08-07T08:21:26Z</time>
      </trkpt>
      <trkpt lat="40.9532460" lon="0.3231270">
        <ele>468.0</ele>
        <time>2020-08-07T08:21:28Z</time>
      </trkpt>
      <trkpt lat="40.9532520" lon="0.3231390">
        <ele>467.9</ele>
        <time>2020-08-07T08:21:29Z</time>
      </trkpt>
      <trkpt lat="40.9532560" lon="0.3231540">
        <ele>467.8</ele>
        <time>2020-08-07T08:21:30Z</time>
      </trkpt>
      <trkpt lat="40.9532580" lon="0.3231660">
        <ele>467.7</ele>
        <time>2020-08-07T08:21:31Z</time>
      </trkpt>
      <trkpt lat="40.9532570" lon="0.3231720">
        <ele>467.7</ele>
        <time>2020-08-07T08:21:33Z</time>
      </trkpt>
      <trkpt lat="40.9532510" lon="0.3231720">
        <ele>467.7</ele>
        <time>2020-08-07T08:21:34Z</time>
      </trkpt>
      <trkpt lat="40.9532460" lon="0.3231730">
        <ele>467.6</ele>
        <time>2020-08-07T08:21:36Z</time>
      </trkpt>
      <trkpt lat="40.9532500" lon="0.3231750">
        <ele>467.6</ele>
        <time>2020-08-07T08:21:38Z</time>
      </trkpt>
      <trkpt lat="40.9532520" lon="0.3231760">
        <ele>467.6</ele>
        <time>2020-08-07T08:21:40Z</time>
      </trkpt>
      <trkpt lat="40.9532520" lon="0.3231780">
        <ele>467.6</ele>
        <time>2020-08-07T08:21:42Z</time>
      </trkpt>
      <trkpt lat="40.9532810" lon="0.3231860">
        <ele>467.4</ele>
        <time>2020-08-07T08:22:29Z</time>
      </trkpt>
      <trkpt lat="40.9533180" lon="0.3232090">
        <ele>467.1</ele>
        <time>2020-08-07T08:22:31Z</time>
      </trkpt>
      <trkpt lat="40.9533800" lon="0.3232670">
        <ele>466.6</ele>
        <time>2020-08-07T08:22:33Z</time>
      </trkpt>
      <trkpt lat="40.9534150" lon="0.3233020">
        <ele>466.3</ele>
        <time>2020-08-07T08:22:34Z</time>
      </trkpt>
      <trkpt lat="40.9535020" lon="0.3233740">
        <ele>465.6</ele>
        <time>2020-08-07T08:22:36Z</time>
      </trkpt>
      <trkpt lat="40.9535500" lon="0.3234110">
        <ele>465.2</ele>
        <time>2020-08-07T08:22:37Z</time>
      </trkpt>
      <trkpt lat="40.9535940" lon="0.3234530">
        <ele>464.8</ele>
        <time>2020-08-07T08:22:38Z</time>
      </trkpt>
      <trkpt lat="40.9536400" lon="0.3235040">
        <ele>464.4</ele>
        <time>2020-08-07T08:22:39Z</time>
      </trkpt>
      <trkpt lat="40.9536880" lon="0.3235600">
        <ele>463.9</ele>
        <time>2020-08-07T08:22:40Z</time>
      </trkpt>
      <trkpt lat="40.9537990" lon="0.3236800">
        <ele>462.8</ele>
        <time>2020-08-07T08:22:42Z</time>
      </trkpt>
      <trkpt lat="40.9539230" lon="0.3237630">
        <ele>461.8</ele>
        <time>2020-08-07T08:22:44Z</time>
      </trkpt>
      <trkpt lat="40.9539890" lon="0.3238020">
        <ele>461.4</ele>
        <time>2020-08-07T08:22:45Z</time>
      </trkpt>
      <trkpt lat="40.9540590" lon="0.3238400">
        <ele>460.9</ele>
        <time>2020-08-07T08:22:46Z</time>
      </trkpt>
      <trkpt lat="40.9541880" lon="0.3239180">
        <ele>460.2</ele>
        <time>2020-08-07T08:22:48Z</time>
      </trkpt>
      <trkpt lat="40.9542460" lon="0.3239560">
        <ele>459.8</ele>
        <time>2020-08-07T08:22:49Z</time>
      </trkpt>
      <trkpt lat="40.9542970" lon="0.3239920">
        <ele>459.5</ele>
        <time>2020-08-07T08:22:50Z</time>
      </trkpt>
      <trkpt lat="40.9543830" lon="0.3240630">
        <ele>459.0</ele>
        <time>2020-08-07T08:22:52Z</time>
      </trkpt>
      <trkpt lat="40.9544200" lon="0.3241000">
        <ele>458.7</ele>
        <time>2020-08-07T08:22:53Z</time>
      </trkpt>
      <trkpt lat="40.9544960" lon="0.3241750">
        <ele>458.3</ele>
        <time>2020-08-07T08:22:55Z</time>
      </trkpt>
      <trkpt lat="40.9545350" lon="0.3242150">
        <ele>458.0</ele>
        <time>2020-08-07T08:22:56Z</time>
      </trkpt>
      <trkpt lat="40.9545730" lon="0.3242540">
        <ele>457.7</ele>
        <time>2020-08-07T08:22:57Z</time>
      </trkpt>
      <trkpt lat="40.9546460" lon="0.3243460">
        <ele>457.1</ele>
        <time>2020-08-07T08:22:59Z</time>
      </trkpt>
      <trkpt lat="40.9546850" lon="0.3243960">
        <ele>456.8</ele>
        <time>2020-08-07T08:23:00Z</time>
      </trkpt>
      <trkpt lat="40.9547260" lon="0.3244490">
        <ele>456.5</ele>
        <time>2020-08-07T08:23:01Z</time>
      </trkpt>
      <trkpt lat="40.9548030" lon="0.3245520">
        <ele>455.9</ele>
        <time>2020-08-07T08:23:03Z</time>
      </trkpt>
      <trkpt lat="40.9548290" lon="0.3245970">
        <ele>455.7</ele>
        <time>2020-08-07T08:23:04Z</time>
      </trkpt>
      <trkpt lat="40.9548730" lon="0.3246660">
        <ele>455.4</ele>
        <time>2020-08-07T08:23:06Z</time>
      </trkpt>
      <trkpt lat="40.9548900" lon="0.3246960">
        <ele>455.3</ele>
        <time>2020-08-07T08:23:07Z</time>
      </trkpt>
      <trkpt lat="40.9549010" lon="0.3247170">
        <ele>455.2</ele>
        <time>2020-08-07T08:23:08Z</time>
      </trkpt>
      <trkpt lat="40.9549320" lon="0.3247680">
        <ele>455.0</ele>
        <time>2020-08-07T08:23:10Z</time>
      </trkpt>
      <trkpt lat="40.9549690" lon="0.3248140">
        <ele>454.8</ele>
        <time>2020-08-07T08:23:12Z</time>
      </trkpt>
      <trkpt lat="40.9549900" lon="0.3248390">
        <ele>454.7</ele>
        <time>2020-08-07T08:23:13Z</time>
      </trkpt>
      <trkpt lat="40.9550110" lon="0.3248660">
        <ele>454.7</ele>
        <time>2020-08-07T08:23:14Z</time>
      </trkpt>
      <trkpt lat="40.9550310" lon="0.3248920">
        <ele>454.6</ele>
        <time>2020-08-07T08:23:15Z</time>
      </trkpt>
      <trkpt lat="40.9550750" lon="0.3249530">
        <ele>454.4</ele>
        <time>2020-08-07T08:23:17Z</time>
      </trkpt>
      <trkpt lat="40.9550950" lon="0.3249830">
        <ele>454.4</ele>
        <time>2020-08-07T08:23:18Z</time>
      </trkpt>
      <trkpt lat="40.9551160" lon="0.3250130">
        <ele>454.3</ele>
        <time>2020-08-07T08:23:19Z</time>
      </trkpt>
      <trkpt lat="40.9551580" lon="0.3250660">
        <ele>454.3</ele>
        <time>2020-08-07T08:23:21Z</time>
      </trkpt>
      <trkpt lat="40.9551880" lon="0.3250980">
        <ele>454.3</ele>
        <time>2020-08-07T08:23:22Z</time>
      </trkpt>
      <trkpt lat="40.9551980" lon="0.3251090">
        <ele>454.3</ele>
        <time>2020-08-07T08:23:23Z</time>
      </trkpt>
      <trkpt lat="40.9552180" lon="0.3251300">
        <ele>454.2</ele>
        <time>2020-08-07T08:23:24Z</time>
      </trkpt>
      <trkpt lat="40.9552590" lon="0.3251680">
        <ele>454.2</ele>
        <time>2020-08-07T08:23:26Z</time>
      </trkpt>
      <trkpt lat="40.9552750" lon="0.3251820">
        <ele>454.2</ele>
        <time>2020-08-07T08:23:27Z</time>
      </trkpt>
      <trkpt lat="40.9553060" lon="0.3252110">
        <ele>454.3</ele>
        <time>2020-08-07T08:23:29Z</time>
      </trkpt>
      <trkpt lat="40.9553290" lon="0.3252340">
        <ele>454.3</ele>
        <time>2020-08-07T08:23:30Z</time>
      </trkpt>
      <trkpt lat="40.9553360" lon="0.3252430">
        <ele>454.3</ele>
        <time>2020-08-07T08:23:31Z</time>
      </trkpt>
      <trkpt lat="40.9553510" lon="0.3252600">
        <ele>454.3</ele>
        <time>2020-08-07T08:23:32Z</time>
      </trkpt>
      <trkpt lat="40.9553780" lon="0.3252940">
        <ele>454.3</ele>
        <time>2020-08-07T08:23:34Z</time>
      </trkpt>
      <trkpt lat="40.9554090" lon="0.3253280">
        <ele>454.4</ele>
        <time>2020-08-07T08:23:36Z</time>
      </trkpt>
      <trkpt lat="40.9554230" lon="0.3253450">
        <ele>454.4</ele>
        <time>2020-08-07T08:23:37Z</time>
      </trkpt>
      <trkpt lat="40.9554460" lon="0.3253730">
        <ele>454.4</ele>
        <time>2020-08-07T08:23:39Z</time>
      </trkpt>
      <trkpt lat="40.9554540" lon="0.3253830">
        <ele>454.4</ele>
        <time>2020-08-07T08:23:40Z</time>
      </trkpt>
      <trkpt lat="40.9554590" lon="0.3253930">
        <ele>454.4</ele>
        <time>2020-08-07T08:23:41Z</time>
      </trkpt>
      <trkpt lat="40.9554660" lon="0.3254030">
        <ele>454.4</ele>
        <time>2020-08-07T08:23:43Z</time>
      </trkpt>
      <trkpt lat="40.9554620" lon="0.3254020">
        <ele>454.4</ele>
        <time>2020-08-07T08:23:45Z</time>
      </trkpt>
      <trkpt lat="40.9554600" lon="0.3254020">
        <ele>454.4</ele>
        <time>2020-08-07T08:23:46Z</time>
      </trkpt>
      <trkpt lat="40.9554590" lon="0.3254040">
        <ele>454.4</ele>
        <time>2020-08-07T08:23:48Z</time>
      </trkpt>
      <trkpt lat="40.9554590" lon="0.3254040">
        <ele>454.4</ele>
        <time>2020-08-07T08:23:49Z</time>
      </trkpt>
      <trkpt lat="40.9554590" lon="0.3254030">
        <ele>454.4</ele>
        <time>2020-08-07T08:23:50Z</time>
      </trkpt>
      <trkpt lat="40.9554610" lon="0.3254090">
        <ele>454.4</ele>
        <time>2020-08-07T08:23:52Z</time>
      </trkpt>
      <trkpt lat="40.9554620" lon="0.3254100">
        <ele>454.4</ele>
        <time>2020-08-07T08:23:53Z</time>
      </trkpt>
      <trkpt lat="40.9554850" lon="0.3254310">
        <ele>454.5</ele>
        <time>2020-08-07T08:23:57Z</time>
      </trkpt>
      <trkpt lat="40.9555030" lon="0.3254600">
        <ele>454.5</ele>
        <time>2020-08-07T08:23:58Z</time>
      </trkpt>
      <trkpt lat="40.9555330" lon="0.3254870">
        <ele>454.6</ele>
        <time>2020-08-07T08:24:00Z</time>
      </trkpt>
      <trkpt lat="40.9555430" lon="0.3254920">
        <ele>454.6</ele>
        <time>2020-08-07T08:24:01Z</time>
      </trkpt>
      <trkpt lat="40.9555640" lon="0.3255060">
        <ele>454.6</ele>
        <time>2020-08-07T08:24:02Z</time>
      </trkpt>
      <trkpt lat="40.9555970" lon="0.3255270">
        <ele>454.7</ele>
        <time>2020-08-07T08:24:04Z</time>
      </trkpt>
      <trkpt lat="40.9556170" lon="0.3255390">
        <ele>454.8</ele>
        <time>2020-08-07T08:24:05Z</time>
      </trkpt>
      <trkpt lat="40.9556730" lon="0.3255760">
        <ele>454.9</ele>
        <time>2020-08-07T08:24:07Z</time>
      </trkpt>
      <trkpt lat="40.9557140" lon="0.3255980">
        <ele>455.1</ele>
        <time>2020-08-07T08:24:08Z</time>
      </trkpt>
      <trkpt lat="40.9557460" lon="0.3256150">
        <ele>455.3</ele>
        <time>2020-08-07T08:24:09Z</time>
      </trkpt>
      <trkpt lat="40.9557730" lon="0.3256290">
        <ele>455.4</ele>
        <time>2020-08-07T08:24:10Z</time>
      </trkpt>
      <trkpt lat="40.9557990" lon="0.3256430">
        <ele>455.6</ele>
        <time>2020-08-07T08:24:11Z</time>
      </trkpt>
      <trkpt lat="40.9558340" lon="0.3256580">
        <ele>455.8</ele>
        <time>2020-08-07T08:24:13Z</time>
      </trkpt>
      <trkpt lat="40.9558540" lon="0.3256680">
        <ele>456.0</ele>
        <time>2020-08-07T08:24:14Z</time>
      </trkpt>
      <trkpt lat="40.9558640" lon="0.3256730">
        <ele>456.0</ele>
        <time>2020-08-07T08:24:15Z</time>
      </trkpt>
      <trkpt lat="40.9558700" lon="0.3256750">
        <ele>456.1</ele>
        <time>2020-08-07T08:24:16Z</time>
      </trkpt>
      <trkpt lat="40.9558820" lon="0.3256840">
        <ele>456.2</ele>
        <time>2020-08-07T08:24:18Z</time>
      </trkpt>
      <trkpt lat="40.9558960" lon="0.3256920">
        <ele>456.3</ele>
        <time>2020-08-07T08:24:20Z</time>
      </trkpt>
      <trkpt lat="40.9559090" lon="0.3257010">
        <ele>456.4</ele>
        <time>2020-08-07T08:24:22Z</time>
      </trkpt>
      <trkpt lat="40.9559140" lon="0.3257070">
        <ele>456.4</ele>
        <time>2020-08-07T08:24:23Z</time>
      </trkpt>
      <trkpt lat="40.9559240" lon="0.3257200">
        <ele>456.5</ele>
        <time>2020-08-07T08:24:24Z</time>
      </trkpt>
      <trkpt lat="40.9559600" lon="0.3257570">
        <ele>456.8</ele>
        <time>2020-08-07T08:24:26Z</time>
      </trkpt>
      <trkpt lat="40.9559740" lon="0.3257700">
        <ele>456.9</ele>
        <time>2020-08-07T08:24:27Z</time>
      </trkpt>
      <trkpt lat="40.9559880" lon="0.3257840">
        <ele>457.0</ele>
        <time>2020-08-07T08:24:28Z</time>
      </trkpt>
      <trkpt lat="40.9560140" lon="0.3258110">
        <ele>457.2</ele>
        <time>2020-08-07T08:24:29Z</time>
      </trkpt>
      <trkpt lat="40.9560220" lon="0.3258190">
        <ele>457.3</ele>
        <time>2020-08-07T08:24:30Z</time>
      </trkpt>
      <trkpt lat="40.9560470" lon="0.3258450">
        <ele>457.5</ele>
        <time>2020-08-07T08:24:32Z</time>
      </trkpt>
      <trkpt lat="40.9560710" lon="0.3258680">
        <ele>457.6</ele>
        <time>2020-08-07T08:24:33Z</time>
      </trkpt>
      <trkpt lat="40.9561020" lon="0.3258970">
        <ele>457.8</ele>
        <time>2020-08-07T08:24:34Z</time>
      </trkpt>
      <trkpt lat="40.9561350" lon="0.3259380">
        <ele>458.0</ele>
        <time>2020-08-07T08:24:36Z</time>
      </trkpt>
      <trkpt lat="40.9561610" lon="0.3259700">
        <ele>458.1</ele>
        <time>2020-08-07T08:24:37Z</time>
      </trkpt>
      <trkpt lat="40.9561670" lon="0.3259800">
        <ele>458.2</ele>
        <time>2020-08-07T08:24:38Z</time>
      </trkpt>
      <trkpt lat="40.9561880" lon="0.3260130">
        <ele>458.3</ele>
        <time>2020-08-07T08:24:40Z</time>
      </trkpt>
      <trkpt lat="40.9561970" lon="0.3260300">
        <ele>458.4</ele>
        <time>2020-08-07T08:24:41Z</time>
      </trkpt>
      <trkpt lat="40.9562070" lon="0.3260440">
        <ele>458.5</ele>
        <time>2020-08-07T08:24:42Z</time>
      </trkpt>
      <trkpt lat="40.9562180" lon="0.3260650">
        <ele>458.6</ele>
        <time>2020-08-07T08:24:44Z</time>
      </trkpt>
      <trkpt lat="40.9562260" lon="0.3260840">
        <ele>458.7</ele>
        <time>2020-08-07T08:24:45Z</time>
      </trkpt>
      <trkpt lat="40.9562340" lon="0.3261080">
        <ele>458.8</ele>
        <time>2020-08-07T08:24:46Z</time>
      </trkpt>
      <trkpt lat="40.9562380" lon="0.3261180">
        <ele>458.8</ele>
        <time>2020-08-07T08:24:47Z</time>
      </trkpt>
      <trkpt lat="40.9562430" lon="0.3261280">
        <ele>458.8</ele>
        <time>2020-08-07T08:24:48Z</time>
      </trkpt>
      <trkpt lat="40.9562510" lon="0.3261440">
        <ele>458.9</ele>
        <time>2020-08-07T08:24:49Z</time>
      </trkpt>
      <trkpt lat="40.9562600" lon="0.3261660">
        <ele>459.0</ele>
        <time>2020-08-07T08:24:51Z</time>
      </trkpt>
      <trkpt lat="40.9562670" lon="0.3261900">
        <ele>459.1</ele>
        <time>2020-08-07T08:24:52Z</time>
      </trkpt>
      <trkpt lat="40.9562700" lon="0.3262080">
        <ele>459.1</ele>
        <time>2020-08-07T08:24:53Z</time>
      </trkpt>
      <trkpt lat="40.9562720" lon="0.3262280">
        <ele>459.2</ele>
        <time>2020-08-07T08:24:54Z</time>
      </trkpt>
      <trkpt lat="40.9562720" lon="0.3262520">
        <ele>459.2</ele>
        <time>2020-08-07T08:24:55Z</time>
      </trkpt>
      <trkpt lat="40.9562730" lon="0.3262980">
        <ele>459.3</ele>
        <time>2020-08-07T08:24:57Z</time>
      </trkpt>
      <trkpt lat="40.9562740" lon="0.3263110">
        <ele>459.4</ele>
        <time>2020-08-07T08:24:58Z</time>
      </trkpt>
      <trkpt lat="40.9562750" lon="0.3263320">
        <ele>459.4</ele>
        <time>2020-08-07T08:24:59Z</time>
      </trkpt>
      <trkpt lat="40.9562750" lon="0.3263530">
        <ele>459.5</ele>
        <time>2020-08-07T08:25:00Z</time>
      </trkpt>
      <trkpt lat="40.9562750" lon="0.3263750">
        <ele>459.5</ele>
        <time>2020-08-07T08:25:01Z</time>
      </trkpt>
      <trkpt lat="40.9562770" lon="0.3263950">
        <ele>459.6</ele>
        <time>2020-08-07T08:25:02Z</time>
      </trkpt>
      <trkpt lat="40.9562830" lon="0.3264260">
        <ele>459.6</ele>
        <time>2020-08-07T08:25:04Z</time>
      </trkpt>
      <trkpt lat="40.9562810" lon="0.3264380">
        <ele>459.7</ele>
        <time>2020-08-07T08:25:05Z</time>
      </trkpt>
      <trkpt lat="40.9562740" lon="0.3264410">
        <ele>459.7</ele>
        <time>2020-08-07T08:25:06Z</time>
      </trkpt>
      <trkpt lat="40.9562600" lon="0.3264510">
        <ele>459.7</ele>
        <time>2020-08-07T08:25:08Z</time>
      </trkpt>
      <trkpt lat="40.9562580" lon="0.3264670">
        <ele>459.7</ele>
        <time>2020-08-07T08:25:10Z</time>
      </trkpt>
      <trkpt lat="40.9562640" lon="0.3264740">
        <ele>459.7</ele>
        <time>2020-08-07T08:25:11Z</time>
      </trkpt>
      <trkpt lat="40.9562720" lon="0.3264900">
        <ele>459.8</ele>
        <time>2020-08-07T08:25:12Z</time>
      </trkpt>
      <trkpt lat="40.9562820" lon="0.3265180">
        <ele>459.8</ele>
        <time>2020-08-07T08:25:14Z</time>
      </trkpt>
      <trkpt lat="40.9562840" lon="0.3265330">
        <ele>459.8</ele>
        <time>2020-08-07T08:25:15Z</time>
      </trkpt>
      <trkpt lat="40.9562880" lon="0.3265820">
        <ele>459.9</ele>
        <time>2020-08-07T08:25:17Z</time>
      </trkpt>
      <trkpt lat="40.9562990" lon="0.3265970">
        <ele>460.0</ele>
        <time>2020-08-07T08:25:18Z</time>
      </trkpt>
      <trkpt lat="40.9563060" lon="0.3266140">
        <ele>460.0</ele>
        <time>2020-08-07T08:25:19Z</time>
      </trkpt>
      <trkpt lat="40.9563070" lon="0.3266370">
        <ele>460.1</ele>
        <time>2020-08-07T08:25:21Z</time>
      </trkpt>
      <trkpt lat="40.9563080" lon="0.3266580">
        <ele>460.1</ele>
        <time>2020-08-07T08:25:22Z</time>
      </trkpt>
      <trkpt lat="40.9563140" lon="0.3266720">
        <ele>460.2</ele>
        <time>2020-08-07T08:25:23Z</time>
      </trkpt>
      <trkpt lat="40.9563240" lon="0.3266830">
        <ele>460.2</ele>
        <time>2020-08-07T08:25:24Z</time>
      </trkpt>
      <trkpt lat="40.9563410" lon="0.3267610">
        <ele>460.5</ele>
        <time>2020-08-07T08:25:26Z</time>
      </trkpt>
      <trkpt lat="40.9563420" lon="0.3268350">
        <ele>460.8</ele>
        <time>2020-08-07T08:25:27Z</time>
      </trkpt>
      <trkpt lat="40.9563410" lon="0.3268830">
        <ele>461.0</ele>
        <time>2020-08-07T08:25:28Z</time>
      </trkpt>
      <trkpt lat="40.9563450" lon="0.3269730">
        <ele>461.5</ele>
        <time>2020-08-07T08:25:30Z</time>
      </trkpt>
      <trkpt lat="40.9563430" lon="0.3270160">
        <ele>461.7</ele>
        <time>2020-08-07T08:25:31Z</time>
      </trkpt>
      <trkpt lat="40.9563390" lon="0.3270690">
        <ele>462.1</ele>
        <time>2020-08-07T08:25:32Z</time>
      </trkpt>
      <trkpt lat="40.9563390" lon="0.3270860">
        <ele>462.2</ele>
        <time>2020-08-07T08:25:33Z</time>
      </trkpt>
      <trkpt lat="40.9563420" lon="0.3271290">
        <ele>462.5</ele>
        <time>2020-08-07T08:25:34Z</time>
      </trkpt>
      <trkpt lat="40.9563380" lon="0.3271710">
        <ele>462.8</ele>
        <time>2020-08-07T08:25:36Z</time>
      </trkpt>
      <trkpt lat="40.9563350" lon="0.3271840">
        <ele>462.9</ele>
        <time>2020-08-07T08:25:37Z</time>
      </trkpt>
      <trkpt lat="40.9563290" lon="0.3272210">
        <ele>463.2</ele>
        <time>2020-08-07T08:25:38Z</time>
      </trkpt>
      <trkpt lat="40.9563260" lon="0.3272330">
        <ele>463.3</ele>
        <time>2020-08-07T08:25:39Z</time>
      </trkpt>
      <trkpt lat="40.9563350" lon="0.3272770">
        <ele>463.6</ele>
        <time>2020-08-07T08:25:41Z</time>
      </trkpt>
      <trkpt lat="40.9563380" lon="0.3272880">
        <ele>463.7</ele>
        <time>2020-08-07T08:25:42Z</time>
      </trkpt>
      <trkpt lat="40.9563350" lon="0.3273140">
        <ele>463.9</ele>
        <time>2020-08-07T08:25:43Z</time>
      </trkpt>
      <trkpt lat="40.9563330" lon="0.3273270">
        <ele>464.0</ele>
        <time>2020-08-07T08:25:45Z</time>
      </trkpt>
      <trkpt lat="40.9563310" lon="0.3273400">
        <ele>464.1</ele>
        <time>2020-08-07T08:25:46Z</time>
      </trkpt>
      <trkpt lat="40.9563270" lon="0.3273580">
        <ele>464.2</ele>
        <time>2020-08-07T08:25:47Z</time>
      </trkpt>
      <trkpt lat="40.9563210" lon="0.3273740">
        <ele>464.4</ele>
        <time>2020-08-07T08:25:48Z</time>
      </trkpt>
      <trkpt lat="40.9563120" lon="0.3274150">
        <ele>464.7</ele>
        <time>2020-08-07T08:25:50Z</time>
      </trkpt>
      <trkpt lat="40.9563080" lon="0.3274280">
        <ele>464.8</ele>
        <time>2020-08-07T08:25:51Z</time>
      </trkpt>
      <trkpt lat="40.9562940" lon="0.3274680">
        <ele>465.2</ele>
        <time>2020-08-07T08:25:53Z</time>
      </trkpt>
      <trkpt lat="40.9562900" lon="0.3274810">
        <ele>465.3</ele>
        <time>2020-08-07T08:25:54Z</time>
      </trkpt>
      <trkpt lat="40.9562790" lon="0.3275230">
        <ele>465.7</ele>
        <time>2020-08-07T08:25:56Z</time>
      </trkpt>
      <trkpt lat="40.9562750" lon="0.3275350">
        <ele>465.8</ele>
        <time>2020-08-07T08:25:57Z</time>
      </trkpt>
      <trkpt lat="40.9562720" lon="0.3275560">
        <ele>465.9</ele>
        <time>2020-08-07T08:25:58Z</time>
      </trkpt>
      <trkpt lat="40.9562600" lon="0.3275840">
        <ele>466.2</ele>
        <time>2020-08-07T08:26:00Z</time>
      </trkpt>
      <trkpt lat="40.9562510" lon="0.3276070">
        <ele>466.4</ele>
        <time>2020-08-07T08:26:01Z</time>
      </trkpt>
      <trkpt lat="40.9562440" lon="0.3276250">
        <ele>466.5</ele>
        <time>2020-08-07T08:26:02Z</time>
      </trkpt>
      <trkpt lat="40.9562330" lon="0.3276510">
        <ele>466.7</ele>
        <time>2020-08-07T08:26:03Z</time>
      </trkpt>
      <trkpt lat="40.9562250" lon="0.3276720">
        <ele>466.9</ele>
        <time>2020-08-07T08:26:05Z</time>
      </trkpt>
      <trkpt lat="40.9562160" lon="0.3276940">
        <ele>467.1</ele>
        <time>2020-08-07T08:26:06Z</time>
      </trkpt>
      <trkpt lat="40.9562090" lon="0.3277100">
        <ele>467.2</ele>
        <time>2020-08-07T08:26:07Z</time>
      </trkpt>
      <trkpt lat="40.9562010" lon="0.3277310">
        <ele>467.4</ele>
        <time>2020-08-07T08:26:09Z</time>
      </trkpt>
      <trkpt lat="40.9561940" lon="0.3277530">
        <ele>467.6</ele>
        <time>2020-08-07T08:26:10Z</time>
      </trkpt>
      <trkpt lat="40.9561890" lon="0.3277780">
        <ele>467.7</ele>
        <time>2020-08-07T08:26:11Z</time>
      </trkpt>
      <trkpt lat="40.9561820" lon="0.3278060">
        <ele>467.9</ele>
        <time>2020-08-07T08:26:13Z</time>
      </trkpt>
      <trkpt lat="40.9561730" lon="0.3278260">
        <ele>468.1</ele>
        <time>2020-08-07T08:26:14Z</time>
      </trkpt>
      <trkpt lat="40.9561620" lon="0.3278540">
        <ele>468.2</ele>
        <time>2020-08-07T08:26:16Z</time>
      </trkpt>
      <trkpt lat="40.9561480" lon="0.3278940">
        <ele>468.5</ele>
        <time>2020-08-07T08:26:17Z</time>
      </trkpt>
      <trkpt lat="40.9561330" lon="0.3279360">
        <ele>468.7</ele>
        <time>2020-08-07T08:26:18Z</time>
      </trkpt>
      <trkpt lat="40.9561270" lon="0.3279520">
        <ele>468.7</ele>
        <time>2020-08-07T08:26:19Z</time>
      </trkpt>
      <trkpt lat="40.9561180" lon="0.3279960">
        <ele>468.9</ele>
        <time>2020-08-07T08:26:21Z</time>
      </trkpt>
      <trkpt lat="40.9561100" lon="0.3280320">
        <ele>469.1</ele>
        <time>2020-08-07T08:26:22Z</time>
      </trkpt>
      <trkpt lat="40.9561050" lon="0.3280720">
        <ele>469.2</ele>
        <time>2020-08-07T08:26:24Z</time>
      </trkpt>
      <trkpt lat="40.9561040" lon="0.3280930">
        <ele>469.3</ele>
        <time>2020-08-07T08:26:25Z</time>
      </trkpt>
      <trkpt lat="40.9561040" lon="0.3281190">
        <ele>469.4</ele>
        <time>2020-08-07T08:26:26Z</time>
      </trkpt>
      <trkpt lat="40.9561010" lon="0.3281480">
        <ele>469.5</ele>
        <time>2020-08-07T08:26:27Z</time>
      </trkpt>
      <trkpt lat="40.9560990" lon="0.3281710">
        <ele>469.6</ele>
        <time>2020-08-07T08:26:29Z</time>
      </trkpt>
      <trkpt lat="40.9561000" lon="0.3282110">
        <ele>469.7</ele>
        <time>2020-08-07T08:26:30Z</time>
      </trkpt>
      <trkpt lat="40.9561020" lon="0.3282250">
        <ele>469.8</ele>
        <time>2020-08-07T08:26:31Z</time>
      </trkpt>
      <trkpt lat="40.9561130" lon="0.3282550">
        <ele>469.9</ele>
        <time>2020-08-07T08:26:32Z</time>
      </trkpt>
      <trkpt lat="40.9561220" lon="0.3282820">
        <ele>470.0</ele>
        <time>2020-08-07T08:26:34Z</time>
      </trkpt>
      <trkpt lat="40.9561280" lon="0.3283040">
        <ele>470.1</ele>
        <time>2020-08-07T08:26:35Z</time>
      </trkpt>
      <trkpt lat="40.9561320" lon="0.3283260">
        <ele>470.1</ele>
        <time>2020-08-07T08:26:36Z</time>
      </trkpt>
      <trkpt lat="40.9561370" lon="0.3283480">
        <ele>470.2</ele>
        <time>2020-08-07T08:26:37Z</time>
      </trkpt>
      <trkpt lat="40.9561420" lon="0.3283710">
        <ele>470.3</ele>
        <time>2020-08-07T08:26:38Z</time>
      </trkpt>
      <trkpt lat="40.9561450" lon="0.3283980">
        <ele>470.4</ele>
        <time>2020-08-07T08:26:39Z</time>
      </trkpt>
      <trkpt lat="40.9561510" lon="0.3284230">
        <ele>470.5</ele>
        <time>2020-08-07T08:26:41Z</time>
      </trkpt>
      <trkpt lat="40.9561560" lon="0.3284560">
        <ele>470.6</ele>
        <time>2020-08-07T08:26:42Z</time>
      </trkpt>
      <trkpt lat="40.9561640" lon="0.3284970">
        <ele>470.7</ele>
        <time>2020-08-07T08:26:44Z</time>
      </trkpt>
      <trkpt lat="40.9561680" lon="0.3285220">
        <ele>470.8</ele>
        <time>2020-08-07T08:26:45Z</time>
      </trkpt>
      <trkpt lat="40.9561750" lon="0.3285570">
        <ele>470.9</ele>
        <time>2020-08-07T08:26:47Z</time>
      </trkpt>
      <trkpt lat="40.9561820" lon="0.3285830">
        <ele>471.0</ele>
        <time>2020-08-07T08:26:48Z</time>
      </trkpt>
      <trkpt lat="40.9561910" lon="0.3286100">
        <ele>471.0</ele>
        <time>2020-08-07T08:26:50Z</time>
      </trkpt>
      <trkpt lat="40.9561960" lon="0.3286150">
        <ele>471.0</ele>
        <time>2020-08-07T08:26:51Z</time>
      </trkpt>
      <trkpt lat="40.9561960" lon="0.3286130">
        <ele>471.0</ele>
        <time>2020-08-07T08:26:53Z</time>
      </trkpt>
      <trkpt lat="40.9561960" lon="0.3286110">
        <ele>471.0</ele>
        <time>2020-08-07T08:26:54Z</time>
      </trkpt>
      <trkpt lat="40.9561980" lon="0.3286080">
        <ele>471.0</ele>
        <time>2020-08-07T08:26:56Z</time>
      </trkpt>
      <trkpt lat="40.9561960" lon="0.3286060">
        <ele>471.0</ele>
        <time>2020-08-07T08:26:57Z</time>
      </trkpt>
      <trkpt lat="40.9561960" lon="0.3286050">
        <ele>471.0</ele>
        <time>2020-08-07T08:26:58Z</time>
      </trkpt>
      <trkpt lat="40.9561950" lon="0.3286020">
        <ele>471.1</ele>
        <time>2020-08-07T08:27:00Z</time>
      </trkpt>
      <trkpt lat="40.9561950" lon="0.3285990">
        <ele>471.1</ele>
        <time>2020-08-07T08:27:02Z</time>
      </trkpt>
      <trkpt lat="40.9561630" lon="0.3285990">
        <ele>471.1</ele>
        <time>2020-08-07T08:27:15Z</time>
      </trkpt>
      <trkpt lat="40.9561540" lon="0.3286080">
        <ele>471.1</ele>
        <time>2020-08-07T08:27:16Z</time>
      </trkpt>
      <trkpt lat="40.9561560" lon="0.3286270">
        <ele>471.1</ele>
        <time>2020-08-07T08:27:17Z</time>
      </trkpt>
      <trkpt lat="40.9561630" lon="0.3286710">
        <ele>471.2</ele>
        <time>2020-08-07T08:27:19Z</time>
      </trkpt>
      <trkpt lat="40.9561700" lon="0.3287210">
        <ele>471.3</ele>
        <time>2020-08-07T08:27:21Z</time>
      </trkpt>
      <trkpt lat="40.9561690" lon="0.3287490">
        <ele>471.3</ele>
        <time>2020-08-07T08:27:22Z</time>
      </trkpt>
      <trkpt lat="40.9561680" lon="0.3287630">
        <ele>471.3</ele>
        <time>2020-08-07T08:27:24Z</time>
      </trkpt>
      <trkpt lat="40.9561660" lon="0.3287990">
        <ele>471.4</ele>
        <time>2020-08-07T08:27:25Z</time>
      </trkpt>
      <trkpt lat="40.9561820" lon="0.3288620">
        <ele>471.4</ele>
        <time>2020-08-07T08:27:26Z</time>
      </trkpt>
      <trkpt lat="40.9561940" lon="0.3289360">
        <ele>471.5</ele>
        <time>2020-08-07T08:27:28Z</time>
      </trkpt>
      <trkpt lat="40.9562150" lon="0.3290190">
        <ele>471.5</ele>
        <time>2020-08-07T08:27:29Z</time>
      </trkpt>
      <trkpt lat="40.9562220" lon="0.3291080">
        <ele>471.6</ele>
        <time>2020-08-07T08:27:31Z</time>
      </trkpt>
      <trkpt lat="40.9562210" lon="0.3291550">
        <ele>471.7</ele>
        <time>2020-08-07T08:27:32Z</time>
      </trkpt>
      <trkpt lat="40.9562180" lon="0.3291940">
        <ele>471.7</ele>
        <time>2020-08-07T08:27:33Z</time>
      </trkpt>
      <trkpt lat="40.9562070" lon="0.3292380">
        <ele>471.8</ele>
        <time>2020-08-07T08:27:34Z</time>
      </trkpt>
      <trkpt lat="40.9561890" lon="0.3292860">
        <ele>471.8</ele>
        <time>2020-08-07T08:27:36Z</time>
      </trkpt>
      <trkpt lat="40.9561710" lon="0.3293380">
        <ele>471.9</ele>
        <time>2020-08-07T08:27:37Z</time>
      </trkpt>
      <trkpt lat="40.9561640" lon="0.3293620">
        <ele>472.0</ele>
        <time>2020-08-07T08:27:38Z</time>
      </trkpt>
      <trkpt lat="40.9561530" lon="0.3294050">
        <ele>472.1</ele>
        <time>2020-08-07T08:27:39Z</time>
      </trkpt>
      <trkpt lat="40.9561430" lon="0.3294450">
        <ele>472.2</ele>
        <time>2020-08-07T08:27:41Z</time>
      </trkpt>
      <trkpt lat="40.9561340" lon="0.3294820">
        <ele>472.3</ele>
        <time>2020-08-07T08:27:42Z</time>
      </trkpt>
      <trkpt lat="40.9561270" lon="0.3295300">
        <ele>472.4</ele>
        <time>2020-08-07T08:27:43Z</time>
      </trkpt>
      <trkpt lat="40.9561250" lon="0.3295450">
        <ele>472.4</ele>
        <time>2020-08-07T08:27:44Z</time>
      </trkpt>
      <trkpt lat="40.9561230" lon="0.3295780">
        <ele>472.5</ele>
        <time>2020-08-07T08:27:45Z</time>
      </trkpt>
      <trkpt lat="40.9561230" lon="0.3296310">
        <ele>472.6</ele>
        <time>2020-08-07T08:27:47Z</time>
      </trkpt>
      <trkpt lat="40.9561190" lon="0.3296830">
        <ele>472.7</ele>
        <time>2020-08-07T08:27:49Z</time>
      </trkpt>
      <trkpt lat="40.9561130" lon="0.3297230">
        <ele>472.8</ele>
        <time>2020-08-07T08:27:50Z</time>
      </trkpt>
      <trkpt lat="40.9561100" lon="0.3297350">
        <ele>472.9</ele>
        <time>2020-08-07T08:27:51Z</time>
      </trkpt>
      <trkpt lat="40.9561050" lon="0.3297660">
        <ele>473.0</ele>
        <time>2020-08-07T08:27:52Z</time>
      </trkpt>
      <trkpt lat="40.9561040" lon="0.3298210">
        <ele>473.1</ele>
        <time>2020-08-07T08:27:54Z</time>
      </trkpt>
      <trkpt lat="40.9561130" lon="0.3298790">
        <ele>473.2</ele>
        <time>2020-08-07T08:27:56Z</time>
      </trkpt>
      <trkpt lat="40.9561230" lon="0.3299220">
        <ele>473.4</ele>
        <time>2020-08-07T08:27:57Z</time>
      </trkpt>
      <trkpt lat="40.9561260" lon="0.3299350">
        <ele>473.4</ele>
        <time>2020-08-07T08:27:58Z</time>
      </trkpt>
      <trkpt lat="40.9561360" lon="0.3299690">
        <ele>473.5</ele>
        <time>2020-08-07T08:27:59Z</time>
      </trkpt>
      <trkpt lat="40.9561400" lon="0.3299800">
        <ele>473.6</ele>
        <time>2020-08-07T08:28:00Z</time>
      </trkpt>
      <trkpt lat="40.9561640" lon="0.3300230">
        <ele>473.8</ele>
        <time>2020-08-07T08:28:02Z</time>
      </trkpt>
      <trkpt lat="40.9561790" lon="0.3300380">
        <ele>473.9</ele>
        <time>2020-08-07T08:28:03Z</time>
      </trkpt>
      <trkpt lat="40.9562210" lon="0.3300670">
        <ele>474.1</ele>
        <time>2020-08-07T08:28:05Z</time>
      </trkpt>
      <trkpt lat="40.9562530" lon="0.3300770">
        <ele>474.4</ele>
        <time>2020-08-07T08:28:06Z</time>
      </trkpt>
      <trkpt lat="40.9562650" lon="0.3300810">
        <ele>474.4</ele>
        <time>2020-08-07T08:28:07Z</time>
      </trkpt>
      <trkpt lat="40.9563100" lon="0.3300890">
        <ele>474.8</ele>
        <time>2020-08-07T08:28:09Z</time>
      </trkpt>
      <trkpt lat="40.9563410" lon="0.3300900">
        <ele>475.0</ele>
        <time>2020-08-07T08:28:11Z</time>
      </trkpt>
      <trkpt lat="40.9563600" lon="0.3300910">
        <ele>475.1</ele>
        <time>2020-08-07T08:28:12Z</time>
      </trkpt>
      <trkpt lat="40.9563760" lon="0.3300900">
        <ele>475.2</ele>
        <time>2020-08-07T08:28:13Z</time>
      </trkpt>
      <trkpt lat="40.9564120" lon="0.3300880">
        <ele>475.4</ele>
        <time>2020-08-07T08:28:15Z</time>
      </trkpt>
      <trkpt lat="40.9564420" lon="0.3300820">
        <ele>475.6</ele>
        <time>2020-08-07T08:28:17Z</time>
      </trkpt>
      <trkpt lat="40.9564570" lon="0.3300780">
        <ele>475.7</ele>
        <time>2020-08-07T08:28:18Z</time>
      </trkpt>
      <trkpt lat="40.9564760" lon="0.3300730">
        <ele>475.8</ele>
        <time>2020-08-07T08:28:19Z</time>
      </trkpt>
      <trkpt lat="40.9565070" lon="0.3300690">
        <ele>476.0</ele>
        <time>2020-08-07T08:28:21Z</time>
      </trkpt>
      <trkpt lat="40.9565240" lon="0.3300670">
        <ele>476.1</ele>
        <time>2020-08-07T08:28:22Z</time>
      </trkpt>
      <trkpt lat="40.9565370" lon="0.3300640">
        <ele>476.2</ele>
        <time>2020-08-07T08:28:23Z</time>
      </trkpt>
      <trkpt lat="40.9565640" lon="0.3300520">
        <ele>476.4</ele>
        <time>2020-08-07T08:28:25Z</time>
      </trkpt>
      <trkpt lat="40.9565810" lon="0.3300430">
        <ele>476.5</ele>
        <time>2020-08-07T08:28:26Z</time>
      </trkpt>
      <trkpt lat="40.9566060" lon="0.3300300">
        <ele>476.6</ele>
        <time>2020-08-07T08:28:28Z</time>
      </trkpt>
      <trkpt lat="40.9566190" lon="0.3300190">
        <ele>476.7</ele>
        <time>2020-08-07T08:28:29Z</time>
      </trkpt>
      <trkpt lat="40.9566460" lon="0.3300000">
        <ele>476.8</ele>
        <time>2020-08-07T08:28:31Z</time>
      </trkpt>
      <trkpt lat="40.9566700" lon="0.3299780">
        <ele>477.0</ele>
        <time>2020-08-07T08:28:33Z</time>
      </trkpt>
      <trkpt lat="40.9566810" lon="0.3299680">
        <ele>477.0</ele>
        <time>2020-08-07T08:28:34Z</time>
      </trkpt>
      <trkpt lat="40.9566880" lon="0.3299600">
        <ele>477.1</ele>
        <time>2020-08-07T08:28:35Z</time>
      </trkpt>
      <trkpt lat="40.9566950" lon="0.3299560">
        <ele>477.1</ele>
        <time>2020-08-07T08:28:37Z</time>
      </trkpt>
      <trkpt lat="40.9566930" lon="0.3299600">
        <ele>477.1</ele>
        <time>2020-08-07T08:28:39Z</time>
      </trkpt>
      <trkpt lat="40.9566930" lon="0.3299600">
        <ele>477.1</ele>
        <time>2020-08-07T08:28:40Z</time>
      </trkpt>
      <trkpt lat="40.9566920" lon="0.3299600">
        <ele>477.1</ele>
        <time>2020-08-07T08:28:41Z</time>
      </trkpt>
      <trkpt lat="40.9566920" lon="0.3299600">
        <ele>477.1</ele>
        <time>2020-08-07T08:28:43Z</time>
      </trkpt>
      <trkpt lat="40.9566930" lon="0.3299590">
        <ele>477.1</ele>
        <time>2020-08-07T08:28:44Z</time>
      </trkpt>
      <trkpt lat="40.9566930" lon="0.3299590">
        <ele>477.1</ele>
        <time>2020-08-07T08:28:45Z</time>
      </trkpt>
      <trkpt lat="40.9567410" lon="0.3299440">
        <ele>477.4</ele>
        <time>2020-08-07T08:28:56Z</time>
      </trkpt>
      <trkpt lat="40.9567480" lon="0.3299410">
        <ele>477.4</ele>
        <time>2020-08-07T08:28:57Z</time>
      </trkpt>
      <trkpt lat="40.9567570" lon="0.3299340">
        <ele>477.5</ele>
        <time>2020-08-07T08:28:59Z</time>
      </trkpt>
      <trkpt lat="40.9567660" lon="0.3299260">
        <ele>477.5</ele>
        <time>2020-08-07T08:29:00Z</time>
      </trkpt>
      <trkpt lat="40.9567870" lon="0.3299160">
        <ele>477.7</ele>
        <time>2020-08-07T08:29:02Z</time>
      </trkpt>
      <trkpt lat="40.9567960" lon="0.3299120">
        <ele>477.7</ele>
        <time>2020-08-07T08:29:03Z</time>
      </trkpt>
      <trkpt lat="40.9568040" lon="0.3299080">
        <ele>477.8</ele>
        <time>2020-08-07T08:29:04Z</time>
      </trkpt>
      <trkpt lat="40.9568120" lon="0.3299050">
        <ele>477.8</ele>
        <time>2020-08-07T08:29:05Z</time>
      </trkpt>
      <trkpt lat="40.9568210" lon="0.3299030">
        <ele>477.9</ele>
        <time>2020-08-07T08:29:06Z</time>
      </trkpt>
      <trkpt lat="40.9568330" lon="0.3298930">
        <ele>478.0</ele>
        <time>2020-08-07T08:29:07Z</time>
      </trkpt>
      <trkpt lat="40.9568470" lon="0.3298810">
        <ele>478.1</ele>
        <time>2020-08-07T08:29:09Z</time>
      </trkpt>
      <trkpt lat="40.9568580" lon="0.3298730">
        <ele>478.2</ele>
        <time>2020-08-07T08:29:10Z</time>
      </trkpt>
      <trkpt lat="40.9568770" lon="0.3298670">
        <ele>478.3</ele>
        <time>2020-08-07T08:29:11Z</time>
      </trkpt>
      <trkpt lat="40.9568980" lon="0.3298580">
        <ele>478.5</ele>
        <time>2020-08-07T08:29:13Z</time>
      </trkpt>
      <trkpt lat="40.9569270" lon="0.3298360">
        <ele>478.8</ele>
        <time>2020-08-07T08:29:15Z</time>
      </trkpt>
      <trkpt lat="40.9569330" lon="0.3298300">
        <ele>478.9</ele>
        <time>2020-08-07T08:29:16Z</time>
      </trkpt>
      <trkpt lat="40.9569510" lon="0.3298180">
        <ele>479.1</ele>
        <time>2020-08-07T08:29:17Z</time>
      </trkpt>
      <trkpt lat="40.9569580" lon="0.3298130">
        <ele>479.2</ele>
        <time>2020-08-07T08:29:18Z</time>
      </trkpt>
      <trkpt lat="40.9569660" lon="0.3298070">
        <ele>479.2</ele>
        <time>2020-08-07T08:29:19Z</time>
      </trkpt>
      <trkpt lat="40.9569820" lon="0.3297970">
        <ele>479.4</ele>
        <time>2020-08-07T08:29:21Z</time>
      </trkpt>
      <trkpt lat="40.9569960" lon="0.3297920">
        <ele>479.6</ele>
        <time>2020-08-07T08:29:22Z</time>
      </trkpt>
      <trkpt lat="40.9570130" lon="0.3297880">
        <ele>479.7</ele>
        <time>2020-08-07T08:29:23Z</time>
      </trkpt>
      <trkpt lat="40.9570300" lon="0.3297820">
        <ele>479.9</ele>
        <time>2020-08-07T08:29:24Z</time>
      </trkpt>
      <trkpt lat="40.9570560" lon="0.3297760">
        <ele>480.2</ele>
        <time>2020-08-07T08:29:25Z</time>
      </trkpt>
      <trkpt lat="40.9570670" lon="0.3297740">
        <ele>480.3</ele>
        <time>2020-08-07T08:29:26Z</time>
      </trkpt>
      <trkpt lat="40.9570810" lon="0.3297740">
        <ele>480.4</ele>
        <time>2020-08-07T08:29:28Z</time>
      </trkpt>
      <trkpt lat="40.9571100" lon="0.3297780">
        <ele>480.7</ele>
        <time>2020-08-07T08:29:30Z</time>
      </trkpt>
      <trkpt lat="40.9571350" lon="0.3297720">
        <ele>481.0</ele>
        <time>2020-08-07T08:29:32Z</time>
      </trkpt>
      <trkpt lat="40.9571470" lon="0.3297730">
        <ele>481.1</ele>
        <time>2020-08-07T08:29:34Z</time>
      </trkpt>
      <trkpt lat="40.9571640" lon="0.3297730">
        <ele>481.2</ele>
        <time>2020-08-07T08:29:35Z</time>
      </trkpt>
      <trkpt lat="40.9571790" lon="0.3297710">
        <ele>481.3</ele>
        <time>2020-08-07T08:29:36Z</time>
      </trkpt>
      <trkpt lat="40.9572110" lon="0.3297720">
        <ele>481.6</ele>
        <time>2020-08-07T08:29:37Z</time>
      </trkpt>
      <trkpt lat="40.9572260" lon="0.3297730">
        <ele>481.7</ele>
        <time>2020-08-07T08:29:39Z</time>
      </trkpt>
      <trkpt lat="40.9572410" lon="0.3297730">
        <ele>481.8</ele>
        <time>2020-08-07T08:29:40Z</time>
      </trkpt>
      <trkpt lat="40.9572560" lon="0.3297740">
        <ele>481.9</ele>
        <time>2020-08-07T08:29:41Z</time>
      </trkpt>
      <trkpt lat="40.9572710" lon="0.3297770">
        <ele>482.0</ele>
        <time>2020-08-07T08:29:42Z</time>
      </trkpt>
      <trkpt lat="40.9572800" lon="0.3297830">
        <ele>482.1</ele>
        <time>2020-08-07T08:29:43Z</time>
      </trkpt>
      <trkpt lat="40.9572900" lon="0.3297910">
        <ele>482.2</ele>
        <time>2020-08-07T08:29:44Z</time>
      </trkpt>
      <trkpt lat="40.9573040" lon="0.3298060">
        <ele>482.4</ele>
        <time>2020-08-07T08:29:46Z</time>
      </trkpt>
      <trkpt lat="40.9573180" lon="0.3298190">
        <ele>482.5</ele>
        <time>2020-08-07T08:29:47Z</time>
      </trkpt>
      <trkpt lat="40.9573260" lon="0.3298300">
        <ele>482.6</ele>
        <time>2020-08-07T08:29:48Z</time>
      </trkpt>
      <trkpt lat="40.9573340" lon="0.3298510">
        <ele>482.8</ele>
        <time>2020-08-07T08:29:49Z</time>
      </trkpt>
      <trkpt lat="40.9573350" lon="0.3298750">
        <ele>483.0</ele>
        <time>2020-08-07T08:29:51Z</time>
      </trkpt>
      <trkpt lat="40.9573320" lon="0.3298830">
        <ele>483.1</ele>
        <time>2020-08-07T08:29:52Z</time>
      </trkpt>
      <trkpt lat="40.9573270" lon="0.3298870">
        <ele>483.2</ele>
        <time>2020-08-07T08:29:53Z</time>
      </trkpt>
      <trkpt lat="40.9573310" lon="0.3299140">
        <ele>483.4</ele>
        <time>2020-08-07T08:29:55Z</time>
      </trkpt>
      <trkpt lat="40.9573360" lon="0.3299250">
        <ele>483.6</ele>
        <time>2020-08-07T08:29:56Z</time>
      </trkpt>
      <trkpt lat="40.9573410" lon="0.3299350">
        <ele>483.7</ele>
        <time>2020-08-07T08:29:57Z</time>
      </trkpt>
      <trkpt lat="40.9573500" lon="0.3299490">
        <ele>483.8</ele>
        <time>2020-08-07T08:29:58Z</time>
      </trkpt>
      <trkpt lat="40.9573530" lon="0.3299620">
        <ele>484.0</ele>
        <time>2020-08-07T08:29:59Z</time>
      </trkpt>
      <trkpt lat="40.9573640" lon="0.3299830">
        <ele>484.2</ele>
        <time>2020-08-07T08:30:01Z</time>
      </trkpt>
      <trkpt lat="40.9573650" lon="0.3300010">
        <ele>484.3</ele>
        <time>2020-08-07T08:30:02Z</time>
      </trkpt>
      <trkpt lat="40.9573690" lon="0.3300110">
        <ele>484.4</ele>
        <time>2020-08-07T08:30:03Z</time>
      </trkpt>
      <trkpt lat="40.9573650" lon="0.3300230">
        <ele>484.5</ele>
        <time>2020-08-07T08:30:04Z</time>
      </trkpt>
      <trkpt lat="40.9573650" lon="0.3300390">
        <ele>484.7</ele>
        <time>2020-08-07T08:30:05Z</time>
      </trkpt>
      <trkpt lat="40.9573550" lon="0.3300660">
        <ele>484.9</ele>
        <time>2020-08-07T08:30:07Z</time>
      </trkpt>
      <trkpt lat="40.9573470" lon="0.3300870">
        <ele>485.0</ele>
        <time>2020-08-07T08:30:09Z</time>
      </trkpt>
      <trkpt lat="40.9573420" lon="0.3300990">
        <ele>485.1</ele>
        <time>2020-08-07T08:30:10Z</time>
      </trkpt>
      <trkpt lat="40.9573350" lon="0.3301120">
        <ele>485.2</ele>
        <time>2020-08-07T08:30:11Z</time>
      </trkpt>
      <trkpt lat="40.9573200" lon="0.3301320">
        <ele>485.4</ele>
        <time>2020-08-07T08:30:12Z</time>
      </trkpt>
      <trkpt lat="40.9573100" lon="0.3301530">
        <ele>485.6</ele>
        <time>2020-08-07T08:30:13Z</time>
      </trkpt>
      <trkpt lat="40.9573000" lon="0.3301800">
        <ele>485.8</ele>
        <time>2020-08-07T08:30:15Z</time>
      </trkpt>
      <trkpt lat="40.9572860" lon="0.3301980">
        <ele>485.9</ele>
        <time>2020-08-07T08:30:16Z</time>
      </trkpt>
      <trkpt lat="40.9572740" lon="0.3302130">
        <ele>486.0</ele>
        <time>2020-08-07T08:30:18Z</time>
      </trkpt>
      <trkpt lat="40.9572690" lon="0.3302240">
        <ele>486.1</ele>
        <time>2020-08-07T08:30:19Z</time>
      </trkpt>
      <trkpt lat="40.9572620" lon="0.3302370">
        <ele>486.2</ele>
        <time>2020-08-07T08:30:20Z</time>
      </trkpt>
      <trkpt lat="40.9572460" lon="0.3302690">
        <ele>486.5</ele>
        <time>2020-08-07T08:30:22Z</time>
      </trkpt>
      <trkpt lat="40.9572340" lon="0.3303000">
        <ele>486.8</ele>
        <time>2020-08-07T08:30:24Z</time>
      </trkpt>
      <trkpt lat="40.9572220" lon="0.3303330">
        <ele>487.0</ele>
        <time>2020-08-07T08:30:26Z</time>
      </trkpt>
      <trkpt lat="40.9572150" lon="0.3303450">
        <ele>487.2</ele>
        <time>2020-08-07T08:30:27Z</time>
      </trkpt>
      <trkpt lat="40.9571990" lon="0.3303700">
        <ele>487.4</ele>
        <time>2020-08-07T08:30:29Z</time>
      </trkpt>
      <trkpt lat="40.9571840" lon="0.3303910">
        <ele>487.7</ele>
        <time>2020-08-07T08:30:31Z</time>
      </trkpt>
      <trkpt lat="40.9571720" lon="0.3304050">
        <ele>487.9</ele>
        <time>2020-08-07T08:30:33Z</time>
      </trkpt>
      <trkpt lat="40.9571530" lon="0.3304430">
        <ele>488.3</ele>
        <time>2020-08-07T08:30:35Z</time>
      </trkpt>
      <trkpt lat="40.9571500" lon="0.3304520">
        <ele>488.4</ele>
        <time>2020-08-07T08:30:36Z</time>
      </trkpt>
      <trkpt lat="40.9571430" lon="0.3304710">
        <ele>488.5</ele>
        <time>2020-08-07T08:30:37Z</time>
      </trkpt>
      <trkpt lat="40.9571280" lon="0.3304950">
        <ele>488.8</ele>
        <time>2020-08-07T08:30:39Z</time>
      </trkpt>
      <trkpt lat="40.9571170" lon="0.3305070">
        <ele>489.0</ele>
        <time>2020-08-07T08:30:40Z</time>
      </trkpt>
      <trkpt lat="40.9571060" lon="0.3305290">
        <ele>489.2</ele>
        <time>2020-08-07T08:30:41Z</time>
      </trkpt>
      <trkpt lat="40.9571000" lon="0.3305420">
        <ele>489.4</ele>
        <time>2020-08-07T08:30:42Z</time>
      </trkpt>
      <trkpt lat="40.9570950" lon="0.3305530">
        <ele>489.5</ele>
        <time>2020-08-07T08:30:44Z</time>
      </trkpt>
      <trkpt lat="40.9570880" lon="0.3305690">
        <ele>489.6</ele>
        <time>2020-08-07T08:30:45Z</time>
      </trkpt>
      <trkpt lat="40.9570770" lon="0.3305900">
        <ele>489.8</ele>
        <time>2020-08-07T08:30:46Z</time>
      </trkpt>
      <trkpt lat="40.9570650" lon="0.3306040">
        <ele>490.0</ele>
        <time>2020-08-07T08:30:47Z</time>
      </trkpt>
      <trkpt lat="40.9570550" lon="0.3306190">
        <ele>490.2</ele>
        <time>2020-08-07T08:30:48Z</time>
      </trkpt>
      <trkpt lat="40.9570430" lon="0.3306410">
        <ele>490.4</ele>
        <time>2020-08-07T08:30:49Z</time>
      </trkpt>
      <trkpt lat="40.9570330" lon="0.3306600">
        <ele>490.5</ele>
        <time>2020-08-07T08:30:51Z</time>
      </trkpt>
      <trkpt lat="40.9570190" lon="0.3306740">
        <ele>490.7</ele>
        <time>2020-08-07T08:30:52Z</time>
      </trkpt>
      <trkpt lat="40.9570090" lon="0.3306810">
        <ele>490.8</ele>
        <time>2020-08-07T08:30:53Z</time>
      </trkpt>
      <trkpt lat="40.9569970" lon="0.3306870">
        <ele>491.0</ele>
        <time>2020-08-07T08:30:54Z</time>
      </trkpt>
      <trkpt lat="40.9569770" lon="0.3306950">
        <ele>491.2</ele>
        <time>2020-08-07T08:30:56Z</time>
      </trkpt>
      <trkpt lat="40.9569470" lon="0.3307100">
        <ele>491.5</ele>
        <time>2020-08-07T08:30:57Z</time>
      </trkpt>
      <trkpt lat="40.9569370" lon="0.3307160">
        <ele>491.6</ele>
        <time>2020-08-07T08:30:58Z</time>
      </trkpt>
      <trkpt lat="40.9569250" lon="0.3307330">
        <ele>491.7</ele>
        <time>2020-08-07T08:31:00Z</time>
      </trkpt>
      <trkpt lat="40.9569200" lon="0.3307460">
        <ele>491.8</ele>
        <time>2020-08-07T08:31:02Z</time>
      </trkpt>
      <trkpt lat="40.9569200" lon="0.3307470">
        <ele>491.9</ele>
        <time>2020-08-07T08:31:03Z</time>
      </trkpt>
      <trkpt lat="40.9569180" lon="0.3307480">
        <ele>491.9</ele>
        <time>2020-08-07T08:31:05Z</time>
      </trkpt>
      <trkpt lat="40.9569150" lon="0.3307520">
        <ele>491.9</ele>
        <time>2020-08-07T08:31:06Z</time>
      </trkpt>
      <trkpt lat="40.9569130" lon="0.3307540">
        <ele>491.9</ele>
        <time>2020-08-07T08:31:08Z</time>
      </trkpt>
      <trkpt lat="40.9569120" lon="0.3307540">
        <ele>492.0</ele>
        <time>2020-08-07T08:31:09Z</time>
      </trkpt>
      <trkpt lat="40.9569110" lon="0.3307580">
        <ele>492.0</ele>
        <time>2020-08-07T08:31:11Z</time>
      </trkpt>
      <trkpt lat="40.9569220" lon="0.3308140">
        <ele>492.3</ele>
        <time>2020-08-07T08:32:08Z</time>
      </trkpt>
      <trkpt lat="40.9569090" lon="0.3308140">
        <ele>492.4</ele>
        <time>2020-08-07T08:32:09Z</time>
      </trkpt>
      <trkpt lat="40.9568950" lon="0.3308070">
        <ele>492.4</ele>
        <time>2020-08-07T08:32:10Z</time>
      </trkpt>
      <trkpt lat="40.9568830" lon="0.3308000">
        <ele>492.5</ele>
        <time>2020-08-07T08:32:11Z</time>
      </trkpt>
      <trkpt lat="40.9568640" lon="0.3308000">
        <ele>492.6</ele>
        <time>2020-08-07T08:32:13Z</time>
      </trkpt>
      <trkpt lat="40.9568530" lon="0.3308060">
        <ele>492.7</ele>
        <time>2020-08-07T08:32:14Z</time>
      </trkpt>
      <trkpt lat="40.9568470" lon="0.3307970">
        <ele>492.7</ele>
        <time>2020-08-07T08:32:16Z</time>
      </trkpt>
      <trkpt lat="40.9568440" lon="0.3307930">
        <ele>492.7</ele>
        <time>2020-08-07T08:32:17Z</time>
      </trkpt>
      <trkpt lat="40.9568430" lon="0.3307900">
        <ele>492.8</ele>
        <time>2020-08-07T08:32:18Z</time>
      </trkpt>
      <trkpt lat="40.9568410" lon="0.3307880">
        <ele>492.8</ele>
        <time>2020-08-07T08:32:19Z</time>
      </trkpt>
      <trkpt lat="40.9568380" lon="0.3307840">
        <ele>492.8</ele>
        <time>2020-08-07T08:32:20Z</time>
      </trkpt>
      <trkpt lat="40.9568330" lon="0.3307970">
        <ele>492.8</ele>
        <time>2020-08-07T08:32:22Z</time>
      </trkpt>
      <trkpt lat="40.9568300" lon="0.3308110">
        <ele>492.9</ele>
        <time>2020-08-07T08:32:23Z</time>
      </trkpt>
      <trkpt lat="40.9568280" lon="0.3308250">
        <ele>493.0</ele>
        <time>2020-08-07T08:32:31Z</time>
      </trkpt>
      <trkpt lat="40.9568260" lon="0.3308390">
        <ele>493.0</ele>
        <time>2020-08-07T08:32:32Z</time>
      </trkpt>
      <trkpt lat="40.9568230" lon="0.3308530">
        <ele>493.1</ele>
        <time>2020-08-07T08:32:33Z</time>
      </trkpt>
      <trkpt lat="40.9568210" lon="0.3308670">
        <ele>493.1</ele>
        <time>2020-08-07T08:32:34Z</time>
      </trkpt>
      <trkpt lat="40.9568180" lon="0.3308620">
        <ele>493.2</ele>
        <time>2020-08-07T08:32:36Z</time>
      </trkpt>
      <trkpt lat="40.9568170" lon="0.3308560">
        <ele>493.2</ele>
        <time>2020-08-07T08:32:38Z</time>
      </trkpt>
      <trkpt lat="40.9568170" lon="0.3308500">
        <ele>493.2</ele>
        <time>2020-08-07T08:32:39Z</time>
      </trkpt>
      <trkpt lat="40.9568200" lon="0.3308450">
        <ele>493.2</ele>
        <time>2020-08-07T08:32:41Z</time>
      </trkpt>
      <trkpt lat="40.9568130" lon="0.3308460">
        <ele>493.3</ele>
        <time>2020-08-07T08:32:42Z</time>
      </trkpt>
      <trkpt lat="40.9568080" lon="0.3308510">
        <ele>493.3</ele>
        <time>2020-08-07T08:32:44Z</time>
      </trkpt>
      <trkpt lat="40.9568050" lon="0.3308550">
        <ele>493.3</ele>
        <time>2020-08-07T08:32:46Z</time>
      </trkpt>
      <trkpt lat="40.9567970" lon="0.3308670">
        <ele>493.4</ele>
        <time>2020-08-07T08:32:48Z</time>
      </trkpt>
      <trkpt lat="40.9567940" lon="0.3308700">
        <ele>493.4</ele>
        <time>2020-08-07T08:32:50Z</time>
      </trkpt>
      <trkpt lat="40.9567850" lon="0.3308790">
        <ele>493.5</ele>
        <time>2020-08-07T08:32:51Z</time>
      </trkpt>
      <trkpt lat="40.9567800" lon="0.3308850">
        <ele>493.5</ele>
        <time>2020-08-07T08:32:52Z</time>
      </trkpt>
      <trkpt lat="40.9567690" lon="0.3308970">
        <ele>493.6</ele>
        <time>2020-08-07T08:32:54Z</time>
      </trkpt>
      <trkpt lat="40.9567660" lon="0.3309020">
        <ele>493.6</ele>
        <time>2020-08-07T08:32:56Z</time>
      </trkpt>
      <trkpt lat="40.9567690" lon="0.3309070">
        <ele>493.6</ele>
        <time>2020-08-07T08:32:58Z</time>
      </trkpt>
      <trkpt lat="40.9567740" lon="0.3309120">
        <ele>493.7</ele>
        <time>2020-08-07T08:33:00Z</time>
      </trkpt>
      <trkpt lat="40.9567770" lon="0.3309150">
        <ele>493.7</ele>
        <time>2020-08-07T08:33:01Z</time>
      </trkpt>
      <trkpt lat="40.9567810" lon="0.3309190">
        <ele>493.7</ele>
        <time>2020-08-07T08:33:03Z</time>
      </trkpt>
      <trkpt lat="40.9567820" lon="0.3309210">
        <ele>493.7</ele>
        <time>2020-08-07T08:33:04Z</time>
      </trkpt>
      <trkpt lat="40.9567830" lon="0.3309240">
        <ele>493.7</ele>
        <time>2020-08-07T08:33:05Z</time>
      </trkpt>
      <trkpt lat="40.9567840" lon="0.3309260">
        <ele>493.7</ele>
        <time>2020-08-07T08:33:07Z</time>
      </trkpt>
      <trkpt lat="40.9567630" lon="0.3309550">
        <ele>493.9</ele>
        <time>2020-08-07T08:33:31Z</time>
      </trkpt>
      <trkpt lat="40.9567570" lon="0.3309630">
        <ele>493.9</ele>
        <time>2020-08-07T08:33:32Z</time>
      </trkpt>
      <trkpt lat="40.9567520" lon="0.3309660">
        <ele>494.0</ele>
        <time>2020-08-07T08:33:33Z</time>
      </trkpt>
      <trkpt lat="40.9567470" lon="0.3309650">
        <ele>494.0</ele>
        <time>2020-08-07T08:33:34Z</time>
      </trkpt>
      <trkpt lat="40.9567440" lon="0.3309640">
        <ele>494.0</ele>
        <time>2020-08-07T08:33:35Z</time>
      </trkpt>
      <trkpt lat="40.9567410" lon="0.3309620">
        <ele>494.0</ele>
        <time>2020-08-07T08:33:37Z</time>
      </trkpt>
      <trkpt lat="40.9567400" lon="0.3309630">
        <ele>494.0</ele>
        <time>2020-08-07T08:33:38Z</time>
      </trkpt>
      <trkpt lat="40.9567390" lon="0.3309630">
        <ele>494.0</ele>
        <time>2020-08-07T08:33:39Z</time>
      </trkpt>
      <trkpt lat="40.9567370" lon="0.3309650">
        <ele>494.0</ele>
        <time>2020-08-07T08:33:40Z</time>
      </trkpt>
      <trkpt lat="40.9567350" lon="0.3309670">
        <ele>494.0</ele>
        <time>2020-08-07T08:33:41Z</time>
      </trkpt>
      <trkpt lat="40.9567320" lon="0.3309700">
        <ele>494.1</ele>
        <time>2020-08-07T08:33:43Z</time>
      </trkpt>
      <trkpt lat="40.9567310" lon="0.3309740">
        <ele>494.1</ele>
        <time>2020-08-07T08:33:45Z</time>
      </trkpt>
      <trkpt lat="40.9567140" lon="0.3309880">
        <ele>494.2</ele>
        <time>2020-08-07T08:33:50Z</time>
      </trkpt>
      <trkpt lat="40.9567060" lon="0.3309950">
        <ele>494.2</ele>
        <time>2020-08-07T08:33:52Z</time>
      </trkpt>
      <trkpt lat="40.9567020" lon="0.3309990">
        <ele>494.3</ele>
        <time>2020-08-07T08:33:53Z</time>
      </trkpt>
      <trkpt lat="40.9566990" lon="0.3310020">
        <ele>494.3</ele>
        <time>2020-08-07T08:33:54Z</time>
      </trkpt>
      <trkpt lat="40.9566940" lon="0.3310070">
        <ele>494.3</ele>
        <time>2020-08-07T08:33:56Z</time>
      </trkpt>
      <trkpt lat="40.9566900" lon="0.3310150">
        <ele>494.3</ele>
        <time>2020-08-07T08:33:57Z</time>
      </trkpt>
      <trkpt lat="40.9566870" lon="0.3310250">
        <ele>494.4</ele>
        <time>2020-08-07T08:33:59Z</time>
      </trkpt>
      <trkpt lat="40.9566840" lon="0.3310290">
        <ele>494.4</ele>
        <time>2020-08-07T08:34:00Z</time>
      </trkpt>
      <trkpt lat="40.9566830" lon="0.3310320">
        <ele>494.4</ele>
        <time>2020-08-07T08:34:01Z</time>
      </trkpt>
      <trkpt lat="40.9566800" lon="0.3310340">
        <ele>494.4</ele>
        <time>2020-08-07T08:34:03Z</time>
      </trkpt>
      <trkpt lat="40.9566790" lon="0.3310340">
        <ele>494.4</ele>
        <time>2020-08-07T08:34:04Z</time>
      </trkpt>
      <trkpt lat="40.9566840" lon="0.3310410">
        <ele>494.5</ele>
        <time>2020-08-07T08:34:06Z</time>
      </trkpt>
      <trkpt lat="40.9566880" lon="0.3310530">
        <ele>494.5</ele>
        <time>2020-08-07T08:34:08Z</time>
      </trkpt>
      <trkpt lat="40.9566890" lon="0.3310670">
        <ele>494.6</ele>
        <time>2020-08-07T08:34:10Z</time>
      </trkpt>
      <trkpt lat="40.9566900" lon="0.3310720">
        <ele>494.6</ele>
        <time>2020-08-07T08:34:11Z</time>
      </trkpt>
      <trkpt lat="40.9566930" lon="0.3310780">
        <ele>494.6</ele>
        <time>2020-08-07T08:34:13Z</time>
      </trkpt>
      <trkpt lat="40.9566960" lon="0.3310830">
        <ele>494.6</ele>
        <time>2020-08-07T08:34:14Z</time>
      </trkpt>
      <trkpt lat="40.9567690" lon="0.3311540">
        <ele>495.1</ele>
        <time>2020-08-07T08:36:01Z</time>
      </trkpt>
      <trkpt lat="40.9567720" lon="0.3311550">
        <ele>495.1</ele>
        <time>2020-08-07T08:36:02Z</time>
      </trkpt>
      <trkpt lat="40.9567720" lon="0.3311550">
        <ele>495.1</ele>
        <time>2020-08-07T08:36:04Z</time>
      </trkpt>
      <trkpt lat="40.9567710" lon="0.3311540">
        <ele>495.1</ele>
        <time>2020-08-07T08:36:05Z</time>
      </trkpt>
      <trkpt lat="40.9567690" lon="0.3311540">
        <ele>495.1</ele>
        <time>2020-08-07T08:36:07Z</time>
      </trkpt>
      <trkpt lat="40.9567680" lon="0.3311530">
        <ele>495.1</ele>
        <time>2020-08-07T08:36:09Z</time>
      </trkpt>
      <trkpt lat="40.9567680" lon="0.3311530">
        <ele>495.1</ele>
        <time>2020-08-07T08:36:10Z</time>
      </trkpt>
      <trkpt lat="40.9567680" lon="0.3311530">
        <ele>495.1</ele>
        <time>2020-08-07T08:36:12Z</time>
      </trkpt>
      <trkpt lat="40.9567370" lon="0.3311500">
        <ele>495.3</ele>
        <time>2020-08-07T08:36:22Z</time>
      </trkpt>
      <trkpt lat="40.9567330" lon="0.3311590">
        <ele>495.3</ele>
        <time>2020-08-07T08:36:23Z</time>
      </trkpt>
      <trkpt lat="40.9567320" lon="0.3311570">
        <ele>495.3</ele>
        <time>2020-08-07T08:36:24Z</time>
      </trkpt>
      <trkpt lat="40.9567270" lon="0.3311450">
        <ele>495.4</ele>
        <time>2020-08-07T08:36:26Z</time>
      </trkpt>
      <trkpt lat="40.9567290" lon="0.3311320">
        <ele>495.4</ele>
        <time>2020-08-07T08:36:28Z</time>
      </trkpt>
      <trkpt lat="40.9567310" lon="0.3311240">
        <ele>495.5</ele>
        <time>2020-08-07T08:36:30Z</time>
      </trkpt>
      <trkpt lat="40.9567310" lon="0.3311220">
        <ele>495.5</ele>
        <time>2020-08-07T08:36:32Z</time>
      </trkpt>
      <trkpt lat="40.9567320" lon="0.3311210">
        <ele>495.5</ele>
        <time>2020-08-07T08:36:33Z</time>
      </trkpt>
      <trkpt lat="40.9567330" lon="0.3311200">
        <ele>495.5</ele>
        <time>2020-08-07T08:36:35Z</time>
      </trkpt>
      <trkpt lat="40.9567330" lon="0.3311200">
        <ele>495.5</ele>
        <time>2020-08-07T08:36:36Z</time>
      </trkpt>
      <trkpt lat="40.9567340" lon="0.3311200">
        <ele>495.5</ele>
        <time>2020-08-07T08:36:38Z</time>
      </trkpt>
      <trkpt lat="40.9567340" lon="0.3311200">
        <ele>495.5</ele>
        <time>2020-08-07T08:36:40Z</time>
      </trkpt>
      <trkpt lat="40.9567780" lon="0.3309900">
        <ele>496.0</ele>
        <time>2020-08-07T08:38:12Z</time>
      </trkpt>
      <trkpt lat="40.9567850" lon="0.3309810">
        <ele>496.0</ele>
        <time>2020-08-07T08:38:13Z</time>
      </trkpt>
      <trkpt lat="40.9567900" lon="0.3309740">
        <ele>496.1</ele>
        <time>2020-08-07T08:38:14Z</time>
      </trkpt>
      <trkpt lat="40.9567950" lon="0.3309660">
        <ele>496.1</ele>
        <time>2020-08-07T08:38:15Z</time>
      </trkpt>
      <trkpt lat="40.9568050" lon="0.3309490">
        <ele>496.2</ele>
        <time>2020-08-07T08:38:17Z</time>
      </trkpt>
      <trkpt lat="40.9568130" lon="0.3309230">
        <ele>496.3</ele>
        <time>2020-08-07T08:38:18Z</time>
      </trkpt>
      <trkpt lat="40.9568160" lon="0.3309090">
        <ele>496.3</ele>
        <time>2020-08-07T08:38:19Z</time>
      </trkpt>
      <trkpt lat="40.9568200" lon="0.3308960">
        <ele>496.4</ele>
        <time>2020-08-07T08:38:20Z</time>
      </trkpt>
      <trkpt lat="40.9568270" lon="0.3308650">
        <ele>496.5</ele>
        <time>2020-08-07T08:38:21Z</time>
      </trkpt>
      <trkpt lat="40.9568300" lon="0.3308390">
        <ele>496.6</ele>
        <time>2020-08-07T08:38:23Z</time>
      </trkpt>
      <trkpt lat="40.9568300" lon="0.3308300">
        <ele>496.6</ele>
        <time>2020-08-07T08:38:24Z</time>
      </trkpt>
      <trkpt lat="40.9568270" lon="0.3308210">
        <ele>496.6</ele>
        <time>2020-08-07T08:38:26Z</time>
      </trkpt>
      <trkpt lat="40.9568260" lon="0.3308130">
        <ele>496.7</ele>
        <time>2020-08-07T08:38:28Z</time>
      </trkpt>
      <trkpt lat="40.9568260" lon="0.3308090">
        <ele>496.7</ele>
        <time>2020-08-07T08:38:29Z</time>
      </trkpt>
      <trkpt lat="40.9568260" lon="0.3308030">
        <ele>496.7</ele>
        <time>2020-08-07T08:38:31Z</time>
      </trkpt>
      <trkpt lat="40.9568250" lon="0.3308040">
        <ele>496.7</ele>
        <time>2020-08-07T08:38:32Z</time>
      </trkpt>
      <trkpt lat="40.9568270" lon="0.3308120">
        <ele>496.7</ele>
        <time>2020-08-07T08:38:33Z</time>
      </trkpt>
      <trkpt lat="40.9568300" lon="0.3308200">
        <ele>496.8</ele>
        <time>2020-08-07T08:38:34Z</time>
      </trkpt>
      <trkpt lat="40.9568370" lon="0.3308310">
        <ele>496.8</ele>
        <time>2020-08-07T08:38:36Z</time>
      </trkpt>
      <trkpt lat="40.9568390" lon="0.3308310">
        <ele>496.8</ele>
        <time>2020-08-07T08:38:37Z</time>
      </trkpt>
      <trkpt lat="40.9568420" lon="0.3308260">
        <ele>496.8</ele>
        <time>2020-08-07T08:38:39Z</time>
      </trkpt>
      <trkpt lat="40.9568430" lon="0.3308230">
        <ele>496.9</ele>
        <time>2020-08-07T08:38:40Z</time>
      </trkpt>
      <trkpt lat="40.9568430" lon="0.3308200">
        <ele>496.9</ele>
        <time>2020-08-07T08:38:41Z</time>
      </trkpt>
      <trkpt lat="40.9568430" lon="0.3308150">
        <ele>496.9</ele>
        <time>2020-08-07T08:38:43Z</time>
      </trkpt>
      <trkpt lat="40.9568420" lon="0.3308140">
        <ele>496.9</ele>
        <time>2020-08-07T08:38:44Z</time>
      </trkpt>
      <trkpt lat="40.9568420" lon="0.3308140">
        <ele>496.9</ele>
        <time>2020-08-07T08:38:46Z</time>
      </trkpt>
      <trkpt lat="40.9568490" lon="0.3308260">
        <ele>496.9</ele>
        <time>2020-08-07T08:38:48Z</time>
      </trkpt>
      <trkpt lat="40.9568540" lon="0.3308400">
        <ele>497.0</ele>
        <time>2020-08-07T08:38:49Z</time>
      </trkpt>
      <trkpt lat="40.9568580" lon="0.3308550">
        <ele>497.1</ele>
        <time>2020-08-07T08:38:50Z</time>
      </trkpt>
      <trkpt lat="40.9568640" lon="0.3308680">
        <ele>497.1</ele>
        <time>2020-08-07T08:38:51Z</time>
      </trkpt>
      <trkpt lat="40.9568640" lon="0.3308810">
        <ele>497.1</ele>
        <time>2020-08-07T08:38:53Z</time>
      </trkpt>
      <trkpt lat="40.9568750" lon="0.3308710">
        <ele>497.2</ele>
        <time>2020-08-07T08:38:55Z</time>
      </trkpt>
      <trkpt lat="40.9568850" lon="0.3308620">
        <ele>497.3</ele>
        <time>2020-08-07T08:38:56Z</time>
      </trkpt>
      <trkpt lat="40.9568910" lon="0.3308620">
        <ele>497.3</ele>
        <time>2020-08-07T08:38:58Z</time>
      </trkpt>
      <trkpt lat="40.9568960" lon="0.3308660">
        <ele>497.3</ele>
        <time>2020-08-07T08:39:00Z</time>
      </trkpt>
      <trkpt lat="40.9569010" lon="0.3308680">
        <ele>497.3</ele>
        <time>2020-08-07T08:39:01Z</time>
      </trkpt>
      <trkpt lat="40.9569050" lon="0.3308700">
        <ele>497.4</ele>
        <time>2020-08-07T08:39:03Z</time>
      </trkpt>
      <trkpt lat="40.9569130" lon="0.3308790">
        <ele>497.4</ele>
        <time>2020-08-07T08:39:05Z</time>
      </trkpt>
      <trkpt lat="40.9569160" lon="0.3308940">
        <ele>497.5</ele>
        <time>2020-08-07T08:39:06Z</time>
      </trkpt>
      <trkpt lat="40.9569150" lon="0.3309080">
        <ele>497.5</ele>
        <time>2020-08-07T08:39:07Z</time>
      </trkpt>
      <trkpt lat="40.9569100" lon="0.3309310">
        <ele>497.6</ele>
        <time>2020-08-07T08:39:09Z</time>
      </trkpt>
      <trkpt lat="40.9569100" lon="0.3309430">
        <ele>497.6</ele>
        <time>2020-08-07T08:39:10Z</time>
      </trkpt>
      <trkpt lat="40.9569040" lon="0.3309600">
        <ele>497.7</ele>
        <time>2020-08-07T08:39:12Z</time>
      </trkpt>
      <trkpt lat="40.9569010" lon="0.3309740">
        <ele>497.7</ele>
        <time>2020-08-07T08:39:13Z</time>
      </trkpt>
      <trkpt lat="40.9568970" lon="0.3309970">
        <ele>497.8</ele>
        <time>2020-08-07T08:39:14Z</time>
      </trkpt>
      <trkpt lat="40.9568970" lon="0.3310150">
        <ele>497.9</ele>
        <time>2020-08-07T08:39:16Z</time>
      </trkpt>
      <trkpt lat="40.9568980" lon="0.3310360">
        <ele>498.0</ele>
        <time>2020-08-07T08:39:17Z</time>
      </trkpt>
      <trkpt lat="40.9568980" lon="0.3310620">
        <ele>498.0</ele>
        <time>2020-08-07T08:39:19Z</time>
      </trkpt>
      <trkpt lat="40.9568970" lon="0.3310820">
        <ele>498.1</ele>
        <time>2020-08-07T08:39:20Z</time>
      </trkpt>
      <trkpt lat="40.9568940" lon="0.3311080">
        <ele>498.2</ele>
        <time>2020-08-07T08:39:21Z</time>
      </trkpt>
      <trkpt lat="40.9568910" lon="0.3311510">
        <ele>498.3</ele>
        <time>2020-08-07T08:39:22Z</time>
      </trkpt>
      <trkpt lat="40.9568910" lon="0.3311710">
        <ele>498.4</ele>
        <time>2020-08-07T08:39:24Z</time>
      </trkpt>
      <trkpt lat="40.9568900" lon="0.3311910">
        <ele>498.5</ele>
        <time>2020-08-07T08:39:25Z</time>
      </trkpt>
      <trkpt lat="40.9568890" lon="0.3312120">
        <ele>498.5</ele>
        <time>2020-08-07T08:39:27Z</time>
      </trkpt>
      <trkpt lat="40.9568880" lon="0.3312320">
        <ele>498.6</ele>
        <time>2020-08-07T08:39:28Z</time>
      </trkpt>
      <trkpt lat="40.9568880" lon="0.3312520">
        <ele>498.7</ele>
        <time>2020-08-07T08:39:30Z</time>
      </trkpt>
      <trkpt lat="40.9568870" lon="0.3312720">
        <ele>498.7</ele>
        <time>2020-08-07T08:39:32Z</time>
      </trkpt>
      <trkpt lat="40.9568860" lon="0.3312920">
        <ele>498.8</ele>
        <time>2020-08-07T08:39:33Z</time>
      </trkpt>
      <trkpt lat="40.9568830" lon="0.3313080">
        <ele>498.9</ele>
        <time>2020-08-07T08:39:34Z</time>
      </trkpt>
      <trkpt lat="40.9568820" lon="0.3313410">
        <ele>499.0</ele>
        <time>2020-08-07T08:39:36Z</time>
      </trkpt>
      <trkpt lat="40.9568820" lon="0.3313840">
        <ele>499.5</ele>
        <time>2020-08-07T08:39:38Z</time>
      </trkpt>
      <trkpt lat="40.9568810" lon="0.3313930">
        <ele>499.6</ele>
        <time>2020-08-07T08:39:39Z</time>
      </trkpt>
      <trkpt lat="40.9568780" lon="0.3314120">
        <ele>499.8</ele>
        <time>2020-08-07T08:39:40Z</time>
      </trkpt>
      <trkpt lat="40.9568800" lon="0.3314380">
        <ele>500.1</ele>
        <time>2020-08-07T08:39:42Z</time>
      </trkpt>
      <trkpt lat="40.9568790" lon="0.3314610">
        <ele>500.4</ele>
        <time>2020-08-07T08:39:43Z</time>
      </trkpt>
      <trkpt lat="40.9568800" lon="0.3314920">
        <ele>500.7</ele>
        <time>2020-08-07T08:39:45Z</time>
      </trkpt>
      <trkpt lat="40.9568830" lon="0.3315090">
        <ele>500.8</ele>
        <time>2020-08-07T08:39:46Z</time>
      </trkpt>
      <trkpt lat="40.9568830" lon="0.3315350">
        <ele>501.0</ele>
        <time>2020-08-07T08:39:48Z</time>
      </trkpt>
      <trkpt lat="40.9568830" lon="0.3315540">
        <ele>501.1</ele>
        <time>2020-08-07T08:39:49Z</time>
      </trkpt>
      <trkpt lat="40.9568860" lon="0.3315760">
        <ele>501.3</ele>
        <time>2020-08-07T08:39:50Z</time>
      </trkpt>
      <trkpt lat="40.9568880" lon="0.3316040">
        <ele>501.5</ele>
        <time>2020-08-07T08:39:51Z</time>
      </trkpt>
      <trkpt lat="40.9568880" lon="0.3316160">
        <ele>501.6</ele>
        <time>2020-08-07T08:39:52Z</time>
      </trkpt>
      <trkpt lat="40.9568880" lon="0.3316270">
        <ele>501.7</ele>
        <time>2020-08-07T08:39:53Z</time>
      </trkpt>
      <trkpt lat="40.9568870" lon="0.3316430">
        <ele>501.8</ele>
        <time>2020-08-07T08:39:54Z</time>
      </trkpt>
      <trkpt lat="40.9568860" lon="0.3316710">
        <ele>502.0</ele>
        <time>2020-08-07T08:39:56Z</time>
      </trkpt>
      <trkpt lat="40.9568850" lon="0.3316870">
        <ele>502.1</ele>
        <time>2020-08-07T08:39:57Z</time>
      </trkpt>
      <trkpt lat="40.9568850" lon="0.3317190">
        <ele>502.4</ele>
        <time>2020-08-07T08:39:59Z</time>
      </trkpt>
      <trkpt lat="40.9568840" lon="0.3317570">
        <ele>502.7</ele>
        <time>2020-08-07T08:40:00Z</time>
      </trkpt>
      <trkpt lat="40.9568820" lon="0.3317670">
        <ele>502.7</ele>
        <time>2020-08-07T08:40:01Z</time>
      </trkpt>
      <trkpt lat="40.9568750" lon="0.3317930">
        <ele>503.0</ele>
        <time>2020-08-07T08:40:02Z</time>
      </trkpt>
      <trkpt lat="40.9568700" lon="0.3318120">
        <ele>503.2</ele>
        <time>2020-08-07T08:40:04Z</time>
      </trkpt>
      <trkpt lat="40.9568620" lon="0.3318280">
        <ele>503.3</ele>
        <time>2020-08-07T08:40:05Z</time>
      </trkpt>
      <trkpt lat="40.9568490" lon="0.3318430">
        <ele>503.5</ele>
        <time>2020-08-07T08:40:06Z</time>
      </trkpt>
      <trkpt lat="40.9568330" lon="0.3318570">
        <ele>503.8</ele>
        <time>2020-08-07T08:40:07Z</time>
      </trkpt>
      <trkpt lat="40.9568210" lon="0.3318670">
        <ele>503.9</ele>
        <time>2020-08-07T08:40:09Z</time>
      </trkpt>
      <trkpt lat="40.9568080" lon="0.3318780">
        <ele>504.1</ele>
        <time>2020-08-07T08:40:10Z</time>
      </trkpt>
      <trkpt lat="40.9567950" lon="0.3318860">
        <ele>504.3</ele>
        <time>2020-08-07T08:40:11Z</time>
      </trkpt>
      <trkpt lat="40.9567900" lon="0.3318890">
        <ele>504.4</ele>
        <time>2020-08-07T08:40:12Z</time>
      </trkpt>
      <trkpt lat="40.9567890" lon="0.3318900">
        <ele>504.4</ele>
        <time>2020-08-07T08:40:13Z</time>
      </trkpt>
      <trkpt lat="40.9567890" lon="0.3318930">
        <ele>504.4</ele>
        <time>2020-08-07T08:40:15Z</time>
      </trkpt>
      <trkpt lat="40.9567890" lon="0.3318940">
        <ele>504.4</ele>
        <time>2020-08-07T08:40:17Z</time>
      </trkpt>
      <trkpt lat="40.9567870" lon="0.3318980">
        <ele>504.5</ele>
        <time>2020-08-07T08:40:18Z</time>
      </trkpt>
      <trkpt lat="40.9567850" lon="0.3319020">
        <ele>504.5</ele>
        <time>2020-08-07T08:40:19Z</time>
      </trkpt>
      <trkpt lat="40.9567710" lon="0.3319080">
        <ele>504.7</ele>
        <time>2020-08-07T08:40:21Z</time>
      </trkpt>
      <trkpt lat="40.9567640" lon="0.3319040">
        <ele>504.7</ele>
        <time>2020-08-07T08:40:23Z</time>
      </trkpt>
      <trkpt lat="40.9567630" lon="0.3319010">
        <ele>504.8</ele>
        <time>2020-08-07T08:40:25Z</time>
      </trkpt>
      <trkpt lat="40.9567620" lon="0.3318960">
        <ele>504.8</ele>
        <time>2020-08-07T08:40:27Z</time>
      </trkpt>
      <trkpt lat="40.9567630" lon="0.3318940">
        <ele>504.8</ele>
        <time>2020-08-07T08:40:29Z</time>
      </trkpt>
      <trkpt lat="40.9567640" lon="0.3318930">
        <ele>504.8</ele>
        <time>2020-08-07T08:40:30Z</time>
      </trkpt>
      <trkpt lat="40.9567630" lon="0.3318920">
        <ele>504.8</ele>
        <time>2020-08-07T08:40:32Z</time>
      </trkpt>
      <trkpt lat="40.9567230" lon="0.3318630">
        <ele>504.8</ele>
        <time>2020-08-07T08:40:47Z</time>
      </trkpt>
      <trkpt lat="40.9567340" lon="0.3318560">
        <ele>504.9</ele>
        <time>2020-08-07T08:40:49Z</time>
      </trkpt>
      <trkpt lat="40.9567400" lon="0.3318550">
        <ele>504.9</ele>
        <time>2020-08-07T08:40:50Z</time>
      </trkpt>
      <trkpt lat="40.9567480" lon="0.3318570">
        <ele>504.9</ele>
        <time>2020-08-07T08:40:52Z</time>
      </trkpt>
      <trkpt lat="40.9567500" lon="0.3318570">
        <ele>504.9</ele>
        <time>2020-08-07T08:40:53Z</time>
      </trkpt>
      <trkpt lat="40.9567510" lon="0.3318560">
        <ele>504.9</ele>
        <time>2020-08-07T08:40:54Z</time>
      </trkpt>
      <trkpt lat="40.9567590" lon="0.3318550">
        <ele>504.9</ele>
        <time>2020-08-07T08:40:56Z</time>
      </trkpt>
      <trkpt lat="40.9567630" lon="0.3318550">
        <ele>504.9</ele>
        <time>2020-08-07T08:40:57Z</time>
      </trkpt>
      <trkpt lat="40.9567650" lon="0.3318560">
        <ele>504.9</ele>
        <time>2020-08-07T08:40:58Z</time>
      </trkpt>
      <trkpt lat="40.9567590" lon="0.3318600">
        <ele>504.9</ele>
        <time>2020-08-07T08:40:59Z</time>
      </trkpt>
      <trkpt lat="40.9567570" lon="0.3318610">
        <ele>504.9</ele>
        <time>2020-08-07T08:41:01Z</time>
      </trkpt>
      <trkpt lat="40.9567560" lon="0.3318610">
        <ele>504.9</ele>
        <time>2020-08-07T08:41:02Z</time>
      </trkpt>
      <trkpt lat="40.9567560" lon="0.3318610">
        <ele>504.9</ele>
        <time>2020-08-07T08:41:04Z</time>
      </trkpt>
      <trkpt lat="40.9567580" lon="0.3318570">
        <ele>505.0</ele>
        <time>2020-08-07T08:41:05Z</time>
      </trkpt>
      <trkpt lat="40.9567590" lon="0.3318540">
        <ele>505.0</ele>
        <time>2020-08-07T08:41:07Z</time>
      </trkpt>
      <trkpt lat="40.9567640" lon="0.3318350">
        <ele>505.0</ele>
        <time>2020-08-07T08:41:08Z</time>
      </trkpt>
      <trkpt lat="40.9567420" lon="0.3318450">
        <ele>505.0</ele>
        <time>2020-08-07T08:41:10Z</time>
      </trkpt>
      <trkpt lat="40.9567300" lon="0.3318570">
        <ele>505.1</ele>
        <time>2020-08-07T08:41:11Z</time>
      </trkpt>
      <trkpt lat="40.9567160" lon="0.3318730">
        <ele>505.1</ele>
        <time>2020-08-07T08:41:12Z</time>
      </trkpt>
      <trkpt lat="40.9566970" lon="0.3318990">
        <ele>505.1</ele>
        <time>2020-08-07T08:41:14Z</time>
      </trkpt>
      <trkpt lat="40.9566900" lon="0.3319170">
        <ele>505.2</ele>
        <time>2020-08-07T08:41:15Z</time>
      </trkpt>
      <trkpt lat="40.9566830" lon="0.3319480">
        <ele>505.2</ele>
        <time>2020-08-07T08:41:17Z</time>
      </trkpt>
      <trkpt lat="40.9566780" lon="0.3319690">
        <ele>505.2</ele>
        <time>2020-08-07T08:41:18Z</time>
      </trkpt>
      <trkpt lat="40.9566720" lon="0.3320000">
        <ele>505.2</ele>
        <time>2020-08-07T08:41:20Z</time>
      </trkpt>
      <trkpt lat="40.9566680" lon="0.3320180">
        <ele>505.2</ele>
        <time>2020-08-07T08:41:21Z</time>
      </trkpt>
      <trkpt lat="40.9566650" lon="0.3320340">
        <ele>505.2</ele>
        <time>2020-08-07T08:41:22Z</time>
      </trkpt>
      <trkpt lat="40.9566640" lon="0.3320610">
        <ele>505.2</ele>
        <time>2020-08-07T08:41:24Z</time>
      </trkpt>
      <trkpt lat="40.9566650" lon="0.3320680">
        <ele>505.2</ele>
        <time>2020-08-07T08:41:25Z</time>
      </trkpt>
      <trkpt lat="40.9566650" lon="0.3320730">
        <ele>505.2</ele>
        <time>2020-08-07T08:41:27Z</time>
      </trkpt>
      <trkpt lat="40.9566650" lon="0.3320780">
        <ele>505.2</ele>
        <time>2020-08-07T08:41:29Z</time>
      </trkpt>
      <trkpt lat="40.9566650" lon="0.3320800">
        <ele>505.2</ele>
        <time>2020-08-07T08:41:30Z</time>
      </trkpt>
      <trkpt lat="40.9566650" lon="0.3320820">
        <ele>505.2</ele>
        <time>2020-08-07T08:41:31Z</time>
      </trkpt>
      <trkpt lat="40.9566660" lon="0.3320840">
        <ele>505.2</ele>
        <time>2020-08-07T08:41:33Z</time>
      </trkpt>
      <trkpt lat="40.9566660" lon="0.3320850">
        <ele>505.2</ele>
        <time>2020-08-07T08:41:34Z</time>
      </trkpt>
      <trkpt lat="40.9566670" lon="0.3320850">
        <ele>505.2</ele>
        <time>2020-08-07T08:41:36Z</time>
      </trkpt>
      <trkpt lat="40.9566830" lon="0.3320940">
        <ele>505.1</ele>
        <time>2020-08-07T08:42:59Z</time>
      </trkpt>
      <trkpt lat="40.9566850" lon="0.3320970">
        <ele>505.1</ele>
        <time>2020-08-07T08:43:00Z</time>
      </trkpt>
      <trkpt lat="40.9566880" lon="0.3320990">
        <ele>505.1</ele>
        <time>2020-08-07T08:43:01Z</time>
      </trkpt>
      <trkpt lat="40.9566900" lon="0.3320980">
        <ele>505.1</ele>
        <time>2020-08-07T08:43:03Z</time>
      </trkpt>
      <trkpt lat="40.9566940" lon="0.3320940">
        <ele>505.1</ele>
        <time>2020-08-07T08:43:04Z</time>
      </trkpt>
      <trkpt lat="40.9566990" lon="0.3320910">
        <ele>505.1</ele>
        <time>2020-08-07T08:43:05Z</time>
      </trkpt>
      <trkpt lat="40.9566980" lon="0.3320760">
        <ele>505.1</ele>
        <time>2020-08-07T08:43:07Z</time>
      </trkpt>
      <trkpt lat="40.9566970" lon="0.3320660">
        <ele>505.1</ele>
        <time>2020-08-07T08:43:08Z</time>
      </trkpt>
      <trkpt lat="40.9566940" lon="0.3320560">
        <ele>505.1</ele>
        <time>2020-08-07T08:43:09Z</time>
      </trkpt>
      <trkpt lat="40.9566940" lon="0.3320530">
        <ele>505.1</ele>
        <time>2020-08-07T08:43:11Z</time>
      </trkpt>
      <trkpt lat="40.9566970" lon="0.3320500">
        <ele>505.1</ele>
        <time>2020-08-07T08:43:12Z</time>
      </trkpt>
      <trkpt lat="40.9567000" lon="0.3320460">
        <ele>505.1</ele>
        <time>2020-08-07T08:43:13Z</time>
      </trkpt>
      <trkpt lat="40.9567030" lon="0.3320430">
        <ele>505.1</ele>
        <time>2020-08-07T08:43:14Z</time>
      </trkpt>
      <trkpt lat="40.9567050" lon="0.3320400">
        <ele>505.1</ele>
        <time>2020-08-07T08:43:16Z</time>
      </trkpt>
      <trkpt lat="40.9567080" lon="0.3320370">
        <ele>505.1</ele>
        <time>2020-08-07T08:43:17Z</time>
      </trkpt>
      <trkpt lat="40.9567110" lon="0.3320330">
        <ele>505.1</ele>
        <time>2020-08-07T08:43:19Z</time>
      </trkpt>
      <trkpt lat="40.9567140" lon="0.3320300">
        <ele>505.1</ele>
        <time>2020-08-07T08:43:21Z</time>
      </trkpt>
      <trkpt lat="40.9567170" lon="0.3320270">
        <ele>505.0</ele>
        <time>2020-08-07T08:43:21Z</time>
      </trkpt>
      <trkpt lat="40.9567230" lon="0.3320240">
        <ele>505.0</ele>
        <time>2020-08-07T08:43:22Z</time>
      </trkpt>
      <trkpt lat="40.9567320" lon="0.3320170">
        <ele>505.0</ele>
        <time>2020-08-07T08:43:23Z</time>
      </trkpt>
      <trkpt lat="40.9567460" lon="0.3320070">
        <ele>505.0</ele>
        <time>2020-08-07T08:43:25Z</time>
      </trkpt>
      <trkpt lat="40.9567600" lon="0.3319860">
        <ele>505.0</ele>
        <time>2020-08-07T08:43:27Z</time>
      </trkpt>
      <trkpt lat="40.9567690" lon="0.3319540">
        <ele>504.7</ele>
        <time>2020-08-07T08:43:29Z</time>
      </trkpt>
      <trkpt lat="40.9567720" lon="0.3319390">
        <ele>504.6</ele>
        <time>2020-08-07T08:43:31Z</time>
      </trkpt>
      <trkpt lat="40.9567690" lon="0.3319270">
        <ele>504.5</ele>
        <time>2020-08-07T08:43:33Z</time>
      </trkpt>
      <trkpt lat="40.9567690" lon="0.3319220">
        <ele>504.4</ele>
        <time>2020-08-07T08:43:34Z</time>
      </trkpt>
      <trkpt lat="40.9567690" lon="0.3319190">
        <ele>504.4</ele>
        <time>2020-08-07T08:43:35Z</time>
      </trkpt>
      <trkpt lat="40.9567680" lon="0.3319120">
        <ele>504.3</ele>
        <time>2020-08-07T08:43:36Z</time>
      </trkpt>
      <trkpt lat="40.9567630" lon="0.3319060">
        <ele>504.3</ele>
        <time>2020-08-07T08:43:38Z</time>
      </trkpt>
      <trkpt lat="40.9567620" lon="0.3319000">
        <ele>504.2</ele>
        <time>2020-08-07T08:43:39Z</time>
      </trkpt>
      <trkpt lat="40.9567630" lon="0.3318930">
        <ele>504.2</ele>
        <time>2020-08-07T08:43:41Z</time>
      </trkpt>
      <trkpt lat="40.9567630" lon="0.3318910">
        <ele>504.1</ele>
        <time>2020-08-07T08:43:42Z</time>
      </trkpt>
      <trkpt lat="40.9567650" lon="0.3318870">
        <ele>504.1</ele>
        <time>2020-08-07T08:43:44Z</time>
      </trkpt>
      <trkpt lat="40.9567660" lon="0.3318830">
        <ele>504.1</ele>
        <time>2020-08-07T08:43:46Z</time>
      </trkpt>
      <trkpt lat="40.9567690" lon="0.3318820">
        <ele>504.0</ele>
        <time>2020-08-07T08:43:48Z</time>
      </trkpt>
      <trkpt lat="40.9567740" lon="0.3318730">
        <ele>503.9</ele>
        <time>2020-08-07T08:43:50Z</time>
      </trkpt>
      <trkpt lat="40.9568140" lon="0.3318490">
        <ele>503.5</ele>
        <time>2020-08-07T08:44:50Z</time>
      </trkpt>
      <trkpt lat="40.9568210" lon="0.3318470">
        <ele>503.4</ele>
        <time>2020-08-07T08:44:51Z</time>
      </trkpt>
      <trkpt lat="40.9568260" lon="0.3318450">
        <ele>503.3</ele>
        <time>2020-08-07T08:44:52Z</time>
      </trkpt>
      <trkpt lat="40.9568300" lon="0.3318410">
        <ele>503.3</ele>
        <time>2020-08-07T08:44:53Z</time>
      </trkpt>
      <trkpt lat="40.9568410" lon="0.3318330">
        <ele>503.2</ele>
        <time>2020-08-07T08:44:55Z</time>
      </trkpt>
      <trkpt lat="40.9568490" lon="0.3318250">
        <ele>503.0</ele>
        <time>2020-08-07T08:44:56Z</time>
      </trkpt>
      <trkpt lat="40.9568540" lon="0.3318170">
        <ele>503.0</ele>
        <time>2020-08-07T08:44:57Z</time>
      </trkpt>
      <trkpt lat="40.9568640" lon="0.3318020">
        <ele>502.8</ele>
        <time>2020-08-07T08:44:59Z</time>
      </trkpt>
      <trkpt lat="40.9568720" lon="0.3317900">
        <ele>502.7</ele>
        <time>2020-08-07T08:45:00Z</time>
      </trkpt>
      <trkpt lat="40.9568850" lon="0.3317640">
        <ele>502.5</ele>
        <time>2020-08-07T08:45:01Z</time>
      </trkpt>
      <trkpt lat="40.9568940" lon="0.3317400">
        <ele>502.3</ele>
        <time>2020-08-07T08:45:03Z</time>
      </trkpt>
      <trkpt lat="40.9568970" lon="0.3317180">
        <ele>502.1</ele>
        <time>2020-08-07T08:45:04Z</time>
      </trkpt>
      <trkpt lat="40.9569030" lon="0.3317010">
        <ele>502.0</ele>
        <time>2020-08-07T08:45:05Z</time>
      </trkpt>
      <trkpt lat="40.9569160" lon="0.3316690">
        <ele>501.8</ele>
        <time>2020-08-07T08:45:07Z</time>
      </trkpt>
      <trkpt lat="40.9569240" lon="0.3316350">
        <ele>501.5</ele>
        <time>2020-08-07T08:45:08Z</time>
      </trkpt>
      <trkpt lat="40.9569260" lon="0.3316230">
        <ele>501.5</ele>
        <time>2020-08-07T08:45:09Z</time>
      </trkpt>
      <trkpt lat="40.9569310" lon="0.3315790">
        <ele>501.2</ele>
        <time>2020-08-07T08:45:10Z</time>
      </trkpt>
      <trkpt lat="40.9569320" lon="0.3315670">
        <ele>501.1</ele>
        <time>2020-08-07T08:45:11Z</time>
      </trkpt>
      <trkpt lat="40.9569340" lon="0.3315440">
        <ele>500.9</ele>
        <time>2020-08-07T08:45:12Z</time>
      </trkpt>
      <trkpt lat="40.9569370" lon="0.3315160">
        <ele>500.7</ele>
        <time>2020-08-07T08:45:14Z</time>
      </trkpt>
      <trkpt lat="40.9569410" lon="0.3314790">
        <ele>500.4</ele>
        <time>2020-08-07T08:45:15Z</time>
      </trkpt>
      <trkpt lat="40.9569420" lon="0.3314390">
        <ele>500.1</ele>
        <time>2020-08-07T08:45:16Z</time>
      </trkpt>
      <trkpt lat="40.9569410" lon="0.3313930">
        <ele>499.6</ele>
        <time>2020-08-07T08:45:18Z</time>
      </trkpt>
      <trkpt lat="40.9569410" lon="0.3313830">
        <ele>499.4</ele>
        <time>2020-08-07T08:45:19Z</time>
      </trkpt>
      <trkpt lat="40.9569410" lon="0.3313740">
        <ele>499.3</ele>
        <time>2020-08-07T08:45:21Z</time>
      </trkpt>
      <trkpt lat="40.9569400" lon="0.3313650">
        <ele>499.2</ele>
        <time>2020-08-07T08:45:22Z</time>
      </trkpt>
      <trkpt lat="40.9569400" lon="0.3313550">
        <ele>499.1</ele>
        <time>2020-08-07T08:45:24Z</time>
      </trkpt>
      <trkpt lat="40.9569400" lon="0.3313460">
        <ele>499.0</ele>
        <time>2020-08-07T08:45:25Z</time>
      </trkpt>
      <trkpt lat="40.9569440" lon="0.3313090">
        <ele>498.6</ele>
        <time>2020-08-07T08:45:26Z</time>
      </trkpt>
      <trkpt lat="40.9569460" lon="0.3312950">
        <ele>498.4</ele>
        <time>2020-08-07T08:45:27Z</time>
      </trkpt>
      <trkpt lat="40.9569470" lon="0.3312750">
        <ele>498.2</ele>
        <time>2020-08-07T08:45:28Z</time>
      </trkpt>
      <trkpt lat="40.9569480" lon="0.3312600">
        <ele>498.0</ele>
        <time>2020-08-07T08:45:30Z</time>
      </trkpt>
      <trkpt lat="40.9569490" lon="0.3312470">
        <ele>497.9</ele>
        <time>2020-08-07T08:45:31Z</time>
      </trkpt>
      <trkpt lat="40.9569460" lon="0.3312210">
        <ele>497.6</ele>
        <time>2020-08-07T08:45:32Z</time>
      </trkpt>
      <trkpt lat="40.9569420" lon="0.3311930">
        <ele>497.2</ele>
        <time>2020-08-07T08:45:33Z</time>
      </trkpt>
      <trkpt lat="40.9569450" lon="0.3311510">
        <ele>496.7</ele>
        <time>2020-08-07T08:45:35Z</time>
      </trkpt>
      <trkpt lat="40.9569460" lon="0.3311000">
        <ele>496.1</ele>
        <time>2020-08-07T08:45:36Z</time>
      </trkpt>
      <trkpt lat="40.9569460" lon="0.3310840">
        <ele>495.9</ele>
        <time>2020-08-07T08:45:37Z</time>
      </trkpt>
      <trkpt lat="40.9569450" lon="0.3310500">
        <ele>495.5</ele>
        <time>2020-08-07T08:45:39Z</time>
      </trkpt>
      <trkpt lat="40.9569440" lon="0.3310340">
        <ele>495.3</ele>
        <time>2020-08-07T08:45:40Z</time>
      </trkpt>
      <trkpt lat="40.9569380" lon="0.3309970">
        <ele>494.8</ele>
        <time>2020-08-07T08:45:41Z</time>
      </trkpt>
      <trkpt lat="40.9569400" lon="0.3309530">
        <ele>494.3</ele>
        <time>2020-08-07T08:45:43Z</time>
      </trkpt>
      <trkpt lat="40.9569420" lon="0.3309400">
        <ele>494.1</ele>
        <time>2020-08-07T08:45:44Z</time>
      </trkpt>
      <trkpt lat="40.9569540" lon="0.3308980">
        <ele>493.5</ele>
        <time>2020-08-07T08:45:45Z</time>
      </trkpt>
      <trkpt lat="40.9569590" lon="0.3308820">
        <ele>493.3</ele>
        <time>2020-08-07T08:45:46Z</time>
      </trkpt>
      <trkpt lat="40.9569760" lon="0.3308440">
        <ele>492.7</ele>
        <time>2020-08-07T08:45:48Z</time>
      </trkpt>
      <trkpt lat="40.9569890" lon="0.3308120">
        <ele>492.2</ele>
        <time>2020-08-07T08:45:49Z</time>
      </trkpt>
      <trkpt lat="40.9570000" lon="0.3307780">
        <ele>491.6</ele>
        <time>2020-08-07T08:45:50Z</time>
      </trkpt>
      <trkpt lat="40.9570080" lon="0.3307480">
        <ele>491.4</ele>
        <time>2020-08-07T08:45:52Z</time>
      </trkpt>
      <trkpt lat="40.9570110" lon="0.3307340">
        <ele>491.3</ele>
        <time>2020-08-07T08:45:54Z</time>
      </trkpt>
      <trkpt lat="40.9570150" lon="0.3307260">
        <ele>491.2</ele>
        <time>2020-08-07T08:45:55Z</time>
      </trkpt>
      <trkpt lat="40.9570180" lon="0.3307210">
        <ele>491.2</ele>
        <time>2020-08-07T08:45:57Z</time>
      </trkpt>
      <trkpt lat="40.9570230" lon="0.3307140">
        <ele>491.1</ele>
        <time>2020-08-07T08:45:59Z</time>
      </trkpt>
      <trkpt lat="40.9570240" lon="0.3307110">
        <ele>491.1</ele>
        <time>2020-08-07T08:46:00Z</time>
      </trkpt>
      <trkpt lat="40.9570280" lon="0.3307040">
        <ele>491.0</ele>
        <time>2020-08-07T08:46:06Z</time>
      </trkpt>
      <trkpt lat="40.9570350" lon="0.3306660">
        <ele>490.7</ele>
        <time>2020-08-07T08:46:09Z</time>
      </trkpt>
      <trkpt lat="40.9570450" lon="0.3306270">
        <ele>490.4</ele>
        <time>2020-08-07T08:46:10Z</time>
      </trkpt>
      <trkpt lat="40.9570530" lon="0.3306070">
        <ele>490.3</ele>
        <time>2020-08-07T08:46:11Z</time>
      </trkpt>
      <trkpt lat="40.9570600" lon="0.3305870">
        <ele>490.1</ele>
        <time>2020-08-07T08:46:12Z</time>
      </trkpt>
      <trkpt lat="40.9570680" lon="0.3305660">
        <ele>489.9</ele>
        <time>2020-08-07T08:46:13Z</time>
      </trkpt>
      <trkpt lat="40.9570750" lon="0.3305460">
        <ele>489.7</ele>
        <time>2020-08-07T08:46:14Z</time>
      </trkpt>
      <trkpt lat="40.9570830" lon="0.3305260">
        <ele>489.6</ele>
        <time>2020-08-07T08:46:16Z</time>
      </trkpt>
      <trkpt lat="40.9570900" lon="0.3305060">
        <ele>489.4</ele>
        <time>2020-08-07T08:46:17Z</time>
      </trkpt>
      <trkpt lat="40.9571330" lon="0.3304180">
        <ele>488.5</ele>
        <time>2020-08-07T08:46:19Z</time>
      </trkpt>
      <trkpt lat="40.9571840" lon="0.3303540">
        <ele>487.7</ele>
        <time>2020-08-07T08:46:20Z</time>
      </trkpt>
      <trkpt lat="40.9573100" lon="0.3301890">
        <ele>485.9</ele>
        <time>2020-08-07T08:46:22Z</time>
      </trkpt>
      <trkpt lat="40.9573690" lon="0.3301120">
        <ele>485.3</ele>
        <time>2020-08-07T08:46:23Z</time>
      </trkpt>
      <trkpt lat="40.9574660" lon="0.3299630">
        <ele>483.5</ele>
        <time>2020-08-07T08:46:25Z</time>
      </trkpt>
      <trkpt lat="40.9574070" lon="0.3300500">
        <ele>484.5</ele>
        <time>2020-08-07T08:46:26Z</time>
      </trkpt>
      <trkpt lat="40.9573560" lon="0.3301280">
        <ele>485.2</ele>
        <time>2020-08-07T08:46:27Z</time>
      </trkpt>
      <trkpt lat="40.9572880" lon="0.3301910">
        <ele>485.9</ele>
        <time>2020-08-07T08:46:28Z</time>
      </trkpt>
      <trkpt lat="40.9572420" lon="0.3302150">
        <ele>486.3</ele>
        <time>2020-08-07T08:46:30Z</time>
      </trkpt>
      <trkpt lat="40.9572080" lon="0.3302040">
        <ele>486.6</ele>
        <time>2020-08-07T08:46:31Z</time>
      </trkpt>
      <trkpt lat="40.9571990" lon="0.3301930">
        <ele>486.4</ele>
        <time>2020-08-07T08:46:32Z</time>
      </trkpt>
      <trkpt lat="40.9571920" lon="0.3301470">
        <ele>485.2</ele>
        <time>2020-08-07T08:46:34Z</time>
      </trkpt>
      <trkpt lat="40.9571900" lon="0.3301280">
        <ele>485.0</ele>
        <time>2020-08-07T08:46:35Z</time>
      </trkpt>
      <trkpt lat="40.9571960" lon="0.3300880">
        <ele>484.4</ele>
        <time>2020-08-07T08:46:36Z</time>
      </trkpt>
      <trkpt lat="40.9572020" lon="0.3300510">
        <ele>483.7</ele>
        <time>2020-08-07T08:46:37Z</time>
      </trkpt>
      <trkpt lat="40.9572070" lon="0.3299980">
        <ele>483.0</ele>
        <time>2020-08-07T08:46:38Z</time>
      </trkpt>
      <trkpt lat="40.9572100" lon="0.3299570">
        <ele>482.4</ele>
        <time>2020-08-07T08:46:40Z</time>
      </trkpt>
      <trkpt lat="40.9572110" lon="0.3299110">
        <ele>481.7</ele>
        <time>2020-08-07T08:46:41Z</time>
      </trkpt>
      <trkpt lat="40.9572040" lon="0.3298530">
        <ele>481.0</ele>
        <time>2020-08-07T08:46:43Z</time>
      </trkpt>
      <trkpt lat="40.9571950" lon="0.3298150">
        <ele>480.3</ele>
        <time>2020-08-07T08:46:44Z</time>
      </trkpt>
      <trkpt lat="40.9571760" lon="0.3297730">
        <ele>479.9</ele>
        <time>2020-08-07T08:46:45Z</time>
      </trkpt>
      <trkpt lat="40.9571680" lon="0.3297610">
        <ele>479.3</ele>
        <time>2020-08-07T08:46:46Z</time>
      </trkpt>
      <trkpt lat="40.9571420" lon="0.3297330">
        <ele>479.3</ele>
        <time>2020-08-07T08:46:47Z</time>
      </trkpt>
      <trkpt lat="40.9571100" lon="0.3297020">
        <ele>478.7</ele>
        <time>2020-08-07T08:46:49Z</time>
      </trkpt>
      <trkpt lat="40.9570770" lon="0.3296810">
        <ele>478.6</ele>
        <time>2020-08-07T08:46:50Z</time>
      </trkpt>
      <trkpt lat="40.9570650" lon="0.3296800">
        <ele>478.5</ele>
        <time>2020-08-07T08:46:51Z</time>
      </trkpt>
      <trkpt lat="40.9570400" lon="0.3296780">
        <ele>478.3</ele>
        <time>2020-08-07T08:46:52Z</time>
      </trkpt>
      <trkpt lat="40.9569880" lon="0.3296770">
        <ele>478.2</ele>
        <time>2020-08-07T08:46:54Z</time>
      </trkpt>
      <trkpt lat="40.9569530" lon="0.3296820">
        <ele>478.0</ele>
        <time>2020-08-07T08:46:55Z</time>
      </trkpt>
      <trkpt lat="40.9569180" lon="0.3296960">
        <ele>477.8</ele>
        <time>2020-08-07T08:46:56Z</time>
      </trkpt>
      <trkpt lat="40.9568560" lon="0.3297030">
        <ele>477.6</ele>
        <time>2020-08-07T08:46:58Z</time>
      </trkpt>
      <trkpt lat="40.9568170" lon="0.3297230">
        <ele>477.8</ele>
        <time>2020-08-07T08:46:59Z</time>
      </trkpt>
      <trkpt lat="40.9567620" lon="0.3297530">
        <ele>477.6</ele>
        <time>2020-08-07T08:47:01Z</time>
      </trkpt>
      <trkpt lat="40.9567220" lon="0.3297620">
        <ele>478.0</ele>
        <time>2020-08-07T08:47:02Z</time>
      </trkpt>
      <trkpt lat="40.9566860" lon="0.3297740">
        <ele>477.8</ele>
        <time>2020-08-07T08:47:03Z</time>
      </trkpt>
      <trkpt lat="40.9566410" lon="0.3297830">
        <ele>477.6</ele>
        <time>2020-08-07T08:47:04Z</time>
      </trkpt>
      <trkpt lat="40.9565370" lon="0.3297760">
        <ele>477.4</ele>
        <time>2020-08-07T08:47:06Z</time>
      </trkpt>
      <trkpt lat="40.9564610" lon="0.3297310">
        <ele>476.3</ele>
        <time>2020-08-07T08:47:07Z</time>
      </trkpt>
      <trkpt lat="40.9563920" lon="0.3296790">
        <ele>475.3</ele>
        <time>2020-08-07T08:47:08Z</time>
      </trkpt>
      <trkpt lat="40.9563340" lon="0.3296220">
        <ele>474.0</ele>
        <time>2020-08-07T08:47:09Z</time>
      </trkpt>
      <trkpt lat="40.9562810" lon="0.3295650">
        <ele>473.2</ele>
        <time>2020-08-07T08:47:10Z</time>
      </trkpt>
      <trkpt lat="40.9562210" lon="0.3294470">
        <ele>471.9</ele>
        <time>2020-08-07T08:47:12Z</time>
      </trkpt>
      <trkpt lat="40.9561730" lon="0.3293310">
        <ele>471.7</ele>
        <time>2020-08-07T08:47:14Z</time>
      </trkpt>
      <trkpt lat="40.9561940" lon="0.3291910">
        <ele>471.6</ele>
        <time>2020-08-07T08:47:16Z</time>
      </trkpt>
      <trkpt lat="40.9562110" lon="0.3291220">
        <ele>471.5</ele>
        <time>2020-08-07T08:47:17Z</time>
      </trkpt>
      <trkpt lat="40.9562260" lon="0.3290520">
        <ele>471.5</ele>
        <time>2020-08-07T08:47:18Z</time>
      </trkpt>
      <trkpt lat="40.9562350" lon="0.3289820">
        <ele>471.4</ele>
        <time>2020-08-07T08:47:19Z</time>
      </trkpt>
      <trkpt lat="40.9562370" lon="0.3288550">
        <ele>471.3</ele>
        <time>2020-08-07T08:47:21Z</time>
      </trkpt>
      <trkpt lat="40.9562200" lon="0.3287600">
        <ele>471.2</ele>
        <time>2020-08-07T08:47:23Z</time>
      </trkpt>
      <trkpt lat="40.9562120" lon="0.3287130">
        <ele>471.1</ele>
        <time>2020-08-07T08:47:24Z</time>
      </trkpt>
      <trkpt lat="40.9561880" lon="0.3285970">
        <ele>470.9</ele>
        <time>2020-08-07T08:47:26Z</time>
      </trkpt>
      <trkpt lat="40.9561760" lon="0.3285480">
        <ele>470.8</ele>
        <time>2020-08-07T08:47:27Z</time>
      </trkpt>
      <trkpt lat="40.9561670" lon="0.3285080">
        <ele>470.7</ele>
        <time>2020-08-07T08:47:28Z</time>
      </trkpt>
      <trkpt lat="40.9561530" lon="0.3284610">
        <ele>470.5</ele>
        <time>2020-08-07T08:47:30Z</time>
      </trkpt>
      <trkpt lat="40.9561490" lon="0.3284540">
        <ele>470.5</ele>
        <time>2020-08-07T08:47:32Z</time>
      </trkpt>
      <trkpt lat="40.9561520" lon="0.3284600">
        <ele>470.5</ele>
        <time>2020-08-07T08:47:33Z</time>
      </trkpt>
      <trkpt lat="40.9561570" lon="0.3284700">
        <ele>470.4</ele>
        <time>2020-08-07T08:47:35Z</time>
      </trkpt>
      <trkpt lat="40.9561590" lon="0.3284710">
        <ele>470.4</ele>
        <time>2020-08-07T08:47:36Z</time>
      </trkpt>
      <trkpt lat="40.9561610" lon="0.3284700">
        <ele>470.4</ele>
        <time>2020-08-07T08:47:37Z</time>
      </trkpt>
      <trkpt lat="40.9561630" lon="0.3284700">
        <ele>470.4</ele>
        <time>2020-08-07T08:47:38Z</time>
      </trkpt>
      <trkpt lat="40.9561650" lon="0.3284710">
        <ele>470.4</ele>
        <time>2020-08-07T08:47:40Z</time>
      </trkpt>
      <trkpt lat="40.9561640" lon="0.3284690">
        <ele>470.4</ele>
        <time>2020-08-07T08:47:42Z</time>
      </trkpt>
      <trkpt lat="40.9561640" lon="0.3284660">
        <ele>470.4</ele>
        <time>2020-08-07T08:47:43Z</time>
      </trkpt>
      <trkpt lat="40.9561630" lon="0.3284550">
        <ele>470.3</ele>
        <time>2020-08-07T08:47:45Z</time>
      </trkpt>
      <trkpt lat="40.9561630" lon="0.3284470">
        <ele>470.3</ele>
        <time>2020-08-07T08:47:46Z</time>
      </trkpt>
      <trkpt lat="40.9561620" lon="0.3284120">
        <ele>470.2</ele>
        <time>2020-08-07T08:47:48Z</time>
      </trkpt>
      <trkpt lat="40.9561600" lon="0.3283920">
        <ele>470.1</ele>
        <time>2020-08-07T08:47:49Z</time>
      </trkpt>
      <trkpt lat="40.9561600" lon="0.3283680">
        <ele>470.1</ele>
        <time>2020-08-07T08:47:50Z</time>
      </trkpt>
      <trkpt lat="40.9561610" lon="0.3283440">
        <ele>470.0</ele>
        <time>2020-08-07T08:47:51Z</time>
      </trkpt>
      <trkpt lat="40.9561630" lon="0.3283200">
        <ele>469.9</ele>
        <time>2020-08-07T08:47:52Z</time>
      </trkpt>
      <trkpt lat="40.9561570" lon="0.3282640">
        <ele>469.7</ele>
        <time>2020-08-07T08:47:54Z</time>
      </trkpt>
      <trkpt lat="40.9561450" lon="0.3281800">
        <ele>469.4</ele>
        <time>2020-08-07T08:47:56Z</time>
      </trkpt>
      <trkpt lat="40.9561390" lon="0.3281280">
        <ele>469.2</ele>
        <time>2020-08-07T08:47:57Z</time>
      </trkpt>
      <trkpt lat="40.9561330" lon="0.3280720">
        <ele>469.0</ele>
        <time>2020-08-07T08:47:58Z</time>
      </trkpt>
      <trkpt lat="40.9561300" lon="0.3280170">
        <ele>468.8</ele>
        <time>2020-08-07T08:47:59Z</time>
      </trkpt>
      <trkpt lat="40.9561490" lon="0.3278810">
        <ele>468.2</ele>
        <time>2020-08-07T08:48:01Z</time>
      </trkpt>
      <trkpt lat="40.9561710" lon="0.3278190">
        <ele>467.7</ele>
        <time>2020-08-07T08:48:02Z</time>
      </trkpt>
      <trkpt lat="40.9561990" lon="0.3277470">
        <ele>467.2</ele>
        <time>2020-08-07T08:48:04Z</time>
      </trkpt>
      <trkpt lat="40.9562140" lon="0.3277040">
        <ele>466.9</ele>
        <time>2020-08-07T08:48:05Z</time>
      </trkpt>
      <trkpt lat="40.9562230" lon="0.3276690">
        <ele>466.6</ele>
        <time>2020-08-07T08:48:06Z</time>
      </trkpt>
      <trkpt lat="40.9562490" lon="0.3275850">
        <ele>465.9</ele>
        <time>2020-08-07T08:48:08Z</time>
      </trkpt>
      <trkpt lat="40.9562660" lon="0.3275430">
        <ele>465.6</ele>
        <time>2020-08-07T08:48:09Z</time>
      </trkpt>
      <trkpt lat="40.9563050" lon="0.3274320">
        <ele>464.6</ele>
        <time>2020-08-07T08:48:11Z</time>
      </trkpt>
      <trkpt lat="40.9563230" lon="0.3273730">
        <ele>464.1</ele>
        <time>2020-08-07T08:48:12Z</time>
      </trkpt>
      <trkpt lat="40.9563530" lon="0.3272350">
        <ele>463.0</ele>
        <time>2020-08-07T08:48:14Z</time>
      </trkpt>
      <trkpt lat="40.9563650" lon="0.3271610">
        <ele>462.5</ele>
        <time>2020-08-07T08:48:15Z</time>
      </trkpt>
      <trkpt lat="40.9563760" lon="0.3270010">
        <ele>461.5</ele>
        <time>2020-08-07T08:48:17Z</time>
      </trkpt>
      <trkpt lat="40.9563590" lon="0.3268340">
        <ele>460.7</ele>
        <time>2020-08-07T08:48:19Z</time>
      </trkpt>
      <trkpt lat="40.9563330" lon="0.3266760">
        <ele>460.1</ele>
        <time>2020-08-07T08:48:21Z</time>
      </trkpt>
      <trkpt lat="40.9563160" lon="0.3265390">
        <ele>459.8</ele>
        <time>2020-08-07T08:48:23Z</time>
      </trkpt>
      <trkpt lat="40.9563050" lon="0.3264240">
        <ele>459.7</ele>
        <time>2020-08-07T08:48:25Z</time>
      </trkpt>
      <trkpt lat="40.9563070" lon="0.3263560">
        <ele>459.5</ele>
        <time>2020-08-07T08:48:27Z</time>
      </trkpt>
      <trkpt lat="40.9563280" lon="0.3263280">
        <ele>459.5</ele>
        <time>2020-08-07T08:48:28Z</time>
      </trkpt>
      <trkpt lat="40.9563390" lon="0.3263200">
        <ele>459.5</ele>
        <time>2020-08-07T08:48:29Z</time>
      </trkpt>
      <trkpt lat="40.9563800" lon="0.3263570">
        <ele>459.6</ele>
        <time>2020-08-07T08:48:31Z</time>
      </trkpt>
      <trkpt lat="40.9563990" lon="0.3263890">
        <ele>459.6</ele>
        <time>2020-08-07T08:48:32Z</time>
      </trkpt>
      <trkpt lat="40.9564210" lon="0.3264290">
        <ele>459.5</ele>
        <time>2020-08-07T08:48:34Z</time>
      </trkpt>
      <trkpt lat="40.9564350" lon="0.3264440">
        <ele>459.5</ele>
        <time>2020-08-07T08:48:35Z</time>
      </trkpt>
      <trkpt lat="40.9564640" lon="0.3264740">
        <ele>459.5</ele>
        <time>2020-08-07T08:48:37Z</time>
      </trkpt>
      <trkpt lat="40.9564850" lon="0.3265000">
        <ele>459.5</ele>
        <time>2020-08-07T08:48:38Z</time>
      </trkpt>
      <trkpt lat="40.9564910" lon="0.3265100">
        <ele>459.4</ele>
        <time>2020-08-07T08:48:39Z</time>
      </trkpt>
      <trkpt lat="40.9565130" lon="0.3265420">
        <ele>459.4</ele>
        <time>2020-08-07T08:48:40Z</time>
      </trkpt>
      <trkpt lat="40.9565200" lon="0.3265520">
        <ele>459.4</ele>
        <time>2020-08-07T08:48:41Z</time>
      </trkpt>
      <trkpt lat="40.9565540" lon="0.3265940">
        <ele>459.3</ele>
        <time>2020-08-07T08:48:43Z</time>
      </trkpt>
      <trkpt lat="40.9565740" lon="0.3266190">
        <ele>459.3</ele>
        <time>2020-08-07T08:48:44Z</time>
      </trkpt>
      <trkpt lat="40.9566040" lon="0.3266530">
        <ele>459.2</ele>
        <time>2020-08-07T08:48:45Z</time>
      </trkpt>
      <trkpt lat="40.9566130" lon="0.3266640">
        <ele>459.2</ele>
        <time>2020-08-07T08:48:46Z</time>
      </trkpt>
      <trkpt lat="40.9566340" lon="0.3266880">
        <ele>459.1</ele>
        <time>2020-08-07T08:48:47Z</time>
      </trkpt>
      <trkpt lat="40.9566560" lon="0.3267170">
        <ele>459.1</ele>
        <time>2020-08-07T08:48:48Z</time>
      </trkpt>
      <trkpt lat="40.9566770" lon="0.3267480">
        <ele>459.0</ele>
        <time>2020-08-07T08:48:49Z</time>
      </trkpt>
      <trkpt lat="40.9567110" lon="0.3268020">
        <ele>458.9</ele>
        <time>2020-08-07T08:48:51Z</time>
      </trkpt>
      <trkpt lat="40.9567330" lon="0.3268340">
        <ele>458.9</ele>
        <time>2020-08-07T08:48:52Z</time>
      </trkpt>
      <trkpt lat="40.9567560" lon="0.3268670">
        <ele>458.8</ele>
        <time>2020-08-07T08:48:53Z</time>
      </trkpt>
      <trkpt lat="40.9567780" lon="0.3268960">
        <ele>458.8</ele>
        <time>2020-08-07T08:48:54Z</time>
      </trkpt>
      <trkpt lat="40.9568230" lon="0.3269560">
        <ele>458.6</ele>
        <time>2020-08-07T08:48:56Z</time>
      </trkpt>
      <trkpt lat="40.9568460" lon="0.3269870">
        <ele>458.5</ele>
        <time>2020-08-07T08:48:57Z</time>
      </trkpt>
      <trkpt lat="40.9569030" lon="0.3270500">
        <ele>458.3</ele>
        <time>2020-08-07T08:48:59Z</time>
      </trkpt>
      <trkpt lat="40.9569680" lon="0.3271050">
        <ele>458.1</ele>
        <time>2020-08-07T08:49:01Z</time>
      </trkpt>
      <trkpt lat="40.9570090" lon="0.3271330">
        <ele>458.0</ele>
        <time>2020-08-07T08:49:02Z</time>
      </trkpt>
      <trkpt lat="40.9570440" lon="0.3271500">
        <ele>457.8</ele>
        <time>2020-08-07T08:49:03Z</time>
      </trkpt>
      <trkpt lat="40.9570850" lon="0.3271680">
        <ele>457.7</ele>
        <time>2020-08-07T08:49:04Z</time>
      </trkpt>
      <trkpt lat="40.9571220" lon="0.3271820">
        <ele>457.6</ele>
        <time>2020-08-07T08:49:05Z</time>
      </trkpt>
      <trkpt lat="40.9571970" lon="0.3272130">
        <ele>457.4</ele>
        <time>2020-08-07T08:49:07Z</time>
      </trkpt>
      <trkpt lat="40.9572760" lon="0.3272440">
        <ele>457.3</ele>
        <time>2020-08-07T08:49:09Z</time>
      </trkpt>
      <trkpt lat="40.9573510" lon="0.3272850">
        <ele>457.3</ele>
        <time>2020-08-07T08:49:11Z</time>
      </trkpt>
      <trkpt lat="40.9573930" lon="0.3273070">
        <ele>457.3</ele>
        <time>2020-08-07T08:49:12Z</time>
      </trkpt>
      <trkpt lat="40.9574640" lon="0.3273360">
        <ele>457.3</ele>
        <time>2020-08-07T08:49:14Z</time>
      </trkpt>
      <trkpt lat="40.9574930" lon="0.3273470">
        <ele>457.4</ele>
        <time>2020-08-07T08:49:15Z</time>
      </trkpt>
      <trkpt lat="40.9575640" lon="0.3273720">
        <ele>457.5</ele>
        <time>2020-08-07T08:49:17Z</time>
      </trkpt>
      <trkpt lat="40.9576230" lon="0.3273940">
        <ele>457.6</ele>
        <time>2020-08-07T08:49:19Z</time>
      </trkpt>
      <trkpt lat="40.9576790" lon="0.3274200">
        <ele>457.8</ele>
        <time>2020-08-07T08:49:21Z</time>
      </trkpt>
      <trkpt lat="40.9577020" lon="0.3274310">
        <ele>457.8</ele>
        <time>2020-08-07T08:49:22Z</time>
      </trkpt>
      <trkpt lat="40.9577560" lon="0.3274560">
        <ele>457.9</ele>
        <time>2020-08-07T08:49:24Z</time>
      </trkpt>
      <trkpt lat="40.9577830" lon="0.3274680">
        <ele>458.0</ele>
        <time>2020-08-07T08:49:25Z</time>
      </trkpt>
      <trkpt lat="40.9578090" lon="0.3274810">
        <ele>458.0</ele>
        <time>2020-08-07T08:49:26Z</time>
      </trkpt>
      <trkpt lat="40.9578650" lon="0.3275130">
        <ele>458.1</ele>
        <time>2020-08-07T08:49:28Z</time>
      </trkpt>
      <trkpt lat="40.9579200" lon="0.3275370">
        <ele>458.1</ele>
        <time>2020-08-07T08:49:30Z</time>
      </trkpt>
      <trkpt lat="40.9579460" lon="0.3275440">
        <ele>458.1</ele>
        <time>2020-08-07T08:49:31Z</time>
      </trkpt>
      <trkpt lat="40.9580070" lon="0.3275550">
        <ele>458.1</ele>
        <time>2020-08-07T08:49:33Z</time>
      </trkpt>
      <trkpt lat="40.9580420" lon="0.3275610">
        <ele>458.0</ele>
        <time>2020-08-07T08:49:34Z</time>
      </trkpt>
      <trkpt lat="40.9581070" lon="0.3275660">
        <ele>457.9</ele>
        <time>2020-08-07T08:49:36Z</time>
      </trkpt>
      <trkpt lat="40.9581740" lon="0.3275670">
        <ele>457.8</ele>
        <time>2020-08-07T08:49:38Z</time>
      </trkpt>
      <trkpt lat="40.9582410" lon="0.3275730">
        <ele>457.7</ele>
        <time>2020-08-07T08:49:40Z</time>
      </trkpt>
      <trkpt lat="40.9582820" lon="0.3275780">
        <ele>457.5</ele>
        <time>2020-08-07T08:49:41Z</time>
      </trkpt>
      <trkpt lat="40.9583210" lon="0.3275850">
        <ele>457.4</ele>
        <time>2020-08-07T08:49:42Z</time>
      </trkpt>
      <trkpt lat="40.9584080" lon="0.3276050">
        <ele>457.1</ele>
        <time>2020-08-07T08:49:44Z</time>
      </trkpt>
      <trkpt lat="40.9584480" lon="0.3276180">
        <ele>457.0</ele>
        <time>2020-08-07T08:49:45Z</time>
      </trkpt>
      <trkpt lat="40.9584960" lon="0.3276360">
        <ele>456.8</ele>
        <time>2020-08-07T08:49:46Z</time>
      </trkpt>
      <trkpt lat="40.9585410" lon="0.3276530">
        <ele>456.6</ele>
        <time>2020-08-07T08:49:47Z</time>
      </trkpt>
      <trkpt lat="40.9586170" lon="0.3276770">
        <ele>456.2</ele>
        <time>2020-08-07T08:49:49Z</time>
      </trkpt>
      <trkpt lat="40.9587200" lon="0.3277140">
        <ele>455.8</ele>
        <time>2020-08-07T08:49:51Z</time>
      </trkpt>
      <trkpt lat="40.9587690" lon="0.3277320">
        <ele>455.6</ele>
        <time>2020-08-07T08:49:52Z</time>
      </trkpt>
      <trkpt lat="40.9588170" lon="0.3277480">
        <ele>455.4</ele>
        <time>2020-08-07T08:49:53Z</time>
      </trkpt>
      <trkpt lat="40.9589130" lon="0.3277940">
        <ele>455.0</ele>
        <time>2020-08-07T08:49:55Z</time>
      </trkpt>
      <trkpt lat="40.9590120" lon="0.3278340">
        <ele>454.6</ele>
        <time>2020-08-07T08:49:57Z</time>
      </trkpt>
      <trkpt lat="40.9590580" lon="0.3278540">
        <ele>454.3</ele>
        <time>2020-08-07T08:49:58Z</time>
      </trkpt>
      <trkpt lat="40.9591060" lon="0.3278710">
        <ele>454.0</ele>
        <time>2020-08-07T08:49:59Z</time>
      </trkpt>
      <trkpt lat="40.9591550" lon="0.3278830">
        <ele>453.7</ele>
        <time>2020-08-07T08:50:00Z</time>
      </trkpt>
      <trkpt lat="40.9592050" lon="0.3278890">
        <ele>453.3</ele>
        <time>2020-08-07T08:50:01Z</time>
      </trkpt>
      <trkpt lat="40.9593100" lon="0.3279040">
        <ele>452.3</ele>
        <time>2020-08-07T08:50:03Z</time>
      </trkpt>
      <trkpt lat="40.9594230" lon="0.3279010">
        <ele>451.2</ele>
        <time>2020-08-07T08:50:05Z</time>
      </trkpt>
      <trkpt lat="40.9595440" lon="0.3278860">
        <ele>450.0</ele>
        <time>2020-08-07T08:50:07Z</time>
      </trkpt>
      <trkpt lat="40.9596090" lon="0.3278770">
        <ele>449.3</ele>
        <time>2020-08-07T08:50:08Z</time>
      </trkpt>
      <trkpt lat="40.9596710" lon="0.3278570">
        <ele>448.6</ele>
        <time>2020-08-07T08:50:09Z</time>
      </trkpt>
      <trkpt lat="40.9597690" lon="0.3277980">
        <ele>447.4</ele>
        <time>2020-08-07T08:50:11Z</time>
      </trkpt>
      <trkpt lat="40.9598550" lon="0.3276940">
        <ele>446.0</ele>
        <time>2020-08-07T08:50:13Z</time>
      </trkpt>
      <trkpt lat="40.9599290" lon="0.3276260">
        <ele>444.9</ele>
        <time>2020-08-07T08:50:15Z</time>
      </trkpt>
      <trkpt lat="40.9599720" lon="0.3276020">
        <ele>444.3</ele>
        <time>2020-08-07T08:50:16Z</time>
      </trkpt>
      <trkpt lat="40.9600190" lon="0.3275990">
        <ele>443.8</ele>
        <time>2020-08-07T08:50:17Z</time>
      </trkpt>
      <trkpt lat="40.9601170" lon="0.3276560">
        <ele>442.6</ele>
        <time>2020-08-07T08:50:19Z</time>
      </trkpt>
      <trkpt lat="40.9601650" lon="0.3276990">
        <ele>441.9</ele>
        <time>2020-08-07T08:50:20Z</time>
      </trkpt>
      <trkpt lat="40.9602510" lon="0.3277940">
        <ele>440.7</ele>
        <time>2020-08-07T08:50:22Z</time>
      </trkpt>
      <trkpt lat="40.9602950" lon="0.3278490">
        <ele>440.0</ele>
        <time>2020-08-07T08:50:23Z</time>
      </trkpt>
      <trkpt lat="40.9603360" lon="0.3279070">
        <ele>439.4</ele>
        <time>2020-08-07T08:50:24Z</time>
      </trkpt>
      <trkpt lat="40.9603810" lon="0.3279660">
        <ele>438.7</ele>
        <time>2020-08-07T08:50:25Z</time>
      </trkpt>
      <trkpt lat="40.9604690" lon="0.3280770">
        <ele>437.4</ele>
        <time>2020-08-07T08:50:27Z</time>
      </trkpt>
      <trkpt lat="40.9605120" lon="0.3281270">
        <ele>436.8</ele>
        <time>2020-08-07T08:50:28Z</time>
      </trkpt>
      <trkpt lat="40.9605520" lon="0.3281820">
        <ele>436.2</ele>
        <time>2020-08-07T08:50:29Z</time>
      </trkpt>
      <trkpt lat="40.9606440" lon="0.3282840">
        <ele>434.9</ele>
        <time>2020-08-07T08:50:31Z</time>
      </trkpt>
      <trkpt lat="40.9606950" lon="0.3283260">
        <ele>434.2</ele>
        <time>2020-08-07T08:50:32Z</time>
      </trkpt>
      <trkpt lat="40.9607470" lon="0.3283610">
        <ele>433.7</ele>
        <time>2020-08-07T08:50:33Z</time>
      </trkpt>
      <trkpt lat="40.9608610" lon="0.3283980">
        <ele>432.8</ele>
        <time>2020-08-07T08:50:35Z</time>
      </trkpt>
      <trkpt lat="40.9609190" lon="0.3284120">
        <ele>432.3</ele>
        <time>2020-08-07T08:50:36Z</time>
      </trkpt>
      <trkpt lat="40.9609740" lon="0.3284380">
        <ele>431.9</ele>
        <time>2020-08-07T08:50:37Z</time>
      </trkpt>
      <trkpt lat="40.9610800" lon="0.3284990">
        <ele>431.1</ele>
        <time>2020-08-07T08:50:39Z</time>
      </trkpt>
      <trkpt lat="40.9611350" lon="0.3285210">
        <ele>430.7</ele>
        <time>2020-08-07T08:50:40Z</time>
      </trkpt>
      <trkpt lat="40.9611920" lon="0.3285340">
        <ele>430.4</ele>
        <time>2020-08-07T08:50:41Z</time>
      </trkpt>
      <trkpt lat="40.9612480" lon="0.3285410">
        <ele>430.2</ele>
        <time>2020-08-07T08:50:42Z</time>
      </trkpt>
      <trkpt lat="40.9613360" lon="0.3285200">
        <ele>429.9</ele>
        <time>2020-08-07T08:50:44Z</time>
      </trkpt>
      <trkpt lat="40.9613740" lon="0.3284900">
        <ele>429.7</ele>
        <time>2020-08-07T08:50:45Z</time>
      </trkpt>
      <trkpt lat="40.9614210" lon="0.3284670">
        <ele>429.6</ele>
        <time>2020-08-07T08:50:46Z</time>
      </trkpt>
      <trkpt lat="40.9614850" lon="0.3284180">
        <ele>429.3</ele>
        <time>2020-08-07T08:50:48Z</time>
      </trkpt>
      <trkpt lat="40.9615200" lon="0.3283860">
        <ele>429.1</ele>
        <time>2020-08-07T08:50:49Z</time>
      </trkpt>
      <trkpt lat="40.9615490" lon="0.3283600">
        <ele>429.0</ele>
        <time>2020-08-07T08:50:50Z</time>
      </trkpt>
      <trkpt lat="40.9616100" lon="0.3283170">
        <ele>428.8</ele>
        <time>2020-08-07T08:50:52Z</time>
      </trkpt>
      <trkpt lat="40.9616480" lon="0.3283020">
        <ele>428.6</ele>
        <time>2020-08-07T08:50:53Z</time>
      </trkpt>
      <trkpt lat="40.9616620" lon="0.3283430">
        <ele>428.5</ele>
        <time>2020-08-07T08:50:55Z</time>
      </trkpt>
      <trkpt lat="40.9617110" lon="0.3283380">
        <ele>428.3</ele>
        <time>2020-08-07T08:50:56Z</time>
      </trkpt>
      <trkpt lat="40.9617660" lon="0.3283570">
        <ele>428.3</ele>
        <time>2020-08-07T08:50:57Z</time>
      </trkpt>
      <trkpt lat="40.9618030" lon="0.3283740">
        <ele>428.2</ele>
        <time>2020-08-07T08:50:59Z</time>
      </trkpt>
      <trkpt lat="40.9618330" lon="0.3284000">
        <ele>428.2</ele>
        <time>2020-08-07T08:51:00Z</time>
      </trkpt>
      <trkpt lat="40.9618540" lon="0.3284300">
        <ele>428.2</ele>
        <time>2020-08-07T08:51:01Z</time>
      </trkpt>
      <trkpt lat="40.9618570" lon="0.3284370">
        <ele>428.1</ele>
        <time>2020-08-07T08:51:03Z</time>
      </trkpt>
      <trkpt lat="40.9618480" lon="0.3284300">
        <ele>428.1</ele>
        <time>2020-08-07T08:51:05Z</time>
      </trkpt>
      <trkpt lat="40.9618380" lon="0.3284240">
        <ele>428.1</ele>
        <time>2020-08-07T08:51:06Z</time>
      </trkpt>
      <trkpt lat="40.9618290" lon="0.3284180">
        <ele>428.1</ele>
        <time>2020-08-07T08:51:08Z</time>
      </trkpt>
      <trkpt lat="40.9618200" lon="0.3284120">
        <ele>428.1</ele>
        <time>2020-08-07T08:51:10Z</time>
      </trkpt>
      <trkpt lat="40.9618110" lon="0.3284050">
        <ele>428.1</ele>
        <time>2020-08-07T08:51:15Z</time>
      </trkpt>
      <trkpt lat="40.9618020" lon="0.3283990">
        <ele>428.1</ele>
        <time>2020-08-07T08:51:17Z</time>
      </trkpt>
      <trkpt lat="40.9617930" lon="0.3283930">
        <ele>428.1</ele>
        <time>2020-08-07T08:52:07Z</time>
      </trkpt>
      <trkpt lat="40.9617830" lon="0.3283870">
        <ele>428.1</ele>
        <time>2020-08-07T08:52:08Z</time>
      </trkpt>
      <trkpt lat="40.9617740" lon="0.3283800">
        <ele>428.1</ele>
        <time>2020-08-07T08:52:10Z</time>
      </trkpt>
      <trkpt lat="40.9617650" lon="0.3283740">
        <ele>428.1</ele>
        <time>2020-08-07T08:52:11Z</time>
      </trkpt>
      <trkpt lat="40.9617570" lon="0.3283630">
        <ele>428.0</ele>
        <time>2020-08-07T08:52:12Z</time>
      </trkpt>
      <trkpt lat="40.9617500" lon="0.3283500">
        <ele>428.0</ele>
        <time>2020-08-07T08:52:13Z</time>
      </trkpt>
      <trkpt lat="40.9617470" lon="0.3283340">
        <ele>428.0</ele>
        <time>2020-08-07T08:52:14Z</time>
      </trkpt>
      <trkpt lat="40.9617500" lon="0.3283030">
        <ele>428.0</ele>
        <time>2020-08-07T08:52:16Z</time>
      </trkpt>
      <trkpt lat="40.9617680" lon="0.3282910">
        <ele>428.0</ele>
        <time>2020-08-07T08:52:18Z</time>
      </trkpt>
      <trkpt lat="40.9617760" lon="0.3282840">
        <ele>428.0</ele>
        <time>2020-08-07T08:52:19Z</time>
      </trkpt>
      <trkpt lat="40.9617930" lon="0.3282690">
        <ele>427.9</ele>
        <time>2020-08-07T08:52:20Z</time>
      </trkpt>
      <trkpt lat="40.9618210" lon="0.3282470">
        <ele>427.9</ele>
        <time>2020-08-07T08:52:21Z</time>
      </trkpt>
      <trkpt lat="40.9618540" lon="0.3282290">
        <ele>427.9</ele>
        <time>2020-08-07T08:52:23Z</time>
      </trkpt>
      <trkpt lat="40.9618840" lon="0.3282260">
        <ele>427.9</ele>
        <time>2020-08-07T08:52:25Z</time>
      </trkpt>
      <trkpt lat="40.9618930" lon="0.3282300">
        <ele>427.9</ele>
        <time>2020-08-07T08:52:26Z</time>
      </trkpt>
      <trkpt lat="40.9619000" lon="0.3282280">
        <ele>427.8</ele>
        <time>2020-08-07T08:52:28Z</time>
      </trkpt>
      <trkpt lat="40.9618980" lon="0.3282260">
        <ele>427.8</ele>
        <time>2020-08-07T08:52:29Z</time>
      </trkpt>
      <trkpt lat="40.9618970" lon="0.3282250">
        <ele>427.8</ele>
        <time>2020-08-07T08:52:30Z</time>
      </trkpt>
      <trkpt lat="40.9618960" lon="0.3282280">
        <ele>427.8</ele>
        <time>2020-08-07T08:52:31Z</time>
      </trkpt>
      <trkpt lat="40.9618930" lon="0.3282450">
        <ele>427.8</ele>
        <time>2020-08-07T08:52:33Z</time>
      </trkpt>
      <trkpt lat="40.9618870" lon="0.3282580">
        <ele>427.8</ele>
        <time>2020-08-07T08:52:35Z</time>
      </trkpt>
      <trkpt lat="40.9618890" lon="0.3282590">
        <ele>427.8</ele>
        <time>2020-08-07T08:52:36Z</time>
      </trkpt>
      <trkpt lat="40.9618890" lon="0.3282620">
        <ele>427.8</ele>
        <time>2020-08-07T08:52:38Z</time>
      </trkpt>
      <trkpt lat="40.9618860" lon="0.3282640">
        <ele>427.8</ele>
        <time>2020-08-07T08:52:39Z</time>
      </trkpt>
      <trkpt lat="40.9618850" lon="0.3282670">
        <ele>427.8</ele>
        <time>2020-08-07T08:52:40Z</time>
      </trkpt>
      <trkpt lat="40.9618840" lon="0.3282700">
        <ele>427.8</ele>
        <time>2020-08-07T08:52:42Z</time>
      </trkpt>
      <trkpt lat="40.9618850" lon="0.3282720">
        <ele>427.8</ele>
        <time>2020-08-07T08:52:44Z</time>
      </trkpt>
      <trkpt lat="40.9618840" lon="0.3282980">
        <ele>427.8</ele>
        <time>2020-08-07T08:53:34Z</time>
      </trkpt>
      <trkpt lat="40.9618830" lon="0.3283080">
        <ele>427.8</ele>
        <time>2020-08-07T08:53:35Z</time>
      </trkpt>
      <trkpt lat="40.9618840" lon="0.3283200">
        <ele>427.8</ele>
        <time>2020-08-07T08:53:36Z</time>
      </trkpt>
      <trkpt lat="40.9618870" lon="0.3283340">
        <ele>427.8</ele>
        <time>2020-08-07T08:53:37Z</time>
      </trkpt>
      <trkpt lat="40.9618900" lon="0.3283500">
        <ele>427.8</ele>
        <time>2020-08-07T08:53:38Z</time>
      </trkpt>
      <trkpt lat="40.9618950" lon="0.3283910">
        <ele>427.7</ele>
        <time>2020-08-07T08:53:40Z</time>
      </trkpt>
      <trkpt lat="40.9618920" lon="0.3284030">
        <ele>427.7</ele>
        <time>2020-08-07T08:53:41Z</time>
      </trkpt>
      <trkpt lat="40.9618870" lon="0.3284180">
        <ele>427.7</ele>
        <time>2020-08-07T08:53:42Z</time>
      </trkpt>
      <trkpt lat="40.9618810" lon="0.3284390">
        <ele>427.7</ele>
        <time>2020-08-07T08:53:44Z</time>
      </trkpt>
      <trkpt lat="40.9618830" lon="0.3284420">
        <ele>427.7</ele>
        <time>2020-08-07T08:53:46Z</time>
      </trkpt>
      <trkpt lat="40.9618800" lon="0.3284450">
        <ele>427.7</ele>
        <time>2020-08-07T08:53:47Z</time>
      </trkpt>
      <trkpt lat="40.9618690" lon="0.3284630">
        <ele>427.7</ele>
        <time>2020-08-07T08:53:49Z</time>
      </trkpt>
      <trkpt lat="40.9618700" lon="0.3284810">
        <ele>427.7</ele>
        <time>2020-08-07T08:53:50Z</time>
      </trkpt>
      <trkpt lat="40.9618760" lon="0.3284980">
        <ele>427.6</ele>
        <time>2020-08-07T08:53:51Z</time>
      </trkpt>
      <trkpt lat="40.9618820" lon="0.3285170">
        <ele>427.5</ele>
        <time>2020-08-07T08:53:52Z</time>
      </trkpt>
      <trkpt lat="40.9618950" lon="0.3285880">
        <ele>427.1</ele>
        <time>2020-08-07T08:53:54Z</time>
      </trkpt>
      <trkpt lat="40.9619030" lon="0.3286210">
        <ele>426.8</ele>
        <time>2020-08-07T08:53:55Z</time>
      </trkpt>
      <trkpt lat="40.9619320" lon="0.3287070">
        <ele>426.3</ele>
        <time>2020-08-07T08:53:57Z</time>
      </trkpt>
      <trkpt lat="40.9619560" lon="0.3287710">
        <ele>425.9</ele>
        <time>2020-08-07T08:53:58Z</time>
      </trkpt>
      <trkpt lat="40.9619730" lon="0.3288110">
        <ele>425.6</ele>
        <time>2020-08-07T08:53:59Z</time>
      </trkpt>
      <trkpt lat="40.9619930" lon="0.3288580">
        <ele>425.3</ele>
        <time>2020-08-07T08:54:00Z</time>
      </trkpt>
      <trkpt lat="40.9620330" lon="0.3289400">
        <ele>424.8</ele>
        <time>2020-08-07T08:54:02Z</time>
      </trkpt>
      <trkpt lat="40.9620590" lon="0.3289880">
        <ele>424.4</ele>
        <time>2020-08-07T08:54:03Z</time>
      </trkpt>
      <trkpt lat="40.9620920" lon="0.3290420">
        <ele>424.0</ele>
        <time>2020-08-07T08:54:04Z</time>
      </trkpt>
      <trkpt lat="40.9621330" lon="0.3291290">
        <ele>423.3</ele>
        <time>2020-08-07T08:54:06Z</time>
      </trkpt>
      <trkpt lat="40.9621520" lon="0.3291810">
        <ele>422.9</ele>
        <time>2020-08-07T08:54:07Z</time>
      </trkpt>
      <trkpt lat="40.9621630" lon="0.3292380">
        <ele>422.5</ele>
        <time>2020-08-07T08:54:08Z</time>
      </trkpt>
      <trkpt lat="40.9621670" lon="0.3293940">
        <ele>421.6</ele>
        <time>2020-08-07T08:54:10Z</time>
      </trkpt>
      <trkpt lat="40.9621780" lon="0.3294620">
        <ele>421.1</ele>
        <time>2020-08-07T08:54:11Z</time>
      </trkpt>
      <trkpt lat="40.9621950" lon="0.3295180">
        <ele>420.8</ele>
        <time>2020-08-07T08:54:12Z</time>
      </trkpt>
      <trkpt lat="40.9622250" lon="0.3295610">
        <ele>420.5</ele>
        <time>2020-08-07T08:54:13Z</time>
      </trkpt>
      <trkpt lat="40.9622590" lon="0.3296180">
        <ele>420.1</ele>
        <time>2020-08-07T08:54:15Z</time>
      </trkpt>
      <trkpt lat="40.9622720" lon="0.3296500">
        <ele>419.8</ele>
        <time>2020-08-07T08:54:16Z</time>
      </trkpt>
      <trkpt lat="40.9622930" lon="0.3296820">
        <ele>419.6</ele>
        <time>2020-08-07T08:54:17Z</time>
      </trkpt>
      <trkpt lat="40.9623210" lon="0.3297250">
        <ele>419.3</ele>
        <time>2020-08-07T08:54:19Z</time>
      </trkpt>
      <trkpt lat="40.9623490" lon="0.3297560">
        <ele>419.0</ele>
        <time>2020-08-07T08:54:20Z</time>
      </trkpt>
      <trkpt lat="40.9623710" lon="0.3297740">
        <ele>418.8</ele>
        <time>2020-08-07T08:54:21Z</time>
      </trkpt>
      <trkpt lat="40.9623960" lon="0.3298020">
        <ele>418.5</ele>
        <time>2020-08-07T08:54:23Z</time>
      </trkpt>
      <trkpt lat="40.9624100" lon="0.3298200">
        <ele>418.4</ele>
        <time>2020-08-07T08:54:24Z</time>
      </trkpt>
      <trkpt lat="40.9624150" lon="0.3298280">
        <ele>418.3</ele>
        <time>2020-08-07T08:54:26Z</time>
      </trkpt>
      <trkpt lat="40.9624130" lon="0.3298270">
        <ele>418.3</ele>
        <time>2020-08-07T08:54:27Z</time>
      </trkpt>
      <trkpt lat="40.9624110" lon="0.3298280">
        <ele>418.3</ele>
        <time>2020-08-07T08:54:29Z</time>
      </trkpt>
      <trkpt lat="40.9624100" lon="0.3298280">
        <ele>418.2</ele>
        <time>2020-08-07T08:54:31Z</time>
      </trkpt>
      <trkpt lat="40.9624090" lon="0.3298280">
        <ele>418.2</ele>
        <time>2020-08-07T08:54:32Z</time>
      </trkpt>
      <trkpt lat="40.9624090" lon="0.3298280">
        <ele>418.2</ele>
        <time>2020-08-07T08:54:33Z</time>
      </trkpt>
      <trkpt lat="40.9624090" lon="0.3298280">
        <ele>418.2</ele>
        <time>2020-08-07T08:54:34Z</time>
      </trkpt>
      <trkpt lat="40.9624480" lon="0.3298370">
        <ele>417.9</ele>
        <time>2020-08-07T08:54:45Z</time>
      </trkpt>
      <trkpt lat="40.9624600" lon="0.3298440">
        <ele>417.8</ele>
        <time>2020-08-07T08:54:46Z</time>
      </trkpt>
      <trkpt lat="40.9624720" lon="0.3298540">
        <ele>417.7</ele>
        <time>2020-08-07T08:54:47Z</time>
      </trkpt>
      <trkpt lat="40.9624810" lon="0.3298720">
        <ele>417.6</ele>
        <time>2020-08-07T08:54:48Z</time>
      </trkpt>
      <trkpt lat="40.9624840" lon="0.3298810">
        <ele>417.5</ele>
        <time>2020-08-07T08:54:50Z</time>
      </trkpt>
      <trkpt lat="40.9624870" lon="0.3298890">
        <ele>417.5</ele>
        <time>2020-08-07T08:54:51Z</time>
      </trkpt>
      <trkpt lat="40.9624900" lon="0.3298970">
        <ele>417.4</ele>
        <time>2020-08-07T08:54:53Z</time>
      </trkpt>
      <trkpt lat="40.9624930" lon="0.3299050">
        <ele>417.4</ele>
        <time>2020-08-07T08:54:55Z</time>
      </trkpt>
      <trkpt lat="40.9624960" lon="0.3299140">
        <ele>417.3</ele>
        <time>2020-08-07T08:54:56Z</time>
      </trkpt>
      <trkpt lat="40.9624990" lon="0.3299220">
        <ele>417.3</ele>
        <time>2020-08-07T08:54:57Z</time>
      </trkpt>
      <trkpt lat="40.9625020" lon="0.3299300">
        <ele>417.2</ele>
        <time>2020-08-07T08:54:59Z</time>
      </trkpt>
      <trkpt lat="40.9625050" lon="0.3299380">
        <ele>417.2</ele>
        <time>2020-08-07T08:55:26Z</time>
      </trkpt>
      <trkpt lat="40.9625080" lon="0.3299470">
        <ele>417.1</ele>
        <time>2020-08-07T08:55:28Z</time>
      </trkpt>
      <trkpt lat="40.9625110" lon="0.3299550">
        <ele>417.0</ele>
        <time>2020-08-07T08:55:29Z</time>
      </trkpt>
      <trkpt lat="40.9625210" lon="0.3299530">
        <ele>417.0</ele>
        <time>2020-08-07T08:55:30Z</time>
      </trkpt>
      <trkpt lat="40.9625320" lon="0.3299540">
        <ele>416.9</ele>
        <time>2020-08-07T08:55:32Z</time>
      </trkpt>
      <trkpt lat="40.9625320" lon="0.3299540">
        <ele>416.9</ele>
        <time>2020-08-07T08:55:33Z</time>
      </trkpt>
      <trkpt lat="40.9625320" lon="0.3299540">
        <ele>416.9</ele>
        <time>2020-08-07T08:55:34Z</time>
      </trkpt>
      <trkpt lat="40.9625300" lon="0.3299560">
        <ele>416.8</ele>
        <time>2020-08-07T08:55:36Z</time>
      </trkpt>
      <trkpt lat="40.9625290" lon="0.3299560">
        <ele>416.8</ele>
        <time>2020-08-07T08:55:37Z</time>
      </trkpt>
      <trkpt lat="40.9625260" lon="0.3299570">
        <ele>416.8</ele>
        <time>2020-08-07T08:55:39Z</time>
      </trkpt>
      <trkpt lat="40.9625260" lon="0.3299570">
        <ele>416.8</ele>
        <time>2020-08-07T08:55:40Z</time>
      </trkpt>
      <trkpt lat="40.9625260" lon="0.3299570">
        <ele>416.8</ele>
        <time>2020-08-07T08:55:42Z</time>
      </trkpt>
      <trkpt lat="40.9625250" lon="0.3299570">
        <ele>416.8</ele>
        <time>2020-08-07T08:55:44Z</time>
      </trkpt>
      <trkpt lat="40.9625230" lon="0.3299580">
        <ele>416.8</ele>
        <time>2020-08-07T08:55:50Z</time>
      </trkpt>
      <trkpt lat="40.9625380" lon="0.3299670">
        <ele>416.7</ele>
        <time>2020-08-07T08:57:07Z</time>
      </trkpt>
      <trkpt lat="40.9625610" lon="0.3299980">
        <ele>416.4</ele>
        <time>2020-08-07T08:57:09Z</time>
      </trkpt>
      <trkpt lat="40.9625770" lon="0.3300190">
        <ele>416.2</ele>
        <time>2020-08-07T08:57:10Z</time>
      </trkpt>
      <trkpt lat="40.9625830" lon="0.3300090">
        <ele>416.1</ele>
        <time>2020-08-07T08:57:11Z</time>
      </trkpt>
      <trkpt lat="40.9625930" lon="0.3300190">
        <ele>416.0</ele>
        <time>2020-08-07T08:57:13Z</time>
      </trkpt>
      <trkpt lat="40.9626040" lon="0.3300250">
        <ele>415.9</ele>
        <time>2020-08-07T08:57:14Z</time>
      </trkpt>
      <trkpt lat="40.9626250" lon="0.3300350">
        <ele>415.8</ele>
        <time>2020-08-07T08:57:16Z</time>
      </trkpt>
      <trkpt lat="40.9626640" lon="0.3300680">
        <ele>415.4</ele>
        <time>2020-08-07T08:57:17Z</time>
      </trkpt>
      <trkpt lat="40.9627340" lon="0.3301250">
        <ele>414.8</ele>
        <time>2020-08-07T08:57:19Z</time>
      </trkpt>
      <trkpt lat="40.9627870" lon="0.3301670">
        <ele>414.4</ele>
        <time>2020-08-07T08:57:20Z</time>
      </trkpt>
      <trkpt lat="40.9628280" lon="0.3302030">
        <ele>414.1</ele>
        <time>2020-08-07T08:57:21Z</time>
      </trkpt>
      <trkpt lat="40.9628920" lon="0.3302710">
        <ele>413.5</ele>
        <time>2020-08-07T08:57:23Z</time>
      </trkpt>
      <trkpt lat="40.9629220" lon="0.3303090">
        <ele>413.3</ele>
        <time>2020-08-07T08:57:24Z</time>
      </trkpt>
      <trkpt lat="40.9629490" lon="0.3303490">
        <ele>413.0</ele>
        <time>2020-08-07T08:57:25Z</time>
      </trkpt>
      <trkpt lat="40.9629810" lon="0.3304160">
        <ele>412.5</ele>
        <time>2020-08-07T08:57:26Z</time>
      </trkpt>
      <trkpt lat="40.9630130" lon="0.3304960">
        <ele>412.0</ele>
        <time>2020-08-07T08:57:28Z</time>
      </trkpt>
      <trkpt lat="40.9630290" lon="0.3305500">
        <ele>411.7</ele>
        <time>2020-08-07T08:57:29Z</time>
      </trkpt>
      <trkpt lat="40.9630540" lon="0.3306360">
        <ele>411.2</ele>
        <time>2020-08-07T08:57:31Z</time>
      </trkpt>
      <trkpt lat="40.9630770" lon="0.3307350">
        <ele>410.5</ele>
        <time>2020-08-07T08:57:32Z</time>
      </trkpt>
      <trkpt lat="40.9631170" lon="0.3308680">
        <ele>409.5</ele>
        <time>2020-08-07T08:57:34Z</time>
      </trkpt>
      <trkpt lat="40.9631420" lon="0.3309300">
        <ele>409.0</ele>
        <time>2020-08-07T08:57:35Z</time>
      </trkpt>
      <trkpt lat="40.9631670" lon="0.3309930">
        <ele>408.5</ele>
        <time>2020-08-07T08:57:36Z</time>
      </trkpt>
      <trkpt lat="40.9632160" lon="0.3311310">
        <ele>407.4</ele>
        <time>2020-08-07T08:57:38Z</time>
      </trkpt>
      <trkpt lat="40.9632380" lon="0.3312020">
        <ele>406.9</ele>
        <time>2020-08-07T08:57:39Z</time>
      </trkpt>
      <trkpt lat="40.9632620" lon="0.3312740">
        <ele>406.3</ele>
        <time>2020-08-07T08:57:40Z</time>
      </trkpt>
      <trkpt lat="40.9632860" lon="0.3313430">
        <ele>405.8</ele>
        <time>2020-08-07T08:57:41Z</time>
      </trkpt>
      <trkpt lat="40.9633370" lon="0.3314740">
        <ele>404.6</ele>
        <time>2020-08-07T08:57:43Z</time>
      </trkpt>
      <trkpt lat="40.9633850" lon="0.3316120">
        <ele>403.4</ele>
        <time>2020-08-07T08:57:45Z</time>
      </trkpt>
      <trkpt lat="40.9634030" lon="0.3316870">
        <ele>402.7</ele>
        <time>2020-08-07T08:57:46Z</time>
      </trkpt>
      <trkpt lat="40.9634320" lon="0.3318390">
        <ele>401.4</ele>
        <time>2020-08-07T08:57:48Z</time>
      </trkpt>
      <trkpt lat="40.9634550" lon="0.3320030">
        <ele>400.0</ele>
        <time>2020-08-07T08:57:50Z</time>
      </trkpt>
      <trkpt lat="40.9634680" lon="0.3321750">
        <ele>398.5</ele>
        <time>2020-08-07T08:57:52Z</time>
      </trkpt>
      <trkpt lat="40.9634700" lon="0.3322610">
        <ele>397.8</ele>
        <time>2020-08-07T08:57:53Z</time>
      </trkpt>
      <trkpt lat="40.9634790" lon="0.3324340">
        <ele>396.4</ele>
        <time>2020-08-07T08:57:55Z</time>
      </trkpt>
      <trkpt lat="40.9634850" lon="0.3325190">
        <ele>395.8</ele>
        <time>2020-08-07T08:57:56Z</time>
      </trkpt>
      <trkpt lat="40.9634840" lon="0.3326850">
        <ele>394.9</ele>
        <time>2020-08-07T08:57:58Z</time>
      </trkpt>
      <trkpt lat="40.9634830" lon="0.3327670">
        <ele>394.4</ele>
        <time>2020-08-07T08:57:59Z</time>
      </trkpt>
      <trkpt lat="40.9634840" lon="0.3328500">
        <ele>394.0</ele>
        <time>2020-08-07T08:58:00Z</time>
      </trkpt>
      <trkpt lat="40.9634910" lon="0.3330040">
        <ele>393.1</ele>
        <time>2020-08-07T08:58:02Z</time>
      </trkpt>
      <trkpt lat="40.9635240" lon="0.3331130">
        <ele>392.4</ele>
        <time>2020-08-07T08:58:04Z</time>
      </trkpt>
      <trkpt lat="40.9635430" lon="0.3331390">
        <ele>392.1</ele>
        <time>2020-08-07T08:58:05Z</time>
      </trkpt>
      <trkpt lat="40.9635650" lon="0.3331650">
        <ele>391.8</ele>
        <time>2020-08-07T08:58:06Z</time>
      </trkpt>
      <trkpt lat="40.9635900" lon="0.3331790">
        <ele>391.6</ele>
        <time>2020-08-07T08:58:07Z</time>
      </trkpt>
      <trkpt lat="40.9636210" lon="0.3331860">
        <ele>391.3</ele>
        <time>2020-08-07T08:58:08Z</time>
      </trkpt>
      <trkpt lat="40.9636330" lon="0.3331940">
        <ele>391.2</ele>
        <time>2020-08-07T08:58:09Z</time>
      </trkpt>
      <trkpt lat="40.9636510" lon="0.3332000">
        <ele>391.0</ele>
        <time>2020-08-07T08:58:10Z</time>
      </trkpt>
      <trkpt lat="40.9636800" lon="0.3331790">
        <ele>390.7</ele>
        <time>2020-08-07T08:58:12Z</time>
      </trkpt>
      <trkpt lat="40.9637170" lon="0.3331770">
        <ele>390.4</ele>
        <time>2020-08-07T08:58:13Z</time>
      </trkpt>
      <trkpt lat="40.9637600" lon="0.3331980">
        <ele>390.1</ele>
        <time>2020-08-07T08:58:14Z</time>
      </trkpt>
      <trkpt lat="40.9638110" lon="0.3332180">
        <ele>389.8</ele>
        <time>2020-08-07T08:58:16Z</time>
      </trkpt>
      <trkpt lat="40.9638490" lon="0.3332340">
        <ele>389.6</ele>
        <time>2020-08-07T08:58:17Z</time>
      </trkpt>
      <trkpt lat="40.9638930" lon="0.3332580">
        <ele>389.4</ele>
        <time>2020-08-07T08:58:18Z</time>
      </trkpt>
      <trkpt lat="40.9639310" lon="0.3332900">
        <ele>389.2</ele>
        <time>2020-08-07T08:58:20Z</time>
      </trkpt>
      <trkpt lat="40.9639710" lon="0.3333360">
        <ele>389.0</ele>
        <time>2020-08-07T08:58:22Z</time>
      </trkpt>
      <trkpt lat="40.9639950" lon="0.3333720">
        <ele>388.8</ele>
        <time>2020-08-07T08:58:23Z</time>
      </trkpt>
      <trkpt lat="40.9640370" lon="0.3334390">
        <ele>388.4</ele>
        <time>2020-08-07T08:58:25Z</time>
      </trkpt>
      <trkpt lat="40.9640590" lon="0.3334730">
        <ele>388.2</ele>
        <time>2020-08-07T08:58:26Z</time>
      </trkpt>
      <trkpt lat="40.9640800" lon="0.3335060">
        <ele>388.0</ele>
        <time>2020-08-07T08:58:27Z</time>
      </trkpt>
      <trkpt lat="40.9641030" lon="0.3335310">
        <ele>387.9</ele>
        <time>2020-08-07T08:58:28Z</time>
      </trkpt>
      <trkpt lat="40.9641260" lon="0.3335620">
        <ele>387.8</ele>
        <time>2020-08-07T08:58:29Z</time>
      </trkpt>
      <trkpt lat="40.9641510" lon="0.3335910">
        <ele>387.6</ele>
        <time>2020-08-07T08:58:30Z</time>
      </trkpt>
      <trkpt lat="40.9641900" lon="0.3336320">
        <ele>387.4</ele>
        <time>2020-08-07T08:58:32Z</time>
      </trkpt>
      <trkpt lat="40.9642180" lon="0.3336610">
        <ele>387.2</ele>
        <time>2020-08-07T08:58:33Z</time>
      </trkpt>
      <trkpt lat="40.9642270" lon="0.3336860">
        <ele>387.1</ele>
        <time>2020-08-07T08:58:34Z</time>
      </trkpt>
      <trkpt lat="40.9642490" lon="0.3337290">
        <ele>386.9</ele>
        <time>2020-08-07T08:58:36Z</time>
      </trkpt>
      <trkpt lat="40.9642610" lon="0.3337540">
        <ele>386.8</ele>
        <time>2020-08-07T08:58:37Z</time>
      </trkpt>
      <trkpt lat="40.9642920" lon="0.3338170">
        <ele>386.5</ele>
        <time>2020-08-07T08:58:39Z</time>
      </trkpt>
      <trkpt lat="40.9643050" lon="0.3338490">
        <ele>386.4</ele>
        <time>2020-08-07T08:58:40Z</time>
      </trkpt>
      <trkpt lat="40.9643280" lon="0.3338950">
        <ele>386.1</ele>
        <time>2020-08-07T08:58:41Z</time>
      </trkpt>
      <trkpt lat="40.9643360" lon="0.3339340">
        <ele>385.9</ele>
        <time>2020-08-07T08:58:43Z</time>
      </trkpt>
      <trkpt lat="40.9643460" lon="0.3339800">
        <ele>385.7</ele>
        <time>2020-08-07T08:58:44Z</time>
      </trkpt>
      <trkpt lat="40.9643570" lon="0.3340290">
        <ele>385.5</ele>
        <time>2020-08-07T08:58:45Z</time>
      </trkpt>
      <trkpt lat="40.9643700" lon="0.3340860">
        <ele>385.2</ele>
        <time>2020-08-07T08:58:46Z</time>
      </trkpt>
      <trkpt lat="40.9643840" lon="0.3341360">
        <ele>384.9</ele>
        <time>2020-08-07T08:58:47Z</time>
      </trkpt>
      <trkpt lat="40.9644010" lon="0.3341970">
        <ele>384.6</ele>
        <time>2020-08-07T08:58:48Z</time>
      </trkpt>
      <trkpt lat="40.9644540" lon="0.3343410">
        <ele>383.9</ele>
        <time>2020-08-07T08:58:50Z</time>
      </trkpt>
      <trkpt lat="40.9644940" lon="0.3344650">
        <ele>383.2</ele>
        <time>2020-08-07T08:58:52Z</time>
      </trkpt>
      <trkpt lat="40.9645110" lon="0.3345260">
        <ele>382.9</ele>
        <time>2020-08-07T08:58:53Z</time>
      </trkpt>
      <trkpt lat="40.9645270" lon="0.3345850">
        <ele>382.5</ele>
        <time>2020-08-07T08:58:54Z</time>
      </trkpt>
      <trkpt lat="40.9645400" lon="0.3346420">
        <ele>382.2</ele>
        <time>2020-08-07T08:58:55Z</time>
      </trkpt>
      <trkpt lat="40.9645630" lon="0.3347560">
        <ele>381.5</ele>
        <time>2020-08-07T08:58:57Z</time>
      </trkpt>
      <trkpt lat="40.9645790" lon="0.3348580">
        <ele>381.0</ele>
        <time>2020-08-07T08:58:59Z</time>
      </trkpt>
      <trkpt lat="40.9645830" lon="0.3349320">
        <ele>380.7</ele>
        <time>2020-08-07T08:59:00Z</time>
      </trkpt>
      <trkpt lat="40.9645830" lon="0.3349950">
        <ele>380.5</ele>
        <time>2020-08-07T08:59:02Z</time>
      </trkpt>
      <trkpt lat="40.9645790" lon="0.3350570">
        <ele>380.2</ele>
        <time>2020-08-07T08:59:03Z</time>
      </trkpt>
      <trkpt lat="40.9645710" lon="0.3351250">
        <ele>379.9</ele>
        <time>2020-08-07T08:59:04Z</time>
      </trkpt>
      <trkpt lat="40.9645550" lon="0.3351860">
        <ele>379.7</ele>
        <time>2020-08-07T08:59:06Z</time>
      </trkpt>
      <trkpt lat="40.9645480" lon="0.3352330">
        <ele>379.5</ele>
        <time>2020-08-07T08:59:07Z</time>
      </trkpt>
      <trkpt lat="40.9645420" lon="0.3352790">
        <ele>379.4</ele>
        <time>2020-08-07T08:59:08Z</time>
      </trkpt>
      <trkpt lat="40.9645320" lon="0.3353650">
        <ele>379.1</ele>
        <time>2020-08-07T08:59:10Z</time>
      </trkpt>
      <trkpt lat="40.9645210" lon="0.3354170">
        <ele>379.0</ele>
        <time>2020-08-07T08:59:11Z</time>
      </trkpt>
      <trkpt lat="40.9645110" lon="0.3354630">
        <ele>378.9</ele>
        <time>2020-08-07T08:59:12Z</time>
      </trkpt>
      <trkpt lat="40.9645010" lon="0.3355260">
        <ele>378.7</ele>
        <time>2020-08-07T08:59:14Z</time>
      </trkpt>
      <trkpt lat="40.9645000" lon="0.3355670">
        <ele>378.6</ele>
        <time>2020-08-07T08:59:15Z</time>
      </trkpt>
      <trkpt lat="40.9644990" lon="0.3356310">
        <ele>378.3</ele>
        <time>2020-08-07T08:59:16Z</time>
      </trkpt>
      <trkpt lat="40.9644990" lon="0.3356800">
        <ele>378.1</ele>
        <time>2020-08-07T08:59:17Z</time>
      </trkpt>
      <trkpt lat="40.9644990" lon="0.3357380">
        <ele>377.9</ele>
        <time>2020-08-07T08:59:19Z</time>
      </trkpt>
      <trkpt lat="40.9645020" lon="0.3358030">
        <ele>377.6</ele>
        <time>2020-08-07T08:59:20Z</time>
      </trkpt>
      <trkpt lat="40.9645050" lon="0.3358650">
        <ele>377.4</ele>
        <time>2020-08-07T08:59:21Z</time>
      </trkpt>
      <trkpt lat="40.9645130" lon="0.3359240">
        <ele>377.1</ele>
        <time>2020-08-07T08:59:22Z</time>
      </trkpt>
      <trkpt lat="40.9645370" lon="0.3360070">
        <ele>376.7</ele>
        <time>2020-08-07T08:59:23Z</time>
      </trkpt>
      <trkpt lat="40.9645650" lon="0.3361380">
        <ele>375.9</ele>
        <time>2020-08-07T08:59:25Z</time>
      </trkpt>
      <trkpt lat="40.9645740" lon="0.3361990">
        <ele>375.6</ele>
        <time>2020-08-07T08:59:26Z</time>
      </trkpt>
      <trkpt lat="40.9646010" lon="0.3363290">
        <ele>374.7</ele>
        <time>2020-08-07T08:59:28Z</time>
      </trkpt>
      <trkpt lat="40.9646210" lon="0.3363950">
        <ele>374.2</ele>
        <time>2020-08-07T08:59:29Z</time>
      </trkpt>
      <trkpt lat="40.9646350" lon="0.3364650">
        <ele>373.6</ele>
        <time>2020-08-07T08:59:30Z</time>
      </trkpt>
      <trkpt lat="40.9646470" lon="0.3366070">
        <ele>372.6</ele>
        <time>2020-08-07T08:59:32Z</time>
      </trkpt>
      <trkpt lat="40.9646500" lon="0.3367430">
        <ele>371.6</ele>
        <time>2020-08-07T08:59:34Z</time>
      </trkpt>
      <trkpt lat="40.9646510" lon="0.3368120">
        <ele>371.1</ele>
        <time>2020-08-07T08:59:35Z</time>
      </trkpt>
      <trkpt lat="40.9646540" lon="0.3369590">
        <ele>370.1</ele>
        <time>2020-08-07T08:59:37Z</time>
      </trkpt>
      <trkpt lat="40.9646600" lon="0.3370330">
        <ele>369.5</ele>
        <time>2020-08-07T08:59:38Z</time>
      </trkpt>
      <trkpt lat="40.9646690" lon="0.3371070">
        <ele>368.9</ele>
        <time>2020-08-07T08:59:39Z</time>
      </trkpt>
      <trkpt lat="40.9646830" lon="0.3371800">
        <ele>368.3</ele>
        <time>2020-08-07T08:59:40Z</time>
      </trkpt>
      <trkpt lat="40.9647260" lon="0.3373110">
        <ele>367.0</ele>
        <time>2020-08-07T08:59:42Z</time>
      </trkpt>
      <trkpt lat="40.9647500" lon="0.3373690">
        <ele>366.4</ele>
        <time>2020-08-07T08:59:43Z</time>
      </trkpt>
      <trkpt lat="40.9647750" lon="0.3374240">
        <ele>365.8</ele>
        <time>2020-08-07T08:59:44Z</time>
      </trkpt>
      <trkpt lat="40.9647990" lon="0.3374770">
        <ele>365.3</ele>
        <time>2020-08-07T08:59:45Z</time>
      </trkpt>
      <trkpt lat="40.9648350" lon="0.3375680">
        <ele>364.6</ele>
        <time>2020-08-07T08:59:47Z</time>
      </trkpt>
      <trkpt lat="40.9648680" lon="0.3376580">
        <ele>364.0</ele>
        <time>2020-08-07T08:59:49Z</time>
      </trkpt>
      <trkpt lat="40.9648740" lon="0.3376870">
        <ele>363.9</ele>
        <time>2020-08-07T08:59:50Z</time>
      </trkpt>
      <trkpt lat="40.9648760" lon="0.3376960">
        <ele>363.8</ele>
        <time>2020-08-07T08:59:51Z</time>
      </trkpt>
      <trkpt lat="40.9648730" lon="0.3376870">
        <ele>363.8</ele>
        <time>2020-08-07T08:59:53Z</time>
      </trkpt>
      <trkpt lat="40.9648710" lon="0.3376800">
        <ele>363.7</ele>
        <time>2020-08-07T08:59:54Z</time>
      </trkpt>
      <trkpt lat="40.9648680" lon="0.3376640">
        <ele>363.6</ele>
        <time>2020-08-07T08:59:56Z</time>
      </trkpt>
      <trkpt lat="40.9648660" lon="0.3376600">
        <ele>363.6</ele>
        <time>2020-08-07T08:59:57Z</time>
      </trkpt>
      <trkpt lat="40.9648670" lon="0.3376590">
        <ele>363.6</ele>
        <time>2020-08-07T08:59:58Z</time>
      </trkpt>
      <trkpt lat="40.9648690" lon="0.3376570">
        <ele>363.6</ele>
        <time>2020-08-07T09:00:00Z</time>
      </trkpt>
      <trkpt lat="40.9648700" lon="0.3376580">
        <ele>363.6</ele>
        <time>2020-08-07T09:00:01Z</time>
      </trkpt>
      <trkpt lat="40.9648700" lon="0.3376590">
        <ele>363.6</ele>
        <time>2020-08-07T09:00:02Z</time>
      </trkpt>
      <trkpt lat="40.9648710" lon="0.3376590">
        <ele>363.6</ele>
        <time>2020-08-07T09:00:03Z</time>
      </trkpt>
      <trkpt lat="40.9648710" lon="0.3376590">
        <ele>363.6</ele>
        <time>2020-08-07T09:00:04Z</time>
      </trkpt>
      <trkpt lat="40.9648710" lon="0.3376590">
        <ele>363.6</ele>
        <time>2020-08-07T09:00:08Z</time>
      </trkpt>
      <trkpt lat="40.9648930" lon="0.3377330">
        <ele>363.2</ele>
        <time>2020-08-07T09:00:18Z</time>
      </trkpt>
      <trkpt lat="40.9648850" lon="0.3377080">
        <ele>363.0</ele>
        <time>2020-08-07T09:00:22Z</time>
      </trkpt>
      <trkpt lat="40.9648840" lon="0.3377060">
        <ele>363.0</ele>
        <time>2020-08-07T09:00:24Z</time>
      </trkpt>
      <trkpt lat="40.9648840" lon="0.3377060">
        <ele>363.0</ele>
        <time>2020-08-07T09:00:25Z</time>
      </trkpt>
      <trkpt lat="40.9648840" lon="0.3377060">
        <ele>363.0</ele>
        <time>2020-08-07T09:00:27Z</time>
      </trkpt>
      <trkpt lat="40.9648840" lon="0.3377070">
        <ele>363.0</ele>
        <time>2020-08-07T09:00:28Z</time>
      </trkpt>
      <trkpt lat="40.9648840" lon="0.3377070">
        <ele>363.0</ele>
        <time>2020-08-07T09:00:29Z</time>
      </trkpt>
      <trkpt lat="40.9648840" lon="0.3377070">
        <ele>363.0</ele>
        <time>2020-08-07T09:00:31Z</time>
      </trkpt>
      <trkpt lat="40.9648840" lon="0.3377070">
        <ele>363.0</ele>
        <time>2020-08-07T09:00:32Z</time>
      </trkpt>
      <trkpt lat="40.9649270" lon="0.3377950">
        <ele>362.5</ele>
        <time>2020-08-07T09:00:43Z</time>
      </trkpt>
      <trkpt lat="40.9649360" lon="0.3378730">
        <ele>362.1</ele>
        <time>2020-08-07T09:00:45Z</time>
      </trkpt>
      <trkpt lat="40.9649400" lon="0.3379120">
        <ele>361.9</ele>
        <time>2020-08-07T09:00:46Z</time>
      </trkpt>
      <trkpt lat="40.9649440" lon="0.3379510">
        <ele>361.7</ele>
        <time>2020-08-07T09:00:47Z</time>
      </trkpt>
      <trkpt lat="40.9649500" lon="0.3380450">
        <ele>361.3</ele>
        <time>2020-08-07T09:00:49Z</time>
      </trkpt>
      <trkpt lat="40.9649480" lon="0.3380990">
        <ele>361.1</ele>
        <time>2020-08-07T09:00:50Z</time>
      </trkpt>
      <trkpt lat="40.9649340" lon="0.3382020">
        <ele>360.6</ele>
        <time>2020-08-07T09:00:52Z</time>
      </trkpt>
      <trkpt lat="40.9649140" lon="0.3382980">
        <ele>360.2</ele>
        <time>2020-08-07T09:00:54Z</time>
      </trkpt>
      <trkpt lat="40.9649040" lon="0.3383500">
        <ele>360.0</ele>
        <time>2020-08-07T09:00:55Z</time>
      </trkpt>
      <trkpt lat="40.9648970" lon="0.3383950">
        <ele>359.8</ele>
        <time>2020-08-07T09:00:56Z</time>
      </trkpt>
      <trkpt lat="40.9648840" lon="0.3384770">
        <ele>359.5</ele>
        <time>2020-08-07T09:00:58Z</time>
      </trkpt>
      <trkpt lat="40.9648750" lon="0.3385700">
        <ele>359.2</ele>
        <time>2020-08-07T09:01:00Z</time>
      </trkpt>
      <trkpt lat="40.9648780" lon="0.3386120">
        <ele>359.1</ele>
        <time>2020-08-07T09:01:01Z</time>
      </trkpt>
      <trkpt lat="40.9648850" lon="0.3386670">
        <ele>358.9</ele>
        <time>2020-08-07T09:01:02Z</time>
      </trkpt>
      <trkpt lat="40.9648980" lon="0.3387210">
        <ele>358.7</ele>
        <time>2020-08-07T09:01:03Z</time>
      </trkpt>
      <trkpt lat="40.9649370" lon="0.3388180">
        <ele>358.3</ele>
        <time>2020-08-07T09:01:05Z</time>
      </trkpt>
      <trkpt lat="40.9649700" lon="0.3388670">
        <ele>358.0</ele>
        <time>2020-08-07T09:01:06Z</time>
      </trkpt>
      <trkpt lat="40.9650080" lon="0.3389290">
        <ele>357.6</ele>
        <time>2020-08-07T09:01:07Z</time>
      </trkpt>
      <trkpt lat="40.9650470" lon="0.3389790">
        <ele>357.3</ele>
        <time>2020-08-07T09:01:08Z</time>
      </trkpt>
      <trkpt lat="40.9650790" lon="0.3390350">
        <ele>356.9</ele>
        <time>2020-08-07T09:01:09Z</time>
      </trkpt>
      <trkpt lat="40.9651010" lon="0.3390940">
        <ele>356.6</ele>
        <time>2020-08-07T09:01:10Z</time>
      </trkpt>
      <trkpt lat="40.9651230" lon="0.3391520">
        <ele>356.3</ele>
        <time>2020-08-07T09:01:11Z</time>
      </trkpt>
      <trkpt lat="40.9651690" lon="0.3392720">
        <ele>355.6</ele>
        <time>2020-08-07T09:01:13Z</time>
      </trkpt>
      <trkpt lat="40.9652330" lon="0.3393960">
        <ele>354.8</ele>
        <time>2020-08-07T09:01:15Z</time>
      </trkpt>
      <trkpt lat="40.9652650" lon="0.3394600">
        <ele>354.4</ele>
        <time>2020-08-07T09:01:16Z</time>
      </trkpt>
      <trkpt lat="40.9652970" lon="0.3395200">
        <ele>353.9</ele>
        <time>2020-08-07T09:01:17Z</time>
      </trkpt>
      <trkpt lat="40.9653320" lon="0.3395790">
        <ele>353.5</ele>
        <time>2020-08-07T09:01:18Z</time>
      </trkpt>
      <trkpt lat="40.9653970" lon="0.3397070">
        <ele>352.4</ele>
        <time>2020-08-07T09:01:20Z</time>
      </trkpt>
      <trkpt lat="40.9654670" lon="0.3398340">
        <ele>351.3</ele>
        <time>2020-08-07T09:01:22Z</time>
      </trkpt>
      <trkpt lat="40.9655030" lon="0.3398920">
        <ele>350.8</ele>
        <time>2020-08-07T09:01:23Z</time>
      </trkpt>
      <trkpt lat="40.9655680" lon="0.3400080">
        <ele>350.1</ele>
        <time>2020-08-07T09:01:25Z</time>
      </trkpt>
      <trkpt lat="40.9656040" lon="0.3400670">
        <ele>349.7</ele>
        <time>2020-08-07T09:01:26Z</time>
      </trkpt>
      <trkpt lat="40.9656570" lon="0.3401830">
        <ele>349.1</ele>
        <time>2020-08-07T09:01:28Z</time>
      </trkpt>
      <trkpt lat="40.9656730" lon="0.3402760">
        <ele>348.7</ele>
        <time>2020-08-07T09:01:30Z</time>
      </trkpt>
      <trkpt lat="40.9656890" lon="0.3403430">
        <ele>348.4</ele>
        <time>2020-08-07T09:01:31Z</time>
      </trkpt>
      <trkpt lat="40.9656950" lon="0.3404060">
        <ele>348.1</ele>
        <time>2020-08-07T09:01:32Z</time>
      </trkpt>
      <trkpt lat="40.9657020" lon="0.3405290">
        <ele>347.7</ele>
        <time>2020-08-07T09:01:34Z</time>
      </trkpt>
      <trkpt lat="40.9657040" lon="0.3406010">
        <ele>347.4</ele>
        <time>2020-08-07T09:01:35Z</time>
      </trkpt>
      <trkpt lat="40.9657070" lon="0.3407390">
        <ele>346.8</ele>
        <time>2020-08-07T09:01:37Z</time>
      </trkpt>
      <trkpt lat="40.9657110" lon="0.3408770">
        <ele>346.2</ele>
        <time>2020-08-07T09:01:39Z</time>
      </trkpt>
      <trkpt lat="40.9657050" lon="0.3410220">
        <ele>345.6</ele>
        <time>2020-08-07T09:01:41Z</time>
      </trkpt>
      <trkpt lat="40.9657090" lon="0.3410890">
        <ele>345.3</ele>
        <time>2020-08-07T09:01:42Z</time>
      </trkpt>
      <trkpt lat="40.9657150" lon="0.3411510">
        <ele>345.1</ele>
        <time>2020-08-07T09:01:43Z</time>
      </trkpt>
      <trkpt lat="40.9657240" lon="0.3412080">
        <ele>344.8</ele>
        <time>2020-08-07T09:01:44Z</time>
      </trkpt>
      <trkpt lat="40.9657830" lon="0.3412980">
        <ele>344.3</ele>
        <time>2020-08-07T09:01:46Z</time>
      </trkpt>
      <trkpt lat="40.9658200" lon="0.3413370">
        <ele>344.0</ele>
        <time>2020-08-07T09:01:47Z</time>
      </trkpt>
      <trkpt lat="40.9658630" lon="0.3413670">
        <ele>343.7</ele>
        <time>2020-08-07T09:01:48Z</time>
      </trkpt>
      <trkpt lat="40.9659310" lon="0.3413990">
        <ele>343.1</ele>
        <time>2020-08-07T09:01:50Z</time>
      </trkpt>
      <trkpt lat="40.9659810" lon="0.3414190">
        <ele>342.6</ele>
        <time>2020-08-07T09:01:51Z</time>
      </trkpt>
      <trkpt lat="40.9660270" lon="0.3414350">
        <ele>342.2</ele>
        <time>2020-08-07T09:01:52Z</time>
      </trkpt>
      <trkpt lat="40.9661220" lon="0.3414610">
        <ele>341.5</ele>
        <time>2020-08-07T09:01:54Z</time>
      </trkpt>
      <trkpt lat="40.9661680" lon="0.3414730">
        <ele>341.1</ele>
        <time>2020-08-07T09:01:55Z</time>
      </trkpt>
      <trkpt lat="40.9662610" lon="0.3414790">
        <ele>340.5</ele>
        <time>2020-08-07T09:01:57Z</time>
      </trkpt>
      <trkpt lat="40.9663460" lon="0.3414880">
        <ele>340.1</ele>
        <time>2020-08-07T09:01:59Z</time>
      </trkpt>
      <trkpt lat="40.9664260" lon="0.3415040">
        <ele>339.7</ele>
        <time>2020-08-07T09:02:01Z</time>
      </trkpt>
      <trkpt lat="40.9664790" lon="0.3415200">
        <ele>339.5</ele>
        <time>2020-08-07T09:02:03Z</time>
      </trkpt>
      <trkpt lat="40.9665340" lon="0.3415530">
        <ele>339.3</ele>
        <time>2020-08-07T09:02:05Z</time>
      </trkpt>
      <trkpt lat="40.9665550" lon="0.3415830">
        <ele>339.3</ele>
        <time>2020-08-07T09:02:06Z</time>
      </trkpt>
      <trkpt lat="40.9665650" lon="0.3416180">
        <ele>339.2</ele>
        <time>2020-08-07T09:02:07Z</time>
      </trkpt>
      <trkpt lat="40.9665670" lon="0.3416640">
        <ele>339.2</ele>
        <time>2020-08-07T09:02:08Z</time>
      </trkpt>
      <trkpt lat="40.9665670" lon="0.3416780">
        <ele>339.2</ele>
        <time>2020-08-07T09:02:09Z</time>
      </trkpt>
      <trkpt lat="40.9665700" lon="0.3417180">
        <ele>339.1</ele>
        <time>2020-08-07T09:02:11Z</time>
      </trkpt>
      <trkpt lat="40.9665730" lon="0.3417410">
        <ele>339.1</ele>
        <time>2020-08-07T09:02:12Z</time>
      </trkpt>
      <trkpt lat="40.9665770" lon="0.3417630">
        <ele>339.1</ele>
        <time>2020-08-07T09:02:13Z</time>
      </trkpt>
      <trkpt lat="40.9665790" lon="0.3417840">
        <ele>339.1</ele>
        <time>2020-08-07T09:02:14Z</time>
      </trkpt>
      <trkpt lat="40.9665810" lon="0.3418110">
        <ele>339.1</ele>
        <time>2020-08-07T09:02:15Z</time>
      </trkpt>
      <trkpt lat="40.9665810" lon="0.3418350">
        <ele>339.0</ele>
        <time>2020-08-07T09:02:16Z</time>
      </trkpt>
      <trkpt lat="40.9665820" lon="0.3418770">
        <ele>339.0</ele>
        <time>2020-08-07T09:02:18Z</time>
      </trkpt>
      <trkpt lat="40.9665850" lon="0.3419260">
        <ele>339.0</ele>
        <time>2020-08-07T09:02:20Z</time>
      </trkpt>
      <trkpt lat="40.9665860" lon="0.3419470">
        <ele>339.0</ele>
        <time>2020-08-07T09:02:21Z</time>
      </trkpt>
      <trkpt lat="40.9665880" lon="0.3419720">
        <ele>339.0</ele>
        <time>2020-08-07T09:02:22Z</time>
      </trkpt>
      <trkpt lat="40.9665910" lon="0.3419980">
        <ele>339.0</ele>
        <time>2020-08-07T09:02:23Z</time>
      </trkpt>
      <trkpt lat="40.9665950" lon="0.3420160">
        <ele>339.0</ele>
        <time>2020-08-07T09:02:24Z</time>
      </trkpt>
      <trkpt lat="40.9665980" lon="0.3420670">
        <ele>339.0</ele>
        <time>2020-08-07T09:02:26Z</time>
      </trkpt>
      <trkpt lat="40.9665970" lon="0.3421120">
        <ele>339.1</ele>
        <time>2020-08-07T09:02:28Z</time>
      </trkpt>
      <trkpt lat="40.9666010" lon="0.3421670">
        <ele>339.1</ele>
        <time>2020-08-07T09:02:30Z</time>
      </trkpt>
      <trkpt lat="40.9666070" lon="0.3421950">
        <ele>339.1</ele>
        <time>2020-08-07T09:02:31Z</time>
      </trkpt>
      <trkpt lat="40.9666210" lon="0.3422520">
        <ele>339.0</ele>
        <time>2020-08-07T09:02:33Z</time>
      </trkpt>
      <trkpt lat="40.9666570" lon="0.3423270">
        <ele>338.9</ele>
        <time>2020-08-07T09:02:34Z</time>
      </trkpt>
      <trkpt lat="40.9666870" lon="0.3423700">
        <ele>338.7</ele>
        <time>2020-08-07T09:02:40Z</time>
      </trkpt>
      <trkpt lat="40.9667170" lon="0.3424140">
        <ele>338.6</ele>
        <time>2020-08-07T09:02:41Z</time>
      </trkpt>
      <trkpt lat="40.9667940" lon="0.3424820">
        <ele>338.2</ele>
        <time>2020-08-07T09:02:43Z</time>
      </trkpt>
      <trkpt lat="40.9668310" lon="0.3425120">
        <ele>338.0</ele>
        <time>2020-08-07T09:02:44Z</time>
      </trkpt>
      <trkpt lat="40.9668600" lon="0.3425370">
        <ele>337.8</ele>
        <time>2020-08-07T09:02:45Z</time>
      </trkpt>
      <trkpt lat="40.9668970" lon="0.3425670">
        <ele>337.6</ele>
        <time>2020-08-07T09:02:46Z</time>
      </trkpt>
      <trkpt lat="40.9669350" lon="0.3425970">
        <ele>337.3</ele>
        <time>2020-08-07T09:02:47Z</time>
      </trkpt>
      <trkpt lat="40.9670240" lon="0.3426780">
        <ele>336.6</ele>
        <time>2020-08-07T09:02:49Z</time>
      </trkpt>
      <trkpt lat="40.9670700" lon="0.3427280">
        <ele>336.1</ele>
        <time>2020-08-07T09:02:50Z</time>
      </trkpt>
      <trkpt lat="40.9671440" lon="0.3428410">
        <ele>335.1</ele>
        <time>2020-08-07T09:02:52Z</time>
      </trkpt>
      <trkpt lat="40.9671770" lon="0.3429010">
        <ele>334.7</ele>
        <time>2020-08-07T09:02:53Z</time>
      </trkpt>
      <trkpt lat="40.9672450" lon="0.3430800">
        <ele>333.5</ele>
        <time>2020-08-07T09:02:56Z</time>
      </trkpt>
      <trkpt lat="40.9672560" lon="0.3431460">
        <ele>333.2</ele>
        <time>2020-08-07T09:02:57Z</time>
      </trkpt>
      <trkpt lat="40.9672660" lon="0.3432120">
        <ele>332.8</ele>
        <time>2020-08-07T09:02:58Z</time>
      </trkpt>
      <trkpt lat="40.9672730" lon="0.3432810">
        <ele>332.5</ele>
        <time>2020-08-07T09:02:59Z</time>
      </trkpt>
      <trkpt lat="40.9672760" lon="0.3433560">
        <ele>332.1</ele>
        <time>2020-08-07T09:03:00Z</time>
      </trkpt>
      <trkpt lat="40.9672760" lon="0.3434690">
        <ele>331.6</ele>
        <time>2020-08-07T09:03:02Z</time>
      </trkpt>
      <trkpt lat="40.9672780" lon="0.3436360">
        <ele>330.7</ele>
        <time>2020-08-07T09:03:04Z</time>
      </trkpt>
      <trkpt lat="40.9672770" lon="0.3437200">
        <ele>330.3</ele>
        <time>2020-08-07T09:03:05Z</time>
      </trkpt>
      <trkpt lat="40.9672820" lon="0.3438870">
        <ele>329.3</ele>
        <time>2020-08-07T09:03:07Z</time>
      </trkpt>
      <trkpt lat="40.9673240" lon="0.3440400">
        <ele>328.5</ele>
        <time>2020-08-07T09:03:09Z</time>
      </trkpt>
      <trkpt lat="40.9674030" lon="0.3441940">
        <ele>327.6</ele>
        <time>2020-08-07T09:03:11Z</time>
      </trkpt>
      <trkpt lat="40.9674900" lon="0.3443320">
        <ele>326.7</ele>
        <time>2020-08-07T09:03:13Z</time>
      </trkpt>
      <trkpt lat="40.9675350" lon="0.3443980">
        <ele>326.3</ele>
        <time>2020-08-07T09:03:14Z</time>
      </trkpt>
      <trkpt lat="40.9676200" lon="0.3445270">
        <ele>325.4</ele>
        <time>2020-08-07T09:03:16Z</time>
      </trkpt>
      <trkpt lat="40.9676670" lon="0.3445860">
        <ele>325.0</ele>
        <time>2020-08-07T09:03:17Z</time>
      </trkpt>
      <trkpt lat="40.9677150" lon="0.3446350">
        <ele>324.7</ele>
        <time>2020-08-07T09:03:18Z</time>
      </trkpt>
      <trkpt lat="40.9678050" lon="0.3447390">
        <ele>323.9</ele>
        <time>2020-08-07T09:03:20Z</time>
      </trkpt>
      <trkpt lat="40.9678470" lon="0.3447850">
        <ele>323.6</ele>
        <time>2020-08-07T09:03:21Z</time>
      </trkpt>
      <trkpt lat="40.9679170" lon="0.3448920">
        <ele>322.8</ele>
        <time>2020-08-07T09:03:23Z</time>
      </trkpt>
      <trkpt lat="40.9679410" lon="0.3449490">
        <ele>322.5</ele>
        <time>2020-08-07T09:03:24Z</time>
      </trkpt>
      <trkpt lat="40.9679670" lon="0.3450830">
        <ele>321.8</ele>
        <time>2020-08-07T09:03:26Z</time>
      </trkpt>
      <trkpt lat="40.9679860" lon="0.3452210">
        <ele>321.2</ele>
        <time>2020-08-07T09:03:28Z</time>
      </trkpt>
      <trkpt lat="40.9679980" lon="0.3452920">
        <ele>321.0</ele>
        <time>2020-08-07T09:03:29Z</time>
      </trkpt>
      <trkpt lat="40.9680280" lon="0.3454320">
        <ele>320.4</ele>
        <time>2020-08-07T09:03:31Z</time>
      </trkpt>
      <trkpt lat="40.9680480" lon="0.3455010">
        <ele>320.1</ele>
        <time>2020-08-07T09:03:32Z</time>
      </trkpt>
      <trkpt lat="40.9680900" lon="0.3456400">
        <ele>319.5</ele>
        <time>2020-08-07T09:03:34Z</time>
      </trkpt>
      <trkpt lat="40.9681150" lon="0.3457130">
        <ele>319.1</ele>
        <time>2020-08-07T09:03:35Z</time>
      </trkpt>
      <trkpt lat="40.9681400" lon="0.3457850">
        <ele>318.8</ele>
        <time>2020-08-07T09:03:36Z</time>
      </trkpt>
      <trkpt lat="40.9681670" lon="0.3458500">
        <ele>318.5</ele>
        <time>2020-08-07T09:03:37Z</time>
      </trkpt>
      <trkpt lat="40.9681930" lon="0.3459190">
        <ele>318.1</ele>
        <time>2020-08-07T09:03:38Z</time>
      </trkpt>
      <trkpt lat="40.9682440" lon="0.3460500">
        <ele>317.4</ele>
        <time>2020-08-07T09:03:40Z</time>
      </trkpt>
      <trkpt lat="40.9682780" lon="0.3461130">
        <ele>316.9</ele>
        <time>2020-08-07T09:03:41Z</time>
      </trkpt>
      <trkpt lat="40.9683130" lon="0.3461730">
        <ele>316.5</ele>
        <time>2020-08-07T09:03:42Z</time>
      </trkpt>
      <trkpt lat="40.9683530" lon="0.3462290">
        <ele>316.1</ele>
        <time>2020-08-07T09:03:43Z</time>
      </trkpt>
      <trkpt lat="40.9683960" lon="0.3462780">
        <ele>315.7</ele>
        <time>2020-08-07T09:03:44Z</time>
      </trkpt>
      <trkpt lat="40.9684880" lon="0.3463520">
        <ele>315.0</ele>
        <time>2020-08-07T09:03:46Z</time>
      </trkpt>
      <trkpt lat="40.9685330" lon="0.3463860">
        <ele>314.6</ele>
        <time>2020-08-07T09:03:47Z</time>
      </trkpt>
      <trkpt lat="40.9685770" lon="0.3464270">
        <ele>314.2</ele>
        <time>2020-08-07T09:03:48Z</time>
      </trkpt>
      <trkpt lat="40.9686120" lon="0.3464700">
        <ele>313.8</ele>
        <time>2020-08-07T09:03:49Z</time>
      </trkpt>
      <trkpt lat="40.9686430" lon="0.3465130">
        <ele>313.5</ele>
        <time>2020-08-07T09:03:50Z</time>
      </trkpt>
      <trkpt lat="40.9686870" lon="0.3465990">
        <ele>313.0</ele>
        <time>2020-08-07T09:03:52Z</time>
      </trkpt>
      <trkpt lat="40.9687130" lon="0.3466490">
        <ele>312.8</ele>
        <time>2020-08-07T09:03:53Z</time>
      </trkpt>
      <trkpt lat="40.9687360" lon="0.3466920">
        <ele>312.6</ele>
        <time>2020-08-07T09:03:54Z</time>
      </trkpt>
      <trkpt lat="40.9687580" lon="0.3467460">
        <ele>312.4</ele>
        <time>2020-08-07T09:03:55Z</time>
      </trkpt>
      <trkpt lat="40.9687750" lon="0.3467940">
        <ele>312.2</ele>
        <time>2020-08-07T09:03:56Z</time>
      </trkpt>
      <trkpt lat="40.9687940" lon="0.3468420">
        <ele>312.0</ele>
        <time>2020-08-07T09:03:57Z</time>
      </trkpt>
      <trkpt lat="40.9688240" lon="0.3469220">
        <ele>311.7</ele>
        <time>2020-08-07T09:03:59Z</time>
      </trkpt>
      <trkpt lat="40.9688410" lon="0.3469560">
        <ele>311.5</ele>
        <time>2020-08-07T09:04:00Z</time>
      </trkpt>
      <trkpt lat="40.9688550" lon="0.3470300">
        <ele>311.2</ele>
        <time>2020-08-07T09:04:02Z</time>
      </trkpt>
      <trkpt lat="40.9688580" lon="0.3470710">
        <ele>311.1</ele>
        <time>2020-08-07T09:04:04Z</time>
      </trkpt>
      <trkpt lat="40.9688570" lon="0.3470770">
        <ele>311.1</ele>
        <time>2020-08-07T09:04:05Z</time>
      </trkpt>
      <trkpt lat="40.9688560" lon="0.3470820">
        <ele>311.0</ele>
        <time>2020-08-07T09:04:07Z</time>
      </trkpt>
      <trkpt lat="40.9688550" lon="0.3470880">
        <ele>311.0</ele>
        <time>2020-08-07T09:04:09Z</time>
      </trkpt>
      <trkpt lat="40.9688540" lon="0.3470930">
        <ele>311.0</ele>
        <time>2020-08-07T09:04:10Z</time>
      </trkpt>
      <trkpt lat="40.9688530" lon="0.3470990">
        <ele>311.0</ele>
        <time>2020-08-07T09:04:12Z</time>
      </trkpt>
      <trkpt lat="40.9688520" lon="0.3471040">
        <ele>310.9</ele>
        <time>2020-08-07T09:04:13Z</time>
      </trkpt>
      <trkpt lat="40.9688510" lon="0.3471090">
        <ele>310.9</ele>
        <time>2020-08-07T09:04:14Z</time>
      </trkpt>
      <trkpt lat="40.9688500" lon="0.3471150">
        <ele>310.9</ele>
        <time>2020-08-07T09:04:16Z</time>
      </trkpt>
      <trkpt lat="40.9688490" lon="0.3471200">
        <ele>310.9</ele>
        <time>2020-08-07T09:04:20Z</time>
      </trkpt>
      <trkpt lat="40.9688480" lon="0.3471260">
        <ele>310.9</ele>
        <time>2020-08-07T09:04:21Z</time>
      </trkpt>
      <trkpt lat="40.9688470" lon="0.3471310">
        <ele>310.8</ele>
        <time>2020-08-07T09:04:22Z</time>
      </trkpt>
      <trkpt lat="40.9688840" lon="0.3472040">
        <ele>310.6</ele>
        <time>2020-08-07T09:04:24Z</time>
      </trkpt>
      <trkpt lat="40.9689050" lon="0.3472420">
        <ele>310.4</ele>
        <time>2020-08-07T09:04:25Z</time>
      </trkpt>
      <trkpt lat="40.9689570" lon="0.3473210">
        <ele>310.0</ele>
        <time>2020-08-07T09:04:27Z</time>
      </trkpt>
      <trkpt lat="40.9689920" lon="0.3473600">
        <ele>309.8</ele>
        <time>2020-08-07T09:04:28Z</time>
      </trkpt>
      <trkpt lat="40.9690770" lon="0.3474270">
        <ele>309.2</ele>
        <time>2020-08-07T09:04:30Z</time>
      </trkpt>
      <trkpt lat="40.9691260" lon="0.3474420">
        <ele>308.9</ele>
        <time>2020-08-07T09:04:31Z</time>
      </trkpt>
      <trkpt lat="40.9692490" lon="0.3474410">
        <ele>308.0</ele>
        <time>2020-08-07T09:04:33Z</time>
      </trkpt>
      <trkpt lat="40.9693440" lon="0.3474270">
        <ele>307.4</ele>
        <time>2020-08-07T09:04:35Z</time>
      </trkpt>
      <trkpt lat="40.9694030" lon="0.3474170">
        <ele>307.0</ele>
        <time>2020-08-07T09:04:36Z</time>
      </trkpt>
      <trkpt lat="40.9697040" lon="0.3474200">
        <ele>305.0</ele>
        <time>2020-08-07T09:04:42Z</time>
      </trkpt>
      <trkpt lat="40.9697760" lon="0.3474280">
        <ele>304.6</ele>
        <time>2020-08-07T09:04:43Z</time>
      </trkpt>
      <trkpt lat="40.9698750" lon="0.3474660">
        <ele>303.9</ele>
        <time>2020-08-07T09:04:45Z</time>
      </trkpt>
      <trkpt lat="40.9699440" lon="0.3475140">
        <ele>303.6</ele>
        <time>2020-08-07T09:04:47Z</time>
      </trkpt>
      <trkpt lat="40.9699790" lon="0.3475600">
        <ele>303.4</ele>
        <time>2020-08-07T09:04:48Z</time>
      </trkpt>
      <trkpt lat="40.9700140" lon="0.3476090">
        <ele>303.2</ele>
        <time>2020-08-07T09:04:49Z</time>
      </trkpt>
      <trkpt lat="40.9700450" lon="0.3477020">
        <ele>302.8</ele>
        <time>2020-08-07T09:04:51Z</time>
      </trkpt>
      <trkpt lat="40.9700670" lon="0.3477960">
        <ele>302.5</ele>
        <time>2020-08-07T09:04:53Z</time>
      </trkpt>
      <trkpt lat="40.9700810" lon="0.3478530">
        <ele>302.3</ele>
        <time>2020-08-07T09:04:54Z</time>
      </trkpt>
      <trkpt lat="40.9701080" lon="0.3479830">
        <ele>301.9</ele>
        <time>2020-08-07T09:04:56Z</time>
      </trkpt>
      <trkpt lat="40.9701340" lon="0.3481050">
        <ele>301.5</ele>
        <time>2020-08-07T09:04:58Z</time>
      </trkpt>
      <trkpt lat="40.9701690" lon="0.3482250">
        <ele>301.0</ele>
        <time>2020-08-07T09:05:00Z</time>
      </trkpt>
      <trkpt lat="40.9702140" lon="0.3483400">
        <ele>300.5</ele>
        <time>2020-08-07T09:05:02Z</time>
      </trkpt>
      <trkpt lat="40.9702710" lon="0.3484180">
        <ele>300.0</ele>
        <time>2020-08-07T09:05:04Z</time>
      </trkpt>
      <trkpt lat="40.9703490" lon="0.3484780">
        <ele>299.3</ele>
        <time>2020-08-07T09:05:06Z</time>
      </trkpt>
      <trkpt lat="40.9703990" lon="0.3484930">
        <ele>299.0</ele>
        <time>2020-08-07T09:05:07Z</time>
      </trkpt>
      <trkpt lat="40.9705100" lon="0.3485010">
        <ele>298.2</ele>
        <time>2020-08-07T09:05:09Z</time>
      </trkpt>
      <trkpt lat="40.9705670" lon="0.3485000">
        <ele>297.8</ele>
        <time>2020-08-07T09:05:10Z</time>
      </trkpt>
      <trkpt lat="40.9706310" lon="0.3484830">
        <ele>297.3</ele>
        <time>2020-08-07T09:05:11Z</time>
      </trkpt>
      <trkpt lat="40.9707490" lon="0.3484340">
        <ele>296.1</ele>
        <time>2020-08-07T09:05:13Z</time>
      </trkpt>
      <trkpt lat="40.9708710" lon="0.3484020">
        <ele>294.7</ele>
        <time>2020-08-07T09:05:15Z</time>
      </trkpt>
      <trkpt lat="40.9709360" lon="0.3483930">
        <ele>294.2</ele>
        <time>2020-08-07T09:05:16Z</time>
      </trkpt>
      <trkpt lat="40.9710010" lon="0.3483890">
        <ele>293.6</ele>
        <time>2020-08-07T09:05:17Z</time>
      </trkpt>
      <trkpt lat="40.9710630" lon="0.3483940">
        <ele>293.1</ele>
        <time>2020-08-07T09:05:18Z</time>
      </trkpt>
      <trkpt lat="40.9711650" lon="0.3484310">
        <ele>294.3</ele>
        <time>2020-08-07T09:05:20Z</time>
      </trkpt>
      <trkpt lat="40.9712160" lon="0.3484610">
        <ele>294.6</ele>
        <time>2020-08-07T09:05:21Z</time>
      </trkpt>
      <trkpt lat="40.9713140" lon="0.3485200">
        <ele>294.2</ele>
        <time>2020-08-07T09:05:23Z</time>
      </trkpt>
      <trkpt lat="40.9713660" lon="0.3485510">
        <ele>293.9</ele>
        <time>2020-08-07T09:05:24Z</time>
      </trkpt>
      <trkpt lat="40.9714160" lon="0.3485750">
        <ele>293.6</ele>
        <time>2020-08-07T09:05:25Z</time>
      </trkpt>
      <trkpt lat="40.9715170" lon="0.3485910">
        <ele>293.1</ele>
        <time>2020-08-07T09:05:27Z</time>
      </trkpt>
      <trkpt lat="40.9715710" lon="0.3485810">
        <ele>292.8</ele>
        <time>2020-08-07T09:05:28Z</time>
      </trkpt>
      <trkpt lat="40.9716240" lon="0.3485640">
        <ele>292.6</ele>
        <time>2020-08-07T09:05:29Z</time>
      </trkpt>
      <trkpt lat="40.9716700" lon="0.3485240">
        <ele>292.4</ele>
        <time>2020-08-07T09:05:30Z</time>
      </trkpt>
      <trkpt lat="40.9717210" lon="0.3484860">
        <ele>292.1</ele>
        <time>2020-08-07T09:05:31Z</time>
      </trkpt>
      <trkpt lat="40.9717730" lon="0.3484450">
        <ele>291.9</ele>
        <time>2020-08-07T09:05:32Z</time>
      </trkpt>
      <trkpt lat="40.9718730" lon="0.3483790">
        <ele>291.7</ele>
        <time>2020-08-07T09:05:34Z</time>
      </trkpt>
      <trkpt lat="40.9719280" lon="0.3483470">
        <ele>291.5</ele>
        <time>2020-08-07T09:05:35Z</time>
      </trkpt>
      <trkpt lat="40.9719810" lon="0.3483130">
        <ele>291.4</ele>
        <time>2020-08-07T09:05:36Z</time>
      </trkpt>
      <trkpt lat="40.9720810" lon="0.3482600">
        <ele>291.2</ele>
        <time>2020-08-07T09:05:38Z</time>
      </trkpt>
      <trkpt lat="40.9721770" lon="0.3482320">
        <ele>290.9</ele>
        <time>2020-08-07T09:05:40Z</time>
      </trkpt>
      <trkpt lat="40.9722650" lon="0.3482120">
        <ele>290.7</ele>
        <time>2020-08-07T09:05:42Z</time>
      </trkpt>
      <trkpt lat="40.9723120" lon="0.3482040">
        <ele>290.5</ele>
        <time>2020-08-07T09:05:43Z</time>
      </trkpt>
      <trkpt lat="40.9724130" lon="0.3482010">
        <ele>290.2</ele>
        <time>2020-08-07T09:05:45Z</time>
      </trkpt>
      <trkpt lat="40.9725230" lon="0.3482030">
        <ele>289.8</ele>
        <time>2020-08-07T09:05:47Z</time>
      </trkpt>
      <trkpt lat="40.9725740" lon="0.3482030">
        <ele>289.6</ele>
        <time>2020-08-07T09:05:48Z</time>
      </trkpt>
      <trkpt lat="40.9726260" lon="0.3482040">
        <ele>289.3</ele>
        <time>2020-08-07T09:05:49Z</time>
      </trkpt>
      <trkpt lat="40.9727410" lon="0.3481980">
        <ele>288.9</ele>
        <time>2020-08-07T09:05:51Z</time>
      </trkpt>
      <trkpt lat="40.9727980" lon="0.3481870">
        <ele>288.7</ele>
        <time>2020-08-07T09:05:52Z</time>
      </trkpt>
      <trkpt lat="40.9729000" lon="0.3481440">
        <ele>288.3</ele>
        <time>2020-08-07T09:05:54Z</time>
      </trkpt>
      <trkpt lat="40.9730090" lon="0.3480920">
        <ele>287.8</ele>
        <time>2020-08-07T09:05:56Z</time>
      </trkpt>
      <trkpt lat="40.9730560" lon="0.3480740">
        <ele>287.7</ele>
        <time>2020-08-07T09:05:57Z</time>
      </trkpt>
      <trkpt lat="40.9731090" lon="0.3480600">
        <ele>287.6</ele>
        <time>2020-08-07T09:05:58Z</time>
      </trkpt>
      <trkpt lat="40.9732260" lon="0.3480430">
        <ele>287.4</ele>
        <time>2020-08-07T09:06:00Z</time>
      </trkpt>
      <trkpt lat="40.9732930" lon="0.3480440">
        <ele>287.2</ele>
        <time>2020-08-07T09:06:01Z</time>
      </trkpt>
      <trkpt lat="40.9733580" lon="0.3480390">
        <ele>287.1</ele>
        <time>2020-08-07T09:06:02Z</time>
      </trkpt>
      <trkpt lat="40.9734710" lon="0.3480170">
        <ele>287.0</ele>
        <time>2020-08-07T09:06:04Z</time>
      </trkpt>
      <trkpt lat="40.9735680" lon="0.3479830">
        <ele>286.9</ele>
        <time>2020-08-07T09:06:06Z</time>
      </trkpt>
      <trkpt lat="40.9736600" lon="0.3479610">
        <ele>286.9</ele>
        <time>2020-08-07T09:06:08Z</time>
      </trkpt>
      <trkpt lat="40.9737030" lon="0.3479520">
        <ele>286.8</ele>
        <time>2020-08-07T09:06:09Z</time>
      </trkpt>
      <trkpt lat="40.9737300" lon="0.3479470">
        <ele>286.8</ele>
        <time>2020-08-07T09:06:10Z</time>
      </trkpt>
      <trkpt lat="40.9737650" lon="0.3479340">
        <ele>286.7</ele>
        <time>2020-08-07T09:06:11Z</time>
      </trkpt>
      <trkpt lat="40.9737960" lon="0.3479180">
        <ele>286.7</ele>
        <time>2020-08-07T09:06:12Z</time>
      </trkpt>
      <trkpt lat="40.9738190" lon="0.3478960">
        <ele>286.6</ele>
        <time>2020-08-07T09:06:14Z</time>
      </trkpt>
      <trkpt lat="40.9738200" lon="0.3478940">
        <ele>286.6</ele>
        <time>2020-08-07T09:06:15Z</time>
      </trkpt>
      <trkpt lat="40.9738180" lon="0.3478910">
        <ele>286.6</ele>
        <time>2020-08-07T09:06:16Z</time>
      </trkpt>
      <trkpt lat="40.9738160" lon="0.3478880">
        <ele>286.6</ele>
        <time>2020-08-07T09:06:18Z</time>
      </trkpt>
      <trkpt lat="40.9738300" lon="0.3479010">
        <ele>286.5</ele>
        <time>2020-08-07T09:06:20Z</time>
      </trkpt>
      <trkpt lat="40.9738420" lon="0.3479070">
        <ele>286.5</ele>
        <time>2020-08-07T09:06:21Z</time>
      </trkpt>
      <trkpt lat="40.9738510" lon="0.3479110">
        <ele>286.5</ele>
        <time>2020-08-07T09:06:22Z</time>
      </trkpt>
      <trkpt lat="40.9738780" lon="0.3478980">
        <ele>286.4</ele>
        <time>2020-08-07T09:06:24Z</time>
      </trkpt>
      <trkpt lat="40.9739230" lon="0.3478670">
        <ele>286.2</ele>
        <time>2020-08-07T09:06:26Z</time>
      </trkpt>
      <trkpt lat="40.9739510" lon="0.3478550">
        <ele>286.2</ele>
        <time>2020-08-07T09:06:27Z</time>
      </trkpt>
      <trkpt lat="40.9740010" lon="0.3478470">
        <ele>286.0</ele>
        <time>2020-08-07T09:06:29Z</time>
      </trkpt>
      <trkpt lat="40.9740270" lon="0.3478680">
        <ele>286.0</ele>
        <time>2020-08-07T09:06:30Z</time>
      </trkpt>
      <trkpt lat="40.9740350" lon="0.3478670">
        <ele>286.0</ele>
        <time>2020-08-07T09:06:31Z</time>
      </trkpt>
      <trkpt lat="40.9740490" lon="0.3478630">
        <ele>285.9</ele>
        <time>2020-08-07T09:06:32Z</time>
      </trkpt>
      <trkpt lat="40.9740630" lon="0.3478660">
        <ele>285.9</ele>
        <time>2020-08-07T09:06:33Z</time>
      </trkpt>
      <trkpt lat="40.9740850" lon="0.3478640">
        <ele>285.9</ele>
        <time>2020-08-07T09:06:35Z</time>
      </trkpt>
      <trkpt lat="40.9741050" lon="0.3478560">
        <ele>285.9</ele>
        <time>2020-08-07T09:06:37Z</time>
      </trkpt>
      <trkpt lat="40.9741170" lon="0.3478530">
        <ele>285.9</ele>
        <time>2020-08-07T09:06:38Z</time>
      </trkpt>
      <trkpt lat="40.9741210" lon="0.3478470">
        <ele>285.9</ele>
        <time>2020-08-07T09:06:39Z</time>
      </trkpt>
      <trkpt lat="40.9741320" lon="0.3478300">
        <ele>285.8</ele>
        <time>2020-08-07T09:06:41Z</time>
      </trkpt>
      <trkpt lat="40.9741290" lon="0.3478520">
        <ele>285.8</ele>
        <time>2020-08-07T09:06:42Z</time>
      </trkpt>
      <trkpt lat="40.9741310" lon="0.3478700">
        <ele>285.8</ele>
        <time>2020-08-07T09:06:43Z</time>
      </trkpt>
      <trkpt lat="40.9741270" lon="0.3479150">
        <ele>285.8</ele>
        <time>2020-08-07T09:06:45Z</time>
      </trkpt>
      <trkpt lat="40.9741620" lon="0.3479300">
        <ele>285.8</ele>
        <time>2020-08-07T09:06:47Z</time>
      </trkpt>
      <trkpt lat="40.9741940" lon="0.3479310">
        <ele>285.8</ele>
        <time>2020-08-07T09:06:49Z</time>
      </trkpt>
      <trkpt lat="40.9742180" lon="0.3478850">
        <ele>285.8</ele>
        <time>2020-08-07T09:06:50Z</time>
      </trkpt>
      <trkpt lat="40.9742400" lon="0.3478600">
        <ele>285.8</ele>
        <time>2020-08-07T09:06:51Z</time>
      </trkpt>
      <trkpt lat="40.9742580" lon="0.3478320">
        <ele>285.9</ele>
        <time>2020-08-07T09:06:52Z</time>
      </trkpt>
      <trkpt lat="40.9742910" lon="0.3478180">
        <ele>285.9</ele>
        <time>2020-08-07T09:06:53Z</time>
      </trkpt>
      <trkpt lat="40.9743000" lon="0.3478140">
        <ele>285.9</ele>
        <time>2020-08-07T09:06:54Z</time>
      </trkpt>
      <trkpt lat="40.9743310" lon="0.3477950">
        <ele>285.9</ele>
        <time>2020-08-07T09:06:56Z</time>
      </trkpt>
      <trkpt lat="40.9743380" lon="0.3477920">
        <ele>285.8</ele>
        <time>2020-08-07T09:06:57Z</time>
      </trkpt>
      <trkpt lat="40.9744520" lon="0.3477610">
        <ele>285.7</ele>
        <time>2020-08-07T09:07:03Z</time>
      </trkpt>
      <trkpt lat="40.9744820" lon="0.3477590">
        <ele>285.7</ele>
        <time>2020-08-07T09:07:04Z</time>
      </trkpt>
      <trkpt lat="40.9745800" lon="0.3477900">
        <ele>285.5</ele>
        <time>2020-08-07T09:07:05Z</time>
      </trkpt>
      <trkpt lat="40.9746370" lon="0.3478200">
        <ele>285.4</ele>
        <time>2020-08-07T09:07:06Z</time>
      </trkpt>
      <trkpt lat="40.9749210" lon="0.3478420">
        <ele>285.2</ele>
        <time>2020-08-07T09:07:07Z</time>
      </trkpt>
      <trkpt lat="40.9749790" lon="0.3478540">
        <ele>285.1</ele>
        <time>2020-08-07T09:07:08Z</time>
      </trkpt>
      <trkpt lat="40.9750710" lon="0.3478560">
        <ele>285.1</ele>
        <time>2020-08-07T09:07:09Z</time>
      </trkpt>
      <trkpt lat="40.9750750" lon="0.3478590">
        <ele>285.1</ele>
        <time>2020-08-07T09:07:11Z</time>
      </trkpt>
      <trkpt lat="40.9750510" lon="0.3478390">
        <ele>285.1</ele>
        <time>2020-08-07T09:07:12Z</time>
      </trkpt>
      <trkpt lat="40.9750390" lon="0.3477970">
        <ele>285.0</ele>
        <time>2020-08-07T09:07:13Z</time>
      </trkpt>
      <trkpt lat="40.9750730" lon="0.3477720">
        <ele>285.0</ele>
        <time>2020-08-07T09:07:15Z</time>
      </trkpt>
      <trkpt lat="40.9751190" lon="0.3477640">
        <ele>285.0</ele>
        <time>2020-08-07T09:07:16Z</time>
      </trkpt>
      <trkpt lat="40.9751590" lon="0.3477660">
        <ele>284.9</ele>
        <time>2020-08-07T09:07:17Z</time>
      </trkpt>
      <trkpt lat="40.9752050" lon="0.3477730">
        <ele>284.9</ele>
        <time>2020-08-07T09:07:18Z</time>
      </trkpt>
      <trkpt lat="40.9752650" lon="0.3477840">
        <ele>284.9</ele>
        <time>2020-08-07T09:07:19Z</time>
      </trkpt>
      <trkpt lat="40.9753050" lon="0.3477940">
        <ele>284.9</ele>
        <time>2020-08-07T09:07:21Z</time>
      </trkpt>
      <trkpt lat="40.9753380" lon="0.3478050">
        <ele>284.9</ele>
        <time>2020-08-07T09:07:22Z</time>
      </trkpt>
      <trkpt lat="40.9753690" lon="0.3478150">
        <ele>284.9</ele>
        <time>2020-08-07T09:07:23Z</time>
      </trkpt>
      <trkpt lat="40.9754010" lon="0.3478260">
        <ele>284.8</ele>
        <time>2020-08-07T09:07:24Z</time>
      </trkpt>
      <trkpt lat="40.9755290" lon="0.3478630">
        <ele>284.6</ele>
        <time>2020-08-07T09:07:26Z</time>
      </trkpt>
      <trkpt lat="40.9756680" lon="0.3478990">
        <ele>284.2</ele>
        <time>2020-08-07T09:07:27Z</time>
      </trkpt>
      <trkpt lat="40.9758220" lon="0.3479440">
        <ele>283.9</ele>
        <time>2020-08-07T09:07:29Z</time>
      </trkpt>
      <trkpt lat="40.9759480" lon="0.3479920">
        <ele>283.7</ele>
        <time>2020-08-07T09:07:31Z</time>
      </trkpt>
      <trkpt lat="40.9759910" lon="0.3480170">
        <ele>283.6</ele>
        <time>2020-08-07T09:07:32Z</time>
      </trkpt>
      <trkpt lat="40.9760250" lon="0.3480400">
        <ele>283.5</ele>
        <time>2020-08-07T09:07:33Z</time>
      </trkpt>
      <trkpt lat="40.9760940" lon="0.3480870">
        <ele>283.4</ele>
        <time>2020-08-07T09:07:35Z</time>
      </trkpt>
      <trkpt lat="40.9761260" lon="0.3481080">
        <ele>283.4</ele>
        <time>2020-08-07T09:07:36Z</time>
      </trkpt>
      <trkpt lat="40.9761650" lon="0.3481320">
        <ele>283.3</ele>
        <time>2020-08-07T09:07:37Z</time>
      </trkpt>
      <trkpt lat="40.9761990" lon="0.3481550">
        <ele>283.3</ele>
        <time>2020-08-07T09:07:38Z</time>
      </trkpt>
      <trkpt lat="40.9762540" lon="0.3481920">
        <ele>283.2</ele>
        <time>2020-08-07T09:07:40Z</time>
      </trkpt>
      <trkpt lat="40.9763190" lon="0.3482440">
        <ele>283.0</ele>
        <time>2020-08-07T09:07:42Z</time>
      </trkpt>
      <trkpt lat="40.9763460" lon="0.3482690">
        <ele>282.9</ele>
        <time>2020-08-07T09:07:43Z</time>
      </trkpt>
      <trkpt lat="40.9763740" lon="0.3482940">
        <ele>282.9</ele>
        <time>2020-08-07T09:07:44Z</time>
      </trkpt>
      <trkpt lat="40.9764000" lon="0.3483180">
        <ele>282.8</ele>
        <time>2020-08-07T09:07:45Z</time>
      </trkpt>
      <trkpt lat="40.9764670" lon="0.3483730">
        <ele>282.7</ele>
        <time>2020-08-07T09:07:47Z</time>
      </trkpt>
      <trkpt lat="40.9764990" lon="0.3484010">
        <ele>282.6</ele>
        <time>2020-08-07T09:07:48Z</time>
      </trkpt>
      <trkpt lat="40.9765570" lon="0.3484550">
        <ele>282.5</ele>
        <time>2020-08-07T09:07:50Z</time>
      </trkpt>
      <trkpt lat="40.9765800" lon="0.3484810">
        <ele>282.5</ele>
        <time>2020-08-07T09:07:51Z</time>
      </trkpt>
      <trkpt lat="40.9766240" lon="0.3485350">
        <ele>282.3</ele>
        <time>2020-08-07T09:07:53Z</time>
      </trkpt>
      <trkpt lat="40.9766530" lon="0.3485690">
        <ele>282.2</ele>
        <time>2020-08-07T09:07:54Z</time>
      </trkpt>
      <trkpt lat="40.9767120" lon="0.3486370">
        <ele>282.0</ele>
        <time>2020-08-07T09:07:56Z</time>
      </trkpt>
      <trkpt lat="40.9767680" lon="0.3487050">
        <ele>281.7</ele>
        <time>2020-08-07T09:07:58Z</time>
      </trkpt>
      <trkpt lat="40.9768000" lon="0.3487460">
        <ele>281.6</ele>
        <time>2020-08-07T09:07:59Z</time>
      </trkpt>
      <trkpt lat="40.9768250" lon="0.3487820">
        <ele>281.5</ele>
        <time>2020-08-07T09:08:00Z</time>
      </trkpt>
      <trkpt lat="40.9768540" lon="0.3488260">
        <ele>281.4</ele>
        <time>2020-08-07T09:08:01Z</time>
      </trkpt>
      <trkpt lat="40.9768790" lon="0.3488710">
        <ele>281.3</ele>
        <time>2020-08-07T09:08:02Z</time>
      </trkpt>
      <trkpt lat="40.9768990" lon="0.3489090">
        <ele>281.3</ele>
        <time>2020-08-07T09:08:03Z</time>
      </trkpt>
      <trkpt lat="40.9769230" lon="0.3489560">
        <ele>281.2</ele>
        <time>2020-08-07T09:08:04Z</time>
      </trkpt>
      <trkpt lat="40.9769640" lon="0.3490330">
        <ele>281.0</ele>
        <time>2020-08-07T09:08:06Z</time>
      </trkpt>
      <trkpt lat="40.9769800" lon="0.3490680">
        <ele>281.0</ele>
        <time>2020-08-07T09:08:07Z</time>
      </trkpt>
      <trkpt lat="40.9770060" lon="0.3491440">
        <ele>280.9</ele>
        <time>2020-08-07T09:08:09Z</time>
      </trkpt>
      <trkpt lat="40.9770300" lon="0.3492110">
        <ele>280.9</ele>
        <time>2020-08-07T09:08:11Z</time>
      </trkpt>
      <trkpt lat="40.9770470" lon="0.3492550">
        <ele>280.9</ele>
        <time>2020-08-07T09:08:12Z</time>
      </trkpt>
      <trkpt lat="40.9770530" lon="0.3492730">
        <ele>280.8</ele>
        <time>2020-08-07T09:08:13Z</time>
      </trkpt>
      <trkpt lat="40.9770700" lon="0.3493530">
        <ele>280.8</ele>
        <time>2020-08-07T09:08:15Z</time>
      </trkpt>
      <trkpt lat="40.9770800" lon="0.3494360">
        <ele>280.7</ele>
        <time>2020-08-07T09:08:17Z</time>
      </trkpt>
      <trkpt lat="40.9770840" lon="0.3494820">
        <ele>280.7</ele>
        <time>2020-08-07T09:08:18Z</time>
      </trkpt>
      <trkpt lat="40.9770850" lon="0.3495180">
        <ele>280.7</ele>
        <time>2020-08-07T09:08:19Z</time>
      </trkpt>
      <trkpt lat="40.9770870" lon="0.3495550">
        <ele>280.7</ele>
        <time>2020-08-07T09:08:20Z</time>
      </trkpt>
      <trkpt lat="40.9770890" lon="0.3495990">
        <ele>280.7</ele>
        <time>2020-08-07T09:08:21Z</time>
      </trkpt>
      <trkpt lat="40.9770890" lon="0.3496380">
        <ele>280.7</ele>
        <time>2020-08-07T09:08:22Z</time>
      </trkpt>
      <trkpt lat="40.9770820" lon="0.3497180">
        <ele>280.8</ele>
        <time>2020-08-07T09:08:24Z</time>
      </trkpt>
      <trkpt lat="40.9770600" lon="0.3497870">
        <ele>281.0</ele>
        <time>2020-08-07T09:08:26Z</time>
      </trkpt>
      <trkpt lat="40.9770430" lon="0.3498250">
        <ele>281.1</ele>
        <time>2020-08-07T09:08:27Z</time>
      </trkpt>
      <trkpt lat="40.9770230" lon="0.3498620">
        <ele>281.2</ele>
        <time>2020-08-07T09:08:28Z</time>
      </trkpt>
      <trkpt lat="40.9769860" lon="0.3499150">
        <ele>281.4</ele>
        <time>2020-08-07T09:08:30Z</time>
      </trkpt>
      <trkpt lat="40.9769650" lon="0.3499440">
        <ele>281.6</ele>
        <time>2020-08-07T09:08:31Z</time>
      </trkpt>
      <trkpt lat="40.9769470" lon="0.3499680">
        <ele>281.7</ele>
        <time>2020-08-07T09:08:32Z</time>
      </trkpt>
      <trkpt lat="40.9769170" lon="0.3500090">
        <ele>282.0</ele>
        <time>2020-08-07T09:08:34Z</time>
      </trkpt>
      <trkpt lat="40.9768990" lon="0.3500320">
        <ele>282.1</ele>
        <time>2020-08-07T09:08:35Z</time>
      </trkpt>
      <trkpt lat="40.9768660" lon="0.3500730">
        <ele>282.4</ele>
        <time>2020-08-07T09:08:37Z</time>
      </trkpt>
      <trkpt lat="40.9768330" lon="0.3501050">
        <ele>282.7</ele>
        <time>2020-08-07T09:08:39Z</time>
      </trkpt>
      <trkpt lat="40.9768170" lon="0.3501220">
        <ele>282.8</ele>
        <time>2020-08-07T09:08:40Z</time>
      </trkpt>
      <trkpt lat="40.9767860" lon="0.3501610">
        <ele>283.1</ele>
        <time>2020-08-07T09:08:42Z</time>
      </trkpt>
      <trkpt lat="40.9767650" lon="0.3501920">
        <ele>283.3</ele>
        <time>2020-08-07T09:08:43Z</time>
      </trkpt>
      <trkpt lat="40.9767580" lon="0.3502010">
        <ele>283.4</ele>
        <time>2020-08-07T09:08:44Z</time>
      </trkpt>
      <trkpt lat="40.9767490" lon="0.3502210">
        <ele>283.5</ele>
        <time>2020-08-07T09:08:45Z</time>
      </trkpt>
      <trkpt lat="40.9767420" lon="0.3502380">
        <ele>283.5</ele>
        <time>2020-08-07T09:08:46Z</time>
      </trkpt>
      <trkpt lat="40.9767340" lon="0.3502570">
        <ele>283.6</ele>
        <time>2020-08-07T09:08:47Z</time>
      </trkpt>
      <trkpt lat="40.9767130" lon="0.3503070">
        <ele>283.9</ele>
        <time>2020-08-07T09:08:49Z</time>
      </trkpt>
      <trkpt lat="40.9767020" lon="0.3503450">
        <ele>284.1</ele>
        <time>2020-08-07T09:08:50Z</time>
      </trkpt>
      <trkpt lat="40.9766980" lon="0.3503560">
        <ele>284.1</ele>
        <time>2020-08-07T09:08:51Z</time>
      </trkpt>
      <trkpt lat="40.9766890" lon="0.3504080">
        <ele>284.4</ele>
        <time>2020-08-07T09:08:53Z</time>
      </trkpt>
      <trkpt lat="40.9766870" lon="0.3504360">
        <ele>284.5</ele>
        <time>2020-08-07T09:08:54Z</time>
      </trkpt>
      <trkpt lat="40.9766870" lon="0.3504870">
        <ele>284.8</ele>
        <time>2020-08-07T09:08:56Z</time>
      </trkpt>
      <trkpt lat="40.9766950" lon="0.3505490">
        <ele>285.1</ele>
        <time>2020-08-07T09:08:58Z</time>
      </trkpt>
      <trkpt lat="40.9767020" lon="0.3505810">
        <ele>285.3</ele>
        <time>2020-08-07T09:08:59Z</time>
      </trkpt>
      <trkpt lat="40.9767180" lon="0.3506300">
        <ele>285.6</ele>
        <time>2020-08-07T09:09:01Z</time>
      </trkpt>
      <trkpt lat="40.9767420" lon="0.3506810">
        <ele>286.0</ele>
        <time>2020-08-07T09:09:03Z</time>
      </trkpt>
      <trkpt lat="40.9767550" lon="0.3507030">
        <ele>286.2</ele>
        <time>2020-08-07T09:09:04Z</time>
      </trkpt>
      <trkpt lat="40.9767810" lon="0.3507540">
        <ele>286.6</ele>
        <time>2020-08-07T09:09:06Z</time>
      </trkpt>
      <trkpt lat="40.9767940" lon="0.3507780">
        <ele>286.8</ele>
        <time>2020-08-07T09:09:07Z</time>
      </trkpt>
      <trkpt lat="40.9768180" lon="0.3508210">
        <ele>287.1</ele>
        <time>2020-08-07T09:09:09Z</time>
      </trkpt>
      <trkpt lat="40.9768310" lon="0.3508400">
        <ele>287.3</ele>
        <time>2020-08-07T09:09:10Z</time>
      </trkpt>
      <trkpt lat="40.9768580" lon="0.3508810">
        <ele>287.7</ele>
        <time>2020-08-07T09:09:12Z</time>
      </trkpt>
      <trkpt lat="40.9768740" lon="0.3509030">
        <ele>287.9</ele>
        <time>2020-08-07T09:09:13Z</time>
      </trkpt>
      <trkpt lat="40.9769100" lon="0.3509490">
        <ele>288.4</ele>
        <time>2020-08-07T09:09:15Z</time>
      </trkpt>
      <trkpt lat="40.9769380" lon="0.3509930">
        <ele>288.8</ele>
        <time>2020-08-07T09:09:17Z</time>
      </trkpt>
      <trkpt lat="40.9769520" lon="0.3510140">
        <ele>289.0</ele>
        <time>2020-08-07T09:09:18Z</time>
      </trkpt>
      <trkpt lat="40.9769830" lon="0.3510580">
        <ele>289.3</ele>
        <time>2020-08-07T09:09:20Z</time>
      </trkpt>
      <trkpt lat="40.9770130" lon="0.3511010">
        <ele>289.7</ele>
        <time>2020-08-07T09:09:22Z</time>
      </trkpt>
      <trkpt lat="40.9770380" lon="0.3511330">
        <ele>289.9</ele>
        <time>2020-08-07T09:09:23Z</time>
      </trkpt>
      <trkpt lat="40.9770450" lon="0.3511440">
        <ele>290.0</ele>
        <time>2020-08-07T09:09:24Z</time>
      </trkpt>
      <trkpt lat="40.9770770" lon="0.3511930">
        <ele>290.4</ele>
        <time>2020-08-07T09:09:26Z</time>
      </trkpt>
      <trkpt lat="40.9771100" lon="0.3512380">
        <ele>290.7</ele>
        <time>2020-08-07T09:09:28Z</time>
      </trkpt>
      <trkpt lat="40.9771320" lon="0.3512700">
        <ele>290.8</ele>
        <time>2020-08-07T09:09:29Z</time>
      </trkpt>
      <trkpt lat="40.9771390" lon="0.3512800">
        <ele>290.9</ele>
        <time>2020-08-07T09:09:30Z</time>
      </trkpt>
      <trkpt lat="40.9771710" lon="0.3513250">
        <ele>291.0</ele>
        <time>2020-08-07T09:09:32Z</time>
      </trkpt>
      <trkpt lat="40.9771900" lon="0.3513560">
        <ele>291.2</ele>
        <time>2020-08-07T09:09:33Z</time>
      </trkpt>
      <trkpt lat="40.9771960" lon="0.3513660">
        <ele>291.2</ele>
        <time>2020-08-07T09:09:34Z</time>
      </trkpt>
      <trkpt lat="40.9772240" lon="0.3514140">
        <ele>291.4</ele>
        <time>2020-08-07T09:09:36Z</time>
      </trkpt>
      <trkpt lat="40.9772500" lon="0.3514560">
        <ele>291.5</ele>
        <time>2020-08-07T09:09:38Z</time>
      </trkpt>
      <trkpt lat="40.9772740" lon="0.3515040">
        <ele>291.5</ele>
        <time>2020-08-07T09:09:40Z</time>
      </trkpt>
      <trkpt lat="40.9772860" lon="0.3515280">
        <ele>291.5</ele>
        <time>2020-08-07T09:09:41Z</time>
      </trkpt>
      <trkpt lat="40.9773110" lon="0.3515750">
        <ele>291.4</ele>
        <time>2020-08-07T09:09:43Z</time>
      </trkpt>
      <trkpt lat="40.9773240" lon="0.3515980">
        <ele>291.3</ele>
        <time>2020-08-07T09:09:44Z</time>
      </trkpt>
      <trkpt lat="40.9773280" lon="0.3516050">
        <ele>291.2</ele>
        <time>2020-08-07T09:09:46Z</time>
      </trkpt>
      <trkpt lat="40.9773310" lon="0.3516130">
        <ele>291.2</ele>
        <time>2020-08-07T09:09:48Z</time>
      </trkpt>
      <trkpt lat="40.9773350" lon="0.3516200">
        <ele>291.2</ele>
        <time>2020-08-07T09:09:49Z</time>
      </trkpt>
      <trkpt lat="40.9773390" lon="0.3516280">
        <ele>291.2</ele>
        <time>2020-08-07T09:09:50Z</time>
      </trkpt>
      <trkpt lat="40.9773430" lon="0.3516360">
        <ele>291.1</ele>
        <time>2020-08-07T09:09:52Z</time>
      </trkpt>
      <trkpt lat="40.9773470" lon="0.3516430">
        <ele>291.1</ele>
        <time>2020-08-07T09:09:53Z</time>
      </trkpt>
      <trkpt lat="40.9773510" lon="0.3516510">
        <ele>291.1</ele>
        <time>2020-08-07T09:09:55Z</time>
      </trkpt>
      <trkpt lat="40.9773540" lon="0.3516580">
        <ele>291.0</ele>
        <time>2020-08-07T09:09:57Z</time>
      </trkpt>
      <trkpt lat="40.9773580" lon="0.3516660">
        <ele>291.0</ele>
        <time>2020-08-07T09:09:59Z</time>
      </trkpt>
      <trkpt lat="40.9773620" lon="0.3516730">
        <ele>291.0</ele>
        <time>2020-08-07T09:10:03Z</time>
      </trkpt>
      <trkpt lat="40.9773660" lon="0.3516810">
        <ele>291.0</ele>
        <time>2020-08-07T09:14:24Z</time>
      </trkpt>
      <trkpt lat="40.9773700" lon="0.3516890">
        <ele>290.9</ele>
        <time>2020-08-07T09:14:26Z</time>
      </trkpt>
      <trkpt lat="40.9773740" lon="0.3516960">
        <ele>290.9</ele>
        <time>2020-08-07T09:14:28Z</time>
      </trkpt>
      <trkpt lat="40.9773770" lon="0.3517040">
        <ele>290.9</ele>
        <time>2020-08-07T09:14:30Z</time>
      </trkpt>
      <trkpt lat="40.9773810" lon="0.3517110">
        <ele>290.8</ele>
        <time>2020-08-07T09:14:31Z</time>
      </trkpt>
      <trkpt lat="40.9773850" lon="0.3517190">
        <ele>290.8</ele>
        <time>2020-08-07T09:14:32Z</time>
      </trkpt>
      <trkpt lat="40.9774010" lon="0.3517520">
        <ele>290.7</ele>
        <time>2020-08-07T09:14:34Z</time>
      </trkpt>
      <trkpt lat="40.9774110" lon="0.3517760">
        <ele>290.6</ele>
        <time>2020-08-07T09:14:35Z</time>
      </trkpt>
      <trkpt lat="40.9774350" lon="0.3518320">
        <ele>290.4</ele>
        <time>2020-08-07T09:14:37Z</time>
      </trkpt>
      <trkpt lat="40.9774490" lon="0.3518650">
        <ele>290.3</ele>
        <time>2020-08-07T09:14:38Z</time>
      </trkpt>
      <trkpt lat="40.9774850" lon="0.3519280">
        <ele>290.0</ele>
        <time>2020-08-07T09:14:40Z</time>
      </trkpt>
      <trkpt lat="40.9775120" lon="0.3519620">
        <ele>289.8</ele>
        <time>2020-08-07T09:14:41Z</time>
      </trkpt>
      <trkpt lat="40.9775400" lon="0.3519980">
        <ele>289.6</ele>
        <time>2020-08-07T09:14:42Z</time>
      </trkpt>
      <trkpt lat="40.9775790" lon="0.3520670">
        <ele>289.2</ele>
        <time>2020-08-07T09:14:44Z</time>
      </trkpt>
      <trkpt lat="40.9776200" lon="0.3521430">
        <ele>288.6</ele>
        <time>2020-08-07T09:14:46Z</time>
      </trkpt>
      <trkpt lat="40.9776390" lon="0.3521770">
        <ele>288.3</ele>
        <time>2020-08-07T09:14:47Z</time>
      </trkpt>
      <trkpt lat="40.9776650" lon="0.3522480">
        <ele>287.7</ele>
        <time>2020-08-07T09:14:49Z</time>
      </trkpt>
      <trkpt lat="40.9776730" lon="0.3523000">
        <ele>287.3</ele>
        <time>2020-08-07T09:14:50Z</time>
      </trkpt>
      <trkpt lat="40.9776730" lon="0.3523520">
        <ele>286.9</ele>
        <time>2020-08-07T09:14:51Z</time>
      </trkpt>
      <trkpt lat="40.9776680" lon="0.3524130">
        <ele>286.4</ele>
        <time>2020-08-07T09:14:52Z</time>
      </trkpt>
      <trkpt lat="40.9776430" lon="0.3525020">
        <ele>285.7</ele>
        <time>2020-08-07T09:14:54Z</time>
      </trkpt>
      <trkpt lat="40.9776200" lon="0.3525360">
        <ele>285.4</ele>
        <time>2020-08-07T09:14:55Z</time>
      </trkpt>
      <trkpt lat="40.9776140" lon="0.3525430">
        <ele>285.4</ele>
        <time>2020-08-07T09:14:56Z</time>
      </trkpt>
      <trkpt lat="40.9776010" lon="0.3525360">
        <ele>285.2</ele>
        <time>2020-08-07T09:14:58Z</time>
      </trkpt>
      <trkpt lat="40.9775970" lon="0.3525280">
        <ele>285.2</ele>
        <time>2020-08-07T09:15:00Z</time>
      </trkpt>
      <trkpt lat="40.9775960" lon="0.3525280">
        <ele>285.2</ele>
        <time>2020-08-07T09:15:01Z</time>
      </trkpt>
      <trkpt lat="40.9776010" lon="0.3525250">
        <ele>285.1</ele>
        <time>2020-08-07T09:15:04Z</time>
      </trkpt>
      <trkpt lat="40.9776000" lon="0.3525270">
        <ele>285.1</ele>
        <time>2020-08-07T09:15:05Z</time>
      </trkpt>
      <trkpt lat="40.9775950" lon="0.3525340">
        <ele>285.1</ele>
        <time>2020-08-07T09:15:06Z</time>
      </trkpt>
      <trkpt lat="40.9775890" lon="0.3525430">
        <ele>285.0</ele>
        <time>2020-08-07T09:15:07Z</time>
      </trkpt>
      <trkpt lat="40.9775820" lon="0.3525840">
        <ele>284.8</ele>
        <time>2020-08-07T09:15:09Z</time>
      </trkpt>
      <trkpt lat="40.9775750" lon="0.3526200">
        <ele>284.6</ele>
        <time>2020-08-07T09:15:10Z</time>
      </trkpt>
      <trkpt lat="40.9775520" lon="0.3527060">
        <ele>284.2</ele>
        <time>2020-08-07T09:15:12Z</time>
      </trkpt>
      <trkpt lat="40.9775370" lon="0.3527500">
        <ele>284.0</ele>
        <time>2020-08-07T09:15:13Z</time>
      </trkpt>
      <trkpt lat="40.9775140" lon="0.3528620">
        <ele>283.6</ele>
        <time>2020-08-07T09:15:15Z</time>
      </trkpt>
      <trkpt lat="40.9775130" lon="0.3529810">
        <ele>283.3</ele>
        <time>2020-08-07T09:15:17Z</time>
      </trkpt>
      <trkpt lat="40.9775150" lon="0.3530240">
        <ele>283.2</ele>
        <time>2020-08-07T09:15:18Z</time>
      </trkpt>
      <trkpt lat="40.9775170" lon="0.3530530">
        <ele>283.1</ele>
        <time>2020-08-07T09:15:19Z</time>
      </trkpt>
      <trkpt lat="40.9775260" lon="0.3531160">
        <ele>283.0</ele>
        <time>2020-08-07T09:15:21Z</time>
      </trkpt>
      <trkpt lat="40.9775530" lon="0.3531940">
        <ele>282.8</ele>
        <time>2020-08-07T09:15:23Z</time>
      </trkpt>
      <trkpt lat="40.9775750" lon="0.3532350">
        <ele>282.7</ele>
        <time>2020-08-07T09:15:24Z</time>
      </trkpt>
      <trkpt lat="40.9776340" lon="0.3533210">
        <ele>282.5</ele>
        <time>2020-08-07T09:15:26Z</time>
      </trkpt>
      <trkpt lat="40.9776670" lon="0.3533590">
        <ele>282.4</ele>
        <time>2020-08-07T09:15:27Z</time>
      </trkpt>
      <trkpt lat="40.9777240" lon="0.3534150">
        <ele>282.3</ele>
        <time>2020-08-07T09:15:29Z</time>
      </trkpt>
      <trkpt lat="40.9777950" lon="0.3534790">
        <ele>282.1</ele>
        <time>2020-08-07T09:15:31Z</time>
      </trkpt>
      <trkpt lat="40.9778240" lon="0.3535040">
        <ele>282.0</ele>
        <time>2020-08-07T09:15:32Z</time>
      </trkpt>
      <trkpt lat="40.9778580" lon="0.3535340">
        <ele>281.9</ele>
        <time>2020-08-07T09:15:33Z</time>
      </trkpt>
      <trkpt lat="40.9778870" lon="0.3535590">
        <ele>281.8</ele>
        <time>2020-08-07T09:15:34Z</time>
      </trkpt>
      <trkpt lat="40.9779470" lon="0.3536090">
        <ele>281.6</ele>
        <time>2020-08-07T09:15:36Z</time>
      </trkpt>
      <trkpt lat="40.9779770" lon="0.3536310">
        <ele>281.4</ele>
        <time>2020-08-07T09:15:37Z</time>
      </trkpt>
      <trkpt lat="40.9780280" lon="0.3536600">
        <ele>281.2</ele>
        <time>2020-08-07T09:15:39Z</time>
      </trkpt>
      <trkpt lat="40.9780520" lon="0.3536750">
        <ele>281.1</ele>
        <time>2020-08-07T09:15:40Z</time>
      </trkpt>
      <trkpt lat="40.9781060" lon="0.3537080">
        <ele>280.8</ele>
        <time>2020-08-07T09:15:42Z</time>
      </trkpt>
      <trkpt lat="40.9781310" lon="0.3537210">
        <ele>280.7</ele>
        <time>2020-08-07T09:15:43Z</time>
      </trkpt>
      <trkpt lat="40.9781840" lon="0.3537400">
        <ele>280.5</ele>
        <time>2020-08-07T09:15:45Z</time>
      </trkpt>
      <trkpt lat="40.9782380" lon="0.3537550">
        <ele>280.4</ele>
        <time>2020-08-07T09:15:47Z</time>
      </trkpt>
      <trkpt lat="40.9782870" lon="0.3537710">
        <ele>280.2</ele>
        <time>2020-08-07T09:15:49Z</time>
      </trkpt>
      <trkpt lat="40.9783330" lon="0.3537870">
        <ele>280.1</ele>
        <time>2020-08-07T09:15:51Z</time>
      </trkpt>
      <trkpt lat="40.9783680" lon="0.3538000">
        <ele>280.0</ele>
        <time>2020-08-07T09:15:52Z</time>
      </trkpt>
      <trkpt lat="40.9783820" lon="0.3538060">
        <ele>280.0</ele>
        <time>2020-08-07T09:15:53Z</time>
      </trkpt>
      <trkpt lat="40.9784010" lon="0.3538140">
        <ele>280.0</ele>
        <time>2020-08-07T09:15:54Z</time>
      </trkpt>
      <trkpt lat="40.9784400" lon="0.3538270">
        <ele>280.0</ele>
        <time>2020-08-07T09:15:56Z</time>
      </trkpt>
      <trkpt lat="40.9784570" lon="0.3538340">
        <ele>280.0</ele>
        <time>2020-08-07T09:15:57Z</time>
      </trkpt>
      <trkpt lat="40.9784910" lon="0.3538540">
        <ele>280.0</ele>
        <time>2020-08-07T09:15:59Z</time>
      </trkpt>
      <trkpt lat="40.9785230" lon="0.3538720">
        <ele>280.0</ele>
        <time>2020-08-07T09:16:01Z</time>
      </trkpt>
      <trkpt lat="40.9785570" lon="0.3538890">
        <ele>280.0</ele>
        <time>2020-08-07T09:16:03Z</time>
      </trkpt>
      <trkpt lat="40.9785740" lon="0.3539000">
        <ele>280.0</ele>
        <time>2020-08-07T09:16:04Z</time>
      </trkpt>
      <trkpt lat="40.9786060" lon="0.3539220">
        <ele>280.0</ele>
        <time>2020-08-07T09:16:06Z</time>
      </trkpt>
      <trkpt lat="40.9786330" lon="0.3539350">
        <ele>280.0</ele>
        <time>2020-08-07T09:16:07Z</time>
      </trkpt>
      <trkpt lat="40.9786410" lon="0.3539390">
        <ele>280.0</ele>
        <time>2020-08-07T09:16:08Z</time>
      </trkpt>
      <trkpt lat="40.9786730" lon="0.3539530">
        <ele>280.0</ele>
        <time>2020-08-07T09:16:10Z</time>
      </trkpt>
      <trkpt lat="40.9787060" lon="0.3539690">
        <ele>280.0</ele>
        <time>2020-08-07T09:16:12Z</time>
      </trkpt>
      <trkpt lat="40.9787220" lon="0.3539730">
        <ele>280.0</ele>
        <time>2020-08-07T09:16:13Z</time>
      </trkpt>
      <trkpt lat="40.9787540" lon="0.3539760">
        <ele>280.1</ele>
        <time>2020-08-07T09:16:15Z</time>
      </trkpt>
      <trkpt lat="40.9787690" lon="0.3539810">
        <ele>280.1</ele>
        <time>2020-08-07T09:16:16Z</time>
      </trkpt>
      <trkpt lat="40.9787960" lon="0.3539990">
        <ele>280.1</ele>
        <time>2020-08-07T09:16:18Z</time>
      </trkpt>
      <trkpt lat="40.9788090" lon="0.3540060">
        <ele>280.1</ele>
        <time>2020-08-07T09:16:19Z</time>
      </trkpt>
      <trkpt lat="40.9788420" lon="0.3540180">
        <ele>280.2</ele>
        <time>2020-08-07T09:16:21Z</time>
      </trkpt>
      <trkpt lat="40.9788690" lon="0.3540320">
        <ele>280.3</ele>
        <time>2020-08-07T09:16:23Z</time>
      </trkpt>
      <trkpt lat="40.9788840" lon="0.3540400">
        <ele>280.3</ele>
        <time>2020-08-07T09:16:24Z</time>
      </trkpt>
      <trkpt lat="40.9789070" lon="0.3540640">
        <ele>280.5</ele>
        <time>2020-08-07T09:16:26Z</time>
      </trkpt>
      <trkpt lat="40.9789170" lon="0.3540780">
        <ele>280.5</ele>
        <time>2020-08-07T09:16:27Z</time>
      </trkpt>
      <trkpt lat="40.9789380" lon="0.3541060">
        <ele>280.7</ele>
        <time>2020-08-07T09:16:29Z</time>
      </trkpt>
      <trkpt lat="40.9789510" lon="0.3541320">
        <ele>280.8</ele>
        <time>2020-08-07T09:16:30Z</time>
      </trkpt>
      <trkpt lat="40.9789540" lon="0.3541420">
        <ele>280.8</ele>
        <time>2020-08-07T09:16:31Z</time>
      </trkpt>
      <trkpt lat="40.9789570" lon="0.3541530">
        <ele>280.9</ele>
        <time>2020-08-07T09:16:32Z</time>
      </trkpt>
      <trkpt lat="40.9789600" lon="0.3541760">
        <ele>281.0</ele>
        <time>2020-08-07T09:16:33Z</time>
      </trkpt>
      <trkpt lat="40.9789680" lon="0.3542110">
        <ele>281.1</ele>
        <time>2020-08-07T09:16:35Z</time>
      </trkpt>
      <trkpt lat="40.9789720" lon="0.3542310">
        <ele>281.2</ele>
        <time>2020-08-07T09:16:36Z</time>
      </trkpt>
      <trkpt lat="40.9789800" lon="0.3542700">
        <ele>281.3</ele>
        <time>2020-08-07T09:16:38Z</time>
      </trkpt>
      <trkpt lat="40.9789860" lon="0.3543070">
        <ele>281.4</ele>
        <time>2020-08-07T09:16:40Z</time>
      </trkpt>
      <trkpt lat="40.9789920" lon="0.3543290">
        <ele>281.5</ele>
        <time>2020-08-07T09:16:41Z</time>
      </trkpt>
      <trkpt lat="40.9790030" lon="0.3543630">
        <ele>281.6</ele>
        <time>2020-08-07T09:16:43Z</time>
      </trkpt>
      <trkpt lat="40.9790090" lon="0.3543860">
        <ele>281.7</ele>
        <time>2020-08-07T09:16:44Z</time>
      </trkpt>
      <trkpt lat="40.9790130" lon="0.3544050">
        <ele>281.8</ele>
        <time>2020-08-07T09:16:45Z</time>
      </trkpt>
      <trkpt lat="40.9790170" lon="0.3544240">
        <ele>281.9</ele>
        <time>2020-08-07T09:16:46Z</time>
      </trkpt>
      <trkpt lat="40.9790200" lon="0.3544450">
        <ele>281.9</ele>
        <time>2020-08-07T09:16:47Z</time>
      </trkpt>
      <trkpt lat="40.9790290" lon="0.3544900">
        <ele>282.2</ele>
        <time>2020-08-07T09:16:49Z</time>
      </trkpt>
      <trkpt lat="40.9790390" lon="0.3545310">
        <ele>282.3</ele>
        <time>2020-08-07T09:16:51Z</time>
      </trkpt>
      <trkpt lat="40.9790510" lon="0.3545730">
        <ele>282.6</ele>
        <time>2020-08-07T09:16:53Z</time>
      </trkpt>
      <trkpt lat="40.9790570" lon="0.3545930">
        <ele>282.6</ele>
        <time>2020-08-07T09:16:54Z</time>
      </trkpt>
      <trkpt lat="40.9790620" lon="0.3546130">
        <ele>282.7</ele>
        <time>2020-08-07T09:16:55Z</time>
      </trkpt>
      <trkpt lat="40.9790650" lon="0.3546300">
        <ele>282.8</ele>
        <time>2020-08-07T09:16:56Z</time>
      </trkpt>
      <trkpt lat="40.9790810" lon="0.3546690">
        <ele>283.0</ele>
        <time>2020-08-07T09:16:58Z</time>
      </trkpt>
      <trkpt lat="40.9790880" lon="0.3546890">
        <ele>283.1</ele>
        <time>2020-08-07T09:16:59Z</time>
      </trkpt>
      <trkpt lat="40.9790900" lon="0.3547280">
        <ele>283.3</ele>
        <time>2020-08-07T09:17:01Z</time>
      </trkpt>
      <trkpt lat="40.9790890" lon="0.3547440">
        <ele>283.4</ele>
        <time>2020-08-07T09:17:02Z</time>
      </trkpt>
      <trkpt lat="40.9790870" lon="0.3547690">
        <ele>283.5</ele>
        <time>2020-08-07T09:17:07Z</time>
      </trkpt>
      <trkpt lat="40.9790800" lon="0.3547750">
        <ele>283.5</ele>
        <time>2020-08-07T09:17:09Z</time>
      </trkpt>
      <trkpt lat="40.9790790" lon="0.3547720">
        <ele>283.5</ele>
        <time>2020-08-07T09:17:10Z</time>
      </trkpt>
      <trkpt lat="40.9790800" lon="0.3547650">
        <ele>283.6</ele>
        <time>2020-08-07T09:17:12Z</time>
      </trkpt>
      <trkpt lat="40.9790750" lon="0.3547650">
        <ele>283.6</ele>
        <time>2020-08-07T09:17:14Z</time>
      </trkpt>
      <trkpt lat="40.9790730" lon="0.3547670">
        <ele>283.6</ele>
        <time>2020-08-07T09:17:15Z</time>
      </trkpt>
      <trkpt lat="40.9790730" lon="0.3547790">
        <ele>283.6</ele>
        <time>2020-08-07T09:17:17Z</time>
      </trkpt>
      <trkpt lat="40.9790720" lon="0.3547690">
        <ele>283.7</ele>
        <time>2020-08-07T09:17:19Z</time>
      </trkpt>
      <trkpt lat="40.9791170" lon="0.3547300">
        <ele>283.9</ele>
        <time>2020-08-07T09:17:28Z</time>
      </trkpt>
      <trkpt lat="40.9791300" lon="0.3547270">
        <ele>284.0</ele>
        <time>2020-08-07T09:17:29Z</time>
      </trkpt>
      <trkpt lat="40.9791480" lon="0.3547300">
        <ele>284.1</ele>
        <time>2020-08-07T09:17:30Z</time>
      </trkpt>
      <trkpt lat="40.9791610" lon="0.3547440">
        <ele>284.1</ele>
        <time>2020-08-07T09:17:31Z</time>
      </trkpt>
      <trkpt lat="40.9791730" lon="0.3547560">
        <ele>284.2</ele>
        <time>2020-08-07T09:17:32Z</time>
      </trkpt>
      <trkpt lat="40.9791830" lon="0.3547740">
        <ele>284.3</ele>
        <time>2020-08-07T09:17:33Z</time>
      </trkpt>
      <trkpt lat="40.9792030" lon="0.3548250">
        <ele>284.5</ele>
        <time>2020-08-07T09:17:35Z</time>
      </trkpt>
      <trkpt lat="40.9792070" lon="0.3548980">
        <ele>284.7</ele>
        <time>2020-08-07T09:17:36Z</time>
      </trkpt>
      <trkpt lat="40.9792170" lon="0.3549520">
        <ele>284.8</ele>
        <time>2020-08-07T09:17:37Z</time>
      </trkpt>
      <trkpt lat="40.9792340" lon="0.3550060">
        <ele>285.0</ele>
        <time>2020-08-07T09:17:38Z</time>
      </trkpt>
      <trkpt lat="40.9792540" lon="0.3550460">
        <ele>285.1</ele>
        <time>2020-08-07T09:17:40Z</time>
      </trkpt>
      <trkpt lat="40.9792770" lon="0.3550800">
        <ele>285.2</ele>
        <time>2020-08-07T09:17:41Z</time>
      </trkpt>
      <trkpt lat="40.9792850" lon="0.3550900">
        <ele>285.2</ele>
        <time>2020-08-07T09:17:42Z</time>
      </trkpt>
      <trkpt lat="40.9793050" lon="0.3551110">
        <ele>285.3</ele>
        <time>2020-08-07T09:17:43Z</time>
      </trkpt>
      <trkpt lat="40.9793350" lon="0.3551370">
        <ele>285.4</ele>
        <time>2020-08-07T09:17:45Z</time>
      </trkpt>
      <trkpt lat="40.9793660" lon="0.3551610">
        <ele>285.5</ele>
        <time>2020-08-07T09:17:47Z</time>
      </trkpt>
      <trkpt lat="40.9793970" lon="0.3551850">
        <ele>285.6</ele>
        <time>2020-08-07T09:17:48Z</time>
      </trkpt>
      <trkpt lat="40.9794050" lon="0.3551920">
        <ele>285.6</ele>
        <time>2020-08-07T09:17:49Z</time>
      </trkpt>
      <trkpt lat="40.9794330" lon="0.3552030">
        <ele>285.7</ele>
        <time>2020-08-07T09:17:50Z</time>
      </trkpt>
      <trkpt lat="40.9794770" lon="0.3552250">
        <ele>285.8</ele>
        <time>2020-08-07T09:17:52Z</time>
      </trkpt>
      <trkpt lat="40.9794920" lon="0.3552300">
        <ele>285.9</ele>
        <time>2020-08-07T09:17:53Z</time>
      </trkpt>
      <trkpt lat="40.9795060" lon="0.3552360">
        <ele>285.9</ele>
        <time>2020-08-07T09:17:54Z</time>
      </trkpt>
      <trkpt lat="40.9795480" lon="0.3552560">
        <ele>286.0</ele>
        <time>2020-08-07T09:17:56Z</time>
      </trkpt>
      <trkpt lat="40.9795610" lon="0.3552600">
        <ele>286.1</ele>
        <time>2020-08-07T09:17:57Z</time>
      </trkpt>
      <trkpt lat="40.9795750" lon="0.3552650">
        <ele>286.1</ele>
        <time>2020-08-07T09:17:58Z</time>
      </trkpt>
      <trkpt lat="40.9796030" lon="0.3552690">
        <ele>286.2</ele>
        <time>2020-08-07T09:17:59Z</time>
      </trkpt>
      <trkpt lat="40.9796150" lon="0.3552720">
        <ele>286.3</ele>
        <time>2020-08-07T09:18:00Z</time>
      </trkpt>
      <trkpt lat="40.9796630" lon="0.3552810">
        <ele>286.5</ele>
        <time>2020-08-07T09:18:02Z</time>
      </trkpt>
      <trkpt lat="40.9796790" lon="0.3552820">
        <ele>286.5</ele>
        <time>2020-08-07T09:18:03Z</time>
      </trkpt>
      <trkpt lat="40.9796950" lon="0.3552840">
        <ele>286.6</ele>
        <time>2020-08-07T09:18:04Z</time>
      </trkpt>
      <trkpt lat="40.9797300" lon="0.3552900">
        <ele>286.7</ele>
        <time>2020-08-07T09:18:06Z</time>
      </trkpt>
      <trkpt lat="40.9797410" lon="0.3552910">
        <ele>286.7</ele>
        <time>2020-08-07T09:18:07Z</time>
      </trkpt>
      <trkpt lat="40.9797730" lon="0.3552950">
        <ele>286.8</ele>
        <time>2020-08-07T09:18:08Z</time>
      </trkpt>
      <trkpt lat="40.9797830" lon="0.3552960">
        <ele>286.8</ele>
        <time>2020-08-07T09:18:09Z</time>
      </trkpt>
      <trkpt lat="40.9798030" lon="0.3552950">
        <ele>286.8</ele>
        <time>2020-08-07T09:18:10Z</time>
      </trkpt>
      <trkpt lat="40.9798220" lon="0.3552980">
        <ele>286.9</ele>
        <time>2020-08-07T09:18:12Z</time>
      </trkpt>
      <trkpt lat="40.9798420" lon="0.3552980">
        <ele>286.9</ele>
        <time>2020-08-07T09:18:14Z</time>
      </trkpt>
      <trkpt lat="40.9798460" lon="0.3552980">
        <ele>286.9</ele>
        <time>2020-08-07T09:18:15Z</time>
      </trkpt>
      <trkpt lat="40.9798510" lon="0.3552990">
        <ele>286.9</ele>
        <time>2020-08-07T09:18:16Z</time>
      </trkpt>
      <trkpt lat="40.9798550" lon="0.3553000">
        <ele>286.9</ele>
        <time>2020-08-07T09:18:18Z</time>
      </trkpt>
      <trkpt lat="40.9798600" lon="0.3553000">
        <ele>286.9</ele>
        <time>2020-08-07T09:18:20Z</time>
      </trkpt>
      <trkpt lat="40.9798650" lon="0.3553010">
        <ele>286.9</ele>
        <time>2020-08-07T09:18:21Z</time>
      </trkpt>
      <trkpt lat="40.9798690" lon="0.3553020">
        <ele>286.9</ele>
        <time>2020-08-07T09:18:23Z</time>
      </trkpt>
      <trkpt lat="40.9798740" lon="0.3553020">
        <ele>286.9</ele>
        <time>2020-08-07T09:18:24Z</time>
      </trkpt>
      <trkpt lat="40.9798780" lon="0.3553030">
        <ele>286.9</ele>
        <time>2020-08-07T09:18:26Z</time>
      </trkpt>
      <trkpt lat="40.9798830" lon="0.3553030">
        <ele>286.9</ele>
        <time>2020-08-07T09:18:27Z</time>
      </trkpt>
      <trkpt lat="40.9798880" lon="0.3553040">
        <ele>286.9</ele>
        <time>2020-08-07T09:18:28Z</time>
      </trkpt>
      <trkpt lat="40.9798920" lon="0.3553050">
        <ele>286.9</ele>
        <time>2020-08-07T09:18:29Z</time>
      </trkpt>
      <trkpt lat="40.9798970" lon="0.3553050">
        <ele>286.9</ele>
        <time>2020-08-07T09:18:30Z</time>
      </trkpt>
      <trkpt lat="40.9799010" lon="0.3553060">
        <ele>286.9</ele>
        <time>2020-08-07T09:18:32Z</time>
      </trkpt>
      <trkpt lat="40.9799060" lon="0.3553070">
        <ele>286.9</ele>
        <time>2020-08-07T09:18:33Z</time>
      </trkpt>
      <trkpt lat="40.9799110" lon="0.3553070">
        <ele>286.9</ele>
        <time>2020-08-07T09:18:35Z</time>
      </trkpt>
      <trkpt lat="40.9799150" lon="0.3553080">
        <ele>286.9</ele>
        <time>2020-08-07T09:18:36Z</time>
      </trkpt>
      <trkpt lat="40.9799200" lon="0.3553090">
        <ele>286.9</ele>
        <time>2020-08-07T09:18:37Z</time>
      </trkpt>
      <trkpt lat="40.9799240" lon="0.3553090">
        <ele>286.9</ele>
        <time>2020-08-07T09:18:39Z</time>
      </trkpt>
      <trkpt lat="40.9799290" lon="0.3553100">
        <ele>286.9</ele>
        <time>2020-08-07T09:18:40Z</time>
      </trkpt>
      <trkpt lat="40.9799330" lon="0.3553110">
        <ele>286.9</ele>
        <time>2020-08-07T09:18:41Z</time>
      </trkpt>
      <trkpt lat="40.9799380" lon="0.3553110">
        <ele>286.9</ele>
        <time>2020-08-07T09:18:43Z</time>
      </trkpt>
      <trkpt lat="40.9799430" lon="0.3553120">
        <ele>286.9</ele>
        <time>2020-08-07T09:18:44Z</time>
      </trkpt>
      <trkpt lat="40.9799470" lon="0.3553130">
        <ele>286.9</ele>
        <time>2020-08-07T09:18:45Z</time>
      </trkpt>
      <trkpt lat="40.9799520" lon="0.3553130">
        <ele>287.0</ele>
        <time>2020-08-07T09:18:47Z</time>
      </trkpt>
      <trkpt lat="40.9799560" lon="0.3553140">
        <ele>287.0</ele>
        <time>2020-08-07T09:18:49Z</time>
      </trkpt>
      <trkpt lat="40.9799610" lon="0.3553150">
        <ele>287.0</ele>
        <time>2020-08-07T09:18:51Z</time>
      </trkpt>
      <trkpt lat="40.9799660" lon="0.3553150">
        <ele>287.0</ele>
        <time>2020-08-07T09:18:52Z</time>
      </trkpt>
      <trkpt lat="40.9799700" lon="0.3553160">
        <ele>287.0</ele>
        <time>2020-08-07T09:18:54Z</time>
      </trkpt>
      <trkpt lat="40.9799750" lon="0.3553160">
        <ele>287.0</ele>
        <time>2020-08-07T09:18:55Z</time>
      </trkpt>
      <trkpt lat="40.9799790" lon="0.3553170">
        <ele>287.0</ele>
        <time>2020-08-07T09:18:56Z</time>
      </trkpt>
      <trkpt lat="40.9799840" lon="0.3553180">
        <ele>287.0</ele>
        <time>2020-08-07T09:18:58Z</time>
      </trkpt>
      <trkpt lat="40.9799890" lon="0.3553180">
        <ele>287.0</ele>
        <time>2020-08-07T09:19:03Z</time>
      </trkpt>
      <trkpt lat="40.9799930" lon="0.3553190">
        <ele>287.0</ele>
        <time>2020-08-07T09:19:04Z</time>
      </trkpt>
      <trkpt lat="40.9799980" lon="0.3553200">
        <ele>287.0</ele>
        <time>2020-08-07T09:19:06Z</time>
      </trkpt>
      <trkpt lat="40.9800020" lon="0.3553200">
        <ele>287.0</ele>
        <time>2020-08-07T09:19:07Z</time>
      </trkpt>
      <trkpt lat="40.9800070" lon="0.3553210">
        <ele>287.0</ele>
        <time>2020-08-07T09:19:08Z</time>
      </trkpt>
      <trkpt lat="40.9800510" lon="0.3553140">
        <ele>287.0</ele>
        <time>2020-08-07T09:19:10Z</time>
      </trkpt>
      <trkpt lat="40.9800670" lon="0.3553070">
        <ele>287.0</ele>
        <time>2020-08-07T09:19:11Z</time>
      </trkpt>
      <trkpt lat="40.9800830" lon="0.3553000">
        <ele>287.0</ele>
        <time>2020-08-07T09:19:12Z</time>
      </trkpt>
      <trkpt lat="40.9801270" lon="0.3552850">
        <ele>287.0</ele>
        <time>2020-08-07T09:19:14Z</time>
      </trkpt>
      <trkpt lat="40.9801650" lon="0.3552710">
        <ele>287.1</ele>
        <time>2020-08-07T09:19:16Z</time>
      </trkpt>
      <trkpt lat="40.9802030" lon="0.3552630">
        <ele>287.1</ele>
        <time>2020-08-07T09:19:17Z</time>
      </trkpt>
      <trkpt lat="40.9802160" lon="0.3552600">
        <ele>287.2</ele>
        <time>2020-08-07T09:19:18Z</time>
      </trkpt>
      <trkpt lat="40.9802530" lon="0.3552550">
        <ele>287.2</ele>
        <time>2020-08-07T09:19:19Z</time>
      </trkpt>
      <trkpt lat="40.9802650" lon="0.3552530">
        <ele>287.2</ele>
        <time>2020-08-07T09:19:20Z</time>
      </trkpt>
      <trkpt lat="40.9803130" lon="0.3552510">
        <ele>287.2</ele>
        <time>2020-08-07T09:19:22Z</time>
      </trkpt>
      <trkpt lat="40.9803660" lon="0.3552560">
        <ele>287.3</ele>
        <time>2020-08-07T09:19:24Z</time>
      </trkpt>
      <trkpt lat="40.9803900" lon="0.3552610">
        <ele>287.3</ele>
        <time>2020-08-07T09:19:25Z</time>
      </trkpt>
      <trkpt lat="40.9804410" lon="0.3552740">
        <ele>287.4</ele>
        <time>2020-08-07T09:19:27Z</time>
      </trkpt>
      <trkpt lat="40.9804790" lon="0.3552880">
        <ele>287.5</ele>
        <time>2020-08-07T09:19:28Z</time>
      </trkpt>
      <trkpt lat="40.9804920" lon="0.3552940">
        <ele>287.5</ele>
        <time>2020-08-07T09:19:29Z</time>
      </trkpt>
      <trkpt lat="40.9805240" lon="0.3553060">
        <ele>287.5</ele>
        <time>2020-08-07T09:19:30Z</time>
      </trkpt>
      <trkpt lat="40.9805360" lon="0.3553100">
        <ele>287.5</ele>
        <time>2020-08-07T09:19:31Z</time>
      </trkpt>
      <trkpt lat="40.9805600" lon="0.3553180">
        <ele>287.5</ele>
        <time>2020-08-07T09:19:32Z</time>
      </trkpt>
      <trkpt lat="40.9806010" lon="0.3553250">
        <ele>287.5</ele>
        <time>2020-08-07T09:19:34Z</time>
      </trkpt>
      <trkpt lat="40.9806260" lon="0.3553290">
        <ele>287.5</ele>
        <time>2020-08-07T09:19:35Z</time>
      </trkpt>
      <trkpt lat="40.9806750" lon="0.3553340">
        <ele>287.4</ele>
        <time>2020-08-07T09:19:37Z</time>
      </trkpt>
      <trkpt lat="40.9807120" lon="0.3553350">
        <ele>287.3</ele>
        <time>2020-08-07T09:19:38Z</time>
      </trkpt>
      <trkpt lat="40.9807240" lon="0.3553360">
        <ele>287.3</ele>
        <time>2020-08-07T09:19:39Z</time>
      </trkpt>
      <trkpt lat="40.9807530" lon="0.3553370">
        <ele>287.2</ele>
        <time>2020-08-07T09:19:40Z</time>
      </trkpt>
      <trkpt lat="40.9808030" lon="0.3553350">
        <ele>287.1</ele>
        <time>2020-08-07T09:19:42Z</time>
      </trkpt>
      <trkpt lat="40.9808530" lon="0.3553250">
        <ele>287.0</ele>
        <time>2020-08-07T09:19:44Z</time>
      </trkpt>
      <trkpt lat="40.9808870" lon="0.3553180">
        <ele>286.9</ele>
        <time>2020-08-07T09:19:45Z</time>
      </trkpt>
      <trkpt lat="40.9809190" lon="0.3553150">
        <ele>286.8</ele>
        <time>2020-08-07T09:19:46Z</time>
      </trkpt>
      <trkpt lat="40.9809970" lon="0.3553220">
        <ele>286.7</ele>
        <time>2020-08-07T09:19:48Z</time>
      </trkpt>
      <trkpt lat="40.9810590" lon="0.3553470">
        <ele>286.5</ele>
        <time>2020-08-07T09:19:50Z</time>
      </trkpt>
      <trkpt lat="40.9810930" lon="0.3553650">
        <ele>286.4</ele>
        <time>2020-08-07T09:19:51Z</time>
      </trkpt>
      <trkpt lat="40.9811240" lon="0.3553860">
        <ele>286.3</ele>
        <time>2020-08-07T09:19:52Z</time>
      </trkpt>
      <trkpt lat="40.9811920" lon="0.3554490">
        <ele>286.1</ele>
        <time>2020-08-07T09:19:54Z</time>
      </trkpt>
      <trkpt lat="40.9812210" lon="0.3554860">
        <ele>286.0</ele>
        <time>2020-08-07T09:19:55Z</time>
      </trkpt>
      <trkpt lat="40.9812860" lon="0.3555890">
        <ele>285.7</ele>
        <time>2020-08-07T09:19:57Z</time>
      </trkpt>
      <trkpt lat="40.9813170" lon="0.3556580">
        <ele>285.6</ele>
        <time>2020-08-07T09:19:58Z</time>
      </trkpt>
      <trkpt lat="40.9813380" lon="0.3557190">
        <ele>285.4</ele>
        <time>2020-08-07T09:19:59Z</time>
      </trkpt>
      <trkpt lat="40.9813570" lon="0.3557770">
        <ele>285.3</ele>
        <time>2020-08-07T09:20:00Z</time>
      </trkpt>
      <trkpt lat="40.9813770" lon="0.3558410">
        <ele>285.1</ele>
        <time>2020-08-07T09:20:01Z</time>
      </trkpt>
      <trkpt lat="40.9814170" lon="0.3559670">
        <ele>284.7</ele>
        <time>2020-08-07T09:20:03Z</time>
      </trkpt>
      <trkpt lat="40.9814400" lon="0.3560910">
        <ele>284.2</ele>
        <time>2020-08-07T09:20:05Z</time>
      </trkpt>
      <trkpt lat="40.9814430" lon="0.3561990">
        <ele>283.7</ele>
        <time>2020-08-07T09:20:07Z</time>
      </trkpt>
      <trkpt lat="40.9814420" lon="0.3562520">
        <ele>283.4</ele>
        <time>2020-08-07T09:20:08Z</time>
      </trkpt>
      <trkpt lat="40.9814410" lon="0.3563690">
        <ele>282.6</ele>
        <time>2020-08-07T09:20:10Z</time>
      </trkpt>
      <trkpt lat="40.9814490" lon="0.3564190">
        <ele>282.2</ele>
        <time>2020-08-07T09:20:11Z</time>
      </trkpt>
      <trkpt lat="40.9814790" lon="0.3564910">
        <ele>281.6</ele>
        <time>2020-08-07T09:20:13Z</time>
      </trkpt>
      <trkpt lat="40.9815040" lon="0.3565060">
        <ele>281.3</ele>
        <time>2020-08-07T09:20:14Z</time>
      </trkpt>
      <trkpt lat="40.9815530" lon="0.3564560">
        <ele>280.6</ele>
        <time>2020-08-07T09:20:16Z</time>
      </trkpt>
      <trkpt lat="40.9815790" lon="0.3564010">
        <ele>280.1</ele>
        <time>2020-08-07T09:20:18Z</time>
      </trkpt>
      <trkpt lat="40.9815870" lon="0.3563630">
        <ele>279.8</ele>
        <time>2020-08-07T09:20:19Z</time>
      </trkpt>
      <trkpt lat="40.9815930" lon="0.3563220">
        <ele>279.5</ele>
        <time>2020-08-07T09:20:20Z</time>
      </trkpt>
      <trkpt lat="40.9816020" lon="0.3562790">
        <ele>279.2</ele>
        <time>2020-08-07T09:20:21Z</time>
      </trkpt>
      <trkpt lat="40.9816250" lon="0.3561980">
        <ele>278.6</ele>
        <time>2020-08-07T09:20:23Z</time>
      </trkpt>
      <trkpt lat="40.9816390" lon="0.3561500">
        <ele>278.2</ele>
        <time>2020-08-07T09:20:24Z</time>
      </trkpt>
      <trkpt lat="40.9816710" lon="0.3560690">
        <ele>277.6</ele>
        <time>2020-08-07T09:20:26Z</time>
      </trkpt>
      <trkpt lat="40.9816940" lon="0.3560180">
        <ele>277.2</ele>
        <time>2020-08-07T09:20:27Z</time>
      </trkpt>
      <trkpt lat="40.9817180" lon="0.3559670">
        <ele>276.8</ele>
        <time>2020-08-07T09:20:28Z</time>
      </trkpt>
      <trkpt lat="40.9817420" lon="0.3559010">
        <ele>276.3</ele>
        <time>2020-08-07T09:20:30Z</time>
      </trkpt>
      <trkpt lat="40.9817540" lon="0.3558560">
        <ele>276.0</ele>
        <time>2020-08-07T09:20:31Z</time>
      </trkpt>
      <trkpt lat="40.9817690" lon="0.3557920">
        <ele>275.5</ele>
        <time>2020-08-07T09:20:32Z</time>
      </trkpt>
      <trkpt lat="40.9817820" lon="0.3557220">
        <ele>275.0</ele>
        <time>2020-08-07T09:20:33Z</time>
      </trkpt>
      <trkpt lat="40.9817950" lon="0.3556460">
        <ele>274.5</ele>
        <time>2020-08-07T09:20:35Z</time>
      </trkpt>
      <trkpt lat="40.9818140" lon="0.3555920">
        <ele>274.1</ele>
        <time>2020-08-07T09:20:36Z</time>
      </trkpt>
      <trkpt lat="40.9818420" lon="0.3555300">
        <ele>273.6</ele>
        <time>2020-08-07T09:20:38Z</time>
      </trkpt>
      <trkpt lat="40.9818710" lon="0.3554720">
        <ele>273.0</ele>
        <time>2020-08-07T09:20:39Z</time>
      </trkpt>
      <trkpt lat="40.9819010" lon="0.3554240">
        <ele>272.6</ele>
        <time>2020-08-07T09:20:40Z</time>
      </trkpt>
      <trkpt lat="40.9819250" lon="0.3553870">
        <ele>272.2</ele>
        <time>2020-08-07T09:20:41Z</time>
      </trkpt>
      <trkpt lat="40.9819440" lon="0.3553590">
        <ele>271.9</ele>
        <time>2020-08-07T09:20:42Z</time>
      </trkpt>
      <trkpt lat="40.9819730" lon="0.3553240">
        <ele>271.5</ele>
        <time>2020-08-07T09:20:44Z</time>
      </trkpt>
      <trkpt lat="40.9819990" lon="0.3553050">
        <ele>271.3</ele>
        <time>2020-08-07T09:20:45Z</time>
      </trkpt>
      <trkpt lat="40.9820070" lon="0.3553000">
        <ele>271.2</ele>
        <time>2020-08-07T09:20:46Z</time>
      </trkpt>
      <trkpt lat="40.9820460" lon="0.3552720">
        <ele>270.8</ele>
        <time>2020-08-07T09:20:47Z</time>
      </trkpt>
      <trkpt lat="40.9820770" lon="0.3552570">
        <ele>270.6</ele>
        <time>2020-08-07T09:20:48Z</time>
      </trkpt>
      <trkpt lat="40.9821410" lon="0.3552080">
        <ele>269.9</ele>
        <time>2020-08-07T09:20:50Z</time>
      </trkpt>
      <trkpt lat="40.9822000" lon="0.3551370">
        <ele>269.3</ele>
        <time>2020-08-07T09:20:52Z</time>
      </trkpt>
      <trkpt lat="40.9822670" lon="0.3550670">
        <ele>268.5</ele>
        <time>2020-08-07T09:20:54Z</time>
      </trkpt>
      <trkpt lat="40.9823410" lon="0.3549560">
        <ele>267.4</ele>
        <time>2020-08-07T09:20:56Z</time>
      </trkpt>
      <trkpt lat="40.9823680" lon="0.3548950">
        <ele>266.9</ele>
        <time>2020-08-07T09:20:57Z</time>
      </trkpt>
      <trkpt lat="40.9823930" lon="0.3548420">
        <ele>266.4</ele>
        <time>2020-08-07T09:20:58Z</time>
      </trkpt>
      <trkpt lat="40.9824430" lon="0.3547690">
        <ele>265.5</ele>
        <time>2020-08-07T09:21:00Z</time>
      </trkpt>
      <trkpt lat="40.9825150" lon="0.3547460">
        <ele>264.6</ele>
        <time>2020-08-07T09:21:02Z</time>
      </trkpt>
      <trkpt lat="40.9825600" lon="0.3547660">
        <ele>264.0</ele>
        <time>2020-08-07T09:21:03Z</time>
      </trkpt>
      <trkpt lat="40.9826000" lon="0.3547960">
        <ele>263.5</ele>
        <time>2020-08-07T09:21:04Z</time>
      </trkpt>
      <trkpt lat="40.9826740" lon="0.3548560">
        <ele>262.5</ele>
        <time>2020-08-07T09:21:06Z</time>
      </trkpt>
      <trkpt lat="40.9827040" lon="0.3548860">
        <ele>262.0</ele>
        <time>2020-08-07T09:21:07Z</time>
      </trkpt>
      <trkpt lat="40.9827480" lon="0.3549360">
        <ele>261.3</ele>
        <time>2020-08-07T09:21:09Z</time>
      </trkpt>
      <trkpt lat="40.9827380" lon="0.3550360">
        <ele>260.3</ele>
        <time>2020-08-07T09:21:16Z</time>
      </trkpt>
      <trkpt lat="40.9826700" lon="0.3550820">
        <ele>260.6</ele>
        <time>2020-08-07T09:21:18Z</time>
      </trkpt>
      <trkpt lat="40.9826050" lon="0.3550880">
        <ele>260.6</ele>
        <time>2020-08-07T09:21:20Z</time>
      </trkpt>
      <trkpt lat="40.9825600" lon="0.3550930">
        <ele>260.6</ele>
        <time>2020-08-07T09:21:22Z</time>
      </trkpt>
      <trkpt lat="40.9825320" lon="0.3550960">
        <ele>260.6</ele>
        <time>2020-08-07T09:21:23Z</time>
      </trkpt>
      <trkpt lat="40.9825230" lon="0.3550970">
        <ele>260.6</ele>
        <time>2020-08-07T09:21:24Z</time>
      </trkpt>
      <trkpt lat="40.9825050" lon="0.3551030">
        <ele>260.6</ele>
        <time>2020-08-07T09:21:25Z</time>
      </trkpt>
      <trkpt lat="40.9824780" lon="0.3551230">
        <ele>260.6</ele>
        <time>2020-08-07T09:21:27Z</time>
      </trkpt>
      <trkpt lat="40.9824570" lon="0.3551490">
        <ele>260.6</ele>
        <time>2020-08-07T09:21:28Z</time>
      </trkpt>
      <trkpt lat="40.9824490" lon="0.3551580">
        <ele>260.6</ele>
        <time>2020-08-07T09:21:29Z</time>
      </trkpt>
      <trkpt lat="40.9824310" lon="0.3551750">
        <ele>260.6</ele>
        <time>2020-08-07T09:21:30Z</time>
      </trkpt>
      <trkpt lat="40.9824000" lon="0.3551990">
        <ele>260.6</ele>
        <time>2020-08-07T09:21:32Z</time>
      </trkpt>
      <trkpt lat="40.9823880" lon="0.3552170">
        <ele>260.6</ele>
        <time>2020-08-07T09:21:33Z</time>
      </trkpt>
      <trkpt lat="40.9823700" lon="0.3552540">
        <ele>260.7</ele>
        <time>2020-08-07T09:21:35Z</time>
      </trkpt>
      <trkpt lat="40.9823610" lon="0.3552750">
        <ele>260.7</ele>
        <time>2020-08-07T09:21:36Z</time>
      </trkpt>
      <trkpt lat="40.9823430" lon="0.3553220">
        <ele>260.7</ele>
        <time>2020-08-07T09:21:38Z</time>
      </trkpt>
      <trkpt lat="40.9823280" lon="0.3553680">
        <ele>260.7</ele>
        <time>2020-08-07T09:21:40Z</time>
      </trkpt>
      <trkpt lat="40.9823130" lon="0.3554010">
        <ele>260.7</ele>
        <time>2020-08-07T09:21:41Z</time>
      </trkpt>
      <trkpt lat="40.9823070" lon="0.3554110">
        <ele>260.7</ele>
        <time>2020-08-07T09:21:42Z</time>
      </trkpt>
      <trkpt lat="40.9822750" lon="0.3554460">
        <ele>260.8</ele>
        <time>2020-08-07T09:21:44Z</time>
      </trkpt>
      <trkpt lat="40.9822480" lon="0.3554760">
        <ele>260.8</ele>
        <time>2020-08-07T09:21:45Z</time>
      </trkpt>
      <trkpt lat="40.9822390" lon="0.3554870">
        <ele>260.8</ele>
        <time>2020-08-07T09:21:46Z</time>
      </trkpt>
      <trkpt lat="40.9822150" lon="0.3555350">
        <ele>260.8</ele>
        <time>2020-08-07T09:21:48Z</time>
      </trkpt>
      <trkpt lat="40.9822060" lon="0.3555590">
        <ele>260.8</ele>
        <time>2020-08-07T09:21:49Z</time>
      </trkpt>
      <trkpt lat="40.9821930" lon="0.3556060">
        <ele>260.9</ele>
        <time>2020-08-07T09:21:51Z</time>
      </trkpt>
      <trkpt lat="40.9821810" lon="0.3556440">
        <ele>260.9</ele>
        <time>2020-08-07T09:21:52Z</time>
      </trkpt>
      <trkpt lat="40.9821780" lon="0.3556550">
        <ele>260.9</ele>
        <time>2020-08-07T09:21:53Z</time>
      </trkpt>
      <trkpt lat="40.9821680" lon="0.3556840">
        <ele>260.9</ele>
        <time>2020-08-07T09:21:55Z</time>
      </trkpt>
      <trkpt lat="40.9821660" lon="0.3556900">
        <ele>260.9</ele>
        <time>2020-08-07T09:21:56Z</time>
      </trkpt>
      <trkpt lat="40.9821710" lon="0.3556850">
        <ele>260.9</ele>
        <time>2020-08-07T09:21:58Z</time>
      </trkpt>
      <trkpt lat="40.9821720" lon="0.3556830">
        <ele>260.9</ele>
        <time>2020-08-07T09:21:59Z</time>
      </trkpt>
      <trkpt lat="40.9821720" lon="0.3556840">
        <ele>260.9</ele>
        <time>2020-08-07T09:22:00Z</time>
      </trkpt>
      <trkpt lat="40.9821690" lon="0.3556840">
        <ele>260.9</ele>
        <time>2020-08-07T09:22:02Z</time>
      </trkpt>
      <trkpt lat="40.9821690" lon="0.3556810">
        <ele>261.0</ele>
        <time>2020-08-07T09:22:03Z</time>
      </trkpt>
      <trkpt lat="40.9821690" lon="0.3556710">
        <ele>261.0</ele>
        <time>2020-08-07T09:22:05Z</time>
      </trkpt>
      <trkpt lat="40.9821690" lon="0.3556650">
        <ele>261.0</ele>
        <time>2020-08-07T09:22:07Z</time>
      </trkpt>
      <trkpt lat="40.9821700" lon="0.3556660">
        <ele>261.0</ele>
        <time>2020-08-07T09:22:08Z</time>
      </trkpt>
      <trkpt lat="40.9821710" lon="0.3556660">
        <ele>261.0</ele>
        <time>2020-08-07T09:22:09Z</time>
      </trkpt>
      <trkpt lat="40.9821710" lon="0.3556670">
        <ele>261.0</ele>
        <time>2020-08-07T09:22:10Z</time>
      </trkpt>
      <trkpt lat="40.9821720" lon="0.3556700">
        <ele>261.0</ele>
        <time>2020-08-07T09:22:12Z</time>
      </trkpt>
      <trkpt lat="40.9821720" lon="0.3556730">
        <ele>261.0</ele>
        <time>2020-08-07T09:22:14Z</time>
      </trkpt>
      <trkpt lat="40.9821850" lon="0.3556510">
        <ele>261.0</ele>
        <time>2020-08-07T09:24:30Z</time>
      </trkpt>
      <trkpt lat="40.9821900" lon="0.3556450">
        <ele>261.0</ele>
        <time>2020-08-07T09:24:32Z</time>
      </trkpt>
      <trkpt lat="40.9821910" lon="0.3556400">
        <ele>261.0</ele>
        <time>2020-08-07T09:24:33Z</time>
      </trkpt>
      <trkpt lat="40.9821890" lon="0.3556130">
        <ele>261.0</ele>
        <time>2020-08-07T09:24:35Z</time>
      </trkpt>
      <trkpt lat="40.9821870" lon="0.3555830">
        <ele>261.1</ele>
        <time>2020-08-07T09:24:37Z</time>
      </trkpt>
      <trkpt lat="40.9821880" lon="0.3555640">
        <ele>261.1</ele>
        <time>2020-08-07T09:24:39Z</time>
      </trkpt>
      <trkpt lat="40.9821850" lon="0.3555670">
        <ele>261.1</ele>
        <time>2020-08-07T09:24:41Z</time>
      </trkpt>
      <trkpt lat="40.9821830" lon="0.3555710">
        <ele>261.1</ele>
        <time>2020-08-07T09:24:43Z</time>
      </trkpt>
      <trkpt lat="40.9821840" lon="0.3555690">
        <ele>261.1</ele>
        <time>2020-08-07T09:24:45Z</time>
      </trkpt>
      <trkpt lat="40.9821840" lon="0.3555690">
        <ele>261.1</ele>
        <time>2020-08-07T09:24:47Z</time>
      </trkpt>
      <trkpt lat="40.9822090" lon="0.3556020">
        <ele>261.1</ele>
        <time>2020-08-07T09:25:18Z</time>
      </trkpt>
      <trkpt lat="40.9822130" lon="0.3556290">
        <ele>261.2</ele>
        <time>2020-08-07T09:25:20Z</time>
      </trkpt>
      <trkpt lat="40.9822110" lon="0.3556590">
        <ele>261.2</ele>
        <time>2020-08-07T09:25:22Z</time>
      </trkpt>
      <trkpt lat="40.9822080" lon="0.3556850">
        <ele>261.2</ele>
        <time>2020-08-07T09:25:24Z</time>
      </trkpt>
      <trkpt lat="40.9822030" lon="0.3556990">
        <ele>261.2</ele>
        <time>2020-08-07T09:25:25Z</time>
      </trkpt>
      <trkpt lat="40.9821940" lon="0.3557080">
        <ele>261.2</ele>
        <time>2020-08-07T09:25:26Z</time>
      </trkpt>
      <trkpt lat="40.9821870" lon="0.3557130">
        <ele>261.2</ele>
        <time>2020-08-07T09:25:27Z</time>
      </trkpt>
      <trkpt lat="40.9821810" lon="0.3557120">
        <ele>261.3</ele>
        <time>2020-08-07T09:25:29Z</time>
      </trkpt>
      <trkpt lat="40.9821830" lon="0.3557070">
        <ele>261.3</ele>
        <time>2020-08-07T09:25:30Z</time>
      </trkpt>
      <trkpt lat="40.9821840" lon="0.3557050">
        <ele>261.3</ele>
        <time>2020-08-07T09:25:31Z</time>
      </trkpt>
      <trkpt lat="40.9821850" lon="0.3557050">
        <ele>261.3</ele>
        <time>2020-08-07T09:25:32Z</time>
      </trkpt>
      <trkpt lat="40.9821850" lon="0.3557060">
        <ele>261.3</ele>
        <time>2020-08-07T09:25:34Z</time>
      </trkpt>
      <trkpt lat="40.9821820" lon="0.3557100">
        <ele>261.3</ele>
        <time>2020-08-07T09:25:36Z</time>
      </trkpt>
      <trkpt lat="40.9821810" lon="0.3557140">
        <ele>261.3</ele>
        <time>2020-08-07T09:25:37Z</time>
      </trkpt>
      <trkpt lat="40.9821810" lon="0.3557240">
        <ele>261.3</ele>
        <time>2020-08-07T09:25:39Z</time>
      </trkpt>
      <trkpt lat="40.9821870" lon="0.3557270">
        <ele>261.3</ele>
        <time>2020-08-07T09:25:41Z</time>
      </trkpt>
      <trkpt lat="40.9821890" lon="0.3557270">
        <ele>261.3</ele>
        <time>2020-08-07T09:25:42Z</time>
      </trkpt>
      <trkpt lat="40.9821900" lon="0.3557270">
        <ele>261.3</ele>
        <time>2020-08-07T09:25:43Z</time>
      </trkpt>
      <trkpt lat="40.9821920" lon="0.3557280">
        <ele>261.3</ele>
        <time>2020-08-07T09:25:44Z</time>
      </trkpt>
      <trkpt lat="40.9821980" lon="0.3557350">
        <ele>261.3</ele>
        <time>2020-08-07T09:25:45Z</time>
      </trkpt>
      <trkpt lat="40.9822110" lon="0.3557610">
        <ele>261.3</ele>
        <time>2020-08-07T09:25:47Z</time>
      </trkpt>
      <trkpt lat="40.9822180" lon="0.3557760">
        <ele>261.4</ele>
        <time>2020-08-07T09:25:48Z</time>
      </trkpt>
      <trkpt lat="40.9822240" lon="0.3557900">
        <ele>261.4</ele>
        <time>2020-08-07T09:25:49Z</time>
      </trkpt>
      <trkpt lat="40.9822310" lon="0.3558100">
        <ele>261.4</ele>
        <time>2020-08-07T09:25:51Z</time>
      </trkpt>
      <trkpt lat="40.9822370" lon="0.3558280">
        <ele>261.4</ele>
        <time>2020-08-07T09:25:53Z</time>
      </trkpt>
      <trkpt lat="40.9822320" lon="0.3558360">
        <ele>261.4</ele>
        <time>2020-08-07T09:25:55Z</time>
      </trkpt>
      <trkpt lat="40.9822340" lon="0.3558420">
        <ele>261.4</ele>
        <time>2020-08-07T09:25:56Z</time>
      </trkpt>
      <trkpt lat="40.9822330" lon="0.3558460">
        <ele>261.4</ele>
        <time>2020-08-07T09:25:57Z</time>
      </trkpt>
      <trkpt lat="40.9822420" lon="0.3558540">
        <ele>261.5</ele>
        <time>2020-08-07T09:25:59Z</time>
      </trkpt>
      <trkpt lat="40.9822460" lon="0.3558600">
        <ele>261.5</ele>
        <time>2020-08-07T09:26:01Z</time>
      </trkpt>
      <trkpt lat="40.9822500" lon="0.3558650">
        <ele>261.5</ele>
        <time>2020-08-07T09:26:03Z</time>
      </trkpt>
      <trkpt lat="40.9822530" lon="0.3558710">
        <ele>261.5</ele>
        <time>2020-08-07T09:26:04Z</time>
      </trkpt>
      <trkpt lat="40.9822570" lon="0.3558770">
        <ele>261.5</ele>
        <time>2020-08-07T09:26:05Z</time>
      </trkpt>
      <trkpt lat="40.9822610" lon="0.3558830">
        <ele>261.5</ele>
        <time>2020-08-07T09:26:07Z</time>
      </trkpt>
      <trkpt lat="40.9822650" lon="0.3558880">
        <ele>261.5</ele>
        <time>2020-08-07T09:26:09Z</time>
      </trkpt>
      <trkpt lat="40.9822690" lon="0.3558940">
        <ele>261.5</ele>
        <time>2020-08-07T09:26:11Z</time>
      </trkpt>
      <trkpt lat="40.9822730" lon="0.3559000">
        <ele>261.5</ele>
        <time>2020-08-07T09:26:12Z</time>
      </trkpt>
      <trkpt lat="40.9822760" lon="0.3559060">
        <ele>261.5</ele>
        <time>2020-08-07T09:26:14Z</time>
      </trkpt>
      <trkpt lat="40.9822800" lon="0.3559110">
        <ele>261.5</ele>
        <time>2020-08-07T09:26:15Z</time>
      </trkpt>
      <trkpt lat="40.9822840" lon="0.3559170">
        <ele>261.5</ele>
        <time>2020-08-07T09:26:22Z</time>
      </trkpt>
      <trkpt lat="40.9822880" lon="0.3559230">
        <ele>261.5</ele>
        <time>2020-08-07T09:26:23Z</time>
      </trkpt>
      <trkpt lat="40.9822880" lon="0.3559210">
        <ele>261.5</ele>
        <time>2020-08-07T09:26:24Z</time>
      </trkpt>
      <trkpt lat="40.9822840" lon="0.3559300">
        <ele>261.6</ele>
        <time>2020-08-07T09:26:26Z</time>
      </trkpt>
      <trkpt lat="40.9822800" lon="0.3559370">
        <ele>261.6</ele>
        <time>2020-08-07T09:26:27Z</time>
      </trkpt>
      <trkpt lat="40.9822770" lon="0.3559420">
        <ele>261.6</ele>
        <time>2020-08-07T09:26:28Z</time>
      </trkpt>
      <trkpt lat="40.9822740" lon="0.3559500">
        <ele>261.6</ele>
        <time>2020-08-07T09:26:30Z</time>
      </trkpt>
      <trkpt lat="40.9822710" lon="0.3559520">
        <ele>261.6</ele>
        <time>2020-08-07T09:26:32Z</time>
      </trkpt>
      <trkpt lat="40.9822700" lon="0.3559500">
        <ele>261.6</ele>
        <time>2020-08-07T09:26:33Z</time>
      </trkpt>
      <trkpt lat="40.9822680" lon="0.3559490">
        <ele>261.6</ele>
        <time>2020-08-07T09:26:34Z</time>
      </trkpt>
      <trkpt lat="40.9822670" lon="0.3559490">
        <ele>261.6</ele>
        <time>2020-08-07T09:26:35Z</time>
      </trkpt>
      <trkpt lat="40.9822540" lon="0.3559410">
        <ele>261.6</ele>
        <time>2020-08-07T09:26:38Z</time>
      </trkpt>
      <trkpt lat="40.9822500" lon="0.3559050">
        <ele>261.6</ele>
        <time>2020-08-07T09:26:40Z</time>
      </trkpt>
      <trkpt lat="40.9822490" lon="0.3558970">
        <ele>261.7</ele>
        <time>2020-08-07T09:26:41Z</time>
      </trkpt>
      <trkpt lat="40.9822490" lon="0.3558920">
        <ele>261.7</ele>
        <time>2020-08-07T09:26:42Z</time>
      </trkpt>
      <trkpt lat="40.9822520" lon="0.3558860">
        <ele>261.7</ele>
        <time>2020-08-07T09:26:43Z</time>
      </trkpt>
      <trkpt lat="40.9822550" lon="0.3558780">
        <ele>261.7</ele>
        <time>2020-08-07T09:26:44Z</time>
      </trkpt>
      <trkpt lat="40.9822570" lon="0.3558710">
        <ele>261.7</ele>
        <time>2020-08-07T09:26:45Z</time>
      </trkpt>
      <trkpt lat="40.9822590" lon="0.3558670">
        <ele>261.7</ele>
        <time>2020-08-07T09:26:46Z</time>
      </trkpt>
      <trkpt lat="40.9822600" lon="0.3558670">
        <ele>261.7</ele>
        <time>2020-08-07T09:26:47Z</time>
      </trkpt>
      <trkpt lat="40.9822610" lon="0.3558650">
        <ele>261.7</ele>
        <time>2020-08-07T09:26:49Z</time>
      </trkpt>
      <trkpt lat="40.9822580" lon="0.3558640">
        <ele>261.7</ele>
        <time>2020-08-07T09:26:50Z</time>
      </trkpt>
      <trkpt lat="40.9822600" lon="0.3558610">
        <ele>261.7</ele>
        <time>2020-08-07T09:26:51Z</time>
      </trkpt>
      <trkpt lat="40.9822610" lon="0.3558570">
        <ele>261.7</ele>
        <time>2020-08-07T09:26:52Z</time>
      </trkpt>
      <trkpt lat="40.9822620" lon="0.3558530">
        <ele>261.7</ele>
        <time>2020-08-07T09:26:53Z</time>
      </trkpt>
      <trkpt lat="40.9822610" lon="0.3558470">
        <ele>261.7</ele>
        <time>2020-08-07T09:26:55Z</time>
      </trkpt>
      <trkpt lat="40.9822550" lon="0.3558410">
        <ele>261.7</ele>
        <time>2020-08-07T09:26:57Z</time>
      </trkpt>
      <trkpt lat="40.9822570" lon="0.3558300">
        <ele>261.7</ele>
        <time>2020-08-07T09:26:58Z</time>
      </trkpt>
      <trkpt lat="40.9822620" lon="0.3558170">
        <ele>261.7</ele>
        <time>2020-08-07T09:27:00Z</time>
      </trkpt>
      <trkpt lat="40.9822630" lon="0.3558130">
        <ele>261.8</ele>
        <time>2020-08-07T09:27:01Z</time>
      </trkpt>
      <trkpt lat="40.9822640" lon="0.3558030">
        <ele>261.8</ele>
        <time>2020-08-07T09:27:03Z</time>
      </trkpt>
      <trkpt lat="40.9822670" lon="0.3557940">
        <ele>261.8</ele>
        <time>2020-08-07T09:27:04Z</time>
      </trkpt>
      <trkpt lat="40.9822690" lon="0.3557830">
        <ele>261.8</ele>
        <time>2020-08-07T09:27:06Z</time>
      </trkpt>
      <trkpt lat="40.9822680" lon="0.3557810">
        <ele>261.8</ele>
        <time>2020-08-07T09:27:07Z</time>
      </trkpt>
      <trkpt lat="40.9822600" lon="0.3557800">
        <ele>261.8</ele>
        <time>2020-08-07T09:27:09Z</time>
      </trkpt>
      <trkpt lat="40.9822560" lon="0.3557850">
        <ele>261.8</ele>
        <time>2020-08-07T09:27:11Z</time>
      </trkpt>
      <trkpt lat="40.9822580" lon="0.3557900">
        <ele>261.8</ele>
        <time>2020-08-07T09:27:13Z</time>
      </trkpt>
      <trkpt lat="40.9822610" lon="0.3557920">
        <ele>261.8</ele>
        <time>2020-08-07T09:27:14Z</time>
      </trkpt>
      <trkpt lat="40.9822640" lon="0.3557930">
        <ele>261.8</ele>
        <time>2020-08-07T09:27:15Z</time>
      </trkpt>
      <trkpt lat="40.9822690" lon="0.3557950">
        <ele>261.8</ele>
        <time>2020-08-07T09:27:17Z</time>
      </trkpt>
      <trkpt lat="40.9823080" lon="0.3557920">
        <ele>261.9</ele>
        <time>2020-08-07T09:28:14Z</time>
      </trkpt>
      <trkpt lat="40.9823190" lon="0.3558000">
        <ele>261.9</ele>
        <time>2020-08-07T09:28:16Z</time>
      </trkpt>
      <trkpt lat="40.9823210" lon="0.3558010">
        <ele>261.9</ele>
        <time>2020-08-07T09:28:17Z</time>
      </trkpt>
      <trkpt lat="40.9823210" lon="0.3557990">
        <ele>261.9</ele>
        <time>2020-08-07T09:28:18Z</time>
      </trkpt>
      <trkpt lat="40.9823250" lon="0.3557980">
        <ele>261.9</ele>
        <time>2020-08-07T09:28:19Z</time>
      </trkpt>
      <trkpt lat="40.9823360" lon="0.3557970">
        <ele>261.9</ele>
        <time>2020-08-07T09:28:21Z</time>
      </trkpt>
      <trkpt lat="40.9823430" lon="0.3557940">
        <ele>261.9</ele>
        <time>2020-08-07T09:28:23Z</time>
      </trkpt>
      <trkpt lat="40.9823450" lon="0.3557940">
        <ele>261.9</ele>
        <time>2020-08-07T09:28:24Z</time>
      </trkpt>
      <trkpt lat="40.9823460" lon="0.3557920">
        <ele>261.9</ele>
        <time>2020-08-07T09:28:25Z</time>
      </trkpt>
      <trkpt lat="40.9823470" lon="0.3557910">
        <ele>261.9</ele>
        <time>2020-08-07T09:28:26Z</time>
      </trkpt>
      <trkpt lat="40.9823470" lon="0.3557910">
        <ele>261.9</ele>
        <time>2020-08-07T09:28:28Z</time>
      </trkpt>
      <trkpt lat="40.9823470" lon="0.3557900">
        <ele>261.9</ele>
        <time>2020-08-07T09:28:29Z</time>
      </trkpt>
      <trkpt lat="40.9823480" lon="0.3557890">
        <ele>261.9</ele>
        <time>2020-08-07T09:28:30Z</time>
      </trkpt>
      <trkpt lat="40.9823500" lon="0.3557890">
        <ele>261.9</ele>
        <time>2020-08-07T09:28:31Z</time>
      </trkpt>
      <trkpt lat="40.9823680" lon="0.3557920">
        <ele>262.0</ele>
        <time>2020-08-07T09:28:34Z</time>
      </trkpt>
      <trkpt lat="40.9823740" lon="0.3557900">
        <ele>262.0</ele>
        <time>2020-08-07T09:28:35Z</time>
      </trkpt>
      <trkpt lat="40.9823790" lon="0.3557890">
        <ele>262.0</ele>
        <time>2020-08-07T09:28:36Z</time>
      </trkpt>
      <trkpt lat="40.9823920" lon="0.3557860">
        <ele>262.0</ele>
        <time>2020-08-07T09:28:38Z</time>
      </trkpt>
      <trkpt lat="40.9824010" lon="0.3557830">
        <ele>262.0</ele>
        <time>2020-08-07T09:28:40Z</time>
      </trkpt>
      <trkpt lat="40.9824050" lon="0.3557800">
        <ele>262.0</ele>
        <time>2020-08-07T09:28:41Z</time>
      </trkpt>
      <trkpt lat="40.9824140" lon="0.3557800">
        <ele>262.0</ele>
        <time>2020-08-07T09:28:42Z</time>
      </trkpt>
      <trkpt lat="40.9824180" lon="0.3557780">
        <ele>262.0</ele>
        <time>2020-08-07T09:28:43Z</time>
      </trkpt>
      <trkpt lat="40.9824290" lon="0.3557810">
        <ele>262.1</ele>
        <time>2020-08-07T09:28:45Z</time>
      </trkpt>
      <trkpt lat="40.9824340" lon="0.3557820">
        <ele>262.1</ele>
        <time>2020-08-07T09:28:46Z</time>
      </trkpt>
      <trkpt lat="40.9824400" lon="0.3557840">
        <ele>262.1</ele>
        <time>2020-08-07T09:28:47Z</time>
      </trkpt>
      <trkpt lat="40.9824460" lon="0.3557870">
        <ele>262.1</ele>
        <time>2020-08-07T09:28:48Z</time>
      </trkpt>
      <trkpt lat="40.9824510" lon="0.3557870">
        <ele>262.1</ele>
        <time>2020-08-07T09:28:49Z</time>
      </trkpt>
      <trkpt lat="40.9824570" lon="0.3557900">
        <ele>262.1</ele>
        <time>2020-08-07T09:28:51Z</time>
      </trkpt>
      <trkpt lat="40.9824620" lon="0.3557970">
        <ele>262.1</ele>
        <time>2020-08-07T09:28:52Z</time>
      </trkpt>
      <trkpt lat="40.9824660" lon="0.3558140">
        <ele>262.1</ele>
        <time>2020-08-07T09:28:54Z</time>
      </trkpt>
      <trkpt lat="40.9824670" lon="0.3558200">
        <ele>262.1</ele>
        <time>2020-08-07T09:28:55Z</time>
      </trkpt>
      <trkpt lat="40.9824680" lon="0.3558230">
        <ele>262.1</ele>
        <time>2020-08-07T09:28:56Z</time>
      </trkpt>
      <trkpt lat="40.9824690" lon="0.3558320">
        <ele>262.2</ele>
        <time>2020-08-07T09:28:58Z</time>
      </trkpt>
      <trkpt lat="40.9824690" lon="0.3558340">
        <ele>262.2</ele>
        <time>2020-08-07T09:28:59Z</time>
      </trkpt>
      <trkpt lat="40.9824680" lon="0.3558360">
        <ele>262.2</ele>
        <time>2020-08-07T09:29:00Z</time>
      </trkpt>
      <trkpt lat="40.9824690" lon="0.3558460">
        <ele>262.2</ele>
        <time>2020-08-07T09:29:02Z</time>
      </trkpt>
      <trkpt lat="40.9824710" lon="0.3558520">
        <ele>262.2</ele>
        <time>2020-08-07T09:29:03Z</time>
      </trkpt>
      <trkpt lat="40.9824760" lon="0.3558620">
        <ele>262.2</ele>
        <time>2020-08-07T09:29:05Z</time>
      </trkpt>
      <trkpt lat="40.9824790" lon="0.3558680">
        <ele>262.2</ele>
        <time>2020-08-07T09:29:06Z</time>
      </trkpt>
      <trkpt lat="40.9824830" lon="0.3558740">
        <ele>262.2</ele>
        <time>2020-08-07T09:29:07Z</time>
      </trkpt>
      <trkpt lat="40.9824860" lon="0.3558750">
        <ele>262.2</ele>
        <time>2020-08-07T09:29:09Z</time>
      </trkpt>
      <trkpt lat="40.9824870" lon="0.3558710">
        <ele>262.2</ele>
        <time>2020-08-07T09:29:11Z</time>
      </trkpt>
      <trkpt lat="40.9824890" lon="0.3558710">
        <ele>262.2</ele>
        <time>2020-08-07T09:29:13Z</time>
      </trkpt>
      <trkpt lat="40.9824900" lon="0.3558690">
        <ele>262.2</ele>
        <time>2020-08-07T09:29:14Z</time>
      </trkpt>
      <trkpt lat="40.9824900" lon="0.3558670">
        <ele>262.2</ele>
        <time>2020-08-07T09:29:15Z</time>
      </trkpt>
      <trkpt lat="40.9824890" lon="0.3558640">
        <ele>262.2</ele>
        <time>2020-08-07T09:29:17Z</time>
      </trkpt>
      <trkpt lat="40.9825080" lon="0.3558640">
        <ele>262.3</ele>
        <time>2020-08-07T09:29:23Z</time>
      </trkpt>
      <trkpt lat="40.9825120" lon="0.3558680">
        <ele>262.3</ele>
        <time>2020-08-07T09:29:24Z</time>
      </trkpt>
      <trkpt lat="40.9825160" lon="0.3558700">
        <ele>262.3</ele>
        <time>2020-08-07T09:29:26Z</time>
      </trkpt>
      <trkpt lat="40.9825160" lon="0.3558690">
        <ele>262.3</ele>
        <time>2020-08-07T09:29:27Z</time>
      </trkpt>
      <trkpt lat="40.9825180" lon="0.3558710">
        <ele>262.3</ele>
        <time>2020-08-07T09:29:29Z</time>
      </trkpt>
      <trkpt lat="40.9825190" lon="0.3558730">
        <ele>262.3</ele>
        <time>2020-08-07T09:29:30Z</time>
      </trkpt>
      <trkpt lat="40.9825200" lon="0.3558790">
        <ele>262.3</ele>
        <time>2020-08-07T09:29:31Z</time>
      </trkpt>
      <trkpt lat="40.9825200" lon="0.3558810">
        <ele>262.3</ele>
        <time>2020-08-07T09:29:32Z</time>
      </trkpt>
      <trkpt lat="40.9825210" lon="0.3558810">
        <ele>262.3</ele>
        <time>2020-08-07T09:29:34Z</time>
      </trkpt>
      <trkpt lat="40.9825180" lon="0.3558700">
        <ele>262.3</ele>
        <time>2020-08-07T09:29:36Z</time>
      </trkpt>
      <trkpt lat="40.9825150" lon="0.3558640">
        <ele>262.3</ele>
        <time>2020-08-07T09:29:37Z</time>
      </trkpt>
      <trkpt lat="40.9825160" lon="0.3558610">
        <ele>262.3</ele>
        <time>2020-08-07T09:29:39Z</time>
      </trkpt>
      <trkpt lat="40.9825200" lon="0.3558630">
        <ele>262.3</ele>
        <time>2020-08-07T09:29:41Z</time>
      </trkpt>
      <trkpt lat="40.9825220" lon="0.3558650">
        <ele>262.3</ele>
        <time>2020-08-07T09:29:42Z</time>
      </trkpt>
      <trkpt lat="40.9825300" lon="0.3558730">
        <ele>262.3</ele>
        <time>2020-08-07T09:29:48Z</time>
      </trkpt>
      <trkpt lat="40.9824720" lon="0.3559140">
        <ele>262.4</ele>
        <time>2020-08-07T09:44:21Z</time>
      </trkpt>
      <trkpt lat="40.9824650" lon="0.3559320">
        <ele>262.4</ele>
        <time>2020-08-07T09:44:23Z</time>
      </trkpt>
      <trkpt lat="40.9824640" lon="0.3559420">
        <ele>262.5</ele>
        <time>2020-08-07T09:44:24Z</time>
      </trkpt>
      <trkpt lat="40.9824610" lon="0.3559660">
        <ele>262.5</ele>
        <time>2020-08-07T09:44:26Z</time>
      </trkpt>
      <trkpt lat="40.9824590" lon="0.3559790">
        <ele>262.5</ele>
        <time>2020-08-07T09:44:27Z</time>
      </trkpt>
      <trkpt lat="40.9824540" lon="0.3560030">
        <ele>262.5</ele>
        <time>2020-08-07T09:44:29Z</time>
      </trkpt>
      <trkpt lat="40.9824550" lon="0.3560110">
        <ele>262.5</ele>
        <time>2020-08-07T09:44:30Z</time>
      </trkpt>
      <trkpt lat="40.9824600" lon="0.3560250">
        <ele>262.6</ele>
        <time>2020-08-07T09:44:31Z</time>
      </trkpt>
      <trkpt lat="40.9824650" lon="0.3560360">
        <ele>262.6</ele>
        <time>2020-08-07T09:44:32Z</time>
      </trkpt>
      <trkpt lat="40.9824680" lon="0.3560510">
        <ele>262.6</ele>
        <time>2020-08-07T09:44:33Z</time>
      </trkpt>
      <trkpt lat="40.9824670" lon="0.3560660">
        <ele>262.6</ele>
        <time>2020-08-07T09:44:34Z</time>
      </trkpt>
      <trkpt lat="40.9824550" lon="0.3560670">
        <ele>262.6</ele>
        <time>2020-08-07T09:44:36Z</time>
      </trkpt>
      <trkpt lat="40.9824490" lon="0.3560550">
        <ele>262.6</ele>
        <time>2020-08-07T09:44:37Z</time>
      </trkpt>
      <trkpt lat="40.9824380" lon="0.3560610">
        <ele>262.7</ele>
        <time>2020-08-07T09:44:39Z</time>
      </trkpt>
      <trkpt lat="40.9824290" lon="0.3560700">
        <ele>262.7</ele>
        <time>2020-08-07T09:44:41Z</time>
      </trkpt>
      <trkpt lat="40.9824280" lon="0.3560770">
        <ele>262.7</ele>
        <time>2020-08-07T09:44:42Z</time>
      </trkpt>
      <trkpt lat="40.9824230" lon="0.3560800">
        <ele>262.7</ele>
        <time>2020-08-07T09:44:44Z</time>
      </trkpt>
      <trkpt lat="40.9824230" lon="0.3560820">
        <ele>262.7</ele>
        <time>2020-08-07T09:44:45Z</time>
      </trkpt>
      <trkpt lat="40.9824250" lon="0.3560860">
        <ele>262.7</ele>
        <time>2020-08-07T09:44:47Z</time>
      </trkpt>
      <trkpt lat="40.9824260" lon="0.3560870">
        <ele>262.7</ele>
        <time>2020-08-07T09:44:48Z</time>
      </trkpt>
      <trkpt lat="40.9824270" lon="0.3560880">
        <ele>262.7</ele>
        <time>2020-08-07T09:44:49Z</time>
      </trkpt>
      <trkpt lat="40.9824270" lon="0.3560890">
        <ele>262.7</ele>
        <time>2020-08-07T09:44:50Z</time>
      </trkpt>
      <trkpt lat="40.9824280" lon="0.3560910">
        <ele>262.7</ele>
        <time>2020-08-07T09:44:52Z</time>
      </trkpt>
      <trkpt lat="40.9824280" lon="0.3560910">
        <ele>262.7</ele>
        <time>2020-08-07T09:44:54Z</time>
      </trkpt>
      <trkpt lat="40.9824250" lon="0.3560900">
        <ele>262.7</ele>
        <time>2020-08-07T09:44:55Z</time>
      </trkpt>
      <trkpt lat="40.9824220" lon="0.3560880">
        <ele>262.7</ele>
        <time>2020-08-07T09:44:56Z</time>
      </trkpt>
      <trkpt lat="40.9824170" lon="0.3560870">
        <ele>262.7</ele>
        <time>2020-08-07T09:44:58Z</time>
      </trkpt>
      <trkpt lat="40.9823870" lon="0.3560430">
        <ele>262.8</ele>
        <time>2020-08-07T09:45:49Z</time>
      </trkpt>
      <trkpt lat="40.9823840" lon="0.3560400">
        <ele>262.8</ele>
        <time>2020-08-07T09:45:50Z</time>
      </trkpt>
      <trkpt lat="40.9823820" lon="0.3560380">
        <ele>262.8</ele>
        <time>2020-08-07T09:45:51Z</time>
      </trkpt>
      <trkpt lat="40.9823810" lon="0.3560320">
        <ele>262.8</ele>
        <time>2020-08-07T09:45:52Z</time>
      </trkpt>
      <trkpt lat="40.9823740" lon="0.3560250">
        <ele>262.8</ele>
        <time>2020-08-07T09:45:54Z</time>
      </trkpt>
      <trkpt lat="40.9823660" lon="0.3560240">
        <ele>262.9</ele>
        <time>2020-08-07T09:45:55Z</time>
      </trkpt>
      <trkpt lat="40.9823520" lon="0.3560160">
        <ele>262.9</ele>
        <time>2020-08-07T09:45:57Z</time>
      </trkpt>
      <trkpt lat="40.9823490" lon="0.3560110">
        <ele>262.9</ele>
        <time>2020-08-07T09:45:58Z</time>
      </trkpt>
      <trkpt lat="40.9823450" lon="0.3560070">
        <ele>262.9</ele>
        <time>2020-08-07T09:46:00Z</time>
      </trkpt>
      <trkpt lat="40.9823410" lon="0.3560000">
        <ele>262.9</ele>
        <time>2020-08-07T09:46:01Z</time>
      </trkpt>
      <trkpt lat="40.9823380" lon="0.3559960">
        <ele>262.9</ele>
        <time>2020-08-07T09:46:03Z</time>
      </trkpt>
      <trkpt lat="40.9823340" lon="0.3559950">
        <ele>262.9</ele>
        <time>2020-08-07T09:46:05Z</time>
      </trkpt>
      <trkpt lat="40.9823320" lon="0.3559940">
        <ele>262.9</ele>
        <time>2020-08-07T09:46:06Z</time>
      </trkpt>
      <trkpt lat="40.9823290" lon="0.3559910">
        <ele>262.9</ele>
        <time>2020-08-07T09:46:08Z</time>
      </trkpt>
      <trkpt lat="40.9823250" lon="0.3559870">
        <ele>262.9</ele>
        <time>2020-08-07T09:46:10Z</time>
      </trkpt>
      <trkpt lat="40.9823220" lon="0.3559840">
        <ele>262.9</ele>
        <time>2020-08-07T09:46:12Z</time>
      </trkpt>
      <trkpt lat="40.9823340" lon="0.3559750">
        <ele>263.0</ele>
        <time>2020-08-07T09:46:41Z</time>
      </trkpt>
      <trkpt lat="40.9823340" lon="0.3559750">
        <ele>263.0</ele>
        <time>2020-08-07T09:46:42Z</time>
      </trkpt>
      <trkpt lat="40.9823340" lon="0.3559750">
        <ele>263.0</ele>
        <time>2020-08-07T09:46:43Z</time>
      </trkpt>
      <trkpt lat="40.9823340" lon="0.3559740">
        <ele>263.0</ele>
        <time>2020-08-07T09:46:45Z</time>
      </trkpt>
      <trkpt lat="40.9823330" lon="0.3559730">
        <ele>263.0</ele>
        <time>2020-08-07T09:46:47Z</time>
      </trkpt>
      <trkpt lat="40.9823330" lon="0.3559730">
        <ele>263.0</ele>
        <time>2020-08-07T09:46:49Z</time>
      </trkpt>
      <trkpt lat="40.9823330" lon="0.3559730">
        <ele>263.0</ele>
        <time>2020-08-07T09:46:50Z</time>
      </trkpt>
      <trkpt lat="40.9823330" lon="0.3559730">
        <ele>263.0</ele>
        <time>2020-08-07T09:46:52Z</time>
      </trkpt>
      <trkpt lat="40.9823480" lon="0.3560190">
        <ele>263.0</ele>
        <time>2020-08-07T09:49:39Z</time>
      </trkpt>
      <trkpt lat="40.9823530" lon="0.3560280">
        <ele>263.0</ele>
        <time>2020-08-07T09:49:40Z</time>
      </trkpt>
      <trkpt lat="40.9823580" lon="0.3560400">
        <ele>263.1</ele>
        <time>2020-08-07T09:49:41Z</time>
      </trkpt>
      <trkpt lat="40.9823620" lon="0.3560470">
        <ele>263.1</ele>
        <time>2020-08-07T09:49:42Z</time>
      </trkpt>
      <trkpt lat="40.9823660" lon="0.3560520">
        <ele>263.1</ele>
        <time>2020-08-07T09:49:43Z</time>
      </trkpt>
      <trkpt lat="40.9823710" lon="0.3560590">
        <ele>263.1</ele>
        <time>2020-08-07T09:49:44Z</time>
      </trkpt>
      <trkpt lat="40.9823820" lon="0.3560690">
        <ele>263.1</ele>
        <time>2020-08-07T09:49:45Z</time>
      </trkpt>
      <trkpt lat="40.9823920" lon="0.3560770">
        <ele>263.1</ele>
        <time>2020-08-07T09:49:47Z</time>
      </trkpt>
      <trkpt lat="40.9823960" lon="0.3560900">
        <ele>263.1</ele>
        <time>2020-08-07T09:49:49Z</time>
      </trkpt>
      <trkpt lat="40.9823990" lon="0.3561010">
        <ele>263.2</ele>
        <time>2020-08-07T09:49:51Z</time>
      </trkpt>
      <trkpt lat="40.9824040" lon="0.3561100">
        <ele>263.2</ele>
        <time>2020-08-07T09:49:52Z</time>
      </trkpt>
      <trkpt lat="40.9824080" lon="0.3561210">
        <ele>263.2</ele>
        <time>2020-08-07T09:49:54Z</time>
      </trkpt>
      <trkpt lat="40.9824110" lon="0.3561280">
        <ele>263.2</ele>
        <time>2020-08-07T09:49:56Z</time>
      </trkpt>
      <trkpt lat="40.9824180" lon="0.3561330">
        <ele>263.2</ele>
        <time>2020-08-07T09:49:58Z</time>
      </trkpt>
      <trkpt lat="40.9824260" lon="0.3561380">
        <ele>263.2</ele>
        <time>2020-08-07T09:50:02Z</time>
      </trkpt>
      <trkpt lat="40.9824300" lon="0.3561440">
        <ele>263.2</ele>
        <time>2020-08-07T09:50:03Z</time>
      </trkpt>
      <trkpt lat="40.9824330" lon="0.3561470">
        <ele>263.3</ele>
        <time>2020-08-07T09:50:05Z</time>
      </trkpt>
      <trkpt lat="40.9824340" lon="0.3561500">
        <ele>263.3</ele>
        <time>2020-08-07T09:50:07Z</time>
      </trkpt>
      <trkpt lat="40.9824330" lon="0.3561520">
        <ele>263.3</ele>
        <time>2020-08-07T09:50:09Z</time>
      </trkpt>
      <trkpt lat="40.9824320" lon="0.3561520">
        <ele>263.3</ele>
        <time>2020-08-07T09:50:10Z</time>
      </trkpt>
      <trkpt lat="40.9824290" lon="0.3561530">
        <ele>263.3</ele>
        <time>2020-08-07T09:50:12Z</time>
      </trkpt>
      <trkpt lat="40.9824270" lon="0.3561540">
        <ele>263.3</ele>
        <time>2020-08-07T09:50:14Z</time>
      </trkpt>
      <trkpt lat="40.9824260" lon="0.3561540">
        <ele>263.3</ele>
        <time>2020-08-07T09:50:15Z</time>
      </trkpt>
      <trkpt lat="40.9824250" lon="0.3561550">
        <ele>263.3</ele>
        <time>2020-08-07T09:50:16Z</time>
      </trkpt>
      <trkpt lat="40.9824230" lon="0.3561560">
        <ele>263.3</ele>
        <time>2020-08-07T09:50:18Z</time>
      </trkpt>
      <trkpt lat="40.9824140" lon="0.3561550">
        <ele>263.3</ele>
        <time>2020-08-07T09:50:20Z</time>
      </trkpt>
      <trkpt lat="40.9824100" lon="0.3561540">
        <ele>263.3</ele>
        <time>2020-08-07T09:50:21Z</time>
      </trkpt>
      <trkpt lat="40.9824080" lon="0.3561530">
        <ele>263.3</ele>
        <time>2020-08-07T09:50:23Z</time>
      </trkpt>
      <trkpt lat="40.9824080" lon="0.3561530">
        <ele>263.3</ele>
        <time>2020-08-07T09:50:25Z</time>
      </trkpt>
      <trkpt lat="40.9824080" lon="0.3561530">
        <ele>263.3</ele>
        <time>2020-08-07T09:50:26Z</time>
      </trkpt>
      <trkpt lat="40.9824090" lon="0.3561530">
        <ele>263.3</ele>
        <time>2020-08-07T09:50:27Z</time>
      </trkpt>
      <trkpt lat="40.9824090" lon="0.3561530">
        <ele>263.3</ele>
        <time>2020-08-07T09:50:28Z</time>
      </trkpt>
      <trkpt lat="40.9824090" lon="0.3561530">
        <ele>263.3</ele>
        <time>2020-08-07T09:50:30Z</time>
      </trkpt>
      <trkpt lat="40.9824140" lon="0.3561610">
        <ele>263.3</ele>
        <time>2020-08-07T09:50:31Z</time>
      </trkpt>
      <trkpt lat="40.9824190" lon="0.3561710">
        <ele>263.3</ele>
        <time>2020-08-07T09:50:32Z</time>
      </trkpt>
      <trkpt lat="40.9824210" lon="0.3561770">
        <ele>263.3</ele>
        <time>2020-08-07T09:50:33Z</time>
      </trkpt>
      <trkpt lat="40.9824230" lon="0.3561780">
        <ele>263.3</ele>
        <time>2020-08-07T09:50:34Z</time>
      </trkpt>
      <trkpt lat="40.9824310" lon="0.3561640">
        <ele>263.4</ele>
        <time>2020-08-07T09:50:36Z</time>
      </trkpt>
      <trkpt lat="40.9824340" lon="0.3561580">
        <ele>263.4</ele>
        <time>2020-08-07T09:50:37Z</time>
      </trkpt>
      <trkpt lat="40.9824380" lon="0.3561510">
        <ele>263.4</ele>
        <time>2020-08-07T09:50:38Z</time>
      </trkpt>
      <trkpt lat="40.9824420" lon="0.3561370">
        <ele>263.4</ele>
        <time>2020-08-07T09:50:40Z</time>
      </trkpt>
      <trkpt lat="40.9824450" lon="0.3561310">
        <ele>263.4</ele>
        <time>2020-08-07T09:50:41Z</time>
      </trkpt>
      <trkpt lat="40.9824460" lon="0.3561330">
        <ele>263.4</ele>
        <time>2020-08-07T09:50:43Z</time>
      </trkpt>
      <trkpt lat="40.9824460" lon="0.3561340">
        <ele>263.4</ele>
        <time>2020-08-07T09:50:44Z</time>
      </trkpt>
      <trkpt lat="40.9824490" lon="0.3561310">
        <ele>263.4</ele>
        <time>2020-08-07T09:50:45Z</time>
      </trkpt>
      <trkpt lat="40.9824560" lon="0.3561270">
        <ele>263.4</ele>
        <time>2020-08-07T09:50:47Z</time>
      </trkpt>
      <trkpt lat="40.9824600" lon="0.3561230">
        <ele>263.5</ele>
        <time>2020-08-07T09:50:49Z</time>
      </trkpt>
      <trkpt lat="40.9824620" lon="0.3561180">
        <ele>263.5</ele>
        <time>2020-08-07T09:50:50Z</time>
      </trkpt>
      <trkpt lat="40.9824700" lon="0.3561150">
        <ele>263.5</ele>
        <time>2020-08-07T09:50:52Z</time>
      </trkpt>
      <trkpt lat="40.9824790" lon="0.3561110">
        <ele>263.5</ele>
        <time>2020-08-07T09:50:54Z</time>
      </trkpt>
      <trkpt lat="40.9824820" lon="0.3561060">
        <ele>263.5</ele>
        <time>2020-08-07T09:50:55Z</time>
      </trkpt>
      <trkpt lat="40.9824870" lon="0.3560940">
        <ele>263.5</ele>
        <time>2020-08-07T09:50:57Z</time>
      </trkpt>
      <trkpt lat="40.9824930" lon="0.3560840">
        <ele>263.5</ele>
        <time>2020-08-07T09:50:58Z</time>
      </trkpt>
      <trkpt lat="40.9824970" lon="0.3560770">
        <ele>263.6</ele>
        <time>2020-08-07T09:51:00Z</time>
      </trkpt>
      <trkpt lat="40.9825000" lon="0.3560670">
        <ele>263.6</ele>
        <time>2020-08-07T09:51:01Z</time>
      </trkpt>
      <trkpt lat="40.9825030" lon="0.3560540">
        <ele>263.6</ele>
        <time>2020-08-07T09:51:02Z</time>
      </trkpt>
      <trkpt lat="40.9825050" lon="0.3560370">
        <ele>263.6</ele>
        <time>2020-08-07T09:51:04Z</time>
      </trkpt>
      <trkpt lat="40.9825060" lon="0.3560370">
        <ele>263.6</ele>
        <time>2020-08-07T09:51:05Z</time>
      </trkpt>
      <trkpt lat="40.9825060" lon="0.3560350">
        <ele>263.6</ele>
        <time>2020-08-07T09:51:06Z</time>
      </trkpt>
      <trkpt lat="40.9825050" lon="0.3560320">
        <ele>263.6</ele>
        <time>2020-08-07T09:51:08Z</time>
      </trkpt>
      <trkpt lat="40.9825050" lon="0.3560300">
        <ele>263.6</ele>
        <time>2020-08-07T09:51:09Z</time>
      </trkpt>
      <trkpt lat="40.9825050" lon="0.3560290">
        <ele>263.6</ele>
        <time>2020-08-07T09:51:10Z</time>
      </trkpt>
      <trkpt lat="40.9825050" lon="0.3560280">
        <ele>263.6</ele>
        <time>2020-08-07T09:51:11Z</time>
      </trkpt>
      <trkpt lat="40.9825070" lon="0.3560270">
        <ele>263.6</ele>
        <time>2020-08-07T09:51:12Z</time>
      </trkpt>
      <trkpt lat="40.9825080" lon="0.3560200">
        <ele>263.6</ele>
        <time>2020-08-07T09:51:17Z</time>
      </trkpt>
      <trkpt lat="40.9825410" lon="0.3559800">
        <ele>263.7</ele>
        <time>2020-08-07T09:52:09Z</time>
      </trkpt>
      <trkpt lat="40.9825430" lon="0.3559750">
        <ele>263.7</ele>
        <time>2020-08-07T09:52:11Z</time>
      </trkpt>
      <trkpt lat="40.9825490" lon="0.3559710">
        <ele>263.7</ele>
        <time>2020-08-07T09:52:12Z</time>
      </trkpt>
      <trkpt lat="40.9825500" lon="0.3559640">
        <ele>263.7</ele>
        <time>2020-08-07T09:52:14Z</time>
      </trkpt>
      <trkpt lat="40.9825530" lon="0.3559570">
        <ele>263.8</ele>
        <time>2020-08-07T09:52:15Z</time>
      </trkpt>
      <trkpt lat="40.9825570" lon="0.3559530">
        <ele>263.8</ele>
        <time>2020-08-07T09:52:16Z</time>
      </trkpt>
      <trkpt lat="40.9825560" lon="0.3559480">
        <ele>263.8</ele>
        <time>2020-08-07T09:52:17Z</time>
      </trkpt>
      <trkpt lat="40.9825670" lon="0.3559440">
        <ele>263.8</ele>
        <time>2020-08-07T09:52:19Z</time>
      </trkpt>
      <trkpt lat="40.9825730" lon="0.3559380">
        <ele>263.8</ele>
        <time>2020-08-07T09:52:20Z</time>
      </trkpt>
      <trkpt lat="40.9825720" lon="0.3559330">
        <ele>263.8</ele>
        <time>2020-08-07T09:52:21Z</time>
      </trkpt>
      <trkpt lat="40.9825700" lon="0.3559270">
        <ele>263.8</ele>
        <time>2020-08-07T09:52:23Z</time>
      </trkpt>
      <trkpt lat="40.9825710" lon="0.3559220">
        <ele>263.8</ele>
        <time>2020-08-07T09:52:25Z</time>
      </trkpt>
      <trkpt lat="40.9825730" lon="0.3559200">
        <ele>263.8</ele>
        <time>2020-08-07T09:52:26Z</time>
      </trkpt>
      <trkpt lat="40.9825760" lon="0.3559200">
        <ele>263.8</ele>
        <time>2020-08-07T09:52:27Z</time>
      </trkpt>
      <trkpt lat="40.9825790" lon="0.3559200">
        <ele>263.8</ele>
        <time>2020-08-07T09:52:28Z</time>
      </trkpt>
      <trkpt lat="40.9825820" lon="0.3559190">
        <ele>263.9</ele>
        <time>2020-08-07T09:52:30Z</time>
      </trkpt>
      <trkpt lat="40.9824990" lon="0.3558950">
        <ele>264.0</ele>
        <time>2020-08-07T10:00:04Z</time>
      </trkpt>
      <trkpt lat="40.9824930" lon="0.3558920">
        <ele>264.0</ele>
        <time>2020-08-07T10:00:06Z</time>
      </trkpt>
      <trkpt lat="40.9824910" lon="0.3558910">
        <ele>264.0</ele>
        <time>2020-08-07T10:00:07Z</time>
      </trkpt>
      <trkpt lat="40.9824890" lon="0.3558880">
        <ele>264.0</ele>
        <time>2020-08-07T10:00:09Z</time>
      </trkpt>
      <trkpt lat="40.9824890" lon="0.3558840">
        <ele>264.0</ele>
        <time>2020-08-07T10:00:10Z</time>
      </trkpt>
      <trkpt lat="40.9824880" lon="0.3558810">
        <ele>264.0</ele>
        <time>2020-08-07T10:00:12Z</time>
      </trkpt>
      <trkpt lat="40.9824880" lon="0.3558790">
        <ele>264.0</ele>
        <time>2020-08-07T10:00:13Z</time>
      </trkpt>
      <trkpt lat="40.9824870" lon="0.3558760">
        <ele>264.0</ele>
        <time>2020-08-07T10:00:15Z</time>
      </trkpt>
      <trkpt lat="40.9824850" lon="0.3558730">
        <ele>264.0</ele>
        <time>2020-08-07T10:00:17Z</time>
      </trkpt>
      <trkpt lat="40.9824560" lon="0.3558480">
        <ele>264.1</ele>
        <time>2020-08-07T10:01:00Z</time>
      </trkpt>
      <trkpt lat="40.9824550" lon="0.3558470">
        <ele>264.1</ele>
        <time>2020-08-07T10:01:01Z</time>
      </trkpt>
      <trkpt lat="40.9824550" lon="0.3558470">
        <ele>264.1</ele>
        <time>2020-08-07T10:01:03Z</time>
      </trkpt>
      <trkpt lat="40.9824560" lon="0.3558480">
        <ele>264.1</ele>
        <time>2020-08-07T10:01:10Z</time>
      </trkpt>
      <trkpt lat="40.9824560" lon="0.3558480">
        <ele>264.1</ele>
        <time>2020-08-07T10:01:11Z</time>
      </trkpt>
      <trkpt lat="40.9824560" lon="0.3558490">
        <ele>264.1</ele>
        <time>2020-08-07T10:01:12Z</time>
      </trkpt>
      <trkpt lat="40.9824560" lon="0.3558490">
        <ele>264.1</ele>
        <time>2020-08-07T10:01:14Z</time>
      </trkpt>
      <trkpt lat="40.9824560" lon="0.3558490">
        <ele>264.1</ele>
        <time>2020-08-07T10:01:16Z</time>
      </trkpt>
      <trkpt lat="40.9824560" lon="0.3558490">
        <ele>264.1</ele>
        <time>2020-08-07T10:01:17Z</time>
      </trkpt>
      <trkpt lat="40.9824560" lon="0.3558490">
        <ele>264.1</ele>
        <time>2020-08-07T10:01:19Z</time>
      </trkpt>
      <trkpt lat="40.9824560" lon="0.3558490">
        <ele>264.1</ele>
        <time>2020-08-07T10:01:21Z</time>
      </trkpt>
      <trkpt lat="40.9824560" lon="0.3558490">
        <ele>264.1</ele>
        <time>2020-08-07T10:01:22Z</time>
      </trkpt>
      <trkpt lat="40.9824560" lon="0.3558490">
        <ele>264.1</ele>
        <time>2020-08-07T10:01:23Z</time>
      </trkpt>
      <trkpt lat="40.9824560" lon="0.3558490">
        <ele>264.1</ele>
        <time>2020-08-07T10:01:26Z</time>
      </trkpt>
      <trkpt lat="40.9824560" lon="0.3558490">
        <ele>264.1</ele>
        <time>2020-08-07T10:01:27Z</time>
      </trkpt>
      <trkpt lat="40.9824560" lon="0.3558490">
        <ele>264.1</ele>
        <time>2020-08-07T10:01:29Z</time>
      </trkpt>
      <trkpt lat="40.9824560" lon="0.3558490">
        <ele>264.1</ele>
        <time>2020-08-07T10:01:30Z</time>
      </trkpt>
      <trkpt lat="40.9824560" lon="0.3558490">
        <ele>264.1</ele>
        <time>2020-08-07T10:01:32Z</time>
      </trkpt>
      <trkpt lat="40.9824560" lon="0.3558490">
        <ele>264.1</ele>
        <time>2020-08-07T10:01:33Z</time>
      </trkpt>
      <trkpt lat="40.9824560" lon="0.3558490">
        <ele>264.1</ele>
        <time>2020-08-07T10:01:35Z</time>
      </trkpt>
      <trkpt lat="40.9824560" lon="0.3558490">
        <ele>264.1</ele>
        <time>2020-08-07T10:01:36Z</time>
      </trkpt>
      <trkpt lat="40.9824560" lon="0.3558490">
        <ele>264.1</ele>
        <time>2020-08-07T10:01:37Z</time>
      </trkpt>
      <trkpt lat="40.9824560" lon="0.3558490">
        <ele>264.1</ele>
        <time>2020-08-07T10:01:38Z</time>
      </trkpt>
      <trkpt lat="40.9824560" lon="0.3558490">
        <ele>264.1</ele>
        <time>2020-08-07T10:01:40Z</time>
      </trkpt>
      <trkpt lat="40.9824560" lon="0.3558490">
        <ele>264.1</ele>
        <time>2020-08-07T10:01:41Z</time>
      </trkpt>
      <trkpt lat="40.9824560" lon="0.3558490">
        <ele>264.1</ele>
        <time>2020-08-07T10:01:42Z</time>
      </trkpt>
      <trkpt lat="40.9824560" lon="0.3558490">
        <ele>264.1</ele>
        <time>2020-08-07T10:01:43Z</time>
      </trkpt>
      <trkpt lat="40.9824560" lon="0.3558490">
        <ele>264.1</ele>
        <time>2020-08-07T10:01:45Z</time>
      </trkpt>
      <trkpt lat="40.9824560" lon="0.3558490">
        <ele>264.1</ele>
        <time>2020-08-07T10:01:46Z</time>
      </trkpt>
      <trkpt lat="40.9824560" lon="0.3558490">
        <ele>264.1</ele>
        <time>2020-08-07T10:01:47Z</time>
      </trkpt>
      <trkpt lat="40.9824560" lon="0.3558490">
        <ele>264.1</ele>
        <time>2020-08-07T10:01:48Z</time>
      </trkpt>
      <trkpt lat="40.9824560" lon="0.3558490">
        <ele>264.1</ele>
        <time>2020-08-07T10:01:50Z</time>
      </trkpt>
      <trkpt lat="40.9824560" lon="0.3558490">
        <ele>264.1</ele>
        <time>2020-08-07T10:01:52Z</time>
      </trkpt>
      <trkpt lat="40.9824560" lon="0.3558490">
        <ele>264.1</ele>
        <time>2020-08-07T10:01:54Z</time>
      </trkpt>
      <trkpt lat="40.9824560" lon="0.3558490">
        <ele>264.1</ele>
        <time>2020-08-07T10:01:56Z</time>
      </trkpt>
      <trkpt lat="40.9824560" lon="0.3558490">
        <ele>264.1</ele>
        <time>2020-08-07T10:01:58Z</time>
      </trkpt>
      <trkpt lat="40.9824560" lon="0.3558490">
        <ele>264.1</ele>
        <time>2020-08-07T10:01:59Z</time>
      </trkpt>
      <trkpt lat="40.9824560" lon="0.3558490">
        <ele>264.1</ele>
        <time>2020-08-07T10:02:00Z</time>
      </trkpt>
      <trkpt lat="40.9824560" lon="0.3558490">
        <ele>264.1</ele>
        <time>2020-08-07T10:02:02Z</time>
      </trkpt>
      <trkpt lat="40.9824560" lon="0.3558490">
        <ele>264.1</ele>
        <time>2020-08-07T10:02:03Z</time>
      </trkpt>
      <trkpt lat="40.9824560" lon="0.3558490">
        <ele>264.1</ele>
        <time>2020-08-07T10:02:04Z</time>
      </trkpt>
      <trkpt lat="40.9824560" lon="0.3558490">
        <ele>264.1</ele>
        <time>2020-08-07T10:02:06Z</time>
      </trkpt>
      <trkpt lat="40.9824560" lon="0.3558490">
        <ele>264.1</ele>
        <time>2020-08-07T10:02:07Z</time>
      </trkpt>
      <trkpt lat="40.9824560" lon="0.3558490">
        <ele>264.1</ele>
        <time>2020-08-07T10:02:08Z</time>
      </trkpt>
      <trkpt lat="40.9824560" lon="0.3558490">
        <ele>264.1</ele>
        <time>2020-08-07T10:02:09Z</time>
      </trkpt>
      <trkpt lat="40.9824560" lon="0.3558490">
        <ele>264.1</ele>
        <time>2020-08-07T10:02:11Z</time>
      </trkpt>
      <trkpt lat="40.9824560" lon="0.3558490">
        <ele>264.1</ele>
        <time>2020-08-07T10:02:12Z</time>
      </trkpt>
      <trkpt lat="40.9824560" lon="0.3558490">
        <ele>264.1</ele>
        <time>2020-08-07T10:02:14Z</time>
      </trkpt>
      <trkpt lat="40.9824560" lon="0.3558490">
        <ele>264.1</ele>
        <time>2020-08-07T10:02:16Z</time>
      </trkpt>
      <trkpt lat="40.9824560" lon="0.3558490">
        <ele>264.1</ele>
        <time>2020-08-07T10:02:18Z</time>
      </trkpt>
      <trkpt lat="40.9824560" lon="0.3558490">
        <ele>264.1</ele>
        <time>2020-08-07T10:02:19Z</time>
      </trkpt>
      <trkpt lat="40.9824560" lon="0.3558490">
        <ele>264.1</ele>
        <time>2020-08-07T10:02:20Z</time>
      </trkpt>
      <trkpt lat="40.9824560" lon="0.3558490">
        <ele>264.1</ele>
        <time>2020-08-07T10:02:22Z</time>
      </trkpt>
      <trkpt lat="40.9824560" lon="0.3558490">
        <ele>264.1</ele>
        <time>2020-08-07T10:02:24Z</time>
      </trkpt>
      <trkpt lat="40.9824560" lon="0.3558490">
        <ele>264.1</ele>
        <time>2020-08-07T10:02:25Z</time>
      </trkpt>
      <trkpt lat="40.9824560" lon="0.3558490">
        <ele>264.1</ele>
        <time>2020-08-07T10:02:26Z</time>
      </trkpt>
      <trkpt lat="40.9824560" lon="0.3558490">
        <ele>264.1</ele>
        <time>2020-08-07T10:02:28Z</time>
      </trkpt>
      <trkpt lat="40.9824560" lon="0.3558490">
        <ele>264.1</ele>
        <time>2020-08-07T10:02:30Z</time>
      </trkpt>
      <trkpt lat="40.9824560" lon="0.3558490">
        <ele>264.1</ele>
        <time>2020-08-07T10:02:31Z</time>
      </trkpt>
      <trkpt lat="40.9824560" lon="0.3558490">
        <ele>264.1</ele>
        <time>2020-08-07T10:02:32Z</time>
      </trkpt>
      <trkpt lat="40.9824560" lon="0.3558490">
        <ele>264.1</ele>
        <time>2020-08-07T10:02:33Z</time>
      </trkpt>
      <trkpt lat="40.9824560" lon="0.3558490">
        <ele>264.1</ele>
        <time>2020-08-07T10:02:34Z</time>
      </trkpt>
      <trkpt lat="40.9824560" lon="0.3558490">
        <ele>264.1</ele>
        <time>2020-08-07T10:02:35Z</time>
      </trkpt>
      <trkpt lat="40.9824560" lon="0.3558490">
        <ele>264.1</ele>
        <time>2020-08-07T10:02:37Z</time>
      </trkpt>
      <trkpt lat="40.9824560" lon="0.3558490">
        <ele>264.1</ele>
        <time>2020-08-07T10:02:38Z</time>
      </trkpt>
      <trkpt lat="40.9824560" lon="0.3558490">
        <ele>264.1</ele>
        <time>2020-08-07T10:02:40Z</time>
      </trkpt>
      <trkpt lat="40.9824560" lon="0.3558490">
        <ele>264.1</ele>
        <time>2020-08-07T10:02:42Z</time>
      </trkpt>
      <trkpt lat="40.9824560" lon="0.3558490">
        <ele>264.1</ele>
        <time>2020-08-07T10:02:43Z</time>
      </trkpt>
      <trkpt lat="40.9824560" lon="0.3558490">
        <ele>264.1</ele>
        <time>2020-08-07T10:02:45Z</time>
      </trkpt>
      <trkpt lat="40.9824560" lon="0.3558490">
        <ele>264.1</ele>
        <time>2020-08-07T10:02:47Z</time>
      </trkpt>
      <trkpt lat="40.9824560" lon="0.3558490">
        <ele>264.1</ele>
        <time>2020-08-07T10:02:48Z</time>
      </trkpt>
      <trkpt lat="40.9824560" lon="0.3558490">
        <ele>264.1</ele>
        <time>2020-08-07T10:02:49Z</time>
      </trkpt>
      <trkpt lat="40.9824560" lon="0.3558490">
        <ele>264.1</ele>
        <time>2020-08-07T10:02:50Z</time>
      </trkpt>
      <trkpt lat="40.9824560" lon="0.3558500">
        <ele>264.1</ele>
        <time>2020-08-07T10:02:51Z</time>
      </trkpt>
      <trkpt lat="40.9824560" lon="0.3558500">
        <ele>264.1</ele>
        <time>2020-08-07T10:02:53Z</time>
      </trkpt>
      <trkpt lat="40.9824560" lon="0.3558500">
        <ele>264.0</ele>
        <time>2020-08-07T10:02:55Z</time>
      </trkpt>
      <trkpt lat="40.9824560" lon="0.3558500">
        <ele>264.0</ele>
        <time>2020-08-07T10:02:57Z</time>
      </trkpt>
      <trkpt lat="40.9824560" lon="0.3558500">
        <ele>264.0</ele>
        <time>2020-08-07T10:02:58Z</time>
      </trkpt>
      <trkpt lat="40.9824560" lon="0.3558500">
        <ele>264.0</ele>
        <time>2020-08-07T10:02:59Z</time>
      </trkpt>
      <trkpt lat="40.9824560" lon="0.3558500">
        <ele>263.9</ele>
        <time>2020-08-07T10:03:01Z</time>
      </trkpt>
      <trkpt lat="40.9824560" lon="0.3558500">
        <ele>263.9</ele>
        <time>2020-08-07T10:03:02Z</time>
      </trkpt>
      <trkpt lat="40.9824560" lon="0.3558500">
        <ele>263.9</ele>
        <time>2020-08-07T10:03:04Z</time>
      </trkpt>
      <trkpt lat="40.9824560" lon="0.3558500">
        <ele>263.9</ele>
        <time>2020-08-07T10:03:06Z</time>
      </trkpt>
      <trkpt lat="40.9824560" lon="0.3558500">
        <ele>263.8</ele>
        <time>2020-08-07T10:03:07Z</time>
      </trkpt>
      <trkpt lat="40.9824560" lon="0.3558500">
        <ele>263.8</ele>
        <time>2020-08-07T10:03:08Z</time>
      </trkpt>
      <trkpt lat="40.9824560" lon="0.3558500">
        <ele>263.8</ele>
        <time>2020-08-07T10:03:10Z</time>
      </trkpt>
      <trkpt lat="40.9824560" lon="0.3558500">
        <ele>263.8</ele>
        <time>2020-08-07T10:03:12Z</time>
      </trkpt>
      <trkpt lat="40.9824560" lon="0.3558500">
        <ele>263.7</ele>
        <time>2020-08-07T10:03:14Z</time>
      </trkpt>
      <trkpt lat="40.9824560" lon="0.3558500">
        <ele>263.7</ele>
        <time>2020-08-07T10:03:15Z</time>
      </trkpt>
      <trkpt lat="40.9824560" lon="0.3558500">
        <ele>263.7</ele>
        <time>2020-08-07T10:03:16Z</time>
      </trkpt>
      <trkpt lat="40.9824560" lon="0.3558500">
        <ele>263.7</ele>
        <time>2020-08-07T10:03:18Z</time>
      </trkpt>
      <trkpt lat="40.9824560" lon="0.3558500">
        <ele>263.6</ele>
        <time>2020-08-07T10:03:19Z</time>
      </trkpt>
      <trkpt lat="40.9824560" lon="0.3558500">
        <ele>263.6</ele>
        <time>2020-08-07T10:03:20Z</time>
      </trkpt>
      <trkpt lat="40.9824560" lon="0.3558500">
        <ele>263.6</ele>
        <time>2020-08-07T10:03:21Z</time>
      </trkpt>
      <trkpt lat="40.9824560" lon="0.3558500">
        <ele>263.6</ele>
        <time>2020-08-07T10:03:23Z</time>
      </trkpt>
      <trkpt lat="40.9824560" lon="0.3558500">
        <ele>263.5</ele>
        <time>2020-08-07T10:03:24Z</time>
      </trkpt>
      <trkpt lat="40.9824560" lon="0.3558500">
        <ele>263.5</ele>
        <time>2020-08-07T10:03:25Z</time>
      </trkpt>
      <trkpt lat="40.9824560" lon="0.3558500">
        <ele>263.5</ele>
        <time>2020-08-07T10:03:26Z</time>
      </trkpt>
      <trkpt lat="40.9824560" lon="0.3558500">
        <ele>263.5</ele>
        <time>2020-08-07T10:03:28Z</time>
      </trkpt>
      <trkpt lat="40.9824560" lon="0.3558500">
        <ele>263.5</ele>
        <time>2020-08-07T10:03:30Z</time>
      </trkpt>
      <trkpt lat="40.9824560" lon="0.3558500">
        <ele>263.4</ele>
        <time>2020-08-07T10:03:31Z</time>
      </trkpt>
      <trkpt lat="40.9824560" lon="0.3558500">
        <ele>263.4</ele>
        <time>2020-08-07T10:03:32Z</time>
      </trkpt>
      <trkpt lat="40.9824560" lon="0.3558500">
        <ele>263.4</ele>
        <time>2020-08-07T10:03:33Z</time>
      </trkpt>
      <trkpt lat="40.9824560" lon="0.3558500">
        <ele>263.4</ele>
        <time>2020-08-07T10:03:34Z</time>
      </trkpt>
      <trkpt lat="40.9824560" lon="0.3558500">
        <ele>263.3</ele>
        <time>2020-08-07T10:03:36Z</time>
      </trkpt>
      <trkpt lat="40.9824560" lon="0.3558500">
        <ele>263.3</ele>
        <time>2020-08-07T10:03:38Z</time>
      </trkpt>
      <trkpt lat="40.9824560" lon="0.3558500">
        <ele>263.3</ele>
        <time>2020-08-07T10:03:39Z</time>
      </trkpt>
      <trkpt lat="40.9824560" lon="0.3558500">
        <ele>263.3</ele>
        <time>2020-08-07T10:03:40Z</time>
      </trkpt>
      <trkpt lat="40.9824560" lon="0.3558500">
        <ele>263.2</ele>
        <time>2020-08-07T10:03:42Z</time>
      </trkpt>
      <trkpt lat="40.9824560" lon="0.3558500">
        <ele>263.2</ele>
        <time>2020-08-07T10:03:44Z</time>
      </trkpt>
      <trkpt lat="40.9824560" lon="0.3558500">
        <ele>263.2</ele>
        <time>2020-08-07T10:03:46Z</time>
      </trkpt>
      <trkpt lat="40.9824560" lon="0.3558500">
        <ele>263.2</ele>
        <time>2020-08-07T10:03:47Z</time>
      </trkpt>
      <trkpt lat="40.9824560" lon="0.3558500">
        <ele>263.1</ele>
        <time>2020-08-07T10:03:49Z</time>
      </trkpt>
      <trkpt lat="40.9824560" lon="0.3558500">
        <ele>263.1</ele>
        <time>2020-08-07T10:03:50Z</time>
      </trkpt>
      <trkpt lat="40.9824560" lon="0.3558500">
        <ele>263.1</ele>
        <time>2020-08-07T10:03:51Z</time>
      </trkpt>
      <trkpt lat="40.9824560" lon="0.3558500">
        <ele>263.1</ele>
        <time>2020-08-07T10:03:52Z</time>
      </trkpt>
      <trkpt lat="40.9824560" lon="0.3558500">
        <ele>263.0</ele>
        <time>2020-08-07T10:03:53Z</time>
      </trkpt>
      <trkpt lat="40.9824560" lon="0.3558500">
        <ele>263.0</ele>
        <time>2020-08-07T10:03:55Z</time>
      </trkpt>
      <trkpt lat="40.9824560" lon="0.3558500">
        <ele>263.0</ele>
        <time>2020-08-07T10:03:56Z</time>
      </trkpt>
      <trkpt lat="40.9824560" lon="0.3558500">
        <ele>263.0</ele>
        <time>2020-08-07T10:03:57Z</time>
      </trkpt>
      <trkpt lat="40.9824560" lon="0.3558500">
        <ele>262.9</ele>
        <time>2020-08-07T10:03:58Z</time>
      </trkpt>
      <trkpt lat="40.9824560" lon="0.3558500">
        <ele>262.9</ele>
        <time>2020-08-07T10:04:00Z</time>
      </trkpt>
      <trkpt lat="40.9824560" lon="0.3558500">
        <ele>262.9</ele>
        <time>2020-08-07T10:04:01Z</time>
      </trkpt>
      <trkpt lat="40.9824560" lon="0.3558500">
        <ele>262.9</ele>
        <time>2020-08-07T10:04:02Z</time>
      </trkpt>
      <trkpt lat="40.9824560" lon="0.3558500">
        <ele>262.9</ele>
        <time>2020-08-07T10:04:04Z</time>
      </trkpt>
      <trkpt lat="40.9824560" lon="0.3558500">
        <ele>262.8</ele>
        <time>2020-08-07T10:04:05Z</time>
      </trkpt>
      <trkpt lat="40.9824560" lon="0.3558500">
        <ele>262.8</ele>
        <time>2020-08-07T10:04:06Z</time>
      </trkpt>
      <trkpt lat="40.9824560" lon="0.3558500">
        <ele>262.8</ele>
        <time>2020-08-07T10:04:07Z</time>
      </trkpt>
      <trkpt lat="40.9824560" lon="0.3558500">
        <ele>262.8</ele>
        <time>2020-08-07T10:04:09Z</time>
      </trkpt>
      <trkpt lat="40.9824560" lon="0.3558500">
        <ele>262.7</ele>
        <time>2020-08-07T10:04:10Z</time>
      </trkpt>
      <trkpt lat="40.9824560" lon="0.3558500">
        <ele>262.7</ele>
        <time>2020-08-07T10:04:11Z</time>
      </trkpt>
      <trkpt lat="40.9824560" lon="0.3558500">
        <ele>262.7</ele>
        <time>2020-08-07T10:04:13Z</time>
      </trkpt>
      <trkpt lat="40.9824560" lon="0.3558500">
        <ele>262.7</ele>
        <time>2020-08-07T10:04:15Z</time>
      </trkpt>
      <trkpt lat="40.9824560" lon="0.3558500">
        <ele>262.6</ele>
        <time>2020-08-07T10:04:16Z</time>
      </trkpt>
      <trkpt lat="40.9824560" lon="0.3558500">
        <ele>262.6</ele>
        <time>2020-08-07T10:04:18Z</time>
      </trkpt>
      <trkpt lat="40.9824560" lon="0.3558500">
        <ele>262.6</ele>
        <time>2020-08-07T10:04:20Z</time>
      </trkpt>
      <trkpt lat="40.9824560" lon="0.3558500">
        <ele>262.6</ele>
        <time>2020-08-07T10:04:21Z</time>
      </trkpt>
      <trkpt lat="40.9824560" lon="0.3558500">
        <ele>262.5</ele>
        <time>2020-08-07T10:04:22Z</time>
      </trkpt>
      <trkpt lat="40.9824500" lon="0.3558500">
        <ele>262.5</ele>
        <time>2020-08-07T10:04:23Z</time>
      </trkpt>
      <trkpt lat="40.9824350" lon="0.3558490">
        <ele>262.5</ele>
        <time>2020-08-07T10:04:25Z</time>
      </trkpt>
      <trkpt lat="40.9824080" lon="0.3558340">
        <ele>262.4</ele>
        <time>2020-08-07T10:04:30Z</time>
      </trkpt>
      <trkpt lat="40.9824060" lon="0.3558310">
        <ele>262.4</ele>
        <time>2020-08-07T10:04:31Z</time>
      </trkpt>
      <trkpt lat="40.9824070" lon="0.3558300">
        <ele>262.4</ele>
        <time>2020-08-07T10:04:33Z</time>
      </trkpt>
      <trkpt lat="40.9824090" lon="0.3558300">
        <ele>262.4</ele>
        <time>2020-08-07T10:04:34Z</time>
      </trkpt>
      <trkpt lat="40.9824110" lon="0.3558290">
        <ele>262.3</ele>
        <time>2020-08-07T10:04:35Z</time>
      </trkpt>
      <trkpt lat="40.9824130" lon="0.3558290">
        <ele>262.3</ele>
        <time>2020-08-07T10:04:37Z</time>
      </trkpt>
      <trkpt lat="40.9824140" lon="0.3558290">
        <ele>262.3</ele>
        <time>2020-08-07T10:04:38Z</time>
      </trkpt>
      <trkpt lat="40.9824140" lon="0.3558300">
        <ele>262.3</ele>
        <time>2020-08-07T10:04:39Z</time>
      </trkpt>
      <trkpt lat="40.9824150" lon="0.3558310">
        <ele>262.2</ele>
        <time>2020-08-07T10:04:40Z</time>
      </trkpt>
      <trkpt lat="40.9824150" lon="0.3558320">
        <ele>262.2</ele>
        <time>2020-08-07T10:04:42Z</time>
      </trkpt>
      <trkpt lat="40.9823770" lon="0.3558330">
        <ele>262.1</ele>
        <time>2020-08-07T10:05:09Z</time>
      </trkpt>
      <trkpt lat="40.9823640" lon="0.3558310">
        <ele>262.0</ele>
        <time>2020-08-07T10:05:11Z</time>
      </trkpt>
      <trkpt lat="40.9823620" lon="0.3558320">
        <ele>261.9</ele>
        <time>2020-08-07T10:05:12Z</time>
      </trkpt>
      <trkpt lat="40.9823600" lon="0.3558330">
        <ele>261.9</ele>
        <time>2020-08-07T10:05:13Z</time>
      </trkpt>
      <trkpt lat="40.9823590" lon="0.3558340">
        <ele>261.9</ele>
        <time>2020-08-07T10:05:14Z</time>
      </trkpt>
      <trkpt lat="40.9823570" lon="0.3558360">
        <ele>261.9</ele>
        <time>2020-08-07T10:05:15Z</time>
      </trkpt>
      <trkpt lat="40.9823530" lon="0.3558370">
        <ele>261.8</ele>
        <time>2020-08-07T10:05:17Z</time>
      </trkpt>
      <trkpt lat="40.9823490" lon="0.3558370">
        <ele>261.8</ele>
        <time>2020-08-07T10:05:19Z</time>
      </trkpt>
      <trkpt lat="40.9823460" lon="0.3558370">
        <ele>261.8</ele>
        <time>2020-08-07T10:05:20Z</time>
      </trkpt>
      <trkpt lat="40.9823440" lon="0.3558370">
        <ele>261.7</ele>
        <time>2020-08-07T10:05:21Z</time>
      </trkpt>
      <trkpt lat="40.9823410" lon="0.3558360">
        <ele>261.7</ele>
        <time>2020-08-07T10:05:23Z</time>
      </trkpt>
      <trkpt lat="40.9823390" lon="0.3558350">
        <ele>261.7</ele>
        <time>2020-08-07T10:05:24Z</time>
      </trkpt>
      <trkpt lat="40.9823350" lon="0.3558340">
        <ele>261.7</ele>
        <time>2020-08-07T10:05:25Z</time>
      </trkpt>
      <trkpt lat="40.9823330" lon="0.3558320">
        <ele>261.6</ele>
        <time>2020-08-07T10:05:27Z</time>
      </trkpt>
      <trkpt lat="40.9823310" lon="0.3558300">
        <ele>261.6</ele>
        <time>2020-08-07T10:05:28Z</time>
      </trkpt>
      <trkpt lat="40.9823290" lon="0.3558280">
        <ele>261.5</ele>
        <time>2020-08-07T10:05:29Z</time>
      </trkpt>
      <trkpt lat="40.9823270" lon="0.3558260">
        <ele>261.5</ele>
        <time>2020-08-07T10:05:30Z</time>
      </trkpt>
      <trkpt lat="40.9823240" lon="0.3558220">
        <ele>261.4</ele>
        <time>2020-08-07T10:05:32Z</time>
      </trkpt>
      <trkpt lat="40.9823230" lon="0.3558200">
        <ele>261.4</ele>
        <time>2020-08-07T10:05:33Z</time>
      </trkpt>
      <trkpt lat="40.9823220" lon="0.3558180">
        <ele>261.4</ele>
        <time>2020-08-07T10:05:34Z</time>
      </trkpt>
      <trkpt lat="40.9823210" lon="0.3558160">
        <ele>261.4</ele>
        <time>2020-08-07T10:05:35Z</time>
      </trkpt>
      <trkpt lat="40.9823180" lon="0.3558110">
        <ele>261.3</ele>
        <time>2020-08-07T10:05:37Z</time>
      </trkpt>
      <trkpt lat="40.9823040" lon="0.3558070">
        <ele>261.3</ele>
        <time>2020-08-07T10:05:39Z</time>
      </trkpt>
      <trkpt lat="40.9822940" lon="0.3558050">
        <ele>261.2</ele>
        <time>2020-08-07T10:05:40Z</time>
      </trkpt>
      <trkpt lat="40.9822910" lon="0.3558040">
        <ele>261.2</ele>
        <time>2020-08-07T10:05:41Z</time>
      </trkpt>
      <trkpt lat="40.9822880" lon="0.3558030">
        <ele>261.2</ele>
        <time>2020-08-07T10:05:42Z</time>
      </trkpt>
      <trkpt lat="40.9822810" lon="0.3558040">
        <ele>261.2</ele>
        <time>2020-08-07T10:05:43Z</time>
      </trkpt>
      <trkpt lat="40.9822760" lon="0.3558030">
        <ele>261.2</ele>
        <time>2020-08-07T10:05:45Z</time>
      </trkpt>
      <trkpt lat="40.9822730" lon="0.3558030">
        <ele>261.2</ele>
        <time>2020-08-07T10:05:46Z</time>
      </trkpt>
      <trkpt lat="40.9822680" lon="0.3558030">
        <ele>261.2</ele>
        <time>2020-08-07T10:05:47Z</time>
      </trkpt>
      <trkpt lat="40.9822660" lon="0.3558020">
        <ele>261.2</ele>
        <time>2020-08-07T10:05:48Z</time>
      </trkpt>
      <trkpt lat="40.9822710" lon="0.3557650">
        <ele>261.1</ele>
        <time>2020-08-07T10:05:49Z</time>
      </trkpt>
      <trkpt lat="40.9822790" lon="0.3557310">
        <ele>261.0</ele>
        <time>2020-08-07T10:05:51Z</time>
      </trkpt>
      <trkpt lat="40.9822860" lon="0.3556960">
        <ele>261.0</ele>
        <time>2020-08-07T10:12:54Z</time>
      </trkpt>
      <trkpt lat="40.9822940" lon="0.3556620">
        <ele>260.9</ele>
        <time>2020-08-07T10:12:55Z</time>
      </trkpt>
      <trkpt lat="40.9823020" lon="0.3556270">
        <ele>260.9</ele>
        <time>2020-08-07T10:12:56Z</time>
      </trkpt>
      <trkpt lat="40.9823150" lon="0.3556140">
        <ele>260.9</ele>
        <time>2020-08-07T10:12:57Z</time>
      </trkpt>
      <trkpt lat="40.9823330" lon="0.3555990">
        <ele>260.8</ele>
        <time>2020-08-07T10:12:59Z</time>
      </trkpt>
      <trkpt lat="40.9823570" lon="0.3555640">
        <ele>260.8</ele>
        <time>2020-08-07T10:13:00Z</time>
      </trkpt>
      <trkpt lat="40.9823790" lon="0.3555140">
        <ele>260.7</ele>
        <time>2020-08-07T10:13:02Z</time>
      </trkpt>
      <trkpt lat="40.9823870" lon="0.3554950">
        <ele>260.7</ele>
        <time>2020-08-07T10:13:03Z</time>
      </trkpt>
      <trkpt lat="40.9823940" lon="0.3554760">
        <ele>260.7</ele>
        <time>2020-08-07T10:13:04Z</time>
      </trkpt>
      <trkpt lat="40.9824050" lon="0.3554520">
        <ele>260.7</ele>
        <time>2020-08-07T10:13:05Z</time>
      </trkpt>
      <trkpt lat="40.9824220" lon="0.3554130">
        <ele>260.6</ele>
        <time>2020-08-07T10:13:07Z</time>
      </trkpt>
      <trkpt lat="40.9824410" lon="0.3553720">
        <ele>260.6</ele>
        <time>2020-08-07T10:13:08Z</time>
      </trkpt>
      <trkpt lat="40.9824600" lon="0.3553240">
        <ele>260.6</ele>
        <time>2020-08-07T10:13:09Z</time>
      </trkpt>
      <trkpt lat="40.9824690" lon="0.3553060">
        <ele>260.6</ele>
        <time>2020-08-07T10:13:10Z</time>
      </trkpt>
      <trkpt lat="40.9824890" lon="0.3552760">
        <ele>260.6</ele>
        <time>2020-08-07T10:13:12Z</time>
      </trkpt>
      <trkpt lat="40.9824990" lon="0.3552640">
        <ele>260.6</ele>
        <time>2020-08-07T10:13:13Z</time>
      </trkpt>
      <trkpt lat="40.9825140" lon="0.3552490">
        <ele>260.6</ele>
        <time>2020-08-07T10:13:14Z</time>
      </trkpt>
      <trkpt lat="40.9825370" lon="0.3552270">
        <ele>260.5</ele>
        <time>2020-08-07T10:13:15Z</time>
      </trkpt>
      <trkpt lat="40.9825440" lon="0.3552190">
        <ele>260.5</ele>
        <time>2020-08-07T10:13:16Z</time>
      </trkpt>
      <trkpt lat="40.9825580" lon="0.3552010">
        <ele>260.5</ele>
        <time>2020-08-07T10:13:17Z</time>
      </trkpt>
      <trkpt lat="40.9825790" lon="0.3551570">
        <ele>260.5</ele>
        <time>2020-08-07T10:13:19Z</time>
      </trkpt>
      <trkpt lat="40.9825830" lon="0.3551400">
        <ele>260.5</ele>
        <time>2020-08-07T10:13:20Z</time>
      </trkpt>
      <trkpt lat="40.9825850" lon="0.3551310">
        <ele>260.5</ele>
        <time>2020-08-07T10:13:21Z</time>
      </trkpt>
      <trkpt lat="40.9825910" lon="0.3551210">
        <ele>260.5</ele>
        <time>2020-08-07T10:13:22Z</time>
      </trkpt>
      <trkpt lat="40.9826190" lon="0.3551000">
        <ele>260.5</ele>
        <time>2020-08-07T10:13:24Z</time>
      </trkpt>
      <trkpt lat="40.9826370" lon="0.3550890">
        <ele>260.5</ele>
        <time>2020-08-07T10:13:26Z</time>
      </trkpt>
      <trkpt lat="40.9826490" lon="0.3550850">
        <ele>260.5</ele>
        <time>2020-08-07T10:13:27Z</time>
      </trkpt>
      <trkpt lat="40.9826750" lon="0.3550730">
        <ele>260.4</ele>
        <time>2020-08-07T10:13:29Z</time>
      </trkpt>
      <trkpt lat="40.9826940" lon="0.3550640">
        <ele>260.4</ele>
        <time>2020-08-07T10:13:31Z</time>
      </trkpt>
      <trkpt lat="40.9827200" lon="0.3550500">
        <ele>260.4</ele>
        <time>2020-08-07T10:13:33Z</time>
      </trkpt>
      <trkpt lat="40.9827370" lon="0.3550490">
        <ele>260.4</ele>
        <time>2020-08-07T10:13:35Z</time>
      </trkpt>
      <trkpt lat="40.9827480" lon="0.3550480">
        <ele>260.4</ele>
        <time>2020-08-07T10:13:36Z</time>
      </trkpt>
      <trkpt lat="40.9827610" lon="0.3550280">
        <ele>260.4</ele>
        <time>2020-08-07T10:13:37Z</time>
      </trkpt>
      <trkpt lat="40.9827630" lon="0.3550110">
        <ele>260.4</ele>
        <time>2020-08-07T10:13:39Z</time>
      </trkpt>
      <trkpt lat="40.9827640" lon="0.3549940">
        <ele>260.4</ele>
        <time>2020-08-07T10:13:41Z</time>
      </trkpt>
      <trkpt lat="40.9827660" lon="0.3549770">
        <ele>260.4</ele>
        <time>2020-08-07T10:13:42Z</time>
      </trkpt>
      <trkpt lat="40.9827650" lon="0.3549620">
        <ele>260.4</ele>
        <time>2020-08-07T10:13:43Z</time>
      </trkpt>
      <trkpt lat="40.9827710" lon="0.3549360">
        <ele>260.3</ele>
        <time>2020-08-07T10:13:45Z</time>
      </trkpt>
      <trkpt lat="40.9827770" lon="0.3549320">
        <ele>260.3</ele>
        <time>2020-08-07T10:13:46Z</time>
      </trkpt>
      <trkpt lat="40.9827870" lon="0.3549340">
        <ele>260.3</ele>
        <time>2020-08-07T10:13:48Z</time>
      </trkpt>
      <trkpt lat="40.9827990" lon="0.3549300">
        <ele>260.3</ele>
        <time>2020-08-07T10:13:49Z</time>
      </trkpt>
      <trkpt lat="40.9828210" lon="0.3549280">
        <ele>260.3</ele>
        <time>2020-08-07T10:13:50Z</time>
      </trkpt>
      <trkpt lat="40.9828480" lon="0.3549210">
        <ele>260.0</ele>
        <time>2020-08-07T10:13:52Z</time>
      </trkpt>
      <trkpt lat="40.9828690" lon="0.3549140">
        <ele>260.0</ele>
        <time>2020-08-07T10:13:53Z</time>
      </trkpt>
      <trkpt lat="40.9828900" lon="0.3549080">
        <ele>259.9</ele>
        <time>2020-08-07T10:13:55Z</time>
      </trkpt>
      <trkpt lat="40.9829210" lon="0.3549050">
        <ele>259.7</ele>
        <time>2020-08-07T10:13:56Z</time>
      </trkpt>
      <trkpt lat="40.9829300" lon="0.3549040">
        <ele>259.7</ele>
        <time>2020-08-07T10:13:57Z</time>
      </trkpt>
      <trkpt lat="40.9829600" lon="0.3549070">
        <ele>259.5</ele>
        <time>2020-08-07T10:13:58Z</time>
      </trkpt>
      <trkpt lat="40.9829950" lon="0.3549170">
        <ele>259.3</ele>
        <time>2020-08-07T10:13:59Z</time>
      </trkpt>
      <trkpt lat="40.9830280" lon="0.3549280">
        <ele>259.0</ele>
        <time>2020-08-07T10:14:00Z</time>
      </trkpt>
      <trkpt lat="40.9830640" lon="0.3549320">
        <ele>258.7</ele>
        <time>2020-08-07T10:14:02Z</time>
      </trkpt>
      <trkpt lat="40.9830930" lon="0.3549390">
        <ele>258.5</ele>
        <time>2020-08-07T10:14:04Z</time>
      </trkpt>
      <trkpt lat="40.9831110" lon="0.3549410">
        <ele>258.4</ele>
        <time>2020-08-07T10:14:06Z</time>
      </trkpt>
      <trkpt lat="40.9831130" lon="0.3549410">
        <ele>258.4</ele>
        <time>2020-08-07T10:14:08Z</time>
      </trkpt>
      <trkpt lat="40.9831070" lon="0.3549440">
        <ele>258.3</ele>
        <time>2020-08-07T10:14:10Z</time>
      </trkpt>
      <trkpt lat="40.9831050" lon="0.3549460">
        <ele>258.3</ele>
        <time>2020-08-07T10:14:11Z</time>
      </trkpt>
      <trkpt lat="40.9831020" lon="0.3549470">
        <ele>258.3</ele>
        <time>2020-08-07T10:14:16Z</time>
      </trkpt>
      <trkpt lat="40.9830760" lon="0.3549780">
        <ele>258.0</ele>
        <time>2020-08-07T10:14:25Z</time>
      </trkpt>
      <trkpt lat="40.9830700" lon="0.3549850">
        <ele>257.9</ele>
        <time>2020-08-07T10:14:26Z</time>
      </trkpt>
      <trkpt lat="40.9830560" lon="0.3549880">
        <ele>257.8</ele>
        <time>2020-08-07T10:14:27Z</time>
      </trkpt>
      <trkpt lat="40.9830270" lon="0.3549910">
        <ele>257.6</ele>
        <time>2020-08-07T10:14:29Z</time>
      </trkpt>
      <trkpt lat="40.9830090" lon="0.3549940">
        <ele>257.4</ele>
        <time>2020-08-07T10:14:30Z</time>
      </trkpt>
      <trkpt lat="40.9829990" lon="0.3549960">
        <ele>257.4</ele>
        <time>2020-08-07T10:14:31Z</time>
      </trkpt>
      <trkpt lat="40.9829840" lon="0.3549930">
        <ele>257.3</ele>
        <time>2020-08-07T10:14:32Z</time>
      </trkpt>
      <trkpt lat="40.9829680" lon="0.3549870">
        <ele>257.1</ele>
        <time>2020-08-07T10:14:34Z</time>
      </trkpt>
      <trkpt lat="40.9829580" lon="0.3549880">
        <ele>257.1</ele>
        <time>2020-08-07T10:14:35Z</time>
      </trkpt>
      <trkpt lat="40.9829510" lon="0.3549830">
        <ele>257.0</ele>
        <time>2020-08-07T10:14:37Z</time>
      </trkpt>
      <trkpt lat="40.9829500" lon="0.3549780">
        <ele>257.0</ele>
        <time>2020-08-07T10:14:38Z</time>
      </trkpt>
      <trkpt lat="40.9829480" lon="0.3549730">
        <ele>257.0</ele>
        <time>2020-08-07T10:14:39Z</time>
      </trkpt>
      <trkpt lat="40.9829470" lon="0.3549690">
        <ele>256.9</ele>
        <time>2020-08-07T10:14:40Z</time>
      </trkpt>
      <trkpt lat="40.9829460" lon="0.3549650">
        <ele>256.9</ele>
        <time>2020-08-07T10:14:41Z</time>
      </trkpt>
      <trkpt lat="40.9829490" lon="0.3549590">
        <ele>256.9</ele>
        <time>2020-08-07T10:14:42Z</time>
      </trkpt>
      <trkpt lat="40.9829530" lon="0.3549560">
        <ele>256.8</ele>
        <time>2020-08-07T10:14:43Z</time>
      </trkpt>
      <trkpt lat="40.9829570" lon="0.3549530">
        <ele>256.8</ele>
        <time>2020-08-07T10:14:45Z</time>
      </trkpt>
      <trkpt lat="40.9829610" lon="0.3549500">
        <ele>256.8</ele>
        <time>2020-08-07T10:15:14Z</time>
      </trkpt>
      <trkpt lat="40.9829650" lon="0.3549470">
        <ele>256.7</ele>
        <time>2020-08-07T10:15:15Z</time>
      </trkpt>
      <trkpt lat="40.9829690" lon="0.3549440">
        <ele>256.7</ele>
        <time>2020-08-07T10:15:16Z</time>
      </trkpt>
      <trkpt lat="40.9829730" lon="0.3549410">
        <ele>256.7</ele>
        <time>2020-08-07T10:15:18Z</time>
      </trkpt>
      <trkpt lat="40.9829770" lon="0.3549380">
        <ele>256.6</ele>
        <time>2020-08-07T10:15:20Z</time>
      </trkpt>
      <trkpt lat="40.9829810" lon="0.3549350">
        <ele>256.6</ele>
        <time>2020-08-07T10:15:21Z</time>
      </trkpt>
      <trkpt lat="40.9829850" lon="0.3549320">
        <ele>256.6</ele>
        <time>2020-08-07T10:15:22Z</time>
      </trkpt>
      <trkpt lat="40.9829890" lon="0.3549290">
        <ele>256.5</ele>
        <time>2020-08-07T10:15:23Z</time>
      </trkpt>
      <trkpt lat="40.9829930" lon="0.3549260">
        <ele>256.5</ele>
        <time>2020-08-07T10:15:25Z</time>
      </trkpt>
      <trkpt lat="40.9829970" lon="0.3549230">
        <ele>256.5</ele>
        <time>2020-08-07T10:15:26Z</time>
      </trkpt>
      <trkpt lat="40.9830010" lon="0.3549200">
        <ele>256.4</ele>
        <time>2020-08-07T10:15:57Z</time>
      </trkpt>
      <trkpt lat="40.9830050" lon="0.3549170">
        <ele>256.4</ele>
        <time>2020-08-07T10:15:58Z</time>
      </trkpt>
      <trkpt lat="40.9830090" lon="0.3549140">
        <ele>256.4</ele>
        <time>2020-08-07T10:15:59Z</time>
      </trkpt>
      <trkpt lat="40.9830350" lon="0.3549130">
        <ele>256.2</ele>
        <time>2020-08-07T10:16:00Z</time>
      </trkpt>
      <trkpt lat="40.9830730" lon="0.3549210">
        <ele>255.9</ele>
        <time>2020-08-07T10:16:02Z</time>
      </trkpt>
      <trkpt lat="40.9830960" lon="0.3549100">
        <ele>255.7</ele>
        <time>2020-08-07T10:16:03Z</time>
      </trkpt>
      <trkpt lat="40.9831030" lon="0.3549070">
        <ele>255.7</ele>
        <time>2020-08-07T10:16:04Z</time>
      </trkpt>
      <trkpt lat="40.9831110" lon="0.3549030">
        <ele>255.6</ele>
        <time>2020-08-07T10:16:05Z</time>
      </trkpt>
      <trkpt lat="40.9831250" lon="0.3549010">
        <ele>255.5</ele>
        <time>2020-08-07T10:16:06Z</time>
      </trkpt>
      <trkpt lat="40.9831440" lon="0.3549050">
        <ele>255.4</ele>
        <time>2020-08-07T10:16:07Z</time>
      </trkpt>
      <trkpt lat="40.9831860" lon="0.3549150">
        <ele>255.2</ele>
        <time>2020-08-07T10:16:09Z</time>
      </trkpt>
      <trkpt lat="40.9832010" lon="0.3549160">
        <ele>255.1</ele>
        <time>2020-08-07T10:16:10Z</time>
      </trkpt>
      <trkpt lat="40.9832150" lon="0.3549180">
        <ele>255.0</ele>
        <time>2020-08-07T10:16:11Z</time>
      </trkpt>
      <trkpt lat="40.9832560" lon="0.3549230">
        <ele>254.8</ele>
        <time>2020-08-07T10:16:12Z</time>
      </trkpt>
      <trkpt lat="40.9833050" lon="0.3549320">
        <ele>254.6</ele>
        <time>2020-08-07T10:16:13Z</time>
      </trkpt>
      <trkpt lat="40.9833490" lon="0.3549420">
        <ele>254.5</ele>
        <time>2020-08-07T10:16:15Z</time>
      </trkpt>
      <trkpt lat="40.9833840" lon="0.3549470">
        <ele>254.3</ele>
        <time>2020-08-07T10:16:16Z</time>
      </trkpt>
      <trkpt lat="40.9834290" lon="0.3549520">
        <ele>254.2</ele>
        <time>2020-08-07T10:16:17Z</time>
      </trkpt>
      <trkpt lat="40.9834970" lon="0.3549640">
        <ele>253.9</ele>
        <time>2020-08-07T10:16:19Z</time>
      </trkpt>
      <trkpt lat="40.9835290" lon="0.3549730">
        <ele>253.8</ele>
        <time>2020-08-07T10:16:20Z</time>
      </trkpt>
      <trkpt lat="40.9835950" lon="0.3549940">
        <ele>253.7</ele>
        <time>2020-08-07T10:16:21Z</time>
      </trkpt>
      <trkpt lat="40.9837030" lon="0.3550200">
        <ele>253.5</ele>
        <time>2020-08-07T10:16:23Z</time>
      </trkpt>
      <trkpt lat="40.9837630" lon="0.3550250">
        <ele>253.5</ele>
        <time>2020-08-07T10:16:24Z</time>
      </trkpt>
      <trkpt lat="40.9838260" lon="0.3550190">
        <ele>253.4</ele>
        <time>2020-08-07T10:16:25Z</time>
      </trkpt>
      <trkpt lat="40.9838720" lon="0.3550070">
        <ele>253.4</ele>
        <time>2020-08-07T10:16:27Z</time>
      </trkpt>
      <trkpt lat="40.9839110" lon="0.3550000">
        <ele>253.4</ele>
        <time>2020-08-07T10:16:28Z</time>
      </trkpt>
      <trkpt lat="40.9839400" lon="0.3549950">
        <ele>253.4</ele>
        <time>2020-08-07T10:16:29Z</time>
      </trkpt>
      <trkpt lat="40.9839740" lon="0.3549890">
        <ele>253.4</ele>
        <time>2020-08-07T10:16:30Z</time>
      </trkpt>
      <trkpt lat="40.9839850" lon="0.3549850">
        <ele>253.4</ele>
        <time>2020-08-07T10:16:31Z</time>
      </trkpt>
      <trkpt lat="40.9840180" lon="0.3549840">
        <ele>253.4</ele>
        <time>2020-08-07T10:16:32Z</time>
      </trkpt>
      <trkpt lat="40.9840280" lon="0.3549850">
        <ele>253.4</ele>
        <time>2020-08-07T10:16:33Z</time>
      </trkpt>
      <trkpt lat="40.9840640" lon="0.3549960">
        <ele>253.4</ele>
        <time>2020-08-07T10:16:34Z</time>
      </trkpt>
      <trkpt lat="40.9840990" lon="0.3550140">
        <ele>253.4</ele>
        <time>2020-08-07T10:16:36Z</time>
      </trkpt>
      <trkpt lat="40.9841120" lon="0.3550220">
        <ele>253.5</ele>
        <time>2020-08-07T10:16:37Z</time>
      </trkpt>
      <trkpt lat="40.9841410" lon="0.3550270">
        <ele>253.5</ele>
        <time>2020-08-07T10:16:38Z</time>
      </trkpt>
      <trkpt lat="40.9841890" lon="0.3550190">
        <ele>253.5</ele>
        <time>2020-08-07T10:16:40Z</time>
      </trkpt>
      <trkpt lat="40.9842070" lon="0.3550170">
        <ele>253.5</ele>
        <time>2020-08-07T10:16:42Z</time>
      </trkpt>
      <trkpt lat="40.9842240" lon="0.3550140">
        <ele>253.6</ele>
        <time>2020-08-07T10:16:43Z</time>
      </trkpt>
      <trkpt lat="40.9842420" lon="0.3550110">
        <ele>253.6</ele>
        <time>2020-08-07T10:16:44Z</time>
      </trkpt>
      <trkpt lat="40.9842750" lon="0.3550010">
        <ele>253.6</ele>
        <time>2020-08-07T10:16:46Z</time>
      </trkpt>
      <trkpt lat="40.9843070" lon="0.3549910">
        <ele>253.7</ele>
        <time>2020-08-07T10:16:47Z</time>
      </trkpt>
      <trkpt lat="40.9843370" lon="0.3549830">
        <ele>253.8</ele>
        <time>2020-08-07T10:16:48Z</time>
      </trkpt>
      <trkpt lat="40.9843460" lon="0.3549810">
        <ele>253.8</ele>
        <time>2020-08-07T10:16:49Z</time>
      </trkpt>
      <trkpt lat="40.9843880" lon="0.3549800">
        <ele>253.9</ele>
        <time>2020-08-07T10:16:51Z</time>
      </trkpt>
      <trkpt lat="40.9844090" lon="0.3549810">
        <ele>253.9</ele>
        <time>2020-08-07T10:16:52Z</time>
      </trkpt>
      <trkpt lat="40.9844500" lon="0.3549860">
        <ele>253.9</ele>
        <time>2020-08-07T10:16:54Z</time>
      </trkpt>
      <trkpt lat="40.9844910" lon="0.3549960">
        <ele>254.0</ele>
        <time>2020-08-07T10:16:56Z</time>
      </trkpt>
      <trkpt lat="40.9845100" lon="0.3550020">
        <ele>254.0</ele>
        <time>2020-08-07T10:16:57Z</time>
      </trkpt>
      <trkpt lat="40.9845490" lon="0.3550150">
        <ele>254.0</ele>
        <time>2020-08-07T10:16:59Z</time>
      </trkpt>
      <trkpt lat="40.9845820" lon="0.3550280">
        <ele>254.0</ele>
        <time>2020-08-07T10:17:00Z</time>
      </trkpt>
      <trkpt lat="40.9845910" lon="0.3550330">
        <ele>254.0</ele>
        <time>2020-08-07T10:17:01Z</time>
      </trkpt>
      <trkpt lat="40.9846090" lon="0.3550400">
        <ele>254.0</ele>
        <time>2020-08-07T10:17:02Z</time>
      </trkpt>
      <trkpt lat="40.9846620" lon="0.3550490">
        <ele>254.0</ele>
        <time>2020-08-07T10:17:04Z</time>
      </trkpt>
      <trkpt lat="40.9846980" lon="0.3550610">
        <ele>254.0</ele>
        <time>2020-08-07T10:17:05Z</time>
      </trkpt>
      <trkpt lat="40.9847090" lon="0.3550670">
        <ele>254.0</ele>
        <time>2020-08-07T10:17:06Z</time>
      </trkpt>
      <trkpt lat="40.9847280" lon="0.3550800">
        <ele>254.1</ele>
        <time>2020-08-07T10:17:07Z</time>
      </trkpt>
      <trkpt lat="40.9847640" lon="0.3551080">
        <ele>254.1</ele>
        <time>2020-08-07T10:17:09Z</time>
      </trkpt>
      <trkpt lat="40.9847850" lon="0.3551240">
        <ele>254.1</ele>
        <time>2020-08-07T10:17:10Z</time>
      </trkpt>
      <trkpt lat="40.9848240" lon="0.3551510">
        <ele>254.2</ele>
        <time>2020-08-07T10:17:12Z</time>
      </trkpt>
      <trkpt lat="40.9848530" lon="0.3551730">
        <ele>254.2</ele>
        <time>2020-08-07T10:17:13Z</time>
      </trkpt>
      <trkpt lat="40.9848630" lon="0.3551810">
        <ele>254.2</ele>
        <time>2020-08-07T10:17:14Z</time>
      </trkpt>
      <trkpt lat="40.9848850" lon="0.3551970">
        <ele>254.3</ele>
        <time>2020-08-07T10:17:15Z</time>
      </trkpt>
      <trkpt lat="40.9849230" lon="0.3552220">
        <ele>254.3</ele>
        <time>2020-08-07T10:17:17Z</time>
      </trkpt>
      <trkpt lat="40.9849530" lon="0.3552410">
        <ele>254.4</ele>
        <time>2020-08-07T10:17:18Z</time>
      </trkpt>
      <trkpt lat="40.9849630" lon="0.3552480">
        <ele>254.4</ele>
        <time>2020-08-07T10:17:19Z</time>
      </trkpt>
      <trkpt lat="40.9849940" lon="0.3552680">
        <ele>254.5</ele>
        <time>2020-08-07T10:17:20Z</time>
      </trkpt>
      <trkpt lat="40.9850050" lon="0.3552750">
        <ele>254.5</ele>
        <time>2020-08-07T10:17:21Z</time>
      </trkpt>
      <trkpt lat="40.9850300" lon="0.3552940">
        <ele>254.6</ele>
        <time>2020-08-07T10:17:22Z</time>
      </trkpt>
      <trkpt lat="40.9850380" lon="0.3553010">
        <ele>254.6</ele>
        <time>2020-08-07T10:17:23Z</time>
      </trkpt>
      <trkpt lat="40.9850750" lon="0.3553350">
        <ele>254.7</ele>
        <time>2020-08-07T10:17:25Z</time>
      </trkpt>
      <trkpt lat="40.9851140" lon="0.3553690">
        <ele>254.8</ele>
        <time>2020-08-07T10:17:27Z</time>
      </trkpt>
      <trkpt lat="40.9851470" lon="0.3553910">
        <ele>254.9</ele>
        <time>2020-08-07T10:17:29Z</time>
      </trkpt>
      <trkpt lat="40.9851750" lon="0.3554100">
        <ele>255.0</ele>
        <time>2020-08-07T10:17:30Z</time>
      </trkpt>
      <trkpt lat="40.9851830" lon="0.3554160">
        <ele>255.1</ele>
        <time>2020-08-07T10:17:31Z</time>
      </trkpt>
      <trkpt lat="40.9852170" lon="0.3554370">
        <ele>255.2</ele>
        <time>2020-08-07T10:17:33Z</time>
      </trkpt>
      <trkpt lat="40.9852330" lon="0.3554450">
        <ele>255.2</ele>
        <time>2020-08-07T10:17:34Z</time>
      </trkpt>
      <trkpt lat="40.9852690" lon="0.3554630">
        <ele>255.3</ele>
        <time>2020-08-07T10:17:36Z</time>
      </trkpt>
      <trkpt lat="40.9853030" lon="0.3554850">
        <ele>255.4</ele>
        <time>2020-08-07T10:17:38Z</time>
      </trkpt>
      <trkpt lat="40.9853350" lon="0.3555080">
        <ele>255.9</ele>
        <time>2020-08-07T10:17:40Z</time>
      </trkpt>
      <trkpt lat="40.9853460" lon="0.3555170">
        <ele>256.2</ele>
        <time>2020-08-07T10:17:41Z</time>
      </trkpt>
      <trkpt lat="40.9853630" lon="0.3555310">
        <ele>256.6</ele>
        <time>2020-08-07T10:17:42Z</time>
      </trkpt>
      <trkpt lat="40.9853880" lon="0.3555510">
        <ele>257.2</ele>
        <time>2020-08-07T10:17:43Z</time>
      </trkpt>
      <trkpt lat="40.9853970" lon="0.3555590">
        <ele>257.4</ele>
        <time>2020-08-07T10:17:44Z</time>
      </trkpt>
      <trkpt lat="40.9854140" lon="0.3555720">
        <ele>257.7</ele>
        <time>2020-08-07T10:17:45Z</time>
      </trkpt>
      <trkpt lat="40.9854440" lon="0.3555920">
        <ele>258.2</ele>
        <time>2020-08-07T10:17:47Z</time>
      </trkpt>
      <trkpt lat="40.9854760" lon="0.3556110">
        <ele>258.6</ele>
        <time>2020-08-07T10:17:49Z</time>
      </trkpt>
      <trkpt lat="40.9854920" lon="0.3556200">
        <ele>258.7</ele>
        <time>2020-08-07T10:17:50Z</time>
      </trkpt>
      <trkpt lat="40.9855080" lon="0.3556310">
        <ele>258.9</ele>
        <time>2020-08-07T10:17:51Z</time>
      </trkpt>
      <trkpt lat="40.9855300" lon="0.3556520">
        <ele>259.1</ele>
        <time>2020-08-07T10:17:52Z</time>
      </trkpt>
      <trkpt lat="40.9855370" lon="0.3556600">
        <ele>259.2</ele>
        <time>2020-08-07T10:17:53Z</time>
      </trkpt>
      <trkpt lat="40.9855650" lon="0.3556980">
        <ele>259.4</ele>
        <time>2020-08-07T10:17:55Z</time>
      </trkpt>
      <trkpt lat="40.9855970" lon="0.3557320">
        <ele>259.6</ele>
        <time>2020-08-07T10:17:57Z</time>
      </trkpt>
      <trkpt lat="40.9856270" lon="0.3557560">
        <ele>259.8</ele>
        <time>2020-08-07T10:17:58Z</time>
      </trkpt>
      <trkpt lat="40.9856360" lon="0.3557640">
        <ele>259.8</ele>
        <time>2020-08-07T10:17:59Z</time>
      </trkpt>
      <trkpt lat="40.9856520" lon="0.3557790">
        <ele>259.9</ele>
        <time>2020-08-07T10:18:00Z</time>
      </trkpt>
      <trkpt lat="40.9856900" lon="0.3558110">
        <ele>260.1</ele>
        <time>2020-08-07T10:18:02Z</time>
      </trkpt>
      <trkpt lat="40.9857110" lon="0.3558280">
        <ele>260.2</ele>
        <time>2020-08-07T10:18:03Z</time>
      </trkpt>
      <trkpt lat="40.9857490" lon="0.3558520">
        <ele>260.3</ele>
        <time>2020-08-07T10:18:05Z</time>
      </trkpt>
      <trkpt lat="40.9857790" lon="0.3558710">
        <ele>260.5</ele>
        <time>2020-08-07T10:18:06Z</time>
      </trkpt>
      <trkpt lat="40.9857890" lon="0.3558790">
        <ele>260.5</ele>
        <time>2020-08-07T10:18:07Z</time>
      </trkpt>
      <trkpt lat="40.9858090" lon="0.3558940">
        <ele>260.6</ele>
        <time>2020-08-07T10:18:08Z</time>
      </trkpt>
      <trkpt lat="40.9858500" lon="0.3559250">
        <ele>260.8</ele>
        <time>2020-08-07T10:18:10Z</time>
      </trkpt>
      <trkpt lat="40.9858820" lon="0.3559500">
        <ele>260.9</ele>
        <time>2020-08-07T10:18:11Z</time>
      </trkpt>
      <trkpt lat="40.9858930" lon="0.3559600">
        <ele>261.0</ele>
        <time>2020-08-07T10:18:12Z</time>
      </trkpt>
      <trkpt lat="40.9859310" lon="0.3560020">
        <ele>261.1</ele>
        <time>2020-08-07T10:18:14Z</time>
      </trkpt>
      <trkpt lat="40.9859570" lon="0.3560340">
        <ele>261.2</ele>
        <time>2020-08-07T10:18:15Z</time>
      </trkpt>
      <trkpt lat="40.9859640" lon="0.3560450">
        <ele>261.2</ele>
        <time>2020-08-07T10:18:16Z</time>
      </trkpt>
      <trkpt lat="40.9859990" lon="0.3560920">
        <ele>261.3</ele>
        <time>2020-08-07T10:18:18Z</time>
      </trkpt>
      <trkpt lat="40.9860170" lon="0.3561160">
        <ele>261.3</ele>
        <time>2020-08-07T10:18:19Z</time>
      </trkpt>
      <trkpt lat="40.9860480" lon="0.3561570">
        <ele>261.4</ele>
        <time>2020-08-07T10:18:21Z</time>
      </trkpt>
      <trkpt lat="40.9860680" lon="0.3561830">
        <ele>261.5</ele>
        <time>2020-08-07T10:18:22Z</time>
      </trkpt>
      <trkpt lat="40.9861050" lon="0.3562330">
        <ele>261.6</ele>
        <time>2020-08-07T10:18:24Z</time>
      </trkpt>
      <trkpt lat="40.9861330" lon="0.3562670">
        <ele>261.7</ele>
        <time>2020-08-07T10:18:25Z</time>
      </trkpt>
      <trkpt lat="40.9861410" lon="0.3562780">
        <ele>261.7</ele>
        <time>2020-08-07T10:18:26Z</time>
      </trkpt>
      <trkpt lat="40.9861610" lon="0.3563030">
        <ele>261.8</ele>
        <time>2020-08-07T10:18:27Z</time>
      </trkpt>
      <trkpt lat="40.9861980" lon="0.3563460">
        <ele>261.9</ele>
        <time>2020-08-07T10:18:29Z</time>
      </trkpt>
      <trkpt lat="40.9862160" lon="0.3563660">
        <ele>261.9</ele>
        <time>2020-08-07T10:18:30Z</time>
      </trkpt>
      <trkpt lat="40.9862580" lon="0.3564100">
        <ele>262.1</ele>
        <time>2020-08-07T10:18:32Z</time>
      </trkpt>
      <trkpt lat="40.9862890" lon="0.3564430">
        <ele>262.1</ele>
        <time>2020-08-07T10:18:33Z</time>
      </trkpt>
      <trkpt lat="40.9863000" lon="0.3564550">
        <ele>262.2</ele>
        <time>2020-08-07T10:18:34Z</time>
      </trkpt>
      <trkpt lat="40.9863400" lon="0.3564990">
        <ele>262.3</ele>
        <time>2020-08-07T10:18:36Z</time>
      </trkpt>
      <trkpt lat="40.9863640" lon="0.3565260">
        <ele>262.4</ele>
        <time>2020-08-07T10:18:37Z</time>
      </trkpt>
      <trkpt lat="40.9864050" lon="0.3565750">
        <ele>262.5</ele>
        <time>2020-08-07T10:18:39Z</time>
      </trkpt>
      <trkpt lat="40.9864280" lon="0.3566030">
        <ele>262.5</ele>
        <time>2020-08-07T10:18:40Z</time>
      </trkpt>
      <trkpt lat="40.9864460" lon="0.3566300">
        <ele>262.6</ele>
        <time>2020-08-07T10:18:41Z</time>
      </trkpt>
      <trkpt lat="40.9864680" lon="0.3566630">
        <ele>262.6</ele>
        <time>2020-08-07T10:18:42Z</time>
      </trkpt>
      <trkpt lat="40.9864880" lon="0.3566950">
        <ele>262.7</ele>
        <time>2020-08-07T10:18:43Z</time>
      </trkpt>
      <trkpt lat="40.9865050" lon="0.3567240">
        <ele>262.8</ele>
        <time>2020-08-07T10:18:44Z</time>
      </trkpt>
      <trkpt lat="40.9865390" lon="0.3567890">
        <ele>262.9</ele>
        <time>2020-08-07T10:18:46Z</time>
      </trkpt>
      <trkpt lat="40.9865560" lon="0.3568260">
        <ele>263.0</ele>
        <time>2020-08-07T10:18:47Z</time>
      </trkpt>
      <trkpt lat="40.9865820" lon="0.3568980">
        <ele>263.1</ele>
        <time>2020-08-07T10:18:49Z</time>
      </trkpt>
      <trkpt lat="40.9866070" lon="0.3569630">
        <ele>263.3</ele>
        <time>2020-08-07T10:18:51Z</time>
      </trkpt>
      <trkpt lat="40.9866220" lon="0.3569990">
        <ele>263.4</ele>
        <time>2020-08-07T10:18:52Z</time>
      </trkpt>
      <trkpt lat="40.9866370" lon="0.3570320">
        <ele>263.5</ele>
        <time>2020-08-07T10:18:53Z</time>
      </trkpt>
      <trkpt lat="40.9866670" lon="0.3570920">
        <ele>263.7</ele>
        <time>2020-08-07T10:18:55Z</time>
      </trkpt>
      <trkpt lat="40.9867020" lon="0.3571520">
        <ele>263.9</ele>
        <time>2020-08-07T10:18:57Z</time>
      </trkpt>
      <trkpt lat="40.9867260" lon="0.3571870">
        <ele>264.1</ele>
        <time>2020-08-07T10:18:58Z</time>
      </trkpt>
      <trkpt lat="40.9867340" lon="0.3571980">
        <ele>264.1</ele>
        <time>2020-08-07T10:18:59Z</time>
      </trkpt>
      <trkpt lat="40.9867510" lon="0.3572190">
        <ele>264.2</ele>
        <time>2020-08-07T10:19:00Z</time>
      </trkpt>
      <trkpt lat="40.9867910" lon="0.3572610">
        <ele>264.5</ele>
        <time>2020-08-07T10:19:02Z</time>
      </trkpt>
      <trkpt lat="40.9868120" lon="0.3572840">
        <ele>264.6</ele>
        <time>2020-08-07T10:19:03Z</time>
      </trkpt>
      <trkpt lat="40.9868300" lon="0.3573050">
        <ele>264.7</ele>
        <time>2020-08-07T10:19:04Z</time>
      </trkpt>
      <trkpt lat="40.9868660" lon="0.3573450">
        <ele>264.9</ele>
        <time>2020-08-07T10:19:06Z</time>
      </trkpt>
      <trkpt lat="40.9868810" lon="0.3573620">
        <ele>265.0</ele>
        <time>2020-08-07T10:19:07Z</time>
      </trkpt>
      <trkpt lat="40.9869190" lon="0.3574070">
        <ele>265.2</ele>
        <time>2020-08-07T10:19:09Z</time>
      </trkpt>
      <trkpt lat="40.9869570" lon="0.3574480">
        <ele>265.4</ele>
        <time>2020-08-07T10:19:11Z</time>
      </trkpt>
      <trkpt lat="40.9869860" lon="0.3574780">
        <ele>265.6</ele>
        <time>2020-08-07T10:19:12Z</time>
      </trkpt>
      <trkpt lat="40.9869950" lon="0.3574880">
        <ele>265.6</ele>
        <time>2020-08-07T10:19:13Z</time>
      </trkpt>
      <trkpt lat="40.9870340" lon="0.3575260">
        <ele>265.9</ele>
        <time>2020-08-07T10:19:15Z</time>
      </trkpt>
      <trkpt lat="40.9870530" lon="0.3575430">
        <ele>266.0</ele>
        <time>2020-08-07T10:19:16Z</time>
      </trkpt>
      <trkpt lat="40.9870920" lon="0.3575770">
        <ele>266.2</ele>
        <time>2020-08-07T10:19:18Z</time>
      </trkpt>
      <trkpt lat="40.9871210" lon="0.3576040">
        <ele>266.3</ele>
        <time>2020-08-07T10:19:19Z</time>
      </trkpt>
      <trkpt lat="40.9871320" lon="0.3576150">
        <ele>266.4</ele>
        <time>2020-08-07T10:19:20Z</time>
      </trkpt>
      <trkpt lat="40.9871500" lon="0.3576340">
        <ele>266.4</ele>
        <time>2020-08-07T10:19:21Z</time>
      </trkpt>
      <trkpt lat="40.9871840" lon="0.3576710">
        <ele>266.6</ele>
        <time>2020-08-07T10:19:23Z</time>
      </trkpt>
      <trkpt lat="40.9872240" lon="0.3577060">
        <ele>266.7</ele>
        <time>2020-08-07T10:19:25Z</time>
      </trkpt>
      <trkpt lat="40.9872420" lon="0.3577250">
        <ele>266.8</ele>
        <time>2020-08-07T10:19:26Z</time>
      </trkpt>
      <trkpt lat="40.9872800" lon="0.3577630">
        <ele>266.9</ele>
        <time>2020-08-07T10:19:28Z</time>
      </trkpt>
      <trkpt lat="40.9873180" lon="0.3578060">
        <ele>267.0</ele>
        <time>2020-08-07T10:19:30Z</time>
      </trkpt>
      <trkpt lat="40.9873340" lon="0.3578250">
        <ele>267.1</ele>
        <time>2020-08-07T10:19:31Z</time>
      </trkpt>
      <trkpt lat="40.9873690" lon="0.3578660">
        <ele>267.2</ele>
        <time>2020-08-07T10:19:33Z</time>
      </trkpt>
      <trkpt lat="40.9874060" lon="0.3579100">
        <ele>267.3</ele>
        <time>2020-08-07T10:19:35Z</time>
      </trkpt>
      <trkpt lat="40.9874380" lon="0.3579520">
        <ele>267.4</ele>
        <time>2020-08-07T10:19:37Z</time>
      </trkpt>
      <trkpt lat="40.9874550" lon="0.3579730">
        <ele>267.4</ele>
        <time>2020-08-07T10:19:38Z</time>
      </trkpt>
      <trkpt lat="40.9874930" lon="0.3580200">
        <ele>267.5</ele>
        <time>2020-08-07T10:19:40Z</time>
      </trkpt>
      <trkpt lat="40.9875130" lon="0.3580480">
        <ele>267.5</ele>
        <time>2020-08-07T10:19:41Z</time>
      </trkpt>
      <trkpt lat="40.9875350" lon="0.3580780">
        <ele>267.5</ele>
        <time>2020-08-07T10:19:42Z</time>
      </trkpt>
      <trkpt lat="40.9875510" lon="0.3581010">
        <ele>267.6</ele>
        <time>2020-08-07T10:19:43Z</time>
      </trkpt>
      <trkpt lat="40.9875910" lon="0.3581500">
        <ele>267.6</ele>
        <time>2020-08-07T10:19:45Z</time>
      </trkpt>
      <trkpt lat="40.9876080" lon="0.3581700">
        <ele>267.6</ele>
        <time>2020-08-07T10:19:46Z</time>
      </trkpt>
      <trkpt lat="40.9876410" lon="0.3582120">
        <ele>267.6</ele>
        <time>2020-08-07T10:19:48Z</time>
      </trkpt>
      <trkpt lat="40.9876620" lon="0.3582370">
        <ele>267.6</ele>
        <time>2020-08-07T10:19:49Z</time>
      </trkpt>
      <trkpt lat="40.9876690" lon="0.3582450">
        <ele>267.6</ele>
        <time>2020-08-07T10:19:50Z</time>
      </trkpt>
      <trkpt lat="40.9876720" lon="0.3582460">
        <ele>267.6</ele>
        <time>2020-08-07T10:19:52Z</time>
      </trkpt>
      <trkpt lat="40.9876610" lon="0.3582320">
        <ele>267.5</ele>
        <time>2020-08-07T10:19:54Z</time>
      </trkpt>
      <trkpt lat="40.9876570" lon="0.3582270">
        <ele>267.5</ele>
        <time>2020-08-07T10:19:55Z</time>
      </trkpt>
      <trkpt lat="40.9876550" lon="0.3582220">
        <ele>267.5</ele>
        <time>2020-08-07T10:19:57Z</time>
      </trkpt>
      <trkpt lat="40.9876540" lon="0.3582210">
        <ele>267.5</ele>
        <time>2020-08-07T10:19:58Z</time>
      </trkpt>
      <trkpt lat="40.9876520" lon="0.3582220">
        <ele>267.5</ele>
        <time>2020-08-07T10:19:59Z</time>
      </trkpt>
      <trkpt lat="40.9876510" lon="0.3582210">
        <ele>267.5</ele>
        <time>2020-08-07T10:20:00Z</time>
      </trkpt>
      <trkpt lat="40.9876510" lon="0.3582210">
        <ele>267.5</ele>
        <time>2020-08-07T10:20:02Z</time>
      </trkpt>
      <trkpt lat="40.9876510" lon="0.3582200">
        <ele>267.5</ele>
        <time>2020-08-07T10:20:03Z</time>
      </trkpt>
      <trkpt lat="40.9876510" lon="0.3582200">
        <ele>267.5</ele>
        <time>2020-08-07T10:20:04Z</time>
      </trkpt>
      <trkpt lat="40.9876510" lon="0.3582200">
        <ele>267.5</ele>
        <time>2020-08-07T10:20:06Z</time>
      </trkpt>
      <trkpt lat="40.9876780" lon="0.3582240">
        <ele>267.5</ele>
        <time>2020-08-07T10:21:27Z</time>
      </trkpt>
      <trkpt lat="40.9876830" lon="0.3582130">
        <ele>267.5</ele>
        <time>2020-08-07T10:21:28Z</time>
      </trkpt>
      <trkpt lat="40.9876690" lon="0.3581750">
        <ele>267.5</ele>
        <time>2020-08-07T10:21:30Z</time>
      </trkpt>
      <trkpt lat="40.9876410" lon="0.3581450">
        <ele>267.4</ele>
        <time>2020-08-07T10:21:32Z</time>
      </trkpt>
      <trkpt lat="40.9875960" lon="0.3581020">
        <ele>267.4</ele>
        <time>2020-08-07T10:21:34Z</time>
      </trkpt>
      <trkpt lat="40.9875700" lon="0.3580730">
        <ele>267.3</ele>
        <time>2020-08-07T10:21:35Z</time>
      </trkpt>
      <trkpt lat="40.9875430" lon="0.3580400">
        <ele>267.2</ele>
        <time>2020-08-07T10:21:36Z</time>
      </trkpt>
      <trkpt lat="40.9875160" lon="0.3580030">
        <ele>267.2</ele>
        <time>2020-08-07T10:21:37Z</time>
      </trkpt>
      <trkpt lat="40.9874920" lon="0.3579680">
        <ele>267.1</ele>
        <time>2020-08-07T10:21:38Z</time>
      </trkpt>
      <trkpt lat="40.9874680" lon="0.3579340">
        <ele>267.0</ele>
        <time>2020-08-07T10:21:39Z</time>
      </trkpt>
      <trkpt lat="40.9873980" lon="0.3578500">
        <ele>266.7</ele>
        <time>2020-08-07T10:21:41Z</time>
      </trkpt>
      <trkpt lat="40.9873290" lon="0.3577650">
        <ele>266.5</ele>
        <time>2020-08-07T10:21:43Z</time>
      </trkpt>
      <trkpt lat="40.9872880" lon="0.3577120">
        <ele>266.3</ele>
        <time>2020-08-07T10:21:44Z</time>
      </trkpt>
      <trkpt lat="40.9871960" lon="0.3576160">
        <ele>265.8</ele>
        <time>2020-08-07T10:21:46Z</time>
      </trkpt>
      <trkpt lat="40.9871460" lon="0.3575720">
        <ele>265.6</ele>
        <time>2020-08-07T10:21:47Z</time>
      </trkpt>
      <trkpt lat="40.9870950" lon="0.3575280">
        <ele>265.3</ele>
        <time>2020-08-07T10:21:48Z</time>
      </trkpt>
      <trkpt lat="40.9870430" lon="0.3574790">
        <ele>265.1</ele>
        <time>2020-08-07T10:21:49Z</time>
      </trkpt>
      <trkpt lat="40.9869460" lon="0.3573820">
        <ele>264.6</ele>
        <time>2020-08-07T10:21:51Z</time>
      </trkpt>
      <trkpt lat="40.9868930" lon="0.3573190">
        <ele>264.3</ele>
        <time>2020-08-07T10:21:52Z</time>
      </trkpt>
      <trkpt lat="40.9867930" lon="0.3571980">
        <ele>263.7</ele>
        <time>2020-08-07T10:21:54Z</time>
      </trkpt>
      <trkpt lat="40.9867380" lon="0.3571340">
        <ele>263.4</ele>
        <time>2020-08-07T10:21:55Z</time>
      </trkpt>
      <trkpt lat="40.9866370" lon="0.3569840">
        <ele>263.1</ele>
        <time>2020-08-07T10:21:57Z</time>
      </trkpt>
      <trkpt lat="40.9866020" lon="0.3568970">
        <ele>262.9</ele>
        <time>2020-08-07T10:21:58Z</time>
      </trkpt>
      <trkpt lat="40.9865660" lon="0.3568060">
        <ele>262.7</ele>
        <time>2020-08-07T10:21:59Z</time>
      </trkpt>
      <trkpt lat="40.9864730" lon="0.3566350">
        <ele>262.4</ele>
        <time>2020-08-07T10:22:01Z</time>
      </trkpt>
      <trkpt lat="40.9863640" lon="0.3564880">
        <ele>262.1</ele>
        <time>2020-08-07T10:22:03Z</time>
      </trkpt>
      <trkpt lat="40.9862450" lon="0.3563540">
        <ele>261.8</ele>
        <time>2020-08-07T10:22:05Z</time>
      </trkpt>
      <trkpt lat="40.9861830" lon="0.3562900">
        <ele>261.6</ele>
        <time>2020-08-07T10:22:06Z</time>
      </trkpt>
      <trkpt lat="40.9861250" lon="0.3562220">
        <ele>261.5</ele>
        <time>2020-08-07T10:22:07Z</time>
      </trkpt>
      <trkpt lat="40.9860670" lon="0.3561490">
        <ele>261.3</ele>
        <time>2020-08-07T10:22:08Z</time>
      </trkpt>
      <trkpt lat="40.9860170" lon="0.3560790">
        <ele>261.2</ele>
        <time>2020-08-07T10:22:09Z</time>
      </trkpt>
      <trkpt lat="40.9858970" lon="0.3559350">
        <ele>260.8</ele>
        <time>2020-08-07T10:22:11Z</time>
      </trkpt>
      <trkpt lat="40.9858340" lon="0.3558720">
        <ele>260.5</ele>
        <time>2020-08-07T10:22:12Z</time>
      </trkpt>
      <trkpt lat="40.9857100" lon="0.3557650">
        <ele>260.0</ele>
        <time>2020-08-07T10:22:14Z</time>
      </trkpt>
      <trkpt lat="40.9856540" lon="0.3557210">
        <ele>259.7</ele>
        <time>2020-08-07T10:22:15Z</time>
      </trkpt>
      <trkpt lat="40.9855510" lon="0.3556360">
        <ele>259.1</ele>
        <time>2020-08-07T10:22:17Z</time>
      </trkpt>
      <trkpt lat="40.9855050" lon="0.3555930">
        <ele>258.6</ele>
        <time>2020-08-07T10:22:18Z</time>
      </trkpt>
      <trkpt lat="40.9854610" lon="0.3555560">
        <ele>258.1</ele>
        <time>2020-08-07T10:22:19Z</time>
      </trkpt>
      <trkpt lat="40.9853530" lon="0.3554830">
        <ele>256.0</ele>
        <time>2020-08-07T10:22:21Z</time>
      </trkpt>
      <trkpt lat="40.9852900" lon="0.3554390">
        <ele>255.3</ele>
        <time>2020-08-07T10:22:22Z</time>
      </trkpt>
      <trkpt lat="40.9851520" lon="0.3553600">
        <ele>254.8</ele>
        <time>2020-08-07T10:22:24Z</time>
      </trkpt>
      <trkpt lat="40.9850770" lon="0.3553200">
        <ele>254.6</ele>
        <time>2020-08-07T10:22:25Z</time>
      </trkpt>
      <trkpt lat="40.9849310" lon="0.3552320">
        <ele>254.2</ele>
        <time>2020-08-07T10:22:27Z</time>
      </trkpt>
      <trkpt lat="40.9848620" lon="0.3551930">
        <ele>254.1</ele>
        <time>2020-08-07T10:22:28Z</time>
      </trkpt>
      <trkpt lat="40.9847330" lon="0.3551160">
        <ele>254.0</ele>
        <time>2020-08-07T10:22:30Z</time>
      </trkpt>
      <trkpt lat="40.9846760" lon="0.3550810">
        <ele>254.0</ele>
        <time>2020-08-07T10:22:31Z</time>
      </trkpt>
      <trkpt lat="40.9845630" lon="0.3550280">
        <ele>253.9</ele>
        <time>2020-08-07T10:22:33Z</time>
      </trkpt>
      <trkpt lat="40.9845040" lon="0.3550120">
        <ele>253.9</ele>
        <time>2020-08-07T10:22:34Z</time>
      </trkpt>
      <trkpt lat="40.9844470" lon="0.3550000">
        <ele>253.7</ele>
        <time>2020-08-07T10:22:35Z</time>
      </trkpt>
      <trkpt lat="40.9843370" lon="0.3549900">
        <ele>253.5</ele>
        <time>2020-08-07T10:22:37Z</time>
      </trkpt>
      <trkpt lat="40.9842380" lon="0.3549970">
        <ele>253.4</ele>
        <time>2020-08-07T10:22:39Z</time>
      </trkpt>
      <trkpt lat="40.9841900" lon="0.3550070">
        <ele>253.4</ele>
        <time>2020-08-07T10:22:40Z</time>
      </trkpt>
      <trkpt lat="40.9841400" lon="0.3550200">
        <ele>253.4</ele>
        <time>2020-08-07T10:22:41Z</time>
      </trkpt>
      <trkpt lat="40.9840310" lon="0.3550100">
        <ele>253.4</ele>
        <time>2020-08-07T10:22:43Z</time>
      </trkpt>
      <trkpt lat="40.9839780" lon="0.3550010">
        <ele>253.4</ele>
        <time>2020-08-07T10:22:44Z</time>
      </trkpt>
      <trkpt lat="40.9839290" lon="0.3550010">
        <ele>253.5</ele>
        <time>2020-08-07T10:22:45Z</time>
      </trkpt>
      <trkpt lat="40.9838310" lon="0.3550270">
        <ele>253.6</ele>
        <time>2020-08-07T10:22:47Z</time>
      </trkpt>
      <trkpt lat="40.9837370" lon="0.3550640">
        <ele>253.9</ele>
        <time>2020-08-07T10:22:49Z</time>
      </trkpt>
      <trkpt lat="40.9836900" lon="0.3550760">
        <ele>254.1</ele>
        <time>2020-08-07T10:22:50Z</time>
      </trkpt>
      <trkpt lat="40.9836460" lon="0.3550840">
        <ele>254.2</ele>
        <time>2020-08-07T10:22:51Z</time>
      </trkpt>
      <trkpt lat="40.9835880" lon="0.3550620">
        <ele>254.5</ele>
        <time>2020-08-07T10:22:53Z</time>
      </trkpt>
      <trkpt lat="40.9835510" lon="0.3550380">
        <ele>254.7</ele>
        <time>2020-08-07T10:22:54Z</time>
      </trkpt>
      <trkpt lat="40.9835190" lon="0.3550150">
        <ele>254.8</ele>
        <time>2020-08-07T10:22:55Z</time>
      </trkpt>
      <trkpt lat="40.9834790" lon="0.3549940">
        <ele>255.1</ele>
        <time>2020-08-07T10:22:56Z</time>
      </trkpt>
      <trkpt lat="40.9834050" lon="0.3549790">
        <ele>255.6</ele>
        <time>2020-08-07T10:22:58Z</time>
      </trkpt>
      <trkpt lat="40.9833720" lon="0.3549740">
        <ele>255.9</ele>
        <time>2020-08-07T10:22:59Z</time>
      </trkpt>
      <trkpt lat="40.9832970" lon="0.3549660">
        <ele>256.5</ele>
        <time>2020-08-07T10:23:01Z</time>
      </trkpt>
      <trkpt lat="40.9832400" lon="0.3549530">
        <ele>257.0</ele>
        <time>2020-08-07T10:23:03Z</time>
      </trkpt>
      <trkpt lat="40.9832130" lon="0.3549450">
        <ele>257.2</ele>
        <time>2020-08-07T10:23:04Z</time>
      </trkpt>
      <trkpt lat="40.9831500" lon="0.3549310">
        <ele>257.7</ele>
        <time>2020-08-07T10:23:06Z</time>
      </trkpt>
      <trkpt lat="40.9831180" lon="0.3549260">
        <ele>258.0</ele>
        <time>2020-08-07T10:23:07Z</time>
      </trkpt>
      <trkpt lat="40.9830820" lon="0.3549250">
        <ele>258.3</ele>
        <time>2020-08-07T10:23:08Z</time>
      </trkpt>
      <trkpt lat="40.9830190" lon="0.3549310">
        <ele>258.9</ele>
        <time>2020-08-07T10:23:10Z</time>
      </trkpt>
      <trkpt lat="40.9829900" lon="0.3549350">
        <ele>259.2</ele>
        <time>2020-08-07T10:23:11Z</time>
      </trkpt>
      <trkpt lat="40.9829560" lon="0.3549370">
        <ele>259.4</ele>
        <time>2020-08-07T10:23:12Z</time>
      </trkpt>
      <trkpt lat="40.9829240" lon="0.3549340">
        <ele>259.6</ele>
        <time>2020-08-07T10:23:13Z</time>
      </trkpt>
      <trkpt lat="40.9828670" lon="0.3549260">
        <ele>260.0</ele>
        <time>2020-08-07T10:23:15Z</time>
      </trkpt>
      <trkpt lat="40.9828160" lon="0.3549330">
        <ele>260.2</ele>
        <time>2020-08-07T10:23:17Z</time>
      </trkpt>
      <trkpt lat="40.9827800" lon="0.3549500">
        <ele>260.3</ele>
        <time>2020-08-07T10:23:19Z</time>
      </trkpt>
      <trkpt lat="40.9827560" lon="0.3549670">
        <ele>260.4</ele>
        <time>2020-08-07T10:23:20Z</time>
      </trkpt>
      <trkpt lat="40.9827470" lon="0.3549730">
        <ele>260.4</ele>
        <time>2020-08-07T10:23:21Z</time>
      </trkpt>
      <trkpt lat="40.9827040" lon="0.3550090">
        <ele>260.5</ele>
        <time>2020-08-07T10:23:23Z</time>
      </trkpt>
      <trkpt lat="40.9826720" lon="0.3550330">
        <ele>260.5</ele>
        <time>2020-08-07T10:23:24Z</time>
      </trkpt>
      <trkpt lat="40.9826370" lon="0.3550530">
        <ele>260.6</ele>
        <time>2020-08-07T10:23:25Z</time>
      </trkpt>
      <trkpt lat="40.9825620" lon="0.3550920">
        <ele>260.7</ele>
        <time>2020-08-07T10:23:27Z</time>
      </trkpt>
      <trkpt lat="40.9825250" lon="0.3551140">
        <ele>260.8</ele>
        <time>2020-08-07T10:23:28Z</time>
      </trkpt>
      <trkpt lat="40.9825010" lon="0.3551320">
        <ele>261.0</ele>
        <time>2020-08-07T10:23:29Z</time>
      </trkpt>
      <trkpt lat="40.9824680" lon="0.3551650">
        <ele>261.2</ele>
        <time>2020-08-07T10:23:31Z</time>
      </trkpt>
      <trkpt lat="40.9824450" lon="0.3552010">
        <ele>261.4</ele>
        <time>2020-08-07T10:23:33Z</time>
      </trkpt>
      <trkpt lat="40.9824340" lon="0.3552190">
        <ele>261.5</ele>
        <time>2020-08-07T10:23:34Z</time>
      </trkpt>
      <trkpt lat="40.9824100" lon="0.3552630">
        <ele>261.8</ele>
        <time>2020-08-07T10:23:36Z</time>
      </trkpt>
      <trkpt lat="40.9823870" lon="0.3553030">
        <ele>262.0</ele>
        <time>2020-08-07T10:23:38Z</time>
      </trkpt>
      <trkpt lat="40.9823730" lon="0.3553350">
        <ele>262.2</ele>
        <time>2020-08-07T10:23:39Z</time>
      </trkpt>
      <trkpt lat="40.9823680" lon="0.3553460">
        <ele>262.3</ele>
        <time>2020-08-07T10:23:40Z</time>
      </trkpt>
      <trkpt lat="40.9823520" lon="0.3553910">
        <ele>262.5</ele>
        <time>2020-08-07T10:23:42Z</time>
      </trkpt>
      <trkpt lat="40.9823320" lon="0.3554460">
        <ele>262.9</ele>
        <time>2020-08-07T10:23:44Z</time>
      </trkpt>
      <trkpt lat="40.9823140" lon="0.3554760">
        <ele>263.1</ele>
        <time>2020-08-07T10:23:45Z</time>
      </trkpt>
      <trkpt lat="40.9823050" lon="0.3554870">
        <ele>263.2</ele>
        <time>2020-08-07T10:23:46Z</time>
      </trkpt>
      <trkpt lat="40.9822720" lon="0.3555270">
        <ele>263.6</ele>
        <time>2020-08-07T10:23:48Z</time>
      </trkpt>
      <trkpt lat="40.9822540" lon="0.3555540">
        <ele>263.8</ele>
        <time>2020-08-07T10:23:49Z</time>
      </trkpt>
      <trkpt lat="40.9822390" lon="0.3555920">
        <ele>264.1</ele>
        <time>2020-08-07T10:23:50Z</time>
      </trkpt>
      <trkpt lat="40.9822350" lon="0.3556050">
        <ele>264.2</ele>
        <time>2020-08-07T10:23:51Z</time>
      </trkpt>
      <trkpt lat="40.9822260" lon="0.3556320">
        <ele>264.2</ele>
        <time>2020-08-07T10:23:52Z</time>
      </trkpt>
      <trkpt lat="40.9822070" lon="0.3556700">
        <ele>264.0</ele>
        <time>2020-08-07T10:23:54Z</time>
      </trkpt>
      <trkpt lat="40.9822010" lon="0.3556820">
        <ele>263.9</ele>
        <time>2020-08-07T10:23:56Z</time>
      </trkpt>
      <trkpt lat="40.9822040" lon="0.3556760">
        <ele>263.9</ele>
        <time>2020-08-07T10:23:58Z</time>
      </trkpt>
      <trkpt lat="40.9822050" lon="0.3556740">
        <ele>263.9</ele>
        <time>2020-08-07T10:23:59Z</time>
      </trkpt>
      <trkpt lat="40.9822050" lon="0.3556730">
        <ele>263.9</ele>
        <time>2020-08-07T10:24:00Z</time>
      </trkpt>
      <trkpt lat="40.9822050" lon="0.3556710">
        <ele>263.8</ele>
        <time>2020-08-07T10:24:01Z</time>
      </trkpt>
      <trkpt lat="40.9822050" lon="0.3556690">
        <ele>263.8</ele>
        <time>2020-08-07T10:24:02Z</time>
      </trkpt>
      <trkpt lat="40.9822070" lon="0.3556640">
        <ele>263.8</ele>
        <time>2020-08-07T10:24:04Z</time>
      </trkpt>
      <trkpt lat="40.9822070" lon="0.3556620">
        <ele>263.8</ele>
        <time>2020-08-07T10:24:05Z</time>
      </trkpt>
      <trkpt lat="40.9822070" lon="0.3556610">
        <ele>263.8</ele>
        <time>2020-08-07T10:24:06Z</time>
      </trkpt>
      <trkpt lat="40.9822400" lon="0.3556280">
        <ele>263.5</ele>
        <time>2020-08-07T10:24:19Z</time>
      </trkpt>
      <trkpt lat="40.9822490" lon="0.3555930">
        <ele>263.3</ele>
        <time>2020-08-07T10:24:20Z</time>
      </trkpt>
      <trkpt lat="40.9822550" lon="0.3555620">
        <ele>263.1</ele>
        <time>2020-08-07T10:24:21Z</time>
      </trkpt>
      <trkpt lat="40.9822700" lon="0.3554970">
        <ele>262.8</ele>
        <time>2020-08-07T10:24:23Z</time>
      </trkpt>
      <trkpt lat="40.9822860" lon="0.3554590">
        <ele>262.6</ele>
        <time>2020-08-07T10:24:24Z</time>
      </trkpt>
      <trkpt lat="40.9822920" lon="0.3554480">
        <ele>262.5</ele>
        <time>2020-08-07T10:24:25Z</time>
      </trkpt>
      <trkpt lat="40.9823400" lon="0.3554030">
        <ele>262.2</ele>
        <time>2020-08-07T10:24:27Z</time>
      </trkpt>
      <trkpt lat="40.9823640" lon="0.3553840">
        <ele>262.0</ele>
        <time>2020-08-07T10:24:28Z</time>
      </trkpt>
      <trkpt lat="40.9823900" lon="0.3553460">
        <ele>261.8</ele>
        <time>2020-08-07T10:24:29Z</time>
      </trkpt>
      <trkpt lat="40.9823970" lon="0.3553300">
        <ele>261.8</ele>
        <time>2020-08-07T10:24:30Z</time>
      </trkpt>
      <trkpt lat="40.9824160" lon="0.3552670">
        <ele>261.5</ele>
        <time>2020-08-07T10:24:32Z</time>
      </trkpt>
      <trkpt lat="40.9824310" lon="0.3552380">
        <ele>261.4</ele>
        <time>2020-08-07T10:24:33Z</time>
      </trkpt>
      <trkpt lat="40.9824650" lon="0.3551850">
        <ele>261.1</ele>
        <time>2020-08-07T10:24:35Z</time>
      </trkpt>
      <trkpt lat="40.9825070" lon="0.3551460">
        <ele>260.9</ele>
        <time>2020-08-07T10:24:37Z</time>
      </trkpt>
      <trkpt lat="40.9825270" lon="0.3551270">
        <ele>260.8</ele>
        <time>2020-08-07T10:24:38Z</time>
      </trkpt>
      <trkpt lat="40.9825600" lon="0.3550900">
        <ele>260.7</ele>
        <time>2020-08-07T10:24:40Z</time>
      </trkpt>
      <trkpt lat="40.9825750" lon="0.3550760">
        <ele>260.7</ele>
        <time>2020-08-07T10:24:41Z</time>
      </trkpt>
      <trkpt lat="40.9825880" lon="0.3550640">
        <ele>260.6</ele>
        <time>2020-08-07T10:24:42Z</time>
      </trkpt>
      <trkpt lat="40.9826130" lon="0.3550460">
        <ele>260.6</ele>
        <time>2020-08-07T10:24:44Z</time>
      </trkpt>
      <trkpt lat="40.9826330" lon="0.3550320">
        <ele>260.6</ele>
        <time>2020-08-07T10:24:46Z</time>
      </trkpt>
      <trkpt lat="40.9826440" lon="0.3550260">
        <ele>260.6</ele>
        <time>2020-08-07T10:24:47Z</time>
      </trkpt>
      <trkpt lat="40.9826630" lon="0.3550180">
        <ele>260.5</ele>
        <time>2020-08-07T10:24:49Z</time>
      </trkpt>
      <trkpt lat="40.9826860" lon="0.3550080">
        <ele>260.5</ele>
        <time>2020-08-07T10:24:51Z</time>
      </trkpt>
      <trkpt lat="40.9826970" lon="0.3550090">
        <ele>260.5</ele>
        <time>2020-08-07T10:24:52Z</time>
      </trkpt>
      <trkpt lat="40.9827080" lon="0.3550120">
        <ele>260.5</ele>
        <time>2020-08-07T10:24:53Z</time>
      </trkpt>
      <trkpt lat="40.9827190" lon="0.3550200">
        <ele>260.5</ele>
        <time>2020-08-07T10:24:54Z</time>
      </trkpt>
      <trkpt lat="40.9827330" lon="0.3550280">
        <ele>260.5</ele>
        <time>2020-08-07T10:24:55Z</time>
      </trkpt>
      <trkpt lat="40.9827480" lon="0.3550310">
        <ele>260.4</ele>
        <time>2020-08-07T10:24:56Z</time>
      </trkpt>
      <trkpt lat="40.9827760" lon="0.3550090">
        <ele>260.3</ele>
        <time>2020-08-07T10:24:58Z</time>
      </trkpt>
      <trkpt lat="40.9827840" lon="0.3549960">
        <ele>260.3</ele>
        <time>2020-08-07T10:24:59Z</time>
      </trkpt>
      <trkpt lat="40.9827800" lon="0.3549630">
        <ele>260.2</ele>
        <time>2020-08-07T10:25:01Z</time>
      </trkpt>
      <trkpt lat="40.9827750" lon="0.3549450">
        <ele>260.1</ele>
        <time>2020-08-07T10:25:02Z</time>
      </trkpt>
      <trkpt lat="40.9827690" lon="0.3549290">
        <ele>260.0</ele>
        <time>2020-08-07T10:25:03Z</time>
      </trkpt>
      <trkpt lat="40.9827650" lon="0.3549110">
        <ele>260.0</ele>
        <time>2020-08-07T10:25:05Z</time>
      </trkpt>
      <trkpt lat="40.9827740" lon="0.3549010">
        <ele>259.9</ele>
        <time>2020-08-07T10:25:07Z</time>
      </trkpt>
      <trkpt lat="40.9827860" lon="0.3549080">
        <ele>259.9</ele>
        <time>2020-08-07T10:25:08Z</time>
      </trkpt>
      <trkpt lat="40.9827950" lon="0.3549120">
        <ele>259.8</ele>
        <time>2020-08-07T10:25:09Z</time>
      </trkpt>
      <trkpt lat="40.9828080" lon="0.3549170">
        <ele>259.7</ele>
        <time>2020-08-07T10:25:10Z</time>
      </trkpt>
      <trkpt lat="40.9828140" lon="0.3549160">
        <ele>259.7</ele>
        <time>2020-08-07T10:25:11Z</time>
      </trkpt>
      <trkpt lat="40.9828210" lon="0.3549160">
        <ele>259.7</ele>
        <time>2020-08-07T10:25:12Z</time>
      </trkpt>
      <trkpt lat="40.9828270" lon="0.3549150">
        <ele>259.6</ele>
        <time>2020-08-07T10:25:14Z</time>
      </trkpt>
      <trkpt lat="40.9828330" lon="0.3549150">
        <ele>259.6</ele>
        <time>2020-08-07T10:25:15Z</time>
      </trkpt>
      <trkpt lat="40.9828590" lon="0.3549130">
        <ele>259.4</ele>
        <time>2020-08-07T10:25:16Z</time>
      </trkpt>
      <trkpt lat="40.9828880" lon="0.3549170">
        <ele>259.2</ele>
        <time>2020-08-07T10:25:18Z</time>
      </trkpt>
      <trkpt lat="40.9829300" lon="0.3549260">
        <ele>258.9</ele>
        <time>2020-08-07T10:25:19Z</time>
      </trkpt>
      <trkpt lat="40.9829450" lon="0.3549270">
        <ele>258.8</ele>
        <time>2020-08-07T10:25:20Z</time>
      </trkpt>
      <trkpt lat="40.9829750" lon="0.3549240">
        <ele>258.5</ele>
        <time>2020-08-07T10:25:21Z</time>
      </trkpt>
      <trkpt lat="40.9831340" lon="0.3549300">
        <ele>257.2</ele>
        <time>2020-08-07T10:25:23Z</time>
      </trkpt>
      <trkpt lat="40.9832020" lon="0.3549390">
        <ele>256.7</ele>
        <time>2020-08-07T10:25:24Z</time>
      </trkpt>
      <trkpt lat="40.9832660" lon="0.3549600">
        <ele>256.1</ele>
        <time>2020-08-07T10:25:25Z</time>
      </trkpt>
      <trkpt lat="40.9833870" lon="0.3550010">
        <ele>255.2</ele>
        <time>2020-08-07T10:25:27Z</time>
      </trkpt>
      <trkpt lat="40.9834440" lon="0.3550180">
        <ele>254.9</ele>
        <time>2020-08-07T10:25:28Z</time>
      </trkpt>
      <trkpt lat="40.9835560" lon="0.3550460">
        <ele>254.4</ele>
        <time>2020-08-07T10:25:30Z</time>
      </trkpt>
      <trkpt lat="40.9836580" lon="0.3550890">
        <ele>254.0</ele>
        <time>2020-08-07T10:25:32Z</time>
      </trkpt>
      <trkpt lat="40.9837140" lon="0.3551010">
        <ele>253.8</ele>
        <time>2020-08-07T10:25:33Z</time>
      </trkpt>
      <trkpt lat="40.9837650" lon="0.3550780">
        <ele>253.7</ele>
        <time>2020-08-07T10:25:34Z</time>
      </trkpt>
      <trkpt lat="40.9838570" lon="0.3550240">
        <ele>253.5</ele>
        <time>2020-08-07T10:25:36Z</time>
      </trkpt>
      <trkpt lat="40.9839050" lon="0.3550170">
        <ele>253.5</ele>
        <time>2020-08-07T10:25:37Z</time>
      </trkpt>
      <trkpt lat="40.9839530" lon="0.3550140">
        <ele>253.4</ele>
        <time>2020-08-07T10:25:38Z</time>
      </trkpt>
      <trkpt lat="40.9840010" lon="0.3550070">
        <ele>253.4</ele>
        <time>2020-08-07T10:25:39Z</time>
      </trkpt>
      <trkpt lat="40.9840460" lon="0.3550120">
        <ele>253.4</ele>
        <time>2020-08-07T10:25:40Z</time>
      </trkpt>
      <trkpt lat="40.9841370" lon="0.3550330">
        <ele>253.4</ele>
        <time>2020-08-07T10:25:42Z</time>
      </trkpt>
      <trkpt lat="40.9841730" lon="0.3550340">
        <ele>253.4</ele>
        <time>2020-08-07T10:25:43Z</time>
      </trkpt>
      <trkpt lat="40.9842290" lon="0.3550160">
        <ele>253.4</ele>
        <time>2020-08-07T10:25:45Z</time>
      </trkpt>
      <trkpt lat="40.9842590" lon="0.3550090">
        <ele>253.5</ele>
        <time>2020-08-07T10:25:46Z</time>
      </trkpt>
      <trkpt lat="40.9843060" lon="0.3549960">
        <ele>253.5</ele>
        <time>2020-08-07T10:25:48Z</time>
      </trkpt>
      <trkpt lat="40.9843230" lon="0.3549490">
        <ele>253.6</ele>
        <time>2020-08-07T10:25:50Z</time>
      </trkpt>
      <trkpt lat="40.9843380" lon="0.3549440">
        <ele>253.6</ele>
        <time>2020-08-07T10:25:51Z</time>
      </trkpt>
      <trkpt lat="40.9843520" lon="0.3549390">
        <ele>253.6</ele>
        <time>2020-08-07T10:25:52Z</time>
      </trkpt>
      <trkpt lat="40.9843920" lon="0.3549600">
        <ele>253.7</ele>
        <time>2020-08-07T10:25:54Z</time>
      </trkpt>
      <trkpt lat="40.9844200" lon="0.3549870">
        <ele>253.8</ele>
        <time>2020-08-07T10:25:55Z</time>
      </trkpt>
      <trkpt lat="40.9844510" lon="0.3550080">
        <ele>253.8</ele>
        <time>2020-08-07T10:25:57Z</time>
      </trkpt>
      <trkpt lat="40.9844620" lon="0.3550160">
        <ele>253.9</ele>
        <time>2020-08-07T10:25:58Z</time>
      </trkpt>
      <trkpt lat="40.9845120" lon="0.3550270">
        <ele>253.9</ele>
        <time>2020-08-07T10:25:59Z</time>
      </trkpt>
      <trkpt lat="40.9845630" lon="0.3550330">
        <ele>254.0</ele>
        <time>2020-08-07T10:26:00Z</time>
      </trkpt>
      <trkpt lat="40.9846240" lon="0.3550470">
        <ele>254.0</ele>
        <time>2020-08-07T10:26:01Z</time>
      </trkpt>
      <trkpt lat="40.9846640" lon="0.3550590">
        <ele>254.0</ele>
        <time>2020-08-07T10:26:03Z</time>
      </trkpt>
      <trkpt lat="40.9847060" lon="0.3550770">
        <ele>254.0</ele>
        <time>2020-08-07T10:26:04Z</time>
      </trkpt>
      <trkpt lat="40.9847540" lon="0.3550980">
        <ele>254.0</ele>
        <time>2020-08-07T10:26:05Z</time>
      </trkpt>
      <trkpt lat="40.9847830" lon="0.3551150">
        <ele>254.1</ele>
        <time>2020-08-07T10:26:07Z</time>
      </trkpt>
      <trkpt lat="40.9848140" lon="0.3551410">
        <ele>254.1</ele>
        <time>2020-08-07T10:26:08Z</time>
      </trkpt>
      <trkpt lat="40.9848380" lon="0.3551600">
        <ele>254.1</ele>
        <time>2020-08-07T10:26:09Z</time>
      </trkpt>
      <trkpt lat="40.9848830" lon="0.3551960">
        <ele>254.2</ele>
        <time>2020-08-07T10:26:11Z</time>
      </trkpt>
      <trkpt lat="40.9849050" lon="0.3552170">
        <ele>254.2</ele>
        <time>2020-08-07T10:26:12Z</time>
      </trkpt>
      <trkpt lat="40.9849310" lon="0.3552340">
        <ele>254.3</ele>
        <time>2020-08-07T10:26:13Z</time>
      </trkpt>
      <trkpt lat="40.9849700" lon="0.3552620">
        <ele>254.4</ele>
        <time>2020-08-07T10:26:14Z</time>
      </trkpt>
      <trkpt lat="40.9850020" lon="0.3552830">
        <ele>254.4</ele>
        <time>2020-08-07T10:26:16Z</time>
      </trkpt>
      <trkpt lat="40.9850310" lon="0.3553050">
        <ele>254.5</ele>
        <time>2020-08-07T10:26:17Z</time>
      </trkpt>
      <trkpt lat="40.9850690" lon="0.3553300">
        <ele>254.6</ele>
        <time>2020-08-07T10:26:18Z</time>
      </trkpt>
      <trkpt lat="40.9851010" lon="0.3553500">
        <ele>254.7</ele>
        <time>2020-08-07T10:26:20Z</time>
      </trkpt>
      <trkpt lat="40.9851280" lon="0.3553660">
        <ele>254.8</ele>
        <time>2020-08-07T10:26:21Z</time>
      </trkpt>
      <trkpt lat="40.9851520" lon="0.3553840">
        <ele>254.9</ele>
        <time>2020-08-07T10:26:22Z</time>
      </trkpt>
      <trkpt lat="40.9851810" lon="0.3554030">
        <ele>255.0</ele>
        <time>2020-08-07T10:26:23Z</time>
      </trkpt>
      <trkpt lat="40.9851910" lon="0.3554100">
        <ele>255.0</ele>
        <time>2020-08-07T10:26:24Z</time>
      </trkpt>
      <trkpt lat="40.9852110" lon="0.3554200">
        <ele>255.1</ele>
        <time>2020-08-07T10:26:25Z</time>
      </trkpt>
      <trkpt lat="40.9852450" lon="0.3554390">
        <ele>255.2</ele>
        <time>2020-08-07T10:26:27Z</time>
      </trkpt>
      <trkpt lat="40.9852730" lon="0.3554530">
        <ele>255.3</ele>
        <time>2020-08-07T10:26:28Z</time>
      </trkpt>
      <trkpt lat="40.9852980" lon="0.3554690">
        <ele>255.4</ele>
        <time>2020-08-07T10:26:29Z</time>
      </trkpt>
      <trkpt lat="40.9853180" lon="0.3554780">
        <ele>255.5</ele>
        <time>2020-08-07T10:26:30Z</time>
      </trkpt>
      <trkpt lat="40.9853400" lon="0.3554930">
        <ele>255.8</ele>
        <time>2020-08-07T10:26:32Z</time>
      </trkpt>
      <trkpt lat="40.9853640" lon="0.3555120">
        <ele>256.5</ele>
        <time>2020-08-07T10:26:33Z</time>
      </trkpt>
      <trkpt lat="40.9853950" lon="0.3555370">
        <ele>257.2</ele>
        <time>2020-08-07T10:26:35Z</time>
      </trkpt>
      <trkpt lat="40.9854030" lon="0.3555430">
        <ele>257.4</ele>
        <time>2020-08-07T10:26:36Z</time>
      </trkpt>
      <trkpt lat="40.9854290" lon="0.3555630">
        <ele>257.8</ele>
        <time>2020-08-07T10:26:37Z</time>
      </trkpt>
      <trkpt lat="40.9854370" lon="0.3555700">
        <ele>258.0</ele>
        <time>2020-08-07T10:26:38Z</time>
      </trkpt>
      <trkpt lat="40.9854560" lon="0.3555830">
        <ele>258.3</ele>
        <time>2020-08-07T10:26:39Z</time>
      </trkpt>
      <trkpt lat="40.9854760" lon="0.3555940">
        <ele>258.5</ele>
        <time>2020-08-07T10:26:41Z</time>
      </trkpt>
      <trkpt lat="40.9855000" lon="0.3556100">
        <ele>258.7</ele>
        <time>2020-08-07T10:26:42Z</time>
      </trkpt>
      <trkpt lat="40.9855080" lon="0.3556180">
        <ele>258.8</ele>
        <time>2020-08-07T10:26:43Z</time>
      </trkpt>
      <trkpt lat="40.9855190" lon="0.3556340">
        <ele>259.0</ele>
        <time>2020-08-07T10:26:44Z</time>
      </trkpt>
      <trkpt lat="40.9855280" lon="0.3556480">
        <ele>259.1</ele>
        <time>2020-08-07T10:26:45Z</time>
      </trkpt>
      <trkpt lat="40.9855560" lon="0.3556790">
        <ele>259.3</ele>
        <time>2020-08-07T10:26:47Z</time>
      </trkpt>
      <trkpt lat="40.9855860" lon="0.3557110">
        <ele>259.5</ele>
        <time>2020-08-07T10:26:49Z</time>
      </trkpt>
      <trkpt lat="40.9856020" lon="0.3557280">
        <ele>259.6</ele>
        <time>2020-08-07T10:26:50Z</time>
      </trkpt>
      <trkpt lat="40.9856340" lon="0.3557560">
        <ele>259.8</ele>
        <time>2020-08-07T10:26:52Z</time>
      </trkpt>
      <trkpt lat="40.9856550" lon="0.3557700">
        <ele>259.9</ele>
        <time>2020-08-07T10:26:53Z</time>
      </trkpt>
      <trkpt lat="40.9856920" lon="0.3557930">
        <ele>260.0</ele>
        <time>2020-08-07T10:26:55Z</time>
      </trkpt>
      <trkpt lat="40.9857110" lon="0.3558040">
        <ele>260.1</ele>
        <time>2020-08-07T10:26:56Z</time>
      </trkpt>
      <trkpt lat="40.9857480" lon="0.3558320">
        <ele>260.3</ele>
        <time>2020-08-07T10:26:58Z</time>
      </trkpt>
      <trkpt lat="40.9857640" lon="0.3558450">
        <ele>260.3</ele>
        <time>2020-08-07T10:26:59Z</time>
      </trkpt>
      <trkpt lat="40.9858030" lon="0.3558730">
        <ele>260.5</ele>
        <time>2020-08-07T10:27:01Z</time>
      </trkpt>
      <trkpt lat="40.9858320" lon="0.3558940">
        <ele>260.7</ele>
        <time>2020-08-07T10:27:02Z</time>
      </trkpt>
      <trkpt lat="40.9858410" lon="0.3559010">
        <ele>260.7</ele>
        <time>2020-08-07T10:27:03Z</time>
      </trkpt>
      <trkpt lat="40.9858770" lon="0.3559310">
        <ele>260.9</ele>
        <time>2020-08-07T10:27:05Z</time>
      </trkpt>
      <trkpt lat="40.9859120" lon="0.3559660">
        <ele>261.0</ele>
        <time>2020-08-07T10:27:07Z</time>
      </trkpt>
      <trkpt lat="40.9859360" lon="0.3559940">
        <ele>261.1</ele>
        <time>2020-08-07T10:27:08Z</time>
      </trkpt>
      <trkpt lat="40.9859440" lon="0.3560040">
        <ele>261.1</ele>
        <time>2020-08-07T10:27:09Z</time>
      </trkpt>
      <trkpt lat="40.9859760" lon="0.3560500">
        <ele>261.2</ele>
        <time>2020-08-07T10:27:11Z</time>
      </trkpt>
      <trkpt lat="40.9860080" lon="0.3561000">
        <ele>261.3</ele>
        <time>2020-08-07T10:27:13Z</time>
      </trkpt>
      <trkpt lat="40.9860220" lon="0.3561240">
        <ele>261.3</ele>
        <time>2020-08-07T10:27:14Z</time>
      </trkpt>
      <trkpt lat="40.9860470" lon="0.3561620">
        <ele>261.4</ele>
        <time>2020-08-07T10:27:16Z</time>
      </trkpt>
      <trkpt lat="40.9860670" lon="0.3561880">
        <ele>261.5</ele>
        <time>2020-08-07T10:27:17Z</time>
      </trkpt>
      <trkpt lat="40.9860950" lon="0.3562260">
        <ele>261.6</ele>
        <time>2020-08-07T10:27:18Z</time>
      </trkpt>
      <trkpt lat="40.9861050" lon="0.3562400">
        <ele>261.6</ele>
        <time>2020-08-07T10:27:19Z</time>
      </trkpt>
      <trkpt lat="40.9861280" lon="0.3562710">
        <ele>261.7</ele>
        <time>2020-08-07T10:27:20Z</time>
      </trkpt>
      <trkpt lat="40.9861510" lon="0.3563020">
        <ele>261.7</ele>
        <time>2020-08-07T10:27:22Z</time>
      </trkpt>
      <trkpt lat="40.9861720" lon="0.3563240">
        <ele>261.8</ele>
        <time>2020-08-07T10:27:23Z</time>
      </trkpt>
      <trkpt lat="40.9861960" lon="0.3563510">
        <ele>261.9</ele>
        <time>2020-08-07T10:27:24Z</time>
      </trkpt>
      <trkpt lat="40.9862190" lon="0.3563780">
        <ele>261.9</ele>
        <time>2020-08-07T10:27:25Z</time>
      </trkpt>
      <trkpt lat="40.9862480" lon="0.3564080">
        <ele>262.0</ele>
        <time>2020-08-07T10:27:27Z</time>
      </trkpt>
      <trkpt lat="40.9862710" lon="0.3564380">
        <ele>262.1</ele>
        <time>2020-08-07T10:27:28Z</time>
      </trkpt>
      <trkpt lat="40.9862950" lon="0.3564640">
        <ele>262.1</ele>
        <time>2020-08-07T10:27:30Z</time>
      </trkpt>
      <trkpt lat="40.9863190" lon="0.3564880">
        <ele>262.2</ele>
        <time>2020-08-07T10:27:31Z</time>
      </trkpt>
      <trkpt lat="40.9863410" lon="0.3565160">
        <ele>262.3</ele>
        <time>2020-08-07T10:27:32Z</time>
      </trkpt>
      <trkpt lat="40.9863630" lon="0.3565410">
        <ele>262.3</ele>
        <time>2020-08-07T10:27:33Z</time>
      </trkpt>
      <trkpt lat="40.9863990" lon="0.3565760">
        <ele>262.4</ele>
        <time>2020-08-07T10:27:34Z</time>
      </trkpt>
      <trkpt lat="40.9864320" lon="0.3566140">
        <ele>262.5</ele>
        <time>2020-08-07T10:27:36Z</time>
      </trkpt>
      <trkpt lat="40.9864580" lon="0.3566540">
        <ele>262.6</ele>
        <time>2020-08-07T10:27:37Z</time>
      </trkpt>
      <trkpt lat="40.9864850" lon="0.3566960">
        <ele>262.7</ele>
        <time>2020-08-07T10:27:39Z</time>
      </trkpt>
      <trkpt lat="40.9865020" lon="0.3567300">
        <ele>262.7</ele>
        <time>2020-08-07T10:27:40Z</time>
      </trkpt>
      <trkpt lat="40.9865160" lon="0.3567640">
        <ele>262.8</ele>
        <time>2020-08-07T10:27:41Z</time>
      </trkpt>
      <trkpt lat="40.9865360" lon="0.3568150">
        <ele>262.9</ele>
        <time>2020-08-07T10:27:42Z</time>
      </trkpt>
      <trkpt lat="40.9865500" lon="0.3568500">
        <ele>263.0</ele>
        <time>2020-08-07T10:27:44Z</time>
      </trkpt>
      <trkpt lat="40.9865690" lon="0.3569000">
        <ele>263.1</ele>
        <time>2020-08-07T10:27:45Z</time>
      </trkpt>
      <trkpt lat="40.9865830" lon="0.3569380">
        <ele>263.2</ele>
        <time>2020-08-07T10:27:46Z</time>
      </trkpt>
      <trkpt lat="40.9865950" lon="0.3569710">
        <ele>263.2</ele>
        <time>2020-08-07T10:27:47Z</time>
      </trkpt>
      <trkpt lat="40.9866190" lon="0.3570300">
        <ele>263.4</ele>
        <time>2020-08-07T10:27:49Z</time>
      </trkpt>
      <trkpt lat="40.9866400" lon="0.3570740">
        <ele>263.5</ele>
        <time>2020-08-07T10:27:50Z</time>
      </trkpt>
      <trkpt lat="40.9866470" lon="0.3570900">
        <ele>263.5</ele>
        <time>2020-08-07T10:27:51Z</time>
      </trkpt>
      <trkpt lat="40.9866670" lon="0.3571250">
        <ele>263.7</ele>
        <time>2020-08-07T10:27:52Z</time>
      </trkpt>
      <trkpt lat="40.9866740" lon="0.3571380">
        <ele>263.7</ele>
        <time>2020-08-07T10:27:53Z</time>
      </trkpt>
      <trkpt lat="40.9866920" lon="0.3571660">
        <ele>263.8</ele>
        <time>2020-08-07T10:27:54Z</time>
      </trkpt>
      <trkpt lat="40.9867290" lon="0.3572100">
        <ele>264.1</ele>
        <time>2020-08-07T10:27:56Z</time>
      </trkpt>
      <trkpt lat="40.9867470" lon="0.3572300">
        <ele>264.2</ele>
        <time>2020-08-07T10:27:57Z</time>
      </trkpt>
      <trkpt lat="40.9867870" lon="0.3572760">
        <ele>264.4</ele>
        <time>2020-08-07T10:27:59Z</time>
      </trkpt>
      <trkpt lat="40.9868160" lon="0.3573060">
        <ele>264.6</ele>
        <time>2020-08-07T10:28:00Z</time>
      </trkpt>
      <trkpt lat="40.9868260" lon="0.3573170">
        <ele>264.6</ele>
        <time>2020-08-07T10:28:01Z</time>
      </trkpt>
      <trkpt lat="40.9868690" lon="0.3573620">
        <ele>264.9</ele>
        <time>2020-08-07T10:28:03Z</time>
      </trkpt>
      <trkpt lat="40.9869120" lon="0.3574070">
        <ele>265.1</ele>
        <time>2020-08-07T10:28:05Z</time>
      </trkpt>
      <trkpt lat="40.9869340" lon="0.3574280">
        <ele>265.2</ele>
        <time>2020-08-07T10:28:06Z</time>
      </trkpt>
      <trkpt lat="40.9869800" lon="0.3574740">
        <ele>265.5</ele>
        <time>2020-08-07T10:28:08Z</time>
      </trkpt>
      <trkpt lat="40.9870030" lon="0.3574970">
        <ele>265.6</ele>
        <time>2020-08-07T10:28:09Z</time>
      </trkpt>
      <trkpt lat="40.9870260" lon="0.3575190">
        <ele>265.7</ele>
        <time>2020-08-07T10:28:10Z</time>
      </trkpt>
      <trkpt lat="40.9870760" lon="0.3575650">
        <ele>266.0</ele>
        <time>2020-08-07T10:28:12Z</time>
      </trkpt>
      <trkpt lat="40.9871010" lon="0.3575870">
        <ele>266.1</ele>
        <time>2020-08-07T10:28:13Z</time>
      </trkpt>
      <trkpt lat="40.9871500" lon="0.3576290">
        <ele>266.4</ele>
        <time>2020-08-07T10:28:15Z</time>
      </trkpt>
      <trkpt lat="40.9871760" lon="0.3576510">
        <ele>266.5</ele>
        <time>2020-08-07T10:28:16Z</time>
      </trkpt>
      <trkpt lat="40.9872160" lon="0.3576870">
        <ele>266.6</ele>
        <time>2020-08-07T10:28:18Z</time>
      </trkpt>
      <trkpt lat="40.9872630" lon="0.3577350">
        <ele>266.8</ele>
        <time>2020-08-07T10:28:20Z</time>
      </trkpt>
      <trkpt lat="40.9872840" lon="0.3577580">
        <ele>266.8</ele>
        <time>2020-08-07T10:28:21Z</time>
      </trkpt>
      <trkpt lat="40.9873280" lon="0.3578090">
        <ele>267.0</ele>
        <time>2020-08-07T10:28:23Z</time>
      </trkpt>
      <trkpt lat="40.9873530" lon="0.3578410">
        <ele>267.1</ele>
        <time>2020-08-07T10:28:24Z</time>
      </trkpt>
      <trkpt lat="40.9873930" lon="0.3579000">
        <ele>267.2</ele>
        <time>2020-08-07T10:28:26Z</time>
      </trkpt>
      <trkpt lat="40.9874130" lon="0.3579300">
        <ele>267.3</ele>
        <time>2020-08-07T10:28:27Z</time>
      </trkpt>
      <trkpt lat="40.9874340" lon="0.3579590">
        <ele>267.4</ele>
        <time>2020-08-07T10:28:28Z</time>
      </trkpt>
      <trkpt lat="40.9874800" lon="0.3580180">
        <ele>267.5</ele>
        <time>2020-08-07T10:28:30Z</time>
      </trkpt>
      <trkpt lat="40.9875050" lon="0.3580510">
        <ele>267.5</ele>
        <time>2020-08-07T10:28:31Z</time>
      </trkpt>
      <trkpt lat="40.9875500" lon="0.3581100">
        <ele>267.5</ele>
        <time>2020-08-07T10:28:33Z</time>
      </trkpt>
      <trkpt lat="40.9875730" lon="0.3581380">
        <ele>267.6</ele>
        <time>2020-08-07T10:28:34Z</time>
      </trkpt>
      <trkpt lat="40.9875990" lon="0.3581700">
        <ele>267.6</ele>
        <time>2020-08-07T10:28:35Z</time>
      </trkpt>
      <trkpt lat="40.9876470" lon="0.3582230">
        <ele>267.6</ele>
        <time>2020-08-07T10:28:37Z</time>
      </trkpt>
      <trkpt lat="40.9876730" lon="0.3582500">
        <ele>267.6</ele>
        <time>2020-08-07T10:28:38Z</time>
      </trkpt>
      <trkpt lat="40.9877000" lon="0.3582770">
        <ele>267.7</ele>
        <time>2020-08-07T10:28:39Z</time>
      </trkpt>
      <trkpt lat="40.9877290" lon="0.3583060">
        <ele>267.7</ele>
        <time>2020-08-07T10:28:40Z</time>
      </trkpt>
      <trkpt lat="40.9877550" lon="0.3583310">
        <ele>267.7</ele>
        <time>2020-08-07T10:28:41Z</time>
      </trkpt>
      <trkpt lat="40.9878080" lon="0.3583820">
        <ele>267.6</ele>
        <time>2020-08-07T10:28:43Z</time>
      </trkpt>
      <trkpt lat="40.9878350" lon="0.3584080">
        <ele>267.6</ele>
        <time>2020-08-07T10:28:44Z</time>
      </trkpt>
      <trkpt lat="40.9878610" lon="0.3584360">
        <ele>267.5</ele>
        <time>2020-08-07T10:28:45Z</time>
      </trkpt>
      <trkpt lat="40.9879170" lon="0.3584970">
        <ele>267.4</ele>
        <time>2020-08-07T10:28:47Z</time>
      </trkpt>
      <trkpt lat="40.9879440" lon="0.3585270">
        <ele>267.4</ele>
        <time>2020-08-07T10:28:48Z</time>
      </trkpt>
      <trkpt lat="40.9879680" lon="0.3585540">
        <ele>267.3</ele>
        <time>2020-08-07T10:28:49Z</time>
      </trkpt>
      <trkpt lat="40.9880140" lon="0.3586120">
        <ele>267.2</ele>
        <time>2020-08-07T10:28:51Z</time>
      </trkpt>
      <trkpt lat="40.9880460" lon="0.3586500">
        <ele>267.2</ele>
        <time>2020-08-07T10:28:52Z</time>
      </trkpt>
      <trkpt lat="40.9880590" lon="0.3586640">
        <ele>267.1</ele>
        <time>2020-08-07T10:28:53Z</time>
      </trkpt>
      <trkpt lat="40.9881120" lon="0.3587140">
        <ele>267.0</ele>
        <time>2020-08-07T10:28:55Z</time>
      </trkpt>
      <trkpt lat="40.9881700" lon="0.3587540">
        <ele>266.8</ele>
        <time>2020-08-07T10:28:57Z</time>
      </trkpt>
      <trkpt lat="40.9882030" lon="0.3587760">
        <ele>266.7</ele>
        <time>2020-08-07T10:28:58Z</time>
      </trkpt>
      <trkpt lat="40.9882820" lon="0.3588310">
        <ele>266.3</ele>
        <time>2020-08-07T10:29:00Z</time>
      </trkpt>
      <trkpt lat="40.9883270" lon="0.3588610">
        <ele>266.1</ele>
        <time>2020-08-07T10:29:01Z</time>
      </trkpt>
      <trkpt lat="40.9883680" lon="0.3588850">
        <ele>265.9</ele>
        <time>2020-08-07T10:29:02Z</time>
      </trkpt>
      <trkpt lat="40.9884620" lon="0.3589370">
        <ele>265.3</ele>
        <time>2020-08-07T10:29:04Z</time>
      </trkpt>
      <trkpt lat="40.9885090" lon="0.3589590">
        <ele>265.1</ele>
        <time>2020-08-07T10:29:05Z</time>
      </trkpt>
      <trkpt lat="40.9885580" lon="0.3589800">
        <ele>264.8</ele>
        <time>2020-08-07T10:29:06Z</time>
      </trkpt>
      <trkpt lat="40.9886100" lon="0.3590050">
        <ele>264.5</ele>
        <time>2020-08-07T10:29:07Z</time>
      </trkpt>
      <trkpt lat="40.9887170" lon="0.3590570">
        <ele>263.9</ele>
        <time>2020-08-07T10:29:09Z</time>
      </trkpt>
      <trkpt lat="40.9888270" lon="0.3591000">
        <ele>263.4</ele>
        <time>2020-08-07T10:29:11Z</time>
      </trkpt>
      <trkpt lat="40.9888810" lon="0.3591140">
        <ele>263.1</ele>
        <time>2020-08-07T10:29:12Z</time>
      </trkpt>
      <trkpt lat="40.9889380" lon="0.3591240">
        <ele>262.8</ele>
        <time>2020-08-07T10:29:13Z</time>
      </trkpt>
      <trkpt lat="40.9890560" lon="0.3591390">
        <ele>262.1</ele>
        <time>2020-08-07T10:29:15Z</time>
      </trkpt>
      <trkpt lat="40.9891130" lon="0.3591450">
        <ele>261.8</ele>
        <time>2020-08-07T10:29:16Z</time>
      </trkpt>
      <trkpt lat="40.9892210" lon="0.3591510">
        <ele>261.1</ele>
        <time>2020-08-07T10:29:18Z</time>
      </trkpt>
      <trkpt lat="40.9892660" lon="0.3591450">
        <ele>260.8</ele>
        <time>2020-08-07T10:29:19Z</time>
      </trkpt>
      <trkpt lat="40.9893060" lon="0.3591420">
        <ele>260.6</ele>
        <time>2020-08-07T10:29:20Z</time>
      </trkpt>
      <trkpt lat="40.9893270" lon="0.3591380">
        <ele>260.5</ele>
        <time>2020-08-07T10:29:21Z</time>
      </trkpt>
      <trkpt lat="40.9893760" lon="0.3591310">
        <ele>260.2</ele>
        <time>2020-08-07T10:29:23Z</time>
      </trkpt>
      <trkpt lat="40.9893970" lon="0.3591230">
        <ele>260.1</ele>
        <time>2020-08-07T10:29:24Z</time>
      </trkpt>
      <trkpt lat="40.9894080" lon="0.3591170">
        <ele>260.1</ele>
        <time>2020-08-07T10:29:25Z</time>
      </trkpt>
      <trkpt lat="40.9894170" lon="0.3591090">
        <ele>260.0</ele>
        <time>2020-08-07T10:29:27Z</time>
      </trkpt>
      <trkpt lat="40.9894150" lon="0.3591040">
        <ele>260.0</ele>
        <time>2020-08-07T10:29:29Z</time>
      </trkpt>
      <trkpt lat="40.9894110" lon="0.3591040">
        <ele>260.0</ele>
        <time>2020-08-07T10:29:30Z</time>
      </trkpt>
      <trkpt lat="40.9894040" lon="0.3591000">
        <ele>260.0</ele>
        <time>2020-08-07T10:29:35Z</time>
      </trkpt>
      <trkpt lat="40.9894050" lon="0.3590970">
        <ele>259.9</ele>
        <time>2020-08-07T10:29:37Z</time>
      </trkpt>
      <trkpt lat="40.9894290" lon="0.3590920">
        <ele>259.8</ele>
        <time>2020-08-07T10:29:46Z</time>
      </trkpt>
      <trkpt lat="40.9894510" lon="0.3590570">
        <ele>259.7</ele>
        <time>2020-08-07T10:29:48Z</time>
      </trkpt>
      <trkpt lat="40.9894690" lon="0.3590370">
        <ele>259.5</ele>
        <time>2020-08-07T10:29:49Z</time>
      </trkpt>
      <trkpt lat="40.9895180" lon="0.3590000">
        <ele>259.2</ele>
        <time>2020-08-07T10:29:51Z</time>
      </trkpt>
      <trkpt lat="40.9895500" lon="0.3589850">
        <ele>259.1</ele>
        <time>2020-08-07T10:29:52Z</time>
      </trkpt>
      <trkpt lat="40.9896250" lon="0.3589810">
        <ele>258.6</ele>
        <time>2020-08-07T10:29:54Z</time>
      </trkpt>
      <trkpt lat="40.9896630" lon="0.3589950">
        <ele>258.4</ele>
        <time>2020-08-07T10:29:55Z</time>
      </trkpt>
      <trkpt lat="40.9897490" lon="0.3590580">
        <ele>257.6</ele>
        <time>2020-08-07T10:29:57Z</time>
      </trkpt>
      <trkpt lat="40.9897870" lon="0.3590910">
        <ele>257.2</ele>
        <time>2020-08-07T10:29:58Z</time>
      </trkpt>
      <trkpt lat="40.9898350" lon="0.3591210">
        <ele>256.7</ele>
        <time>2020-08-07T10:29:59Z</time>
      </trkpt>
      <trkpt lat="40.9899100" lon="0.3591640">
        <ele>256.1</ele>
        <time>2020-08-07T10:30:01Z</time>
      </trkpt>
      <trkpt lat="40.9899950" lon="0.3592060">
        <ele>255.4</ele>
        <time>2020-08-07T10:30:03Z</time>
      </trkpt>
      <trkpt lat="40.9900960" lon="0.3592500">
        <ele>254.7</ele>
        <time>2020-08-07T10:30:05Z</time>
      </trkpt>
      <trkpt lat="40.9901480" lon="0.3592720">
        <ele>254.4</ele>
        <time>2020-08-07T10:30:06Z</time>
      </trkpt>
      <trkpt lat="40.9902490" lon="0.3593260">
        <ele>254.0</ele>
        <time>2020-08-07T10:30:08Z</time>
      </trkpt>
      <trkpt lat="40.9902980" lon="0.3593420">
        <ele>253.8</ele>
        <time>2020-08-07T10:30:09Z</time>
      </trkpt>
      <trkpt lat="40.9903450" lon="0.3593520">
        <ele>253.6</ele>
        <time>2020-08-07T10:30:10Z</time>
      </trkpt>
      <trkpt lat="40.9903780" lon="0.3593580">
        <ele>253.5</ele>
        <time>2020-08-07T10:30:11Z</time>
      </trkpt>
      <trkpt lat="40.9904470" lon="0.3593730">
        <ele>253.3</ele>
        <time>2020-08-07T10:30:13Z</time>
      </trkpt>
      <trkpt lat="40.9905210" lon="0.3593900">
        <ele>253.2</ele>
        <time>2020-08-07T10:30:15Z</time>
      </trkpt>
      <trkpt lat="40.9905580" lon="0.3593940">
        <ele>253.1</ele>
        <time>2020-08-07T10:30:16Z</time>
      </trkpt>
      <trkpt lat="40.9905970" lon="0.3593940">
        <ele>253.1</ele>
        <time>2020-08-07T10:30:17Z</time>
      </trkpt>
      <trkpt lat="40.9906270" lon="0.3593910">
        <ele>253.0</ele>
        <time>2020-08-07T10:30:18Z</time>
      </trkpt>
      <trkpt lat="40.9906550" lon="0.3593900">
        <ele>253.0</ele>
        <time>2020-08-07T10:30:19Z</time>
      </trkpt>
      <trkpt lat="40.9907240" lon="0.3593830">
        <ele>252.9</ele>
        <time>2020-08-07T10:30:21Z</time>
      </trkpt>
      <trkpt lat="40.9907970" lon="0.3593720">
        <ele>252.8</ele>
        <time>2020-08-07T10:30:23Z</time>
      </trkpt>
      <trkpt lat="40.9908270" lon="0.3593650">
        <ele>252.7</ele>
        <time>2020-08-07T10:30:24Z</time>
      </trkpt>
      <trkpt lat="40.9908610" lon="0.3593580">
        <ele>252.7</ele>
        <time>2020-08-07T10:30:25Z</time>
      </trkpt>
      <trkpt lat="40.9909190" lon="0.3593490">
        <ele>252.6</ele>
        <time>2020-08-07T10:30:27Z</time>
      </trkpt>
      <trkpt lat="40.9909710" lon="0.3593500">
        <ele>252.5</ele>
        <time>2020-08-07T10:30:29Z</time>
      </trkpt>
      <trkpt lat="40.9909980" lon="0.3593560">
        <ele>252.4</ele>
        <time>2020-08-07T10:30:31Z</time>
      </trkpt>
      <trkpt lat="40.9909910" lon="0.3593580">
        <ele>252.4</ele>
        <time>2020-08-07T10:30:33Z</time>
      </trkpt>
      <trkpt lat="40.9909850" lon="0.3593570">
        <ele>252.4</ele>
        <time>2020-08-07T10:30:34Z</time>
      </trkpt>
      <trkpt lat="40.9909860" lon="0.3593560">
        <ele>252.4</ele>
        <time>2020-08-07T10:30:36Z</time>
      </trkpt>
      <trkpt lat="40.9909870" lon="0.3593550">
        <ele>252.4</ele>
        <time>2020-08-07T10:30:37Z</time>
      </trkpt>
      <trkpt lat="40.9909870" lon="0.3593550">
        <ele>252.4</ele>
        <time>2020-08-07T10:30:38Z</time>
      </trkpt>
      <trkpt lat="40.9909860" lon="0.3593550">
        <ele>252.4</ele>
        <time>2020-08-07T10:30:39Z</time>
      </trkpt>
      <trkpt lat="40.9909850" lon="0.3593550">
        <ele>252.4</ele>
        <time>2020-08-07T10:30:41Z</time>
      </trkpt>
      <trkpt lat="40.9909830" lon="0.3593560">
        <ele>252.4</ele>
        <time>2020-08-07T10:30:43Z</time>
      </trkpt>
      <trkpt lat="40.9909820" lon="0.3593570">
        <ele>252.4</ele>
        <time>2020-08-07T10:30:44Z</time>
      </trkpt>
      <trkpt lat="40.9910120" lon="0.3593560">
        <ele>252.3</ele>
        <time>2020-08-07T10:31:23Z</time>
      </trkpt>
      <trkpt lat="40.9910310" lon="0.3593560">
        <ele>252.3</ele>
        <time>2020-08-07T10:31:24Z</time>
      </trkpt>
      <trkpt lat="40.9910730" lon="0.3593610">
        <ele>252.2</ele>
        <time>2020-08-07T10:31:26Z</time>
      </trkpt>
      <trkpt lat="40.9911120" lon="0.3593660">
        <ele>252.1</ele>
        <time>2020-08-07T10:31:28Z</time>
      </trkpt>
      <trkpt lat="40.9911380" lon="0.3593710">
        <ele>252.1</ele>
        <time>2020-08-07T10:31:29Z</time>
      </trkpt>
      <trkpt lat="40.9911850" lon="0.3593830">
        <ele>251.9</ele>
        <time>2020-08-07T10:31:31Z</time>
      </trkpt>
      <trkpt lat="40.9912200" lon="0.3593930">
        <ele>251.8</ele>
        <time>2020-08-07T10:31:32Z</time>
      </trkpt>
      <trkpt lat="40.9912310" lon="0.3593970">
        <ele>251.8</ele>
        <time>2020-08-07T10:31:33Z</time>
      </trkpt>
      <trkpt lat="40.9912900" lon="0.3594170">
        <ele>251.4</ele>
        <time>2020-08-07T10:31:35Z</time>
      </trkpt>
      <trkpt lat="40.9913140" lon="0.3594250">
        <ele>251.3</ele>
        <time>2020-08-07T10:31:36Z</time>
      </trkpt>
      <trkpt lat="40.9913790" lon="0.3594490">
        <ele>250.8</ele>
        <time>2020-08-07T10:31:38Z</time>
      </trkpt>
      <trkpt lat="40.9914220" lon="0.3594710">
        <ele>250.5</ele>
        <time>2020-08-07T10:31:39Z</time>
      </trkpt>
      <trkpt lat="40.9915310" lon="0.3595260">
        <ele>249.8</ele>
        <time>2020-08-07T10:31:41Z</time>
      </trkpt>
      <trkpt lat="40.9915910" lon="0.3595510">
        <ele>249.6</ele>
        <time>2020-08-07T10:31:42Z</time>
      </trkpt>
      <trkpt lat="40.9917150" lon="0.3595870">
        <ele>249.3</ele>
        <time>2020-08-07T10:31:44Z</time>
      </trkpt>
      <trkpt lat="40.9917710" lon="0.3596140">
        <ele>249.3</ele>
        <time>2020-08-07T10:31:45Z</time>
      </trkpt>
      <trkpt lat="40.9918130" lon="0.3596560">
        <ele>249.4</ele>
        <time>2020-08-07T10:31:46Z</time>
      </trkpt>
      <trkpt lat="40.9918580" lon="0.3597630">
        <ele>249.7</ele>
        <time>2020-08-07T10:31:48Z</time>
      </trkpt>
      <trkpt lat="40.9918700" lon="0.3598410">
        <ele>249.9</ele>
        <time>2020-08-07T10:31:50Z</time>
      </trkpt>
      <trkpt lat="40.9918800" lon="0.3598780">
        <ele>250.0</ele>
        <time>2020-08-07T10:31:51Z</time>
      </trkpt>
      <trkpt lat="40.9918890" lon="0.3599090">
        <ele>250.1</ele>
        <time>2020-08-07T10:31:52Z</time>
      </trkpt>
      <trkpt lat="40.9919050" lon="0.3599710">
        <ele>250.4</ele>
        <time>2020-08-07T10:31:54Z</time>
      </trkpt>
      <trkpt lat="40.9919150" lon="0.3600130">
        <ele>250.5</ele>
        <time>2020-08-07T10:31:55Z</time>
      </trkpt>
      <trkpt lat="40.9919190" lon="0.3600240">
        <ele>250.5</ele>
        <time>2020-08-07T10:31:56Z</time>
      </trkpt>
      <trkpt lat="40.9919480" lon="0.3600800">
        <ele>250.7</ele>
        <time>2020-08-07T10:31:58Z</time>
      </trkpt>
      <trkpt lat="40.9919690" lon="0.3601230">
        <ele>250.8</ele>
        <time>2020-08-07T10:31:59Z</time>
      </trkpt>
      <trkpt lat="40.9919770" lon="0.3601390">
        <ele>250.8</ele>
        <time>2020-08-07T10:32:00Z</time>
      </trkpt>
      <trkpt lat="40.9919920" lon="0.3601670">
        <ele>250.9</ele>
        <time>2020-08-07T10:32:01Z</time>
      </trkpt>
      <trkpt lat="40.9920240" lon="0.3602190">
        <ele>250.9</ele>
        <time>2020-08-07T10:32:03Z</time>
      </trkpt>
      <trkpt lat="40.9920620" lon="0.3602660">
        <ele>250.9</ele>
        <time>2020-08-07T10:32:05Z</time>
      </trkpt>
      <trkpt lat="40.9920950" lon="0.3603020">
        <ele>250.9</ele>
        <time>2020-08-07T10:32:06Z</time>
      </trkpt>
      <trkpt lat="40.9921080" lon="0.3603160">
        <ele>250.8</ele>
        <time>2020-08-07T10:32:07Z</time>
      </trkpt>
      <trkpt lat="40.9921540" lon="0.3603640">
        <ele>250.8</ele>
        <time>2020-08-07T10:32:09Z</time>
      </trkpt>
      <trkpt lat="40.9922040" lon="0.3604150">
        <ele>250.7</ele>
        <time>2020-08-07T10:32:11Z</time>
      </trkpt>
      <trkpt lat="40.9922290" lon="0.3604410">
        <ele>250.7</ele>
        <time>2020-08-07T10:32:12Z</time>
      </trkpt>
      <trkpt lat="40.9922510" lon="0.3604650">
        <ele>250.7</ele>
        <time>2020-08-07T10:32:13Z</time>
      </trkpt>
      <trkpt lat="40.9922770" lon="0.3604960">
        <ele>250.6</ele>
        <time>2020-08-07T10:32:14Z</time>
      </trkpt>
      <trkpt lat="40.9923010" lon="0.3605270">
        <ele>250.7</ele>
        <time>2020-08-07T10:32:15Z</time>
      </trkpt>
      <trkpt lat="40.9923220" lon="0.3605560">
        <ele>251.0</ele>
        <time>2020-08-07T10:32:16Z</time>
      </trkpt>
      <trkpt lat="40.9923670" lon="0.3606150">
        <ele>251.5</ele>
        <time>2020-08-07T10:32:18Z</time>
      </trkpt>
      <trkpt lat="40.9923920" lon="0.3606480">
        <ele>251.6</ele>
        <time>2020-08-07T10:32:19Z</time>
      </trkpt>
      <trkpt lat="40.9924370" lon="0.3607120">
        <ele>251.8</ele>
        <time>2020-08-07T10:32:21Z</time>
      </trkpt>
      <trkpt lat="40.9924760" lon="0.3607760">
        <ele>251.8</ele>
        <time>2020-08-07T10:32:23Z</time>
      </trkpt>
      <trkpt lat="40.9925110" lon="0.3608350">
        <ele>251.9</ele>
        <time>2020-08-07T10:32:25Z</time>
      </trkpt>
      <trkpt lat="40.9925510" lon="0.3609010">
        <ele>251.9</ele>
        <time>2020-08-07T10:32:27Z</time>
      </trkpt>
      <trkpt lat="40.9925880" lon="0.3609740">
        <ele>252.1</ele>
        <time>2020-08-07T10:32:29Z</time>
      </trkpt>
      <trkpt lat="40.9926050" lon="0.3610100">
        <ele>252.1</ele>
        <time>2020-08-07T10:32:30Z</time>
      </trkpt>
      <trkpt lat="40.9926360" lon="0.3610840">
        <ele>252.2</ele>
        <time>2020-08-07T10:32:32Z</time>
      </trkpt>
      <trkpt lat="40.9926600" lon="0.3611600">
        <ele>252.2</ele>
        <time>2020-08-07T10:32:34Z</time>
      </trkpt>
      <trkpt lat="40.9926700" lon="0.3612010">
        <ele>252.2</ele>
        <time>2020-08-07T10:32:35Z</time>
      </trkpt>
      <trkpt lat="40.9926810" lon="0.3612720">
        <ele>252.2</ele>
        <time>2020-08-07T10:32:37Z</time>
      </trkpt>
      <trkpt lat="40.9926810" lon="0.3613580">
        <ele>252.2</ele>
        <time>2020-08-07T10:32:39Z</time>
      </trkpt>
      <trkpt lat="40.9926770" lon="0.3613990">
        <ele>252.2</ele>
        <time>2020-08-07T10:32:40Z</time>
      </trkpt>
      <trkpt lat="40.9926650" lon="0.3614850">
        <ele>252.3</ele>
        <time>2020-08-07T10:32:42Z</time>
      </trkpt>
      <trkpt lat="40.9926550" lon="0.3615760">
        <ele>252.3</ele>
        <time>2020-08-07T10:32:44Z</time>
      </trkpt>
      <trkpt lat="40.9926540" lon="0.3616260">
        <ele>252.3</ele>
        <time>2020-08-07T10:32:45Z</time>
      </trkpt>
      <trkpt lat="40.9926610" lon="0.3617160">
        <ele>252.3</ele>
        <time>2020-08-07T10:32:47Z</time>
      </trkpt>
      <trkpt lat="40.9926700" lon="0.3617630">
        <ele>252.2</ele>
        <time>2020-08-07T10:32:48Z</time>
      </trkpt>
      <trkpt lat="40.9926810" lon="0.3618040">
        <ele>252.2</ele>
        <time>2020-08-07T10:32:49Z</time>
      </trkpt>
      <trkpt lat="40.9927160" lon="0.3618930">
        <ele>252.2</ele>
        <time>2020-08-07T10:32:51Z</time>
      </trkpt>
      <trkpt lat="40.9927540" lon="0.3619630">
        <ele>252.2</ele>
        <time>2020-08-07T10:32:53Z</time>
      </trkpt>
      <trkpt lat="40.9927770" lon="0.3620030">
        <ele>252.2</ele>
        <time>2020-08-07T10:32:54Z</time>
      </trkpt>
      <trkpt lat="40.9928220" lon="0.3620790">
        <ele>252.2</ele>
        <time>2020-08-07T10:32:56Z</time>
      </trkpt>
      <trkpt lat="40.9928410" lon="0.3621130">
        <ele>252.3</ele>
        <time>2020-08-07T10:32:57Z</time>
      </trkpt>
      <trkpt lat="40.9928610" lon="0.3621500">
        <ele>252.3</ele>
        <time>2020-08-07T10:32:58Z</time>
      </trkpt>
      <trkpt lat="40.9928840" lon="0.3621920">
        <ele>252.3</ele>
        <time>2020-08-07T10:32:59Z</time>
      </trkpt>
      <trkpt lat="40.9929250" lon="0.3622690">
        <ele>252.4</ele>
        <time>2020-08-07T10:33:01Z</time>
      </trkpt>
      <trkpt lat="40.9929490" lon="0.3623130">
        <ele>252.4</ele>
        <time>2020-08-07T10:33:02Z</time>
      </trkpt>
      <trkpt lat="40.9929920" lon="0.3623880">
        <ele>252.4</ele>
        <time>2020-08-07T10:33:04Z</time>
      </trkpt>
      <trkpt lat="40.9930120" lon="0.3624210">
        <ele>252.5</ele>
        <time>2020-08-07T10:33:05Z</time>
      </trkpt>
      <trkpt lat="40.9930550" lon="0.3624950">
        <ele>252.5</ele>
        <time>2020-08-07T10:33:07Z</time>
      </trkpt>
      <trkpt lat="40.9930790" lon="0.3625360">
        <ele>252.5</ele>
        <time>2020-08-07T10:33:08Z</time>
      </trkpt>
      <trkpt lat="40.9931000" lon="0.3625720">
        <ele>252.5</ele>
        <time>2020-08-07T10:33:09Z</time>
      </trkpt>
      <trkpt lat="40.9931240" lon="0.3626150">
        <ele>252.4</ele>
        <time>2020-08-07T10:33:10Z</time>
      </trkpt>
      <trkpt lat="40.9931630" lon="0.3626870">
        <ele>252.4</ele>
        <time>2020-08-07T10:33:12Z</time>
      </trkpt>
      <trkpt lat="40.9932030" lon="0.3627630">
        <ele>252.4</ele>
        <time>2020-08-07T10:33:14Z</time>
      </trkpt>
      <trkpt lat="40.9932240" lon="0.3628010">
        <ele>252.4</ele>
        <time>2020-08-07T10:33:15Z</time>
      </trkpt>
      <trkpt lat="40.9932470" lon="0.3628420">
        <ele>252.4</ele>
        <time>2020-08-07T10:33:16Z</time>
      </trkpt>
      <trkpt lat="40.9932710" lon="0.3628850">
        <ele>252.4</ele>
        <time>2020-08-07T10:33:17Z</time>
      </trkpt>
      <trkpt lat="40.9933160" lon="0.3629620">
        <ele>252.4</ele>
        <time>2020-08-07T10:33:19Z</time>
      </trkpt>
      <trkpt lat="40.9933400" lon="0.3630020">
        <ele>252.4</ele>
        <time>2020-08-07T10:33:20Z</time>
      </trkpt>
      <trkpt lat="40.9933850" lon="0.3630830">
        <ele>252.4</ele>
        <time>2020-08-07T10:33:22Z</time>
      </trkpt>
      <trkpt lat="40.9934080" lon="0.3631220">
        <ele>252.3</ele>
        <time>2020-08-07T10:33:23Z</time>
      </trkpt>
      <trkpt lat="40.9934580" lon="0.3632010">
        <ele>252.2</ele>
        <time>2020-08-07T10:33:25Z</time>
      </trkpt>
      <trkpt lat="40.9934920" lon="0.3632480">
        <ele>252.2</ele>
        <time>2020-08-07T10:33:26Z</time>
      </trkpt>
      <trkpt lat="40.9935230" lon="0.3632820">
        <ele>252.2</ele>
        <time>2020-08-07T10:33:27Z</time>
      </trkpt>
      <trkpt lat="40.9935920" lon="0.3633480">
        <ele>252.1</ele>
        <time>2020-08-07T10:33:29Z</time>
      </trkpt>
      <trkpt lat="40.9936560" lon="0.3634060">
        <ele>252.0</ele>
        <time>2020-08-07T10:33:31Z</time>
      </trkpt>
      <trkpt lat="40.9936910" lon="0.3634490">
        <ele>251.9</ele>
        <time>2020-08-07T10:33:32Z</time>
      </trkpt>
      <trkpt lat="40.9937420" lon="0.3635240">
        <ele>251.9</ele>
        <time>2020-08-07T10:33:34Z</time>
      </trkpt>
      <trkpt lat="40.9937700" lon="0.3635710">
        <ele>252.0</ele>
        <time>2020-08-07T10:33:35Z</time>
      </trkpt>
      <trkpt lat="40.9937950" lon="0.3636130">
        <ele>252.0</ele>
        <time>2020-08-07T10:33:36Z</time>
      </trkpt>
      <trkpt lat="40.9938190" lon="0.3636520">
        <ele>252.0</ele>
        <time>2020-08-07T10:33:37Z</time>
      </trkpt>
      <trkpt lat="40.9938670" lon="0.3637400">
        <ele>252.0</ele>
        <time>2020-08-07T10:33:39Z</time>
      </trkpt>
      <trkpt lat="40.9939140" lon="0.3638240">
        <ele>252.0</ele>
        <time>2020-08-07T10:33:41Z</time>
      </trkpt>
      <trkpt lat="40.9939400" lon="0.3638750">
        <ele>252.0</ele>
        <time>2020-08-07T10:33:42Z</time>
      </trkpt>
      <trkpt lat="40.9939880" lon="0.3639730">
        <ele>252.0</ele>
        <time>2020-08-07T10:33:44Z</time>
      </trkpt>
      <trkpt lat="40.9940100" lon="0.3640170">
        <ele>252.0</ele>
        <time>2020-08-07T10:33:45Z</time>
      </trkpt>
      <trkpt lat="40.9941680" lon="0.3642990">
        <ele>252.0</ele>
        <time>2020-08-07T10:33:52Z</time>
      </trkpt>
      <trkpt lat="40.9942110" lon="0.3643710">
        <ele>251.9</ele>
        <time>2020-08-07T10:33:54Z</time>
      </trkpt>
      <trkpt lat="40.9942440" lon="0.3644160">
        <ele>251.9</ele>
        <time>2020-08-07T10:33:55Z</time>
      </trkpt>
      <trkpt lat="40.9942720" lon="0.3644550">
        <ele>251.8</ele>
        <time>2020-08-07T10:33:56Z</time>
      </trkpt>
      <trkpt lat="40.9943050" lon="0.3645000">
        <ele>251.8</ele>
        <time>2020-08-07T10:33:57Z</time>
      </trkpt>
      <trkpt lat="40.9943670" lon="0.3645790">
        <ele>251.7</ele>
        <time>2020-08-07T10:33:59Z</time>
      </trkpt>
      <trkpt lat="40.9943950" lon="0.3646190">
        <ele>251.7</ele>
        <time>2020-08-07T10:34:00Z</time>
      </trkpt>
      <trkpt lat="40.9944540" lon="0.3647030">
        <ele>251.6</ele>
        <time>2020-08-07T10:34:02Z</time>
      </trkpt>
      <trkpt lat="40.9944800" lon="0.3647390">
        <ele>251.5</ele>
        <time>2020-08-07T10:34:03Z</time>
      </trkpt>
      <trkpt lat="40.9945140" lon="0.3647860">
        <ele>251.5</ele>
        <time>2020-08-07T10:34:04Z</time>
      </trkpt>
      <trkpt lat="40.9945840" lon="0.3648820">
        <ele>251.3</ele>
        <time>2020-08-07T10:34:07Z</time>
      </trkpt>
      <trkpt lat="40.9946260" lon="0.3649380">
        <ele>251.3</ele>
        <time>2020-08-07T10:34:08Z</time>
      </trkpt>
      <trkpt lat="40.9946630" lon="0.3649890">
        <ele>251.2</ele>
        <time>2020-08-07T10:34:09Z</time>
      </trkpt>
      <trkpt lat="40.9946980" lon="0.3650350">
        <ele>251.1</ele>
        <time>2020-08-07T10:34:10Z</time>
      </trkpt>
      <trkpt lat="40.9947600" lon="0.3651140">
        <ele>251.0</ele>
        <time>2020-08-07T10:34:12Z</time>
      </trkpt>
      <trkpt lat="40.9947920" lon="0.3651520">
        <ele>251.0</ele>
        <time>2020-08-07T10:34:13Z</time>
      </trkpt>
      <trkpt lat="40.9948590" lon="0.3652270">
        <ele>251.0</ele>
        <time>2020-08-07T10:34:15Z</time>
      </trkpt>
      <trkpt lat="40.9948920" lon="0.3652620">
        <ele>251.0</ele>
        <time>2020-08-07T10:34:16Z</time>
      </trkpt>
      <trkpt lat="40.9949220" lon="0.3652950">
        <ele>251.0</ele>
        <time>2020-08-07T10:34:17Z</time>
      </trkpt>
      <trkpt lat="40.9949940" lon="0.3653680">
        <ele>251.0</ele>
        <time>2020-08-07T10:34:19Z</time>
      </trkpt>
      <trkpt lat="40.9950300" lon="0.3654020">
        <ele>251.0</ele>
        <time>2020-08-07T10:34:20Z</time>
      </trkpt>
      <trkpt lat="40.9950980" lon="0.3654660">
        <ele>250.8</ele>
        <time>2020-08-07T10:34:22Z</time>
      </trkpt>
      <trkpt lat="40.9951770" lon="0.3655340">
        <ele>250.7</ele>
        <time>2020-08-07T10:34:24Z</time>
      </trkpt>
      <trkpt lat="40.9952530" lon="0.3655960">
        <ele>250.7</ele>
        <time>2020-08-07T10:34:26Z</time>
      </trkpt>
      <trkpt lat="40.9952890" lon="0.3656240">
        <ele>250.7</ele>
        <time>2020-08-07T10:34:27Z</time>
      </trkpt>
      <trkpt lat="40.9953280" lon="0.3656550">
        <ele>250.6</ele>
        <time>2020-08-07T10:34:28Z</time>
      </trkpt>
      <trkpt lat="40.9953700" lon="0.3656890">
        <ele>250.6</ele>
        <time>2020-08-07T10:34:29Z</time>
      </trkpt>
      <trkpt lat="40.9954370" lon="0.3657490">
        <ele>250.5</ele>
        <time>2020-08-07T10:34:31Z</time>
      </trkpt>
      <trkpt lat="40.9954760" lon="0.3657890">
        <ele>250.4</ele>
        <time>2020-08-07T10:34:32Z</time>
      </trkpt>
      <trkpt lat="40.9955440" lon="0.3658710">
        <ele>250.3</ele>
        <time>2020-08-07T10:34:34Z</time>
      </trkpt>
      <trkpt lat="40.9955780" lon="0.3659210">
        <ele>250.3</ele>
        <time>2020-08-07T10:34:35Z</time>
      </trkpt>
      <trkpt lat="40.9956300" lon="0.3660190">
        <ele>250.3</ele>
        <time>2020-08-07T10:34:37Z</time>
      </trkpt>
      <trkpt lat="40.9956510" lon="0.3660570">
        <ele>250.3</ele>
        <time>2020-08-07T10:34:38Z</time>
      </trkpt>
      <trkpt lat="40.9957010" lon="0.3661510">
        <ele>250.3</ele>
        <time>2020-08-07T10:34:40Z</time>
      </trkpt>
      <trkpt lat="40.9957230" lon="0.3661960">
        <ele>250.2</ele>
        <time>2020-08-07T10:34:41Z</time>
      </trkpt>
      <trkpt lat="40.9957640" lon="0.3662920">
        <ele>250.1</ele>
        <time>2020-08-07T10:34:43Z</time>
      </trkpt>
      <trkpt lat="40.9958010" lon="0.3663690">
        <ele>249.9</ele>
        <time>2020-08-07T10:34:45Z</time>
      </trkpt>
      <trkpt lat="40.9958210" lon="0.3664090">
        <ele>249.8</ele>
        <time>2020-08-07T10:34:46Z</time>
      </trkpt>
      <trkpt lat="40.9958670" lon="0.3665000">
        <ele>249.4</ele>
        <time>2020-08-07T10:34:48Z</time>
      </trkpt>
      <trkpt lat="40.9958910" lon="0.3665470">
        <ele>249.2</ele>
        <time>2020-08-07T10:34:49Z</time>
      </trkpt>
      <trkpt lat="40.9959330" lon="0.3666250">
        <ele>248.9</ele>
        <time>2020-08-07T10:34:51Z</time>
      </trkpt>
      <trkpt lat="40.9959580" lon="0.3666620">
        <ele>248.7</ele>
        <time>2020-08-07T10:34:52Z</time>
      </trkpt>
      <trkpt lat="40.9959940" lon="0.3666990">
        <ele>248.4</ele>
        <time>2020-08-07T10:34:53Z</time>
      </trkpt>
      <trkpt lat="40.9960920" lon="0.3667600">
        <ele>247.5</ele>
        <time>2020-08-07T10:34:55Z</time>
      </trkpt>
      <trkpt lat="40.9961280" lon="0.3667700">
        <ele>247.3</ele>
        <time>2020-08-07T10:34:56Z</time>
      </trkpt>
      <trkpt lat="40.9962120" lon="0.3667790">
        <ele>246.7</ele>
        <time>2020-08-07T10:34:58Z</time>
      </trkpt>
      <trkpt lat="40.9962930" lon="0.3668180">
        <ele>246.4</ele>
        <time>2020-08-07T10:35:00Z</time>
      </trkpt>
      <trkpt lat="40.9963570" lon="0.3669480">
        <ele>246.2</ele>
        <time>2020-08-07T10:35:02Z</time>
      </trkpt>
      <trkpt lat="40.9963590" lon="0.3670200">
        <ele>246.3</ele>
        <time>2020-08-07T10:35:03Z</time>
      </trkpt>
      <trkpt lat="40.9963460" lon="0.3671440">
        <ele>246.6</ele>
        <time>2020-08-07T10:35:05Z</time>
      </trkpt>
      <trkpt lat="40.9963460" lon="0.3672170">
        <ele>246.9</ele>
        <time>2020-08-07T10:35:07Z</time>
      </trkpt>
      <trkpt lat="40.9963460" lon="0.3672480">
        <ele>247.1</ele>
        <time>2020-08-07T10:35:08Z</time>
      </trkpt>
      <trkpt lat="40.9963510" lon="0.3673070">
        <ele>247.4</ele>
        <time>2020-08-07T10:35:10Z</time>
      </trkpt>
      <trkpt lat="40.9963580" lon="0.3673260">
        <ele>247.5</ele>
        <time>2020-08-07T10:35:11Z</time>
      </trkpt>
      <trkpt lat="40.9963660" lon="0.3673460">
        <ele>247.6</ele>
        <time>2020-08-07T10:35:12Z</time>
      </trkpt>
      <trkpt lat="40.9963740" lon="0.3673670">
        <ele>247.8</ele>
        <time>2020-08-07T10:35:13Z</time>
      </trkpt>
      <trkpt lat="40.9963910" lon="0.3674080">
        <ele>248.0</ele>
        <time>2020-08-07T10:35:15Z</time>
      </trkpt>
      <trkpt lat="40.9964030" lon="0.3674420">
        <ele>248.3</ele>
        <time>2020-08-07T10:35:16Z</time>
      </trkpt>
      <trkpt lat="40.9964060" lon="0.3674540">
        <ele>248.4</ele>
        <time>2020-08-07T10:35:17Z</time>
      </trkpt>
      <trkpt lat="40.9964240" lon="0.3674960">
        <ele>248.7</ele>
        <time>2020-08-07T10:35:19Z</time>
      </trkpt>
      <trkpt lat="40.9964340" lon="0.3675160">
        <ele>248.9</ele>
        <time>2020-08-07T10:35:20Z</time>
      </trkpt>
      <trkpt lat="40.9964530" lon="0.3675580">
        <ele>249.3</ele>
        <time>2020-08-07T10:35:22Z</time>
      </trkpt>
      <trkpt lat="40.9964750" lon="0.3676040">
        <ele>249.7</ele>
        <time>2020-08-07T10:35:24Z</time>
      </trkpt>
      <trkpt lat="40.9964840" lon="0.3676230">
        <ele>249.9</ele>
        <time>2020-08-07T10:35:25Z</time>
      </trkpt>
      <trkpt lat="40.9965060" lon="0.3676630">
        <ele>250.3</ele>
        <time>2020-08-07T10:35:27Z</time>
      </trkpt>
      <trkpt lat="40.9965300" lon="0.3677010">
        <ele>250.7</ele>
        <time>2020-08-07T10:35:29Z</time>
      </trkpt>
      <trkpt lat="40.9965500" lon="0.3677290">
        <ele>251.0</ele>
        <time>2020-08-07T10:35:30Z</time>
      </trkpt>
      <trkpt lat="40.9965560" lon="0.3677390">
        <ele>251.1</ele>
        <time>2020-08-07T10:35:31Z</time>
      </trkpt>
      <trkpt lat="40.9965850" lon="0.3677820">
        <ele>251.4</ele>
        <time>2020-08-07T10:35:33Z</time>
      </trkpt>
      <trkpt lat="40.9966110" lon="0.3678240">
        <ele>251.7</ele>
        <time>2020-08-07T10:35:35Z</time>
      </trkpt>
      <trkpt lat="40.9966380" lon="0.3678660">
        <ele>252.0</ele>
        <time>2020-08-07T10:35:37Z</time>
      </trkpt>
      <trkpt lat="40.9966590" lon="0.3678970">
        <ele>252.1</ele>
        <time>2020-08-07T10:35:38Z</time>
      </trkpt>
      <trkpt lat="40.9966660" lon="0.3679090">
        <ele>252.2</ele>
        <time>2020-08-07T10:35:39Z</time>
      </trkpt>
      <trkpt lat="40.9966940" lon="0.3679560">
        <ele>252.4</ele>
        <time>2020-08-07T10:35:41Z</time>
      </trkpt>
      <trkpt lat="40.9967240" lon="0.3680060">
        <ele>252.5</ele>
        <time>2020-08-07T10:35:43Z</time>
      </trkpt>
      <trkpt lat="40.9967540" lon="0.3680520">
        <ele>252.6</ele>
        <time>2020-08-07T10:35:45Z</time>
      </trkpt>
      <trkpt lat="40.9967860" lon="0.3681070">
        <ele>252.6</ele>
        <time>2020-08-07T10:35:47Z</time>
      </trkpt>
      <trkpt lat="40.9968160" lon="0.3681630">
        <ele>252.6</ele>
        <time>2020-08-07T10:35:49Z</time>
      </trkpt>
      <trkpt lat="40.9968430" lon="0.3682180">
        <ele>252.6</ele>
        <time>2020-08-07T10:35:51Z</time>
      </trkpt>
      <trkpt lat="40.9968580" lon="0.3682470">
        <ele>252.6</ele>
        <time>2020-08-07T10:35:52Z</time>
      </trkpt>
      <trkpt lat="40.9968820" lon="0.3682960">
        <ele>252.6</ele>
        <time>2020-08-07T10:35:54Z</time>
      </trkpt>
      <trkpt lat="40.9969020" lon="0.3683480">
        <ele>252.6</ele>
        <time>2020-08-07T10:35:56Z</time>
      </trkpt>
      <trkpt lat="40.9969250" lon="0.3683740">
        <ele>252.6</ele>
        <time>2020-08-07T10:35:57Z</time>
      </trkpt>
      <trkpt lat="40.9969640" lon="0.3684030">
        <ele>252.7</ele>
        <time>2020-08-07T10:35:58Z</time>
      </trkpt>
      <trkpt lat="40.9969820" lon="0.3684130">
        <ele>252.7</ele>
        <time>2020-08-07T10:35:59Z</time>
      </trkpt>
      <trkpt lat="40.9970130" lon="0.3684310">
        <ele>252.7</ele>
        <time>2020-08-07T10:36:01Z</time>
      </trkpt>
      <trkpt lat="40.9970230" lon="0.3684350">
        <ele>252.7</ele>
        <time>2020-08-07T10:36:02Z</time>
      </trkpt>
      <trkpt lat="40.9970590" lon="0.3684620">
        <ele>252.8</ele>
        <time>2020-08-07T10:36:04Z</time>
      </trkpt>
      <trkpt lat="40.9970700" lon="0.3684800">
        <ele>252.8</ele>
        <time>2020-08-07T10:36:05Z</time>
      </trkpt>
      <trkpt lat="40.9970950" lon="0.3685390">
        <ele>252.9</ele>
        <time>2020-08-07T10:36:06Z</time>
      </trkpt>
      <trkpt lat="40.9971140" lon="0.3685960">
        <ele>253.0</ele>
        <time>2020-08-07T10:36:07Z</time>
      </trkpt>
      <trkpt lat="40.9971310" lon="0.3686400">
        <ele>253.1</ele>
        <time>2020-08-07T10:36:08Z</time>
      </trkpt>
      <trkpt lat="40.9971550" lon="0.3686980">
        <ele>253.3</ele>
        <time>2020-08-07T10:36:09Z</time>
      </trkpt>
      <trkpt lat="40.9971720" lon="0.3687410">
        <ele>253.4</ele>
        <time>2020-08-07T10:36:11Z</time>
      </trkpt>
      <trkpt lat="40.9971890" lon="0.3687840">
        <ele>253.5</ele>
        <time>2020-08-07T10:36:12Z</time>
      </trkpt>
      <trkpt lat="40.9972030" lon="0.3688200">
        <ele>253.5</ele>
        <time>2020-08-07T10:36:13Z</time>
      </trkpt>
      <trkpt lat="40.9972290" lon="0.3688850">
        <ele>253.7</ele>
        <time>2020-08-07T10:36:15Z</time>
      </trkpt>
      <trkpt lat="40.9972410" lon="0.3689180">
        <ele>253.7</ele>
        <time>2020-08-07T10:36:16Z</time>
      </trkpt>
      <trkpt lat="40.9972540" lon="0.3689520">
        <ele>253.8</ele>
        <time>2020-08-07T10:36:17Z</time>
      </trkpt>
      <trkpt lat="40.9972680" lon="0.3689850">
        <ele>253.9</ele>
        <time>2020-08-07T10:36:18Z</time>
      </trkpt>
      <trkpt lat="40.9972830" lon="0.3690290">
        <ele>254.0</ele>
        <time>2020-08-07T10:36:19Z</time>
      </trkpt>
      <trkpt lat="40.9972940" lon="0.3690730">
        <ele>254.1</ele>
        <time>2020-08-07T10:36:21Z</time>
      </trkpt>
      <trkpt lat="40.9973060" lon="0.3691170">
        <ele>254.2</ele>
        <time>2020-08-07T10:36:22Z</time>
      </trkpt>
      <trkpt lat="40.9973160" lon="0.3691570">
        <ele>254.3</ele>
        <time>2020-08-07T10:36:23Z</time>
      </trkpt>
      <trkpt lat="40.9973300" lon="0.3692140">
        <ele>254.4</ele>
        <time>2020-08-07T10:36:25Z</time>
      </trkpt>
      <trkpt lat="40.9973420" lon="0.3692590">
        <ele>254.5</ele>
        <time>2020-08-07T10:36:26Z</time>
      </trkpt>
      <trkpt lat="40.9973500" lon="0.3692950">
        <ele>254.6</ele>
        <time>2020-08-07T10:36:27Z</time>
      </trkpt>
      <trkpt lat="40.9973610" lon="0.3693410">
        <ele>255.3</ele>
        <time>2020-08-07T10:36:28Z</time>
      </trkpt>
      <trkpt lat="40.9973700" lon="0.3693900">
        <ele>256.1</ele>
        <time>2020-08-07T10:36:30Z</time>
      </trkpt>
      <trkpt lat="40.9973750" lon="0.3694350">
        <ele>256.7</ele>
        <time>2020-08-07T10:36:31Z</time>
      </trkpt>
      <trkpt lat="40.9973820" lon="0.3694700">
        <ele>257.0</ele>
        <time>2020-08-07T10:36:33Z</time>
      </trkpt>
      <trkpt lat="40.9973850" lon="0.3695140">
        <ele>257.3</ele>
        <time>2020-08-07T10:36:34Z</time>
      </trkpt>
      <trkpt lat="40.9973860" lon="0.3695630">
        <ele>257.4</ele>
        <time>2020-08-07T10:36:36Z</time>
      </trkpt>
      <trkpt lat="40.9973900" lon="0.3696040">
        <ele>257.4</ele>
        <time>2020-08-07T10:36:37Z</time>
      </trkpt>
      <trkpt lat="40.9973910" lon="0.3696450">
        <ele>257.5</ele>
        <time>2020-08-07T10:36:38Z</time>
      </trkpt>
      <trkpt lat="40.9973940" lon="0.3697030">
        <ele>257.4</ele>
        <time>2020-08-07T10:36:39Z</time>
      </trkpt>
      <trkpt lat="40.9973990" lon="0.3697560">
        <ele>257.4</ele>
        <time>2020-08-07T10:36:41Z</time>
      </trkpt>
      <trkpt lat="40.9974040" lon="0.3698050">
        <ele>257.4</ele>
        <time>2020-08-07T10:36:42Z</time>
      </trkpt>
      <trkpt lat="40.9974130" lon="0.3698510">
        <ele>257.4</ele>
        <time>2020-08-07T10:36:43Z</time>
      </trkpt>
      <trkpt lat="40.9974200" lon="0.3699000">
        <ele>257.4</ele>
        <time>2020-08-07T10:36:44Z</time>
      </trkpt>
      <trkpt lat="40.9974290" lon="0.3699450">
        <ele>257.4</ele>
        <time>2020-08-07T10:36:45Z</time>
      </trkpt>
      <trkpt lat="40.9974340" lon="0.3699860">
        <ele>257.4</ele>
        <time>2020-08-07T10:36:47Z</time>
      </trkpt>
      <trkpt lat="40.9974410" lon="0.3700340">
        <ele>257.4</ele>
        <time>2020-08-07T10:36:48Z</time>
      </trkpt>
      <trkpt lat="40.9974520" lon="0.3700940">
        <ele>257.3</ele>
        <time>2020-08-07T10:36:50Z</time>
      </trkpt>
      <trkpt lat="40.9974620" lon="0.3701350">
        <ele>257.3</ele>
        <time>2020-08-07T10:36:51Z</time>
      </trkpt>
      <trkpt lat="40.9974690" lon="0.3701720">
        <ele>257.3</ele>
        <time>2020-08-07T10:36:52Z</time>
      </trkpt>
      <trkpt lat="40.9974800" lon="0.3702110">
        <ele>257.3</ele>
        <time>2020-08-07T10:36:53Z</time>
      </trkpt>
      <trkpt lat="40.9974850" lon="0.3702480">
        <ele>257.3</ele>
        <time>2020-08-07T10:36:54Z</time>
      </trkpt>
      <trkpt lat="40.9974920" lon="0.3702870">
        <ele>257.3</ele>
        <time>2020-08-07T10:36:55Z</time>
      </trkpt>
      <trkpt lat="40.9975010" lon="0.3703270">
        <ele>257.3</ele>
        <time>2020-08-07T10:36:56Z</time>
      </trkpt>
      <trkpt lat="40.9975080" lon="0.3704020">
        <ele>257.3</ele>
        <time>2020-08-07T10:36:58Z</time>
      </trkpt>
      <trkpt lat="40.9975130" lon="0.3704360">
        <ele>257.3</ele>
        <time>2020-08-07T10:36:59Z</time>
      </trkpt>
      <trkpt lat="40.9975210" lon="0.3705110">
        <ele>257.2</ele>
        <time>2020-08-07T10:37:01Z</time>
      </trkpt>
      <trkpt lat="40.9975390" lon="0.3705410">
        <ele>257.2</ele>
        <time>2020-08-07T10:37:02Z</time>
      </trkpt>
      <trkpt lat="40.9975570" lon="0.3706240">
        <ele>257.2</ele>
        <time>2020-08-07T10:37:04Z</time>
      </trkpt>
      <trkpt lat="40.9975670" lon="0.3706720">
        <ele>257.1</ele>
        <time>2020-08-07T10:37:05Z</time>
      </trkpt>
      <trkpt lat="40.9975880" lon="0.3707520">
        <ele>257.1</ele>
        <time>2020-08-07T10:37:07Z</time>
      </trkpt>
      <trkpt lat="40.9975940" lon="0.3708130">
        <ele>257.0</ele>
        <time>2020-08-07T10:37:08Z</time>
      </trkpt>
      <trkpt lat="40.9976010" lon="0.3709070">
        <ele>257.0</ele>
        <time>2020-08-07T10:37:10Z</time>
      </trkpt>
      <trkpt lat="40.9976090" lon="0.3709630">
        <ele>256.9</ele>
        <time>2020-08-07T10:37:11Z</time>
      </trkpt>
      <trkpt lat="40.9976170" lon="0.3710190">
        <ele>256.9</ele>
        <time>2020-08-07T10:37:12Z</time>
      </trkpt>
      <trkpt lat="40.9976250" lon="0.3710700">
        <ele>256.9</ele>
        <time>2020-08-07T10:37:13Z</time>
      </trkpt>
      <trkpt lat="40.9976340" lon="0.3711210">
        <ele>256.9</ele>
        <time>2020-08-07T10:37:14Z</time>
      </trkpt>
      <trkpt lat="40.9976460" lon="0.3711770">
        <ele>256.9</ele>
        <time>2020-08-07T10:37:15Z</time>
      </trkpt>
      <trkpt lat="40.9976640" lon="0.3712480">
        <ele>257.0</ele>
        <time>2020-08-07T10:37:17Z</time>
      </trkpt>
      <trkpt lat="40.9976830" lon="0.3712980">
        <ele>257.0</ele>
        <time>2020-08-07T10:37:18Z</time>
      </trkpt>
      <trkpt lat="40.9977030" lon="0.3713430">
        <ele>257.0</ele>
        <time>2020-08-07T10:37:20Z</time>
      </trkpt>
      <trkpt lat="40.9977310" lon="0.3713920">
        <ele>257.0</ele>
        <time>2020-08-07T10:37:21Z</time>
      </trkpt>
      <trkpt lat="40.9977560" lon="0.3714280">
        <ele>257.0</ele>
        <time>2020-08-07T10:37:22Z</time>
      </trkpt>
      <trkpt lat="40.9977780" lon="0.3714620">
        <ele>257.0</ele>
        <time>2020-08-07T10:37:23Z</time>
      </trkpt>
      <trkpt lat="40.9978030" lon="0.3714920">
        <ele>257.0</ele>
        <time>2020-08-07T10:37:24Z</time>
      </trkpt>
      <trkpt lat="40.9978250" lon="0.3715250">
        <ele>257.0</ele>
        <time>2020-08-07T10:37:25Z</time>
      </trkpt>
      <trkpt lat="40.9978490" lon="0.3715560">
        <ele>257.1</ele>
        <time>2020-08-07T10:37:26Z</time>
      </trkpt>
      <trkpt lat="40.9978860" lon="0.3716060">
        <ele>257.1</ele>
        <time>2020-08-07T10:37:28Z</time>
      </trkpt>
      <trkpt lat="40.9979120" lon="0.3716470">
        <ele>257.2</ele>
        <time>2020-08-07T10:37:29Z</time>
      </trkpt>
      <trkpt lat="40.9979440" lon="0.3716930">
        <ele>257.2</ele>
        <time>2020-08-07T10:37:30Z</time>
      </trkpt>
      <trkpt lat="40.9979770" lon="0.3717440">
        <ele>257.3</ele>
        <time>2020-08-07T10:37:32Z</time>
      </trkpt>
      <trkpt lat="40.9979960" lon="0.3717750">
        <ele>257.3</ele>
        <time>2020-08-07T10:37:33Z</time>
      </trkpt>
      <trkpt lat="40.9980140" lon="0.3718050">
        <ele>257.3</ele>
        <time>2020-08-07T10:37:34Z</time>
      </trkpt>
      <trkpt lat="40.9980500" lon="0.3718620">
        <ele>257.4</ele>
        <time>2020-08-07T10:37:36Z</time>
      </trkpt>
      <trkpt lat="40.9980690" lon="0.3718940">
        <ele>257.4</ele>
        <time>2020-08-07T10:37:37Z</time>
      </trkpt>
      <trkpt lat="40.9981010" lon="0.3719540">
        <ele>257.3</ele>
        <time>2020-08-07T10:37:39Z</time>
      </trkpt>
      <trkpt lat="40.9981290" lon="0.3720080">
        <ele>257.2</ele>
        <time>2020-08-07T10:37:41Z</time>
      </trkpt>
      <trkpt lat="40.9981400" lon="0.3720270">
        <ele>257.2</ele>
        <time>2020-08-07T10:37:42Z</time>
      </trkpt>
      <trkpt lat="40.9981520" lon="0.3720510">
        <ele>257.1</ele>
        <time>2020-08-07T10:37:44Z</time>
      </trkpt>
      <trkpt lat="40.9981520" lon="0.3720520">
        <ele>257.1</ele>
        <time>2020-08-07T10:37:46Z</time>
      </trkpt>
      <trkpt lat="40.9981510" lon="0.3720490">
        <ele>257.1</ele>
        <time>2020-08-07T10:37:47Z</time>
      </trkpt>
      <trkpt lat="40.9981500" lon="0.3720470">
        <ele>257.1</ele>
        <time>2020-08-07T10:37:48Z</time>
      </trkpt>
      <trkpt lat="40.9981490" lon="0.3720450">
        <ele>257.1</ele>
        <time>2020-08-07T10:37:49Z</time>
      </trkpt>
      <trkpt lat="40.9981480" lon="0.3720410">
        <ele>257.1</ele>
        <time>2020-08-07T10:37:51Z</time>
      </trkpt>
      <trkpt lat="40.9981480" lon="0.3720410">
        <ele>257.1</ele>
        <time>2020-08-07T10:37:52Z</time>
      </trkpt>
      <trkpt lat="40.9981490" lon="0.3720390">
        <ele>257.1</ele>
        <time>2020-08-07T10:37:53Z</time>
      </trkpt>
      <trkpt lat="40.9981490" lon="0.3720390">
        <ele>257.1</ele>
        <time>2020-08-07T10:37:54Z</time>
      </trkpt>
      <trkpt lat="40.9981790" lon="0.3720870">
        <ele>256.9</ele>
        <time>2020-08-07T10:38:12Z</time>
      </trkpt>
      <trkpt lat="40.9981900" lon="0.3721090">
        <ele>256.8</ele>
        <time>2020-08-07T10:38:13Z</time>
      </trkpt>
      <trkpt lat="40.9982040" lon="0.3721360">
        <ele>256.7</ele>
        <time>2020-08-07T10:38:15Z</time>
      </trkpt>
      <trkpt lat="40.9982220" lon="0.3721700">
        <ele>256.4</ele>
        <time>2020-08-07T10:38:16Z</time>
      </trkpt>
      <trkpt lat="40.9982450" lon="0.3722630">
        <ele>255.8</ele>
        <time>2020-08-07T10:38:17Z</time>
      </trkpt>
      <trkpt lat="40.9982590" lon="0.3723600">
        <ele>255.1</ele>
        <time>2020-08-07T10:38:18Z</time>
      </trkpt>
      <trkpt lat="40.9982490" lon="0.3725190">
        <ele>254.0</ele>
        <time>2020-08-07T10:38:20Z</time>
      </trkpt>
      <trkpt lat="40.9982410" lon="0.3725880">
        <ele>253.5</ele>
        <time>2020-08-07T10:38:21Z</time>
      </trkpt>
      <trkpt lat="40.9982540" lon="0.3726120">
        <ele>253.4</ele>
        <time>2020-08-07T10:38:22Z</time>
      </trkpt>
      <trkpt lat="40.9982980" lon="0.3726170">
        <ele>253.0</ele>
        <time>2020-08-07T10:38:24Z</time>
      </trkpt>
      <trkpt lat="40.9983130" lon="0.3726820">
        <ele>252.7</ele>
        <time>2020-08-07T10:38:25Z</time>
      </trkpt>
      <trkpt lat="40.9983300" lon="0.3727790">
        <ele>252.2</ele>
        <time>2020-08-07T10:38:26Z</time>
      </trkpt>
      <trkpt lat="40.9983580" lon="0.3728510">
        <ele>251.8</ele>
        <time>2020-08-07T10:38:28Z</time>
      </trkpt>
      <trkpt lat="40.9984070" lon="0.3729530">
        <ele>251.1</ele>
        <time>2020-08-07T10:38:29Z</time>
      </trkpt>
      <trkpt lat="40.9984350" lon="0.3730130">
        <ele>250.7</ele>
        <time>2020-08-07T10:38:30Z</time>
      </trkpt>
      <trkpt lat="40.9984590" lon="0.3730700">
        <ele>250.3</ele>
        <time>2020-08-07T10:38:31Z</time>
      </trkpt>
      <trkpt lat="40.9984810" lon="0.3731280">
        <ele>249.9</ele>
        <time>2020-08-07T10:38:32Z</time>
      </trkpt>
      <trkpt lat="40.9984950" lon="0.3731860">
        <ele>249.4</ele>
        <time>2020-08-07T10:38:33Z</time>
      </trkpt>
      <trkpt lat="40.9985000" lon="0.3732470">
        <ele>249.0</ele>
        <time>2020-08-07T10:38:34Z</time>
      </trkpt>
      <trkpt lat="40.9985080" lon="0.3733770">
        <ele>247.8</ele>
        <time>2020-08-07T10:38:36Z</time>
      </trkpt>
      <trkpt lat="40.9985230" lon="0.3734380">
        <ele>247.2</ele>
        <time>2020-08-07T10:38:37Z</time>
      </trkpt>
      <trkpt lat="40.9985690" lon="0.3735730">
        <ele>246.0</ele>
        <time>2020-08-07T10:38:39Z</time>
      </trkpt>
      <trkpt lat="40.9985970" lon="0.3736470">
        <ele>245.4</ele>
        <time>2020-08-07T10:38:40Z</time>
      </trkpt>
      <trkpt lat="40.9986280" lon="0.3737230">
        <ele>244.9</ele>
        <time>2020-08-07T10:38:41Z</time>
      </trkpt>
      <trkpt lat="40.9986620" lon="0.3738000">
        <ele>244.3</ele>
        <time>2020-08-07T10:38:42Z</time>
      </trkpt>
      <trkpt lat="40.9987360" lon="0.3739490">
        <ele>243.2</ele>
        <time>2020-08-07T10:38:44Z</time>
      </trkpt>
      <trkpt lat="40.9988150" lon="0.3740960">
        <ele>242.3</ele>
        <time>2020-08-07T10:38:46Z</time>
      </trkpt>
      <trkpt lat="40.9988410" lon="0.3741740">
        <ele>242.0</ele>
        <time>2020-08-07T10:38:47Z</time>
      </trkpt>
      <trkpt lat="40.9988610" lon="0.3743310">
        <ele>241.6</ele>
        <time>2020-08-07T10:38:49Z</time>
      </trkpt>
      <trkpt lat="40.9988670" lon="0.3743980">
        <ele>241.5</ele>
        <time>2020-08-07T10:38:50Z</time>
      </trkpt>
      <trkpt lat="40.9988940" lon="0.3745350">
        <ele>241.3</ele>
        <time>2020-08-07T10:38:52Z</time>
      </trkpt>
      <trkpt lat="40.9989460" lon="0.3746660">
        <ele>241.0</ele>
        <time>2020-08-07T10:38:54Z</time>
      </trkpt>
      <trkpt lat="40.9990190" lon="0.3747880">
        <ele>240.8</ele>
        <time>2020-08-07T10:38:56Z</time>
      </trkpt>
      <trkpt lat="40.9990560" lon="0.3748500">
        <ele>240.7</ele>
        <time>2020-08-07T10:38:57Z</time>
      </trkpt>
      <trkpt lat="40.9990970" lon="0.3749030">
        <ele>240.6</ele>
        <time>2020-08-07T10:38:58Z</time>
      </trkpt>
      <trkpt lat="40.9991790" lon="0.3750040">
        <ele>240.6</ele>
        <time>2020-08-07T10:39:00Z</time>
      </trkpt>
      <trkpt lat="40.9992210" lon="0.3750500">
        <ele>240.5</ele>
        <time>2020-08-07T10:39:01Z</time>
      </trkpt>
      <trkpt lat="40.9992620" lon="0.3750930">
        <ele>240.5</ele>
        <time>2020-08-07T10:39:02Z</time>
      </trkpt>
      <trkpt lat="40.9993410" lon="0.3751730">
        <ele>240.4</ele>
        <time>2020-08-07T10:39:04Z</time>
      </trkpt>
      <trkpt lat="40.9994130" lon="0.3752570">
        <ele>240.4</ele>
        <time>2020-08-07T10:39:06Z</time>
      </trkpt>
      <trkpt lat="40.9994460" lon="0.3753050">
        <ele>240.3</ele>
        <time>2020-08-07T10:39:07Z</time>
      </trkpt>
      <trkpt lat="40.9994770" lon="0.3753540">
        <ele>240.3</ele>
        <time>2020-08-07T10:39:08Z</time>
      </trkpt>
      <trkpt lat="40.9995040" lon="0.3754040">
        <ele>240.3</ele>
        <time>2020-08-07T10:39:09Z</time>
      </trkpt>
      <trkpt lat="40.9995210" lon="0.3754570">
        <ele>240.3</ele>
        <time>2020-08-07T10:39:10Z</time>
      </trkpt>
      <trkpt lat="40.9995500" lon="0.3755410">
        <ele>240.3</ele>
        <time>2020-08-07T10:39:12Z</time>
      </trkpt>
      <trkpt lat="40.9995680" lon="0.3755940">
        <ele>240.3</ele>
        <time>2020-08-07T10:39:13Z</time>
      </trkpt>
      <trkpt lat="40.9996110" lon="0.3756860">
        <ele>240.3</ele>
        <time>2020-08-07T10:39:15Z</time>
      </trkpt>
      <trkpt lat="40.9996640" lon="0.3757770">
        <ele>240.2</ele>
        <time>2020-08-07T10:39:17Z</time>
      </trkpt>
      <trkpt lat="40.9996880" lon="0.3758210">
        <ele>240.2</ele>
        <time>2020-08-07T10:39:18Z</time>
      </trkpt>
      <trkpt lat="40.9997050" lon="0.3758270">
        <ele>240.2</ele>
        <time>2020-08-07T10:39:19Z</time>
      </trkpt>
      <trkpt lat="40.9997360" lon="0.3758590">
        <ele>240.3</ele>
        <time>2020-08-07T10:39:21Z</time>
      </trkpt>
      <trkpt lat="40.9997770" lon="0.3759260">
        <ele>240.4</ele>
        <time>2020-08-07T10:39:22Z</time>
      </trkpt>
      <trkpt lat="40.9998130" lon="0.3759930">
        <ele>240.5</ele>
        <time>2020-08-07T10:39:23Z</time>
      </trkpt>
      <trkpt lat="40.9998410" lon="0.3760360">
        <ele>240.6</ele>
        <time>2020-08-07T10:39:24Z</time>
      </trkpt>
      <trkpt lat="40.9998750" lon="0.3760890">
        <ele>240.7</ele>
        <time>2020-08-07T10:39:26Z</time>
      </trkpt>
      <trkpt lat="40.9999010" lon="0.3761320">
        <ele>240.7</ele>
        <time>2020-08-07T10:39:27Z</time>
      </trkpt>
      <trkpt lat="40.9999280" lon="0.3761870">
        <ele>240.8</ele>
        <time>2020-08-07T10:39:28Z</time>
      </trkpt>
      <trkpt lat="40.9999490" lon="0.3762300">
        <ele>240.9</ele>
        <time>2020-08-07T10:39:30Z</time>
      </trkpt>
      <trkpt lat="40.9999690" lon="0.3762780">
        <ele>240.9</ele>
        <time>2020-08-07T10:39:31Z</time>
      </trkpt>
      <trkpt lat="40.9999840" lon="0.3763190">
        <ele>240.9</ele>
        <time>2020-08-07T10:39:32Z</time>
      </trkpt>
      <trkpt lat="40.9999990" lon="0.3763680">
        <ele>240.9</ele>
        <time>2020-08-07T10:39:33Z</time>
      </trkpt>
      <trkpt lat="41.0000130" lon="0.3764070">
        <ele>240.9</ele>
        <time>2020-08-07T10:39:34Z</time>
      </trkpt>
      <trkpt lat="41.0000280" lon="0.3764660">
        <ele>240.8</ele>
        <time>2020-08-07T10:39:36Z</time>
      </trkpt>
      <trkpt lat="41.0000330" lon="0.3765250">
        <ele>240.7</ele>
        <time>2020-08-07T10:39:38Z</time>
      </trkpt>
      <trkpt lat="41.0000440" lon="0.3765780">
        <ele>240.5</ele>
        <time>2020-08-07T10:39:39Z</time>
      </trkpt>
      <trkpt lat="41.0000490" lon="0.3765970">
        <ele>240.4</ele>
        <time>2020-08-07T10:39:40Z</time>
      </trkpt>
      <trkpt lat="41.0000690" lon="0.3766600">
        <ele>240.1</ele>
        <time>2020-08-07T10:39:42Z</time>
      </trkpt>
      <trkpt lat="41.0000840" lon="0.3767000">
        <ele>239.9</ele>
        <time>2020-08-07T10:39:43Z</time>
      </trkpt>
      <trkpt lat="41.0000990" lon="0.3767300">
        <ele>239.8</ele>
        <time>2020-08-07T10:39:44Z</time>
      </trkpt>
      <trkpt lat="41.0001180" lon="0.3767590">
        <ele>239.6</ele>
        <time>2020-08-07T10:39:45Z</time>
      </trkpt>
      <trkpt lat="41.0001410" lon="0.3767820">
        <ele>239.4</ele>
        <time>2020-08-07T10:39:46Z</time>
      </trkpt>
      <trkpt lat="41.0002840" lon="0.3768260">
        <ele>238.5</ele>
        <time>2020-08-07T10:39:48Z</time>
      </trkpt>
      <trkpt lat="41.0004720" lon="0.3770700">
        <ele>238.2</ele>
        <time>2020-08-07T10:39:54Z</time>
      </trkpt>
      <trkpt lat="41.0004540" lon="0.3771220">
        <ele>238.3</ele>
        <time>2020-08-07T10:39:55Z</time>
      </trkpt>
      <trkpt lat="41.0004570" lon="0.3771110">
        <ele>238.3</ele>
        <time>2020-08-07T10:39:56Z</time>
      </trkpt>
      <trkpt lat="41.0004660" lon="0.3771610">
        <ele>238.4</ele>
        <time>2020-08-07T10:39:57Z</time>
      </trkpt>
      <trkpt lat="41.0004740" lon="0.3772130">
        <ele>238.5</ele>
        <time>2020-08-07T10:39:59Z</time>
      </trkpt>
      <trkpt lat="41.0004900" lon="0.3772710">
        <ele>238.6</ele>
        <time>2020-08-07T10:40:00Z</time>
      </trkpt>
      <trkpt lat="41.0005150" lon="0.3773530">
        <ele>238.6</ele>
        <time>2020-08-07T10:40:02Z</time>
      </trkpt>
      <trkpt lat="41.0005400" lon="0.3774060">
        <ele>238.7</ele>
        <time>2020-08-07T10:40:03Z</time>
      </trkpt>
      <trkpt lat="41.0005750" lon="0.3774900">
        <ele>238.7</ele>
        <time>2020-08-07T10:40:05Z</time>
      </trkpt>
      <trkpt lat="41.0006220" lon="0.3775710">
        <ele>238.8</ele>
        <time>2020-08-07T10:40:07Z</time>
      </trkpt>
      <trkpt lat="41.0006670" lon="0.3776450">
        <ele>238.9</ele>
        <time>2020-08-07T10:40:10Z</time>
      </trkpt>
      <trkpt lat="41.0007260" lon="0.3777200">
        <ele>239.1</ele>
        <time>2020-08-07T10:40:11Z</time>
      </trkpt>
      <trkpt lat="41.0007750" lon="0.3777810">
        <ele>239.4</ele>
        <time>2020-08-07T10:40:13Z</time>
      </trkpt>
      <trkpt lat="41.0007880" lon="0.3778030">
        <ele>239.5</ele>
        <time>2020-08-07T10:40:14Z</time>
      </trkpt>
      <trkpt lat="41.0008070" lon="0.3778490">
        <ele>239.6</ele>
        <time>2020-08-07T10:40:16Z</time>
      </trkpt>
      <trkpt lat="41.0008060" lon="0.3778870">
        <ele>239.7</ele>
        <time>2020-08-07T10:40:17Z</time>
      </trkpt>
      <trkpt lat="41.0008330" lon="0.3779380">
        <ele>239.8</ele>
        <time>2020-08-07T10:40:18Z</time>
      </trkpt>
      <trkpt lat="41.0008530" lon="0.3779740">
        <ele>239.9</ele>
        <time>2020-08-07T10:40:19Z</time>
      </trkpt>
      <trkpt lat="41.0008740" lon="0.3780110">
        <ele>239.9</ele>
        <time>2020-08-07T10:40:21Z</time>
      </trkpt>
      <trkpt lat="41.0008900" lon="0.3780410">
        <ele>240.0</ele>
        <time>2020-08-07T10:40:22Z</time>
      </trkpt>
      <trkpt lat="41.0009080" lon="0.3780830">
        <ele>240.1</ele>
        <time>2020-08-07T10:40:23Z</time>
      </trkpt>
      <trkpt lat="41.0009410" lon="0.3781470">
        <ele>240.2</ele>
        <time>2020-08-07T10:40:25Z</time>
      </trkpt>
      <trkpt lat="41.0009600" lon="0.3781850">
        <ele>240.2</ele>
        <time>2020-08-07T10:40:26Z</time>
      </trkpt>
      <trkpt lat="41.0009800" lon="0.3782200">
        <ele>240.3</ele>
        <time>2020-08-07T10:40:27Z</time>
      </trkpt>
      <trkpt lat="41.0009980" lon="0.3782600">
        <ele>240.4</ele>
        <time>2020-08-07T10:40:28Z</time>
      </trkpt>
      <trkpt lat="41.0010150" lon="0.3782960">
        <ele>240.4</ele>
        <time>2020-08-07T10:40:29Z</time>
      </trkpt>
      <trkpt lat="41.0010440" lon="0.3783510">
        <ele>240.5</ele>
        <time>2020-08-07T10:40:31Z</time>
      </trkpt>
      <trkpt lat="41.0010660" lon="0.3783980">
        <ele>240.6</ele>
        <time>2020-08-07T10:40:32Z</time>
      </trkpt>
      <trkpt lat="41.0010830" lon="0.3784340">
        <ele>240.7</ele>
        <time>2020-08-07T10:40:33Z</time>
      </trkpt>
      <trkpt lat="41.0010990" lon="0.3784700">
        <ele>240.8</ele>
        <time>2020-08-07T10:40:34Z</time>
      </trkpt>
      <trkpt lat="41.0011230" lon="0.3785220">
        <ele>240.8</ele>
        <time>2020-08-07T10:40:36Z</time>
      </trkpt>
      <trkpt lat="41.0011410" lon="0.3785580">
        <ele>240.9</ele>
        <time>2020-08-07T10:40:37Z</time>
      </trkpt>
      <trkpt lat="41.0011610" lon="0.3785920">
        <ele>240.9</ele>
        <time>2020-08-07T10:40:38Z</time>
      </trkpt>
      <trkpt lat="41.0011780" lon="0.3786230">
        <ele>240.9</ele>
        <time>2020-08-07T10:40:39Z</time>
      </trkpt>
      <trkpt lat="41.0011960" lon="0.3786510">
        <ele>240.9</ele>
        <time>2020-08-07T10:40:40Z</time>
      </trkpt>
      <trkpt lat="41.0012180" lon="0.3786800">
        <ele>240.8</ele>
        <time>2020-08-07T10:40:41Z</time>
      </trkpt>
      <trkpt lat="41.0012580" lon="0.3787220">
        <ele>240.7</ele>
        <time>2020-08-07T10:40:43Z</time>
      </trkpt>
      <trkpt lat="41.0012940" lon="0.3787570">
        <ele>240.5</ele>
        <time>2020-08-07T10:40:44Z</time>
      </trkpt>
      <trkpt lat="41.0013380" lon="0.3788200">
        <ele>240.1</ele>
        <time>2020-08-07T10:40:46Z</time>
      </trkpt>
      <trkpt lat="41.0013640" lon="0.3788700">
        <ele>239.8</ele>
        <time>2020-08-07T10:40:47Z</time>
      </trkpt>
      <trkpt lat="41.0013890" lon="0.3789180">
        <ele>239.4</ele>
        <time>2020-08-07T10:40:48Z</time>
      </trkpt>
      <trkpt lat="41.0014160" lon="0.3789750">
        <ele>238.9</ele>
        <time>2020-08-07T10:40:49Z</time>
      </trkpt>
      <trkpt lat="41.0014380" lon="0.3790300">
        <ele>238.5</ele>
        <time>2020-08-07T10:40:50Z</time>
      </trkpt>
      <trkpt lat="41.0014570" lon="0.3790820">
        <ele>238.1</ele>
        <time>2020-08-07T10:40:51Z</time>
      </trkpt>
      <trkpt lat="41.0014610" lon="0.3791290">
        <ele>237.8</ele>
        <time>2020-08-07T10:40:53Z</time>
      </trkpt>
      <trkpt lat="41.0014670" lon="0.3791940">
        <ele>237.3</ele>
        <time>2020-08-07T10:40:55Z</time>
      </trkpt>
      <trkpt lat="41.0014830" lon="0.3792630">
        <ele>236.8</ele>
        <time>2020-08-07T10:40:56Z</time>
      </trkpt>
      <trkpt lat="41.0015290" lon="0.3793370">
        <ele>237.5</ele>
        <time>2020-08-07T10:40:58Z</time>
      </trkpt>
      <trkpt lat="41.0015560" lon="0.3793620">
        <ele>237.7</ele>
        <time>2020-08-07T10:40:59Z</time>
      </trkpt>
      <trkpt lat="41.0016070" lon="0.3794000">
        <ele>238.0</ele>
        <time>2020-08-07T10:41:01Z</time>
      </trkpt>
      <trkpt lat="41.0016480" lon="0.3794230">
        <ele>238.2</ele>
        <time>2020-08-07T10:41:03Z</time>
      </trkpt>
      <trkpt lat="41.0016610" lon="0.3794220">
        <ele>238.3</ele>
        <time>2020-08-07T10:41:04Z</time>
      </trkpt>
      <trkpt lat="41.0016900" lon="0.3794160">
        <ele>238.4</ele>
        <time>2020-08-07T10:41:06Z</time>
      </trkpt>
      <trkpt lat="41.0017040" lon="0.3794270">
        <ele>238.5</ele>
        <time>2020-08-07T10:41:07Z</time>
      </trkpt>
      <trkpt lat="41.0017370" lon="0.3794660">
        <ele>238.6</ele>
        <time>2020-08-07T10:41:09Z</time>
      </trkpt>
      <trkpt lat="41.0017660" lon="0.3794960">
        <ele>238.7</ele>
        <time>2020-08-07T10:41:10Z</time>
      </trkpt>
      <trkpt lat="41.0017740" lon="0.3795040">
        <ele>238.7</ele>
        <time>2020-08-07T10:41:11Z</time>
      </trkpt>
      <trkpt lat="41.0017980" lon="0.3795240">
        <ele>238.8</ele>
        <time>2020-08-07T10:41:12Z</time>
      </trkpt>
      <trkpt lat="41.0018260" lon="0.3795460">
        <ele>238.9</ele>
        <time>2020-08-07T10:41:13Z</time>
      </trkpt>
      <trkpt lat="41.0018720" lon="0.3795860">
        <ele>239.1</ele>
        <time>2020-08-07T10:41:15Z</time>
      </trkpt>
      <trkpt lat="41.0018950" lon="0.3796140">
        <ele>239.2</ele>
        <time>2020-08-07T10:41:16Z</time>
      </trkpt>
      <trkpt lat="41.0019160" lon="0.3796530">
        <ele>239.3</ele>
        <time>2020-08-07T10:41:17Z</time>
      </trkpt>
      <trkpt lat="41.0019240" lon="0.3796700">
        <ele>239.4</ele>
        <time>2020-08-07T10:41:18Z</time>
      </trkpt>
      <trkpt lat="41.0019370" lon="0.3797050">
        <ele>239.5</ele>
        <time>2020-08-07T10:41:19Z</time>
      </trkpt>
      <trkpt lat="41.0019480" lon="0.3797410">
        <ele>239.6</ele>
        <time>2020-08-07T10:41:20Z</time>
      </trkpt>
      <trkpt lat="41.0019620" lon="0.3798010">
        <ele>239.8</ele>
        <time>2020-08-07T10:41:22Z</time>
      </trkpt>
      <trkpt lat="41.0019780" lon="0.3798750">
        <ele>240.1</ele>
        <time>2020-08-07T10:41:24Z</time>
      </trkpt>
      <trkpt lat="41.0019860" lon="0.3799120">
        <ele>240.2</ele>
        <time>2020-08-07T10:41:25Z</time>
      </trkpt>
      <trkpt lat="41.0019890" lon="0.3799250">
        <ele>240.3</ele>
        <time>2020-08-07T10:41:26Z</time>
      </trkpt>
      <trkpt lat="41.0019960" lon="0.3799560">
        <ele>240.4</ele>
        <time>2020-08-07T10:41:27Z</time>
      </trkpt>
      <trkpt lat="41.0020070" lon="0.3800090">
        <ele>240.7</ele>
        <time>2020-08-07T10:41:29Z</time>
      </trkpt>
      <trkpt lat="41.0020240" lon="0.3800710">
        <ele>241.0</ele>
        <time>2020-08-07T10:41:31Z</time>
      </trkpt>
      <trkpt lat="41.0020340" lon="0.3801080">
        <ele>241.2</ele>
        <time>2020-08-07T10:41:32Z</time>
      </trkpt>
      <trkpt lat="41.0020370" lon="0.3801230">
        <ele>241.2</ele>
        <time>2020-08-07T10:41:33Z</time>
      </trkpt>
      <trkpt lat="41.0020560" lon="0.3801850">
        <ele>241.5</ele>
        <time>2020-08-07T10:41:35Z</time>
      </trkpt>
      <trkpt lat="41.0020780" lon="0.3802440">
        <ele>241.9</ele>
        <time>2020-08-07T10:41:37Z</time>
      </trkpt>
      <trkpt lat="41.0020910" lon="0.3802800">
        <ele>242.0</ele>
        <time>2020-08-07T10:41:38Z</time>
      </trkpt>
      <trkpt lat="41.0020960" lon="0.3802960">
        <ele>242.1</ele>
        <time>2020-08-07T10:41:39Z</time>
      </trkpt>
      <trkpt lat="41.0021160" lon="0.3803500">
        <ele>242.4</ele>
        <time>2020-08-07T10:41:41Z</time>
      </trkpt>
      <trkpt lat="41.0021330" lon="0.3803910">
        <ele>242.6</ele>
        <time>2020-08-07T10:41:42Z</time>
      </trkpt>
      <trkpt lat="41.0021380" lon="0.3804060">
        <ele>242.7</ele>
        <time>2020-08-07T10:41:43Z</time>
      </trkpt>
      <trkpt lat="41.0021560" lon="0.3804620">
        <ele>243.0</ele>
        <time>2020-08-07T10:41:45Z</time>
      </trkpt>
      <trkpt lat="41.0021680" lon="0.3805050">
        <ele>243.2</ele>
        <time>2020-08-07T10:41:46Z</time>
      </trkpt>
      <trkpt lat="41.0021710" lon="0.3805190">
        <ele>243.2</ele>
        <time>2020-08-07T10:41:47Z</time>
      </trkpt>
      <trkpt lat="41.0021750" lon="0.3805390">
        <ele>243.3</ele>
        <time>2020-08-07T10:41:48Z</time>
      </trkpt>
      <trkpt lat="41.0021810" lon="0.3805650">
        <ele>243.4</ele>
        <time>2020-08-07T10:41:49Z</time>
      </trkpt>
      <trkpt lat="41.0021890" lon="0.3805950">
        <ele>243.5</ele>
        <time>2020-08-07T10:41:50Z</time>
      </trkpt>
      <trkpt lat="41.0022040" lon="0.3806530">
        <ele>243.8</ele>
        <time>2020-08-07T10:41:52Z</time>
      </trkpt>
      <trkpt lat="41.0022170" lon="0.3806920">
        <ele>243.9</ele>
        <time>2020-08-07T10:41:53Z</time>
      </trkpt>
      <trkpt lat="41.0022210" lon="0.3807060">
        <ele>244.0</ele>
        <time>2020-08-07T10:41:54Z</time>
      </trkpt>
      <trkpt lat="41.0022370" lon="0.3807580">
        <ele>244.1</ele>
        <time>2020-08-07T10:41:56Z</time>
      </trkpt>
      <trkpt lat="41.0022460" lon="0.3807830">
        <ele>244.2</ele>
        <time>2020-08-07T10:41:57Z</time>
      </trkpt>
      <trkpt lat="41.0022660" lon="0.3808290">
        <ele>244.4</ele>
        <time>2020-08-07T10:41:59Z</time>
      </trkpt>
      <trkpt lat="41.0022960" lon="0.3808810">
        <ele>244.6</ele>
        <time>2020-08-07T10:42:01Z</time>
      </trkpt>
      <trkpt lat="41.0023060" lon="0.3808980">
        <ele>244.6</ele>
        <time>2020-08-07T10:42:02Z</time>
      </trkpt>
      <trkpt lat="41.0023150" lon="0.3809140">
        <ele>244.7</ele>
        <time>2020-08-07T10:42:03Z</time>
      </trkpt>
      <trkpt lat="41.0023450" lon="0.3809500">
        <ele>244.8</ele>
        <time>2020-08-07T10:42:05Z</time>
      </trkpt>
      <trkpt lat="41.0023770" lon="0.3809770">
        <ele>244.9</ele>
        <time>2020-08-07T10:42:07Z</time>
      </trkpt>
      <trkpt lat="41.0024070" lon="0.3810030">
        <ele>245.1</ele>
        <time>2020-08-07T10:42:08Z</time>
      </trkpt>
      <trkpt lat="41.0024160" lon="0.3810100">
        <ele>245.1</ele>
        <time>2020-08-07T10:42:09Z</time>
      </trkpt>
      <trkpt lat="41.0024550" lon="0.3810360">
        <ele>245.2</ele>
        <time>2020-08-07T10:42:11Z</time>
      </trkpt>
      <trkpt lat="41.0024890" lon="0.3810700">
        <ele>245.4</ele>
        <time>2020-08-07T10:42:13Z</time>
      </trkpt>
      <trkpt lat="41.0025440" lon="0.3811330">
        <ele>245.6</ele>
        <time>2020-08-07T10:42:17Z</time>
      </trkpt>
      <trkpt lat="41.0025730" lon="0.3811560">
        <ele>245.7</ele>
        <time>2020-08-07T10:42:19Z</time>
      </trkpt>
      <trkpt lat="41.0025790" lon="0.3811540">
        <ele>245.8</ele>
        <time>2020-08-07T10:42:20Z</time>
      </trkpt>
      <trkpt lat="41.0026260" lon="0.3812120">
        <ele>246.0</ele>
        <time>2020-08-07T10:42:22Z</time>
      </trkpt>
      <trkpt lat="41.0026540" lon="0.3812450">
        <ele>246.1</ele>
        <time>2020-08-07T10:42:23Z</time>
      </trkpt>
      <trkpt lat="41.0026640" lon="0.3812560">
        <ele>246.2</ele>
        <time>2020-08-07T10:42:24Z</time>
      </trkpt>
      <trkpt lat="41.0026830" lon="0.3812760">
        <ele>246.3</ele>
        <time>2020-08-07T10:42:25Z</time>
      </trkpt>
      <trkpt lat="41.0027200" lon="0.3813150">
        <ele>246.4</ele>
        <time>2020-08-07T10:42:27Z</time>
      </trkpt>
      <trkpt lat="41.0027390" lon="0.3813380">
        <ele>246.5</ele>
        <time>2020-08-07T10:42:28Z</time>
      </trkpt>
      <trkpt lat="41.0027800" lon="0.3813800">
        <ele>246.7</ele>
        <time>2020-08-07T10:42:30Z</time>
      </trkpt>
      <trkpt lat="41.0028080" lon="0.3814060">
        <ele>246.9</ele>
        <time>2020-08-07T10:42:31Z</time>
      </trkpt>
      <trkpt lat="41.0028170" lon="0.3814140">
        <ele>246.9</ele>
        <time>2020-08-07T10:42:32Z</time>
      </trkpt>
      <trkpt lat="41.0028500" lon="0.3814510">
        <ele>247.1</ele>
        <time>2020-08-07T10:42:33Z</time>
      </trkpt>
      <trkpt lat="41.0028640" lon="0.3814670">
        <ele>247.2</ele>
        <time>2020-08-07T10:42:34Z</time>
      </trkpt>
      <trkpt lat="41.0028900" lon="0.3814880">
        <ele>247.3</ele>
        <time>2020-08-07T10:42:36Z</time>
      </trkpt>
      <trkpt lat="41.0029340" lon="0.3815310">
        <ele>247.5</ele>
        <time>2020-08-07T10:42:38Z</time>
      </trkpt>
      <trkpt lat="41.0029530" lon="0.3815460">
        <ele>247.6</ele>
        <time>2020-08-07T10:42:39Z</time>
      </trkpt>
      <trkpt lat="41.0029880" lon="0.3815750">
        <ele>247.8</ele>
        <time>2020-08-07T10:42:41Z</time>
      </trkpt>
      <trkpt lat="41.0030160" lon="0.3816020">
        <ele>247.9</ele>
        <time>2020-08-07T10:42:42Z</time>
      </trkpt>
      <trkpt lat="41.0030250" lon="0.3816100">
        <ele>248.0</ele>
        <time>2020-08-07T10:42:43Z</time>
      </trkpt>
      <trkpt lat="41.0030600" lon="0.3816410">
        <ele>248.2</ele>
        <time>2020-08-07T10:42:45Z</time>
      </trkpt>
      <trkpt lat="41.0030880" lon="0.3816650">
        <ele>248.3</ele>
        <time>2020-08-07T10:42:46Z</time>
      </trkpt>
      <trkpt lat="41.0030980" lon="0.3816720">
        <ele>248.4</ele>
        <time>2020-08-07T10:42:47Z</time>
      </trkpt>
      <trkpt lat="41.0031330" lon="0.3817080">
        <ele>248.6</ele>
        <time>2020-08-07T10:42:49Z</time>
      </trkpt>
      <trkpt lat="41.0031680" lon="0.3817480">
        <ele>248.8</ele>
        <time>2020-08-07T10:42:51Z</time>
      </trkpt>
      <trkpt lat="41.0031870" lon="0.3817670">
        <ele>248.9</ele>
        <time>2020-08-07T10:42:52Z</time>
      </trkpt>
      <trkpt lat="41.0032160" lon="0.3818180">
        <ele>249.0</ele>
        <time>2020-08-07T10:42:54Z</time>
      </trkpt>
      <trkpt lat="41.0032450" lon="0.3818710">
        <ele>249.2</ele>
        <time>2020-08-07T10:42:56Z</time>
      </trkpt>
      <trkpt lat="41.0032600" lon="0.3819030">
        <ele>249.3</ele>
        <time>2020-08-07T10:42:57Z</time>
      </trkpt>
      <trkpt lat="41.0032730" lon="0.3819320">
        <ele>249.4</ele>
        <time>2020-08-07T10:42:58Z</time>
      </trkpt>
      <trkpt lat="41.0033040" lon="0.3819780">
        <ele>249.5</ele>
        <time>2020-08-07T10:43:00Z</time>
      </trkpt>
      <trkpt lat="41.0033300" lon="0.3820330">
        <ele>249.6</ele>
        <time>2020-08-07T10:43:02Z</time>
      </trkpt>
      <trkpt lat="41.0033420" lon="0.3820620">
        <ele>249.7</ele>
        <time>2020-08-07T10:43:03Z</time>
      </trkpt>
      <trkpt lat="41.0033720" lon="0.3821150">
        <ele>249.8</ele>
        <time>2020-08-07T10:43:05Z</time>
      </trkpt>
      <trkpt lat="41.0033830" lon="0.3821470">
        <ele>249.8</ele>
        <time>2020-08-07T10:43:06Z</time>
      </trkpt>
      <trkpt lat="41.0034070" lon="0.3822090">
        <ele>249.9</ele>
        <time>2020-08-07T10:43:08Z</time>
      </trkpt>
      <trkpt lat="41.0034340" lon="0.3822690">
        <ele>250.0</ele>
        <time>2020-08-07T10:43:10Z</time>
      </trkpt>
      <trkpt lat="41.0034530" lon="0.3823130">
        <ele>250.1</ele>
        <time>2020-08-07T10:43:11Z</time>
      </trkpt>
      <trkpt lat="41.0034600" lon="0.3823270">
        <ele>250.2</ele>
        <time>2020-08-07T10:43:12Z</time>
      </trkpt>
      <trkpt lat="41.0034730" lon="0.3823600">
        <ele>250.2</ele>
        <time>2020-08-07T10:43:13Z</time>
      </trkpt>
      <trkpt lat="41.0035020" lon="0.3824190">
        <ele>250.3</ele>
        <time>2020-08-07T10:43:15Z</time>
      </trkpt>
      <trkpt lat="41.0035240" lon="0.3824580">
        <ele>250.4</ele>
        <time>2020-08-07T10:43:16Z</time>
      </trkpt>
      <trkpt lat="41.0035310" lon="0.3824720">
        <ele>250.4</ele>
        <time>2020-08-07T10:43:17Z</time>
      </trkpt>
      <trkpt lat="41.0035470" lon="0.3825030">
        <ele>250.5</ele>
        <time>2020-08-07T10:43:18Z</time>
      </trkpt>
      <trkpt lat="41.0035670" lon="0.3825310">
        <ele>250.5</ele>
        <time>2020-08-07T10:43:19Z</time>
      </trkpt>
      <trkpt lat="41.0036010" lon="0.3825770">
        <ele>250.6</ele>
        <time>2020-08-07T10:43:21Z</time>
      </trkpt>
      <trkpt lat="41.0036290" lon="0.3826150">
        <ele>250.6</ele>
        <time>2020-08-07T10:43:22Z</time>
      </trkpt>
      <trkpt lat="41.0036380" lon="0.3826280">
        <ele>250.6</ele>
        <time>2020-08-07T10:43:23Z</time>
      </trkpt>
      <trkpt lat="41.0036790" lon="0.3826680">
        <ele>250.7</ele>
        <time>2020-08-07T10:43:25Z</time>
      </trkpt>
      <trkpt lat="41.0036990" lon="0.3826860">
        <ele>250.7</ele>
        <time>2020-08-07T10:43:26Z</time>
      </trkpt>
      <trkpt lat="41.0037470" lon="0.3827180">
        <ele>250.7</ele>
        <time>2020-08-07T10:43:28Z</time>
      </trkpt>
      <trkpt lat="41.0037790" lon="0.3827340">
        <ele>250.7</ele>
        <time>2020-08-07T10:43:29Z</time>
      </trkpt>
      <trkpt lat="41.0037880" lon="0.3827420">
        <ele>250.7</ele>
        <time>2020-08-07T10:43:30Z</time>
      </trkpt>
      <trkpt lat="41.0038390" lon="0.3827290">
        <ele>250.7</ele>
        <time>2020-08-07T10:43:32Z</time>
      </trkpt>
      <trkpt lat="41.0038660" lon="0.3827120">
        <ele>250.7</ele>
        <time>2020-08-07T10:43:33Z</time>
      </trkpt>
      <trkpt lat="41.0038950" lon="0.3826940">
        <ele>250.8</ele>
        <time>2020-08-07T10:43:34Z</time>
      </trkpt>
      <trkpt lat="41.0039310" lon="0.3826450">
        <ele>250.8</ele>
        <time>2020-08-07T10:43:36Z</time>
      </trkpt>
      <trkpt lat="41.0039540" lon="0.3826150">
        <ele>250.8</ele>
        <time>2020-08-07T10:43:37Z</time>
      </trkpt>
      <trkpt lat="41.0039880" lon="0.3825720">
        <ele>250.8</ele>
        <time>2020-08-07T10:43:39Z</time>
      </trkpt>
      <trkpt lat="41.0040230" lon="0.3825140">
        <ele>250.9</ele>
        <time>2020-08-07T10:43:41Z</time>
      </trkpt>
      <trkpt lat="41.0040360" lon="0.3824690">
        <ele>250.9</ele>
        <time>2020-08-07T10:43:42Z</time>
      </trkpt>
      <trkpt lat="41.0040520" lon="0.3824330">
        <ele>250.9</ele>
        <time>2020-08-07T10:43:43Z</time>
      </trkpt>
      <trkpt lat="41.0040810" lon="0.3823670">
        <ele>251.0</ele>
        <time>2020-08-07T10:43:45Z</time>
      </trkpt>
      <trkpt lat="41.0040990" lon="0.3823020">
        <ele>251.0</ele>
        <time>2020-08-07T10:43:46Z</time>
      </trkpt>
      <trkpt lat="41.0041110" lon="0.3822610">
        <ele>251.1</ele>
        <time>2020-08-07T10:43:47Z</time>
      </trkpt>
      <trkpt lat="41.0041290" lon="0.3821930">
        <ele>251.1</ele>
        <time>2020-08-07T10:43:49Z</time>
      </trkpt>
      <trkpt lat="41.0041470" lon="0.3821300">
        <ele>251.2</ele>
        <time>2020-08-07T10:43:51Z</time>
      </trkpt>
      <trkpt lat="41.0041640" lon="0.3820810">
        <ele>251.2</ele>
        <time>2020-08-07T10:43:53Z</time>
      </trkpt>
      <trkpt lat="41.0041800" lon="0.3820380">
        <ele>251.3</ele>
        <time>2020-08-07T10:43:54Z</time>
      </trkpt>
      <trkpt lat="41.0041840" lon="0.3820220">
        <ele>251.3</ele>
        <time>2020-08-07T10:43:55Z</time>
      </trkpt>
      <trkpt lat="41.0041970" lon="0.3819710">
        <ele>251.3</ele>
        <time>2020-08-07T10:43:57Z</time>
      </trkpt>
      <trkpt lat="41.0042230" lon="0.3819390">
        <ele>251.4</ele>
        <time>2020-08-07T10:43:58Z</time>
      </trkpt>
      <trkpt lat="41.0042390" lon="0.3818990">
        <ele>251.4</ele>
        <time>2020-08-07T10:43:59Z</time>
      </trkpt>
      <trkpt lat="41.0042540" lon="0.3818400">
        <ele>251.4</ele>
        <time>2020-08-07T10:44:00Z</time>
      </trkpt>
      <trkpt lat="41.0042700" lon="0.3817900">
        <ele>251.5</ele>
        <time>2020-08-07T10:44:02Z</time>
      </trkpt>
      <trkpt lat="41.0042870" lon="0.3817480">
        <ele>251.5</ele>
        <time>2020-08-07T10:44:03Z</time>
      </trkpt>
      <trkpt lat="41.0043040" lon="0.3816880">
        <ele>251.6</ele>
        <time>2020-08-07T10:44:05Z</time>
      </trkpt>
      <trkpt lat="41.0043150" lon="0.3816410">
        <ele>251.7</ele>
        <time>2020-08-07T10:44:06Z</time>
      </trkpt>
      <trkpt lat="41.0043230" lon="0.3816050">
        <ele>251.7</ele>
        <time>2020-08-07T10:44:07Z</time>
      </trkpt>
      <trkpt lat="41.0043290" lon="0.3815680">
        <ele>251.8</ele>
        <time>2020-08-07T10:44:08Z</time>
      </trkpt>
      <trkpt lat="41.0043320" lon="0.3815270">
        <ele>251.8</ele>
        <time>2020-08-07T10:44:09Z</time>
      </trkpt>
      <trkpt lat="41.0043400" lon="0.3814470">
        <ele>251.9</ele>
        <time>2020-08-07T10:44:11Z</time>
      </trkpt>
      <trkpt lat="41.0043460" lon="0.3813830">
        <ele>252.0</ele>
        <time>2020-08-07T10:44:13Z</time>
      </trkpt>
      <trkpt lat="41.0043460" lon="0.3813440">
        <ele>252.1</ele>
        <time>2020-08-07T10:44:14Z</time>
      </trkpt>
      <trkpt lat="41.0043450" lon="0.3812990">
        <ele>252.1</ele>
        <time>2020-08-07T10:44:15Z</time>
      </trkpt>
      <trkpt lat="41.0043480" lon="0.3812510">
        <ele>252.2</ele>
        <time>2020-08-07T10:44:17Z</time>
      </trkpt>
      <trkpt lat="41.0043510" lon="0.3812090">
        <ele>252.2</ele>
        <time>2020-08-07T10:44:18Z</time>
      </trkpt>
      <trkpt lat="41.0043600" lon="0.3811430">
        <ele>252.3</ele>
        <time>2020-08-07T10:44:19Z</time>
      </trkpt>
      <trkpt lat="41.0043730" lon="0.3810860">
        <ele>252.3</ele>
        <time>2020-08-07T10:44:21Z</time>
      </trkpt>
      <trkpt lat="41.0043880" lon="0.3810360">
        <ele>252.4</ele>
        <time>2020-08-07T10:44:22Z</time>
      </trkpt>
      <trkpt lat="41.0044040" lon="0.3809980">
        <ele>252.4</ele>
        <time>2020-08-07T10:44:23Z</time>
      </trkpt>
      <trkpt lat="41.0044410" lon="0.3809330">
        <ele>252.4</ele>
        <time>2020-08-07T10:44:25Z</time>
      </trkpt>
      <trkpt lat="41.0044790" lon="0.3808970">
        <ele>252.5</ele>
        <time>2020-08-07T10:44:26Z</time>
      </trkpt>
      <trkpt lat="41.0045090" lon="0.3808730">
        <ele>252.5</ele>
        <time>2020-08-07T10:44:27Z</time>
      </trkpt>
      <trkpt lat="41.0045560" lon="0.3808400">
        <ele>252.6</ele>
        <time>2020-08-07T10:44:29Z</time>
      </trkpt>
      <trkpt lat="41.0045880" lon="0.3808210">
        <ele>252.6</ele>
        <time>2020-08-07T10:44:30Z</time>
      </trkpt>
      <trkpt lat="41.0046190" lon="0.3808050">
        <ele>252.7</ele>
        <time>2020-08-07T10:44:31Z</time>
      </trkpt>
      <trkpt lat="41.0046620" lon="0.3807860">
        <ele>252.7</ele>
        <time>2020-08-07T10:44:32Z</time>
      </trkpt>
      <trkpt lat="41.0047100" lon="0.3807650">
        <ele>252.8</ele>
        <time>2020-08-07T10:44:34Z</time>
      </trkpt>
      <trkpt lat="41.0047500" lon="0.3807420">
        <ele>252.9</ele>
        <time>2020-08-07T10:44:35Z</time>
      </trkpt>
      <trkpt lat="41.0048050" lon="0.3807140">
        <ele>252.9</ele>
        <time>2020-08-07T10:44:37Z</time>
      </trkpt>
      <trkpt lat="41.0048370" lon="0.3806970">
        <ele>253.0</ele>
        <time>2020-08-07T10:44:38Z</time>
      </trkpt>
      <trkpt lat="41.0048690" lon="0.3806760">
        <ele>253.0</ele>
        <time>2020-08-07T10:44:39Z</time>
      </trkpt>
      <trkpt lat="41.0049090" lon="0.3806510">
        <ele>253.1</ele>
        <time>2020-08-07T10:44:40Z</time>
      </trkpt>
      <trkpt lat="41.0049490" lon="0.3806260">
        <ele>253.1</ele>
        <time>2020-08-07T10:44:42Z</time>
      </trkpt>
      <trkpt lat="41.0049880" lon="0.3806050">
        <ele>253.2</ele>
        <time>2020-08-07T10:44:43Z</time>
      </trkpt>
      <trkpt lat="41.0050290" lon="0.3805810">
        <ele>253.2</ele>
        <time>2020-08-07T10:44:44Z</time>
      </trkpt>
      <trkpt lat="41.0050860" lon="0.3805450">
        <ele>253.4</ele>
        <time>2020-08-07T10:44:46Z</time>
      </trkpt>
      <trkpt lat="41.0051160" lon="0.3805260">
        <ele>253.4</ele>
        <time>2020-08-07T10:44:47Z</time>
      </trkpt>
      <trkpt lat="41.0051720" lon="0.3804930">
        <ele>253.5</ele>
        <time>2020-08-07T10:44:49Z</time>
      </trkpt>
      <trkpt lat="41.0052290" lon="0.3804570">
        <ele>253.6</ele>
        <time>2020-08-07T10:44:51Z</time>
      </trkpt>
      <trkpt lat="41.0052580" lon="0.3804360">
        <ele>253.6</ele>
        <time>2020-08-07T10:44:52Z</time>
      </trkpt>
      <trkpt lat="41.0053050" lon="0.3804000">
        <ele>253.7</ele>
        <time>2020-08-07T10:44:54Z</time>
      </trkpt>
      <trkpt lat="41.0053580" lon="0.3803530">
        <ele>253.8</ele>
        <time>2020-08-07T10:44:56Z</time>
      </trkpt>
      <trkpt lat="41.0053800" lon="0.3803310">
        <ele>253.8</ele>
        <time>2020-08-07T10:44:57Z</time>
      </trkpt>
      <trkpt lat="41.0054070" lon="0.3803020">
        <ele>253.8</ele>
        <time>2020-08-07T10:44:58Z</time>
      </trkpt>
      <trkpt lat="41.0054640" lon="0.3802330">
        <ele>253.8</ele>
        <time>2020-08-07T10:45:00Z</time>
      </trkpt>
      <trkpt lat="41.0054880" lon="0.3802000">
        <ele>253.9</ele>
        <time>2020-08-07T10:45:01Z</time>
      </trkpt>
      <trkpt lat="41.0055100" lon="0.3801690">
        <ele>253.9</ele>
        <time>2020-08-07T10:45:02Z</time>
      </trkpt>
      <trkpt lat="41.0055360" lon="0.3801300">
        <ele>253.9</ele>
        <time>2020-08-07T10:45:03Z</time>
      </trkpt>
      <trkpt lat="41.0055860" lon="0.3800570">
        <ele>254.0</ele>
        <time>2020-08-07T10:45:05Z</time>
      </trkpt>
      <trkpt lat="41.0056090" lon="0.3800260">
        <ele>254.0</ele>
        <time>2020-08-07T10:45:06Z</time>
      </trkpt>
      <trkpt lat="41.0056640" lon="0.3799570">
        <ele>254.0</ele>
        <time>2020-08-07T10:45:08Z</time>
      </trkpt>
      <trkpt lat="41.0057290" lon="0.3798960">
        <ele>254.1</ele>
        <time>2020-08-07T10:45:10Z</time>
      </trkpt>
      <trkpt lat="41.0057580" lon="0.3798800">
        <ele>254.1</ele>
        <time>2020-08-07T10:45:11Z</time>
      </trkpt>
      <trkpt lat="41.0058280" lon="0.3798560">
        <ele>254.2</ele>
        <time>2020-08-07T10:45:13Z</time>
      </trkpt>
      <trkpt lat="41.0058580" lon="0.3798470">
        <ele>254.2</ele>
        <time>2020-08-07T10:45:14Z</time>
      </trkpt>
      <trkpt lat="41.0059140" lon="0.3798370">
        <ele>254.3</ele>
        <time>2020-08-07T10:45:16Z</time>
      </trkpt>
      <trkpt lat="41.0059470" lon="0.3798410">
        <ele>254.3</ele>
        <time>2020-08-07T10:45:17Z</time>
      </trkpt>
      <trkpt lat="41.0059960" lon="0.3798490">
        <ele>254.4</ele>
        <time>2020-08-07T10:45:18Z</time>
      </trkpt>
      <trkpt lat="41.0060310" lon="0.3798600">
        <ele>254.5</ele>
        <time>2020-08-07T10:45:20Z</time>
      </trkpt>
      <trkpt lat="41.0060730" lon="0.3798730">
        <ele>254.5</ele>
        <time>2020-08-07T10:45:21Z</time>
      </trkpt>
      <trkpt lat="41.0061150" lon="0.3798910">
        <ele>254.6</ele>
        <time>2020-08-07T10:45:22Z</time>
      </trkpt>
      <trkpt lat="41.0061470" lon="0.3799020">
        <ele>254.7</ele>
        <time>2020-08-07T10:45:23Z</time>
      </trkpt>
      <trkpt lat="41.0062060" lon="0.3799170">
        <ele>254.8</ele>
        <time>2020-08-07T10:45:25Z</time>
      </trkpt>
      <trkpt lat="41.0062430" lon="0.3799290">
        <ele>254.8</ele>
        <time>2020-08-07T10:45:26Z</time>
      </trkpt>
      <trkpt lat="41.0062700" lon="0.3799380">
        <ele>254.9</ele>
        <time>2020-08-07T10:45:27Z</time>
      </trkpt>
      <trkpt lat="41.0063230" lon="0.3799480">
        <ele>255.0</ele>
        <time>2020-08-07T10:45:29Z</time>
      </trkpt>
      <trkpt lat="41.0063520" lon="0.3799430">
        <ele>255.1</ele>
        <time>2020-08-07T10:45:30Z</time>
      </trkpt>
      <trkpt lat="41.0063800" lon="0.3799360">
        <ele>255.2</ele>
        <time>2020-08-07T10:45:31Z</time>
      </trkpt>
      <trkpt lat="41.0064090" lon="0.3799210">
        <ele>255.2</ele>
        <time>2020-08-07T10:45:32Z</time>
      </trkpt>
      <trkpt lat="41.0064480" lon="0.3799000">
        <ele>255.3</ele>
        <time>2020-08-07T10:45:33Z</time>
      </trkpt>
      <trkpt lat="41.0064840" lon="0.3798650">
        <ele>255.3</ele>
        <time>2020-08-07T10:45:35Z</time>
      </trkpt>
      <trkpt lat="41.0065270" lon="0.3798210">
        <ele>255.4</ele>
        <time>2020-08-07T10:45:37Z</time>
      </trkpt>
      <trkpt lat="41.0065520" lon="0.3797930">
        <ele>255.4</ele>
        <time>2020-08-07T10:45:38Z</time>
      </trkpt>
      <trkpt lat="41.0065780" lon="0.3797670">
        <ele>255.4</ele>
        <time>2020-08-07T10:45:39Z</time>
      </trkpt>
      <trkpt lat="41.0066070" lon="0.3797400">
        <ele>255.5</ele>
        <time>2020-08-07T10:45:40Z</time>
      </trkpt>
      <trkpt lat="41.0066450" lon="0.3796990">
        <ele>255.5</ele>
        <time>2020-08-07T10:45:41Z</time>
      </trkpt>
      <trkpt lat="41.0066870" lon="0.3796610">
        <ele>255.5</ele>
        <time>2020-08-07T10:45:43Z</time>
      </trkpt>
      <trkpt lat="41.0067300" lon="0.3796170">
        <ele>255.6</ele>
        <time>2020-08-07T10:45:45Z</time>
      </trkpt>
      <trkpt lat="41.0067730" lon="0.3795700">
        <ele>255.6</ele>
        <time>2020-08-07T10:45:47Z</time>
      </trkpt>
      <trkpt lat="41.0067990" lon="0.3795390">
        <ele>255.6</ele>
        <time>2020-08-07T10:45:48Z</time>
      </trkpt>
      <trkpt lat="41.0068300" lon="0.3795020">
        <ele>255.6</ele>
        <time>2020-08-07T10:45:49Z</time>
      </trkpt>
      <trkpt lat="41.0068540" lon="0.3794730">
        <ele>255.6</ele>
        <time>2020-08-07T10:45:50Z</time>
      </trkpt>
      <trkpt lat="41.0068760" lon="0.3794440">
        <ele>255.6</ele>
        <time>2020-08-07T10:45:51Z</time>
      </trkpt>
      <trkpt lat="41.0069000" lon="0.3794100">
        <ele>255.6</ele>
        <time>2020-08-07T10:45:52Z</time>
      </trkpt>
      <trkpt lat="41.0069210" lon="0.3793830">
        <ele>255.6</ele>
        <time>2020-08-07T10:45:53Z</time>
      </trkpt>
      <trkpt lat="41.0069550" lon="0.3793380">
        <ele>255.6</ele>
        <time>2020-08-07T10:45:54Z</time>
      </trkpt>
      <trkpt lat="41.0069850" lon="0.3793000">
        <ele>255.6</ele>
        <time>2020-08-07T10:45:56Z</time>
      </trkpt>
      <trkpt lat="41.0070060" lon="0.3792740">
        <ele>255.6</ele>
        <time>2020-08-07T10:45:57Z</time>
      </trkpt>
      <trkpt lat="41.0070460" lon="0.3792170">
        <ele>255.6</ele>
        <time>2020-08-07T10:45:59Z</time>
      </trkpt>
      <trkpt lat="41.0070660" lon="0.3791910">
        <ele>255.6</ele>
        <time>2020-08-07T10:46:00Z</time>
      </trkpt>
      <trkpt lat="41.0071180" lon="0.3791350">
        <ele>255.6</ele>
        <time>2020-08-07T10:46:02Z</time>
      </trkpt>
      <trkpt lat="41.0071360" lon="0.3791150">
        <ele>255.6</ele>
        <time>2020-08-07T10:46:03Z</time>
      </trkpt>
      <trkpt lat="41.0071660" lon="0.3790730">
        <ele>255.6</ele>
        <time>2020-08-07T10:46:05Z</time>
      </trkpt>
      <trkpt lat="41.0071920" lon="0.3790450">
        <ele>255.6</ele>
        <time>2020-08-07T10:46:06Z</time>
      </trkpt>
      <trkpt lat="41.0072000" lon="0.3790350">
        <ele>255.6</ele>
        <time>2020-08-07T10:46:07Z</time>
      </trkpt>
      <trkpt lat="41.0072120" lon="0.3790190">
        <ele>255.6</ele>
        <time>2020-08-07T10:46:09Z</time>
      </trkpt>
      <trkpt lat="41.0072090" lon="0.3790240">
        <ele>255.6</ele>
        <time>2020-08-07T10:46:10Z</time>
      </trkpt>
      <trkpt lat="41.0072080" lon="0.3790330">
        <ele>255.6</ele>
        <time>2020-08-07T10:46:11Z</time>
      </trkpt>
      <trkpt lat="41.0072140" lon="0.3790430">
        <ele>255.6</ele>
        <time>2020-08-07T10:46:13Z</time>
      </trkpt>
      <trkpt lat="41.0072100" lon="0.3790420">
        <ele>255.6</ele>
        <time>2020-08-07T10:46:14Z</time>
      </trkpt>
      <trkpt lat="41.0072630" lon="0.3789510">
        <ele>255.5</ele>
        <time>2020-08-07T10:46:16Z</time>
      </trkpt>
      <trkpt lat="41.0072950" lon="0.3788990">
        <ele>255.5</ele>
        <time>2020-08-07T10:46:18Z</time>
      </trkpt>
      <trkpt lat="41.0073310" lon="0.3788470">
        <ele>255.4</ele>
        <time>2020-08-07T10:46:20Z</time>
      </trkpt>
      <trkpt lat="41.0073760" lon="0.3787930">
        <ele>255.4</ele>
        <time>2020-08-07T10:46:22Z</time>
      </trkpt>
      <trkpt lat="41.0074210" lon="0.3787430">
        <ele>255.4</ele>
        <time>2020-08-07T10:46:24Z</time>
      </trkpt>
      <trkpt lat="41.0074440" lon="0.3787170">
        <ele>255.3</ele>
        <time>2020-08-07T10:46:25Z</time>
      </trkpt>
      <trkpt lat="41.0074860" lon="0.3786660">
        <ele>255.3</ele>
        <time>2020-08-07T10:46:27Z</time>
      </trkpt>
      <trkpt lat="41.0075300" lon="0.3786110">
        <ele>255.3</ele>
        <time>2020-08-07T10:46:29Z</time>
      </trkpt>
      <trkpt lat="41.0075550" lon="0.3785830">
        <ele>255.3</ele>
        <time>2020-08-07T10:46:30Z</time>
      </trkpt>
      <trkpt lat="41.0076030" lon="0.3785290">
        <ele>255.4</ele>
        <time>2020-08-07T10:46:32Z</time>
      </trkpt>
      <trkpt lat="41.0076440" lon="0.3784790">
        <ele>255.4</ele>
        <time>2020-08-07T10:46:34Z</time>
      </trkpt>
      <trkpt lat="41.0076780" lon="0.3784450">
        <ele>255.4</ele>
        <time>2020-08-07T10:46:35Z</time>
      </trkpt>
      <trkpt lat="41.0077090" lon="0.3784170">
        <ele>255.4</ele>
        <time>2020-08-07T10:46:36Z</time>
      </trkpt>
      <trkpt lat="41.0077360" lon="0.3783940">
        <ele>255.4</ele>
        <time>2020-08-07T10:46:37Z</time>
      </trkpt>
      <trkpt lat="41.0077620" lon="0.3783720">
        <ele>255.5</ele>
        <time>2020-08-07T10:46:38Z</time>
      </trkpt>
      <trkpt lat="41.0078100" lon="0.3783270">
        <ele>255.5</ele>
        <time>2020-08-07T10:46:40Z</time>
      </trkpt>
      <trkpt lat="41.0078430" lon="0.3782930">
        <ele>255.5</ele>
        <time>2020-08-07T10:46:42Z</time>
      </trkpt>
      <trkpt lat="41.0078810" lon="0.3782540">
        <ele>255.5</ele>
        <time>2020-08-07T10:46:44Z</time>
      </trkpt>
      <trkpt lat="41.0079430" lon="0.3781740">
        <ele>255.4</ele>
        <time>2020-08-07T10:46:50Z</time>
      </trkpt>
      <trkpt lat="41.0079690" lon="0.3781440">
        <ele>255.4</ele>
        <time>2020-08-07T10:46:51Z</time>
      </trkpt>
      <trkpt lat="41.0080370" lon="0.3780870">
        <ele>255.4</ele>
        <time>2020-08-07T10:46:52Z</time>
      </trkpt>
      <trkpt lat="41.0081100" lon="0.3780370">
        <ele>255.5</ele>
        <time>2020-08-07T10:46:53Z</time>
      </trkpt>
      <trkpt lat="41.0081690" lon="0.3779900">
        <ele>255.5</ele>
        <time>2020-08-07T10:46:54Z</time>
      </trkpt>
      <trkpt lat="41.0082560" lon="0.3778960">
        <ele>255.6</ele>
        <time>2020-08-07T10:46:56Z</time>
      </trkpt>
      <trkpt lat="41.0082850" lon="0.3778530">
        <ele>255.7</ele>
        <time>2020-08-07T10:46:57Z</time>
      </trkpt>
      <trkpt lat="41.0083310" lon="0.3777660">
        <ele>255.8</ele>
        <time>2020-08-07T10:46:59Z</time>
      </trkpt>
      <trkpt lat="41.0083500" lon="0.3777240">
        <ele>255.9</ele>
        <time>2020-08-07T10:47:00Z</time>
      </trkpt>
      <trkpt lat="41.0083700" lon="0.3776730">
        <ele>256.0</ele>
        <time>2020-08-07T10:47:01Z</time>
      </trkpt>
      <trkpt lat="41.0083970" lon="0.3775770">
        <ele>256.2</ele>
        <time>2020-08-07T10:47:03Z</time>
      </trkpt>
      <trkpt lat="41.0084050" lon="0.3775400">
        <ele>256.3</ele>
        <time>2020-08-07T10:47:04Z</time>
      </trkpt>
      <trkpt lat="41.0084160" lon="0.3774920">
        <ele>256.5</ele>
        <time>2020-08-07T10:47:05Z</time>
      </trkpt>
      <trkpt lat="41.0084270" lon="0.3774500">
        <ele>256.6</ele>
        <time>2020-08-07T10:47:06Z</time>
      </trkpt>
      <trkpt lat="41.0084360" lon="0.3774130">
        <ele>256.8</ele>
        <time>2020-08-07T10:47:07Z</time>
      </trkpt>
      <trkpt lat="41.0084560" lon="0.3773380">
        <ele>257.0</ele>
        <time>2020-08-07T10:47:09Z</time>
      </trkpt>
      <trkpt lat="41.0084660" lon="0.3772970">
        <ele>257.2</ele>
        <time>2020-08-07T10:47:10Z</time>
      </trkpt>
      <trkpt lat="41.0084750" lon="0.3772620">
        <ele>257.3</ele>
        <time>2020-08-07T10:47:11Z</time>
      </trkpt>
      <trkpt lat="41.0084850" lon="0.3772210">
        <ele>257.4</ele>
        <time>2020-08-07T10:47:12Z</time>
      </trkpt>
      <trkpt lat="41.0084940" lon="0.3771880">
        <ele>257.5</ele>
        <time>2020-08-07T10:47:13Z</time>
      </trkpt>
      <trkpt lat="41.0085150" lon="0.3771090">
        <ele>257.8</ele>
        <time>2020-08-07T10:47:15Z</time>
      </trkpt>
      <trkpt lat="41.0085250" lon="0.3770700">
        <ele>257.9</ele>
        <time>2020-08-07T10:47:16Z</time>
      </trkpt>
      <trkpt lat="41.0085430" lon="0.3769960">
        <ele>258.2</ele>
        <time>2020-08-07T10:47:18Z</time>
      </trkpt>
      <trkpt lat="41.0085560" lon="0.3769240">
        <ele>258.4</ele>
        <time>2020-08-07T10:47:20Z</time>
      </trkpt>
      <trkpt lat="41.0085700" lon="0.3768490">
        <ele>258.7</ele>
        <time>2020-08-07T10:47:22Z</time>
      </trkpt>
      <trkpt lat="41.0085780" lon="0.3768080">
        <ele>258.8</ele>
        <time>2020-08-07T10:47:23Z</time>
      </trkpt>
      <trkpt lat="41.0085930" lon="0.3767290">
        <ele>259.1</ele>
        <time>2020-08-07T10:47:25Z</time>
      </trkpt>
      <trkpt lat="41.0086000" lon="0.3766900">
        <ele>259.3</ele>
        <time>2020-08-07T10:47:26Z</time>
      </trkpt>
      <trkpt lat="41.0086070" lon="0.3766500">
        <ele>259.4</ele>
        <time>2020-08-07T10:47:27Z</time>
      </trkpt>
      <trkpt lat="41.0086180" lon="0.3765750">
        <ele>259.7</ele>
        <time>2020-08-07T10:47:29Z</time>
      </trkpt>
      <trkpt lat="41.0086280" lon="0.3764980">
        <ele>259.9</ele>
        <time>2020-08-07T10:47:31Z</time>
      </trkpt>
      <trkpt lat="41.0086400" lon="0.3764200">
        <ele>260.1</ele>
        <time>2020-08-07T10:47:33Z</time>
      </trkpt>
      <trkpt lat="41.0086480" lon="0.3763800">
        <ele>260.1</ele>
        <time>2020-08-07T10:47:34Z</time>
      </trkpt>
      <trkpt lat="41.0086650" lon="0.3763080">
        <ele>260.3</ele>
        <time>2020-08-07T10:47:36Z</time>
      </trkpt>
      <trkpt lat="41.0086770" lon="0.3762700">
        <ele>260.3</ele>
        <time>2020-08-07T10:47:37Z</time>
      </trkpt>
      <trkpt lat="41.0086920" lon="0.3762350">
        <ele>260.3</ele>
        <time>2020-08-07T10:47:38Z</time>
      </trkpt>
      <trkpt lat="41.0087300" lon="0.3761660">
        <ele>260.3</ele>
        <time>2020-08-07T10:47:40Z</time>
      </trkpt>
      <trkpt lat="41.0087510" lon="0.3761360">
        <ele>260.3</ele>
        <time>2020-08-07T10:47:41Z</time>
      </trkpt>
      <trkpt lat="41.0087760" lon="0.3761010">
        <ele>260.3</ele>
        <time>2020-08-07T10:47:42Z</time>
      </trkpt>
      <trkpt lat="41.0088230" lon="0.3760380">
        <ele>260.2</ele>
        <time>2020-08-07T10:47:44Z</time>
      </trkpt>
      <trkpt lat="41.0088800" lon="0.3759660">
        <ele>260.2</ele>
        <time>2020-08-07T10:47:46Z</time>
      </trkpt>
      <trkpt lat="41.0089050" lon="0.3759370">
        <ele>260.2</ele>
        <time>2020-08-07T10:47:47Z</time>
      </trkpt>
      <trkpt lat="41.0089590" lon="0.3758750">
        <ele>260.2</ele>
        <time>2020-08-07T10:47:49Z</time>
      </trkpt>
      <trkpt lat="41.0089830" lon="0.3758490">
        <ele>260.2</ele>
        <time>2020-08-07T10:47:50Z</time>
      </trkpt>
      <trkpt lat="41.0090390" lon="0.3758020">
        <ele>260.2</ele>
        <time>2020-08-07T10:47:52Z</time>
      </trkpt>
      <trkpt lat="41.0090720" lon="0.3757850">
        <ele>260.2</ele>
        <time>2020-08-07T10:47:53Z</time>
      </trkpt>
      <trkpt lat="41.0091020" lon="0.3757800">
        <ele>260.1</ele>
        <time>2020-08-07T10:47:54Z</time>
      </trkpt>
      <trkpt lat="41.0091670" lon="0.3758090">
        <ele>260.0</ele>
        <time>2020-08-07T10:47:56Z</time>
      </trkpt>
      <trkpt lat="41.0091970" lon="0.3758430">
        <ele>259.9</ele>
        <time>2020-08-07T10:47:57Z</time>
      </trkpt>
      <trkpt lat="41.0092590" lon="0.3759340">
        <ele>259.7</ele>
        <time>2020-08-07T10:47:59Z</time>
      </trkpt>
      <trkpt lat="41.0093110" lon="0.3760200">
        <ele>259.6</ele>
        <time>2020-08-07T10:48:01Z</time>
      </trkpt>
      <trkpt lat="41.0093390" lon="0.3760600">
        <ele>259.6</ele>
        <time>2020-08-07T10:48:02Z</time>
      </trkpt>
      <trkpt lat="41.0093590" lon="0.3760900">
        <ele>259.6</ele>
        <time>2020-08-07T10:48:03Z</time>
      </trkpt>
      <trkpt lat="41.0094090" lon="0.3761600">
        <ele>259.6</ele>
        <time>2020-08-07T10:48:05Z</time>
      </trkpt>
      <trkpt lat="41.0094520" lon="0.3762200">
        <ele>259.7</ele>
        <time>2020-08-07T10:48:07Z</time>
      </trkpt>
      <trkpt lat="41.0094770" lon="0.3762530">
        <ele>259.7</ele>
        <time>2020-08-07T10:48:08Z</time>
      </trkpt>
      <trkpt lat="41.0095010" lon="0.3762860">
        <ele>259.8</ele>
        <time>2020-08-07T10:48:09Z</time>
      </trkpt>
      <trkpt lat="41.0095430" lon="0.3763420">
        <ele>259.9</ele>
        <time>2020-08-07T10:48:11Z</time>
      </trkpt>
      <trkpt lat="41.0095890" lon="0.3764100">
        <ele>260.1</ele>
        <time>2020-08-07T10:48:13Z</time>
      </trkpt>
      <trkpt lat="41.0096240" lon="0.3764720">
        <ele>260.2</ele>
        <time>2020-08-07T10:48:15Z</time>
      </trkpt>
      <trkpt lat="41.0096550" lon="0.3765310">
        <ele>260.4</ele>
        <time>2020-08-07T10:48:17Z</time>
      </trkpt>
      <trkpt lat="41.0096830" lon="0.3765930">
        <ele>260.6</ele>
        <time>2020-08-07T10:48:19Z</time>
      </trkpt>
      <trkpt lat="41.0096940" lon="0.3766190">
        <ele>260.6</ele>
        <time>2020-08-07T10:48:20Z</time>
      </trkpt>
      <trkpt lat="41.0097200" lon="0.3766820">
        <ele>260.8</ele>
        <time>2020-08-07T10:48:22Z</time>
      </trkpt>
      <trkpt lat="41.0097380" lon="0.3767290">
        <ele>261.0</ele>
        <time>2020-08-07T10:48:23Z</time>
      </trkpt>
      <trkpt lat="41.0097430" lon="0.3767440">
        <ele>261.0</ele>
        <time>2020-08-07T10:48:24Z</time>
      </trkpt>
      <trkpt lat="41.0097590" lon="0.3767860">
        <ele>261.1</ele>
        <time>2020-08-07T10:48:25Z</time>
      </trkpt>
      <trkpt lat="41.0097630" lon="0.3767980">
        <ele>261.2</ele>
        <time>2020-08-07T10:48:26Z</time>
      </trkpt>
      <trkpt lat="41.0097740" lon="0.3768290">
        <ele>261.3</ele>
        <time>2020-08-07T10:48:27Z</time>
      </trkpt>
      <trkpt lat="41.0097930" lon="0.3768840">
        <ele>261.5</ele>
        <time>2020-08-07T10:48:29Z</time>
      </trkpt>
      <trkpt lat="41.0098030" lon="0.3769160">
        <ele>261.6</ele>
        <time>2020-08-07T10:48:30Z</time>
      </trkpt>
      <trkpt lat="41.0098230" lon="0.3769840">
        <ele>261.8</ele>
        <time>2020-08-07T10:48:32Z</time>
      </trkpt>
      <trkpt lat="41.0098340" lon="0.3770160">
        <ele>261.9</ele>
        <time>2020-08-07T10:48:33Z</time>
      </trkpt>
      <trkpt lat="41.0098540" lon="0.3770810">
        <ele>262.1</ele>
        <time>2020-08-07T10:48:35Z</time>
      </trkpt>
      <trkpt lat="41.0098680" lon="0.3771270">
        <ele>262.3</ele>
        <time>2020-08-07T10:48:36Z</time>
      </trkpt>
      <trkpt lat="41.0098710" lon="0.3771410">
        <ele>262.3</ele>
        <time>2020-08-07T10:48:37Z</time>
      </trkpt>
      <trkpt lat="41.0098910" lon="0.3772070">
        <ele>262.6</ele>
        <time>2020-08-07T10:48:39Z</time>
      </trkpt>
      <trkpt lat="41.0099020" lon="0.3772380">
        <ele>262.7</ele>
        <time>2020-08-07T10:48:40Z</time>
      </trkpt>
      <trkpt lat="41.0099210" lon="0.3773010">
        <ele>262.9</ele>
        <time>2020-08-07T10:48:42Z</time>
      </trkpt>
      <trkpt lat="41.0099320" lon="0.3773490">
        <ele>263.1</ele>
        <time>2020-08-07T10:48:43Z</time>
      </trkpt>
      <trkpt lat="41.0099350" lon="0.3773650">
        <ele>263.2</ele>
        <time>2020-08-07T10:48:44Z</time>
      </trkpt>
      <trkpt lat="41.0099440" lon="0.3774300">
        <ele>263.4</ele>
        <time>2020-08-07T10:48:46Z</time>
      </trkpt>
      <trkpt lat="41.0099450" lon="0.3774780">
        <ele>263.6</ele>
        <time>2020-08-07T10:48:47Z</time>
      </trkpt>
      <trkpt lat="41.0099450" lon="0.3774940">
        <ele>263.7</ele>
        <time>2020-08-07T10:48:48Z</time>
      </trkpt>
      <trkpt lat="41.0099430" lon="0.3775420">
        <ele>263.9</ele>
        <time>2020-08-07T10:48:49Z</time>
      </trkpt>
      <trkpt lat="41.0099410" lon="0.3775580">
        <ele>263.9</ele>
        <time>2020-08-07T10:48:50Z</time>
      </trkpt>
      <trkpt lat="41.0099390" lon="0.3775900">
        <ele>264.0</ele>
        <time>2020-08-07T10:48:51Z</time>
      </trkpt>
      <trkpt lat="41.0099320" lon="0.3776540">
        <ele>264.2</ele>
        <time>2020-08-07T10:48:53Z</time>
      </trkpt>
      <trkpt lat="41.0099200" lon="0.3777170">
        <ele>264.4</ele>
        <time>2020-08-07T10:48:55Z</time>
      </trkpt>
      <trkpt lat="41.0099020" lon="0.3777770">
        <ele>264.6</ele>
        <time>2020-08-07T10:48:57Z</time>
      </trkpt>
      <trkpt lat="41.0098900" lon="0.3778090">
        <ele>264.7</ele>
        <time>2020-08-07T10:48:58Z</time>
      </trkpt>
      <trkpt lat="41.0098620" lon="0.3778570">
        <ele>264.8</ele>
        <time>2020-08-07T10:49:00Z</time>
      </trkpt>
      <trkpt lat="41.0098410" lon="0.3778870">
        <ele>264.9</ele>
        <time>2020-08-07T10:49:01Z</time>
      </trkpt>
      <trkpt lat="41.0098180" lon="0.3779090">
        <ele>265.0</ele>
        <time>2020-08-07T10:49:02Z</time>
      </trkpt>
      <trkpt lat="41.0097720" lon="0.3779430">
        <ele>265.2</ele>
        <time>2020-08-07T10:49:04Z</time>
      </trkpt>
      <trkpt lat="41.0097480" lon="0.3779600">
        <ele>265.3</ele>
        <time>2020-08-07T10:49:05Z</time>
      </trkpt>
      <trkpt lat="41.0097250" lon="0.3779760">
        <ele>265.4</ele>
        <time>2020-08-07T10:49:06Z</time>
      </trkpt>
      <trkpt lat="41.0096780" lon="0.3780060">
        <ele>265.6</ele>
        <time>2020-08-07T10:49:08Z</time>
      </trkpt>
      <trkpt lat="41.0096320" lon="0.3780380">
        <ele>265.8</ele>
        <time>2020-08-07T10:49:10Z</time>
      </trkpt>
      <trkpt lat="41.0096080" lon="0.3780540">
        <ele>265.9</ele>
        <time>2020-08-07T10:49:11Z</time>
      </trkpt>
      <trkpt lat="41.0095650" lon="0.3780840">
        <ele>266.1</ele>
        <time>2020-08-07T10:49:13Z</time>
      </trkpt>
      <trkpt lat="41.0095210" lon="0.3781150">
        <ele>266.3</ele>
        <time>2020-08-07T10:49:15Z</time>
      </trkpt>
      <trkpt lat="41.0094950" lon="0.3781340">
        <ele>266.4</ele>
        <time>2020-08-07T10:49:16Z</time>
      </trkpt>
      <trkpt lat="41.0094660" lon="0.3781530">
        <ele>266.6</ele>
        <time>2020-08-07T10:49:17Z</time>
      </trkpt>
      <trkpt lat="41.0094160" lon="0.3781880">
        <ele>266.9</ele>
        <time>2020-08-07T10:49:19Z</time>
      </trkpt>
      <trkpt lat="41.0093680" lon="0.3782260">
        <ele>267.2</ele>
        <time>2020-08-07T10:49:21Z</time>
      </trkpt>
      <trkpt lat="41.0093280" lon="0.3782630">
        <ele>267.6</ele>
        <time>2020-08-07T10:49:23Z</time>
      </trkpt>
      <trkpt lat="41.0093020" lon="0.3782900">
        <ele>267.8</ele>
        <time>2020-08-07T10:49:24Z</time>
      </trkpt>
      <trkpt lat="41.0092940" lon="0.3782980">
        <ele>267.9</ele>
        <time>2020-08-07T10:49:25Z</time>
      </trkpt>
      <trkpt lat="41.0092780" lon="0.3783150">
        <ele>268.0</ele>
        <time>2020-08-07T10:49:26Z</time>
      </trkpt>
      <trkpt lat="41.0092500" lon="0.3783500">
        <ele>268.3</ele>
        <time>2020-08-07T10:49:28Z</time>
      </trkpt>
      <trkpt lat="41.0092270" lon="0.3783850">
        <ele>268.6</ele>
        <time>2020-08-07T10:49:30Z</time>
      </trkpt>
      <trkpt lat="41.0092130" lon="0.3784070">
        <ele>268.7</ele>
        <time>2020-08-07T10:49:31Z</time>
      </trkpt>
      <trkpt lat="41.0091890" lon="0.3784580">
        <ele>269.0</ele>
        <time>2020-08-07T10:49:33Z</time>
      </trkpt>
      <trkpt lat="41.0091770" lon="0.3784950">
        <ele>269.2</ele>
        <time>2020-08-07T10:49:34Z</time>
      </trkpt>
      <trkpt lat="41.0091730" lon="0.3785100">
        <ele>269.3</ele>
        <time>2020-08-07T10:49:35Z</time>
      </trkpt>
      <trkpt lat="41.0091660" lon="0.3785500">
        <ele>269.5</ele>
        <time>2020-08-07T10:49:36Z</time>
      </trkpt>
      <trkpt lat="41.0091630" lon="0.3785660">
        <ele>269.6</ele>
        <time>2020-08-07T10:49:37Z</time>
      </trkpt>
      <trkpt lat="41.0091550" lon="0.3786230">
        <ele>269.9</ele>
        <time>2020-08-07T10:49:39Z</time>
      </trkpt>
      <trkpt lat="41.0091520" lon="0.3786800">
        <ele>270.1</ele>
        <time>2020-08-07T10:49:41Z</time>
      </trkpt>
      <trkpt lat="41.0091520" lon="0.3787290">
        <ele>270.4</ele>
        <time>2020-08-07T10:49:42Z</time>
      </trkpt>
      <trkpt lat="41.0091530" lon="0.3787450">
        <ele>270.4</ele>
        <time>2020-08-07T10:49:43Z</time>
      </trkpt>
      <trkpt lat="41.0091620" lon="0.3788070">
        <ele>270.7</ele>
        <time>2020-08-07T10:49:45Z</time>
      </trkpt>
      <trkpt lat="41.0091680" lon="0.3788380">
        <ele>270.8</ele>
        <time>2020-08-07T10:49:46Z</time>
      </trkpt>
      <trkpt lat="41.0091850" lon="0.3788930">
        <ele>271.1</ele>
        <time>2020-08-07T10:49:48Z</time>
      </trkpt>
      <trkpt lat="41.0091950" lon="0.3789260">
        <ele>271.2</ele>
        <time>2020-08-07T10:49:49Z</time>
      </trkpt>
      <trkpt lat="41.0092130" lon="0.3789830">
        <ele>271.5</ele>
        <time>2020-08-07T10:49:51Z</time>
      </trkpt>
      <trkpt lat="41.0092380" lon="0.3790430">
        <ele>271.8</ele>
        <time>2020-08-07T10:49:53Z</time>
      </trkpt>
      <trkpt lat="41.0092630" lon="0.3790970">
        <ele>272.2</ele>
        <time>2020-08-07T10:49:55Z</time>
      </trkpt>
      <trkpt lat="41.0092800" lon="0.3791370">
        <ele>272.4</ele>
        <time>2020-08-07T10:49:56Z</time>
      </trkpt>
      <trkpt lat="41.0092850" lon="0.3791510">
        <ele>272.5</ele>
        <time>2020-08-07T10:49:57Z</time>
      </trkpt>
      <trkpt lat="41.0093020" lon="0.3791910">
        <ele>272.7</ele>
        <time>2020-08-07T10:49:58Z</time>
      </trkpt>
      <trkpt lat="41.0093070" lon="0.3792050">
        <ele>272.8</ele>
        <time>2020-08-07T10:49:59Z</time>
      </trkpt>
      <trkpt lat="41.0093180" lon="0.3792300">
        <ele>272.9</ele>
        <time>2020-08-07T10:50:00Z</time>
      </trkpt>
      <trkpt lat="41.0093400" lon="0.3792800">
        <ele>273.2</ele>
        <time>2020-08-07T10:50:02Z</time>
      </trkpt>
      <trkpt lat="41.0093570" lon="0.3793150">
        <ele>273.4</ele>
        <time>2020-08-07T10:50:03Z</time>
      </trkpt>
      <trkpt lat="41.0093620" lon="0.3793270">
        <ele>273.5</ele>
        <time>2020-08-07T10:50:04Z</time>
      </trkpt>
      <trkpt lat="41.0093770" lon="0.3793610">
        <ele>273.7</ele>
        <time>2020-08-07T10:50:05Z</time>
      </trkpt>
      <trkpt lat="41.0093820" lon="0.3793730">
        <ele>273.8</ele>
        <time>2020-08-07T10:50:06Z</time>
      </trkpt>
      <trkpt lat="41.0093990" lon="0.3794070">
        <ele>274.0</ele>
        <time>2020-08-07T10:50:07Z</time>
      </trkpt>
      <trkpt lat="41.0094040" lon="0.3794190">
        <ele>274.1</ele>
        <time>2020-08-07T10:50:08Z</time>
      </trkpt>
      <trkpt lat="41.0094110" lon="0.3794350">
        <ele>274.2</ele>
        <time>2020-08-07T10:50:09Z</time>
      </trkpt>
      <trkpt lat="41.0094320" lon="0.3794870">
        <ele>274.6</ele>
        <time>2020-08-07T10:50:11Z</time>
      </trkpt>
      <trkpt lat="41.0094450" lon="0.3795280">
        <ele>274.8</ele>
        <time>2020-08-07T10:50:12Z</time>
      </trkpt>
      <trkpt lat="41.0094490" lon="0.3795420">
        <ele>274.9</ele>
        <time>2020-08-07T10:50:13Z</time>
      </trkpt>
      <trkpt lat="41.0094610" lon="0.3795830">
        <ele>275.1</ele>
        <time>2020-08-07T10:50:14Z</time>
      </trkpt>
      <trkpt lat="41.0094650" lon="0.3795970">
        <ele>275.2</ele>
        <time>2020-08-07T10:50:15Z</time>
      </trkpt>
      <trkpt lat="41.0094780" lon="0.3796460">
        <ele>275.5</ele>
        <time>2020-08-07T10:50:17Z</time>
      </trkpt>
      <trkpt lat="41.0094880" lon="0.3796870">
        <ele>275.7</ele>
        <time>2020-08-07T10:50:18Z</time>
      </trkpt>
      <trkpt lat="41.0094920" lon="0.3797030">
        <ele>275.8</ele>
        <time>2020-08-07T10:50:19Z</time>
      </trkpt>
      <trkpt lat="41.0094970" lon="0.3797270">
        <ele>276.0</ele>
        <time>2020-08-07T10:50:20Z</time>
      </trkpt>
      <trkpt lat="41.0095110" lon="0.3797780">
        <ele>276.3</ele>
        <time>2020-08-07T10:50:22Z</time>
      </trkpt>
      <trkpt lat="41.0095190" lon="0.3798340">
        <ele>276.5</ele>
        <time>2020-08-07T10:50:24Z</time>
      </trkpt>
      <trkpt lat="41.0095210" lon="0.3798710">
        <ele>276.7</ele>
        <time>2020-08-07T10:50:25Z</time>
      </trkpt>
      <trkpt lat="41.0095240" lon="0.3799430">
        <ele>277.0</ele>
        <time>2020-08-07T10:50:27Z</time>
      </trkpt>
      <trkpt lat="41.0095260" lon="0.3799770">
        <ele>277.2</ele>
        <time>2020-08-07T10:50:28Z</time>
      </trkpt>
      <trkpt lat="41.0095300" lon="0.3800330">
        <ele>277.4</ele>
        <time>2020-08-07T10:50:30Z</time>
      </trkpt>
      <trkpt lat="41.0095360" lon="0.3800780">
        <ele>277.7</ele>
        <time>2020-08-07T10:50:31Z</time>
      </trkpt>
      <trkpt lat="41.0095380" lon="0.3800970">
        <ele>277.8</ele>
        <time>2020-08-07T10:50:32Z</time>
      </trkpt>
      <trkpt lat="41.0095430" lon="0.3801320">
        <ele>277.9</ele>
        <time>2020-08-07T10:50:33Z</time>
      </trkpt>
      <trkpt lat="41.0095480" lon="0.3802000">
        <ele>278.2</ele>
        <time>2020-08-07T10:50:35Z</time>
      </trkpt>
      <trkpt lat="41.0095490" lon="0.3802360">
        <ele>278.4</ele>
        <time>2020-08-07T10:50:36Z</time>
      </trkpt>
      <trkpt lat="41.0095480" lon="0.3802720">
        <ele>278.6</ele>
        <time>2020-08-07T10:50:37Z</time>
      </trkpt>
      <trkpt lat="41.0095460" lon="0.3803080">
        <ele>278.7</ele>
        <time>2020-08-07T10:50:38Z</time>
      </trkpt>
      <trkpt lat="41.0095390" lon="0.3803580">
        <ele>279.0</ele>
        <time>2020-08-07T10:50:39Z</time>
      </trkpt>
      <trkpt lat="41.0095360" lon="0.3803770">
        <ele>279.1</ele>
        <time>2020-08-07T10:50:40Z</time>
      </trkpt>
      <trkpt lat="41.0095230" lon="0.3804460">
        <ele>279.4</ele>
        <time>2020-08-07T10:50:42Z</time>
      </trkpt>
      <trkpt lat="41.0095060" lon="0.3804930">
        <ele>279.6</ele>
        <time>2020-08-07T10:50:43Z</time>
      </trkpt>
      <trkpt lat="41.0094990" lon="0.3805070">
        <ele>279.7</ele>
        <time>2020-08-07T10:50:44Z</time>
      </trkpt>
      <trkpt lat="41.0094700" lon="0.3805570">
        <ele>280.0</ele>
        <time>2020-08-07T10:50:46Z</time>
      </trkpt>
      <trkpt lat="41.0094490" lon="0.3805940">
        <ele>280.3</ele>
        <time>2020-08-07T10:50:48Z</time>
      </trkpt>
      <trkpt lat="41.0094270" lon="0.3806340">
        <ele>280.5</ele>
        <time>2020-08-07T10:50:50Z</time>
      </trkpt>
      <trkpt lat="41.0094010" lon="0.3806780">
        <ele>280.8</ele>
        <time>2020-08-07T10:50:52Z</time>
      </trkpt>
      <trkpt lat="41.0093810" lon="0.3807070">
        <ele>281.0</ele>
        <time>2020-08-07T10:50:53Z</time>
      </trkpt>
      <trkpt lat="41.0093740" lon="0.3807160">
        <ele>281.1</ele>
        <time>2020-08-07T10:50:54Z</time>
      </trkpt>
      <trkpt lat="41.0093480" lon="0.3807530">
        <ele>281.4</ele>
        <time>2020-08-07T10:50:56Z</time>
      </trkpt>
      <trkpt lat="41.0093350" lon="0.3807720">
        <ele>281.5</ele>
        <time>2020-08-07T10:50:57Z</time>
      </trkpt>
      <trkpt lat="41.0093120" lon="0.3808120">
        <ele>281.8</ele>
        <time>2020-08-07T10:50:59Z</time>
      </trkpt>
      <trkpt lat="41.0092990" lon="0.3808310">
        <ele>282.0</ele>
        <time>2020-08-07T10:51:00Z</time>
      </trkpt>
      <trkpt lat="41.0092780" lon="0.3808690">
        <ele>282.2</ele>
        <time>2020-08-07T10:51:02Z</time>
      </trkpt>
      <trkpt lat="41.0092610" lon="0.3808970">
        <ele>282.5</ele>
        <time>2020-08-07T10:51:03Z</time>
      </trkpt>
      <trkpt lat="41.0092540" lon="0.3809050">
        <ele>282.5</ele>
        <time>2020-08-07T10:51:04Z</time>
      </trkpt>
      <trkpt lat="41.0092280" lon="0.3809400">
        <ele>282.9</ele>
        <time>2020-08-07T10:51:06Z</time>
      </trkpt>
      <trkpt lat="41.0092070" lon="0.3809770">
        <ele>283.2</ele>
        <time>2020-08-07T10:51:08Z</time>
      </trkpt>
      <trkpt lat="41.0091970" lon="0.3809960">
        <ele>283.3</ele>
        <time>2020-08-07T10:51:09Z</time>
      </trkpt>
      <trkpt lat="41.0091790" lon="0.3810290">
        <ele>283.6</ele>
        <time>2020-08-07T10:51:11Z</time>
      </trkpt>
      <trkpt lat="41.0091620" lon="0.3810630">
        <ele>283.9</ele>
        <time>2020-08-07T10:51:12Z</time>
      </trkpt>
      <trkpt lat="41.0091570" lon="0.3810740">
        <ele>284.0</ele>
        <time>2020-08-07T10:51:13Z</time>
      </trkpt>
      <trkpt lat="41.0091360" lon="0.3811140">
        <ele>284.3</ele>
        <time>2020-08-07T10:51:15Z</time>
      </trkpt>
      <trkpt lat="41.0091250" lon="0.3811330">
        <ele>284.4</ele>
        <time>2020-08-07T10:51:16Z</time>
      </trkpt>
      <trkpt lat="41.0091150" lon="0.3811520">
        <ele>284.6</ele>
        <time>2020-08-07T10:51:17Z</time>
      </trkpt>
      <trkpt lat="41.0090970" lon="0.3811940">
        <ele>284.8</ele>
        <time>2020-08-07T10:51:19Z</time>
      </trkpt>
      <trkpt lat="41.0090810" lon="0.3812370">
        <ele>285.1</ele>
        <time>2020-08-07T10:51:21Z</time>
      </trkpt>
      <trkpt lat="41.0090720" lon="0.3812720">
        <ele>285.3</ele>
        <time>2020-08-07T10:51:22Z</time>
      </trkpt>
      <trkpt lat="41.0090680" lon="0.3812840">
        <ele>285.3</ele>
        <time>2020-08-07T10:51:23Z</time>
      </trkpt>
      <trkpt lat="41.0090600" lon="0.3813200">
        <ele>285.4</ele>
        <time>2020-08-07T10:51:24Z</time>
      </trkpt>
      <trkpt lat="41.0090580" lon="0.3813310">
        <ele>285.5</ele>
        <time>2020-08-07T10:51:25Z</time>
      </trkpt>
      <trkpt lat="41.0090540" lon="0.3813530">
        <ele>285.5</ele>
        <time>2020-08-07T10:51:26Z</time>
      </trkpt>
      <trkpt lat="41.0090510" lon="0.3813720">
        <ele>285.6</ele>
        <time>2020-08-07T10:51:27Z</time>
      </trkpt>
      <trkpt lat="41.0090460" lon="0.3814080">
        <ele>285.7</ele>
        <time>2020-08-07T10:51:29Z</time>
      </trkpt>
      <trkpt lat="41.0090440" lon="0.3814390">
        <ele>286.0</ele>
        <time>2020-08-07T10:51:31Z</time>
      </trkpt>
      <trkpt lat="41.0090450" lon="0.3814510">
        <ele>286.0</ele>
        <time>2020-08-07T10:51:32Z</time>
      </trkpt>
      <trkpt lat="41.0090470" lon="0.3815060">
        <ele>286.4</ele>
        <time>2020-08-07T10:51:34Z</time>
      </trkpt>
      <trkpt lat="41.0090490" lon="0.3815330">
        <ele>286.6</ele>
        <time>2020-08-07T10:51:35Z</time>
      </trkpt>
      <trkpt lat="41.0090500" lon="0.3815840">
        <ele>286.9</ele>
        <time>2020-08-07T10:51:37Z</time>
      </trkpt>
      <trkpt lat="41.0090490" lon="0.3816070">
        <ele>287.1</ele>
        <time>2020-08-07T10:51:38Z</time>
      </trkpt>
      <trkpt lat="41.0090470" lon="0.3816550">
        <ele>287.4</ele>
        <time>2020-08-07T10:51:40Z</time>
      </trkpt>
      <trkpt lat="41.0090460" lon="0.3816780">
        <ele>287.5</ele>
        <time>2020-08-07T10:51:41Z</time>
      </trkpt>
      <trkpt lat="41.0090450" lon="0.3817030">
        <ele>287.6</ele>
        <time>2020-08-07T10:51:42Z</time>
      </trkpt>
      <trkpt lat="41.0090440" lon="0.3817280">
        <ele>287.8</ele>
        <time>2020-08-07T10:51:43Z</time>
      </trkpt>
      <trkpt lat="41.0090470" lon="0.3817790">
        <ele>288.1</ele>
        <time>2020-08-07T10:51:45Z</time>
      </trkpt>
      <trkpt lat="41.0090490" lon="0.3818320">
        <ele>288.3</ele>
        <time>2020-08-07T10:51:47Z</time>
      </trkpt>
      <trkpt lat="41.0090490" lon="0.3818740">
        <ele>288.5</ele>
        <time>2020-08-07T10:51:49Z</time>
      </trkpt>
      <trkpt lat="41.0090420" lon="0.3818890">
        <ele>288.6</ele>
        <time>2020-08-07T10:51:50Z</time>
      </trkpt>
      <trkpt lat="41.0090220" lon="0.3819130">
        <ele>288.8</ele>
        <time>2020-08-07T10:51:52Z</time>
      </trkpt>
      <trkpt lat="41.0090050" lon="0.3819170">
        <ele>288.7</ele>
        <time>2020-08-07T10:51:53Z</time>
      </trkpt>
      <trkpt lat="41.0089870" lon="0.3819210">
        <ele>288.7</ele>
        <time>2020-08-07T10:51:54Z</time>
      </trkpt>
      <trkpt lat="41.0089460" lon="0.3819200">
        <ele>288.5</ele>
        <time>2020-08-07T10:51:56Z</time>
      </trkpt>
      <trkpt lat="41.0089340" lon="0.3819180">
        <ele>288.5</ele>
        <time>2020-08-07T10:51:57Z</time>
      </trkpt>
      <trkpt lat="41.0089380" lon="0.3819140">
        <ele>288.5</ele>
        <time>2020-08-07T10:51:59Z</time>
      </trkpt>
      <trkpt lat="41.0089360" lon="0.3819130">
        <ele>288.5</ele>
        <time>2020-08-07T10:52:00Z</time>
      </trkpt>
      <trkpt lat="41.0089290" lon="0.3819140">
        <ele>288.4</ele>
        <time>2020-08-07T10:52:01Z</time>
      </trkpt>
      <trkpt lat="41.0089180" lon="0.3819140">
        <ele>288.4</ele>
        <time>2020-08-07T10:52:02Z</time>
      </trkpt>
      <trkpt lat="41.0088840" lon="0.3819180">
        <ele>288.3</ele>
        <time>2020-08-07T10:52:04Z</time>
      </trkpt>
      <trkpt lat="41.0088680" lon="0.3819190">
        <ele>288.2</ele>
        <time>2020-08-07T10:52:05Z</time>
      </trkpt>
      <trkpt lat="41.0088490" lon="0.3819190">
        <ele>288.1</ele>
        <time>2020-08-07T10:52:06Z</time>
      </trkpt>
      <trkpt lat="41.0087970" lon="0.3819190">
        <ele>287.9</ele>
        <time>2020-08-07T10:52:08Z</time>
      </trkpt>
      <trkpt lat="41.0087580" lon="0.3819180">
        <ele>287.8</ele>
        <time>2020-08-07T10:52:09Z</time>
      </trkpt>
      <trkpt lat="41.0087440" lon="0.3819180">
        <ele>287.7</ele>
        <time>2020-08-07T10:52:10Z</time>
      </trkpt>
      <trkpt lat="41.0086920" lon="0.3819160">
        <ele>287.5</ele>
        <time>2020-08-07T10:52:12Z</time>
      </trkpt>
      <trkpt lat="41.0086700" lon="0.3819150">
        <ele>287.4</ele>
        <time>2020-08-07T10:52:13Z</time>
      </trkpt>
      <trkpt lat="41.0086130" lon="0.3819120">
        <ele>287.0</ele>
        <time>2020-08-07T10:52:15Z</time>
      </trkpt>
      <trkpt lat="41.0085450" lon="0.3819100">
        <ele>286.7</ele>
        <time>2020-08-07T10:52:17Z</time>
      </trkpt>
      <trkpt lat="41.0085070" lon="0.3819100">
        <ele>286.5</ele>
        <time>2020-08-07T10:52:18Z</time>
      </trkpt>
      <trkpt lat="41.0084730" lon="0.3819110">
        <ele>286.3</ele>
        <time>2020-08-07T10:52:19Z</time>
      </trkpt>
      <trkpt lat="41.0083970" lon="0.3819210">
        <ele>285.8</ele>
        <time>2020-08-07T10:52:21Z</time>
      </trkpt>
      <trkpt lat="41.0083620" lon="0.3819300">
        <ele>285.6</ele>
        <time>2020-08-07T10:52:22Z</time>
      </trkpt>
      <trkpt lat="41.0082790" lon="0.3819480">
        <ele>285.2</ele>
        <time>2020-08-07T10:52:24Z</time>
      </trkpt>
      <trkpt lat="41.0082330" lon="0.3819540">
        <ele>284.9</ele>
        <time>2020-08-07T10:52:25Z</time>
      </trkpt>
      <trkpt lat="41.0081960" lon="0.3819620">
        <ele>284.6</ele>
        <time>2020-08-07T10:52:26Z</time>
      </trkpt>
      <trkpt lat="41.0081640" lon="0.3819740">
        <ele>284.4</ele>
        <time>2020-08-07T10:52:27Z</time>
      </trkpt>
      <trkpt lat="41.0081300" lon="0.3820000">
        <ele>284.1</ele>
        <time>2020-08-07T10:52:28Z</time>
      </trkpt>
      <trkpt lat="41.0081030" lon="0.3820410">
        <ele>283.8</ele>
        <time>2020-08-07T10:52:29Z</time>
      </trkpt>
      <trkpt lat="41.0080670" lon="0.3821530">
        <ele>283.2</ele>
        <time>2020-08-07T10:52:31Z</time>
      </trkpt>
      <trkpt lat="41.0080600" lon="0.3822950">
        <ele>282.6</ele>
        <time>2020-08-07T10:52:33Z</time>
      </trkpt>
      <trkpt lat="41.0080480" lon="0.3824250">
        <ele>282.0</ele>
        <time>2020-08-07T10:52:35Z</time>
      </trkpt>
      <trkpt lat="41.0080370" lon="0.3824920">
        <ele>281.8</ele>
        <time>2020-08-07T10:52:36Z</time>
      </trkpt>
      <trkpt lat="41.0080230" lon="0.3825520">
        <ele>281.6</ele>
        <time>2020-08-07T10:52:37Z</time>
      </trkpt>
      <trkpt lat="41.0080130" lon="0.3825960">
        <ele>281.4</ele>
        <time>2020-08-07T10:52:38Z</time>
      </trkpt>
      <trkpt lat="41.0080020" lon="0.3826450">
        <ele>281.2</ele>
        <time>2020-08-07T10:52:39Z</time>
      </trkpt>
      <trkpt lat="41.0079910" lon="0.3827250">
        <ele>280.9</ele>
        <time>2020-08-07T10:52:41Z</time>
      </trkpt>
      <trkpt lat="41.0079820" lon="0.3827720">
        <ele>280.7</ele>
        <time>2020-08-07T10:52:42Z</time>
      </trkpt>
      <trkpt lat="41.0079640" lon="0.3828110">
        <ele>280.5</ele>
        <time>2020-08-07T10:52:43Z</time>
      </trkpt>
      <trkpt lat="41.0079210" lon="0.3828990">
        <ele>280.1</ele>
        <time>2020-08-07T10:52:45Z</time>
      </trkpt>
      <trkpt lat="41.0078700" lon="0.3830300">
        <ele>279.5</ele>
        <time>2020-08-07T10:52:47Z</time>
      </trkpt>
      <trkpt lat="41.0078450" lon="0.3830980">
        <ele>279.2</ele>
        <time>2020-08-07T10:52:48Z</time>
      </trkpt>
      <trkpt lat="41.0078190" lon="0.3831670">
        <ele>278.8</ele>
        <time>2020-08-07T10:52:49Z</time>
      </trkpt>
      <trkpt lat="41.0077940" lon="0.3832380">
        <ele>278.3</ele>
        <time>2020-08-07T10:52:50Z</time>
      </trkpt>
      <trkpt lat="41.0077680" lon="0.3833140">
        <ele>277.8</ele>
        <time>2020-08-07T10:52:51Z</time>
      </trkpt>
      <trkpt lat="41.0077390" lon="0.3833910">
        <ele>277.4</ele>
        <time>2020-08-07T10:52:52Z</time>
      </trkpt>
      <trkpt lat="41.0076780" lon="0.3835540">
        <ele>276.2</ele>
        <time>2020-08-07T10:52:54Z</time>
      </trkpt>
      <trkpt lat="41.0076320" lon="0.3837280">
        <ele>275.0</ele>
        <time>2020-08-07T10:52:56Z</time>
      </trkpt>
      <trkpt lat="41.0076170" lon="0.3838230">
        <ele>274.4</ele>
        <time>2020-08-07T10:52:57Z</time>
      </trkpt>
      <trkpt lat="41.0076150" lon="0.3839240">
        <ele>273.8</ele>
        <time>2020-08-07T10:52:58Z</time>
      </trkpt>
      <trkpt lat="41.0076290" lon="0.3841060">
        <ele>272.8</ele>
        <time>2020-08-07T10:53:00Z</time>
      </trkpt>
      <trkpt lat="41.0076220" lon="0.3841860">
        <ele>272.3</ele>
        <time>2020-08-07T10:53:01Z</time>
      </trkpt>
      <trkpt lat="41.0075940" lon="0.3842490">
        <ele>271.9</ele>
        <time>2020-08-07T10:53:02Z</time>
      </trkpt>
      <trkpt lat="41.0075540" lon="0.3842870">
        <ele>271.5</ele>
        <time>2020-08-07T10:53:03Z</time>
      </trkpt>
      <trkpt lat="41.0075060" lon="0.3843060">
        <ele>271.0</ele>
        <time>2020-08-07T10:53:04Z</time>
      </trkpt>
      <trkpt lat="41.0074120" lon="0.3843170">
        <ele>270.2</ele>
        <time>2020-08-07T10:53:06Z</time>
      </trkpt>
      <trkpt lat="41.0073830" lon="0.3843290">
        <ele>269.8</ele>
        <time>2020-08-07T10:53:07Z</time>
      </trkpt>
      <trkpt lat="41.0073350" lon="0.3843790">
        <ele>269.6</ele>
        <time>2020-08-07T10:53:09Z</time>
      </trkpt>
      <trkpt lat="41.0073140" lon="0.3844070">
        <ele>269.5</ele>
        <time>2020-08-07T10:53:10Z</time>
      </trkpt>
      <trkpt lat="41.0072840" lon="0.3844620">
        <ele>269.3</ele>
        <time>2020-08-07T10:53:12Z</time>
      </trkpt>
      <trkpt lat="41.0072900" lon="0.3844900">
        <ele>269.3</ele>
        <time>2020-08-07T10:53:13Z</time>
      </trkpt>
      <trkpt lat="41.0072450" lon="0.3844850">
        <ele>269.4</ele>
        <time>2020-08-07T10:53:15Z</time>
      </trkpt>
      <trkpt lat="41.0071900" lon="0.3844590">
        <ele>269.6</ele>
        <time>2020-08-07T10:53:16Z</time>
      </trkpt>
      <trkpt lat="41.0071550" lon="0.3844520">
        <ele>269.6</ele>
        <time>2020-08-07T10:53:18Z</time>
      </trkpt>
      <trkpt lat="41.0071280" lon="0.3844430">
        <ele>269.6</ele>
        <time>2020-08-07T10:53:19Z</time>
      </trkpt>
      <trkpt lat="41.0070910" lon="0.3844450">
        <ele>269.7</ele>
        <time>2020-08-07T10:53:20Z</time>
      </trkpt>
      <trkpt lat="41.0070760" lon="0.3844530">
        <ele>269.7</ele>
        <time>2020-08-07T10:53:21Z</time>
      </trkpt>
      <trkpt lat="41.0070620" lon="0.3844880">
        <ele>269.7</ele>
        <time>2020-08-07T10:53:23Z</time>
      </trkpt>
      <trkpt lat="41.0070570" lon="0.3845210">
        <ele>269.7</ele>
        <time>2020-08-07T10:53:24Z</time>
      </trkpt>
      <trkpt lat="41.0070570" lon="0.3845780">
        <ele>269.7</ele>
        <time>2020-08-07T10:53:26Z</time>
      </trkpt>
      <trkpt lat="41.0070530" lon="0.3846150">
        <ele>269.8</ele>
        <time>2020-08-07T10:53:27Z</time>
      </trkpt>
      <trkpt lat="41.0070490" lon="0.3846530">
        <ele>269.8</ele>
        <time>2020-08-07T10:53:28Z</time>
      </trkpt>
      <trkpt lat="41.0070490" lon="0.3846970">
        <ele>269.8</ele>
        <time>2020-08-07T10:53:29Z</time>
      </trkpt>
      <trkpt lat="41.0070490" lon="0.3847300">
        <ele>269.8</ele>
        <time>2020-08-07T10:53:30Z</time>
      </trkpt>
      <trkpt lat="41.0070460" lon="0.3847700">
        <ele>269.8</ele>
        <time>2020-08-07T10:53:32Z</time>
      </trkpt>
      <trkpt lat="41.0070440" lon="0.3848160">
        <ele>269.8</ele>
        <time>2020-08-07T10:53:33Z</time>
      </trkpt>
      <trkpt lat="41.0070420" lon="0.3848770">
        <ele>269.8</ele>
        <time>2020-08-07T10:53:35Z</time>
      </trkpt>
      <trkpt lat="41.0070400" lon="0.3849230">
        <ele>269.9</ele>
        <time>2020-08-07T10:53:36Z</time>
      </trkpt>
      <trkpt lat="41.0070380" lon="0.3849710">
        <ele>269.9</ele>
        <time>2020-08-07T10:53:37Z</time>
      </trkpt>
      <trkpt lat="41.0070380" lon="0.3850510">
        <ele>269.9</ele>
        <time>2020-08-07T10:53:39Z</time>
      </trkpt>
      <trkpt lat="41.0070410" lon="0.3850910">
        <ele>269.9</ele>
        <time>2020-08-07T10:53:40Z</time>
      </trkpt>
      <trkpt lat="41.0070440" lon="0.3851270">
        <ele>269.9</ele>
        <time>2020-08-07T10:53:41Z</time>
      </trkpt>
      <trkpt lat="41.0070450" lon="0.3851800">
        <ele>269.9</ele>
        <time>2020-08-07T10:53:43Z</time>
      </trkpt>
      <trkpt lat="41.0070460" lon="0.3852210">
        <ele>269.9</ele>
        <time>2020-08-07T10:53:44Z</time>
      </trkpt>
      <trkpt lat="41.0070490" lon="0.3852680">
        <ele>269.8</ele>
        <time>2020-08-07T10:53:45Z</time>
      </trkpt>
      <trkpt lat="41.0070520" lon="0.3853060">
        <ele>269.8</ele>
        <time>2020-08-07T10:53:46Z</time>
      </trkpt>
      <trkpt lat="41.0070550" lon="0.3853470">
        <ele>269.8</ele>
        <time>2020-08-07T10:53:47Z</time>
      </trkpt>
      <trkpt lat="41.0070560" lon="0.3853790">
        <ele>269.8</ele>
        <time>2020-08-07T10:53:48Z</time>
      </trkpt>
      <trkpt lat="41.0070600" lon="0.3854260">
        <ele>269.8</ele>
        <time>2020-08-07T10:53:50Z</time>
      </trkpt>
      <trkpt lat="41.0070700" lon="0.3854690">
        <ele>269.7</ele>
        <time>2020-08-07T10:53:51Z</time>
      </trkpt>
      <trkpt lat="41.0070710" lon="0.3854820">
        <ele>269.7</ele>
        <time>2020-08-07T10:53:52Z</time>
      </trkpt>
      <trkpt lat="41.0070710" lon="0.3854960">
        <ele>269.7</ele>
        <time>2020-08-07T10:53:53Z</time>
      </trkpt>
      <trkpt lat="41.0070720" lon="0.3855050">
        <ele>269.7</ele>
        <time>2020-08-07T10:53:55Z</time>
      </trkpt>
      <trkpt lat="41.0070730" lon="0.3855000">
        <ele>269.7</ele>
        <time>2020-08-07T10:53:56Z</time>
      </trkpt>
      <trkpt lat="41.0070720" lon="0.3854950">
        <ele>269.7</ele>
        <time>2020-08-07T10:53:57Z</time>
      </trkpt>
      <trkpt lat="41.0070710" lon="0.3854880">
        <ele>269.7</ele>
        <time>2020-08-07T10:53:59Z</time>
      </trkpt>
      <trkpt lat="41.0070700" lon="0.3854860">
        <ele>269.7</ele>
        <time>2020-08-07T10:54:00Z</time>
      </trkpt>
      <trkpt lat="41.0070700" lon="0.3854830">
        <ele>269.7</ele>
        <time>2020-08-07T10:54:02Z</time>
      </trkpt>
      <trkpt lat="41.0070700" lon="0.3854830">
        <ele>269.7</ele>
        <time>2020-08-07T10:54:03Z</time>
      </trkpt>
      <trkpt lat="41.0070920" lon="0.3855350">
        <ele>269.7</ele>
        <time>2020-08-07T10:54:11Z</time>
      </trkpt>
      <trkpt lat="41.0071050" lon="0.3855470">
        <ele>269.7</ele>
        <time>2020-08-07T10:54:12Z</time>
      </trkpt>
      <trkpt lat="41.0071180" lon="0.3855530">
        <ele>269.7</ele>
        <time>2020-08-07T10:54:13Z</time>
      </trkpt>
      <trkpt lat="41.0071470" lon="0.3855640">
        <ele>269.7</ele>
        <time>2020-08-07T10:54:15Z</time>
      </trkpt>
      <trkpt lat="41.0071560" lon="0.3855690">
        <ele>269.7</ele>
        <time>2020-08-07T10:54:16Z</time>
      </trkpt>
      <trkpt lat="41.0071680" lon="0.3855770">
        <ele>269.7</ele>
        <time>2020-08-07T10:54:17Z</time>
      </trkpt>
      <trkpt lat="41.0071840" lon="0.3855870">
        <ele>269.7</ele>
        <time>2020-08-07T10:54:19Z</time>
      </trkpt>
      <trkpt lat="41.0071980" lon="0.3855980">
        <ele>269.7</ele>
        <time>2020-08-07T10:54:20Z</time>
      </trkpt>
      <trkpt lat="41.0072050" lon="0.3856060">
        <ele>269.7</ele>
        <time>2020-08-07T10:54:21Z</time>
      </trkpt>
      <trkpt lat="41.0072120" lon="0.3856080">
        <ele>269.7</ele>
        <time>2020-08-07T10:54:22Z</time>
      </trkpt>
      <trkpt lat="41.0072150" lon="0.3856080">
        <ele>269.7</ele>
        <time>2020-08-07T10:54:23Z</time>
      </trkpt>
      <trkpt lat="41.0072250" lon="0.3856110">
        <ele>269.7</ele>
        <time>2020-08-07T10:54:25Z</time>
      </trkpt>
      <trkpt lat="41.0072300" lon="0.3856130">
        <ele>269.7</ele>
        <time>2020-08-07T10:54:26Z</time>
      </trkpt>
      <trkpt lat="41.0072380" lon="0.3856170">
        <ele>269.7</ele>
        <time>2020-08-07T10:54:28Z</time>
      </trkpt>
      <trkpt lat="41.0072400" lon="0.3856180">
        <ele>269.7</ele>
        <time>2020-08-07T10:54:29Z</time>
      </trkpt>
      <trkpt lat="41.0072410" lon="0.3856200">
        <ele>269.7</ele>
        <time>2020-08-07T10:54:31Z</time>
      </trkpt>
      <trkpt lat="41.0072420" lon="0.3856200">
        <ele>269.7</ele>
        <time>2020-08-07T10:54:32Z</time>
      </trkpt>
      <trkpt lat="41.0072420" lon="0.3856200">
        <ele>269.7</ele>
        <time>2020-08-07T10:54:33Z</time>
      </trkpt>
      <trkpt lat="41.0072420" lon="0.3856210">
        <ele>269.7</ele>
        <time>2020-08-07T10:54:34Z</time>
      </trkpt>
      <trkpt lat="41.0072430" lon="0.3856200">
        <ele>269.7</ele>
        <time>2020-08-07T10:54:36Z</time>
      </trkpt>
      <trkpt lat="41.0072680" lon="0.3856150">
        <ele>269.7</ele>
        <time>2020-08-07T10:55:08Z</time>
      </trkpt>
      <trkpt lat="41.0072750" lon="0.3856210">
        <ele>269.7</ele>
        <time>2020-08-07T10:55:09Z</time>
      </trkpt>
      <trkpt lat="41.0072790" lon="0.3856280">
        <ele>269.7</ele>
        <time>2020-08-07T10:55:10Z</time>
      </trkpt>
      <trkpt lat="41.0072820" lon="0.3856490">
        <ele>269.7</ele>
        <time>2020-08-07T10:55:12Z</time>
      </trkpt>
      <trkpt lat="41.0072860" lon="0.3856670">
        <ele>269.7</ele>
        <time>2020-08-07T10:55:13Z</time>
      </trkpt>
      <trkpt lat="41.0072850" lon="0.3856870">
        <ele>269.7</ele>
        <time>2020-08-07T10:55:14Z</time>
      </trkpt>
      <trkpt lat="41.0072790" lon="0.3857140">
        <ele>269.7</ele>
        <time>2020-08-07T10:55:15Z</time>
      </trkpt>
      <trkpt lat="41.0072780" lon="0.3857260">
        <ele>269.7</ele>
        <time>2020-08-07T10:55:17Z</time>
      </trkpt>
      <trkpt lat="41.0072770" lon="0.3857380">
        <ele>269.7</ele>
        <time>2020-08-07T10:55:18Z</time>
      </trkpt>
      <trkpt lat="41.0072770" lon="0.3857550">
        <ele>269.7</ele>
        <time>2020-08-07T10:55:19Z</time>
      </trkpt>
      <trkpt lat="41.0072660" lon="0.3857760">
        <ele>269.7</ele>
        <time>2020-08-07T10:55:20Z</time>
      </trkpt>
      <trkpt lat="41.0072590" lon="0.3857950">
        <ele>269.7</ele>
        <time>2020-08-07T10:55:22Z</time>
      </trkpt>
      <trkpt lat="41.0072520" lon="0.3858110">
        <ele>269.7</ele>
        <time>2020-08-07T10:55:23Z</time>
      </trkpt>
      <trkpt lat="41.0072490" lon="0.3858200">
        <ele>269.7</ele>
        <time>2020-08-07T10:55:24Z</time>
      </trkpt>
      <trkpt lat="41.0072430" lon="0.3858260">
        <ele>269.7</ele>
        <time>2020-08-07T10:55:26Z</time>
      </trkpt>
      <trkpt lat="41.0072400" lon="0.3858320">
        <ele>269.7</ele>
        <time>2020-08-07T10:55:28Z</time>
      </trkpt>
      <trkpt lat="41.0072420" lon="0.3858390">
        <ele>269.7</ele>
        <time>2020-08-07T10:55:29Z</time>
      </trkpt>
      <trkpt lat="41.0072430" lon="0.3858440">
        <ele>269.7</ele>
        <time>2020-08-07T10:55:31Z</time>
      </trkpt>
      <trkpt lat="41.0072430" lon="0.3858460">
        <ele>269.7</ele>
        <time>2020-08-07T10:55:33Z</time>
      </trkpt>
      <trkpt lat="41.0072420" lon="0.3858470">
        <ele>269.7</ele>
        <time>2020-08-07T10:55:35Z</time>
      </trkpt>
      <trkpt lat="41.0072410" lon="0.3858460">
        <ele>269.7</ele>
        <time>2020-08-07T10:55:36Z</time>
      </trkpt>
      <trkpt lat="41.0072400" lon="0.3858440">
        <ele>269.7</ele>
        <time>2020-08-07T10:55:38Z</time>
      </trkpt>
      <trkpt lat="41.0072390" lon="0.3858410">
        <ele>269.7</ele>
        <time>2020-08-07T10:55:39Z</time>
      </trkpt>
      <trkpt lat="41.0072290" lon="0.3858120">
        <ele>269.7</ele>
        <time>2020-08-07T10:56:39Z</time>
      </trkpt>
      <trkpt lat="41.0072280" lon="0.3858070">
        <ele>269.7</ele>
        <time>2020-08-07T10:56:40Z</time>
      </trkpt>
      <trkpt lat="41.0072280" lon="0.3858100">
        <ele>269.7</ele>
        <time>2020-08-07T10:56:42Z</time>
      </trkpt>
      <trkpt lat="41.0072280" lon="0.3858080">
        <ele>269.7</ele>
        <time>2020-08-07T10:56:43Z</time>
      </trkpt>
      <trkpt lat="41.0072270" lon="0.3857980">
        <ele>269.7</ele>
        <time>2020-08-07T10:56:45Z</time>
      </trkpt>
      <trkpt lat="41.0072260" lon="0.3857930">
        <ele>269.7</ele>
        <time>2020-08-07T10:56:46Z</time>
      </trkpt>
      <trkpt lat="41.0072250" lon="0.3857960">
        <ele>269.7</ele>
        <time>2020-08-07T10:56:48Z</time>
      </trkpt>
      <trkpt lat="41.0072240" lon="0.3857920">
        <ele>269.7</ele>
        <time>2020-08-07T10:56:49Z</time>
      </trkpt>
      <trkpt lat="41.0072240" lon="0.3857860">
        <ele>269.7</ele>
        <time>2020-08-07T10:56:50Z</time>
      </trkpt>
      <trkpt lat="41.0072210" lon="0.3857800">
        <ele>269.7</ele>
        <time>2020-08-07T10:56:52Z</time>
      </trkpt>
      <trkpt lat="41.0072190" lon="0.3857770">
        <ele>269.7</ele>
        <time>2020-08-07T10:56:53Z</time>
      </trkpt>
      <trkpt lat="41.0072180" lon="0.3857720">
        <ele>269.7</ele>
        <time>2020-08-07T10:56:54Z</time>
      </trkpt>
      <trkpt lat="41.0072190" lon="0.3857640">
        <ele>269.7</ele>
        <time>2020-08-07T10:56:56Z</time>
      </trkpt>
      <trkpt lat="41.0072200" lon="0.3857580">
        <ele>269.7</ele>
        <time>2020-08-07T10:56:57Z</time>
      </trkpt>
      <trkpt lat="41.0072230" lon="0.3857510">
        <ele>269.7</ele>
        <time>2020-08-07T10:56:59Z</time>
      </trkpt>
      <trkpt lat="41.0072240" lon="0.3857510">
        <ele>269.7</ele>
        <time>2020-08-07T10:57:00Z</time>
      </trkpt>
      <trkpt lat="41.0072250" lon="0.3857520">
        <ele>269.7</ele>
        <time>2020-08-07T10:57:01Z</time>
      </trkpt>
      <trkpt lat="41.0072260" lon="0.3857510">
        <ele>269.7</ele>
        <time>2020-08-07T10:57:02Z</time>
      </trkpt>
      <trkpt lat="41.0072280" lon="0.3857490">
        <ele>269.7</ele>
        <time>2020-08-07T10:57:04Z</time>
      </trkpt>
      <trkpt lat="41.0072280" lon="0.3857480">
        <ele>269.7</ele>
        <time>2020-08-07T10:57:06Z</time>
      </trkpt>
      <trkpt lat="41.0072290" lon="0.3857460">
        <ele>269.7</ele>
        <time>2020-08-07T10:57:08Z</time>
      </trkpt>
      <trkpt lat="41.0072380" lon="0.3856980">
        <ele>269.7</ele>
        <time>2020-08-07T10:57:16Z</time>
      </trkpt>
      <trkpt lat="41.0072470" lon="0.3856570">
        <ele>269.7</ele>
        <time>2020-08-07T10:57:18Z</time>
      </trkpt>
      <trkpt lat="41.0072480" lon="0.3856500">
        <ele>269.7</ele>
        <time>2020-08-07T10:57:19Z</time>
      </trkpt>
      <trkpt lat="41.0072470" lon="0.3856530">
        <ele>269.7</ele>
        <time>2020-08-07T10:57:21Z</time>
      </trkpt>
      <trkpt lat="41.0072470" lon="0.3856560">
        <ele>269.7</ele>
        <time>2020-08-07T10:57:23Z</time>
      </trkpt>
      <trkpt lat="41.0072460" lon="0.3856580">
        <ele>269.7</ele>
        <time>2020-08-07T10:57:25Z</time>
      </trkpt>
      <trkpt lat="41.0072460" lon="0.3856590">
        <ele>269.7</ele>
        <time>2020-08-07T10:57:27Z</time>
      </trkpt>
      <trkpt lat="41.0072460" lon="0.3856590">
        <ele>269.7</ele>
        <time>2020-08-07T10:57:28Z</time>
      </trkpt>
      <trkpt lat="41.0072460" lon="0.3856590">
        <ele>269.7</ele>
        <time>2020-08-07T10:57:30Z</time>
      </trkpt>
      <trkpt lat="41.0073120" lon="0.3856290">
        <ele>269.7</ele>
        <time>2020-08-07T11:34:25Z</time>
      </trkpt>
      <trkpt lat="41.0073210" lon="0.3856270">
        <ele>269.7</ele>
        <time>2020-08-07T11:34:26Z</time>
      </trkpt>
      <trkpt lat="41.0073300" lon="0.3856210">
        <ele>269.7</ele>
        <time>2020-08-07T11:34:27Z</time>
      </trkpt>
      <trkpt lat="41.0073370" lon="0.3855890">
        <ele>269.7</ele>
        <time>2020-08-07T11:34:29Z</time>
      </trkpt>
      <trkpt lat="41.0073400" lon="0.3855650">
        <ele>269.7</ele>
        <time>2020-08-07T11:34:30Z</time>
      </trkpt>
      <trkpt lat="41.0073410" lon="0.3855460">
        <ele>269.7</ele>
        <time>2020-08-07T11:34:31Z</time>
      </trkpt>
      <trkpt lat="41.0073400" lon="0.3855300">
        <ele>269.7</ele>
        <time>2020-08-07T11:34:32Z</time>
      </trkpt>
      <trkpt lat="41.0073330" lon="0.3854930">
        <ele>269.7</ele>
        <time>2020-08-07T11:34:34Z</time>
      </trkpt>
      <trkpt lat="41.0073300" lon="0.3854710">
        <ele>269.7</ele>
        <time>2020-08-07T11:34:35Z</time>
      </trkpt>
      <trkpt lat="41.0073300" lon="0.3854480">
        <ele>269.8</ele>
        <time>2020-08-07T11:34:36Z</time>
      </trkpt>
      <trkpt lat="41.0073300" lon="0.3853970">
        <ele>269.8</ele>
        <time>2020-08-07T11:34:38Z</time>
      </trkpt>
      <trkpt lat="41.0073300" lon="0.3853740">
        <ele>269.8</ele>
        <time>2020-08-07T11:34:39Z</time>
      </trkpt>
      <trkpt lat="41.0073250" lon="0.3853230">
        <ele>269.8</ele>
        <time>2020-08-07T11:34:41Z</time>
      </trkpt>
      <trkpt lat="41.0073130" lon="0.3852580">
        <ele>269.9</ele>
        <time>2020-08-07T11:34:43Z</time>
      </trkpt>
      <trkpt lat="41.0073090" lon="0.3852380">
        <ele>269.9</ele>
        <time>2020-08-07T11:34:44Z</time>
      </trkpt>
      <trkpt lat="41.0073060" lon="0.3852170">
        <ele>269.9</ele>
        <time>2020-08-07T11:34:45Z</time>
      </trkpt>
      <trkpt lat="41.0073030" lon="0.3851930">
        <ele>269.9</ele>
        <time>2020-08-07T11:34:46Z</time>
      </trkpt>
      <trkpt lat="41.0072940" lon="0.3851370">
        <ele>269.9</ele>
        <time>2020-08-07T11:34:48Z</time>
      </trkpt>
      <trkpt lat="41.0072870" lon="0.3850910">
        <ele>269.9</ele>
        <time>2020-08-07T11:34:49Z</time>
      </trkpt>
      <trkpt lat="41.0072850" lon="0.3850770">
        <ele>269.9</ele>
        <time>2020-08-07T11:34:50Z</time>
      </trkpt>
      <trkpt lat="41.0072740" lon="0.3850220">
        <ele>269.8</ele>
        <time>2020-08-07T11:34:52Z</time>
      </trkpt>
      <trkpt lat="41.0072650" lon="0.3849720">
        <ele>269.8</ele>
        <time>2020-08-07T11:34:54Z</time>
      </trkpt>
      <trkpt lat="41.0072590" lon="0.3849310">
        <ele>269.8</ele>
        <time>2020-08-07T11:34:55Z</time>
      </trkpt>
      <trkpt lat="41.0072560" lon="0.3849170">
        <ele>269.8</ele>
        <time>2020-08-07T11:34:56Z</time>
      </trkpt>
      <trkpt lat="41.0072300" lon="0.3848820">
        <ele>269.8</ele>
        <time>2020-08-07T11:34:58Z</time>
      </trkpt>
      <trkpt lat="41.0072140" lon="0.3848790">
        <ele>269.8</ele>
        <time>2020-08-07T11:34:59Z</time>
      </trkpt>
      <trkpt lat="41.0071950" lon="0.3848860">
        <ele>269.8</ele>
        <time>2020-08-07T11:35:00Z</time>
      </trkpt>
      <trkpt lat="41.0071870" lon="0.3849040">
        <ele>269.8</ele>
        <time>2020-08-07T11:35:01Z</time>
      </trkpt>
      <trkpt lat="41.0071760" lon="0.3849450">
        <ele>269.8</ele>
        <time>2020-08-07T11:35:03Z</time>
      </trkpt>
      <trkpt lat="41.0071740" lon="0.3849620">
        <ele>269.8</ele>
        <time>2020-08-07T11:35:04Z</time>
      </trkpt>
      <trkpt lat="41.0071750" lon="0.3849810">
        <ele>269.8</ele>
        <time>2020-08-07T11:35:06Z</time>
      </trkpt>
      <trkpt lat="41.0071780" lon="0.3849860">
        <ele>269.8</ele>
        <time>2020-08-07T11:35:07Z</time>
      </trkpt>
      <trkpt lat="41.0071790" lon="0.3849900">
        <ele>269.8</ele>
        <time>2020-08-07T11:35:09Z</time>
      </trkpt>
      <trkpt lat="41.0071800" lon="0.3849910">
        <ele>269.8</ele>
        <time>2020-08-07T11:35:11Z</time>
      </trkpt>
      <trkpt lat="41.0071800" lon="0.3849910">
        <ele>269.8</ele>
        <time>2020-08-07T11:35:12Z</time>
      </trkpt>
      <trkpt lat="41.0071790" lon="0.3849900">
        <ele>269.8</ele>
        <time>2020-08-07T11:35:13Z</time>
      </trkpt>
      <trkpt lat="41.0071790" lon="0.3849910">
        <ele>269.8</ele>
        <time>2020-08-07T11:35:14Z</time>
      </trkpt>
      <trkpt lat="41.0071790" lon="0.3849920">
        <ele>269.8</ele>
        <time>2020-08-07T11:35:16Z</time>
      </trkpt>
      <trkpt lat="41.0071780" lon="0.3849920">
        <ele>269.8</ele>
        <time>2020-08-07T11:35:17Z</time>
      </trkpt>
      <trkpt lat="41.0071890" lon="0.3849980">
        <ele>269.8</ele>
        <time>2020-08-07T11:36:51Z</time>
      </trkpt>
      <trkpt lat="41.0071920" lon="0.3849890">
        <ele>269.8</ele>
        <time>2020-08-07T11:36:52Z</time>
      </trkpt>
      <trkpt lat="41.0071900" lon="0.3849600">
        <ele>269.8</ele>
        <time>2020-08-07T11:36:54Z</time>
      </trkpt>
      <trkpt lat="41.0071900" lon="0.3849420">
        <ele>269.9</ele>
        <time>2020-08-07T11:36:55Z</time>
      </trkpt>
      <trkpt lat="41.0071920" lon="0.3849270">
        <ele>269.9</ele>
        <time>2020-08-07T11:36:56Z</time>
      </trkpt>
      <trkpt lat="41.0071990" lon="0.3849070">
        <ele>269.9</ele>
        <time>2020-08-07T11:36:58Z</time>
      </trkpt>
      <trkpt lat="41.0072130" lon="0.3849010">
        <ele>269.9</ele>
        <time>2020-08-07T11:36:59Z</time>
      </trkpt>
      <trkpt lat="41.0072310" lon="0.3849040">
        <ele>269.9</ele>
        <time>2020-08-07T11:37:01Z</time>
      </trkpt>
      <trkpt lat="41.0072310" lon="0.3849320">
        <ele>269.9</ele>
        <time>2020-08-07T11:37:02Z</time>
      </trkpt>
      <trkpt lat="41.0072300" lon="0.3849510">
        <ele>269.9</ele>
        <time>2020-08-07T11:37:04Z</time>
      </trkpt>
      <trkpt lat="41.0072360" lon="0.3849890">
        <ele>269.9</ele>
        <time>2020-08-07T11:37:05Z</time>
      </trkpt>
      <trkpt lat="41.0072390" lon="0.3849990">
        <ele>269.9</ele>
        <time>2020-08-07T11:37:06Z</time>
      </trkpt>
      <trkpt lat="41.0072470" lon="0.3850590">
        <ele>269.9</ele>
        <time>2020-08-07T11:37:08Z</time>
      </trkpt>
      <trkpt lat="41.0072610" lon="0.3851380">
        <ele>269.9</ele>
        <time>2020-08-07T11:37:09Z</time>
      </trkpt>
      <trkpt lat="41.0072720" lon="0.3852230">
        <ele>269.8</ele>
        <time>2020-08-07T11:37:11Z</time>
      </trkpt>
      <trkpt lat="41.0072770" lon="0.3852710">
        <ele>269.8</ele>
        <time>2020-08-07T11:37:12Z</time>
      </trkpt>
      <trkpt lat="41.0072870" lon="0.3853250">
        <ele>269.7</ele>
        <time>2020-08-07T11:37:13Z</time>
      </trkpt>
      <trkpt lat="41.0072990" lon="0.3854100">
        <ele>269.7</ele>
        <time>2020-08-07T11:37:15Z</time>
      </trkpt>
      <trkpt lat="41.0072990" lon="0.3854490">
        <ele>269.7</ele>
        <time>2020-08-07T11:37:16Z</time>
      </trkpt>
      <trkpt lat="41.0072990" lon="0.3854890">
        <ele>269.7</ele>
        <time>2020-08-07T11:37:17Z</time>
      </trkpt>
      <trkpt lat="41.0072920" lon="0.3855120">
        <ele>269.7</ele>
        <time>2020-08-07T11:37:18Z</time>
      </trkpt>
      <trkpt lat="41.0072760" lon="0.3855270">
        <ele>269.7</ele>
        <time>2020-08-07T11:37:20Z</time>
      </trkpt>
      <trkpt lat="41.0072530" lon="0.3855370">
        <ele>269.7</ele>
        <time>2020-08-07T11:37:21Z</time>
      </trkpt>
      <trkpt lat="41.0072180" lon="0.3855400">
        <ele>269.7</ele>
        <time>2020-08-07T11:37:23Z</time>
      </trkpt>
      <trkpt lat="41.0071830" lon="0.3855540">
        <ele>269.7</ele>
        <time>2020-08-07T11:37:24Z</time>
      </trkpt>
      <trkpt lat="41.0071710" lon="0.3855580">
        <ele>269.7</ele>
        <time>2020-08-07T11:37:25Z</time>
      </trkpt>
      <trkpt lat="41.0071400" lon="0.3855700">
        <ele>269.7</ele>
        <time>2020-08-07T11:37:27Z</time>
      </trkpt>
      <trkpt lat="41.0071210" lon="0.3855790">
        <ele>269.7</ele>
        <time>2020-08-07T11:37:28Z</time>
      </trkpt>
      <trkpt lat="41.0071080" lon="0.3855850">
        <ele>269.7</ele>
        <time>2020-08-07T11:37:29Z</time>
      </trkpt>
      <trkpt lat="41.0070880" lon="0.3856170">
        <ele>269.7</ele>
        <time>2020-08-07T11:37:31Z</time>
      </trkpt>
      <trkpt lat="41.0070860" lon="0.3856310">
        <ele>269.7</ele>
        <time>2020-08-07T11:37:32Z</time>
      </trkpt>
      <trkpt lat="41.0070900" lon="0.3856890">
        <ele>269.7</ele>
        <time>2020-08-07T11:37:34Z</time>
      </trkpt>
      <trkpt lat="41.0071000" lon="0.3857180">
        <ele>269.7</ele>
        <time>2020-08-07T11:37:35Z</time>
      </trkpt>
      <trkpt lat="41.0071200" lon="0.3857880">
        <ele>269.7</ele>
        <time>2020-08-07T11:37:37Z</time>
      </trkpt>
      <trkpt lat="41.0071260" lon="0.3858250">
        <ele>269.7</ele>
        <time>2020-08-07T11:37:38Z</time>
      </trkpt>
      <trkpt lat="41.0071380" lon="0.3858750">
        <ele>269.7</ele>
        <time>2020-08-07T11:37:39Z</time>
      </trkpt>
      <trkpt lat="41.0071500" lon="0.3859280">
        <ele>269.7</ele>
        <time>2020-08-07T11:37:41Z</time>
      </trkpt>
      <trkpt lat="41.0071640" lon="0.3859840">
        <ele>269.7</ele>
        <time>2020-08-07T11:37:42Z</time>
      </trkpt>
      <trkpt lat="41.0071750" lon="0.3860240">
        <ele>269.8</ele>
        <time>2020-08-07T11:37:43Z</time>
      </trkpt>
      <trkpt lat="41.0071840" lon="0.3860650">
        <ele>269.8</ele>
        <time>2020-08-07T11:37:44Z</time>
      </trkpt>
      <trkpt lat="41.0071960" lon="0.3861110">
        <ele>269.8</ele>
        <time>2020-08-07T11:37:46Z</time>
      </trkpt>
      <trkpt lat="41.0072060" lon="0.3861510">
        <ele>269.8</ele>
        <time>2020-08-07T11:37:47Z</time>
      </trkpt>
      <trkpt lat="41.0072210" lon="0.3861990">
        <ele>269.8</ele>
        <time>2020-08-07T11:37:48Z</time>
      </trkpt>
      <trkpt lat="41.0072260" lon="0.3862160">
        <ele>269.8</ele>
        <time>2020-08-07T11:37:49Z</time>
      </trkpt>
      <trkpt lat="41.0072430" lon="0.3862570">
        <ele>269.8</ele>
        <time>2020-08-07T11:37:50Z</time>
      </trkpt>
      <trkpt lat="41.0072490" lon="0.3862690">
        <ele>269.8</ele>
        <time>2020-08-07T11:37:51Z</time>
      </trkpt>
      <trkpt lat="41.0072580" lon="0.3862920">
        <ele>269.8</ele>
        <time>2020-08-07T11:37:52Z</time>
      </trkpt>
      <trkpt lat="41.0072690" lon="0.3863320">
        <ele>269.8</ele>
        <time>2020-08-07T11:37:54Z</time>
      </trkpt>
      <trkpt lat="41.0072780" lon="0.3863580">
        <ele>269.8</ele>
        <time>2020-08-07T11:37:55Z</time>
      </trkpt>
      <trkpt lat="41.0072780" lon="0.3863650">
        <ele>269.8</ele>
        <time>2020-08-07T11:37:57Z</time>
      </trkpt>
      <trkpt lat="41.0072760" lon="0.3863610">
        <ele>269.8</ele>
        <time>2020-08-07T11:37:58Z</time>
      </trkpt>
      <trkpt lat="41.0072770" lon="0.3863600">
        <ele>269.8</ele>
        <time>2020-08-07T11:37:59Z</time>
      </trkpt>
      <trkpt lat="41.0072790" lon="0.3863580">
        <ele>269.8</ele>
        <time>2020-08-07T11:38:01Z</time>
      </trkpt>
      <trkpt lat="41.0072810" lon="0.3863550">
        <ele>269.8</ele>
        <time>2020-08-07T11:38:03Z</time>
      </trkpt>
      <trkpt lat="41.0072820" lon="0.3863540">
        <ele>269.8</ele>
        <time>2020-08-07T11:38:04Z</time>
      </trkpt>
      <trkpt lat="41.0072830" lon="0.3863520">
        <ele>269.8</ele>
        <time>2020-08-07T11:38:05Z</time>
      </trkpt>
      <trkpt lat="41.0073000" lon="0.3863330">
        <ele>269.7</ele>
        <time>2020-08-07T11:38:31Z</time>
      </trkpt>
      <trkpt lat="41.0073110" lon="0.3863500">
        <ele>269.7</ele>
        <time>2020-08-07T11:38:33Z</time>
      </trkpt>
      <trkpt lat="41.0073210" lon="0.3863580">
        <ele>269.7</ele>
        <time>2020-08-07T11:38:34Z</time>
      </trkpt>
      <trkpt lat="41.0073320" lon="0.3863700">
        <ele>269.7</ele>
        <time>2020-08-07T11:38:35Z</time>
      </trkpt>
      <trkpt lat="41.0073410" lon="0.3863920">
        <ele>269.7</ele>
        <time>2020-08-07T11:38:36Z</time>
      </trkpt>
      <trkpt lat="41.0073500" lon="0.3864100">
        <ele>269.7</ele>
        <time>2020-08-07T11:38:38Z</time>
      </trkpt>
      <trkpt lat="41.0073510" lon="0.3864290">
        <ele>269.7</ele>
        <time>2020-08-07T11:38:39Z</time>
      </trkpt>
      <trkpt lat="41.0073580" lon="0.3864710">
        <ele>269.7</ele>
        <time>2020-08-07T11:38:41Z</time>
      </trkpt>
      <trkpt lat="41.0073600" lon="0.3864820">
        <ele>269.7</ele>
        <time>2020-08-07T11:38:42Z</time>
      </trkpt>
      <trkpt lat="41.0073630" lon="0.3864980">
        <ele>269.7</ele>
        <time>2020-08-07T11:38:43Z</time>
      </trkpt>
      <trkpt lat="41.0073730" lon="0.3865200">
        <ele>269.7</ele>
        <time>2020-08-07T11:38:44Z</time>
      </trkpt>
      <trkpt lat="41.0073860" lon="0.3865570">
        <ele>269.7</ele>
        <time>2020-08-07T11:38:46Z</time>
      </trkpt>
      <trkpt lat="41.0073880" lon="0.3865680">
        <ele>269.7</ele>
        <time>2020-08-07T11:38:47Z</time>
      </trkpt>
      <trkpt lat="41.0073980" lon="0.3866010">
        <ele>269.7</ele>
        <time>2020-08-07T11:38:48Z</time>
      </trkpt>
      <trkpt lat="41.0074030" lon="0.3866130">
        <ele>269.7</ele>
        <time>2020-08-07T11:38:49Z</time>
      </trkpt>
      <trkpt lat="41.0074170" lon="0.3866280">
        <ele>269.7</ele>
        <time>2020-08-07T11:38:51Z</time>
      </trkpt>
      <trkpt lat="41.0074260" lon="0.3866420">
        <ele>269.7</ele>
        <time>2020-08-07T11:38:52Z</time>
      </trkpt>
      <trkpt lat="41.0074330" lon="0.3866590">
        <ele>269.7</ele>
        <time>2020-08-07T11:38:54Z</time>
      </trkpt>
      <trkpt lat="41.0074350" lon="0.3866770">
        <ele>269.7</ele>
        <time>2020-08-07T11:38:55Z</time>
      </trkpt>
      <trkpt lat="41.0074460" lon="0.3866930">
        <ele>269.8</ele>
        <time>2020-08-07T11:38:56Z</time>
      </trkpt>
      <trkpt lat="41.0074560" lon="0.3867140">
        <ele>269.8</ele>
        <time>2020-08-07T11:38:57Z</time>
      </trkpt>
      <trkpt lat="41.0074740" lon="0.3867640">
        <ele>269.8</ele>
        <time>2020-08-07T11:38:59Z</time>
      </trkpt>
      <trkpt lat="41.0074800" lon="0.3867810">
        <ele>269.8</ele>
        <time>2020-08-07T11:39:00Z</time>
      </trkpt>
      <trkpt lat="41.0074850" lon="0.3867990">
        <ele>269.8</ele>
        <time>2020-08-07T11:39:01Z</time>
      </trkpt>
      <trkpt lat="41.0074970" lon="0.3868320">
        <ele>269.8</ele>
        <time>2020-08-07T11:39:03Z</time>
      </trkpt>
      <trkpt lat="41.0075090" lon="0.3868510">
        <ele>269.8</ele>
        <time>2020-08-07T11:39:04Z</time>
      </trkpt>
      <trkpt lat="41.0075270" lon="0.3868870">
        <ele>269.8</ele>
        <time>2020-08-07T11:39:06Z</time>
      </trkpt>
      <trkpt lat="41.0075440" lon="0.3869150">
        <ele>269.8</ele>
        <time>2020-08-07T11:39:07Z</time>
      </trkpt>
      <trkpt lat="41.0075490" lon="0.3869270">
        <ele>269.8</ele>
        <time>2020-08-07T11:39:08Z</time>
      </trkpt>
      <trkpt lat="41.0075770" lon="0.3869760">
        <ele>269.8</ele>
        <time>2020-08-07T11:39:09Z</time>
      </trkpt>
      <trkpt lat="41.0076050" lon="0.3870260">
        <ele>269.8</ele>
        <time>2020-08-07T11:39:11Z</time>
      </trkpt>
      <trkpt lat="41.0076270" lon="0.3870840">
        <ele>269.8</ele>
        <time>2020-08-07T11:39:12Z</time>
      </trkpt>
      <trkpt lat="41.0076620" lon="0.3871480">
        <ele>269.8</ele>
        <time>2020-08-07T11:39:14Z</time>
      </trkpt>
      <trkpt lat="41.0076820" lon="0.3871890">
        <ele>269.8</ele>
        <time>2020-08-07T11:39:15Z</time>
      </trkpt>
      <trkpt lat="41.0077000" lon="0.3872210">
        <ele>269.8</ele>
        <time>2020-08-07T11:39:16Z</time>
      </trkpt>
      <trkpt lat="41.0077270" lon="0.3872600">
        <ele>269.8</ele>
        <time>2020-08-07T11:39:18Z</time>
      </trkpt>
      <trkpt lat="41.0077460" lon="0.3872920">
        <ele>269.8</ele>
        <time>2020-08-07T11:39:19Z</time>
      </trkpt>
      <trkpt lat="41.0077730" lon="0.3873230">
        <ele>269.8</ele>
        <time>2020-08-07T11:39:21Z</time>
      </trkpt>
      <trkpt lat="41.0077950" lon="0.3873480">
        <ele>269.8</ele>
        <time>2020-08-07T11:39:22Z</time>
      </trkpt>
      <trkpt lat="41.0078050" lon="0.3873700">
        <ele>269.8</ele>
        <time>2020-08-07T11:39:23Z</time>
      </trkpt>
      <trkpt lat="41.0078300" lon="0.3874070">
        <ele>269.9</ele>
        <time>2020-08-07T11:39:25Z</time>
      </trkpt>
      <trkpt lat="41.0078370" lon="0.3874240">
        <ele>269.9</ele>
        <time>2020-08-07T11:39:26Z</time>
      </trkpt>
      <trkpt lat="41.0078410" lon="0.3874310">
        <ele>269.9</ele>
        <time>2020-08-07T11:39:27Z</time>
      </trkpt>
      <trkpt lat="41.0078400" lon="0.3874300">
        <ele>269.9</ele>
        <time>2020-08-07T11:39:28Z</time>
      </trkpt>
      <trkpt lat="41.0078380" lon="0.3874270">
        <ele>269.9</ele>
        <time>2020-08-07T11:39:29Z</time>
      </trkpt>
      <trkpt lat="41.0078440" lon="0.3874360">
        <ele>269.9</ele>
        <time>2020-08-07T11:39:30Z</time>
      </trkpt>
      <trkpt lat="41.0078570" lon="0.3874490">
        <ele>269.9</ele>
        <time>2020-08-07T11:39:32Z</time>
      </trkpt>
      <trkpt lat="41.0078670" lon="0.3874590">
        <ele>269.9</ele>
        <time>2020-08-07T11:39:33Z</time>
      </trkpt>
      <trkpt lat="41.0078780" lon="0.3874720">
        <ele>269.9</ele>
        <time>2020-08-07T11:39:34Z</time>
      </trkpt>
      <trkpt lat="41.0078890" lon="0.3874920">
        <ele>269.9</ele>
        <time>2020-08-07T11:39:35Z</time>
      </trkpt>
      <trkpt lat="41.0079010" lon="0.3875090">
        <ele>269.9</ele>
        <time>2020-08-07T11:39:36Z</time>
      </trkpt>
      <trkpt lat="41.0079230" lon="0.3875310">
        <ele>269.9</ele>
        <time>2020-08-07T11:39:38Z</time>
      </trkpt>
      <trkpt lat="41.0079300" lon="0.3875390">
        <ele>269.9</ele>
        <time>2020-08-07T11:39:39Z</time>
      </trkpt>
      <trkpt lat="41.0079460" lon="0.3875460">
        <ele>269.9</ele>
        <time>2020-08-07T11:39:40Z</time>
      </trkpt>
      <trkpt lat="41.0079570" lon="0.3875560">
        <ele>270.0</ele>
        <time>2020-08-07T11:39:41Z</time>
      </trkpt>
      <trkpt lat="41.0079630" lon="0.3875660">
        <ele>270.0</ele>
        <time>2020-08-07T11:39:42Z</time>
      </trkpt>
      <trkpt lat="41.0079670" lon="0.3875720">
        <ele>270.0</ele>
        <time>2020-08-07T11:39:43Z</time>
      </trkpt>
      <trkpt lat="41.0079710" lon="0.3875770">
        <ele>270.0</ele>
        <time>2020-08-07T11:39:45Z</time>
      </trkpt>
      <trkpt lat="41.0079750" lon="0.3875830">
        <ele>270.0</ele>
        <time>2020-08-07T11:39:47Z</time>
      </trkpt>
      <trkpt lat="41.0079790" lon="0.3875890">
        <ele>270.0</ele>
        <time>2020-08-07T11:39:49Z</time>
      </trkpt>
      <trkpt lat="41.0079820" lon="0.3875950">
        <ele>270.0</ele>
        <time>2020-08-07T11:39:50Z</time>
      </trkpt>
      <trkpt lat="41.0079860" lon="0.3876010">
        <ele>270.0</ele>
        <time>2020-08-07T11:39:52Z</time>
      </trkpt>
      <trkpt lat="41.0079900" lon="0.3876070">
        <ele>270.0</ele>
        <time>2020-08-07T11:40:02Z</time>
      </trkpt>
      <trkpt lat="41.0079940" lon="0.3876120">
        <ele>270.0</ele>
        <time>2020-08-07T11:40:03Z</time>
      </trkpt>
      <trkpt lat="41.0079980" lon="0.3876180">
        <ele>270.0</ele>
        <time>2020-08-07T11:40:05Z</time>
      </trkpt>
      <trkpt lat="41.0080020" lon="0.3876240">
        <ele>270.0</ele>
        <time>2020-08-07T11:40:06Z</time>
      </trkpt>
      <trkpt lat="41.0080120" lon="0.3876380">
        <ele>270.0</ele>
        <time>2020-08-07T11:40:07Z</time>
      </trkpt>
      <trkpt lat="41.0080380" lon="0.3876640">
        <ele>270.0</ele>
        <time>2020-08-07T11:40:09Z</time>
      </trkpt>
      <trkpt lat="41.0080590" lon="0.3876890">
        <ele>270.0</ele>
        <time>2020-08-07T11:40:10Z</time>
      </trkpt>
      <trkpt lat="41.0080660" lon="0.3876970">
        <ele>270.0</ele>
        <time>2020-08-07T11:40:11Z</time>
      </trkpt>
      <trkpt lat="41.0080820" lon="0.3877130">
        <ele>270.0</ele>
        <time>2020-08-07T11:40:12Z</time>
      </trkpt>
      <trkpt lat="41.0081240" lon="0.3877570">
        <ele>270.0</ele>
        <time>2020-08-07T11:40:14Z</time>
      </trkpt>
      <trkpt lat="41.0081580" lon="0.3877990">
        <ele>270.0</ele>
        <time>2020-08-07T11:40:15Z</time>
      </trkpt>
      <trkpt lat="41.0081800" lon="0.3878230">
        <ele>270.0</ele>
        <time>2020-08-07T11:40:16Z</time>
      </trkpt>
      <trkpt lat="41.0081930" lon="0.3878400">
        <ele>270.0</ele>
        <time>2020-08-07T11:40:18Z</time>
      </trkpt>
      <trkpt lat="41.0081920" lon="0.3878430">
        <ele>270.0</ele>
        <time>2020-08-07T11:40:20Z</time>
      </trkpt>
      <trkpt lat="41.0081910" lon="0.3878440">
        <ele>270.0</ele>
        <time>2020-08-07T11:40:21Z</time>
      </trkpt>
      <trkpt lat="41.0081890" lon="0.3878420">
        <ele>270.0</ele>
        <time>2020-08-07T11:40:23Z</time>
      </trkpt>
      <trkpt lat="41.0081870" lon="0.3878410">
        <ele>270.0</ele>
        <time>2020-08-07T11:40:25Z</time>
      </trkpt>
      <trkpt lat="41.0081850" lon="0.3878410">
        <ele>270.0</ele>
        <time>2020-08-07T11:40:26Z</time>
      </trkpt>
      <trkpt lat="41.0082150" lon="0.3878590">
        <ele>270.0</ele>
        <time>2020-08-07T11:40:39Z</time>
      </trkpt>
      <trkpt lat="41.0082320" lon="0.3878710">
        <ele>270.0</ele>
        <time>2020-08-07T11:40:40Z</time>
      </trkpt>
      <trkpt lat="41.0082560" lon="0.3878940">
        <ele>270.0</ele>
        <time>2020-08-07T11:40:42Z</time>
      </trkpt>
      <trkpt lat="41.0082640" lon="0.3879020">
        <ele>270.0</ele>
        <time>2020-08-07T11:40:43Z</time>
      </trkpt>
      <trkpt lat="41.0082970" lon="0.3879320">
        <ele>270.0</ele>
        <time>2020-08-07T11:40:44Z</time>
      </trkpt>
      <trkpt lat="41.0083100" lon="0.3879450">
        <ele>270.0</ele>
        <time>2020-08-07T11:40:45Z</time>
      </trkpt>
      <trkpt lat="41.0083510" lon="0.3879810">
        <ele>269.9</ele>
        <time>2020-08-07T11:40:47Z</time>
      </trkpt>
      <trkpt lat="41.0084030" lon="0.3880270">
        <ele>269.9</ele>
        <time>2020-08-07T11:40:48Z</time>
      </trkpt>
      <trkpt lat="41.0084470" lon="0.3880710">
        <ele>269.9</ele>
        <time>2020-08-07T11:40:49Z</time>
      </trkpt>
      <trkpt lat="41.0084950" lon="0.3881100">
        <ele>269.9</ele>
        <time>2020-08-07T11:40:50Z</time>
      </trkpt>
      <trkpt lat="41.0085440" lon="0.3881430">
        <ele>269.9</ele>
        <time>2020-08-07T11:40:52Z</time>
      </trkpt>
      <trkpt lat="41.0086080" lon="0.3881730">
        <ele>269.9</ele>
        <time>2020-08-07T11:40:54Z</time>
      </trkpt>
      <trkpt lat="41.0086490" lon="0.3881920">
        <ele>269.9</ele>
        <time>2020-08-07T11:40:55Z</time>
      </trkpt>
      <trkpt lat="41.0086820" lon="0.3882100">
        <ele>269.9</ele>
        <time>2020-08-07T11:40:56Z</time>
      </trkpt>
      <trkpt lat="41.0087250" lon="0.3882350">
        <ele>269.9</ele>
        <time>2020-08-07T11:40:57Z</time>
      </trkpt>
      <trkpt lat="41.0087620" lon="0.3882510">
        <ele>269.9</ele>
        <time>2020-08-07T11:40:59Z</time>
      </trkpt>
      <trkpt lat="41.0087930" lon="0.3882650">
        <ele>269.9</ele>
        <time>2020-08-07T11:41:00Z</time>
      </trkpt>
      <trkpt lat="41.0088220" lon="0.3882780">
        <ele>269.9</ele>
        <time>2020-08-07T11:41:01Z</time>
      </trkpt>
      <trkpt lat="41.0088570" lon="0.3882940">
        <ele>269.9</ele>
        <time>2020-08-07T11:41:02Z</time>
      </trkpt>
      <trkpt lat="41.0088860" lon="0.3883060">
        <ele>269.9</ele>
        <time>2020-08-07T11:41:03Z</time>
      </trkpt>
      <trkpt lat="41.0089140" lon="0.3883160">
        <ele>269.9</ele>
        <time>2020-08-07T11:41:04Z</time>
      </trkpt>
      <trkpt lat="41.0089650" lon="0.3883380">
        <ele>269.8</ele>
        <time>2020-08-07T11:41:06Z</time>
      </trkpt>
      <trkpt lat="41.0090150" lon="0.3883610">
        <ele>269.7</ele>
        <time>2020-08-07T11:41:08Z</time>
      </trkpt>
      <trkpt lat="41.0090450" lon="0.3883780">
        <ele>269.7</ele>
        <time>2020-08-07T11:41:09Z</time>
      </trkpt>
      <trkpt lat="41.0090870" lon="0.3883970">
        <ele>269.7</ele>
        <time>2020-08-07T11:41:10Z</time>
      </trkpt>
      <trkpt lat="41.0091200" lon="0.3884100">
        <ele>269.6</ele>
        <time>2020-08-07T11:41:12Z</time>
      </trkpt>
      <trkpt lat="41.0091560" lon="0.3884270">
        <ele>269.6</ele>
        <time>2020-08-07T11:41:13Z</time>
      </trkpt>
      <trkpt lat="41.0091850" lon="0.3884440">
        <ele>269.6</ele>
        <time>2020-08-07T11:41:14Z</time>
      </trkpt>
      <trkpt lat="41.0092120" lon="0.3884610">
        <ele>269.5</ele>
        <time>2020-08-07T11:41:15Z</time>
      </trkpt>
      <trkpt lat="41.0092410" lon="0.3884770">
        <ele>269.5</ele>
        <time>2020-08-07T11:41:16Z</time>
      </trkpt>
      <trkpt lat="41.0092890" lon="0.3884990">
        <ele>269.5</ele>
        <time>2020-08-07T11:41:18Z</time>
      </trkpt>
      <trkpt lat="41.0093200" lon="0.3885090">
        <ele>269.5</ele>
        <time>2020-08-07T11:41:19Z</time>
      </trkpt>
      <trkpt lat="41.0093770" lon="0.3885280">
        <ele>269.4</ele>
        <time>2020-08-07T11:41:21Z</time>
      </trkpt>
      <trkpt lat="41.0094110" lon="0.3885400">
        <ele>269.4</ele>
        <time>2020-08-07T11:41:22Z</time>
      </trkpt>
      <trkpt lat="41.0094440" lon="0.3885500">
        <ele>269.4</ele>
        <time>2020-08-07T11:41:23Z</time>
      </trkpt>
      <trkpt lat="41.0094820" lon="0.3885620">
        <ele>269.4</ele>
        <time>2020-08-07T11:41:25Z</time>
      </trkpt>
      <trkpt lat="41.0095230" lon="0.3885740">
        <ele>269.4</ele>
        <time>2020-08-07T11:41:26Z</time>
      </trkpt>
      <trkpt lat="41.0095380" lon="0.3885790">
        <ele>269.4</ele>
        <time>2020-08-07T11:41:27Z</time>
      </trkpt>
      <trkpt lat="41.0095710" lon="0.3885860">
        <ele>269.4</ele>
        <time>2020-08-07T11:41:28Z</time>
      </trkpt>
      <trkpt lat="41.0096090" lon="0.3885960">
        <ele>269.4</ele>
        <time>2020-08-07T11:41:29Z</time>
      </trkpt>
      <trkpt lat="41.0096440" lon="0.3886040">
        <ele>269.4</ele>
        <time>2020-08-07T11:41:30Z</time>
      </trkpt>
      <trkpt lat="41.0096870" lon="0.3886150">
        <ele>269.4</ele>
        <time>2020-08-07T11:41:32Z</time>
      </trkpt>
      <trkpt lat="41.0097170" lon="0.3886220">
        <ele>269.4</ele>
        <time>2020-08-07T11:41:33Z</time>
      </trkpt>
      <trkpt lat="41.0097510" lon="0.3886290">
        <ele>269.4</ele>
        <time>2020-08-07T11:41:34Z</time>
      </trkpt>
      <trkpt lat="41.0097780" lon="0.3886360">
        <ele>269.4</ele>
        <time>2020-08-07T11:41:35Z</time>
      </trkpt>
      <trkpt lat="41.0098160" lon="0.3886440">
        <ele>269.3</ele>
        <time>2020-08-07T11:41:36Z</time>
      </trkpt>
      <trkpt lat="41.0098460" lon="0.3886500">
        <ele>269.3</ele>
        <time>2020-08-07T11:41:37Z</time>
      </trkpt>
      <trkpt lat="41.0098800" lon="0.3886540">
        <ele>269.3</ele>
        <time>2020-08-07T11:41:39Z</time>
      </trkpt>
      <trkpt lat="41.0099160" lon="0.3886640">
        <ele>269.3</ele>
        <time>2020-08-07T11:41:40Z</time>
      </trkpt>
      <trkpt lat="41.0099410" lon="0.3886620">
        <ele>269.2</ele>
        <time>2020-08-07T11:41:41Z</time>
      </trkpt>
      <trkpt lat="41.0099840" lon="0.3886660">
        <ele>269.2</ele>
        <time>2020-08-07T11:41:43Z</time>
      </trkpt>
      <trkpt lat="41.0100150" lon="0.3886760">
        <ele>269.2</ele>
        <time>2020-08-07T11:41:44Z</time>
      </trkpt>
      <trkpt lat="41.0100560" lon="0.3886810">
        <ele>269.1</ele>
        <time>2020-08-07T11:41:45Z</time>
      </trkpt>
      <trkpt lat="41.0100700" lon="0.3886830">
        <ele>269.1</ele>
        <time>2020-08-07T11:41:46Z</time>
      </trkpt>
      <trkpt lat="41.0101290" lon="0.3886850">
        <ele>269.0</ele>
        <time>2020-08-07T11:41:48Z</time>
      </trkpt>
      <trkpt lat="41.0101590" lon="0.3886840">
        <ele>268.9</ele>
        <time>2020-08-07T11:41:49Z</time>
      </trkpt>
      <trkpt lat="41.0101880" lon="0.3886840">
        <ele>268.9</ele>
        <time>2020-08-07T11:41:50Z</time>
      </trkpt>
      <trkpt lat="41.0102410" lon="0.3886810">
        <ele>268.7</ele>
        <time>2020-08-07T11:41:52Z</time>
      </trkpt>
      <trkpt lat="41.0102850" lon="0.3886800">
        <ele>268.6</ele>
        <time>2020-08-07T11:41:53Z</time>
      </trkpt>
      <trkpt lat="41.0103260" lon="0.3886720">
        <ele>268.5</ele>
        <time>2020-08-07T11:41:54Z</time>
      </trkpt>
      <trkpt lat="41.0103700" lon="0.3886690">
        <ele>268.4</ele>
        <time>2020-08-07T11:41:55Z</time>
      </trkpt>
      <trkpt lat="41.0104210" lon="0.3886640">
        <ele>268.3</ele>
        <time>2020-08-07T11:41:57Z</time>
      </trkpt>
      <trkpt lat="41.0104590" lon="0.3886600">
        <ele>268.2</ele>
        <time>2020-08-07T11:41:58Z</time>
      </trkpt>
      <trkpt lat="41.0105150" lon="0.3886540">
        <ele>268.1</ele>
        <time>2020-08-07T11:41:59Z</time>
      </trkpt>
      <trkpt lat="41.0105650" lon="0.3886460">
        <ele>268.0</ele>
        <time>2020-08-07T11:42:01Z</time>
      </trkpt>
      <trkpt lat="41.0106130" lon="0.3886430">
        <ele>267.9</ele>
        <time>2020-08-07T11:42:02Z</time>
      </trkpt>
      <trkpt lat="41.0106850" lon="0.3886330">
        <ele>267.8</ele>
        <time>2020-08-07T11:42:04Z</time>
      </trkpt>
      <trkpt lat="41.0107370" lon="0.3886250">
        <ele>267.7</ele>
        <time>2020-08-07T11:42:05Z</time>
      </trkpt>
      <trkpt lat="41.0107780" lon="0.3886140">
        <ele>267.6</ele>
        <time>2020-08-07T11:42:06Z</time>
      </trkpt>
      <trkpt lat="41.0108230" lon="0.3886000">
        <ele>267.5</ele>
        <time>2020-08-07T11:42:07Z</time>
      </trkpt>
      <trkpt lat="41.0108660" lon="0.3885850">
        <ele>267.4</ele>
        <time>2020-08-07T11:42:08Z</time>
      </trkpt>
      <trkpt lat="41.0109280" lon="0.3885640">
        <ele>267.3</ele>
        <time>2020-08-07T11:42:09Z</time>
      </trkpt>
      <trkpt lat="41.0109760" lon="0.3885500">
        <ele>267.2</ele>
        <time>2020-08-07T11:42:10Z</time>
      </trkpt>
      <trkpt lat="41.0110690" lon="0.3885190">
        <ele>266.9</ele>
        <time>2020-08-07T11:42:12Z</time>
      </trkpt>
      <trkpt lat="41.0111180" lon="0.3884970">
        <ele>266.8</ele>
        <time>2020-08-07T11:42:13Z</time>
      </trkpt>
      <trkpt lat="41.0112140" lon="0.3884560">
        <ele>266.6</ele>
        <time>2020-08-07T11:42:15Z</time>
      </trkpt>
      <trkpt lat="41.0112590" lon="0.3884380">
        <ele>266.5</ele>
        <time>2020-08-07T11:42:16Z</time>
      </trkpt>
      <trkpt lat="41.0113480" lon="0.3884010">
        <ele>266.4</ele>
        <time>2020-08-07T11:42:18Z</time>
      </trkpt>
      <trkpt lat="41.0113930" lon="0.3883770">
        <ele>266.3</ele>
        <time>2020-08-07T11:42:19Z</time>
      </trkpt>
      <trkpt lat="41.0114770" lon="0.3883330">
        <ele>266.1</ele>
        <time>2020-08-07T11:42:21Z</time>
      </trkpt>
      <trkpt lat="41.0115050" lon="0.3883210">
        <ele>266.0</ele>
        <time>2020-08-07T11:42:22Z</time>
      </trkpt>
      <trkpt lat="41.0115850" lon="0.3882840">
        <ele>265.9</ele>
        <time>2020-08-07T11:42:24Z</time>
      </trkpt>
      <trkpt lat="41.0116750" lon="0.3882540">
        <ele>265.7</ele>
        <time>2020-08-07T11:42:26Z</time>
      </trkpt>
      <trkpt lat="41.0117220" lon="0.3882400">
        <ele>265.7</ele>
        <time>2020-08-07T11:42:27Z</time>
      </trkpt>
      <trkpt lat="41.0117660" lon="0.3882190">
        <ele>265.6</ele>
        <time>2020-08-07T11:42:28Z</time>
      </trkpt>
      <trkpt lat="41.0118120" lon="0.3881950">
        <ele>265.6</ele>
        <time>2020-08-07T11:42:29Z</time>
      </trkpt>
      <trkpt lat="41.0118960" lon="0.3881660">
        <ele>265.5</ele>
        <time>2020-08-07T11:42:31Z</time>
      </trkpt>
      <trkpt lat="41.0119440" lon="0.3881360">
        <ele>265.4</ele>
        <time>2020-08-07T11:42:32Z</time>
      </trkpt>
      <trkpt lat="41.0119890" lon="0.3881110">
        <ele>265.3</ele>
        <time>2020-08-07T11:42:33Z</time>
      </trkpt>
      <trkpt lat="41.0120230" lon="0.3880980">
        <ele>265.2</ele>
        <time>2020-08-07T11:42:34Z</time>
      </trkpt>
      <trkpt lat="41.0120910" lon="0.3880770">
        <ele>265.1</ele>
        <time>2020-08-07T11:42:36Z</time>
      </trkpt>
      <trkpt lat="41.0121880" lon="0.3880500">
        <ele>264.8</ele>
        <time>2020-08-07T11:42:38Z</time>
      </trkpt>
      <trkpt lat="41.0122380" lon="0.3880350">
        <ele>264.7</ele>
        <time>2020-08-07T11:42:39Z</time>
      </trkpt>
      <trkpt lat="41.0123360" lon="0.3880160">
        <ele>264.5</ele>
        <time>2020-08-07T11:42:41Z</time>
      </trkpt>
      <trkpt lat="41.0123790" lon="0.3880070">
        <ele>264.5</ele>
        <time>2020-08-07T11:42:42Z</time>
      </trkpt>
      <trkpt lat="41.0124710" lon="0.3879890">
        <ele>264.3</ele>
        <time>2020-08-07T11:42:44Z</time>
      </trkpt>
      <trkpt lat="41.0125210" lon="0.3879820">
        <ele>264.2</ele>
        <time>2020-08-07T11:42:45Z</time>
      </trkpt>
      <trkpt lat="41.0126180" lon="0.3879720">
        <ele>263.9</ele>
        <time>2020-08-07T11:42:47Z</time>
      </trkpt>
      <trkpt lat="41.0127180" lon="0.3879710">
        <ele>263.7</ele>
        <time>2020-08-07T11:42:49Z</time>
      </trkpt>
      <trkpt lat="41.0127660" lon="0.3879650">
        <ele>263.6</ele>
        <time>2020-08-07T11:42:50Z</time>
      </trkpt>
      <trkpt lat="41.0128150" lon="0.3879630">
        <ele>263.5</ele>
        <time>2020-08-07T11:42:51Z</time>
      </trkpt>
      <trkpt lat="41.0128640" lon="0.3879670">
        <ele>263.4</ele>
        <time>2020-08-07T11:42:52Z</time>
      </trkpt>
      <trkpt lat="41.0129140" lon="0.3879730">
        <ele>263.3</ele>
        <time>2020-08-07T11:42:53Z</time>
      </trkpt>
      <trkpt lat="41.0130120" lon="0.3879860">
        <ele>263.1</ele>
        <time>2020-08-07T11:42:55Z</time>
      </trkpt>
      <trkpt lat="41.0130580" lon="0.3879960">
        <ele>263.0</ele>
        <time>2020-08-07T11:42:56Z</time>
      </trkpt>
      <trkpt lat="41.0130910" lon="0.3880070">
        <ele>262.9</ele>
        <time>2020-08-07T11:42:57Z</time>
      </trkpt>
      <trkpt lat="41.0131430" lon="0.3880190">
        <ele>262.8</ele>
        <time>2020-08-07T11:42:58Z</time>
      </trkpt>
      <trkpt lat="41.0132460" lon="0.3880310">
        <ele>262.5</ele>
        <time>2020-08-07T11:43:00Z</time>
      </trkpt>
      <trkpt lat="41.0132880" lon="0.3880340">
        <ele>262.4</ele>
        <time>2020-08-07T11:43:01Z</time>
      </trkpt>
      <trkpt lat="41.0133670" lon="0.3880620">
        <ele>262.2</ele>
        <time>2020-08-07T11:43:03Z</time>
      </trkpt>
      <trkpt lat="41.0134160" lon="0.3880810">
        <ele>262.1</ele>
        <time>2020-08-07T11:43:04Z</time>
      </trkpt>
      <trkpt lat="41.0137600" lon="0.3882560">
        <ele>261.4</ele>
        <time>2020-08-07T11:43:13Z</time>
      </trkpt>
      <trkpt lat="41.0137850" lon="0.3882740">
        <ele>261.3</ele>
        <time>2020-08-07T11:43:14Z</time>
      </trkpt>
      <trkpt lat="41.0138280" lon="0.3883010">
        <ele>261.2</ele>
        <time>2020-08-07T11:43:15Z</time>
      </trkpt>
      <trkpt lat="41.0138880" lon="0.3883460">
        <ele>261.0</ele>
        <time>2020-08-07T11:43:17Z</time>
      </trkpt>
      <trkpt lat="41.0139090" lon="0.3883620">
        <ele>260.9</ele>
        <time>2020-08-07T11:43:18Z</time>
      </trkpt>
      <trkpt lat="41.0139450" lon="0.3883880">
        <ele>260.9</ele>
        <time>2020-08-07T11:43:20Z</time>
      </trkpt>
      <trkpt lat="41.0139590" lon="0.3883920">
        <ele>260.8</ele>
        <time>2020-08-07T11:43:21Z</time>
      </trkpt>
      <trkpt lat="41.0139760" lon="0.3883930">
        <ele>260.8</ele>
        <time>2020-08-07T11:43:22Z</time>
      </trkpt>
      <trkpt lat="41.0140050" lon="0.3884070">
        <ele>260.7</ele>
        <time>2020-08-07T11:43:24Z</time>
      </trkpt>
      <trkpt lat="41.0140270" lon="0.3884240">
        <ele>260.7</ele>
        <time>2020-08-07T11:43:26Z</time>
      </trkpt>
      <trkpt lat="41.0140580" lon="0.3884500">
        <ele>260.6</ele>
        <time>2020-08-07T11:43:28Z</time>
      </trkpt>
      <trkpt lat="41.0140600" lon="0.3884530">
        <ele>260.6</ele>
        <time>2020-08-07T11:43:29Z</time>
      </trkpt>
      <trkpt lat="41.0140570" lon="0.3884540">
        <ele>260.6</ele>
        <time>2020-08-07T11:43:30Z</time>
      </trkpt>
      <trkpt lat="41.0140480" lon="0.3884550">
        <ele>260.6</ele>
        <time>2020-08-07T11:43:32Z</time>
      </trkpt>
      <trkpt lat="41.0140410" lon="0.3884540">
        <ele>260.6</ele>
        <time>2020-08-07T11:43:34Z</time>
      </trkpt>
      <trkpt lat="41.0140390" lon="0.3884520">
        <ele>260.6</ele>
        <time>2020-08-07T11:43:36Z</time>
      </trkpt>
      <trkpt lat="41.0140370" lon="0.3884500">
        <ele>260.6</ele>
        <time>2020-08-07T11:43:38Z</time>
      </trkpt>
      <trkpt lat="41.0140380" lon="0.3884500">
        <ele>260.6</ele>
        <time>2020-08-07T11:43:40Z</time>
      </trkpt>
      <trkpt lat="41.0140380" lon="0.3884500">
        <ele>260.6</ele>
        <time>2020-08-07T11:43:41Z</time>
      </trkpt>
      <trkpt lat="41.0140380" lon="0.3884500">
        <ele>260.6</ele>
        <time>2020-08-07T11:43:42Z</time>
      </trkpt>
      <trkpt lat="41.0140920" lon="0.3884860">
        <ele>260.5</ele>
        <time>2020-08-07T11:43:48Z</time>
      </trkpt>
      <trkpt lat="41.0141340" lon="0.3885150">
        <ele>260.4</ele>
        <time>2020-08-07T11:43:50Z</time>
      </trkpt>
      <trkpt lat="41.0141810" lon="0.3885440">
        <ele>260.4</ele>
        <time>2020-08-07T11:43:52Z</time>
      </trkpt>
      <trkpt lat="41.0142130" lon="0.3885670">
        <ele>260.3</ele>
        <time>2020-08-07T11:43:53Z</time>
      </trkpt>
      <trkpt lat="41.0142240" lon="0.3885750">
        <ele>260.3</ele>
        <time>2020-08-07T11:43:54Z</time>
      </trkpt>
      <trkpt lat="41.0142440" lon="0.3885930">
        <ele>260.3</ele>
        <time>2020-08-07T11:43:55Z</time>
      </trkpt>
      <trkpt lat="41.0142810" lon="0.3886320">
        <ele>260.2</ele>
        <time>2020-08-07T11:43:57Z</time>
      </trkpt>
      <trkpt lat="41.0143250" lon="0.3886720">
        <ele>260.1</ele>
        <time>2020-08-07T11:43:59Z</time>
      </trkpt>
      <trkpt lat="41.0143640" lon="0.3887160">
        <ele>260.1</ele>
        <time>2020-08-07T11:44:01Z</time>
      </trkpt>
      <trkpt lat="41.0144120" lon="0.3887620">
        <ele>260.0</ele>
        <time>2020-08-07T11:44:03Z</time>
      </trkpt>
      <trkpt lat="41.0144650" lon="0.3887990">
        <ele>259.9</ele>
        <time>2020-08-07T11:44:05Z</time>
      </trkpt>
      <trkpt lat="41.0145000" lon="0.3888280">
        <ele>259.8</ele>
        <time>2020-08-07T11:44:06Z</time>
      </trkpt>
      <trkpt lat="41.0145130" lon="0.3888400">
        <ele>259.8</ele>
        <time>2020-08-07T11:44:07Z</time>
      </trkpt>
      <trkpt lat="41.0145350" lon="0.3888670">
        <ele>259.7</ele>
        <time>2020-08-07T11:44:08Z</time>
      </trkpt>
      <trkpt lat="41.0145680" lon="0.3889110">
        <ele>259.6</ele>
        <time>2020-08-07T11:44:10Z</time>
      </trkpt>
      <trkpt lat="41.0145860" lon="0.3889310">
        <ele>259.6</ele>
        <time>2020-08-07T11:44:11Z</time>
      </trkpt>
      <trkpt lat="41.0146280" lon="0.3889810">
        <ele>259.5</ele>
        <time>2020-08-07T11:44:13Z</time>
      </trkpt>
      <trkpt lat="41.0146660" lon="0.3890300">
        <ele>259.4</ele>
        <time>2020-08-07T11:44:15Z</time>
      </trkpt>
      <trkpt lat="41.0147560" lon="0.3891720">
        <ele>259.3</ele>
        <time>2020-08-07T11:44:16Z</time>
      </trkpt>
      <trkpt lat="41.0148280" lon="0.3892900">
        <ele>259.2</ele>
        <time>2020-08-07T11:44:30Z</time>
      </trkpt>
      <trkpt lat="41.0149000" lon="0.3894080">
        <ele>259.1</ele>
        <time>2020-08-07T11:44:30Z</time>
      </trkpt>
      <trkpt lat="41.0150020" lon="0.3895810">
        <ele>258.8</ele>
        <time>2020-08-07T11:44:32Z</time>
      </trkpt>
      <trkpt lat="41.0150290" lon="0.3896270">
        <ele>258.7</ele>
        <time>2020-08-07T11:44:33Z</time>
      </trkpt>
      <trkpt lat="41.0150520" lon="0.3896680">
        <ele>258.6</ele>
        <time>2020-08-07T11:44:34Z</time>
      </trkpt>
      <trkpt lat="41.0150810" lon="0.3897320">
        <ele>258.5</ele>
        <time>2020-08-07T11:44:36Z</time>
      </trkpt>
      <trkpt lat="41.0151110" lon="0.3898080">
        <ele>258.4</ele>
        <time>2020-08-07T11:44:38Z</time>
      </trkpt>
      <trkpt lat="41.0151250" lon="0.3898420">
        <ele>258.3</ele>
        <time>2020-08-07T11:44:39Z</time>
      </trkpt>
      <trkpt lat="41.0151410" lon="0.3898780">
        <ele>258.3</ele>
        <time>2020-08-07T11:44:40Z</time>
      </trkpt>
      <trkpt lat="41.0151580" lon="0.3899130">
        <ele>258.2</ele>
        <time>2020-08-07T11:44:41Z</time>
      </trkpt>
      <trkpt lat="41.0151910" lon="0.3899720">
        <ele>258.2</ele>
        <time>2020-08-07T11:44:43Z</time>
      </trkpt>
      <trkpt lat="41.0152210" lon="0.3900390">
        <ele>258.1</ele>
        <time>2020-08-07T11:44:45Z</time>
      </trkpt>
      <trkpt lat="41.0152550" lon="0.3901140">
        <ele>258.0</ele>
        <time>2020-08-07T11:44:47Z</time>
      </trkpt>
      <trkpt lat="41.0152780" lon="0.3901600">
        <ele>257.9</ele>
        <time>2020-08-07T11:44:48Z</time>
      </trkpt>
      <trkpt lat="41.0152950" lon="0.3902010">
        <ele>257.9</ele>
        <time>2020-08-07T11:44:49Z</time>
      </trkpt>
      <trkpt lat="41.0153100" lon="0.3902660">
        <ele>257.8</ele>
        <time>2020-08-07T11:44:50Z</time>
      </trkpt>
      <trkpt lat="41.0153120" lon="0.3903140">
        <ele>257.8</ele>
        <time>2020-08-07T11:44:51Z</time>
      </trkpt>
      <trkpt lat="41.0153220" lon="0.3904050">
        <ele>257.7</ele>
        <time>2020-08-07T11:44:53Z</time>
      </trkpt>
      <trkpt lat="41.0153270" lon="0.3904510">
        <ele>257.6</ele>
        <time>2020-08-07T11:44:54Z</time>
      </trkpt>
      <trkpt lat="41.0153340" lon="0.3904900">
        <ele>257.6</ele>
        <time>2020-08-07T11:44:55Z</time>
      </trkpt>
      <trkpt lat="41.0153400" lon="0.3905290">
        <ele>257.6</ele>
        <time>2020-08-07T11:44:56Z</time>
      </trkpt>
      <trkpt lat="41.0153550" lon="0.3906200">
        <ele>257.5</ele>
        <time>2020-08-07T11:44:58Z</time>
      </trkpt>
      <trkpt lat="41.0153570" lon="0.3906640">
        <ele>257.4</ele>
        <time>2020-08-07T11:44:59Z</time>
      </trkpt>
      <trkpt lat="41.0153690" lon="0.3907590">
        <ele>257.4</ele>
        <time>2020-08-07T11:45:01Z</time>
      </trkpt>
      <trkpt lat="41.0153760" lon="0.3907960">
        <ele>257.3</ele>
        <time>2020-08-07T11:45:02Z</time>
      </trkpt>
      <trkpt lat="41.0153830" lon="0.3908420">
        <ele>257.3</ele>
        <time>2020-08-07T11:45:03Z</time>
      </trkpt>
      <trkpt lat="41.0153920" lon="0.3909240">
        <ele>257.2</ele>
        <time>2020-08-07T11:45:05Z</time>
      </trkpt>
      <trkpt lat="41.0153950" lon="0.3909660">
        <ele>257.2</ele>
        <time>2020-08-07T11:45:06Z</time>
      </trkpt>
      <trkpt lat="41.0153980" lon="0.3910070">
        <ele>257.2</ele>
        <time>2020-08-07T11:45:07Z</time>
      </trkpt>
      <trkpt lat="41.0154240" lon="0.3911590">
        <ele>256.9</ele>
        <time>2020-08-07T11:45:14Z</time>
      </trkpt>
      <trkpt lat="41.0154340" lon="0.3912050">
        <ele>256.9</ele>
        <time>2020-08-07T11:45:15Z</time>
      </trkpt>
      <trkpt lat="41.0154590" lon="0.3912600">
        <ele>256.9</ele>
        <time>2020-08-07T11:45:17Z</time>
      </trkpt>
      <trkpt lat="41.0154840" lon="0.3912940">
        <ele>256.9</ele>
        <time>2020-08-07T11:45:19Z</time>
      </trkpt>
      <trkpt lat="41.0154970" lon="0.3913070">
        <ele>256.8</ele>
        <time>2020-08-07T11:45:20Z</time>
      </trkpt>
      <trkpt lat="41.0155090" lon="0.3913200">
        <ele>256.8</ele>
        <time>2020-08-07T11:45:21Z</time>
      </trkpt>
      <trkpt lat="41.0155690" lon="0.3915310">
        <ele>256.5</ele>
        <time>2020-08-07T11:46:10Z</time>
      </trkpt>
      <trkpt lat="41.0154570" lon="0.3918360">
        <ele>256.0</ele>
        <time>2020-08-07T11:46:11Z</time>
      </trkpt>
      <trkpt lat="41.0150040" lon="0.3932070">
        <ele>253.6</ele>
        <time>2020-08-07T11:46:13Z</time>
      </trkpt>
      <trkpt lat="41.0149760" lon="0.3933160">
        <ele>253.4</ele>
        <time>2020-08-07T11:46:14Z</time>
      </trkpt>
      <trkpt lat="41.0149470" lon="0.3934420">
        <ele>253.2</ele>
        <time>2020-08-07T11:46:16Z</time>
      </trkpt>
      <trkpt lat="41.0149330" lon="0.3934940">
        <ele>253.1</ele>
        <time>2020-08-07T11:46:17Z</time>
      </trkpt>
      <trkpt lat="41.0149030" lon="0.3935900">
        <ele>252.9</ele>
        <time>2020-08-07T11:46:19Z</time>
      </trkpt>
      <trkpt lat="41.0148850" lon="0.3936330">
        <ele>252.9</ele>
        <time>2020-08-07T11:46:20Z</time>
      </trkpt>
      <trkpt lat="41.0148620" lon="0.3936790">
        <ele>252.8</ele>
        <time>2020-08-07T11:46:21Z</time>
      </trkpt>
      <trkpt lat="41.0148260" lon="0.3937510">
        <ele>252.7</ele>
        <time>2020-08-07T11:46:23Z</time>
      </trkpt>
      <trkpt lat="41.0148070" lon="0.3937910">
        <ele>252.6</ele>
        <time>2020-08-07T11:46:24Z</time>
      </trkpt>
      <trkpt lat="41.0147860" lon="0.3938340">
        <ele>252.5</ele>
        <time>2020-08-07T11:46:25Z</time>
      </trkpt>
      <trkpt lat="41.0147670" lon="0.3938680">
        <ele>252.4</ele>
        <time>2020-08-07T11:46:26Z</time>
      </trkpt>
      <trkpt lat="41.0147410" lon="0.3939050">
        <ele>252.3</ele>
        <time>2020-08-07T11:46:27Z</time>
      </trkpt>
      <trkpt lat="41.0147150" lon="0.3939360">
        <ele>252.2</ele>
        <time>2020-08-07T11:46:28Z</time>
      </trkpt>
      <trkpt lat="41.0146590" lon="0.3940080">
        <ele>252.1</ele>
        <time>2020-08-07T11:46:30Z</time>
      </trkpt>
      <trkpt lat="41.0146350" lon="0.3940440">
        <ele>252.0</ele>
        <time>2020-08-07T11:46:31Z</time>
      </trkpt>
      <trkpt lat="41.0145870" lon="0.3941090">
        <ele>251.8</ele>
        <time>2020-08-07T11:46:33Z</time>
      </trkpt>
      <trkpt lat="41.0145310" lon="0.3941710">
        <ele>251.7</ele>
        <time>2020-08-07T11:46:35Z</time>
      </trkpt>
      <trkpt lat="41.0145010" lon="0.3942040">
        <ele>251.6</ele>
        <time>2020-08-07T11:46:36Z</time>
      </trkpt>
      <trkpt lat="41.0144550" lon="0.3942930">
        <ele>251.4</ele>
        <time>2020-08-07T11:46:38Z</time>
      </trkpt>
      <trkpt lat="41.0144330" lon="0.3943300">
        <ele>251.3</ele>
        <time>2020-08-07T11:46:39Z</time>
      </trkpt>
      <trkpt lat="41.0144100" lon="0.3943570">
        <ele>251.3</ele>
        <time>2020-08-07T11:46:40Z</time>
      </trkpt>
      <trkpt lat="41.0143510" lon="0.3944140">
        <ele>251.1</ele>
        <time>2020-08-07T11:46:42Z</time>
      </trkpt>
      <trkpt lat="41.0143200" lon="0.3944500">
        <ele>251.0</ele>
        <time>2020-08-07T11:46:43Z</time>
      </trkpt>
      <trkpt lat="41.0142490" lon="0.3944930">
        <ele>250.8</ele>
        <time>2020-08-07T11:46:45Z</time>
      </trkpt>
      <trkpt lat="41.0141810" lon="0.3945200">
        <ele>250.7</ele>
        <time>2020-08-07T11:46:47Z</time>
      </trkpt>
      <trkpt lat="41.0141450" lon="0.3945500">
        <ele>250.5</ele>
        <time>2020-08-07T11:46:48Z</time>
      </trkpt>
      <trkpt lat="41.0141180" lon="0.3945760">
        <ele>250.5</ele>
        <time>2020-08-07T11:46:49Z</time>
      </trkpt>
      <trkpt lat="41.0140380" lon="0.3946450">
        <ele>250.2</ele>
        <time>2020-08-07T11:46:51Z</time>
      </trkpt>
      <trkpt lat="41.0140000" lon="0.3946680">
        <ele>250.1</ele>
        <time>2020-08-07T11:46:52Z</time>
      </trkpt>
      <trkpt lat="41.0139200" lon="0.3947300">
        <ele>249.9</ele>
        <time>2020-08-07T11:46:54Z</time>
      </trkpt>
      <trkpt lat="41.0138790" lon="0.3947560">
        <ele>249.8</ele>
        <time>2020-08-07T11:46:55Z</time>
      </trkpt>
      <trkpt lat="41.0138350" lon="0.3947780">
        <ele>249.7</ele>
        <time>2020-08-07T11:46:56Z</time>
      </trkpt>
      <trkpt lat="41.0137600" lon="0.3948130">
        <ele>249.5</ele>
        <time>2020-08-07T11:46:58Z</time>
      </trkpt>
      <trkpt lat="41.0136920" lon="0.3948490">
        <ele>249.4</ele>
        <time>2020-08-07T11:47:00Z</time>
      </trkpt>
      <trkpt lat="41.0136550" lon="0.3948680">
        <ele>249.3</ele>
        <time>2020-08-07T11:47:01Z</time>
      </trkpt>
      <trkpt lat="41.0135750" lon="0.3949060">
        <ele>249.2</ele>
        <time>2020-08-07T11:47:03Z</time>
      </trkpt>
      <trkpt lat="41.0135120" lon="0.3949400">
        <ele>249.1</ele>
        <time>2020-08-07T11:47:05Z</time>
      </trkpt>
      <trkpt lat="41.0134750" lon="0.3949620">
        <ele>249.0</ele>
        <time>2020-08-07T11:47:06Z</time>
      </trkpt>
      <trkpt lat="41.0134430" lon="0.3949810">
        <ele>249.0</ele>
        <time>2020-08-07T11:47:07Z</time>
      </trkpt>
      <trkpt lat="41.0133970" lon="0.3950010">
        <ele>248.9</ele>
        <time>2020-08-07T11:47:09Z</time>
      </trkpt>
      <trkpt lat="41.0133650" lon="0.3950190">
        <ele>248.8</ele>
        <time>2020-08-07T11:47:10Z</time>
      </trkpt>
      <trkpt lat="41.0133400" lon="0.3950460">
        <ele>248.8</ele>
        <time>2020-08-07T11:47:11Z</time>
      </trkpt>
      <trkpt lat="41.0132850" lon="0.3950760">
        <ele>248.7</ele>
        <time>2020-08-07T11:47:13Z</time>
      </trkpt>
      <trkpt lat="41.0132480" lon="0.3950750">
        <ele>248.6</ele>
        <time>2020-08-07T11:47:14Z</time>
      </trkpt>
      <trkpt lat="41.0132120" lon="0.3950760">
        <ele>248.5</ele>
        <time>2020-08-07T11:47:15Z</time>
      </trkpt>
      <trkpt lat="41.0131540" lon="0.3950810">
        <ele>248.4</ele>
        <time>2020-08-07T11:47:17Z</time>
      </trkpt>
      <trkpt lat="41.0131210" lon="0.3950830">
        <ele>248.3</ele>
        <time>2020-08-07T11:47:18Z</time>
      </trkpt>
      <trkpt lat="41.0130800" lon="0.3950880">
        <ele>248.2</ele>
        <time>2020-08-07T11:47:19Z</time>
      </trkpt>
      <trkpt lat="41.0130430" lon="0.3950930">
        <ele>248.1</ele>
        <time>2020-08-07T11:47:20Z</time>
      </trkpt>
      <trkpt lat="41.0130050" lon="0.3950900">
        <ele>247.9</ele>
        <time>2020-08-07T11:47:21Z</time>
      </trkpt>
      <trkpt lat="41.0129520" lon="0.3950890">
        <ele>247.7</ele>
        <time>2020-08-07T11:47:23Z</time>
      </trkpt>
      <trkpt lat="41.0129170" lon="0.3950900">
        <ele>247.7</ele>
        <time>2020-08-07T11:47:24Z</time>
      </trkpt>
      <trkpt lat="41.0128730" lon="0.3950940">
        <ele>247.7</ele>
        <time>2020-08-07T11:47:25Z</time>
      </trkpt>
      <trkpt lat="41.0128280" lon="0.3950940">
        <ele>247.7</ele>
        <time>2020-08-07T11:47:26Z</time>
      </trkpt>
      <trkpt lat="41.0127790" lon="0.3950930">
        <ele>247.7</ele>
        <time>2020-08-07T11:47:28Z</time>
      </trkpt>
      <trkpt lat="41.0127400" lon="0.3950880">
        <ele>247.7</ele>
        <time>2020-08-07T11:47:29Z</time>
      </trkpt>
      <trkpt lat="41.0127000" lon="0.3950840">
        <ele>247.7</ele>
        <time>2020-08-07T11:47:30Z</time>
      </trkpt>
      <trkpt lat="41.0126710" lon="0.3950860">
        <ele>247.7</ele>
        <time>2020-08-07T11:47:31Z</time>
      </trkpt>
      <trkpt lat="41.0126410" lon="0.3950870">
        <ele>247.6</ele>
        <time>2020-08-07T11:47:32Z</time>
      </trkpt>
      <trkpt lat="41.0125900" lon="0.3950910">
        <ele>247.6</ele>
        <time>2020-08-07T11:47:33Z</time>
      </trkpt>
      <trkpt lat="41.0125420" lon="0.3950900">
        <ele>247.6</ele>
        <time>2020-08-07T11:47:35Z</time>
      </trkpt>
      <trkpt lat="41.0124780" lon="0.3950850">
        <ele>247.5</ele>
        <time>2020-08-07T11:47:37Z</time>
      </trkpt>
      <trkpt lat="41.0124250" lon="0.3950760">
        <ele>247.4</ele>
        <time>2020-08-07T11:47:38Z</time>
      </trkpt>
      <trkpt lat="41.0123650" lon="0.3950620">
        <ele>247.3</ele>
        <time>2020-08-07T11:47:39Z</time>
      </trkpt>
      <trkpt lat="41.0123220" lon="0.3950520">
        <ele>247.2</ele>
        <time>2020-08-07T11:47:41Z</time>
      </trkpt>
      <trkpt lat="41.0122780" lon="0.3950400">
        <ele>247.1</ele>
        <time>2020-08-07T11:47:42Z</time>
      </trkpt>
      <trkpt lat="41.0122350" lon="0.3950270">
        <ele>247.1</ele>
        <time>2020-08-07T11:47:43Z</time>
      </trkpt>
      <trkpt lat="41.0121710" lon="0.3950060">
        <ele>246.9</ele>
        <time>2020-08-07T11:47:45Z</time>
      </trkpt>
      <trkpt lat="41.0121420" lon="0.3949970">
        <ele>246.9</ele>
        <time>2020-08-07T11:47:46Z</time>
      </trkpt>
      <trkpt lat="41.0121110" lon="0.3949880">
        <ele>246.8</ele>
        <time>2020-08-07T11:47:47Z</time>
      </trkpt>
      <trkpt lat="41.0120810" lon="0.3949800">
        <ele>246.8</ele>
        <time>2020-08-07T11:47:49Z</time>
      </trkpt>
      <trkpt lat="41.0120510" lon="0.3949720">
        <ele>246.7</ele>
        <time>2020-08-07T11:47:51Z</time>
      </trkpt>
      <trkpt lat="41.0120390" lon="0.3949840">
        <ele>246.7</ele>
        <time>2020-08-07T11:47:52Z</time>
      </trkpt>
      <trkpt lat="41.0120410" lon="0.3950080">
        <ele>246.6</ele>
        <time>2020-08-07T11:47:54Z</time>
      </trkpt>
      <trkpt lat="41.0120380" lon="0.3950220">
        <ele>246.6</ele>
        <time>2020-08-07T11:47:55Z</time>
      </trkpt>
      <trkpt lat="41.0120310" lon="0.3950380">
        <ele>246.6</ele>
        <time>2020-08-07T11:47:56Z</time>
      </trkpt>
      <trkpt lat="41.0120180" lon="0.3950580">
        <ele>246.5</ele>
        <time>2020-08-07T11:47:58Z</time>
      </trkpt>
      <trkpt lat="41.0104030" lon="0.3937930">
        <ele>245.3</ele>
        <time>2020-08-07T11:48:36Z</time>
      </trkpt>
      <trkpt lat="41.0103640" lon="0.3937950">
        <ele>245.5</ele>
        <time>2020-08-07T11:48:37Z</time>
      </trkpt>
      <trkpt lat="41.0103060" lon="0.3937400">
        <ele>245.7</ele>
        <time>2020-08-07T11:48:39Z</time>
      </trkpt>
      <trkpt lat="41.0102710" lon="0.3937090">
        <ele>245.8</ele>
        <time>2020-08-07T11:48:40Z</time>
      </trkpt>
      <trkpt lat="41.0102290" lon="0.3936720">
        <ele>245.7</ele>
        <time>2020-08-07T11:48:41Z</time>
      </trkpt>
      <trkpt lat="41.0101260" lon="0.3936070">
        <ele>245.6</ele>
        <time>2020-08-07T11:48:43Z</time>
      </trkpt>
      <trkpt lat="41.0100880" lon="0.3935720">
        <ele>245.6</ele>
        <time>2020-08-07T11:48:44Z</time>
      </trkpt>
      <trkpt lat="41.0100520" lon="0.3935420">
        <ele>245.5</ele>
        <time>2020-08-07T11:48:45Z</time>
      </trkpt>
      <trkpt lat="41.0100250" lon="0.3935210">
        <ele>245.5</ele>
        <time>2020-08-07T11:48:46Z</time>
      </trkpt>
      <trkpt lat="41.0099490" lon="0.3934720">
        <ele>245.4</ele>
        <time>2020-08-07T11:48:48Z</time>
      </trkpt>
      <trkpt lat="41.0099190" lon="0.3934570">
        <ele>245.3</ele>
        <time>2020-08-07T11:48:49Z</time>
      </trkpt>
      <trkpt lat="41.0098370" lon="0.3933990">
        <ele>245.2</ele>
        <time>2020-08-07T11:48:51Z</time>
      </trkpt>
      <trkpt lat="41.0097970" lon="0.3933740">
        <ele>245.2</ele>
        <time>2020-08-07T11:48:52Z</time>
      </trkpt>
      <trkpt lat="41.0097180" lon="0.3933390">
        <ele>245.0</ele>
        <time>2020-08-07T11:48:54Z</time>
      </trkpt>
      <trkpt lat="41.0096440" lon="0.3933100">
        <ele>244.9</ele>
        <time>2020-08-07T11:48:56Z</time>
      </trkpt>
      <trkpt lat="41.0095660" lon="0.3932780">
        <ele>244.8</ele>
        <time>2020-08-07T11:48:58Z</time>
      </trkpt>
      <trkpt lat="41.0094900" lon="0.3932520">
        <ele>244.6</ele>
        <time>2020-08-07T11:49:00Z</time>
      </trkpt>
      <trkpt lat="41.0094370" lon="0.3932390">
        <ele>244.5</ele>
        <time>2020-08-07T11:49:01Z</time>
      </trkpt>
      <trkpt lat="41.0093490" lon="0.3932280">
        <ele>244.4</ele>
        <time>2020-08-07T11:49:03Z</time>
      </trkpt>
      <trkpt lat="41.0093190" lon="0.3932220">
        <ele>244.3</ele>
        <time>2020-08-07T11:49:04Z</time>
      </trkpt>
      <trkpt lat="41.0092390" lon="0.3932070">
        <ele>244.1</ele>
        <time>2020-08-07T11:49:06Z</time>
      </trkpt>
      <trkpt lat="41.0091910" lon="0.3932020">
        <ele>244.0</ele>
        <time>2020-08-07T11:49:07Z</time>
      </trkpt>
      <trkpt lat="41.0091490" lon="0.3931950">
        <ele>243.9</ele>
        <time>2020-08-07T11:49:08Z</time>
      </trkpt>
      <trkpt lat="41.0090520" lon="0.3931730">
        <ele>243.7</ele>
        <time>2020-08-07T11:49:10Z</time>
      </trkpt>
      <trkpt lat="41.0089630" lon="0.3931530">
        <ele>243.5</ele>
        <time>2020-08-07T11:49:12Z</time>
      </trkpt>
      <trkpt lat="41.0088970" lon="0.3931460">
        <ele>243.4</ele>
        <time>2020-08-07T11:49:14Z</time>
      </trkpt>
      <trkpt lat="41.0088160" lon="0.3931340">
        <ele>243.3</ele>
        <time>2020-08-07T11:49:16Z</time>
      </trkpt>
      <trkpt lat="41.0087280" lon="0.3931310">
        <ele>243.1</ele>
        <time>2020-08-07T11:49:18Z</time>
      </trkpt>
      <trkpt lat="41.0086370" lon="0.3931370">
        <ele>242.9</ele>
        <time>2020-08-07T11:49:20Z</time>
      </trkpt>
      <trkpt lat="41.0085900" lon="0.3931410">
        <ele>242.8</ele>
        <time>2020-08-07T11:49:21Z</time>
      </trkpt>
      <trkpt lat="41.0085460" lon="0.3931460">
        <ele>242.7</ele>
        <time>2020-08-07T11:49:22Z</time>
      </trkpt>
      <trkpt lat="41.0085000" lon="0.3931520">
        <ele>242.6</ele>
        <time>2020-08-07T11:49:23Z</time>
      </trkpt>
      <trkpt lat="41.0084570" lon="0.3931580">
        <ele>242.5</ele>
        <time>2020-08-07T11:49:24Z</time>
      </trkpt>
      <trkpt lat="41.0084110" lon="0.3931650">
        <ele>242.4</ele>
        <time>2020-08-07T11:49:25Z</time>
      </trkpt>
      <trkpt lat="41.0083240" lon="0.3931830">
        <ele>242.2</ele>
        <time>2020-08-07T11:49:27Z</time>
      </trkpt>
      <trkpt lat="41.0082820" lon="0.3931950">
        <ele>242.1</ele>
        <time>2020-08-07T11:49:28Z</time>
      </trkpt>
      <trkpt lat="41.0081990" lon="0.3932250">
        <ele>242.0</ele>
        <time>2020-08-07T11:49:30Z</time>
      </trkpt>
      <trkpt lat="41.0081190" lon="0.3932570">
        <ele>241.8</ele>
        <time>2020-08-07T11:49:32Z</time>
      </trkpt>
      <trkpt lat="41.0080400" lon="0.3932860">
        <ele>241.7</ele>
        <time>2020-08-07T11:49:34Z</time>
      </trkpt>
      <trkpt lat="41.0080000" lon="0.3933000">
        <ele>241.6</ele>
        <time>2020-08-07T11:49:35Z</time>
      </trkpt>
      <trkpt lat="41.0079580" lon="0.3933060">
        <ele>241.5</ele>
        <time>2020-08-07T11:49:37Z</time>
      </trkpt>
      <trkpt lat="41.0079660" lon="0.3932710">
        <ele>241.4</ele>
        <time>2020-08-07T11:49:38Z</time>
      </trkpt>
      <trkpt lat="41.0079950" lon="0.3932220">
        <ele>241.3</ele>
        <time>2020-08-07T11:49:40Z</time>
      </trkpt>
      <trkpt lat="41.0080530" lon="0.3932140">
        <ele>241.2</ele>
        <time>2020-08-07T11:49:41Z</time>
      </trkpt>
      <trkpt lat="41.0080670" lon="0.3932300">
        <ele>241.2</ele>
        <time>2020-08-07T11:49:43Z</time>
      </trkpt>
      <trkpt lat="41.0080560" lon="0.3932330">
        <ele>241.1</ele>
        <time>2020-08-07T11:49:44Z</time>
      </trkpt>
      <trkpt lat="41.0080410" lon="0.3932280">
        <ele>241.1</ele>
        <time>2020-08-07T11:49:45Z</time>
      </trkpt>
      <trkpt lat="41.0080240" lon="0.3932300">
        <ele>241.1</ele>
        <time>2020-08-07T11:49:46Z</time>
      </trkpt>
      <trkpt lat="41.0080010" lon="0.3932350">
        <ele>241.0</ele>
        <time>2020-08-07T11:49:47Z</time>
      </trkpt>
      <trkpt lat="41.0079670" lon="0.3932590">
        <ele>241.0</ele>
        <time>2020-08-07T11:49:49Z</time>
      </trkpt>
      <trkpt lat="41.0079230" lon="0.3932810">
        <ele>240.9</ele>
        <time>2020-08-07T11:49:50Z</time>
      </trkpt>
      <trkpt lat="41.0078850" lon="0.3932890">
        <ele>240.8</ele>
        <time>2020-08-07T11:49:52Z</time>
      </trkpt>
      <trkpt lat="41.0078640" lon="0.3932970">
        <ele>240.8</ele>
        <time>2020-08-07T11:49:53Z</time>
      </trkpt>
      <trkpt lat="41.0078400" lon="0.3933020">
        <ele>240.8</ele>
        <time>2020-08-07T11:49:55Z</time>
      </trkpt>
      <trkpt lat="41.0077510" lon="0.3933630">
        <ele>240.6</ele>
        <time>2020-08-07T11:49:56Z</time>
      </trkpt>
      <trkpt lat="41.0076740" lon="0.3934190">
        <ele>240.4</ele>
        <time>2020-08-07T11:49:57Z</time>
      </trkpt>
      <trkpt lat="41.0075630" lon="0.3934570">
        <ele>240.2</ele>
        <time>2020-08-07T11:49:58Z</time>
      </trkpt>
      <trkpt lat="41.0074740" lon="0.3935050">
        <ele>240.0</ele>
        <time>2020-08-07T11:50:00Z</time>
      </trkpt>
      <trkpt lat="41.0073900" lon="0.3935750">
        <ele>239.7</ele>
        <time>2020-08-07T11:50:01Z</time>
      </trkpt>
      <trkpt lat="41.0072930" lon="0.3936850">
        <ele>239.4</ele>
        <time>2020-08-07T11:50:02Z</time>
      </trkpt>
      <trkpt lat="41.0072140" lon="0.3937740">
        <ele>239.1</ele>
        <time>2020-08-07T11:50:03Z</time>
      </trkpt>
      <trkpt lat="41.0071610" lon="0.3938290">
        <ele>238.9</ele>
        <time>2020-08-07T11:50:04Z</time>
      </trkpt>
      <trkpt lat="41.0070820" lon="0.3939130">
        <ele>238.7</ele>
        <time>2020-08-07T11:50:06Z</time>
      </trkpt>
      <trkpt lat="41.0070380" lon="0.3939570">
        <ele>238.6</ele>
        <time>2020-08-07T11:50:07Z</time>
      </trkpt>
      <trkpt lat="41.0070010" lon="0.3939950">
        <ele>238.5</ele>
        <time>2020-08-07T11:50:08Z</time>
      </trkpt>
      <trkpt lat="41.0069790" lon="0.3940180">
        <ele>238.4</ele>
        <time>2020-08-07T11:50:09Z</time>
      </trkpt>
      <trkpt lat="41.0069550" lon="0.3940370">
        <ele>238.3</ele>
        <time>2020-08-07T11:50:10Z</time>
      </trkpt>
      <trkpt lat="41.0069000" lon="0.3941160">
        <ele>238.2</ele>
        <time>2020-08-07T11:50:11Z</time>
      </trkpt>
      <trkpt lat="41.0068320" lon="0.3942290">
        <ele>238.0</ele>
        <time>2020-08-07T11:50:13Z</time>
      </trkpt>
      <trkpt lat="41.0067950" lon="0.3942850">
        <ele>237.8</ele>
        <time>2020-08-07T11:50:14Z</time>
      </trkpt>
      <trkpt lat="41.0067510" lon="0.3943570">
        <ele>237.7</ele>
        <time>2020-08-07T11:50:16Z</time>
      </trkpt>
      <trkpt lat="41.0067260" lon="0.3944020">
        <ele>237.6</ele>
        <time>2020-08-07T11:50:17Z</time>
      </trkpt>
      <trkpt lat="41.0067040" lon="0.3944380">
        <ele>237.6</ele>
        <time>2020-08-07T11:50:18Z</time>
      </trkpt>
      <trkpt lat="41.0066710" lon="0.3944950">
        <ele>237.5</ele>
        <time>2020-08-07T11:50:20Z</time>
      </trkpt>
      <trkpt lat="41.0066490" lon="0.3945380">
        <ele>237.4</ele>
        <time>2020-08-07T11:50:21Z</time>
      </trkpt>
      <trkpt lat="41.0066240" lon="0.3945870">
        <ele>237.3</ele>
        <time>2020-08-07T11:50:22Z</time>
      </trkpt>
      <trkpt lat="41.0066010" lon="0.3946360">
        <ele>237.3</ele>
        <time>2020-08-07T11:50:24Z</time>
      </trkpt>
      <trkpt lat="41.0065710" lon="0.3947020">
        <ele>237.2</ele>
        <time>2020-08-07T11:50:26Z</time>
      </trkpt>
      <trkpt lat="41.0065530" lon="0.3947430">
        <ele>237.1</ele>
        <time>2020-08-07T11:50:27Z</time>
      </trkpt>
      <trkpt lat="41.0065240" lon="0.3948020">
        <ele>237.0</ele>
        <time>2020-08-07T11:50:29Z</time>
      </trkpt>
      <trkpt lat="41.0065060" lon="0.3948470">
        <ele>236.9</ele>
        <time>2020-08-07T11:50:30Z</time>
      </trkpt>
      <trkpt lat="41.0064850" lon="0.3949060">
        <ele>236.8</ele>
        <time>2020-08-07T11:50:32Z</time>
      </trkpt>
      <trkpt lat="41.0064630" lon="0.3949610">
        <ele>236.7</ele>
        <time>2020-08-07T11:50:34Z</time>
      </trkpt>
      <trkpt lat="41.0064470" lon="0.3950030">
        <ele>236.6</ele>
        <time>2020-08-07T11:50:35Z</time>
      </trkpt>
      <trkpt lat="41.0064300" lon="0.3950410">
        <ele>236.6</ele>
        <time>2020-08-07T11:50:36Z</time>
      </trkpt>
      <trkpt lat="41.0064090" lon="0.3950870">
        <ele>236.5</ele>
        <time>2020-08-07T11:50:37Z</time>
      </trkpt>
      <trkpt lat="41.0063940" lon="0.3951360">
        <ele>236.4</ele>
        <time>2020-08-07T11:50:39Z</time>
      </trkpt>
      <trkpt lat="41.0063780" lon="0.3951670">
        <ele>236.3</ele>
        <time>2020-08-07T11:50:40Z</time>
      </trkpt>
      <trkpt lat="41.0063550" lon="0.3952190">
        <ele>236.2</ele>
        <time>2020-08-07T11:50:42Z</time>
      </trkpt>
      <trkpt lat="41.0063400" lon="0.3952670">
        <ele>236.1</ele>
        <time>2020-08-07T11:50:43Z</time>
      </trkpt>
      <trkpt lat="41.0063270" lon="0.3953310">
        <ele>236.0</ele>
        <time>2020-08-07T11:50:45Z</time>
      </trkpt>
      <trkpt lat="41.0063190" lon="0.3953670">
        <ele>235.9</ele>
        <time>2020-08-07T11:50:46Z</time>
      </trkpt>
      <trkpt lat="41.0063120" lon="0.3953990">
        <ele>235.8</ele>
        <time>2020-08-07T11:50:47Z</time>
      </trkpt>
      <trkpt lat="41.0062820" lon="0.3954450">
        <ele>235.7</ele>
        <time>2020-08-07T11:50:49Z</time>
      </trkpt>
      <trkpt lat="41.0062810" lon="0.3954860">
        <ele>235.7</ele>
        <time>2020-08-07T11:50:50Z</time>
      </trkpt>
      <trkpt lat="41.0062690" lon="0.3955290">
        <ele>235.6</ele>
        <time>2020-08-07T11:50:51Z</time>
      </trkpt>
      <trkpt lat="41.0062520" lon="0.3955870">
        <ele>235.5</ele>
        <time>2020-08-07T11:50:53Z</time>
      </trkpt>
      <trkpt lat="41.0062430" lon="0.3956510">
        <ele>235.4</ele>
        <time>2020-08-07T11:50:55Z</time>
      </trkpt>
      <trkpt lat="41.0062280" lon="0.3956960">
        <ele>235.3</ele>
        <time>2020-08-07T11:50:57Z</time>
      </trkpt>
      <trkpt lat="41.0062150" lon="0.3957430">
        <ele>235.2</ele>
        <time>2020-08-07T11:50:58Z</time>
      </trkpt>
      <trkpt lat="41.0062050" lon="0.3957900">
        <ele>235.1</ele>
        <time>2020-08-07T11:51:00Z</time>
      </trkpt>
      <trkpt lat="41.0062000" lon="0.3958310">
        <ele>235.1</ele>
        <time>2020-08-07T11:51:01Z</time>
      </trkpt>
      <trkpt lat="41.0061900" lon="0.3958390">
        <ele>235.1</ele>
        <time>2020-08-07T11:51:02Z</time>
      </trkpt>
      <trkpt lat="41.0061730" lon="0.3958870">
        <ele>235.0</ele>
        <time>2020-08-07T11:51:04Z</time>
      </trkpt>
      <trkpt lat="41.0061660" lon="0.3959220">
        <ele>234.9</ele>
        <time>2020-08-07T11:51:05Z</time>
      </trkpt>
      <trkpt lat="41.0061510" lon="0.3959930">
        <ele>234.8</ele>
        <time>2020-08-07T11:51:07Z</time>
      </trkpt>
      <trkpt lat="41.0061380" lon="0.3960490">
        <ele>234.7</ele>
        <time>2020-08-07T11:51:08Z</time>
      </trkpt>
      <trkpt lat="41.0061320" lon="0.3960910">
        <ele>234.7</ele>
        <time>2020-08-07T11:51:10Z</time>
      </trkpt>
      <trkpt lat="41.0061200" lon="0.3961320">
        <ele>234.6</ele>
        <time>2020-08-07T11:51:11Z</time>
      </trkpt>
      <trkpt lat="41.0061120" lon="0.3961760">
        <ele>234.6</ele>
        <time>2020-08-07T11:51:12Z</time>
      </trkpt>
      <trkpt lat="41.0061060" lon="0.3962110">
        <ele>234.5</ele>
        <time>2020-08-07T11:51:13Z</time>
      </trkpt>
      <trkpt lat="41.0061000" lon="0.3962620">
        <ele>234.5</ele>
        <time>2020-08-07T11:51:14Z</time>
      </trkpt>
      <trkpt lat="41.0060950" lon="0.3963150">
        <ele>234.4</ele>
        <time>2020-08-07T11:51:16Z</time>
      </trkpt>
      <trkpt lat="41.0060900" lon="0.3963520">
        <ele>234.4</ele>
        <time>2020-08-07T11:51:17Z</time>
      </trkpt>
      <trkpt lat="41.0060860" lon="0.3963890">
        <ele>234.3</ele>
        <time>2020-08-07T11:51:18Z</time>
      </trkpt>
      <trkpt lat="41.0060820" lon="0.3964280">
        <ele>234.3</ele>
        <time>2020-08-07T11:51:19Z</time>
      </trkpt>
      <trkpt lat="41.0060790" lon="0.3964990">
        <ele>234.2</ele>
        <time>2020-08-07T11:51:21Z</time>
      </trkpt>
      <trkpt lat="41.0060780" lon="0.3965510">
        <ele>234.1</ele>
        <time>2020-08-07T11:51:22Z</time>
      </trkpt>
      <trkpt lat="41.0060750" lon="0.3966160">
        <ele>234.0</ele>
        <time>2020-08-07T11:51:23Z</time>
      </trkpt>
      <trkpt lat="41.0060730" lon="0.3966790">
        <ele>233.9</ele>
        <time>2020-08-07T11:51:25Z</time>
      </trkpt>
      <trkpt lat="41.0060730" lon="0.3967280">
        <ele>233.8</ele>
        <time>2020-08-07T11:51:26Z</time>
      </trkpt>
      <trkpt lat="41.0060740" lon="0.3967800">
        <ele>233.7</ele>
        <time>2020-08-07T11:51:27Z</time>
      </trkpt>
      <trkpt lat="41.0060730" lon="0.3968300">
        <ele>233.6</ele>
        <time>2020-08-07T11:51:28Z</time>
      </trkpt>
      <trkpt lat="41.0060740" lon="0.3969080">
        <ele>233.4</ele>
        <time>2020-08-07T11:51:30Z</time>
      </trkpt>
      <trkpt lat="41.0060750" lon="0.3969760">
        <ele>233.3</ele>
        <time>2020-08-07T11:51:31Z</time>
      </trkpt>
      <trkpt lat="41.0060750" lon="0.3970240">
        <ele>233.2</ele>
        <time>2020-08-07T11:51:32Z</time>
      </trkpt>
      <trkpt lat="41.0060770" lon="0.3970750">
        <ele>233.0</ele>
        <time>2020-08-07T11:51:33Z</time>
      </trkpt>
      <trkpt lat="41.0060800" lon="0.3971270">
        <ele>232.8</ele>
        <time>2020-08-07T11:51:34Z</time>
      </trkpt>
      <trkpt lat="41.0060860" lon="0.3972140">
        <ele>232.5</ele>
        <time>2020-08-07T11:51:36Z</time>
      </trkpt>
      <trkpt lat="41.0060910" lon="0.3972720">
        <ele>232.2</ele>
        <time>2020-08-07T11:51:37Z</time>
      </trkpt>
      <trkpt lat="41.0060960" lon="0.3973580">
        <ele>232.3</ele>
        <time>2020-08-07T11:51:39Z</time>
      </trkpt>
      <trkpt lat="41.0061030" lon="0.3974200">
        <ele>232.3</ele>
        <time>2020-08-07T11:51:40Z</time>
      </trkpt>
      <trkpt lat="41.0061140" lon="0.3975110">
        <ele>232.3</ele>
        <time>2020-08-07T11:51:42Z</time>
      </trkpt>
      <trkpt lat="41.0061220" lon="0.3975680">
        <ele>232.2</ele>
        <time>2020-08-07T11:51:43Z</time>
      </trkpt>
      <trkpt lat="41.0061270" lon="0.3976150">
        <ele>232.1</ele>
        <time>2020-08-07T11:51:44Z</time>
      </trkpt>
      <trkpt lat="41.0061320" lon="0.3976640">
        <ele>232.0</ele>
        <time>2020-08-07T11:51:45Z</time>
      </trkpt>
      <trkpt lat="41.0061390" lon="0.3977290">
        <ele>232.0</ele>
        <time>2020-08-07T11:51:47Z</time>
      </trkpt>
      <trkpt lat="41.0061410" lon="0.3977530">
        <ele>231.9</ele>
        <time>2020-08-07T11:51:48Z</time>
      </trkpt>
      <trkpt lat="41.0061440" lon="0.3977760">
        <ele>231.9</ele>
        <time>2020-08-07T11:51:49Z</time>
      </trkpt>
      <trkpt lat="41.0061480" lon="0.3978200">
        <ele>231.9</ele>
        <time>2020-08-07T11:51:51Z</time>
      </trkpt>
      <trkpt lat="41.0061480" lon="0.3978340">
        <ele>231.8</ele>
        <time>2020-08-07T11:51:52Z</time>
      </trkpt>
      <trkpt lat="41.0061500" lon="0.3978590">
        <ele>231.8</ele>
        <time>2020-08-07T11:51:53Z</time>
      </trkpt>
      <trkpt lat="41.0061460" lon="0.3979880">
        <ele>231.6</ele>
        <time>2020-08-07T11:52:49Z</time>
      </trkpt>
      <trkpt lat="41.0061400" lon="0.3985230">
        <ele>230.7</ele>
        <time>2020-08-07T11:52:50Z</time>
      </trkpt>
      <trkpt lat="41.0061300" lon="0.3992810">
        <ele>230.0</ele>
        <time>2020-08-07T11:52:51Z</time>
      </trkpt>
      <trkpt lat="41.0061180" lon="0.4006790">
        <ele>228.0</ele>
        <time>2020-08-07T11:52:53Z</time>
      </trkpt>
      <trkpt lat="41.0061190" lon="0.4008450">
        <ele>227.8</ele>
        <time>2020-08-07T11:52:54Z</time>
      </trkpt>
      <trkpt lat="41.0061220" lon="0.4009590">
        <ele>227.7</ele>
        <time>2020-08-07T11:52:55Z</time>
      </trkpt>
      <trkpt lat="41.0061320" lon="0.4009870">
        <ele>227.7</ele>
        <time>2020-08-07T11:52:56Z</time>
      </trkpt>
      <trkpt lat="41.0061540" lon="0.4010410">
        <ele>227.4</ele>
        <time>2020-08-07T11:52:58Z</time>
      </trkpt>
      <trkpt lat="41.0061570" lon="0.4011140">
        <ele>227.2</ele>
        <time>2020-08-07T11:52:59Z</time>
      </trkpt>
      <trkpt lat="41.0061450" lon="0.4011990">
        <ele>226.8</ele>
        <time>2020-08-07T11:53:01Z</time>
      </trkpt>
      <trkpt lat="41.0061330" lon="0.4012360">
        <ele>226.7</ele>
        <time>2020-08-07T11:53:03Z</time>
      </trkpt>
      <trkpt lat="41.0061270" lon="0.4012550">
        <ele>226.6</ele>
        <time>2020-08-07T11:53:05Z</time>
      </trkpt>
      <trkpt lat="41.0061250" lon="0.4012630">
        <ele>226.6</ele>
        <time>2020-08-07T11:53:06Z</time>
      </trkpt>
      <trkpt lat="41.0061240" lon="0.4012700">
        <ele>226.5</ele>
        <time>2020-08-07T11:53:07Z</time>
      </trkpt>
      <trkpt lat="41.0061230" lon="0.4012800">
        <ele>226.5</ele>
        <time>2020-08-07T11:53:08Z</time>
      </trkpt>
      <trkpt lat="41.0061220" lon="0.4012850">
        <ele>226.5</ele>
        <time>2020-08-07T11:53:09Z</time>
      </trkpt>
      <trkpt lat="41.0061230" lon="0.4012900">
        <ele>226.5</ele>
        <time>2020-08-07T11:53:11Z</time>
      </trkpt>
      <trkpt lat="41.0061320" lon="0.4012950">
        <ele>226.4</ele>
        <time>2020-08-07T11:53:13Z</time>
      </trkpt>
      <trkpt lat="41.0061480" lon="0.4012950">
        <ele>226.3</ele>
        <time>2020-08-07T11:53:33Z</time>
      </trkpt>
      <trkpt lat="41.0061540" lon="0.4012970">
        <ele>226.3</ele>
        <time>2020-08-07T11:53:34Z</time>
      </trkpt>
      <trkpt lat="41.0061600" lon="0.4012950">
        <ele>226.3</ele>
        <time>2020-08-07T11:53:36Z</time>
      </trkpt>
      <trkpt lat="41.0061600" lon="0.4012870">
        <ele>226.3</ele>
        <time>2020-08-07T11:53:37Z</time>
      </trkpt>
      <trkpt lat="41.0061590" lon="0.4012790">
        <ele>226.2</ele>
        <time>2020-08-07T11:53:38Z</time>
      </trkpt>
      <trkpt lat="41.0061550" lon="0.4012730">
        <ele>226.2</ele>
        <time>2020-08-07T11:53:40Z</time>
      </trkpt>
      <trkpt lat="41.0061540" lon="0.4012720">
        <ele>226.2</ele>
        <time>2020-08-07T11:53:42Z</time>
      </trkpt>
      <trkpt lat="41.0061550" lon="0.4012730">
        <ele>226.2</ele>
        <time>2020-08-07T11:53:43Z</time>
      </trkpt>
      <trkpt lat="41.0061550" lon="0.4012750">
        <ele>226.2</ele>
        <time>2020-08-07T11:53:44Z</time>
      </trkpt>
      <trkpt lat="41.0061560" lon="0.4012780">
        <ele>226.2</ele>
        <time>2020-08-07T11:53:46Z</time>
      </trkpt>
      <trkpt lat="41.0061560" lon="0.4012790">
        <ele>226.2</ele>
        <time>2020-08-07T11:53:47Z</time>
      </trkpt>
      <trkpt lat="41.0061560" lon="0.4012790">
        <ele>226.2</ele>
        <time>2020-08-07T11:53:48Z</time>
      </trkpt>
      <trkpt lat="41.0061340" lon="0.4013690">
        <ele>225.8</ele>
        <time>2020-08-07T11:54:26Z</time>
      </trkpt>
      <trkpt lat="41.0061350" lon="0.4013900">
        <ele>225.8</ele>
        <time>2020-08-07T11:54:27Z</time>
      </trkpt>
      <trkpt lat="41.0061300" lon="0.4014360">
        <ele>225.6</ele>
        <time>2020-08-07T11:54:29Z</time>
      </trkpt>
      <trkpt lat="41.0061260" lon="0.4014980">
        <ele>225.4</ele>
        <time>2020-08-07T11:54:31Z</time>
      </trkpt>
      <trkpt lat="41.0061220" lon="0.4015430">
        <ele>225.2</ele>
        <time>2020-08-07T11:54:32Z</time>
      </trkpt>
      <trkpt lat="41.0061200" lon="0.4015590">
        <ele>225.2</ele>
        <time>2020-08-07T11:54:33Z</time>
      </trkpt>
      <trkpt lat="41.0061160" lon="0.4016090">
        <ele>225.0</ele>
        <time>2020-08-07T11:54:34Z</time>
      </trkpt>
      <trkpt lat="41.0061160" lon="0.4016230">
        <ele>225.0</ele>
        <time>2020-08-07T11:54:35Z</time>
      </trkpt>
      <trkpt lat="41.0061150" lon="0.4016850">
        <ele>224.8</ele>
        <time>2020-08-07T11:54:37Z</time>
      </trkpt>
      <trkpt lat="41.0061140" lon="0.4017350">
        <ele>224.8</ele>
        <time>2020-08-07T11:54:38Z</time>
      </trkpt>
      <trkpt lat="41.0061130" lon="0.4017510">
        <ele>224.8</ele>
        <time>2020-08-07T11:54:39Z</time>
      </trkpt>
      <trkpt lat="41.0061050" lon="0.4018280">
        <ele>225.0</ele>
        <time>2020-08-07T11:54:41Z</time>
      </trkpt>
      <trkpt lat="41.0061000" lon="0.4019010">
        <ele>225.1</ele>
        <time>2020-08-07T11:54:43Z</time>
      </trkpt>
      <trkpt lat="41.0060990" lon="0.4019410">
        <ele>225.1</ele>
        <time>2020-08-07T11:54:44Z</time>
      </trkpt>
      <trkpt lat="41.0060990" lon="0.4020060">
        <ele>225.1</ele>
        <time>2020-08-07T11:54:46Z</time>
      </trkpt>
      <trkpt lat="41.0060980" lon="0.4020460">
        <ele>225.1</ele>
        <time>2020-08-07T11:54:47Z</time>
      </trkpt>
      <trkpt lat="41.0061000" lon="0.4021160">
        <ele>225.1</ele>
        <time>2020-08-07T11:54:49Z</time>
      </trkpt>
      <trkpt lat="41.0061020" lon="0.4021560">
        <ele>225.1</ele>
        <time>2020-08-07T11:54:50Z</time>
      </trkpt>
      <trkpt lat="41.0061030" lon="0.4022020">
        <ele>225.1</ele>
        <time>2020-08-07T11:54:51Z</time>
      </trkpt>
      <trkpt lat="41.0061080" lon="0.4022540">
        <ele>225.0</ele>
        <time>2020-08-07T11:54:52Z</time>
      </trkpt>
      <trkpt lat="41.0061090" lon="0.4022730">
        <ele>225.0</ele>
        <time>2020-08-07T11:54:53Z</time>
      </trkpt>
      <trkpt lat="41.0061140" lon="0.4023680">
        <ele>224.9</ele>
        <time>2020-08-07T11:54:55Z</time>
      </trkpt>
      <trkpt lat="41.0061140" lon="0.4024080">
        <ele>224.9</ele>
        <time>2020-08-07T11:54:56Z</time>
      </trkpt>
      <trkpt lat="41.0061120" lon="0.4024950">
        <ele>224.8</ele>
        <time>2020-08-07T11:54:58Z</time>
      </trkpt>
      <trkpt lat="41.0061090" lon="0.4025380">
        <ele>224.8</ele>
        <time>2020-08-07T11:54:59Z</time>
      </trkpt>
      <trkpt lat="41.0061000" lon="0.4026150">
        <ele>224.7</ele>
        <time>2020-08-07T11:55:01Z</time>
      </trkpt>
      <trkpt lat="41.0060880" lon="0.4027050">
        <ele>224.6</ele>
        <time>2020-08-07T11:55:03Z</time>
      </trkpt>
      <trkpt lat="41.0060840" lon="0.4027520">
        <ele>224.5</ele>
        <time>2020-08-07T11:55:04Z</time>
      </trkpt>
      <trkpt lat="41.0060810" lon="0.4028020">
        <ele>224.5</ele>
        <time>2020-08-07T11:55:05Z</time>
      </trkpt>
      <trkpt lat="41.0060790" lon="0.4028420">
        <ele>224.5</ele>
        <time>2020-08-07T11:55:06Z</time>
      </trkpt>
      <trkpt lat="41.0060790" lon="0.4029460">
        <ele>224.4</ele>
        <time>2020-08-07T11:55:08Z</time>
      </trkpt>
      <trkpt lat="41.0060780" lon="0.4029940">
        <ele>224.3</ele>
        <time>2020-08-07T11:55:09Z</time>
      </trkpt>
      <trkpt lat="41.0060760" lon="0.4030370">
        <ele>224.3</ele>
        <time>2020-08-07T11:55:10Z</time>
      </trkpt>
      <trkpt lat="41.0060670" lon="0.4031110">
        <ele>224.2</ele>
        <time>2020-08-07T11:55:12Z</time>
      </trkpt>
      <trkpt lat="41.0060630" lon="0.4031490">
        <ele>224.2</ele>
        <time>2020-08-07T11:55:13Z</time>
      </trkpt>
      <trkpt lat="41.0060610" lon="0.4031970">
        <ele>224.1</ele>
        <time>2020-08-07T11:55:14Z</time>
      </trkpt>
      <trkpt lat="41.0060530" lon="0.4032830">
        <ele>224.0</ele>
        <time>2020-08-07T11:55:16Z</time>
      </trkpt>
      <trkpt lat="41.0060450" lon="0.4033840">
        <ele>223.9</ele>
        <time>2020-08-07T11:55:18Z</time>
      </trkpt>
      <trkpt lat="41.0060410" lon="0.4034880">
        <ele>223.8</ele>
        <time>2020-08-07T11:55:20Z</time>
      </trkpt>
      <trkpt lat="41.0060360" lon="0.4035860">
        <ele>223.7</ele>
        <time>2020-08-07T11:55:22Z</time>
      </trkpt>
      <trkpt lat="41.0060350" lon="0.4036390">
        <ele>223.7</ele>
        <time>2020-08-07T11:55:23Z</time>
      </trkpt>
      <trkpt lat="41.0060390" lon="0.4037310">
        <ele>223.6</ele>
        <time>2020-08-07T11:55:25Z</time>
      </trkpt>
      <trkpt lat="41.0060400" lon="0.4037760">
        <ele>223.6</ele>
        <time>2020-08-07T11:55:26Z</time>
      </trkpt>
      <trkpt lat="41.0060390" lon="0.4038780">
        <ele>223.5</ele>
        <time>2020-08-07T11:55:28Z</time>
      </trkpt>
      <trkpt lat="41.0060360" lon="0.4039740">
        <ele>223.4</ele>
        <time>2020-08-07T11:55:30Z</time>
      </trkpt>
      <trkpt lat="41.0060350" lon="0.4040230">
        <ele>223.4</ele>
        <time>2020-08-07T11:55:31Z</time>
      </trkpt>
      <trkpt lat="41.0060340" lon="0.4040750">
        <ele>223.3</ele>
        <time>2020-08-07T11:55:32Z</time>
      </trkpt>
      <trkpt lat="41.0060350" lon="0.4041210">
        <ele>223.3</ele>
        <time>2020-08-07T11:55:33Z</time>
      </trkpt>
      <trkpt lat="41.0060390" lon="0.4042070">
        <ele>223.2</ele>
        <time>2020-08-07T11:55:35Z</time>
      </trkpt>
      <trkpt lat="41.0060390" lon="0.4042560">
        <ele>223.2</ele>
        <time>2020-08-07T11:55:36Z</time>
      </trkpt>
      <trkpt lat="41.0060370" lon="0.4043090">
        <ele>223.1</ele>
        <time>2020-08-07T11:55:37Z</time>
      </trkpt>
      <trkpt lat="41.0060340" lon="0.4044050">
        <ele>223.0</ele>
        <time>2020-08-07T11:55:39Z</time>
      </trkpt>
      <trkpt lat="41.0060290" lon="0.4045100">
        <ele>222.9</ele>
        <time>2020-08-07T11:55:41Z</time>
      </trkpt>
      <trkpt lat="41.0060250" lon="0.4045570">
        <ele>222.9</ele>
        <time>2020-08-07T11:55:42Z</time>
      </trkpt>
      <trkpt lat="41.0060140" lon="0.4046790">
        <ele>222.8</ele>
        <time>2020-08-07T11:55:44Z</time>
      </trkpt>
      <trkpt lat="41.0060130" lon="0.4047300">
        <ele>222.7</ele>
        <time>2020-08-07T11:55:45Z</time>
      </trkpt>
      <trkpt lat="41.0060130" lon="0.4047860">
        <ele>222.7</ele>
        <time>2020-08-07T11:55:46Z</time>
      </trkpt>
      <trkpt lat="41.0060130" lon="0.4048350">
        <ele>222.6</ele>
        <time>2020-08-07T11:55:47Z</time>
      </trkpt>
      <trkpt lat="41.0060120" lon="0.4048920">
        <ele>222.5</ele>
        <time>2020-08-07T11:55:48Z</time>
      </trkpt>
      <trkpt lat="41.0060130" lon="0.4049960">
        <ele>222.4</ele>
        <time>2020-08-07T11:55:50Z</time>
      </trkpt>
      <trkpt lat="41.0060140" lon="0.4050500">
        <ele>222.3</ele>
        <time>2020-08-07T11:55:51Z</time>
      </trkpt>
      <trkpt lat="41.0060150" lon="0.4051630">
        <ele>222.0</ele>
        <time>2020-08-07T11:55:53Z</time>
      </trkpt>
      <trkpt lat="41.0060140" lon="0.4052410">
        <ele>221.7</ele>
        <time>2020-08-07T11:55:54Z</time>
      </trkpt>
      <trkpt lat="41.0060140" lon="0.4053060">
        <ele>221.5</ele>
        <time>2020-08-07T11:55:56Z</time>
      </trkpt>
      <trkpt lat="41.0060170" lon="0.4053720">
        <ele>221.2</ele>
        <time>2020-08-07T11:55:57Z</time>
      </trkpt>
      <trkpt lat="41.0060180" lon="0.4054520">
        <ele>220.8</ele>
        <time>2020-08-07T11:55:59Z</time>
      </trkpt>
      <trkpt lat="41.0060160" lon="0.4055310">
        <ele>220.2</ele>
        <time>2020-08-07T11:56:00Z</time>
      </trkpt>
      <trkpt lat="41.0060130" lon="0.4055930">
        <ele>219.9</ele>
        <time>2020-08-07T11:56:01Z</time>
      </trkpt>
      <trkpt lat="41.0060040" lon="0.4056530">
        <ele>219.7</ele>
        <time>2020-08-07T11:56:03Z</time>
      </trkpt>
      <trkpt lat="41.0060000" lon="0.4056790">
        <ele>219.7</ele>
        <time>2020-08-07T11:56:04Z</time>
      </trkpt>
      <trkpt lat="41.0059920" lon="0.4057160">
        <ele>219.6</ele>
        <time>2020-08-07T11:56:06Z</time>
      </trkpt>
      <trkpt lat="41.0059860" lon="0.4057380">
        <ele>219.6</ele>
        <time>2020-08-07T11:56:07Z</time>
      </trkpt>
      <trkpt lat="41.0059810" lon="0.4057610">
        <ele>219.5</ele>
        <time>2020-08-07T11:56:08Z</time>
      </trkpt>
      <trkpt lat="41.0059750" lon="0.4057960">
        <ele>219.4</ele>
        <time>2020-08-07T11:56:10Z</time>
      </trkpt>
      <trkpt lat="41.0059730" lon="0.4058090">
        <ele>219.4</ele>
        <time>2020-08-07T11:56:11Z</time>
      </trkpt>
      <trkpt lat="41.0059700" lon="0.4058250">
        <ele>219.4</ele>
        <time>2020-08-07T11:56:12Z</time>
      </trkpt>
      <trkpt lat="41.0059670" lon="0.4058440">
        <ele>219.3</ele>
        <time>2020-08-07T11:56:14Z</time>
      </trkpt>
      <trkpt lat="41.0061830" lon="0.4087400">
        <ele>214.5</ele>
        <time>2020-08-07T11:57:03Z</time>
      </trkpt>
      <trkpt lat="41.0061910" lon="0.4087480">
        <ele>214.5</ele>
        <time>2020-08-07T11:57:04Z</time>
      </trkpt>
      <trkpt lat="41.0062120" lon="0.4088140">
        <ele>214.4</ele>
        <time>2020-08-07T11:57:06Z</time>
      </trkpt>
      <trkpt lat="41.0062240" lon="0.4088760">
        <ele>214.3</ele>
        <time>2020-08-07T11:57:07Z</time>
      </trkpt>
      <trkpt lat="41.0062350" lon="0.4089400">
        <ele>214.2</ele>
        <time>2020-08-07T11:57:08Z</time>
      </trkpt>
      <trkpt lat="41.0062490" lon="0.4090220">
        <ele>214.0</ele>
        <time>2020-08-07T11:57:10Z</time>
      </trkpt>
      <trkpt lat="41.0062560" lon="0.4090470">
        <ele>214.0</ele>
        <time>2020-08-07T11:57:11Z</time>
      </trkpt>
      <trkpt lat="41.0062670" lon="0.4090500">
        <ele>214.0</ele>
        <time>2020-08-07T11:57:12Z</time>
      </trkpt>
      <trkpt lat="41.0062710" lon="0.4090380">
        <ele>214.0</ele>
        <time>2020-08-07T11:57:14Z</time>
      </trkpt>
      <trkpt lat="41.0062720" lon="0.4090310">
        <ele>214.0</ele>
        <time>2020-08-07T11:57:15Z</time>
      </trkpt>
      <trkpt lat="41.0062740" lon="0.4090310">
        <ele>214.0</ele>
        <time>2020-08-07T11:57:16Z</time>
      </trkpt>
      <trkpt lat="41.0062720" lon="0.4090340">
        <ele>213.9</ele>
        <time>2020-08-07T11:57:18Z</time>
      </trkpt>
      <trkpt lat="41.0062740" lon="0.4090370">
        <ele>213.9</ele>
        <time>2020-08-07T11:57:19Z</time>
      </trkpt>
      <trkpt lat="41.0062760" lon="0.4090400">
        <ele>213.9</ele>
        <time>2020-08-07T11:57:20Z</time>
      </trkpt>
      <trkpt lat="41.0062800" lon="0.4090410">
        <ele>213.9</ele>
        <time>2020-08-07T11:57:21Z</time>
      </trkpt>
      <trkpt lat="41.0062810" lon="0.4090440">
        <ele>213.9</ele>
        <time>2020-08-07T11:57:22Z</time>
      </trkpt>
      <trkpt lat="41.0062830" lon="0.4090460">
        <ele>213.9</ele>
        <time>2020-08-07T11:57:23Z</time>
      </trkpt>
      <trkpt lat="41.0062850" lon="0.4090490">
        <ele>213.9</ele>
        <time>2020-08-07T11:57:24Z</time>
      </trkpt>
      <trkpt lat="41.0062880" lon="0.4090550">
        <ele>213.9</ele>
        <time>2020-08-07T11:57:26Z</time>
      </trkpt>
      <trkpt lat="41.0063150" lon="0.4090890">
        <ele>213.8</ele>
        <time>2020-08-07T11:57:50Z</time>
      </trkpt>
      <trkpt lat="41.0063240" lon="0.4090860">
        <ele>213.8</ele>
        <time>2020-08-07T11:57:52Z</time>
      </trkpt>
      <trkpt lat="41.0063350" lon="0.4090780">
        <ele>213.8</ele>
        <time>2020-08-07T11:57:53Z</time>
      </trkpt>
      <trkpt lat="41.0063420" lon="0.4090790">
        <ele>213.8</ele>
        <time>2020-08-07T11:57:54Z</time>
      </trkpt>
      <trkpt lat="41.0063540" lon="0.4090970">
        <ele>213.7</ele>
        <time>2020-08-07T11:57:55Z</time>
      </trkpt>
      <trkpt lat="41.0063570" lon="0.4091110">
        <ele>213.7</ele>
        <time>2020-08-07T11:57:57Z</time>
      </trkpt>
      <trkpt lat="41.0063590" lon="0.4091240">
        <ele>213.7</ele>
        <time>2020-08-07T11:57:58Z</time>
      </trkpt>
      <trkpt lat="41.0063670" lon="0.4091440">
        <ele>213.7</ele>
        <time>2020-08-07T11:57:59Z</time>
      </trkpt>
      <trkpt lat="41.0063770" lon="0.4092050">
        <ele>213.6</ele>
        <time>2020-08-07T11:58:01Z</time>
      </trkpt>
      <trkpt lat="41.0063720" lon="0.4092900">
        <ele>213.4</ele>
        <time>2020-08-07T11:58:02Z</time>
      </trkpt>
      <trkpt lat="41.0063780" lon="0.4093500">
        <ele>213.3</ele>
        <time>2020-08-07T11:58:03Z</time>
      </trkpt>
      <trkpt lat="41.0063800" lon="0.4094240">
        <ele>213.1</ele>
        <time>2020-08-07T11:58:05Z</time>
      </trkpt>
      <trkpt lat="41.0063830" lon="0.4094720">
        <ele>213.0</ele>
        <time>2020-08-07T11:58:06Z</time>
      </trkpt>
      <trkpt lat="41.0063900" lon="0.4095270">
        <ele>212.9</ele>
        <time>2020-08-07T11:58:08Z</time>
      </trkpt>
      <trkpt lat="41.0063960" lon="0.4095690">
        <ele>212.8</ele>
        <time>2020-08-07T11:58:09Z</time>
      </trkpt>
      <trkpt lat="41.0064100" lon="0.4096440">
        <ele>212.5</ele>
        <time>2020-08-07T11:58:11Z</time>
      </trkpt>
      <trkpt lat="41.0064280" lon="0.4097100">
        <ele>212.3</ele>
        <time>2020-08-07T11:58:13Z</time>
      </trkpt>
      <trkpt lat="41.0064360" lon="0.4097440">
        <ele>212.2</ele>
        <time>2020-08-07T11:58:14Z</time>
      </trkpt>
      <trkpt lat="41.0064530" lon="0.4097990">
        <ele>212.1</ele>
        <time>2020-08-07T11:58:16Z</time>
      </trkpt>
      <trkpt lat="41.0064660" lon="0.4098420">
        <ele>211.9</ele>
        <time>2020-08-07T11:58:17Z</time>
      </trkpt>
      <trkpt lat="41.0064740" lon="0.4098760">
        <ele>211.8</ele>
        <time>2020-08-07T11:58:18Z</time>
      </trkpt>
      <trkpt lat="41.0064980" lon="0.4099520">
        <ele>211.6</ele>
        <time>2020-08-07T11:58:20Z</time>
      </trkpt>
      <trkpt lat="41.0065080" lon="0.4100100">
        <ele>211.4</ele>
        <time>2020-08-07T11:58:22Z</time>
      </trkpt>
      <trkpt lat="41.0065170" lon="0.4100600">
        <ele>211.2</ele>
        <time>2020-08-07T11:58:23Z</time>
      </trkpt>
      <trkpt lat="41.0065370" lon="0.4101060">
        <ele>211.0</ele>
        <time>2020-08-07T11:58:24Z</time>
      </trkpt>
      <trkpt lat="41.0065430" lon="0.4101220">
        <ele>211.0</ele>
        <time>2020-08-07T11:58:25Z</time>
      </trkpt>
      <trkpt lat="41.0065540" lon="0.4101750">
        <ele>210.8</ele>
        <time>2020-08-07T11:58:26Z</time>
      </trkpt>
      <trkpt lat="41.0065550" lon="0.4101960">
        <ele>210.7</ele>
        <time>2020-08-07T11:58:27Z</time>
      </trkpt>
      <trkpt lat="41.0065470" lon="0.4102390">
        <ele>210.5</ele>
        <time>2020-08-07T11:58:29Z</time>
      </trkpt>
      <trkpt lat="41.0065370" lon="0.4102640">
        <ele>210.4</ele>
        <time>2020-08-07T11:58:30Z</time>
      </trkpt>
      <trkpt lat="41.0065210" lon="0.4102940">
        <ele>210.3</ele>
        <time>2020-08-07T11:58:32Z</time>
      </trkpt>
      <trkpt lat="41.0065240" lon="0.4103300">
        <ele>210.1</ele>
        <time>2020-08-07T11:58:33Z</time>
      </trkpt>
      <trkpt lat="41.0065500" lon="0.4104000">
        <ele>209.8</ele>
        <time>2020-08-07T11:58:35Z</time>
      </trkpt>
      <trkpt lat="41.0065680" lon="0.4104470">
        <ele>209.5</ele>
        <time>2020-08-07T11:58:36Z</time>
      </trkpt>
      <trkpt lat="41.0065830" lon="0.4104840">
        <ele>209.3</ele>
        <time>2020-08-07T11:58:37Z</time>
      </trkpt>
      <trkpt lat="41.0066000" lon="0.4105210">
        <ele>209.1</ele>
        <time>2020-08-07T11:58:38Z</time>
      </trkpt>
      <trkpt lat="41.0066130" lon="0.4105580">
        <ele>209.0</ele>
        <time>2020-08-07T11:58:40Z</time>
      </trkpt>
      <trkpt lat="41.0066170" lon="0.4105710">
        <ele>209.0</ele>
        <time>2020-08-07T11:58:41Z</time>
      </trkpt>
      <trkpt lat="41.0066220" lon="0.4105920">
        <ele>208.9</ele>
        <time>2020-08-07T11:58:42Z</time>
      </trkpt>
      <trkpt lat="41.0066260" lon="0.4106130">
        <ele>208.8</ele>
        <time>2020-08-07T11:58:43Z</time>
      </trkpt>
      <trkpt lat="41.0066300" lon="0.4106500">
        <ele>208.7</ele>
        <time>2020-08-07T11:58:45Z</time>
      </trkpt>
      <trkpt lat="41.0066310" lon="0.4106620">
        <ele>208.7</ele>
        <time>2020-08-07T11:58:46Z</time>
      </trkpt>
      <trkpt lat="41.0066330" lon="0.4106830">
        <ele>208.6</ele>
        <time>2020-08-07T11:58:47Z</time>
      </trkpt>
      <trkpt lat="41.0066390" lon="0.4107170">
        <ele>208.5</ele>
        <time>2020-08-07T11:58:49Z</time>
      </trkpt>
      <trkpt lat="41.0066400" lon="0.4107380">
        <ele>208.4</ele>
        <time>2020-08-07T11:58:51Z</time>
      </trkpt>
      <trkpt lat="41.0036680" lon="0.4187350">
        <ele>198.9</ele>
        <time>2020-08-07T12:04:28Z</time>
      </trkpt>
      <trkpt lat="41.0036650" lon="0.4186970">
        <ele>198.8</ele>
        <time>2020-08-07T12:04:30Z</time>
      </trkpt>
      <trkpt lat="41.0036680" lon="0.4186720">
        <ele>198.8</ele>
        <time>2020-08-07T12:04:32Z</time>
      </trkpt>
      <trkpt lat="41.0036720" lon="0.4186560">
        <ele>198.8</ele>
        <time>2020-08-07T12:04:33Z</time>
      </trkpt>
      <trkpt lat="41.0036770" lon="0.4186260">
        <ele>198.7</ele>
        <time>2020-08-07T12:04:34Z</time>
      </trkpt>
      <trkpt lat="41.0036850" lon="0.4185840">
        <ele>198.7</ele>
        <time>2020-08-07T12:04:36Z</time>
      </trkpt>
      <trkpt lat="41.0036920" lon="0.4185620">
        <ele>198.7</ele>
        <time>2020-08-07T12:04:37Z</time>
      </trkpt>
      <trkpt lat="41.0036940" lon="0.4185510">
        <ele>198.6</ele>
        <time>2020-08-07T12:04:39Z</time>
      </trkpt>
      <trkpt lat="41.0036920" lon="0.4185540">
        <ele>198.6</ele>
        <time>2020-08-07T12:04:40Z</time>
      </trkpt>
      <trkpt lat="41.0036890" lon="0.4185610">
        <ele>198.6</ele>
        <time>2020-08-07T12:04:42Z</time>
      </trkpt>
      <trkpt lat="41.0036870" lon="0.4185650">
        <ele>198.6</ele>
        <time>2020-08-07T12:04:43Z</time>
      </trkpt>
      <trkpt lat="41.0036850" lon="0.4185700">
        <ele>198.6</ele>
        <time>2020-08-07T12:04:45Z</time>
      </trkpt>
      <trkpt lat="41.0036850" lon="0.4185710">
        <ele>198.6</ele>
        <time>2020-08-07T12:04:47Z</time>
      </trkpt>
      <trkpt lat="41.0036850" lon="0.4185710">
        <ele>198.6</ele>
        <time>2020-08-07T12:04:48Z</time>
      </trkpt>
      <trkpt lat="41.0036850" lon="0.4185710">
        <ele>198.6</ele>
        <time>2020-08-07T12:04:49Z</time>
      </trkpt>
      <trkpt lat="41.0036860" lon="0.4185700">
        <ele>198.6</ele>
        <time>2020-08-07T12:04:50Z</time>
      </trkpt>
      <trkpt lat="41.0036760" lon="0.4185790">
        <ele>198.6</ele>
        <time>2020-08-07T12:05:10Z</time>
      </trkpt>
      <trkpt lat="41.0036660" lon="0.4185970">
        <ele>198.6</ele>
        <time>2020-08-07T12:05:12Z</time>
      </trkpt>
      <trkpt lat="41.0036600" lon="0.4186040">
        <ele>198.5</ele>
        <time>2020-08-07T12:05:13Z</time>
      </trkpt>
      <trkpt lat="41.0036570" lon="0.4186020">
        <ele>198.5</ele>
        <time>2020-08-07T12:05:14Z</time>
      </trkpt>
      <trkpt lat="41.0036530" lon="0.4185960">
        <ele>198.5</ele>
        <time>2020-08-07T12:05:15Z</time>
      </trkpt>
      <trkpt lat="41.0036540" lon="0.4185760">
        <ele>198.5</ele>
        <time>2020-08-07T12:05:17Z</time>
      </trkpt>
      <trkpt lat="41.0036550" lon="0.4185740">
        <ele>198.5</ele>
        <time>2020-08-07T12:05:18Z</time>
      </trkpt>
      <trkpt lat="41.0036510" lon="0.4185830">
        <ele>198.5</ele>
        <time>2020-08-07T12:05:19Z</time>
      </trkpt>
      <trkpt lat="41.0036340" lon="0.4186120">
        <ele>198.4</ele>
        <time>2020-08-07T12:05:21Z</time>
      </trkpt>
      <trkpt lat="41.0036180" lon="0.4186410">
        <ele>198.4</ele>
        <time>2020-08-07T12:05:23Z</time>
      </trkpt>
      <trkpt lat="41.0035970" lon="0.4186790">
        <ele>198.3</ele>
        <time>2020-08-07T12:05:25Z</time>
      </trkpt>
      <trkpt lat="41.0035670" lon="0.4187180">
        <ele>198.3</ele>
        <time>2020-08-07T12:05:27Z</time>
      </trkpt>
      <trkpt lat="41.0035390" lon="0.4187630">
        <ele>198.2</ele>
        <time>2020-08-07T12:05:29Z</time>
      </trkpt>
      <trkpt lat="41.0035180" lon="0.4187970">
        <ele>198.2</ele>
        <time>2020-08-07T12:05:30Z</time>
      </trkpt>
      <trkpt lat="41.0035110" lon="0.4188080">
        <ele>198.1</ele>
        <time>2020-08-07T12:05:31Z</time>
      </trkpt>
      <trkpt lat="41.0034870" lon="0.4188530">
        <ele>198.1</ele>
        <time>2020-08-07T12:05:33Z</time>
      </trkpt>
      <trkpt lat="41.0034770" lon="0.4188730">
        <ele>198.1</ele>
        <time>2020-08-07T12:05:34Z</time>
      </trkpt>
      <trkpt lat="41.0034560" lon="0.4189130">
        <ele>198.0</ele>
        <time>2020-08-07T12:05:36Z</time>
      </trkpt>
      <trkpt lat="41.0034400" lon="0.4189440">
        <ele>198.0</ele>
        <time>2020-08-07T12:05:38Z</time>
      </trkpt>
      <trkpt lat="41.0034360" lon="0.4189540">
        <ele>197.9</ele>
        <time>2020-08-07T12:05:39Z</time>
      </trkpt>
      <trkpt lat="41.0034230" lon="0.4189880">
        <ele>197.9</ele>
        <time>2020-08-07T12:05:41Z</time>
      </trkpt>
      <trkpt lat="41.0034070" lon="0.4190240">
        <ele>197.8</ele>
        <time>2020-08-07T12:05:42Z</time>
      </trkpt>
      <trkpt lat="41.0034020" lon="0.4190350">
        <ele>197.8</ele>
        <time>2020-08-07T12:05:43Z</time>
      </trkpt>
      <trkpt lat="41.0033820" lon="0.4190760">
        <ele>197.8</ele>
        <time>2020-08-07T12:05:45Z</time>
      </trkpt>
      <trkpt lat="41.0033730" lon="0.4190920">
        <ele>197.7</ele>
        <time>2020-08-07T12:05:46Z</time>
      </trkpt>
      <trkpt lat="41.0033550" lon="0.4191220">
        <ele>197.7</ele>
        <time>2020-08-07T12:05:48Z</time>
      </trkpt>
      <trkpt lat="41.0033470" lon="0.4191400">
        <ele>197.7</ele>
        <time>2020-08-07T12:05:49Z</time>
      </trkpt>
      <trkpt lat="41.0033450" lon="0.4191460">
        <ele>197.7</ele>
        <time>2020-08-07T12:05:51Z</time>
      </trkpt>
      <trkpt lat="41.0033590" lon="0.4191270">
        <ele>197.6</ele>
        <time>2020-08-07T12:05:53Z</time>
      </trkpt>
      <trkpt lat="41.0033600" lon="0.4191250">
        <ele>197.6</ele>
        <time>2020-08-07T12:05:54Z</time>
      </trkpt>
      <trkpt lat="41.0033600" lon="0.4191260">
        <ele>197.6</ele>
        <time>2020-08-07T12:05:55Z</time>
      </trkpt>
      <trkpt lat="41.0033600" lon="0.4191270">
        <ele>197.6</ele>
        <time>2020-08-07T12:05:56Z</time>
      </trkpt>
      <trkpt lat="41.0033600" lon="0.4191280">
        <ele>197.6</ele>
        <time>2020-08-07T12:05:57Z</time>
      </trkpt>
      <trkpt lat="41.0033630" lon="0.4191280">
        <ele>197.6</ele>
        <time>2020-08-07T12:05:59Z</time>
      </trkpt>
      <trkpt lat="41.0033630" lon="0.4191300">
        <ele>197.6</ele>
        <time>2020-08-07T12:06:01Z</time>
      </trkpt>
      <trkpt lat="41.0033630" lon="0.4191310">
        <ele>197.6</ele>
        <time>2020-08-07T12:06:03Z</time>
      </trkpt>
      <trkpt lat="41.0033630" lon="0.4191310">
        <ele>197.6</ele>
        <time>2020-08-07T12:06:05Z</time>
      </trkpt>
      <trkpt lat="41.0033530" lon="0.4191630">
        <ele>197.6</ele>
        <time>2020-08-07T12:06:32Z</time>
      </trkpt>
      <trkpt lat="41.0033470" lon="0.4191730">
        <ele>197.5</ele>
        <time>2020-08-07T12:06:33Z</time>
      </trkpt>
      <trkpt lat="41.0033420" lon="0.4191860">
        <ele>197.5</ele>
        <time>2020-08-07T12:06:34Z</time>
      </trkpt>
      <trkpt lat="41.0033340" lon="0.4192180">
        <ele>197.5</ele>
        <time>2020-08-07T12:06:36Z</time>
      </trkpt>
      <trkpt lat="41.0033120" lon="0.4192710">
        <ele>197.4</ele>
        <time>2020-08-07T12:06:38Z</time>
      </trkpt>
      <trkpt lat="41.0033210" lon="0.4192570">
        <ele>197.4</ele>
        <time>2020-08-07T12:06:40Z</time>
      </trkpt>
      <trkpt lat="41.0033250" lon="0.4192490">
        <ele>197.3</ele>
        <time>2020-08-07T12:06:41Z</time>
      </trkpt>
      <trkpt lat="41.0033230" lon="0.4192630">
        <ele>197.3</ele>
        <time>2020-08-07T12:06:43Z</time>
      </trkpt>
      <trkpt lat="41.0033160" lon="0.4192890">
        <ele>197.3</ele>
        <time>2020-08-07T12:06:45Z</time>
      </trkpt>
      <trkpt lat="41.0033090" lon="0.4193010">
        <ele>197.3</ele>
        <time>2020-08-07T12:06:46Z</time>
      </trkpt>
      <trkpt lat="41.0032950" lon="0.4193320">
        <ele>197.2</ele>
        <time>2020-08-07T12:06:48Z</time>
      </trkpt>
      <trkpt lat="41.0032870" lon="0.4193510">
        <ele>197.2</ele>
        <time>2020-08-07T12:06:49Z</time>
      </trkpt>
      <trkpt lat="41.0032710" lon="0.4193830">
        <ele>197.1</ele>
        <time>2020-08-07T12:06:51Z</time>
      </trkpt>
      <trkpt lat="41.0032550" lon="0.4194100">
        <ele>197.1</ele>
        <time>2020-08-07T12:06:52Z</time>
      </trkpt>
      <trkpt lat="41.0032340" lon="0.4194450">
        <ele>197.0</ele>
        <time>2020-08-07T12:06:54Z</time>
      </trkpt>
      <trkpt lat="41.0032200" lon="0.4194770">
        <ele>197.0</ele>
        <time>2020-08-07T12:06:55Z</time>
      </trkpt>
      <trkpt lat="41.0032030" lon="0.4195150">
        <ele>196.9</ele>
        <time>2020-08-07T12:06:57Z</time>
      </trkpt>
      <trkpt lat="41.0031860" lon="0.4195560">
        <ele>196.8</ele>
        <time>2020-08-07T12:06:59Z</time>
      </trkpt>
      <trkpt lat="41.0031740" lon="0.4195910">
        <ele>196.8</ele>
        <time>2020-08-07T12:07:00Z</time>
      </trkpt>
      <trkpt lat="41.0031510" lon="0.4196560">
        <ele>196.7</ele>
        <time>2020-08-07T12:07:01Z</time>
      </trkpt>
      <trkpt lat="41.0031380" lon="0.4196920">
        <ele>196.6</ele>
        <time>2020-08-07T12:07:02Z</time>
      </trkpt>
      <trkpt lat="41.0031140" lon="0.4197650">
        <ele>196.5</ele>
        <time>2020-08-07T12:07:04Z</time>
      </trkpt>
      <trkpt lat="41.0030970" lon="0.4198150">
        <ele>196.4</ele>
        <time>2020-08-07T12:07:05Z</time>
      </trkpt>
      <trkpt lat="41.0030830" lon="0.4198610">
        <ele>196.3</ele>
        <time>2020-08-07T12:07:06Z</time>
      </trkpt>
      <trkpt lat="41.0030720" lon="0.4198910">
        <ele>196.3</ele>
        <time>2020-08-07T12:07:07Z</time>
      </trkpt>
      <trkpt lat="41.0030580" lon="0.4199330">
        <ele>196.2</ele>
        <time>2020-08-07T12:07:09Z</time>
      </trkpt>
      <trkpt lat="41.0030470" lon="0.4199700">
        <ele>196.2</ele>
        <time>2020-08-07T12:07:10Z</time>
      </trkpt>
      <trkpt lat="41.0030400" lon="0.4199900">
        <ele>196.2</ele>
        <time>2020-08-07T12:07:11Z</time>
      </trkpt>
      <trkpt lat="41.0030360" lon="0.4200160">
        <ele>196.1</ele>
        <time>2020-08-07T12:07:13Z</time>
      </trkpt>
      <trkpt lat="41.0030370" lon="0.4200170">
        <ele>196.1</ele>
        <time>2020-08-07T12:07:14Z</time>
      </trkpt>
      <trkpt lat="41.0030370" lon="0.4200180">
        <ele>196.1</ele>
        <time>2020-08-07T12:07:15Z</time>
      </trkpt>
      <trkpt lat="41.0030370" lon="0.4200190">
        <ele>196.1</ele>
        <time>2020-08-07T12:07:16Z</time>
      </trkpt>
      <trkpt lat="41.0030380" lon="0.4200190">
        <ele>196.1</ele>
        <time>2020-08-07T12:07:17Z</time>
      </trkpt>
      <trkpt lat="41.0030380" lon="0.4200200">
        <ele>196.1</ele>
        <time>2020-08-07T12:07:19Z</time>
      </trkpt>
      <trkpt lat="41.0030380" lon="0.4200210">
        <ele>196.1</ele>
        <time>2020-08-07T12:07:20Z</time>
      </trkpt>
      <trkpt lat="41.0030380" lon="0.4200220">
        <ele>196.1</ele>
        <time>2020-08-07T12:07:21Z</time>
      </trkpt>
      <trkpt lat="41.0030380" lon="0.4200230">
        <ele>196.1</ele>
        <time>2020-08-07T12:07:34Z</time>
      </trkpt>
      <trkpt lat="41.0030380" lon="0.4200240">
        <ele>196.1</ele>
        <time>2020-08-07T12:07:36Z</time>
      </trkpt>
      <trkpt lat="41.0030380" lon="0.4200250">
        <ele>196.1</ele>
        <time>2020-08-07T12:07:37Z</time>
      </trkpt>
      <trkpt lat="41.0030390" lon="0.4200250">
        <ele>196.1</ele>
        <time>2020-08-07T12:07:38Z</time>
      </trkpt>
      <trkpt lat="41.0030390" lon="0.4200260">
        <ele>196.1</ele>
        <time>2020-08-07T12:07:40Z</time>
      </trkpt>
      <trkpt lat="41.0030390" lon="0.4200270">
        <ele>196.1</ele>
        <time>2020-08-07T12:07:41Z</time>
      </trkpt>
      <trkpt lat="41.0030390" lon="0.4200280">
        <ele>196.1</ele>
        <time>2020-08-07T12:07:43Z</time>
      </trkpt>
      <trkpt lat="41.0030390" lon="0.4200290">
        <ele>196.1</ele>
        <time>2020-08-07T12:07:44Z</time>
      </trkpt>
      <trkpt lat="41.0030390" lon="0.4200300">
        <ele>196.1</ele>
        <time>2020-08-07T12:07:46Z</time>
      </trkpt>
      <trkpt lat="41.0030390" lon="0.4200310">
        <ele>196.1</ele>
        <time>2020-08-07T12:07:48Z</time>
      </trkpt>
      <trkpt lat="41.0030390" lon="0.4200320">
        <ele>196.1</ele>
        <time>2020-08-07T12:07:49Z</time>
      </trkpt>
      <trkpt lat="41.0030400" lon="0.4200320">
        <ele>196.1</ele>
        <time>2020-08-07T12:07:50Z</time>
      </trkpt>
      <trkpt lat="41.0030400" lon="0.4200330">
        <ele>196.1</ele>
        <time>2020-08-07T12:07:51Z</time>
      </trkpt>
      <trkpt lat="41.0030400" lon="0.4200340">
        <ele>196.1</ele>
        <time>2020-08-07T12:07:52Z</time>
      </trkpt>
      <trkpt lat="41.0030400" lon="0.4200350">
        <ele>196.1</ele>
        <time>2020-08-07T12:07:54Z</time>
      </trkpt>
      <trkpt lat="41.0030400" lon="0.4200360">
        <ele>196.1</ele>
        <time>2020-08-07T12:07:55Z</time>
      </trkpt>
      <trkpt lat="41.0030400" lon="0.4200370">
        <ele>196.1</ele>
        <time>2020-08-07T12:07:56Z</time>
      </trkpt>
      <trkpt lat="41.0030400" lon="0.4200380">
        <ele>196.1</ele>
        <time>2020-08-07T12:07:57Z</time>
      </trkpt>
      <trkpt lat="41.0030410" lon="0.4200380">
        <ele>196.1</ele>
        <time>2020-08-07T12:07:58Z</time>
      </trkpt>
      <trkpt lat="41.0030410" lon="0.4200390">
        <ele>196.1</ele>
        <time>2020-08-07T12:08:00Z</time>
      </trkpt>
      <trkpt lat="41.0030410" lon="0.4200400">
        <ele>196.1</ele>
        <time>2020-08-07T12:08:01Z</time>
      </trkpt>
      <trkpt lat="41.0030410" lon="0.4200410">
        <ele>196.1</ele>
        <time>2020-08-07T12:08:03Z</time>
      </trkpt>
      <trkpt lat="41.0030410" lon="0.4200420">
        <ele>196.1</ele>
        <time>2020-08-07T12:08:05Z</time>
      </trkpt>
      <trkpt lat="41.0030410" lon="0.4200430">
        <ele>196.1</ele>
        <time>2020-08-07T12:08:06Z</time>
      </trkpt>
      <trkpt lat="41.0030410" lon="0.4200440">
        <ele>196.1</ele>
        <time>2020-08-07T12:08:07Z</time>
      </trkpt>
      <trkpt lat="41.0030420" lon="0.4200440">
        <ele>196.1</ele>
        <time>2020-08-07T12:08:09Z</time>
      </trkpt>
      <trkpt lat="41.0030420" lon="0.4200450">
        <ele>196.1</ele>
        <time>2020-08-07T12:08:10Z</time>
      </trkpt>
      <trkpt lat="41.0030420" lon="0.4200460">
        <ele>196.1</ele>
        <time>2020-08-07T12:08:11Z</time>
      </trkpt>
      <trkpt lat="41.0030420" lon="0.4200470">
        <ele>196.1</ele>
        <time>2020-08-07T12:08:12Z</time>
      </trkpt>
      <trkpt lat="41.0030420" lon="0.4200480">
        <ele>196.1</ele>
        <time>2020-08-07T12:08:14Z</time>
      </trkpt>
      <trkpt lat="41.0030420" lon="0.4200490">
        <ele>196.1</ele>
        <time>2020-08-07T12:08:15Z</time>
      </trkpt>
      <trkpt lat="41.0030420" lon="0.4200500">
        <ele>196.1</ele>
        <time>2020-08-07T12:08:17Z</time>
      </trkpt>
      <trkpt lat="41.0030420" lon="0.4200510">
        <ele>196.1</ele>
        <time>2020-08-07T12:08:19Z</time>
      </trkpt>
      <trkpt lat="41.0030430" lon="0.4200510">
        <ele>196.1</ele>
        <time>2020-08-07T12:08:21Z</time>
      </trkpt>
      <trkpt lat="41.0030430" lon="0.4200520">
        <ele>196.1</ele>
        <time>2020-08-07T12:08:23Z</time>
      </trkpt>
      <trkpt lat="41.0030430" lon="0.4200530">
        <ele>196.1</ele>
        <time>2020-08-07T12:08:24Z</time>
      </trkpt>
      <trkpt lat="41.0030430" lon="0.4200540">
        <ele>196.1</ele>
        <time>2020-08-07T12:08:25Z</time>
      </trkpt>
      <trkpt lat="41.0030430" lon="0.4200550">
        <ele>196.1</ele>
        <time>2020-08-07T12:08:26Z</time>
      </trkpt>
      <trkpt lat="41.0030430" lon="0.4200560">
        <ele>196.1</ele>
        <time>2020-08-07T12:08:28Z</time>
      </trkpt>
      <trkpt lat="41.0030430" lon="0.4200570">
        <ele>196.1</ele>
        <time>2020-08-07T12:08:29Z</time>
      </trkpt>
      <trkpt lat="41.0030440" lon="0.4200570">
        <ele>196.1</ele>
        <time>2020-08-07T12:08:30Z</time>
      </trkpt>
      <trkpt lat="41.0030440" lon="0.4200580">
        <ele>196.1</ele>
        <time>2020-08-07T12:08:31Z</time>
      </trkpt>
      <trkpt lat="41.0030440" lon="0.4200590">
        <ele>196.1</ele>
        <time>2020-08-07T12:08:32Z</time>
      </trkpt>
      <trkpt lat="41.0030440" lon="0.4200600">
        <ele>196.1</ele>
        <time>2020-08-07T12:08:34Z</time>
      </trkpt>
      <trkpt lat="41.0030440" lon="0.4200610">
        <ele>196.1</ele>
        <time>2020-08-07T12:08:35Z</time>
      </trkpt>
      <trkpt lat="41.0030440" lon="0.4200620">
        <ele>196.1</ele>
        <time>2020-08-07T12:08:36Z</time>
      </trkpt>
      <trkpt lat="41.0030440" lon="0.4200630">
        <ele>196.1</ele>
        <time>2020-08-07T12:08:38Z</time>
      </trkpt>
      <trkpt lat="41.0030450" lon="0.4200630">
        <ele>196.1</ele>
        <time>2020-08-07T12:08:39Z</time>
      </trkpt>
      <trkpt lat="41.0030450" lon="0.4200640">
        <ele>196.1</ele>
        <time>2020-08-07T12:08:41Z</time>
      </trkpt>
      <trkpt lat="41.0030450" lon="0.4200650">
        <ele>196.1</ele>
        <time>2020-08-07T12:08:43Z</time>
      </trkpt>
      <trkpt lat="41.0030450" lon="0.4200660">
        <ele>196.1</ele>
        <time>2020-08-07T12:08:44Z</time>
      </trkpt>
      <trkpt lat="41.0030450" lon="0.4200670">
        <ele>196.1</ele>
        <time>2020-08-07T12:08:45Z</time>
      </trkpt>
      <trkpt lat="41.0030450" lon="0.4200680">
        <ele>196.1</ele>
        <time>2020-08-07T12:08:46Z</time>
      </trkpt>
      <trkpt lat="41.0030450" lon="0.4200690">
        <ele>196.1</ele>
        <time>2020-08-07T12:08:47Z</time>
      </trkpt>
      <trkpt lat="41.0030450" lon="0.4200700">
        <ele>196.1</ele>
        <time>2020-08-07T12:08:49Z</time>
      </trkpt>
      <trkpt lat="41.0030460" lon="0.4200700">
        <ele>196.1</ele>
        <time>2020-08-07T12:08:50Z</time>
      </trkpt>
      <trkpt lat="41.0030460" lon="0.4200710">
        <ele>196.1</ele>
        <time>2020-08-07T12:08:51Z</time>
      </trkpt>
      <trkpt lat="41.0030460" lon="0.4200720">
        <ele>196.1</ele>
        <time>2020-08-07T12:08:53Z</time>
      </trkpt>
      <trkpt lat="41.0030460" lon="0.4200730">
        <ele>196.1</ele>
        <time>2020-08-07T12:08:54Z</time>
      </trkpt>
      <trkpt lat="41.0030390" lon="0.4201170">
        <ele>196.2</ele>
        <time>2020-08-07T12:08:55Z</time>
      </trkpt>
      <trkpt lat="41.0030350" lon="0.4201320">
        <ele>196.2</ele>
        <time>2020-08-07T12:08:56Z</time>
      </trkpt>
      <trkpt lat="41.0030250" lon="0.4201820">
        <ele>196.3</ele>
        <time>2020-08-07T12:08:58Z</time>
      </trkpt>
      <trkpt lat="41.0030210" lon="0.4202000">
        <ele>196.3</ele>
        <time>2020-08-07T12:08:59Z</time>
      </trkpt>
      <trkpt lat="41.0030070" lon="0.4202680">
        <ele>196.4</ele>
        <time>2020-08-07T12:09:01Z</time>
      </trkpt>
      <trkpt lat="41.0029900" lon="0.4203440">
        <ele>196.4</ele>
        <time>2020-08-07T12:09:02Z</time>
      </trkpt>
      <trkpt lat="41.0029820" lon="0.4204140">
        <ele>196.5</ele>
        <time>2020-08-07T12:09:03Z</time>
      </trkpt>
      <trkpt lat="41.0029710" lon="0.4204770">
        <ele>196.6</ele>
        <time>2020-08-07T12:09:04Z</time>
      </trkpt>
      <trkpt lat="41.0029620" lon="0.4205450">
        <ele>196.7</ele>
        <time>2020-08-07T12:09:05Z</time>
      </trkpt>
      <trkpt lat="41.0029550" lon="0.4205990">
        <ele>196.7</ele>
        <time>2020-08-07T12:09:07Z</time>
      </trkpt>
      <trkpt lat="41.0029480" lon="0.4206540">
        <ele>196.8</ele>
        <time>2020-08-07T12:09:08Z</time>
      </trkpt>
      <trkpt lat="41.0029390" lon="0.4207080">
        <ele>196.8</ele>
        <time>2020-08-07T12:09:09Z</time>
      </trkpt>
      <trkpt lat="41.0029250" lon="0.4207850">
        <ele>196.8</ele>
        <time>2020-08-07T12:09:11Z</time>
      </trkpt>
      <trkpt lat="41.0029170" lon="0.4208260">
        <ele>196.9</ele>
        <time>2020-08-07T12:09:12Z</time>
      </trkpt>
      <trkpt lat="41.0029070" lon="0.4208730">
        <ele>196.9</ele>
        <time>2020-08-07T12:09:13Z</time>
      </trkpt>
      <trkpt lat="41.0028930" lon="0.4209540">
        <ele>196.9</ele>
        <time>2020-08-07T12:09:15Z</time>
      </trkpt>
      <trkpt lat="41.0028820" lon="0.4210140">
        <ele>197.0</ele>
        <time>2020-08-07T12:09:16Z</time>
      </trkpt>
      <trkpt lat="41.0028720" lon="0.4210680">
        <ele>197.0</ele>
        <time>2020-08-07T12:09:17Z</time>
      </trkpt>
      <trkpt lat="41.0028650" lon="0.4211140">
        <ele>197.0</ele>
        <time>2020-08-07T12:09:18Z</time>
      </trkpt>
      <trkpt lat="41.0028560" lon="0.4211830">
        <ele>197.0</ele>
        <time>2020-08-07T12:09:19Z</time>
      </trkpt>
      <trkpt lat="41.0028480" lon="0.4212340">
        <ele>197.1</ele>
        <time>2020-08-07T12:09:20Z</time>
      </trkpt>
      <trkpt lat="41.0028390" lon="0.4212840">
        <ele>197.1</ele>
        <time>2020-08-07T12:09:22Z</time>
      </trkpt>
      <trkpt lat="41.0028290" lon="0.4213320">
        <ele>197.1</ele>
        <time>2020-08-07T12:09:23Z</time>
      </trkpt>
      <trkpt lat="41.0028190" lon="0.4213880">
        <ele>197.1</ele>
        <time>2020-08-07T12:09:24Z</time>
      </trkpt>
      <trkpt lat="41.0028050" lon="0.4214630">
        <ele>197.1</ele>
        <time>2020-08-07T12:09:26Z</time>
      </trkpt>
      <trkpt lat="41.0027960" lon="0.4215220">
        <ele>197.1</ele>
        <time>2020-08-07T12:09:27Z</time>
      </trkpt>
      <trkpt lat="41.0027820" lon="0.4215950">
        <ele>197.2</ele>
        <time>2020-08-07T12:09:29Z</time>
      </trkpt>
      <trkpt lat="41.0027720" lon="0.4216520">
        <ele>197.2</ele>
        <time>2020-08-07T12:09:30Z</time>
      </trkpt>
      <trkpt lat="41.0027570" lon="0.4217280">
        <ele>197.2</ele>
        <time>2020-08-07T12:09:32Z</time>
      </trkpt>
      <trkpt lat="41.0027460" lon="0.4217880">
        <ele>197.2</ele>
        <time>2020-08-07T12:09:33Z</time>
      </trkpt>
      <trkpt lat="41.0027320" lon="0.4218660">
        <ele>197.2</ele>
        <time>2020-08-07T12:09:35Z</time>
      </trkpt>
      <trkpt lat="41.0027240" lon="0.4219220">
        <ele>197.2</ele>
        <time>2020-08-07T12:09:36Z</time>
      </trkpt>
      <trkpt lat="41.0027150" lon="0.4219750">
        <ele>197.1</ele>
        <time>2020-08-07T12:09:37Z</time>
      </trkpt>
      <trkpt lat="41.0027020" lon="0.4220440">
        <ele>197.1</ele>
        <time>2020-08-07T12:09:39Z</time>
      </trkpt>
      <trkpt lat="41.0026950" lon="0.4220900">
        <ele>197.1</ele>
        <time>2020-08-07T12:09:40Z</time>
      </trkpt>
      <trkpt lat="41.0026850" lon="0.4221430">
        <ele>197.0</ele>
        <time>2020-08-07T12:09:41Z</time>
      </trkpt>
      <trkpt lat="41.0026790" lon="0.4221890">
        <ele>196.9</ele>
        <time>2020-08-07T12:09:42Z</time>
      </trkpt>
      <trkpt lat="41.0026670" lon="0.4222680">
        <ele>196.7</ele>
        <time>2020-08-07T12:09:44Z</time>
      </trkpt>
      <trkpt lat="41.0026640" lon="0.4223200">
        <ele>196.5</ele>
        <time>2020-08-07T12:09:45Z</time>
      </trkpt>
      <trkpt lat="41.0026610" lon="0.4223720">
        <ele>196.5</ele>
        <time>2020-08-07T12:09:46Z</time>
      </trkpt>
      <trkpt lat="41.0026550" lon="0.4224660">
        <ele>196.6</ele>
        <time>2020-08-07T12:09:48Z</time>
      </trkpt>
      <trkpt lat="41.0026510" lon="0.4226230">
        <ele>196.5</ele>
        <time>2020-08-07T12:09:54Z</time>
      </trkpt>
      <trkpt lat="41.0026520" lon="0.4226350">
        <ele>196.5</ele>
        <time>2020-08-07T12:09:55Z</time>
      </trkpt>
      <trkpt lat="41.0026510" lon="0.4226130">
        <ele>196.4</ele>
        <time>2020-08-07T12:09:57Z</time>
      </trkpt>
      <trkpt lat="41.0022570" lon="0.4239430">
        <ele>193.8</ele>
        <time>2020-08-07T12:10:19Z</time>
      </trkpt>
      <trkpt lat="41.0022240" lon="0.4239800">
        <ele>193.7</ele>
        <time>2020-08-07T12:10:20Z</time>
      </trkpt>
      <trkpt lat="41.0021620" lon="0.4240340">
        <ele>193.5</ele>
        <time>2020-08-07T12:10:21Z</time>
      </trkpt>
      <trkpt lat="41.0021100" lon="0.4240860">
        <ele>193.4</ele>
        <time>2020-08-07T12:10:22Z</time>
      </trkpt>
      <trkpt lat="41.0020490" lon="0.4241720">
        <ele>193.4</ele>
        <time>2020-08-07T12:10:24Z</time>
      </trkpt>
      <trkpt lat="41.0020390" lon="0.4242180">
        <ele>193.3</ele>
        <time>2020-08-07T12:10:25Z</time>
      </trkpt>
      <trkpt lat="41.0020720" lon="0.4242580">
        <ele>193.3</ele>
        <time>2020-08-07T12:10:27Z</time>
      </trkpt>
      <trkpt lat="41.0020120" lon="0.4243110">
        <ele>193.3</ele>
        <time>2020-08-07T12:10:28Z</time>
      </trkpt>
      <trkpt lat="41.0019600" lon="0.4243550">
        <ele>193.3</ele>
        <time>2020-08-07T12:10:29Z</time>
      </trkpt>
      <trkpt lat="41.0018930" lon="0.4244290">
        <ele>193.2</ele>
        <time>2020-08-07T12:10:31Z</time>
      </trkpt>
      <trkpt lat="41.0009820" lon="0.4260950">
        <ele>189.0</ele>
        <time>2020-08-07T12:11:09Z</time>
      </trkpt>
      <trkpt lat="41.0009770" lon="0.4261030">
        <ele>189.0</ele>
        <time>2020-08-07T12:11:10Z</time>
      </trkpt>
      <trkpt lat="41.0009670" lon="0.4261190">
        <ele>189.0</ele>
        <time>2020-08-07T12:11:11Z</time>
      </trkpt>
      <trkpt lat="41.0009540" lon="0.4261380">
        <ele>188.9</ele>
        <time>2020-08-07T12:11:13Z</time>
      </trkpt>
      <trkpt lat="41.0009500" lon="0.4261440">
        <ele>188.9</ele>
        <time>2020-08-07T12:11:14Z</time>
      </trkpt>
      <trkpt lat="41.0009560" lon="0.4261390">
        <ele>188.9</ele>
        <time>2020-08-07T12:11:16Z</time>
      </trkpt>
      <trkpt lat="41.0009630" lon="0.4261320">
        <ele>188.9</ele>
        <time>2020-08-07T12:11:17Z</time>
      </trkpt>
      <trkpt lat="41.0009740" lon="0.4261210">
        <ele>188.9</ele>
        <time>2020-08-07T12:11:18Z</time>
      </trkpt>
      <trkpt lat="41.0009980" lon="0.4261000">
        <ele>188.8</ele>
        <time>2020-08-07T12:11:20Z</time>
      </trkpt>
      <trkpt lat="41.0010130" lon="0.4260850">
        <ele>188.8</ele>
        <time>2020-08-07T12:11:22Z</time>
      </trkpt>
      <trkpt lat="41.0010130" lon="0.4260830">
        <ele>188.8</ele>
        <time>2020-08-07T12:11:23Z</time>
      </trkpt>
      <trkpt lat="41.0010120" lon="0.4260810">
        <ele>188.8</ele>
        <time>2020-08-07T12:11:24Z</time>
      </trkpt>
      <trkpt lat="41.0010120" lon="0.4260780">
        <ele>188.7</ele>
        <time>2020-08-07T12:11:25Z</time>
      </trkpt>
      <trkpt lat="41.0010160" lon="0.4260790">
        <ele>188.7</ele>
        <time>2020-08-07T12:11:27Z</time>
      </trkpt>
      <trkpt lat="41.0010180" lon="0.4260810">
        <ele>188.7</ele>
        <time>2020-08-07T12:11:28Z</time>
      </trkpt>
      <trkpt lat="41.0010180" lon="0.4260870">
        <ele>188.7</ele>
        <time>2020-08-07T12:11:30Z</time>
      </trkpt>
      <trkpt lat="41.0010170" lon="0.4260900">
        <ele>188.7</ele>
        <time>2020-08-07T12:11:31Z</time>
      </trkpt>
      <trkpt lat="41.0010170" lon="0.4260910">
        <ele>188.7</ele>
        <time>2020-08-07T12:11:32Z</time>
      </trkpt>
      <trkpt lat="41.0010180" lon="0.4260900">
        <ele>188.7</ele>
        <time>2020-08-07T12:11:33Z</time>
      </trkpt>
      <trkpt lat="41.0009770" lon="0.4261590">
        <ele>188.6</ele>
        <time>2020-08-07T12:12:10Z</time>
      </trkpt>
      <trkpt lat="41.0009310" lon="0.4262290">
        <ele>188.4</ele>
        <time>2020-08-07T12:12:12Z</time>
      </trkpt>
      <trkpt lat="41.0009070" lon="0.4262630">
        <ele>188.4</ele>
        <time>2020-08-07T12:12:13Z</time>
      </trkpt>
      <trkpt lat="41.0008670" lon="0.4263160">
        <ele>188.1</ele>
        <time>2020-08-07T12:12:15Z</time>
      </trkpt>
      <trkpt lat="41.0008420" lon="0.4263590">
        <ele>188.1</ele>
        <time>2020-08-07T12:12:17Z</time>
      </trkpt>
      <trkpt lat="41.0008310" lon="0.4263780">
        <ele>188.0</ele>
        <time>2020-08-07T12:12:18Z</time>
      </trkpt>
      <trkpt lat="41.0008250" lon="0.4263880">
        <ele>188.0</ele>
        <time>2020-08-07T12:12:19Z</time>
      </trkpt>
      <trkpt lat="41.0008250" lon="0.4263990">
        <ele>188.0</ele>
        <time>2020-08-07T12:12:21Z</time>
      </trkpt>
      <trkpt lat="41.0008280" lon="0.4264040">
        <ele>188.0</ele>
        <time>2020-08-07T12:12:22Z</time>
      </trkpt>
      <trkpt lat="41.0008300" lon="0.4264080">
        <ele>188.0</ele>
        <time>2020-08-07T12:12:23Z</time>
      </trkpt>
      <trkpt lat="41.0008280" lon="0.4264100">
        <ele>188.0</ele>
        <time>2020-08-07T12:12:25Z</time>
      </trkpt>
      <trkpt lat="41.0008270" lon="0.4264120">
        <ele>188.0</ele>
        <time>2020-08-07T12:12:26Z</time>
      </trkpt>
      <trkpt lat="41.0008260" lon="0.4264140">
        <ele>188.0</ele>
        <time>2020-08-07T12:12:27Z</time>
      </trkpt>
      <trkpt lat="41.0008260" lon="0.4264150">
        <ele>188.0</ele>
        <time>2020-08-07T12:12:28Z</time>
      </trkpt>
      <trkpt lat="41.0008240" lon="0.4264160">
        <ele>188.0</ele>
        <time>2020-08-07T12:12:30Z</time>
      </trkpt>
      <trkpt lat="41.0008520" lon="0.4263860">
        <ele>188.0</ele>
        <time>2020-08-07T12:12:41Z</time>
      </trkpt>
      <trkpt lat="41.0008510" lon="0.4263830">
        <ele>188.0</ele>
        <time>2020-08-07T12:12:42Z</time>
      </trkpt>
      <trkpt lat="41.0008500" lon="0.4263790">
        <ele>188.0</ele>
        <time>2020-08-07T12:12:43Z</time>
      </trkpt>
      <trkpt lat="41.0008470" lon="0.4263770">
        <ele>188.0</ele>
        <time>2020-08-07T12:12:44Z</time>
      </trkpt>
      <trkpt lat="41.0008410" lon="0.4263760">
        <ele>188.0</ele>
        <time>2020-08-07T12:12:46Z</time>
      </trkpt>
      <trkpt lat="41.0008390" lon="0.4263810">
        <ele>188.0</ele>
        <time>2020-08-07T12:12:47Z</time>
      </trkpt>
      <trkpt lat="41.0008380" lon="0.4263850">
        <ele>188.0</ele>
        <time>2020-08-07T12:12:48Z</time>
      </trkpt>
      <trkpt lat="41.0008390" lon="0.4263890">
        <ele>188.0</ele>
        <time>2020-08-07T12:12:50Z</time>
      </trkpt>
      <trkpt lat="41.0008400" lon="0.4263870">
        <ele>188.0</ele>
        <time>2020-08-07T12:12:51Z</time>
      </trkpt>
      <trkpt lat="41.0008590" lon="0.4263790">
        <ele>188.0</ele>
        <time>2020-08-07T12:12:53Z</time>
      </trkpt>
      <trkpt lat="41.0008590" lon="0.4263780">
        <ele>188.0</ele>
        <time>2020-08-07T12:12:54Z</time>
      </trkpt>
      <trkpt lat="41.0008590" lon="0.4263800">
        <ele>188.0</ele>
        <time>2020-08-07T12:12:56Z</time>
      </trkpt>
      <trkpt lat="41.0008570" lon="0.4263850">
        <ele>188.0</ele>
        <time>2020-08-07T12:12:57Z</time>
      </trkpt>
      <trkpt lat="41.0008470" lon="0.4263980">
        <ele>188.0</ele>
        <time>2020-08-07T12:12:59Z</time>
      </trkpt>
      <trkpt lat="41.0008380" lon="0.4264080">
        <ele>188.0</ele>
        <time>2020-08-07T12:13:01Z</time>
      </trkpt>
      <trkpt lat="41.0008320" lon="0.4264150">
        <ele>188.0</ele>
        <time>2020-08-07T12:13:02Z</time>
      </trkpt>
      <trkpt lat="41.0008240" lon="0.4264260">
        <ele>187.6</ele>
        <time>2020-08-07T12:13:04Z</time>
      </trkpt>
      <trkpt lat="41.0008210" lon="0.4264260">
        <ele>187.5</ele>
        <time>2020-08-07T12:13:06Z</time>
      </trkpt>
      <trkpt lat="41.0008180" lon="0.4264220">
        <ele>187.5</ele>
        <time>2020-08-07T12:13:07Z</time>
      </trkpt>
      <trkpt lat="41.0008150" lon="0.4264170">
        <ele>187.5</ele>
        <time>2020-08-07T12:13:08Z</time>
      </trkpt>
      <trkpt lat="41.0008100" lon="0.4264140">
        <ele>187.5</ele>
        <time>2020-08-07T12:13:10Z</time>
      </trkpt>
      <trkpt lat="41.0008090" lon="0.4264140">
        <ele>187.5</ele>
        <time>2020-08-07T12:13:11Z</time>
      </trkpt>
      <trkpt lat="41.0008080" lon="0.4264140">
        <ele>187.5</ele>
        <time>2020-08-07T12:13:12Z</time>
      </trkpt>
      <trkpt lat="41.0008070" lon="0.4264140">
        <ele>187.5</ele>
        <time>2020-08-07T12:13:13Z</time>
      </trkpt>
      <trkpt lat="41.0008060" lon="0.4264140">
        <ele>187.5</ele>
        <time>2020-08-07T12:13:14Z</time>
      </trkpt>
      <trkpt lat="41.0008220" lon="0.4263410">
        <ele>187.4</ele>
        <time>2020-08-07T12:13:36Z</time>
      </trkpt>
      <trkpt lat="41.0008200" lon="0.4262630">
        <ele>187.2</ele>
        <time>2020-08-07T12:13:38Z</time>
      </trkpt>
      <trkpt lat="41.0008270" lon="0.4262160">
        <ele>187.1</ele>
        <time>2020-08-07T12:13:40Z</time>
      </trkpt>
      <trkpt lat="41.0008340" lon="0.4261990">
        <ele>187.0</ele>
        <time>2020-08-07T12:13:41Z</time>
      </trkpt>
      <trkpt lat="41.0008410" lon="0.4261800">
        <ele>187.0</ele>
        <time>2020-08-07T12:13:42Z</time>
      </trkpt>
      <trkpt lat="41.0008480" lon="0.4261570">
        <ele>186.9</ele>
        <time>2020-08-07T12:13:43Z</time>
      </trkpt>
      <trkpt lat="41.0008660" lon="0.4261180">
        <ele>186.8</ele>
        <time>2020-08-07T12:13:45Z</time>
      </trkpt>
      <trkpt lat="41.0008810" lon="0.4261100">
        <ele>186.7</ele>
        <time>2020-08-07T12:13:47Z</time>
      </trkpt>
      <trkpt lat="41.0008820" lon="0.4261150">
        <ele>186.7</ele>
        <time>2020-08-07T12:13:48Z</time>
      </trkpt>
      <trkpt lat="41.0008960" lon="0.4261100">
        <ele>186.6</ele>
        <time>2020-08-07T12:13:50Z</time>
      </trkpt>
      <trkpt lat="41.0009080" lon="0.4261030">
        <ele>186.6</ele>
        <time>2020-08-07T12:13:51Z</time>
      </trkpt>
      <trkpt lat="41.0009260" lon="0.4260950">
        <ele>186.5</ele>
        <time>2020-08-07T12:13:53Z</time>
      </trkpt>
      <trkpt lat="41.0009330" lon="0.4260920">
        <ele>186.5</ele>
        <time>2020-08-07T12:13:54Z</time>
      </trkpt>
      <trkpt lat="41.0009400" lon="0.4260890">
        <ele>186.4</ele>
        <time>2020-08-07T12:13:55Z</time>
      </trkpt>
      <trkpt lat="41.0009530" lon="0.4260800">
        <ele>186.4</ele>
        <time>2020-08-07T12:13:57Z</time>
      </trkpt>
      <trkpt lat="41.0009570" lon="0.4260750">
        <ele>185.7</ele>
        <time>2020-08-07T12:13:58Z</time>
      </trkpt>
      <trkpt lat="41.0009570" lon="0.4260710">
        <ele>185.7</ele>
        <time>2020-08-07T12:13:59Z</time>
      </trkpt>
      <trkpt lat="41.0009540" lon="0.4260680">
        <ele>185.7</ele>
        <time>2020-08-07T12:14:00Z</time>
      </trkpt>
      <trkpt lat="41.0009500" lon="0.4260680">
        <ele>185.6</ele>
        <time>2020-08-07T12:14:02Z</time>
      </trkpt>
      <trkpt lat="41.0009490" lon="0.4260690">
        <ele>185.6</ele>
        <time>2020-08-07T12:14:04Z</time>
      </trkpt>
      <trkpt lat="41.0009480" lon="0.4260690">
        <ele>185.6</ele>
        <time>2020-08-07T12:14:05Z</time>
      </trkpt>
      <trkpt lat="41.0009480" lon="0.4260710">
        <ele>185.6</ele>
        <time>2020-08-07T12:14:06Z</time>
      </trkpt>
      <trkpt lat="41.0009470" lon="0.4260710">
        <ele>185.6</ele>
        <time>2020-08-07T12:14:07Z</time>
      </trkpt>
      <trkpt lat="41.0009480" lon="0.4260690">
        <ele>185.6</ele>
        <time>2020-08-07T12:14:09Z</time>
      </trkpt>
      <trkpt lat="41.0009450" lon="0.4260440">
        <ele>185.5</ele>
        <time>2020-08-07T12:14:16Z</time>
      </trkpt>
      <trkpt lat="41.0009450" lon="0.4260340">
        <ele>185.4</ele>
        <time>2020-08-07T12:14:17Z</time>
      </trkpt>
      <trkpt lat="41.0009420" lon="0.4260360">
        <ele>185.4</ele>
        <time>2020-08-07T12:14:18Z</time>
      </trkpt>
      <trkpt lat="41.0009380" lon="0.4260380">
        <ele>185.4</ele>
        <time>2020-08-07T12:14:20Z</time>
      </trkpt>
      <trkpt lat="41.0009320" lon="0.4260410">
        <ele>185.3</ele>
        <time>2020-08-07T12:14:21Z</time>
      </trkpt>
      <trkpt lat="41.0009260" lon="0.4260460">
        <ele>185.3</ele>
        <time>2020-08-07T12:14:23Z</time>
      </trkpt>
      <trkpt lat="41.0009220" lon="0.4260490">
        <ele>185.3</ele>
        <time>2020-08-07T12:14:24Z</time>
      </trkpt>
      <trkpt lat="41.0009190" lon="0.4260550">
        <ele>185.2</ele>
        <time>2020-08-07T12:14:26Z</time>
      </trkpt>
      <trkpt lat="41.0009170" lon="0.4260600">
        <ele>185.2</ele>
        <time>2020-08-07T12:14:28Z</time>
      </trkpt>
      <trkpt lat="41.0009060" lon="0.4260940">
        <ele>185.0</ele>
        <time>2020-08-07T12:15:46Z</time>
      </trkpt>
      <trkpt lat="41.0008960" lon="0.4261000">
        <ele>185.0</ele>
        <time>2020-08-07T12:15:48Z</time>
      </trkpt>
      <trkpt lat="41.0008880" lon="0.4261040">
        <ele>184.9</ele>
        <time>2020-08-07T12:15:49Z</time>
      </trkpt>
      <trkpt lat="41.0008780" lon="0.4261140">
        <ele>184.8</ele>
        <time>2020-08-07T12:15:51Z</time>
      </trkpt>
      <trkpt lat="41.0008730" lon="0.4261290">
        <ele>184.7</ele>
        <time>2020-08-07T12:15:52Z</time>
      </trkpt>
      <trkpt lat="41.0008710" lon="0.4261420">
        <ele>184.6</ele>
        <time>2020-08-07T12:15:53Z</time>
      </trkpt>
      <trkpt lat="41.0008710" lon="0.4261560">
        <ele>184.6</ele>
        <time>2020-08-07T12:15:54Z</time>
      </trkpt>
      <trkpt lat="41.0008720" lon="0.4261700">
        <ele>184.5</ele>
        <time>2020-08-07T12:15:55Z</time>
      </trkpt>
      <trkpt lat="41.0008730" lon="0.4261830">
        <ele>184.4</ele>
        <time>2020-08-07T12:15:56Z</time>
      </trkpt>
      <trkpt lat="41.0008750" lon="0.4261950">
        <ele>184.4</ele>
        <time>2020-08-07T12:15:57Z</time>
      </trkpt>
      <trkpt lat="41.0008730" lon="0.4262240">
        <ele>184.2</ele>
        <time>2020-08-07T12:15:59Z</time>
      </trkpt>
      <trkpt lat="41.0008720" lon="0.4262410">
        <ele>184.1</ele>
        <time>2020-08-07T12:16:00Z</time>
      </trkpt>
      <trkpt lat="41.0008700" lon="0.4262570">
        <ele>184.0</ele>
        <time>2020-08-07T12:16:01Z</time>
      </trkpt>
      <trkpt lat="41.0008690" lon="0.4262780">
        <ele>183.9</ele>
        <time>2020-08-07T12:16:02Z</time>
      </trkpt>
      <trkpt lat="41.0008690" lon="0.4262950">
        <ele>183.8</ele>
        <time>2020-08-07T12:16:03Z</time>
      </trkpt>
      <trkpt lat="41.0008690" lon="0.4263120">
        <ele>183.7</ele>
        <time>2020-08-07T12:16:04Z</time>
      </trkpt>
      <trkpt lat="41.0008690" lon="0.4263190">
        <ele>183.6</ele>
        <time>2020-08-07T12:16:05Z</time>
      </trkpt>
      <trkpt lat="41.0008730" lon="0.4263360">
        <ele>183.5</ele>
        <time>2020-08-07T12:16:06Z</time>
      </trkpt>
      <trkpt lat="41.0008760" lon="0.4263450">
        <ele>183.5</ele>
        <time>2020-08-07T12:16:08Z</time>
      </trkpt>
      <trkpt lat="41.0008780" lon="0.4263550">
        <ele>183.4</ele>
        <time>2020-08-07T12:16:09Z</time>
      </trkpt>
      <trkpt lat="41.0008810" lon="0.4263650">
        <ele>183.3</ele>
        <time>2020-08-07T12:16:10Z</time>
      </trkpt>
      <trkpt lat="41.0008820" lon="0.4263620">
        <ele>183.3</ele>
        <time>2020-08-07T12:16:11Z</time>
      </trkpt>
      <trkpt lat="41.0008770" lon="0.4263630">
        <ele>183.3</ele>
        <time>2020-08-07T12:16:13Z</time>
      </trkpt>
      <trkpt lat="41.0008720" lon="0.4263660">
        <ele>183.2</ele>
        <time>2020-08-07T12:16:15Z</time>
      </trkpt>
      <trkpt lat="41.0008680" lon="0.4263740">
        <ele>183.2</ele>
        <time>2020-08-07T12:16:16Z</time>
      </trkpt>
      <trkpt lat="41.0008650" lon="0.4263910">
        <ele>183.1</ele>
        <time>2020-08-07T12:16:18Z</time>
      </trkpt>
      <trkpt lat="41.0008640" lon="0.4264050">
        <ele>183.0</ele>
        <time>2020-08-07T12:16:19Z</time>
      </trkpt>
      <trkpt lat="41.0008680" lon="0.4264330">
        <ele>182.8</ele>
        <time>2020-08-07T12:16:20Z</time>
      </trkpt>
      <trkpt lat="41.0008720" lon="0.4264440">
        <ele>182.7</ele>
        <time>2020-08-07T12:16:21Z</time>
      </trkpt>
      <trkpt lat="41.0008750" lon="0.4264560">
        <ele>182.6</ele>
        <time>2020-08-07T12:16:22Z</time>
      </trkpt>
      <trkpt lat="41.0008780" lon="0.4264880">
        <ele>182.4</ele>
        <time>2020-08-07T12:16:24Z</time>
      </trkpt>
      <trkpt lat="41.0008780" lon="0.4265020">
        <ele>182.3</ele>
        <time>2020-08-07T12:16:26Z</time>
      </trkpt>
      <trkpt lat="41.0008770" lon="0.4265170">
        <ele>182.2</ele>
        <time>2020-08-07T12:16:27Z</time>
      </trkpt>
      <trkpt lat="41.0008770" lon="0.4265310">
        <ele>182.1</ele>
        <time>2020-08-07T12:16:28Z</time>
      </trkpt>
      <trkpt lat="41.0008760" lon="0.4265450">
        <ele>182.0</ele>
        <time>2020-08-07T12:16:29Z</time>
      </trkpt>
      <trkpt lat="41.0008700" lon="0.4265670">
        <ele>181.8</ele>
        <time>2020-08-07T12:16:30Z</time>
      </trkpt>
      <trkpt lat="41.0008640" lon="0.4265900">
        <ele>181.6</ele>
        <time>2020-08-07T12:16:32Z</time>
      </trkpt>
      <trkpt lat="41.0008620" lon="0.4266060">
        <ele>181.5</ele>
        <time>2020-08-07T12:16:33Z</time>
      </trkpt>
      <trkpt lat="41.0008620" lon="0.4266220">
        <ele>181.3</ele>
        <time>2020-08-07T12:16:34Z</time>
      </trkpt>
      <trkpt lat="41.0008660" lon="0.4266530">
        <ele>181.1</ele>
        <time>2020-08-07T12:16:36Z</time>
      </trkpt>
      <trkpt lat="41.0008760" lon="0.4266810">
        <ele>180.8</ele>
        <time>2020-08-07T12:16:37Z</time>
      </trkpt>
      <trkpt lat="41.0008790" lon="0.4266890">
        <ele>180.8</ele>
        <time>2020-08-07T12:16:38Z</time>
      </trkpt>
      <trkpt lat="41.0008830" lon="0.4266980">
        <ele>180.7</ele>
        <time>2020-08-07T12:16:39Z</time>
      </trkpt>
      <trkpt lat="41.0008880" lon="0.4267110">
        <ele>180.6</ele>
        <time>2020-08-07T12:16:40Z</time>
      </trkpt>
      <trkpt lat="41.0008930" lon="0.4267230">
        <ele>180.4</ele>
        <time>2020-08-07T12:16:41Z</time>
      </trkpt>
      <trkpt lat="41.0008980" lon="0.4267360">
        <ele>180.3</ele>
        <time>2020-08-07T12:16:42Z</time>
      </trkpt>
      <trkpt lat="41.0009060" lon="0.4267580">
        <ele>180.1</ele>
        <time>2020-08-07T12:16:44Z</time>
      </trkpt>
      <trkpt lat="41.0009140" lon="0.4267730">
        <ele>180.0</ele>
        <time>2020-08-07T12:16:45Z</time>
      </trkpt>
      <trkpt lat="41.0009230" lon="0.4267940">
        <ele>179.8</ele>
        <time>2020-08-07T12:16:47Z</time>
      </trkpt>
      <trkpt lat="41.0009300" lon="0.4268080">
        <ele>179.6</ele>
        <time>2020-08-07T12:16:48Z</time>
      </trkpt>
      <trkpt lat="41.0009500" lon="0.4268290">
        <ele>179.4</ele>
        <time>2020-08-07T12:16:49Z</time>
      </trkpt>
      <trkpt lat="41.0009620" lon="0.4268370">
        <ele>179.2</ele>
        <time>2020-08-07T12:16:51Z</time>
      </trkpt>
      <trkpt lat="41.0009730" lon="0.4268440">
        <ele>179.1</ele>
        <time>2020-08-07T12:16:52Z</time>
      </trkpt>
      <trkpt lat="41.0009850" lon="0.4268520">
        <ele>178.9</ele>
        <time>2020-08-07T12:16:53Z</time>
      </trkpt>
      <trkpt lat="41.0009960" lon="0.4268600">
        <ele>178.8</ele>
        <time>2020-08-07T12:16:54Z</time>
      </trkpt>
      <trkpt lat="41.0010030" lon="0.4268800">
        <ele>178.6</ele>
        <time>2020-08-07T12:16:56Z</time>
      </trkpt>
      <trkpt lat="41.0010060" lon="0.4268910">
        <ele>178.5</ele>
        <time>2020-08-07T12:16:57Z</time>
      </trkpt>
      <trkpt lat="41.0010140" lon="0.4269200">
        <ele>178.2</ele>
        <time>2020-08-07T12:16:59Z</time>
      </trkpt>
      <trkpt lat="41.0010250" lon="0.4269400">
        <ele>178.0</ele>
        <time>2020-08-07T12:17:00Z</time>
      </trkpt>
      <trkpt lat="41.0010340" lon="0.4269580">
        <ele>177.8</ele>
        <time>2020-08-07T12:17:01Z</time>
      </trkpt>
      <trkpt lat="41.0010470" lon="0.4269780">
        <ele>177.6</ele>
        <time>2020-08-07T12:17:03Z</time>
      </trkpt>
      <trkpt lat="41.0010590" lon="0.4269910">
        <ele>177.4</ele>
        <time>2020-08-07T12:17:04Z</time>
      </trkpt>
      <trkpt lat="41.0010800" lon="0.4270240">
        <ele>177.0</ele>
        <time>2020-08-07T12:17:06Z</time>
      </trkpt>
      <trkpt lat="41.0010850" lon="0.4270350">
        <ele>176.9</ele>
        <time>2020-08-07T12:17:07Z</time>
      </trkpt>
      <trkpt lat="41.0010940" lon="0.4270610">
        <ele>176.6</ele>
        <time>2020-08-07T12:17:08Z</time>
      </trkpt>
      <trkpt lat="41.0010960" lon="0.4270750">
        <ele>176.5</ele>
        <time>2020-08-07T12:17:09Z</time>
      </trkpt>
      <trkpt lat="41.0010990" lon="0.4270890">
        <ele>176.3</ele>
        <time>2020-08-07T12:17:10Z</time>
      </trkpt>
      <trkpt lat="41.0011030" lon="0.4271010">
        <ele>176.2</ele>
        <time>2020-08-07T12:17:12Z</time>
      </trkpt>
      <trkpt lat="41.0011050" lon="0.4271110">
        <ele>176.1</ele>
        <time>2020-08-07T12:17:13Z</time>
      </trkpt>
      <trkpt lat="41.0011060" lon="0.4271260">
        <ele>176.0</ele>
        <time>2020-08-07T12:17:14Z</time>
      </trkpt>
      <trkpt lat="41.0011100" lon="0.4271470">
        <ele>175.8</ele>
        <time>2020-08-07T12:17:16Z</time>
      </trkpt>
      <trkpt lat="41.0011090" lon="0.4271630">
        <ele>175.6</ele>
        <time>2020-08-07T12:17:17Z</time>
      </trkpt>
      <trkpt lat="41.0011030" lon="0.4271810">
        <ele>175.4</ele>
        <time>2020-08-07T12:17:18Z</time>
      </trkpt>
      <trkpt lat="41.0010970" lon="0.4271980">
        <ele>175.3</ele>
        <time>2020-08-07T12:17:19Z</time>
      </trkpt>
      <trkpt lat="41.0010920" lon="0.4272130">
        <ele>175.1</ele>
        <time>2020-08-07T12:17:20Z</time>
      </trkpt>
      <trkpt lat="41.0010830" lon="0.4272360">
        <ele>174.9</ele>
        <time>2020-08-07T12:17:21Z</time>
      </trkpt>
      <trkpt lat="41.0010790" lon="0.4272520">
        <ele>174.7</ele>
        <time>2020-08-07T12:17:22Z</time>
      </trkpt>
      <trkpt lat="41.0010730" lon="0.4272690">
        <ele>174.5</ele>
        <time>2020-08-07T12:17:24Z</time>
      </trkpt>
      <trkpt lat="41.0010640" lon="0.4272850">
        <ele>174.3</ele>
        <time>2020-08-07T12:17:25Z</time>
      </trkpt>
      <trkpt lat="41.0010500" lon="0.4273030">
        <ele>174.1</ele>
        <time>2020-08-07T12:17:26Z</time>
      </trkpt>
      <trkpt lat="41.0010390" lon="0.4273180">
        <ele>173.1</ele>
        <time>2020-08-07T12:17:28Z</time>
      </trkpt>
      <trkpt lat="41.0010340" lon="0.4273220">
        <ele>172.5</ele>
        <time>2020-08-07T12:17:29Z</time>
      </trkpt>
      <trkpt lat="41.0010250" lon="0.4273260">
        <ele>172.0</ele>
        <time>2020-08-07T12:17:31Z</time>
      </trkpt>
      <trkpt lat="41.0010220" lon="0.4273090">
        <ele>171.4</ele>
        <time>2020-08-07T12:17:32Z</time>
      </trkpt>
      <trkpt lat="41.0010130" lon="0.4273070">
        <ele>171.1</ele>
        <time>2020-08-07T12:17:34Z</time>
      </trkpt>
      <trkpt lat="41.0010050" lon="0.4273060">
        <ele>170.6</ele>
        <time>2020-08-07T12:17:35Z</time>
      </trkpt>
      <trkpt lat="41.0009940" lon="0.4273060">
        <ele>170.0</ele>
        <time>2020-08-07T12:17:36Z</time>
      </trkpt>
      <trkpt lat="41.0009830" lon="0.4273090">
        <ele>168.8</ele>
        <time>2020-08-07T12:17:37Z</time>
      </trkpt>
      <trkpt lat="41.0009770" lon="0.4273150">
        <ele>168.3</ele>
        <time>2020-08-07T12:17:38Z</time>
      </trkpt>
      <trkpt lat="41.0009720" lon="0.4273230">
        <ele>167.8</ele>
        <time>2020-08-07T12:17:40Z</time>
      </trkpt>
      <trkpt lat="41.0009660" lon="0.4273350">
        <ele>167.2</ele>
        <time>2020-08-07T12:17:41Z</time>
      </trkpt>
      <trkpt lat="41.0009580" lon="0.4273730">
        <ele>166.2</ele>
        <time>2020-08-07T12:17:44Z</time>
      </trkpt>
      <trkpt lat="41.0009550" lon="0.4273910">
        <ele>165.7</ele>
        <time>2020-08-07T12:17:45Z</time>
      </trkpt>
      <trkpt lat="41.0009530" lon="0.4274050">
        <ele>164.5</ele>
        <time>2020-08-07T12:17:46Z</time>
      </trkpt>
      <trkpt lat="41.0009500" lon="0.4274180">
        <ele>163.9</ele>
        <time>2020-08-07T12:17:47Z</time>
      </trkpt>
      <trkpt lat="41.0009460" lon="0.4274430">
        <ele>163.0</ele>
        <time>2020-08-07T12:17:49Z</time>
      </trkpt>
      <trkpt lat="41.0009400" lon="0.4274580">
        <ele>162.4</ele>
        <time>2020-08-07T12:17:50Z</time>
      </trkpt>
      <trkpt lat="41.0009310" lon="0.4274740">
        <ele>161.9</ele>
        <time>2020-08-07T12:17:51Z</time>
      </trkpt>
      <trkpt lat="41.0009230" lon="0.4274890">
        <ele>160.9</ele>
        <time>2020-08-07T12:17:52Z</time>
      </trkpt>
      <trkpt lat="41.0009160" lon="0.4274980">
        <ele>161.0</ele>
        <time>2020-08-07T12:17:54Z</time>
      </trkpt>
      <trkpt lat="41.0009060" lon="0.4275110">
        <ele>161.1</ele>
        <time>2020-08-07T12:17:55Z</time>
      </trkpt>
      <trkpt lat="41.0009020" lon="0.4275220">
        <ele>161.1</ele>
        <time>2020-08-07T12:17:56Z</time>
      </trkpt>
      <trkpt lat="41.0008880" lon="0.4275320">
        <ele>161.2</ele>
        <time>2020-08-07T12:17:57Z</time>
      </trkpt>
      <trkpt lat="41.0008780" lon="0.4275430">
        <ele>161.3</ele>
        <time>2020-08-07T12:17:58Z</time>
      </trkpt>
      <trkpt lat="41.0008610" lon="0.4275600">
        <ele>161.4</ele>
        <time>2020-08-07T12:17:59Z</time>
      </trkpt>
      <trkpt lat="41.0008530" lon="0.4275670">
        <ele>161.5</ele>
        <time>2020-08-07T12:18:00Z</time>
      </trkpt>
      <trkpt lat="41.0008460" lon="0.4275740">
        <ele>161.5</ele>
        <time>2020-08-07T12:18:01Z</time>
      </trkpt>
      <trkpt lat="41.0008320" lon="0.4275860">
        <ele>161.6</ele>
        <time>2020-08-07T12:18:02Z</time>
      </trkpt>
      <trkpt lat="41.0008190" lon="0.4275980">
        <ele>161.7</ele>
        <time>2020-08-07T12:18:03Z</time>
      </trkpt>
      <trkpt lat="41.0008070" lon="0.4276090">
        <ele>161.8</ele>
        <time>2020-08-07T12:18:05Z</time>
      </trkpt>
      <trkpt lat="41.0007930" lon="0.4276250">
        <ele>162.0</ele>
        <time>2020-08-07T12:18:06Z</time>
      </trkpt>
      <trkpt lat="41.0007790" lon="0.4276380">
        <ele>162.1</ele>
        <time>2020-08-07T12:18:07Z</time>
      </trkpt>
      <trkpt lat="41.0007740" lon="0.4276450">
        <ele>162.1</ele>
        <time>2020-08-07T12:18:08Z</time>
      </trkpt>
      <trkpt lat="41.0007720" lon="0.4276410">
        <ele>162.2</ele>
        <time>2020-08-07T12:18:09Z</time>
      </trkpt>
      <trkpt lat="41.0007730" lon="0.4276330">
        <ele>162.2</ele>
        <time>2020-08-07T12:18:11Z</time>
      </trkpt>
      <trkpt lat="41.0007780" lon="0.4276210">
        <ele>162.3</ele>
        <time>2020-08-07T12:18:12Z</time>
      </trkpt>
      <trkpt lat="41.0007810" lon="0.4276080">
        <ele>162.4</ele>
        <time>2020-08-07T12:18:14Z</time>
      </trkpt>
      <trkpt lat="41.0007620" lon="0.4276080">
        <ele>162.5</ele>
        <time>2020-08-07T12:18:15Z</time>
      </trkpt>
      <trkpt lat="41.0007610" lon="0.4276080">
        <ele>162.5</ele>
        <time>2020-08-07T12:18:16Z</time>
      </trkpt>
      <trkpt lat="41.0007520" lon="0.4276120">
        <ele>162.6</ele>
        <time>2020-08-07T12:18:18Z</time>
      </trkpt>
      <trkpt lat="41.0007430" lon="0.4276160">
        <ele>162.7</ele>
        <time>2020-08-07T12:18:20Z</time>
      </trkpt>
      <trkpt lat="41.0007410" lon="0.4276170">
        <ele>162.7</ele>
        <time>2020-08-07T12:18:21Z</time>
      </trkpt>
      <trkpt lat="41.0007380" lon="0.4276180">
        <ele>162.7</ele>
        <time>2020-08-07T12:18:22Z</time>
      </trkpt>
      <trkpt lat="41.0007350" lon="0.4276200">
        <ele>162.8</ele>
        <time>2020-08-07T12:18:23Z</time>
      </trkpt>
      <trkpt lat="41.0007300" lon="0.4276230">
        <ele>162.8</ele>
        <time>2020-08-07T12:18:25Z</time>
      </trkpt>
      <trkpt lat="41.0006910" lon="0.4276690">
        <ele>163.4</ele>
        <time>2020-08-07T12:18:35Z</time>
      </trkpt>
      <trkpt lat="41.0006840" lon="0.4276760">
        <ele>163.3</ele>
        <time>2020-08-07T12:18:36Z</time>
      </trkpt>
      <trkpt lat="41.0006760" lon="0.4276910">
        <ele>163.2</ele>
        <time>2020-08-07T12:18:38Z</time>
      </trkpt>
      <trkpt lat="41.0006720" lon="0.4277060">
        <ele>163.0</ele>
        <time>2020-08-07T12:18:40Z</time>
      </trkpt>
      <trkpt lat="41.0006720" lon="0.4277120">
        <ele>163.0</ele>
        <time>2020-08-07T12:18:41Z</time>
      </trkpt>
      <trkpt lat="41.0006750" lon="0.4277170">
        <ele>163.0</ele>
        <time>2020-08-07T12:18:42Z</time>
      </trkpt>
      <trkpt lat="41.0006810" lon="0.4277230">
        <ele>162.9</ele>
        <time>2020-08-07T12:18:43Z</time>
      </trkpt>
      <trkpt lat="41.0006950" lon="0.4277340">
        <ele>162.8</ele>
        <time>2020-08-07T12:18:45Z</time>
      </trkpt>
      <trkpt lat="41.0007050" lon="0.4277410">
        <ele>162.7</ele>
        <time>2020-08-07T12:18:46Z</time>
      </trkpt>
      <trkpt lat="41.0007140" lon="0.4277490">
        <ele>162.6</ele>
        <time>2020-08-07T12:18:47Z</time>
      </trkpt>
      <trkpt lat="41.0007260" lon="0.4277450">
        <ele>162.5</ele>
        <time>2020-08-07T12:18:48Z</time>
      </trkpt>
      <trkpt lat="41.0007440" lon="0.4277320">
        <ele>162.4</ele>
        <time>2020-08-07T12:18:49Z</time>
      </trkpt>
      <trkpt lat="41.0007580" lon="0.4277280">
        <ele>162.3</ele>
        <time>2020-08-07T12:18:51Z</time>
      </trkpt>
      <trkpt lat="41.0007790" lon="0.4277240">
        <ele>162.1</ele>
        <time>2020-08-07T12:18:53Z</time>
      </trkpt>
      <trkpt lat="41.0007920" lon="0.4277230">
        <ele>162.1</ele>
        <time>2020-08-07T12:18:54Z</time>
      </trkpt>
      <trkpt lat="41.0008100" lon="0.4277160">
        <ele>161.9</ele>
        <time>2020-08-07T12:18:55Z</time>
      </trkpt>
      <trkpt lat="41.0008230" lon="0.4277110">
        <ele>161.9</ele>
        <time>2020-08-07T12:18:56Z</time>
      </trkpt>
      <trkpt lat="41.0008380" lon="0.4277090">
        <ele>161.8</ele>
        <time>2020-08-07T12:18:58Z</time>
      </trkpt>
      <trkpt lat="41.0008520" lon="0.4277050">
        <ele>161.7</ele>
        <time>2020-08-07T12:18:59Z</time>
      </trkpt>
      <trkpt lat="41.0008610" lon="0.4277040">
        <ele>161.6</ele>
        <time>2020-08-07T12:19:00Z</time>
      </trkpt>
      <trkpt lat="41.0008760" lon="0.4277020">
        <ele>161.5</ele>
        <time>2020-08-07T12:19:01Z</time>
      </trkpt>
      <trkpt lat="41.0008860" lon="0.4277000">
        <ele>161.5</ele>
        <time>2020-08-07T12:19:02Z</time>
      </trkpt>
      <trkpt lat="41.0009100" lon="0.4276990">
        <ele>161.3</ele>
        <time>2020-08-07T12:19:04Z</time>
      </trkpt>
      <trkpt lat="41.0009220" lon="0.4276990">
        <ele>161.3</ele>
        <time>2020-08-07T12:19:06Z</time>
      </trkpt>
      <trkpt lat="41.0009350" lon="0.4276980">
        <ele>161.2</ele>
        <time>2020-08-07T12:19:07Z</time>
      </trkpt>
      <trkpt lat="41.0009670" lon="0.4276480">
        <ele>160.9</ele>
        <time>2020-08-07T12:19:08Z</time>
      </trkpt>
      <trkpt lat="41.0009860" lon="0.4276280">
        <ele>160.8</ele>
        <time>2020-08-07T12:19:09Z</time>
      </trkpt>
      <trkpt lat="41.0010020" lon="0.4276130">
        <ele>160.7</ele>
        <time>2020-08-07T12:19:11Z</time>
      </trkpt>
      <trkpt lat="41.0010260" lon="0.4275970">
        <ele>160.5</ele>
        <time>2020-08-07T12:19:12Z</time>
      </trkpt>
      <trkpt lat="41.0010350" lon="0.4275920">
        <ele>160.4</ele>
        <time>2020-08-07T12:19:13Z</time>
      </trkpt>
      <trkpt lat="41.0010460" lon="0.4275870">
        <ele>160.3</ele>
        <time>2020-08-07T12:19:14Z</time>
      </trkpt>
      <trkpt lat="41.0010610" lon="0.4275730">
        <ele>160.2</ele>
        <time>2020-08-07T12:19:15Z</time>
      </trkpt>
      <trkpt lat="41.0010720" lon="0.4275640">
        <ele>160.1</ele>
        <time>2020-08-07T12:19:16Z</time>
      </trkpt>
      <trkpt lat="41.0010830" lon="0.4275540">
        <ele>160.0</ele>
        <time>2020-08-07T12:19:17Z</time>
      </trkpt>
      <trkpt lat="41.0010990" lon="0.4275440">
        <ele>159.9</ele>
        <time>2020-08-07T12:19:19Z</time>
      </trkpt>
      <trkpt lat="41.0011220" lon="0.4275390">
        <ele>159.7</ele>
        <time>2020-08-07T12:19:21Z</time>
      </trkpt>
      <trkpt lat="41.0011290" lon="0.4275400">
        <ele>159.7</ele>
        <time>2020-08-07T12:19:22Z</time>
      </trkpt>
      <trkpt lat="41.0011370" lon="0.4275410">
        <ele>159.6</ele>
        <time>2020-08-07T12:19:23Z</time>
      </trkpt>
      <trkpt lat="41.0011540" lon="0.4275440">
        <ele>159.5</ele>
        <time>2020-08-07T12:19:25Z</time>
      </trkpt>
      <trkpt lat="41.0011660" lon="0.4275450">
        <ele>159.4</ele>
        <time>2020-08-07T12:19:26Z</time>
      </trkpt>
      <trkpt lat="41.0011860" lon="0.4275420">
        <ele>159.2</ele>
        <time>2020-08-07T12:19:27Z</time>
      </trkpt>
      <trkpt lat="41.0011940" lon="0.4275400">
        <ele>159.1</ele>
        <time>2020-08-07T12:19:28Z</time>
      </trkpt>
      <trkpt lat="41.0012020" lon="0.4275380">
        <ele>159.1</ele>
        <time>2020-08-07T12:19:29Z</time>
      </trkpt>
      <trkpt lat="41.0012230" lon="0.4275220">
        <ele>158.9</ele>
        <time>2020-08-07T12:19:31Z</time>
      </trkpt>
      <trkpt lat="41.0012300" lon="0.4275180">
        <ele>158.8</ele>
        <time>2020-08-07T12:19:32Z</time>
      </trkpt>
      <trkpt lat="41.0012370" lon="0.4275140">
        <ele>158.8</ele>
        <time>2020-08-07T12:19:33Z</time>
      </trkpt>
      <trkpt lat="41.0012480" lon="0.4275060">
        <ele>158.7</ele>
        <time>2020-08-07T12:19:34Z</time>
      </trkpt>
      <trkpt lat="41.0012560" lon="0.4274960">
        <ele>158.6</ele>
        <time>2020-08-07T12:19:35Z</time>
      </trkpt>
      <trkpt lat="41.0012640" lon="0.4274850">
        <ele>158.5</ele>
        <time>2020-08-07T12:19:36Z</time>
      </trkpt>
      <trkpt lat="41.0012760" lon="0.4274760">
        <ele>158.4</ele>
        <time>2020-08-07T12:19:38Z</time>
      </trkpt>
      <trkpt lat="41.0012850" lon="0.4274680">
        <ele>158.3</ele>
        <time>2020-08-07T12:19:39Z</time>
      </trkpt>
      <trkpt lat="41.0012940" lon="0.4274630">
        <ele>158.2</ele>
        <time>2020-08-07T12:19:40Z</time>
      </trkpt>
      <trkpt lat="41.0013050" lon="0.4274620">
        <ele>158.1</ele>
        <time>2020-08-07T12:19:41Z</time>
      </trkpt>
      <trkpt lat="41.0013220" lon="0.4274640">
        <ele>157.9</ele>
        <time>2020-08-07T12:19:43Z</time>
      </trkpt>
      <trkpt lat="41.0013370" lon="0.4274660">
        <ele>157.8</ele>
        <time>2020-08-07T12:19:45Z</time>
      </trkpt>
      <trkpt lat="41.0013460" lon="0.4274690">
        <ele>157.7</ele>
        <time>2020-08-07T12:19:46Z</time>
      </trkpt>
      <trkpt lat="41.0013560" lon="0.4274760">
        <ele>157.7</ele>
        <time>2020-08-07T12:19:47Z</time>
      </trkpt>
      <trkpt lat="41.0013650" lon="0.4274850">
        <ele>157.6</ele>
        <time>2020-08-07T12:19:48Z</time>
      </trkpt>
      <trkpt lat="41.0013720" lon="0.4274950">
        <ele>157.5</ele>
        <time>2020-08-07T12:19:49Z</time>
      </trkpt>
      <trkpt lat="41.0013800" lon="0.4275060">
        <ele>157.4</ele>
        <time>2020-08-07T12:19:50Z</time>
      </trkpt>
      <trkpt lat="41.0013860" lon="0.4275150">
        <ele>157.3</ele>
        <time>2020-08-07T12:19:51Z</time>
      </trkpt>
      <trkpt lat="41.0013930" lon="0.4275250">
        <ele>157.2</ele>
        <time>2020-08-07T12:19:53Z</time>
      </trkpt>
      <trkpt lat="41.0013980" lon="0.4275340">
        <ele>157.1</ele>
        <time>2020-08-07T12:19:54Z</time>
      </trkpt>
      <trkpt lat="41.0014030" lon="0.4275420">
        <ele>157.1</ele>
        <time>2020-08-07T12:19:55Z</time>
      </trkpt>
      <trkpt lat="41.0014040" lon="0.4275470">
        <ele>157.1</ele>
        <time>2020-08-07T12:19:56Z</time>
      </trkpt>
      <trkpt lat="41.0014040" lon="0.4275600">
        <ele>157.0</ele>
        <time>2020-08-07T12:19:57Z</time>
      </trkpt>
      <trkpt lat="41.0014050" lon="0.4275720">
        <ele>156.9</ele>
        <time>2020-08-07T12:19:59Z</time>
      </trkpt>
      <trkpt lat="41.0014080" lon="0.4275830">
        <ele>156.8</ele>
        <time>2020-08-07T12:20:00Z</time>
      </trkpt>
      <trkpt lat="41.0014130" lon="0.4275940">
        <ele>156.7</ele>
        <time>2020-08-07T12:20:01Z</time>
      </trkpt>
      <trkpt lat="41.0014240" lon="0.4276050">
        <ele>156.6</ele>
        <time>2020-08-07T12:20:03Z</time>
      </trkpt>
      <trkpt lat="41.0014290" lon="0.4276070">
        <ele>156.6</ele>
        <time>2020-08-07T12:20:04Z</time>
      </trkpt>
      <trkpt lat="41.0014370" lon="0.4276090">
        <ele>156.5</ele>
        <time>2020-08-07T12:20:06Z</time>
      </trkpt>
      <trkpt lat="41.0014360" lon="0.4276080">
        <ele>156.5</ele>
        <time>2020-08-07T12:20:08Z</time>
      </trkpt>
      <trkpt lat="41.0014350" lon="0.4276050">
        <ele>156.5</ele>
        <time>2020-08-07T12:20:10Z</time>
      </trkpt>
      <trkpt lat="41.0014330" lon="0.4276040">
        <ele>156.5</ele>
        <time>2020-08-07T12:20:11Z</time>
      </trkpt>
      <trkpt lat="41.0014310" lon="0.4276040">
        <ele>156.5</ele>
        <time>2020-08-07T12:20:13Z</time>
      </trkpt>
      <trkpt lat="41.0014290" lon="0.4276030">
        <ele>156.4</ele>
        <time>2020-08-07T12:20:14Z</time>
      </trkpt>
      <trkpt lat="41.0014270" lon="0.4276020">
        <ele>156.4</ele>
        <time>2020-08-07T12:20:16Z</time>
      </trkpt>
      <trkpt lat="41.0014570" lon="0.4275910">
        <ele>156.2</ele>
        <time>2020-08-07T12:25:36Z</time>
      </trkpt>
      <trkpt lat="41.0014640" lon="0.4276130">
        <ele>156.2</ele>
        <time>2020-08-07T12:25:38Z</time>
      </trkpt>
      <trkpt lat="41.0014670" lon="0.4276210">
        <ele>156.2</ele>
        <time>2020-08-07T12:25:40Z</time>
      </trkpt>
      <trkpt lat="41.0014690" lon="0.4276240">
        <ele>156.2</ele>
        <time>2020-08-07T12:25:41Z</time>
      </trkpt>
      <trkpt lat="41.0014730" lon="0.4276290">
        <ele>156.3</ele>
        <time>2020-08-07T12:25:43Z</time>
      </trkpt>
      <trkpt lat="41.0014750" lon="0.4276310">
        <ele>156.3</ele>
        <time>2020-08-07T12:25:44Z</time>
      </trkpt>
      <trkpt lat="41.0014760" lon="0.4276310">
        <ele>156.3</ele>
        <time>2020-08-07T12:25:45Z</time>
      </trkpt>
      <trkpt lat="41.0014770" lon="0.4276310">
        <ele>156.3</ele>
        <time>2020-08-07T12:25:46Z</time>
      </trkpt>
      <trkpt lat="41.0014760" lon="0.4276300">
        <ele>156.4</ele>
        <time>2020-08-07T12:25:47Z</time>
      </trkpt>
      <trkpt lat="41.0014710" lon="0.4276190">
        <ele>156.4</ele>
        <time>2020-08-07T12:25:49Z</time>
      </trkpt>
      <trkpt lat="41.0014640" lon="0.4276050">
        <ele>156.6</ele>
        <time>2020-08-07T12:25:50Z</time>
      </trkpt>
      <trkpt lat="41.0014620" lon="0.4276010">
        <ele>156.6</ele>
        <time>2020-08-07T12:25:51Z</time>
      </trkpt>
      <trkpt lat="41.0014580" lon="0.4275930">
        <ele>156.7</ele>
        <time>2020-08-07T12:25:52Z</time>
      </trkpt>
      <trkpt lat="41.0014550" lon="0.4275890">
        <ele>156.7</ele>
        <time>2020-08-07T12:25:54Z</time>
      </trkpt>
      <trkpt lat="41.0014690" lon="0.4276230">
        <ele>157.0</ele>
        <time>2020-08-07T12:26:29Z</time>
      </trkpt>
      <trkpt lat="41.0014750" lon="0.4276200">
        <ele>157.0</ele>
        <time>2020-08-07T12:26:31Z</time>
      </trkpt>
      <trkpt lat="41.0014780" lon="0.4276200">
        <ele>157.1</ele>
        <time>2020-08-07T12:26:32Z</time>
      </trkpt>
      <trkpt lat="41.0014790" lon="0.4276110">
        <ele>157.1</ele>
        <time>2020-08-07T12:26:33Z</time>
      </trkpt>
      <trkpt lat="41.0014680" lon="0.4275980">
        <ele>157.3</ele>
        <time>2020-08-07T12:26:34Z</time>
      </trkpt>
      <trkpt lat="41.0014600" lon="0.4275980">
        <ele>157.3</ele>
        <time>2020-08-07T12:26:36Z</time>
      </trkpt>
      <trkpt lat="41.0014520" lon="0.4275970">
        <ele>157.4</ele>
        <time>2020-08-07T12:26:37Z</time>
      </trkpt>
      <trkpt lat="41.0014440" lon="0.4275950">
        <ele>157.5</ele>
        <time>2020-08-07T12:26:38Z</time>
      </trkpt>
      <trkpt lat="41.0014360" lon="0.4275920">
        <ele>157.5</ele>
        <time>2020-08-07T12:26:39Z</time>
      </trkpt>
      <trkpt lat="41.0014270" lon="0.4275900">
        <ele>157.6</ele>
        <time>2020-08-07T12:26:40Z</time>
      </trkpt>
      <trkpt lat="41.0014110" lon="0.4275860">
        <ele>157.8</ele>
        <time>2020-08-07T12:26:42Z</time>
      </trkpt>
      <trkpt lat="41.0014040" lon="0.4275830">
        <ele>157.9</ele>
        <time>2020-08-07T12:26:43Z</time>
      </trkpt>
      <trkpt lat="41.0014010" lon="0.4275810">
        <ele>157.9</ele>
        <time>2020-08-07T12:26:44Z</time>
      </trkpt>
      <trkpt lat="41.0013970" lon="0.4275790">
        <ele>157.9</ele>
        <time>2020-08-07T12:26:46Z</time>
      </trkpt>
      <trkpt lat="41.0013920" lon="0.4275770">
        <ele>158.0</ele>
        <time>2020-08-07T12:26:47Z</time>
      </trkpt>
      <trkpt lat="41.0013790" lon="0.4275630">
        <ele>158.1</ele>
        <time>2020-08-07T12:26:48Z</time>
      </trkpt>
      <trkpt lat="41.0013630" lon="0.4275480">
        <ele>158.3</ele>
        <time>2020-08-07T12:26:49Z</time>
      </trkpt>
      <trkpt lat="41.0013480" lon="0.4275330">
        <ele>158.5</ele>
        <time>2020-08-07T12:26:51Z</time>
      </trkpt>
      <trkpt lat="41.0013230" lon="0.4275130">
        <ele>158.7</ele>
        <time>2020-08-07T12:26:52Z</time>
      </trkpt>
      <trkpt lat="41.0013140" lon="0.4275090">
        <ele>158.8</ele>
        <time>2020-08-07T12:26:53Z</time>
      </trkpt>
      <trkpt lat="41.0012850" lon="0.4274950">
        <ele>159.1</ele>
        <time>2020-08-07T12:26:55Z</time>
      </trkpt>
      <trkpt lat="41.0012760" lon="0.4274910">
        <ele>159.2</ele>
        <time>2020-08-07T12:26:56Z</time>
      </trkpt>
      <trkpt lat="41.0012500" lon="0.4274830">
        <ele>159.4</ele>
        <time>2020-08-07T12:26:57Z</time>
      </trkpt>
      <trkpt lat="41.0012400" lon="0.4274810">
        <ele>159.5</ele>
        <time>2020-08-07T12:26:58Z</time>
      </trkpt>
      <trkpt lat="41.0012220" lon="0.4274770">
        <ele>159.7</ele>
        <time>2020-08-07T12:27:00Z</time>
      </trkpt>
      <trkpt lat="41.0012040" lon="0.4274740">
        <ele>159.8</ele>
        <time>2020-08-07T12:27:01Z</time>
      </trkpt>
      <trkpt lat="41.0011750" lon="0.4274740">
        <ele>160.1</ele>
        <time>2020-08-07T12:27:02Z</time>
      </trkpt>
      <trkpt lat="41.0011640" lon="0.4274740">
        <ele>160.1</ele>
        <time>2020-08-07T12:27:03Z</time>
      </trkpt>
      <trkpt lat="41.0011370" lon="0.4274770">
        <ele>160.3</ele>
        <time>2020-08-07T12:27:05Z</time>
      </trkpt>
      <trkpt lat="41.0011270" lon="0.4274780">
        <ele>160.4</ele>
        <time>2020-08-07T12:27:06Z</time>
      </trkpt>
      <trkpt lat="41.0010960" lon="0.4274840">
        <ele>160.7</ele>
        <time>2020-08-07T12:27:07Z</time>
      </trkpt>
      <trkpt lat="41.0010840" lon="0.4274870">
        <ele>160.7</ele>
        <time>2020-08-07T12:27:08Z</time>
      </trkpt>
      <trkpt lat="41.0010680" lon="0.4274900">
        <ele>160.9</ele>
        <time>2020-08-07T12:27:09Z</time>
      </trkpt>
      <trkpt lat="41.0010500" lon="0.4274940">
        <ele>161.0</ele>
        <time>2020-08-07T12:27:11Z</time>
      </trkpt>
      <trkpt lat="41.0010320" lon="0.4274980">
        <ele>161.1</ele>
        <time>2020-08-07T12:27:12Z</time>
      </trkpt>
      <trkpt lat="41.0010160" lon="0.4275010">
        <ele>161.2</ele>
        <time>2020-08-07T12:27:13Z</time>
      </trkpt>
      <trkpt lat="41.0009950" lon="0.4275030">
        <ele>161.3</ele>
        <time>2020-08-07T12:27:14Z</time>
      </trkpt>
      <trkpt lat="41.0009790" lon="0.4275050">
        <ele>161.4</ele>
        <time>2020-08-07T12:27:16Z</time>
      </trkpt>
      <trkpt lat="41.0009620" lon="0.4275080">
        <ele>161.5</ele>
        <time>2020-08-07T12:27:17Z</time>
      </trkpt>
      <trkpt lat="41.0009480" lon="0.4275110">
        <ele>161.6</ele>
        <time>2020-08-07T12:27:18Z</time>
      </trkpt>
      <trkpt lat="41.0009360" lon="0.4275190">
        <ele>161.7</ele>
        <time>2020-08-07T12:27:19Z</time>
      </trkpt>
      <trkpt lat="41.0009320" lon="0.4275230">
        <ele>161.7</ele>
        <time>2020-08-07T12:27:20Z</time>
      </trkpt>
      <trkpt lat="41.0009270" lon="0.4275270">
        <ele>161.8</ele>
        <time>2020-08-07T12:27:22Z</time>
      </trkpt>
      <trkpt lat="41.0009220" lon="0.4275310">
        <ele>161.8</ele>
        <time>2020-08-07T12:27:24Z</time>
      </trkpt>
      <trkpt lat="41.0009180" lon="0.4275350">
        <ele>161.9</ele>
        <time>2020-08-07T12:27:26Z</time>
      </trkpt>
      <trkpt lat="41.0009130" lon="0.4275380">
        <ele>161.9</ele>
        <time>2020-08-07T12:27:27Z</time>
      </trkpt>
      <trkpt lat="41.0009080" lon="0.4275420">
        <ele>161.9</ele>
        <time>2020-08-07T12:27:28Z</time>
      </trkpt>
      <trkpt lat="41.0009030" lon="0.4275460">
        <ele>162.0</ele>
        <time>2020-08-07T12:27:29Z</time>
      </trkpt>
      <trkpt lat="41.0008990" lon="0.4275500">
        <ele>162.0</ele>
        <time>2020-08-07T12:27:31Z</time>
      </trkpt>
      <trkpt lat="41.0008940" lon="0.4275540">
        <ele>162.0</ele>
        <time>2020-08-07T12:27:32Z</time>
      </trkpt>
      <trkpt lat="41.0008810" lon="0.4275570">
        <ele>162.1</ele>
        <time>2020-08-07T12:27:33Z</time>
      </trkpt>
      <trkpt lat="41.0008640" lon="0.4275570">
        <ele>162.3</ele>
        <time>2020-08-07T12:27:34Z</time>
      </trkpt>
      <trkpt lat="41.0008490" lon="0.4275570">
        <ele>162.4</ele>
        <time>2020-08-07T12:27:35Z</time>
      </trkpt>
      <trkpt lat="41.0008320" lon="0.4275570">
        <ele>162.5</ele>
        <time>2020-08-07T12:27:37Z</time>
      </trkpt>
      <trkpt lat="41.0008180" lon="0.4275580">
        <ele>162.6</ele>
        <time>2020-08-07T12:27:38Z</time>
      </trkpt>
      <trkpt lat="41.0008040" lon="0.4275590">
        <ele>162.8</ele>
        <time>2020-08-07T12:27:39Z</time>
      </trkpt>
      <trkpt lat="41.0007900" lon="0.4275600">
        <ele>162.9</ele>
        <time>2020-08-07T12:27:40Z</time>
      </trkpt>
      <trkpt lat="41.0007740" lon="0.4275610">
        <ele>163.0</ele>
        <time>2020-08-07T12:27:41Z</time>
      </trkpt>
      <trkpt lat="41.0007610" lon="0.4275620">
        <ele>163.1</ele>
        <time>2020-08-07T12:27:42Z</time>
      </trkpt>
      <trkpt lat="41.0007460" lon="0.4275640">
        <ele>163.3</ele>
        <time>2020-08-07T12:27:44Z</time>
      </trkpt>
      <trkpt lat="41.0007290" lon="0.4275700">
        <ele>163.5</ele>
        <time>2020-08-07T12:27:45Z</time>
      </trkpt>
      <trkpt lat="41.0007100" lon="0.4275770">
        <ele>163.6</ele>
        <time>2020-08-07T12:27:47Z</time>
      </trkpt>
      <trkpt lat="41.0006970" lon="0.4275820">
        <ele>163.8</ele>
        <time>2020-08-07T12:27:48Z</time>
      </trkpt>
      <trkpt lat="41.0006810" lon="0.4275890">
        <ele>163.9</ele>
        <time>2020-08-07T12:27:49Z</time>
      </trkpt>
      <trkpt lat="41.0006670" lon="0.4275940">
        <ele>164.1</ele>
        <time>2020-08-07T12:27:50Z</time>
      </trkpt>
      <trkpt lat="41.0006550" lon="0.4276000">
        <ele>164.2</ele>
        <time>2020-08-07T12:27:51Z</time>
      </trkpt>
      <trkpt lat="41.0006370" lon="0.4276090">
        <ele>164.4</ele>
        <time>2020-08-07T12:27:52Z</time>
      </trkpt>
      <trkpt lat="41.0006230" lon="0.4276150">
        <ele>164.6</ele>
        <time>2020-08-07T12:27:54Z</time>
      </trkpt>
      <trkpt lat="41.0006090" lon="0.4276190">
        <ele>164.7</ele>
        <time>2020-08-07T12:27:55Z</time>
      </trkpt>
      <trkpt lat="41.0005960" lon="0.4276200">
        <ele>164.9</ele>
        <time>2020-08-07T12:27:56Z</time>
      </trkpt>
      <trkpt lat="41.0005850" lon="0.4276180">
        <ele>165.0</ele>
        <time>2020-08-07T12:27:57Z</time>
      </trkpt>
      <trkpt lat="41.0005900" lon="0.4276160">
        <ele>165.1</ele>
        <time>2020-08-07T12:27:59Z</time>
      </trkpt>
      <trkpt lat="41.0005880" lon="0.4276100">
        <ele>165.1</ele>
        <time>2020-08-07T12:28:00Z</time>
      </trkpt>
      <trkpt lat="41.0005860" lon="0.4276060">
        <ele>165.2</ele>
        <time>2020-08-07T12:28:02Z</time>
      </trkpt>
      <trkpt lat="41.0005840" lon="0.4276040">
        <ele>165.2</ele>
        <time>2020-08-07T12:28:03Z</time>
      </trkpt>
      <trkpt lat="41.0005790" lon="0.4275990">
        <ele>165.3</ele>
        <time>2020-08-07T12:28:05Z</time>
      </trkpt>
      <trkpt lat="41.0005710" lon="0.4275930">
        <ele>165.4</ele>
        <time>2020-08-07T12:28:06Z</time>
      </trkpt>
      <trkpt lat="41.0005630" lon="0.4275860">
        <ele>165.5</ele>
        <time>2020-08-07T12:28:07Z</time>
      </trkpt>
      <trkpt lat="41.0005500" lon="0.4275670">
        <ele>165.7</ele>
        <time>2020-08-07T12:28:09Z</time>
      </trkpt>
      <trkpt lat="41.0005460" lon="0.4275510">
        <ele>165.8</ele>
        <time>2020-08-07T12:28:10Z</time>
      </trkpt>
      <trkpt lat="41.0005480" lon="0.4275370">
        <ele>165.9</ele>
        <time>2020-08-07T12:28:12Z</time>
      </trkpt>
      <trkpt lat="41.0005530" lon="0.4275240">
        <ele>166.0</ele>
        <time>2020-08-07T12:28:13Z</time>
      </trkpt>
      <trkpt lat="41.0005670" lon="0.4275050">
        <ele>166.3</ele>
        <time>2020-08-07T12:28:14Z</time>
      </trkpt>
      <trkpt lat="41.0005740" lon="0.4274980">
        <ele>166.4</ele>
        <time>2020-08-07T12:28:16Z</time>
      </trkpt>
      <trkpt lat="41.0005810" lon="0.4274900">
        <ele>166.5</ele>
        <time>2020-08-07T12:28:17Z</time>
      </trkpt>
      <trkpt lat="41.0005900" lon="0.4274830">
        <ele>166.6</ele>
        <time>2020-08-07T12:28:18Z</time>
      </trkpt>
      <trkpt lat="41.0006050" lon="0.4274770">
        <ele>166.7</ele>
        <time>2020-08-07T12:28:19Z</time>
      </trkpt>
      <trkpt lat="41.0006170" lon="0.4274720">
        <ele>166.9</ele>
        <time>2020-08-07T12:28:21Z</time>
      </trkpt>
      <trkpt lat="41.0006290" lon="0.4274670">
        <ele>167.0</ele>
        <time>2020-08-07T12:28:22Z</time>
      </trkpt>
      <trkpt lat="41.0006500" lon="0.4274580">
        <ele>167.2</ele>
        <time>2020-08-07T12:28:24Z</time>
      </trkpt>
      <trkpt lat="41.0006640" lon="0.4274550">
        <ele>167.4</ele>
        <time>2020-08-07T12:28:25Z</time>
      </trkpt>
      <trkpt lat="41.0006780" lon="0.4274530">
        <ele>167.5</ele>
        <time>2020-08-07T12:28:26Z</time>
      </trkpt>
      <trkpt lat="41.0006900" lon="0.4274520">
        <ele>167.7</ele>
        <time>2020-08-07T12:28:27Z</time>
      </trkpt>
      <trkpt lat="41.0007020" lon="0.4274520">
        <ele>167.8</ele>
        <time>2020-08-07T12:28:29Z</time>
      </trkpt>
      <trkpt lat="41.0007140" lon="0.4274530">
        <ele>167.9</ele>
        <time>2020-08-07T12:28:30Z</time>
      </trkpt>
      <trkpt lat="41.0007260" lon="0.4274540">
        <ele>168.0</ele>
        <time>2020-08-07T12:28:31Z</time>
      </trkpt>
      <trkpt lat="41.0007370" lon="0.4274550">
        <ele>168.2</ele>
        <time>2020-08-07T12:28:32Z</time>
      </trkpt>
      <trkpt lat="41.0007530" lon="0.4274540">
        <ele>168.3</ele>
        <time>2020-08-07T12:28:34Z</time>
      </trkpt>
      <trkpt lat="41.0007670" lon="0.4274490">
        <ele>168.5</ele>
        <time>2020-08-07T12:28:36Z</time>
      </trkpt>
      <trkpt lat="41.0007790" lon="0.4274430">
        <ele>168.6</ele>
        <time>2020-08-07T12:28:37Z</time>
      </trkpt>
      <trkpt lat="41.0007870" lon="0.4274370">
        <ele>168.7</ele>
        <time>2020-08-07T12:28:38Z</time>
      </trkpt>
      <trkpt lat="41.0007950" lon="0.4274330">
        <ele>168.8</ele>
        <time>2020-08-07T12:28:39Z</time>
      </trkpt>
      <trkpt lat="41.0008030" lon="0.4274270">
        <ele>168.9</ele>
        <time>2020-08-07T12:28:40Z</time>
      </trkpt>
      <trkpt lat="41.0008230" lon="0.4274130">
        <ele>169.2</ele>
        <time>2020-08-07T12:28:41Z</time>
      </trkpt>
      <trkpt lat="41.0008330" lon="0.4274030">
        <ele>169.3</ele>
        <time>2020-08-07T12:28:43Z</time>
      </trkpt>
      <trkpt lat="41.0008430" lon="0.4273940">
        <ele>169.4</ele>
        <time>2020-08-07T12:28:44Z</time>
      </trkpt>
      <trkpt lat="41.0008540" lon="0.4273850">
        <ele>169.6</ele>
        <time>2020-08-07T12:28:46Z</time>
      </trkpt>
      <trkpt lat="41.0008640" lon="0.4273760">
        <ele>169.7</ele>
        <time>2020-08-07T12:28:47Z</time>
      </trkpt>
      <trkpt lat="41.0008740" lon="0.4273660">
        <ele>169.9</ele>
        <time>2020-08-07T12:28:48Z</time>
      </trkpt>
      <trkpt lat="41.0008840" lon="0.4273570">
        <ele>170.0</ele>
        <time>2020-08-07T12:28:49Z</time>
      </trkpt>
      <trkpt lat="41.0009020" lon="0.4273400">
        <ele>170.2</ele>
        <time>2020-08-07T12:28:50Z</time>
      </trkpt>
      <trkpt lat="41.0009100" lon="0.4273330">
        <ele>170.4</ele>
        <time>2020-08-07T12:28:52Z</time>
      </trkpt>
      <trkpt lat="41.0009170" lon="0.4273270">
        <ele>170.5</ele>
        <time>2020-08-07T12:28:53Z</time>
      </trkpt>
      <trkpt lat="41.0009290" lon="0.4273190">
        <ele>170.6</ele>
        <time>2020-08-07T12:28:54Z</time>
      </trkpt>
      <trkpt lat="41.0009430" lon="0.4273050">
        <ele>170.8</ele>
        <time>2020-08-07T12:28:55Z</time>
      </trkpt>
      <trkpt lat="41.0009550" lon="0.4272940">
        <ele>171.0</ele>
        <time>2020-08-07T12:28:57Z</time>
      </trkpt>
      <trkpt lat="41.0009680" lon="0.4272830">
        <ele>171.2</ele>
        <time>2020-08-07T12:28:58Z</time>
      </trkpt>
      <trkpt lat="41.0009800" lon="0.4272720">
        <ele>171.4</ele>
        <time>2020-08-07T12:28:59Z</time>
      </trkpt>
      <trkpt lat="41.0009910" lon="0.4272630">
        <ele>171.5</ele>
        <time>2020-08-07T12:29:00Z</time>
      </trkpt>
      <trkpt lat="41.0010010" lon="0.4272570">
        <ele>171.7</ele>
        <time>2020-08-07T12:29:01Z</time>
      </trkpt>
      <trkpt lat="41.0010140" lon="0.4272480">
        <ele>171.9</ele>
        <time>2020-08-07T12:29:02Z</time>
      </trkpt>
      <trkpt lat="41.0010250" lon="0.4272410">
        <ele>172.0</ele>
        <time>2020-08-07T12:29:04Z</time>
      </trkpt>
      <trkpt lat="41.0010400" lon="0.4272200">
        <ele>172.3</ele>
        <time>2020-08-07T12:29:05Z</time>
      </trkpt>
      <trkpt lat="41.0010450" lon="0.4272110">
        <ele>172.4</ele>
        <time>2020-08-07T12:29:06Z</time>
      </trkpt>
      <trkpt lat="41.0010490" lon="0.4272010">
        <ele>172.5</ele>
        <time>2020-08-07T12:29:07Z</time>
      </trkpt>
      <trkpt lat="41.0010500" lon="0.4271900">
        <ele>172.6</ele>
        <time>2020-08-07T12:29:09Z</time>
      </trkpt>
      <trkpt lat="41.0010480" lon="0.4271830">
        <ele>172.7</ele>
        <time>2020-08-07T12:29:10Z</time>
      </trkpt>
      <trkpt lat="41.0010430" lon="0.4271800">
        <ele>172.8</ele>
        <time>2020-08-07T12:29:11Z</time>
      </trkpt>
      <trkpt lat="41.0010350" lon="0.4271760">
        <ele>172.9</ele>
        <time>2020-08-07T12:29:12Z</time>
      </trkpt>
      <trkpt lat="41.0010270" lon="0.4271760">
        <ele>173.0</ele>
        <time>2020-08-07T12:29:14Z</time>
      </trkpt>
      <trkpt lat="41.0010180" lon="0.4271780">
        <ele>173.1</ele>
        <time>2020-08-07T12:29:15Z</time>
      </trkpt>
      <trkpt lat="41.0010090" lon="0.4271810">
        <ele>173.2</ele>
        <time>2020-08-07T12:29:16Z</time>
      </trkpt>
      <trkpt lat="41.0009970" lon="0.4271860">
        <ele>173.4</ele>
        <time>2020-08-07T12:29:17Z</time>
      </trkpt>
      <trkpt lat="41.0009860" lon="0.4271900">
        <ele>173.6</ele>
        <time>2020-08-07T12:29:19Z</time>
      </trkpt>
      <trkpt lat="41.0009430" lon="0.4272110">
        <ele>174.2</ele>
        <time>2020-08-07T12:29:25Z</time>
      </trkpt>
      <trkpt lat="41.0009340" lon="0.4272120">
        <ele>174.3</ele>
        <time>2020-08-07T12:29:26Z</time>
      </trkpt>
      <trkpt lat="41.0009260" lon="0.4272120">
        <ele>174.4</ele>
        <time>2020-08-07T12:29:28Z</time>
      </trkpt>
      <trkpt lat="41.0009190" lon="0.4272130">
        <ele>174.5</ele>
        <time>2020-08-07T12:29:29Z</time>
      </trkpt>
      <trkpt lat="41.0009130" lon="0.4272150">
        <ele>174.6</ele>
        <time>2020-08-07T12:29:30Z</time>
      </trkpt>
      <trkpt lat="41.0009080" lon="0.4272100">
        <ele>174.7</ele>
        <time>2020-08-07T12:29:32Z</time>
      </trkpt>
      <trkpt lat="41.0009010" lon="0.4272050">
        <ele>174.8</ele>
        <time>2020-08-07T12:29:33Z</time>
      </trkpt>
      <trkpt lat="41.0008960" lon="0.4271950">
        <ele>174.9</ele>
        <time>2020-08-07T12:29:34Z</time>
      </trkpt>
      <trkpt lat="41.0008890" lon="0.4271820">
        <ele>175.1</ele>
        <time>2020-08-07T12:29:35Z</time>
      </trkpt>
      <trkpt lat="41.0008800" lon="0.4271720">
        <ele>175.2</ele>
        <time>2020-08-07T12:29:37Z</time>
      </trkpt>
      <trkpt lat="41.0008730" lon="0.4271580">
        <ele>175.4</ele>
        <time>2020-08-07T12:29:38Z</time>
      </trkpt>
      <trkpt lat="41.0008680" lon="0.4271450">
        <ele>175.6</ele>
        <time>2020-08-07T12:29:39Z</time>
      </trkpt>
      <trkpt lat="41.0008580" lon="0.4271240">
        <ele>175.8</ele>
        <time>2020-08-07T12:29:41Z</time>
      </trkpt>
      <trkpt lat="41.0008530" lon="0.4271090">
        <ele>176.0</ele>
        <time>2020-08-07T12:29:42Z</time>
      </trkpt>
      <trkpt lat="41.0008470" lon="0.4270830">
        <ele>176.2</ele>
        <time>2020-08-07T12:29:43Z</time>
      </trkpt>
      <trkpt lat="41.0008450" lon="0.4270710">
        <ele>176.4</ele>
        <time>2020-08-07T12:29:44Z</time>
      </trkpt>
      <trkpt lat="41.0008420" lon="0.4270590">
        <ele>176.5</ele>
        <time>2020-08-07T12:29:45Z</time>
      </trkpt>
      <trkpt lat="41.0008370" lon="0.4270400">
        <ele>176.7</ele>
        <time>2020-08-07T12:29:47Z</time>
      </trkpt>
      <trkpt lat="41.0008320" lon="0.4270190">
        <ele>176.9</ele>
        <time>2020-08-07T12:29:48Z</time>
      </trkpt>
      <trkpt lat="41.0008270" lon="0.4269810">
        <ele>177.3</ele>
        <time>2020-08-07T12:29:50Z</time>
      </trkpt>
      <trkpt lat="41.0008250" lon="0.4269710">
        <ele>177.4</ele>
        <time>2020-08-07T12:29:51Z</time>
      </trkpt>
      <trkpt lat="41.0008250" lon="0.4269500">
        <ele>177.6</ele>
        <time>2020-08-07T12:29:52Z</time>
      </trkpt>
      <trkpt lat="41.0008240" lon="0.4269340">
        <ele>177.7</ele>
        <time>2020-08-07T12:29:53Z</time>
      </trkpt>
      <trkpt lat="41.0008240" lon="0.4269060">
        <ele>178.0</ele>
        <time>2020-08-07T12:29:54Z</time>
      </trkpt>
      <trkpt lat="41.0008230" lon="0.4268840">
        <ele>178.2</ele>
        <time>2020-08-07T12:29:56Z</time>
      </trkpt>
      <trkpt lat="41.0008260" lon="0.4268470">
        <ele>178.6</ele>
        <time>2020-08-07T12:29:57Z</time>
      </trkpt>
      <trkpt lat="41.0008260" lon="0.4268270">
        <ele>178.7</ele>
        <time>2020-08-07T12:29:59Z</time>
      </trkpt>
      <trkpt lat="41.0008270" lon="0.4268070">
        <ele>178.9</ele>
        <time>2020-08-07T12:30:00Z</time>
      </trkpt>
      <trkpt lat="41.0008270" lon="0.4267870">
        <ele>179.1</ele>
        <time>2020-08-07T12:30:01Z</time>
      </trkpt>
      <trkpt lat="41.0008280" lon="0.4267650">
        <ele>179.3</ele>
        <time>2020-08-07T12:30:03Z</time>
      </trkpt>
      <trkpt lat="41.0008300" lon="0.4267460">
        <ele>179.5</ele>
        <time>2020-08-07T12:30:04Z</time>
      </trkpt>
      <trkpt lat="41.0008310" lon="0.4267190">
        <ele>179.7</ele>
        <time>2020-08-07T12:30:05Z</time>
      </trkpt>
      <trkpt lat="41.0008310" lon="0.4266980">
        <ele>179.9</ele>
        <time>2020-08-07T12:30:07Z</time>
      </trkpt>
      <trkpt lat="41.0008310" lon="0.4266800">
        <ele>180.1</ele>
        <time>2020-08-07T12:30:08Z</time>
      </trkpt>
      <trkpt lat="41.0008310" lon="0.4266580">
        <ele>180.3</ele>
        <time>2020-08-07T12:30:09Z</time>
      </trkpt>
      <trkpt lat="41.0008300" lon="0.4266380">
        <ele>180.4</ele>
        <time>2020-08-07T12:30:11Z</time>
      </trkpt>
      <trkpt lat="41.0008290" lon="0.4266190">
        <ele>180.6</ele>
        <time>2020-08-07T12:30:12Z</time>
      </trkpt>
      <trkpt lat="41.0008280" lon="0.4266030">
        <ele>180.8</ele>
        <time>2020-08-07T12:30:13Z</time>
      </trkpt>
      <trkpt lat="41.0008260" lon="0.4265790">
        <ele>181.0</ele>
        <time>2020-08-07T12:30:14Z</time>
      </trkpt>
      <trkpt lat="41.0008230" lon="0.4265580">
        <ele>181.2</ele>
        <time>2020-08-07T12:30:16Z</time>
      </trkpt>
      <trkpt lat="41.0008220" lon="0.4265370">
        <ele>181.3</ele>
        <time>2020-08-07T12:30:17Z</time>
      </trkpt>
      <trkpt lat="41.0008220" lon="0.4265130">
        <ele>181.5</ele>
        <time>2020-08-07T12:30:18Z</time>
      </trkpt>
      <trkpt lat="41.0008220" lon="0.4264920">
        <ele>181.7</ele>
        <time>2020-08-07T12:30:20Z</time>
      </trkpt>
      <trkpt lat="41.0008210" lon="0.4264740">
        <ele>181.9</ele>
        <time>2020-08-07T12:30:21Z</time>
      </trkpt>
      <trkpt lat="41.0008200" lon="0.4264570">
        <ele>182.0</ele>
        <time>2020-08-07T12:30:22Z</time>
      </trkpt>
      <trkpt lat="41.0008180" lon="0.4264320">
        <ele>182.2</ele>
        <time>2020-08-07T12:30:24Z</time>
      </trkpt>
      <trkpt lat="41.0008170" lon="0.4264010">
        <ele>182.4</ele>
        <time>2020-08-07T12:30:25Z</time>
      </trkpt>
      <trkpt lat="41.0008170" lon="0.4263890">
        <ele>182.5</ele>
        <time>2020-08-07T12:30:26Z</time>
      </trkpt>
      <trkpt lat="41.0008170" lon="0.4263770">
        <ele>182.6</ele>
        <time>2020-08-07T12:30:27Z</time>
      </trkpt>
      <trkpt lat="41.0008180" lon="0.4263590">
        <ele>182.7</ele>
        <time>2020-08-07T12:30:29Z</time>
      </trkpt>
      <trkpt lat="41.0008190" lon="0.4263460">
        <ele>182.8</ele>
        <time>2020-08-07T12:30:30Z</time>
      </trkpt>
      <trkpt lat="41.0008200" lon="0.4263350">
        <ele>182.9</ele>
        <time>2020-08-07T12:30:31Z</time>
      </trkpt>
      <trkpt lat="41.0008220" lon="0.4263160">
        <ele>183.1</ele>
        <time>2020-08-07T12:30:33Z</time>
      </trkpt>
      <trkpt lat="41.0008240" lon="0.4263020">
        <ele>183.2</ele>
        <time>2020-08-07T12:30:34Z</time>
      </trkpt>
      <trkpt lat="41.0008270" lon="0.4262890">
        <ele>183.3</ele>
        <time>2020-08-07T12:30:35Z</time>
      </trkpt>
      <trkpt lat="41.0008300" lon="0.4262690">
        <ele>183.4</ele>
        <time>2020-08-07T12:30:36Z</time>
      </trkpt>
      <trkpt lat="41.0008310" lon="0.4262560">
        <ele>183.5</ele>
        <time>2020-08-07T12:30:38Z</time>
      </trkpt>
      <trkpt lat="41.0008340" lon="0.4262430">
        <ele>183.6</ele>
        <time>2020-08-07T12:30:39Z</time>
      </trkpt>
      <trkpt lat="41.0008360" lon="0.4262280">
        <ele>183.7</ele>
        <time>2020-08-07T12:30:40Z</time>
      </trkpt>
      <trkpt lat="41.0008390" lon="0.4262150">
        <ele>183.8</ele>
        <time>2020-08-07T12:30:42Z</time>
      </trkpt>
      <trkpt lat="41.0008410" lon="0.4262000">
        <ele>183.9</ele>
        <time>2020-08-07T12:30:43Z</time>
      </trkpt>
      <trkpt lat="41.0008440" lon="0.4261880">
        <ele>183.9</ele>
        <time>2020-08-07T12:30:44Z</time>
      </trkpt>
      <trkpt lat="41.0008470" lon="0.4261780">
        <ele>184.0</ele>
        <time>2020-08-07T12:30:45Z</time>
      </trkpt>
      <trkpt lat="41.0008520" lon="0.4261660">
        <ele>184.1</ele>
        <time>2020-08-07T12:30:47Z</time>
      </trkpt>
      <trkpt lat="41.0008580" lon="0.4261570">
        <ele>184.2</ele>
        <time>2020-08-07T12:30:48Z</time>
      </trkpt>
      <trkpt lat="41.0008670" lon="0.4261500">
        <ele>184.2</ele>
        <time>2020-08-07T12:30:49Z</time>
      </trkpt>
      <trkpt lat="41.0008740" lon="0.4261430">
        <ele>184.3</ele>
        <time>2020-08-07T12:30:51Z</time>
      </trkpt>
      <trkpt lat="41.0008810" lon="0.4261380">
        <ele>184.4</ele>
        <time>2020-08-07T12:30:52Z</time>
      </trkpt>
      <trkpt lat="41.0008870" lon="0.4261370">
        <ele>184.4</ele>
        <time>2020-08-07T12:30:53Z</time>
      </trkpt>
      <trkpt lat="41.0008930" lon="0.4261340">
        <ele>184.5</ele>
        <time>2020-08-07T12:30:54Z</time>
      </trkpt>
      <trkpt lat="41.0009000" lon="0.4261280">
        <ele>184.5</ele>
        <time>2020-08-07T12:30:56Z</time>
      </trkpt>
      <trkpt lat="41.0009030" lon="0.4261260">
        <ele>184.6</ele>
        <time>2020-08-07T12:30:57Z</time>
      </trkpt>
      <trkpt lat="41.0009040" lon="0.4261240">
        <ele>184.6</ele>
        <time>2020-08-07T12:30:58Z</time>
      </trkpt>
      <trkpt lat="41.0009060" lon="0.4261220">
        <ele>184.6</ele>
        <time>2020-08-07T12:31:00Z</time>
      </trkpt>
      <trkpt lat="41.0009060" lon="0.4261210">
        <ele>184.6</ele>
        <time>2020-08-07T12:31:02Z</time>
      </trkpt>
      <trkpt lat="41.0009060" lon="0.4261200">
        <ele>184.6</ele>
        <time>2020-08-07T12:31:03Z</time>
      </trkpt>
      <trkpt lat="41.0009050" lon="0.4261210">
        <ele>184.6</ele>
        <time>2020-08-07T12:31:05Z</time>
      </trkpt>
      <trkpt lat="41.0009030" lon="0.4261210">
        <ele>184.6</ele>
        <time>2020-08-07T12:31:06Z</time>
      </trkpt>
      <trkpt lat="41.0009030" lon="0.4261220">
        <ele>184.6</ele>
        <time>2020-08-07T12:31:07Z</time>
      </trkpt>
      <trkpt lat="41.0009020" lon="0.4261220">
        <ele>184.6</ele>
        <time>2020-08-07T12:31:08Z</time>
      </trkpt>
      <trkpt lat="41.0008760" lon="0.4261080">
        <ele>184.9</ele>
        <time>2020-08-07T12:33:42Z</time>
      </trkpt>
      <trkpt lat="41.0008700" lon="0.4261080">
        <ele>184.9</ele>
        <time>2020-08-07T12:33:44Z</time>
      </trkpt>
      <trkpt lat="41.0008670" lon="0.4261110">
        <ele>184.9</ele>
        <time>2020-08-07T12:33:45Z</time>
      </trkpt>
      <trkpt lat="41.0008610" lon="0.4261130">
        <ele>185.0</ele>
        <time>2020-08-07T12:33:46Z</time>
      </trkpt>
      <trkpt lat="41.0008520" lon="0.4261180">
        <ele>185.0</ele>
        <time>2020-08-07T12:33:48Z</time>
      </trkpt>
      <trkpt lat="41.0008460" lon="0.4261190">
        <ele>185.1</ele>
        <time>2020-08-07T12:33:49Z</time>
      </trkpt>
      <trkpt lat="41.0008400" lon="0.4261210">
        <ele>185.1</ele>
        <time>2020-08-07T12:33:50Z</time>
      </trkpt>
      <trkpt lat="41.0008310" lon="0.4261290">
        <ele>185.2</ele>
        <time>2020-08-07T12:33:52Z</time>
      </trkpt>
      <trkpt lat="41.0008240" lon="0.4261420">
        <ele>185.3</ele>
        <time>2020-08-07T12:33:53Z</time>
      </trkpt>
      <trkpt lat="41.0008140" lon="0.4261660">
        <ele>185.4</ele>
        <time>2020-08-07T12:33:54Z</time>
      </trkpt>
      <trkpt lat="41.0008090" lon="0.4261780">
        <ele>185.5</ele>
        <time>2020-08-07T12:33:55Z</time>
      </trkpt>
      <trkpt lat="41.0008040" lon="0.4261890">
        <ele>186.8</ele>
        <time>2020-08-07T12:33:56Z</time>
      </trkpt>
      <trkpt lat="41.0007920" lon="0.4262270">
        <ele>186.9</ele>
        <time>2020-08-07T12:33:58Z</time>
      </trkpt>
      <trkpt lat="41.0007940" lon="0.4262560">
        <ele>187.0</ele>
        <time>2020-08-07T12:33:59Z</time>
      </trkpt>
      <trkpt lat="41.0007920" lon="0.4262960">
        <ele>187.2</ele>
        <time>2020-08-07T12:34:01Z</time>
      </trkpt>
      <trkpt lat="41.0007880" lon="0.4263380">
        <ele>187.3</ele>
        <time>2020-08-07T12:34:02Z</time>
      </trkpt>
      <trkpt lat="41.0007880" lon="0.4263500">
        <ele>187.4</ele>
        <time>2020-08-07T12:34:03Z</time>
      </trkpt>
      <trkpt lat="41.0007890" lon="0.4263740">
        <ele>187.4</ele>
        <time>2020-08-07T12:34:04Z</time>
      </trkpt>
      <trkpt lat="41.0007890" lon="0.4264070">
        <ele>187.5</ele>
        <time>2020-08-07T12:34:06Z</time>
      </trkpt>
      <trkpt lat="41.0007860" lon="0.4264230">
        <ele>187.5</ele>
        <time>2020-08-07T12:34:07Z</time>
      </trkpt>
      <trkpt lat="41.0007820" lon="0.4264410">
        <ele>187.6</ele>
        <time>2020-08-07T12:34:08Z</time>
      </trkpt>
      <trkpt lat="41.0007850" lon="0.4264730">
        <ele>187.6</ele>
        <time>2020-08-07T12:34:10Z</time>
      </trkpt>
      <trkpt lat="41.0007760" lon="0.4264960">
        <ele>187.7</ele>
        <time>2020-08-07T12:34:11Z</time>
      </trkpt>
      <trkpt lat="41.0007720" lon="0.4265130">
        <ele>187.7</ele>
        <time>2020-08-07T12:34:12Z</time>
      </trkpt>
      <trkpt lat="41.0007600" lon="0.4265560">
        <ele>187.7</ele>
        <time>2020-08-07T12:34:14Z</time>
      </trkpt>
      <trkpt lat="41.0007540" lon="0.4265660">
        <ele>187.7</ele>
        <time>2020-08-07T12:34:15Z</time>
      </trkpt>
      <trkpt lat="41.0007390" lon="0.4265880">
        <ele>187.7</ele>
        <time>2020-08-07T12:34:17Z</time>
      </trkpt>
      <trkpt lat="41.0007330" lon="0.4266150">
        <ele>187.7</ele>
        <time>2020-08-07T12:34:19Z</time>
      </trkpt>
      <trkpt lat="41.0007130" lon="0.4266510">
        <ele>187.7</ele>
        <time>2020-08-07T12:34:20Z</time>
      </trkpt>
      <trkpt lat="41.0007060" lon="0.4266620">
        <ele>187.7</ele>
        <time>2020-08-07T12:34:21Z</time>
      </trkpt>
      <trkpt lat="41.0006990" lon="0.4266820">
        <ele>187.7</ele>
        <time>2020-08-07T12:34:22Z</time>
      </trkpt>
      <trkpt lat="41.0006910" lon="0.4266970">
        <ele>187.7</ele>
        <time>2020-08-07T12:34:23Z</time>
      </trkpt>
      <trkpt lat="41.0006830" lon="0.4267150">
        <ele>187.7</ele>
        <time>2020-08-07T12:34:25Z</time>
      </trkpt>
      <trkpt lat="41.0006710" lon="0.4267360">
        <ele>187.6</ele>
        <time>2020-08-07T12:34:26Z</time>
      </trkpt>
      <trkpt lat="41.0006470" lon="0.4267710">
        <ele>187.6</ele>
        <time>2020-08-07T12:34:28Z</time>
      </trkpt>
      <trkpt lat="41.0006400" lon="0.4267810">
        <ele>187.6</ele>
        <time>2020-08-07T12:34:29Z</time>
      </trkpt>
      <trkpt lat="41.0006260" lon="0.4268040">
        <ele>187.5</ele>
        <time>2020-08-07T12:34:30Z</time>
      </trkpt>
      <trkpt lat="41.0006070" lon="0.4268290">
        <ele>187.5</ele>
        <time>2020-08-07T12:34:32Z</time>
      </trkpt>
      <trkpt lat="41.0005860" lon="0.4268580">
        <ele>187.4</ele>
        <time>2020-08-07T12:34:33Z</time>
      </trkpt>
      <trkpt lat="41.0005780" lon="0.4268670">
        <ele>187.4</ele>
        <time>2020-08-07T12:34:34Z</time>
      </trkpt>
      <trkpt lat="41.0005530" lon="0.4269000">
        <ele>187.4</ele>
        <time>2020-08-07T12:34:35Z</time>
      </trkpt>
      <trkpt lat="41.0005450" lon="0.4269110">
        <ele>187.3</ele>
        <time>2020-08-07T12:34:36Z</time>
      </trkpt>
      <trkpt lat="41.0005130" lon="0.4269510">
        <ele>187.3</ele>
        <time>2020-08-07T12:34:37Z</time>
      </trkpt>
      <trkpt lat="41.0004680" lon="0.4270040">
        <ele>187.2</ele>
        <time>2020-08-07T12:34:38Z</time>
      </trkpt>
      <trkpt lat="41.0004370" lon="0.4270390">
        <ele>187.1</ele>
        <time>2020-08-07T12:34:40Z</time>
      </trkpt>
      <trkpt lat="41.0004110" lon="0.4270730">
        <ele>187.1</ele>
        <time>2020-08-07T12:34:41Z</time>
      </trkpt>
      <trkpt lat="41.0003850" lon="0.4271070">
        <ele>187.0</ele>
        <time>2020-08-07T12:34:42Z</time>
      </trkpt>
      <trkpt lat="41.0003460" lon="0.4271540">
        <ele>186.9</ele>
        <time>2020-08-07T12:34:44Z</time>
      </trkpt>
      <trkpt lat="41.0003170" lon="0.4271830">
        <ele>186.9</ele>
        <time>2020-08-07T12:34:45Z</time>
      </trkpt>
      <trkpt lat="41.0002770" lon="0.4272290">
        <ele>186.8</ele>
        <time>2020-08-07T12:34:47Z</time>
      </trkpt>
      <trkpt lat="41.0002510" lon="0.4272480">
        <ele>186.7</ele>
        <time>2020-08-07T12:34:48Z</time>
      </trkpt>
      <trkpt lat="41.0002250" lon="0.4272740">
        <ele>186.7</ele>
        <time>2020-08-07T12:34:49Z</time>
      </trkpt>
      <trkpt lat="41.0001750" lon="0.4273130">
        <ele>186.5</ele>
        <time>2020-08-07T12:34:51Z</time>
      </trkpt>
      <trkpt lat="41.0000910" lon="0.4273870">
        <ele>186.4</ele>
        <time>2020-08-07T12:34:55Z</time>
      </trkpt>
      <trkpt lat="41.0000510" lon="0.4274350">
        <ele>186.3</ele>
        <time>2020-08-07T12:34:57Z</time>
      </trkpt>
      <trkpt lat="41.0000110" lon="0.4274760">
        <ele>186.2</ele>
        <time>2020-08-07T12:34:58Z</time>
      </trkpt>
      <trkpt lat="40.9999780" lon="0.4275090">
        <ele>186.1</ele>
        <time>2020-08-07T12:34:59Z</time>
      </trkpt>
      <trkpt lat="40.9999230" lon="0.4275640">
        <ele>186.0</ele>
        <time>2020-08-07T12:35:00Z</time>
      </trkpt>
      <trkpt lat="40.9998690" lon="0.4276190">
        <ele>185.9</ele>
        <time>2020-08-07T12:35:02Z</time>
      </trkpt>
      <trkpt lat="40.9998310" lon="0.4276500">
        <ele>185.8</ele>
        <time>2020-08-07T12:35:03Z</time>
      </trkpt>
      <trkpt lat="40.9997960" lon="0.4276740">
        <ele>185.7</ele>
        <time>2020-08-07T12:35:04Z</time>
      </trkpt>
      <trkpt lat="40.9997570" lon="0.4276970">
        <ele>185.7</ele>
        <time>2020-08-07T12:35:05Z</time>
      </trkpt>
      <trkpt lat="40.9997190" lon="0.4277140">
        <ele>185.6</ele>
        <time>2020-08-07T12:35:06Z</time>
      </trkpt>
      <trkpt lat="40.9996660" lon="0.4277490">
        <ele>185.4</ele>
        <time>2020-08-07T12:35:07Z</time>
      </trkpt>
      <trkpt lat="40.9996180" lon="0.4277920">
        <ele>185.3</ele>
        <time>2020-08-07T12:35:09Z</time>
      </trkpt>
      <trkpt lat="40.9995330" lon="0.4278930">
        <ele>185.1</ele>
        <time>2020-08-07T12:35:10Z</time>
      </trkpt>
      <trkpt lat="40.9994950" lon="0.4279300">
        <ele>185.0</ele>
        <time>2020-08-07T12:35:11Z</time>
      </trkpt>
      <trkpt lat="40.9994500" lon="0.4279690">
        <ele>184.8</ele>
        <time>2020-08-07T12:35:12Z</time>
      </trkpt>
      <trkpt lat="40.9994130" lon="0.4280040">
        <ele>184.7</ele>
        <time>2020-08-07T12:35:13Z</time>
      </trkpt>
      <trkpt lat="40.9994110" lon="0.4280340">
        <ele>184.7</ele>
        <time>2020-08-07T12:35:14Z</time>
      </trkpt>
      <trkpt lat="40.9993910" lon="0.4280650">
        <ele>184.7</ele>
        <time>2020-08-07T12:35:16Z</time>
      </trkpt>
      <trkpt lat="40.9993660" lon="0.4280930">
        <ele>184.7</ele>
        <time>2020-08-07T12:35:17Z</time>
      </trkpt>
      <trkpt lat="40.9993340" lon="0.4281250">
        <ele>184.7</ele>
        <time>2020-08-07T12:35:18Z</time>
      </trkpt>
      <trkpt lat="40.9993230" lon="0.4281360">
        <ele>184.7</ele>
        <time>2020-08-07T12:35:19Z</time>
      </trkpt>
      <trkpt lat="40.9993020" lon="0.4281610">
        <ele>184.6</ele>
        <time>2020-08-07T12:35:20Z</time>
      </trkpt>
      <trkpt lat="40.9992950" lon="0.4281690">
        <ele>184.6</ele>
        <time>2020-08-07T12:35:21Z</time>
      </trkpt>
      <trkpt lat="40.9992650" lon="0.4281990">
        <ele>184.6</ele>
        <time>2020-08-07T12:35:23Z</time>
      </trkpt>
      <trkpt lat="40.9992560" lon="0.4282080">
        <ele>184.6</ele>
        <time>2020-08-07T12:35:24Z</time>
      </trkpt>
      <trkpt lat="40.9992450" lon="0.4282190">
        <ele>184.6</ele>
        <time>2020-08-07T12:35:25Z</time>
      </trkpt>
      <trkpt lat="40.9992310" lon="0.4282330">
        <ele>184.6</ele>
        <time>2020-08-07T12:35:27Z</time>
      </trkpt>
      <trkpt lat="40.9992210" lon="0.4282440">
        <ele>184.5</ele>
        <time>2020-08-07T12:35:28Z</time>
      </trkpt>
      <trkpt lat="40.9990560" lon="0.4284000">
        <ele>184.3</ele>
        <time>2020-08-07T12:35:36Z</time>
      </trkpt>
      <trkpt lat="40.9988040" lon="0.4285990">
        <ele>183.7</ele>
        <time>2020-08-07T12:35:37Z</time>
      </trkpt>
      <trkpt lat="40.9987290" lon="0.4286630">
        <ele>183.6</ele>
        <time>2020-08-07T12:35:39Z</time>
      </trkpt>
      <trkpt lat="40.9986860" lon="0.4287050">
        <ele>183.5</ele>
        <time>2020-08-07T12:35:40Z</time>
      </trkpt>
      <trkpt lat="40.9986500" lon="0.4287390">
        <ele>183.4</ele>
        <time>2020-08-07T12:35:41Z</time>
      </trkpt>
      <trkpt lat="40.9986210" lon="0.4287610">
        <ele>183.4</ele>
        <time>2020-08-07T12:35:42Z</time>
      </trkpt>
      <trkpt lat="40.9985880" lon="0.4287480">
        <ele>183.3</ele>
        <time>2020-08-07T12:35:43Z</time>
      </trkpt>
      <trkpt lat="40.9985590" lon="0.4287490">
        <ele>183.2</ele>
        <time>2020-08-07T12:35:45Z</time>
      </trkpt>
      <trkpt lat="40.9985410" lon="0.4287770">
        <ele>183.2</ele>
        <time>2020-08-07T12:35:46Z</time>
      </trkpt>
      <trkpt lat="40.9985300" lon="0.4288060">
        <ele>183.1</ele>
        <time>2020-08-07T12:35:47Z</time>
      </trkpt>
      <trkpt lat="40.9985220" lon="0.4288350">
        <ele>183.1</ele>
        <time>2020-08-07T12:35:49Z</time>
      </trkpt>
      <trkpt lat="40.9985150" lon="0.4288530">
        <ele>183.1</ele>
        <time>2020-08-07T12:35:50Z</time>
      </trkpt>
      <trkpt lat="40.9985050" lon="0.4288650">
        <ele>183.0</ele>
        <time>2020-08-07T12:35:51Z</time>
      </trkpt>
      <trkpt lat="40.9984950" lon="0.4288770">
        <ele>183.0</ele>
        <time>2020-08-07T12:35:53Z</time>
      </trkpt>
      <trkpt lat="40.9984850" lon="0.4288890">
        <ele>183.0</ele>
        <time>2020-08-07T12:35:55Z</time>
      </trkpt>
      <trkpt lat="40.9984750" lon="0.4289010">
        <ele>182.9</ele>
        <time>2020-08-07T12:35:57Z</time>
      </trkpt>
      <trkpt lat="40.9984650" lon="0.4289130">
        <ele>182.9</ele>
        <time>2020-08-07T12:36:24Z</time>
      </trkpt>
      <trkpt lat="40.9984550" lon="0.4289250">
        <ele>182.9</ele>
        <time>2020-08-07T12:36:25Z</time>
      </trkpt>
      <trkpt lat="40.9984450" lon="0.4289370">
        <ele>182.9</ele>
        <time>2020-08-07T12:36:26Z</time>
      </trkpt>
      <trkpt lat="40.9984150" lon="0.4289630">
        <ele>182.8</ele>
        <time>2020-08-07T12:36:28Z</time>
      </trkpt>
      <trkpt lat="40.9984070" lon="0.4289700">
        <ele>182.8</ele>
        <time>2020-08-07T12:36:29Z</time>
      </trkpt>
      <trkpt lat="40.9983920" lon="0.4289870">
        <ele>182.8</ele>
        <time>2020-08-07T12:36:30Z</time>
      </trkpt>
      <trkpt lat="40.9983690" lon="0.4290150">
        <ele>182.7</ele>
        <time>2020-08-07T12:36:32Z</time>
      </trkpt>
      <trkpt lat="40.9983460" lon="0.4290450">
        <ele>182.7</ele>
        <time>2020-08-07T12:36:33Z</time>
      </trkpt>
      <trkpt lat="40.9983050" lon="0.4290920">
        <ele>182.6</ele>
        <time>2020-08-07T12:36:34Z</time>
      </trkpt>
      <trkpt lat="40.9982700" lon="0.4291300">
        <ele>182.5</ele>
        <time>2020-08-07T12:36:35Z</time>
      </trkpt>
      <trkpt lat="40.9982350" lon="0.4291720">
        <ele>182.4</ele>
        <time>2020-08-07T12:36:36Z</time>
      </trkpt>
      <trkpt lat="40.9982020" lon="0.4292070">
        <ele>182.3</ele>
        <time>2020-08-07T12:36:38Z</time>
      </trkpt>
      <trkpt lat="40.9981740" lon="0.4292330">
        <ele>182.2</ele>
        <time>2020-08-07T12:36:39Z</time>
      </trkpt>
      <trkpt lat="40.9981530" lon="0.4292570">
        <ele>182.2</ele>
        <time>2020-08-07T12:36:40Z</time>
      </trkpt>
      <trkpt lat="40.9981250" lon="0.4292900">
        <ele>182.1</ele>
        <time>2020-08-07T12:36:41Z</time>
      </trkpt>
      <trkpt lat="40.9981150" lon="0.4293010">
        <ele>182.0</ele>
        <time>2020-08-07T12:36:42Z</time>
      </trkpt>
      <trkpt lat="40.9980780" lon="0.4293330">
        <ele>181.9</ele>
        <time>2020-08-07T12:36:44Z</time>
      </trkpt>
      <trkpt lat="40.9980620" lon="0.4293630">
        <ele>181.9</ele>
        <time>2020-08-07T12:36:45Z</time>
      </trkpt>
      <trkpt lat="40.9980570" lon="0.4293750">
        <ele>181.8</ele>
        <time>2020-08-07T12:36:46Z</time>
      </trkpt>
      <trkpt lat="40.9980330" lon="0.4294020">
        <ele>181.8</ele>
        <time>2020-08-07T12:36:48Z</time>
      </trkpt>
      <trkpt lat="40.9980250" lon="0.4294000">
        <ele>181.8</ele>
        <time>2020-08-07T12:36:49Z</time>
      </trkpt>
      <trkpt lat="40.9980020" lon="0.4294270">
        <ele>181.7</ele>
        <time>2020-08-07T12:36:51Z</time>
      </trkpt>
      <trkpt lat="40.9979690" lon="0.4294520">
        <ele>181.6</ele>
        <time>2020-08-07T12:36:52Z</time>
      </trkpt>
      <trkpt lat="40.9979580" lon="0.4294600">
        <ele>181.6</ele>
        <time>2020-08-07T12:36:53Z</time>
      </trkpt>
      <trkpt lat="40.9979130" lon="0.4295000">
        <ele>181.5</ele>
        <time>2020-08-07T12:36:55Z</time>
      </trkpt>
      <trkpt lat="40.9978870" lon="0.4295350">
        <ele>181.5</ele>
        <time>2020-08-07T12:36:56Z</time>
      </trkpt>
      <trkpt lat="40.9978670" lon="0.4295670">
        <ele>181.4</ele>
        <time>2020-08-07T12:36:58Z</time>
      </trkpt>
      <trkpt lat="40.9978420" lon="0.4295980">
        <ele>181.4</ele>
        <time>2020-08-07T12:36:59Z</time>
      </trkpt>
      <trkpt lat="40.9978160" lon="0.4296270">
        <ele>181.3</ele>
        <time>2020-08-07T12:37:00Z</time>
      </trkpt>
      <trkpt lat="40.9977330" lon="0.4297260">
        <ele>181.0</ele>
        <time>2020-08-07T12:37:02Z</time>
      </trkpt>
      <trkpt lat="40.9976740" lon="0.4297960">
        <ele>180.8</ele>
        <time>2020-08-07T12:37:03Z</time>
      </trkpt>
      <trkpt lat="40.9976410" lon="0.4298310">
        <ele>180.8</ele>
        <time>2020-08-07T12:37:04Z</time>
      </trkpt>
      <trkpt lat="40.9976070" lon="0.4298690">
        <ele>180.7</ele>
        <time>2020-08-07T12:37:05Z</time>
      </trkpt>
      <trkpt lat="40.9975750" lon="0.4299030">
        <ele>180.6</ele>
        <time>2020-08-07T12:37:06Z</time>
      </trkpt>
      <trkpt lat="40.9975410" lon="0.4299440">
        <ele>180.6</ele>
        <time>2020-08-07T12:37:08Z</time>
      </trkpt>
      <trkpt lat="40.9975120" lon="0.4299810">
        <ele>180.5</ele>
        <time>2020-08-07T12:37:09Z</time>
      </trkpt>
      <trkpt lat="40.9974750" lon="0.4300300">
        <ele>180.4</ele>
        <time>2020-08-07T12:37:11Z</time>
      </trkpt>
      <trkpt lat="40.9974500" lon="0.4300610">
        <ele>180.3</ele>
        <time>2020-08-07T12:37:12Z</time>
      </trkpt>
      <trkpt lat="40.9974100" lon="0.4301090">
        <ele>180.2</ele>
        <time>2020-08-07T12:37:14Z</time>
      </trkpt>
      <trkpt lat="40.9973830" lon="0.4301380">
        <ele>180.2</ele>
        <time>2020-08-07T12:37:15Z</time>
      </trkpt>
      <trkpt lat="40.9973520" lon="0.4301790">
        <ele>180.1</ele>
        <time>2020-08-07T12:37:16Z</time>
      </trkpt>
      <trkpt lat="40.9973410" lon="0.4301960">
        <ele>180.0</ele>
        <time>2020-08-07T12:37:17Z</time>
      </trkpt>
      <trkpt lat="40.9973170" lon="0.4302390">
        <ele>180.0</ele>
        <time>2020-08-07T12:37:19Z</time>
      </trkpt>
      <trkpt lat="40.9972890" lon="0.4302760">
        <ele>179.9</ele>
        <time>2020-08-07T12:37:20Z</time>
      </trkpt>
      <trkpt lat="40.9972680" lon="0.4303070">
        <ele>179.8</ele>
        <time>2020-08-07T12:37:21Z</time>
      </trkpt>
      <trkpt lat="40.9972360" lon="0.4303500">
        <ele>179.7</ele>
        <time>2020-08-07T12:37:22Z</time>
      </trkpt>
      <trkpt lat="40.9972090" lon="0.4303950">
        <ele>179.6</ele>
        <time>2020-08-07T12:37:24Z</time>
      </trkpt>
      <trkpt lat="40.9971880" lon="0.4304340">
        <ele>179.5</ele>
        <time>2020-08-07T12:37:25Z</time>
      </trkpt>
      <trkpt lat="40.9971600" lon="0.4304910">
        <ele>179.3</ele>
        <time>2020-08-07T12:37:26Z</time>
      </trkpt>
      <trkpt lat="40.9971360" lon="0.4305450">
        <ele>179.2</ele>
        <time>2020-08-07T12:37:28Z</time>
      </trkpt>
      <trkpt lat="40.9971190" lon="0.4305840">
        <ele>179.1</ele>
        <time>2020-08-07T12:37:29Z</time>
      </trkpt>
      <trkpt lat="40.9970990" lon="0.4306250">
        <ele>179.0</ele>
        <time>2020-08-07T12:37:30Z</time>
      </trkpt>
      <trkpt lat="40.9970790" lon="0.4306660">
        <ele>178.9</ele>
        <time>2020-08-07T12:37:31Z</time>
      </trkpt>
      <trkpt lat="40.9970560" lon="0.4307070">
        <ele>178.8</ele>
        <time>2020-08-07T12:37:32Z</time>
      </trkpt>
      <trkpt lat="40.9970350" lon="0.4307460">
        <ele>178.8</ele>
        <time>2020-08-07T12:37:33Z</time>
      </trkpt>
      <trkpt lat="40.9970160" lon="0.4307820">
        <ele>178.7</ele>
        <time>2020-08-07T12:37:34Z</time>
      </trkpt>
      <trkpt lat="40.9969930" lon="0.4308480">
        <ele>178.6</ele>
        <time>2020-08-07T12:37:36Z</time>
      </trkpt>
      <trkpt lat="40.9969830" lon="0.4308880">
        <ele>178.5</ele>
        <time>2020-08-07T12:37:37Z</time>
      </trkpt>
      <trkpt lat="40.9969730" lon="0.4309230">
        <ele>178.5</ele>
        <time>2020-08-07T12:37:38Z</time>
      </trkpt>
      <trkpt lat="40.9969630" lon="0.4309600">
        <ele>178.4</ele>
        <time>2020-08-07T12:37:39Z</time>
      </trkpt>
      <trkpt lat="40.9969540" lon="0.4309860">
        <ele>178.4</ele>
        <time>2020-08-07T12:37:40Z</time>
      </trkpt>
      <trkpt lat="40.9969430" lon="0.4310200">
        <ele>178.4</ele>
        <time>2020-08-07T12:37:42Z</time>
      </trkpt>
      <trkpt lat="40.9969310" lon="0.4310530">
        <ele>178.3</ele>
        <time>2020-08-07T12:37:43Z</time>
      </trkpt>
      <trkpt lat="40.9969120" lon="0.4310980">
        <ele>178.2</ele>
        <time>2020-08-07T12:37:44Z</time>
      </trkpt>
      <trkpt lat="40.9969050" lon="0.4311140">
        <ele>178.2</ele>
        <time>2020-08-07T12:37:45Z</time>
      </trkpt>
      <trkpt lat="40.9968730" lon="0.4311800">
        <ele>178.0</ele>
        <time>2020-08-07T12:37:47Z</time>
      </trkpt>
      <trkpt lat="40.9968460" lon="0.4312310">
        <ele>177.9</ele>
        <time>2020-08-07T12:37:48Z</time>
      </trkpt>
      <trkpt lat="40.9968120" lon="0.4312880">
        <ele>177.7</ele>
        <time>2020-08-07T12:37:49Z</time>
      </trkpt>
      <trkpt lat="40.9967750" lon="0.4313500">
        <ele>177.5</ele>
        <time>2020-08-07T12:37:51Z</time>
      </trkpt>
      <trkpt lat="40.9967560" lon="0.4313860">
        <ele>177.3</ele>
        <time>2020-08-07T12:37:52Z</time>
      </trkpt>
      <trkpt lat="40.9967310" lon="0.4314320">
        <ele>177.1</ele>
        <time>2020-08-07T12:37:54Z</time>
      </trkpt>
      <trkpt lat="40.9967230" lon="0.4314480">
        <ele>177.1</ele>
        <time>2020-08-07T12:37:55Z</time>
      </trkpt>
      <trkpt lat="40.9967150" lon="0.4314640">
        <ele>177.0</ele>
        <time>2020-08-07T12:37:56Z</time>
      </trkpt>
      <trkpt lat="40.9966940" lon="0.4315000">
        <ele>176.9</ele>
        <time>2020-08-07T12:37:57Z</time>
      </trkpt>
      <trkpt lat="40.9966860" lon="0.4315140">
        <ele>176.9</ele>
        <time>2020-08-07T12:37:59Z</time>
      </trkpt>
      <trkpt lat="40.9966790" lon="0.4315270">
        <ele>176.9</ele>
        <time>2020-08-07T12:38:00Z</time>
      </trkpt>
      <trkpt lat="40.9966710" lon="0.4315400">
        <ele>176.9</ele>
        <time>2020-08-07T12:38:01Z</time>
      </trkpt>
      <trkpt lat="40.9966640" lon="0.4315520">
        <ele>176.9</ele>
        <time>2020-08-07T12:38:02Z</time>
      </trkpt>
      <trkpt lat="40.9966560" lon="0.4315670">
        <ele>176.9</ele>
        <time>2020-08-07T12:38:03Z</time>
      </trkpt>
      <trkpt lat="40.9966430" lon="0.4315930">
        <ele>176.8</ele>
        <time>2020-08-07T12:38:05Z</time>
      </trkpt>
      <trkpt lat="40.9963380" lon="0.4321760">
        <ele>175.4</ele>
        <time>2020-08-07T12:38:36Z</time>
      </trkpt>
      <trkpt lat="40.9959030" lon="0.4328780">
        <ele>174.3</ele>
        <time>2020-08-07T12:38:37Z</time>
      </trkpt>
      <trkpt lat="40.9957180" lon="0.4331870">
        <ele>173.4</ele>
        <time>2020-08-07T12:38:38Z</time>
      </trkpt>
      <trkpt lat="40.9956100" lon="0.4333580">
        <ele>173.3</ele>
        <time>2020-08-07T12:38:39Z</time>
      </trkpt>
      <trkpt lat="40.9955880" lon="0.4333910">
        <ele>173.2</ele>
        <time>2020-08-07T12:38:40Z</time>
      </trkpt>
      <trkpt lat="40.9955590" lon="0.4334310">
        <ele>173.2</ele>
        <time>2020-08-07T12:38:41Z</time>
      </trkpt>
      <trkpt lat="40.9955370" lon="0.4335050">
        <ele>173.1</ele>
        <time>2020-08-07T12:38:43Z</time>
      </trkpt>
      <trkpt lat="40.9955400" lon="0.4335410">
        <ele>173.0</ele>
        <time>2020-08-07T12:38:44Z</time>
      </trkpt>
      <trkpt lat="40.9955210" lon="0.4335880">
        <ele>173.0</ele>
        <time>2020-08-07T12:38:46Z</time>
      </trkpt>
      <trkpt lat="40.9955100" lon="0.4336010">
        <ele>172.9</ele>
        <time>2020-08-07T12:38:47Z</time>
      </trkpt>
      <trkpt lat="40.9954720" lon="0.4336320">
        <ele>172.9</ele>
        <time>2020-08-07T12:38:49Z</time>
      </trkpt>
      <trkpt lat="40.9954430" lon="0.4336610">
        <ele>172.8</ele>
        <time>2020-08-07T12:38:50Z</time>
      </trkpt>
      <trkpt lat="40.9954060" lon="0.4336970">
        <ele>172.7</ele>
        <time>2020-08-07T12:38:51Z</time>
      </trkpt>
      <trkpt lat="40.9953610" lon="0.4337610">
        <ele>172.5</ele>
        <time>2020-08-07T12:38:53Z</time>
      </trkpt>
      <trkpt lat="40.9953100" lon="0.4338390">
        <ele>172.3</ele>
        <time>2020-08-07T12:38:54Z</time>
      </trkpt>
      <trkpt lat="40.9952550" lon="0.4339260">
        <ele>172.1</ele>
        <time>2020-08-07T12:38:56Z</time>
      </trkpt>
      <trkpt lat="40.9952180" lon="0.4339890">
        <ele>172.0</ele>
        <time>2020-08-07T12:38:57Z</time>
      </trkpt>
      <trkpt lat="40.9951950" lon="0.4340370">
        <ele>171.9</ele>
        <time>2020-08-07T12:38:58Z</time>
      </trkpt>
      <trkpt lat="40.9951510" lon="0.4341430">
        <ele>171.6</ele>
        <time>2020-08-07T12:39:00Z</time>
      </trkpt>
      <trkpt lat="40.9951210" lon="0.4342360">
        <ele>171.5</ele>
        <time>2020-08-07T12:39:02Z</time>
      </trkpt>
      <trkpt lat="40.9951090" lon="0.4342780">
        <ele>171.4</ele>
        <time>2020-08-07T12:39:03Z</time>
      </trkpt>
      <trkpt lat="40.9950810" lon="0.4343770">
        <ele>171.1</ele>
        <time>2020-08-07T12:39:05Z</time>
      </trkpt>
      <trkpt lat="40.9950650" lon="0.4344240">
        <ele>171.0</ele>
        <time>2020-08-07T12:39:06Z</time>
      </trkpt>
      <trkpt lat="40.9950480" lon="0.4344710">
        <ele>170.9</ele>
        <time>2020-08-07T12:39:07Z</time>
      </trkpt>
      <trkpt lat="40.9950280" lon="0.4345180">
        <ele>170.8</ele>
        <time>2020-08-07T12:39:08Z</time>
      </trkpt>
      <trkpt lat="40.9950090" lon="0.4345600">
        <ele>170.7</ele>
        <time>2020-08-07T12:39:09Z</time>
      </trkpt>
      <trkpt lat="40.9949670" lon="0.4346480">
        <ele>170.4</ele>
        <time>2020-08-07T12:39:11Z</time>
      </trkpt>
      <trkpt lat="40.9949230" lon="0.4347380">
        <ele>170.2</ele>
        <time>2020-08-07T12:39:13Z</time>
      </trkpt>
      <trkpt lat="40.9948980" lon="0.4347840">
        <ele>170.1</ele>
        <time>2020-08-07T12:39:14Z</time>
      </trkpt>
      <trkpt lat="40.9948530" lon="0.4348700">
        <ele>170.0</ele>
        <time>2020-08-07T12:39:16Z</time>
      </trkpt>
      <trkpt lat="40.9948320" lon="0.4349080">
        <ele>169.9</ele>
        <time>2020-08-07T12:39:17Z</time>
      </trkpt>
      <trkpt lat="40.9947920" lon="0.4349910">
        <ele>169.8</ele>
        <time>2020-08-07T12:39:19Z</time>
      </trkpt>
      <trkpt lat="40.9947540" lon="0.4350800">
        <ele>169.7</ele>
        <time>2020-08-07T12:39:21Z</time>
      </trkpt>
      <trkpt lat="40.9947150" lon="0.4351710">
        <ele>169.7</ele>
        <time>2020-08-07T12:39:23Z</time>
      </trkpt>
      <trkpt lat="40.9946950" lon="0.4352180">
        <ele>169.7</ele>
        <time>2020-08-07T12:39:24Z</time>
      </trkpt>
      <trkpt lat="40.9946760" lon="0.4352600">
        <ele>169.7</ele>
        <time>2020-08-07T12:39:25Z</time>
      </trkpt>
      <trkpt lat="40.9946550" lon="0.4353050">
        <ele>169.8</ele>
        <time>2020-08-07T12:39:26Z</time>
      </trkpt>
      <trkpt lat="40.9946160" lon="0.4353880">
        <ele>169.8</ele>
        <time>2020-08-07T12:39:28Z</time>
      </trkpt>
      <trkpt lat="40.9946010" lon="0.4354240">
        <ele>169.8</ele>
        <time>2020-08-07T12:39:29Z</time>
      </trkpt>
      <trkpt lat="40.9945790" lon="0.4354840">
        <ele>169.8</ele>
        <time>2020-08-07T12:39:31Z</time>
      </trkpt>
      <trkpt lat="40.9945730" lon="0.4355250">
        <ele>169.9</ele>
        <time>2020-08-07T12:39:32Z</time>
      </trkpt>
      <trkpt lat="40.9945860" lon="0.4355920">
        <ele>169.9</ele>
        <time>2020-08-07T12:39:34Z</time>
      </trkpt>
      <trkpt lat="40.9946090" lon="0.4356280">
        <ele>169.9</ele>
        <time>2020-08-07T12:39:35Z</time>
      </trkpt>
      <trkpt lat="40.9946300" lon="0.4356500">
        <ele>170.0</ele>
        <time>2020-08-07T12:39:36Z</time>
      </trkpt>
      <trkpt lat="40.9946760" lon="0.4356940">
        <ele>170.0</ele>
        <time>2020-08-07T12:39:38Z</time>
      </trkpt>
      <trkpt lat="40.9947030" lon="0.4357230">
        <ele>170.0</ele>
        <time>2020-08-07T12:39:39Z</time>
      </trkpt>
      <trkpt lat="40.9947270" lon="0.4357550">
        <ele>170.0</ele>
        <time>2020-08-07T12:39:40Z</time>
      </trkpt>
      <trkpt lat="40.9947450" lon="0.4357940">
        <ele>169.9</ele>
        <time>2020-08-07T12:39:41Z</time>
      </trkpt>
      <trkpt lat="40.9947560" lon="0.4358270">
        <ele>169.9</ele>
        <time>2020-08-07T12:39:42Z</time>
      </trkpt>
      <trkpt lat="40.9947570" lon="0.4358970">
        <ele>169.8</ele>
        <time>2020-08-07T12:39:44Z</time>
      </trkpt>
      <trkpt lat="40.9947500" lon="0.4359670">
        <ele>169.6</ele>
        <time>2020-08-07T12:39:45Z</time>
      </trkpt>
      <trkpt lat="40.9947390" lon="0.4360530">
        <ele>169.3</ele>
        <time>2020-08-07T12:39:46Z</time>
      </trkpt>
      <trkpt lat="40.9947460" lon="0.4362040">
        <ele>168.5</ele>
        <time>2020-08-07T12:39:48Z</time>
      </trkpt>
      <trkpt lat="40.9947730" lon="0.4362780">
        <ele>167.9</ele>
        <time>2020-08-07T12:39:49Z</time>
      </trkpt>
      <trkpt lat="40.9948060" lon="0.4363400">
        <ele>167.4</ele>
        <time>2020-08-07T12:39:50Z</time>
      </trkpt>
      <trkpt lat="40.9948570" lon="0.4364730">
        <ele>166.6</ele>
        <time>2020-08-07T12:39:52Z</time>
      </trkpt>
      <trkpt lat="40.9948670" lon="0.4365500">
        <ele>166.3</ele>
        <time>2020-08-07T12:39:53Z</time>
      </trkpt>
      <trkpt lat="40.9948680" lon="0.4366290">
        <ele>166.2</ele>
        <time>2020-08-07T12:39:54Z</time>
      </trkpt>
      <trkpt lat="40.9948370" lon="0.4367610">
        <ele>166.4</ele>
        <time>2020-08-07T12:39:56Z</time>
      </trkpt>
      <trkpt lat="40.9948120" lon="0.4368260">
        <ele>166.5</ele>
        <time>2020-08-07T12:39:58Z</time>
      </trkpt>
      <trkpt lat="40.9947810" lon="0.4368410">
        <ele>166.6</ele>
        <time>2020-08-07T12:40:00Z</time>
      </trkpt>
      <trkpt lat="40.9947580" lon="0.4368650">
        <ele>166.6</ele>
        <time>2020-08-07T12:40:02Z</time>
      </trkpt>
      <trkpt lat="40.9947430" lon="0.4368840">
        <ele>166.7</ele>
        <time>2020-08-07T12:40:03Z</time>
      </trkpt>
      <trkpt lat="40.9947080" lon="0.4369030">
        <ele>166.7</ele>
        <time>2020-08-07T12:40:05Z</time>
      </trkpt>
      <trkpt lat="40.9946850" lon="0.4369100">
        <ele>166.7</ele>
        <time>2020-08-07T12:40:06Z</time>
      </trkpt>
      <trkpt lat="40.9946400" lon="0.4369140">
        <ele>166.7</ele>
        <time>2020-08-07T12:40:08Z</time>
      </trkpt>
      <trkpt lat="40.9945960" lon="0.4369170">
        <ele>166.6</ele>
        <time>2020-08-07T12:40:09Z</time>
      </trkpt>
      <trkpt lat="40.9945440" lon="0.4369270">
        <ele>166.4</ele>
        <time>2020-08-07T12:40:10Z</time>
      </trkpt>
      <trkpt lat="40.9944970" lon="0.4369430">
        <ele>166.3</ele>
        <time>2020-08-07T12:40:12Z</time>
      </trkpt>
      <trkpt lat="40.9944540" lon="0.4369760">
        <ele>166.3</ele>
        <time>2020-08-07T12:40:13Z</time>
      </trkpt>
      <trkpt lat="40.9944110" lon="0.4370200">
        <ele>166.3</ele>
        <time>2020-08-07T12:40:14Z</time>
      </trkpt>
      <trkpt lat="40.9943760" lon="0.4370460">
        <ele>166.3</ele>
        <time>2020-08-07T12:40:15Z</time>
      </trkpt>
      <trkpt lat="40.9943350" lon="0.4370830">
        <ele>166.4</ele>
        <time>2020-08-07T12:40:17Z</time>
      </trkpt>
      <trkpt lat="40.9943110" lon="0.4371070">
        <ele>166.5</ele>
        <time>2020-08-07T12:40:18Z</time>
      </trkpt>
      <trkpt lat="40.9942760" lon="0.4371420">
        <ele>166.7</ele>
        <time>2020-08-07T12:40:19Z</time>
      </trkpt>
      <trkpt lat="40.9942630" lon="0.4371570">
        <ele>166.8</ele>
        <time>2020-08-07T12:40:20Z</time>
      </trkpt>
      <trkpt lat="40.9942470" lon="0.4371820">
        <ele>166.9</ele>
        <time>2020-08-07T12:40:21Z</time>
      </trkpt>
      <trkpt lat="40.9942140" lon="0.4372240">
        <ele>167.1</ele>
        <time>2020-08-07T12:40:23Z</time>
      </trkpt>
      <trkpt lat="40.9941900" lon="0.4372700">
        <ele>167.3</ele>
        <time>2020-08-07T12:40:25Z</time>
      </trkpt>
      <trkpt lat="40.9941720" lon="0.4372990">
        <ele>167.5</ele>
        <time>2020-08-07T12:40:26Z</time>
      </trkpt>
      <trkpt lat="40.9941480" lon="0.4373340">
        <ele>167.7</ele>
        <time>2020-08-07T12:40:27Z</time>
      </trkpt>
      <trkpt lat="40.9941410" lon="0.4373430">
        <ele>167.7</ele>
        <time>2020-08-07T12:40:28Z</time>
      </trkpt>
      <trkpt lat="40.9941260" lon="0.4373570">
        <ele>167.8</ele>
        <time>2020-08-07T12:40:29Z</time>
      </trkpt>
      <trkpt lat="40.9941110" lon="0.4373670">
        <ele>168.0</ele>
        <time>2020-08-07T12:40:30Z</time>
      </trkpt>
      <trkpt lat="40.9940860" lon="0.4373880">
        <ele>168.1</ele>
        <time>2020-08-07T12:40:31Z</time>
      </trkpt>
      <trkpt lat="40.9940750" lon="0.4373930">
        <ele>168.2</ele>
        <time>2020-08-07T12:40:32Z</time>
      </trkpt>
      <trkpt lat="40.9940410" lon="0.4374130">
        <ele>168.4</ele>
        <time>2020-08-07T12:40:34Z</time>
      </trkpt>
      <trkpt lat="40.9940110" lon="0.4374280">
        <ele>168.6</ele>
        <time>2020-08-07T12:40:35Z</time>
      </trkpt>
      <trkpt lat="40.9940000" lon="0.4374350">
        <ele>168.7</ele>
        <time>2020-08-07T12:40:36Z</time>
      </trkpt>
      <trkpt lat="40.9939790" lon="0.4374480">
        <ele>168.8</ele>
        <time>2020-08-07T12:40:37Z</time>
      </trkpt>
      <trkpt lat="40.9939520" lon="0.4374710">
        <ele>168.9</ele>
        <time>2020-08-07T12:40:39Z</time>
      </trkpt>
      <trkpt lat="40.9939310" lon="0.4374890">
        <ele>168.9</ele>
        <time>2020-08-07T12:40:40Z</time>
      </trkpt>
      <trkpt lat="40.9939050" lon="0.4375100">
        <ele>169.0</ele>
        <time>2020-08-07T12:40:42Z</time>
      </trkpt>
      <trkpt lat="40.9938740" lon="0.4375290">
        <ele>168.9</ele>
        <time>2020-08-07T12:40:43Z</time>
      </trkpt>
      <trkpt lat="40.9938450" lon="0.4375410">
        <ele>168.8</ele>
        <time>2020-08-07T12:40:44Z</time>
      </trkpt>
      <trkpt lat="40.9937780" lon="0.4375620">
        <ele>168.6</ele>
        <time>2020-08-07T12:40:46Z</time>
      </trkpt>
      <trkpt lat="40.9937380" lon="0.4375700">
        <ele>168.3</ele>
        <time>2020-08-07T12:40:47Z</time>
      </trkpt>
      <trkpt lat="40.9937020" lon="0.4375770">
        <ele>168.1</ele>
        <time>2020-08-07T12:40:48Z</time>
      </trkpt>
      <trkpt lat="40.9936700" lon="0.4375830">
        <ele>167.9</ele>
        <time>2020-08-07T12:40:49Z</time>
      </trkpt>
      <trkpt lat="40.9936390" lon="0.4375830">
        <ele>167.7</ele>
        <time>2020-08-07T12:40:51Z</time>
      </trkpt>
      <trkpt lat="40.9936320" lon="0.4375790">
        <ele>167.7</ele>
        <time>2020-08-07T12:40:52Z</time>
      </trkpt>
      <trkpt lat="40.9936370" lon="0.4375760">
        <ele>167.7</ele>
        <time>2020-08-07T12:40:53Z</time>
      </trkpt>
      <trkpt lat="40.9936440" lon="0.4375730">
        <ele>167.6</ele>
        <time>2020-08-07T12:40:55Z</time>
      </trkpt>
      <trkpt lat="40.9936470" lon="0.4375710">
        <ele>167.6</ele>
        <time>2020-08-07T12:40:56Z</time>
      </trkpt>
      <trkpt lat="40.9936490" lon="0.4375690">
        <ele>167.6</ele>
        <time>2020-08-07T12:40:57Z</time>
      </trkpt>
      <trkpt lat="40.9936510" lon="0.4375690">
        <ele>167.6</ele>
        <time>2020-08-07T12:40:59Z</time>
      </trkpt>
      <trkpt lat="40.9936470" lon="0.4375880">
        <ele>167.5</ele>
        <time>2020-08-07T12:41:00Z</time>
      </trkpt>
      <trkpt lat="40.9936320" lon="0.4376000">
        <ele>167.4</ele>
        <time>2020-08-07T12:41:02Z</time>
      </trkpt>
      <trkpt lat="40.9936220" lon="0.4376090">
        <ele>167.3</ele>
        <time>2020-08-07T12:41:03Z</time>
      </trkpt>
      <trkpt lat="40.9936030" lon="0.4376270">
        <ele>167.2</ele>
        <time>2020-08-07T12:41:05Z</time>
      </trkpt>
      <trkpt lat="40.9935720" lon="0.4376580">
        <ele>167.0</ele>
        <time>2020-08-07T12:41:06Z</time>
      </trkpt>
      <trkpt lat="40.9935620" lon="0.4376680">
        <ele>167.0</ele>
        <time>2020-08-07T12:41:07Z</time>
      </trkpt>
      <trkpt lat="40.9935340" lon="0.4377040">
        <ele>166.8</ele>
        <time>2020-08-07T12:41:08Z</time>
      </trkpt>
      <trkpt lat="40.9935220" lon="0.4377180">
        <ele>166.8</ele>
        <time>2020-08-07T12:41:09Z</time>
      </trkpt>
      <trkpt lat="40.9934960" lon="0.4377600">
        <ele>166.6</ele>
        <time>2020-08-07T12:41:10Z</time>
      </trkpt>
      <trkpt lat="40.9934580" lon="0.4378270">
        <ele>166.3</ele>
        <time>2020-08-07T12:41:12Z</time>
      </trkpt>
      <trkpt lat="40.9934340" lon="0.4378990">
        <ele>166.0</ele>
        <time>2020-08-07T12:41:13Z</time>
      </trkpt>
      <trkpt lat="40.9934250" lon="0.4381160">
        <ele>164.9</ele>
        <time>2020-08-07T12:41:15Z</time>
      </trkpt>
      <trkpt lat="40.9934190" lon="0.4382130">
        <ele>164.5</ele>
        <time>2020-08-07T12:41:16Z</time>
      </trkpt>
      <trkpt lat="40.9933930" lon="0.4383860">
        <ele>164.0</ele>
        <time>2020-08-07T12:41:18Z</time>
      </trkpt>
      <trkpt lat="40.9933800" lon="0.4384660">
        <ele>163.8</ele>
        <time>2020-08-07T12:41:19Z</time>
      </trkpt>
      <trkpt lat="40.9933580" lon="0.4386170">
        <ele>163.6</ele>
        <time>2020-08-07T12:41:21Z</time>
      </trkpt>
      <trkpt lat="40.9933540" lon="0.4387530">
        <ele>163.7</ele>
        <time>2020-08-07T12:41:23Z</time>
      </trkpt>
      <trkpt lat="40.9933530" lon="0.4388220">
        <ele>163.8</ele>
        <time>2020-08-07T12:41:24Z</time>
      </trkpt>
      <trkpt lat="40.9933520" lon="0.4389580">
        <ele>164.0</ele>
        <time>2020-08-07T12:41:26Z</time>
      </trkpt>
      <trkpt lat="40.9934800" lon="0.4412070">
        <ele>159.7</ele>
        <time>2020-08-07T12:42:04Z</time>
      </trkpt>
      <trkpt lat="40.9934560" lon="0.4412390">
        <ele>159.7</ele>
        <time>2020-08-07T12:42:05Z</time>
      </trkpt>
      <trkpt lat="40.9934300" lon="0.4413610">
        <ele>159.6</ele>
        <time>2020-08-07T12:42:07Z</time>
      </trkpt>
      <trkpt lat="40.9934200" lon="0.4414080">
        <ele>159.5</ele>
        <time>2020-08-07T12:42:08Z</time>
      </trkpt>
      <trkpt lat="40.9934200" lon="0.4414660">
        <ele>159.4</ele>
        <time>2020-08-07T12:42:09Z</time>
      </trkpt>
      <trkpt lat="40.9934290" lon="0.4415730">
        <ele>159.3</ele>
        <time>2020-08-07T12:42:11Z</time>
      </trkpt>
      <trkpt lat="40.9934590" lon="0.4415990">
        <ele>159.2</ele>
        <time>2020-08-07T12:42:12Z</time>
      </trkpt>
      <trkpt lat="40.9934610" lon="0.4416730">
        <ele>159.1</ele>
        <time>2020-08-07T12:42:13Z</time>
      </trkpt>
      <trkpt lat="40.9934440" lon="0.4417580">
        <ele>158.9</ele>
        <time>2020-08-07T12:42:15Z</time>
      </trkpt>
      <trkpt lat="40.9934240" lon="0.4418600">
        <ele>158.8</ele>
        <time>2020-08-07T12:42:17Z</time>
      </trkpt>
      <trkpt lat="40.9934210" lon="0.4419630">
        <ele>158.6</ele>
        <time>2020-08-07T12:42:19Z</time>
      </trkpt>
      <trkpt lat="40.9934030" lon="0.4421530">
        <ele>158.3</ele>
        <time>2020-08-07T12:42:21Z</time>
      </trkpt>
      <trkpt lat="40.9934010" lon="0.4422250">
        <ele>158.2</ele>
        <time>2020-08-07T12:42:22Z</time>
      </trkpt>
      <trkpt lat="40.9934050" lon="0.4422880">
        <ele>158.1</ele>
        <time>2020-08-07T12:42:23Z</time>
      </trkpt>
      <trkpt lat="40.9934130" lon="0.4423560">
        <ele>158.0</ele>
        <time>2020-08-07T12:42:25Z</time>
      </trkpt>
      <trkpt lat="40.9934140" lon="0.4424100">
        <ele>158.0</ele>
        <time>2020-08-07T12:42:26Z</time>
      </trkpt>
      <trkpt lat="40.9934140" lon="0.4424970">
        <ele>157.9</ele>
        <time>2020-08-07T12:42:27Z</time>
      </trkpt>
      <trkpt lat="40.9934240" lon="0.4427440">
        <ele>157.7</ele>
        <time>2020-08-07T12:42:31Z</time>
      </trkpt>
      <trkpt lat="40.9934180" lon="0.4427830">
        <ele>157.6</ele>
        <time>2020-08-07T12:42:32Z</time>
      </trkpt>
      <trkpt lat="40.9934210" lon="0.4428260">
        <ele>157.6</ele>
        <time>2020-08-07T12:42:33Z</time>
      </trkpt>
      <trkpt lat="40.9934380" lon="0.4428630">
        <ele>157.5</ele>
        <time>2020-08-07T12:42:34Z</time>
      </trkpt>
      <trkpt lat="40.9934330" lon="0.4429320">
        <ele>157.4</ele>
        <time>2020-08-07T12:42:35Z</time>
      </trkpt>
      <trkpt lat="40.9934250" lon="0.4430270">
        <ele>157.3</ele>
        <time>2020-08-07T12:42:37Z</time>
      </trkpt>
      <trkpt lat="40.9934340" lon="0.4431020">
        <ele>157.1</ele>
        <time>2020-08-07T12:42:39Z</time>
      </trkpt>
      <trkpt lat="40.9934330" lon="0.4431530">
        <ele>157.1</ele>
        <time>2020-08-07T12:42:40Z</time>
      </trkpt>
      <trkpt lat="40.9934210" lon="0.4432510">
        <ele>156.9</ele>
        <time>2020-08-07T12:42:42Z</time>
      </trkpt>
      <trkpt lat="40.9934180" lon="0.4433000">
        <ele>156.8</ele>
        <time>2020-08-07T12:42:43Z</time>
      </trkpt>
      <trkpt lat="40.9934140" lon="0.4433940">
        <ele>156.6</ele>
        <time>2020-08-07T12:42:45Z</time>
      </trkpt>
      <trkpt lat="40.9934220" lon="0.4434500">
        <ele>156.6</ele>
        <time>2020-08-07T12:42:46Z</time>
      </trkpt>
      <trkpt lat="40.9934300" lon="0.4434990">
        <ele>156.5</ele>
        <time>2020-08-07T12:42:47Z</time>
      </trkpt>
      <trkpt lat="40.9934370" lon="0.4435440">
        <ele>156.4</ele>
        <time>2020-08-07T12:42:48Z</time>
      </trkpt>
      <trkpt lat="40.9934310" lon="0.4436650">
        <ele>156.2</ele>
        <time>2020-08-07T12:42:50Z</time>
      </trkpt>
      <trkpt lat="40.9934340" lon="0.4437510">
        <ele>156.1</ele>
        <time>2020-08-07T12:42:51Z</time>
      </trkpt>
      <trkpt lat="40.9934380" lon="0.4438170">
        <ele>156.1</ele>
        <time>2020-08-07T12:42:53Z</time>
      </trkpt>
      <trkpt lat="40.9934400" lon="0.4438850">
        <ele>156.0</ele>
        <time>2020-08-07T12:42:54Z</time>
      </trkpt>
      <trkpt lat="40.9934490" lon="0.4439590">
        <ele>155.9</ele>
        <time>2020-08-07T12:42:55Z</time>
      </trkpt>
      <trkpt lat="40.9934520" lon="0.4440300">
        <ele>155.8</ele>
        <time>2020-08-07T12:42:57Z</time>
      </trkpt>
      <trkpt lat="40.9934510" lon="0.4440920">
        <ele>155.7</ele>
        <time>2020-08-07T12:42:58Z</time>
      </trkpt>
      <trkpt lat="40.9934500" lon="0.4441760">
        <ele>155.6</ele>
        <time>2020-08-07T12:43:00Z</time>
      </trkpt>
      <trkpt lat="40.9934510" lon="0.4442300">
        <ele>155.6</ele>
        <time>2020-08-07T12:43:01Z</time>
      </trkpt>
      <trkpt lat="40.9934530" lon="0.4442870">
        <ele>155.5</ele>
        <time>2020-08-07T12:43:02Z</time>
      </trkpt>
      <trkpt lat="40.9934520" lon="0.4443380">
        <ele>155.4</ele>
        <time>2020-08-07T12:43:03Z</time>
      </trkpt>
      <trkpt lat="40.9934520" lon="0.4443880">
        <ele>155.4</ele>
        <time>2020-08-07T12:43:04Z</time>
      </trkpt>
      <trkpt lat="40.9934540" lon="0.4444370">
        <ele>155.3</ele>
        <time>2020-08-07T12:43:05Z</time>
      </trkpt>
      <trkpt lat="40.9934540" lon="0.4444770">
        <ele>155.2</ele>
        <time>2020-08-07T12:43:06Z</time>
      </trkpt>
      <trkpt lat="40.9934540" lon="0.4445440">
        <ele>155.2</ele>
        <time>2020-08-07T12:43:08Z</time>
      </trkpt>
      <trkpt lat="40.9934500" lon="0.4445770">
        <ele>155.1</ele>
        <time>2020-08-07T12:43:09Z</time>
      </trkpt>
      <trkpt lat="40.9934600" lon="0.4446910">
        <ele>155.0</ele>
        <time>2020-08-07T12:43:13Z</time>
      </trkpt>
      <trkpt lat="40.9934770" lon="0.4447040">
        <ele>155.0</ele>
        <time>2020-08-07T12:43:14Z</time>
      </trkpt>
      <trkpt lat="40.9934970" lon="0.4447200">
        <ele>154.9</ele>
        <time>2020-08-07T12:43:16Z</time>
      </trkpt>
      <trkpt lat="40.9934950" lon="0.4448410">
        <ele>154.8</ele>
        <time>2020-08-07T12:43:17Z</time>
      </trkpt>
      <trkpt lat="40.9934850" lon="0.4449440">
        <ele>154.7</ele>
        <time>2020-08-07T12:43:19Z</time>
      </trkpt>
      <trkpt lat="40.9934900" lon="0.4450160">
        <ele>154.6</ele>
        <time>2020-08-07T12:43:20Z</time>
      </trkpt>
      <trkpt lat="40.9935010" lon="0.4451340">
        <ele>154.4</ele>
        <time>2020-08-07T12:43:22Z</time>
      </trkpt>
      <trkpt lat="40.9935060" lon="0.4451690">
        <ele>154.4</ele>
        <time>2020-08-07T12:43:23Z</time>
      </trkpt>
      <trkpt lat="40.9935110" lon="0.4451920">
        <ele>154.4</ele>
        <time>2020-08-07T12:43:25Z</time>
      </trkpt>
      <trkpt lat="40.9935110" lon="0.4451860">
        <ele>154.3</ele>
        <time>2020-08-07T12:43:26Z</time>
      </trkpt>
      <trkpt lat="40.9935110" lon="0.4451810">
        <ele>154.3</ele>
        <time>2020-08-07T12:43:27Z</time>
      </trkpt>
      <trkpt lat="40.9935120" lon="0.4451760">
        <ele>154.3</ele>
        <time>2020-08-07T12:43:28Z</time>
      </trkpt>
      <trkpt lat="40.9935120" lon="0.4451720">
        <ele>154.3</ele>
        <time>2020-08-07T12:43:30Z</time>
      </trkpt>
      <trkpt lat="40.9935120" lon="0.4451730">
        <ele>154.3</ele>
        <time>2020-08-07T12:43:32Z</time>
      </trkpt>
      <trkpt lat="40.9935120" lon="0.4451730">
        <ele>154.3</ele>
        <time>2020-08-07T12:43:33Z</time>
      </trkpt>
      <trkpt lat="40.9935000" lon="0.4452410">
        <ele>154.2</ele>
        <time>2020-08-07T12:45:27Z</time>
      </trkpt>
      <trkpt lat="40.9935010" lon="0.4452450">
        <ele>154.2</ele>
        <time>2020-08-07T12:45:28Z</time>
      </trkpt>
      <trkpt lat="40.9935030" lon="0.4452490">
        <ele>154.2</ele>
        <time>2020-08-07T12:45:30Z</time>
      </trkpt>
      <trkpt lat="40.9935040" lon="0.4452500">
        <ele>154.2</ele>
        <time>2020-08-07T12:45:32Z</time>
      </trkpt>
      <trkpt lat="40.9935060" lon="0.4452580">
        <ele>154.2</ele>
        <time>2020-08-07T12:45:33Z</time>
      </trkpt>
      <trkpt lat="40.9935130" lon="0.4452680">
        <ele>154.2</ele>
        <time>2020-08-07T12:45:34Z</time>
      </trkpt>
      <trkpt lat="40.9935220" lon="0.4452740">
        <ele>154.2</ele>
        <time>2020-08-07T12:45:35Z</time>
      </trkpt>
      <trkpt lat="40.9935360" lon="0.4452990">
        <ele>154.1</ele>
        <time>2020-08-07T12:45:37Z</time>
      </trkpt>
      <trkpt lat="40.9935390" lon="0.4453090">
        <ele>154.1</ele>
        <time>2020-08-07T12:45:38Z</time>
      </trkpt>
      <trkpt lat="40.9935410" lon="0.4453190">
        <ele>154.1</ele>
        <time>2020-08-07T12:45:39Z</time>
      </trkpt>
      <trkpt lat="40.9935440" lon="0.4453450">
        <ele>154.1</ele>
        <time>2020-08-07T12:45:40Z</time>
      </trkpt>
      <trkpt lat="40.9935490" lon="0.4453730">
        <ele>154.1</ele>
        <time>2020-08-07T12:45:42Z</time>
      </trkpt>
      <trkpt lat="40.9935570" lon="0.4454250">
        <ele>154.0</ele>
        <time>2020-08-07T12:45:43Z</time>
      </trkpt>
      <trkpt lat="40.9935610" lon="0.4454520">
        <ele>154.0</ele>
        <time>2020-08-07T12:45:44Z</time>
      </trkpt>
      <trkpt lat="40.9935740" lon="0.4455340">
        <ele>153.8</ele>
        <time>2020-08-07T12:45:46Z</time>
      </trkpt>
      <trkpt lat="40.9935890" lon="0.4455920">
        <ele>153.8</ele>
        <time>2020-08-07T12:45:47Z</time>
      </trkpt>
      <trkpt lat="40.9936110" lon="0.4456610">
        <ele>153.7</ele>
        <time>2020-08-07T12:45:49Z</time>
      </trkpt>
      <trkpt lat="40.9936280" lon="0.4457070">
        <ele>153.6</ele>
        <time>2020-08-07T12:45:50Z</time>
      </trkpt>
      <trkpt lat="40.9936450" lon="0.4457620">
        <ele>153.5</ele>
        <time>2020-08-07T12:45:51Z</time>
      </trkpt>
      <trkpt lat="40.9936620" lon="0.4458120">
        <ele>153.4</ele>
        <time>2020-08-07T12:45:53Z</time>
      </trkpt>
      <trkpt lat="40.9936760" lon="0.4458590">
        <ele>153.4</ele>
        <time>2020-08-07T12:45:54Z</time>
      </trkpt>
      <trkpt lat="40.9936930" lon="0.4459040">
        <ele>153.3</ele>
        <time>2020-08-07T12:45:55Z</time>
      </trkpt>
      <trkpt lat="40.9937080" lon="0.4459440">
        <ele>153.3</ele>
        <time>2020-08-07T12:45:56Z</time>
      </trkpt>
      <trkpt lat="40.9937250" lon="0.4459910">
        <ele>153.2</ele>
        <time>2020-08-07T12:45:58Z</time>
      </trkpt>
      <trkpt lat="40.9937370" lon="0.4460250">
        <ele>153.2</ele>
        <time>2020-08-07T12:45:59Z</time>
      </trkpt>
      <trkpt lat="40.9937490" lon="0.4460570">
        <ele>153.2</ele>
        <time>2020-08-07T12:46:00Z</time>
      </trkpt>
      <trkpt lat="40.9937710" lon="0.4461190">
        <ele>153.1</ele>
        <time>2020-08-07T12:46:02Z</time>
      </trkpt>
      <trkpt lat="40.9937880" lon="0.4461560">
        <ele>153.1</ele>
        <time>2020-08-07T12:46:03Z</time>
      </trkpt>
      <trkpt lat="40.9938130" lon="0.4462080">
        <ele>153.0</ele>
        <time>2020-08-07T12:46:04Z</time>
      </trkpt>
      <trkpt lat="40.9938490" lon="0.4462880">
        <ele>152.9</ele>
        <time>2020-08-07T12:46:06Z</time>
      </trkpt>
      <trkpt lat="40.9938890" lon="0.4463600">
        <ele>152.8</ele>
        <time>2020-08-07T12:46:07Z</time>
      </trkpt>
      <trkpt lat="40.9939550" lon="0.4464770">
        <ele>152.6</ele>
        <time>2020-08-07T12:46:09Z</time>
      </trkpt>
      <trkpt lat="40.9940160" lon="0.4465820">
        <ele>152.4</ele>
        <time>2020-08-07T12:46:11Z</time>
      </trkpt>
      <trkpt lat="40.9940490" lon="0.4466290">
        <ele>152.3</ele>
        <time>2020-08-07T12:46:12Z</time>
      </trkpt>
      <trkpt lat="40.9940820" lon="0.4466770">
        <ele>152.2</ele>
        <time>2020-08-07T12:46:13Z</time>
      </trkpt>
      <trkpt lat="40.9941130" lon="0.4467290">
        <ele>152.1</ele>
        <time>2020-08-07T12:46:14Z</time>
      </trkpt>
      <trkpt lat="40.9941450" lon="0.4467780">
        <ele>152.0</ele>
        <time>2020-08-07T12:46:15Z</time>
      </trkpt>
      <trkpt lat="40.9941780" lon="0.4468250">
        <ele>152.0</ele>
        <time>2020-08-07T12:46:16Z</time>
      </trkpt>
      <trkpt lat="40.9942130" lon="0.4468690">
        <ele>151.9</ele>
        <time>2020-08-07T12:46:17Z</time>
      </trkpt>
      <trkpt lat="40.9942670" lon="0.4469270">
        <ele>151.8</ele>
        <time>2020-08-07T12:46:19Z</time>
      </trkpt>
      <trkpt lat="40.9943430" lon="0.4470180">
        <ele>151.6</ele>
        <time>2020-08-07T12:46:21Z</time>
      </trkpt>
      <trkpt lat="40.9943840" lon="0.4470680">
        <ele>151.5</ele>
        <time>2020-08-07T12:46:22Z</time>
      </trkpt>
      <trkpt lat="40.9944540" lon="0.4471570">
        <ele>151.4</ele>
        <time>2020-08-07T12:46:24Z</time>
      </trkpt>
      <trkpt lat="40.9944890" lon="0.4471900">
        <ele>151.3</ele>
        <time>2020-08-07T12:46:26Z</time>
      </trkpt>
      <trkpt lat="40.9945680" lon="0.4472330">
        <ele>151.2</ele>
        <time>2020-08-07T12:46:29Z</time>
      </trkpt>
      <trkpt lat="40.9946520" lon="0.4473140">
        <ele>151.0</ele>
        <time>2020-08-07T12:46:31Z</time>
      </trkpt>
      <trkpt lat="40.9947430" lon="0.4474130">
        <ele>150.8</ele>
        <time>2020-08-07T12:46:33Z</time>
      </trkpt>
      <trkpt lat="40.9948410" lon="0.4474940">
        <ele>150.6</ele>
        <time>2020-08-07T12:46:35Z</time>
      </trkpt>
      <trkpt lat="40.9948630" lon="0.4475260">
        <ele>150.5</ele>
        <time>2020-08-07T12:46:36Z</time>
      </trkpt>
      <trkpt lat="40.9948680" lon="0.4475430">
        <ele>150.5</ele>
        <time>2020-08-07T12:46:37Z</time>
      </trkpt>
      <trkpt lat="40.9949370" lon="0.4475830">
        <ele>150.3</ele>
        <time>2020-08-07T12:46:38Z</time>
      </trkpt>
      <trkpt lat="40.9950240" lon="0.4476280">
        <ele>150.1</ele>
        <time>2020-08-07T12:46:40Z</time>
      </trkpt>
      <trkpt lat="40.9951050" lon="0.4476490">
        <ele>150.0</ele>
        <time>2020-08-07T12:46:41Z</time>
      </trkpt>
      <trkpt lat="40.9952280" lon="0.4476880">
        <ele>149.8</ele>
        <time>2020-08-07T12:46:43Z</time>
      </trkpt>
      <trkpt lat="40.9952800" lon="0.4477140">
        <ele>149.7</ele>
        <time>2020-08-07T12:46:44Z</time>
      </trkpt>
      <trkpt lat="40.9953380" lon="0.4477410">
        <ele>149.6</ele>
        <time>2020-08-07T12:46:45Z</time>
      </trkpt>
      <trkpt lat="40.9954430" lon="0.4477770">
        <ele>149.4</ele>
        <time>2020-08-07T12:46:47Z</time>
      </trkpt>
      <trkpt lat="40.9954960" lon="0.4477920">
        <ele>149.3</ele>
        <time>2020-08-07T12:46:48Z</time>
      </trkpt>
      <trkpt lat="40.9956040" lon="0.4478250">
        <ele>149.1</ele>
        <time>2020-08-07T12:46:50Z</time>
      </trkpt>
      <trkpt lat="40.9957030" lon="0.4478270">
        <ele>148.9</ele>
        <time>2020-08-07T12:46:52Z</time>
      </trkpt>
      <trkpt lat="40.9957550" lon="0.4478130">
        <ele>148.8</ele>
        <time>2020-08-07T12:46:53Z</time>
      </trkpt>
      <trkpt lat="40.9958060" lon="0.4478140">
        <ele>148.7</ele>
        <time>2020-08-07T12:46:54Z</time>
      </trkpt>
      <trkpt lat="40.9958790" lon="0.4478750">
        <ele>148.6</ele>
        <time>2020-08-07T12:46:56Z</time>
      </trkpt>
      <trkpt lat="40.9959310" lon="0.4479000">
        <ele>148.5</ele>
        <time>2020-08-07T12:46:57Z</time>
      </trkpt>
      <trkpt lat="40.9959880" lon="0.4479150">
        <ele>148.4</ele>
        <time>2020-08-07T12:46:58Z</time>
      </trkpt>
      <trkpt lat="40.9960890" lon="0.4479560">
        <ele>148.2</ele>
        <time>2020-08-07T12:47:00Z</time>
      </trkpt>
      <trkpt lat="40.9961360" lon="0.4479750">
        <ele>148.1</ele>
        <time>2020-08-07T12:47:01Z</time>
      </trkpt>
      <trkpt lat="40.9962400" lon="0.4480050">
        <ele>147.9</ele>
        <time>2020-08-07T12:47:03Z</time>
      </trkpt>
      <trkpt lat="40.9963380" lon="0.4480330">
        <ele>147.7</ele>
        <time>2020-08-07T12:47:05Z</time>
      </trkpt>
      <trkpt lat="40.9963810" lon="0.4480450">
        <ele>147.6</ele>
        <time>2020-08-07T12:47:06Z</time>
      </trkpt>
      <trkpt lat="40.9964200" lon="0.4480560">
        <ele>147.5</ele>
        <time>2020-08-07T12:47:07Z</time>
      </trkpt>
      <trkpt lat="40.9964910" lon="0.4480750">
        <ele>147.4</ele>
        <time>2020-08-07T12:47:09Z</time>
      </trkpt>
      <trkpt lat="40.9965770" lon="0.4480950">
        <ele>147.2</ele>
        <time>2020-08-07T12:47:11Z</time>
      </trkpt>
      <trkpt lat="40.9966280" lon="0.4481100">
        <ele>147.1</ele>
        <time>2020-08-07T12:47:12Z</time>
      </trkpt>
      <trkpt lat="40.9967040" lon="0.4481370">
        <ele>146.9</ele>
        <time>2020-08-07T12:47:14Z</time>
      </trkpt>
      <trkpt lat="40.9967380" lon="0.4481160">
        <ele>146.9</ele>
        <time>2020-08-07T12:47:15Z</time>
      </trkpt>
      <trkpt lat="40.9967840" lon="0.4481250">
        <ele>146.8</ele>
        <time>2020-08-07T12:47:16Z</time>
      </trkpt>
      <trkpt lat="40.9968520" lon="0.4481700">
        <ele>146.7</ele>
        <time>2020-08-07T12:47:18Z</time>
      </trkpt>
      <trkpt lat="40.9969180" lon="0.4482060">
        <ele>146.6</ele>
        <time>2020-08-07T12:47:20Z</time>
      </trkpt>
      <trkpt lat="40.9969670" lon="0.4482280">
        <ele>146.5</ele>
        <time>2020-08-07T12:47:21Z</time>
      </trkpt>
      <trkpt lat="40.9970280" lon="0.4482540">
        <ele>146.3</ele>
        <time>2020-08-07T12:47:23Z</time>
      </trkpt>
      <trkpt lat="40.9970830" lon="0.4482770">
        <ele>146.2</ele>
        <time>2020-08-07T12:47:24Z</time>
      </trkpt>
      <trkpt lat="40.9971420" lon="0.4483010">
        <ele>146.1</ele>
        <time>2020-08-07T12:47:25Z</time>
      </trkpt>
      <trkpt lat="40.9971880" lon="0.4483200">
        <ele>146.0</ele>
        <time>2020-08-07T12:47:27Z</time>
      </trkpt>
      <trkpt lat="40.9972360" lon="0.4483420">
        <ele>145.9</ele>
        <time>2020-08-07T12:47:28Z</time>
      </trkpt>
      <trkpt lat="40.9972760" lon="0.4483590">
        <ele>145.9</ele>
        <time>2020-08-07T12:47:29Z</time>
      </trkpt>
      <trkpt lat="40.9973340" lon="0.4483800">
        <ele>145.8</ele>
        <time>2020-08-07T12:47:30Z</time>
      </trkpt>
      <trkpt lat="40.9973770" lon="0.4483970">
        <ele>145.8</ele>
        <time>2020-08-07T12:47:31Z</time>
      </trkpt>
      <trkpt lat="40.9974240" lon="0.4484160">
        <ele>145.7</ele>
        <time>2020-08-07T12:47:33Z</time>
      </trkpt>
      <trkpt lat="40.9974700" lon="0.4484450">
        <ele>145.7</ele>
        <time>2020-08-07T12:47:34Z</time>
      </trkpt>
      <trkpt lat="40.9975100" lon="0.4484700">
        <ele>145.6</ele>
        <time>2020-08-07T12:47:35Z</time>
      </trkpt>
      <trkpt lat="40.9975730" lon="0.4485140">
        <ele>145.5</ele>
        <time>2020-08-07T12:47:37Z</time>
      </trkpt>
      <trkpt lat="40.9976110" lon="0.4485530">
        <ele>145.4</ele>
        <time>2020-08-07T12:47:38Z</time>
      </trkpt>
      <trkpt lat="40.9976570" lon="0.4485940">
        <ele>145.4</ele>
        <time>2020-08-07T12:47:39Z</time>
      </trkpt>
      <trkpt lat="40.9977080" lon="0.4486360">
        <ele>145.3</ele>
        <time>2020-08-07T12:47:41Z</time>
      </trkpt>
      <trkpt lat="40.9977480" lon="0.4486690">
        <ele>145.2</ele>
        <time>2020-08-07T12:47:42Z</time>
      </trkpt>
      <trkpt lat="40.9977930" lon="0.4487100">
        <ele>145.1</ele>
        <time>2020-08-07T12:47:43Z</time>
      </trkpt>
      <trkpt lat="40.9978360" lon="0.4487500">
        <ele>145.1</ele>
        <time>2020-08-07T12:47:45Z</time>
      </trkpt>
      <trkpt lat="40.9978750" lon="0.4487860">
        <ele>145.0</ele>
        <time>2020-08-07T12:47:46Z</time>
      </trkpt>
      <trkpt lat="40.9979160" lon="0.4488250">
        <ele>144.9</ele>
        <time>2020-08-07T12:47:47Z</time>
      </trkpt>
      <trkpt lat="40.9979530" lon="0.4488580">
        <ele>144.8</ele>
        <time>2020-08-07T12:47:48Z</time>
      </trkpt>
      <trkpt lat="40.9980090" lon="0.4489200">
        <ele>144.7</ele>
        <time>2020-08-07T12:47:50Z</time>
      </trkpt>
      <trkpt lat="40.9980320" lon="0.4489450">
        <ele>144.6</ele>
        <time>2020-08-07T12:47:51Z</time>
      </trkpt>
      <trkpt lat="40.9980550" lon="0.4489700">
        <ele>144.5</ele>
        <time>2020-08-07T12:47:53Z</time>
      </trkpt>
      <trkpt lat="40.9980690" lon="0.4489870">
        <ele>144.5</ele>
        <time>2020-08-07T12:47:54Z</time>
      </trkpt>
      <trkpt lat="40.9980970" lon="0.4490180">
        <ele>144.4</ele>
        <time>2020-08-07T12:47:56Z</time>
      </trkpt>
      <trkpt lat="40.9981170" lon="0.4490440">
        <ele>144.4</ele>
        <time>2020-08-07T12:47:57Z</time>
      </trkpt>
      <trkpt lat="40.9981420" lon="0.4490700">
        <ele>144.3</ele>
        <time>2020-08-07T12:47:58Z</time>
      </trkpt>
      <trkpt lat="40.9981680" lon="0.4490990">
        <ele>144.2</ele>
        <time>2020-08-07T12:47:59Z</time>
      </trkpt>
      <trkpt lat="40.9981940" lon="0.4491280">
        <ele>144.2</ele>
        <time>2020-08-07T12:48:00Z</time>
      </trkpt>
      <trkpt lat="40.9982180" lon="0.4491570">
        <ele>144.1</ele>
        <time>2020-08-07T12:48:01Z</time>
      </trkpt>
      <trkpt lat="40.9982420" lon="0.4491890">
        <ele>144.1</ele>
        <time>2020-08-07T12:48:02Z</time>
      </trkpt>
      <trkpt lat="40.9982850" lon="0.4492460">
        <ele>144.0</ele>
        <time>2020-08-07T12:48:04Z</time>
      </trkpt>
      <trkpt lat="40.9983170" lon="0.4492900">
        <ele>143.9</ele>
        <time>2020-08-07T12:48:05Z</time>
      </trkpt>
      <trkpt lat="40.9983520" lon="0.4493420">
        <ele>143.8</ele>
        <time>2020-08-07T12:48:06Z</time>
      </trkpt>
      <trkpt lat="40.9983930" lon="0.4494080">
        <ele>143.8</ele>
        <time>2020-08-07T12:48:08Z</time>
      </trkpt>
      <trkpt lat="40.9984300" lon="0.4494700">
        <ele>143.7</ele>
        <time>2020-08-07T12:48:09Z</time>
      </trkpt>
      <trkpt lat="40.9984620" lon="0.4495310">
        <ele>143.6</ele>
        <time>2020-08-07T12:48:10Z</time>
      </trkpt>
      <trkpt lat="40.9985000" lon="0.4496030">
        <ele>143.5</ele>
        <time>2020-08-07T12:48:12Z</time>
      </trkpt>
      <trkpt lat="40.9985360" lon="0.4496690">
        <ele>143.4</ele>
        <time>2020-08-07T12:48:14Z</time>
      </trkpt>
      <trkpt lat="40.9985580" lon="0.4497210">
        <ele>143.3</ele>
        <time>2020-08-07T12:48:15Z</time>
      </trkpt>
      <trkpt lat="40.9985910" lon="0.4497920">
        <ele>143.1</ele>
        <time>2020-08-07T12:48:16Z</time>
      </trkpt>
      <trkpt lat="40.9986190" lon="0.4498560">
        <ele>143.0</ele>
        <time>2020-08-07T12:48:17Z</time>
      </trkpt>
      <trkpt lat="40.9986520" lon="0.4499240">
        <ele>142.9</ele>
        <time>2020-08-07T12:48:19Z</time>
      </trkpt>
      <trkpt lat="40.9986770" lon="0.4499780">
        <ele>142.8</ele>
        <time>2020-08-07T12:48:20Z</time>
      </trkpt>
      <trkpt lat="40.9987030" lon="0.4500340">
        <ele>142.7</ele>
        <time>2020-08-07T12:48:21Z</time>
      </trkpt>
      <trkpt lat="40.9987350" lon="0.4501080">
        <ele>142.6</ele>
        <time>2020-08-07T12:48:22Z</time>
      </trkpt>
      <trkpt lat="40.9987610" lon="0.4501750">
        <ele>142.6</ele>
        <time>2020-08-07T12:48:24Z</time>
      </trkpt>
      <trkpt lat="40.9987820" lon="0.4502320">
        <ele>142.5</ele>
        <time>2020-08-07T12:48:25Z</time>
      </trkpt>
      <trkpt lat="40.9988020" lon="0.4503000">
        <ele>142.4</ele>
        <time>2020-08-07T12:48:26Z</time>
      </trkpt>
      <trkpt lat="40.9988220" lon="0.4503900">
        <ele>142.3</ele>
        <time>2020-08-07T12:48:27Z</time>
      </trkpt>
      <trkpt lat="40.9988590" lon="0.4505160">
        <ele>142.1</ele>
        <time>2020-08-07T12:48:29Z</time>
      </trkpt>
      <trkpt lat="40.9988520" lon="0.4505390">
        <ele>142.1</ele>
        <time>2020-08-07T12:48:30Z</time>
      </trkpt>
      <trkpt lat="40.9990110" lon="0.4510470">
        <ele>141.2</ele>
        <time>2020-08-07T12:48:38Z</time>
      </trkpt>
      <trkpt lat="40.9990570" lon="0.4511940">
        <ele>141.0</ele>
        <time>2020-08-07T12:48:40Z</time>
      </trkpt>
      <trkpt lat="40.9990760" lon="0.4512640">
        <ele>140.9</ele>
        <time>2020-08-07T12:48:41Z</time>
      </trkpt>
      <trkpt lat="40.9990940" lon="0.4513360">
        <ele>140.8</ele>
        <time>2020-08-07T12:48:42Z</time>
      </trkpt>
      <trkpt lat="40.9991030" lon="0.4514070">
        <ele>140.6</ele>
        <time>2020-08-07T12:48:43Z</time>
      </trkpt>
      <trkpt lat="40.9991310" lon="0.4515250">
        <ele>140.4</ele>
        <time>2020-08-07T12:48:45Z</time>
      </trkpt>
      <trkpt lat="40.9991540" lon="0.4516640">
        <ele>140.2</ele>
        <time>2020-08-07T12:48:47Z</time>
      </trkpt>
      <trkpt lat="40.9991670" lon="0.4517320">
        <ele>140.1</ele>
        <time>2020-08-07T12:48:48Z</time>
      </trkpt>
      <trkpt lat="40.9991970" lon="0.4518610">
        <ele>139.9</ele>
        <time>2020-08-07T12:48:50Z</time>
      </trkpt>
      <trkpt lat="40.9992100" lon="0.4519230">
        <ele>139.8</ele>
        <time>2020-08-07T12:48:51Z</time>
      </trkpt>
      <trkpt lat="40.9992740" lon="0.4520920">
        <ele>139.4</ele>
        <time>2020-08-07T12:48:54Z</time>
      </trkpt>
      <trkpt lat="40.9992990" lon="0.4522220">
        <ele>139.3</ele>
        <time>2020-08-07T12:48:56Z</time>
      </trkpt>
      <trkpt lat="40.9993140" lon="0.4522860">
        <ele>139.2</ele>
        <time>2020-08-07T12:48:57Z</time>
      </trkpt>
      <trkpt lat="40.9993250" lon="0.4524170">
        <ele>139.1</ele>
        <time>2020-08-07T12:48:59Z</time>
      </trkpt>
      <trkpt lat="40.9993470" lon="0.4525440">
        <ele>138.9</ele>
        <time>2020-08-07T12:49:01Z</time>
      </trkpt>
      <trkpt lat="40.9993670" lon="0.4526070">
        <ele>138.8</ele>
        <time>2020-08-07T12:49:02Z</time>
      </trkpt>
      <trkpt lat="40.9993820" lon="0.4526750">
        <ele>138.7</ele>
        <time>2020-08-07T12:49:03Z</time>
      </trkpt>
      <trkpt lat="40.9994120" lon="0.4528090">
        <ele>138.5</ele>
        <time>2020-08-07T12:49:05Z</time>
      </trkpt>
      <trkpt lat="40.9994520" lon="0.4529400">
        <ele>138.3</ele>
        <time>2020-08-07T12:49:07Z</time>
      </trkpt>
      <trkpt lat="40.9994660" lon="0.4530050">
        <ele>138.2</ele>
        <time>2020-08-07T12:49:08Z</time>
      </trkpt>
      <trkpt lat="40.9994810" lon="0.4530680">
        <ele>138.2</ele>
        <time>2020-08-07T12:49:09Z</time>
      </trkpt>
      <trkpt lat="40.9994930" lon="0.4531270">
        <ele>138.1</ele>
        <time>2020-08-07T12:49:10Z</time>
      </trkpt>
      <trkpt lat="40.9995180" lon="0.4532420">
        <ele>137.9</ele>
        <time>2020-08-07T12:49:12Z</time>
      </trkpt>
      <trkpt lat="40.9995560" lon="0.4533630">
        <ele>137.8</ele>
        <time>2020-08-07T12:49:14Z</time>
      </trkpt>
      <trkpt lat="40.9995700" lon="0.4534220">
        <ele>137.7</ele>
        <time>2020-08-07T12:49:15Z</time>
      </trkpt>
      <trkpt lat="40.9995850" lon="0.4534830">
        <ele>137.6</ele>
        <time>2020-08-07T12:49:16Z</time>
      </trkpt>
      <trkpt lat="40.9995960" lon="0.4535430">
        <ele>137.5</ele>
        <time>2020-08-07T12:49:17Z</time>
      </trkpt>
      <trkpt lat="40.9996240" lon="0.4536640">
        <ele>137.3</ele>
        <time>2020-08-07T12:49:19Z</time>
      </trkpt>
      <trkpt lat="40.9996530" lon="0.4537820">
        <ele>137.1</ele>
        <time>2020-08-07T12:49:21Z</time>
      </trkpt>
      <trkpt lat="40.9996660" lon="0.4538440">
        <ele>137.0</ele>
        <time>2020-08-07T12:49:22Z</time>
      </trkpt>
      <trkpt lat="40.9996770" lon="0.4539030">
        <ele>136.9</ele>
        <time>2020-08-07T12:49:23Z</time>
      </trkpt>
      <trkpt lat="40.9996860" lon="0.4539670">
        <ele>136.7</ele>
        <time>2020-08-07T12:49:24Z</time>
      </trkpt>
      <trkpt lat="40.9997040" lon="0.4540850">
        <ele>136.5</ele>
        <time>2020-08-07T12:49:26Z</time>
      </trkpt>
      <trkpt lat="40.9997110" lon="0.4541430">
        <ele>136.4</ele>
        <time>2020-08-07T12:49:27Z</time>
      </trkpt>
      <trkpt lat="40.9997290" lon="0.4542580">
        <ele>136.2</ele>
        <time>2020-08-07T12:49:29Z</time>
      </trkpt>
      <trkpt lat="40.9997400" lon="0.4543150">
        <ele>136.1</ele>
        <time>2020-08-07T12:49:30Z</time>
      </trkpt>
      <trkpt lat="40.9997520" lon="0.4543700">
        <ele>136.0</ele>
        <time>2020-08-07T12:49:31Z</time>
      </trkpt>
      <trkpt lat="40.9997650" lon="0.4544270">
        <ele>135.9</ele>
        <time>2020-08-07T12:49:32Z</time>
      </trkpt>
      <trkpt lat="40.9997730" lon="0.4544820">
        <ele>135.8</ele>
        <time>2020-08-07T12:49:33Z</time>
      </trkpt>
      <trkpt lat="40.9997840" lon="0.4545380">
        <ele>135.7</ele>
        <time>2020-08-07T12:49:34Z</time>
      </trkpt>
      <trkpt lat="40.9998160" lon="0.4546580">
        <ele>135.5</ele>
        <time>2020-08-07T12:49:36Z</time>
      </trkpt>
      <trkpt lat="40.9998400" lon="0.4547180">
        <ele>135.3</ele>
        <time>2020-08-07T12:49:37Z</time>
      </trkpt>
      <trkpt lat="40.9998610" lon="0.4547800">
        <ele>135.2</ele>
        <time>2020-08-07T12:49:38Z</time>
      </trkpt>
      <trkpt lat="40.9998780" lon="0.4548380">
        <ele>135.2</ele>
        <time>2020-08-07T12:49:39Z</time>
      </trkpt>
      <trkpt lat="40.9999010" lon="0.4549490">
        <ele>135.0</ele>
        <time>2020-08-07T12:49:41Z</time>
      </trkpt>
      <trkpt lat="40.9999200" lon="0.4550210">
        <ele>135.0</ele>
        <time>2020-08-07T12:49:43Z</time>
      </trkpt>
      <trkpt lat="40.9999670" lon="0.4551160">
        <ele>134.9</ele>
        <time>2020-08-07T12:49:45Z</time>
      </trkpt>
      <trkpt lat="40.9999790" lon="0.4551650">
        <ele>134.8</ele>
        <time>2020-08-07T12:49:46Z</time>
      </trkpt>
      <trkpt lat="41.0000090" lon="0.4552880">
        <ele>134.7</ele>
        <time>2020-08-07T12:49:48Z</time>
      </trkpt>
      <trkpt lat="41.0000300" lon="0.4553520">
        <ele>134.6</ele>
        <time>2020-08-07T12:49:49Z</time>
      </trkpt>
      <trkpt lat="41.0000460" lon="0.4554170">
        <ele>134.5</ele>
        <time>2020-08-07T12:49:50Z</time>
      </trkpt>
      <trkpt lat="41.0000800" lon="0.4555380">
        <ele>134.3</ele>
        <time>2020-08-07T12:49:52Z</time>
      </trkpt>
      <trkpt lat="41.0000750" lon="0.4555840">
        <ele>134.3</ele>
        <time>2020-08-07T12:49:53Z</time>
      </trkpt>
      <trkpt lat="41.0000810" lon="0.4556250">
        <ele>134.2</ele>
        <time>2020-08-07T12:49:54Z</time>
      </trkpt>
      <trkpt lat="41.0001300" lon="0.4556980">
        <ele>134.1</ele>
        <time>2020-08-07T12:49:56Z</time>
      </trkpt>
      <trkpt lat="41.0001740" lon="0.4557740">
        <ele>134.0</ele>
        <time>2020-08-07T12:49:57Z</time>
      </trkpt>
      <trkpt lat="41.0002010" lon="0.4558330">
        <ele>133.9</ele>
        <time>2020-08-07T12:49:58Z</time>
      </trkpt>
      <trkpt lat="41.0002310" lon="0.4558960">
        <ele>133.8</ele>
        <time>2020-08-07T12:50:00Z</time>
      </trkpt>
      <trkpt lat="41.0002540" lon="0.4559510">
        <ele>133.7</ele>
        <time>2020-08-07T12:50:01Z</time>
      </trkpt>
      <trkpt lat="41.0002780" lon="0.4560060">
        <ele>133.6</ele>
        <time>2020-08-07T12:50:02Z</time>
      </trkpt>
      <trkpt lat="41.0003000" lon="0.4560550">
        <ele>133.5</ele>
        <time>2020-08-07T12:50:03Z</time>
      </trkpt>
      <trkpt lat="41.0003180" lon="0.4561040">
        <ele>133.4</ele>
        <time>2020-08-07T12:50:04Z</time>
      </trkpt>
      <trkpt lat="41.0003560" lon="0.4561840">
        <ele>133.2</ele>
        <time>2020-08-07T12:50:06Z</time>
      </trkpt>
      <trkpt lat="41.0003810" lon="0.4562290">
        <ele>133.1</ele>
        <time>2020-08-07T12:50:07Z</time>
      </trkpt>
      <trkpt lat="41.0004050" lon="0.4562760">
        <ele>133.0</ele>
        <time>2020-08-07T12:50:08Z</time>
      </trkpt>
      <trkpt lat="41.0004330" lon="0.4563310">
        <ele>132.9</ele>
        <time>2020-08-07T12:50:09Z</time>
      </trkpt>
      <trkpt lat="41.0004590" lon="0.4563770">
        <ele>132.7</ele>
        <time>2020-08-07T12:50:10Z</time>
      </trkpt>
      <trkpt lat="41.0005300" lon="0.4564960">
        <ele>132.5</ele>
        <time>2020-08-07T12:50:12Z</time>
      </trkpt>
      <trkpt lat="41.0005950" lon="0.4565930">
        <ele>132.3</ele>
        <time>2020-08-07T12:50:14Z</time>
      </trkpt>
      <trkpt lat="41.0006180" lon="0.4566580">
        <ele>132.2</ele>
        <time>2020-08-07T12:50:16Z</time>
      </trkpt>
      <trkpt lat="41.0006600" lon="0.4567110">
        <ele>132.1</ele>
        <time>2020-08-07T12:50:17Z</time>
      </trkpt>
      <trkpt lat="41.0006890" lon="0.4567490">
        <ele>132.0</ele>
        <time>2020-08-07T12:50:18Z</time>
      </trkpt>
      <trkpt lat="41.0007190" lon="0.4567860">
        <ele>131.9</ele>
        <time>2020-08-07T12:50:19Z</time>
      </trkpt>
      <trkpt lat="41.0007590" lon="0.4568380">
        <ele>131.8</ele>
        <time>2020-08-07T12:50:20Z</time>
      </trkpt>
      <trkpt lat="41.0007950" lon="0.4568960">
        <ele>131.7</ele>
        <time>2020-08-07T12:50:22Z</time>
      </trkpt>
      <trkpt lat="41.0008230" lon="0.4569410">
        <ele>131.6</ele>
        <time>2020-08-07T12:50:23Z</time>
      </trkpt>
      <trkpt lat="41.0008610" lon="0.4570000">
        <ele>131.4</ele>
        <time>2020-08-07T12:50:24Z</time>
      </trkpt>
      <trkpt lat="41.0009070" lon="0.4570850">
        <ele>131.2</ele>
        <time>2020-08-07T12:50:26Z</time>
      </trkpt>
      <trkpt lat="41.0009520" lon="0.4571550">
        <ele>131.0</ele>
        <time>2020-08-07T12:50:27Z</time>
      </trkpt>
      <trkpt lat="41.0009850" lon="0.4572170">
        <ele>130.8</ele>
        <time>2020-08-07T12:50:29Z</time>
      </trkpt>
      <trkpt lat="41.0010150" lon="0.4572830">
        <ele>130.7</ele>
        <time>2020-08-07T12:50:30Z</time>
      </trkpt>
      <trkpt lat="41.0010510" lon="0.4573400">
        <ele>130.5</ele>
        <time>2020-08-07T12:50:32Z</time>
      </trkpt>
      <trkpt lat="41.0010760" lon="0.4573840">
        <ele>130.4</ele>
        <time>2020-08-07T12:50:33Z</time>
      </trkpt>
      <trkpt lat="41.0011260" lon="0.4574470">
        <ele>130.2</ele>
        <time>2020-08-07T12:50:35Z</time>
      </trkpt>
      <trkpt lat="41.0011790" lon="0.4575330">
        <ele>130.0</ele>
        <time>2020-08-07T12:50:36Z</time>
      </trkpt>
      <trkpt lat="41.0012210" lon="0.4576140">
        <ele>129.8</ele>
        <time>2020-08-07T12:50:38Z</time>
      </trkpt>
      <trkpt lat="41.0012410" lon="0.4576550">
        <ele>129.7</ele>
        <time>2020-08-07T12:50:39Z</time>
      </trkpt>
      <trkpt lat="41.0012580" lon="0.4576940">
        <ele>129.6</ele>
        <time>2020-08-07T12:50:40Z</time>
      </trkpt>
      <trkpt lat="41.0012800" lon="0.4577350">
        <ele>129.5</ele>
        <time>2020-08-07T12:50:41Z</time>
      </trkpt>
      <trkpt lat="41.0013200" lon="0.4578230">
        <ele>129.3</ele>
        <time>2020-08-07T12:50:43Z</time>
      </trkpt>
      <trkpt lat="41.0013500" lon="0.4578760">
        <ele>129.2</ele>
        <time>2020-08-07T12:50:44Z</time>
      </trkpt>
      <trkpt lat="41.0013930" lon="0.4579620">
        <ele>129.0</ele>
        <time>2020-08-07T12:50:46Z</time>
      </trkpt>
      <trkpt lat="41.0014270" lon="0.4580140">
        <ele>128.8</ele>
        <time>2020-08-07T12:50:47Z</time>
      </trkpt>
      <trkpt lat="41.0014670" lon="0.4580720">
        <ele>128.7</ele>
        <time>2020-08-07T12:50:48Z</time>
      </trkpt>
      <trkpt lat="41.0015000" lon="0.4581150">
        <ele>128.6</ele>
        <time>2020-08-07T12:50:49Z</time>
      </trkpt>
      <trkpt lat="41.0015300" lon="0.4581580">
        <ele>128.4</ele>
        <time>2020-08-07T12:50:50Z</time>
      </trkpt>
      <trkpt lat="41.0015810" lon="0.4582340">
        <ele>128.2</ele>
        <time>2020-08-07T12:50:52Z</time>
      </trkpt>
      <trkpt lat="41.0016140" lon="0.4582860">
        <ele>128.1</ele>
        <time>2020-08-07T12:50:53Z</time>
      </trkpt>
      <trkpt lat="41.0016520" lon="0.4583450">
        <ele>128.0</ele>
        <time>2020-08-07T12:50:55Z</time>
      </trkpt>
      <trkpt lat="41.0016800" lon="0.4583890">
        <ele>127.9</ele>
        <time>2020-08-07T12:50:56Z</time>
      </trkpt>
      <trkpt lat="41.0017200" lon="0.4584500">
        <ele>127.7</ele>
        <time>2020-08-07T12:50:57Z</time>
      </trkpt>
      <trkpt lat="41.0017600" lon="0.4585070">
        <ele>127.6</ele>
        <time>2020-08-07T12:50:59Z</time>
      </trkpt>
      <trkpt lat="41.0017900" lon="0.4585510">
        <ele>127.4</ele>
        <time>2020-08-07T12:51:00Z</time>
      </trkpt>
      <trkpt lat="41.0018150" lon="0.4585900">
        <ele>127.3</ele>
        <time>2020-08-07T12:51:02Z</time>
      </trkpt>
      <trkpt lat="41.0018300" lon="0.4586090">
        <ele>127.3</ele>
        <time>2020-08-07T12:51:03Z</time>
      </trkpt>
      <trkpt lat="41.0018410" lon="0.4586250">
        <ele>127.2</ele>
        <time>2020-08-07T12:51:04Z</time>
      </trkpt>
      <trkpt lat="41.0019000" lon="0.4587260">
        <ele>127.0</ele>
        <time>2020-08-07T12:51:05Z</time>
      </trkpt>
      <trkpt lat="41.0019460" lon="0.4588030">
        <ele>126.8</ele>
        <time>2020-08-07T12:51:07Z</time>
      </trkpt>
      <trkpt lat="41.0019870" lon="0.4588760">
        <ele>126.6</ele>
        <time>2020-08-07T12:51:08Z</time>
      </trkpt>
      <trkpt lat="41.0020190" lon="0.4589340">
        <ele>126.5</ele>
        <time>2020-08-07T12:51:09Z</time>
      </trkpt>
      <trkpt lat="41.0020650" lon="0.4590160">
        <ele>126.4</ele>
        <time>2020-08-07T12:51:11Z</time>
      </trkpt>
      <trkpt lat="41.0020980" lon="0.4590740">
        <ele>126.3</ele>
        <time>2020-08-07T12:51:12Z</time>
      </trkpt>
      <trkpt lat="41.0021230" lon="0.4591290">
        <ele>126.2</ele>
        <time>2020-08-07T12:51:13Z</time>
      </trkpt>
      <trkpt lat="41.0021530" lon="0.4592000">
        <ele>126.1</ele>
        <time>2020-08-07T12:51:14Z</time>
      </trkpt>
      <trkpt lat="41.0021730" lon="0.4592530">
        <ele>126.0</ele>
        <time>2020-08-07T12:51:15Z</time>
      </trkpt>
      <trkpt lat="41.0021990" lon="0.4593250">
        <ele>125.9</ele>
        <time>2020-08-07T12:51:17Z</time>
      </trkpt>
      <trkpt lat="41.0022200" lon="0.4593790">
        <ele>125.8</ele>
        <time>2020-08-07T12:51:18Z</time>
      </trkpt>
      <trkpt lat="41.0022420" lon="0.4594500">
        <ele>125.7</ele>
        <time>2020-08-07T12:51:20Z</time>
      </trkpt>
      <trkpt lat="41.0022660" lon="0.4595270">
        <ele>125.5</ele>
        <time>2020-08-07T12:51:21Z</time>
      </trkpt>
      <trkpt lat="41.0022850" lon="0.4595740">
        <ele>125.4</ele>
        <time>2020-08-07T12:51:23Z</time>
      </trkpt>
      <trkpt lat="41.0023030" lon="0.4596190">
        <ele>125.3</ele>
        <time>2020-08-07T12:51:24Z</time>
      </trkpt>
      <trkpt lat="41.0023220" lon="0.4596710">
        <ele>125.2</ele>
        <time>2020-08-07T12:51:25Z</time>
      </trkpt>
      <trkpt lat="41.0023380" lon="0.4597240">
        <ele>125.0</ele>
        <time>2020-08-07T12:51:26Z</time>
      </trkpt>
      <trkpt lat="41.0023620" lon="0.4598110">
        <ele>124.8</ele>
        <time>2020-08-07T12:51:28Z</time>
      </trkpt>
      <trkpt lat="41.0023740" lon="0.4598480">
        <ele>124.8</ele>
        <time>2020-08-07T12:51:29Z</time>
      </trkpt>
      <trkpt lat="41.0023860" lon="0.4598820">
        <ele>124.8</ele>
        <time>2020-08-07T12:51:30Z</time>
      </trkpt>
      <trkpt lat="41.0024050" lon="0.4599310">
        <ele>124.7</ele>
        <time>2020-08-07T12:51:31Z</time>
      </trkpt>
      <trkpt lat="41.0024160" lon="0.4599690">
        <ele>124.6</ele>
        <time>2020-08-07T12:51:33Z</time>
      </trkpt>
      <trkpt lat="41.0024250" lon="0.4600160">
        <ele>124.6</ele>
        <time>2020-08-07T12:51:34Z</time>
      </trkpt>
      <trkpt lat="41.0024310" lon="0.4600540">
        <ele>124.5</ele>
        <time>2020-08-07T12:51:35Z</time>
      </trkpt>
      <trkpt lat="41.0024370" lon="0.4600830">
        <ele>124.5</ele>
        <time>2020-08-07T12:51:37Z</time>
      </trkpt>
      <trkpt lat="41.0024460" lon="0.4601310">
        <ele>124.5</ele>
        <time>2020-08-07T12:51:39Z</time>
      </trkpt>
      <trkpt lat="41.0024480" lon="0.4601910">
        <ele>124.4</ele>
        <time>2020-08-07T12:51:40Z</time>
      </trkpt>
      <trkpt lat="41.0024410" lon="0.4602750">
        <ele>124.3</ele>
        <time>2020-08-07T12:51:41Z</time>
      </trkpt>
      <trkpt lat="41.0024290" lon="0.4603600">
        <ele>124.2</ele>
        <time>2020-08-07T12:51:42Z</time>
      </trkpt>
      <trkpt lat="41.0024100" lon="0.4605080">
        <ele>124.2</ele>
        <time>2020-08-07T12:51:44Z</time>
      </trkpt>
      <trkpt lat="41.0024080" lon="0.4605850">
        <ele>124.2</ele>
        <time>2020-08-07T12:51:45Z</time>
      </trkpt>
      <trkpt lat="41.0024130" lon="0.4606510">
        <ele>124.3</ele>
        <time>2020-08-07T12:51:46Z</time>
      </trkpt>
      <trkpt lat="41.0024180" lon="0.4607120">
        <ele>124.4</ele>
        <time>2020-08-07T12:51:47Z</time>
      </trkpt>
      <trkpt lat="41.0024330" lon="0.4608270">
        <ele>124.5</ele>
        <time>2020-08-07T12:51:49Z</time>
      </trkpt>
      <trkpt lat="41.0024370" lon="0.4608980">
        <ele>124.6</ele>
        <time>2020-08-07T12:51:51Z</time>
      </trkpt>
      <trkpt lat="41.0024400" lon="0.4609180">
        <ele>124.6</ele>
        <time>2020-08-07T12:51:52Z</time>
      </trkpt>
      <trkpt lat="41.0024420" lon="0.4609280">
        <ele>124.6</ele>
        <time>2020-08-07T12:51:54Z</time>
      </trkpt>
      <trkpt lat="41.0024380" lon="0.4609440">
        <ele>124.6</ele>
        <time>2020-08-07T12:51:55Z</time>
      </trkpt>
      <trkpt lat="41.0024360" lon="0.4609590">
        <ele>124.7</ele>
        <time>2020-08-07T12:51:56Z</time>
      </trkpt>
      <trkpt lat="41.0024380" lon="0.4609640">
        <ele>124.7</ele>
        <time>2020-08-07T12:51:58Z</time>
      </trkpt>
      <trkpt lat="41.0024400" lon="0.4609690">
        <ele>124.7</ele>
        <time>2020-08-07T12:51:59Z</time>
      </trkpt>
      <trkpt lat="41.0024420" lon="0.4609740">
        <ele>124.7</ele>
        <time>2020-08-07T12:52:00Z</time>
      </trkpt>
      <trkpt lat="41.0024440" lon="0.4609790">
        <ele>124.7</ele>
        <time>2020-08-07T12:52:01Z</time>
      </trkpt>
      <trkpt lat="41.0024470" lon="0.4609830">
        <ele>124.7</ele>
        <time>2020-08-07T12:52:03Z</time>
      </trkpt>
      <trkpt lat="41.0024490" lon="0.4609880">
        <ele>124.7</ele>
        <time>2020-08-07T12:52:04Z</time>
      </trkpt>
      <trkpt lat="41.0024510" lon="0.4609930">
        <ele>124.7</ele>
        <time>2020-08-07T12:52:05Z</time>
      </trkpt>
      <trkpt lat="41.0024530" lon="0.4609980">
        <ele>124.7</ele>
        <time>2020-08-07T12:52:07Z</time>
      </trkpt>
      <trkpt lat="41.0024550" lon="0.4610030">
        <ele>124.7</ele>
        <time>2020-08-07T12:52:09Z</time>
      </trkpt>
      <trkpt lat="41.0024570" lon="0.4610080">
        <ele>124.7</ele>
        <time>2020-08-07T12:52:11Z</time>
      </trkpt>
      <trkpt lat="41.0024590" lon="0.4610130">
        <ele>124.7</ele>
        <time>2020-08-07T12:52:12Z</time>
      </trkpt>
      <trkpt lat="41.0024610" lon="0.4610180">
        <ele>124.7</ele>
        <time>2020-08-07T12:52:14Z</time>
      </trkpt>
      <trkpt lat="41.0024630" lon="0.4610230">
        <ele>124.7</ele>
        <time>2020-08-07T12:52:15Z</time>
      </trkpt>
      <trkpt lat="41.0024650" lon="0.4610280">
        <ele>124.7</ele>
        <time>2020-08-07T12:52:16Z</time>
      </trkpt>
      <trkpt lat="41.0024680" lon="0.4610320">
        <ele>124.7</ele>
        <time>2020-08-07T12:52:17Z</time>
      </trkpt>
      <trkpt lat="41.0024700" lon="0.4610370">
        <ele>124.7</ele>
        <time>2020-08-07T12:52:18Z</time>
      </trkpt>
      <trkpt lat="41.0024720" lon="0.4610420">
        <ele>124.7</ele>
        <time>2020-08-07T12:52:20Z</time>
      </trkpt>
      <trkpt lat="41.0024740" lon="0.4610470">
        <ele>124.8</ele>
        <time>2020-08-07T12:52:37Z</time>
      </trkpt>
      <trkpt lat="41.0024760" lon="0.4610520">
        <ele>124.8</ele>
        <time>2020-08-07T12:52:39Z</time>
      </trkpt>
      <trkpt lat="41.0024780" lon="0.4610570">
        <ele>124.8</ele>
        <time>2020-08-07T12:52:40Z</time>
      </trkpt>
      <trkpt lat="41.0024760" lon="0.4611040">
        <ele>124.8</ele>
        <time>2020-08-07T12:52:41Z</time>
      </trkpt>
      <trkpt lat="41.0024750" lon="0.4611180">
        <ele>124.8</ele>
        <time>2020-08-07T12:52:42Z</time>
      </trkpt>
      <trkpt lat="41.0024740" lon="0.4611670">
        <ele>124.9</ele>
        <time>2020-08-07T12:52:44Z</time>
      </trkpt>
      <trkpt lat="41.0024730" lon="0.4612380">
        <ele>125.0</ele>
        <time>2020-08-07T12:52:45Z</time>
      </trkpt>
      <trkpt lat="41.0024720" lon="0.4612750">
        <ele>125.0</ele>
        <time>2020-08-07T12:52:46Z</time>
      </trkpt>
      <trkpt lat="41.0024700" lon="0.4613640">
        <ele>125.1</ele>
        <time>2020-08-07T12:52:47Z</time>
      </trkpt>
      <trkpt lat="41.0024650" lon="0.4614280">
        <ele>125.2</ele>
        <time>2020-08-07T12:52:48Z</time>
      </trkpt>
      <trkpt lat="41.0024570" lon="0.4614830">
        <ele>125.3</ele>
        <time>2020-08-07T12:52:50Z</time>
      </trkpt>
      <trkpt lat="41.0024460" lon="0.4615550">
        <ele>125.3</ele>
        <time>2020-08-07T12:52:51Z</time>
      </trkpt>
      <trkpt lat="41.0024340" lon="0.4616310">
        <ele>125.1</ele>
        <time>2020-08-07T12:52:53Z</time>
      </trkpt>
      <trkpt lat="41.0024260" lon="0.4616730">
        <ele>124.9</ele>
        <time>2020-08-07T12:52:54Z</time>
      </trkpt>
      <trkpt lat="41.0024170" lon="0.4617200">
        <ele>124.8</ele>
        <time>2020-08-07T12:52:55Z</time>
      </trkpt>
      <trkpt lat="41.0024090" lon="0.4617620">
        <ele>124.7</ele>
        <time>2020-08-07T12:52:56Z</time>
      </trkpt>
      <trkpt lat="41.0023960" lon="0.4618140">
        <ele>124.5</ele>
        <time>2020-08-07T12:52:58Z</time>
      </trkpt>
      <trkpt lat="41.0023900" lon="0.4618340">
        <ele>124.4</ele>
        <time>2020-08-07T12:52:59Z</time>
      </trkpt>
      <trkpt lat="41.0023760" lon="0.4618800">
        <ele>124.3</ele>
        <time>2020-08-07T12:53:01Z</time>
      </trkpt>
      <trkpt lat="41.0023710" lon="0.4618970">
        <ele>124.2</ele>
        <time>2020-08-07T12:53:02Z</time>
      </trkpt>
      <trkpt lat="41.0005480" lon="0.4668810">
        <ele>117.9</ele>
        <time>2020-08-07T12:54:26Z</time>
      </trkpt>
      <trkpt lat="41.0005370" lon="0.4669220">
        <ele>117.9</ele>
        <time>2020-08-07T12:54:27Z</time>
      </trkpt>
      <trkpt lat="41.0005200" lon="0.4669700">
        <ele>117.9</ele>
        <time>2020-08-07T12:54:28Z</time>
      </trkpt>
      <trkpt lat="41.0005010" lon="0.4670220">
        <ele>117.9</ele>
        <time>2020-08-07T12:54:29Z</time>
      </trkpt>
      <trkpt lat="41.0004600" lon="0.4671300">
        <ele>117.8</ele>
        <time>2020-08-07T12:54:31Z</time>
      </trkpt>
      <trkpt lat="41.0004400" lon="0.4671730">
        <ele>117.8</ele>
        <time>2020-08-07T12:54:32Z</time>
      </trkpt>
      <trkpt lat="41.0004040" lon="0.4672550">
        <ele>117.7</ele>
        <time>2020-08-07T12:54:34Z</time>
      </trkpt>
      <trkpt lat="41.0003880" lon="0.4673020">
        <ele>117.7</ele>
        <time>2020-08-07T12:54:35Z</time>
      </trkpt>
      <trkpt lat="41.0003700" lon="0.4673440">
        <ele>117.6</ele>
        <time>2020-08-07T12:54:36Z</time>
      </trkpt>
      <trkpt lat="41.0003510" lon="0.4673870">
        <ele>117.5</ele>
        <time>2020-08-07T12:54:37Z</time>
      </trkpt>
      <trkpt lat="41.0003330" lon="0.4674300">
        <ele>117.4</ele>
        <time>2020-08-07T12:54:38Z</time>
      </trkpt>
      <trkpt lat="41.0002970" lon="0.4675280">
        <ele>117.2</ele>
        <time>2020-08-07T12:54:40Z</time>
      </trkpt>
      <trkpt lat="41.0002640" lon="0.4676220">
        <ele>117.1</ele>
        <time>2020-08-07T12:54:42Z</time>
      </trkpt>
      <trkpt lat="41.0002470" lon="0.4676700">
        <ele>117.0</ele>
        <time>2020-08-07T12:54:43Z</time>
      </trkpt>
      <trkpt lat="41.0002310" lon="0.4677160">
        <ele>116.9</ele>
        <time>2020-08-07T12:54:44Z</time>
      </trkpt>
      <trkpt lat="41.0001950" lon="0.4678060">
        <ele>116.7</ele>
        <time>2020-08-07T12:54:46Z</time>
      </trkpt>
      <trkpt lat="41.0001500" lon="0.4679130">
        <ele>116.5</ele>
        <time>2020-08-07T12:54:48Z</time>
      </trkpt>
      <trkpt lat="41.0001300" lon="0.4679760">
        <ele>116.3</ele>
        <time>2020-08-07T12:54:49Z</time>
      </trkpt>
      <trkpt lat="41.0001130" lon="0.4680360">
        <ele>116.2</ele>
        <time>2020-08-07T12:54:50Z</time>
      </trkpt>
      <trkpt lat="41.0000860" lon="0.4681370">
        <ele>115.9</ele>
        <time>2020-08-07T12:54:52Z</time>
      </trkpt>
      <trkpt lat="41.0000580" lon="0.4682110">
        <ele>115.6</ele>
        <time>2020-08-07T12:54:54Z</time>
      </trkpt>
      <trkpt lat="41.0000360" lon="0.4682630">
        <ele>115.3</ele>
        <time>2020-08-07T12:54:55Z</time>
      </trkpt>
      <trkpt lat="41.0000200" lon="0.4683070">
        <ele>115.1</ele>
        <time>2020-08-07T12:54:56Z</time>
      </trkpt>
      <trkpt lat="40.9999810" lon="0.4684010">
        <ele>114.5</ele>
        <time>2020-08-07T12:54:58Z</time>
      </trkpt>
      <trkpt lat="40.9999630" lon="0.4684460">
        <ele>114.2</ele>
        <time>2020-08-07T12:54:59Z</time>
      </trkpt>
      <trkpt lat="40.9999440" lon="0.4685210">
        <ele>113.7</ele>
        <time>2020-08-07T12:55:01Z</time>
      </trkpt>
      <trkpt lat="40.9999090" lon="0.4685860">
        <ele>113.6</ele>
        <time>2020-08-07T12:55:03Z</time>
      </trkpt>
      <trkpt lat="40.9990300" lon="0.4707730">
        <ele>110.1</ele>
        <time>2020-08-07T12:55:52Z</time>
      </trkpt>
      <trkpt lat="40.9990320" lon="0.4707830">
        <ele>110.1</ele>
        <time>2020-08-07T12:55:53Z</time>
      </trkpt>
      <trkpt lat="40.9990200" lon="0.4708370">
        <ele>110.1</ele>
        <time>2020-08-07T12:55:55Z</time>
      </trkpt>
      <trkpt lat="40.9990090" lon="0.4708800">
        <ele>110.1</ele>
        <time>2020-08-07T12:55:56Z</time>
      </trkpt>
      <trkpt lat="40.9990060" lon="0.4708920">
        <ele>110.1</ele>
        <time>2020-08-07T12:55:57Z</time>
      </trkpt>
      <trkpt lat="40.9989890" lon="0.4709510">
        <ele>110.1</ele>
        <time>2020-08-07T12:55:59Z</time>
      </trkpt>
      <trkpt lat="40.9989790" lon="0.4709860">
        <ele>110.1</ele>
        <time>2020-08-07T12:56:00Z</time>
      </trkpt>
      <trkpt lat="40.9989750" lon="0.4709980">
        <ele>110.1</ele>
        <time>2020-08-07T12:56:01Z</time>
      </trkpt>
      <trkpt lat="40.9989580" lon="0.4710420">
        <ele>110.1</ele>
        <time>2020-08-07T12:56:02Z</time>
      </trkpt>
      <trkpt lat="40.9989510" lon="0.4710580">
        <ele>110.1</ele>
        <time>2020-08-07T12:56:03Z</time>
      </trkpt>
      <trkpt lat="40.9989250" lon="0.4711150">
        <ele>110.1</ele>
        <time>2020-08-07T12:56:05Z</time>
      </trkpt>
      <trkpt lat="40.9989140" lon="0.4711400">
        <ele>110.1</ele>
        <time>2020-08-07T12:56:06Z</time>
      </trkpt>
      <trkpt lat="40.9988900" lon="0.4711970">
        <ele>110.1</ele>
        <time>2020-08-07T12:56:08Z</time>
      </trkpt>
      <trkpt lat="40.9988750" lon="0.4712290">
        <ele>110.1</ele>
        <time>2020-08-07T12:56:09Z</time>
      </trkpt>
      <trkpt lat="40.9988520" lon="0.4712730">
        <ele>110.1</ele>
        <time>2020-08-07T12:56:11Z</time>
      </trkpt>
      <trkpt lat="40.9988320" lon="0.4713020">
        <ele>110.1</ele>
        <time>2020-08-07T12:56:12Z</time>
      </trkpt>
      <trkpt lat="40.9988140" lon="0.4713310">
        <ele>110.1</ele>
        <time>2020-08-07T12:56:13Z</time>
      </trkpt>
      <trkpt lat="40.9987940" lon="0.4713630">
        <ele>110.1</ele>
        <time>2020-08-07T12:56:14Z</time>
      </trkpt>
      <trkpt lat="40.9987730" lon="0.4714030">
        <ele>110.1</ele>
        <time>2020-08-07T12:56:15Z</time>
      </trkpt>
      <trkpt lat="40.9987540" lon="0.4714300">
        <ele>110.1</ele>
        <time>2020-08-07T12:56:16Z</time>
      </trkpt>
      <trkpt lat="40.9987300" lon="0.4714640">
        <ele>110.1</ele>
        <time>2020-08-07T12:56:18Z</time>
      </trkpt>
      <trkpt lat="40.9987100" lon="0.4714960">
        <ele>110.1</ele>
        <time>2020-08-07T12:56:19Z</time>
      </trkpt>
      <trkpt lat="40.9986850" lon="0.4715360">
        <ele>110.1</ele>
        <time>2020-08-07T12:56:20Z</time>
      </trkpt>
      <trkpt lat="40.9986730" lon="0.4715500">
        <ele>110.1</ele>
        <time>2020-08-07T12:56:21Z</time>
      </trkpt>
      <trkpt lat="40.9986480" lon="0.4715880">
        <ele>110.0</ele>
        <time>2020-08-07T12:56:23Z</time>
      </trkpt>
      <trkpt lat="40.9986310" lon="0.4716110">
        <ele>110.0</ele>
        <time>2020-08-07T12:56:24Z</time>
      </trkpt>
      <trkpt lat="40.9985900" lon="0.4716620">
        <ele>109.9</ele>
        <time>2020-08-07T12:56:26Z</time>
      </trkpt>
      <trkpt lat="40.9985650" lon="0.4716930">
        <ele>109.9</ele>
        <time>2020-08-07T12:56:27Z</time>
      </trkpt>
      <trkpt lat="40.9985570" lon="0.4717020">
        <ele>109.9</ele>
        <time>2020-08-07T12:56:28Z</time>
      </trkpt>
      <trkpt lat="40.9985220" lon="0.4717360">
        <ele>109.8</ele>
        <time>2020-08-07T12:56:30Z</time>
      </trkpt>
      <trkpt lat="40.9984940" lon="0.4717600">
        <ele>109.8</ele>
        <time>2020-08-07T12:56:32Z</time>
      </trkpt>
      <trkpt lat="40.9984850" lon="0.4717650">
        <ele>109.8</ele>
        <time>2020-08-07T12:56:33Z</time>
      </trkpt>
      <trkpt lat="40.9984640" lon="0.4717860">
        <ele>109.7</ele>
        <time>2020-08-07T12:56:35Z</time>
      </trkpt>
      <trkpt lat="40.9984490" lon="0.4718040">
        <ele>109.7</ele>
        <time>2020-08-07T12:56:37Z</time>
      </trkpt>
      <trkpt lat="40.9984500" lon="0.4718010">
        <ele>109.7</ele>
        <time>2020-08-07T12:56:39Z</time>
      </trkpt>
      <trkpt lat="40.9984500" lon="0.4718000">
        <ele>109.7</ele>
        <time>2020-08-07T12:56:40Z</time>
      </trkpt>
      <trkpt lat="40.9984530" lon="0.4717970">
        <ele>109.7</ele>
        <time>2020-08-07T12:56:42Z</time>
      </trkpt>
      <trkpt lat="40.9984530" lon="0.4717960">
        <ele>109.7</ele>
        <time>2020-08-07T12:56:43Z</time>
      </trkpt>
      <trkpt lat="40.9984550" lon="0.4717930">
        <ele>109.7</ele>
        <time>2020-08-07T12:56:45Z</time>
      </trkpt>
      <trkpt lat="40.9984560" lon="0.4717900">
        <ele>109.7</ele>
        <time>2020-08-07T12:56:47Z</time>
      </trkpt>
      <trkpt lat="40.9984400" lon="0.4718120">
        <ele>109.7</ele>
        <time>2020-08-07T12:58:34Z</time>
      </trkpt>
      <trkpt lat="40.9984280" lon="0.4718300">
        <ele>109.7</ele>
        <time>2020-08-07T12:58:36Z</time>
      </trkpt>
      <trkpt lat="40.9984120" lon="0.4718510">
        <ele>109.7</ele>
        <time>2020-08-07T12:58:38Z</time>
      </trkpt>
      <trkpt lat="40.9983850" lon="0.4718810">
        <ele>109.6</ele>
        <time>2020-08-07T12:58:40Z</time>
      </trkpt>
      <trkpt lat="40.9983750" lon="0.4718940">
        <ele>109.6</ele>
        <time>2020-08-07T12:58:41Z</time>
      </trkpt>
      <trkpt lat="40.9983640" lon="0.4719040">
        <ele>109.6</ele>
        <time>2020-08-07T12:58:42Z</time>
      </trkpt>
      <trkpt lat="40.9983360" lon="0.4719220">
        <ele>109.6</ele>
        <time>2020-08-07T12:58:44Z</time>
      </trkpt>
      <trkpt lat="40.9983300" lon="0.4719260">
        <ele>109.6</ele>
        <time>2020-08-07T12:58:45Z</time>
      </trkpt>
      <trkpt lat="40.9983210" lon="0.4719320">
        <ele>109.6</ele>
        <time>2020-08-07T12:58:46Z</time>
      </trkpt>
      <trkpt lat="40.9983130" lon="0.4719390">
        <ele>109.5</ele>
        <time>2020-08-07T12:58:48Z</time>
      </trkpt>
      <trkpt lat="40.9983140" lon="0.4719410">
        <ele>109.5</ele>
        <time>2020-08-07T12:58:49Z</time>
      </trkpt>
      <trkpt lat="40.9983150" lon="0.4719410">
        <ele>109.5</ele>
        <time>2020-08-07T12:58:50Z</time>
      </trkpt>
      <trkpt lat="40.9983150" lon="0.4719420">
        <ele>109.5</ele>
        <time>2020-08-07T12:58:51Z</time>
      </trkpt>
      <trkpt lat="40.9983110" lon="0.4719450">
        <ele>109.5</ele>
        <time>2020-08-07T12:58:52Z</time>
      </trkpt>
      <trkpt lat="40.9983030" lon="0.4719520">
        <ele>109.5</ele>
        <time>2020-08-07T12:58:53Z</time>
      </trkpt>
      <trkpt lat="40.9982910" lon="0.4719630">
        <ele>109.5</ele>
        <time>2020-08-07T12:58:54Z</time>
      </trkpt>
      <trkpt lat="40.9982630" lon="0.4719880">
        <ele>109.5</ele>
        <time>2020-08-07T12:58:56Z</time>
      </trkpt>
      <trkpt lat="40.9982490" lon="0.4719990">
        <ele>109.5</ele>
        <time>2020-08-07T12:58:57Z</time>
      </trkpt>
      <trkpt lat="40.9982360" lon="0.4720120">
        <ele>109.4</ele>
        <time>2020-08-07T12:58:58Z</time>
      </trkpt>
      <trkpt lat="40.9982220" lon="0.4720250">
        <ele>109.4</ele>
        <time>2020-08-07T12:58:59Z</time>
      </trkpt>
      <trkpt lat="40.9982090" lon="0.4720350">
        <ele>109.4</ele>
        <time>2020-08-07T12:59:00Z</time>
      </trkpt>
      <trkpt lat="40.9981960" lon="0.4720440">
        <ele>109.4</ele>
        <time>2020-08-07T12:59:01Z</time>
      </trkpt>
      <trkpt lat="40.9981840" lon="0.4720510">
        <ele>109.3</ele>
        <time>2020-08-07T12:59:02Z</time>
      </trkpt>
      <trkpt lat="40.9981560" lon="0.4720730">
        <ele>109.3</ele>
        <time>2020-08-07T12:59:04Z</time>
      </trkpt>
      <trkpt lat="40.9981490" lon="0.4720780">
        <ele>109.3</ele>
        <time>2020-08-07T12:59:05Z</time>
      </trkpt>
      <trkpt lat="40.9981230" lon="0.4720950">
        <ele>109.2</ele>
        <time>2020-08-07T12:59:06Z</time>
      </trkpt>
      <trkpt lat="40.9981140" lon="0.4721000">
        <ele>109.2</ele>
        <time>2020-08-07T12:59:07Z</time>
      </trkpt>
      <trkpt lat="40.9980940" lon="0.4721110">
        <ele>109.2</ele>
        <time>2020-08-07T12:59:08Z</time>
      </trkpt>
      <trkpt lat="40.9980550" lon="0.4721280">
        <ele>109.1</ele>
        <time>2020-08-07T12:59:10Z</time>
      </trkpt>
      <trkpt lat="40.9980270" lon="0.4721500">
        <ele>109.1</ele>
        <time>2020-08-07T12:59:11Z</time>
      </trkpt>
      <trkpt lat="40.9980180" lon="0.4721560">
        <ele>109.1</ele>
        <time>2020-08-07T12:59:12Z</time>
      </trkpt>
      <trkpt lat="40.9979790" lon="0.4721840">
        <ele>109.0</ele>
        <time>2020-08-07T12:59:14Z</time>
      </trkpt>
      <trkpt lat="40.9979560" lon="0.4721970">
        <ele>109.0</ele>
        <time>2020-08-07T12:59:15Z</time>
      </trkpt>
      <trkpt lat="40.9979210" lon="0.4722130">
        <ele>108.9</ele>
        <time>2020-08-07T12:59:17Z</time>
      </trkpt>
      <trkpt lat="40.9979030" lon="0.4722220">
        <ele>108.9</ele>
        <time>2020-08-07T12:59:18Z</time>
      </trkpt>
      <trkpt lat="40.9978870" lon="0.4722310">
        <ele>108.9</ele>
        <time>2020-08-07T12:59:19Z</time>
      </trkpt>
      <trkpt lat="40.9978720" lon="0.4722410">
        <ele>108.8</ele>
        <time>2020-08-07T12:59:20Z</time>
      </trkpt>
      <trkpt lat="40.9978580" lon="0.4722490">
        <ele>108.8</ele>
        <time>2020-08-07T12:59:21Z</time>
      </trkpt>
      <trkpt lat="40.9978440" lon="0.4722570">
        <ele>108.8</ele>
        <time>2020-08-07T12:59:22Z</time>
      </trkpt>
      <trkpt lat="40.9978290" lon="0.4722570">
        <ele>108.8</ele>
        <time>2020-08-07T12:59:24Z</time>
      </trkpt>
      <trkpt lat="40.9978290" lon="0.4722510">
        <ele>108.8</ele>
        <time>2020-08-07T12:59:25Z</time>
      </trkpt>
      <trkpt lat="40.9978320" lon="0.4722460">
        <ele>108.8</ele>
        <time>2020-08-07T12:59:27Z</time>
      </trkpt>
      <trkpt lat="40.9978310" lon="0.4722460">
        <ele>108.8</ele>
        <time>2020-08-07T12:59:28Z</time>
      </trkpt>
      <trkpt lat="40.9978300" lon="0.4722490">
        <ele>108.8</ele>
        <time>2020-08-07T12:59:30Z</time>
      </trkpt>
      <trkpt lat="40.9978290" lon="0.4722500">
        <ele>108.8</ele>
        <time>2020-08-07T12:59:31Z</time>
      </trkpt>
      <trkpt lat="40.9978280" lon="0.4722520">
        <ele>108.8</ele>
        <time>2020-08-07T12:59:32Z</time>
      </trkpt>
      <trkpt lat="40.9978270" lon="0.4722530">
        <ele>108.8</ele>
        <time>2020-08-07T12:59:33Z</time>
      </trkpt>
      <trkpt lat="40.9978270" lon="0.4722530">
        <ele>108.8</ele>
        <time>2020-08-07T12:59:34Z</time>
      </trkpt>
      <trkpt lat="40.9978260" lon="0.4722530">
        <ele>108.8</ele>
        <time>2020-08-07T12:59:35Z</time>
      </trkpt>
      <trkpt lat="40.9977970" lon="0.4722630">
        <ele>108.8</ele>
        <time>2020-08-07T12:59:45Z</time>
      </trkpt>
      <trkpt lat="40.9977490" lon="0.4722780">
        <ele>108.7</ele>
        <time>2020-08-07T12:59:51Z</time>
      </trkpt>
      <trkpt lat="40.9977230" lon="0.4722700">
        <ele>108.8</ele>
        <time>2020-08-07T12:59:53Z</time>
      </trkpt>
      <trkpt lat="40.9977200" lon="0.4722710">
        <ele>108.8</ele>
        <time>2020-08-07T12:59:54Z</time>
      </trkpt>
      <trkpt lat="40.9977200" lon="0.4722750">
        <ele>108.8</ele>
        <time>2020-08-07T12:59:56Z</time>
      </trkpt>
      <trkpt lat="40.9977230" lon="0.4722770">
        <ele>108.8</ele>
        <time>2020-08-07T12:59:58Z</time>
      </trkpt>
      <trkpt lat="40.9977240" lon="0.4722760">
        <ele>108.8</ele>
        <time>2020-08-07T12:59:59Z</time>
      </trkpt>
      <trkpt lat="40.9977240" lon="0.4722750">
        <ele>108.8</ele>
        <time>2020-08-07T13:00:01Z</time>
      </trkpt>
      <trkpt lat="40.9977250" lon="0.4722740">
        <ele>108.8</ele>
        <time>2020-08-07T13:00:02Z</time>
      </trkpt>
      <trkpt lat="40.9977260" lon="0.4722740">
        <ele>108.8</ele>
        <time>2020-08-07T13:00:03Z</time>
      </trkpt>
      <trkpt lat="40.9976960" lon="0.4722270">
        <ele>108.8</ele>
        <time>2020-08-07T13:00:15Z</time>
      </trkpt>
      <trkpt lat="40.9977080" lon="0.4722030">
        <ele>108.8</ele>
        <time>2020-08-07T13:00:17Z</time>
      </trkpt>
      <trkpt lat="40.9977230" lon="0.4721960">
        <ele>108.8</ele>
        <time>2020-08-07T13:00:18Z</time>
      </trkpt>
      <trkpt lat="40.9977380" lon="0.4721900">
        <ele>108.8</ele>
        <time>2020-08-07T13:00:19Z</time>
      </trkpt>
      <trkpt lat="40.9977540" lon="0.4721830">
        <ele>108.8</ele>
        <time>2020-08-07T13:00:20Z</time>
      </trkpt>
      <trkpt lat="40.9977910" lon="0.4721650">
        <ele>108.9</ele>
        <time>2020-08-07T13:00:22Z</time>
      </trkpt>
      <trkpt lat="40.9978340" lon="0.4721460">
        <ele>108.9</ele>
        <time>2020-08-07T13:00:24Z</time>
      </trkpt>
      <trkpt lat="40.9978550" lon="0.4721330">
        <ele>109.0</ele>
        <time>2020-08-07T13:00:25Z</time>
      </trkpt>
      <trkpt lat="40.9978960" lon="0.4721070">
        <ele>109.0</ele>
        <time>2020-08-07T13:00:27Z</time>
      </trkpt>
      <trkpt lat="40.9979290" lon="0.4720820">
        <ele>109.1</ele>
        <time>2020-08-07T13:00:29Z</time>
      </trkpt>
      <trkpt lat="40.9979420" lon="0.4720720">
        <ele>109.1</ele>
        <time>2020-08-07T13:00:30Z</time>
      </trkpt>
      <trkpt lat="40.9979550" lon="0.4720640">
        <ele>109.1</ele>
        <time>2020-08-07T13:00:31Z</time>
      </trkpt>
      <trkpt lat="40.9979870" lon="0.4720420">
        <ele>109.2</ele>
        <time>2020-08-07T13:00:33Z</time>
      </trkpt>
      <trkpt lat="40.9980030" lon="0.4720310">
        <ele>109.2</ele>
        <time>2020-08-07T13:00:34Z</time>
      </trkpt>
      <trkpt lat="40.9980170" lon="0.4720190">
        <ele>109.2</ele>
        <time>2020-08-07T13:00:35Z</time>
      </trkpt>
      <trkpt lat="40.9980320" lon="0.4720070">
        <ele>109.2</ele>
        <time>2020-08-07T13:00:36Z</time>
      </trkpt>
      <trkpt lat="40.9980440" lon="0.4719980">
        <ele>109.2</ele>
        <time>2020-08-07T13:00:37Z</time>
      </trkpt>
      <trkpt lat="40.9980590" lon="0.4719900">
        <ele>109.3</ele>
        <time>2020-08-07T13:00:38Z</time>
      </trkpt>
      <trkpt lat="40.9980820" lon="0.4719650">
        <ele>109.3</ele>
        <time>2020-08-07T13:00:40Z</time>
      </trkpt>
      <trkpt lat="40.9981070" lon="0.4719390">
        <ele>109.4</ele>
        <time>2020-08-07T13:00:42Z</time>
      </trkpt>
      <trkpt lat="40.9981210" lon="0.4719270">
        <ele>109.4</ele>
        <time>2020-08-07T13:00:43Z</time>
      </trkpt>
      <trkpt lat="40.9981460" lon="0.4718990">
        <ele>109.4</ele>
        <time>2020-08-07T13:00:45Z</time>
      </trkpt>
      <trkpt lat="40.9981640" lon="0.4718840">
        <ele>109.4</ele>
        <time>2020-08-07T13:00:46Z</time>
      </trkpt>
      <trkpt lat="40.9981720" lon="0.4718780">
        <ele>109.5</ele>
        <time>2020-08-07T13:00:47Z</time>
      </trkpt>
      <trkpt lat="40.9981800" lon="0.4718720">
        <ele>109.5</ele>
        <time>2020-08-07T13:00:48Z</time>
      </trkpt>
      <trkpt lat="40.9982050" lon="0.4718510">
        <ele>109.5</ele>
        <time>2020-08-07T13:00:49Z</time>
      </trkpt>
      <trkpt lat="40.9982140" lon="0.4718430">
        <ele>109.5</ele>
        <time>2020-08-07T13:00:50Z</time>
      </trkpt>
      <trkpt lat="40.9982350" lon="0.4718240">
        <ele>109.5</ele>
        <time>2020-08-07T13:00:52Z</time>
      </trkpt>
      <trkpt lat="40.9982420" lon="0.4718180">
        <ele>109.5</ele>
        <time>2020-08-07T13:00:53Z</time>
      </trkpt>
      <trkpt lat="40.9982450" lon="0.4718160">
        <ele>109.5</ele>
        <time>2020-08-07T13:00:55Z</time>
      </trkpt>
      <trkpt lat="40.9982450" lon="0.4718170">
        <ele>109.4</ele>
        <time>2020-08-07T13:00:56Z</time>
      </trkpt>
      <trkpt lat="40.9982450" lon="0.4718160">
        <ele>109.4</ele>
        <time>2020-08-07T13:00:57Z</time>
      </trkpt>
      <trkpt lat="40.9982450" lon="0.4718140">
        <ele>109.4</ele>
        <time>2020-08-07T13:00:58Z</time>
      </trkpt>
      <trkpt lat="40.9982460" lon="0.4718130">
        <ele>109.3</ele>
        <time>2020-08-07T13:00:59Z</time>
      </trkpt>
      <trkpt lat="40.9982490" lon="0.4718090">
        <ele>108.9</ele>
        <time>2020-08-07T13:01:01Z</time>
      </trkpt>
      <trkpt lat="40.9982490" lon="0.4718080">
        <ele>108.9</ele>
        <time>2020-08-07T13:01:02Z</time>
      </trkpt>
      <trkpt lat="40.9982490" lon="0.4718070">
        <ele>108.9</ele>
        <time>2020-08-07T13:01:03Z</time>
      </trkpt>
      <trkpt lat="40.9982660" lon="0.4717920">
        <ele>109.2</ele>
        <time>2020-08-07T13:05:15Z</time>
      </trkpt>
      <trkpt lat="40.9982680" lon="0.4717890">
        <ele>109.1</ele>
        <time>2020-08-07T13:05:17Z</time>
      </trkpt>
      <trkpt lat="40.9982710" lon="0.4717950">
        <ele>109.1</ele>
        <time>2020-08-07T13:05:19Z</time>
      </trkpt>
      <trkpt lat="40.9982720" lon="0.4717960">
        <ele>109.0</ele>
        <time>2020-08-07T13:05:20Z</time>
      </trkpt>
      <trkpt lat="40.9982720" lon="0.4717960">
        <ele>109.0</ele>
        <time>2020-08-07T13:05:22Z</time>
      </trkpt>
      <trkpt lat="40.9982730" lon="0.4717960">
        <ele>108.9</ele>
        <time>2020-08-07T13:05:23Z</time>
      </trkpt>
      <trkpt lat="40.9982750" lon="0.4717940">
        <ele>108.9</ele>
        <time>2020-08-07T13:05:25Z</time>
      </trkpt>
      <trkpt lat="40.9982780" lon="0.4717940">
        <ele>108.8</ele>
        <time>2020-08-07T13:05:32Z</time>
      </trkpt>
      <trkpt lat="40.9982770" lon="0.4717940">
        <ele>108.8</ele>
        <time>2020-08-07T13:05:33Z</time>
      </trkpt>
      <trkpt lat="40.9982770" lon="0.4717920">
        <ele>108.7</ele>
        <time>2020-08-07T13:05:35Z</time>
      </trkpt>
      <trkpt lat="40.9982760" lon="0.4717890">
        <ele>108.7</ele>
        <time>2020-08-07T13:05:36Z</time>
      </trkpt>
      <trkpt lat="40.9982740" lon="0.4717830">
        <ele>108.6</ele>
        <time>2020-08-07T13:05:37Z</time>
      </trkpt>
      <trkpt lat="40.9982700" lon="0.4717720">
        <ele>108.6</ele>
        <time>2020-08-07T13:05:38Z</time>
      </trkpt>
      <trkpt lat="40.9982520" lon="0.4717280">
        <ele>107.9</ele>
        <time>2020-08-07T13:05:40Z</time>
      </trkpt>
      <trkpt lat="40.9982430" lon="0.4717000">
        <ele>107.6</ele>
        <time>2020-08-07T13:05:41Z</time>
      </trkpt>
      <trkpt lat="40.9982410" lon="0.4716490">
        <ele>107.4</ele>
        <time>2020-08-07T13:05:43Z</time>
      </trkpt>
      <trkpt lat="40.9982440" lon="0.4716210">
        <ele>107.1</ele>
        <time>2020-08-07T13:05:44Z</time>
      </trkpt>
      <trkpt lat="40.9982680" lon="0.4715660">
        <ele>107.2</ele>
        <time>2020-08-07T13:05:46Z</time>
      </trkpt>
      <trkpt lat="40.9982880" lon="0.4715330">
        <ele>107.0</ele>
        <time>2020-08-07T13:05:48Z</time>
      </trkpt>
      <trkpt lat="40.9983120" lon="0.4715070">
        <ele>107.1</ele>
        <time>2020-08-07T13:05:49Z</time>
      </trkpt>
      <trkpt lat="40.9983360" lon="0.4714850">
        <ele>107.3</ele>
        <time>2020-08-07T13:05:50Z</time>
      </trkpt>
      <trkpt lat="40.9983590" lon="0.4714630">
        <ele>107.0</ele>
        <time>2020-08-07T13:05:51Z</time>
      </trkpt>
      <trkpt lat="40.9983820" lon="0.4714440">
        <ele>107.2</ele>
        <time>2020-08-07T13:05:52Z</time>
      </trkpt>
      <trkpt lat="40.9984170" lon="0.4714140">
        <ele>107.1</ele>
        <time>2020-08-07T13:05:54Z</time>
      </trkpt>
      <trkpt lat="40.9984320" lon="0.4714030">
        <ele>107.1</ele>
        <time>2020-08-07T13:05:55Z</time>
      </trkpt>
      <trkpt lat="40.9984660" lon="0.4713780">
        <ele>107.0</ele>
        <time>2020-08-07T13:05:57Z</time>
      </trkpt>
      <trkpt lat="40.9985000" lon="0.4713520">
        <ele>106.9</ele>
        <time>2020-08-07T13:05:58Z</time>
      </trkpt>
      <trkpt lat="40.9985120" lon="0.4713430">
        <ele>106.9</ele>
        <time>2020-08-07T13:05:59Z</time>
      </trkpt>
      <trkpt lat="40.9985600" lon="0.4713050">
        <ele>106.7</ele>
        <time>2020-08-07T13:06:01Z</time>
      </trkpt>
      <trkpt lat="40.9985920" lon="0.4712800">
        <ele>106.6</ele>
        <time>2020-08-07T13:06:02Z</time>
      </trkpt>
      <trkpt lat="40.9986020" lon="0.4712710">
        <ele>106.6</ele>
        <time>2020-08-07T13:06:03Z</time>
      </trkpt>
      <trkpt lat="40.9986480" lon="0.4712270">
        <ele>106.4</ele>
        <time>2020-08-07T13:06:05Z</time>
      </trkpt>
      <trkpt lat="40.9986670" lon="0.4712060">
        <ele>106.3</ele>
        <time>2020-08-07T13:06:06Z</time>
      </trkpt>
      <trkpt lat="40.9987040" lon="0.4711540">
        <ele>106.2</ele>
        <time>2020-08-07T13:06:08Z</time>
      </trkpt>
      <trkpt lat="40.9987200" lon="0.4711270">
        <ele>106.1</ele>
        <time>2020-08-07T13:06:09Z</time>
      </trkpt>
      <trkpt lat="40.9987510" lon="0.4710720">
        <ele>105.9</ele>
        <time>2020-08-07T13:06:11Z</time>
      </trkpt>
      <trkpt lat="40.9987680" lon="0.4710440">
        <ele>105.9</ele>
        <time>2020-08-07T13:06:12Z</time>
      </trkpt>
      <trkpt lat="40.9988040" lon="0.4709870">
        <ele>105.7</ele>
        <time>2020-08-07T13:06:14Z</time>
      </trkpt>
      <trkpt lat="40.9988310" lon="0.4709320">
        <ele>105.5</ele>
        <time>2020-08-07T13:06:16Z</time>
      </trkpt>
      <trkpt lat="40.9988520" lon="0.4708620">
        <ele>105.4</ele>
        <time>2020-08-07T13:06:18Z</time>
      </trkpt>
      <trkpt lat="40.9988570" lon="0.4708240">
        <ele>105.3</ele>
        <time>2020-08-07T13:06:19Z</time>
      </trkpt>
      <trkpt lat="40.9988510" lon="0.4707400">
        <ele>105.2</ele>
        <time>2020-08-07T13:06:21Z</time>
      </trkpt>
      <trkpt lat="40.9988430" lon="0.4706970">
        <ele>105.1</ele>
        <time>2020-08-07T13:06:22Z</time>
      </trkpt>
      <trkpt lat="40.9988240" lon="0.4706230">
        <ele>104.9</ele>
        <time>2020-08-07T13:06:24Z</time>
      </trkpt>
      <trkpt lat="40.9988000" lon="0.4705450">
        <ele>104.8</ele>
        <time>2020-08-07T13:06:26Z</time>
      </trkpt>
      <trkpt lat="40.9987910" lon="0.4705070">
        <ele>104.7</ele>
        <time>2020-08-07T13:06:27Z</time>
      </trkpt>
      <trkpt lat="40.9987730" lon="0.4704330">
        <ele>104.6</ele>
        <time>2020-08-07T13:06:29Z</time>
      </trkpt>
      <trkpt lat="40.9987550" lon="0.4703640">
        <ele>104.4</ele>
        <time>2020-08-07T13:06:31Z</time>
      </trkpt>
      <trkpt lat="40.9987440" lon="0.4703270">
        <ele>104.4</ele>
        <time>2020-08-07T13:06:32Z</time>
      </trkpt>
      <trkpt lat="40.9987290" lon="0.4702810">
        <ele>104.3</ele>
        <time>2020-08-07T13:06:33Z</time>
      </trkpt>
      <trkpt lat="40.9987230" lon="0.4702670">
        <ele>104.3</ele>
        <time>2020-08-07T13:06:34Z</time>
      </trkpt>
      <trkpt lat="40.9986940" lon="0.4701940">
        <ele>104.2</ele>
        <time>2020-08-07T13:06:36Z</time>
      </trkpt>
      <trkpt lat="40.9986780" lon="0.4701580">
        <ele>104.1</ele>
        <time>2020-08-07T13:06:37Z</time>
      </trkpt>
      <trkpt lat="40.9986560" lon="0.4701160">
        <ele>104.1</ele>
        <time>2020-08-07T13:06:38Z</time>
      </trkpt>
      <trkpt lat="40.9986310" lon="0.4700790">
        <ele>104.0</ele>
        <time>2020-08-07T13:06:39Z</time>
      </trkpt>
      <trkpt lat="40.9986060" lon="0.4700460">
        <ele>104.0</ele>
        <time>2020-08-07T13:06:40Z</time>
      </trkpt>
      <trkpt lat="40.9985820" lon="0.4700140">
        <ele>104.0</ele>
        <time>2020-08-07T13:06:41Z</time>
      </trkpt>
      <trkpt lat="40.9985510" lon="0.4699720">
        <ele>104.0</ele>
        <time>2020-08-07T13:06:42Z</time>
      </trkpt>
      <trkpt lat="40.9985240" lon="0.4699360">
        <ele>104.0</ele>
        <time>2020-08-07T13:06:43Z</time>
      </trkpt>
      <trkpt lat="40.9984750" lon="0.4698540">
        <ele>104.0</ele>
        <time>2020-08-07T13:06:45Z</time>
      </trkpt>
      <trkpt lat="40.9984550" lon="0.4698100">
        <ele>104.0</ele>
        <time>2020-08-07T13:06:46Z</time>
      </trkpt>
      <trkpt lat="40.9984200" lon="0.4696990">
        <ele>104.2</ele>
        <time>2020-08-07T13:06:48Z</time>
      </trkpt>
      <trkpt lat="40.9984170" lon="0.4696580">
        <ele>104.2</ele>
        <time>2020-08-07T13:06:49Z</time>
      </trkpt>
      <trkpt lat="40.9984260" lon="0.4695660">
        <ele>104.4</ele>
        <time>2020-08-07T13:06:51Z</time>
      </trkpt>
      <trkpt lat="40.9984370" lon="0.4695320">
        <ele>104.5</ele>
        <time>2020-08-07T13:06:52Z</time>
      </trkpt>
      <trkpt lat="40.9984630" lon="0.4694470">
        <ele>104.7</ele>
        <time>2020-08-07T13:06:54Z</time>
      </trkpt>
      <trkpt lat="40.9984770" lon="0.4694140">
        <ele>104.8</ele>
        <time>2020-08-07T13:06:55Z</time>
      </trkpt>
      <trkpt lat="40.9985030" lon="0.4693630">
        <ele>105.0</ele>
        <time>2020-08-07T13:06:57Z</time>
      </trkpt>
      <trkpt lat="40.9985150" lon="0.4693310">
        <ele>105.1</ele>
        <time>2020-08-07T13:06:58Z</time>
      </trkpt>
      <trkpt lat="40.9985330" lon="0.4692780">
        <ele>105.4</ele>
        <time>2020-08-07T13:07:00Z</time>
      </trkpt>
      <trkpt lat="40.9985420" lon="0.4692520">
        <ele>105.5</ele>
        <time>2020-08-07T13:07:01Z</time>
      </trkpt>
      <trkpt lat="40.9985490" lon="0.4692120">
        <ele>105.7</ele>
        <time>2020-08-07T13:07:03Z</time>
      </trkpt>
      <trkpt lat="40.9985460" lon="0.4692000">
        <ele>105.8</ele>
        <time>2020-08-07T13:07:04Z</time>
      </trkpt>
      <trkpt lat="40.9985460" lon="0.4691830">
        <ele>105.9</ele>
        <time>2020-08-07T13:07:05Z</time>
      </trkpt>
      <trkpt lat="40.9985560" lon="0.4691520">
        <ele>106.0</ele>
        <time>2020-08-07T13:07:07Z</time>
      </trkpt>
      <trkpt lat="40.9985600" lon="0.4691420">
        <ele>106.1</ele>
        <time>2020-08-07T13:07:08Z</time>
      </trkpt>
      <trkpt lat="40.9985620" lon="0.4691270">
        <ele>106.2</ele>
        <time>2020-08-07T13:07:09Z</time>
      </trkpt>
      <trkpt lat="40.9985610" lon="0.4691140">
        <ele>106.2</ele>
        <time>2020-08-07T13:07:10Z</time>
      </trkpt>
      <trkpt lat="40.9985620" lon="0.4690740">
        <ele>106.4</ele>
        <time>2020-08-07T13:07:12Z</time>
      </trkpt>
      <trkpt lat="40.9985770" lon="0.4690670">
        <ele>106.5</ele>
        <time>2020-08-07T13:07:13Z</time>
      </trkpt>
      <trkpt lat="40.9985980" lon="0.4690710">
        <ele>106.6</ele>
        <time>2020-08-07T13:07:14Z</time>
      </trkpt>
      <trkpt lat="40.9986350" lon="0.4690960">
        <ele>106.9</ele>
        <time>2020-08-07T13:07:16Z</time>
      </trkpt>
      <trkpt lat="40.9986640" lon="0.4691230">
        <ele>107.1</ele>
        <time>2020-08-07T13:07:17Z</time>
      </trkpt>
      <trkpt lat="40.9986740" lon="0.4691330">
        <ele>107.2</ele>
        <time>2020-08-07T13:07:18Z</time>
      </trkpt>
      <trkpt lat="40.9986930" lon="0.4691520">
        <ele>107.3</ele>
        <time>2020-08-07T13:07:19Z</time>
      </trkpt>
      <trkpt lat="40.9987270" lon="0.4691870">
        <ele>107.5</ele>
        <time>2020-08-07T13:07:21Z</time>
      </trkpt>
      <trkpt lat="40.9987520" lon="0.4692130">
        <ele>107.7</ele>
        <time>2020-08-07T13:07:22Z</time>
      </trkpt>
      <trkpt lat="40.9987590" lon="0.4692230">
        <ele>107.7</ele>
        <time>2020-08-07T13:07:23Z</time>
      </trkpt>
      <trkpt lat="40.9987830" lon="0.4692490">
        <ele>107.9</ele>
        <time>2020-08-07T13:07:24Z</time>
      </trkpt>
      <trkpt lat="40.9987910" lon="0.4692590">
        <ele>108.0</ele>
        <time>2020-08-07T13:07:25Z</time>
      </trkpt>
      <trkpt lat="40.9988200" lon="0.4692940">
        <ele>108.2</ele>
        <time>2020-08-07T13:07:27Z</time>
      </trkpt>
      <trkpt lat="40.9988580" lon="0.4693670">
        <ele>108.5</ele>
        <time>2020-08-07T13:07:28Z</time>
      </trkpt>
      <trkpt lat="40.9988790" lon="0.4694220">
        <ele>108.7</ele>
        <time>2020-08-07T13:07:35Z</time>
      </trkpt>
      <trkpt lat="40.9989000" lon="0.4694780">
        <ele>108.9</ele>
        <time>2020-08-07T13:07:36Z</time>
      </trkpt>
      <trkpt lat="40.9989210" lon="0.4695330">
        <ele>109.1</ele>
        <time>2020-08-07T13:07:37Z</time>
      </trkpt>
      <trkpt lat="40.9989280" lon="0.4695740">
        <ele>109.3</ele>
        <time>2020-08-07T13:07:38Z</time>
      </trkpt>
      <trkpt lat="40.9989310" lon="0.4696110">
        <ele>109.4</ele>
        <time>2020-08-07T13:07:39Z</time>
      </trkpt>
      <trkpt lat="40.9989320" lon="0.4696530">
        <ele>109.5</ele>
        <time>2020-08-07T13:07:40Z</time>
      </trkpt>
      <trkpt lat="40.9989320" lon="0.4696650">
        <ele>109.6</ele>
        <time>2020-08-07T13:07:41Z</time>
      </trkpt>
      <trkpt lat="40.9989310" lon="0.4697160">
        <ele>109.8</ele>
        <time>2020-08-07T13:07:43Z</time>
      </trkpt>
      <trkpt lat="40.9989280" lon="0.4697810">
        <ele>110.1</ele>
        <time>2020-08-07T13:07:45Z</time>
      </trkpt>
      <trkpt lat="40.9989270" lon="0.4698010">
        <ele>110.1</ele>
        <time>2020-08-07T13:07:46Z</time>
      </trkpt>
      <trkpt lat="40.9989260" lon="0.4698200">
        <ele>110.2</ele>
        <time>2020-08-07T13:07:47Z</time>
      </trkpt>
      <trkpt lat="40.9989240" lon="0.4698680">
        <ele>110.4</ele>
        <time>2020-08-07T13:07:49Z</time>
      </trkpt>
      <trkpt lat="40.9989280" lon="0.4699340">
        <ele>110.7</ele>
        <time>2020-08-07T13:07:51Z</time>
      </trkpt>
      <trkpt lat="40.9989310" lon="0.4699540">
        <ele>110.8</ele>
        <time>2020-08-07T13:07:52Z</time>
      </trkpt>
      <trkpt lat="40.9989340" lon="0.4699750">
        <ele>110.9</ele>
        <time>2020-08-07T13:07:53Z</time>
      </trkpt>
      <trkpt lat="40.9989390" lon="0.4700010">
        <ele>111.0</ele>
        <time>2020-08-07T13:07:54Z</time>
      </trkpt>
      <trkpt lat="40.9989490" lon="0.4700590">
        <ele>111.2</ele>
        <time>2020-08-07T13:07:56Z</time>
      </trkpt>
      <trkpt lat="40.9989590" lon="0.4700960">
        <ele>111.4</ele>
        <time>2020-08-07T13:07:57Z</time>
      </trkpt>
      <trkpt lat="40.9989630" lon="0.4701090">
        <ele>111.4</ele>
        <time>2020-08-07T13:07:58Z</time>
      </trkpt>
      <trkpt lat="40.9989850" lon="0.4701620">
        <ele>111.6</ele>
        <time>2020-08-07T13:08:00Z</time>
      </trkpt>
      <trkpt lat="40.9989970" lon="0.4701860">
        <ele>111.8</ele>
        <time>2020-08-07T13:08:01Z</time>
      </trkpt>
      <trkpt lat="40.9990240" lon="0.4702320">
        <ele>112.0</ele>
        <time>2020-08-07T13:08:03Z</time>
      </trkpt>
      <trkpt lat="40.9990440" lon="0.4702620">
        <ele>112.1</ele>
        <time>2020-08-07T13:08:04Z</time>
      </trkpt>
      <trkpt lat="40.9990500" lon="0.4702710">
        <ele>112.2</ele>
        <time>2020-08-07T13:08:05Z</time>
      </trkpt>
      <trkpt lat="40.9990780" lon="0.4703130">
        <ele>112.4</ele>
        <time>2020-08-07T13:08:07Z</time>
      </trkpt>
      <trkpt lat="40.9991000" lon="0.4703560">
        <ele>112.6</ele>
        <time>2020-08-07T13:08:09Z</time>
      </trkpt>
      <trkpt lat="40.9991220" lon="0.4703930">
        <ele>112.8</ele>
        <time>2020-08-07T13:08:10Z</time>
      </trkpt>
      <trkpt lat="40.9991290" lon="0.4704060">
        <ele>112.9</ele>
        <time>2020-08-07T13:08:11Z</time>
      </trkpt>
      <trkpt lat="40.9991590" lon="0.4704480">
        <ele>113.1</ele>
        <time>2020-08-07T13:08:13Z</time>
      </trkpt>
      <trkpt lat="40.9991840" lon="0.4704780">
        <ele>113.3</ele>
        <time>2020-08-07T13:08:14Z</time>
      </trkpt>
      <trkpt lat="40.9991920" lon="0.4704880">
        <ele>113.3</ele>
        <time>2020-08-07T13:08:15Z</time>
      </trkpt>
      <trkpt lat="40.9992230" lon="0.4705280">
        <ele>113.5</ele>
        <time>2020-08-07T13:08:17Z</time>
      </trkpt>
      <trkpt lat="40.9992510" lon="0.4705680">
        <ele>113.7</ele>
        <time>2020-08-07T13:08:19Z</time>
      </trkpt>
      <trkpt lat="40.9992700" lon="0.4706000">
        <ele>113.9</ele>
        <time>2020-08-07T13:08:20Z</time>
      </trkpt>
      <trkpt lat="40.9992750" lon="0.4706090">
        <ele>113.9</ele>
        <time>2020-08-07T13:08:21Z</time>
      </trkpt>
      <trkpt lat="40.9992970" lon="0.4706440">
        <ele>114.1</ele>
        <time>2020-08-07T13:08:22Z</time>
      </trkpt>
      <trkpt lat="40.9993040" lon="0.4706570">
        <ele>114.1</ele>
        <time>2020-08-07T13:08:23Z</time>
      </trkpt>
      <trkpt lat="40.9993230" lon="0.4706870">
        <ele>114.3</ele>
        <time>2020-08-07T13:08:24Z</time>
      </trkpt>
      <trkpt lat="40.9993300" lon="0.4706990">
        <ele>114.3</ele>
        <time>2020-08-07T13:08:25Z</time>
      </trkpt>
      <trkpt lat="40.9993430" lon="0.4707190">
        <ele>114.4</ele>
        <time>2020-08-07T13:08:26Z</time>
      </trkpt>
      <trkpt lat="40.9993740" lon="0.4707650">
        <ele>114.7</ele>
        <time>2020-08-07T13:08:28Z</time>
      </trkpt>
      <trkpt lat="40.9994060" lon="0.4708100">
        <ele>114.9</ele>
        <time>2020-08-07T13:08:30Z</time>
      </trkpt>
      <trkpt lat="40.9994300" lon="0.4708450">
        <ele>115.1</ele>
        <time>2020-08-07T13:08:31Z</time>
      </trkpt>
      <trkpt lat="40.9994370" lon="0.4708570">
        <ele>115.1</ele>
        <time>2020-08-07T13:08:32Z</time>
      </trkpt>
      <trkpt lat="40.9994480" lon="0.4708750">
        <ele>115.2</ele>
        <time>2020-08-07T13:08:33Z</time>
      </trkpt>
      <trkpt lat="40.9994820" lon="0.4709300">
        <ele>115.4</ele>
        <time>2020-08-07T13:08:35Z</time>
      </trkpt>
      <trkpt lat="40.9995040" lon="0.4709660">
        <ele>115.6</ele>
        <time>2020-08-07T13:08:36Z</time>
      </trkpt>
      <trkpt lat="40.9995120" lon="0.4709810">
        <ele>115.7</ele>
        <time>2020-08-07T13:08:37Z</time>
      </trkpt>
      <trkpt lat="40.9995360" lon="0.4710230">
        <ele>115.8</ele>
        <time>2020-08-07T13:08:38Z</time>
      </trkpt>
      <trkpt lat="40.9995430" lon="0.4710380">
        <ele>115.9</ele>
        <time>2020-08-07T13:08:39Z</time>
      </trkpt>
      <trkpt lat="40.9995560" lon="0.4710660">
        <ele>116.0</ele>
        <time>2020-08-07T13:08:40Z</time>
      </trkpt>
      <trkpt lat="40.9995810" lon="0.4711240">
        <ele>116.2</ele>
        <time>2020-08-07T13:08:42Z</time>
      </trkpt>
      <trkpt lat="40.9995980" lon="0.4711660">
        <ele>116.4</ele>
        <time>2020-08-07T13:08:43Z</time>
      </trkpt>
      <trkpt lat="40.9996030" lon="0.4711800">
        <ele>116.4</ele>
        <time>2020-08-07T13:08:44Z</time>
      </trkpt>
      <trkpt lat="40.9996210" lon="0.4712300">
        <ele>116.6</ele>
        <time>2020-08-07T13:08:46Z</time>
      </trkpt>
      <trkpt lat="40.9996360" lon="0.4712740">
        <ele>116.8</ele>
        <time>2020-08-07T13:08:47Z</time>
      </trkpt>
      <trkpt lat="40.9996390" lon="0.4712870">
        <ele>116.8</ele>
        <time>2020-08-07T13:08:48Z</time>
      </trkpt>
      <trkpt lat="40.9996490" lon="0.4713190">
        <ele>116.9</ele>
        <time>2020-08-07T13:08:49Z</time>
      </trkpt>
      <trkpt lat="40.9996660" lon="0.4713810">
        <ele>117.2</ele>
        <time>2020-08-07T13:08:51Z</time>
      </trkpt>
      <trkpt lat="40.9996750" lon="0.4714220">
        <ele>117.3</ele>
        <time>2020-08-07T13:08:52Z</time>
      </trkpt>
      <trkpt lat="40.9996780" lon="0.4714370">
        <ele>117.3</ele>
        <time>2020-08-07T13:08:53Z</time>
      </trkpt>
      <trkpt lat="40.9996850" lon="0.4714840">
        <ele>117.5</ele>
        <time>2020-08-07T13:08:54Z</time>
      </trkpt>
      <trkpt lat="40.9996870" lon="0.4715000">
        <ele>117.5</ele>
        <time>2020-08-07T13:08:55Z</time>
      </trkpt>
      <trkpt lat="40.9996900" lon="0.4715320">
        <ele>117.6</ele>
        <time>2020-08-07T13:08:56Z</time>
      </trkpt>
      <trkpt lat="40.9996930" lon="0.4716030">
        <ele>117.9</ele>
        <time>2020-08-07T13:08:58Z</time>
      </trkpt>
      <trkpt lat="40.9996920" lon="0.4716320">
        <ele>117.9</ele>
        <time>2020-08-07T13:08:59Z</time>
      </trkpt>
      <trkpt lat="40.9996830" lon="0.4716900">
        <ele>118.1</ele>
        <time>2020-08-07T13:09:01Z</time>
      </trkpt>
      <trkpt lat="40.9996670" lon="0.4717480">
        <ele>118.3</ele>
        <time>2020-08-07T13:09:03Z</time>
      </trkpt>
      <trkpt lat="40.9996520" lon="0.4717880">
        <ele>118.4</ele>
        <time>2020-08-07T13:09:04Z</time>
      </trkpt>
      <trkpt lat="40.9996470" lon="0.4717980">
        <ele>118.5</ele>
        <time>2020-08-07T13:09:05Z</time>
      </trkpt>
      <trkpt lat="40.9996350" lon="0.4718280">
        <ele>118.6</ele>
        <time>2020-08-07T13:09:06Z</time>
      </trkpt>
      <trkpt lat="40.9996100" lon="0.4718810">
        <ele>118.7</ele>
        <time>2020-08-07T13:09:08Z</time>
      </trkpt>
      <trkpt lat="40.9995920" lon="0.4719170">
        <ele>118.9</ele>
        <time>2020-08-07T13:09:09Z</time>
      </trkpt>
      <trkpt lat="40.9995860" lon="0.4719270">
        <ele>118.9</ele>
        <time>2020-08-07T13:09:10Z</time>
      </trkpt>
      <trkpt lat="40.9995590" lon="0.4719780">
        <ele>119.1</ele>
        <time>2020-08-07T13:09:12Z</time>
      </trkpt>
      <trkpt lat="40.9995300" lon="0.4720300">
        <ele>119.4</ele>
        <time>2020-08-07T13:09:14Z</time>
      </trkpt>
      <trkpt lat="40.9995100" lon="0.4720630">
        <ele>119.6</ele>
        <time>2020-08-07T13:09:15Z</time>
      </trkpt>
      <trkpt lat="40.9995010" lon="0.4720770">
        <ele>119.6</ele>
        <time>2020-08-07T13:09:16Z</time>
      </trkpt>
      <trkpt lat="40.9994860" lon="0.4721040">
        <ele>119.7</ele>
        <time>2020-08-07T13:09:17Z</time>
      </trkpt>
      <trkpt lat="40.9994600" lon="0.4721460">
        <ele>119.9</ele>
        <time>2020-08-07T13:09:19Z</time>
      </trkpt>
      <trkpt lat="40.9994390" lon="0.4721790">
        <ele>120.1</ele>
        <time>2020-08-07T13:09:20Z</time>
      </trkpt>
      <trkpt lat="40.9994310" lon="0.4721900">
        <ele>120.1</ele>
        <time>2020-08-07T13:09:21Z</time>
      </trkpt>
      <trkpt lat="40.9994150" lon="0.4722130">
        <ele>120.2</ele>
        <time>2020-08-07T13:09:22Z</time>
      </trkpt>
      <trkpt lat="40.9993790" lon="0.4722610">
        <ele>120.4</ele>
        <time>2020-08-07T13:09:24Z</time>
      </trkpt>
      <trkpt lat="40.9993530" lon="0.4722940">
        <ele>120.6</ele>
        <time>2020-08-07T13:09:25Z</time>
      </trkpt>
      <trkpt lat="40.9993450" lon="0.4723020">
        <ele>120.6</ele>
        <time>2020-08-07T13:09:26Z</time>
      </trkpt>
      <trkpt lat="40.9993250" lon="0.4723250">
        <ele>120.7</ele>
        <time>2020-08-07T13:09:27Z</time>
      </trkpt>
      <trkpt lat="40.9992860" lon="0.4723630">
        <ele>120.9</ele>
        <time>2020-08-07T13:09:29Z</time>
      </trkpt>
      <trkpt lat="40.9992620" lon="0.4723850">
        <ele>121.0</ele>
        <time>2020-08-07T13:09:30Z</time>
      </trkpt>
      <trkpt lat="40.9992510" lon="0.4723940">
        <ele>121.1</ele>
        <time>2020-08-07T13:09:31Z</time>
      </trkpt>
      <trkpt lat="40.9992340" lon="0.4724050">
        <ele>121.1</ele>
        <time>2020-08-07T13:09:32Z</time>
      </trkpt>
      <trkpt lat="40.9991980" lon="0.4724300">
        <ele>121.3</ele>
        <time>2020-08-07T13:09:34Z</time>
      </trkpt>
      <trkpt lat="40.9991550" lon="0.4724530">
        <ele>121.5</ele>
        <time>2020-08-07T13:09:36Z</time>
      </trkpt>
      <trkpt lat="40.9991370" lon="0.4724600">
        <ele>121.6</ele>
        <time>2020-08-07T13:09:37Z</time>
      </trkpt>
      <trkpt lat="40.9990950" lon="0.4724730">
        <ele>121.8</ele>
        <time>2020-08-07T13:09:39Z</time>
      </trkpt>
      <trkpt lat="40.9990610" lon="0.4724790">
        <ele>122.0</ele>
        <time>2020-08-07T13:09:40Z</time>
      </trkpt>
      <trkpt lat="40.9990510" lon="0.4724800">
        <ele>122.0</ele>
        <time>2020-08-07T13:09:41Z</time>
      </trkpt>
      <trkpt lat="40.9990160" lon="0.4724840">
        <ele>122.2</ele>
        <time>2020-08-07T13:09:42Z</time>
      </trkpt>
      <trkpt lat="40.9990060" lon="0.4724840">
        <ele>122.2</ele>
        <time>2020-08-07T13:09:43Z</time>
      </trkpt>
      <trkpt lat="40.9989830" lon="0.4724860">
        <ele>122.3</ele>
        <time>2020-08-07T13:09:44Z</time>
      </trkpt>
      <trkpt lat="40.9989410" lon="0.4724860">
        <ele>122.5</ele>
        <time>2020-08-07T13:09:46Z</time>
      </trkpt>
      <trkpt lat="40.9989090" lon="0.4724870">
        <ele>122.6</ele>
        <time>2020-08-07T13:09:47Z</time>
      </trkpt>
      <trkpt lat="40.9988980" lon="0.4724870">
        <ele>122.7</ele>
        <time>2020-08-07T13:09:48Z</time>
      </trkpt>
      <trkpt lat="40.9988770" lon="0.4724850">
        <ele>122.8</ele>
        <time>2020-08-07T13:09:49Z</time>
      </trkpt>
      <trkpt lat="40.9988370" lon="0.4724820">
        <ele>122.9</ele>
        <time>2020-08-07T13:09:51Z</time>
      </trkpt>
      <trkpt lat="40.9987950" lon="0.4724800">
        <ele>123.1</ele>
        <time>2020-08-07T13:09:53Z</time>
      </trkpt>
      <trkpt lat="40.9987680" lon="0.4724780">
        <ele>123.2</ele>
        <time>2020-08-07T13:09:54Z</time>
      </trkpt>
      <trkpt lat="40.9987560" lon="0.4724780">
        <ele>123.3</ele>
        <time>2020-08-07T13:09:55Z</time>
      </trkpt>
      <trkpt lat="40.9987190" lon="0.4724810">
        <ele>123.5</ele>
        <time>2020-08-07T13:09:57Z</time>
      </trkpt>
      <trkpt lat="40.9987010" lon="0.4724830">
        <ele>123.6</ele>
        <time>2020-08-07T13:09:58Z</time>
      </trkpt>
      <trkpt lat="40.9986600" lon="0.4724920">
        <ele>123.8</ele>
        <time>2020-08-07T13:10:00Z</time>
      </trkpt>
      <trkpt lat="40.9986370" lon="0.4725000">
        <ele>123.9</ele>
        <time>2020-08-07T13:10:01Z</time>
      </trkpt>
      <trkpt lat="40.9986040" lon="0.4725170">
        <ele>124.1</ele>
        <time>2020-08-07T13:10:03Z</time>
      </trkpt>
      <trkpt lat="40.9985750" lon="0.4725440">
        <ele>124.3</ele>
        <time>2020-08-07T13:10:04Z</time>
      </trkpt>
      <trkpt lat="40.9985650" lon="0.4725540">
        <ele>124.3</ele>
        <time>2020-08-07T13:10:05Z</time>
      </trkpt>
      <trkpt lat="40.9985350" lon="0.4725970">
        <ele>124.6</ele>
        <time>2020-08-07T13:10:07Z</time>
      </trkpt>
      <trkpt lat="40.9985240" lon="0.4726180">
        <ele>124.7</ele>
        <time>2020-08-07T13:10:08Z</time>
      </trkpt>
      <trkpt lat="40.9985000" lon="0.4726710">
        <ele>124.9</ele>
        <time>2020-08-07T13:10:10Z</time>
      </trkpt>
      <trkpt lat="40.9984890" lon="0.4727030">
        <ele>125.1</ele>
        <time>2020-08-07T13:10:11Z</time>
      </trkpt>
      <trkpt lat="40.9984750" lon="0.4727640">
        <ele>125.3</ele>
        <time>2020-08-07T13:10:13Z</time>
      </trkpt>
      <trkpt lat="40.9984710" lon="0.4728120">
        <ele>125.5</ele>
        <time>2020-08-07T13:10:14Z</time>
      </trkpt>
      <trkpt lat="40.9984690" lon="0.4728260">
        <ele>125.5</ele>
        <time>2020-08-07T13:10:15Z</time>
      </trkpt>
      <trkpt lat="40.9984650" lon="0.4728810">
        <ele>125.7</ele>
        <time>2020-08-07T13:10:17Z</time>
      </trkpt>
      <trkpt lat="40.9984620" lon="0.4729120">
        <ele>125.9</ele>
        <time>2020-08-07T13:10:18Z</time>
      </trkpt>
      <trkpt lat="40.9984590" lon="0.4729670">
        <ele>126.1</ele>
        <time>2020-08-07T13:10:20Z</time>
      </trkpt>
      <trkpt lat="40.9984570" lon="0.4730000">
        <ele>126.2</ele>
        <time>2020-08-07T13:10:21Z</time>
      </trkpt>
      <trkpt lat="40.9984540" lon="0.4730550">
        <ele>126.4</ele>
        <time>2020-08-07T13:10:23Z</time>
      </trkpt>
      <trkpt lat="40.9984500" lon="0.4731010">
        <ele>126.6</ele>
        <time>2020-08-07T13:10:24Z</time>
      </trkpt>
      <trkpt lat="40.9984490" lon="0.4731160">
        <ele>126.7</ele>
        <time>2020-08-07T13:10:25Z</time>
      </trkpt>
      <trkpt lat="40.9984430" lon="0.4731730">
        <ele>126.9</ele>
        <time>2020-08-07T13:10:27Z</time>
      </trkpt>
      <trkpt lat="40.9984390" lon="0.4732260">
        <ele>127.1</ele>
        <time>2020-08-07T13:10:29Z</time>
      </trkpt>
      <trkpt lat="40.9984370" lon="0.4732610">
        <ele>127.3</ele>
        <time>2020-08-07T13:10:30Z</time>
      </trkpt>
      <trkpt lat="40.9984300" lon="0.4733160">
        <ele>127.5</ele>
        <time>2020-08-07T13:10:32Z</time>
      </trkpt>
      <trkpt lat="40.9984260" lon="0.4733630">
        <ele>127.7</ele>
        <time>2020-08-07T13:10:33Z</time>
      </trkpt>
      <trkpt lat="40.9984240" lon="0.4733790">
        <ele>127.7</ele>
        <time>2020-08-07T13:10:34Z</time>
      </trkpt>
      <trkpt lat="40.9984200" lon="0.4734080">
        <ele>127.9</ele>
        <time>2020-08-07T13:10:35Z</time>
      </trkpt>
      <trkpt lat="40.9984110" lon="0.4734630">
        <ele>128.1</ele>
        <time>2020-08-07T13:10:37Z</time>
      </trkpt>
      <trkpt lat="40.9984030" lon="0.4735020">
        <ele>128.2</ele>
        <time>2020-08-07T13:10:38Z</time>
      </trkpt>
      <trkpt lat="40.9984000" lon="0.4735140">
        <ele>128.3</ele>
        <time>2020-08-07T13:10:39Z</time>
      </trkpt>
      <trkpt lat="40.9983870" lon="0.4735670">
        <ele>128.5</ele>
        <time>2020-08-07T13:10:41Z</time>
      </trkpt>
      <trkpt lat="40.9983770" lon="0.4736060">
        <ele>128.7</ele>
        <time>2020-08-07T13:10:42Z</time>
      </trkpt>
      <trkpt lat="40.9983730" lon="0.4736200">
        <ele>128.7</ele>
        <time>2020-08-07T13:10:43Z</time>
      </trkpt>
      <trkpt lat="40.9983650" lon="0.4736490">
        <ele>128.8</ele>
        <time>2020-08-07T13:10:44Z</time>
      </trkpt>
      <trkpt lat="40.9983490" lon="0.4737010">
        <ele>129.0</ele>
        <time>2020-08-07T13:10:46Z</time>
      </trkpt>
      <trkpt lat="40.9983350" lon="0.4737380">
        <ele>129.2</ele>
        <time>2020-08-07T13:10:47Z</time>
      </trkpt>
      <trkpt lat="40.9983310" lon="0.4737480">
        <ele>129.2</ele>
        <time>2020-08-07T13:10:48Z</time>
      </trkpt>
      <trkpt lat="40.9983190" lon="0.4737750">
        <ele>129.3</ele>
        <time>2020-08-07T13:10:49Z</time>
      </trkpt>
      <trkpt lat="40.9982970" lon="0.4738210">
        <ele>129.6</ele>
        <time>2020-08-07T13:10:51Z</time>
      </trkpt>
      <trkpt lat="40.9982700" lon="0.4738720">
        <ele>129.8</ele>
        <time>2020-08-07T13:10:53Z</time>
      </trkpt>
      <trkpt lat="40.9982480" lon="0.4739030">
        <ele>130.0</ele>
        <time>2020-08-07T13:10:54Z</time>
      </trkpt>
      <trkpt lat="40.9982410" lon="0.4739140">
        <ele>130.0</ele>
        <time>2020-08-07T13:10:55Z</time>
      </trkpt>
      <trkpt lat="40.9982070" lon="0.4739640">
        <ele>130.3</ele>
        <time>2020-08-07T13:10:57Z</time>
      </trkpt>
      <trkpt lat="40.9981970" lon="0.4739780">
        <ele>130.4</ele>
        <time>2020-08-07T13:10:58Z</time>
      </trkpt>
      <trkpt lat="40.9981860" lon="0.4739920">
        <ele>130.4</ele>
        <time>2020-08-07T13:10:59Z</time>
      </trkpt>
      <trkpt lat="40.9981640" lon="0.4740170">
        <ele>130.6</ele>
        <time>2020-08-07T13:11:00Z</time>
      </trkpt>
      <trkpt lat="40.9981560" lon="0.4740260">
        <ele>130.6</ele>
        <time>2020-08-07T13:11:01Z</time>
      </trkpt>
      <trkpt lat="40.9981380" lon="0.4740460">
        <ele>130.7</ele>
        <time>2020-08-07T13:11:02Z</time>
      </trkpt>
      <trkpt lat="40.9981050" lon="0.4740840">
        <ele>131.0</ele>
        <time>2020-08-07T13:11:04Z</time>
      </trkpt>
      <trkpt lat="40.9980780" lon="0.4741100">
        <ele>131.1</ele>
        <time>2020-08-07T13:11:05Z</time>
      </trkpt>
      <trkpt lat="40.9980700" lon="0.4741170">
        <ele>131.2</ele>
        <time>2020-08-07T13:11:06Z</time>
      </trkpt>
      <trkpt lat="40.9980410" lon="0.4741430">
        <ele>131.3</ele>
        <time>2020-08-07T13:11:07Z</time>
      </trkpt>
      <trkpt lat="40.9980310" lon="0.4741510">
        <ele>131.4</ele>
        <time>2020-08-07T13:11:08Z</time>
      </trkpt>
      <trkpt lat="40.9979930" lon="0.4741750">
        <ele>131.6</ele>
        <time>2020-08-07T13:11:10Z</time>
      </trkpt>
      <trkpt lat="40.9979690" lon="0.4741880">
        <ele>131.7</ele>
        <time>2020-08-07T13:11:11Z</time>
      </trkpt>
      <trkpt lat="40.9979220" lon="0.4742030">
        <ele>132.0</ele>
        <time>2020-08-07T13:11:13Z</time>
      </trkpt>
      <trkpt lat="40.9978810" lon="0.4742130">
        <ele>132.2</ele>
        <time>2020-08-07T13:11:15Z</time>
      </trkpt>
      <trkpt lat="40.9978530" lon="0.4742210">
        <ele>132.3</ele>
        <time>2020-08-07T13:11:16Z</time>
      </trkpt>
      <trkpt lat="40.9978440" lon="0.4742230">
        <ele>132.4</ele>
        <time>2020-08-07T13:11:17Z</time>
      </trkpt>
      <trkpt lat="40.9978240" lon="0.4742270">
        <ele>132.5</ele>
        <time>2020-08-07T13:11:18Z</time>
      </trkpt>
      <trkpt lat="40.9977880" lon="0.4742450">
        <ele>132.7</ele>
        <time>2020-08-07T13:11:20Z</time>
      </trkpt>
      <trkpt lat="40.9977640" lon="0.4742590">
        <ele>132.9</ele>
        <time>2020-08-07T13:11:21Z</time>
      </trkpt>
      <trkpt lat="40.9977220" lon="0.4742920">
        <ele>133.3</ele>
        <time>2020-08-07T13:11:23Z</time>
      </trkpt>
      <trkpt lat="40.9976970" lon="0.4743180">
        <ele>133.5</ele>
        <time>2020-08-07T13:11:24Z</time>
      </trkpt>
      <trkpt lat="40.9976880" lon="0.4743270">
        <ele>133.6</ele>
        <time>2020-08-07T13:11:25Z</time>
      </trkpt>
      <trkpt lat="40.9976560" lon="0.4743690">
        <ele>133.9</ele>
        <time>2020-08-07T13:11:27Z</time>
      </trkpt>
      <trkpt lat="40.9976450" lon="0.4743900">
        <ele>134.0</ele>
        <time>2020-08-07T13:11:28Z</time>
      </trkpt>
      <trkpt lat="40.9976270" lon="0.4744440">
        <ele>134.3</ele>
        <time>2020-08-07T13:11:30Z</time>
      </trkpt>
      <trkpt lat="40.9976230" lon="0.4744650">
        <ele>134.3</ele>
        <time>2020-08-07T13:11:31Z</time>
      </trkpt>
      <trkpt lat="40.9976120" lon="0.4745300">
        <ele>134.6</ele>
        <time>2020-08-07T13:11:33Z</time>
      </trkpt>
      <trkpt lat="40.9976100" lon="0.4745740">
        <ele>134.8</ele>
        <time>2020-08-07T13:11:34Z</time>
      </trkpt>
      <trkpt lat="40.9976080" lon="0.4745920">
        <ele>134.8</ele>
        <time>2020-08-07T13:11:35Z</time>
      </trkpt>
      <trkpt lat="40.9976040" lon="0.4746410">
        <ele>135.0</ele>
        <time>2020-08-07T13:11:36Z</time>
      </trkpt>
      <trkpt lat="40.9976030" lon="0.4746580">
        <ele>135.1</ele>
        <time>2020-08-07T13:11:37Z</time>
      </trkpt>
      <trkpt lat="40.9976010" lon="0.4746920">
        <ele>135.2</ele>
        <time>2020-08-07T13:11:38Z</time>
      </trkpt>
      <trkpt lat="40.9976020" lon="0.4747500">
        <ele>135.4</ele>
        <time>2020-08-07T13:11:40Z</time>
      </trkpt>
      <trkpt lat="40.9976030" lon="0.4747860">
        <ele>135.5</ele>
        <time>2020-08-07T13:11:41Z</time>
      </trkpt>
      <trkpt lat="40.9976080" lon="0.4748360">
        <ele>135.7</ele>
        <time>2020-08-07T13:11:42Z</time>
      </trkpt>
      <trkpt lat="40.9976090" lon="0.4748530">
        <ele>135.8</ele>
        <time>2020-08-07T13:11:43Z</time>
      </trkpt>
      <trkpt lat="40.9976130" lon="0.4749190">
        <ele>136.1</ele>
        <time>2020-08-07T13:11:45Z</time>
      </trkpt>
      <trkpt lat="40.9976170" lon="0.4749770">
        <ele>136.3</ele>
        <time>2020-08-07T13:11:47Z</time>
      </trkpt>
      <trkpt lat="40.9976190" lon="0.4750140">
        <ele>136.4</ele>
        <time>2020-08-07T13:11:48Z</time>
      </trkpt>
      <trkpt lat="40.9976230" lon="0.4750460">
        <ele>136.6</ele>
        <time>2020-08-07T13:11:49Z</time>
      </trkpt>
      <trkpt lat="40.9976310" lon="0.4751150">
        <ele>136.8</ele>
        <time>2020-08-07T13:11:51Z</time>
      </trkpt>
      <trkpt lat="40.9976360" lon="0.4751580">
        <ele>137.0</ele>
        <time>2020-08-07T13:11:52Z</time>
      </trkpt>
      <trkpt lat="40.9976370" lon="0.4751730">
        <ele>137.1</ele>
        <time>2020-08-07T13:11:53Z</time>
      </trkpt>
      <trkpt lat="40.9976390" lon="0.4752360">
        <ele>137.3</ele>
        <time>2020-08-07T13:11:55Z</time>
      </trkpt>
      <trkpt lat="40.9976410" lon="0.4752730">
        <ele>137.5</ele>
        <time>2020-08-07T13:11:56Z</time>
      </trkpt>
      <trkpt lat="40.9976440" lon="0.4753410">
        <ele>137.7</ele>
        <time>2020-08-07T13:11:58Z</time>
      </trkpt>
      <trkpt lat="40.9976460" lon="0.4753730">
        <ele>137.8</ele>
        <time>2020-08-07T13:11:59Z</time>
      </trkpt>
      <trkpt lat="40.9976510" lon="0.4754350">
        <ele>138.1</ele>
        <time>2020-08-07T13:12:01Z</time>
      </trkpt>
      <trkpt lat="40.9976540" lon="0.4754800">
        <ele>138.3</ele>
        <time>2020-08-07T13:12:02Z</time>
      </trkpt>
      <trkpt lat="40.9976550" lon="0.4754940">
        <ele>138.3</ele>
        <time>2020-08-07T13:12:03Z</time>
      </trkpt>
      <trkpt lat="40.9976600" lon="0.4755600">
        <ele>138.6</ele>
        <time>2020-08-07T13:12:05Z</time>
      </trkpt>
      <trkpt lat="40.9976640" lon="0.4756060">
        <ele>138.7</ele>
        <time>2020-08-07T13:12:06Z</time>
      </trkpt>
      <trkpt lat="40.9976650" lon="0.4756240">
        <ele>138.8</ele>
        <time>2020-08-07T13:12:07Z</time>
      </trkpt>
      <trkpt lat="40.9976700" lon="0.4756910">
        <ele>139.1</ele>
        <time>2020-08-07T13:12:09Z</time>
      </trkpt>
      <trkpt lat="40.9976730" lon="0.4757380">
        <ele>139.2</ele>
        <time>2020-08-07T13:12:10Z</time>
      </trkpt>
      <trkpt lat="40.9976740" lon="0.4757550">
        <ele>139.3</ele>
        <time>2020-08-07T13:12:11Z</time>
      </trkpt>
      <trkpt lat="40.9976750" lon="0.4757810">
        <ele>139.4</ele>
        <time>2020-08-07T13:12:12Z</time>
      </trkpt>
      <trkpt lat="40.9976790" lon="0.4758420">
        <ele>139.7</ele>
        <time>2020-08-07T13:12:14Z</time>
      </trkpt>
      <trkpt lat="40.9976820" lon="0.4758780">
        <ele>139.8</ele>
        <time>2020-08-07T13:12:15Z</time>
      </trkpt>
      <trkpt lat="40.9976920" lon="0.4759380">
        <ele>140.1</ele>
        <time>2020-08-07T13:12:17Z</time>
      </trkpt>
      <trkpt lat="40.9977010" lon="0.4759830">
        <ele>140.3</ele>
        <time>2020-08-07T13:12:18Z</time>
      </trkpt>
      <trkpt lat="40.9977030" lon="0.4759970">
        <ele>140.3</ele>
        <time>2020-08-07T13:12:19Z</time>
      </trkpt>
      <trkpt lat="40.9977130" lon="0.4760420">
        <ele>140.5</ele>
        <time>2020-08-07T13:12:20Z</time>
      </trkpt>
      <trkpt lat="40.9977160" lon="0.4760540">
        <ele>140.6</ele>
        <time>2020-08-07T13:12:21Z</time>
      </trkpt>
      <trkpt lat="40.9977310" lon="0.4761150">
        <ele>140.9</ele>
        <time>2020-08-07T13:12:23Z</time>
      </trkpt>
      <trkpt lat="40.9977380" lon="0.4761450">
        <ele>141.0</ele>
        <time>2020-08-07T13:12:24Z</time>
      </trkpt>
      <trkpt lat="40.9977500" lon="0.4762040">
        <ele>141.3</ele>
        <time>2020-08-07T13:12:26Z</time>
      </trkpt>
      <trkpt lat="40.9977580" lon="0.4762500">
        <ele>141.5</ele>
        <time>2020-08-07T13:12:27Z</time>
      </trkpt>
      <trkpt lat="40.9977600" lon="0.4762650">
        <ele>141.5</ele>
        <time>2020-08-07T13:12:28Z</time>
      </trkpt>
      <trkpt lat="40.9977700" lon="0.4763150">
        <ele>141.8</ele>
        <time>2020-08-07T13:12:30Z</time>
      </trkpt>
      <trkpt lat="40.9977790" lon="0.4763640">
        <ele>142.0</ele>
        <time>2020-08-07T13:12:31Z</time>
      </trkpt>
      <trkpt lat="40.9977810" lon="0.4763800">
        <ele>142.1</ele>
        <time>2020-08-07T13:12:32Z</time>
      </trkpt>
      <trkpt lat="40.9977860" lon="0.4764220">
        <ele>142.3</ele>
        <time>2020-08-07T13:12:33Z</time>
      </trkpt>
      <trkpt lat="40.9977870" lon="0.4764340">
        <ele>142.3</ele>
        <time>2020-08-07T13:12:34Z</time>
      </trkpt>
      <trkpt lat="40.9977890" lon="0.4764980">
        <ele>142.6</ele>
        <time>2020-08-07T13:12:36Z</time>
      </trkpt>
      <trkpt lat="40.9977890" lon="0.4765580">
        <ele>142.9</ele>
        <time>2020-08-07T13:12:38Z</time>
      </trkpt>
      <trkpt lat="40.9977890" lon="0.4766040">
        <ele>143.1</ele>
        <time>2020-08-07T13:12:39Z</time>
      </trkpt>
      <trkpt lat="40.9977880" lon="0.4766190">
        <ele>143.2</ele>
        <time>2020-08-07T13:12:40Z</time>
      </trkpt>
      <trkpt lat="40.9977870" lon="0.4766750">
        <ele>143.4</ele>
        <time>2020-08-07T13:12:42Z</time>
      </trkpt>
      <trkpt lat="40.9977880" lon="0.4767210">
        <ele>143.6</ele>
        <time>2020-08-07T13:12:43Z</time>
      </trkpt>
      <trkpt lat="40.9977890" lon="0.4767370">
        <ele>143.7</ele>
        <time>2020-08-07T13:12:44Z</time>
      </trkpt>
      <trkpt lat="40.9977940" lon="0.4767930">
        <ele>143.9</ele>
        <time>2020-08-07T13:12:46Z</time>
      </trkpt>
      <trkpt lat="40.9977960" lon="0.4768250">
        <ele>144.0</ele>
        <time>2020-08-07T13:12:47Z</time>
      </trkpt>
      <trkpt lat="40.9978040" lon="0.4768800">
        <ele>144.3</ele>
        <time>2020-08-07T13:12:49Z</time>
      </trkpt>
      <trkpt lat="40.9978140" lon="0.4769270">
        <ele>144.5</ele>
        <time>2020-08-07T13:12:50Z</time>
      </trkpt>
      <trkpt lat="40.9978170" lon="0.4769420">
        <ele>144.5</ele>
        <time>2020-08-07T13:12:51Z</time>
      </trkpt>
      <trkpt lat="40.9978220" lon="0.4769700">
        <ele>144.6</ele>
        <time>2020-08-07T13:12:52Z</time>
      </trkpt>
      <trkpt lat="40.9978360" lon="0.4770370">
        <ele>144.9</ele>
        <time>2020-08-07T13:12:54Z</time>
      </trkpt>
      <trkpt lat="40.9978530" lon="0.4770990">
        <ele>145.2</ele>
        <time>2020-08-07T13:12:56Z</time>
      </trkpt>
      <trkpt lat="40.9978710" lon="0.4771410">
        <ele>145.4</ele>
        <time>2020-08-07T13:12:57Z</time>
      </trkpt>
      <trkpt lat="40.9978780" lon="0.4771560">
        <ele>145.4</ele>
        <time>2020-08-07T13:12:58Z</time>
      </trkpt>
      <trkpt lat="40.9979090" lon="0.4772070">
        <ele>145.7</ele>
        <time>2020-08-07T13:13:00Z</time>
      </trkpt>
      <trkpt lat="40.9979250" lon="0.4772270">
        <ele>145.8</ele>
        <time>2020-08-07T13:13:01Z</time>
      </trkpt>
      <trkpt lat="40.9979680" lon="0.4772610">
        <ele>146.1</ele>
        <time>2020-08-07T13:13:03Z</time>
      </trkpt>
      <trkpt lat="40.9980230" lon="0.4772720">
        <ele>146.3</ele>
        <time>2020-08-07T13:13:05Z</time>
      </trkpt>
      <trkpt lat="40.9980790" lon="0.4772570">
        <ele>146.6</ele>
        <time>2020-08-07T13:13:07Z</time>
      </trkpt>
      <trkpt lat="40.9981090" lon="0.4772370">
        <ele>146.8</ele>
        <time>2020-08-07T13:13:08Z</time>
      </trkpt>
      <trkpt lat="40.9981350" lon="0.4772150">
        <ele>146.9</ele>
        <time>2020-08-07T13:13:09Z</time>
      </trkpt>
      <trkpt lat="40.9981590" lon="0.4771910">
        <ele>147.0</ele>
        <time>2020-08-07T13:13:10Z</time>
      </trkpt>
      <trkpt lat="40.9981820" lon="0.4771660">
        <ele>147.1</ele>
        <time>2020-08-07T13:13:11Z</time>
      </trkpt>
      <trkpt lat="40.9982280" lon="0.4771090">
        <ele>147.3</ele>
        <time>2020-08-07T13:13:13Z</time>
      </trkpt>
      <trkpt lat="40.9982480" lon="0.4770840">
        <ele>147.4</ele>
        <time>2020-08-07T13:13:14Z</time>
      </trkpt>
      <trkpt lat="40.9982800" lon="0.4770440">
        <ele>147.6</ele>
        <time>2020-08-07T13:13:16Z</time>
      </trkpt>
      <trkpt lat="40.9983070" lon="0.4770140">
        <ele>147.7</ele>
        <time>2020-08-07T13:13:17Z</time>
      </trkpt>
      <trkpt lat="40.9983420" lon="0.4769780">
        <ele>147.9</ele>
        <time>2020-08-07T13:13:18Z</time>
      </trkpt>
      <trkpt lat="40.9983560" lon="0.4769640">
        <ele>147.9</ele>
        <time>2020-08-07T13:13:19Z</time>
      </trkpt>
      <trkpt lat="40.9983970" lon="0.4769270">
        <ele>148.1</ele>
        <time>2020-08-07T13:13:21Z</time>
      </trkpt>
      <trkpt lat="40.9984350" lon="0.4768940">
        <ele>148.2</ele>
        <time>2020-08-07T13:13:23Z</time>
      </trkpt>
      <trkpt lat="40.9984600" lon="0.4768750">
        <ele>148.3</ele>
        <time>2020-08-07T13:13:24Z</time>
      </trkpt>
      <trkpt lat="40.9984860" lon="0.4768580">
        <ele>148.4</ele>
        <time>2020-08-07T13:13:25Z</time>
      </trkpt>
      <trkpt lat="40.9985380" lon="0.4768310">
        <ele>148.5</ele>
        <time>2020-08-07T13:13:27Z</time>
      </trkpt>
      <trkpt lat="40.9985680" lon="0.4768170">
        <ele>148.6</ele>
        <time>2020-08-07T13:13:28Z</time>
      </trkpt>
      <trkpt lat="40.9985940" lon="0.4768040">
        <ele>148.6</ele>
        <time>2020-08-07T13:13:29Z</time>
      </trkpt>
      <trkpt lat="40.9986260" lon="0.4767910">
        <ele>148.7</ele>
        <time>2020-08-07T13:13:30Z</time>
      </trkpt>
      <trkpt lat="40.9986700" lon="0.4767770">
        <ele>148.8</ele>
        <time>2020-08-07T13:13:31Z</time>
      </trkpt>
      <trkpt lat="40.9986890" lon="0.4767730">
        <ele>148.8</ele>
        <time>2020-08-07T13:13:32Z</time>
      </trkpt>
      <trkpt lat="40.9987330" lon="0.4767670">
        <ele>148.9</ele>
        <time>2020-08-07T13:13:34Z</time>
      </trkpt>
      <trkpt lat="40.9987730" lon="0.4767640">
        <ele>149.0</ele>
        <time>2020-08-07T13:13:35Z</time>
      </trkpt>
      <trkpt lat="40.9988260" lon="0.4767590">
        <ele>149.1</ele>
        <time>2020-08-07T13:13:37Z</time>
      </trkpt>
      <trkpt lat="40.9988740" lon="0.4767640">
        <ele>149.2</ele>
        <time>2020-08-07T13:13:38Z</time>
      </trkpt>
      <trkpt lat="40.9989040" lon="0.4767670">
        <ele>149.2</ele>
        <time>2020-08-07T13:13:40Z</time>
      </trkpt>
      <trkpt lat="40.9989450" lon="0.4767710">
        <ele>149.3</ele>
        <time>2020-08-07T13:13:41Z</time>
      </trkpt>
      <trkpt lat="40.9989940" lon="0.4767760">
        <ele>149.4</ele>
        <time>2020-08-07T13:13:43Z</time>
      </trkpt>
      <trkpt lat="40.9990240" lon="0.4767760">
        <ele>149.4</ele>
        <time>2020-08-07T13:13:44Z</time>
      </trkpt>
      <trkpt lat="40.9990700" lon="0.4767860">
        <ele>149.4</ele>
        <time>2020-08-07T13:13:46Z</time>
      </trkpt>
      <trkpt lat="40.9991100" lon="0.4767940">
        <ele>149.5</ele>
        <time>2020-08-07T13:13:47Z</time>
      </trkpt>
      <trkpt lat="40.9991550" lon="0.4768050">
        <ele>149.6</ele>
        <time>2020-08-07T13:13:48Z</time>
      </trkpt>
      <trkpt lat="40.9991980" lon="0.4768170">
        <ele>149.6</ele>
        <time>2020-08-07T13:13:50Z</time>
      </trkpt>
      <trkpt lat="40.9992480" lon="0.4768330">
        <ele>149.7</ele>
        <time>2020-08-07T13:13:52Z</time>
      </trkpt>
      <trkpt lat="40.9992860" lon="0.4768450">
        <ele>149.8</ele>
        <time>2020-08-07T13:13:53Z</time>
      </trkpt>
      <trkpt lat="40.9993120" lon="0.4768540">
        <ele>149.9</ele>
        <time>2020-08-07T13:13:54Z</time>
      </trkpt>
      <trkpt lat="40.9993650" lon="0.4768830">
        <ele>150.0</ele>
        <time>2020-08-07T13:13:56Z</time>
      </trkpt>
      <trkpt lat="40.9993920" lon="0.4769000">
        <ele>150.1</ele>
        <time>2020-08-07T13:13:57Z</time>
      </trkpt>
      <trkpt lat="40.9994280" lon="0.4769330">
        <ele>150.2</ele>
        <time>2020-08-07T13:13:59Z</time>
      </trkpt>
      <trkpt lat="40.9994580" lon="0.4769650">
        <ele>150.3</ele>
        <time>2020-08-07T13:14:00Z</time>
      </trkpt>
      <trkpt lat="40.9994830" lon="0.4769860">
        <ele>150.3</ele>
        <time>2020-08-07T13:14:01Z</time>
      </trkpt>
      <trkpt lat="40.9995060" lon="0.4770050">
        <ele>150.4</ele>
        <time>2020-08-07T13:14:02Z</time>
      </trkpt>
      <trkpt lat="40.9995430" lon="0.4770490">
        <ele>150.5</ele>
        <time>2020-08-07T13:14:04Z</time>
      </trkpt>
      <trkpt lat="40.9995700" lon="0.4770830">
        <ele>150.6</ele>
        <time>2020-08-07T13:14:05Z</time>
      </trkpt>
      <trkpt lat="40.9995890" lon="0.4771150">
        <ele>150.6</ele>
        <time>2020-08-07T13:14:06Z</time>
      </trkpt>
      <trkpt lat="40.9996070" lon="0.4771420">
        <ele>150.7</ele>
        <time>2020-08-07T13:14:07Z</time>
      </trkpt>
      <trkpt lat="40.9996400" lon="0.4771960">
        <ele>150.8</ele>
        <time>2020-08-07T13:14:09Z</time>
      </trkpt>
      <trkpt lat="40.9996600" lon="0.4772340">
        <ele>150.9</ele>
        <time>2020-08-07T13:14:10Z</time>
      </trkpt>
      <trkpt lat="40.9996820" lon="0.4772740">
        <ele>151.0</ele>
        <time>2020-08-07T13:14:11Z</time>
      </trkpt>
      <trkpt lat="40.9996880" lon="0.4772880">
        <ele>151.0</ele>
        <time>2020-08-07T13:14:12Z</time>
      </trkpt>
      <trkpt lat="40.9997090" lon="0.4773310">
        <ele>151.1</ele>
        <time>2020-08-07T13:14:13Z</time>
      </trkpt>
      <trkpt lat="40.9997340" lon="0.4773890">
        <ele>151.3</ele>
        <time>2020-08-07T13:14:15Z</time>
      </trkpt>
      <trkpt lat="40.9997420" lon="0.4774080">
        <ele>151.4</ele>
        <time>2020-08-07T13:14:16Z</time>
      </trkpt>
      <trkpt lat="40.9997490" lon="0.4774270">
        <ele>151.4</ele>
        <time>2020-08-07T13:14:17Z</time>
      </trkpt>
      <trkpt lat="40.9997600" lon="0.4774560">
        <ele>151.6</ele>
        <time>2020-08-07T13:14:18Z</time>
      </trkpt>
      <trkpt lat="40.9997810" lon="0.4775010">
        <ele>151.7</ele>
        <time>2020-08-07T13:14:20Z</time>
      </trkpt>
      <trkpt lat="40.9997970" lon="0.4775320">
        <ele>151.9</ele>
        <time>2020-08-07T13:14:21Z</time>
      </trkpt>
      <trkpt lat="40.9998120" lon="0.4775560">
        <ele>152.0</ele>
        <time>2020-08-07T13:14:22Z</time>
      </trkpt>
      <trkpt lat="40.9998380" lon="0.4776000">
        <ele>152.1</ele>
        <time>2020-08-07T13:14:24Z</time>
      </trkpt>
      <trkpt lat="40.9998630" lon="0.4776310">
        <ele>152.3</ele>
        <time>2020-08-07T13:14:25Z</time>
      </trkpt>
      <trkpt lat="40.9998710" lon="0.4776410">
        <ele>152.3</ele>
        <time>2020-08-07T13:14:26Z</time>
      </trkpt>
      <trkpt lat="40.9999030" lon="0.4776700">
        <ele>152.5</ele>
        <time>2020-08-07T13:14:28Z</time>
      </trkpt>
      <trkpt lat="40.9999290" lon="0.4776890">
        <ele>152.6</ele>
        <time>2020-08-07T13:14:29Z</time>
      </trkpt>
      <trkpt lat="40.9999640" lon="0.4777190">
        <ele>152.8</ele>
        <time>2020-08-07T13:14:31Z</time>
      </trkpt>
      <trkpt lat="40.9999960" lon="0.4777170">
        <ele>152.9</ele>
        <time>2020-08-07T13:14:32Z</time>
      </trkpt>
      <trkpt lat="41.0000310" lon="0.4777060">
        <ele>153.1</ele>
        <time>2020-08-07T13:14:34Z</time>
      </trkpt>
      <trkpt lat="41.0000680" lon="0.4776900">
        <ele>153.3</ele>
        <time>2020-08-07T13:14:36Z</time>
      </trkpt>
      <trkpt lat="41.0000960" lon="0.4776690">
        <ele>153.4</ele>
        <time>2020-08-07T13:14:37Z</time>
      </trkpt>
      <trkpt lat="41.0001280" lon="0.4776370">
        <ele>153.5</ele>
        <time>2020-08-07T13:14:38Z</time>
      </trkpt>
      <trkpt lat="41.0001490" lon="0.4776080">
        <ele>153.7</ele>
        <time>2020-08-07T13:14:39Z</time>
      </trkpt>
      <trkpt lat="41.0001780" lon="0.4775560">
        <ele>153.9</ele>
        <time>2020-08-07T13:14:40Z</time>
      </trkpt>
      <trkpt lat="41.0001990" lon="0.4775120">
        <ele>154.0</ele>
        <time>2020-08-07T13:14:42Z</time>
      </trkpt>
      <trkpt lat="41.0002280" lon="0.4774620">
        <ele>154.2</ele>
        <time>2020-08-07T13:14:43Z</time>
      </trkpt>
      <trkpt lat="41.0002480" lon="0.4774290">
        <ele>154.4</ele>
        <time>2020-08-07T13:14:44Z</time>
      </trkpt>
      <trkpt lat="41.0002700" lon="0.4773970">
        <ele>154.5</ele>
        <time>2020-08-07T13:14:45Z</time>
      </trkpt>
      <trkpt lat="41.0003110" lon="0.4773550">
        <ele>154.8</ele>
        <time>2020-08-07T13:14:47Z</time>
      </trkpt>
      <trkpt lat="41.0003420" lon="0.4773310">
        <ele>155.0</ele>
        <time>2020-08-07T13:14:48Z</time>
      </trkpt>
      <trkpt lat="41.0003780" lon="0.4773090">
        <ele>155.2</ele>
        <time>2020-08-07T13:14:49Z</time>
      </trkpt>
      <trkpt lat="41.0004120" lon="0.4772900">
        <ele>155.3</ele>
        <time>2020-08-07T13:14:50Z</time>
      </trkpt>
      <trkpt lat="41.0004600" lon="0.4772720">
        <ele>155.6</ele>
        <time>2020-08-07T13:14:52Z</time>
      </trkpt>
      <trkpt lat="41.0005030" lon="0.4772660">
        <ele>155.8</ele>
        <time>2020-08-07T13:14:53Z</time>
      </trkpt>
      <trkpt lat="41.0005660" lon="0.4772840">
        <ele>156.1</ele>
        <time>2020-08-07T13:14:55Z</time>
      </trkpt>
      <trkpt lat="41.0006050" lon="0.4773020">
        <ele>156.3</ele>
        <time>2020-08-07T13:14:56Z</time>
      </trkpt>
      <trkpt lat="41.0006180" lon="0.4773110">
        <ele>156.3</ele>
        <time>2020-08-07T13:14:57Z</time>
      </trkpt>
      <trkpt lat="41.0006570" lon="0.4773380">
        <ele>156.5</ele>
        <time>2020-08-07T13:14:59Z</time>
      </trkpt>
      <trkpt lat="41.0006840" lon="0.4773620">
        <ele>156.7</ele>
        <time>2020-08-07T13:15:00Z</time>
      </trkpt>
      <trkpt lat="41.0007240" lon="0.4774030">
        <ele>156.9</ele>
        <time>2020-08-07T13:15:02Z</time>
      </trkpt>
      <trkpt lat="41.0007510" lon="0.4774270">
        <ele>157.0</ele>
        <time>2020-08-07T13:15:03Z</time>
      </trkpt>
      <trkpt lat="41.0007980" lon="0.4774710">
        <ele>157.3</ele>
        <time>2020-08-07T13:15:05Z</time>
      </trkpt>
      <trkpt lat="41.0008360" lon="0.4775040">
        <ele>157.4</ele>
        <time>2020-08-07T13:15:06Z</time>
      </trkpt>
      <trkpt lat="41.0008710" lon="0.4775340">
        <ele>157.6</ele>
        <time>2020-08-07T13:15:08Z</time>
      </trkpt>
      <trkpt lat="41.0009100" lon="0.4775640">
        <ele>157.8</ele>
        <time>2020-08-07T13:15:10Z</time>
      </trkpt>
      <trkpt lat="41.0009340" lon="0.4775850">
        <ele>158.0</ele>
        <time>2020-08-07T13:15:11Z</time>
      </trkpt>
      <trkpt lat="41.0009590" lon="0.4776050">
        <ele>158.1</ele>
        <time>2020-08-07T13:15:12Z</time>
      </trkpt>
      <trkpt lat="41.0009830" lon="0.4776260">
        <ele>158.2</ele>
        <time>2020-08-07T13:15:13Z</time>
      </trkpt>
      <trkpt lat="41.0010160" lon="0.4776520">
        <ele>158.4</ele>
        <time>2020-08-07T13:15:14Z</time>
      </trkpt>
      <trkpt lat="41.0010260" lon="0.4776610">
        <ele>158.5</ele>
        <time>2020-08-07T13:15:15Z</time>
      </trkpt>
      <trkpt lat="41.0010670" lon="0.4776950">
        <ele>158.7</ele>
        <time>2020-08-07T13:15:17Z</time>
      </trkpt>
      <trkpt lat="41.0011070" lon="0.4777170">
        <ele>158.9</ele>
        <time>2020-08-07T13:15:19Z</time>
      </trkpt>
      <trkpt lat="41.0011380" lon="0.4777390">
        <ele>159.0</ele>
        <time>2020-08-07T13:15:20Z</time>
      </trkpt>
      <trkpt lat="41.0011720" lon="0.4777540">
        <ele>159.1</ele>
        <time>2020-08-07T13:15:21Z</time>
      </trkpt>
      <trkpt lat="41.0012040" lon="0.4777730">
        <ele>159.3</ele>
        <time>2020-08-07T13:15:23Z</time>
      </trkpt>
      <trkpt lat="41.0012270" lon="0.4777830">
        <ele>159.4</ele>
        <time>2020-08-07T13:15:24Z</time>
      </trkpt>
      <trkpt lat="41.0012590" lon="0.4777930">
        <ele>159.5</ele>
        <time>2020-08-07T13:15:26Z</time>
      </trkpt>
      <trkpt lat="41.0012880" lon="0.4778050">
        <ele>159.6</ele>
        <time>2020-08-07T13:15:27Z</time>
      </trkpt>
      <trkpt lat="41.0013350" lon="0.4778100">
        <ele>159.8</ele>
        <time>2020-08-07T13:15:29Z</time>
      </trkpt>
      <trkpt lat="41.0013610" lon="0.4778120">
        <ele>159.9</ele>
        <time>2020-08-07T13:15:30Z</time>
      </trkpt>
      <trkpt lat="41.0014030" lon="0.4778200">
        <ele>160.0</ele>
        <time>2020-08-07T13:15:32Z</time>
      </trkpt>
      <trkpt lat="41.0014340" lon="0.4778230">
        <ele>160.2</ele>
        <time>2020-08-07T13:15:33Z</time>
      </trkpt>
      <trkpt lat="41.0014680" lon="0.4778210">
        <ele>160.3</ele>
        <time>2020-08-07T13:15:34Z</time>
      </trkpt>
      <trkpt lat="41.0015010" lon="0.4778210">
        <ele>160.4</ele>
        <time>2020-08-07T13:15:36Z</time>
      </trkpt>
      <trkpt lat="41.0015330" lon="0.4778170">
        <ele>160.6</ele>
        <time>2020-08-07T13:15:37Z</time>
      </trkpt>
      <trkpt lat="41.0015610" lon="0.4778170">
        <ele>160.7</ele>
        <time>2020-08-07T13:15:38Z</time>
      </trkpt>
      <trkpt lat="41.0015920" lon="0.4778150">
        <ele>160.8</ele>
        <time>2020-08-07T13:15:39Z</time>
      </trkpt>
      <trkpt lat="41.0016340" lon="0.4778080">
        <ele>161.0</ele>
        <time>2020-08-07T13:15:40Z</time>
      </trkpt>
      <trkpt lat="41.0016730" lon="0.4778040">
        <ele>161.2</ele>
        <time>2020-08-07T13:15:42Z</time>
      </trkpt>
      <trkpt lat="41.0017090" lon="0.4778010">
        <ele>161.3</ele>
        <time>2020-08-07T13:15:43Z</time>
      </trkpt>
      <trkpt lat="41.0017220" lon="0.4777990">
        <ele>161.4</ele>
        <time>2020-08-07T13:15:44Z</time>
      </trkpt>
      <trkpt lat="41.0017650" lon="0.4777970">
        <ele>161.6</ele>
        <time>2020-08-07T13:15:45Z</time>
      </trkpt>
      <trkpt lat="41.0017810" lon="0.4777970">
        <ele>161.6</ele>
        <time>2020-08-07T13:15:46Z</time>
      </trkpt>
      <trkpt lat="41.0018200" lon="0.4777990">
        <ele>161.8</ele>
        <time>2020-08-07T13:15:47Z</time>
      </trkpt>
      <trkpt lat="41.0018330" lon="0.4778010">
        <ele>161.8</ele>
        <time>2020-08-07T13:15:48Z</time>
      </trkpt>
      <trkpt lat="41.0018800" lon="0.4778070">
        <ele>162.0</ele>
        <time>2020-08-07T13:15:50Z</time>
      </trkpt>
      <trkpt lat="41.0019110" lon="0.4778120">
        <ele>162.1</ele>
        <time>2020-08-07T13:15:51Z</time>
      </trkpt>
      <trkpt lat="41.0019540" lon="0.4778170">
        <ele>162.2</ele>
        <time>2020-08-07T13:15:52Z</time>
      </trkpt>
      <trkpt lat="41.0019920" lon="0.4778230">
        <ele>162.3</ele>
        <time>2020-08-07T13:15:54Z</time>
      </trkpt>
      <trkpt lat="41.0020280" lon="0.4778310">
        <ele>162.4</ele>
        <time>2020-08-07T13:15:55Z</time>
      </trkpt>
      <trkpt lat="41.0020410" lon="0.4778320">
        <ele>162.5</ele>
        <time>2020-08-07T13:15:56Z</time>
      </trkpt>
      <trkpt lat="41.0020860" lon="0.4778430">
        <ele>162.6</ele>
        <time>2020-08-07T13:15:57Z</time>
      </trkpt>
      <trkpt lat="41.0021040" lon="0.4778480">
        <ele>162.7</ele>
        <time>2020-08-07T13:15:58Z</time>
      </trkpt>
      <trkpt lat="41.0021420" lon="0.4778560">
        <ele>162.8</ele>
        <time>2020-08-07T13:16:00Z</time>
      </trkpt>
      <trkpt lat="41.0021680" lon="0.4778610">
        <ele>162.8</ele>
        <time>2020-08-07T13:16:01Z</time>
      </trkpt>
      <trkpt lat="41.0022220" lon="0.4778730">
        <ele>163.0</ele>
        <time>2020-08-07T13:16:03Z</time>
      </trkpt>
      <trkpt lat="41.0022470" lon="0.4778810">
        <ele>163.0</ele>
        <time>2020-08-07T13:16:04Z</time>
      </trkpt>
      <trkpt lat="41.0022960" lon="0.4779000">
        <ele>163.2</ele>
        <time>2020-08-07T13:16:06Z</time>
      </trkpt>
      <trkpt lat="41.0023340" lon="0.4779170">
        <ele>163.2</ele>
        <time>2020-08-07T13:16:07Z</time>
      </trkpt>
      <trkpt lat="41.0023710" lon="0.4779320">
        <ele>163.3</ele>
        <time>2020-08-07T13:16:09Z</time>
      </trkpt>
      <trkpt lat="41.0024090" lon="0.4779490">
        <ele>163.4</ele>
        <time>2020-08-07T13:16:10Z</time>
      </trkpt>
      <trkpt lat="41.0024400" lon="0.4779640">
        <ele>163.5</ele>
        <time>2020-08-07T13:16:12Z</time>
      </trkpt>
      <trkpt lat="41.0024720" lon="0.4779770">
        <ele>163.6</ele>
        <time>2020-08-07T13:16:13Z</time>
      </trkpt>
      <trkpt lat="41.0025060" lon="0.4779910">
        <ele>163.7</ele>
        <time>2020-08-07T13:16:14Z</time>
      </trkpt>
      <trkpt lat="41.0025360" lon="0.4780050">
        <ele>163.8</ele>
        <time>2020-08-07T13:16:15Z</time>
      </trkpt>
      <trkpt lat="41.0025620" lon="0.4780140">
        <ele>163.8</ele>
        <time>2020-08-07T13:16:16Z</time>
      </trkpt>
      <trkpt lat="41.0026100" lon="0.4780320">
        <ele>163.9</ele>
        <time>2020-08-07T13:16:18Z</time>
      </trkpt>
      <trkpt lat="41.0026450" lon="0.4780480">
        <ele>164.0</ele>
        <time>2020-08-07T13:16:19Z</time>
      </trkpt>
      <trkpt lat="41.0026800" lon="0.4780590">
        <ele>164.1</ele>
        <time>2020-08-07T13:16:20Z</time>
      </trkpt>
      <trkpt lat="41.0027120" lon="0.4780720">
        <ele>164.1</ele>
        <time>2020-08-07T13:16:21Z</time>
      </trkpt>
      <trkpt lat="41.0027430" lon="0.4780850">
        <ele>164.2</ele>
        <time>2020-08-07T13:16:22Z</time>
      </trkpt>
      <trkpt lat="41.0028020" lon="0.4781160">
        <ele>164.3</ele>
        <time>2020-08-07T13:16:24Z</time>
      </trkpt>
      <trkpt lat="41.0028400" lon="0.4781400">
        <ele>164.4</ele>
        <time>2020-08-07T13:16:25Z</time>
      </trkpt>
      <trkpt lat="41.0028860" lon="0.4781780">
        <ele>164.4</ele>
        <time>2020-08-07T13:16:26Z</time>
      </trkpt>
      <trkpt lat="41.0029230" lon="0.4782080">
        <ele>164.5</ele>
        <time>2020-08-07T13:16:27Z</time>
      </trkpt>
      <trkpt lat="41.0029650" lon="0.4782510">
        <ele>164.6</ele>
        <time>2020-08-07T13:16:29Z</time>
      </trkpt>
      <trkpt lat="41.0029930" lon="0.4782860">
        <ele>164.7</ele>
        <time>2020-08-07T13:16:30Z</time>
      </trkpt>
      <trkpt lat="41.0030350" lon="0.4783480">
        <ele>164.9</ele>
        <time>2020-08-07T13:16:32Z</time>
      </trkpt>
      <trkpt lat="41.0030670" lon="0.4783980">
        <ele>165.0</ele>
        <time>2020-08-07T13:16:33Z</time>
      </trkpt>
      <trkpt lat="41.0031050" lon="0.4784760">
        <ele>165.2</ele>
        <time>2020-08-07T13:16:35Z</time>
      </trkpt>
      <trkpt lat="41.0031270" lon="0.4785320">
        <ele>165.4</ele>
        <time>2020-08-07T13:16:36Z</time>
      </trkpt>
      <trkpt lat="41.0031490" lon="0.4785860">
        <ele>165.5</ele>
        <time>2020-08-07T13:16:38Z</time>
      </trkpt>
      <trkpt lat="41.0031670" lon="0.4786270">
        <ele>165.6</ele>
        <time>2020-08-07T13:16:39Z</time>
      </trkpt>
      <trkpt lat="41.0031820" lon="0.4786830">
        <ele>165.7</ele>
        <time>2020-08-07T13:16:40Z</time>
      </trkpt>
      <trkpt lat="41.0032000" lon="0.4787390">
        <ele>165.9</ele>
        <time>2020-08-07T13:16:42Z</time>
      </trkpt>
      <trkpt lat="41.0032090" lon="0.4787800">
        <ele>165.9</ele>
        <time>2020-08-07T13:16:43Z</time>
      </trkpt>
      <trkpt lat="41.0032210" lon="0.4788510">
        <ele>166.1</ele>
        <time>2020-08-07T13:16:45Z</time>
      </trkpt>
      <trkpt lat="41.0032300" lon="0.4788950">
        <ele>166.3</ele>
        <time>2020-08-07T13:16:46Z</time>
      </trkpt>
      <trkpt lat="41.0032360" lon="0.4789470">
        <ele>166.4</ele>
        <time>2020-08-07T13:16:47Z</time>
      </trkpt>
      <trkpt lat="41.0032440" lon="0.4790060">
        <ele>166.6</ele>
        <time>2020-08-07T13:16:49Z</time>
      </trkpt>
      <trkpt lat="41.0032520" lon="0.4790430">
        <ele>166.7</ele>
        <time>2020-08-07T13:16:50Z</time>
      </trkpt>
      <trkpt lat="41.0032620" lon="0.4790770">
        <ele>166.8</ele>
        <time>2020-08-07T13:16:51Z</time>
      </trkpt>
      <trkpt lat="41.0032730" lon="0.4791260">
        <ele>167.0</ele>
        <time>2020-08-07T13:16:52Z</time>
      </trkpt>
      <trkpt lat="41.0032760" lon="0.4791420">
        <ele>167.1</ele>
        <time>2020-08-07T13:16:53Z</time>
      </trkpt>
      <trkpt lat="41.0032930" lon="0.4791990">
        <ele>167.4</ele>
        <time>2020-08-07T13:16:55Z</time>
      </trkpt>
      <trkpt lat="41.0033050" lon="0.4792240">
        <ele>167.5</ele>
        <time>2020-08-07T13:16:56Z</time>
      </trkpt>
      <trkpt lat="41.0033250" lon="0.4792710">
        <ele>167.8</ele>
        <time>2020-08-07T13:16:58Z</time>
      </trkpt>
      <trkpt lat="41.0033460" lon="0.4793040">
        <ele>168.0</ele>
        <time>2020-08-07T13:16:59Z</time>
      </trkpt>
      <trkpt lat="41.0033540" lon="0.4793160">
        <ele>168.1</ele>
        <time>2020-08-07T13:17:00Z</time>
      </trkpt>
      <trkpt lat="41.0033810" lon="0.4793470">
        <ele>168.3</ele>
        <time>2020-08-07T13:17:01Z</time>
      </trkpt>
      <trkpt lat="41.0033900" lon="0.4793560">
        <ele>168.4</ele>
        <time>2020-08-07T13:17:02Z</time>
      </trkpt>
      <trkpt lat="41.0034150" lon="0.4793790">
        <ele>168.5</ele>
        <time>2020-08-07T13:17:03Z</time>
      </trkpt>
      <trkpt lat="41.0034540" lon="0.4794070">
        <ele>168.8</ele>
        <time>2020-08-07T13:17:05Z</time>
      </trkpt>
      <trkpt lat="41.0034700" lon="0.4794190">
        <ele>168.9</ele>
        <time>2020-08-07T13:17:06Z</time>
      </trkpt>
      <trkpt lat="41.0034850" lon="0.4794300">
        <ele>169.0</ele>
        <time>2020-08-07T13:17:07Z</time>
      </trkpt>
      <trkpt lat="41.0035120" lon="0.4794460">
        <ele>169.2</ele>
        <time>2020-08-07T13:17:08Z</time>
      </trkpt>
      <trkpt lat="41.0035500" lon="0.4794630">
        <ele>169.4</ele>
        <time>2020-08-07T13:17:10Z</time>
      </trkpt>
      <trkpt lat="41.0035770" lon="0.4794820">
        <ele>169.6</ele>
        <time>2020-08-07T13:17:11Z</time>
      </trkpt>
      <trkpt lat="41.0036200" lon="0.4795100">
        <ele>169.8</ele>
        <time>2020-08-07T13:17:13Z</time>
      </trkpt>
      <trkpt lat="41.0036560" lon="0.4795290">
        <ele>170.0</ele>
        <time>2020-08-07T13:17:14Z</time>
      </trkpt>
      <trkpt lat="41.0037010" lon="0.4795440">
        <ele>170.2</ele>
        <time>2020-08-07T13:17:16Z</time>
      </trkpt>
      <trkpt lat="41.0037470" lon="0.4795440">
        <ele>170.5</ele>
        <time>2020-08-07T13:17:17Z</time>
      </trkpt>
      <trkpt lat="41.0037800" lon="0.4795370">
        <ele>170.6</ele>
        <time>2020-08-07T13:17:19Z</time>
      </trkpt>
      <trkpt lat="41.0038110" lon="0.4795140">
        <ele>170.8</ele>
        <time>2020-08-07T13:17:20Z</time>
      </trkpt>
      <trkpt lat="41.0038220" lon="0.4794960">
        <ele>170.9</ele>
        <time>2020-08-07T13:17:21Z</time>
      </trkpt>
      <trkpt lat="41.0038370" lon="0.4794650">
        <ele>171.0</ele>
        <time>2020-08-07T13:17:23Z</time>
      </trkpt>
      <trkpt lat="41.0038740" lon="0.4793860">
        <ele>171.3</ele>
        <time>2020-08-07T13:17:25Z</time>
      </trkpt>
      <trkpt lat="41.0038970" lon="0.4793440">
        <ele>171.4</ele>
        <time>2020-08-07T13:17:26Z</time>
      </trkpt>
      <trkpt lat="41.0039160" lon="0.4793050">
        <ele>171.6</ele>
        <time>2020-08-07T13:17:27Z</time>
      </trkpt>
      <trkpt lat="41.0039400" lon="0.4792460">
        <ele>171.7</ele>
        <time>2020-08-07T13:17:29Z</time>
      </trkpt>
      <trkpt lat="41.0039560" lon="0.4792060">
        <ele>171.9</ele>
        <time>2020-08-07T13:17:30Z</time>
      </trkpt>
      <trkpt lat="41.0039660" lon="0.4791770">
        <ele>171.9</ele>
        <time>2020-08-07T13:17:31Z</time>
      </trkpt>
      <trkpt lat="41.0039850" lon="0.4791250">
        <ele>172.1</ele>
        <time>2020-08-07T13:17:33Z</time>
      </trkpt>
      <trkpt lat="41.0040020" lon="0.4790810">
        <ele>172.2</ele>
        <time>2020-08-07T13:17:34Z</time>
      </trkpt>
      <trkpt lat="41.0040210" lon="0.4790370">
        <ele>172.4</ele>
        <time>2020-08-07T13:17:35Z</time>
      </trkpt>
      <trkpt lat="41.0040290" lon="0.4790220">
        <ele>172.4</ele>
        <time>2020-08-07T13:17:36Z</time>
      </trkpt>
      <trkpt lat="41.0040440" lon="0.4789900">
        <ele>172.6</ele>
        <time>2020-08-07T13:17:37Z</time>
      </trkpt>
      <trkpt lat="41.0040750" lon="0.4789140">
        <ele>172.8</ele>
        <time>2020-08-07T13:17:40Z</time>
      </trkpt>
      <trkpt lat="41.0041130" lon="0.4788510">
        <ele>173.1</ele>
        <time>2020-08-07T13:17:42Z</time>
      </trkpt>
      <trkpt lat="41.0041350" lon="0.4788290">
        <ele>173.3</ele>
        <time>2020-08-07T13:17:43Z</time>
      </trkpt>
      <trkpt lat="41.0041760" lon="0.4788000">
        <ele>173.5</ele>
        <time>2020-08-07T13:17:45Z</time>
      </trkpt>
      <trkpt lat="41.0042130" lon="0.4787970">
        <ele>173.7</ele>
        <time>2020-08-07T13:17:46Z</time>
      </trkpt>
      <trkpt lat="41.0042290" lon="0.4787970">
        <ele>173.8</ele>
        <time>2020-08-07T13:17:47Z</time>
      </trkpt>
      <trkpt lat="41.0042570" lon="0.4788060">
        <ele>173.9</ele>
        <time>2020-08-07T13:17:49Z</time>
      </trkpt>
      <trkpt lat="41.0042910" lon="0.4788280">
        <ele>174.1</ele>
        <time>2020-08-07T13:17:51Z</time>
      </trkpt>
      <trkpt lat="41.0043110" lon="0.4788410">
        <ele>174.2</ele>
        <time>2020-08-07T13:17:52Z</time>
      </trkpt>
      <trkpt lat="41.0043480" lon="0.4788720">
        <ele>174.4</ele>
        <time>2020-08-07T13:17:54Z</time>
      </trkpt>
      <trkpt lat="41.0043770" lon="0.4788960">
        <ele>174.6</ele>
        <time>2020-08-07T13:17:55Z</time>
      </trkpt>
      <trkpt lat="41.0043850" lon="0.4789040">
        <ele>174.7</ele>
        <time>2020-08-07T13:17:56Z</time>
      </trkpt>
      <trkpt lat="41.0044120" lon="0.4789290">
        <ele>174.8</ele>
        <time>2020-08-07T13:17:57Z</time>
      </trkpt>
      <trkpt lat="41.0044210" lon="0.4789380">
        <ele>174.9</ele>
        <time>2020-08-07T13:17:58Z</time>
      </trkpt>
      <trkpt lat="41.0044520" lon="0.4789670">
        <ele>175.1</ele>
        <time>2020-08-07T13:18:00Z</time>
      </trkpt>
      <trkpt lat="41.0044740" lon="0.4789910">
        <ele>175.2</ele>
        <time>2020-08-07T13:18:01Z</time>
      </trkpt>
      <trkpt lat="41.0045080" lon="0.4790320">
        <ele>175.4</ele>
        <time>2020-08-07T13:18:03Z</time>
      </trkpt>
      <trkpt lat="41.0045290" lon="0.4790560">
        <ele>175.6</ele>
        <time>2020-08-07T13:18:04Z</time>
      </trkpt>
      <trkpt lat="41.0045600" lon="0.4790980">
        <ele>175.8</ele>
        <time>2020-08-07T13:18:05Z</time>
      </trkpt>
      <trkpt lat="41.0045730" lon="0.4791150">
        <ele>175.9</ele>
        <time>2020-08-07T13:18:06Z</time>
      </trkpt>
      <trkpt lat="41.0046020" lon="0.4791500">
        <ele>176.1</ele>
        <time>2020-08-07T13:18:08Z</time>
      </trkpt>
      <trkpt lat="41.0046360" lon="0.4791960">
        <ele>176.4</ele>
        <time>2020-08-07T13:18:10Z</time>
      </trkpt>
      <trkpt lat="41.0046540" lon="0.4792170">
        <ele>176.5</ele>
        <time>2020-08-07T13:18:11Z</time>
      </trkpt>
      <trkpt lat="41.0046820" lon="0.4792560">
        <ele>176.7</ele>
        <time>2020-08-07T13:18:13Z</time>
      </trkpt>
      <trkpt lat="41.0047050" lon="0.4792910">
        <ele>176.9</ele>
        <time>2020-08-07T13:18:14Z</time>
      </trkpt>
      <trkpt lat="41.0047310" lon="0.4793240">
        <ele>177.0</ele>
        <time>2020-08-07T13:18:15Z</time>
      </trkpt>
      <trkpt lat="41.0047550" lon="0.4793650">
        <ele>177.2</ele>
        <time>2020-08-07T13:18:17Z</time>
      </trkpt>
      <trkpt lat="41.0047760" lon="0.4794020">
        <ele>177.4</ele>
        <time>2020-08-07T13:18:18Z</time>
      </trkpt>
      <trkpt lat="41.0047960" lon="0.4794360">
        <ele>177.6</ele>
        <time>2020-08-07T13:18:20Z</time>
      </trkpt>
      <trkpt lat="41.0048130" lon="0.4794650">
        <ele>177.7</ele>
        <time>2020-08-07T13:18:21Z</time>
      </trkpt>
      <trkpt lat="41.0048370" lon="0.4795040">
        <ele>177.9</ele>
        <time>2020-08-07T13:18:22Z</time>
      </trkpt>
      <trkpt lat="41.0048460" lon="0.4795190">
        <ele>178.0</ele>
        <time>2020-08-07T13:18:23Z</time>
      </trkpt>
      <trkpt lat="41.0048750" lon="0.4795690">
        <ele>178.2</ele>
        <time>2020-08-07T13:18:25Z</time>
      </trkpt>
      <trkpt lat="41.0048960" lon="0.4796060">
        <ele>178.4</ele>
        <time>2020-08-07T13:18:26Z</time>
      </trkpt>
      <trkpt lat="41.0049030" lon="0.4796190">
        <ele>178.5</ele>
        <time>2020-08-07T13:18:27Z</time>
      </trkpt>
      <trkpt lat="41.0049280" lon="0.4796580">
        <ele>178.7</ele>
        <time>2020-08-07T13:18:28Z</time>
      </trkpt>
      <trkpt lat="41.0049350" lon="0.4796710">
        <ele>178.8</ele>
        <time>2020-08-07T13:18:29Z</time>
      </trkpt>
      <trkpt lat="41.0049510" lon="0.4797010">
        <ele>178.9</ele>
        <time>2020-08-07T13:18:30Z</time>
      </trkpt>
      <trkpt lat="41.0049650" lon="0.4797330">
        <ele>179.0</ele>
        <time>2020-08-07T13:18:31Z</time>
      </trkpt>
      <trkpt lat="41.0049850" lon="0.4797800">
        <ele>179.3</ele>
        <time>2020-08-07T13:18:32Z</time>
      </trkpt>
      <trkpt lat="41.0049940" lon="0.4798010">
        <ele>179.4</ele>
        <time>2020-08-07T13:18:33Z</time>
      </trkpt>
      <trkpt lat="41.0050080" lon="0.4798380">
        <ele>179.5</ele>
        <time>2020-08-07T13:18:35Z</time>
      </trkpt>
      <trkpt lat="41.0050250" lon="0.4798780">
        <ele>179.7</ele>
        <time>2020-08-07T13:18:36Z</time>
      </trkpt>
      <trkpt lat="41.0050370" lon="0.4799220">
        <ele>179.9</ele>
        <time>2020-08-07T13:18:37Z</time>
      </trkpt>
      <trkpt lat="41.0050400" lon="0.4799370">
        <ele>180.0</ele>
        <time>2020-08-07T13:18:38Z</time>
      </trkpt>
      <trkpt lat="41.0050460" lon="0.4799870">
        <ele>180.2</ele>
        <time>2020-08-07T13:18:39Z</time>
      </trkpt>
      <trkpt lat="41.0050470" lon="0.4800050">
        <ele>180.3</ele>
        <time>2020-08-07T13:18:40Z</time>
      </trkpt>
      <trkpt lat="41.0050530" lon="0.4800590">
        <ele>180.5</ele>
        <time>2020-08-07T13:18:42Z</time>
      </trkpt>
      <trkpt lat="41.0050430" lon="0.4801180">
        <ele>180.8</ele>
        <time>2020-08-07T13:18:44Z</time>
      </trkpt>
      <trkpt lat="41.0050360" lon="0.4801450">
        <ele>181.0</ele>
        <time>2020-08-07T13:18:45Z</time>
      </trkpt>
      <trkpt lat="41.0050250" lon="0.4802000">
        <ele>181.2</ele>
        <time>2020-08-07T13:18:47Z</time>
      </trkpt>
      <trkpt lat="41.0050060" lon="0.4802460">
        <ele>181.4</ele>
        <time>2020-08-07T13:18:48Z</time>
      </trkpt>
      <trkpt lat="41.0049870" lon="0.4803090">
        <ele>181.7</ele>
        <time>2020-08-07T13:18:50Z</time>
      </trkpt>
      <trkpt lat="41.0049830" lon="0.4803300">
        <ele>181.8</ele>
        <time>2020-08-07T13:18:51Z</time>
      </trkpt>
      <trkpt lat="41.0049780" lon="0.4803510">
        <ele>181.9</ele>
        <time>2020-08-07T13:18:52Z</time>
      </trkpt>
      <trkpt lat="41.0049740" lon="0.4804010">
        <ele>182.0</ele>
        <time>2020-08-07T13:18:53Z</time>
      </trkpt>
      <trkpt lat="41.0049730" lon="0.4804220">
        <ele>182.1</ele>
        <time>2020-08-07T13:18:54Z</time>
      </trkpt>
      <trkpt lat="41.0049780" lon="0.4804720">
        <ele>182.3</ele>
        <time>2020-08-07T13:18:56Z</time>
      </trkpt>
      <trkpt lat="41.0049850" lon="0.4805300">
        <ele>182.5</ele>
        <time>2020-08-07T13:18:57Z</time>
      </trkpt>
      <trkpt lat="41.0049900" lon="0.4805550">
        <ele>182.6</ele>
        <time>2020-08-07T13:18:58Z</time>
      </trkpt>
      <trkpt lat="41.0049980" lon="0.4806060">
        <ele>182.8</ele>
        <time>2020-08-07T13:19:00Z</time>
      </trkpt>
      <trkpt lat="41.0050080" lon="0.4806690">
        <ele>183.0</ele>
        <time>2020-08-07T13:19:02Z</time>
      </trkpt>
      <trkpt lat="41.0050200" lon="0.4807210">
        <ele>183.2</ele>
        <time>2020-08-07T13:19:03Z</time>
      </trkpt>
      <trkpt lat="41.0050290" lon="0.4807620">
        <ele>183.4</ele>
        <time>2020-08-07T13:19:04Z</time>
      </trkpt>
      <trkpt lat="41.0050360" lon="0.4807960">
        <ele>183.5</ele>
        <time>2020-08-07T13:19:05Z</time>
      </trkpt>
      <trkpt lat="41.0050510" lon="0.4808630">
        <ele>183.8</ele>
        <time>2020-08-07T13:19:07Z</time>
      </trkpt>
      <trkpt lat="41.0050660" lon="0.4809290">
        <ele>184.0</ele>
        <time>2020-08-07T13:19:09Z</time>
      </trkpt>
      <trkpt lat="41.0050740" lon="0.4809810">
        <ele>184.2</ele>
        <time>2020-08-07T13:19:10Z</time>
      </trkpt>
      <trkpt lat="41.0050770" lon="0.4809990">
        <ele>184.3</ele>
        <time>2020-08-07T13:19:11Z</time>
      </trkpt>
      <trkpt lat="41.0050840" lon="0.4810280">
        <ele>184.4</ele>
        <time>2020-08-07T13:19:12Z</time>
      </trkpt>
      <trkpt lat="41.0050970" lon="0.4810870">
        <ele>184.6</ele>
        <time>2020-08-07T13:19:14Z</time>
      </trkpt>
      <trkpt lat="41.0051180" lon="0.4811450">
        <ele>184.8</ele>
        <time>2020-08-07T13:19:16Z</time>
      </trkpt>
      <trkpt lat="41.0051300" lon="0.4811690">
        <ele>184.9</ele>
        <time>2020-08-07T13:19:17Z</time>
      </trkpt>
      <trkpt lat="41.0051570" lon="0.4812170">
        <ele>185.1</ele>
        <time>2020-08-07T13:19:19Z</time>
      </trkpt>
      <trkpt lat="41.0051750" lon="0.4812370">
        <ele>185.2</ele>
        <time>2020-08-07T13:19:20Z</time>
      </trkpt>
      <trkpt lat="41.0052100" lon="0.4812630">
        <ele>185.3</ele>
        <time>2020-08-07T13:19:22Z</time>
      </trkpt>
      <trkpt lat="41.0052500" lon="0.4812810">
        <ele>185.5</ele>
        <time>2020-08-07T13:19:23Z</time>
      </trkpt>
      <trkpt lat="41.0052660" lon="0.4812870">
        <ele>185.6</ele>
        <time>2020-08-07T13:19:24Z</time>
      </trkpt>
      <trkpt lat="41.0053010" lon="0.4813020">
        <ele>185.7</ele>
        <time>2020-08-07T13:19:26Z</time>
      </trkpt>
      <trkpt lat="41.0053340" lon="0.4813090">
        <ele>185.9</ele>
        <time>2020-08-07T13:19:27Z</time>
      </trkpt>
      <trkpt lat="41.0053630" lon="0.4813080">
        <ele>186.0</ele>
        <time>2020-08-07T13:19:28Z</time>
      </trkpt>
      <trkpt lat="41.0053970" lon="0.4813090">
        <ele>186.2</ele>
        <time>2020-08-07T13:19:30Z</time>
      </trkpt>
      <trkpt lat="41.0054340" lon="0.4813050">
        <ele>186.3</ele>
        <time>2020-08-07T13:19:32Z</time>
      </trkpt>
      <trkpt lat="41.0054730" lon="0.4812950">
        <ele>186.5</ele>
        <time>2020-08-07T13:19:33Z</time>
      </trkpt>
      <trkpt lat="41.0054880" lon="0.4812900">
        <ele>186.6</ele>
        <time>2020-08-07T13:19:34Z</time>
      </trkpt>
      <trkpt lat="41.0055230" lon="0.4812860">
        <ele>186.8</ele>
        <time>2020-08-07T13:19:35Z</time>
      </trkpt>
      <trkpt lat="41.0055540" lon="0.4812830">
        <ele>187.0</ele>
        <time>2020-08-07T13:19:37Z</time>
      </trkpt>
      <trkpt lat="41.0055850" lon="0.4812790">
        <ele>187.1</ele>
        <time>2020-08-07T13:19:38Z</time>
      </trkpt>
      <trkpt lat="41.0056280" lon="0.4812760">
        <ele>187.4</ele>
        <time>2020-08-07T13:19:39Z</time>
      </trkpt>
      <trkpt lat="41.0056450" lon="0.4812770">
        <ele>187.5</ele>
        <time>2020-08-07T13:19:40Z</time>
      </trkpt>
      <trkpt lat="41.0056760" lon="0.4812800">
        <ele>187.7</ele>
        <time>2020-08-07T13:19:42Z</time>
      </trkpt>
      <trkpt lat="41.0057110" lon="0.4812800">
        <ele>187.8</ele>
        <time>2020-08-07T13:19:43Z</time>
      </trkpt>
      <trkpt lat="41.0057570" lon="0.4812890">
        <ele>188.1</ele>
        <time>2020-08-07T13:19:45Z</time>
      </trkpt>
      <trkpt lat="41.0057770" lon="0.4812990">
        <ele>188.2</ele>
        <time>2020-08-07T13:19:46Z</time>
      </trkpt>
      <trkpt lat="41.0058210" lon="0.4813270">
        <ele>188.5</ele>
        <time>2020-08-07T13:19:48Z</time>
      </trkpt>
      <trkpt lat="41.0058530" lon="0.4813490">
        <ele>188.7</ele>
        <time>2020-08-07T13:19:49Z</time>
      </trkpt>
      <trkpt lat="41.0058620" lon="0.4813600">
        <ele>188.7</ele>
        <time>2020-08-07T13:19:50Z</time>
      </trkpt>
      <trkpt lat="41.0058860" lon="0.4813900">
        <ele>188.9</ele>
        <time>2020-08-07T13:19:51Z</time>
      </trkpt>
      <trkpt lat="41.0059100" lon="0.4814240">
        <ele>189.1</ele>
        <time>2020-08-07T13:19:53Z</time>
      </trkpt>
      <trkpt lat="41.0059220" lon="0.4814500">
        <ele>189.2</ele>
        <time>2020-08-07T13:19:54Z</time>
      </trkpt>
      <trkpt lat="41.0059480" lon="0.4815050">
        <ele>189.5</ele>
        <time>2020-08-07T13:19:56Z</time>
      </trkpt>
      <trkpt lat="41.0059610" lon="0.4815590">
        <ele>189.7</ele>
        <time>2020-08-07T13:19:57Z</time>
      </trkpt>
      <trkpt lat="41.0059710" lon="0.4816120">
        <ele>189.9</ele>
        <time>2020-08-07T13:19:59Z</time>
      </trkpt>
      <trkpt lat="41.0059790" lon="0.4816450">
        <ele>190.0</ele>
        <time>2020-08-07T13:20:00Z</time>
      </trkpt>
      <trkpt lat="41.0059900" lon="0.4817010">
        <ele>190.2</ele>
        <time>2020-08-07T13:20:02Z</time>
      </trkpt>
      <trkpt lat="41.0059940" lon="0.4817390">
        <ele>190.4</ele>
        <time>2020-08-07T13:20:03Z</time>
      </trkpt>
      <trkpt lat="41.0059980" lon="0.4817930">
        <ele>190.6</ele>
        <time>2020-08-07T13:20:04Z</time>
      </trkpt>
      <trkpt lat="41.0059990" lon="0.4818120">
        <ele>190.6</ele>
        <time>2020-08-07T13:20:05Z</time>
      </trkpt>
      <trkpt lat="41.0060010" lon="0.4818650">
        <ele>190.8</ele>
        <time>2020-08-07T13:20:06Z</time>
      </trkpt>
      <trkpt lat="41.0060000" lon="0.4818820">
        <ele>190.9</ele>
        <time>2020-08-07T13:20:07Z</time>
      </trkpt>
      <trkpt lat="41.0060000" lon="0.4819180">
        <ele>191.0</ele>
        <time>2020-08-07T13:20:08Z</time>
      </trkpt>
      <trkpt lat="41.0059990" lon="0.4819780">
        <ele>191.3</ele>
        <time>2020-08-07T13:20:10Z</time>
      </trkpt>
      <trkpt lat="41.0060000" lon="0.4820170">
        <ele>191.4</ele>
        <time>2020-08-07T13:20:11Z</time>
      </trkpt>
      <trkpt lat="41.0059990" lon="0.4820670">
        <ele>191.6</ele>
        <time>2020-08-07T13:20:12Z</time>
      </trkpt>
      <trkpt lat="41.0059980" lon="0.4820830">
        <ele>191.7</ele>
        <time>2020-08-07T13:20:13Z</time>
      </trkpt>
      <trkpt lat="41.0059990" lon="0.4821470">
        <ele>191.9</ele>
        <time>2020-08-07T13:20:15Z</time>
      </trkpt>
      <trkpt lat="41.0059990" lon="0.4821870">
        <ele>192.0</ele>
        <time>2020-08-07T13:20:16Z</time>
      </trkpt>
      <trkpt lat="41.0060010" lon="0.4822400">
        <ele>192.2</ele>
        <time>2020-08-07T13:20:17Z</time>
      </trkpt>
      <trkpt lat="41.0060020" lon="0.4822580">
        <ele>192.3</ele>
        <time>2020-08-07T13:20:18Z</time>
      </trkpt>
      <trkpt lat="41.0060030" lon="0.4823290">
        <ele>192.5</ele>
        <time>2020-08-07T13:20:20Z</time>
      </trkpt>
      <trkpt lat="41.0060050" lon="0.4823760">
        <ele>192.7</ele>
        <time>2020-08-07T13:20:21Z</time>
      </trkpt>
      <trkpt lat="41.0060050" lon="0.4823910">
        <ele>192.7</ele>
        <time>2020-08-07T13:20:22Z</time>
      </trkpt>
      <trkpt lat="41.0060080" lon="0.4824190">
        <ele>192.8</ele>
        <time>2020-08-07T13:20:23Z</time>
      </trkpt>
      <trkpt lat="41.0060140" lon="0.4824700">
        <ele>193.0</ele>
        <time>2020-08-07T13:20:25Z</time>
      </trkpt>
      <trkpt lat="41.0060190" lon="0.4825130">
        <ele>193.1</ele>
        <time>2020-08-07T13:20:26Z</time>
      </trkpt>
      <trkpt lat="41.0060290" lon="0.4825530">
        <ele>193.3</ele>
        <time>2020-08-07T13:20:27Z</time>
      </trkpt>
      <trkpt lat="41.0060390" lon="0.4825960">
        <ele>193.4</ele>
        <time>2020-08-07T13:20:29Z</time>
      </trkpt>
      <trkpt lat="41.0060470" lon="0.4826320">
        <ele>193.5</ele>
        <time>2020-08-07T13:20:30Z</time>
      </trkpt>
      <trkpt lat="41.0060630" lon="0.4826730">
        <ele>193.7</ele>
        <time>2020-08-07T13:20:31Z</time>
      </trkpt>
      <trkpt lat="41.0060730" lon="0.4827060">
        <ele>193.8</ele>
        <time>2020-08-07T13:20:32Z</time>
      </trkpt>
      <trkpt lat="41.0060890" lon="0.4827550">
        <ele>194.0</ele>
        <time>2020-08-07T13:20:34Z</time>
      </trkpt>
      <trkpt lat="41.0061120" lon="0.4828060">
        <ele>194.2</ele>
        <time>2020-08-07T13:20:36Z</time>
      </trkpt>
      <trkpt lat="41.0061380" lon="0.4828520">
        <ele>194.4</ele>
        <time>2020-08-07T13:20:37Z</time>
      </trkpt>
      <trkpt lat="41.0061470" lon="0.4828720">
        <ele>194.5</ele>
        <time>2020-08-07T13:20:38Z</time>
      </trkpt>
      <trkpt lat="41.0061760" lon="0.4829190">
        <ele>194.7</ele>
        <time>2020-08-07T13:20:40Z</time>
      </trkpt>
      <trkpt lat="41.0062010" lon="0.4829560">
        <ele>194.9</ele>
        <time>2020-08-07T13:20:42Z</time>
      </trkpt>
      <trkpt lat="41.0062240" lon="0.4829870">
        <ele>195.1</ele>
        <time>2020-08-07T13:20:43Z</time>
      </trkpt>
      <trkpt lat="41.0062390" lon="0.4830120">
        <ele>195.2</ele>
        <time>2020-08-07T13:20:44Z</time>
      </trkpt>
      <trkpt lat="41.0062670" lon="0.4830490">
        <ele>195.3</ele>
        <time>2020-08-07T13:20:46Z</time>
      </trkpt>
      <trkpt lat="41.0062920" lon="0.4830800">
        <ele>195.5</ele>
        <time>2020-08-07T13:20:47Z</time>
      </trkpt>
      <trkpt lat="41.0063290" lon="0.4831230">
        <ele>195.7</ele>
        <time>2020-08-07T13:20:49Z</time>
      </trkpt>
      <trkpt lat="41.0063540" lon="0.4831250">
        <ele>195.8</ele>
        <time>2020-08-07T13:20:50Z</time>
      </trkpt>
      <trkpt lat="41.0063970" lon="0.4831660">
        <ele>196.1</ele>
        <time>2020-08-07T13:20:52Z</time>
      </trkpt>
      <trkpt lat="41.0064360" lon="0.4832070">
        <ele>196.3</ele>
        <time>2020-08-07T13:20:54Z</time>
      </trkpt>
      <trkpt lat="41.0064660" lon="0.4832350">
        <ele>196.5</ele>
        <time>2020-08-07T13:20:55Z</time>
      </trkpt>
      <trkpt lat="41.0064730" lon="0.4832520">
        <ele>196.5</ele>
        <time>2020-08-07T13:20:56Z</time>
      </trkpt>
      <trkpt lat="41.0065010" lon="0.4833090">
        <ele>196.7</ele>
        <time>2020-08-07T13:20:58Z</time>
      </trkpt>
      <trkpt lat="41.0065200" lon="0.4833310">
        <ele>196.8</ele>
        <time>2020-08-07T13:20:59Z</time>
      </trkpt>
      <trkpt lat="41.0065520" lon="0.4833610">
        <ele>197.0</ele>
        <time>2020-08-07T13:21:01Z</time>
      </trkpt>
      <trkpt lat="41.0065610" lon="0.4833830">
        <ele>197.1</ele>
        <time>2020-08-07T13:21:02Z</time>
      </trkpt>
      <trkpt lat="41.0065770" lon="0.4833960">
        <ele>197.2</ele>
        <time>2020-08-07T13:21:04Z</time>
      </trkpt>
      <trkpt lat="41.0065920" lon="0.4834040">
        <ele>197.2</ele>
        <time>2020-08-07T13:21:05Z</time>
      </trkpt>
      <trkpt lat="41.0066070" lon="0.4834190">
        <ele>197.3</ele>
        <time>2020-08-07T13:21:06Z</time>
      </trkpt>
      <trkpt lat="41.0066200" lon="0.4834340">
        <ele>197.4</ele>
        <time>2020-08-07T13:21:07Z</time>
      </trkpt>
      <trkpt lat="41.0066590" lon="0.4834710">
        <ele>197.6</ele>
        <time>2020-08-07T13:21:09Z</time>
      </trkpt>
      <trkpt lat="41.0067340" lon="0.4835410">
        <ele>198.0</ele>
        <time>2020-08-07T13:21:11Z</time>
      </trkpt>
      <trkpt lat="41.0067760" lon="0.4835750">
        <ele>198.3</ele>
        <time>2020-08-07T13:21:12Z</time>
      </trkpt>
      <trkpt lat="41.0068280" lon="0.4836170">
        <ele>198.5</ele>
        <time>2020-08-07T13:21:14Z</time>
      </trkpt>
      <trkpt lat="41.0068590" lon="0.4836370">
        <ele>198.6</ele>
        <time>2020-08-07T13:21:15Z</time>
      </trkpt>
      <trkpt lat="41.0068950" lon="0.4836580">
        <ele>198.8</ele>
        <time>2020-08-07T13:21:16Z</time>
      </trkpt>
      <trkpt lat="41.0069350" lon="0.4836850">
        <ele>199.0</ele>
        <time>2020-08-07T13:21:18Z</time>
      </trkpt>
      <trkpt lat="41.0069760" lon="0.4837090">
        <ele>199.1</ele>
        <time>2020-08-07T13:21:20Z</time>
      </trkpt>
      <trkpt lat="41.0069950" lon="0.4837230">
        <ele>199.2</ele>
        <time>2020-08-07T13:21:21Z</time>
      </trkpt>
      <trkpt lat="41.0070380" lon="0.4837510">
        <ele>199.4</ele>
        <time>2020-08-07T13:21:23Z</time>
      </trkpt>
      <trkpt lat="41.0070780" lon="0.4837730">
        <ele>199.5</ele>
        <time>2020-08-07T13:21:24Z</time>
      </trkpt>
      <trkpt lat="41.0071140" lon="0.4837920">
        <ele>199.7</ele>
        <time>2020-08-07T13:21:26Z</time>
      </trkpt>
      <trkpt lat="41.0071500" lon="0.4838100">
        <ele>199.8</ele>
        <time>2020-08-07T13:21:27Z</time>
      </trkpt>
      <trkpt lat="41.0071600" lon="0.4838160">
        <ele>199.9</ele>
        <time>2020-08-07T13:21:28Z</time>
      </trkpt>
      <trkpt lat="41.0072010" lon="0.4838350">
        <ele>200.1</ele>
        <time>2020-08-07T13:21:29Z</time>
      </trkpt>
      <trkpt lat="41.0072170" lon="0.4838440">
        <ele>200.2</ele>
        <time>2020-08-07T13:21:30Z</time>
      </trkpt>
      <trkpt lat="41.0072500" lon="0.4838610">
        <ele>200.3</ele>
        <time>2020-08-07T13:21:32Z</time>
      </trkpt>
      <trkpt lat="41.0072770" lon="0.4838790">
        <ele>200.5</ele>
        <time>2020-08-07T13:21:33Z</time>
      </trkpt>
      <trkpt lat="41.0073180" lon="0.4839020">
        <ele>200.7</ele>
        <time>2020-08-07T13:21:35Z</time>
      </trkpt>
      <trkpt lat="41.0073450" lon="0.4839250">
        <ele>200.8</ele>
        <time>2020-08-07T13:21:36Z</time>
      </trkpt>
      <trkpt lat="41.0073550" lon="0.4839310">
        <ele>200.9</ele>
        <time>2020-08-07T13:21:37Z</time>
      </trkpt>
      <trkpt lat="41.0073990" lon="0.4839470">
        <ele>201.1</ele>
        <time>2020-08-07T13:21:39Z</time>
      </trkpt>
      <trkpt lat="41.0074220" lon="0.4839600">
        <ele>201.2</ele>
        <time>2020-08-07T13:21:40Z</time>
      </trkpt>
      <trkpt lat="41.0074670" lon="0.4839800">
        <ele>201.4</ele>
        <time>2020-08-07T13:21:42Z</time>
      </trkpt>
      <trkpt lat="41.0075090" lon="0.4840050">
        <ele>201.7</ele>
        <time>2020-08-07T13:21:44Z</time>
      </trkpt>
      <trkpt lat="41.0075450" lon="0.4840260">
        <ele>201.9</ele>
        <time>2020-08-07T13:21:45Z</time>
      </trkpt>
      <trkpt lat="41.0075560" lon="0.4840340">
        <ele>201.9</ele>
        <time>2020-08-07T13:21:46Z</time>
      </trkpt>
      <trkpt lat="41.0075920" lon="0.4840540">
        <ele>202.1</ele>
        <time>2020-08-07T13:21:48Z</time>
      </trkpt>
      <trkpt lat="41.0076220" lon="0.4840800">
        <ele>202.3</ele>
        <time>2020-08-07T13:21:49Z</time>
      </trkpt>
      <trkpt lat="41.0076490" lon="0.4841060">
        <ele>202.4</ele>
        <time>2020-08-07T13:21:50Z</time>
      </trkpt>
      <trkpt lat="41.0076790" lon="0.4841220">
        <ele>202.6</ele>
        <time>2020-08-07T13:21:52Z</time>
      </trkpt>
      <trkpt lat="41.0076960" lon="0.4841310">
        <ele>202.6</ele>
        <time>2020-08-07T13:21:53Z</time>
      </trkpt>
      <trkpt lat="41.0077220" lon="0.4841450">
        <ele>202.8</ele>
        <time>2020-08-07T13:21:55Z</time>
      </trkpt>
      <trkpt lat="41.0077390" lon="0.4841550">
        <ele>202.9</ele>
        <time>2020-08-07T13:21:57Z</time>
      </trkpt>
      <trkpt lat="41.0077430" lon="0.4841560">
        <ele>202.9</ele>
        <time>2020-08-07T13:21:58Z</time>
      </trkpt>
      <trkpt lat="41.0077480" lon="0.4841580">
        <ele>202.9</ele>
        <time>2020-08-07T13:21:59Z</time>
      </trkpt>
      <trkpt lat="41.0077520" lon="0.4841600">
        <ele>202.9</ele>
        <time>2020-08-07T13:22:00Z</time>
      </trkpt>
      <trkpt lat="41.0077570" lon="0.4841620">
        <ele>202.9</ele>
        <time>2020-08-07T13:22:01Z</time>
      </trkpt>
      <trkpt lat="41.0077610" lon="0.4841630">
        <ele>203.0</ele>
        <time>2020-08-07T13:22:02Z</time>
      </trkpt>
      <trkpt lat="41.0077660" lon="0.4841650">
        <ele>203.0</ele>
        <time>2020-08-07T13:22:03Z</time>
      </trkpt>
      <trkpt lat="41.0077700" lon="0.4841670">
        <ele>203.0</ele>
        <time>2020-08-07T13:22:04Z</time>
      </trkpt>
      <trkpt lat="41.0077750" lon="0.4841690">
        <ele>203.0</ele>
        <time>2020-08-07T13:22:05Z</time>
      </trkpt>
      <trkpt lat="41.0077790" lon="0.4841700">
        <ele>203.0</ele>
        <time>2020-08-07T13:23:47Z</time>
      </trkpt>
      <trkpt lat="41.0077840" lon="0.4841720">
        <ele>203.1</ele>
        <time>2020-08-07T13:23:49Z</time>
      </trkpt>
      <trkpt lat="41.0077880" lon="0.4841740">
        <ele>203.1</ele>
        <time>2020-08-07T13:23:50Z</time>
      </trkpt>
      <trkpt lat="41.0078390" lon="0.4841950">
        <ele>203.3</ele>
        <time>2020-08-07T13:23:52Z</time>
      </trkpt>
      <trkpt lat="41.0078570" lon="0.4842060">
        <ele>203.4</ele>
        <time>2020-08-07T13:23:53Z</time>
      </trkpt>
      <trkpt lat="41.0078750" lon="0.4842160">
        <ele>203.5</ele>
        <time>2020-08-07T13:23:54Z</time>
      </trkpt>
      <trkpt lat="41.0079290" lon="0.4842590">
        <ele>203.7</ele>
        <time>2020-08-07T13:23:56Z</time>
      </trkpt>
      <trkpt lat="41.0079600" lon="0.4842820">
        <ele>203.9</ele>
        <time>2020-08-07T13:23:57Z</time>
      </trkpt>
      <trkpt lat="41.0079910" lon="0.4843060">
        <ele>204.0</ele>
        <time>2020-08-07T13:23:58Z</time>
      </trkpt>
      <trkpt lat="41.0080320" lon="0.4843380">
        <ele>204.2</ele>
        <time>2020-08-07T13:23:59Z</time>
      </trkpt>
      <trkpt lat="41.0080660" lon="0.4843640">
        <ele>204.3</ele>
        <time>2020-08-07T13:24:01Z</time>
      </trkpt>
      <trkpt lat="41.0081120" lon="0.4843960">
        <ele>204.5</ele>
        <time>2020-08-07T13:24:03Z</time>
      </trkpt>
      <trkpt lat="41.0081470" lon="0.4844310">
        <ele>204.6</ele>
        <time>2020-08-07T13:24:04Z</time>
      </trkpt>
      <trkpt lat="41.0081620" lon="0.4844470">
        <ele>204.6</ele>
        <time>2020-08-07T13:24:05Z</time>
      </trkpt>
      <trkpt lat="41.0081920" lon="0.4844800">
        <ele>204.7</ele>
        <time>2020-08-07T13:24:07Z</time>
      </trkpt>
      <trkpt lat="41.0082170" lon="0.4845030">
        <ele>204.8</ele>
        <time>2020-08-07T13:24:08Z</time>
      </trkpt>
      <trkpt lat="41.0082380" lon="0.4845250">
        <ele>204.9</ele>
        <time>2020-08-07T13:24:09Z</time>
      </trkpt>
      <trkpt lat="41.0082740" lon="0.4845640">
        <ele>205.0</ele>
        <time>2020-08-07T13:24:11Z</time>
      </trkpt>
      <trkpt lat="41.0083000" lon="0.4845910">
        <ele>205.0</ele>
        <time>2020-08-07T13:24:12Z</time>
      </trkpt>
      <trkpt lat="41.0083330" lon="0.4846260">
        <ele>205.1</ele>
        <time>2020-08-07T13:24:13Z</time>
      </trkpt>
      <trkpt lat="41.0083790" lon="0.4846850">
        <ele>205.2</ele>
        <time>2020-08-07T13:24:15Z</time>
      </trkpt>
      <trkpt lat="41.0084050" lon="0.4847250">
        <ele>205.3</ele>
        <time>2020-08-07T13:24:16Z</time>
      </trkpt>
      <trkpt lat="41.0084150" lon="0.4847410">
        <ele>205.3</ele>
        <time>2020-08-07T13:24:17Z</time>
      </trkpt>
      <trkpt lat="41.0084570" lon="0.4848010">
        <ele>205.4</ele>
        <time>2020-08-07T13:24:19Z</time>
      </trkpt>
      <trkpt lat="41.0084890" lon="0.4848520">
        <ele>205.5</ele>
        <time>2020-08-07T13:24:21Z</time>
      </trkpt>
      <trkpt lat="41.0085720" lon="0.4850030">
        <ele>205.7</ele>
        <time>2020-08-07T13:24:27Z</time>
      </trkpt>
      <trkpt lat="41.0085990" lon="0.4850540">
        <ele>205.7</ele>
        <time>2020-08-07T13:24:28Z</time>
      </trkpt>
      <trkpt lat="41.0086550" lon="0.4851640">
        <ele>205.8</ele>
        <time>2020-08-07T13:24:30Z</time>
      </trkpt>
      <trkpt lat="41.0086930" lon="0.4852390">
        <ele>205.8</ele>
        <time>2020-08-07T13:24:32Z</time>
      </trkpt>
      <trkpt lat="41.0087310" lon="0.4853180">
        <ele>205.8</ele>
        <time>2020-08-07T13:24:34Z</time>
      </trkpt>
      <trkpt lat="41.0087670" lon="0.4853930">
        <ele>205.9</ele>
        <time>2020-08-07T13:24:36Z</time>
      </trkpt>
      <trkpt lat="41.0088000" lon="0.4854640">
        <ele>205.9</ele>
        <time>2020-08-07T13:24:38Z</time>
      </trkpt>
      <trkpt lat="41.0088350" lon="0.4855370">
        <ele>206.0</ele>
        <time>2020-08-07T13:24:40Z</time>
      </trkpt>
      <trkpt lat="41.0088560" lon="0.4855760">
        <ele>206.0</ele>
        <time>2020-08-07T13:24:41Z</time>
      </trkpt>
      <trkpt lat="41.0088970" lon="0.4856480">
        <ele>206.1</ele>
        <time>2020-08-07T13:24:43Z</time>
      </trkpt>
      <trkpt lat="41.0089260" lon="0.4856960">
        <ele>206.2</ele>
        <time>2020-08-07T13:24:45Z</time>
      </trkpt>
      <trkpt lat="41.0089470" lon="0.4857380">
        <ele>206.2</ele>
        <time>2020-08-07T13:24:46Z</time>
      </trkpt>
      <trkpt lat="41.0089630" lon="0.4857700">
        <ele>206.3</ele>
        <time>2020-08-07T13:24:47Z</time>
      </trkpt>
      <trkpt lat="41.0089790" lon="0.4858040">
        <ele>206.3</ele>
        <time>2020-08-07T13:24:48Z</time>
      </trkpt>
      <trkpt lat="41.0089940" lon="0.4858340">
        <ele>206.4</ele>
        <time>2020-08-07T13:24:49Z</time>
      </trkpt>
      <trkpt lat="41.0090170" lon="0.4858820">
        <ele>206.4</ele>
        <time>2020-08-07T13:24:50Z</time>
      </trkpt>
      <trkpt lat="41.0090370" lon="0.4859250">
        <ele>206.5</ele>
        <time>2020-08-07T13:24:52Z</time>
      </trkpt>
      <trkpt lat="41.0090560" lon="0.4859710">
        <ele>206.6</ele>
        <time>2020-08-07T13:24:53Z</time>
      </trkpt>
      <trkpt lat="41.0090720" lon="0.4860000">
        <ele>206.7</ele>
        <time>2020-08-07T13:24:54Z</time>
      </trkpt>
      <trkpt lat="41.0090970" lon="0.4860560">
        <ele>206.8</ele>
        <time>2020-08-07T13:24:55Z</time>
      </trkpt>
      <trkpt lat="41.0091160" lon="0.4860960">
        <ele>206.9</ele>
        <time>2020-08-07T13:24:57Z</time>
      </trkpt>
      <trkpt lat="41.0091310" lon="0.4861230">
        <ele>207.0</ele>
        <time>2020-08-07T13:24:58Z</time>
      </trkpt>
      <trkpt lat="41.0091540" lon="0.4861670">
        <ele>207.2</ele>
        <time>2020-08-07T13:25:00Z</time>
      </trkpt>
      <trkpt lat="41.0091760" lon="0.4862130">
        <ele>207.3</ele>
        <time>2020-08-07T13:25:01Z</time>
      </trkpt>
      <trkpt lat="41.0091840" lon="0.4862290">
        <ele>207.3</ele>
        <time>2020-08-07T13:25:02Z</time>
      </trkpt>
      <trkpt lat="41.0091980" lon="0.4862640">
        <ele>207.4</ele>
        <time>2020-08-07T13:25:03Z</time>
      </trkpt>
      <trkpt lat="41.0092200" lon="0.4863140">
        <ele>207.5</ele>
        <time>2020-08-07T13:25:04Z</time>
      </trkpt>
      <trkpt lat="41.0092470" lon="0.4863550">
        <ele>207.7</ele>
        <time>2020-08-07T13:25:06Z</time>
      </trkpt>
      <trkpt lat="41.0092650" lon="0.4863900">
        <ele>207.8</ele>
        <time>2020-08-07T13:25:07Z</time>
      </trkpt>
      <trkpt lat="41.0092840" lon="0.4864320">
        <ele>207.9</ele>
        <time>2020-08-07T13:25:09Z</time>
      </trkpt>
      <trkpt lat="41.0093050" lon="0.4864780">
        <ele>208.1</ele>
        <time>2020-08-07T13:25:11Z</time>
      </trkpt>
      <trkpt lat="41.0093210" lon="0.4865160">
        <ele>208.2</ele>
        <time>2020-08-07T13:25:12Z</time>
      </trkpt>
      <trkpt lat="41.0093470" lon="0.4865680">
        <ele>208.4</ele>
        <time>2020-08-07T13:25:14Z</time>
      </trkpt>
      <trkpt lat="41.0093570" lon="0.4865950">
        <ele>208.6</ele>
        <time>2020-08-07T13:25:15Z</time>
      </trkpt>
      <trkpt lat="41.0093840" lon="0.4866460">
        <ele>208.8</ele>
        <time>2020-08-07T13:25:17Z</time>
      </trkpt>
      <trkpt lat="41.0094120" lon="0.4867030">
        <ele>209.0</ele>
        <time>2020-08-07T13:25:19Z</time>
      </trkpt>
      <trkpt lat="41.0094330" lon="0.4867450">
        <ele>209.2</ele>
        <time>2020-08-07T13:25:20Z</time>
      </trkpt>
      <trkpt lat="41.0094400" lon="0.4867590">
        <ele>209.3</ele>
        <time>2020-08-07T13:25:21Z</time>
      </trkpt>
      <trkpt lat="41.0094680" lon="0.4868160">
        <ele>209.5</ele>
        <time>2020-08-07T13:25:23Z</time>
      </trkpt>
      <trkpt lat="41.0094830" lon="0.4868460">
        <ele>209.6</ele>
        <time>2020-08-07T13:25:24Z</time>
      </trkpt>
      <trkpt lat="41.0095150" lon="0.4869020">
        <ele>209.9</ele>
        <time>2020-08-07T13:25:26Z</time>
      </trkpt>
      <trkpt lat="41.0095400" lon="0.4869580">
        <ele>210.1</ele>
        <time>2020-08-07T13:25:28Z</time>
      </trkpt>
      <trkpt lat="41.0095620" lon="0.4870010">
        <ele>210.3</ele>
        <time>2020-08-07T13:25:29Z</time>
      </trkpt>
      <trkpt lat="41.0095690" lon="0.4870160">
        <ele>210.4</ele>
        <time>2020-08-07T13:25:30Z</time>
      </trkpt>
      <trkpt lat="41.0095890" lon="0.4870590">
        <ele>210.6</ele>
        <time>2020-08-07T13:25:31Z</time>
      </trkpt>
      <trkpt lat="41.0096060" lon="0.4870940">
        <ele>210.7</ele>
        <time>2020-08-07T13:25:33Z</time>
      </trkpt>
      <trkpt lat="41.0096250" lon="0.4871300">
        <ele>210.9</ele>
        <time>2020-08-07T13:25:34Z</time>
      </trkpt>
      <trkpt lat="41.0096400" lon="0.4871570">
        <ele>211.1</ele>
        <time>2020-08-07T13:25:35Z</time>
      </trkpt>
      <trkpt lat="41.0096660" lon="0.4872040">
        <ele>211.3</ele>
        <time>2020-08-07T13:25:37Z</time>
      </trkpt>
      <trkpt lat="41.0096930" lon="0.4872580">
        <ele>211.6</ele>
        <time>2020-08-07T13:25:39Z</time>
      </trkpt>
      <trkpt lat="41.0097060" lon="0.4872860">
        <ele>211.7</ele>
        <time>2020-08-07T13:25:40Z</time>
      </trkpt>
      <trkpt lat="41.0097330" lon="0.4873370">
        <ele>212.0</ele>
        <time>2020-08-07T13:25:42Z</time>
      </trkpt>
      <trkpt lat="41.0097500" lon="0.4873780">
        <ele>212.2</ele>
        <time>2020-08-07T13:25:43Z</time>
      </trkpt>
      <trkpt lat="41.0097630" lon="0.4874080">
        <ele>212.3</ele>
        <time>2020-08-07T13:25:44Z</time>
      </trkpt>
      <trkpt lat="41.0097800" lon="0.4874480">
        <ele>212.5</ele>
        <time>2020-08-07T13:25:46Z</time>
      </trkpt>
      <trkpt lat="41.0098030" lon="0.4874900">
        <ele>212.7</ele>
        <time>2020-08-07T13:25:47Z</time>
      </trkpt>
      <trkpt lat="41.0098100" lon="0.4875040">
        <ele>212.8</ele>
        <time>2020-08-07T13:25:48Z</time>
      </trkpt>
      <trkpt lat="41.0098260" lon="0.4875350">
        <ele>212.9</ele>
        <time>2020-08-07T13:25:49Z</time>
      </trkpt>
      <trkpt lat="41.0098500" lon="0.4875790">
        <ele>213.2</ele>
        <time>2020-08-07T13:25:51Z</time>
      </trkpt>
      <trkpt lat="41.0098700" lon="0.4876160">
        <ele>213.4</ele>
        <time>2020-08-07T13:25:52Z</time>
      </trkpt>
      <trkpt lat="41.0098930" lon="0.4876540">
        <ele>213.6</ele>
        <time>2020-08-07T13:25:53Z</time>
      </trkpt>
      <trkpt lat="41.0099000" lon="0.4876660">
        <ele>213.6</ele>
        <time>2020-08-07T13:25:54Z</time>
      </trkpt>
      <trkpt lat="41.0099210" lon="0.4877030">
        <ele>213.8</ele>
        <time>2020-08-07T13:25:55Z</time>
      </trkpt>
      <trkpt lat="41.0099280" lon="0.4877140">
        <ele>213.9</ele>
        <time>2020-08-07T13:25:56Z</time>
      </trkpt>
      <trkpt lat="41.0099550" lon="0.4877500">
        <ele>214.1</ele>
        <time>2020-08-07T13:25:58Z</time>
      </trkpt>
      <trkpt lat="41.0099790" lon="0.4877780">
        <ele>214.3</ele>
        <time>2020-08-07T13:25:59Z</time>
      </trkpt>
      <trkpt lat="41.0100060" lon="0.4878180">
        <ele>214.6</ele>
        <time>2020-08-07T13:26:01Z</time>
      </trkpt>
      <trkpt lat="41.0100270" lon="0.4878470">
        <ele>214.8</ele>
        <time>2020-08-07T13:26:02Z</time>
      </trkpt>
      <trkpt lat="41.0100480" lon="0.4878840">
        <ele>215.0</ele>
        <time>2020-08-07T13:26:04Z</time>
      </trkpt>
      <trkpt lat="41.0100600" lon="0.4879170">
        <ele>215.2</ele>
        <time>2020-08-07T13:26:05Z</time>
      </trkpt>
      <trkpt lat="41.0100910" lon="0.4879330">
        <ele>215.4</ele>
        <time>2020-08-07T13:26:06Z</time>
      </trkpt>
      <trkpt lat="41.0100980" lon="0.4879390">
        <ele>215.4</ele>
        <time>2020-08-07T13:26:07Z</time>
      </trkpt>
      <trkpt lat="41.0101210" lon="0.4879480">
        <ele>215.6</ele>
        <time>2020-08-07T13:26:08Z</time>
      </trkpt>
      <trkpt lat="41.0101380" lon="0.4879580">
        <ele>215.7</ele>
        <time>2020-08-07T13:26:10Z</time>
      </trkpt>
      <trkpt lat="41.0101560" lon="0.4879680">
        <ele>215.8</ele>
        <time>2020-08-07T13:26:11Z</time>
      </trkpt>
      <trkpt lat="41.0101730" lon="0.4879780">
        <ele>215.9</ele>
        <time>2020-08-07T13:26:12Z</time>
      </trkpt>
      <trkpt lat="41.0101910" lon="0.4879880">
        <ele>216.0</ele>
        <time>2020-08-07T13:26:13Z</time>
      </trkpt>
      <trkpt lat="41.0102080" lon="0.4879990">
        <ele>216.1</ele>
        <time>2020-08-07T13:26:14Z</time>
      </trkpt>
      <trkpt lat="41.0102260" lon="0.4880090">
        <ele>216.3</ele>
        <time>2020-08-07T13:26:16Z</time>
      </trkpt>
      <trkpt lat="41.0102430" lon="0.4880190">
        <ele>216.4</ele>
        <time>2020-08-07T13:26:18Z</time>
      </trkpt>
      <trkpt lat="41.0102610" lon="0.4880290">
        <ele>216.5</ele>
        <time>2020-08-07T13:26:33Z</time>
      </trkpt>
      <trkpt lat="41.0102780" lon="0.4880390">
        <ele>216.6</ele>
        <time>2020-08-07T13:26:40Z</time>
      </trkpt>
      <trkpt lat="41.0102960" lon="0.4880490">
        <ele>216.7</ele>
        <time>2020-08-07T13:26:41Z</time>
      </trkpt>
      <trkpt lat="41.0103300" lon="0.4880730">
        <ele>217.0</ele>
        <time>2020-08-07T13:26:42Z</time>
      </trkpt>
      <trkpt lat="41.0103600" lon="0.4880960">
        <ele>217.2</ele>
        <time>2020-08-07T13:26:43Z</time>
      </trkpt>
      <trkpt lat="41.0103980" lon="0.4881150">
        <ele>217.4</ele>
        <time>2020-08-07T13:26:44Z</time>
      </trkpt>
      <trkpt lat="41.0104120" lon="0.4881210">
        <ele>217.5</ele>
        <time>2020-08-07T13:26:45Z</time>
      </trkpt>
      <trkpt lat="41.0104390" lon="0.4881280">
        <ele>217.7</ele>
        <time>2020-08-07T13:26:46Z</time>
      </trkpt>
      <trkpt lat="41.0104690" lon="0.4881390">
        <ele>217.8</ele>
        <time>2020-08-07T13:26:47Z</time>
      </trkpt>
      <trkpt lat="41.0104910" lon="0.4881520">
        <ele>218.0</ele>
        <time>2020-08-07T13:26:48Z</time>
      </trkpt>
      <trkpt lat="41.0105460" lon="0.4881910">
        <ele>218.3</ele>
        <time>2020-08-07T13:26:50Z</time>
      </trkpt>
      <trkpt lat="41.0106070" lon="0.4882150">
        <ele>218.6</ele>
        <time>2020-08-07T13:26:52Z</time>
      </trkpt>
      <trkpt lat="41.0106640" lon="0.4882310">
        <ele>219.0</ele>
        <time>2020-08-07T13:26:54Z</time>
      </trkpt>
      <trkpt lat="41.0107130" lon="0.4882640">
        <ele>219.3</ele>
        <time>2020-08-07T13:26:56Z</time>
      </trkpt>
      <trkpt lat="41.0107400" lon="0.4882850">
        <ele>219.4</ele>
        <time>2020-08-07T13:26:57Z</time>
      </trkpt>
      <trkpt lat="41.0107940" lon="0.4883110">
        <ele>219.8</ele>
        <time>2020-08-07T13:26:59Z</time>
      </trkpt>
      <trkpt lat="41.0108170" lon="0.4883150">
        <ele>219.9</ele>
        <time>2020-08-07T13:27:00Z</time>
      </trkpt>
      <trkpt lat="41.0108790" lon="0.4883270">
        <ele>220.3</ele>
        <time>2020-08-07T13:27:02Z</time>
      </trkpt>
      <trkpt lat="41.0109260" lon="0.4883510">
        <ele>220.6</ele>
        <time>2020-08-07T13:27:04Z</time>
      </trkpt>
      <trkpt lat="41.0109750" lon="0.4883850">
        <ele>220.9</ele>
        <time>2020-08-07T13:27:06Z</time>
      </trkpt>
      <trkpt lat="41.0110040" lon="0.4884000">
        <ele>221.0</ele>
        <time>2020-08-07T13:27:07Z</time>
      </trkpt>
      <trkpt lat="41.0110420" lon="0.4884140">
        <ele>221.3</ele>
        <time>2020-08-07T13:27:08Z</time>
      </trkpt>
      <trkpt lat="41.0110570" lon="0.4884200">
        <ele>221.3</ele>
        <time>2020-08-07T13:27:09Z</time>
      </trkpt>
      <trkpt lat="41.0111070" lon="0.4884410">
        <ele>221.6</ele>
        <time>2020-08-07T13:27:11Z</time>
      </trkpt>
      <trkpt lat="41.0111620" lon="0.4884660">
        <ele>221.9</ele>
        <time>2020-08-07T13:27:13Z</time>
      </trkpt>
      <trkpt lat="41.0112170" lon="0.4884880">
        <ele>222.2</ele>
        <time>2020-08-07T13:27:15Z</time>
      </trkpt>
      <trkpt lat="41.0112490" lon="0.4884990">
        <ele>222.4</ele>
        <time>2020-08-07T13:27:16Z</time>
      </trkpt>
      <trkpt lat="41.0112790" lon="0.4885080">
        <ele>222.6</ele>
        <time>2020-08-07T13:27:17Z</time>
      </trkpt>
      <trkpt lat="41.0113290" lon="0.4885260">
        <ele>222.9</ele>
        <time>2020-08-07T13:27:19Z</time>
      </trkpt>
      <trkpt lat="41.0113580" lon="0.4885390">
        <ele>223.0</ele>
        <time>2020-08-07T13:27:20Z</time>
      </trkpt>
      <trkpt lat="41.0113850" lon="0.4885530">
        <ele>223.2</ele>
        <time>2020-08-07T13:27:21Z</time>
      </trkpt>
      <trkpt lat="41.0114410" lon="0.4885750">
        <ele>223.5</ele>
        <time>2020-08-07T13:27:23Z</time>
      </trkpt>
      <trkpt lat="41.0114710" lon="0.4885860">
        <ele>223.7</ele>
        <time>2020-08-07T13:27:24Z</time>
      </trkpt>
      <trkpt lat="41.0114990" lon="0.4885970">
        <ele>223.9</ele>
        <time>2020-08-07T13:27:25Z</time>
      </trkpt>
      <trkpt lat="41.0115550" lon="0.4886140">
        <ele>224.2</ele>
        <time>2020-08-07T13:27:27Z</time>
      </trkpt>
      <trkpt lat="41.0115870" lon="0.4886220">
        <ele>224.4</ele>
        <time>2020-08-07T13:27:28Z</time>
      </trkpt>
      <trkpt lat="41.0116160" lon="0.4886300">
        <ele>224.5</ele>
        <time>2020-08-07T13:27:29Z</time>
      </trkpt>
      <trkpt lat="41.0116430" lon="0.4886420">
        <ele>224.7</ele>
        <time>2020-08-07T13:27:30Z</time>
      </trkpt>
      <trkpt lat="41.0116990" lon="0.4886750">
        <ele>225.0</ele>
        <time>2020-08-07T13:27:32Z</time>
      </trkpt>
      <trkpt lat="41.0117260" lon="0.4886900">
        <ele>225.1</ele>
        <time>2020-08-07T13:27:33Z</time>
      </trkpt>
      <trkpt lat="41.0117520" lon="0.4887060">
        <ele>225.3</ele>
        <time>2020-08-07T13:27:34Z</time>
      </trkpt>
      <trkpt lat="41.0117970" lon="0.4887460">
        <ele>225.5</ele>
        <time>2020-08-07T13:27:36Z</time>
      </trkpt>
      <trkpt lat="41.0118240" lon="0.4887760">
        <ele>225.6</ele>
        <time>2020-08-07T13:27:37Z</time>
      </trkpt>
      <trkpt lat="41.0118330" lon="0.4887860">
        <ele>225.6</ele>
        <time>2020-08-07T13:27:38Z</time>
      </trkpt>
      <trkpt lat="41.0118640" lon="0.4888290">
        <ele>225.8</ele>
        <time>2020-08-07T13:27:40Z</time>
      </trkpt>
      <trkpt lat="41.0118790" lon="0.4888610">
        <ele>225.8</ele>
        <time>2020-08-07T13:27:41Z</time>
      </trkpt>
      <trkpt lat="41.0118940" lon="0.4888970">
        <ele>225.8</ele>
        <time>2020-08-07T13:27:42Z</time>
      </trkpt>
      <trkpt lat="41.0119230" lon="0.4889680">
        <ele>225.9</ele>
        <time>2020-08-07T13:27:44Z</time>
      </trkpt>
      <trkpt lat="41.0119370" lon="0.4890110">
        <ele>225.8</ele>
        <time>2020-08-07T13:27:45Z</time>
      </trkpt>
      <trkpt lat="41.0119550" lon="0.4891020">
        <ele>225.7</ele>
        <time>2020-08-07T13:27:47Z</time>
      </trkpt>
      <trkpt lat="41.0119640" lon="0.4891580">
        <ele>225.6</ele>
        <time>2020-08-07T13:27:48Z</time>
      </trkpt>
      <trkpt lat="41.0119730" lon="0.4892840">
        <ele>225.2</ele>
        <time>2020-08-07T13:27:50Z</time>
      </trkpt>
      <trkpt lat="41.0119730" lon="0.4893660">
        <ele>225.0</ele>
        <time>2020-08-07T13:27:51Z</time>
      </trkpt>
      <trkpt lat="41.0119750" lon="0.4894380">
        <ele>224.7</ele>
        <time>2020-08-07T13:27:52Z</time>
      </trkpt>
      <trkpt lat="41.0119740" lon="0.4895160">
        <ele>224.3</ele>
        <time>2020-08-07T13:27:53Z</time>
      </trkpt>
      <trkpt lat="41.0119810" lon="0.4896730">
        <ele>223.7</ele>
        <time>2020-08-07T13:27:55Z</time>
      </trkpt>
      <trkpt lat="41.0119830" lon="0.4897520">
        <ele>223.4</ele>
        <time>2020-08-07T13:27:56Z</time>
      </trkpt>
      <trkpt lat="41.0119730" lon="0.4899330">
        <ele>222.9</ele>
        <time>2020-08-07T13:27:58Z</time>
      </trkpt>
      <trkpt lat="41.0119700" lon="0.4900210">
        <ele>222.6</ele>
        <time>2020-08-07T13:27:59Z</time>
      </trkpt>
      <trkpt lat="41.0119660" lon="0.4901980">
        <ele>222.1</ele>
        <time>2020-08-07T13:28:01Z</time>
      </trkpt>
      <trkpt lat="41.0119650" lon="0.4902890">
        <ele>221.9</ele>
        <time>2020-08-07T13:28:02Z</time>
      </trkpt>
      <trkpt lat="41.0119610" lon="0.4903770">
        <ele>221.6</ele>
        <time>2020-08-07T13:28:03Z</time>
      </trkpt>
      <trkpt lat="41.0119600" lon="0.4905540">
        <ele>221.2</ele>
        <time>2020-08-07T13:28:05Z</time>
      </trkpt>
      <trkpt lat="41.0119540" lon="0.4906450">
        <ele>220.9</ele>
        <time>2020-08-07T13:28:06Z</time>
      </trkpt>
      <trkpt lat="41.0119360" lon="0.4908210">
        <ele>220.4</ele>
        <time>2020-08-07T13:28:08Z</time>
      </trkpt>
      <trkpt lat="41.0119300" lon="0.4909050">
        <ele>220.3</ele>
        <time>2020-08-07T13:28:09Z</time>
      </trkpt>
      <trkpt lat="41.0119250" lon="0.4910700">
        <ele>220.0</ele>
        <time>2020-08-07T13:28:11Z</time>
      </trkpt>
      <trkpt lat="41.0119180" lon="0.4912270">
        <ele>219.7</ele>
        <time>2020-08-07T13:28:13Z</time>
      </trkpt>
      <trkpt lat="41.0119010" lon="0.4913840">
        <ele>219.5</ele>
        <time>2020-08-07T13:28:15Z</time>
      </trkpt>
      <trkpt lat="41.0118720" lon="0.4915330">
        <ele>219.4</ele>
        <time>2020-08-07T13:28:17Z</time>
      </trkpt>
      <trkpt lat="41.0118580" lon="0.4916070">
        <ele>219.4</ele>
        <time>2020-08-07T13:28:18Z</time>
      </trkpt>
      <trkpt lat="41.0118310" lon="0.4917490">
        <ele>219.1</ele>
        <time>2020-08-07T13:28:20Z</time>
      </trkpt>
      <trkpt lat="41.0117980" lon="0.4918910">
        <ele>218.9</ele>
        <time>2020-08-07T13:28:22Z</time>
      </trkpt>
      <trkpt lat="41.0117830" lon="0.4919620">
        <ele>218.8</ele>
        <time>2020-08-07T13:28:23Z</time>
      </trkpt>
      <trkpt lat="41.0117710" lon="0.4920350">
        <ele>218.7</ele>
        <time>2020-08-07T13:28:24Z</time>
      </trkpt>
      <trkpt lat="41.0117460" lon="0.4921800">
        <ele>218.6</ele>
        <time>2020-08-07T13:28:26Z</time>
      </trkpt>
      <trkpt lat="41.0117130" lon="0.4923260">
        <ele>218.3</ele>
        <time>2020-08-07T13:28:28Z</time>
      </trkpt>
      <trkpt lat="41.0116950" lon="0.4923980">
        <ele>218.2</ele>
        <time>2020-08-07T13:28:29Z</time>
      </trkpt>
      <trkpt lat="41.0116760" lon="0.4924730">
        <ele>218.1</ele>
        <time>2020-08-07T13:28:30Z</time>
      </trkpt>
      <trkpt lat="41.0116450" lon="0.4926240">
        <ele>217.9</ele>
        <time>2020-08-07T13:28:32Z</time>
      </trkpt>
      <trkpt lat="41.0116290" lon="0.4926960">
        <ele>217.8</ele>
        <time>2020-08-07T13:28:33Z</time>
      </trkpt>
      <trkpt lat="41.0116180" lon="0.4927690">
        <ele>217.7</ele>
        <time>2020-08-07T13:28:34Z</time>
      </trkpt>
      <trkpt lat="41.0115990" lon="0.4929090">
        <ele>217.5</ele>
        <time>2020-08-07T13:28:36Z</time>
      </trkpt>
      <trkpt lat="41.0115690" lon="0.4930430">
        <ele>217.3</ele>
        <time>2020-08-07T13:28:38Z</time>
      </trkpt>
      <trkpt lat="41.0115370" lon="0.4931660">
        <ele>217.1</ele>
        <time>2020-08-07T13:28:40Z</time>
      </trkpt>
      <trkpt lat="41.0115220" lon="0.4932340">
        <ele>217.0</ele>
        <time>2020-08-07T13:28:41Z</time>
      </trkpt>
      <trkpt lat="41.0115070" lon="0.4933070">
        <ele>216.9</ele>
        <time>2020-08-07T13:28:42Z</time>
      </trkpt>
      <trkpt lat="41.0114790" lon="0.4934450">
        <ele>216.8</ele>
        <time>2020-08-07T13:28:44Z</time>
      </trkpt>
      <trkpt lat="41.0114570" lon="0.4935850">
        <ele>216.6</ele>
        <time>2020-08-07T13:28:46Z</time>
      </trkpt>
      <trkpt lat="41.0114470" lon="0.4936650">
        <ele>216.4</ele>
        <time>2020-08-07T13:28:47Z</time>
      </trkpt>
      <trkpt lat="41.0114190" lon="0.4938020">
        <ele>215.8</ele>
        <time>2020-08-07T13:28:49Z</time>
      </trkpt>
      <trkpt lat="41.0113920" lon="0.4939430">
        <ele>215.3</ele>
        <time>2020-08-07T13:28:51Z</time>
      </trkpt>
      <trkpt lat="41.0112880" lon="0.4944170">
        <ele>214.3</ele>
        <time>2020-08-07T13:28:58Z</time>
      </trkpt>
      <trkpt lat="41.0112780" lon="0.4944870">
        <ele>214.1</ele>
        <time>2020-08-07T13:28:59Z</time>
      </trkpt>
      <trkpt lat="41.0112600" lon="0.4945590">
        <ele>213.9</ele>
        <time>2020-08-07T13:29:00Z</time>
      </trkpt>
      <trkpt lat="41.0112240" lon="0.4947000">
        <ele>213.6</ele>
        <time>2020-08-07T13:29:02Z</time>
      </trkpt>
      <trkpt lat="41.0112110" lon="0.4947730">
        <ele>213.4</ele>
        <time>2020-08-07T13:29:03Z</time>
      </trkpt>
      <trkpt lat="41.0111860" lon="0.4949260">
        <ele>213.0</ele>
        <time>2020-08-07T13:29:05Z</time>
      </trkpt>
      <trkpt lat="41.0111810" lon="0.4950080">
        <ele>212.7</ele>
        <time>2020-08-07T13:29:06Z</time>
      </trkpt>
      <trkpt lat="41.0111810" lon="0.4950940">
        <ele>212.5</ele>
        <time>2020-08-07T13:29:07Z</time>
      </trkpt>
      <trkpt lat="41.0111800" lon="0.4951820">
        <ele>212.2</ele>
        <time>2020-08-07T13:29:08Z</time>
      </trkpt>
      <trkpt lat="41.0111790" lon="0.4952750">
        <ele>211.9</ele>
        <time>2020-08-07T13:29:09Z</time>
      </trkpt>
      <trkpt lat="41.0111780" lon="0.4953700">
        <ele>211.6</ele>
        <time>2020-08-07T13:29:10Z</time>
      </trkpt>
      <trkpt lat="41.0111810" lon="0.4954660">
        <ele>211.2</ele>
        <time>2020-08-07T13:29:11Z</time>
      </trkpt>
      <trkpt lat="41.0111890" lon="0.4956690">
        <ele>210.5</ele>
        <time>2020-08-07T13:29:13Z</time>
      </trkpt>
      <trkpt lat="41.0111980" lon="0.4958260">
        <ele>210.1</ele>
        <time>2020-08-07T13:29:14Z</time>
      </trkpt>
      <trkpt lat="41.0112000" lon="0.4958790">
        <ele>209.9</ele>
        <time>2020-08-07T13:29:15Z</time>
      </trkpt>
      <trkpt lat="41.0112090" lon="0.4959830">
        <ele>209.7</ele>
        <time>2020-08-07T13:29:16Z</time>
      </trkpt>
      <trkpt lat="41.0112240" lon="0.4961910">
        <ele>209.2</ele>
        <time>2020-08-07T13:29:18Z</time>
      </trkpt>
      <trkpt lat="41.0112320" lon="0.4962940">
        <ele>209.0</ele>
        <time>2020-08-07T13:29:19Z</time>
      </trkpt>
      <trkpt lat="41.0112390" lon="0.4963970">
        <ele>208.8</ele>
        <time>2020-08-07T13:29:20Z</time>
      </trkpt>
      <trkpt lat="41.0112450" lon="0.4964940">
        <ele>208.6</ele>
        <time>2020-08-07T13:29:21Z</time>
      </trkpt>
      <trkpt lat="41.0112520" lon="0.4965910">
        <ele>208.5</ele>
        <time>2020-08-07T13:29:22Z</time>
      </trkpt>
      <trkpt lat="41.0112610" lon="0.4967710">
        <ele>208.2</ele>
        <time>2020-08-07T13:29:24Z</time>
      </trkpt>
      <trkpt lat="41.0112660" lon="0.4969350">
        <ele>208.0</ele>
        <time>2020-08-07T13:29:26Z</time>
      </trkpt>
      <trkpt lat="41.0112680" lon="0.4970130">
        <ele>207.9</ele>
        <time>2020-08-07T13:29:27Z</time>
      </trkpt>
      <trkpt lat="41.0112710" lon="0.4970920">
        <ele>207.8</ele>
        <time>2020-08-07T13:29:28Z</time>
      </trkpt>
      <trkpt lat="41.0112910" lon="0.4972440">
        <ele>207.6</ele>
        <time>2020-08-07T13:29:30Z</time>
      </trkpt>
      <trkpt lat="41.0112960" lon="0.4973140">
        <ele>207.6</ele>
        <time>2020-08-07T13:29:31Z</time>
      </trkpt>
      <trkpt lat="41.0112980" lon="0.4973870">
        <ele>207.5</ele>
        <time>2020-08-07T13:29:32Z</time>
      </trkpt>
      <trkpt lat="41.0113050" lon="0.4975330">
        <ele>207.4</ele>
        <time>2020-08-07T13:29:34Z</time>
      </trkpt>
      <trkpt lat="41.0113080" lon="0.4976050">
        <ele>207.3</ele>
        <time>2020-08-07T13:29:35Z</time>
      </trkpt>
      <trkpt lat="41.0113100" lon="0.4976810">
        <ele>207.3</ele>
        <time>2020-08-07T13:29:36Z</time>
      </trkpt>
      <trkpt lat="41.0113260" lon="0.4978140">
        <ele>207.2</ele>
        <time>2020-08-07T13:29:38Z</time>
      </trkpt>
      <trkpt lat="41.0113380" lon="0.4978810">
        <ele>207.2</ele>
        <time>2020-08-07T13:29:39Z</time>
      </trkpt>
      <trkpt lat="41.0113530" lon="0.4979440">
        <ele>207.1</ele>
        <time>2020-08-07T13:29:40Z</time>
      </trkpt>
      <trkpt lat="41.0113690" lon="0.4980030">
        <ele>207.0</ele>
        <time>2020-08-07T13:29:41Z</time>
      </trkpt>
      <trkpt lat="41.0113990" lon="0.4981310">
        <ele>206.6</ele>
        <time>2020-08-07T13:29:44Z</time>
      </trkpt>
      <trkpt lat="41.0114390" lon="0.4982770">
        <ele>206.2</ele>
        <time>2020-08-07T13:29:45Z</time>
      </trkpt>
      <trkpt lat="41.0114790" lon="0.4983560">
        <ele>206.0</ele>
        <time>2020-08-07T13:29:46Z</time>
      </trkpt>
      <trkpt lat="41.0115190" lon="0.4984190">
        <ele>205.8</ele>
        <time>2020-08-07T13:29:47Z</time>
      </trkpt>
      <trkpt lat="41.0115550" lon="0.4984930">
        <ele>205.6</ele>
        <time>2020-08-07T13:29:48Z</time>
      </trkpt>
      <trkpt lat="41.0116260" lon="0.4986350">
        <ele>205.0</ele>
        <time>2020-08-07T13:29:50Z</time>
      </trkpt>
      <trkpt lat="41.0116980" lon="0.4988090">
        <ele>204.3</ele>
        <time>2020-08-07T13:29:52Z</time>
      </trkpt>
      <trkpt lat="41.0117900" lon="0.4989990">
        <ele>203.3</ele>
        <time>2020-08-07T13:29:54Z</time>
      </trkpt>
      <trkpt lat="41.0118370" lon="0.4991010">
        <ele>202.9</ele>
        <time>2020-08-07T13:29:55Z</time>
      </trkpt>
      <trkpt lat="41.0118880" lon="0.4992010">
        <ele>202.4</ele>
        <time>2020-08-07T13:29:56Z</time>
      </trkpt>
      <trkpt lat="41.0119350" lon="0.4993040">
        <ele>201.9</ele>
        <time>2020-08-07T13:29:57Z</time>
      </trkpt>
      <trkpt lat="41.0119850" lon="0.4994120">
        <ele>201.4</ele>
        <time>2020-08-07T13:29:58Z</time>
      </trkpt>
      <trkpt lat="41.0120830" lon="0.4996460">
        <ele>200.1</ele>
        <time>2020-08-07T13:30:00Z</time>
      </trkpt>
      <trkpt lat="41.0121900" lon="0.4998910">
        <ele>198.9</ele>
        <time>2020-08-07T13:30:02Z</time>
      </trkpt>
      <trkpt lat="41.0122460" lon="0.5000150">
        <ele>198.2</ele>
        <time>2020-08-07T13:30:03Z</time>
      </trkpt>
      <trkpt lat="41.0123000" lon="0.5001430">
        <ele>197.5</ele>
        <time>2020-08-07T13:30:04Z</time>
      </trkpt>
      <trkpt lat="41.0123460" lon="0.5002710">
        <ele>196.8</ele>
        <time>2020-08-07T13:30:05Z</time>
      </trkpt>
      <trkpt lat="41.0123820" lon="0.5004010">
        <ele>196.1</ele>
        <time>2020-08-07T13:30:06Z</time>
      </trkpt>
      <trkpt lat="41.0124150" lon="0.5005390">
        <ele>195.4</ele>
        <time>2020-08-07T13:30:07Z</time>
      </trkpt>
      <trkpt lat="41.0124570" lon="0.5008180">
        <ele>193.8</ele>
        <time>2020-08-07T13:30:09Z</time>
      </trkpt>
      <trkpt lat="41.0124830" lon="0.5009630">
        <ele>192.9</ele>
        <time>2020-08-07T13:30:10Z</time>
      </trkpt>
      <trkpt lat="41.0125330" lon="0.5012440">
        <ele>191.4</ele>
        <time>2020-08-07T13:30:12Z</time>
      </trkpt>
      <trkpt lat="41.0125580" lon="0.5013840">
        <ele>190.7</ele>
        <time>2020-08-07T13:30:13Z</time>
      </trkpt>
      <trkpt lat="41.0125810" lon="0.5015300">
        <ele>189.9</ele>
        <time>2020-08-07T13:30:14Z</time>
      </trkpt>
      <trkpt lat="41.0126290" lon="0.5018280">
        <ele>188.3</ele>
        <time>2020-08-07T13:30:16Z</time>
      </trkpt>
      <trkpt lat="41.0126550" lon="0.5019740">
        <ele>187.5</ele>
        <time>2020-08-07T13:30:17Z</time>
      </trkpt>
      <trkpt lat="41.0126820" lon="0.5021180">
        <ele>186.7</ele>
        <time>2020-08-07T13:30:18Z</time>
      </trkpt>
      <trkpt lat="41.0127140" lon="0.5022600">
        <ele>185.9</ele>
        <time>2020-08-07T13:30:19Z</time>
      </trkpt>
      <trkpt lat="41.0127500" lon="0.5023980">
        <ele>185.2</ele>
        <time>2020-08-07T13:30:20Z</time>
      </trkpt>
      <trkpt lat="41.0128370" lon="0.5026700">
        <ele>183.9</ele>
        <time>2020-08-07T13:30:22Z</time>
      </trkpt>
      <trkpt lat="41.0128870" lon="0.5028010">
        <ele>183.3</ele>
        <time>2020-08-07T13:30:23Z</time>
      </trkpt>
      <trkpt lat="41.0129820" lon="0.5030680">
        <ele>182.2</ele>
        <time>2020-08-07T13:30:25Z</time>
      </trkpt>
      <trkpt lat="41.0130250" lon="0.5032040">
        <ele>181.7</ele>
        <time>2020-08-07T13:30:26Z</time>
      </trkpt>
      <trkpt lat="41.0130640" lon="0.5033380">
        <ele>181.2</ele>
        <time>2020-08-07T13:30:27Z</time>
      </trkpt>
      <trkpt lat="41.0131200" lon="0.5035920">
        <ele>180.4</ele>
        <time>2020-08-07T13:30:29Z</time>
      </trkpt>
      <trkpt lat="41.0131250" lon="0.5037130">
        <ele>180.1</ele>
        <time>2020-08-07T13:30:30Z</time>
      </trkpt>
      <trkpt lat="41.0131060" lon="0.5039510">
        <ele>179.5</ele>
        <time>2020-08-07T13:30:32Z</time>
      </trkpt>
      <trkpt lat="41.0131000" lon="0.5040660">
        <ele>179.3</ele>
        <time>2020-08-07T13:30:33Z</time>
      </trkpt>
      <trkpt lat="41.0131030" lon="0.5041760">
        <ele>179.1</ele>
        <time>2020-08-07T13:30:34Z</time>
      </trkpt>
      <trkpt lat="41.0131100" lon="0.5042790">
        <ele>179.0</ele>
        <time>2020-08-07T13:30:35Z</time>
      </trkpt>
      <trkpt lat="41.0131260" lon="0.5043810">
        <ele>179.0</ele>
        <time>2020-08-07T13:30:36Z</time>
      </trkpt>
      <trkpt lat="41.0131730" lon="0.5045660">
        <ele>179.0</ele>
        <time>2020-08-07T13:30:38Z</time>
      </trkpt>
      <trkpt lat="41.0132230" lon="0.5047220">
        <ele>179.3</ele>
        <time>2020-08-07T13:30:40Z</time>
      </trkpt>
      <trkpt lat="41.0132500" lon="0.5048440">
        <ele>180.0</ele>
        <time>2020-08-07T13:30:42Z</time>
      </trkpt>
      <trkpt lat="41.0132580" lon="0.5048970">
        <ele>180.4</ele>
        <time>2020-08-07T13:30:43Z</time>
      </trkpt>
      <trkpt lat="41.0132540" lon="0.5049560">
        <ele>180.7</ele>
        <time>2020-08-07T13:30:45Z</time>
      </trkpt>
      <trkpt lat="41.0132430" lon="0.5049910">
        <ele>180.9</ele>
        <time>2020-08-07T13:30:47Z</time>
      </trkpt>
      <trkpt lat="41.0132410" lon="0.5049990">
        <ele>181.0</ele>
        <time>2020-08-07T13:30:48Z</time>
      </trkpt>
      <trkpt lat="41.0132400" lon="0.5050080">
        <ele>181.0</ele>
        <time>2020-08-07T13:30:50Z</time>
      </trkpt>
      <trkpt lat="41.0132390" lon="0.5050160">
        <ele>181.5</ele>
        <time>2020-08-07T13:30:52Z</time>
      </trkpt>
      <trkpt lat="41.0132370" lon="0.5050250">
        <ele>181.6</ele>
        <time>2020-08-07T13:30:53Z</time>
      </trkpt>
      <trkpt lat="41.0132360" lon="0.5050330">
        <ele>181.7</ele>
        <time>2020-08-07T13:30:55Z</time>
      </trkpt>
      <trkpt lat="41.0132340" lon="0.5050420">
        <ele>181.8</ele>
        <time>2020-08-07T13:30:56Z</time>
      </trkpt>
      <trkpt lat="41.0132330" lon="0.5050500">
        <ele>181.9</ele>
        <time>2020-08-07T13:30:58Z</time>
      </trkpt>
      <trkpt lat="41.0132320" lon="0.5050590">
        <ele>182.0</ele>
        <time>2020-08-07T13:32:04Z</time>
      </trkpt>
      <trkpt lat="41.0132300" lon="0.5050670">
        <ele>182.1</ele>
        <time>2020-08-07T13:32:05Z</time>
      </trkpt>
      <trkpt lat="41.0132290" lon="0.5050760">
        <ele>182.2</ele>
        <time>2020-08-07T13:32:06Z</time>
      </trkpt>
      <trkpt lat="41.0132130" lon="0.5051400">
        <ele>182.4</ele>
        <time>2020-08-07T13:32:08Z</time>
      </trkpt>
      <trkpt lat="41.0132050" lon="0.5051800">
        <ele>182.5</ele>
        <time>2020-08-07T13:32:09Z</time>
      </trkpt>
      <trkpt lat="41.0132020" lon="0.5052500">
        <ele>182.6</ele>
        <time>2020-08-07T13:32:11Z</time>
      </trkpt>
      <trkpt lat="41.0132080" lon="0.5052930">
        <ele>182.7</ele>
        <time>2020-08-07T13:32:12Z</time>
      </trkpt>
      <trkpt lat="41.0132230" lon="0.5053330">
        <ele>182.8</ele>
        <time>2020-08-07T13:32:13Z</time>
      </trkpt>
      <trkpt lat="41.0132640" lon="0.5053880">
        <ele>183.3</ele>
        <time>2020-08-07T13:32:15Z</time>
      </trkpt>
      <trkpt lat="41.0132920" lon="0.5054170">
        <ele>182.9</ele>
        <time>2020-08-07T13:32:16Z</time>
      </trkpt>
      <trkpt lat="41.0133240" lon="0.5054480">
        <ele>182.4</ele>
        <time>2020-08-07T13:32:17Z</time>
      </trkpt>
      <trkpt lat="41.0134030" lon="0.5055170">
        <ele>181.2</ele>
        <time>2020-08-07T13:32:19Z</time>
      </trkpt>
      <trkpt lat="41.0134370" lon="0.5055500">
        <ele>180.6</ele>
        <time>2020-08-07T13:32:20Z</time>
      </trkpt>
      <trkpt lat="41.0134750" lon="0.5055930">
        <ele>179.9</ele>
        <time>2020-08-07T13:32:21Z</time>
      </trkpt>
      <trkpt lat="41.0135390" lon="0.5056900">
        <ele>178.2</ele>
        <time>2020-08-07T13:32:23Z</time>
      </trkpt>
      <trkpt lat="41.0135600" lon="0.5057120">
        <ele>177.9</ele>
        <time>2020-08-07T13:32:24Z</time>
      </trkpt>
      <trkpt lat="41.0136900" lon="0.5060490">
        <ele>175.9</ele>
        <time>2020-08-07T13:32:30Z</time>
      </trkpt>
      <trkpt lat="41.0138110" lon="0.5064400">
        <ele>174.1</ele>
        <time>2020-08-07T13:32:31Z</time>
      </trkpt>
      <trkpt lat="41.0138450" lon="0.5065520">
        <ele>173.5</ele>
        <time>2020-08-07T13:32:33Z</time>
      </trkpt>
      <trkpt lat="41.0138790" lon="0.5066570">
        <ele>173.1</ele>
        <time>2020-08-07T13:32:34Z</time>
      </trkpt>
      <trkpt lat="41.0139470" lon="0.5068580">
        <ele>172.3</ele>
        <time>2020-08-07T13:32:36Z</time>
      </trkpt>
      <trkpt lat="41.0139790" lon="0.5069570">
        <ele>171.9</ele>
        <time>2020-08-07T13:32:37Z</time>
      </trkpt>
      <trkpt lat="41.0140180" lon="0.5070520">
        <ele>171.5</ele>
        <time>2020-08-07T13:32:38Z</time>
      </trkpt>
      <trkpt lat="41.0141200" lon="0.5072330">
        <ele>170.8</ele>
        <time>2020-08-07T13:32:40Z</time>
      </trkpt>
      <trkpt lat="41.0142450" lon="0.5074240">
        <ele>170.6</ele>
        <time>2020-08-07T13:32:42Z</time>
      </trkpt>
      <trkpt lat="41.0143060" lon="0.5075210">
        <ele>170.3</ele>
        <time>2020-08-07T13:32:43Z</time>
      </trkpt>
      <trkpt lat="41.0143700" lon="0.5076030">
        <ele>170.0</ele>
        <time>2020-08-07T13:32:44Z</time>
      </trkpt>
      <trkpt lat="41.0145720" lon="0.5078380">
        <ele>168.9</ele>
        <time>2020-08-07T13:32:47Z</time>
      </trkpt>
      <trkpt lat="41.0147210" lon="0.5079860">
        <ele>168.2</ele>
        <time>2020-08-07T13:32:49Z</time>
      </trkpt>
      <trkpt lat="41.0148800" lon="0.5081160">
        <ele>167.4</ele>
        <time>2020-08-07T13:32:51Z</time>
      </trkpt>
      <trkpt lat="41.0149610" lon="0.5081770">
        <ele>166.9</ele>
        <time>2020-08-07T13:32:52Z</time>
      </trkpt>
      <trkpt lat="41.0150480" lon="0.5082350">
        <ele>166.5</ele>
        <time>2020-08-07T13:32:53Z</time>
      </trkpt>
      <trkpt lat="41.0151370" lon="0.5082900">
        <ele>166.0</ele>
        <time>2020-08-07T13:32:54Z</time>
      </trkpt>
      <trkpt lat="41.0153190" lon="0.5083970">
        <ele>165.1</ele>
        <time>2020-08-07T13:32:56Z</time>
      </trkpt>
      <trkpt lat="41.0154110" lon="0.5084520">
        <ele>164.7</ele>
        <time>2020-08-07T13:32:57Z</time>
      </trkpt>
      <trkpt lat="41.0155930" lon="0.5085650">
        <ele>163.8</ele>
        <time>2020-08-07T13:32:59Z</time>
      </trkpt>
      <trkpt lat="41.0157790" lon="0.5086730">
        <ele>163.0</ele>
        <time>2020-08-07T13:33:01Z</time>
      </trkpt>
      <trkpt lat="41.0158700" lon="0.5087290">
        <ele>162.7</ele>
        <time>2020-08-07T13:33:02Z</time>
      </trkpt>
      <trkpt lat="41.0159560" lon="0.5087850">
        <ele>162.6</ele>
        <time>2020-08-07T13:33:03Z</time>
      </trkpt>
      <trkpt lat="41.0161290" lon="0.5088890">
        <ele>162.3</ele>
        <time>2020-08-07T13:33:05Z</time>
      </trkpt>
      <trkpt lat="41.0162980" lon="0.5089920">
        <ele>162.1</ele>
        <time>2020-08-07T13:33:07Z</time>
      </trkpt>
      <trkpt lat="41.0163770" lon="0.5090440">
        <ele>162.0</ele>
        <time>2020-08-07T13:33:08Z</time>
      </trkpt>
      <trkpt lat="41.0164580" lon="0.5090900">
        <ele>161.9</ele>
        <time>2020-08-07T13:33:09Z</time>
      </trkpt>
      <trkpt lat="41.0166200" lon="0.5091900">
        <ele>161.8</ele>
        <time>2020-08-07T13:33:11Z</time>
      </trkpt>
      <trkpt lat="41.0167670" lon="0.5093040">
        <ele>161.7</ele>
        <time>2020-08-07T13:33:13Z</time>
      </trkpt>
      <trkpt lat="41.0168980" lon="0.5094430">
        <ele>161.6</ele>
        <time>2020-08-07T13:33:15Z</time>
      </trkpt>
      <trkpt lat="41.0169500" lon="0.5095210">
        <ele>161.5</ele>
        <time>2020-08-07T13:33:16Z</time>
      </trkpt>
      <trkpt lat="41.0169920" lon="0.5096020">
        <ele>161.4</ele>
        <time>2020-08-07T13:33:17Z</time>
      </trkpt>
      <trkpt lat="41.0170310" lon="0.5097830">
        <ele>161.3</ele>
        <time>2020-08-07T13:33:19Z</time>
      </trkpt>
      <trkpt lat="41.0170270" lon="0.5098750">
        <ele>161.2</ele>
        <time>2020-08-07T13:33:20Z</time>
      </trkpt>
      <trkpt lat="41.0169950" lon="0.5100490">
        <ele>161.0</ele>
        <time>2020-08-07T13:33:22Z</time>
      </trkpt>
      <trkpt lat="41.0169740" lon="0.5101310">
        <ele>160.9</ele>
        <time>2020-08-07T13:33:23Z</time>
      </trkpt>
      <trkpt lat="41.0169560" lon="0.5102090">
        <ele>160.8</ele>
        <time>2020-08-07T13:33:24Z</time>
      </trkpt>
      <trkpt lat="41.0169240" lon="0.5103560">
        <ele>160.7</ele>
        <time>2020-08-07T13:33:26Z</time>
      </trkpt>
      <trkpt lat="41.0169100" lon="0.5104200">
        <ele>160.6</ele>
        <time>2020-08-07T13:33:27Z</time>
      </trkpt>
      <trkpt lat="41.0168810" lon="0.5105690">
        <ele>160.5</ele>
        <time>2020-08-07T13:33:29Z</time>
      </trkpt>
      <trkpt lat="41.0168500" lon="0.5107180">
        <ele>160.4</ele>
        <time>2020-08-07T13:33:31Z</time>
      </trkpt>
      <trkpt lat="41.0168480" lon="0.5107990">
        <ele>160.4</ele>
        <time>2020-08-07T13:33:32Z</time>
      </trkpt>
      <trkpt lat="41.0168540" lon="0.5109460">
        <ele>160.5</ele>
        <time>2020-08-07T13:33:34Z</time>
      </trkpt>
      <trkpt lat="41.0168580" lon="0.5110190">
        <ele>160.5</ele>
        <time>2020-08-07T13:33:35Z</time>
      </trkpt>
      <trkpt lat="41.0168650" lon="0.5110890">
        <ele>160.6</ele>
        <time>2020-08-07T13:33:36Z</time>
      </trkpt>
      <trkpt lat="41.0168740" lon="0.5111510">
        <ele>160.6</ele>
        <time>2020-08-07T13:33:37Z</time>
      </trkpt>
      <trkpt lat="41.0168770" lon="0.5112090">
        <ele>160.6</ele>
        <time>2020-08-07T13:33:38Z</time>
      </trkpt>
      <trkpt lat="41.0168880" lon="0.5113210">
        <ele>160.6</ele>
        <time>2020-08-07T13:33:40Z</time>
      </trkpt>
      <trkpt lat="41.0169020" lon="0.5113990">
        <ele>160.7</ele>
        <time>2020-08-07T13:33:42Z</time>
      </trkpt>
      <trkpt lat="41.0169010" lon="0.5114270">
        <ele>160.7</ele>
        <time>2020-08-07T13:33:43Z</time>
      </trkpt>
      <trkpt lat="41.0168970" lon="0.5114340">
        <ele>160.7</ele>
        <time>2020-08-07T13:33:45Z</time>
      </trkpt>
      <trkpt lat="41.0168990" lon="0.5114360">
        <ele>160.7</ele>
        <time>2020-08-07T13:33:47Z</time>
      </trkpt>
      <trkpt lat="41.0169010" lon="0.5114360">
        <ele>160.7</ele>
        <time>2020-08-07T13:33:48Z</time>
      </trkpt>
      <trkpt lat="41.0169020" lon="0.5114380">
        <ele>160.7</ele>
        <time>2020-08-07T13:33:49Z</time>
      </trkpt>
      <trkpt lat="41.0169030" lon="0.5114390">
        <ele>160.7</ele>
        <time>2020-08-07T13:33:50Z</time>
      </trkpt>
      <trkpt lat="41.0169020" lon="0.5114490">
        <ele>160.7</ele>
        <time>2020-08-07T13:33:52Z</time>
      </trkpt>
      <trkpt lat="41.0169040" lon="0.5114510">
        <ele>160.7</ele>
        <time>2020-08-07T13:33:54Z</time>
      </trkpt>
      <trkpt lat="41.0169050" lon="0.5114520">
        <ele>160.7</ele>
        <time>2020-08-07T13:33:55Z</time>
      </trkpt>
      <trkpt lat="41.0169050" lon="0.5114520">
        <ele>160.7</ele>
        <time>2020-08-07T13:33:57Z</time>
      </trkpt>
      <trkpt lat="41.0169050" lon="0.5114520">
        <ele>160.7</ele>
        <time>2020-08-07T13:33:59Z</time>
      </trkpt>
      <trkpt lat="41.0169050" lon="0.5114520">
        <ele>160.7</ele>
        <time>2020-08-07T13:34:00Z</time>
      </trkpt>
      <trkpt lat="41.0169050" lon="0.5114520">
        <ele>160.7</ele>
        <time>2020-08-07T13:34:02Z</time>
      </trkpt>
      <trkpt lat="41.0169030" lon="0.5114860">
        <ele>160.8</ele>
        <time>2020-08-07T13:34:05Z</time>
      </trkpt>
      <trkpt lat="41.0169000" lon="0.5115130">
        <ele>160.8</ele>
        <time>2020-08-07T13:34:06Z</time>
      </trkpt>
      <trkpt lat="41.0168970" lon="0.5115740">
        <ele>160.9</ele>
        <time>2020-08-07T13:34:08Z</time>
      </trkpt>
      <trkpt lat="41.0168960" lon="0.5116070">
        <ele>160.9</ele>
        <time>2020-08-07T13:34:09Z</time>
      </trkpt>
      <trkpt lat="41.0168980" lon="0.5116630">
        <ele>161.0</ele>
        <time>2020-08-07T13:34:11Z</time>
      </trkpt>
      <trkpt lat="41.0169020" lon="0.5117100">
        <ele>161.1</ele>
        <time>2020-08-07T13:34:13Z</time>
      </trkpt>
      <trkpt lat="41.0168990" lon="0.5117300">
        <ele>161.1</ele>
        <time>2020-08-07T13:34:14Z</time>
      </trkpt>
      <trkpt lat="41.0168870" lon="0.5117520">
        <ele>161.2</ele>
        <time>2020-08-07T13:34:15Z</time>
      </trkpt>
      <trkpt lat="41.0168600" lon="0.5117830">
        <ele>161.3</ele>
        <time>2020-08-07T13:34:16Z</time>
      </trkpt>
      <trkpt lat="41.0168490" lon="0.5117940">
        <ele>161.3</ele>
        <time>2020-08-07T13:34:17Z</time>
      </trkpt>
      <trkpt lat="41.0168010" lon="0.5118400">
        <ele>161.5</ele>
        <time>2020-08-07T13:34:19Z</time>
      </trkpt>
      <trkpt lat="41.0167550" lon="0.5118860">
        <ele>161.6</ele>
        <time>2020-08-07T13:34:21Z</time>
      </trkpt>
      <trkpt lat="41.0167320" lon="0.5119130">
        <ele>161.7</ele>
        <time>2020-08-07T13:34:22Z</time>
      </trkpt>
      <trkpt lat="41.0167020" lon="0.5119520">
        <ele>161.8</ele>
        <time>2020-08-07T13:34:23Z</time>
      </trkpt>
      <trkpt lat="41.0166890" lon="0.5119680">
        <ele>161.8</ele>
        <time>2020-08-07T13:34:24Z</time>
      </trkpt>
      <trkpt lat="41.0166680" lon="0.5119940">
        <ele>161.9</ele>
        <time>2020-08-07T13:34:25Z</time>
      </trkpt>
      <trkpt lat="41.0166320" lon="0.5120450">
        <ele>162.0</ele>
        <time>2020-08-07T13:34:27Z</time>
      </trkpt>
      <trkpt lat="41.0165970" lon="0.5120990">
        <ele>162.2</ele>
        <time>2020-08-07T13:34:29Z</time>
      </trkpt>
      <trkpt lat="41.0165800" lon="0.5121240">
        <ele>162.3</ele>
        <time>2020-08-07T13:34:30Z</time>
      </trkpt>
      <trkpt lat="41.0165470" lon="0.5121740">
        <ele>162.5</ele>
        <time>2020-08-07T13:34:32Z</time>
      </trkpt>
      <trkpt lat="41.0165290" lon="0.5122020">
        <ele>162.6</ele>
        <time>2020-08-07T13:34:33Z</time>
      </trkpt>
      <trkpt lat="41.0165100" lon="0.5122420">
        <ele>162.8</ele>
        <time>2020-08-07T13:34:35Z</time>
      </trkpt>
      <trkpt lat="41.0165100" lon="0.5122450">
        <ele>162.8</ele>
        <time>2020-08-07T13:34:36Z</time>
      </trkpt>
      <trkpt lat="41.0165090" lon="0.5122470">
        <ele>162.8</ele>
        <time>2020-08-07T13:34:37Z</time>
      </trkpt>
      <trkpt lat="41.0165090" lon="0.5122490">
        <ele>162.8</ele>
        <time>2020-08-07T13:34:38Z</time>
      </trkpt>
      <trkpt lat="41.0165090" lon="0.5122520">
        <ele>162.8</ele>
        <time>2020-08-07T13:34:39Z</time>
      </trkpt>
      <trkpt lat="41.0165090" lon="0.5122540">
        <ele>162.8</ele>
        <time>2020-08-07T13:34:41Z</time>
      </trkpt>
      <trkpt lat="41.0165090" lon="0.5122560">
        <ele>162.8</ele>
        <time>2020-08-07T13:34:43Z</time>
      </trkpt>
      <trkpt lat="41.0165090" lon="0.5122590">
        <ele>162.8</ele>
        <time>2020-08-07T13:34:45Z</time>
      </trkpt>
      <trkpt lat="41.0165080" lon="0.5122610">
        <ele>162.8</ele>
        <time>2020-08-07T13:34:46Z</time>
      </trkpt>
      <trkpt lat="41.0165080" lon="0.5122630">
        <ele>162.8</ele>
        <time>2020-08-07T13:34:52Z</time>
      </trkpt>
      <trkpt lat="41.0165080" lon="0.5122660">
        <ele>162.8</ele>
        <time>2020-08-07T13:34:53Z</time>
      </trkpt>
      <trkpt lat="41.0165080" lon="0.5122680">
        <ele>162.8</ele>
        <time>2020-08-07T13:34:54Z</time>
      </trkpt>
      <trkpt lat="41.0165080" lon="0.5122700">
        <ele>162.9</ele>
        <time>2020-08-07T13:34:56Z</time>
      </trkpt>
      <trkpt lat="41.0165070" lon="0.5122720">
        <ele>162.9</ele>
        <time>2020-08-07T13:35:03Z</time>
      </trkpt>
      <trkpt lat="41.0165070" lon="0.5122750">
        <ele>162.9</ele>
        <time>2020-08-07T13:35:05Z</time>
      </trkpt>
      <trkpt lat="41.0165070" lon="0.5122770">
        <ele>162.9</ele>
        <time>2020-08-07T13:35:06Z</time>
      </trkpt>
      <trkpt lat="41.0165070" lon="0.5122790">
        <ele>162.9</ele>
        <time>2020-08-07T13:35:09Z</time>
      </trkpt>
      <trkpt lat="41.0165070" lon="0.5122820">
        <ele>162.9</ele>
        <time>2020-08-07T13:35:10Z</time>
      </trkpt>
      <trkpt lat="41.0165070" lon="0.5122840">
        <ele>162.9</ele>
        <time>2020-08-07T13:35:11Z</time>
      </trkpt>
      <trkpt lat="41.0165060" lon="0.5122860">
        <ele>162.9</ele>
        <time>2020-08-07T13:35:13Z</time>
      </trkpt>
      <trkpt lat="41.0165060" lon="0.5122890">
        <ele>162.9</ele>
        <time>2020-08-07T13:35:15Z</time>
      </trkpt>
      <trkpt lat="41.0165060" lon="0.5122910">
        <ele>162.9</ele>
        <time>2020-08-07T13:35:16Z</time>
      </trkpt>
      <trkpt lat="41.0165110" lon="0.5123050">
        <ele>163.0</ele>
        <time>2020-08-07T13:35:17Z</time>
      </trkpt>
      <trkpt lat="41.0165210" lon="0.5123250">
        <ele>163.1</ele>
        <time>2020-08-07T13:35:19Z</time>
      </trkpt>
      <trkpt lat="41.0165230" lon="0.5123290">
        <ele>163.1</ele>
        <time>2020-08-07T13:35:20Z</time>
      </trkpt>
      <trkpt lat="41.0165270" lon="0.5123350">
        <ele>163.1</ele>
        <time>2020-08-07T13:35:22Z</time>
      </trkpt>
      <trkpt lat="41.0165310" lon="0.5123420">
        <ele>163.1</ele>
        <time>2020-08-07T13:35:24Z</time>
      </trkpt>
      <trkpt lat="41.0165320" lon="0.5123410">
        <ele>163.2</ele>
        <time>2020-08-07T13:35:26Z</time>
      </trkpt>
      <trkpt lat="41.0165310" lon="0.5123390">
        <ele>163.2</ele>
        <time>2020-08-07T13:35:27Z</time>
      </trkpt>
      <trkpt lat="41.0165320" lon="0.5123360">
        <ele>163.2</ele>
        <time>2020-08-07T13:35:29Z</time>
      </trkpt>
      <trkpt lat="41.0165330" lon="0.5123350">
        <ele>163.2</ele>
        <time>2020-08-07T13:35:30Z</time>
      </trkpt>
      <trkpt lat="41.0165360" lon="0.5123340">
        <ele>163.2</ele>
        <time>2020-08-07T13:35:32Z</time>
      </trkpt>
      <trkpt lat="41.0165360" lon="0.5123320">
        <ele>163.2</ele>
        <time>2020-08-07T13:35:33Z</time>
      </trkpt>
      <trkpt lat="41.0165370" lon="0.5123310">
        <ele>163.2</ele>
        <time>2020-08-07T13:35:35Z</time>
      </trkpt>
      <trkpt lat="41.0165050" lon="0.5123590">
        <ele>163.4</ele>
        <time>2020-08-07T13:46:20Z</time>
      </trkpt>
      <trkpt lat="41.0165030" lon="0.5123750">
        <ele>163.5</ele>
        <time>2020-08-07T13:46:21Z</time>
      </trkpt>
      <trkpt lat="41.0165000" lon="0.5123880">
        <ele>163.5</ele>
        <time>2020-08-07T13:46:22Z</time>
      </trkpt>
      <trkpt lat="41.0164980" lon="0.5124140">
        <ele>163.5</ele>
        <time>2020-08-07T13:46:24Z</time>
      </trkpt>
      <trkpt lat="41.0164990" lon="0.5124240">
        <ele>163.5</ele>
        <time>2020-08-07T13:46:25Z</time>
      </trkpt>
      <trkpt lat="41.0165000" lon="0.5124300">
        <ele>163.5</ele>
        <time>2020-08-07T13:46:26Z</time>
      </trkpt>
      <trkpt lat="41.0164980" lon="0.5124310">
        <ele>163.5</ele>
        <time>2020-08-07T13:46:28Z</time>
      </trkpt>
      <trkpt lat="41.0164930" lon="0.5124260">
        <ele>163.5</ele>
        <time>2020-08-07T13:46:30Z</time>
      </trkpt>
      <trkpt lat="41.0164910" lon="0.5124260">
        <ele>163.5</ele>
        <time>2020-08-07T13:46:31Z</time>
      </trkpt>
      <trkpt lat="41.0164890" lon="0.5124250">
        <ele>163.5</ele>
        <time>2020-08-07T13:46:33Z</time>
      </trkpt>
      <trkpt lat="41.0164820" lon="0.5124240">
        <ele>163.5</ele>
        <time>2020-08-07T13:46:34Z</time>
      </trkpt>
      <trkpt lat="41.0164760" lon="0.5124230">
        <ele>163.5</ele>
        <time>2020-08-07T13:46:35Z</time>
      </trkpt>
      <trkpt lat="41.0164670" lon="0.5124330">
        <ele>163.6</ele>
        <time>2020-08-07T13:46:37Z</time>
      </trkpt>
      <trkpt lat="41.0164650" lon="0.5124550">
        <ele>163.6</ele>
        <time>2020-08-07T13:46:39Z</time>
      </trkpt>
      <trkpt lat="41.0164680" lon="0.5124680">
        <ele>163.6</ele>
        <time>2020-08-07T13:46:40Z</time>
      </trkpt>
      <trkpt lat="41.0164680" lon="0.5124710">
        <ele>163.6</ele>
        <time>2020-08-07T13:46:41Z</time>
      </trkpt>
      <trkpt lat="41.0164650" lon="0.5124660">
        <ele>163.6</ele>
        <time>2020-08-07T13:46:43Z</time>
      </trkpt>
      <trkpt lat="41.0164610" lon="0.5124530">
        <ele>163.6</ele>
        <time>2020-08-07T13:46:47Z</time>
      </trkpt>
      <trkpt lat="41.0164600" lon="0.5124510">
        <ele>163.6</ele>
        <time>2020-08-07T13:46:48Z</time>
      </trkpt>
      <trkpt lat="41.0164600" lon="0.5124510">
        <ele>163.6</ele>
        <time>2020-08-07T13:46:49Z</time>
      </trkpt>
      <trkpt lat="41.0164610" lon="0.5124510">
        <ele>163.6</ele>
        <time>2020-08-07T13:46:51Z</time>
      </trkpt>
      <trkpt lat="41.0164390" lon="0.5124660">
        <ele>163.7</ele>
        <time>2020-08-07T13:50:23Z</time>
      </trkpt>
      <trkpt lat="41.0164270" lon="0.5124590">
        <ele>163.7</ele>
        <time>2020-08-07T13:50:25Z</time>
      </trkpt>
      <trkpt lat="41.0164240" lon="0.5124560">
        <ele>163.7</ele>
        <time>2020-08-07T13:50:27Z</time>
      </trkpt>
      <trkpt lat="41.0164230" lon="0.5124530">
        <ele>163.7</ele>
        <time>2020-08-07T13:50:29Z</time>
      </trkpt>
      <trkpt lat="41.0164240" lon="0.5124530">
        <ele>163.7</ele>
        <time>2020-08-07T13:50:30Z</time>
      </trkpt>
      <trkpt lat="41.0164240" lon="0.5124540">
        <ele>163.7</ele>
        <time>2020-08-07T13:50:31Z</time>
      </trkpt>
      <trkpt lat="41.0164250" lon="0.5124550">
        <ele>163.7</ele>
        <time>2020-08-07T13:50:32Z</time>
      </trkpt>
      <trkpt lat="41.0164260" lon="0.5124580">
        <ele>163.7</ele>
        <time>2020-08-07T13:50:33Z</time>
      </trkpt>
      <trkpt lat="41.0164260" lon="0.5124610">
        <ele>163.7</ele>
        <time>2020-08-07T13:50:35Z</time>
      </trkpt>
      <trkpt lat="41.0164250" lon="0.5124610">
        <ele>163.7</ele>
        <time>2020-08-07T13:50:36Z</time>
      </trkpt>
      <trkpt lat="41.0164230" lon="0.5124610">
        <ele>163.7</ele>
        <time>2020-08-07T13:50:38Z</time>
      </trkpt>
      <trkpt lat="41.0164350" lon="0.5125120">
        <ele>163.8</ele>
        <time>2020-08-07T13:54:05Z</time>
      </trkpt>
      <trkpt lat="41.0164300" lon="0.5125260">
        <ele>163.7</ele>
        <time>2020-08-07T13:54:07Z</time>
      </trkpt>
      <trkpt lat="41.0164270" lon="0.5125350">
        <ele>163.7</ele>
        <time>2020-08-07T13:54:08Z</time>
      </trkpt>
      <trkpt lat="41.0164240" lon="0.5125430">
        <ele>163.8</ele>
        <time>2020-08-07T13:54:09Z</time>
      </trkpt>
      <trkpt lat="41.0164170" lon="0.5125510">
        <ele>163.8</ele>
        <time>2020-08-07T13:54:10Z</time>
      </trkpt>
      <trkpt lat="41.0164140" lon="0.5125460">
        <ele>163.8</ele>
        <time>2020-08-07T13:54:12Z</time>
      </trkpt>
      <trkpt lat="41.0164170" lon="0.5125450">
        <ele>163.8</ele>
        <time>2020-08-07T13:54:13Z</time>
      </trkpt>
      <trkpt lat="41.0164190" lon="0.5125450">
        <ele>163.8</ele>
        <time>2020-08-07T13:54:14Z</time>
      </trkpt>
      <trkpt lat="41.0164220" lon="0.5125450">
        <ele>163.8</ele>
        <time>2020-08-07T13:54:15Z</time>
      </trkpt>
      <trkpt lat="41.0164240" lon="0.5125460">
        <ele>163.8</ele>
        <time>2020-08-07T13:54:16Z</time>
      </trkpt>
      <trkpt lat="41.0164270" lon="0.5125460">
        <ele>163.8</ele>
        <time>2020-08-07T13:54:18Z</time>
      </trkpt>
      <trkpt lat="41.0164280" lon="0.5125470">
        <ele>163.8</ele>
        <time>2020-08-07T13:54:19Z</time>
      </trkpt>
      <trkpt lat="41.0164290" lon="0.5125470">
        <ele>163.8</ele>
        <time>2020-08-07T13:54:20Z</time>
      </trkpt>
      <trkpt lat="41.0164590" lon="0.5125940">
        <ele>164.0</ele>
        <time>2020-08-07T13:54:28Z</time>
      </trkpt>
      <trkpt lat="41.0164660" lon="0.5126100">
        <ele>164.1</ele>
        <time>2020-08-07T13:54:29Z</time>
      </trkpt>
      <trkpt lat="41.0164700" lon="0.5126220">
        <ele>164.1</ele>
        <time>2020-08-07T13:54:30Z</time>
      </trkpt>
      <trkpt lat="41.0164550" lon="0.5125870">
        <ele>164.0</ele>
        <time>2020-08-07T13:54:31Z</time>
      </trkpt>
      <trkpt lat="41.0164520" lon="0.5125780">
        <ele>163.9</ele>
        <time>2020-08-07T13:54:33Z</time>
      </trkpt>
      <trkpt lat="41.0164490" lon="0.5125720">
        <ele>163.9</ele>
        <time>2020-08-07T13:54:34Z</time>
      </trkpt>
      <trkpt lat="41.0164480" lon="0.5125710">
        <ele>163.9</ele>
        <time>2020-08-07T13:54:35Z</time>
      </trkpt>
      <trkpt lat="41.0164470" lon="0.5125690">
        <ele>163.9</ele>
        <time>2020-08-07T13:54:36Z</time>
      </trkpt>
      <trkpt lat="41.0164470" lon="0.5125680">
        <ele>163.9</ele>
        <time>2020-08-07T13:54:37Z</time>
      </trkpt>
      <trkpt lat="41.0164460" lon="0.5125680">
        <ele>163.9</ele>
        <time>2020-08-07T13:54:38Z</time>
      </trkpt>
      <trkpt lat="41.0164440" lon="0.5125680">
        <ele>163.9</ele>
        <time>2020-08-07T13:54:40Z</time>
      </trkpt>
      <trkpt lat="41.0166990" lon="0.5128300">
        <ele>165.0</ele>
        <time>2020-08-07T13:57:34Z</time>
      </trkpt>
      <trkpt lat="41.0164740" lon="0.5126340">
        <ele>164.2</ele>
        <time>2020-08-07T13:57:46Z</time>
      </trkpt>
      <trkpt lat="41.0164840" lon="0.5126370">
        <ele>164.2</ele>
        <time>2020-08-07T13:57:48Z</time>
      </trkpt>
      <trkpt lat="41.0164950" lon="0.5126430">
        <ele>164.2</ele>
        <time>2020-08-07T13:57:49Z</time>
      </trkpt>
      <trkpt lat="41.0165070" lon="0.5126480">
        <ele>164.3</ele>
        <time>2020-08-07T13:57:50Z</time>
      </trkpt>
      <trkpt lat="41.0165180" lon="0.5126530">
        <ele>164.3</ele>
        <time>2020-08-07T13:57:52Z</time>
      </trkpt>
      <trkpt lat="41.0165300" lon="0.5126590">
        <ele>164.3</ele>
        <time>2020-08-07T13:57:53Z</time>
      </trkpt>
      <trkpt lat="41.0165410" lon="0.5126640">
        <ele>164.3</ele>
        <time>2020-08-07T13:57:54Z</time>
      </trkpt>
      <trkpt lat="41.0165530" lon="0.5126690">
        <ele>164.5</ele>
        <time>2020-08-07T13:57:56Z</time>
      </trkpt>
      <trkpt lat="41.0165640" lon="0.5126750">
        <ele>164.5</ele>
        <time>2020-08-07T13:57:57Z</time>
      </trkpt>
      <trkpt lat="41.0165760" lon="0.5126800">
        <ele>164.5</ele>
        <time>2020-08-07T13:57:58Z</time>
      </trkpt>
      <trkpt lat="41.0165870" lon="0.5126850">
        <ele>164.5</ele>
        <time>2020-08-07T13:57:59Z</time>
      </trkpt>
      <trkpt lat="41.0165990" lon="0.5126910">
        <ele>164.5</ele>
        <time>2020-08-07T13:58:01Z</time>
      </trkpt>
      <trkpt lat="41.0166110" lon="0.5126960">
        <ele>164.5</ele>
        <time>2020-08-07T13:58:02Z</time>
      </trkpt>
      <trkpt lat="41.0166220" lon="0.5127010">
        <ele>164.5</ele>
        <time>2020-08-07T13:58:03Z</time>
      </trkpt>
      <trkpt lat="41.0166340" lon="0.5127070">
        <ele>164.6</ele>
        <time>2020-08-07T13:58:05Z</time>
      </trkpt>
      <trkpt lat="41.0166450" lon="0.5127120">
        <ele>164.7</ele>
        <time>2020-08-07T13:58:07Z</time>
      </trkpt>
      <trkpt lat="41.0166570" lon="0.5127170">
        <ele>164.7</ele>
        <time>2020-08-07T13:58:08Z</time>
      </trkpt>
      <trkpt lat="41.0166680" lon="0.5127230">
        <ele>164.8</ele>
        <time>2020-08-07T13:58:09Z</time>
      </trkpt>
      <trkpt lat="41.0166800" lon="0.5127280">
        <ele>164.8</ele>
        <time>2020-08-07T13:58:11Z</time>
      </trkpt>
      <trkpt lat="41.0166910" lon="0.5127330">
        <ele>164.8</ele>
        <time>2020-08-07T13:58:13Z</time>
      </trkpt>
      <trkpt lat="41.0167030" lon="0.5127390">
        <ele>164.8</ele>
        <time>2020-08-07T13:58:15Z</time>
      </trkpt>
      <trkpt lat="41.0167150" lon="0.5127440">
        <ele>164.8</ele>
        <time>2020-08-07T13:58:16Z</time>
      </trkpt>
      <trkpt lat="41.0167260" lon="0.5127490">
        <ele>164.9</ele>
        <time>2020-08-07T13:58:17Z</time>
      </trkpt>
      <trkpt lat="41.0167380" lon="0.5127550">
        <ele>165.0</ele>
        <time>2020-08-07T13:58:18Z</time>
      </trkpt>
      <trkpt lat="41.0167490" lon="0.5127600">
        <ele>165.0</ele>
        <time>2020-08-07T13:58:20Z</time>
      </trkpt>
      <trkpt lat="41.0167610" lon="0.5127650">
        <ele>165.0</ele>
        <time>2020-08-07T13:58:22Z</time>
      </trkpt>
      <trkpt lat="41.0167720" lon="0.5127710">
        <ele>165.0</ele>
        <time>2020-08-07T13:58:23Z</time>
      </trkpt>
      <trkpt lat="41.0167840" lon="0.5127760">
        <ele>165.0</ele>
        <time>2020-08-07T13:58:24Z</time>
      </trkpt>
      <trkpt lat="41.0167950" lon="0.5127810">
        <ele>165.1</ele>
        <time>2020-08-07T13:58:25Z</time>
      </trkpt>
      <trkpt lat="41.0168070" lon="0.5127870">
        <ele>165.1</ele>
        <time>2020-08-07T13:58:26Z</time>
      </trkpt>
      <trkpt lat="41.0168180" lon="0.5127920">
        <ele>165.1</ele>
        <time>2020-08-07T13:58:27Z</time>
      </trkpt>
      <trkpt lat="41.0168300" lon="0.5127970">
        <ele>165.3</ele>
        <time>2020-08-07T13:58:29Z</time>
      </trkpt>
      <trkpt lat="41.0168420" lon="0.5128030">
        <ele>165.3</ele>
        <time>2020-08-07T13:58:30Z</time>
      </trkpt>
      <trkpt lat="41.0168530" lon="0.5128080">
        <ele>165.3</ele>
        <time>2020-08-07T13:58:31Z</time>
      </trkpt>
      <trkpt lat="41.0168650" lon="0.5128130">
        <ele>165.3</ele>
        <time>2020-08-07T13:58:32Z</time>
      </trkpt>
      <trkpt lat="41.0168760" lon="0.5128190">
        <ele>165.3</ele>
        <time>2020-08-07T13:58:34Z</time>
      </trkpt>
      <trkpt lat="41.0168880" lon="0.5128240">
        <ele>165.4</ele>
        <time>2020-08-07T13:58:36Z</time>
      </trkpt>
      <trkpt lat="41.0168990" lon="0.5128290">
        <ele>165.4</ele>
        <time>2020-08-07T13:58:37Z</time>
      </trkpt>
      <trkpt lat="41.0169110" lon="0.5128350">
        <ele>165.4</ele>
        <time>2020-08-07T13:58:39Z</time>
      </trkpt>
      <trkpt lat="41.0169220" lon="0.5128400">
        <ele>165.6</ele>
        <time>2020-08-07T13:58:41Z</time>
      </trkpt>
      <trkpt lat="41.0169340" lon="0.5128450">
        <ele>165.6</ele>
        <time>2020-08-07T13:58:43Z</time>
      </trkpt>
      <trkpt lat="41.0169450" lon="0.5128510">
        <ele>165.6</ele>
        <time>2020-08-07T14:20:44Z</time>
      </trkpt>
      <trkpt lat="41.0169570" lon="0.5128560">
        <ele>165.8</ele>
        <time>2020-08-07T14:20:45Z</time>
      </trkpt>
      <trkpt lat="41.0169270" lon="0.5127840">
        <ele>165.5</ele>
        <time>2020-08-07T14:20:47Z</time>
      </trkpt>
      <trkpt lat="41.0169150" lon="0.5127390">
        <ele>165.3</ele>
        <time>2020-08-07T14:20:48Z</time>
      </trkpt>
      <trkpt lat="41.0169120" lon="0.5127190">
        <ele>165.3</ele>
        <time>2020-08-07T14:20:49Z</time>
      </trkpt>
      <trkpt lat="41.0169150" lon="0.5126660">
        <ele>165.1</ele>
        <time>2020-08-07T14:20:51Z</time>
      </trkpt>
      <trkpt lat="41.0168980" lon="0.5126190">
        <ele>165.0</ele>
        <time>2020-08-07T14:20:52Z</time>
      </trkpt>
      <trkpt lat="41.0168860" lon="0.5126020">
        <ele>164.9</ele>
        <time>2020-08-07T14:20:53Z</time>
      </trkpt>
      <trkpt lat="41.0168600" lon="0.5125690">
        <ele>164.9</ele>
        <time>2020-08-07T14:20:55Z</time>
      </trkpt>
      <trkpt lat="41.0168520" lon="0.5125560">
        <ele>164.8</ele>
        <time>2020-08-07T14:20:56Z</time>
      </trkpt>
      <trkpt lat="41.0168440" lon="0.5125440">
        <ele>164.8</ele>
        <time>2020-08-07T14:20:57Z</time>
      </trkpt>
      <trkpt lat="41.0167980" lon="0.5124860">
        <ele>164.6</ele>
        <time>2020-08-07T14:21:10Z</time>
      </trkpt>
      <trkpt lat="41.0166780" lon="0.5124740">
        <ele>164.2</ele>
        <time>2020-08-07T14:44:24Z</time>
      </trkpt>
      <trkpt lat="41.0166740" lon="0.5125740">
        <ele>164.4</ele>
        <time>2020-08-07T14:44:26Z</time>
      </trkpt>
      <trkpt lat="41.0166700" lon="0.5125950">
        <ele>164.5</ele>
        <time>2020-08-07T14:44:27Z</time>
      </trkpt>
      <trkpt lat="41.0166540" lon="0.5125910">
        <ele>164.4</ele>
        <time>2020-08-07T14:44:29Z</time>
      </trkpt>
      <trkpt lat="41.0166450" lon="0.5125920">
        <ele>164.4</ele>
        <time>2020-08-07T14:44:30Z</time>
      </trkpt>
      <trkpt lat="41.0166340" lon="0.5125900">
        <ele>164.4</ele>
        <time>2020-08-07T14:44:32Z</time>
      </trkpt>
      <trkpt lat="41.0166300" lon="0.5125750">
        <ele>164.3</ele>
        <time>2020-08-07T14:44:33Z</time>
      </trkpt>
      <trkpt lat="41.0166330" lon="0.5125640">
        <ele>164.3</ele>
        <time>2020-08-07T14:44:34Z</time>
      </trkpt>
      <trkpt lat="41.0166380" lon="0.5125580">
        <ele>164.3</ele>
        <time>2020-08-07T14:44:36Z</time>
      </trkpt>
      <trkpt lat="41.0166430" lon="0.5125560">
        <ele>164.3</ele>
        <time>2020-08-07T14:44:37Z</time>
      </trkpt>
      <trkpt lat="41.0166450" lon="0.5125590">
        <ele>164.3</ele>
        <time>2020-08-07T14:44:38Z</time>
      </trkpt>
      <trkpt lat="41.0166510" lon="0.5125660">
        <ele>164.3</ele>
        <time>2020-08-07T14:44:40Z</time>
      </trkpt>
      <trkpt lat="41.0166460" lon="0.5125980">
        <ele>164.4</ele>
        <time>2020-08-07T14:44:42Z</time>
      </trkpt>
      <trkpt lat="41.0166390" lon="0.5126090">
        <ele>164.4</ele>
        <time>2020-08-07T14:44:43Z</time>
      </trkpt>
      <trkpt lat="41.0166300" lon="0.5125990">
        <ele>164.4</ele>
        <time>2020-08-07T14:44:45Z</time>
      </trkpt>
      <trkpt lat="41.0166340" lon="0.5125810">
        <ele>164.4</ele>
        <time>2020-08-07T14:44:47Z</time>
      </trkpt>
      <trkpt lat="41.0166320" lon="0.5125670">
        <ele>164.3</ele>
        <time>2020-08-07T14:44:48Z</time>
      </trkpt>
      <trkpt lat="41.0166320" lon="0.5125550">
        <ele>164.3</ele>
        <time>2020-08-07T14:44:49Z</time>
      </trkpt>
      <trkpt lat="41.0166300" lon="0.5125430">
        <ele>164.3</ele>
        <time>2020-08-07T14:44:50Z</time>
      </trkpt>
      <trkpt lat="41.0166380" lon="0.5125270">
        <ele>164.3</ele>
        <time>2020-08-07T14:44:52Z</time>
      </trkpt>
      <trkpt lat="41.0166600" lon="0.5125490">
        <ele>164.3</ele>
        <time>2020-08-07T14:44:54Z</time>
      </trkpt>
      <trkpt lat="41.0166670" lon="0.5125560">
        <ele>164.4</ele>
        <time>2020-08-07T14:44:55Z</time>
      </trkpt>
      <trkpt lat="41.0166760" lon="0.5125630">
        <ele>164.4</ele>
        <time>2020-08-07T14:44:57Z</time>
      </trkpt>
      <trkpt lat="41.0166830" lon="0.5125660">
        <ele>164.4</ele>
        <time>2020-08-07T14:44:58Z</time>
      </trkpt>
      <trkpt lat="41.0166900" lon="0.5125670">
        <ele>164.4</ele>
        <time>2020-08-07T14:45:00Z</time>
      </trkpt>
      <trkpt lat="41.0166920" lon="0.5125670">
        <ele>164.4</ele>
        <time>2020-08-07T14:45:01Z</time>
      </trkpt>
      <trkpt lat="41.0166940" lon="0.5125640">
        <ele>164.5</ele>
        <time>2020-08-07T14:45:03Z</time>
      </trkpt>
      <trkpt lat="41.0166960" lon="0.5125590">
        <ele>164.5</ele>
        <time>2020-08-07T14:45:05Z</time>
      </trkpt>
      <trkpt lat="41.0166960" lon="0.5125560">
        <ele>164.5</ele>
        <time>2020-08-07T14:45:06Z</time>
      </trkpt>
      <trkpt lat="41.0166960" lon="0.5125520">
        <ele>164.5</ele>
        <time>2020-08-07T14:45:07Z</time>
      </trkpt>
      <trkpt lat="41.0166940" lon="0.5125480">
        <ele>164.5</ele>
        <time>2020-08-07T14:45:08Z</time>
      </trkpt>
      <trkpt lat="41.0166900" lon="0.5125340">
        <ele>164.3</ele>
        <time>2020-08-07T14:45:10Z</time>
      </trkpt>
      <trkpt lat="41.0166860" lon="0.5125250">
        <ele>164.3</ele>
        <time>2020-08-07T14:45:12Z</time>
      </trkpt>
      <trkpt lat="41.0166840" lon="0.5125210">
        <ele>164.4</ele>
        <time>2020-08-07T14:45:13Z</time>
      </trkpt>
      <trkpt lat="41.0166840" lon="0.5125150">
        <ele>164.4</ele>
        <time>2020-08-07T14:45:14Z</time>
      </trkpt>
      <trkpt lat="41.0166840" lon="0.5125120">
        <ele>164.4</ele>
        <time>2020-08-07T14:45:15Z</time>
      </trkpt>
      <trkpt lat="41.0166670" lon="0.5124870">
        <ele>164.3</ele>
        <time>2020-08-07T14:45:17Z</time>
      </trkpt>
      <trkpt lat="41.0166260" lon="0.5124300">
        <ele>164.0</ele>
        <time>2020-08-07T14:45:19Z</time>
      </trkpt>
      <trkpt lat="41.0166010" lon="0.5123940">
        <ele>164.0</ele>
        <time>2020-08-07T14:45:20Z</time>
      </trkpt>
      <trkpt lat="41.0165830" lon="0.5123730">
        <ele>163.9</ele>
        <time>2020-08-07T14:45:21Z</time>
      </trkpt>
      <trkpt lat="41.0165720" lon="0.5123690">
        <ele>163.9</ele>
        <time>2020-08-07T14:45:22Z</time>
      </trkpt>
      <trkpt lat="41.0165650" lon="0.5123750">
        <ele>163.9</ele>
        <time>2020-08-07T14:45:24Z</time>
      </trkpt>
      <trkpt lat="41.0165700" lon="0.5123930">
        <ele>163.9</ele>
        <time>2020-08-07T14:45:26Z</time>
      </trkpt>
      <trkpt lat="41.0165710" lon="0.5123990">
        <ele>163.9</ele>
        <time>2020-08-07T14:45:27Z</time>
      </trkpt>
      <trkpt lat="41.0165720" lon="0.5124020">
        <ele>163.9</ele>
        <time>2020-08-07T14:45:28Z</time>
      </trkpt>
      <trkpt lat="41.0165880" lon="0.5124170">
        <ele>164.0</ele>
        <time>2020-08-07T14:45:30Z</time>
      </trkpt>
      <trkpt lat="41.0165910" lon="0.5124190">
        <ele>164.0</ele>
        <time>2020-08-07T14:45:31Z</time>
      </trkpt>
      <trkpt lat="41.0165850" lon="0.5124110">
        <ele>164.0</ele>
        <time>2020-08-07T14:45:32Z</time>
      </trkpt>
      <trkpt lat="41.0165750" lon="0.5123950">
        <ele>163.9</ele>
        <time>2020-08-07T14:45:34Z</time>
      </trkpt>
      <trkpt lat="41.0165700" lon="0.5123870">
        <ele>163.9</ele>
        <time>2020-08-07T14:45:35Z</time>
      </trkpt>
      <trkpt lat="41.0165690" lon="0.5123830">
        <ele>163.9</ele>
        <time>2020-08-07T14:45:36Z</time>
      </trkpt>
      <trkpt lat="41.0165700" lon="0.5123830">
        <ele>163.9</ele>
        <time>2020-08-07T14:45:37Z</time>
      </trkpt>
      <trkpt lat="41.0165740" lon="0.5123870">
        <ele>163.9</ele>
        <time>2020-08-07T14:45:39Z</time>
      </trkpt>
      <trkpt lat="41.0165760" lon="0.5123890">
        <ele>163.9</ele>
        <time>2020-08-07T14:45:40Z</time>
      </trkpt>
      <trkpt lat="41.0165770" lon="0.5123910">
        <ele>163.9</ele>
        <time>2020-08-07T14:45:41Z</time>
      </trkpt>
      <trkpt lat="41.0165770" lon="0.5123930">
        <ele>163.9</ele>
        <time>2020-08-07T14:45:42Z</time>
      </trkpt>
      <trkpt lat="41.0165760" lon="0.5124010">
        <ele>163.9</ele>
        <time>2020-08-07T14:45:44Z</time>
      </trkpt>
      <trkpt lat="41.0165750" lon="0.5124040">
        <ele>163.9</ele>
        <time>2020-08-07T14:45:45Z</time>
      </trkpt>
      <trkpt lat="41.0165730" lon="0.5124070">
        <ele>163.9</ele>
        <time>2020-08-07T14:45:46Z</time>
      </trkpt>
      <trkpt lat="41.0165720" lon="0.5124110">
        <ele>164.0</ele>
        <time>2020-08-07T14:45:47Z</time>
      </trkpt>
      <trkpt lat="41.0165190" lon="0.5124170">
        <ele>163.9</ele>
        <time>2020-08-07T14:47:17Z</time>
      </trkpt>
      <trkpt lat="41.0164850" lon="0.5124100">
        <ele>163.8</ele>
        <time>2020-08-07T14:47:19Z</time>
      </trkpt>
      <trkpt lat="41.0164360" lon="0.5124000">
        <ele>163.6</ele>
        <time>2020-08-07T14:47:21Z</time>
      </trkpt>
      <trkpt lat="41.0164190" lon="0.5123970">
        <ele>163.5</ele>
        <time>2020-08-07T14:47:22Z</time>
      </trkpt>
      <trkpt lat="41.0164150" lon="0.5123960">
        <ele>163.5</ele>
        <time>2020-08-07T14:47:23Z</time>
      </trkpt>
      <trkpt lat="41.0164180" lon="0.5123950">
        <ele>163.5</ele>
        <time>2020-08-07T14:47:24Z</time>
      </trkpt>
      <trkpt lat="41.0164220" lon="0.5123940">
        <ele>163.5</ele>
        <time>2020-08-07T14:47:25Z</time>
      </trkpt>
      <trkpt lat="41.0164350" lon="0.5123940">
        <ele>163.6</ele>
        <time>2020-08-07T14:47:27Z</time>
      </trkpt>
      <trkpt lat="41.0164450" lon="0.5123950">
        <ele>163.6</ele>
        <time>2020-08-07T14:47:29Z</time>
      </trkpt>
      <trkpt lat="41.0164470" lon="0.5123960">
        <ele>163.6</ele>
        <time>2020-08-07T14:47:30Z</time>
      </trkpt>
      <trkpt lat="41.0164490" lon="0.5123960">
        <ele>163.6</ele>
        <time>2020-08-07T14:47:32Z</time>
      </trkpt>
      <trkpt lat="41.0164490" lon="0.5123960">
        <ele>163.6</ele>
        <time>2020-08-07T14:47:33Z</time>
      </trkpt>
      <trkpt lat="41.0164500" lon="0.5123970">
        <ele>163.6</ele>
        <time>2020-08-07T14:47:35Z</time>
      </trkpt>
      <trkpt lat="41.0164490" lon="0.5123970">
        <ele>163.6</ele>
        <time>2020-08-07T14:47:36Z</time>
      </trkpt>
      <trkpt lat="41.0164410" lon="0.5123930">
        <ele>163.6</ele>
        <time>2020-08-07T14:47:37Z</time>
      </trkpt>
      <trkpt lat="41.0164350" lon="0.5123900">
        <ele>163.6</ele>
        <time>2020-08-07T14:47:38Z</time>
      </trkpt>
      <trkpt lat="41.0164300" lon="0.5123860">
        <ele>163.5</ele>
        <time>2020-08-07T14:47:39Z</time>
      </trkpt>
      <trkpt lat="41.0164240" lon="0.5123830">
        <ele>163.5</ele>
        <time>2020-08-07T14:47:40Z</time>
      </trkpt>
      <trkpt lat="41.0164140" lon="0.5123790">
        <ele>163.5</ele>
        <time>2020-08-07T14:47:41Z</time>
      </trkpt>
      <trkpt lat="41.0164440" lon="0.5123810">
        <ele>163.6</ele>
        <time>2020-08-07T14:47:43Z</time>
      </trkpt>
      <trkpt lat="41.0164630" lon="0.5123770">
        <ele>163.6</ele>
        <time>2020-08-07T14:47:44Z</time>
      </trkpt>
      <trkpt lat="41.0164720" lon="0.5123770">
        <ele>163.7</ele>
        <time>2020-08-07T14:47:45Z</time>
      </trkpt>
      <trkpt lat="41.0164740" lon="0.5123820">
        <ele>163.7</ele>
        <time>2020-08-07T14:47:46Z</time>
      </trkpt>
      <trkpt lat="41.0164750" lon="0.5123860">
        <ele>163.7</ele>
        <time>2020-08-07T14:47:47Z</time>
      </trkpt>
      <trkpt lat="41.0164780" lon="0.5123940">
        <ele>163.7</ele>
        <time>2020-08-07T14:47:49Z</time>
      </trkpt>
      <trkpt lat="41.0164790" lon="0.5123960">
        <ele>163.7</ele>
        <time>2020-08-07T14:47:50Z</time>
      </trkpt>
      <trkpt lat="41.0164860" lon="0.5123850">
        <ele>163.7</ele>
        <time>2020-08-07T14:47:51Z</time>
      </trkpt>
      <trkpt lat="41.0164840" lon="0.5123900">
        <ele>163.7</ele>
        <time>2020-08-07T14:47:52Z</time>
      </trkpt>
      <trkpt lat="41.0164800" lon="0.5123960">
        <ele>163.7</ele>
        <time>2020-08-07T14:47:54Z</time>
      </trkpt>
      <trkpt lat="41.0164760" lon="0.5123990">
        <ele>163.7</ele>
        <time>2020-08-07T14:47:55Z</time>
      </trkpt>
      <trkpt lat="41.0164600" lon="0.5123960">
        <ele>163.6</ele>
        <time>2020-08-07T14:47:56Z</time>
      </trkpt>
      <trkpt lat="41.0164450" lon="0.5124030">
        <ele>163.6</ele>
        <time>2020-08-07T14:47:58Z</time>
      </trkpt>
      <trkpt lat="41.0164410" lon="0.5124070">
        <ele>163.6</ele>
        <time>2020-08-07T14:47:59Z</time>
      </trkpt>
      <trkpt lat="41.0164190" lon="0.5124240">
        <ele>163.6</ele>
        <time>2020-08-07T14:48:00Z</time>
      </trkpt>
      <trkpt lat="41.0164100" lon="0.5124300">
        <ele>163.6</ele>
        <time>2020-08-07T14:48:02Z</time>
      </trkpt>
      <trkpt lat="41.0164020" lon="0.5124370">
        <ele>163.6</ele>
        <time>2020-08-07T14:48:03Z</time>
      </trkpt>
      <trkpt lat="41.0163940" lon="0.5124440">
        <ele>163.5</ele>
        <time>2020-08-07T14:48:04Z</time>
      </trkpt>
      <trkpt lat="41.0163850" lon="0.5124500">
        <ele>163.5</ele>
        <time>2020-08-07T14:48:05Z</time>
      </trkpt>
      <trkpt lat="41.0163770" lon="0.5124570">
        <ele>163.7</ele>
        <time>2020-08-07T14:48:06Z</time>
      </trkpt>
      <trkpt lat="41.0163440" lon="0.5124530">
        <ele>163.6</ele>
        <time>2020-08-07T14:48:08Z</time>
      </trkpt>
      <trkpt lat="41.0163350" lon="0.5124530">
        <ele>163.5</ele>
        <time>2020-08-07T14:48:09Z</time>
      </trkpt>
      <trkpt lat="41.0163200" lon="0.5124500">
        <ele>163.3</ele>
        <time>2020-08-07T14:48:10Z</time>
      </trkpt>
      <trkpt lat="41.0163100" lon="0.5124420">
        <ele>163.3</ele>
        <time>2020-08-07T14:48:11Z</time>
      </trkpt>
      <trkpt lat="41.0162920" lon="0.5124210">
        <ele>163.2</ele>
        <time>2020-08-07T14:48:13Z</time>
      </trkpt>
      <trkpt lat="41.0162860" lon="0.5124160">
        <ele>163.2</ele>
        <time>2020-08-07T14:48:14Z</time>
      </trkpt>
      <trkpt lat="41.0162790" lon="0.5124100">
        <ele>163.2</ele>
        <time>2020-08-07T14:48:15Z</time>
      </trkpt>
      <trkpt lat="41.0162590" lon="0.5123790">
        <ele>163.0</ele>
        <time>2020-08-07T14:48:16Z</time>
      </trkpt>
      <trkpt lat="41.0162500" lon="0.5123690">
        <ele>163.0</ele>
        <time>2020-08-07T14:48:17Z</time>
      </trkpt>
      <trkpt lat="41.0162350" lon="0.5123440">
        <ele>162.7</ele>
        <time>2020-08-07T14:48:19Z</time>
      </trkpt>
      <trkpt lat="41.0161930" lon="0.5123300">
        <ele>162.6</ele>
        <time>2020-08-07T14:48:21Z</time>
      </trkpt>
      <trkpt lat="41.0161760" lon="0.5123290">
        <ele>162.6</ele>
        <time>2020-08-07T14:48:22Z</time>
      </trkpt>
      <trkpt lat="41.0161470" lon="0.5123380">
        <ele>162.5</ele>
        <time>2020-08-07T14:48:24Z</time>
      </trkpt>
      <trkpt lat="41.0161070" lon="0.5123260">
        <ele>162.2</ele>
        <time>2020-08-07T14:48:26Z</time>
      </trkpt>
      <trkpt lat="41.0160910" lon="0.5123200">
        <ele>162.0</ele>
        <time>2020-08-07T14:48:27Z</time>
      </trkpt>
      <trkpt lat="41.0160470" lon="0.5123040">
        <ele>161.8</ele>
        <time>2020-08-07T14:48:28Z</time>
      </trkpt>
      <trkpt lat="41.0160090" lon="0.5122930">
        <ele>161.5</ele>
        <time>2020-08-07T14:48:29Z</time>
      </trkpt>
      <trkpt lat="41.0159460" lon="0.5122880">
        <ele>161.0</ele>
        <time>2020-08-07T14:48:31Z</time>
      </trkpt>
      <trkpt lat="41.0159080" lon="0.5122850">
        <ele>160.8</ele>
        <time>2020-08-07T14:48:32Z</time>
      </trkpt>
      <trkpt lat="41.0158820" lon="0.5122840">
        <ele>160.6</ele>
        <time>2020-08-07T14:48:33Z</time>
      </trkpt>
      <trkpt lat="41.0158460" lon="0.5122760">
        <ele>160.2</ele>
        <time>2020-08-07T14:48:35Z</time>
      </trkpt>
      <trkpt lat="41.0158130" lon="0.5122750">
        <ele>160.0</ele>
        <time>2020-08-07T14:48:36Z</time>
      </trkpt>
      <trkpt lat="41.0158010" lon="0.5122760">
        <ele>160.0</ele>
        <time>2020-08-07T14:48:37Z</time>
      </trkpt>
      <trkpt lat="41.0157830" lon="0.5122830">
        <ele>159.9</ele>
        <time>2020-08-07T14:48:38Z</time>
      </trkpt>
      <trkpt lat="41.0157700" lon="0.5122910">
        <ele>159.9</ele>
        <time>2020-08-07T14:48:39Z</time>
      </trkpt>
      <trkpt lat="41.0157540" lon="0.5123310">
        <ele>160.1</ele>
        <time>2020-08-07T14:48:41Z</time>
      </trkpt>
      <trkpt lat="41.0157520" lon="0.5123440">
        <ele>160.1</ele>
        <time>2020-08-07T14:48:42Z</time>
      </trkpt>
      <trkpt lat="41.0157380" lon="0.5123690">
        <ele>160.1</ele>
        <time>2020-08-07T14:48:44Z</time>
      </trkpt>
      <trkpt lat="41.0157270" lon="0.5123730">
        <ele>160.1</ele>
        <time>2020-08-07T14:48:46Z</time>
      </trkpt>
      <trkpt lat="41.0157240" lon="0.5123730">
        <ele>160.1</ele>
        <time>2020-08-07T14:48:47Z</time>
      </trkpt>
      <trkpt lat="41.0157190" lon="0.5123740">
        <ele>160.1</ele>
        <time>2020-08-07T14:48:49Z</time>
      </trkpt>
      <trkpt lat="41.0157180" lon="0.5123780">
        <ele>160.1</ele>
        <time>2020-08-07T14:48:50Z</time>
      </trkpt>
      <trkpt lat="41.0157070" lon="0.5123770">
        <ele>160.1</ele>
        <time>2020-08-07T14:48:52Z</time>
      </trkpt>
      <trkpt lat="41.0157020" lon="0.5123810">
        <ele>160.1</ele>
        <time>2020-08-07T14:48:53Z</time>
      </trkpt>
      <trkpt lat="41.0156980" lon="0.5123830">
        <ele>160.1</ele>
        <time>2020-08-07T14:48:54Z</time>
      </trkpt>
      <trkpt lat="41.0156940" lon="0.5123870">
        <ele>160.1</ele>
        <time>2020-08-07T14:48:55Z</time>
      </trkpt>
      <trkpt lat="41.0156890" lon="0.5123940">
        <ele>160.1</ele>
        <time>2020-08-07T14:48:57Z</time>
      </trkpt>
      <trkpt lat="41.0156870" lon="0.5123950">
        <ele>160.1</ele>
        <time>2020-08-07T14:48:58Z</time>
      </trkpt>
      <trkpt lat="41.0156820" lon="0.5123980">
        <ele>160.1</ele>
        <time>2020-08-07T14:49:00Z</time>
      </trkpt>
      <trkpt lat="41.0156770" lon="0.5124010">
        <ele>160.1</ele>
        <time>2020-08-07T14:49:01Z</time>
      </trkpt>
      <trkpt lat="41.0156730" lon="0.5124020">
        <ele>160.1</ele>
        <time>2020-08-07T14:49:02Z</time>
      </trkpt>
      <trkpt lat="41.0156650" lon="0.5124040">
        <ele>160.1</ele>
        <time>2020-08-07T14:49:03Z</time>
      </trkpt>
      <trkpt lat="41.0156580" lon="0.5124070">
        <ele>160.1</ele>
        <time>2020-08-07T14:49:04Z</time>
      </trkpt>
      <trkpt lat="41.0156520" lon="0.5124080">
        <ele>160.1</ele>
        <time>2020-08-07T14:49:06Z</time>
      </trkpt>
      <trkpt lat="41.0156140" lon="0.5123940">
        <ele>160.1</ele>
        <time>2020-08-07T14:49:13Z</time>
      </trkpt>
      <trkpt lat="41.0156020" lon="0.5123900">
        <ele>160.1</ele>
        <time>2020-08-07T14:49:14Z</time>
      </trkpt>
      <trkpt lat="41.0155950" lon="0.5123870">
        <ele>160.1</ele>
        <time>2020-08-07T14:49:16Z</time>
      </trkpt>
      <trkpt lat="41.0155950" lon="0.5123870">
        <ele>160.1</ele>
        <time>2020-08-07T14:49:17Z</time>
      </trkpt>
      <trkpt lat="41.0155960" lon="0.5123870">
        <ele>160.1</ele>
        <time>2020-08-07T14:49:19Z</time>
      </trkpt>
      <trkpt lat="41.0155960" lon="0.5123870">
        <ele>160.1</ele>
        <time>2020-08-07T14:49:20Z</time>
      </trkpt>
      <trkpt lat="41.0155960" lon="0.5123870">
        <ele>160.1</ele>
        <time>2020-08-07T14:49:21Z</time>
      </trkpt>
      <trkpt lat="41.0155960" lon="0.5123870">
        <ele>160.1</ele>
        <time>2020-08-07T14:49:23Z</time>
      </trkpt>
      <trkpt lat="41.0156000" lon="0.5123870">
        <ele>160.1</ele>
        <time>2020-08-07T14:49:24Z</time>
      </trkpt>
      <trkpt lat="41.0156040" lon="0.5123880">
        <ele>160.1</ele>
        <time>2020-08-07T14:49:26Z</time>
      </trkpt>
      <trkpt lat="41.0155820" lon="0.5123710">
        <ele>160.1</ele>
        <time>2020-08-07T14:49:46Z</time>
      </trkpt>
      <trkpt lat="41.0155880" lon="0.5123410">
        <ele>160.1</ele>
        <time>2020-08-07T14:49:48Z</time>
      </trkpt>
      <trkpt lat="41.0156000" lon="0.5123470">
        <ele>160.1</ele>
        <time>2020-08-07T14:49:49Z</time>
      </trkpt>
      <trkpt lat="41.0156180" lon="0.5123480">
        <ele>160.1</ele>
        <time>2020-08-07T14:49:51Z</time>
      </trkpt>
      <trkpt lat="41.0156390" lon="0.5123670">
        <ele>160.1</ele>
        <time>2020-08-07T14:49:52Z</time>
      </trkpt>
      <trkpt lat="41.0156490" lon="0.5123820">
        <ele>160.1</ele>
        <time>2020-08-07T14:49:54Z</time>
      </trkpt>
      <trkpt lat="41.0156610" lon="0.5124020">
        <ele>160.1</ele>
        <time>2020-08-07T14:49:55Z</time>
      </trkpt>
      <trkpt lat="41.0156700" lon="0.5124110">
        <ele>160.1</ele>
        <time>2020-08-07T14:49:56Z</time>
      </trkpt>
      <trkpt lat="41.0156750" lon="0.5124220">
        <ele>160.2</ele>
        <time>2020-08-07T14:49:58Z</time>
      </trkpt>
      <trkpt lat="41.0156790" lon="0.5124260">
        <ele>160.2</ele>
        <time>2020-08-07T14:49:59Z</time>
      </trkpt>
      <trkpt lat="41.0156800" lon="0.5124370">
        <ele>160.3</ele>
        <time>2020-08-07T14:50:00Z</time>
      </trkpt>
      <trkpt lat="41.0156760" lon="0.5124710">
        <ele>160.5</ele>
        <time>2020-08-07T14:50:02Z</time>
      </trkpt>
      <trkpt lat="41.0156770" lon="0.5124970">
        <ele>160.6</ele>
        <time>2020-08-07T14:50:03Z</time>
      </trkpt>
      <trkpt lat="41.0156840" lon="0.5125080">
        <ele>160.7</ele>
        <time>2020-08-07T14:50:04Z</time>
      </trkpt>
      <trkpt lat="41.0156990" lon="0.5125230">
        <ele>160.9</ele>
        <time>2020-08-07T14:50:05Z</time>
      </trkpt>
      <trkpt lat="41.0157070" lon="0.5125430">
        <ele>161.0</ele>
        <time>2020-08-07T14:50:06Z</time>
      </trkpt>
      <trkpt lat="41.0157060" lon="0.5125630">
        <ele>161.1</ele>
        <time>2020-08-07T14:50:07Z</time>
      </trkpt>
      <trkpt lat="41.0157090" lon="0.5125850">
        <ele>161.2</ele>
        <time>2020-08-07T14:50:09Z</time>
      </trkpt>
      <trkpt lat="41.0157190" lon="0.5126050">
        <ele>161.4</ele>
        <time>2020-08-07T14:50:10Z</time>
      </trkpt>
      <trkpt lat="41.0157230" lon="0.5126270">
        <ele>161.8</ele>
        <time>2020-08-07T14:50:11Z</time>
      </trkpt>
      <trkpt lat="41.0157230" lon="0.5126530">
        <ele>162.2</ele>
        <time>2020-08-07T14:50:13Z</time>
      </trkpt>
      <trkpt lat="41.0157210" lon="0.5126730">
        <ele>162.6</ele>
        <time>2020-08-07T14:50:14Z</time>
      </trkpt>
      <trkpt lat="41.0157200" lon="0.5126940">
        <ele>162.9</ele>
        <time>2020-08-07T14:50:15Z</time>
      </trkpt>
      <trkpt lat="41.0157250" lon="0.5127190">
        <ele>163.3</ele>
        <time>2020-08-07T14:50:16Z</time>
      </trkpt>
      <trkpt lat="41.0157310" lon="0.5127460">
        <ele>163.8</ele>
        <time>2020-08-07T14:50:17Z</time>
      </trkpt>
      <trkpt lat="41.0157350" lon="0.5127710">
        <ele>164.3</ele>
        <time>2020-08-07T14:50:19Z</time>
      </trkpt>
      <trkpt lat="41.0157370" lon="0.5127950">
        <ele>164.8</ele>
        <time>2020-08-07T14:50:20Z</time>
      </trkpt>
      <trkpt lat="41.0157370" lon="0.5128220">
        <ele>165.3</ele>
        <time>2020-08-07T14:50:22Z</time>
      </trkpt>
      <trkpt lat="41.0157410" lon="0.5128390">
        <ele>165.6</ele>
        <time>2020-08-07T14:50:23Z</time>
      </trkpt>
      <trkpt lat="41.0157450" lon="0.5128550">
        <ele>165.9</ele>
        <time>2020-08-07T14:50:24Z</time>
      </trkpt>
      <trkpt lat="41.0157490" lon="0.5128840">
        <ele>166.5</ele>
        <time>2020-08-07T14:50:26Z</time>
      </trkpt>
      <trkpt lat="41.0157510" lon="0.5129220">
        <ele>167.2</ele>
        <time>2020-08-07T14:50:27Z</time>
      </trkpt>
      <trkpt lat="41.0157520" lon="0.5129390">
        <ele>167.5</ele>
        <time>2020-08-07T14:50:28Z</time>
      </trkpt>
      <trkpt lat="41.0157540" lon="0.5129790">
        <ele>168.2</ele>
        <time>2020-08-07T14:50:30Z</time>
      </trkpt>
      <trkpt lat="41.0157540" lon="0.5129900">
        <ele>168.4</ele>
        <time>2020-08-07T14:50:31Z</time>
      </trkpt>
      <trkpt lat="41.0157480" lon="0.5130190">
        <ele>168.8</ele>
        <time>2020-08-07T14:50:33Z</time>
      </trkpt>
      <trkpt lat="41.0157450" lon="0.5130270">
        <ele>168.9</ele>
        <time>2020-08-07T14:50:34Z</time>
      </trkpt>
      <trkpt lat="41.0157440" lon="0.5130400">
        <ele>169.1</ele>
        <time>2020-08-07T14:50:36Z</time>
      </trkpt>
      <trkpt lat="41.0157450" lon="0.5130390">
        <ele>169.1</ele>
        <time>2020-08-07T14:50:37Z</time>
      </trkpt>
      <trkpt lat="41.0157490" lon="0.5130420">
        <ele>170.2</ele>
        <time>2020-08-07T14:50:39Z</time>
      </trkpt>
      <trkpt lat="41.0157520" lon="0.5130450">
        <ele>170.2</ele>
        <time>2020-08-07T14:50:41Z</time>
      </trkpt>
      <trkpt lat="41.0157530" lon="0.5130460">
        <ele>170.2</ele>
        <time>2020-08-07T14:50:42Z</time>
      </trkpt>
      <trkpt lat="41.0157560" lon="0.5130490">
        <ele>170.2</ele>
        <time>2020-08-07T14:50:44Z</time>
      </trkpt>
      <trkpt lat="41.0157660" lon="0.5130550">
        <ele>170.2</ele>
        <time>2020-08-07T14:50:47Z</time>
      </trkpt>
      <trkpt lat="41.0157760" lon="0.5130600">
        <ele>170.2</ele>
        <time>2020-08-07T14:50:48Z</time>
      </trkpt>
      <trkpt lat="41.0157790" lon="0.5130640">
        <ele>170.2</ele>
        <time>2020-08-07T14:50:50Z</time>
      </trkpt>
      <trkpt lat="41.0157800" lon="0.5130680">
        <ele>170.2</ele>
        <time>2020-08-07T14:50:54Z</time>
      </trkpt>
      <trkpt lat="41.0157800" lon="0.5130690">
        <ele>170.2</ele>
        <time>2020-08-07T14:50:55Z</time>
      </trkpt>
      <trkpt lat="41.0157800" lon="0.5130710">
        <ele>170.2</ele>
        <time>2020-08-07T14:50:56Z</time>
      </trkpt>
      <trkpt lat="41.0157810" lon="0.5130740">
        <ele>170.2</ele>
        <time>2020-08-07T14:50:58Z</time>
      </trkpt>
      <trkpt lat="41.0157810" lon="0.5130760">
        <ele>170.2</ele>
        <time>2020-08-07T14:51:00Z</time>
      </trkpt>
      <trkpt lat="41.0157810" lon="0.5130790">
        <ele>170.2</ele>
        <time>2020-08-07T14:51:01Z</time>
      </trkpt>
      <trkpt lat="41.0157820" lon="0.5130830">
        <ele>170.2</ele>
        <time>2020-08-07T14:51:03Z</time>
      </trkpt>
      <trkpt lat="41.0157830" lon="0.5130850">
        <ele>170.2</ele>
        <time>2020-08-07T14:51:04Z</time>
      </trkpt>
      <trkpt lat="41.0157840" lon="0.5130870">
        <ele>170.2</ele>
        <time>2020-08-07T14:51:06Z</time>
      </trkpt>
      <trkpt lat="41.0157800" lon="0.5130940">
        <ele>170.2</ele>
        <time>2020-08-07T14:51:08Z</time>
      </trkpt>
      <trkpt lat="41.0157690" lon="0.5131060">
        <ele>170.3</ele>
        <time>2020-08-07T14:51:10Z</time>
      </trkpt>
      <trkpt lat="41.0157690" lon="0.5131070">
        <ele>170.3</ele>
        <time>2020-08-07T14:51:12Z</time>
      </trkpt>
      <trkpt lat="41.0157750" lon="0.5131040">
        <ele>170.3</ele>
        <time>2020-08-07T14:51:13Z</time>
      </trkpt>
      <trkpt lat="41.0157760" lon="0.5131030">
        <ele>170.3</ele>
        <time>2020-08-07T14:51:14Z</time>
      </trkpt>
      <trkpt lat="41.0157790" lon="0.5131020">
        <ele>170.3</ele>
        <time>2020-08-07T14:51:16Z</time>
      </trkpt>
      <trkpt lat="41.0157790" lon="0.5131020">
        <ele>170.3</ele>
        <time>2020-08-07T14:51:17Z</time>
      </trkpt>
      <trkpt lat="41.0157810" lon="0.5131010">
        <ele>170.3</ele>
        <time>2020-08-07T14:51:19Z</time>
      </trkpt>
      <trkpt lat="41.0157810" lon="0.5131020">
        <ele>170.3</ele>
        <time>2020-08-07T14:51:21Z</time>
      </trkpt>
      <trkpt lat="41.0157660" lon="0.5131140">
        <ele>170.3</ele>
        <time>2020-08-07T14:51:26Z</time>
      </trkpt>
      <trkpt lat="41.0157710" lon="0.5131110">
        <ele>170.3</ele>
        <time>2020-08-07T14:51:28Z</time>
      </trkpt>
      <trkpt lat="41.0157720" lon="0.5131110">
        <ele>170.3</ele>
        <time>2020-08-07T14:51:29Z</time>
      </trkpt>
      <trkpt lat="41.0157720" lon="0.5131110">
        <ele>170.3</ele>
        <time>2020-08-07T14:51:31Z</time>
      </trkpt>
      <trkpt lat="41.0157720" lon="0.5131110">
        <ele>170.3</ele>
        <time>2020-08-07T14:51:33Z</time>
      </trkpt>
      <trkpt lat="41.0157720" lon="0.5131110">
        <ele>170.3</ele>
        <time>2020-08-07T14:51:35Z</time>
      </trkpt>
      <trkpt lat="41.0157720" lon="0.5131110">
        <ele>170.3</ele>
        <time>2020-08-07T14:51:36Z</time>
      </trkpt>
      <trkpt lat="41.0157710" lon="0.5131120">
        <ele>170.3</ele>
        <time>2020-08-07T14:51:37Z</time>
      </trkpt>
      <trkpt lat="41.0157690" lon="0.5131120">
        <ele>170.3</ele>
        <time>2020-08-07T14:51:38Z</time>
      </trkpt>
      <trkpt lat="41.0157670" lon="0.5131120">
        <ele>170.3</ele>
        <time>2020-08-07T14:51:40Z</time>
      </trkpt>
      <trkpt lat="41.0157650" lon="0.5131120">
        <ele>170.3</ele>
        <time>2020-08-07T14:51:41Z</time>
      </trkpt>
      <trkpt lat="41.0157630" lon="0.5131110">
        <ele>170.3</ele>
        <time>2020-08-07T14:51:42Z</time>
      </trkpt>
      <trkpt lat="41.0157610" lon="0.5131100">
        <ele>170.3</ele>
        <time>2020-08-07T14:51:43Z</time>
      </trkpt>
      <trkpt lat="41.0157580" lon="0.5131090">
        <ele>170.3</ele>
        <time>2020-08-07T14:51:44Z</time>
      </trkpt>
      <trkpt lat="41.0157570" lon="0.5131090">
        <ele>170.3</ele>
        <time>2020-08-07T14:51:45Z</time>
      </trkpt>
      <trkpt lat="41.0157540" lon="0.5131090">
        <ele>170.3</ele>
        <time>2020-08-07T14:51:47Z</time>
      </trkpt>
      <trkpt lat="41.0157480" lon="0.5131050">
        <ele>170.3</ele>
        <time>2020-08-07T14:51:48Z</time>
      </trkpt>
      <trkpt lat="41.0157330" lon="0.5130930">
        <ele>170.3</ele>
        <time>2020-08-07T14:51:50Z</time>
      </trkpt>
      <trkpt lat="41.0157250" lon="0.5130920">
        <ele>170.3</ele>
        <time>2020-08-07T14:51:51Z</time>
      </trkpt>
      <trkpt lat="41.0157130" lon="0.5131020">
        <ele>170.3</ele>
        <time>2020-08-07T14:51:52Z</time>
      </trkpt>
      <trkpt lat="41.0157080" lon="0.5131070">
        <ele>170.3</ele>
        <time>2020-08-07T14:51:54Z</time>
      </trkpt>
      <trkpt lat="41.0157070" lon="0.5131080">
        <ele>170.3</ele>
        <time>2020-08-07T14:51:55Z</time>
      </trkpt>
      <trkpt lat="41.0157040" lon="0.5131070">
        <ele>170.3</ele>
        <time>2020-08-07T14:51:57Z</time>
      </trkpt>
      <trkpt lat="41.0157020" lon="0.5131070">
        <ele>170.3</ele>
        <time>2020-08-07T14:51:58Z</time>
      </trkpt>
      <trkpt lat="41.0156970" lon="0.5131070">
        <ele>170.3</ele>
        <time>2020-08-07T14:52:00Z</time>
      </trkpt>
      <trkpt lat="41.0156900" lon="0.5131070">
        <ele>170.3</ele>
        <time>2020-08-07T14:52:02Z</time>
      </trkpt>
      <trkpt lat="41.0155750" lon="0.5130970">
        <ele>170.4</ele>
        <time>2020-08-07T14:52:13Z</time>
      </trkpt>
      <trkpt lat="41.0155710" lon="0.5130980">
        <ele>170.4</ele>
        <time>2020-08-07T14:52:14Z</time>
      </trkpt>
      <trkpt lat="41.0155710" lon="0.5130980">
        <ele>170.4</ele>
        <time>2020-08-07T14:52:15Z</time>
      </trkpt>
      <trkpt lat="41.0155730" lon="0.5130980">
        <ele>170.4</ele>
        <time>2020-08-07T14:52:16Z</time>
      </trkpt>
      <trkpt lat="41.0155740" lon="0.5130980">
        <ele>170.4</ele>
        <time>2020-08-07T14:52:18Z</time>
      </trkpt>
      <trkpt lat="41.0155740" lon="0.5130980">
        <ele>170.4</ele>
        <time>2020-08-07T14:52:20Z</time>
      </trkpt>
      <trkpt lat="41.0155740" lon="0.5130980">
        <ele>170.4</ele>
        <time>2020-08-07T14:52:21Z</time>
      </trkpt>
      <trkpt lat="41.0155740" lon="0.5130970">
        <ele>170.4</ele>
        <time>2020-08-07T14:52:23Z</time>
      </trkpt>
      <trkpt lat="41.0155740" lon="0.5130970">
        <ele>170.4</ele>
        <time>2020-08-07T14:52:24Z</time>
      </trkpt>
      <trkpt lat="41.0155740" lon="0.5130980">
        <ele>170.4</ele>
        <time>2020-08-07T14:52:26Z</time>
      </trkpt>
      <trkpt lat="41.0155450" lon="0.5131000">
        <ele>170.5</ele>
        <time>2020-08-07T14:52:56Z</time>
      </trkpt>
      <trkpt lat="41.0155360" lon="0.5130900">
        <ele>170.6</ele>
        <time>2020-08-07T14:52:57Z</time>
      </trkpt>
      <trkpt lat="41.0155320" lon="0.5130860">
        <ele>170.6</ele>
        <time>2020-08-07T14:52:58Z</time>
      </trkpt>
      <trkpt lat="41.0155270" lon="0.5130820">
        <ele>170.6</ele>
        <time>2020-08-07T14:52:59Z</time>
      </trkpt>
      <trkpt lat="41.0155190" lon="0.5130760">
        <ele>170.7</ele>
        <time>2020-08-07T14:53:00Z</time>
      </trkpt>
      <trkpt lat="41.0154990" lon="0.5130800">
        <ele>170.7</ele>
        <time>2020-08-07T14:53:03Z</time>
      </trkpt>
      <trkpt lat="41.0154900" lon="0.5130770">
        <ele>170.8</ele>
        <time>2020-08-07T14:53:04Z</time>
      </trkpt>
      <trkpt lat="41.0154830" lon="0.5130710">
        <ele>170.8</ele>
        <time>2020-08-07T14:53:05Z</time>
      </trkpt>
      <trkpt lat="41.0154780" lon="0.5130620">
        <ele>170.8</ele>
        <time>2020-08-07T14:53:06Z</time>
      </trkpt>
      <trkpt lat="41.0154650" lon="0.5130500">
        <ele>170.9</ele>
        <time>2020-08-07T14:53:08Z</time>
      </trkpt>
      <trkpt lat="41.0154570" lon="0.5130460">
        <ele>170.9</ele>
        <time>2020-08-07T14:53:09Z</time>
      </trkpt>
      <trkpt lat="41.0154470" lon="0.5130390">
        <ele>171.0</ele>
        <time>2020-08-07T14:53:10Z</time>
      </trkpt>
      <trkpt lat="41.0154300" lon="0.5130350">
        <ele>171.0</ele>
        <time>2020-08-07T14:53:12Z</time>
      </trkpt>
      <trkpt lat="41.0154120" lon="0.5130360">
        <ele>171.1</ele>
        <time>2020-08-07T14:53:13Z</time>
      </trkpt>
      <trkpt lat="41.0153910" lon="0.5130340">
        <ele>171.2</ele>
        <time>2020-08-07T14:53:15Z</time>
      </trkpt>
      <trkpt lat="41.0153810" lon="0.5130340">
        <ele>171.2</ele>
        <time>2020-08-07T14:53:16Z</time>
      </trkpt>
      <trkpt lat="41.0153520" lon="0.5130420">
        <ele>171.3</ele>
        <time>2020-08-07T14:53:18Z</time>
      </trkpt>
      <trkpt lat="41.0153200" lon="0.5130540">
        <ele>171.5</ele>
        <time>2020-08-07T14:53:20Z</time>
      </trkpt>
      <trkpt lat="41.0153140" lon="0.5130570">
        <ele>171.5</ele>
        <time>2020-08-07T14:53:21Z</time>
      </trkpt>
      <trkpt lat="41.0153040" lon="0.5130620">
        <ele>171.5</ele>
        <time>2020-08-07T14:53:22Z</time>
      </trkpt>
      <trkpt lat="41.0152960" lon="0.5130650">
        <ele>171.6</ele>
        <time>2020-08-07T14:53:24Z</time>
      </trkpt>
      <trkpt lat="41.0152930" lon="0.5130660">
        <ele>171.6</ele>
        <time>2020-08-07T14:53:25Z</time>
      </trkpt>
      <trkpt lat="41.0152870" lon="0.5130720">
        <ele>171.6</ele>
        <time>2020-08-07T14:53:27Z</time>
      </trkpt>
      <trkpt lat="41.0152860" lon="0.5130730">
        <ele>171.6</ele>
        <time>2020-08-07T14:53:28Z</time>
      </trkpt>
      <trkpt lat="41.0152840" lon="0.5130740">
        <ele>171.6</ele>
        <time>2020-08-07T14:53:29Z</time>
      </trkpt>
      <trkpt lat="41.0152820" lon="0.5130760">
        <ele>171.6</ele>
        <time>2020-08-07T14:53:31Z</time>
      </trkpt>
      <trkpt lat="41.0152220" lon="0.5131080">
        <ele>171.9</ele>
        <time>2020-08-07T14:53:48Z</time>
      </trkpt>
      <trkpt lat="41.0152170" lon="0.5131160">
        <ele>171.9</ele>
        <time>2020-08-07T14:53:49Z</time>
      </trkpt>
      <trkpt lat="41.0152130" lon="0.5131180">
        <ele>171.9</ele>
        <time>2020-08-07T14:53:50Z</time>
      </trkpt>
      <trkpt lat="41.0152070" lon="0.5131170">
        <ele>171.9</ele>
        <time>2020-08-07T14:53:51Z</time>
      </trkpt>
      <trkpt lat="41.0152030" lon="0.5131180">
        <ele>172.0</ele>
        <time>2020-08-07T14:53:52Z</time>
      </trkpt>
      <trkpt lat="41.0151980" lon="0.5131180">
        <ele>172.0</ele>
        <time>2020-08-07T14:53:53Z</time>
      </trkpt>
      <trkpt lat="41.0151800" lon="0.5131310">
        <ele>172.0</ele>
        <time>2020-08-07T14:53:55Z</time>
      </trkpt>
      <trkpt lat="41.0151750" lon="0.5131360">
        <ele>172.1</ele>
        <time>2020-08-07T14:53:56Z</time>
      </trkpt>
      <trkpt lat="41.0151710" lon="0.5131400">
        <ele>172.1</ele>
        <time>2020-08-07T14:53:57Z</time>
      </trkpt>
      <trkpt lat="41.0151670" lon="0.5131450">
        <ele>172.1</ele>
        <time>2020-08-07T14:53:58Z</time>
      </trkpt>
      <trkpt lat="41.0151580" lon="0.5131530">
        <ele>172.2</ele>
        <time>2020-08-07T14:54:00Z</time>
      </trkpt>
      <trkpt lat="41.0151510" lon="0.5131570">
        <ele>172.2</ele>
        <time>2020-08-07T14:54:02Z</time>
      </trkpt>
      <trkpt lat="41.0151450" lon="0.5131600">
        <ele>172.2</ele>
        <time>2020-08-07T14:54:03Z</time>
      </trkpt>
      <trkpt lat="41.0151430" lon="0.5131600">
        <ele>172.2</ele>
        <time>2020-08-07T14:54:04Z</time>
      </trkpt>
      <trkpt lat="41.0151390" lon="0.5131610">
        <ele>172.2</ele>
        <time>2020-08-07T14:54:06Z</time>
      </trkpt>
      <trkpt lat="41.0151220" lon="0.5131380">
        <ele>172.3</ele>
        <time>2020-08-07T14:54:15Z</time>
      </trkpt>
      <trkpt lat="41.0151180" lon="0.5131320">
        <ele>172.3</ele>
        <time>2020-08-07T14:54:17Z</time>
      </trkpt>
      <trkpt lat="41.0151190" lon="0.5131350">
        <ele>172.4</ele>
        <time>2020-08-07T14:54:18Z</time>
      </trkpt>
      <trkpt lat="41.0151210" lon="0.5131430">
        <ele>172.4</ele>
        <time>2020-08-07T14:54:20Z</time>
      </trkpt>
      <trkpt lat="41.0151200" lon="0.5131540">
        <ele>172.4</ele>
        <time>2020-08-07T14:54:21Z</time>
      </trkpt>
      <trkpt lat="41.0151210" lon="0.5131490">
        <ele>172.4</ele>
        <time>2020-08-07T14:54:23Z</time>
      </trkpt>
      <trkpt lat="41.0151210" lon="0.5131490">
        <ele>172.4</ele>
        <time>2020-08-07T14:54:24Z</time>
      </trkpt>
      <trkpt lat="41.0151210" lon="0.5131470">
        <ele>172.4</ele>
        <time>2020-08-07T14:54:25Z</time>
      </trkpt>
      <trkpt lat="41.0151180" lon="0.5131480">
        <ele>172.4</ele>
        <time>2020-08-07T14:54:26Z</time>
      </trkpt>
      <trkpt lat="41.0151110" lon="0.5131540">
        <ele>172.5</ele>
        <time>2020-08-07T14:54:28Z</time>
      </trkpt>
      <trkpt lat="41.0151080" lon="0.5131690">
        <ele>172.5</ele>
        <time>2020-08-07T14:54:30Z</time>
      </trkpt>
      <trkpt lat="41.0150990" lon="0.5131820">
        <ele>172.6</ele>
        <time>2020-08-07T14:54:31Z</time>
      </trkpt>
      <trkpt lat="41.0150990" lon="0.5131920">
        <ele>172.7</ele>
        <time>2020-08-07T14:54:32Z</time>
      </trkpt>
      <trkpt lat="41.0151030" lon="0.5132160">
        <ele>173.0</ele>
        <time>2020-08-07T14:54:34Z</time>
      </trkpt>
      <trkpt lat="41.0151100" lon="0.5132360">
        <ele>173.3</ele>
        <time>2020-08-07T14:54:35Z</time>
      </trkpt>
      <trkpt lat="41.0151150" lon="0.5132550">
        <ele>173.6</ele>
        <time>2020-08-07T14:54:37Z</time>
      </trkpt>
      <trkpt lat="41.0151200" lon="0.5132760">
        <ele>173.9</ele>
        <time>2020-08-07T14:54:38Z</time>
      </trkpt>
      <trkpt lat="41.0151280" lon="0.5132860">
        <ele>174.1</ele>
        <time>2020-08-07T14:54:39Z</time>
      </trkpt>
      <trkpt lat="41.0151320" lon="0.5132970">
        <ele>174.3</ele>
        <time>2020-08-07T14:54:40Z</time>
      </trkpt>
      <trkpt lat="41.0151350" lon="0.5133080">
        <ele>174.5</ele>
        <time>2020-08-07T14:54:41Z</time>
      </trkpt>
      <trkpt lat="41.0151470" lon="0.5133250">
        <ele>174.8</ele>
        <time>2020-08-07T14:54:43Z</time>
      </trkpt>
      <trkpt lat="41.0151470" lon="0.5133420">
        <ele>175.0</ele>
        <time>2020-08-07T14:54:44Z</time>
      </trkpt>
      <trkpt lat="41.0151470" lon="0.5133600">
        <ele>175.3</ele>
        <time>2020-08-07T14:54:46Z</time>
      </trkpt>
      <trkpt lat="41.0151450" lon="0.5133680">
        <ele>175.4</ele>
        <time>2020-08-07T14:54:47Z</time>
      </trkpt>
      <trkpt lat="41.0151460" lon="0.5133750">
        <ele>175.5</ele>
        <time>2020-08-07T14:54:48Z</time>
      </trkpt>
      <trkpt lat="41.0151560" lon="0.5133800">
        <ele>175.7</ele>
        <time>2020-08-07T14:54:50Z</time>
      </trkpt>
      <trkpt lat="41.0151560" lon="0.5133830">
        <ele>175.8</ele>
        <time>2020-08-07T14:54:51Z</time>
      </trkpt>
      <trkpt lat="41.0151470" lon="0.5133880">
        <ele>175.9</ele>
        <time>2020-08-07T14:54:53Z</time>
      </trkpt>
      <trkpt lat="41.0151480" lon="0.5133880">
        <ele>176.0</ele>
        <time>2020-08-07T14:54:54Z</time>
      </trkpt>
      <trkpt lat="41.0151490" lon="0.5133880">
        <ele>176.0</ele>
        <time>2020-08-07T14:54:55Z</time>
      </trkpt>
      <trkpt lat="41.0151520" lon="0.5133890">
        <ele>176.0</ele>
        <time>2020-08-07T14:54:57Z</time>
      </trkpt>
      <trkpt lat="41.0151530" lon="0.5133890">
        <ele>177.6</ele>
        <time>2020-08-07T14:54:58Z</time>
      </trkpt>
      <trkpt lat="41.0151560" lon="0.5133910">
        <ele>177.6</ele>
        <time>2020-08-07T14:55:00Z</time>
      </trkpt>
      <trkpt lat="41.0151580" lon="0.5133930">
        <ele>177.6</ele>
        <time>2020-08-07T14:55:02Z</time>
      </trkpt>
      <trkpt lat="41.0151420" lon="0.5133620">
        <ele>177.6</ele>
        <time>2020-08-07T14:55:28Z</time>
      </trkpt>
      <trkpt lat="41.0151400" lon="0.5133550">
        <ele>177.6</ele>
        <time>2020-08-07T14:55:29Z</time>
      </trkpt>
      <trkpt lat="41.0151340" lon="0.5133480">
        <ele>177.6</ele>
        <time>2020-08-07T14:55:30Z</time>
      </trkpt>
      <trkpt lat="41.0151290" lon="0.5133410">
        <ele>177.6</ele>
        <time>2020-08-07T14:55:31Z</time>
      </trkpt>
      <trkpt lat="41.0151140" lon="0.5133350">
        <ele>177.6</ele>
        <time>2020-08-07T14:55:32Z</time>
      </trkpt>
      <trkpt lat="41.0151020" lon="0.5133250">
        <ele>177.7</ele>
        <time>2020-08-07T14:55:34Z</time>
      </trkpt>
      <trkpt lat="41.0150870" lon="0.5133150">
        <ele>177.7</ele>
        <time>2020-08-07T14:55:40Z</time>
      </trkpt>
      <trkpt lat="41.0150720" lon="0.5133080">
        <ele>177.7</ele>
        <time>2020-08-07T14:55:42Z</time>
      </trkpt>
      <trkpt lat="41.0150640" lon="0.5133020">
        <ele>177.9</ele>
        <time>2020-08-07T14:55:43Z</time>
      </trkpt>
      <trkpt lat="41.0150580" lon="0.5132990">
        <ele>177.9</ele>
        <time>2020-08-07T14:55:44Z</time>
      </trkpt>
      <trkpt lat="41.0150310" lon="0.5132850">
        <ele>177.9</ele>
        <time>2020-08-07T14:55:51Z</time>
      </trkpt>
      <trkpt lat="41.0150290" lon="0.5132790">
        <ele>177.9</ele>
        <time>2020-08-07T14:55:52Z</time>
      </trkpt>
      <trkpt lat="41.0150210" lon="0.5132540">
        <ele>177.9</ele>
        <time>2020-08-07T14:55:54Z</time>
      </trkpt>
      <trkpt lat="41.0150290" lon="0.5132350">
        <ele>177.9</ele>
        <time>2020-08-07T14:55:56Z</time>
      </trkpt>
      <trkpt lat="41.0150350" lon="0.5132350">
        <ele>177.9</ele>
        <time>2020-08-07T14:55:57Z</time>
      </trkpt>
      <trkpt lat="41.0150430" lon="0.5132360">
        <ele>177.9</ele>
        <time>2020-08-07T14:55:58Z</time>
      </trkpt>
      <trkpt lat="41.0150530" lon="0.5132340">
        <ele>177.9</ele>
        <time>2020-08-07T14:55:59Z</time>
      </trkpt>
      <trkpt lat="41.0150630" lon="0.5132370">
        <ele>177.9</ele>
        <time>2020-08-07T14:56:00Z</time>
      </trkpt>
      <trkpt lat="41.0150740" lon="0.5132490">
        <ele>177.9</ele>
        <time>2020-08-07T14:56:02Z</time>
      </trkpt>
      <trkpt lat="41.0150770" lon="0.5132530">
        <ele>177.9</ele>
        <time>2020-08-07T14:56:03Z</time>
      </trkpt>
      <trkpt lat="41.0150800" lon="0.5132530">
        <ele>178.0</ele>
        <time>2020-08-07T14:56:04Z</time>
      </trkpt>
      <trkpt lat="41.0150840" lon="0.5132320">
        <ele>178.0</ele>
        <time>2020-08-07T14:56:06Z</time>
      </trkpt>
      <trkpt lat="41.0150810" lon="0.5132150">
        <ele>178.0</ele>
        <time>2020-08-07T14:56:07Z</time>
      </trkpt>
      <trkpt lat="41.0150770" lon="0.5131960">
        <ele>178.0</ele>
        <time>2020-08-07T14:56:08Z</time>
      </trkpt>
      <trkpt lat="41.0150740" lon="0.5131820">
        <ele>178.0</ele>
        <time>2020-08-07T14:56:09Z</time>
      </trkpt>
      <trkpt lat="41.0150760" lon="0.5131570">
        <ele>178.0</ele>
        <time>2020-08-07T14:56:11Z</time>
      </trkpt>
      <trkpt lat="41.0150840" lon="0.5131380">
        <ele>178.0</ele>
        <time>2020-08-07T14:56:13Z</time>
      </trkpt>
      <trkpt lat="41.0150890" lon="0.5131110">
        <ele>178.0</ele>
        <time>2020-08-07T14:56:15Z</time>
      </trkpt>
      <trkpt lat="41.0150870" lon="0.5130850">
        <ele>178.0</ele>
        <time>2020-08-07T14:56:17Z</time>
      </trkpt>
      <trkpt lat="41.0150850" lon="0.5130790">
        <ele>178.0</ele>
        <time>2020-08-07T14:56:19Z</time>
      </trkpt>
      <trkpt lat="41.0150840" lon="0.5130860">
        <ele>178.0</ele>
        <time>2020-08-07T14:56:21Z</time>
      </trkpt>
      <trkpt lat="41.0150830" lon="0.5130900">
        <ele>178.0</ele>
        <time>2020-08-07T14:56:22Z</time>
      </trkpt>
      <trkpt lat="41.0150830" lon="0.5130950">
        <ele>178.0</ele>
        <time>2020-08-07T14:56:23Z</time>
      </trkpt>
      <trkpt lat="41.0150830" lon="0.5131060">
        <ele>178.0</ele>
        <time>2020-08-07T14:56:25Z</time>
      </trkpt>
      <trkpt lat="41.0150840" lon="0.5131110">
        <ele>178.0</ele>
        <time>2020-08-07T14:56:27Z</time>
      </trkpt>
      <trkpt lat="41.0150860" lon="0.5131140">
        <ele>178.0</ele>
        <time>2020-08-07T14:56:28Z</time>
      </trkpt>
      <trkpt lat="41.0150880" lon="0.5131140">
        <ele>178.0</ele>
        <time>2020-08-07T14:56:29Z</time>
      </trkpt>
      <trkpt lat="41.0150890" lon="0.5131100">
        <ele>178.0</ele>
        <time>2020-08-07T14:56:30Z</time>
      </trkpt>
      <trkpt lat="41.0150870" lon="0.5131080">
        <ele>178.0</ele>
        <time>2020-08-07T14:56:31Z</time>
      </trkpt>
      <trkpt lat="41.0150820" lon="0.5131130">
        <ele>178.0</ele>
        <time>2020-08-07T14:56:32Z</time>
      </trkpt>
      <trkpt lat="41.0150720" lon="0.5131270">
        <ele>178.0</ele>
        <time>2020-08-07T14:56:34Z</time>
      </trkpt>
      <trkpt lat="41.0150690" lon="0.5131320">
        <ele>178.0</ele>
        <time>2020-08-07T14:56:35Z</time>
      </trkpt>
      <trkpt lat="41.0150670" lon="0.5131420">
        <ele>178.0</ele>
        <time>2020-08-07T14:56:37Z</time>
      </trkpt>
      <trkpt lat="41.0150670" lon="0.5131450">
        <ele>178.0</ele>
        <time>2020-08-07T14:56:38Z</time>
      </trkpt>
      <trkpt lat="41.0150680" lon="0.5131480">
        <ele>178.0</ele>
        <time>2020-08-07T14:56:39Z</time>
      </trkpt>
      <trkpt lat="41.0150660" lon="0.5131550">
        <ele>178.0</ele>
        <time>2020-08-07T14:56:40Z</time>
      </trkpt>
      <trkpt lat="41.0150570" lon="0.5131690">
        <ele>178.0</ele>
        <time>2020-08-07T14:56:41Z</time>
      </trkpt>
      <trkpt lat="41.0150530" lon="0.5131900">
        <ele>178.0</ele>
        <time>2020-08-07T14:56:43Z</time>
      </trkpt>
      <trkpt lat="41.0150600" lon="0.5132160">
        <ele>178.0</ele>
        <time>2020-08-07T14:56:44Z</time>
      </trkpt>
      <trkpt lat="41.0150670" lon="0.5132500">
        <ele>178.0</ele>
        <time>2020-08-07T14:56:46Z</time>
      </trkpt>
      <trkpt lat="41.0150590" lon="0.5132850">
        <ele>178.1</ele>
        <time>2020-08-07T14:56:47Z</time>
      </trkpt>
      <trkpt lat="41.0150550" lon="0.5132990">
        <ele>178.1</ele>
        <time>2020-08-07T14:56:48Z</time>
      </trkpt>
      <trkpt lat="41.0150280" lon="0.5133110">
        <ele>178.1</ele>
        <time>2020-08-07T14:56:49Z</time>
      </trkpt>
      <trkpt lat="41.0149900" lon="0.5133240">
        <ele>178.1</ele>
        <time>2020-08-07T14:56:51Z</time>
      </trkpt>
      <trkpt lat="41.0149660" lon="0.5133270">
        <ele>178.1</ele>
        <time>2020-08-07T14:56:52Z</time>
      </trkpt>
      <trkpt lat="41.0149190" lon="0.5133280">
        <ele>178.1</ele>
        <time>2020-08-07T14:56:54Z</time>
      </trkpt>
      <trkpt lat="41.0148800" lon="0.5133290">
        <ele>178.1</ele>
        <time>2020-08-07T14:56:55Z</time>
      </trkpt>
      <trkpt lat="41.0148350" lon="0.5133360">
        <ele>178.1</ele>
        <time>2020-08-07T14:56:56Z</time>
      </trkpt>
      <trkpt lat="41.0148030" lon="0.5133510">
        <ele>178.1</ele>
        <time>2020-08-07T14:56:58Z</time>
      </trkpt>
      <trkpt lat="41.0147810" lon="0.5133590">
        <ele>178.2</ele>
        <time>2020-08-07T14:57:00Z</time>
      </trkpt>
      <trkpt lat="41.0147690" lon="0.5133670">
        <ele>178.2</ele>
        <time>2020-08-07T14:57:01Z</time>
      </trkpt>
      <trkpt lat="41.0147570" lon="0.5133700">
        <ele>178.2</ele>
        <time>2020-08-07T14:57:03Z</time>
      </trkpt>
      <trkpt lat="41.0147440" lon="0.5133770">
        <ele>178.2</ele>
        <time>2020-08-07T14:57:05Z</time>
      </trkpt>
      <trkpt lat="41.0147410" lon="0.5133810">
        <ele>178.2</ele>
        <time>2020-08-07T14:57:06Z</time>
      </trkpt>
      <trkpt lat="41.0147410" lon="0.5133830">
        <ele>178.2</ele>
        <time>2020-08-07T14:57:07Z</time>
      </trkpt>
      <trkpt lat="41.0147400" lon="0.5133860">
        <ele>178.2</ele>
        <time>2020-08-07T14:57:09Z</time>
      </trkpt>
      <trkpt lat="41.0147390" lon="0.5133870">
        <ele>178.2</ele>
        <time>2020-08-07T14:57:10Z</time>
      </trkpt>
      <trkpt lat="41.0147380" lon="0.5133880">
        <ele>178.2</ele>
        <time>2020-08-07T14:57:12Z</time>
      </trkpt>
      <trkpt lat="41.0147380" lon="0.5133880">
        <ele>178.2</ele>
        <time>2020-08-07T14:57:13Z</time>
      </trkpt>
      <trkpt lat="41.0147220" lon="0.5133460">
        <ele>178.2</ele>
        <time>2020-08-07T15:00:25Z</time>
      </trkpt>
      <trkpt lat="41.0147200" lon="0.5133380">
        <ele>178.2</ele>
        <time>2020-08-07T15:00:26Z</time>
      </trkpt>
      <trkpt lat="41.0147130" lon="0.5133230">
        <ele>178.2</ele>
        <time>2020-08-07T15:00:28Z</time>
      </trkpt>
      <trkpt lat="41.0147140" lon="0.5133270">
        <ele>178.2</ele>
        <time>2020-08-07T15:00:30Z</time>
      </trkpt>
      <trkpt lat="41.0147150" lon="0.5133210">
        <ele>178.2</ele>
        <time>2020-08-07T15:00:32Z</time>
      </trkpt>
      <trkpt lat="41.0147230" lon="0.5133310">
        <ele>178.2</ele>
        <time>2020-08-07T15:00:34Z</time>
      </trkpt>
      <trkpt lat="41.0147320" lon="0.5133420">
        <ele>178.2</ele>
        <time>2020-08-07T15:00:36Z</time>
      </trkpt>
      <trkpt lat="41.0147360" lon="0.5133450">
        <ele>178.2</ele>
        <time>2020-08-07T15:00:37Z</time>
      </trkpt>
      <trkpt lat="41.0147390" lon="0.5133480">
        <ele>178.2</ele>
        <time>2020-08-07T15:00:38Z</time>
      </trkpt>
      <trkpt lat="41.0147430" lon="0.5133500">
        <ele>178.2</ele>
        <time>2020-08-07T15:00:39Z</time>
      </trkpt>
      <trkpt lat="41.0147450" lon="0.5133510">
        <ele>178.2</ele>
        <time>2020-08-07T15:00:41Z</time>
      </trkpt>
      <trkpt lat="41.0147480" lon="0.5133520">
        <ele>178.2</ele>
        <time>2020-08-07T15:00:43Z</time>
      </trkpt>
      <trkpt lat="41.0147560" lon="0.5133510">
        <ele>178.2</ele>
        <time>2020-08-07T15:00:44Z</time>
      </trkpt>
      <trkpt lat="41.0147690" lon="0.5133410">
        <ele>178.2</ele>
        <time>2020-08-07T15:00:46Z</time>
      </trkpt>
      <trkpt lat="41.0147810" lon="0.5133320">
        <ele>178.2</ele>
        <time>2020-08-07T15:00:47Z</time>
      </trkpt>
      <trkpt lat="41.0147960" lon="0.5133250">
        <ele>178.2</ele>
        <time>2020-08-07T15:00:48Z</time>
      </trkpt>
      <trkpt lat="41.0148110" lon="0.5133290">
        <ele>178.2</ele>
        <time>2020-08-07T15:00:50Z</time>
      </trkpt>
      <trkpt lat="41.0148250" lon="0.5133280">
        <ele>178.2</ele>
        <time>2020-08-07T15:00:51Z</time>
      </trkpt>
      <trkpt lat="41.0148440" lon="0.5133250">
        <ele>178.2</ele>
        <time>2020-08-07T15:00:53Z</time>
      </trkpt>
      <trkpt lat="41.0148640" lon="0.5133240">
        <ele>178.2</ele>
        <time>2020-08-07T15:00:55Z</time>
      </trkpt>
      <trkpt lat="41.0148780" lon="0.5133300">
        <ele>178.2</ele>
        <time>2020-08-07T15:00:56Z</time>
      </trkpt>
      <trkpt lat="41.0148900" lon="0.5133320">
        <ele>178.1</ele>
        <time>2020-08-07T15:00:57Z</time>
      </trkpt>
      <trkpt lat="41.0149000" lon="0.5133360">
        <ele>178.1</ele>
        <time>2020-08-07T15:00:58Z</time>
      </trkpt>
      <trkpt lat="41.0149080" lon="0.5133410">
        <ele>178.1</ele>
        <time>2020-08-07T15:00:59Z</time>
      </trkpt>
      <trkpt lat="41.0149160" lon="0.5133460">
        <ele>178.1</ele>
        <time>2020-08-07T15:01:00Z</time>
      </trkpt>
      <trkpt lat="41.0149240" lon="0.5133530">
        <ele>178.1</ele>
        <time>2020-08-07T15:01:01Z</time>
      </trkpt>
      <trkpt lat="41.0149340" lon="0.5133560">
        <ele>178.1</ele>
        <time>2020-08-07T15:01:02Z</time>
      </trkpt>
      <trkpt lat="41.0149410" lon="0.5133640">
        <ele>178.0</ele>
        <time>2020-08-07T15:01:03Z</time>
      </trkpt>
      <trkpt lat="41.0149490" lon="0.5133680">
        <ele>178.0</ele>
        <time>2020-08-07T15:01:05Z</time>
      </trkpt>
      <trkpt lat="41.0149620" lon="0.5133720">
        <ele>178.0</ele>
        <time>2020-08-07T15:01:06Z</time>
      </trkpt>
      <trkpt lat="41.0149740" lon="0.5133770">
        <ele>178.0</ele>
        <time>2020-08-07T15:01:07Z</time>
      </trkpt>
      <trkpt lat="41.0149830" lon="0.5133860">
        <ele>178.0</ele>
        <time>2020-08-07T15:01:08Z</time>
      </trkpt>
      <trkpt lat="41.0149920" lon="0.5133920">
        <ele>178.0</ele>
        <time>2020-08-07T15:01:09Z</time>
      </trkpt>
      <trkpt lat="41.0150010" lon="0.5133940">
        <ele>177.9</ele>
        <time>2020-08-07T15:01:10Z</time>
      </trkpt>
      <trkpt lat="41.0150100" lon="0.5133930">
        <ele>177.9</ele>
        <time>2020-08-07T15:01:11Z</time>
      </trkpt>
      <trkpt lat="41.0150250" lon="0.5133860">
        <ele>177.9</ele>
        <time>2020-08-07T15:01:13Z</time>
      </trkpt>
      <trkpt lat="41.0150360" lon="0.5133800">
        <ele>177.9</ele>
        <time>2020-08-07T15:01:14Z</time>
      </trkpt>
      <trkpt lat="41.0150440" lon="0.5133760">
        <ele>177.9</ele>
        <time>2020-08-07T15:01:15Z</time>
      </trkpt>
      <trkpt lat="41.0150520" lon="0.5133720">
        <ele>177.9</ele>
        <time>2020-08-07T15:01:16Z</time>
      </trkpt>
      <trkpt lat="41.0150650" lon="0.5133690">
        <ele>177.8</ele>
        <time>2020-08-07T15:01:17Z</time>
      </trkpt>
      <trkpt lat="41.0150790" lon="0.5133700">
        <ele>177.8</ele>
        <time>2020-08-07T15:01:19Z</time>
      </trkpt>
      <trkpt lat="41.0150990" lon="0.5133850">
        <ele>177.8</ele>
        <time>2020-08-07T15:01:20Z</time>
      </trkpt>
      <trkpt lat="41.0151100" lon="0.5134080">
        <ele>177.7</ele>
        <time>2020-08-07T15:01:22Z</time>
      </trkpt>
      <trkpt lat="41.0151190" lon="0.5134250">
        <ele>177.7</ele>
        <time>2020-08-07T15:01:23Z</time>
      </trkpt>
      <trkpt lat="41.0151360" lon="0.5134420">
        <ele>177.7</ele>
        <time>2020-08-07T15:01:25Z</time>
      </trkpt>
      <trkpt lat="41.0151480" lon="0.5134540">
        <ele>177.9</ele>
        <time>2020-08-07T15:01:26Z</time>
      </trkpt>
      <trkpt lat="41.0151570" lon="0.5134660">
        <ele>178.1</ele>
        <time>2020-08-07T15:01:27Z</time>
      </trkpt>
      <trkpt lat="41.0151630" lon="0.5134800">
        <ele>178.2</ele>
        <time>2020-08-07T15:01:28Z</time>
      </trkpt>
      <trkpt lat="41.0151690" lon="0.5134940">
        <ele>178.4</ele>
        <time>2020-08-07T15:01:30Z</time>
      </trkpt>
      <trkpt lat="41.0151750" lon="0.5134930">
        <ele>178.5</ele>
        <time>2020-08-07T15:01:32Z</time>
      </trkpt>
      <trkpt lat="41.0151810" lon="0.5134900">
        <ele>178.6</ele>
        <time>2020-08-07T15:01:34Z</time>
      </trkpt>
      <trkpt lat="41.0151840" lon="0.5134900">
        <ele>178.7</ele>
        <time>2020-08-07T15:01:35Z</time>
      </trkpt>
      <trkpt lat="41.0151860" lon="0.5134890">
        <ele>178.7</ele>
        <time>2020-08-07T15:01:36Z</time>
      </trkpt>
      <trkpt lat="41.0151930" lon="0.5134900">
        <ele>178.8</ele>
        <time>2020-08-07T15:01:38Z</time>
      </trkpt>
      <trkpt lat="41.0152960" lon="0.5137570">
        <ele>183.4</ele>
        <time>2020-08-07T15:02:14Z</time>
      </trkpt>
      <trkpt lat="41.0152990" lon="0.5137650">
        <ele>183.4</ele>
        <time>2020-08-07T15:02:15Z</time>
      </trkpt>
      <trkpt lat="41.0153000" lon="0.5137660">
        <ele>183.4</ele>
        <time>2020-08-07T15:02:16Z</time>
      </trkpt>
      <trkpt lat="41.0153010" lon="0.5137620">
        <ele>183.4</ele>
        <time>2020-08-07T15:02:18Z</time>
      </trkpt>
      <trkpt lat="41.0153010" lon="0.5137590">
        <ele>183.4</ele>
        <time>2020-08-07T15:02:20Z</time>
      </trkpt>
      <trkpt lat="41.0153010" lon="0.5137580">
        <ele>183.4</ele>
        <time>2020-08-07T15:02:21Z</time>
      </trkpt>
      <trkpt lat="41.0153010" lon="0.5137570">
        <ele>183.4</ele>
        <time>2020-08-07T15:02:23Z</time>
      </trkpt>
      <trkpt lat="41.0153010" lon="0.5137570">
        <ele>183.4</ele>
        <time>2020-08-07T15:02:24Z</time>
      </trkpt>
      <trkpt lat="41.0153020" lon="0.5137570">
        <ele>183.4</ele>
        <time>2020-08-07T15:02:26Z</time>
      </trkpt>
      <trkpt lat="41.0153280" lon="0.5137380">
        <ele>183.4</ele>
        <time>2020-08-07T15:03:29Z</time>
      </trkpt>
      <trkpt lat="41.0153500" lon="0.5137360">
        <ele>183.4</ele>
        <time>2020-08-07T15:03:31Z</time>
      </trkpt>
      <trkpt lat="41.0153570" lon="0.5137330">
        <ele>183.4</ele>
        <time>2020-08-07T15:03:32Z</time>
      </trkpt>
      <trkpt lat="41.0153650" lon="0.5137300">
        <ele>183.4</ele>
        <time>2020-08-07T15:03:33Z</time>
      </trkpt>
      <trkpt lat="41.0153720" lon="0.5137230">
        <ele>183.3</ele>
        <time>2020-08-07T15:03:35Z</time>
      </trkpt>
      <trkpt lat="41.0153790" lon="0.5137180">
        <ele>183.3</ele>
        <time>2020-08-07T15:03:36Z</time>
      </trkpt>
      <trkpt lat="41.0153860" lon="0.5137090">
        <ele>183.3</ele>
        <time>2020-08-07T15:03:38Z</time>
      </trkpt>
      <trkpt lat="41.0153990" lon="0.5136940">
        <ele>183.3</ele>
        <time>2020-08-07T15:03:39Z</time>
      </trkpt>
      <trkpt lat="41.0154050" lon="0.5136880">
        <ele>183.2</ele>
        <time>2020-08-07T15:03:41Z</time>
      </trkpt>
      <trkpt lat="41.0154040" lon="0.5136660">
        <ele>183.2</ele>
        <time>2020-08-07T15:03:43Z</time>
      </trkpt>
      <trkpt lat="41.0154050" lon="0.5136450">
        <ele>183.2</ele>
        <time>2020-08-07T15:03:44Z</time>
      </trkpt>
      <trkpt lat="41.0154070" lon="0.5136340">
        <ele>183.1</ele>
        <time>2020-08-07T15:03:45Z</time>
      </trkpt>
      <trkpt lat="41.0154100" lon="0.5136220">
        <ele>183.1</ele>
        <time>2020-08-07T15:03:46Z</time>
      </trkpt>
      <trkpt lat="41.0154120" lon="0.5136100">
        <ele>183.1</ele>
        <time>2020-08-07T15:03:47Z</time>
      </trkpt>
      <trkpt lat="41.0154210" lon="0.5135860">
        <ele>183.1</ele>
        <time>2020-08-07T15:03:49Z</time>
      </trkpt>
      <trkpt lat="41.0154250" lon="0.5135720">
        <ele>183.0</ele>
        <time>2020-08-07T15:03:51Z</time>
      </trkpt>
      <trkpt lat="41.0154300" lon="0.5135590">
        <ele>183.0</ele>
        <time>2020-08-07T15:03:52Z</time>
      </trkpt>
      <trkpt lat="41.0154290" lon="0.5135530">
        <ele>183.0</ele>
        <time>2020-08-07T15:03:53Z</time>
      </trkpt>
      <trkpt lat="41.0154300" lon="0.5135480">
        <ele>183.0</ele>
        <time>2020-08-07T15:03:54Z</time>
      </trkpt>
      <trkpt lat="41.0154420" lon="0.5135320">
        <ele>183.0</ele>
        <time>2020-08-07T15:03:56Z</time>
      </trkpt>
      <trkpt lat="41.0154490" lon="0.5135230">
        <ele>182.9</ele>
        <time>2020-08-07T15:03:57Z</time>
      </trkpt>
      <trkpt lat="41.0154550" lon="0.5135160">
        <ele>182.9</ele>
        <time>2020-08-07T15:03:58Z</time>
      </trkpt>
      <trkpt lat="41.0154590" lon="0.5135090">
        <ele>182.9</ele>
        <time>2020-08-07T15:03:59Z</time>
      </trkpt>
      <trkpt lat="41.0154620" lon="0.5135030">
        <ele>182.9</ele>
        <time>2020-08-07T15:04:00Z</time>
      </trkpt>
      <trkpt lat="41.0154700" lon="0.5134930">
        <ele>182.9</ele>
        <time>2020-08-07T15:04:01Z</time>
      </trkpt>
      <trkpt lat="41.0154750" lon="0.5134880">
        <ele>182.9</ele>
        <time>2020-08-07T15:04:02Z</time>
      </trkpt>
      <trkpt lat="41.0154790" lon="0.5134830">
        <ele>182.8</ele>
        <time>2020-08-07T15:04:03Z</time>
      </trkpt>
      <trkpt lat="41.0154840" lon="0.5134780">
        <ele>182.8</ele>
        <time>2020-08-07T15:04:29Z</time>
      </trkpt>
      <trkpt lat="41.0154890" lon="0.5134730">
        <ele>182.8</ele>
        <time>2020-08-07T15:04:31Z</time>
      </trkpt>
      <trkpt lat="41.0154940" lon="0.5134680">
        <ele>182.8</ele>
        <time>2020-08-07T15:04:32Z</time>
      </trkpt>
      <trkpt lat="41.0154990" lon="0.5134630">
        <ele>182.8</ele>
        <time>2020-08-07T15:04:34Z</time>
      </trkpt>
      <trkpt lat="41.0155030" lon="0.5134580">
        <ele>182.8</ele>
        <time>2020-08-07T15:04:36Z</time>
      </trkpt>
      <trkpt lat="41.0155080" lon="0.5134530">
        <ele>182.8</ele>
        <time>2020-08-07T15:04:37Z</time>
      </trkpt>
      <trkpt lat="41.0155130" lon="0.5134470">
        <ele>182.7</ele>
        <time>2020-08-07T15:04:39Z</time>
      </trkpt>
      <trkpt lat="41.0155180" lon="0.5134420">
        <ele>182.7</ele>
        <time>2020-08-07T15:04:40Z</time>
      </trkpt>
      <trkpt lat="41.0155220" lon="0.5134370">
        <ele>182.7</ele>
        <time>2020-08-07T15:04:42Z</time>
      </trkpt>
      <trkpt lat="41.0155270" lon="0.5134320">
        <ele>182.7</ele>
        <time>2020-08-07T15:04:43Z</time>
      </trkpt>
      <trkpt lat="41.0155320" lon="0.5134270">
        <ele>182.7</ele>
        <time>2020-08-07T15:04:45Z</time>
      </trkpt>
      <trkpt lat="41.0155370" lon="0.5134220">
        <ele>182.7</ele>
        <time>2020-08-07T15:04:46Z</time>
      </trkpt>
      <trkpt lat="41.0155420" lon="0.5134170">
        <ele>182.7</ele>
        <time>2020-08-07T15:04:47Z</time>
      </trkpt>
      <trkpt lat="41.0155460" lon="0.5134120">
        <ele>182.6</ele>
        <time>2020-08-07T15:04:59Z</time>
      </trkpt>
      <trkpt lat="41.0155510" lon="0.5134070">
        <ele>182.6</ele>
        <time>2020-08-07T15:05:01Z</time>
      </trkpt>
      <trkpt lat="41.0155560" lon="0.5134020">
        <ele>182.6</ele>
        <time>2020-08-07T15:05:02Z</time>
      </trkpt>
      <trkpt lat="41.0155640" lon="0.5133610">
        <ele>182.6</ele>
        <time>2020-08-07T15:05:03Z</time>
      </trkpt>
      <trkpt lat="41.0155660" lon="0.5133500">
        <ele>182.5</ele>
        <time>2020-08-07T15:05:04Z</time>
      </trkpt>
      <trkpt lat="41.0155720" lon="0.5133320">
        <ele>182.5</ele>
        <time>2020-08-07T15:05:06Z</time>
      </trkpt>
      <trkpt lat="41.0155760" lon="0.5133270">
        <ele>182.5</ele>
        <time>2020-08-07T15:05:07Z</time>
      </trkpt>
      <trkpt lat="41.0155880" lon="0.5133150">
        <ele>182.5</ele>
        <time>2020-08-07T15:05:09Z</time>
      </trkpt>
      <trkpt lat="41.0155950" lon="0.5133120">
        <ele>182.4</ele>
        <time>2020-08-07T15:05:10Z</time>
      </trkpt>
      <trkpt lat="41.0156050" lon="0.5133010">
        <ele>181.6</ele>
        <time>2020-08-07T15:05:11Z</time>
      </trkpt>
      <trkpt lat="41.0156140" lon="0.5132930">
        <ele>181.5</ele>
        <time>2020-08-07T15:05:12Z</time>
      </trkpt>
      <trkpt lat="41.0156240" lon="0.5132890">
        <ele>181.3</ele>
        <time>2020-08-07T15:05:14Z</time>
      </trkpt>
      <trkpt lat="41.0156320" lon="0.5132870">
        <ele>181.2</ele>
        <time>2020-08-07T15:05:15Z</time>
      </trkpt>
      <trkpt lat="41.0156420" lon="0.5132850">
        <ele>181.1</ele>
        <time>2020-08-07T15:05:16Z</time>
      </trkpt>
      <trkpt lat="41.0156510" lon="0.5132880">
        <ele>181.0</ele>
        <time>2020-08-07T15:05:17Z</time>
      </trkpt>
      <trkpt lat="41.0156580" lon="0.5133040">
        <ele>180.8</ele>
        <time>2020-08-07T15:05:19Z</time>
      </trkpt>
      <trkpt lat="41.0156540" lon="0.5133190">
        <ele>181.6</ele>
        <time>2020-08-07T15:05:21Z</time>
      </trkpt>
      <trkpt lat="41.0156540" lon="0.5133120">
        <ele>181.5</ele>
        <time>2020-08-07T15:05:23Z</time>
      </trkpt>
      <trkpt lat="41.0156540" lon="0.5133090">
        <ele>180.7</ele>
        <time>2020-08-07T15:05:24Z</time>
      </trkpt>
      <trkpt lat="41.0156550" lon="0.5133060">
        <ele>180.6</ele>
        <time>2020-08-07T15:05:26Z</time>
      </trkpt>
      <trkpt lat="41.0156550" lon="0.5133050">
        <ele>180.6</ele>
        <time>2020-08-07T15:05:27Z</time>
      </trkpt>
      <trkpt lat="41.0156560" lon="0.5133030">
        <ele>180.5</ele>
        <time>2020-08-07T15:05:28Z</time>
      </trkpt>
      <trkpt lat="41.0156570" lon="0.5133010">
        <ele>180.2</ele>
        <time>2020-08-07T15:05:30Z</time>
      </trkpt>
      <trkpt lat="41.0156560" lon="0.5133720">
        <ele>181.8</ele>
        <time>2020-08-07T15:05:44Z</time>
      </trkpt>
      <trkpt lat="41.0156520" lon="0.5133890">
        <ele>181.7</ele>
        <time>2020-08-07T15:05:46Z</time>
      </trkpt>
      <trkpt lat="41.0156540" lon="0.5134070">
        <ele>182.3</ele>
        <time>2020-08-07T15:05:47Z</time>
      </trkpt>
      <trkpt lat="41.0156550" lon="0.5134310">
        <ele>182.3</ele>
        <time>2020-08-07T15:05:49Z</time>
      </trkpt>
      <trkpt lat="41.0156580" lon="0.5134370">
        <ele>182.0</ele>
        <time>2020-08-07T15:05:51Z</time>
      </trkpt>
      <trkpt lat="41.0156580" lon="0.5134420">
        <ele>182.6</ele>
        <time>2020-08-07T15:05:52Z</time>
      </trkpt>
      <trkpt lat="41.0156590" lon="0.5134500">
        <ele>182.5</ele>
        <time>2020-08-07T15:05:54Z</time>
      </trkpt>
      <trkpt lat="41.0156580" lon="0.5134520">
        <ele>182.5</ele>
        <time>2020-08-07T15:05:55Z</time>
      </trkpt>
      <trkpt lat="41.0156580" lon="0.5134530">
        <ele>182.4</ele>
        <time>2020-08-07T15:05:56Z</time>
      </trkpt>
      <trkpt lat="41.0156580" lon="0.5134550">
        <ele>182.3</ele>
        <time>2020-08-07T15:05:57Z</time>
      </trkpt>
      <trkpt lat="41.0156590" lon="0.5134750">
        <ele>182.2</ele>
        <time>2020-08-07T15:05:59Z</time>
      </trkpt>
      <trkpt lat="41.0156590" lon="0.5134890">
        <ele>182.9</ele>
        <time>2020-08-07T15:06:01Z</time>
      </trkpt>
      <trkpt lat="41.0156570" lon="0.5135040">
        <ele>182.8</ele>
        <time>2020-08-07T15:06:03Z</time>
      </trkpt>
      <trkpt lat="41.0156600" lon="0.5135130">
        <ele>182.7</ele>
        <time>2020-08-07T15:06:05Z</time>
      </trkpt>
      <trkpt lat="41.0156640" lon="0.5135220">
        <ele>182.6</ele>
        <time>2020-08-07T15:06:06Z</time>
      </trkpt>
      <trkpt lat="41.0156740" lon="0.5135330">
        <ele>183.3</ele>
        <time>2020-08-07T15:06:07Z</time>
      </trkpt>
      <trkpt lat="41.0156950" lon="0.5135520">
        <ele>183.0</ele>
        <time>2020-08-07T15:06:09Z</time>
      </trkpt>
      <trkpt lat="41.0157030" lon="0.5135870">
        <ele>183.7</ele>
        <time>2020-08-07T15:06:10Z</time>
      </trkpt>
      <trkpt lat="41.0157040" lon="0.5136000">
        <ele>183.6</ele>
        <time>2020-08-07T15:06:11Z</time>
      </trkpt>
      <trkpt lat="41.0156970" lon="0.5136280">
        <ele>184.2</ele>
        <time>2020-08-07T15:06:13Z</time>
      </trkpt>
      <trkpt lat="41.0156910" lon="0.5136410">
        <ele>184.2</ele>
        <time>2020-08-07T15:06:14Z</time>
      </trkpt>
      <trkpt lat="41.0156870" lon="0.5136590">
        <ele>185.0</ele>
        <time>2020-08-07T15:06:16Z</time>
      </trkpt>
      <trkpt lat="41.0156810" lon="0.5136730">
        <ele>185.0</ele>
        <time>2020-08-07T15:06:17Z</time>
      </trkpt>
      <trkpt lat="41.0156810" lon="0.5136840">
        <ele>184.9</ele>
        <time>2020-08-07T15:06:18Z</time>
      </trkpt>
      <trkpt lat="41.0156850" lon="0.5137010">
        <ele>185.5</ele>
        <time>2020-08-07T15:06:19Z</time>
      </trkpt>
      <trkpt lat="41.0156850" lon="0.5137170">
        <ele>185.4</ele>
        <time>2020-08-07T15:06:21Z</time>
      </trkpt>
      <trkpt lat="41.0156900" lon="0.5137500">
        <ele>185.7</ele>
        <time>2020-08-07T15:06:23Z</time>
      </trkpt>
      <trkpt lat="41.0156880" lon="0.5137700">
        <ele>185.9</ele>
        <time>2020-08-07T15:06:25Z</time>
      </trkpt>
      <trkpt lat="41.0156840" lon="0.5137740">
        <ele>185.8</ele>
        <time>2020-08-07T15:06:26Z</time>
      </trkpt>
      <trkpt lat="41.0156800" lon="0.5137800">
        <ele>185.7</ele>
        <time>2020-08-07T15:06:27Z</time>
      </trkpt>
      <trkpt lat="41.0156720" lon="0.5137820">
        <ele>185.6</ele>
        <time>2020-08-07T15:06:29Z</time>
      </trkpt>
      <trkpt lat="41.0156690" lon="0.5137880">
        <ele>186.2</ele>
        <time>2020-08-07T15:06:30Z</time>
      </trkpt>
      <trkpt lat="41.0156710" lon="0.5138000">
        <ele>186.1</ele>
        <time>2020-08-07T15:06:32Z</time>
      </trkpt>
      <trkpt lat="41.0156730" lon="0.5138060">
        <ele>186.0</ele>
        <time>2020-08-07T15:06:33Z</time>
      </trkpt>
      <trkpt lat="41.0156750" lon="0.5138180">
        <ele>185.9</ele>
        <time>2020-08-07T15:06:35Z</time>
      </trkpt>
      <trkpt lat="41.0156750" lon="0.5138230">
        <ele>185.9</ele>
        <time>2020-08-07T15:06:36Z</time>
      </trkpt>
      <trkpt lat="41.0156770" lon="0.5138350">
        <ele>186.4</ele>
        <time>2020-08-07T15:06:38Z</time>
      </trkpt>
      <trkpt lat="41.0156760" lon="0.5138420">
        <ele>186.3</ele>
        <time>2020-08-07T15:06:39Z</time>
      </trkpt>
      <trkpt lat="41.0156700" lon="0.5139840">
        <ele>187.9</ele>
        <time>2020-08-07T15:06:52Z</time>
      </trkpt>
      <trkpt lat="41.0156720" lon="0.5140350">
        <ele>188.4</ele>
        <time>2020-08-07T15:06:53Z</time>
      </trkpt>
      <trkpt lat="41.0156730" lon="0.5140860">
        <ele>189.4</ele>
        <time>2020-08-07T15:06:54Z</time>
      </trkpt>
      <trkpt lat="41.0156640" lon="0.5141070">
        <ele>189.3</ele>
        <time>2020-08-07T15:06:56Z</time>
      </trkpt>
      <trkpt lat="41.0156560" lon="0.5141080">
        <ele>189.4</ele>
        <time>2020-08-07T15:06:57Z</time>
      </trkpt>
      <trkpt lat="41.0156470" lon="0.5141090">
        <ele>189.3</ele>
        <time>2020-08-07T15:06:58Z</time>
      </trkpt>
      <trkpt lat="41.0156390" lon="0.5141100">
        <ele>189.3</ele>
        <time>2020-08-07T15:07:00Z</time>
      </trkpt>
      <trkpt lat="41.0156300" lon="0.5141100">
        <ele>189.2</ele>
        <time>2020-08-07T15:07:02Z</time>
      </trkpt>
      <trkpt lat="41.0156210" lon="0.5141110">
        <ele>189.2</ele>
        <time>2020-08-07T15:07:04Z</time>
      </trkpt>
      <trkpt lat="41.0156130" lon="0.5141120">
        <ele>189.2</ele>
        <time>2020-08-07T15:07:06Z</time>
      </trkpt>
      <trkpt lat="41.0156040" lon="0.5141130">
        <ele>189.1</ele>
        <time>2020-08-07T15:07:07Z</time>
      </trkpt>
      <trkpt lat="41.0155900" lon="0.5141200">
        <ele>189.1</ele>
        <time>2020-08-07T15:07:08Z</time>
      </trkpt>
      <trkpt lat="41.0155710" lon="0.5141290">
        <ele>189.5</ele>
        <time>2020-08-07T15:07:09Z</time>
      </trkpt>
      <trkpt lat="41.0155340" lon="0.5141350">
        <ele>189.5</ele>
        <time>2020-08-07T15:07:11Z</time>
      </trkpt>
      <trkpt lat="41.0155150" lon="0.5141340">
        <ele>189.4</ele>
        <time>2020-08-07T15:07:12Z</time>
      </trkpt>
      <trkpt lat="41.0154990" lon="0.5141340">
        <ele>189.3</ele>
        <time>2020-08-07T15:07:13Z</time>
      </trkpt>
      <trkpt lat="41.0154700" lon="0.5141350">
        <ele>189.3</ele>
        <time>2020-08-07T15:07:15Z</time>
      </trkpt>
      <trkpt lat="41.0154550" lon="0.5141360">
        <ele>189.2</ele>
        <time>2020-08-07T15:07:16Z</time>
      </trkpt>
      <trkpt lat="41.0154440" lon="0.5141380">
        <ele>189.1</ele>
        <time>2020-08-07T15:07:17Z</time>
      </trkpt>
      <trkpt lat="41.0154240" lon="0.5141480">
        <ele>189.1</ele>
        <time>2020-08-07T15:07:19Z</time>
      </trkpt>
      <trkpt lat="41.0154180" lon="0.5141520">
        <ele>189.0</ele>
        <time>2020-08-07T15:07:20Z</time>
      </trkpt>
      <trkpt lat="41.0154120" lon="0.5141560">
        <ele>188.9</ele>
        <time>2020-08-07T15:07:21Z</time>
      </trkpt>
      <trkpt lat="41.0154070" lon="0.5141730">
        <ele>189.1</ele>
        <time>2020-08-07T15:07:23Z</time>
      </trkpt>
      <trkpt lat="41.0154010" lon="0.5142050">
        <ele>189.0</ele>
        <time>2020-08-07T15:07:25Z</time>
      </trkpt>
      <trkpt lat="41.0154010" lon="0.5142130">
        <ele>189.2</ele>
        <time>2020-08-07T15:07:26Z</time>
      </trkpt>
      <trkpt lat="41.0154000" lon="0.5142090">
        <ele>188.9</ele>
        <time>2020-08-07T15:07:27Z</time>
      </trkpt>
      <trkpt lat="41.0154010" lon="0.5142070">
        <ele>188.8</ele>
        <time>2020-08-07T15:07:28Z</time>
      </trkpt>
      <trkpt lat="41.0154070" lon="0.5142130">
        <ele>189.0</ele>
        <time>2020-08-07T15:07:34Z</time>
      </trkpt>
      <trkpt lat="41.0154110" lon="0.5142160">
        <ele>188.9</ele>
        <time>2020-08-07T15:07:35Z</time>
      </trkpt>
      <trkpt lat="41.0154120" lon="0.5142180">
        <ele>188.8</ele>
        <time>2020-08-07T15:07:36Z</time>
      </trkpt>
      <trkpt lat="41.0153930" lon="0.5142680">
        <ele>189.0</ele>
        <time>2020-08-07T15:08:13Z</time>
      </trkpt>
      <trkpt lat="41.0153940" lon="0.5142720">
        <ele>188.9</ele>
        <time>2020-08-07T15:08:14Z</time>
      </trkpt>
      <trkpt lat="41.0153940" lon="0.5142760">
        <ele>188.8</ele>
        <time>2020-08-07T15:08:15Z</time>
      </trkpt>
      <trkpt lat="41.0153970" lon="0.5142840">
        <ele>188.7</ele>
        <time>2020-08-07T15:08:17Z</time>
      </trkpt>
      <trkpt lat="41.0153990" lon="0.5142880">
        <ele>188.7</ele>
        <time>2020-08-07T15:08:18Z</time>
      </trkpt>
      <trkpt lat="41.0153970" lon="0.5142920">
        <ele>188.6</ele>
        <time>2020-08-07T15:08:20Z</time>
      </trkpt>
      <trkpt lat="41.0153940" lon="0.5142910">
        <ele>188.5</ele>
        <time>2020-08-07T15:08:21Z</time>
      </trkpt>
      <trkpt lat="41.0153870" lon="0.5142890">
        <ele>188.4</ele>
        <time>2020-08-07T15:08:23Z</time>
      </trkpt>
      <trkpt lat="41.0153850" lon="0.5142910">
        <ele>188.3</ele>
        <time>2020-08-07T15:08:24Z</time>
      </trkpt>
      <trkpt lat="41.0153840" lon="0.5142980">
        <ele>188.5</ele>
        <time>2020-08-07T15:08:26Z</time>
      </trkpt>
      <trkpt lat="41.0153820" lon="0.5143020">
        <ele>188.4</ele>
        <time>2020-08-07T15:08:27Z</time>
      </trkpt>
      <trkpt lat="41.0153800" lon="0.5143260">
        <ele>188.3</ele>
        <time>2020-08-07T15:08:28Z</time>
      </trkpt>
      <trkpt lat="41.0153800" lon="0.5143480">
        <ele>188.5</ele>
        <time>2020-08-07T15:08:30Z</time>
      </trkpt>
      <trkpt lat="41.0153800" lon="0.5143690">
        <ele>188.4</ele>
        <time>2020-08-07T15:08:31Z</time>
      </trkpt>
      <trkpt lat="41.0153800" lon="0.5143900">
        <ele>188.5</ele>
        <time>2020-08-07T15:08:33Z</time>
      </trkpt>
      <trkpt lat="41.0153800" lon="0.5144120">
        <ele>188.5</ele>
        <time>2020-08-07T15:08:34Z</time>
      </trkpt>
      <trkpt lat="41.0153800" lon="0.5144330">
        <ele>188.6</ele>
        <time>2020-08-07T15:08:35Z</time>
      </trkpt>
      <trkpt lat="41.0153790" lon="0.5144540">
        <ele>188.5</ele>
        <time>2020-08-07T15:08:37Z</time>
      </trkpt>
      <trkpt lat="41.0153790" lon="0.5144750">
        <ele>188.6</ele>
        <time>2020-08-07T15:08:38Z</time>
      </trkpt>
      <trkpt lat="41.0153790" lon="0.5144970">
        <ele>188.5</ele>
        <time>2020-08-07T15:09:40Z</time>
      </trkpt>
      <trkpt lat="41.0153790" lon="0.5145180">
        <ele>188.6</ele>
        <time>2020-08-07T15:09:41Z</time>
      </trkpt>
      <trkpt lat="41.0153790" lon="0.5145390">
        <ele>188.5</ele>
        <time>2020-08-07T15:09:48Z</time>
      </trkpt>
      <trkpt lat="41.0153790" lon="0.5145610">
        <ele>188.5</ele>
        <time>2020-08-07T15:09:49Z</time>
      </trkpt>
      <trkpt lat="41.0153790" lon="0.5145820">
        <ele>188.4</ele>
        <time>2020-08-07T15:09:50Z</time>
      </trkpt>
      <trkpt lat="41.0153740" lon="0.5146500">
        <ele>188.3</ele>
        <time>2020-08-07T15:09:52Z</time>
      </trkpt>
      <trkpt lat="41.0153770" lon="0.5147120">
        <ele>188.2</ele>
        <time>2020-08-07T15:09:54Z</time>
      </trkpt>
      <trkpt lat="41.0153830" lon="0.5147740">
        <ele>187.8</ele>
        <time>2020-08-07T15:09:56Z</time>
      </trkpt>
      <trkpt lat="41.0153880" lon="0.5148480">
        <ele>187.5</ele>
        <time>2020-08-07T15:09:58Z</time>
      </trkpt>
      <trkpt lat="41.0153880" lon="0.5148860">
        <ele>187.1</ele>
        <time>2020-08-07T15:09:59Z</time>
      </trkpt>
      <trkpt lat="41.0153880" lon="0.5149500">
        <ele>186.4</ele>
        <time>2020-08-07T15:10:01Z</time>
      </trkpt>
      <trkpt lat="41.0153880" lon="0.5149780">
        <ele>186.3</ele>
        <time>2020-08-07T15:10:02Z</time>
      </trkpt>
      <trkpt lat="41.0153900" lon="0.5150290">
        <ele>185.5</ele>
        <time>2020-08-07T15:10:04Z</time>
      </trkpt>
      <trkpt lat="41.0153940" lon="0.5150500">
        <ele>185.4</ele>
        <time>2020-08-07T15:10:05Z</time>
      </trkpt>
      <trkpt lat="41.0154030" lon="0.5150880">
        <ele>185.4</ele>
        <time>2020-08-07T15:10:07Z</time>
      </trkpt>
      <trkpt lat="41.0154110" lon="0.5151040">
        <ele>185.4</ele>
        <time>2020-08-07T15:10:08Z</time>
      </trkpt>
      <trkpt lat="41.0154260" lon="0.5151250">
        <ele>185.4</ele>
        <time>2020-08-07T15:10:09Z</time>
      </trkpt>
      <trkpt lat="41.0154500" lon="0.5151550">
        <ele>185.4</ele>
        <time>2020-08-07T15:10:10Z</time>
      </trkpt>
      <trkpt lat="41.0154570" lon="0.5151650">
        <ele>185.4</ele>
        <time>2020-08-07T15:10:11Z</time>
      </trkpt>
      <trkpt lat="41.0154680" lon="0.5151830">
        <ele>185.4</ele>
        <time>2020-08-07T15:10:13Z</time>
      </trkpt>
      <trkpt lat="41.0154690" lon="0.5151840">
        <ele>185.4</ele>
        <time>2020-08-07T15:10:15Z</time>
      </trkpt>
      <trkpt lat="41.0154700" lon="0.5151860">
        <ele>185.4</ele>
        <time>2020-08-07T15:10:16Z</time>
      </trkpt>
      <trkpt lat="41.0154720" lon="0.5151870">
        <ele>185.4</ele>
        <time>2020-08-07T15:10:17Z</time>
      </trkpt>
      <trkpt lat="41.0154730" lon="0.5151890">
        <ele>185.3</ele>
        <time>2020-08-07T15:10:18Z</time>
      </trkpt>
      <trkpt lat="41.0154740" lon="0.5151900">
        <ele>185.3</ele>
        <time>2020-08-07T15:10:20Z</time>
      </trkpt>
      <trkpt lat="41.0154750" lon="0.5151920">
        <ele>185.3</ele>
        <time>2020-08-07T15:10:22Z</time>
      </trkpt>
      <trkpt lat="41.0154760" lon="0.5151930">
        <ele>185.3</ele>
        <time>2020-08-07T15:10:23Z</time>
      </trkpt>
      <trkpt lat="41.0154770" lon="0.5151950">
        <ele>185.3</ele>
        <time>2020-08-07T15:10:24Z</time>
      </trkpt>
      <trkpt lat="41.0154780" lon="0.5151970">
        <ele>185.3</ele>
        <time>2020-08-07T15:10:26Z</time>
      </trkpt>
      <trkpt lat="41.0154790" lon="0.5151980">
        <ele>185.3</ele>
        <time>2020-08-07T15:10:27Z</time>
      </trkpt>
      <trkpt lat="41.0154810" lon="0.5152000">
        <ele>185.3</ele>
        <time>2020-08-07T15:10:29Z</time>
      </trkpt>
      <trkpt lat="41.0154820" lon="0.5152010">
        <ele>185.2</ele>
        <time>2020-08-07T15:10:30Z</time>
      </trkpt>
      <trkpt lat="41.0154830" lon="0.5152030">
        <ele>185.2</ele>
        <time>2020-08-07T15:10:32Z</time>
      </trkpt>
      <trkpt lat="41.0154840" lon="0.5152040">
        <ele>185.2</ele>
        <time>2020-08-07T15:10:33Z</time>
      </trkpt>
      <trkpt lat="41.0154850" lon="0.5152060">
        <ele>185.2</ele>
        <time>2020-08-07T15:10:34Z</time>
      </trkpt>
      <trkpt lat="41.0155100" lon="0.5152510">
        <ele>184.9</ele>
        <time>2020-08-07T15:10:36Z</time>
      </trkpt>
      <trkpt lat="41.0155650" lon="0.5154200">
        <ele>183.9</ele>
        <time>2020-08-07T15:10:37Z</time>
      </trkpt>
      <trkpt lat="41.0156210" lon="0.5155660">
        <ele>183.1</ele>
        <time>2020-08-07T15:10:39Z</time>
      </trkpt>
      <trkpt lat="41.0156440" lon="0.5156340">
        <ele>182.7</ele>
        <time>2020-08-07T15:10:40Z</time>
      </trkpt>
      <trkpt lat="41.0156670" lon="0.5157380">
        <ele>182.2</ele>
        <time>2020-08-07T15:10:42Z</time>
      </trkpt>
      <trkpt lat="41.0156750" lon="0.5157760">
        <ele>182.1</ele>
        <time>2020-08-07T15:10:43Z</time>
      </trkpt>
      <trkpt lat="41.0156570" lon="0.5157300">
        <ele>181.9</ele>
        <time>2020-08-07T15:10:44Z</time>
      </trkpt>
      <trkpt lat="41.0156290" lon="0.5157100">
        <ele>181.7</ele>
        <time>2020-08-07T15:10:46Z</time>
      </trkpt>
      <trkpt lat="41.0156250" lon="0.5157260">
        <ele>181.7</ele>
        <time>2020-08-07T15:10:47Z</time>
      </trkpt>
      <trkpt lat="41.0156200" lon="0.5157390">
        <ele>181.6</ele>
        <time>2020-08-07T15:10:48Z</time>
      </trkpt>
      <trkpt lat="41.0156360" lon="0.5157470">
        <ele>181.5</ele>
        <time>2020-08-07T15:10:50Z</time>
      </trkpt>
      <trkpt lat="41.0156420" lon="0.5157520">
        <ele>181.5</ele>
        <time>2020-08-07T15:10:51Z</time>
      </trkpt>
      <trkpt lat="41.0156460" lon="0.5157570">
        <ele>181.5</ele>
        <time>2020-08-07T15:10:52Z</time>
      </trkpt>
      <trkpt lat="41.0156540" lon="0.5157700">
        <ele>181.4</ele>
        <time>2020-08-07T15:10:54Z</time>
      </trkpt>
      <trkpt lat="41.0156580" lon="0.5157830">
        <ele>181.4</ele>
        <time>2020-08-07T15:10:55Z</time>
      </trkpt>
      <trkpt lat="41.0156610" lon="0.5157950">
        <ele>181.3</ele>
        <time>2020-08-07T15:10:57Z</time>
      </trkpt>
      <trkpt lat="41.0156620" lon="0.5158010">
        <ele>181.3</ele>
        <time>2020-08-07T15:10:58Z</time>
      </trkpt>
      <trkpt lat="41.0157490" lon="0.5159130">
        <ele>180.8</ele>
        <time>2020-08-07T15:11:24Z</time>
      </trkpt>
      <trkpt lat="41.0157520" lon="0.5159140">
        <ele>181.8</ele>
        <time>2020-08-07T15:11:25Z</time>
      </trkpt>
      <trkpt lat="41.0157530" lon="0.5159150">
        <ele>181.8</ele>
        <time>2020-08-07T15:11:27Z</time>
      </trkpt>
      <trkpt lat="41.0157520" lon="0.5159140">
        <ele>181.8</ele>
        <time>2020-08-07T15:11:29Z</time>
      </trkpt>
      <trkpt lat="41.0157520" lon="0.5159140">
        <ele>181.8</ele>
        <time>2020-08-07T15:11:31Z</time>
      </trkpt>
      <trkpt lat="41.0157520" lon="0.5159140">
        <ele>181.8</ele>
        <time>2020-08-07T15:11:32Z</time>
      </trkpt>
      <trkpt lat="41.0157520" lon="0.5159140">
        <ele>181.8</ele>
        <time>2020-08-07T15:11:34Z</time>
      </trkpt>
      <trkpt lat="41.0157520" lon="0.5159140">
        <ele>181.8</ele>
        <time>2020-08-07T15:11:35Z</time>
      </trkpt>
      <trkpt lat="41.0154730" lon="0.5160380">
        <ele>180.8</ele>
        <time>2020-08-07T15:16:53Z</time>
      </trkpt>
      <trkpt lat="41.0154630" lon="0.5160250">
        <ele>180.8</ele>
        <time>2020-08-07T15:16:54Z</time>
      </trkpt>
      <trkpt lat="41.0154620" lon="0.5160130">
        <ele>180.8</ele>
        <time>2020-08-07T15:16:56Z</time>
      </trkpt>
      <trkpt lat="41.0154650" lon="0.5160110">
        <ele>180.8</ele>
        <time>2020-08-07T15:16:57Z</time>
      </trkpt>
      <trkpt lat="41.0154640" lon="0.5160080">
        <ele>180.8</ele>
        <time>2020-08-07T15:16:58Z</time>
      </trkpt>
      <trkpt lat="41.0154640" lon="0.5160100">
        <ele>180.8</ele>
        <time>2020-08-07T15:17:00Z</time>
      </trkpt>
      <trkpt lat="41.0154640" lon="0.5160100">
        <ele>180.8</ele>
        <time>2020-08-07T15:17:01Z</time>
      </trkpt>
      <trkpt lat="41.0154670" lon="0.5160110">
        <ele>180.8</ele>
        <time>2020-08-07T15:17:02Z</time>
      </trkpt>
      <trkpt lat="41.0154710" lon="0.5160100">
        <ele>180.8</ele>
        <time>2020-08-07T15:17:04Z</time>
      </trkpt>
      <trkpt lat="41.0154760" lon="0.5160090">
        <ele>180.8</ele>
        <time>2020-08-07T15:17:05Z</time>
      </trkpt>
      <trkpt lat="41.0154870" lon="0.5160070">
        <ele>180.9</ele>
        <time>2020-08-07T15:17:07Z</time>
      </trkpt>
      <trkpt lat="41.0154900" lon="0.5160060">
        <ele>180.9</ele>
        <time>2020-08-07T15:17:08Z</time>
      </trkpt>
      <trkpt lat="41.0154920" lon="0.5160040">
        <ele>180.9</ele>
        <time>2020-08-07T15:17:09Z</time>
      </trkpt>
      <trkpt lat="41.0154920" lon="0.5159990">
        <ele>180.9</ele>
        <time>2020-08-07T15:17:11Z</time>
      </trkpt>
      <trkpt lat="41.0154960" lon="0.5159970">
        <ele>180.9</ele>
        <time>2020-08-07T15:17:12Z</time>
      </trkpt>
      <trkpt lat="41.0154970" lon="0.5159940">
        <ele>180.9</ele>
        <time>2020-08-07T15:17:13Z</time>
      </trkpt>
      <trkpt lat="41.0155010" lon="0.5159910">
        <ele>180.9</ele>
        <time>2020-08-07T15:17:14Z</time>
      </trkpt>
      <trkpt lat="41.0155040" lon="0.5159880">
        <ele>180.9</ele>
        <time>2020-08-07T15:17:15Z</time>
      </trkpt>
      <trkpt lat="41.0155090" lon="0.5159790">
        <ele>180.9</ele>
        <time>2020-08-07T15:17:17Z</time>
      </trkpt>
      <trkpt lat="41.0155130" lon="0.5159750">
        <ele>180.9</ele>
        <time>2020-08-07T15:17:18Z</time>
      </trkpt>
      <trkpt lat="41.0155130" lon="0.5159710">
        <ele>180.9</ele>
        <time>2020-08-07T15:17:19Z</time>
      </trkpt>
      <trkpt lat="41.0155120" lon="0.5159680">
        <ele>180.9</ele>
        <time>2020-08-07T15:17:20Z</time>
      </trkpt>
      <trkpt lat="41.0155090" lon="0.5159640">
        <ele>180.9</ele>
        <time>2020-08-07T15:17:21Z</time>
      </trkpt>
      <trkpt lat="41.0155090" lon="0.5159600">
        <ele>180.9</ele>
        <time>2020-08-07T15:17:23Z</time>
      </trkpt>
      <trkpt lat="41.0155090" lon="0.5159580">
        <ele>180.9</ele>
        <time>2020-08-07T15:17:24Z</time>
      </trkpt>
      <trkpt lat="41.0155090" lon="0.5159550">
        <ele>180.9</ele>
        <time>2020-08-07T15:17:25Z</time>
      </trkpt>
      <trkpt lat="41.0155100" lon="0.5159510">
        <ele>180.9</ele>
        <time>2020-08-07T15:17:27Z</time>
      </trkpt>
      <trkpt lat="41.0155100" lon="0.5159490">
        <ele>180.9</ele>
        <time>2020-08-07T15:17:28Z</time>
      </trkpt>
      <trkpt lat="41.0155120" lon="0.5159470">
        <ele>180.9</ele>
        <time>2020-08-07T15:17:30Z</time>
      </trkpt>
      <trkpt lat="41.0156160" lon="0.5158380">
        <ele>180.9</ele>
        <time>2020-08-07T15:18:05Z</time>
      </trkpt>
      <trkpt lat="41.0156590" lon="0.5157990">
        <ele>181.0</ele>
        <time>2020-08-07T15:18:07Z</time>
      </trkpt>
      <trkpt lat="41.0156690" lon="0.5157900">
        <ele>181.0</ele>
        <time>2020-08-07T15:18:08Z</time>
      </trkpt>
      <trkpt lat="41.0156310" lon="0.5158190">
        <ele>181.0</ele>
        <time>2020-08-07T15:18:09Z</time>
      </trkpt>
      <trkpt lat="41.0156210" lon="0.5158260">
        <ele>181.0</ele>
        <time>2020-08-07T15:18:10Z</time>
      </trkpt>
      <trkpt lat="41.0156100" lon="0.5158320">
        <ele>181.0</ele>
        <time>2020-08-07T15:18:11Z</time>
      </trkpt>
      <trkpt lat="41.0156040" lon="0.5158340">
        <ele>181.0</ele>
        <time>2020-08-07T15:18:12Z</time>
      </trkpt>
      <trkpt lat="41.0155880" lon="0.5158280">
        <ele>181.0</ele>
        <time>2020-08-07T15:18:14Z</time>
      </trkpt>
      <trkpt lat="41.0155830" lon="0.5158260">
        <ele>181.0</ele>
        <time>2020-08-07T15:18:15Z</time>
      </trkpt>
      <trkpt lat="41.0155790" lon="0.5158210">
        <ele>181.0</ele>
        <time>2020-08-07T15:18:16Z</time>
      </trkpt>
      <trkpt lat="41.0155690" lon="0.5158190">
        <ele>181.0</ele>
        <time>2020-08-07T15:18:18Z</time>
      </trkpt>
      <trkpt lat="41.0155620" lon="0.5158170">
        <ele>181.0</ele>
        <time>2020-08-07T15:18:20Z</time>
      </trkpt>
      <trkpt lat="41.0155620" lon="0.5158150">
        <ele>181.0</ele>
        <time>2020-08-07T15:18:21Z</time>
      </trkpt>
      <trkpt lat="41.0155630" lon="0.5158170">
        <ele>181.0</ele>
        <time>2020-08-07T15:18:22Z</time>
      </trkpt>
      <trkpt lat="41.0155630" lon="0.5158180">
        <ele>181.0</ele>
        <time>2020-08-07T15:18:23Z</time>
      </trkpt>
      <trkpt lat="41.0155630" lon="0.5158230">
        <ele>181.0</ele>
        <time>2020-08-07T15:18:25Z</time>
      </trkpt>
      <trkpt lat="41.0155610" lon="0.5158280">
        <ele>181.0</ele>
        <time>2020-08-07T15:18:26Z</time>
      </trkpt>
      <trkpt lat="41.0155590" lon="0.5158320">
        <ele>181.0</ele>
        <time>2020-08-07T15:18:27Z</time>
      </trkpt>
      <trkpt lat="41.0155550" lon="0.5158380">
        <ele>181.0</ele>
        <time>2020-08-07T15:18:29Z</time>
      </trkpt>
      <trkpt lat="41.0155080" lon="0.5159550">
        <ele>181.1</ele>
        <time>2020-08-07T15:18:48Z</time>
      </trkpt>
      <trkpt lat="41.0154980" lon="0.5159850">
        <ele>181.1</ele>
        <time>2020-08-07T15:18:50Z</time>
      </trkpt>
      <trkpt lat="41.0154980" lon="0.5159880">
        <ele>181.1</ele>
        <time>2020-08-07T15:18:51Z</time>
      </trkpt>
      <trkpt lat="41.0154990" lon="0.5159850">
        <ele>181.1</ele>
        <time>2020-08-07T15:18:53Z</time>
      </trkpt>
      <trkpt lat="41.0154990" lon="0.5159830">
        <ele>181.1</ele>
        <time>2020-08-07T15:18:54Z</time>
      </trkpt>
      <trkpt lat="41.0155000" lon="0.5159820">
        <ele>181.1</ele>
        <time>2020-08-07T15:18:55Z</time>
      </trkpt>
      <trkpt lat="41.0155070" lon="0.5159980">
        <ele>181.1</ele>
        <time>2020-08-07T15:18:57Z</time>
      </trkpt>
      <trkpt lat="41.0155080" lon="0.5160020">
        <ele>181.1</ele>
        <time>2020-08-07T15:18:58Z</time>
      </trkpt>
      <trkpt lat="41.0155000" lon="0.5160030">
        <ele>181.1</ele>
        <time>2020-08-07T15:18:59Z</time>
      </trkpt>
      <trkpt lat="41.0154890" lon="0.5160040">
        <ele>181.1</ele>
        <time>2020-08-07T15:19:00Z</time>
      </trkpt>
      <trkpt lat="41.0154760" lon="0.5160000">
        <ele>181.1</ele>
        <time>2020-08-07T15:19:06Z</time>
      </trkpt>
      <trkpt lat="41.0154800" lon="0.5160000">
        <ele>181.1</ele>
        <time>2020-08-07T15:19:07Z</time>
      </trkpt>
      <trkpt lat="41.0154830" lon="0.5160010">
        <ele>181.1</ele>
        <time>2020-08-07T15:19:09Z</time>
      </trkpt>
      <trkpt lat="41.0154850" lon="0.5160010">
        <ele>181.1</ele>
        <time>2020-08-07T15:19:10Z</time>
      </trkpt>
      <trkpt lat="41.0155100" lon="0.5159990">
        <ele>181.2</ele>
        <time>2020-08-07T16:12:07Z</time>
      </trkpt>
      <trkpt lat="41.0155240" lon="0.5159980">
        <ele>181.2</ele>
        <time>2020-08-07T16:12:08Z</time>
      </trkpt>
      <trkpt lat="41.0155400" lon="0.5159970">
        <ele>181.2</ele>
        <time>2020-08-07T16:12:09Z</time>
      </trkpt>
      <trkpt lat="41.0155860" lon="0.5159980">
        <ele>181.2</ele>
        <time>2020-08-07T16:12:11Z</time>
      </trkpt>
      <trkpt lat="41.0155980" lon="0.5159970">
        <ele>181.2</ele>
        <time>2020-08-07T16:12:12Z</time>
      </trkpt>
      <trkpt lat="41.0156110" lon="0.5159970">
        <ele>181.2</ele>
        <time>2020-08-07T16:12:13Z</time>
      </trkpt>
      <trkpt lat="41.0156300" lon="0.5159950">
        <ele>181.2</ele>
        <time>2020-08-07T16:12:14Z</time>
      </trkpt>
      <trkpt lat="41.0156690" lon="0.5159930">
        <ele>181.2</ele>
        <time>2020-08-07T16:12:16Z</time>
      </trkpt>
      <trkpt lat="41.0156820" lon="0.5159910">
        <ele>181.2</ele>
        <time>2020-08-07T16:12:17Z</time>
      </trkpt>
      <trkpt lat="41.0157080" lon="0.5159830">
        <ele>181.3</ele>
        <time>2020-08-07T16:12:19Z</time>
      </trkpt>
      <trkpt lat="41.0157430" lon="0.5159680">
        <ele>181.3</ele>
        <time>2020-08-07T16:12:21Z</time>
      </trkpt>
      <trkpt lat="41.0157520" lon="0.5159640">
        <ele>181.3</ele>
        <time>2020-08-07T16:12:22Z</time>
      </trkpt>
      <trkpt lat="41.0157550" lon="0.5159600">
        <ele>181.3</ele>
        <time>2020-08-07T16:12:23Z</time>
      </trkpt>
      <trkpt lat="41.0157550" lon="0.5159590">
        <ele>181.3</ele>
        <time>2020-08-07T16:12:24Z</time>
      </trkpt>
      <trkpt lat="41.0157530" lon="0.5159590">
        <ele>181.3</ele>
        <time>2020-08-07T16:12:26Z</time>
      </trkpt>
      <trkpt lat="41.0157510" lon="0.5159600">
        <ele>181.3</ele>
        <time>2020-08-07T16:12:27Z</time>
      </trkpt>
      <trkpt lat="41.0157500" lon="0.5159600">
        <ele>181.3</ele>
        <time>2020-08-07T16:12:28Z</time>
      </trkpt>
      <trkpt lat="41.0157500" lon="0.5159610">
        <ele>181.3</ele>
        <time>2020-08-07T16:12:29Z</time>
      </trkpt>
      <trkpt lat="41.0157490" lon="0.5159610">
        <ele>181.3</ele>
        <time>2020-08-07T16:12:31Z</time>
      </trkpt>
      <trkpt lat="41.0157490" lon="0.5159610">
        <ele>181.3</ele>
        <time>2020-08-07T16:12:32Z</time>
      </trkpt>
      <trkpt lat="41.0157500" lon="0.5159610">
        <ele>181.3</ele>
        <time>2020-08-07T16:12:33Z</time>
      </trkpt>
      <trkpt lat="41.0157500" lon="0.5159610">
        <ele>181.3</ele>
        <time>2020-08-07T16:12:34Z</time>
      </trkpt>
      <trkpt lat="41.0157050" lon="0.5159520">
        <ele>181.3</ele>
        <time>2020-08-07T16:16:24Z</time>
      </trkpt>
      <trkpt lat="41.0156960" lon="0.5159440">
        <ele>181.3</ele>
        <time>2020-08-07T16:16:25Z</time>
      </trkpt>
      <trkpt lat="41.0156890" lon="0.5159350">
        <ele>181.3</ele>
        <time>2020-08-07T16:16:26Z</time>
      </trkpt>
      <trkpt lat="41.0156820" lon="0.5159230">
        <ele>181.3</ele>
        <time>2020-08-07T16:16:27Z</time>
      </trkpt>
      <trkpt lat="41.0156750" lon="0.5158990">
        <ele>181.3</ele>
        <time>2020-08-07T16:16:29Z</time>
      </trkpt>
      <trkpt lat="41.0156750" lon="0.5158510">
        <ele>181.1</ele>
        <time>2020-08-07T16:16:31Z</time>
      </trkpt>
      <trkpt lat="41.0156740" lon="0.5158290">
        <ele>181.2</ele>
        <time>2020-08-07T16:16:32Z</time>
      </trkpt>
      <trkpt lat="41.0156730" lon="0.5158130">
        <ele>181.3</ele>
        <time>2020-08-07T16:16:33Z</time>
      </trkpt>
      <trkpt lat="41.0156700" lon="0.5157830">
        <ele>181.4</ele>
        <time>2020-08-07T16:16:35Z</time>
      </trkpt>
      <trkpt lat="41.0156670" lon="0.5157700">
        <ele>181.4</ele>
        <time>2020-08-07T16:16:36Z</time>
      </trkpt>
      <trkpt lat="41.0156590" lon="0.5157520">
        <ele>181.5</ele>
        <time>2020-08-07T16:16:37Z</time>
      </trkpt>
      <trkpt lat="41.0156330" lon="0.5157070">
        <ele>181.8</ele>
        <time>2020-08-07T16:16:39Z</time>
      </trkpt>
      <trkpt lat="41.0156210" lon="0.5156870">
        <ele>181.9</ele>
        <time>2020-08-07T16:16:40Z</time>
      </trkpt>
      <trkpt lat="41.0156030" lon="0.5156480">
        <ele>182.1</ele>
        <time>2020-08-07T16:16:42Z</time>
      </trkpt>
      <trkpt lat="41.0155890" lon="0.5156050">
        <ele>182.4</ele>
        <time>2020-08-07T16:16:44Z</time>
      </trkpt>
      <trkpt lat="41.0155830" lon="0.5155820">
        <ele>182.5</ele>
        <time>2020-08-07T16:16:45Z</time>
      </trkpt>
      <trkpt lat="41.0155640" lon="0.5155390">
        <ele>182.8</ele>
        <time>2020-08-07T16:16:47Z</time>
      </trkpt>
      <trkpt lat="41.0155420" lon="0.5155140">
        <ele>183.1</ele>
        <time>2020-08-07T16:16:48Z</time>
      </trkpt>
      <trkpt lat="41.0155340" lon="0.5155070">
        <ele>183.2</ele>
        <time>2020-08-07T16:16:49Z</time>
      </trkpt>
      <trkpt lat="41.0155040" lon="0.5154770">
        <ele>183.5</ele>
        <time>2020-08-07T16:16:51Z</time>
      </trkpt>
      <trkpt lat="41.0154870" lon="0.5154400">
        <ele>183.8</ele>
        <time>2020-08-07T16:16:53Z</time>
      </trkpt>
      <trkpt lat="41.0154770" lon="0.5154230">
        <ele>183.9</ele>
        <time>2020-08-07T16:16:54Z</time>
      </trkpt>
      <trkpt lat="41.0154480" lon="0.5153980">
        <ele>184.3</ele>
        <time>2020-08-07T16:16:56Z</time>
      </trkpt>
      <trkpt lat="41.0154310" lon="0.5153780">
        <ele>184.5</ele>
        <time>2020-08-07T16:16:58Z</time>
      </trkpt>
      <trkpt lat="41.0154250" lon="0.5153620">
        <ele>184.6</ele>
        <time>2020-08-07T16:16:59Z</time>
      </trkpt>
      <trkpt lat="41.0154230" lon="0.5153450">
        <ele>184.7</ele>
        <time>2020-08-07T16:17:00Z</time>
      </trkpt>
      <trkpt lat="41.0154250" lon="0.5153240">
        <ele>184.9</ele>
        <time>2020-08-07T16:17:01Z</time>
      </trkpt>
      <trkpt lat="41.0154260" lon="0.5153030">
        <ele>185.0</ele>
        <time>2020-08-07T16:17:02Z</time>
      </trkpt>
      <trkpt lat="41.0154260" lon="0.5152810">
        <ele>185.2</ele>
        <time>2020-08-07T16:17:03Z</time>
      </trkpt>
      <trkpt lat="41.0154260" lon="0.5152610">
        <ele>185.3</ele>
        <time>2020-08-07T16:17:04Z</time>
      </trkpt>
      <trkpt lat="41.0154260" lon="0.5152450">
        <ele>185.8</ele>
        <time>2020-08-07T16:17:05Z</time>
      </trkpt>
      <trkpt lat="41.0154270" lon="0.5152240">
        <ele>186.0</ele>
        <time>2020-08-07T16:17:07Z</time>
      </trkpt>
      <trkpt lat="41.0154290" lon="0.5152140">
        <ele>186.0</ele>
        <time>2020-08-07T16:17:08Z</time>
      </trkpt>
      <trkpt lat="41.0154330" lon="0.5152070">
        <ele>186.1</ele>
        <time>2020-08-07T16:17:09Z</time>
      </trkpt>
      <trkpt lat="41.0154430" lon="0.5151840">
        <ele>186.3</ele>
        <time>2020-08-07T16:17:11Z</time>
      </trkpt>
      <trkpt lat="41.0154480" lon="0.5151730">
        <ele>186.4</ele>
        <time>2020-08-07T16:17:12Z</time>
      </trkpt>
      <trkpt lat="41.0154790" lon="0.5151470">
        <ele>186.7</ele>
        <time>2020-08-07T16:17:14Z</time>
      </trkpt>
      <trkpt lat="41.0155190" lon="0.5151240">
        <ele>187.1</ele>
        <time>2020-08-07T16:17:16Z</time>
      </trkpt>
      <trkpt lat="41.0155490" lon="0.5151280">
        <ele>187.3</ele>
        <time>2020-08-07T16:17:17Z</time>
      </trkpt>
      <trkpt lat="41.0155580" lon="0.5151320">
        <ele>187.4</ele>
        <time>2020-08-07T16:17:18Z</time>
      </trkpt>
      <trkpt lat="41.0155770" lon="0.5151410">
        <ele>187.6</ele>
        <time>2020-08-07T16:17:19Z</time>
      </trkpt>
      <trkpt lat="41.0156110" lon="0.5151600">
        <ele>187.5</ele>
        <time>2020-08-07T16:17:21Z</time>
      </trkpt>
      <trkpt lat="41.0156370" lon="0.5151790">
        <ele>187.5</ele>
        <time>2020-08-07T16:17:23Z</time>
      </trkpt>
      <trkpt lat="41.0156460" lon="0.5151940">
        <ele>187.4</ele>
        <time>2020-08-07T16:17:24Z</time>
      </trkpt>
      <trkpt lat="41.0156530" lon="0.5152130">
        <ele>187.4</ele>
        <time>2020-08-07T16:17:25Z</time>
      </trkpt>
      <trkpt lat="41.0156680" lon="0.5152630">
        <ele>187.3</ele>
        <time>2020-08-07T16:17:27Z</time>
      </trkpt>
      <trkpt lat="41.0156800" lon="0.5153050">
        <ele>187.2</ele>
        <time>2020-08-07T16:17:29Z</time>
      </trkpt>
      <trkpt lat="41.0156870" lon="0.5153140">
        <ele>187.2</ele>
        <time>2020-08-07T16:17:30Z</time>
      </trkpt>
      <trkpt lat="41.0157020" lon="0.5153250">
        <ele>187.2</ele>
        <time>2020-08-07T16:17:32Z</time>
      </trkpt>
      <trkpt lat="41.0157070" lon="0.5153290">
        <ele>187.2</ele>
        <time>2020-08-07T16:17:33Z</time>
      </trkpt>
      <trkpt lat="41.0157330" lon="0.5153580">
        <ele>187.2</ele>
        <time>2020-08-07T16:17:35Z</time>
      </trkpt>
      <trkpt lat="41.0157420" lon="0.5153660">
        <ele>187.2</ele>
        <time>2020-08-07T16:17:36Z</time>
      </trkpt>
      <trkpt lat="41.0157630" lon="0.5153800">
        <ele>187.2</ele>
        <time>2020-08-07T16:17:37Z</time>
      </trkpt>
      <trkpt lat="41.0157980" lon="0.5154020">
        <ele>187.3</ele>
        <time>2020-08-07T16:17:39Z</time>
      </trkpt>
      <trkpt lat="41.0158310" lon="0.5154160">
        <ele>187.3</ele>
        <time>2020-08-07T16:17:41Z</time>
      </trkpt>
      <trkpt lat="41.0158480" lon="0.5154240">
        <ele>187.3</ele>
        <time>2020-08-07T16:17:42Z</time>
      </trkpt>
      <trkpt lat="41.0158810" lon="0.5154390">
        <ele>187.3</ele>
        <time>2020-08-07T16:17:44Z</time>
      </trkpt>
      <trkpt lat="41.0158980" lon="0.5154480">
        <ele>187.3</ele>
        <time>2020-08-07T16:17:45Z</time>
      </trkpt>
      <trkpt lat="41.0159250" lon="0.5154600">
        <ele>187.3</ele>
        <time>2020-08-07T16:17:47Z</time>
      </trkpt>
      <trkpt lat="41.0159410" lon="0.5154610">
        <ele>187.3</ele>
        <time>2020-08-07T16:17:48Z</time>
      </trkpt>
      <trkpt lat="41.0159610" lon="0.5154580">
        <ele>187.3</ele>
        <time>2020-08-07T16:17:49Z</time>
      </trkpt>
      <trkpt lat="41.0159820" lon="0.5154520">
        <ele>187.3</ele>
        <time>2020-08-07T16:17:51Z</time>
      </trkpt>
      <trkpt lat="41.0159890" lon="0.5154530">
        <ele>187.2</ele>
        <time>2020-08-07T16:17:52Z</time>
      </trkpt>
      <trkpt lat="41.0159980" lon="0.5154540">
        <ele>187.2</ele>
        <time>2020-08-07T16:17:53Z</time>
      </trkpt>
      <trkpt lat="41.0160160" lon="0.5154510">
        <ele>187.0</ele>
        <time>2020-08-07T16:17:55Z</time>
      </trkpt>
      <trkpt lat="41.0160180" lon="0.5154500">
        <ele>187.0</ele>
        <time>2020-08-07T16:17:57Z</time>
      </trkpt>
      <trkpt lat="41.0160140" lon="0.5154490">
        <ele>187.0</ele>
        <time>2020-08-07T16:17:58Z</time>
      </trkpt>
      <trkpt lat="41.0160000" lon="0.5154500">
        <ele>186.9</ele>
        <time>2020-08-07T16:18:00Z</time>
      </trkpt>
      <trkpt lat="41.0159890" lon="0.5154550">
        <ele>186.9</ele>
        <time>2020-08-07T16:18:02Z</time>
      </trkpt>
      <trkpt lat="41.0159870" lon="0.5154580">
        <ele>186.8</ele>
        <time>2020-08-07T16:18:03Z</time>
      </trkpt>
      <trkpt lat="41.0159870" lon="0.5154610">
        <ele>186.8</ele>
        <time>2020-08-07T16:18:04Z</time>
      </trkpt>
      <trkpt lat="41.0159900" lon="0.5154670">
        <ele>186.8</ele>
        <time>2020-08-07T16:18:06Z</time>
      </trkpt>
      <trkpt lat="41.0159890" lon="0.5154710">
        <ele>186.8</ele>
        <time>2020-08-07T16:18:07Z</time>
      </trkpt>
      <trkpt lat="41.0159870" lon="0.5154770">
        <ele>186.7</ele>
        <time>2020-08-07T16:18:09Z</time>
      </trkpt>
      <trkpt lat="41.0159870" lon="0.5154790">
        <ele>186.7</ele>
        <time>2020-08-07T16:18:10Z</time>
      </trkpt>
      <trkpt lat="41.0159870" lon="0.5154800">
        <ele>186.7</ele>
        <time>2020-08-07T16:18:11Z</time>
      </trkpt>
      <trkpt lat="41.0159880" lon="0.5154810">
        <ele>186.7</ele>
        <time>2020-08-07T16:18:12Z</time>
      </trkpt>
      <trkpt lat="41.0159890" lon="0.5154820">
        <ele>186.7</ele>
        <time>2020-08-07T16:18:13Z</time>
      </trkpt>
      <trkpt lat="41.0159900" lon="0.5154810">
        <ele>186.7</ele>
        <time>2020-08-07T16:18:15Z</time>
      </trkpt>
      <trkpt lat="41.0159640" lon="0.5155130">
        <ele>186.5</ele>
        <time>2020-08-07T16:24:13Z</time>
      </trkpt>
      <trkpt lat="41.0159660" lon="0.5155100">
        <ele>186.5</ele>
        <time>2020-08-07T16:24:15Z</time>
      </trkpt>
      <trkpt lat="41.0159690" lon="0.5155070">
        <ele>186.4</ele>
        <time>2020-08-07T16:24:17Z</time>
      </trkpt>
      <trkpt lat="41.0159680" lon="0.5155050">
        <ele>186.4</ele>
        <time>2020-08-07T16:24:18Z</time>
      </trkpt>
      <trkpt lat="41.0159700" lon="0.5155040">
        <ele>186.4</ele>
        <time>2020-08-07T16:24:20Z</time>
      </trkpt>
      <trkpt lat="41.0159710" lon="0.5155030">
        <ele>186.4</ele>
        <time>2020-08-07T16:24:21Z</time>
      </trkpt>
      <trkpt lat="41.0159720" lon="0.5155030">
        <ele>186.4</ele>
        <time>2020-08-07T16:24:22Z</time>
      </trkpt>
      <trkpt lat="41.0159720" lon="0.5155030">
        <ele>186.4</ele>
        <time>2020-08-07T16:24:23Z</time>
      </trkpt>
      <trkpt lat="41.0159720" lon="0.5155030">
        <ele>186.4</ele>
        <time>2020-08-07T16:24:25Z</time>
      </trkpt>
      <trkpt lat="41.0159720" lon="0.5155030">
        <ele>186.4</ele>
        <time>2020-08-07T16:24:26Z</time>
      </trkpt>
      <trkpt lat="41.0159720" lon="0.5155030">
        <ele>186.4</ele>
        <time>2020-08-07T16:24:27Z</time>
      </trkpt>
      <trkpt lat="41.0159720" lon="0.5155020">
        <ele>186.4</ele>
        <time>2020-08-07T16:24:28Z</time>
      </trkpt>
      <trkpt lat="41.0159720" lon="0.5155020">
        <ele>186.4</ele>
        <time>2020-08-07T16:24:29Z</time>
      </trkpt>
      <trkpt lat="41.0159720" lon="0.5155020">
        <ele>186.4</ele>
        <time>2020-08-07T16:24:30Z</time>
      </trkpt>
      <trkpt lat="41.0159720" lon="0.5155020">
        <ele>186.4</ele>
        <time>2020-08-07T16:24:31Z</time>
      </trkpt>
      <trkpt lat="41.0159720" lon="0.5155020">
        <ele>186.4</ele>
        <time>2020-08-07T16:24:33Z</time>
      </trkpt>
      <trkpt lat="41.0159720" lon="0.5155020">
        <ele>186.4</ele>
        <time>2020-08-07T16:24:35Z</time>
      </trkpt>
      <trkpt lat="41.0159720" lon="0.5155020">
        <ele>186.4</ele>
        <time>2020-08-07T16:24:37Z</time>
      </trkpt>
      <trkpt lat="41.0159720" lon="0.5155020">
        <ele>186.4</ele>
        <time>2020-08-07T16:24:39Z</time>
      </trkpt>
      <trkpt lat="41.0159720" lon="0.5155020">
        <ele>186.4</ele>
        <time>2020-08-07T16:24:40Z</time>
      </trkpt>
      <trkpt lat="41.0159720" lon="0.5155020">
        <ele>186.4</ele>
        <time>2020-08-07T16:24:42Z</time>
      </trkpt>
      <trkpt lat="41.0159720" lon="0.5155020">
        <ele>186.4</ele>
        <time>2020-08-07T16:24:44Z</time>
      </trkpt>
      <trkpt lat="41.0159720" lon="0.5155020">
        <ele>186.4</ele>
        <time>2020-08-07T16:24:45Z</time>
      </trkpt>
      <trkpt lat="41.0159720" lon="0.5155020">
        <ele>186.4</ele>
        <time>2020-08-07T16:24:46Z</time>
      </trkpt>
      <trkpt lat="41.0159730" lon="0.5155020">
        <ele>186.4</ele>
        <time>2020-08-07T16:24:48Z</time>
      </trkpt>
      <trkpt lat="41.0159730" lon="0.5155020">
        <ele>186.4</ele>
        <time>2020-08-07T16:24:49Z</time>
      </trkpt>
      <trkpt lat="41.0159730" lon="0.5155020">
        <ele>186.4</ele>
        <time>2020-08-07T16:24:50Z</time>
      </trkpt>
      <trkpt lat="41.0159740" lon="0.5155010">
        <ele>186.4</ele>
        <time>2020-08-07T16:24:51Z</time>
      </trkpt>
      <trkpt lat="41.0159740" lon="0.5155000">
        <ele>186.4</ele>
        <time>2020-08-07T16:24:53Z</time>
      </trkpt>
      <trkpt lat="41.0159750" lon="0.5154990">
        <ele>186.4</ele>
        <time>2020-08-07T16:24:55Z</time>
      </trkpt>
      <trkpt lat="41.0159750" lon="0.5154990">
        <ele>186.4</ele>
        <time>2020-08-07T16:24:57Z</time>
      </trkpt>
      <trkpt lat="41.0159750" lon="0.5154990">
        <ele>186.4</ele>
        <time>2020-08-07T16:24:58Z</time>
      </trkpt>
      <trkpt lat="41.0159750" lon="0.5154990">
        <ele>186.4</ele>
        <time>2020-08-07T16:25:00Z</time>
      </trkpt>
      <trkpt lat="41.0159750" lon="0.5154990">
        <ele>186.4</ele>
        <time>2020-08-07T16:25:02Z</time>
      </trkpt>
      <trkpt lat="41.0159750" lon="0.5154990">
        <ele>186.4</ele>
        <time>2020-08-07T16:25:08Z</time>
      </trkpt>
      <trkpt lat="41.0159750" lon="0.5154990">
        <ele>186.4</ele>
        <time>2020-08-07T16:25:09Z</time>
      </trkpt>
      <trkpt lat="41.0159750" lon="0.5154990">
        <ele>186.4</ele>
        <time>2020-08-07T16:25:11Z</time>
      </trkpt>
      <trkpt lat="41.0159750" lon="0.5154990">
        <ele>186.4</ele>
        <time>2020-08-07T16:25:12Z</time>
      </trkpt>
      <trkpt lat="41.0159750" lon="0.5154990">
        <ele>186.4</ele>
        <time>2020-08-07T16:25:14Z</time>
      </trkpt>
      <trkpt lat="41.0159750" lon="0.5154990">
        <ele>186.4</ele>
        <time>2020-08-07T16:25:15Z</time>
      </trkpt>
      <trkpt lat="41.0159750" lon="0.5154990">
        <ele>186.4</ele>
        <time>2020-08-07T16:25:16Z</time>
      </trkpt>
      <trkpt lat="41.0159750" lon="0.5154990">
        <ele>186.4</ele>
        <time>2020-08-07T16:25:18Z</time>
      </trkpt>
      <trkpt lat="41.0159750" lon="0.5154990">
        <ele>186.4</ele>
        <time>2020-08-07T16:25:19Z</time>
      </trkpt>
      <trkpt lat="41.0159750" lon="0.5154990">
        <ele>186.4</ele>
        <time>2020-08-07T16:25:20Z</time>
      </trkpt>
      <trkpt lat="41.0159750" lon="0.5154990">
        <ele>186.4</ele>
        <time>2020-08-07T16:25:22Z</time>
      </trkpt>
      <trkpt lat="41.0159750" lon="0.5154990">
        <ele>186.4</ele>
        <time>2020-08-07T16:25:23Z</time>
      </trkpt>
      <trkpt lat="41.0159750" lon="0.5154990">
        <ele>186.4</ele>
        <time>2020-08-07T16:25:24Z</time>
      </trkpt>
      <trkpt lat="41.0159750" lon="0.5154990">
        <ele>186.4</ele>
        <time>2020-08-07T16:25:25Z</time>
      </trkpt>
      <trkpt lat="41.0159750" lon="0.5154990">
        <ele>186.4</ele>
        <time>2020-08-07T16:25:26Z</time>
      </trkpt>
      <trkpt lat="41.0159750" lon="0.5154990">
        <ele>186.4</ele>
        <time>2020-08-07T16:25:28Z</time>
      </trkpt>
      <trkpt lat="41.0159750" lon="0.5154990">
        <ele>186.4</ele>
        <time>2020-08-07T16:25:29Z</time>
      </trkpt>
      <trkpt lat="41.0159750" lon="0.5154990">
        <ele>186.4</ele>
        <time>2020-08-07T16:25:30Z</time>
      </trkpt>
      <trkpt lat="41.0159750" lon="0.5154990">
        <ele>186.4</ele>
        <time>2020-08-07T16:25:31Z</time>
      </trkpt>
      <trkpt lat="41.0159750" lon="0.5155000">
        <ele>186.4</ele>
        <time>2020-08-07T16:25:33Z</time>
      </trkpt>
      <trkpt lat="41.0159750" lon="0.5155000">
        <ele>186.4</ele>
        <time>2020-08-07T16:25:35Z</time>
      </trkpt>
      <trkpt lat="41.0159750" lon="0.5155000">
        <ele>186.4</ele>
        <time>2020-08-07T16:25:36Z</time>
      </trkpt>
      <trkpt lat="41.0159750" lon="0.5155000">
        <ele>186.4</ele>
        <time>2020-08-07T16:25:37Z</time>
      </trkpt>
      <trkpt lat="41.0159750" lon="0.5155000">
        <ele>186.4</ele>
        <time>2020-08-07T16:25:39Z</time>
      </trkpt>
      <trkpt lat="41.0159750" lon="0.5155000">
        <ele>186.4</ele>
        <time>2020-08-07T16:25:40Z</time>
      </trkpt>
      <trkpt lat="41.0159750" lon="0.5155000">
        <ele>186.4</ele>
        <time>2020-08-07T16:25:41Z</time>
      </trkpt>
      <trkpt lat="41.0159750" lon="0.5155000">
        <ele>186.4</ele>
        <time>2020-08-07T16:25:42Z</time>
      </trkpt>
      <trkpt lat="41.0159740" lon="0.5154990">
        <ele>186.4</ele>
        <time>2020-08-07T16:25:44Z</time>
      </trkpt>
      <trkpt lat="41.0159740" lon="0.5154990">
        <ele>186.4</ele>
        <time>2020-08-07T16:25:45Z</time>
      </trkpt>
      <trkpt lat="41.0159740" lon="0.5154990">
        <ele>186.4</ele>
        <time>2020-08-07T16:25:46Z</time>
      </trkpt>
      <trkpt lat="41.0159730" lon="0.5154990">
        <ele>186.4</ele>
        <time>2020-08-07T16:25:48Z</time>
      </trkpt>
      <trkpt lat="41.0159730" lon="0.5154990">
        <ele>186.4</ele>
        <time>2020-08-07T16:25:50Z</time>
      </trkpt>
      <trkpt lat="41.0159730" lon="0.5154990">
        <ele>186.4</ele>
        <time>2020-08-07T16:25:51Z</time>
      </trkpt>
      <trkpt lat="41.0159730" lon="0.5154990">
        <ele>186.4</ele>
        <time>2020-08-07T16:25:52Z</time>
      </trkpt>
      <trkpt lat="41.0159730" lon="0.5154990">
        <ele>186.4</ele>
        <time>2020-08-07T16:25:53Z</time>
      </trkpt>
      <trkpt lat="41.0159730" lon="0.5154990">
        <ele>186.4</ele>
        <time>2020-08-07T16:25:55Z</time>
      </trkpt>
      <trkpt lat="41.0159730" lon="0.5154990">
        <ele>186.4</ele>
        <time>2020-08-07T16:25:56Z</time>
      </trkpt>
      <trkpt lat="41.0159730" lon="0.5154990">
        <ele>186.4</ele>
        <time>2020-08-07T16:25:57Z</time>
      </trkpt>
      <trkpt lat="41.0159730" lon="0.5154990">
        <ele>186.4</ele>
        <time>2020-08-07T16:25:58Z</time>
      </trkpt>
      <trkpt lat="41.0159730" lon="0.5154990">
        <ele>186.4</ele>
        <time>2020-08-07T16:26:00Z</time>
      </trkpt>
      <trkpt lat="41.0159730" lon="0.5154990">
        <ele>186.4</ele>
        <time>2020-08-07T16:26:02Z</time>
      </trkpt>
      <trkpt lat="41.0159730" lon="0.5154990">
        <ele>186.4</ele>
        <time>2020-08-07T16:26:03Z</time>
      </trkpt>
      <trkpt lat="41.0159730" lon="0.5154990">
        <ele>186.4</ele>
        <time>2020-08-07T16:26:04Z</time>
      </trkpt>
      <trkpt lat="41.0159730" lon="0.5154990">
        <ele>186.4</ele>
        <time>2020-08-07T16:26:06Z</time>
      </trkpt>
      <trkpt lat="41.0159730" lon="0.5154990">
        <ele>186.4</ele>
        <time>2020-08-07T16:26:08Z</time>
      </trkpt>
      <trkpt lat="41.0159730" lon="0.5154990">
        <ele>186.4</ele>
        <time>2020-08-07T16:26:09Z</time>
      </trkpt>
      <trkpt lat="41.0159730" lon="0.5154990">
        <ele>186.4</ele>
        <time>2020-08-07T16:26:10Z</time>
      </trkpt>
      <trkpt lat="41.0159730" lon="0.5155000">
        <ele>186.4</ele>
        <time>2020-08-07T16:26:11Z</time>
      </trkpt>
      <trkpt lat="41.0159730" lon="0.5155000">
        <ele>186.4</ele>
        <time>2020-08-07T16:26:13Z</time>
      </trkpt>
      <trkpt lat="41.0159730" lon="0.5155000">
        <ele>186.4</ele>
        <time>2020-08-07T16:26:15Z</time>
      </trkpt>
      <trkpt lat="41.0159730" lon="0.5155000">
        <ele>186.4</ele>
        <time>2020-08-07T16:26:17Z</time>
      </trkpt>
      <trkpt lat="41.0159730" lon="0.5155000">
        <ele>186.4</ele>
        <time>2020-08-07T16:26:19Z</time>
      </trkpt>
      <trkpt lat="41.0159730" lon="0.5155000">
        <ele>186.4</ele>
        <time>2020-08-07T16:26:21Z</time>
      </trkpt>
      <trkpt lat="41.0159730" lon="0.5155000">
        <ele>186.4</ele>
        <time>2020-08-07T16:26:22Z</time>
      </trkpt>
      <trkpt lat="41.0159730" lon="0.5155000">
        <ele>186.4</ele>
        <time>2020-08-07T16:26:24Z</time>
      </trkpt>
      <trkpt lat="41.0159730" lon="0.5155000">
        <ele>186.4</ele>
        <time>2020-08-07T16:26:26Z</time>
      </trkpt>
      <trkpt lat="41.0159730" lon="0.5155000">
        <ele>186.4</ele>
        <time>2020-08-07T16:26:28Z</time>
      </trkpt>
      <trkpt lat="41.0159730" lon="0.5155000">
        <ele>186.4</ele>
        <time>2020-08-07T16:26:29Z</time>
      </trkpt>
      <trkpt lat="41.0159730" lon="0.5155000">
        <ele>186.4</ele>
        <time>2020-08-07T16:26:31Z</time>
      </trkpt>
      <trkpt lat="41.0159730" lon="0.5155000">
        <ele>186.4</ele>
        <time>2020-08-07T16:26:32Z</time>
      </trkpt>
      <trkpt lat="41.0159730" lon="0.5155000">
        <ele>186.4</ele>
        <time>2020-08-07T16:26:33Z</time>
      </trkpt>
      <trkpt lat="41.0159730" lon="0.5155000">
        <ele>186.4</ele>
        <time>2020-08-07T16:26:35Z</time>
      </trkpt>
      <trkpt lat="41.0159730" lon="0.5155000">
        <ele>186.4</ele>
        <time>2020-08-07T16:26:36Z</time>
      </trkpt>
      <trkpt lat="41.0159730" lon="0.5155000">
        <ele>186.4</ele>
        <time>2020-08-07T16:26:38Z</time>
      </trkpt>
      <trkpt lat="41.0159730" lon="0.5155000">
        <ele>186.4</ele>
        <time>2020-08-07T16:26:40Z</time>
      </trkpt>
      <trkpt lat="41.0159730" lon="0.5155000">
        <ele>186.4</ele>
        <time>2020-08-07T16:26:41Z</time>
      </trkpt>
      <trkpt lat="41.0159730" lon="0.5155000">
        <ele>186.4</ele>
        <time>2020-08-07T16:26:42Z</time>
      </trkpt>
      <trkpt lat="41.0159730" lon="0.5155000">
        <ele>186.4</ele>
        <time>2020-08-07T16:26:43Z</time>
      </trkpt>
      <trkpt lat="41.0159730" lon="0.5155000">
        <ele>186.4</ele>
        <time>2020-08-07T16:26:45Z</time>
      </trkpt>
      <trkpt lat="41.0159730" lon="0.5155000">
        <ele>186.4</ele>
        <time>2020-08-07T16:26:47Z</time>
      </trkpt>
      <trkpt lat="41.0159730" lon="0.5155000">
        <ele>186.4</ele>
        <time>2020-08-07T16:26:48Z</time>
      </trkpt>
      <trkpt lat="41.0159730" lon="0.5155000">
        <ele>186.4</ele>
        <time>2020-08-07T16:26:49Z</time>
      </trkpt>
      <trkpt lat="41.0159730" lon="0.5155000">
        <ele>186.4</ele>
        <time>2020-08-07T16:26:51Z</time>
      </trkpt>
      <trkpt lat="41.0159730" lon="0.5155000">
        <ele>186.4</ele>
        <time>2020-08-07T16:26:52Z</time>
      </trkpt>
      <trkpt lat="41.0159730" lon="0.5155000">
        <ele>186.4</ele>
        <time>2020-08-07T16:26:54Z</time>
      </trkpt>
      <trkpt lat="41.0159730" lon="0.5155000">
        <ele>186.4</ele>
        <time>2020-08-07T16:26:55Z</time>
      </trkpt>
      <trkpt lat="41.0159730" lon="0.5155000">
        <ele>186.4</ele>
        <time>2020-08-07T16:26:57Z</time>
      </trkpt>
      <trkpt lat="41.0159730" lon="0.5155000">
        <ele>186.4</ele>
        <time>2020-08-07T16:26:58Z</time>
      </trkpt>
      <trkpt lat="41.0159730" lon="0.5155000">
        <ele>186.4</ele>
        <time>2020-08-07T16:26:59Z</time>
      </trkpt>
      <trkpt lat="41.0159730" lon="0.5155000">
        <ele>186.4</ele>
        <time>2020-08-07T16:27:01Z</time>
      </trkpt>
      <trkpt lat="41.0159730" lon="0.5155000">
        <ele>186.4</ele>
        <time>2020-08-07T16:27:03Z</time>
      </trkpt>
      <trkpt lat="41.0159730" lon="0.5155000">
        <ele>186.4</ele>
        <time>2020-08-07T16:27:05Z</time>
      </trkpt>
      <trkpt lat="41.0159730" lon="0.5155000">
        <ele>186.4</ele>
        <time>2020-08-07T16:27:06Z</time>
      </trkpt>
      <trkpt lat="41.0159730" lon="0.5155000">
        <ele>186.4</ele>
        <time>2020-08-07T16:27:07Z</time>
      </trkpt>
      <trkpt lat="41.0159730" lon="0.5155000">
        <ele>186.4</ele>
        <time>2020-08-07T16:27:08Z</time>
      </trkpt>
      <trkpt lat="41.0159730" lon="0.5155000">
        <ele>186.4</ele>
        <time>2020-08-07T16:27:10Z</time>
      </trkpt>
      <trkpt lat="41.0159730" lon="0.5155000">
        <ele>186.4</ele>
        <time>2020-08-07T16:27:12Z</time>
      </trkpt>
      <trkpt lat="41.0159730" lon="0.5155000">
        <ele>186.4</ele>
        <time>2020-08-07T16:27:13Z</time>
      </trkpt>
      <trkpt lat="41.0159720" lon="0.5155000">
        <ele>186.3</ele>
        <time>2020-08-07T16:27:14Z</time>
      </trkpt>
      <trkpt lat="41.0159720" lon="0.5155000">
        <ele>186.3</ele>
        <time>2020-08-07T16:27:15Z</time>
      </trkpt>
      <trkpt lat="41.0159720" lon="0.5155000">
        <ele>186.3</ele>
        <time>2020-08-07T16:27:17Z</time>
      </trkpt>
      <trkpt lat="41.0159720" lon="0.5155000">
        <ele>186.3</ele>
        <time>2020-08-07T16:27:18Z</time>
      </trkpt>
      <trkpt lat="41.0159720" lon="0.5155000">
        <ele>186.3</ele>
        <time>2020-08-07T16:27:20Z</time>
      </trkpt>
      <trkpt lat="41.0159730" lon="0.5155000">
        <ele>186.3</ele>
        <time>2020-08-07T16:27:22Z</time>
      </trkpt>
      <trkpt lat="41.0159730" lon="0.5155000">
        <ele>186.3</ele>
        <time>2020-08-07T16:27:23Z</time>
      </trkpt>
      <trkpt lat="41.0159730" lon="0.5155000">
        <ele>186.3</ele>
        <time>2020-08-07T16:27:24Z</time>
      </trkpt>
      <trkpt lat="41.0159730" lon="0.5155000">
        <ele>186.3</ele>
        <time>2020-08-07T16:27:25Z</time>
      </trkpt>
      <trkpt lat="41.0159730" lon="0.5155000">
        <ele>186.3</ele>
        <time>2020-08-07T16:27:26Z</time>
      </trkpt>
      <trkpt lat="41.0159730" lon="0.5155000">
        <ele>186.3</ele>
        <time>2020-08-07T16:27:28Z</time>
      </trkpt>
      <trkpt lat="41.0159720" lon="0.5155000">
        <ele>186.3</ele>
        <time>2020-08-07T16:27:29Z</time>
      </trkpt>
      <trkpt lat="41.0159720" lon="0.5155000">
        <ele>186.3</ele>
        <time>2020-08-07T16:27:30Z</time>
      </trkpt>
      <trkpt lat="41.0159720" lon="0.5155000">
        <ele>186.3</ele>
        <time>2020-08-07T16:27:31Z</time>
      </trkpt>
      <trkpt lat="41.0159720" lon="0.5155000">
        <ele>186.3</ele>
        <time>2020-08-07T16:27:32Z</time>
      </trkpt>
      <trkpt lat="41.0159720" lon="0.5155000">
        <ele>186.3</ele>
        <time>2020-08-07T16:27:34Z</time>
      </trkpt>
      <trkpt lat="41.0159720" lon="0.5155000">
        <ele>186.3</ele>
        <time>2020-08-07T16:27:35Z</time>
      </trkpt>
      <trkpt lat="41.0159720" lon="0.5155000">
        <ele>186.3</ele>
        <time>2020-08-07T16:27:37Z</time>
      </trkpt>
      <trkpt lat="41.0159720" lon="0.5155000">
        <ele>186.3</ele>
        <time>2020-08-07T16:27:38Z</time>
      </trkpt>
      <trkpt lat="41.0159720" lon="0.5155000">
        <ele>186.3</ele>
        <time>2020-08-07T16:27:40Z</time>
      </trkpt>
      <trkpt lat="41.0159720" lon="0.5155000">
        <ele>186.3</ele>
        <time>2020-08-07T16:27:41Z</time>
      </trkpt>
      <trkpt lat="41.0159730" lon="0.5155000">
        <ele>186.3</ele>
        <time>2020-08-07T16:27:42Z</time>
      </trkpt>
      <trkpt lat="41.0159730" lon="0.5155000">
        <ele>186.3</ele>
        <time>2020-08-07T16:27:44Z</time>
      </trkpt>
      <trkpt lat="41.0159730" lon="0.5155000">
        <ele>186.3</ele>
        <time>2020-08-07T16:27:45Z</time>
      </trkpt>
      <trkpt lat="41.0159730" lon="0.5155000">
        <ele>186.3</ele>
        <time>2020-08-07T16:27:47Z</time>
      </trkpt>
      <trkpt lat="41.0159730" lon="0.5155000">
        <ele>186.3</ele>
        <time>2020-08-07T16:27:49Z</time>
      </trkpt>
      <trkpt lat="41.0159730" lon="0.5155000">
        <ele>186.3</ele>
        <time>2020-08-07T16:27:51Z</time>
      </trkpt>
      <trkpt lat="41.0159730" lon="0.5155000">
        <ele>186.3</ele>
        <time>2020-08-07T16:27:52Z</time>
      </trkpt>
      <trkpt lat="41.0159730" lon="0.5155000">
        <ele>186.3</ele>
        <time>2020-08-07T16:27:54Z</time>
      </trkpt>
      <trkpt lat="41.0159730" lon="0.5155000">
        <ele>186.3</ele>
        <time>2020-08-07T16:27:55Z</time>
      </trkpt>
      <trkpt lat="41.0159730" lon="0.5155000">
        <ele>186.3</ele>
        <time>2020-08-07T16:27:56Z</time>
      </trkpt>
      <trkpt lat="41.0159730" lon="0.5155000">
        <ele>186.3</ele>
        <time>2020-08-07T16:27:57Z</time>
      </trkpt>
      <trkpt lat="41.0159730" lon="0.5155000">
        <ele>186.3</ele>
        <time>2020-08-07T16:27:58Z</time>
      </trkpt>
      <trkpt lat="41.0159730" lon="0.5155000">
        <ele>186.3</ele>
        <time>2020-08-07T16:28:00Z</time>
      </trkpt>
      <trkpt lat="41.0159730" lon="0.5155000">
        <ele>186.3</ele>
        <time>2020-08-07T16:28:01Z</time>
      </trkpt>
      <trkpt lat="41.0159730" lon="0.5155000">
        <ele>186.3</ele>
        <time>2020-08-07T16:28:03Z</time>
      </trkpt>
      <trkpt lat="41.0159730" lon="0.5155000">
        <ele>186.3</ele>
        <time>2020-08-07T16:28:04Z</time>
      </trkpt>
      <trkpt lat="41.0159730" lon="0.5155000">
        <ele>186.3</ele>
        <time>2020-08-07T16:28:05Z</time>
      </trkpt>
      <trkpt lat="41.0159730" lon="0.5155000">
        <ele>186.3</ele>
        <time>2020-08-07T16:28:06Z</time>
      </trkpt>
      <trkpt lat="41.0159730" lon="0.5155000">
        <ele>186.3</ele>
        <time>2020-08-07T16:28:08Z</time>
      </trkpt>
      <trkpt lat="41.0159730" lon="0.5155000">
        <ele>186.3</ele>
        <time>2020-08-07T16:28:09Z</time>
      </trkpt>
      <trkpt lat="41.0159730" lon="0.5155000">
        <ele>186.3</ele>
        <time>2020-08-07T16:28:11Z</time>
      </trkpt>
      <trkpt lat="41.0159730" lon="0.5155000">
        <ele>186.3</ele>
        <time>2020-08-07T16:28:12Z</time>
      </trkpt>
      <trkpt lat="41.0159730" lon="0.5155000">
        <ele>186.3</ele>
        <time>2020-08-07T16:28:13Z</time>
      </trkpt>
      <trkpt lat="41.0159720" lon="0.5155000">
        <ele>186.3</ele>
        <time>2020-08-07T16:28:15Z</time>
      </trkpt>
      <trkpt lat="41.0159720" lon="0.5155000">
        <ele>186.3</ele>
        <time>2020-08-07T16:28:16Z</time>
      </trkpt>
      <trkpt lat="41.0159720" lon="0.5155000">
        <ele>186.3</ele>
        <time>2020-08-07T16:28:18Z</time>
      </trkpt>
      <trkpt lat="41.0159720" lon="0.5155000">
        <ele>186.3</ele>
        <time>2020-08-07T16:28:19Z</time>
      </trkpt>
      <trkpt lat="41.0159720" lon="0.5155000">
        <ele>186.3</ele>
        <time>2020-08-07T16:28:21Z</time>
      </trkpt>
      <trkpt lat="41.0159720" lon="0.5155000">
        <ele>186.3</ele>
        <time>2020-08-07T16:28:22Z</time>
      </trkpt>
      <trkpt lat="41.0159720" lon="0.5155000">
        <ele>186.3</ele>
        <time>2020-08-07T16:28:23Z</time>
      </trkpt>
      <trkpt lat="41.0159720" lon="0.5155000">
        <ele>186.3</ele>
        <time>2020-08-07T16:28:24Z</time>
      </trkpt>
      <trkpt lat="41.0159720" lon="0.5155000">
        <ele>186.3</ele>
        <time>2020-08-07T16:28:25Z</time>
      </trkpt>
      <trkpt lat="41.0159720" lon="0.5155000">
        <ele>186.3</ele>
        <time>2020-08-07T16:28:27Z</time>
      </trkpt>
      <trkpt lat="41.0159720" lon="0.5155000">
        <ele>186.3</ele>
        <time>2020-08-07T16:28:28Z</time>
      </trkpt>
      <trkpt lat="41.0159720" lon="0.5155000">
        <ele>186.3</ele>
        <time>2020-08-07T16:28:30Z</time>
      </trkpt>
      <trkpt lat="41.0159720" lon="0.5155000">
        <ele>186.3</ele>
        <time>2020-08-07T16:28:31Z</time>
      </trkpt>
      <trkpt lat="41.0159720" lon="0.5155000">
        <ele>186.3</ele>
        <time>2020-08-07T16:28:32Z</time>
      </trkpt>
      <trkpt lat="41.0159720" lon="0.5155000">
        <ele>186.3</ele>
        <time>2020-08-07T16:28:33Z</time>
      </trkpt>
      <trkpt lat="41.0159720" lon="0.5155000">
        <ele>186.3</ele>
        <time>2020-08-07T16:28:34Z</time>
      </trkpt>
      <trkpt lat="41.0159720" lon="0.5155000">
        <ele>186.3</ele>
        <time>2020-08-07T16:28:36Z</time>
      </trkpt>
      <trkpt lat="41.0159720" lon="0.5155000">
        <ele>186.3</ele>
        <time>2020-08-07T16:28:38Z</time>
      </trkpt>
      <trkpt lat="41.0159720" lon="0.5155000">
        <ele>186.3</ele>
        <time>2020-08-07T16:28:39Z</time>
      </trkpt>
      <trkpt lat="41.0159720" lon="0.5155000">
        <ele>186.3</ele>
        <time>2020-08-07T16:28:40Z</time>
      </trkpt>
      <trkpt lat="41.0159720" lon="0.5155000">
        <ele>186.3</ele>
        <time>2020-08-07T16:28:42Z</time>
      </trkpt>
      <trkpt lat="41.0159720" lon="0.5155000">
        <ele>186.3</ele>
        <time>2020-08-07T16:28:44Z</time>
      </trkpt>
      <trkpt lat="41.0159720" lon="0.5155000">
        <ele>186.3</ele>
        <time>2020-08-07T16:28:45Z</time>
      </trkpt>
      <trkpt lat="41.0159720" lon="0.5155000">
        <ele>186.3</ele>
        <time>2020-08-07T16:28:47Z</time>
      </trkpt>
      <trkpt lat="41.0159720" lon="0.5155000">
        <ele>186.3</ele>
        <time>2020-08-07T16:28:49Z</time>
      </trkpt>
      <trkpt lat="41.0159720" lon="0.5155000">
        <ele>186.3</ele>
        <time>2020-08-07T16:28:51Z</time>
      </trkpt>
      <trkpt lat="41.0159720" lon="0.5155000">
        <ele>186.3</ele>
        <time>2020-08-07T16:28:52Z</time>
      </trkpt>
      <trkpt lat="41.0159720" lon="0.5155000">
        <ele>186.3</ele>
        <time>2020-08-07T16:28:53Z</time>
      </trkpt>
      <trkpt lat="41.0159720" lon="0.5155000">
        <ele>186.3</ele>
        <time>2020-08-07T16:28:54Z</time>
      </trkpt>
      <trkpt lat="41.0159720" lon="0.5155000">
        <ele>186.3</ele>
        <time>2020-08-07T16:28:56Z</time>
      </trkpt>
      <trkpt lat="41.0159720" lon="0.5155000">
        <ele>186.3</ele>
        <time>2020-08-07T16:28:58Z</time>
      </trkpt>
      <trkpt lat="41.0159720" lon="0.5155000">
        <ele>186.3</ele>
        <time>2020-08-07T16:29:00Z</time>
      </trkpt>
      <trkpt lat="41.0159720" lon="0.5155000">
        <ele>186.3</ele>
        <time>2020-08-07T16:29:02Z</time>
      </trkpt>
      <trkpt lat="41.0159720" lon="0.5155000">
        <ele>186.3</ele>
        <time>2020-08-07T16:29:04Z</time>
      </trkpt>
      <trkpt lat="41.0159720" lon="0.5155000">
        <ele>186.3</ele>
        <time>2020-08-07T16:29:05Z</time>
      </trkpt>
      <trkpt lat="41.0159720" lon="0.5155000">
        <ele>186.3</ele>
        <time>2020-08-07T16:29:07Z</time>
      </trkpt>
      <trkpt lat="41.0159720" lon="0.5155000">
        <ele>186.3</ele>
        <time>2020-08-07T16:29:08Z</time>
      </trkpt>
      <trkpt lat="41.0159720" lon="0.5155000">
        <ele>186.3</ele>
        <time>2020-08-07T16:29:09Z</time>
      </trkpt>
      <trkpt lat="41.0159720" lon="0.5155000">
        <ele>186.3</ele>
        <time>2020-08-07T16:29:11Z</time>
      </trkpt>
      <trkpt lat="41.0159720" lon="0.5155000">
        <ele>186.3</ele>
        <time>2020-08-07T16:29:12Z</time>
      </trkpt>
      <trkpt lat="41.0159720" lon="0.5155000">
        <ele>186.3</ele>
        <time>2020-08-07T16:29:14Z</time>
      </trkpt>
      <trkpt lat="41.0159720" lon="0.5155000">
        <ele>186.3</ele>
        <time>2020-08-07T16:29:15Z</time>
      </trkpt>
      <trkpt lat="41.0159720" lon="0.5155000">
        <ele>186.3</ele>
        <time>2020-08-07T16:29:17Z</time>
      </trkpt>
      <trkpt lat="41.0159720" lon="0.5155000">
        <ele>186.3</ele>
        <time>2020-08-07T16:29:18Z</time>
      </trkpt>
      <trkpt lat="41.0160190" lon="0.5154920">
        <ele>186.0</ele>
        <time>2020-08-07T16:29:20Z</time>
      </trkpt>
      <trkpt lat="41.0160490" lon="0.5154870">
        <ele>185.9</ele>
        <time>2020-08-07T16:29:21Z</time>
      </trkpt>
      <trkpt lat="41.0161060" lon="0.5154640">
        <ele>185.5</ele>
        <time>2020-08-07T16:29:23Z</time>
      </trkpt>
      <trkpt lat="41.0161320" lon="0.5154460">
        <ele>185.3</ele>
        <time>2020-08-07T16:29:24Z</time>
      </trkpt>
      <trkpt lat="41.0161410" lon="0.5154390">
        <ele>185.2</ele>
        <time>2020-08-07T16:29:25Z</time>
      </trkpt>
      <trkpt lat="41.0161800" lon="0.5154310">
        <ele>185.0</ele>
        <time>2020-08-07T16:29:27Z</time>
      </trkpt>
      <trkpt lat="41.0162190" lon="0.5154290">
        <ele>184.8</ele>
        <time>2020-08-07T16:29:28Z</time>
      </trkpt>
      <trkpt lat="41.0162330" lon="0.5154270">
        <ele>184.5</ele>
        <time>2020-08-07T16:29:29Z</time>
      </trkpt>
      <trkpt lat="41.0164000" lon="0.5154240">
        <ele>183.4</ele>
        <time>2020-08-07T16:29:35Z</time>
      </trkpt>
      <trkpt lat="41.0164360" lon="0.5154290">
        <ele>183.2</ele>
        <time>2020-08-07T16:29:36Z</time>
      </trkpt>
      <trkpt lat="41.0164470" lon="0.5154300">
        <ele>183.1</ele>
        <time>2020-08-07T16:29:37Z</time>
      </trkpt>
      <trkpt lat="41.0164890" lon="0.5154370">
        <ele>182.7</ele>
        <time>2020-08-07T16:29:39Z</time>
      </trkpt>
      <trkpt lat="41.0165100" lon="0.5154450">
        <ele>182.5</ele>
        <time>2020-08-07T16:29:40Z</time>
      </trkpt>
      <trkpt lat="41.0165500" lon="0.5154690">
        <ele>182.0</ele>
        <time>2020-08-07T16:29:42Z</time>
      </trkpt>
      <trkpt lat="41.0165740" lon="0.5154870">
        <ele>181.7</ele>
        <time>2020-08-07T16:29:43Z</time>
      </trkpt>
      <trkpt lat="41.0166250" lon="0.5155210">
        <ele>181.1</ele>
        <time>2020-08-07T16:29:45Z</time>
      </trkpt>
      <trkpt lat="41.0166600" lon="0.5155390">
        <ele>180.7</ele>
        <time>2020-08-07T16:29:46Z</time>
      </trkpt>
      <trkpt lat="41.0166720" lon="0.5155450">
        <ele>180.6</ele>
        <time>2020-08-07T16:29:47Z</time>
      </trkpt>
      <trkpt lat="41.0166990" lon="0.5155600">
        <ele>180.3</ele>
        <time>2020-08-07T16:29:48Z</time>
      </trkpt>
      <trkpt lat="41.0167570" lon="0.5155890">
        <ele>179.6</ele>
        <time>2020-08-07T16:29:50Z</time>
      </trkpt>
      <trkpt lat="41.0168100" lon="0.5156200">
        <ele>178.9</ele>
        <time>2020-08-07T16:29:52Z</time>
      </trkpt>
      <trkpt lat="41.0168340" lon="0.5156390">
        <ele>178.6</ele>
        <time>2020-08-07T16:29:53Z</time>
      </trkpt>
      <trkpt lat="41.0168590" lon="0.5156620">
        <ele>178.2</ele>
        <time>2020-08-07T16:29:54Z</time>
      </trkpt>
      <trkpt lat="41.0168830" lon="0.5156850">
        <ele>177.9</ele>
        <time>2020-08-07T16:29:55Z</time>
      </trkpt>
      <trkpt lat="41.0169060" lon="0.5157040">
        <ele>177.6</ele>
        <time>2020-08-07T16:29:56Z</time>
      </trkpt>
      <trkpt lat="41.0169400" lon="0.5157260">
        <ele>177.1</ele>
        <time>2020-08-07T16:29:57Z</time>
      </trkpt>
      <trkpt lat="41.0169530" lon="0.5157330">
        <ele>176.9</ele>
        <time>2020-08-07T16:29:58Z</time>
      </trkpt>
      <trkpt lat="41.0169970" lon="0.5157430">
        <ele>176.5</ele>
        <time>2020-08-07T16:30:00Z</time>
      </trkpt>
      <trkpt lat="41.0170320" lon="0.5157280">
        <ele>176.4</ele>
        <time>2020-08-07T16:30:01Z</time>
      </trkpt>
      <trkpt lat="41.0170420" lon="0.5157220">
        <ele>176.3</ele>
        <time>2020-08-07T16:30:02Z</time>
      </trkpt>
      <trkpt lat="41.0170850" lon="0.5156980">
        <ele>176.1</ele>
        <time>2020-08-07T16:30:04Z</time>
      </trkpt>
      <trkpt lat="41.0171340" lon="0.5156750">
        <ele>175.9</ele>
        <time>2020-08-07T16:30:06Z</time>
      </trkpt>
      <trkpt lat="41.0171650" lon="0.5156510">
        <ele>175.8</ele>
        <time>2020-08-07T16:30:07Z</time>
      </trkpt>
      <trkpt lat="41.0171740" lon="0.5156420">
        <ele>175.8</ele>
        <time>2020-08-07T16:30:08Z</time>
      </trkpt>
      <trkpt lat="41.0172150" lon="0.5156110">
        <ele>175.6</ele>
        <time>2020-08-07T16:30:10Z</time>
      </trkpt>
      <trkpt lat="41.0172400" lon="0.5156070">
        <ele>175.6</ele>
        <time>2020-08-07T16:30:11Z</time>
      </trkpt>
      <trkpt lat="41.0172800" lon="0.5156090">
        <ele>175.4</ele>
        <time>2020-08-07T16:30:13Z</time>
      </trkpt>
      <trkpt lat="41.0172910" lon="0.5156120">
        <ele>175.4</ele>
        <time>2020-08-07T16:30:14Z</time>
      </trkpt>
      <trkpt lat="41.0172960" lon="0.5156150">
        <ele>175.4</ele>
        <time>2020-08-07T16:30:15Z</time>
      </trkpt>
      <trkpt lat="41.0173000" lon="0.5156210">
        <ele>175.4</ele>
        <time>2020-08-07T16:30:17Z</time>
      </trkpt>
      <trkpt lat="41.0173010" lon="0.5156220">
        <ele>175.4</ele>
        <time>2020-08-07T16:30:19Z</time>
      </trkpt>
      <trkpt lat="41.0172980" lon="0.5156290">
        <ele>175.3</ele>
        <time>2020-08-07T16:30:21Z</time>
      </trkpt>
      <trkpt lat="41.0172970" lon="0.5156330">
        <ele>175.3</ele>
        <time>2020-08-07T16:30:22Z</time>
      </trkpt>
      <trkpt lat="41.0172960" lon="0.5156310">
        <ele>175.3</ele>
        <time>2020-08-07T16:30:23Z</time>
      </trkpt>
      <trkpt lat="41.0173000" lon="0.5156240">
        <ele>175.3</ele>
        <time>2020-08-07T16:30:25Z</time>
      </trkpt>
      <trkpt lat="41.0173680" lon="0.5155930">
        <ele>173.5</ele>
        <time>2020-08-07T16:30:33Z</time>
      </trkpt>
      <trkpt lat="41.0174210" lon="0.5155800">
        <ele>171.9</ele>
        <time>2020-08-07T16:30:35Z</time>
      </trkpt>
      <trkpt lat="41.0174490" lon="0.5155700">
        <ele>171.0</ele>
        <time>2020-08-07T16:30:36Z</time>
      </trkpt>
      <trkpt lat="41.0175070" lon="0.5155470">
        <ele>170.7</ele>
        <time>2020-08-07T16:30:38Z</time>
      </trkpt>
      <trkpt lat="41.0175660" lon="0.5155240">
        <ele>170.7</ele>
        <time>2020-08-07T16:30:40Z</time>
      </trkpt>
      <trkpt lat="41.0175920" lon="0.5155140">
        <ele>170.8</ele>
        <time>2020-08-07T16:30:41Z</time>
      </trkpt>
      <trkpt lat="41.0176150" lon="0.5155090">
        <ele>170.8</ele>
        <time>2020-08-07T16:30:42Z</time>
      </trkpt>
      <trkpt lat="41.0176540" lon="0.5155020">
        <ele>170.9</ele>
        <time>2020-08-07T16:30:44Z</time>
      </trkpt>
      <trkpt lat="41.0176670" lon="0.5154980">
        <ele>170.9</ele>
        <time>2020-08-07T16:30:45Z</time>
      </trkpt>
      <trkpt lat="41.0176730" lon="0.5154930">
        <ele>170.9</ele>
        <time>2020-08-07T16:30:47Z</time>
      </trkpt>
      <trkpt lat="41.0176790" lon="0.5154890">
        <ele>170.9</ele>
        <time>2020-08-07T16:30:49Z</time>
      </trkpt>
      <trkpt lat="41.0176850" lon="0.5154840">
        <ele>170.9</ele>
        <time>2020-08-07T16:30:50Z</time>
      </trkpt>
      <trkpt lat="41.0176920" lon="0.5154800">
        <ele>171.0</ele>
        <time>2020-08-07T16:30:52Z</time>
      </trkpt>
      <trkpt lat="41.0176980" lon="0.5154750">
        <ele>171.0</ele>
        <time>2020-08-07T16:30:54Z</time>
      </trkpt>
      <trkpt lat="41.0177040" lon="0.5154710">
        <ele>171.0</ele>
        <time>2020-08-07T16:30:55Z</time>
      </trkpt>
      <trkpt lat="41.0177100" lon="0.5154660">
        <ele>171.0</ele>
        <time>2020-08-07T16:31:09Z</time>
      </trkpt>
      <trkpt lat="41.0177160" lon="0.5154620">
        <ele>171.0</ele>
        <time>2020-08-07T16:31:10Z</time>
      </trkpt>
      <trkpt lat="41.0177220" lon="0.5154570">
        <ele>171.0</ele>
        <time>2020-08-07T16:31:11Z</time>
      </trkpt>
      <trkpt lat="41.0177590" lon="0.5154350">
        <ele>171.1</ele>
        <time>2020-08-07T16:31:13Z</time>
      </trkpt>
      <trkpt lat="41.0178030" lon="0.5154090">
        <ele>171.2</ele>
        <time>2020-08-07T16:31:15Z</time>
      </trkpt>
      <trkpt lat="41.0178270" lon="0.5153960">
        <ele>171.3</ele>
        <time>2020-08-07T16:31:16Z</time>
      </trkpt>
      <trkpt lat="41.0178820" lon="0.5153660">
        <ele>171.3</ele>
        <time>2020-08-07T16:31:18Z</time>
      </trkpt>
      <trkpt lat="41.0179380" lon="0.5153360">
        <ele>171.4</ele>
        <time>2020-08-07T16:31:20Z</time>
      </trkpt>
      <trkpt lat="41.0179930" lon="0.5153040">
        <ele>171.5</ele>
        <time>2020-08-07T16:31:22Z</time>
      </trkpt>
      <trkpt lat="41.0180420" lon="0.5152750">
        <ele>171.6</ele>
        <time>2020-08-07T16:31:24Z</time>
      </trkpt>
      <trkpt lat="41.0180640" lon="0.5152580">
        <ele>171.7</ele>
        <time>2020-08-07T16:31:25Z</time>
      </trkpt>
      <trkpt lat="41.0181020" lon="0.5152270">
        <ele>171.8</ele>
        <time>2020-08-07T16:31:27Z</time>
      </trkpt>
      <trkpt lat="41.0181260" lon="0.5152110">
        <ele>171.9</ele>
        <time>2020-08-07T16:31:28Z</time>
      </trkpt>
      <trkpt lat="41.0181730" lon="0.5151860">
        <ele>172.0</ele>
        <time>2020-08-07T16:31:30Z</time>
      </trkpt>
      <trkpt lat="41.0182010" lon="0.5151730">
        <ele>172.1</ele>
        <time>2020-08-07T16:31:31Z</time>
      </trkpt>
      <trkpt lat="41.0182570" lon="0.5151430">
        <ele>172.2</ele>
        <time>2020-08-07T16:31:33Z</time>
      </trkpt>
      <trkpt lat="41.0182860" lon="0.5151280">
        <ele>172.3</ele>
        <time>2020-08-07T16:31:34Z</time>
      </trkpt>
      <trkpt lat="41.0183140" lon="0.5151130">
        <ele>172.4</ele>
        <time>2020-08-07T16:31:35Z</time>
      </trkpt>
      <trkpt lat="41.0183670" lon="0.5150850">
        <ele>172.5</ele>
        <time>2020-08-07T16:31:37Z</time>
      </trkpt>
      <trkpt lat="41.0183940" lon="0.5150710">
        <ele>172.6</ele>
        <time>2020-08-07T16:31:38Z</time>
      </trkpt>
      <trkpt lat="41.0184500" lon="0.5150460">
        <ele>172.8</ele>
        <time>2020-08-07T16:31:40Z</time>
      </trkpt>
      <trkpt lat="41.0184980" lon="0.5150250">
        <ele>173.0</ele>
        <time>2020-08-07T16:31:42Z</time>
      </trkpt>
      <trkpt lat="41.0185210" lon="0.5150110">
        <ele>173.1</ele>
        <time>2020-08-07T16:31:43Z</time>
      </trkpt>
      <trkpt lat="41.0185670" lon="0.5149820">
        <ele>173.2</ele>
        <time>2020-08-07T16:31:45Z</time>
      </trkpt>
      <trkpt lat="41.0185880" lon="0.5149670">
        <ele>173.3</ele>
        <time>2020-08-07T16:31:46Z</time>
      </trkpt>
      <trkpt lat="41.0186280" lon="0.5149340">
        <ele>173.4</ele>
        <time>2020-08-07T16:31:48Z</time>
      </trkpt>
      <trkpt lat="41.0186740" lon="0.5149070">
        <ele>173.6</ele>
        <time>2020-08-07T16:31:50Z</time>
      </trkpt>
      <trkpt lat="41.0186970" lon="0.5148950">
        <ele>173.7</ele>
        <time>2020-08-07T16:31:51Z</time>
      </trkpt>
      <trkpt lat="41.0188520" lon="0.5148080">
        <ele>174.5</ele>
        <time>2020-08-07T16:31:57Z</time>
      </trkpt>
      <trkpt lat="41.0189080" lon="0.5147740">
        <ele>174.8</ele>
        <time>2020-08-07T16:31:59Z</time>
      </trkpt>
      <trkpt lat="41.0189580" lon="0.5147460">
        <ele>175.1</ele>
        <time>2020-08-07T16:32:01Z</time>
      </trkpt>
      <trkpt lat="41.0190100" lon="0.5147190">
        <ele>175.4</ele>
        <time>2020-08-07T16:32:03Z</time>
      </trkpt>
      <trkpt lat="41.0190590" lon="0.5146880">
        <ele>175.6</ele>
        <time>2020-08-07T16:32:05Z</time>
      </trkpt>
      <trkpt lat="41.0190820" lon="0.5146720">
        <ele>175.8</ele>
        <time>2020-08-07T16:32:06Z</time>
      </trkpt>
      <trkpt lat="41.0191240" lon="0.5146450">
        <ele>176.0</ele>
        <time>2020-08-07T16:32:08Z</time>
      </trkpt>
      <trkpt lat="41.0191560" lon="0.5146250">
        <ele>176.2</ele>
        <time>2020-08-07T16:32:09Z</time>
      </trkpt>
      <trkpt lat="41.0191670" lon="0.5146170">
        <ele>176.2</ele>
        <time>2020-08-07T16:32:10Z</time>
      </trkpt>
      <trkpt lat="41.0192310" lon="0.5145800">
        <ele>176.6</ele>
        <time>2020-08-07T16:32:13Z</time>
      </trkpt>
      <trkpt lat="41.0192740" lon="0.5145540">
        <ele>176.8</ele>
        <time>2020-08-07T16:32:15Z</time>
      </trkpt>
      <trkpt lat="41.0193080" lon="0.5145370">
        <ele>177.0</ele>
        <time>2020-08-07T16:32:16Z</time>
      </trkpt>
      <trkpt lat="41.0193200" lon="0.5145320">
        <ele>177.0</ele>
        <time>2020-08-07T16:32:17Z</time>
      </trkpt>
      <trkpt lat="41.0193650" lon="0.5145270">
        <ele>177.3</ele>
        <time>2020-08-07T16:32:19Z</time>
      </trkpt>
      <trkpt lat="41.0194020" lon="0.5145360">
        <ele>177.5</ele>
        <time>2020-08-07T16:32:20Z</time>
      </trkpt>
      <trkpt lat="41.0194150" lon="0.5145400">
        <ele>177.6</ele>
        <time>2020-08-07T16:32:21Z</time>
      </trkpt>
      <trkpt lat="41.0194650" lon="0.5145580">
        <ele>177.8</ele>
        <time>2020-08-07T16:32:23Z</time>
      </trkpt>
      <trkpt lat="41.0194920" lon="0.5145680">
        <ele>178.0</ele>
        <time>2020-08-07T16:32:24Z</time>
      </trkpt>
      <trkpt lat="41.0195440" lon="0.5145920">
        <ele>178.2</ele>
        <time>2020-08-07T16:32:26Z</time>
      </trkpt>
      <trkpt lat="41.0195800" lon="0.5146160">
        <ele>178.4</ele>
        <time>2020-08-07T16:32:27Z</time>
      </trkpt>
      <trkpt lat="41.0195920" lon="0.5146240">
        <ele>178.5</ele>
        <time>2020-08-07T16:32:28Z</time>
      </trkpt>
      <trkpt lat="41.0196170" lon="0.5146390">
        <ele>178.6</ele>
        <time>2020-08-07T16:32:29Z</time>
      </trkpt>
      <trkpt lat="41.0196690" lon="0.5146730">
        <ele>178.9</ele>
        <time>2020-08-07T16:32:31Z</time>
      </trkpt>
      <trkpt lat="41.0197200" lon="0.5147100">
        <ele>179.2</ele>
        <time>2020-08-07T16:32:33Z</time>
      </trkpt>
      <trkpt lat="41.0197700" lon="0.5147430">
        <ele>179.5</ele>
        <time>2020-08-07T16:32:35Z</time>
      </trkpt>
      <trkpt lat="41.0197960" lon="0.5147580">
        <ele>179.6</ele>
        <time>2020-08-07T16:32:36Z</time>
      </trkpt>
      <trkpt lat="41.0198470" lon="0.5147850">
        <ele>179.9</ele>
        <time>2020-08-07T16:32:38Z</time>
      </trkpt>
      <trkpt lat="41.0198710" lon="0.5148000">
        <ele>180.1</ele>
        <time>2020-08-07T16:32:39Z</time>
      </trkpt>
      <trkpt lat="41.0199200" lon="0.5148290">
        <ele>180.3</ele>
        <time>2020-08-07T16:32:41Z</time>
      </trkpt>
      <trkpt lat="41.0199690" lon="0.5148580">
        <ele>180.6</ele>
        <time>2020-08-07T16:32:43Z</time>
      </trkpt>
      <trkpt lat="41.0200030" lon="0.5148780">
        <ele>180.8</ele>
        <time>2020-08-07T16:32:44Z</time>
      </trkpt>
      <trkpt lat="41.0200130" lon="0.5148850">
        <ele>180.8</ele>
        <time>2020-08-07T16:32:45Z</time>
      </trkpt>
      <trkpt lat="41.0200560" lon="0.5149070">
        <ele>181.1</ele>
        <time>2020-08-07T16:32:47Z</time>
      </trkpt>
      <trkpt lat="41.0200900" lon="0.5149230">
        <ele>181.2</ele>
        <time>2020-08-07T16:32:48Z</time>
      </trkpt>
      <trkpt lat="41.0201020" lon="0.5149280">
        <ele>181.3</ele>
        <time>2020-08-07T16:32:49Z</time>
      </trkpt>
      <trkpt lat="41.0201260" lon="0.5149380">
        <ele>181.4</ele>
        <time>2020-08-07T16:32:50Z</time>
      </trkpt>
      <trkpt lat="41.0201700" lon="0.5149610">
        <ele>181.7</ele>
        <time>2020-08-07T16:32:52Z</time>
      </trkpt>
      <trkpt lat="41.0201900" lon="0.5149750">
        <ele>181.8</ele>
        <time>2020-08-07T16:32:53Z</time>
      </trkpt>
      <trkpt lat="41.0202310" lon="0.5150010">
        <ele>182.0</ele>
        <time>2020-08-07T16:32:55Z</time>
      </trkpt>
      <trkpt lat="41.0202720" lon="0.5150230">
        <ele>182.2</ele>
        <time>2020-08-07T16:32:57Z</time>
      </trkpt>
      <trkpt lat="41.0203140" lon="0.5150460">
        <ele>182.4</ele>
        <time>2020-08-07T16:32:59Z</time>
      </trkpt>
      <trkpt lat="41.0203620" lon="0.5150690">
        <ele>182.5</ele>
        <time>2020-08-07T16:33:01Z</time>
      </trkpt>
      <trkpt lat="41.0203960" lon="0.5150860">
        <ele>182.7</ele>
        <time>2020-08-07T16:33:02Z</time>
      </trkpt>
      <trkpt lat="41.0204070" lon="0.5150920">
        <ele>182.7</ele>
        <time>2020-08-07T16:33:03Z</time>
      </trkpt>
      <trkpt lat="41.0204520" lon="0.5151150">
        <ele>182.8</ele>
        <time>2020-08-07T16:33:05Z</time>
      </trkpt>
      <trkpt lat="41.0204940" lon="0.5151340">
        <ele>182.8</ele>
        <time>2020-08-07T16:33:07Z</time>
      </trkpt>
      <trkpt lat="41.0205290" lon="0.5151470">
        <ele>182.9</ele>
        <time>2020-08-07T16:33:08Z</time>
      </trkpt>
      <trkpt lat="41.0205420" lon="0.5151510">
        <ele>182.9</ele>
        <time>2020-08-07T16:33:09Z</time>
      </trkpt>
      <trkpt lat="41.0205930" lon="0.5151620">
        <ele>182.9</ele>
        <time>2020-08-07T16:33:11Z</time>
      </trkpt>
      <trkpt lat="41.0206490" lon="0.5151680">
        <ele>183.0</ele>
        <time>2020-08-07T16:33:13Z</time>
      </trkpt>
      <trkpt lat="41.0206790" lon="0.5151720">
        <ele>183.0</ele>
        <time>2020-08-07T16:33:14Z</time>
      </trkpt>
      <trkpt lat="41.0207100" lon="0.5151750">
        <ele>183.0</ele>
        <time>2020-08-07T16:33:15Z</time>
      </trkpt>
      <trkpt lat="41.0207690" lon="0.5151780">
        <ele>182.9</ele>
        <time>2020-08-07T16:33:17Z</time>
      </trkpt>
      <trkpt lat="41.0207970" lon="0.5151800">
        <ele>182.9</ele>
        <time>2020-08-07T16:33:18Z</time>
      </trkpt>
      <trkpt lat="41.0208550" lon="0.5151880">
        <ele>182.8</ele>
        <time>2020-08-07T16:33:20Z</time>
      </trkpt>
      <trkpt lat="41.0208830" lon="0.5151920">
        <ele>182.8</ele>
        <time>2020-08-07T16:33:21Z</time>
      </trkpt>
      <trkpt lat="41.0209210" lon="0.5151970">
        <ele>182.8</ele>
        <time>2020-08-07T16:33:22Z</time>
      </trkpt>
      <trkpt lat="41.0209330" lon="0.5151990">
        <ele>182.7</ele>
        <time>2020-08-07T16:33:23Z</time>
      </trkpt>
      <trkpt lat="41.0209790" lon="0.5152100">
        <ele>182.6</ele>
        <time>2020-08-07T16:33:25Z</time>
      </trkpt>
      <trkpt lat="41.0210020" lon="0.5152190">
        <ele>182.5</ele>
        <time>2020-08-07T16:33:26Z</time>
      </trkpt>
      <trkpt lat="41.0210470" lon="0.5152420">
        <ele>182.3</ele>
        <time>2020-08-07T16:33:28Z</time>
      </trkpt>
      <trkpt lat="41.0211060" lon="0.5152790">
        <ele>182.0</ele>
        <time>2020-08-07T16:33:30Z</time>
      </trkpt>
      <trkpt lat="41.0211390" lon="0.5152990">
        <ele>181.9</ele>
        <time>2020-08-07T16:33:31Z</time>
      </trkpt>
      <trkpt lat="41.0212050" lon="0.5153490">
        <ele>181.4</ele>
        <time>2020-08-07T16:33:33Z</time>
      </trkpt>
      <trkpt lat="41.0212780" lon="0.5154100">
        <ele>180.9</ele>
        <time>2020-08-07T16:33:35Z</time>
      </trkpt>
      <trkpt lat="41.0213070" lon="0.5154470">
        <ele>180.7</ele>
        <time>2020-08-07T16:33:36Z</time>
      </trkpt>
      <trkpt lat="41.0213920" lon="0.5155290">
        <ele>180.0</ele>
        <time>2020-08-07T16:33:38Z</time>
      </trkpt>
      <trkpt lat="41.0214400" lon="0.5155740">
        <ele>179.6</ele>
        <time>2020-08-07T16:33:39Z</time>
      </trkpt>
      <trkpt lat="41.0215440" lon="0.5156800">
        <ele>178.7</ele>
        <time>2020-08-07T16:33:41Z</time>
      </trkpt>
      <trkpt lat="41.0215990" lon="0.5157350">
        <ele>178.2</ele>
        <time>2020-08-07T16:33:42Z</time>
      </trkpt>
      <trkpt lat="41.0216570" lon="0.5157820">
        <ele>177.8</ele>
        <time>2020-08-07T16:33:43Z</time>
      </trkpt>
      <trkpt lat="41.0217790" lon="0.5158960">
        <ele>176.9</ele>
        <time>2020-08-07T16:33:45Z</time>
      </trkpt>
      <trkpt lat="41.0219140" lon="0.5160180">
        <ele>176.1</ele>
        <time>2020-08-07T16:33:47Z</time>
      </trkpt>
      <trkpt lat="41.0219660" lon="0.5160710">
        <ele>175.7</ele>
        <time>2020-08-07T16:33:48Z</time>
      </trkpt>
      <trkpt lat="41.0220280" lon="0.5161330">
        <ele>175.1</ele>
        <time>2020-08-07T16:33:49Z</time>
      </trkpt>
      <trkpt lat="41.0221500" lon="0.5162640">
        <ele>174.2</ele>
        <time>2020-08-07T16:33:51Z</time>
      </trkpt>
      <trkpt lat="41.0222630" lon="0.5163840">
        <ele>173.6</ele>
        <time>2020-08-07T16:33:53Z</time>
      </trkpt>
      <trkpt lat="41.0223310" lon="0.5164610">
        <ele>173.4</ele>
        <time>2020-08-07T16:33:54Z</time>
      </trkpt>
      <trkpt lat="41.0224040" lon="0.5165260">
        <ele>173.2</ele>
        <time>2020-08-07T16:33:55Z</time>
      </trkpt>
      <trkpt lat="41.0231280" lon="0.5171380">
        <ele>172.5</ele>
        <time>2020-08-07T16:34:07Z</time>
      </trkpt>
      <trkpt lat="41.0231280" lon="0.5171380">
        <ele>172.5</ele>
        <time>2020-08-07T16:34:07Z</time>
      </trkpt>
      <trkpt lat="41.0232400" lon="0.5172380">
        <ele>172.5</ele>
        <time>2020-08-07T16:34:08Z</time>
      </trkpt>
      <trkpt lat="41.0233360" lon="0.5173360">
        <ele>172.5</ele>
        <time>2020-08-07T16:34:10Z</time>
      </trkpt>
      <trkpt lat="41.0233830" lon="0.5173890">
        <ele>172.5</ele>
        <time>2020-08-07T16:34:11Z</time>
      </trkpt>
      <trkpt lat="41.0234300" lon="0.5174410">
        <ele>172.5</ele>
        <time>2020-08-07T16:34:12Z</time>
      </trkpt>
      <trkpt lat="41.0234830" lon="0.5174860">
        <ele>172.5</ele>
        <time>2020-08-07T16:34:13Z</time>
      </trkpt>
      <trkpt lat="41.0235790" lon="0.5175760">
        <ele>172.4</ele>
        <time>2020-08-07T16:34:15Z</time>
      </trkpt>
      <trkpt lat="41.0236830" lon="0.5176570">
        <ele>172.4</ele>
        <time>2020-08-07T16:34:17Z</time>
      </trkpt>
      <trkpt lat="41.0237320" lon="0.5176970">
        <ele>172.4</ele>
        <time>2020-08-07T16:34:18Z</time>
      </trkpt>
      <trkpt lat="41.0237790" lon="0.5177400">
        <ele>172.3</ele>
        <time>2020-08-07T16:34:19Z</time>
      </trkpt>
      <trkpt lat="41.0238710" lon="0.5178300">
        <ele>172.4</ele>
        <time>2020-08-07T16:34:21Z</time>
      </trkpt>
      <trkpt lat="41.0239100" lon="0.5178760">
        <ele>172.4</ele>
        <time>2020-08-07T16:34:22Z</time>
      </trkpt>
      <trkpt lat="41.0239940" lon="0.5179610">
        <ele>172.4</ele>
        <time>2020-08-07T16:34:24Z</time>
      </trkpt>
      <trkpt lat="41.0240440" lon="0.5179990">
        <ele>172.4</ele>
        <time>2020-08-07T16:34:25Z</time>
      </trkpt>
      <trkpt lat="41.0241240" lon="0.5180740">
        <ele>172.5</ele>
        <time>2020-08-07T16:34:27Z</time>
      </trkpt>
      <trkpt lat="41.0241640" lon="0.5181130">
        <ele>172.5</ele>
        <time>2020-08-07T16:34:28Z</time>
      </trkpt>
      <trkpt lat="41.0242030" lon="0.5181520">
        <ele>172.5</ele>
        <time>2020-08-07T16:34:29Z</time>
      </trkpt>
      <trkpt lat="41.0242840" lon="0.5182130">
        <ele>172.5</ele>
        <time>2020-08-07T16:34:31Z</time>
      </trkpt>
      <trkpt lat="41.0243250" lon="0.5182410">
        <ele>172.5</ele>
        <time>2020-08-07T16:34:32Z</time>
      </trkpt>
      <trkpt lat="41.0244030" lon="0.5183050">
        <ele>172.5</ele>
        <time>2020-08-07T16:34:34Z</time>
      </trkpt>
      <trkpt lat="41.0244690" lon="0.5183640">
        <ele>172.5</ele>
        <time>2020-08-07T16:34:36Z</time>
      </trkpt>
      <trkpt lat="41.0245030" lon="0.5183950">
        <ele>172.5</ele>
        <time>2020-08-07T16:34:37Z</time>
      </trkpt>
      <trkpt lat="41.0245330" lon="0.5184190">
        <ele>172.5</ele>
        <time>2020-08-07T16:34:38Z</time>
      </trkpt>
      <trkpt lat="41.0246190" lon="0.5184780">
        <ele>172.5</ele>
        <time>2020-08-07T16:34:40Z</time>
      </trkpt>
      <trkpt lat="41.0246550" lon="0.5185050">
        <ele>172.5</ele>
        <time>2020-08-07T16:34:41Z</time>
      </trkpt>
      <trkpt lat="41.0246830" lon="0.5185320">
        <ele>172.5</ele>
        <time>2020-08-07T16:34:42Z</time>
      </trkpt>
      <trkpt lat="41.0247150" lon="0.5185640">
        <ele>172.5</ele>
        <time>2020-08-07T16:34:43Z</time>
      </trkpt>
      <trkpt lat="41.0247930" lon="0.5186310">
        <ele>172.4</ele>
        <time>2020-08-07T16:34:45Z</time>
      </trkpt>
      <trkpt lat="41.0248300" lon="0.5186630">
        <ele>172.3</ele>
        <time>2020-08-07T16:34:46Z</time>
      </trkpt>
      <trkpt lat="41.0249030" lon="0.5187380">
        <ele>172.3</ele>
        <time>2020-08-07T16:34:48Z</time>
      </trkpt>
      <trkpt lat="41.0249840" lon="0.5188440">
        <ele>172.2</ele>
        <time>2020-08-07T16:34:50Z</time>
      </trkpt>
      <trkpt lat="41.0250130" lon="0.5188850">
        <ele>172.1</ele>
        <time>2020-08-07T16:34:51Z</time>
      </trkpt>
      <trkpt lat="41.0250500" lon="0.5189330">
        <ele>172.1</ele>
        <time>2020-08-07T16:34:52Z</time>
      </trkpt>
      <trkpt lat="41.0251100" lon="0.5190270">
        <ele>172.0</ele>
        <time>2020-08-07T16:34:54Z</time>
      </trkpt>
      <trkpt lat="41.0251480" lon="0.5191220">
        <ele>171.9</ele>
        <time>2020-08-07T16:34:56Z</time>
      </trkpt>
      <trkpt lat="41.0251730" lon="0.5191730">
        <ele>171.9</ele>
        <time>2020-08-07T16:34:57Z</time>
      </trkpt>
      <trkpt lat="41.0252040" lon="0.5192280">
        <ele>171.9</ele>
        <time>2020-08-07T16:34:58Z</time>
      </trkpt>
      <trkpt lat="41.0252280" lon="0.5192790">
        <ele>171.9</ele>
        <time>2020-08-07T16:34:59Z</time>
      </trkpt>
      <trkpt lat="41.0252530" lon="0.5193320">
        <ele>172.0</ele>
        <time>2020-08-07T16:35:00Z</time>
      </trkpt>
      <trkpt lat="41.0252770" lon="0.5193840">
        <ele>172.0</ele>
        <time>2020-08-07T16:35:01Z</time>
      </trkpt>
      <trkpt lat="41.0253200" lon="0.5194940">
        <ele>172.1</ele>
        <time>2020-08-07T16:35:03Z</time>
      </trkpt>
      <trkpt lat="41.0253420" lon="0.5195510">
        <ele>172.1</ele>
        <time>2020-08-07T16:35:04Z</time>
      </trkpt>
      <trkpt lat="41.0253640" lon="0.5196060">
        <ele>172.1</ele>
        <time>2020-08-07T16:35:05Z</time>
      </trkpt>
      <trkpt lat="41.0253860" lon="0.5196630">
        <ele>172.2</ele>
        <time>2020-08-07T16:35:06Z</time>
      </trkpt>
      <trkpt lat="41.0254120" lon="0.5197180">
        <ele>172.2</ele>
        <time>2020-08-07T16:35:07Z</time>
      </trkpt>
      <trkpt lat="41.0254610" lon="0.5198260">
        <ele>172.3</ele>
        <time>2020-08-07T16:35:09Z</time>
      </trkpt>
      <trkpt lat="41.0255120" lon="0.5199020">
        <ele>172.4</ele>
        <time>2020-08-07T16:35:11Z</time>
      </trkpt>
      <trkpt lat="41.0255440" lon="0.5199400">
        <ele>172.4</ele>
        <time>2020-08-07T16:35:12Z</time>
      </trkpt>
      <trkpt lat="41.0256140" lon="0.5200100">
        <ele>172.6</ele>
        <time>2020-08-07T16:35:14Z</time>
      </trkpt>
      <trkpt lat="41.0256840" lon="0.5200660">
        <ele>172.8</ele>
        <time>2020-08-07T16:35:16Z</time>
      </trkpt>
      <trkpt lat="41.0257560" lon="0.5201150">
        <ele>172.9</ele>
        <time>2020-08-07T16:35:18Z</time>
      </trkpt>
      <trkpt lat="41.0258200" lon="0.5201640">
        <ele>173.1</ele>
        <time>2020-08-07T16:35:20Z</time>
      </trkpt>
      <trkpt lat="41.0258610" lon="0.5201870">
        <ele>173.2</ele>
        <time>2020-08-07T16:35:21Z</time>
      </trkpt>
      <trkpt lat="41.0258770" lon="0.5201970">
        <ele>173.2</ele>
        <time>2020-08-07T16:35:22Z</time>
      </trkpt>
      <trkpt lat="41.0259450" lon="0.5202410">
        <ele>173.4</ele>
        <time>2020-08-07T16:35:24Z</time>
      </trkpt>
      <trkpt lat="41.0259690" lon="0.5202610">
        <ele>173.5</ele>
        <time>2020-08-07T16:35:25Z</time>
      </trkpt>
      <trkpt lat="41.0259540" lon="0.5202680">
        <ele>173.6</ele>
        <time>2020-08-07T16:35:27Z</time>
      </trkpt>
      <trkpt lat="41.0259720" lon="0.5202900">
        <ele>173.6</ele>
        <time>2020-08-07T16:35:29Z</time>
      </trkpt>
      <trkpt lat="41.0260450" lon="0.5203580">
        <ele>173.8</ele>
        <time>2020-08-07T16:35:31Z</time>
      </trkpt>
      <trkpt lat="41.0261140" lon="0.5204360">
        <ele>174.0</ele>
        <time>2020-08-07T16:35:33Z</time>
      </trkpt>
      <trkpt lat="41.0261720" lon="0.5205170">
        <ele>174.1</ele>
        <time>2020-08-07T16:35:35Z</time>
      </trkpt>
      <trkpt lat="41.0262210" lon="0.5205960">
        <ele>174.3</ele>
        <time>2020-08-07T16:35:37Z</time>
      </trkpt>
      <trkpt lat="41.0262630" lon="0.5206730">
        <ele>174.4</ele>
        <time>2020-08-07T16:35:39Z</time>
      </trkpt>
      <trkpt lat="41.0262840" lon="0.5207090">
        <ele>174.4</ele>
        <time>2020-08-07T16:35:40Z</time>
      </trkpt>
      <trkpt lat="41.0263020" lon="0.5207500">
        <ele>174.5</ele>
        <time>2020-08-07T16:35:41Z</time>
      </trkpt>
      <trkpt lat="41.0263210" lon="0.5207850">
        <ele>174.5</ele>
        <time>2020-08-07T16:35:42Z</time>
      </trkpt>
      <trkpt lat="41.0263590" lon="0.5208540">
        <ele>174.6</ele>
        <time>2020-08-07T16:35:44Z</time>
      </trkpt>
      <trkpt lat="41.0263940" lon="0.5209320">
        <ele>174.7</ele>
        <time>2020-08-07T16:35:46Z</time>
      </trkpt>
      <trkpt lat="41.0264130" lon="0.5209720">
        <ele>174.7</ele>
        <time>2020-08-07T16:35:47Z</time>
      </trkpt>
      <trkpt lat="41.0264530" lon="0.5210480">
        <ele>174.8</ele>
        <time>2020-08-07T16:35:49Z</time>
      </trkpt>
      <trkpt lat="41.0264730" lon="0.5210860">
        <ele>174.9</ele>
        <time>2020-08-07T16:35:50Z</time>
      </trkpt>
      <trkpt lat="41.0264940" lon="0.5211310">
        <ele>175.0</ele>
        <time>2020-08-07T16:35:51Z</time>
      </trkpt>
      <trkpt lat="41.0265340" lon="0.5212070">
        <ele>175.1</ele>
        <time>2020-08-07T16:35:53Z</time>
      </trkpt>
      <trkpt lat="41.0265710" lon="0.5212790">
        <ele>175.2</ele>
        <time>2020-08-07T16:35:55Z</time>
      </trkpt>
      <trkpt lat="41.0266130" lon="0.5213470">
        <ele>175.4</ele>
        <time>2020-08-07T16:35:57Z</time>
      </trkpt>
      <trkpt lat="41.0266340" lon="0.5213830">
        <ele>175.4</ele>
        <time>2020-08-07T16:35:58Z</time>
      </trkpt>
      <trkpt lat="41.0266520" lon="0.5214200">
        <ele>175.5</ele>
        <time>2020-08-07T16:35:59Z</time>
      </trkpt>
      <trkpt lat="41.0266710" lon="0.5214570">
        <ele>175.5</ele>
        <time>2020-08-07T16:36:00Z</time>
      </trkpt>
      <trkpt lat="41.0266940" lon="0.5214970">
        <ele>175.6</ele>
        <time>2020-08-07T16:36:01Z</time>
      </trkpt>
      <trkpt lat="41.0267120" lon="0.5215340">
        <ele>175.6</ele>
        <time>2020-08-07T16:36:02Z</time>
      </trkpt>
      <trkpt lat="41.0267290" lon="0.5215700">
        <ele>175.7</ele>
        <time>2020-08-07T16:36:03Z</time>
      </trkpt>
      <trkpt lat="41.0267500" lon="0.5216080">
        <ele>175.7</ele>
        <time>2020-08-07T16:36:04Z</time>
      </trkpt>
      <trkpt lat="41.0267880" lon="0.5216800">
        <ele>175.9</ele>
        <time>2020-08-07T16:36:06Z</time>
      </trkpt>
      <trkpt lat="41.0268270" lon="0.5217630">
        <ele>176.0</ele>
        <time>2020-08-07T16:36:08Z</time>
      </trkpt>
      <trkpt lat="41.0268420" lon="0.5218000">
        <ele>176.1</ele>
        <time>2020-08-07T16:36:09Z</time>
      </trkpt>
      <trkpt lat="41.0268590" lon="0.5218360">
        <ele>176.2</ele>
        <time>2020-08-07T16:36:10Z</time>
      </trkpt>
      <trkpt lat="41.0268730" lon="0.5218750">
        <ele>176.3</ele>
        <time>2020-08-07T16:36:11Z</time>
      </trkpt>
      <trkpt lat="41.0268870" lon="0.5219080">
        <ele>176.3</ele>
        <time>2020-08-07T16:36:12Z</time>
      </trkpt>
      <trkpt lat="41.0269010" lon="0.5219410">
        <ele>176.4</ele>
        <time>2020-08-07T16:36:13Z</time>
      </trkpt>
      <trkpt lat="41.0269430" lon="0.5220460">
        <ele>176.7</ele>
        <time>2020-08-07T16:36:15Z</time>
      </trkpt>
      <trkpt lat="41.0269570" lon="0.5220870">
        <ele>176.7</ele>
        <time>2020-08-07T16:36:16Z</time>
      </trkpt>
      <trkpt lat="41.0269840" lon="0.5221570">
        <ele>176.9</ele>
        <time>2020-08-07T16:36:18Z</time>
      </trkpt>
      <trkpt lat="41.0270020" lon="0.5221960">
        <ele>177.0</ele>
        <time>2020-08-07T16:36:19Z</time>
      </trkpt>
      <trkpt lat="41.0270280" lon="0.5222600">
        <ele>177.1</ele>
        <time>2020-08-07T16:36:21Z</time>
      </trkpt>
      <trkpt lat="41.0270620" lon="0.5223360">
        <ele>177.3</ele>
        <time>2020-08-07T16:36:23Z</time>
      </trkpt>
      <trkpt lat="41.0270830" lon="0.5223750">
        <ele>177.4</ele>
        <time>2020-08-07T16:36:24Z</time>
      </trkpt>
      <trkpt lat="41.0271020" lon="0.5224140">
        <ele>177.5</ele>
        <time>2020-08-07T16:36:25Z</time>
      </trkpt>
      <trkpt lat="41.0271410" lon="0.5224910">
        <ele>177.6</ele>
        <time>2020-08-07T16:36:27Z</time>
      </trkpt>
      <trkpt lat="41.0271600" lon="0.5225310">
        <ele>177.7</ele>
        <time>2020-08-07T16:36:28Z</time>
      </trkpt>
      <trkpt lat="41.0272120" lon="0.5226570">
        <ele>178.0</ele>
        <time>2020-08-07T16:36:40Z</time>
      </trkpt>
      <trkpt lat="41.0272120" lon="0.5226570">
        <ele>178.0</ele>
        <time>2020-08-07T16:36:40Z</time>
      </trkpt>
      <trkpt lat="41.0273110" lon="0.5228680">
        <ele>178.6</ele>
        <time>2020-08-07T16:36:41Z</time>
      </trkpt>
      <trkpt lat="41.0273320" lon="0.5229150">
        <ele>178.8</ele>
        <time>2020-08-07T16:36:42Z</time>
      </trkpt>
      <trkpt lat="41.0274010" lon="0.5230810">
        <ele>179.3</ele>
        <time>2020-08-07T16:36:44Z</time>
      </trkpt>
      <trkpt lat="41.0274320" lon="0.5231660">
        <ele>179.5</ele>
        <time>2020-08-07T16:36:46Z</time>
      </trkpt>
      <trkpt lat="41.0274530" lon="0.5232340">
        <ele>179.7</ele>
        <time>2020-08-07T16:36:48Z</time>
      </trkpt>
      <trkpt lat="41.0274670" lon="0.5232740">
        <ele>179.8</ele>
        <time>2020-08-07T16:36:49Z</time>
      </trkpt>
      <trkpt lat="41.0274900" lon="0.5233480">
        <ele>180.0</ele>
        <time>2020-08-07T16:36:51Z</time>
      </trkpt>
      <trkpt lat="41.0275020" lon="0.5233810">
        <ele>180.1</ele>
        <time>2020-08-07T16:36:52Z</time>
      </trkpt>
      <trkpt lat="41.0275230" lon="0.5234480">
        <ele>180.3</ele>
        <time>2020-08-07T16:36:54Z</time>
      </trkpt>
      <trkpt lat="41.0275350" lon="0.5234820">
        <ele>180.4</ele>
        <time>2020-08-07T16:36:55Z</time>
      </trkpt>
      <trkpt lat="41.0275480" lon="0.5235190">
        <ele>180.5</ele>
        <time>2020-08-07T16:36:56Z</time>
      </trkpt>
      <trkpt lat="41.0275750" lon="0.5235880">
        <ele>180.7</ele>
        <time>2020-08-07T16:36:57Z</time>
      </trkpt>
      <trkpt lat="41.0275900" lon="0.5236390">
        <ele>180.8</ele>
        <time>2020-08-07T16:36:59Z</time>
      </trkpt>
      <trkpt lat="41.0275960" lon="0.5236550">
        <ele>180.8</ele>
        <time>2020-08-07T16:37:00Z</time>
      </trkpt>
      <trkpt lat="41.0276010" lon="0.5236710">
        <ele>180.9</ele>
        <time>2020-08-07T16:37:01Z</time>
      </trkpt>
      <trkpt lat="41.0276090" lon="0.5236860">
        <ele>180.9</ele>
        <time>2020-08-07T16:37:02Z</time>
      </trkpt>
      <trkpt lat="41.0276170" lon="0.5237040">
        <ele>181.0</ele>
        <time>2020-08-07T16:37:03Z</time>
      </trkpt>
      <trkpt lat="41.0276300" lon="0.5237300">
        <ele>181.0</ele>
        <time>2020-08-07T16:37:05Z</time>
      </trkpt>
      <trkpt lat="41.0276460" lon="0.5237760">
        <ele>181.2</ele>
        <time>2020-08-07T16:37:07Z</time>
      </trkpt>
      <trkpt lat="41.0276600" lon="0.5238100">
        <ele>181.2</ele>
        <time>2020-08-07T16:37:08Z</time>
      </trkpt>
      <trkpt lat="41.0276660" lon="0.5238250">
        <ele>181.3</ele>
        <time>2020-08-07T16:37:09Z</time>
      </trkpt>
      <trkpt lat="41.0276870" lon="0.5238850">
        <ele>181.4</ele>
        <time>2020-08-07T16:37:11Z</time>
      </trkpt>
      <trkpt lat="41.0277110" lon="0.5239400">
        <ele>181.5</ele>
        <time>2020-08-07T16:37:13Z</time>
      </trkpt>
      <trkpt lat="41.0277210" lon="0.5239640">
        <ele>181.5</ele>
        <time>2020-08-07T16:37:14Z</time>
      </trkpt>
      <trkpt lat="41.0277530" lon="0.5240690">
        <ele>181.6</ele>
        <time>2020-08-07T16:37:16Z</time>
      </trkpt>
      <trkpt lat="41.0277550" lon="0.5241650">
        <ele>181.7</ele>
        <time>2020-08-07T16:37:17Z</time>
      </trkpt>
      <trkpt lat="41.0277550" lon="0.5242810">
        <ele>181.7</ele>
        <time>2020-08-07T16:37:19Z</time>
      </trkpt>
      <trkpt lat="41.0277670" lon="0.5243290">
        <ele>181.8</ele>
        <time>2020-08-07T16:37:20Z</time>
      </trkpt>
      <trkpt lat="41.0277970" lon="0.5244010">
        <ele>181.8</ele>
        <time>2020-08-07T16:37:22Z</time>
      </trkpt>
      <trkpt lat="41.0278330" lon="0.5244590">
        <ele>181.9</ele>
        <time>2020-08-07T16:37:24Z</time>
      </trkpt>
      <trkpt lat="41.0278560" lon="0.5244860">
        <ele>182.0</ele>
        <time>2020-08-07T16:37:25Z</time>
      </trkpt>
      <trkpt lat="41.0278850" lon="0.5245050">
        <ele>182.0</ele>
        <time>2020-08-07T16:37:26Z</time>
      </trkpt>
      <trkpt lat="41.0279360" lon="0.5245480">
        <ele>182.0</ele>
        <time>2020-08-07T16:37:28Z</time>
      </trkpt>
      <trkpt lat="41.0279800" lon="0.5246060">
        <ele>182.0</ele>
        <time>2020-08-07T16:37:30Z</time>
      </trkpt>
      <trkpt lat="41.0280480" lon="0.5247140">
        <ele>182.0</ele>
        <time>2020-08-07T16:37:31Z</time>
      </trkpt>
      <trkpt lat="41.0282100" lon="0.5249370">
        <ele>181.8</ele>
        <time>2020-08-07T16:37:33Z</time>
      </trkpt>
      <trkpt lat="41.0282680" lon="0.5250000">
        <ele>181.7</ele>
        <time>2020-08-07T16:37:34Z</time>
      </trkpt>
      <trkpt lat="41.0283180" lon="0.5250540">
        <ele>181.5</ele>
        <time>2020-08-07T16:37:35Z</time>
      </trkpt>
      <trkpt lat="41.0283650" lon="0.5251030">
        <ele>181.4</ele>
        <time>2020-08-07T16:37:36Z</time>
      </trkpt>
      <trkpt lat="41.0284470" lon="0.5251920">
        <ele>181.2</ele>
        <time>2020-08-07T16:37:38Z</time>
      </trkpt>
      <trkpt lat="41.0284840" lon="0.5252340">
        <ele>181.1</ele>
        <time>2020-08-07T16:37:39Z</time>
      </trkpt>
      <trkpt lat="41.0285770" lon="0.5253090">
        <ele>180.9</ele>
        <time>2020-08-07T16:37:41Z</time>
      </trkpt>
      <trkpt lat="41.0286220" lon="0.5253530">
        <ele>180.8</ele>
        <time>2020-08-07T16:37:42Z</time>
      </trkpt>
      <trkpt lat="41.0286980" lon="0.5254370">
        <ele>180.6</ele>
        <time>2020-08-07T16:37:44Z</time>
      </trkpt>
      <trkpt lat="41.0287400" lon="0.5254810">
        <ele>180.5</ele>
        <time>2020-08-07T16:37:45Z</time>
      </trkpt>
      <trkpt lat="41.0287810" lon="0.5255300">
        <ele>180.4</ele>
        <time>2020-08-07T16:37:46Z</time>
      </trkpt>
      <trkpt lat="41.0288220" lon="0.5255800">
        <ele>180.3</ele>
        <time>2020-08-07T16:37:47Z</time>
      </trkpt>
      <trkpt lat="41.0289130" lon="0.5256850">
        <ele>180.0</ele>
        <time>2020-08-07T16:37:50Z</time>
      </trkpt>
      <trkpt lat="41.0289960" lon="0.5257840">
        <ele>179.8</ele>
        <time>2020-08-07T16:37:51Z</time>
      </trkpt>
      <trkpt lat="41.0290420" lon="0.5258390">
        <ele>179.7</ele>
        <time>2020-08-07T16:37:52Z</time>
      </trkpt>
      <trkpt lat="41.0291250" lon="0.5259420">
        <ele>179.6</ele>
        <time>2020-08-07T16:37:54Z</time>
      </trkpt>
      <trkpt lat="41.0291690" lon="0.5259870">
        <ele>179.5</ele>
        <time>2020-08-07T16:37:55Z</time>
      </trkpt>
      <trkpt lat="41.0292110" lon="0.5260370">
        <ele>179.5</ele>
        <time>2020-08-07T16:37:56Z</time>
      </trkpt>
      <trkpt lat="41.0292930" lon="0.5261490">
        <ele>179.4</ele>
        <time>2020-08-07T16:37:58Z</time>
      </trkpt>
      <trkpt lat="41.0293820" lon="0.5262510">
        <ele>179.2</ele>
        <time>2020-08-07T16:38:00Z</time>
      </trkpt>
      <trkpt lat="41.0294170" lon="0.5263030">
        <ele>179.2</ele>
        <time>2020-08-07T16:38:01Z</time>
      </trkpt>
      <trkpt lat="41.0295010" lon="0.5264000">
        <ele>179.1</ele>
        <time>2020-08-07T16:38:03Z</time>
      </trkpt>
      <trkpt lat="41.0295830" lon="0.5265070">
        <ele>179.0</ele>
        <time>2020-08-07T16:38:05Z</time>
      </trkpt>
      <trkpt lat="41.0296550" lon="0.5266110">
        <ele>179.0</ele>
        <time>2020-08-07T16:38:07Z</time>
      </trkpt>
      <trkpt lat="41.0296930" lon="0.5266590">
        <ele>179.0</ele>
        <time>2020-08-07T16:38:08Z</time>
      </trkpt>
      <trkpt lat="41.0297630" lon="0.5267470">
        <ele>178.9</ele>
        <time>2020-08-07T16:38:10Z</time>
      </trkpt>
      <trkpt lat="41.0298140" lon="0.5268400">
        <ele>178.9</ele>
        <time>2020-08-07T16:38:12Z</time>
      </trkpt>
      <trkpt lat="41.0298440" lon="0.5268890">
        <ele>178.9</ele>
        <time>2020-08-07T16:38:13Z</time>
      </trkpt>
      <trkpt lat="41.0299030" lon="0.5269860">
        <ele>178.9</ele>
        <time>2020-08-07T16:38:15Z</time>
      </trkpt>
      <trkpt lat="41.0299250" lon="0.5270320">
        <ele>178.9</ele>
        <time>2020-08-07T16:38:16Z</time>
      </trkpt>
      <trkpt lat="41.0299530" lon="0.5270770">
        <ele>178.9</ele>
        <time>2020-08-07T16:38:17Z</time>
      </trkpt>
      <trkpt lat="41.0299800" lon="0.5271240">
        <ele>178.9</ele>
        <time>2020-08-07T16:38:18Z</time>
      </trkpt>
      <trkpt lat="41.0300380" lon="0.5272200">
        <ele>178.9</ele>
        <time>2020-08-07T16:38:20Z</time>
      </trkpt>
      <trkpt lat="41.0300670" lon="0.5272710">
        <ele>179.0</ele>
        <time>2020-08-07T16:38:21Z</time>
      </trkpt>
      <trkpt lat="41.0300990" lon="0.5273180">
        <ele>179.0</ele>
        <time>2020-08-07T16:38:22Z</time>
      </trkpt>
      <trkpt lat="41.0301690" lon="0.5274060">
        <ele>179.0</ele>
        <time>2020-08-07T16:38:24Z</time>
      </trkpt>
      <trkpt lat="41.0302260" lon="0.5274930">
        <ele>179.0</ele>
        <time>2020-08-07T16:38:26Z</time>
      </trkpt>
      <trkpt lat="41.0302530" lon="0.5275410">
        <ele>179.0</ele>
        <time>2020-08-07T16:38:27Z</time>
      </trkpt>
      <trkpt lat="41.0302720" lon="0.5275800">
        <ele>179.0</ele>
        <time>2020-08-07T16:38:28Z</time>
      </trkpt>
      <trkpt lat="41.0303000" lon="0.5276340">
        <ele>178.9</ele>
        <time>2020-08-07T16:38:29Z</time>
      </trkpt>
      <trkpt lat="41.0303280" lon="0.5276820">
        <ele>178.9</ele>
        <time>2020-08-07T16:38:30Z</time>
      </trkpt>
      <trkpt lat="41.0303560" lon="0.5277290">
        <ele>178.9</ele>
        <time>2020-08-07T16:38:31Z</time>
      </trkpt>
      <trkpt lat="41.0303840" lon="0.5277760">
        <ele>178.9</ele>
        <time>2020-08-07T16:38:32Z</time>
      </trkpt>
      <trkpt lat="41.0304380" lon="0.5278560">
        <ele>178.9</ele>
        <time>2020-08-07T16:38:33Z</time>
      </trkpt>
      <trkpt lat="41.0304540" lon="0.5279110">
        <ele>179.0</ele>
        <time>2020-08-07T16:38:35Z</time>
      </trkpt>
      <trkpt lat="41.0304640" lon="0.5279620">
        <ele>179.0</ele>
        <time>2020-08-07T16:38:36Z</time>
      </trkpt>
      <trkpt lat="41.0305120" lon="0.5280020">
        <ele>179.1</ele>
        <time>2020-08-07T16:38:37Z</time>
      </trkpt>
      <trkpt lat="41.0305350" lon="0.5280240">
        <ele>179.1</ele>
        <time>2020-08-07T16:38:39Z</time>
      </trkpt>
      <trkpt lat="41.0305630" lon="0.5280480">
        <ele>179.2</ele>
        <time>2020-08-07T16:38:41Z</time>
      </trkpt>
      <trkpt lat="41.0305780" lon="0.5280580">
        <ele>179.2</ele>
        <time>2020-08-07T16:38:42Z</time>
      </trkpt>
      <trkpt lat="41.0306170" lon="0.5280790">
        <ele>179.3</ele>
        <time>2020-08-07T16:38:44Z</time>
      </trkpt>
      <trkpt lat="41.0306480" lon="0.5280860">
        <ele>179.3</ele>
        <time>2020-08-07T16:38:45Z</time>
      </trkpt>
      <trkpt lat="41.0306600" lon="0.5280870">
        <ele>179.4</ele>
        <time>2020-08-07T16:38:46Z</time>
      </trkpt>
      <trkpt lat="41.0306720" lon="0.5280840">
        <ele>179.4</ele>
        <time>2020-08-07T16:38:48Z</time>
      </trkpt>
      <trkpt lat="41.0306920" lon="0.5280890">
        <ele>179.4</ele>
        <time>2020-08-07T16:38:49Z</time>
      </trkpt>
      <trkpt lat="41.0307320" lon="0.5281040">
        <ele>179.5</ele>
        <time>2020-08-07T16:38:51Z</time>
      </trkpt>
      <trkpt lat="41.0307580" lon="0.5281270">
        <ele>179.6</ele>
        <time>2020-08-07T16:38:53Z</time>
      </trkpt>
      <trkpt lat="41.0307820" lon="0.5281510">
        <ele>179.6</ele>
        <time>2020-08-07T16:38:54Z</time>
      </trkpt>
      <trkpt lat="41.0308020" lon="0.5281660">
        <ele>179.7</ele>
        <time>2020-08-07T16:38:56Z</time>
      </trkpt>
      <trkpt lat="41.0308800" lon="0.5282120">
        <ele>179.8</ele>
        <time>2020-08-07T16:38:58Z</time>
      </trkpt>
      <trkpt lat="41.0310430" lon="0.5282630">
        <ele>180.0</ele>
        <time>2020-08-07T16:38:59Z</time>
      </trkpt>
      <trkpt lat="41.0311350" lon="0.5282950">
        <ele>180.1</ele>
        <time>2020-08-07T16:39:01Z</time>
      </trkpt>
      <trkpt lat="41.0312230" lon="0.5283730">
        <ele>180.2</ele>
        <time>2020-08-07T16:39:03Z</time>
      </trkpt>
      <trkpt lat="41.0312510" lon="0.5284280">
        <ele>180.3</ele>
        <time>2020-08-07T16:39:04Z</time>
      </trkpt>
      <trkpt lat="41.0312800" lon="0.5284940">
        <ele>180.3</ele>
        <time>2020-08-07T16:39:06Z</time>
      </trkpt>
      <trkpt lat="41.0313120" lon="0.5285630">
        <ele>180.3</ele>
        <time>2020-08-07T16:39:08Z</time>
      </trkpt>
      <trkpt lat="41.0313400" lon="0.5286230">
        <ele>180.4</ele>
        <time>2020-08-07T16:39:10Z</time>
      </trkpt>
      <trkpt lat="41.0313640" lon="0.5286560">
        <ele>180.4</ele>
        <time>2020-08-07T16:39:11Z</time>
      </trkpt>
      <trkpt lat="41.0313880" lon="0.5287090">
        <ele>180.4</ele>
        <time>2020-08-07T16:39:13Z</time>
      </trkpt>
      <trkpt lat="41.0313950" lon="0.5287260">
        <ele>180.4</ele>
        <time>2020-08-07T16:39:14Z</time>
      </trkpt>
      <trkpt lat="41.0314030" lon="0.5287440">
        <ele>180.4</ele>
        <time>2020-08-07T16:39:15Z</time>
      </trkpt>
      <trkpt lat="41.0316150" lon="0.5289320">
        <ele>180.5</ele>
        <time>2020-08-07T16:39:16Z</time>
      </trkpt>
      <trkpt lat="41.0317160" lon="0.5290190">
        <ele>180.6</ele>
        <time>2020-08-07T16:39:18Z</time>
      </trkpt>
      <trkpt lat="41.0318030" lon="0.5291140">
        <ele>180.6</ele>
        <time>2020-08-07T16:39:20Z</time>
      </trkpt>
      <trkpt lat="41.0318340" lon="0.5291560">
        <ele>180.6</ele>
        <time>2020-08-07T16:39:21Z</time>
      </trkpt>
      <trkpt lat="41.0318810" lon="0.5292360">
        <ele>180.6</ele>
        <time>2020-08-07T16:39:23Z</time>
      </trkpt>
      <trkpt lat="41.0319030" lon="0.5292740">
        <ele>180.6</ele>
        <time>2020-08-07T16:39:24Z</time>
      </trkpt>
      <trkpt lat="41.0319220" lon="0.5293060">
        <ele>180.6</ele>
        <time>2020-08-07T16:39:25Z</time>
      </trkpt>
      <trkpt lat="41.0319440" lon="0.5293480">
        <ele>180.6</ele>
        <time>2020-08-07T16:39:26Z</time>
      </trkpt>
      <trkpt lat="41.0319650" lon="0.5293900">
        <ele>180.6</ele>
        <time>2020-08-07T16:39:27Z</time>
      </trkpt>
      <trkpt lat="41.0319870" lon="0.5294330">
        <ele>180.6</ele>
        <time>2020-08-07T16:39:28Z</time>
      </trkpt>
      <trkpt lat="41.0320300" lon="0.5295140">
        <ele>180.6</ele>
        <time>2020-08-07T16:39:30Z</time>
      </trkpt>
      <trkpt lat="41.0320520" lon="0.5295560">
        <ele>180.7</ele>
        <time>2020-08-07T16:39:31Z</time>
      </trkpt>
      <trkpt lat="41.0321010" lon="0.5296370">
        <ele>180.7</ele>
        <time>2020-08-07T16:39:33Z</time>
      </trkpt>
      <trkpt lat="41.0321480" lon="0.5297110">
        <ele>180.7</ele>
        <time>2020-08-07T16:39:35Z</time>
      </trkpt>
      <trkpt lat="41.0321730" lon="0.5297490">
        <ele>180.7</ele>
        <time>2020-08-07T16:39:36Z</time>
      </trkpt>
      <trkpt lat="41.0322290" lon="0.5298260">
        <ele>180.8</ele>
        <time>2020-08-07T16:39:38Z</time>
      </trkpt>
      <trkpt lat="41.0322790" lon="0.5298990">
        <ele>180.8</ele>
        <time>2020-08-07T16:39:40Z</time>
      </trkpt>
      <trkpt lat="41.0323270" lon="0.5299850">
        <ele>180.8</ele>
        <time>2020-08-07T16:39:42Z</time>
      </trkpt>
      <trkpt lat="41.0323740" lon="0.5300650">
        <ele>180.8</ele>
        <time>2020-08-07T16:39:44Z</time>
      </trkpt>
      <trkpt lat="41.0323990" lon="0.5301050">
        <ele>180.9</ele>
        <time>2020-08-07T16:39:45Z</time>
      </trkpt>
      <trkpt lat="41.0324470" lon="0.5301840">
        <ele>180.9</ele>
        <time>2020-08-07T16:39:47Z</time>
      </trkpt>
      <trkpt lat="41.0324690" lon="0.5302220">
        <ele>181.0</ele>
        <time>2020-08-07T16:39:48Z</time>
      </trkpt>
      <trkpt lat="41.0325110" lon="0.5302940">
        <ele>181.1</ele>
        <time>2020-08-07T16:39:50Z</time>
      </trkpt>
      <trkpt lat="41.0325470" lon="0.5303590">
        <ele>181.2</ele>
        <time>2020-08-07T16:39:52Z</time>
      </trkpt>
      <trkpt lat="41.0325710" lon="0.5304000">
        <ele>181.2</ele>
        <time>2020-08-07T16:39:53Z</time>
      </trkpt>
      <trkpt lat="41.0326160" lon="0.5304780">
        <ele>181.3</ele>
        <time>2020-08-07T16:39:55Z</time>
      </trkpt>
      <trkpt lat="41.0326390" lon="0.5305160">
        <ele>181.3</ele>
        <time>2020-08-07T16:39:56Z</time>
      </trkpt>
      <trkpt lat="41.0326740" lon="0.5305790">
        <ele>181.4</ele>
        <time>2020-08-07T16:39:58Z</time>
      </trkpt>
      <trkpt lat="41.0326960" lon="0.5306170">
        <ele>181.4</ele>
        <time>2020-08-07T16:39:59Z</time>
      </trkpt>
      <trkpt lat="41.0327160" lon="0.5306520">
        <ele>181.5</ele>
        <time>2020-08-07T16:40:00Z</time>
      </trkpt>
      <trkpt lat="41.0327340" lon="0.5306800">
        <ele>181.5</ele>
        <time>2020-08-07T16:40:01Z</time>
      </trkpt>
      <trkpt lat="41.0327860" lon="0.5307490">
        <ele>181.6</ele>
        <time>2020-08-07T16:40:03Z</time>
      </trkpt>
      <trkpt lat="41.0328140" lon="0.5307800">
        <ele>181.6</ele>
        <time>2020-08-07T16:40:04Z</time>
      </trkpt>
      <trkpt lat="41.0328430" lon="0.5308080">
        <ele>181.6</ele>
        <time>2020-08-07T16:40:05Z</time>
      </trkpt>
      <trkpt lat="41.0328730" lon="0.5308370">
        <ele>181.7</ele>
        <time>2020-08-07T16:40:06Z</time>
      </trkpt>
      <trkpt lat="41.0329300" lon="0.5308980">
        <ele>181.7</ele>
        <time>2020-08-07T16:40:08Z</time>
      </trkpt>
      <trkpt lat="41.0329860" lon="0.5309600">
        <ele>181.8</ele>
        <time>2020-08-07T16:40:10Z</time>
      </trkpt>
      <trkpt lat="41.0330460" lon="0.5310240">
        <ele>181.8</ele>
        <time>2020-08-07T16:40:12Z</time>
      </trkpt>
      <trkpt lat="41.0330690" lon="0.5310470">
        <ele>181.8</ele>
        <time>2020-08-07T16:40:13Z</time>
      </trkpt>
      <trkpt lat="41.0331010" lon="0.5310840">
        <ele>181.8</ele>
        <time>2020-08-07T16:40:14Z</time>
      </trkpt>
      <trkpt lat="41.0331630" lon="0.5311540">
        <ele>181.9</ele>
        <time>2020-08-07T16:40:16Z</time>
      </trkpt>
      <trkpt lat="41.0331930" lon="0.5311870">
        <ele>181.9</ele>
        <time>2020-08-07T16:40:17Z</time>
      </trkpt>
      <trkpt lat="41.0332540" lon="0.5312510">
        <ele>181.9</ele>
        <time>2020-08-07T16:40:19Z</time>
      </trkpt>
      <trkpt lat="41.0332850" lon="0.5312840">
        <ele>182.0</ele>
        <time>2020-08-07T16:40:20Z</time>
      </trkpt>
      <trkpt lat="41.0333150" lon="0.5313150">
        <ele>182.0</ele>
        <time>2020-08-07T16:40:21Z</time>
      </trkpt>
      <trkpt lat="41.0333750" lon="0.5313790">
        <ele>182.0</ele>
        <time>2020-08-07T16:40:23Z</time>
      </trkpt>
      <trkpt lat="41.0334010" lon="0.5314100">
        <ele>182.0</ele>
        <time>2020-08-07T16:40:24Z</time>
      </trkpt>
      <trkpt lat="41.0334270" lon="0.5314440">
        <ele>182.0</ele>
        <time>2020-08-07T16:40:25Z</time>
      </trkpt>
      <trkpt lat="41.0334520" lon="0.5314760">
        <ele>182.0</ele>
        <time>2020-08-07T16:40:26Z</time>
      </trkpt>
      <trkpt lat="41.0335020" lon="0.5315460">
        <ele>182.0</ele>
        <time>2020-08-07T16:40:28Z</time>
      </trkpt>
      <trkpt lat="41.0335190" lon="0.5315710">
        <ele>182.0</ele>
        <time>2020-08-07T16:40:29Z</time>
      </trkpt>
      <trkpt lat="41.0335650" lon="0.5316380">
        <ele>182.0</ele>
        <time>2020-08-07T16:40:31Z</time>
      </trkpt>
      <trkpt lat="41.0336150" lon="0.5317070">
        <ele>181.9</ele>
        <time>2020-08-07T16:40:33Z</time>
      </trkpt>
      <trkpt lat="41.0336630" lon="0.5317780">
        <ele>182.0</ele>
        <time>2020-08-07T16:40:35Z</time>
      </trkpt>
      <trkpt lat="41.0336930" lon="0.5318210">
        <ele>182.0</ele>
        <time>2020-08-07T16:40:36Z</time>
      </trkpt>
      <trkpt lat="41.0337060" lon="0.5318390">
        <ele>182.0</ele>
        <time>2020-08-07T16:40:37Z</time>
      </trkpt>
      <trkpt lat="41.0337330" lon="0.5318720">
        <ele>182.0</ele>
        <time>2020-08-07T16:40:38Z</time>
      </trkpt>
      <trkpt lat="41.0337860" lon="0.5319340">
        <ele>182.0</ele>
        <time>2020-08-07T16:40:40Z</time>
      </trkpt>
      <trkpt lat="41.0338100" lon="0.5319590">
        <ele>182.0</ele>
        <time>2020-08-07T16:40:41Z</time>
      </trkpt>
      <trkpt lat="41.0338380" lon="0.5319890">
        <ele>182.0</ele>
        <time>2020-08-07T16:40:42Z</time>
      </trkpt>
      <trkpt lat="41.0338870" lon="0.5320570">
        <ele>182.0</ele>
        <time>2020-08-07T16:40:44Z</time>
      </trkpt>
      <trkpt lat="41.0339060" lon="0.5320850">
        <ele>181.9</ele>
        <time>2020-08-07T16:40:45Z</time>
      </trkpt>
      <trkpt lat="41.0339620" lon="0.5321570">
        <ele>181.9</ele>
        <time>2020-08-07T16:40:47Z</time>
      </trkpt>
      <trkpt lat="41.0339890" lon="0.5321920">
        <ele>181.9</ele>
        <time>2020-08-07T16:40:48Z</time>
      </trkpt>
      <trkpt lat="41.0340380" lon="0.5322470">
        <ele>181.9</ele>
        <time>2020-08-07T16:40:50Z</time>
      </trkpt>
      <trkpt lat="41.0340970" lon="0.5323090">
        <ele>182.0</ele>
        <time>2020-08-07T16:40:52Z</time>
      </trkpt>
      <trkpt lat="41.0341590" lon="0.5323800">
        <ele>182.0</ele>
        <time>2020-08-07T16:40:54Z</time>
      </trkpt>
      <trkpt lat="41.0341880" lon="0.5324150">
        <ele>182.1</ele>
        <time>2020-08-07T16:40:55Z</time>
      </trkpt>
      <trkpt lat="41.0342150" lon="0.5324500">
        <ele>182.1</ele>
        <time>2020-08-07T16:40:56Z</time>
      </trkpt>
      <trkpt lat="41.0342680" lon="0.5325180">
        <ele>182.0</ele>
        <time>2020-08-07T16:40:58Z</time>
      </trkpt>
      <trkpt lat="41.0342870" lon="0.5325420">
        <ele>182.0</ele>
        <time>2020-08-07T16:40:59Z</time>
      </trkpt>
      <trkpt lat="41.0343450" lon="0.5326090">
        <ele>182.1</ele>
        <time>2020-08-07T16:41:01Z</time>
      </trkpt>
      <trkpt lat="41.0343760" lon="0.5326450">
        <ele>182.1</ele>
        <time>2020-08-07T16:41:02Z</time>
      </trkpt>
      <trkpt lat="41.0344340" lon="0.5327140">
        <ele>182.3</ele>
        <time>2020-08-07T16:41:04Z</time>
      </trkpt>
      <trkpt lat="41.0344550" lon="0.5327400">
        <ele>182.3</ele>
        <time>2020-08-07T16:41:05Z</time>
      </trkpt>
      <trkpt lat="41.0344840" lon="0.5327750">
        <ele>182.4</ele>
        <time>2020-08-07T16:41:06Z</time>
      </trkpt>
      <trkpt lat="41.0345360" lon="0.5328390">
        <ele>182.6</ele>
        <time>2020-08-07T16:41:08Z</time>
      </trkpt>
      <trkpt lat="41.0345580" lon="0.5328650">
        <ele>182.6</ele>
        <time>2020-08-07T16:41:09Z</time>
      </trkpt>
      <trkpt lat="41.0345850" lon="0.5328960">
        <ele>182.7</ele>
        <time>2020-08-07T16:41:10Z</time>
      </trkpt>
      <trkpt lat="41.0346150" lon="0.5329290">
        <ele>182.8</ele>
        <time>2020-08-07T16:41:11Z</time>
      </trkpt>
      <trkpt lat="41.0346620" lon="0.5329820">
        <ele>182.9</ele>
        <time>2020-08-07T16:41:13Z</time>
      </trkpt>
      <trkpt lat="41.0346800" lon="0.5330050">
        <ele>182.9</ele>
        <time>2020-08-07T16:41:14Z</time>
      </trkpt>
      <trkpt lat="41.0347260" lon="0.5330620">
        <ele>183.1</ele>
        <time>2020-08-07T16:41:16Z</time>
      </trkpt>
      <trkpt lat="41.0347490" lon="0.5330860">
        <ele>183.2</ele>
        <time>2020-08-07T16:41:17Z</time>
      </trkpt>
      <trkpt lat="41.0347920" lon="0.5331250">
        <ele>183.3</ele>
        <time>2020-08-07T16:41:19Z</time>
      </trkpt>
      <trkpt lat="41.0348320" lon="0.5331700">
        <ele>183.5</ele>
        <time>2020-08-07T16:41:21Z</time>
      </trkpt>
      <trkpt lat="41.0348590" lon="0.5332070">
        <ele>183.6</ele>
        <time>2020-08-07T16:41:22Z</time>
      </trkpt>
      <trkpt lat="41.0348680" lon="0.5332210">
        <ele>183.6</ele>
        <time>2020-08-07T16:41:23Z</time>
      </trkpt>
      <trkpt lat="41.0348920" lon="0.5332520">
        <ele>183.7</ele>
        <time>2020-08-07T16:41:24Z</time>
      </trkpt>
      <trkpt lat="41.0349430" lon="0.5333060">
        <ele>183.9</ele>
        <time>2020-08-07T16:41:26Z</time>
      </trkpt>
      <trkpt lat="41.0349670" lon="0.5333290">
        <ele>184.0</ele>
        <time>2020-08-07T16:41:27Z</time>
      </trkpt>
      <trkpt lat="41.0350160" lon="0.5333790">
        <ele>184.3</ele>
        <time>2020-08-07T16:41:29Z</time>
      </trkpt>
      <trkpt lat="41.0350400" lon="0.5334050">
        <ele>184.4</ele>
        <time>2020-08-07T16:41:30Z</time>
      </trkpt>
      <trkpt lat="41.0350640" lon="0.5334320">
        <ele>184.5</ele>
        <time>2020-08-07T16:41:31Z</time>
      </trkpt>
      <trkpt lat="41.0350850" lon="0.5334550">
        <ele>184.6</ele>
        <time>2020-08-07T16:41:32Z</time>
      </trkpt>
      <trkpt lat="41.0351250" lon="0.5334990">
        <ele>184.8</ele>
        <time>2020-08-07T16:41:34Z</time>
      </trkpt>
      <trkpt lat="41.0351480" lon="0.5335220">
        <ele>184.9</ele>
        <time>2020-08-07T16:41:35Z</time>
      </trkpt>
      <trkpt lat="41.0351700" lon="0.5335460">
        <ele>185.0</ele>
        <time>2020-08-07T16:41:36Z</time>
      </trkpt>
      <trkpt lat="41.0352110" lon="0.5335930">
        <ele>185.2</ele>
        <time>2020-08-07T16:41:38Z</time>
      </trkpt>
      <trkpt lat="41.0352320" lon="0.5336160">
        <ele>185.3</ele>
        <time>2020-08-07T16:41:39Z</time>
      </trkpt>
      <trkpt lat="41.0352730" lon="0.5336640">
        <ele>185.6</ele>
        <time>2020-08-07T16:41:41Z</time>
      </trkpt>
      <trkpt lat="41.0352900" lon="0.5336840">
        <ele>185.7</ele>
        <time>2020-08-07T16:41:42Z</time>
      </trkpt>
      <trkpt lat="41.0353250" lon="0.5337290">
        <ele>185.9</ele>
        <time>2020-08-07T16:41:44Z</time>
      </trkpt>
      <trkpt lat="41.0353320" lon="0.5337440">
        <ele>185.9</ele>
        <time>2020-08-07T16:41:45Z</time>
      </trkpt>
      <trkpt lat="41.0353110" lon="0.5337380">
        <ele>186.0</ele>
        <time>2020-08-07T16:41:47Z</time>
      </trkpt>
      <trkpt lat="41.0352960" lon="0.5337310">
        <ele>186.1</ele>
        <time>2020-08-07T16:41:48Z</time>
      </trkpt>
      <trkpt lat="41.0352830" lon="0.5337270">
        <ele>186.1</ele>
        <time>2020-08-07T16:41:49Z</time>
      </trkpt>
      <trkpt lat="41.0352690" lon="0.5337270">
        <ele>186.2</ele>
        <time>2020-08-07T16:41:51Z</time>
      </trkpt>
      <trkpt lat="41.0352680" lon="0.5337330">
        <ele>186.2</ele>
        <time>2020-08-07T16:42:05Z</time>
      </trkpt>
      <trkpt lat="41.0353070" lon="0.5337810">
        <ele>186.4</ele>
        <time>2020-08-07T16:42:10Z</time>
      </trkpt>
      <trkpt lat="41.0353550" lon="0.5338390">
        <ele>186.6</ele>
        <time>2020-08-07T16:42:12Z</time>
      </trkpt>
      <trkpt lat="41.0353950" lon="0.5338870">
        <ele>186.8</ele>
        <time>2020-08-07T16:42:14Z</time>
      </trkpt>
      <trkpt lat="41.0354650" lon="0.5339730">
        <ele>187.1</ele>
        <time>2020-08-07T16:42:16Z</time>
      </trkpt>
      <trkpt lat="41.0354970" lon="0.5340110">
        <ele>187.2</ele>
        <time>2020-08-07T16:42:17Z</time>
      </trkpt>
      <trkpt lat="41.0355240" lon="0.5340440">
        <ele>187.4</ele>
        <time>2020-08-07T16:42:18Z</time>
      </trkpt>
      <trkpt lat="41.0355560" lon="0.5340810">
        <ele>187.5</ele>
        <time>2020-08-07T16:42:19Z</time>
      </trkpt>
      <trkpt lat="41.0355530" lon="0.5341010">
        <ele>187.5</ele>
        <time>2020-08-07T16:42:20Z</time>
      </trkpt>
      <trkpt lat="41.0355590" lon="0.5341170">
        <ele>187.6</ele>
        <time>2020-08-07T16:42:22Z</time>
      </trkpt>
      <trkpt lat="41.0355650" lon="0.5341330">
        <ele>187.6</ele>
        <time>2020-08-07T16:42:23Z</time>
      </trkpt>
      <trkpt lat="41.0356120" lon="0.5341810">
        <ele>187.8</ele>
        <time>2020-08-07T16:42:24Z</time>
      </trkpt>
      <trkpt lat="41.0356870" lon="0.5342570">
        <ele>188.1</ele>
        <time>2020-08-07T16:42:25Z</time>
      </trkpt>
      <trkpt lat="41.0357430" lon="0.5343140">
        <ele>188.4</ele>
        <time>2020-08-07T16:42:27Z</time>
      </trkpt>
      <trkpt lat="41.0357810" lon="0.5343530">
        <ele>188.5</ele>
        <time>2020-08-07T16:42:28Z</time>
      </trkpt>
      <trkpt lat="41.0358320" lon="0.5344040">
        <ele>188.7</ele>
        <time>2020-08-07T16:42:29Z</time>
      </trkpt>
      <trkpt lat="41.0358760" lon="0.5344510">
        <ele>188.9</ele>
        <time>2020-08-07T16:42:30Z</time>
      </trkpt>
      <trkpt lat="41.0359190" lon="0.5344950">
        <ele>189.1</ele>
        <time>2020-08-07T16:42:32Z</time>
      </trkpt>
      <trkpt lat="41.0359790" lon="0.5345550">
        <ele>189.3</ele>
        <time>2020-08-07T16:42:34Z</time>
      </trkpt>
      <trkpt lat="41.0360130" lon="0.5345820">
        <ele>189.4</ele>
        <time>2020-08-07T16:42:35Z</time>
      </trkpt>
      <trkpt lat="41.0360440" lon="0.5346140">
        <ele>189.5</ele>
        <time>2020-08-07T16:42:36Z</time>
      </trkpt>
      <trkpt lat="41.0360860" lon="0.5346600">
        <ele>189.7</ele>
        <time>2020-08-07T16:42:37Z</time>
      </trkpt>
      <trkpt lat="41.0361440" lon="0.5347200">
        <ele>189.9</ele>
        <time>2020-08-07T16:42:39Z</time>
      </trkpt>
      <trkpt lat="41.0361700" lon="0.5347460">
        <ele>190.0</ele>
        <time>2020-08-07T16:42:40Z</time>
      </trkpt>
      <trkpt lat="41.0362070" lon="0.5347830">
        <ele>190.2</ele>
        <time>2020-08-07T16:42:41Z</time>
      </trkpt>
      <trkpt lat="41.0362380" lon="0.5348130">
        <ele>190.4</ele>
        <time>2020-08-07T16:42:42Z</time>
      </trkpt>
      <trkpt lat="41.0363010" lon="0.5348770">
        <ele>190.7</ele>
        <time>2020-08-07T16:42:44Z</time>
      </trkpt>
      <trkpt lat="41.0363360" lon="0.5349110">
        <ele>190.8</ele>
        <time>2020-08-07T16:42:45Z</time>
      </trkpt>
      <trkpt lat="41.0363970" lon="0.5349660">
        <ele>191.1</ele>
        <time>2020-08-07T16:42:47Z</time>
      </trkpt>
      <trkpt lat="41.0364320" lon="0.5349970">
        <ele>191.2</ele>
        <time>2020-08-07T16:42:48Z</time>
      </trkpt>
      <trkpt lat="41.0364950" lon="0.5350570">
        <ele>191.5</ele>
        <time>2020-08-07T16:42:50Z</time>
      </trkpt>
      <trkpt lat="41.0365220" lon="0.5350890">
        <ele>191.6</ele>
        <time>2020-08-07T16:42:51Z</time>
      </trkpt>
      <trkpt lat="41.0365670" lon="0.5351480">
        <ele>191.9</ele>
        <time>2020-08-07T16:42:53Z</time>
      </trkpt>
      <trkpt lat="41.0365970" lon="0.5351860">
        <ele>192.1</ele>
        <time>2020-08-07T16:42:54Z</time>
      </trkpt>
      <trkpt lat="41.0366500" lon="0.5352560">
        <ele>192.4</ele>
        <time>2020-08-07T16:42:56Z</time>
      </trkpt>
      <trkpt lat="41.0366750" lon="0.5352890">
        <ele>192.6</ele>
        <time>2020-08-07T16:42:57Z</time>
      </trkpt>
      <trkpt lat="41.0367010" lon="0.5353250">
        <ele>192.8</ele>
        <time>2020-08-07T16:42:58Z</time>
      </trkpt>
      <trkpt lat="41.0367510" lon="0.5353910">
        <ele>193.1</ele>
        <time>2020-08-07T16:43:00Z</time>
      </trkpt>
      <trkpt lat="41.0367710" lon="0.5354180">
        <ele>193.3</ele>
        <time>2020-08-07T16:43:01Z</time>
      </trkpt>
      <trkpt lat="41.0368260" lon="0.5354920">
        <ele>193.6</ele>
        <time>2020-08-07T16:43:03Z</time>
      </trkpt>
      <trkpt lat="41.0368480" lon="0.5355250">
        <ele>193.8</ele>
        <time>2020-08-07T16:43:04Z</time>
      </trkpt>
      <trkpt lat="41.0368680" lon="0.5355590">
        <ele>194.0</ele>
        <time>2020-08-07T16:43:05Z</time>
      </trkpt>
      <trkpt lat="41.0369120" lon="0.5356350">
        <ele>194.3</ele>
        <time>2020-08-07T16:43:07Z</time>
      </trkpt>
      <trkpt lat="41.0369540" lon="0.5357090">
        <ele>194.7</ele>
        <time>2020-08-07T16:43:09Z</time>
      </trkpt>
      <trkpt lat="41.0369760" lon="0.5357510">
        <ele>194.9</ele>
        <time>2020-08-07T16:43:10Z</time>
      </trkpt>
      <trkpt lat="41.0369690" lon="0.5357340">
        <ele>194.9</ele>
        <time>2020-08-07T16:43:11Z</time>
      </trkpt>
      <trkpt lat="41.0369780" lon="0.5357380">
        <ele>195.0</ele>
        <time>2020-08-07T16:43:12Z</time>
      </trkpt>
      <trkpt lat="41.0369800" lon="0.5357360">
        <ele>195.0</ele>
        <time>2020-08-07T16:43:14Z</time>
      </trkpt>
      <trkpt lat="41.0369970" lon="0.5357600">
        <ele>195.1</ele>
        <time>2020-08-07T16:43:15Z</time>
      </trkpt>
      <trkpt lat="41.0370100" lon="0.5357840">
        <ele>195.2</ele>
        <time>2020-08-07T16:43:17Z</time>
      </trkpt>
      <trkpt lat="41.0370290" lon="0.5358180">
        <ele>195.3</ele>
        <time>2020-08-07T16:43:18Z</time>
      </trkpt>
      <trkpt lat="41.0370350" lon="0.5358290">
        <ele>195.4</ele>
        <time>2020-08-07T16:43:19Z</time>
      </trkpt>
      <trkpt lat="41.0370540" lon="0.5358680">
        <ele>195.5</ele>
        <time>2020-08-07T16:43:20Z</time>
      </trkpt>
      <trkpt lat="41.0370600" lon="0.5358820">
        <ele>195.6</ele>
        <time>2020-08-07T16:43:21Z</time>
      </trkpt>
      <trkpt lat="41.0370860" lon="0.5359370">
        <ele>195.8</ele>
        <time>2020-08-07T16:43:23Z</time>
      </trkpt>
      <trkpt lat="41.0371080" lon="0.5359780">
        <ele>195.9</ele>
        <time>2020-08-07T16:43:24Z</time>
      </trkpt>
      <trkpt lat="41.0371300" lon="0.5360100">
        <ele>196.1</ele>
        <time>2020-08-07T16:43:25Z</time>
      </trkpt>
      <trkpt lat="41.0371650" lon="0.5360490">
        <ele>196.2</ele>
        <time>2020-08-07T16:43:27Z</time>
      </trkpt>
      <trkpt lat="41.0371970" lon="0.5360720">
        <ele>196.4</ele>
        <time>2020-08-07T16:43:28Z</time>
      </trkpt>
      <trkpt lat="41.0372080" lon="0.5360790">
        <ele>196.4</ele>
        <time>2020-08-07T16:43:29Z</time>
      </trkpt>
      <trkpt lat="41.0372270" lon="0.5360900">
        <ele>196.5</ele>
        <time>2020-08-07T16:43:30Z</time>
      </trkpt>
      <trkpt lat="41.0372710" lon="0.5361040">
        <ele>196.7</ele>
        <time>2020-08-07T16:43:32Z</time>
      </trkpt>
      <trkpt lat="41.0372870" lon="0.5361090">
        <ele>196.8</ele>
        <time>2020-08-07T16:43:33Z</time>
      </trkpt>
      <trkpt lat="41.0373250" lon="0.5361120">
        <ele>196.9</ele>
        <time>2020-08-07T16:43:35Z</time>
      </trkpt>
      <trkpt lat="41.0374400" lon="0.5361490">
        <ele>197.3</ele>
        <time>2020-08-07T16:43:36Z</time>
      </trkpt>
      <trkpt lat="41.0375130" lon="0.5361860">
        <ele>197.5</ele>
        <time>2020-08-07T16:43:38Z</time>
      </trkpt>
      <trkpt lat="41.0375970" lon="0.5362170">
        <ele>197.8</ele>
        <time>2020-08-07T16:43:40Z</time>
      </trkpt>
      <trkpt lat="41.0376370" lon="0.5362290">
        <ele>197.9</ele>
        <time>2020-08-07T16:43:41Z</time>
      </trkpt>
      <trkpt lat="41.0376640" lon="0.5362340">
        <ele>198.0</ele>
        <time>2020-08-07T16:43:42Z</time>
      </trkpt>
      <trkpt lat="41.0376920" lon="0.5362280">
        <ele>198.0</ele>
        <time>2020-08-07T16:43:43Z</time>
      </trkpt>
      <trkpt lat="41.0377190" lon="0.5362250">
        <ele>198.1</ele>
        <time>2020-08-07T16:43:45Z</time>
      </trkpt>
      <trkpt lat="41.0377400" lon="0.5362280">
        <ele>198.1</ele>
        <time>2020-08-07T16:43:46Z</time>
      </trkpt>
      <trkpt lat="41.0377830" lon="0.5362220">
        <ele>198.2</ele>
        <time>2020-08-07T16:43:48Z</time>
      </trkpt>
      <trkpt lat="41.0378130" lon="0.5362250">
        <ele>198.3</ele>
        <time>2020-08-07T16:43:49Z</time>
      </trkpt>
      <trkpt lat="41.0378410" lon="0.5362300">
        <ele>198.4</ele>
        <time>2020-08-07T16:43:51Z</time>
      </trkpt>
      <trkpt lat="41.0378820" lon="0.5362450">
        <ele>198.5</ele>
        <time>2020-08-07T16:43:53Z</time>
      </trkpt>
      <trkpt lat="41.0379240" lon="0.5362630">
        <ele>198.7</ele>
        <time>2020-08-07T16:43:55Z</time>
      </trkpt>
      <trkpt lat="41.0379690" lon="0.5362810">
        <ele>198.8</ele>
        <time>2020-08-07T16:43:56Z</time>
      </trkpt>
      <trkpt lat="41.0379900" lon="0.5362900">
        <ele>198.9</ele>
        <time>2020-08-07T16:43:57Z</time>
      </trkpt>
      <trkpt lat="41.0380360" lon="0.5363180">
        <ele>199.0</ele>
        <time>2020-08-07T16:43:59Z</time>
      </trkpt>
      <trkpt lat="41.0380540" lon="0.5363290">
        <ele>199.1</ele>
        <time>2020-08-07T16:44:00Z</time>
      </trkpt>
      <trkpt lat="41.0380710" lon="0.5363410">
        <ele>199.2</ele>
        <time>2020-08-07T16:44:01Z</time>
      </trkpt>
      <trkpt lat="41.0381060" lon="0.5363700">
        <ele>199.3</ele>
        <time>2020-08-07T16:44:03Z</time>
      </trkpt>
      <trkpt lat="41.0381610" lon="0.5364110">
        <ele>199.4</ele>
        <time>2020-08-07T16:44:04Z</time>
      </trkpt>
      <trkpt lat="41.0382900" lon="0.5365100">
        <ele>199.7</ele>
        <time>2020-08-07T16:44:06Z</time>
      </trkpt>
      <trkpt lat="41.0383730" lon="0.5365830">
        <ele>199.6</ele>
        <time>2020-08-07T16:44:08Z</time>
      </trkpt>
      <trkpt lat="41.0384240" lon="0.5366270">
        <ele>199.6</ele>
        <time>2020-08-07T16:44:09Z</time>
      </trkpt>
      <trkpt lat="41.0384610" lon="0.5366580">
        <ele>199.6</ele>
        <time>2020-08-07T16:44:10Z</time>
      </trkpt>
      <trkpt lat="41.0385250" lon="0.5367150">
        <ele>199.6</ele>
        <time>2020-08-07T16:44:11Z</time>
      </trkpt>
      <trkpt lat="41.0385730" lon="0.5367550">
        <ele>199.6</ele>
        <time>2020-08-07T16:44:13Z</time>
      </trkpt>
      <trkpt lat="41.0386400" lon="0.5368160">
        <ele>199.6</ele>
        <time>2020-08-07T16:44:15Z</time>
      </trkpt>
      <trkpt lat="41.0386780" lon="0.5368480">
        <ele>199.6</ele>
        <time>2020-08-07T16:44:16Z</time>
      </trkpt>
      <trkpt lat="41.0387420" lon="0.5369230">
        <ele>199.6</ele>
        <time>2020-08-07T16:44:18Z</time>
      </trkpt>
      <trkpt lat="41.0387920" lon="0.5370030">
        <ele>199.6</ele>
        <time>2020-08-07T16:44:20Z</time>
      </trkpt>
      <trkpt lat="41.0388380" lon="0.5370470">
        <ele>199.5</ele>
        <time>2020-08-07T16:44:21Z</time>
      </trkpt>
      <trkpt lat="41.0389140" lon="0.5371160">
        <ele>199.4</ele>
        <time>2020-08-07T16:44:23Z</time>
      </trkpt>
      <trkpt lat="41.0389900" lon="0.5371860">
        <ele>199.3</ele>
        <time>2020-08-07T16:44:25Z</time>
      </trkpt>
      <trkpt lat="41.0390270" lon="0.5372140">
        <ele>199.3</ele>
        <time>2020-08-07T16:44:26Z</time>
      </trkpt>
      <trkpt lat="41.0390550" lon="0.5372110">
        <ele>199.2</ele>
        <time>2020-08-07T16:44:27Z</time>
      </trkpt>
      <trkpt lat="41.0391280" lon="0.5373530">
        <ele>199.1</ele>
        <time>2020-08-07T16:44:29Z</time>
      </trkpt>
      <trkpt lat="41.0391640" lon="0.5373920">
        <ele>199.0</ele>
        <time>2020-08-07T16:44:30Z</time>
      </trkpt>
      <trkpt lat="41.0392010" lon="0.5374260">
        <ele>198.9</ele>
        <time>2020-08-07T16:44:31Z</time>
      </trkpt>
      <trkpt lat="41.0392170" lon="0.5374160">
        <ele>198.9</ele>
        <time>2020-08-07T16:44:32Z</time>
      </trkpt>
      <trkpt lat="41.0392520" lon="0.5374500">
        <ele>198.9</ele>
        <time>2020-08-07T16:44:34Z</time>
      </trkpt>
      <trkpt lat="41.0393160" lon="0.5375300">
        <ele>198.8</ele>
        <time>2020-08-07T16:44:35Z</time>
      </trkpt>
      <trkpt lat="41.0393270" lon="0.5375440">
        <ele>198.8</ele>
        <time>2020-08-07T16:44:36Z</time>
      </trkpt>
      <trkpt lat="41.0392870" lon="0.5375110">
        <ele>198.8</ele>
        <time>2020-08-07T16:44:37Z</time>
      </trkpt>
      <trkpt lat="41.0394600" lon="0.5376830">
        <ele>198.8</ele>
        <time>2020-08-07T16:44:39Z</time>
      </trkpt>
      <trkpt lat="41.0394950" lon="0.5377310">
        <ele>198.8</ele>
        <time>2020-08-07T16:44:41Z</time>
      </trkpt>
      <trkpt lat="41.0396380" lon="0.5378660">
        <ele>198.9</ele>
        <time>2020-08-07T16:44:43Z</time>
      </trkpt>
      <trkpt lat="41.0397460" lon="0.5379320">
        <ele>198.9</ele>
        <time>2020-08-07T16:44:45Z</time>
      </trkpt>
      <trkpt lat="41.0397870" lon="0.5379530">
        <ele>199.0</ele>
        <time>2020-08-07T16:44:47Z</time>
      </trkpt>
      <trkpt lat="41.0398140" lon="0.5380080">
        <ele>199.0</ele>
        <time>2020-08-07T16:44:48Z</time>
      </trkpt>
      <trkpt lat="41.0398920" lon="0.5381250">
        <ele>199.2</ele>
        <time>2020-08-07T16:44:50Z</time>
      </trkpt>
      <trkpt lat="41.0399250" lon="0.5381630">
        <ele>199.2</ele>
        <time>2020-08-07T16:44:51Z</time>
      </trkpt>
      <trkpt lat="41.0399180" lon="0.5381070">
        <ele>199.3</ele>
        <time>2020-08-07T16:44:52Z</time>
      </trkpt>
      <trkpt lat="41.0399270" lon="0.5380650">
        <ele>199.4</ele>
        <time>2020-08-07T16:44:53Z</time>
      </trkpt>
      <trkpt lat="41.0399780" lon="0.5381010">
        <ele>199.4</ele>
        <time>2020-08-07T16:44:55Z</time>
      </trkpt>
      <trkpt lat="41.0400150" lon="0.5381570">
        <ele>199.5</ele>
        <time>2020-08-07T16:44:56Z</time>
      </trkpt>
      <trkpt lat="41.0400800" lon="0.5382920">
        <ele>199.7</ele>
        <time>2020-08-07T16:44:58Z</time>
      </trkpt>
      <trkpt lat="41.0401430" lon="0.5384070">
        <ele>199.8</ele>
        <time>2020-08-07T16:45:00Z</time>
      </trkpt>
      <trkpt lat="41.0401940" lon="0.5384770">
        <ele>199.9</ele>
        <time>2020-08-07T16:45:02Z</time>
      </trkpt>
      <trkpt lat="41.0402130" lon="0.5385040">
        <ele>200.0</ele>
        <time>2020-08-07T16:45:04Z</time>
      </trkpt>
      <trkpt lat="41.0402190" lon="0.5385210">
        <ele>200.0</ele>
        <time>2020-08-07T16:45:05Z</time>
      </trkpt>
      <trkpt lat="41.0402290" lon="0.5385390">
        <ele>200.0</ele>
        <time>2020-08-07T16:45:06Z</time>
      </trkpt>
      <trkpt lat="41.0402870" lon="0.5386150">
        <ele>200.1</ele>
        <time>2020-08-07T16:45:08Z</time>
      </trkpt>
      <trkpt lat="41.0403240" lon="0.5386630">
        <ele>200.2</ele>
        <time>2020-08-07T16:45:09Z</time>
      </trkpt>
      <trkpt lat="41.0403620" lon="0.5387120">
        <ele>200.3</ele>
        <time>2020-08-07T16:45:11Z</time>
      </trkpt>
      <trkpt lat="41.0404060" lon="0.5387640">
        <ele>200.4</ele>
        <time>2020-08-07T16:45:12Z</time>
      </trkpt>
      <trkpt lat="41.0404640" lon="0.5388250">
        <ele>200.5</ele>
        <time>2020-08-07T16:45:13Z</time>
      </trkpt>
      <trkpt lat="41.0405210" lon="0.5388830">
        <ele>200.6</ele>
        <time>2020-08-07T16:45:14Z</time>
      </trkpt>
      <trkpt lat="41.0405570" lon="0.5389170">
        <ele>200.6</ele>
        <time>2020-08-07T16:45:15Z</time>
      </trkpt>
      <trkpt lat="41.0406020" lon="0.5389530">
        <ele>200.7</ele>
        <time>2020-08-07T16:45:17Z</time>
      </trkpt>
      <trkpt lat="41.0406370" lon="0.5389840">
        <ele>200.7</ele>
        <time>2020-08-07T16:45:18Z</time>
      </trkpt>
      <trkpt lat="41.0406970" lon="0.5390390">
        <ele>200.9</ele>
        <time>2020-08-07T16:45:20Z</time>
      </trkpt>
      <trkpt lat="41.0407370" lon="0.5390730">
        <ele>201.0</ele>
        <time>2020-08-07T16:45:21Z</time>
      </trkpt>
      <trkpt lat="41.0407960" lon="0.5391220">
        <ele>201.2</ele>
        <time>2020-08-07T16:45:23Z</time>
      </trkpt>
      <trkpt lat="41.0408310" lon="0.5391520">
        <ele>201.3</ele>
        <time>2020-08-07T16:45:24Z</time>
      </trkpt>
      <trkpt lat="41.0408690" lon="0.5391850">
        <ele>201.4</ele>
        <time>2020-08-07T16:45:25Z</time>
      </trkpt>
      <trkpt lat="41.0409000" lon="0.5392120">
        <ele>201.4</ele>
        <time>2020-08-07T16:45:26Z</time>
      </trkpt>
      <trkpt lat="41.0409320" lon="0.5392450">
        <ele>201.4</ele>
        <time>2020-08-07T16:45:28Z</time>
      </trkpt>
      <trkpt lat="41.0409560" lon="0.5392690">
        <ele>201.4</ele>
        <time>2020-08-07T16:45:29Z</time>
      </trkpt>
      <trkpt lat="41.0410080" lon="0.5393150">
        <ele>201.4</ele>
        <time>2020-08-07T16:45:31Z</time>
      </trkpt>
      <trkpt lat="41.0410510" lon="0.5393500">
        <ele>201.4</ele>
        <time>2020-08-07T16:45:32Z</time>
      </trkpt>
      <trkpt lat="41.0410950" lon="0.5393870">
        <ele>201.5</ele>
        <time>2020-08-07T16:45:34Z</time>
      </trkpt>
      <trkpt lat="41.0411220" lon="0.5394090">
        <ele>201.5</ele>
        <time>2020-08-07T16:45:35Z</time>
      </trkpt>
      <trkpt lat="41.0411760" lon="0.5394570">
        <ele>201.5</ele>
        <time>2020-08-07T16:45:36Z</time>
      </trkpt>
      <trkpt lat="41.0412050" lon="0.5394820">
        <ele>201.6</ele>
        <time>2020-08-07T16:45:38Z</time>
      </trkpt>
      <trkpt lat="41.0412330" lon="0.5395040">
        <ele>201.6</ele>
        <time>2020-08-07T16:45:39Z</time>
      </trkpt>
      <trkpt lat="41.0412900" lon="0.5395470">
        <ele>201.7</ele>
        <time>2020-08-07T16:45:40Z</time>
      </trkpt>
      <trkpt lat="41.0413190" lon="0.5395680">
        <ele>201.7</ele>
        <time>2020-08-07T16:45:42Z</time>
      </trkpt>
      <trkpt lat="41.0413750" lon="0.5396100">
        <ele>201.9</ele>
        <time>2020-08-07T16:45:44Z</time>
      </trkpt>
      <trkpt lat="41.0414020" lon="0.5396310">
        <ele>201.9</ele>
        <time>2020-08-07T16:45:45Z</time>
      </trkpt>
      <trkpt lat="41.0414780" lon="0.5396850">
        <ele>202.1</ele>
        <time>2020-08-07T16:45:47Z</time>
      </trkpt>
      <trkpt lat="41.0415390" lon="0.5397190">
        <ele>202.2</ele>
        <time>2020-08-07T16:45:49Z</time>
      </trkpt>
      <trkpt lat="41.0415730" lon="0.5397370">
        <ele>202.2</ele>
        <time>2020-08-07T16:45:50Z</time>
      </trkpt>
      <trkpt lat="41.0416380" lon="0.5397710">
        <ele>202.4</ele>
        <time>2020-08-07T16:45:52Z</time>
      </trkpt>
      <trkpt lat="41.0416680" lon="0.5397860">
        <ele>202.5</ele>
        <time>2020-08-07T16:45:53Z</time>
      </trkpt>
      <trkpt lat="41.0417200" lon="0.5398120">
        <ele>202.6</ele>
        <time>2020-08-07T16:45:55Z</time>
      </trkpt>
      <trkpt lat="41.0417530" lon="0.5398290">
        <ele>202.7</ele>
        <time>2020-08-07T16:45:56Z</time>
      </trkpt>
      <trkpt lat="41.0418170" lon="0.5398630">
        <ele>202.9</ele>
        <time>2020-08-07T16:45:58Z</time>
      </trkpt>
      <trkpt lat="41.0418470" lon="0.5398790">
        <ele>203.0</ele>
        <time>2020-08-07T16:45:59Z</time>
      </trkpt>
      <trkpt lat="41.0419070" lon="0.5399060">
        <ele>203.1</ele>
        <time>2020-08-07T16:46:01Z</time>
      </trkpt>
      <trkpt lat="41.0419320" lon="0.5399170">
        <ele>203.2</ele>
        <time>2020-08-07T16:46:02Z</time>
      </trkpt>
      <trkpt lat="41.0419930" lon="0.5399480">
        <ele>203.3</ele>
        <time>2020-08-07T16:46:04Z</time>
      </trkpt>
      <trkpt lat="41.0420230" lon="0.5399630">
        <ele>203.4</ele>
        <time>2020-08-07T16:46:05Z</time>
      </trkpt>
      <trkpt lat="41.0420820" lon="0.5399890">
        <ele>203.5</ele>
        <time>2020-08-07T16:46:07Z</time>
      </trkpt>
      <trkpt lat="41.0421130" lon="0.5400000">
        <ele>203.5</ele>
        <time>2020-08-07T16:46:08Z</time>
      </trkpt>
      <trkpt lat="41.0421440" lon="0.5400120">
        <ele>203.6</ele>
        <time>2020-08-07T16:46:09Z</time>
      </trkpt>
      <trkpt lat="41.0422020" lon="0.5400380">
        <ele>203.7</ele>
        <time>2020-08-07T16:46:11Z</time>
      </trkpt>
      <trkpt lat="41.0422280" lon="0.5400520">
        <ele>203.8</ele>
        <time>2020-08-07T16:46:12Z</time>
      </trkpt>
      <trkpt lat="41.0422900" lon="0.5400870">
        <ele>204.0</ele>
        <time>2020-08-07T16:46:14Z</time>
      </trkpt>
      <trkpt lat="41.0423410" lon="0.5401150">
        <ele>204.2</ele>
        <time>2020-08-07T16:46:16Z</time>
      </trkpt>
      <trkpt lat="41.0423710" lon="0.5401280">
        <ele>204.2</ele>
        <time>2020-08-07T16:46:17Z</time>
      </trkpt>
      <trkpt lat="41.0424370" lon="0.5401620">
        <ele>204.4</ele>
        <time>2020-08-07T16:46:19Z</time>
      </trkpt>
      <trkpt lat="41.0424690" lon="0.5401820">
        <ele>204.5</ele>
        <time>2020-08-07T16:46:20Z</time>
      </trkpt>
      <trkpt lat="41.0425000" lon="0.5402050">
        <ele>204.5</ele>
        <time>2020-08-07T16:46:21Z</time>
      </trkpt>
      <trkpt lat="41.0425280" lon="0.5402300">
        <ele>204.6</ele>
        <time>2020-08-07T16:46:22Z</time>
      </trkpt>
      <trkpt lat="41.0425830" lon="0.5402880">
        <ele>204.7</ele>
        <time>2020-08-07T16:46:24Z</time>
      </trkpt>
      <trkpt lat="41.0426240" lon="0.5403480">
        <ele>204.7</ele>
        <time>2020-08-07T16:46:26Z</time>
      </trkpt>
      <trkpt lat="41.0426410" lon="0.5403810">
        <ele>204.7</ele>
        <time>2020-08-07T16:46:27Z</time>
      </trkpt>
      <trkpt lat="41.0426680" lon="0.5404430">
        <ele>204.8</ele>
        <time>2020-08-07T16:46:29Z</time>
      </trkpt>
      <trkpt lat="41.0426780" lon="0.5404710">
        <ele>204.8</ele>
        <time>2020-08-07T16:46:30Z</time>
      </trkpt>
      <trkpt lat="41.0427060" lon="0.5405360">
        <ele>204.9</ele>
        <time>2020-08-07T16:46:32Z</time>
      </trkpt>
      <trkpt lat="41.0427240" lon="0.5405770">
        <ele>204.9</ele>
        <time>2020-08-07T16:46:33Z</time>
      </trkpt>
      <trkpt lat="41.0427320" lon="0.5405940">
        <ele>204.9</ele>
        <time>2020-08-07T16:46:34Z</time>
      </trkpt>
      <trkpt lat="41.0427650" lon="0.5406580">
        <ele>205.0</ele>
        <time>2020-08-07T16:46:36Z</time>
      </trkpt>
      <trkpt lat="41.0428010" lon="0.5407110">
        <ele>205.1</ele>
        <time>2020-08-07T16:46:38Z</time>
      </trkpt>
      <trkpt lat="41.0428230" lon="0.5407340">
        <ele>205.1</ele>
        <time>2020-08-07T16:46:39Z</time>
      </trkpt>
      <trkpt lat="41.0428740" lon="0.5407780">
        <ele>205.2</ele>
        <time>2020-08-07T16:46:41Z</time>
      </trkpt>
      <trkpt lat="41.0429330" lon="0.5408200">
        <ele>205.4</ele>
        <time>2020-08-07T16:46:43Z</time>
      </trkpt>
      <trkpt lat="41.0429940" lon="0.5408550">
        <ele>205.5</ele>
        <time>2020-08-07T16:46:45Z</time>
      </trkpt>
      <trkpt lat="41.0430220" lon="0.5408730">
        <ele>205.6</ele>
        <time>2020-08-07T16:46:46Z</time>
      </trkpt>
      <trkpt lat="41.0430620" lon="0.5408950">
        <ele>205.8</ele>
        <time>2020-08-07T16:46:47Z</time>
      </trkpt>
      <trkpt lat="41.0430940" lon="0.5409100">
        <ele>205.9</ele>
        <time>2020-08-07T16:46:48Z</time>
      </trkpt>
      <trkpt lat="41.0431340" lon="0.5409320">
        <ele>206.0</ele>
        <time>2020-08-07T16:46:50Z</time>
      </trkpt>
      <trkpt lat="41.0431760" lon="0.5409590">
        <ele>206.2</ele>
        <time>2020-08-07T16:46:51Z</time>
      </trkpt>
      <trkpt lat="41.0432120" lon="0.5409870">
        <ele>206.3</ele>
        <time>2020-08-07T16:46:53Z</time>
      </trkpt>
      <trkpt lat="41.0432510" lon="0.5410160">
        <ele>206.5</ele>
        <time>2020-08-07T16:46:54Z</time>
      </trkpt>
      <trkpt lat="41.0432860" lon="0.5410390">
        <ele>206.7</ele>
        <time>2020-08-07T16:46:56Z</time>
      </trkpt>
      <trkpt lat="41.0433390" lon="0.5410650">
        <ele>206.9</ele>
        <time>2020-08-07T16:46:58Z</time>
      </trkpt>
      <trkpt lat="41.0433810" lon="0.5410880">
        <ele>207.1</ele>
        <time>2020-08-07T16:46:59Z</time>
      </trkpt>
      <trkpt lat="41.0434260" lon="0.5411150">
        <ele>207.3</ele>
        <time>2020-08-07T16:47:01Z</time>
      </trkpt>
      <trkpt lat="41.0434420" lon="0.5411240">
        <ele>207.4</ele>
        <time>2020-08-07T16:47:02Z</time>
      </trkpt>
      <trkpt lat="41.0434570" lon="0.5411340">
        <ele>207.4</ele>
        <time>2020-08-07T16:47:03Z</time>
      </trkpt>
      <trkpt lat="41.0434790" lon="0.5411480">
        <ele>207.5</ele>
        <time>2020-08-07T16:47:04Z</time>
      </trkpt>
      <trkpt lat="41.0435270" lon="0.5411840">
        <ele>207.8</ele>
        <time>2020-08-07T16:47:06Z</time>
      </trkpt>
      <trkpt lat="41.0435510" lon="0.5412010">
        <ele>207.9</ele>
        <time>2020-08-07T16:47:07Z</time>
      </trkpt>
      <trkpt lat="41.0435880" lon="0.5412200">
        <ele>208.0</ele>
        <time>2020-08-07T16:47:08Z</time>
      </trkpt>
      <trkpt lat="41.0435990" lon="0.5412280">
        <ele>208.1</ele>
        <time>2020-08-07T16:47:09Z</time>
      </trkpt>
      <trkpt lat="41.0436480" lon="0.5412610">
        <ele>208.3</ele>
        <time>2020-08-07T16:47:11Z</time>
      </trkpt>
      <trkpt lat="41.0437000" lon="0.5412920">
        <ele>208.5</ele>
        <time>2020-08-07T16:47:13Z</time>
      </trkpt>
      <trkpt lat="41.0437390" lon="0.5413150">
        <ele>208.6</ele>
        <time>2020-08-07T16:47:14Z</time>
      </trkpt>
      <trkpt lat="41.0437520" lon="0.5413240">
        <ele>208.7</ele>
        <time>2020-08-07T16:47:15Z</time>
      </trkpt>
      <trkpt lat="41.0437830" lon="0.5413360">
        <ele>208.8</ele>
        <time>2020-08-07T16:47:16Z</time>
      </trkpt>
      <trkpt lat="41.0438350" lon="0.5413510">
        <ele>209.0</ele>
        <time>2020-08-07T16:47:18Z</time>
      </trkpt>
      <trkpt lat="41.0438750" lon="0.5413870">
        <ele>209.2</ele>
        <time>2020-08-07T16:47:20Z</time>
      </trkpt>
      <trkpt lat="41.0439600" lon="0.5414090">
        <ele>209.5</ele>
        <time>2020-08-07T16:47:24Z</time>
      </trkpt>
      <trkpt lat="41.0442540" lon="0.5415590">
        <ele>210.8</ele>
        <time>2020-08-07T16:47:35Z</time>
      </trkpt>
      <trkpt lat="41.0442540" lon="0.5415590">
        <ele>210.8</ele>
        <time>2020-08-07T16:47:35Z</time>
      </trkpt>
      <trkpt lat="41.0442780" lon="0.5415780">
        <ele>211.0</ele>
        <time>2020-08-07T16:47:36Z</time>
      </trkpt>
      <trkpt lat="41.0443040" lon="0.5415990">
        <ele>211.1</ele>
        <time>2020-08-07T16:47:37Z</time>
      </trkpt>
      <trkpt lat="41.0443470" lon="0.5416420">
        <ele>211.4</ele>
        <time>2020-08-07T16:47:39Z</time>
      </trkpt>
      <trkpt lat="41.0443920" lon="0.5417070">
        <ele>211.7</ele>
        <time>2020-08-07T16:47:42Z</time>
      </trkpt>
      <trkpt lat="41.0444020" lon="0.5417470">
        <ele>211.8</ele>
        <time>2020-08-07T16:47:43Z</time>
      </trkpt>
      <trkpt lat="41.0444150" lon="0.5417640">
        <ele>211.9</ele>
        <time>2020-08-07T16:47:44Z</time>
      </trkpt>
      <trkpt lat="41.0444420" lon="0.5417980">
        <ele>212.1</ele>
        <time>2020-08-07T16:47:45Z</time>
      </trkpt>
      <trkpt lat="41.0444510" lon="0.5418090">
        <ele>212.2</ele>
        <time>2020-08-07T16:47:46Z</time>
      </trkpt>
      <trkpt lat="41.0444880" lon="0.5418610">
        <ele>212.5</ele>
        <time>2020-08-07T16:47:49Z</time>
      </trkpt>
      <trkpt lat="41.0445170" lon="0.5418910">
        <ele>212.7</ele>
        <time>2020-08-07T16:47:50Z</time>
      </trkpt>
      <trkpt lat="41.0445250" lon="0.5419010">
        <ele>212.8</ele>
        <time>2020-08-07T16:47:51Z</time>
      </trkpt>
      <trkpt lat="41.0445550" lon="0.5419330">
        <ele>213.0</ele>
        <time>2020-08-07T16:47:52Z</time>
      </trkpt>
      <trkpt lat="41.0445800" lon="0.5419600">
        <ele>213.2</ele>
        <time>2020-08-07T16:47:54Z</time>
      </trkpt>
      <trkpt lat="41.0446070" lon="0.5420080">
        <ele>213.5</ele>
        <time>2020-08-07T16:47:56Z</time>
      </trkpt>
      <trkpt lat="41.0446380" lon="0.5420450">
        <ele>213.8</ele>
        <time>2020-08-07T16:47:58Z</time>
      </trkpt>
      <trkpt lat="41.0446650" lon="0.5420780">
        <ele>214.0</ele>
        <time>2020-08-07T16:47:59Z</time>
      </trkpt>
      <trkpt lat="41.0446760" lon="0.5420920">
        <ele>214.1</ele>
        <time>2020-08-07T16:48:00Z</time>
      </trkpt>
      <trkpt lat="41.0447020" lon="0.5421300">
        <ele>214.4</ele>
        <time>2020-08-07T16:48:02Z</time>
      </trkpt>
      <trkpt lat="41.0447260" lon="0.5421540">
        <ele>214.6</ele>
        <time>2020-08-07T16:48:03Z</time>
      </trkpt>
      <trkpt lat="41.0447500" lon="0.5421850">
        <ele>214.8</ele>
        <time>2020-08-07T16:48:05Z</time>
      </trkpt>
      <trkpt lat="41.0447660" lon="0.5422060">
        <ele>214.9</ele>
        <time>2020-08-07T16:48:06Z</time>
      </trkpt>
      <trkpt lat="41.0447970" lon="0.5422490">
        <ele>215.2</ele>
        <time>2020-08-07T16:48:08Z</time>
      </trkpt>
      <trkpt lat="41.0448240" lon="0.5422880">
        <ele>215.5</ele>
        <time>2020-08-07T16:48:10Z</time>
      </trkpt>
      <trkpt lat="41.0448400" lon="0.5423080">
        <ele>215.6</ele>
        <time>2020-08-07T16:48:11Z</time>
      </trkpt>
      <trkpt lat="41.0448630" lon="0.5423450">
        <ele>215.8</ele>
        <time>2020-08-07T16:48:13Z</time>
      </trkpt>
      <trkpt lat="41.0448980" lon="0.5423900">
        <ele>216.1</ele>
        <time>2020-08-07T16:48:15Z</time>
      </trkpt>
      <trkpt lat="41.0449110" lon="0.5424060">
        <ele>216.2</ele>
        <time>2020-08-07T16:48:16Z</time>
      </trkpt>
      <trkpt lat="41.0449420" lon="0.5424480">
        <ele>216.5</ele>
        <time>2020-08-07T16:48:18Z</time>
      </trkpt>
      <trkpt lat="41.0449570" lon="0.5424680">
        <ele>216.7</ele>
        <time>2020-08-07T16:48:19Z</time>
      </trkpt>
      <trkpt lat="41.0449860" lon="0.5425040">
        <ele>216.9</ele>
        <time>2020-08-07T16:48:21Z</time>
      </trkpt>
      <trkpt lat="41.0449990" lon="0.5425220">
        <ele>217.0</ele>
        <time>2020-08-07T16:48:22Z</time>
      </trkpt>
      <trkpt lat="41.0450210" lon="0.5425610">
        <ele>217.3</ele>
        <time>2020-08-07T16:48:24Z</time>
      </trkpt>
      <trkpt lat="41.0450320" lon="0.5425800">
        <ele>217.4</ele>
        <time>2020-08-07T16:48:25Z</time>
      </trkpt>
      <trkpt lat="41.0450570" lon="0.5426170">
        <ele>217.7</ele>
        <time>2020-08-07T16:48:27Z</time>
      </trkpt>
      <trkpt lat="41.0450830" lon="0.5426410">
        <ele>217.9</ele>
        <time>2020-08-07T16:48:28Z</time>
      </trkpt>
      <trkpt lat="41.0450910" lon="0.5426490">
        <ele>217.9</ele>
        <time>2020-08-07T16:48:29Z</time>
      </trkpt>
      <trkpt lat="41.0451100" lon="0.5426640">
        <ele>218.1</ele>
        <time>2020-08-07T16:48:30Z</time>
      </trkpt>
      <trkpt lat="41.0451440" lon="0.5426870">
        <ele>218.4</ele>
        <time>2020-08-07T16:48:32Z</time>
      </trkpt>
      <trkpt lat="41.0451740" lon="0.5426990">
        <ele>218.6</ele>
        <time>2020-08-07T16:48:33Z</time>
      </trkpt>
      <trkpt lat="41.0451840" lon="0.5427040">
        <ele>218.6</ele>
        <time>2020-08-07T16:48:34Z</time>
      </trkpt>
      <trkpt lat="41.0452260" lon="0.5427140">
        <ele>218.9</ele>
        <time>2020-08-07T16:48:36Z</time>
      </trkpt>
      <trkpt lat="41.0452620" lon="0.5427160">
        <ele>219.2</ele>
        <time>2020-08-07T16:48:37Z</time>
      </trkpt>
      <trkpt lat="41.0452750" lon="0.5427150">
        <ele>219.3</ele>
        <time>2020-08-07T16:48:38Z</time>
      </trkpt>
      <trkpt lat="41.0453120" lon="0.5427100">
        <ele>219.5</ele>
        <time>2020-08-07T16:48:39Z</time>
      </trkpt>
      <trkpt lat="41.0453300" lon="0.5427070">
        <ele>219.6</ele>
        <time>2020-08-07T16:48:40Z</time>
      </trkpt>
      <trkpt lat="41.0453700" lon="0.5427010">
        <ele>219.8</ele>
        <time>2020-08-07T16:48:42Z</time>
      </trkpt>
      <trkpt lat="41.0453830" lon="0.5427000">
        <ele>219.9</ele>
        <time>2020-08-07T16:48:44Z</time>
      </trkpt>
      <trkpt lat="41.0453950" lon="0.5426980">
        <ele>220.0</ele>
        <time>2020-08-07T16:48:45Z</time>
      </trkpt>
      <trkpt lat="41.0454080" lon="0.5426960">
        <ele>220.0</ele>
        <time>2020-08-07T16:48:47Z</time>
      </trkpt>
      <trkpt lat="41.0454180" lon="0.5426960">
        <ele>220.1</ele>
        <time>2020-08-07T16:48:48Z</time>
      </trkpt>
      <trkpt lat="41.0454370" lon="0.5426970">
        <ele>220.2</ele>
        <time>2020-08-07T16:48:50Z</time>
      </trkpt>
      <trkpt lat="41.0454490" lon="0.5426960">
        <ele>220.3</ele>
        <time>2020-08-07T16:48:51Z</time>
      </trkpt>
      <trkpt lat="41.0454600" lon="0.5426980">
        <ele>220.3</ele>
        <time>2020-08-07T16:48:52Z</time>
      </trkpt>
      <trkpt lat="41.0454810" lon="0.5426930">
        <ele>220.4</ele>
        <time>2020-08-07T16:48:54Z</time>
      </trkpt>
      <trkpt lat="41.0454920" lon="0.5426920">
        <ele>220.5</ele>
        <time>2020-08-07T16:48:55Z</time>
      </trkpt>
      <trkpt lat="41.0455100" lon="0.5426950">
        <ele>220.6</ele>
        <time>2020-08-07T16:48:57Z</time>
      </trkpt>
      <trkpt lat="41.0455420" lon="0.5426950">
        <ele>220.8</ele>
        <time>2020-08-07T16:48:59Z</time>
      </trkpt>
      <trkpt lat="41.0455580" lon="0.5426940">
        <ele>220.9</ele>
        <time>2020-08-07T16:49:00Z</time>
      </trkpt>
      <trkpt lat="41.0455930" lon="0.5426870">
        <ele>221.1</ele>
        <time>2020-08-07T16:49:02Z</time>
      </trkpt>
      <trkpt lat="41.0456290" lon="0.5426890">
        <ele>221.3</ele>
        <time>2020-08-07T16:49:04Z</time>
      </trkpt>
      <trkpt lat="41.0456620" lon="0.5426660">
        <ele>221.5</ele>
        <time>2020-08-07T16:49:06Z</time>
      </trkpt>
      <trkpt lat="41.0456770" lon="0.5426590">
        <ele>221.6</ele>
        <time>2020-08-07T16:49:07Z</time>
      </trkpt>
      <trkpt lat="41.0457020" lon="0.5426430">
        <ele>221.7</ele>
        <time>2020-08-07T16:49:09Z</time>
      </trkpt>
      <trkpt lat="41.0458000" lon="0.5426270">
        <ele>222.3</ele>
        <time>2020-08-07T16:49:10Z</time>
      </trkpt>
      <trkpt lat="41.0458850" lon="0.5426170">
        <ele>222.8</ele>
        <time>2020-08-07T16:49:11Z</time>
      </trkpt>
      <trkpt lat="41.0459690" lon="0.5426060">
        <ele>223.2</ele>
        <time>2020-08-07T16:49:13Z</time>
      </trkpt>
      <trkpt lat="41.0460430" lon="0.5425870">
        <ele>223.7</ele>
        <time>2020-08-07T16:49:15Z</time>
      </trkpt>
      <trkpt lat="41.0459690" lon="0.5425980">
        <ele>224.1</ele>
        <time>2020-08-07T16:49:16Z</time>
      </trkpt>
      <trkpt lat="41.0459260" lon="0.5426140">
        <ele>224.4</ele>
        <time>2020-08-07T16:49:17Z</time>
      </trkpt>
      <trkpt lat="41.0459490" lon="0.5426140">
        <ele>224.5</ele>
        <time>2020-08-07T16:49:19Z</time>
      </trkpt>
      <trkpt lat="41.0459810" lon="0.5426050">
        <ele>224.7</ele>
        <time>2020-08-07T16:49:20Z</time>
      </trkpt>
      <trkpt lat="41.0460140" lon="0.5425960">
        <ele>224.9</ele>
        <time>2020-08-07T16:49:22Z</time>
      </trkpt>
      <trkpt lat="41.0460460" lon="0.5425880">
        <ele>225.0</ele>
        <time>2020-08-07T16:49:25Z</time>
      </trkpt>
      <trkpt lat="41.0460790" lon="0.5425790">
        <ele>225.2</ele>
        <time>2020-08-07T16:49:27Z</time>
      </trkpt>
      <trkpt lat="41.0461110" lon="0.5425700">
        <ele>225.4</ele>
        <time>2020-08-07T16:49:29Z</time>
      </trkpt>
      <trkpt lat="41.0461440" lon="0.5425610">
        <ele>225.5</ele>
        <time>2020-08-07T16:49:31Z</time>
      </trkpt>
      <trkpt lat="41.0462210" lon="0.5425340">
        <ele>225.9</ele>
        <time>2020-08-07T16:49:32Z</time>
      </trkpt>
      <trkpt lat="41.0463100" lon="0.5425070">
        <ele>226.3</ele>
        <time>2020-08-07T16:49:34Z</time>
      </trkpt>
      <trkpt lat="41.0463390" lon="0.5424980">
        <ele>226.4</ele>
        <time>2020-08-07T16:49:35Z</time>
      </trkpt>
      <trkpt lat="41.0463700" lon="0.5424950">
        <ele>226.5</ele>
        <time>2020-08-07T16:49:36Z</time>
      </trkpt>
      <trkpt lat="41.0464090" lon="0.5424970">
        <ele>226.7</ele>
        <time>2020-08-07T16:49:38Z</time>
      </trkpt>
      <trkpt lat="41.0464240" lon="0.5425070">
        <ele>226.7</ele>
        <time>2020-08-07T16:49:39Z</time>
      </trkpt>
      <trkpt lat="41.0464510" lon="0.5425250">
        <ele>226.8</ele>
        <time>2020-08-07T16:49:41Z</time>
      </trkpt>
      <trkpt lat="41.0464770" lon="0.5425400">
        <ele>226.9</ele>
        <time>2020-08-07T16:49:42Z</time>
      </trkpt>
      <trkpt lat="41.0464900" lon="0.5425480">
        <ele>226.9</ele>
        <time>2020-08-07T16:49:43Z</time>
      </trkpt>
      <trkpt lat="41.0465070" lon="0.5425560">
        <ele>227.0</ele>
        <time>2020-08-07T16:49:44Z</time>
      </trkpt>
      <trkpt lat="41.0465230" lon="0.5425630">
        <ele>227.0</ele>
        <time>2020-08-07T16:49:46Z</time>
      </trkpt>
      <trkpt lat="41.0465520" lon="0.5425750">
        <ele>227.1</ele>
        <time>2020-08-07T16:49:48Z</time>
      </trkpt>
      <trkpt lat="41.0465710" lon="0.5425840">
        <ele>227.1</ele>
        <time>2020-08-07T16:49:49Z</time>
      </trkpt>
      <trkpt lat="41.0466020" lon="0.5426010">
        <ele>227.2</ele>
        <time>2020-08-07T16:49:51Z</time>
      </trkpt>
      <trkpt lat="41.0466350" lon="0.5426250">
        <ele>227.2</ele>
        <time>2020-08-07T16:49:52Z</time>
      </trkpt>
      <trkpt lat="41.0466490" lon="0.5426370">
        <ele>227.2</ele>
        <time>2020-08-07T16:49:53Z</time>
      </trkpt>
      <trkpt lat="41.0466780" lon="0.5426650">
        <ele>227.2</ele>
        <time>2020-08-07T16:49:55Z</time>
      </trkpt>
      <trkpt lat="41.0467260" lon="0.5427270">
        <ele>227.3</ele>
        <time>2020-08-07T16:49:57Z</time>
      </trkpt>
      <trkpt lat="41.0467510" lon="0.5427670">
        <ele>227.3</ele>
        <time>2020-08-07T16:49:58Z</time>
      </trkpt>
      <trkpt lat="41.0467930" lon="0.5428360">
        <ele>227.4</ele>
        <time>2020-08-07T16:49:59Z</time>
      </trkpt>
      <trkpt lat="41.0468420" lon="0.5429030">
        <ele>227.5</ele>
        <time>2020-08-07T16:50:01Z</time>
      </trkpt>
      <trkpt lat="41.0469070" lon="0.5429690">
        <ele>227.5</ele>
        <time>2020-08-07T16:50:03Z</time>
      </trkpt>
      <trkpt lat="41.0469380" lon="0.5429960">
        <ele>227.6</ele>
        <time>2020-08-07T16:50:04Z</time>
      </trkpt>
      <trkpt lat="41.0470040" lon="0.5430470">
        <ele>227.7</ele>
        <time>2020-08-07T16:50:06Z</time>
      </trkpt>
      <trkpt lat="41.0471040" lon="0.5431210">
        <ele>227.8</ele>
        <time>2020-08-07T16:50:08Z</time>
      </trkpt>
      <trkpt lat="41.0471820" lon="0.5431920">
        <ele>227.9</ele>
        <time>2020-08-07T16:50:09Z</time>
      </trkpt>
      <trkpt lat="41.0472220" lon="0.5432280">
        <ele>227.9</ele>
        <time>2020-08-07T16:50:11Z</time>
      </trkpt>
      <trkpt lat="41.0472770" lon="0.5432740">
        <ele>228.0</ele>
        <time>2020-08-07T16:50:12Z</time>
      </trkpt>
      <trkpt lat="41.0473280" lon="0.5433220">
        <ele>228.0</ele>
        <time>2020-08-07T16:50:14Z</time>
      </trkpt>
      <trkpt lat="41.0473610" lon="0.5433540">
        <ele>228.1</ele>
        <time>2020-08-07T16:50:15Z</time>
      </trkpt>
      <trkpt lat="41.0474080" lon="0.5434090">
        <ele>228.1</ele>
        <time>2020-08-07T16:50:16Z</time>
      </trkpt>
      <trkpt lat="41.0474400" lon="0.5434430">
        <ele>228.1</ele>
        <time>2020-08-07T16:50:18Z</time>
      </trkpt>
      <trkpt lat="41.0474650" lon="0.5434680">
        <ele>228.2</ele>
        <time>2020-08-07T16:50:19Z</time>
      </trkpt>
      <trkpt lat="41.0475090" lon="0.5435130">
        <ele>228.2</ele>
        <time>2020-08-07T16:50:21Z</time>
      </trkpt>
      <trkpt lat="41.0475340" lon="0.5435420">
        <ele>228.2</ele>
        <time>2020-08-07T16:50:22Z</time>
      </trkpt>
      <trkpt lat="41.0475500" lon="0.5435600">
        <ele>228.3</ele>
        <time>2020-08-07T16:50:24Z</time>
      </trkpt>
      <trkpt lat="41.0475610" lon="0.5435720">
        <ele>228.3</ele>
        <time>2020-08-07T16:50:25Z</time>
      </trkpt>
      <trkpt lat="41.0475870" lon="0.5435920">
        <ele>228.3</ele>
        <time>2020-08-07T16:50:27Z</time>
      </trkpt>
      <trkpt lat="41.0476080" lon="0.5436050">
        <ele>228.3</ele>
        <time>2020-08-07T16:50:28Z</time>
      </trkpt>
      <trkpt lat="41.0476310" lon="0.5436170">
        <ele>228.3</ele>
        <time>2020-08-07T16:50:30Z</time>
      </trkpt>
      <trkpt lat="41.0476580" lon="0.5436340">
        <ele>228.4</ele>
        <time>2020-08-07T16:50:31Z</time>
      </trkpt>
      <trkpt lat="41.0476910" lon="0.5436620">
        <ele>228.4</ele>
        <time>2020-08-07T16:50:33Z</time>
      </trkpt>
      <trkpt lat="41.0477210" lon="0.5436860">
        <ele>228.5</ele>
        <time>2020-08-07T16:50:34Z</time>
      </trkpt>
      <trkpt lat="41.0477880" lon="0.5437260">
        <ele>228.6</ele>
        <time>2020-08-07T16:50:36Z</time>
      </trkpt>
      <trkpt lat="41.0478200" lon="0.5437430">
        <ele>228.6</ele>
        <time>2020-08-07T16:50:37Z</time>
      </trkpt>
      <trkpt lat="41.0478760" lon="0.5437590">
        <ele>228.7</ele>
        <time>2020-08-07T16:50:39Z</time>
      </trkpt>
      <trkpt lat="41.0479220" lon="0.5437890">
        <ele>228.7</ele>
        <time>2020-08-07T16:50:41Z</time>
      </trkpt>
      <trkpt lat="41.0480410" lon="0.5438370">
        <ele>228.9</ele>
        <time>2020-08-07T16:50:43Z</time>
      </trkpt>
      <trkpt lat="41.0480970" lon="0.5438420">
        <ele>228.9</ele>
        <time>2020-08-07T16:50:44Z</time>
      </trkpt>
      <trkpt lat="41.0481430" lon="0.5438550">
        <ele>229.0</ele>
        <time>2020-08-07T16:50:45Z</time>
      </trkpt>
      <trkpt lat="41.0482190" lon="0.5438780">
        <ele>229.1</ele>
        <time>2020-08-07T16:50:47Z</time>
      </trkpt>
      <trkpt lat="41.0482930" lon="0.5438980">
        <ele>229.2</ele>
        <time>2020-08-07T16:50:49Z</time>
      </trkpt>
      <trkpt lat="41.0483260" lon="0.5439150">
        <ele>229.2</ele>
        <time>2020-08-07T16:50:50Z</time>
      </trkpt>
      <trkpt lat="41.0483910" lon="0.5439440">
        <ele>229.3</ele>
        <time>2020-08-07T16:50:52Z</time>
      </trkpt>
      <trkpt lat="41.0484230" lon="0.5439610">
        <ele>229.4</ele>
        <time>2020-08-07T16:50:53Z</time>
      </trkpt>
      <trkpt lat="41.0484530" lon="0.5439750">
        <ele>229.4</ele>
        <time>2020-08-07T16:50:54Z</time>
      </trkpt>
      <trkpt lat="41.0485040" lon="0.5440060">
        <ele>229.5</ele>
        <time>2020-08-07T16:50:55Z</time>
      </trkpt>
      <trkpt lat="41.0485380" lon="0.5440350">
        <ele>229.5</ele>
        <time>2020-08-07T16:50:57Z</time>
      </trkpt>
      <trkpt lat="41.0485920" lon="0.5440810">
        <ele>229.6</ele>
        <time>2020-08-07T16:50:59Z</time>
      </trkpt>
      <trkpt lat="41.0486170" lon="0.5441080">
        <ele>229.6</ele>
        <time>2020-08-07T16:51:00Z</time>
      </trkpt>
      <trkpt lat="41.0486400" lon="0.5441350">
        <ele>229.6</ele>
        <time>2020-08-07T16:51:01Z</time>
      </trkpt>
      <trkpt lat="41.0486870" lon="0.5441850">
        <ele>229.7</ele>
        <time>2020-08-07T16:51:03Z</time>
      </trkpt>
      <trkpt lat="41.0487150" lon="0.5442130">
        <ele>229.7</ele>
        <time>2020-08-07T16:51:04Z</time>
      </trkpt>
      <trkpt lat="41.0487610" lon="0.5442620">
        <ele>229.8</ele>
        <time>2020-08-07T16:51:06Z</time>
      </trkpt>
      <trkpt lat="41.0487840" lon="0.5442890">
        <ele>229.8</ele>
        <time>2020-08-07T16:51:07Z</time>
      </trkpt>
      <trkpt lat="41.0488060" lon="0.5443150">
        <ele>229.8</ele>
        <time>2020-08-07T16:51:08Z</time>
      </trkpt>
      <trkpt lat="41.0488550" lon="0.5443680">
        <ele>229.9</ele>
        <time>2020-08-07T16:51:10Z</time>
      </trkpt>
      <trkpt lat="41.0489000" lon="0.5444210">
        <ele>229.9</ele>
        <time>2020-08-07T16:51:12Z</time>
      </trkpt>
      <trkpt lat="41.0489220" lon="0.5444500">
        <ele>229.9</ele>
        <time>2020-08-07T16:51:13Z</time>
      </trkpt>
      <trkpt lat="41.0489670" lon="0.5445030">
        <ele>230.0</ele>
        <time>2020-08-07T16:51:15Z</time>
      </trkpt>
      <trkpt lat="41.0489890" lon="0.5445280">
        <ele>230.0</ele>
        <time>2020-08-07T16:51:16Z</time>
      </trkpt>
      <trkpt lat="41.0490370" lon="0.5445850">
        <ele>230.1</ele>
        <time>2020-08-07T16:51:18Z</time>
      </trkpt>
      <trkpt lat="41.0490610" lon="0.5446110">
        <ele>230.1</ele>
        <time>2020-08-07T16:51:19Z</time>
      </trkpt>
      <trkpt lat="41.0491130" lon="0.5446640">
        <ele>230.1</ele>
        <time>2020-08-07T16:51:21Z</time>
      </trkpt>
      <trkpt lat="41.0491460" lon="0.5446940">
        <ele>230.1</ele>
        <time>2020-08-07T16:51:22Z</time>
      </trkpt>
      <trkpt lat="41.0491780" lon="0.5447270">
        <ele>230.2</ele>
        <time>2020-08-07T16:51:23Z</time>
      </trkpt>
      <trkpt lat="41.0492240" lon="0.5447730">
        <ele>230.2</ele>
        <time>2020-08-07T16:51:25Z</time>
      </trkpt>
      <trkpt lat="41.0492700" lon="0.5448220">
        <ele>230.3</ele>
        <time>2020-08-07T16:51:27Z</time>
      </trkpt>
      <trkpt lat="41.0493180" lon="0.5448710">
        <ele>230.3</ele>
        <time>2020-08-07T16:51:29Z</time>
      </trkpt>
      <trkpt lat="41.0493420" lon="0.5448960">
        <ele>230.3</ele>
        <time>2020-08-07T16:51:30Z</time>
      </trkpt>
      <trkpt lat="41.0493670" lon="0.5449220">
        <ele>230.4</ele>
        <time>2020-08-07T16:51:31Z</time>
      </trkpt>
      <trkpt lat="41.0493930" lon="0.5449470">
        <ele>230.4</ele>
        <time>2020-08-07T16:51:32Z</time>
      </trkpt>
      <trkpt lat="41.0494410" lon="0.5450000">
        <ele>230.3</ele>
        <time>2020-08-07T16:51:34Z</time>
      </trkpt>
      <trkpt lat="41.0494730" lon="0.5450340">
        <ele>230.3</ele>
        <time>2020-08-07T16:51:35Z</time>
      </trkpt>
      <trkpt lat="41.0495140" lon="0.5450800">
        <ele>230.3</ele>
        <time>2020-08-07T16:51:37Z</time>
      </trkpt>
      <trkpt lat="41.0495480" lon="0.5451180">
        <ele>230.2</ele>
        <time>2020-08-07T16:51:38Z</time>
      </trkpt>
      <trkpt lat="41.0495860" lon="0.5451570">
        <ele>230.2</ele>
        <time>2020-08-07T16:51:40Z</time>
      </trkpt>
      <trkpt lat="41.0496230" lon="0.5451820">
        <ele>230.1</ele>
        <time>2020-08-07T16:51:42Z</time>
      </trkpt>
      <trkpt lat="41.0496090" lon="0.5451760">
        <ele>230.1</ele>
        <time>2020-08-07T16:51:55Z</time>
      </trkpt>
      <trkpt lat="41.0496530" lon="0.5452310">
        <ele>230.0</ele>
        <time>2020-08-07T16:53:21Z</time>
      </trkpt>
      <trkpt lat="41.0496790" lon="0.5452590">
        <ele>230.0</ele>
        <time>2020-08-07T16:53:23Z</time>
      </trkpt>
      <trkpt lat="41.0497060" lon="0.5452900">
        <ele>229.9</ele>
        <time>2020-08-07T16:53:25Z</time>
      </trkpt>
      <trkpt lat="41.0497320" lon="0.5453270">
        <ele>229.8</ele>
        <time>2020-08-07T16:53:27Z</time>
      </trkpt>
      <trkpt lat="41.0497460" lon="0.5453450">
        <ele>229.8</ele>
        <time>2020-08-07T16:53:28Z</time>
      </trkpt>
      <trkpt lat="41.0497790" lon="0.5453870">
        <ele>229.7</ele>
        <time>2020-08-07T16:53:30Z</time>
      </trkpt>
      <trkpt lat="41.0498070" lon="0.5454240">
        <ele>229.7</ele>
        <time>2020-08-07T16:53:31Z</time>
      </trkpt>
      <trkpt lat="41.0498170" lon="0.5454370">
        <ele>229.7</ele>
        <time>2020-08-07T16:53:32Z</time>
      </trkpt>
      <trkpt lat="41.0498590" lon="0.5454860">
        <ele>229.6</ele>
        <time>2020-08-07T16:53:34Z</time>
      </trkpt>
      <trkpt lat="41.0498820" lon="0.5455090">
        <ele>229.6</ele>
        <time>2020-08-07T16:53:35Z</time>
      </trkpt>
      <trkpt lat="41.0499420" lon="0.5455660">
        <ele>229.5</ele>
        <time>2020-08-07T16:53:37Z</time>
      </trkpt>
      <trkpt lat="41.0500030" lon="0.5456270">
        <ele>229.3</ele>
        <time>2020-08-07T16:53:39Z</time>
      </trkpt>
      <trkpt lat="41.0500320" lon="0.5456620">
        <ele>229.2</ele>
        <time>2020-08-07T16:53:40Z</time>
      </trkpt>
      <trkpt lat="41.0500610" lon="0.5456960">
        <ele>229.1</ele>
        <time>2020-08-07T16:53:41Z</time>
      </trkpt>
      <trkpt lat="41.0500340" lon="0.5456780">
        <ele>229.0</ele>
        <time>2020-08-07T16:53:43Z</time>
      </trkpt>
      <trkpt lat="41.0500430" lon="0.5456950">
        <ele>229.0</ele>
        <time>2020-08-07T16:53:45Z</time>
      </trkpt>
      <trkpt lat="41.0500500" lon="0.5457040">
        <ele>228.9</ele>
        <time>2020-08-07T16:53:46Z</time>
      </trkpt>
      <trkpt lat="41.0500580" lon="0.5457140">
        <ele>228.9</ele>
        <time>2020-08-07T16:53:47Z</time>
      </trkpt>
      <trkpt lat="41.0500720" lon="0.5457250">
        <ele>228.9</ele>
        <time>2020-08-07T16:53:48Z</time>
      </trkpt>
      <trkpt lat="41.0501050" lon="0.5457670">
        <ele>228.8</ele>
        <time>2020-08-07T16:53:50Z</time>
      </trkpt>
      <trkpt lat="41.0501360" lon="0.5458120">
        <ele>228.7</ele>
        <time>2020-08-07T16:53:53Z</time>
      </trkpt>
      <trkpt lat="41.0501550" lon="0.5458340">
        <ele>228.6</ele>
        <time>2020-08-07T16:53:55Z</time>
      </trkpt>
      <trkpt lat="41.0502260" lon="0.5459160">
        <ele>228.4</ele>
        <time>2020-08-07T16:53:57Z</time>
      </trkpt>
      <trkpt lat="41.0502750" lon="0.5459650">
        <ele>228.3</ele>
        <time>2020-08-07T16:53:59Z</time>
      </trkpt>
      <trkpt lat="41.0504220" lon="0.5461490">
        <ele>227.7</ele>
        <time>2020-08-07T16:54:01Z</time>
      </trkpt>
      <trkpt lat="41.0506560" lon="0.5464520">
        <ele>226.4</ele>
        <time>2020-08-07T16:54:02Z</time>
      </trkpt>
      <trkpt lat="41.0507120" lon="0.5465190">
        <ele>226.1</ele>
        <time>2020-08-07T16:54:03Z</time>
      </trkpt>
      <trkpt lat="41.0507670" lon="0.5465860">
        <ele>225.8</ele>
        <time>2020-08-07T16:54:05Z</time>
      </trkpt>
      <trkpt lat="41.0508120" lon="0.5466250">
        <ele>225.5</ele>
        <time>2020-08-07T16:54:06Z</time>
      </trkpt>
      <trkpt lat="41.0509030" lon="0.5466820">
        <ele>225.0</ele>
        <time>2020-08-07T16:54:08Z</time>
      </trkpt>
      <trkpt lat="41.0509970" lon="0.5467220">
        <ele>224.6</ele>
        <time>2020-08-07T16:54:10Z</time>
      </trkpt>
      <trkpt lat="41.0510410" lon="0.5467370">
        <ele>224.3</ele>
        <time>2020-08-07T16:54:11Z</time>
      </trkpt>
      <trkpt lat="41.0510890" lon="0.5467540">
        <ele>224.1</ele>
        <time>2020-08-07T16:54:12Z</time>
      </trkpt>
      <trkpt lat="41.0511390" lon="0.5467670">
        <ele>223.8</ele>
        <time>2020-08-07T16:54:13Z</time>
      </trkpt>
      <trkpt lat="41.0512420" lon="0.5467990">
        <ele>223.2</ele>
        <time>2020-08-07T16:54:15Z</time>
      </trkpt>
      <trkpt lat="41.0513490" lon="0.5468590">
        <ele>222.6</ele>
        <time>2020-08-07T16:54:17Z</time>
      </trkpt>
      <trkpt lat="41.0514140" lon="0.5468930">
        <ele>222.3</ele>
        <time>2020-08-07T16:54:18Z</time>
      </trkpt>
      <trkpt lat="41.0514750" lon="0.5469330">
        <ele>221.9</ele>
        <time>2020-08-07T16:54:19Z</time>
      </trkpt>
      <trkpt lat="41.0515360" lon="0.5469760">
        <ele>221.6</ele>
        <time>2020-08-07T16:54:20Z</time>
      </trkpt>
      <trkpt lat="41.0516090" lon="0.5470050">
        <ele>221.2</ele>
        <time>2020-08-07T16:54:21Z</time>
      </trkpt>
      <trkpt lat="41.0517450" lon="0.5470690">
        <ele>220.5</ele>
        <time>2020-08-07T16:54:23Z</time>
      </trkpt>
      <trkpt lat="41.0518090" lon="0.5470940">
        <ele>220.2</ele>
        <time>2020-08-07T16:54:24Z</time>
      </trkpt>
      <trkpt lat="41.0519260" lon="0.5471390">
        <ele>219.6</ele>
        <time>2020-08-07T16:54:26Z</time>
      </trkpt>
      <trkpt lat="41.0520260" lon="0.5471910">
        <ele>219.1</ele>
        <time>2020-08-07T16:54:28Z</time>
      </trkpt>
      <trkpt lat="41.0520770" lon="0.5472350">
        <ele>218.8</ele>
        <time>2020-08-07T16:54:29Z</time>
      </trkpt>
      <trkpt lat="41.0521730" lon="0.5473560">
        <ele>218.2</ele>
        <time>2020-08-07T16:54:31Z</time>
      </trkpt>
      <trkpt lat="41.0522050" lon="0.5474320">
        <ele>217.8</ele>
        <time>2020-08-07T16:54:32Z</time>
      </trkpt>
      <trkpt lat="41.0522260" lon="0.5475140">
        <ele>217.5</ele>
        <time>2020-08-07T16:54:33Z</time>
      </trkpt>
      <trkpt lat="41.0522570" lon="0.5476840">
        <ele>216.8</ele>
        <time>2020-08-07T16:54:35Z</time>
      </trkpt>
      <trkpt lat="41.0522790" lon="0.5477660">
        <ele>216.5</ele>
        <time>2020-08-07T16:54:36Z</time>
      </trkpt>
      <trkpt lat="41.0523470" lon="0.5479170">
        <ele>215.8</ele>
        <time>2020-08-07T16:54:38Z</time>
      </trkpt>
      <trkpt lat="41.0523840" lon="0.5479870">
        <ele>215.4</ele>
        <time>2020-08-07T16:54:39Z</time>
      </trkpt>
      <trkpt lat="41.0524620" lon="0.5481280">
        <ele>214.8</ele>
        <time>2020-08-07T16:54:41Z</time>
      </trkpt>
      <trkpt lat="41.0525100" lon="0.5481880">
        <ele>214.5</ele>
        <time>2020-08-07T16:54:42Z</time>
      </trkpt>
      <trkpt lat="41.0526220" lon="0.5482710">
        <ele>213.8</ele>
        <time>2020-08-07T16:54:44Z</time>
      </trkpt>
      <trkpt lat="41.0527340" lon="0.5482860">
        <ele>213.2</ele>
        <time>2020-08-07T16:54:46Z</time>
      </trkpt>
      <trkpt lat="41.0527860" lon="0.5482440">
        <ele>212.9</ele>
        <time>2020-08-07T16:54:47Z</time>
      </trkpt>
      <trkpt lat="41.0528570" lon="0.5481170">
        <ele>212.3</ele>
        <time>2020-08-07T16:54:49Z</time>
      </trkpt>
      <trkpt lat="41.0528900" lon="0.5480510">
        <ele>212.0</ele>
        <time>2020-08-07T16:54:50Z</time>
      </trkpt>
      <trkpt lat="41.0529190" lon="0.5479940">
        <ele>211.7</ele>
        <time>2020-08-07T16:54:51Z</time>
      </trkpt>
      <trkpt lat="41.0529740" lon="0.5478620">
        <ele>211.1</ele>
        <time>2020-08-07T16:54:53Z</time>
      </trkpt>
      <trkpt lat="41.0530000" lon="0.5477930">
        <ele>210.9</ele>
        <time>2020-08-07T16:54:54Z</time>
      </trkpt>
      <trkpt lat="41.0530390" lon="0.5476520">
        <ele>210.4</ele>
        <time>2020-08-07T16:54:56Z</time>
      </trkpt>
      <trkpt lat="41.0530660" lon="0.5475690">
        <ele>210.2</ele>
        <time>2020-08-07T16:54:57Z</time>
      </trkpt>
      <trkpt lat="41.0530970" lon="0.5474930">
        <ele>209.9</ele>
        <time>2020-08-07T16:54:58Z</time>
      </trkpt>
      <trkpt lat="41.0531450" lon="0.5474270">
        <ele>209.6</ele>
        <time>2020-08-07T16:54:59Z</time>
      </trkpt>
      <trkpt lat="41.0532610" lon="0.5473450">
        <ele>209.2</ele>
        <time>2020-08-07T16:55:01Z</time>
      </trkpt>
      <trkpt lat="41.0533950" lon="0.5473560">
        <ele>208.9</ele>
        <time>2020-08-07T16:55:03Z</time>
      </trkpt>
      <trkpt lat="41.0534450" lon="0.5473860">
        <ele>208.8</ele>
        <time>2020-08-07T16:55:04Z</time>
      </trkpt>
      <trkpt lat="41.0535500" lon="0.5474620">
        <ele>208.7</ele>
        <time>2020-08-07T16:55:06Z</time>
      </trkpt>
      <trkpt lat="41.0536030" lon="0.5475050">
        <ele>208.6</ele>
        <time>2020-08-07T16:55:07Z</time>
      </trkpt>
      <trkpt lat="41.0537080" lon="0.5475900">
        <ele>208.5</ele>
        <time>2020-08-07T16:55:09Z</time>
      </trkpt>
      <trkpt lat="41.0537620" lon="0.5476330">
        <ele>208.4</ele>
        <time>2020-08-07T16:55:10Z</time>
      </trkpt>
      <trkpt lat="41.0538390" lon="0.5477410">
        <ele>208.3</ele>
        <time>2020-08-07T16:55:12Z</time>
      </trkpt>
      <trkpt lat="41.0538670" lon="0.5478760">
        <ele>208.2</ele>
        <time>2020-08-07T16:55:14Z</time>
      </trkpt>
      <trkpt lat="41.0538700" lon="0.5479390">
        <ele>208.2</ele>
        <time>2020-08-07T16:55:15Z</time>
      </trkpt>
      <trkpt lat="41.0538630" lon="0.5479940">
        <ele>208.2</ele>
        <time>2020-08-07T16:55:16Z</time>
      </trkpt>
      <trkpt lat="41.0538430" lon="0.5480900">
        <ele>208.2</ele>
        <time>2020-08-07T16:55:18Z</time>
      </trkpt>
      <trkpt lat="41.0538320" lon="0.5481420">
        <ele>208.1</ele>
        <time>2020-08-07T16:55:19Z</time>
      </trkpt>
      <trkpt lat="41.0538200" lon="0.5481850">
        <ele>208.1</ele>
        <time>2020-08-07T16:55:20Z</time>
      </trkpt>
      <trkpt lat="41.0537940" lon="0.5482640">
        <ele>208.0</ele>
        <time>2020-08-07T16:55:22Z</time>
      </trkpt>
      <trkpt lat="41.0537780" lon="0.5483060">
        <ele>208.0</ele>
        <time>2020-08-07T16:55:23Z</time>
      </trkpt>
      <trkpt lat="41.0537520" lon="0.5483860">
        <ele>207.9</ele>
        <time>2020-08-07T16:55:25Z</time>
      </trkpt>
      <trkpt lat="41.0537400" lon="0.5484230">
        <ele>207.8</ele>
        <time>2020-08-07T16:55:26Z</time>
      </trkpt>
      <trkpt lat="41.0537220" lon="0.5485070">
        <ele>207.7</ele>
        <time>2020-08-07T16:55:28Z</time>
      </trkpt>
      <trkpt lat="41.0537030" lon="0.5485940">
        <ele>207.4</ele>
        <time>2020-08-07T16:55:30Z</time>
      </trkpt>
      <trkpt lat="41.0536810" lon="0.5486700">
        <ele>207.2</ele>
        <time>2020-08-07T16:55:31Z</time>
      </trkpt>
      <trkpt lat="41.0536730" lon="0.5486950">
        <ele>207.1</ele>
        <time>2020-08-07T16:55:32Z</time>
      </trkpt>
      <trkpt lat="41.0536570" lon="0.5487490">
        <ele>207.0</ele>
        <time>2020-08-07T16:55:33Z</time>
      </trkpt>
      <trkpt lat="41.0536240" lon="0.5488700">
        <ele>206.7</ele>
        <time>2020-08-07T16:55:35Z</time>
      </trkpt>
      <trkpt lat="41.0535940" lon="0.5489980">
        <ele>206.3</ele>
        <time>2020-08-07T16:55:37Z</time>
      </trkpt>
      <trkpt lat="41.0535780" lon="0.5490590">
        <ele>206.2</ele>
        <time>2020-08-07T16:55:38Z</time>
      </trkpt>
      <trkpt lat="41.0535600" lon="0.5491210">
        <ele>206.0</ele>
        <time>2020-08-07T16:55:39Z</time>
      </trkpt>
      <trkpt lat="41.0535220" lon="0.5492440">
        <ele>205.6</ele>
        <time>2020-08-07T16:55:41Z</time>
      </trkpt>
      <trkpt lat="41.0534960" lon="0.5493100">
        <ele>205.3</ele>
        <time>2020-08-07T16:55:42Z</time>
      </trkpt>
      <trkpt lat="41.0534520" lon="0.5494490">
        <ele>204.9</ele>
        <time>2020-08-07T16:55:44Z</time>
      </trkpt>
      <trkpt lat="41.0534140" lon="0.5495930">
        <ele>204.4</ele>
        <time>2020-08-07T16:55:46Z</time>
      </trkpt>
      <trkpt lat="41.0533930" lon="0.5496690">
        <ele>204.2</ele>
        <time>2020-08-07T16:55:47Z</time>
      </trkpt>
      <trkpt lat="41.0533640" lon="0.5498160">
        <ele>203.7</ele>
        <time>2020-08-07T16:55:49Z</time>
      </trkpt>
      <trkpt lat="41.0533560" lon="0.5498940">
        <ele>203.5</ele>
        <time>2020-08-07T16:55:50Z</time>
      </trkpt>
      <trkpt lat="41.0533550" lon="0.5500360">
        <ele>203.1</ele>
        <time>2020-08-07T16:55:52Z</time>
      </trkpt>
      <trkpt lat="41.0533630" lon="0.5501120">
        <ele>202.8</ele>
        <time>2020-08-07T16:55:53Z</time>
      </trkpt>
      <trkpt lat="41.0533890" lon="0.5502660">
        <ele>202.3</ele>
        <time>2020-08-07T16:55:55Z</time>
      </trkpt>
      <trkpt lat="41.0534050" lon="0.5504160">
        <ele>201.8</ele>
        <time>2020-08-07T16:55:57Z</time>
      </trkpt>
      <trkpt lat="41.0534120" lon="0.5504900">
        <ele>201.6</ele>
        <time>2020-08-07T16:55:58Z</time>
      </trkpt>
      <trkpt lat="41.0535360" lon="0.5509820">
        <ele>200.0</ele>
        <time>2020-08-07T16:56:05Z</time>
      </trkpt>
      <trkpt lat="41.0535590" lon="0.5510480">
        <ele>199.7</ele>
        <time>2020-08-07T16:56:06Z</time>
      </trkpt>
      <trkpt lat="41.0536120" lon="0.5512010">
        <ele>199.2</ele>
        <time>2020-08-07T16:56:08Z</time>
      </trkpt>
      <trkpt lat="41.0536730" lon="0.5513670">
        <ele>198.4</ele>
        <time>2020-08-07T16:56:10Z</time>
      </trkpt>
      <trkpt lat="41.0537000" lon="0.5514470">
        <ele>198.1</ele>
        <time>2020-08-07T16:56:11Z</time>
      </trkpt>
      <trkpt lat="41.0537270" lon="0.5515260">
        <ele>197.8</ele>
        <time>2020-08-07T16:56:12Z</time>
      </trkpt>
      <trkpt lat="41.0537820" lon="0.5516910">
        <ele>197.1</ele>
        <time>2020-08-07T16:56:14Z</time>
      </trkpt>
      <trkpt lat="41.0538420" lon="0.5518610">
        <ele>196.5</ele>
        <time>2020-08-07T16:56:16Z</time>
      </trkpt>
      <trkpt lat="41.0538720" lon="0.5519480">
        <ele>196.1</ele>
        <time>2020-08-07T16:56:17Z</time>
      </trkpt>
      <trkpt lat="41.0539320" lon="0.5521170">
        <ele>195.3</ele>
        <time>2020-08-07T16:56:19Z</time>
      </trkpt>
      <trkpt lat="41.0539670" lon="0.5521920">
        <ele>194.9</ele>
        <time>2020-08-07T16:56:20Z</time>
      </trkpt>
      <trkpt lat="41.0540460" lon="0.5523230">
        <ele>194.3</ele>
        <time>2020-08-07T16:56:21Z</time>
      </trkpt>
      <trkpt lat="41.0540870" lon="0.5523850">
        <ele>194.0</ele>
        <time>2020-08-07T16:56:23Z</time>
      </trkpt>
      <trkpt lat="41.0541300" lon="0.5524430">
        <ele>193.7</ele>
        <time>2020-08-07T16:56:24Z</time>
      </trkpt>
      <trkpt lat="41.0541730" lon="0.5524960">
        <ele>193.4</ele>
        <time>2020-08-07T16:56:25Z</time>
      </trkpt>
      <trkpt lat="41.0542460" lon="0.5526020">
        <ele>192.8</ele>
        <time>2020-08-07T16:56:27Z</time>
      </trkpt>
      <trkpt lat="41.0542840" lon="0.5526530">
        <ele>192.5</ele>
        <time>2020-08-07T16:56:28Z</time>
      </trkpt>
      <trkpt lat="41.0543590" lon="0.5527640">
        <ele>191.9</ele>
        <time>2020-08-07T16:56:30Z</time>
      </trkpt>
      <trkpt lat="41.0543990" lon="0.5528230">
        <ele>191.7</ele>
        <time>2020-08-07T16:56:31Z</time>
      </trkpt>
      <trkpt lat="41.0544410" lon="0.5528830">
        <ele>191.4</ele>
        <time>2020-08-07T16:56:32Z</time>
      </trkpt>
      <trkpt lat="41.0545110" lon="0.5530140">
        <ele>191.0</ele>
        <time>2020-08-07T16:56:34Z</time>
      </trkpt>
      <trkpt lat="41.0545900" lon="0.5531390">
        <ele>190.6</ele>
        <time>2020-08-07T16:56:36Z</time>
      </trkpt>
      <trkpt lat="41.0546380" lon="0.5531980">
        <ele>190.5</ele>
        <time>2020-08-07T16:56:37Z</time>
      </trkpt>
      <trkpt lat="41.0547480" lon="0.5533080">
        <ele>190.2</ele>
        <time>2020-08-07T16:56:39Z</time>
      </trkpt>
      <trkpt lat="41.0548510" lon="0.5534160">
        <ele>190.0</ele>
        <time>2020-08-07T16:56:41Z</time>
      </trkpt>
      <trkpt lat="41.0549030" lon="0.5534610">
        <ele>190.0</ele>
        <time>2020-08-07T16:56:42Z</time>
      </trkpt>
      <trkpt lat="41.0550050" lon="0.5535520">
        <ele>189.7</ele>
        <time>2020-08-07T16:56:44Z</time>
      </trkpt>
      <trkpt lat="41.0550510" lon="0.5535990">
        <ele>189.6</ele>
        <time>2020-08-07T16:56:45Z</time>
      </trkpt>
      <trkpt lat="41.0551020" lon="0.5536450">
        <ele>189.5</ele>
        <time>2020-08-07T16:56:46Z</time>
      </trkpt>
      <trkpt lat="41.0551910" lon="0.5537340">
        <ele>189.3</ele>
        <time>2020-08-07T16:56:48Z</time>
      </trkpt>
      <trkpt lat="41.0552330" lon="0.5537800">
        <ele>189.2</ele>
        <time>2020-08-07T16:56:49Z</time>
      </trkpt>
      <trkpt lat="41.0553120" lon="0.5538760">
        <ele>189.1</ele>
        <time>2020-08-07T16:56:51Z</time>
      </trkpt>
      <trkpt lat="41.0553540" lon="0.5539280">
        <ele>189.0</ele>
        <time>2020-08-07T16:56:52Z</time>
      </trkpt>
      <trkpt lat="41.0554340" lon="0.5540220">
        <ele>188.8</ele>
        <time>2020-08-07T16:56:54Z</time>
      </trkpt>
      <trkpt lat="41.0555080" lon="0.5541330">
        <ele>188.6</ele>
        <time>2020-08-07T16:56:56Z</time>
      </trkpt>
      <trkpt lat="41.0555810" lon="0.5542460">
        <ele>188.4</ele>
        <time>2020-08-07T16:56:58Z</time>
      </trkpt>
      <trkpt lat="41.0556130" lon="0.5543030">
        <ele>188.3</ele>
        <time>2020-08-07T16:56:59Z</time>
      </trkpt>
      <trkpt lat="41.0556440" lon="0.5543640">
        <ele>188.2</ele>
        <time>2020-08-07T16:57:00Z</time>
      </trkpt>
      <trkpt lat="41.0556930" lon="0.5544920">
        <ele>187.9</ele>
        <time>2020-08-07T16:57:02Z</time>
      </trkpt>
      <trkpt lat="41.0557140" lon="0.5545600">
        <ele>187.7</ele>
        <time>2020-08-07T16:57:03Z</time>
      </trkpt>
      <trkpt lat="41.0557520" lon="0.5546960">
        <ele>187.5</ele>
        <time>2020-08-07T16:57:05Z</time>
      </trkpt>
      <trkpt lat="41.0557690" lon="0.5547680">
        <ele>187.3</ele>
        <time>2020-08-07T16:57:06Z</time>
      </trkpt>
      <trkpt lat="41.0557900" lon="0.5548440">
        <ele>187.2</ele>
        <time>2020-08-07T16:57:07Z</time>
      </trkpt>
      <trkpt lat="41.0558130" lon="0.5549950">
        <ele>186.9</ele>
        <time>2020-08-07T16:57:09Z</time>
      </trkpt>
      <trkpt lat="41.0558240" lon="0.5551480">
        <ele>186.6</ele>
        <time>2020-08-07T16:57:11Z</time>
      </trkpt>
      <trkpt lat="41.0558390" lon="0.5553060">
        <ele>186.3</ele>
        <time>2020-08-07T16:57:13Z</time>
      </trkpt>
      <trkpt lat="41.0558570" lon="0.5554700">
        <ele>186.1</ele>
        <time>2020-08-07T16:57:15Z</time>
      </trkpt>
      <trkpt lat="41.0558720" lon="0.5555300">
        <ele>186.0</ele>
        <time>2020-08-07T16:57:16Z</time>
      </trkpt>
      <trkpt lat="41.0558630" lon="0.5556600">
        <ele>185.8</ele>
        <time>2020-08-07T16:57:18Z</time>
      </trkpt>
      <trkpt lat="41.0558430" lon="0.5557280">
        <ele>185.7</ele>
        <time>2020-08-07T16:57:19Z</time>
      </trkpt>
      <trkpt lat="41.0557930" lon="0.5558530">
        <ele>185.5</ele>
        <time>2020-08-07T16:57:21Z</time>
      </trkpt>
      <trkpt lat="41.0557330" lon="0.5559680">
        <ele>185.3</ele>
        <time>2020-08-07T16:57:23Z</time>
      </trkpt>
      <trkpt lat="41.0556970" lon="0.5560250">
        <ele>185.1</ele>
        <time>2020-08-07T16:57:24Z</time>
      </trkpt>
      <trkpt lat="41.0556210" lon="0.5561430">
        <ele>184.8</ele>
        <time>2020-08-07T16:57:26Z</time>
      </trkpt>
      <trkpt lat="41.0555360" lon="0.5562530">
        <ele>184.5</ele>
        <time>2020-08-07T16:57:28Z</time>
      </trkpt>
      <trkpt lat="41.0555000" lon="0.5562970">
        <ele>184.4</ele>
        <time>2020-08-07T16:57:29Z</time>
      </trkpt>
      <trkpt lat="41.0554170" lon="0.5563860">
        <ele>184.1</ele>
        <time>2020-08-07T16:57:31Z</time>
      </trkpt>
      <trkpt lat="41.0553430" lon="0.5564850">
        <ele>183.8</ele>
        <time>2020-08-07T16:57:33Z</time>
      </trkpt>
      <trkpt lat="41.0553000" lon="0.5565370">
        <ele>183.7</ele>
        <time>2020-08-07T16:57:34Z</time>
      </trkpt>
      <trkpt lat="41.0552600" lon="0.5565900">
        <ele>183.5</ele>
        <time>2020-08-07T16:57:35Z</time>
      </trkpt>
      <trkpt lat="41.0551920" lon="0.5567010">
        <ele>183.2</ele>
        <time>2020-08-07T16:57:37Z</time>
      </trkpt>
      <trkpt lat="41.0551360" lon="0.5568300">
        <ele>182.9</ele>
        <time>2020-08-07T16:57:39Z</time>
      </trkpt>
      <trkpt lat="41.0551120" lon="0.5568980">
        <ele>182.7</ele>
        <time>2020-08-07T16:57:40Z</time>
      </trkpt>
      <trkpt lat="41.0550900" lon="0.5569750">
        <ele>182.4</ele>
        <time>2020-08-07T16:57:41Z</time>
      </trkpt>
      <trkpt lat="41.0550750" lon="0.5571290">
        <ele>181.9</ele>
        <time>2020-08-07T16:57:43Z</time>
      </trkpt>
      <trkpt lat="41.0551020" lon="0.5572840">
        <ele>181.4</ele>
        <time>2020-08-07T16:57:45Z</time>
      </trkpt>
      <trkpt lat="41.0551650" lon="0.5574310">
        <ele>180.8</ele>
        <time>2020-08-07T16:57:47Z</time>
      </trkpt>
      <trkpt lat="41.0552500" lon="0.5575690">
        <ele>180.1</ele>
        <time>2020-08-07T16:57:49Z</time>
      </trkpt>
      <trkpt lat="41.0552880" lon="0.5576370">
        <ele>179.8</ele>
        <time>2020-08-07T16:57:50Z</time>
      </trkpt>
      <trkpt lat="41.0553260" lon="0.5577060">
        <ele>179.4</ele>
        <time>2020-08-07T16:57:51Z</time>
      </trkpt>
      <trkpt lat="41.0554000" lon="0.5578490">
        <ele>178.8</ele>
        <time>2020-08-07T16:57:53Z</time>
      </trkpt>
      <trkpt lat="41.0554850" lon="0.5579950">
        <ele>178.1</ele>
        <time>2020-08-07T16:57:55Z</time>
      </trkpt>
      <trkpt lat="41.0555680" lon="0.5581290">
        <ele>177.5</ele>
        <time>2020-08-07T16:57:57Z</time>
      </trkpt>
      <trkpt lat="41.0556130" lon="0.5581870">
        <ele>177.2</ele>
        <time>2020-08-07T16:57:58Z</time>
      </trkpt>
      <trkpt lat="41.0556590" lon="0.5582500">
        <ele>177.0</ele>
        <time>2020-08-07T16:57:59Z</time>
      </trkpt>
      <trkpt lat="41.0557040" lon="0.5583110">
        <ele>176.7</ele>
        <time>2020-08-07T16:58:00Z</time>
      </trkpt>
      <trkpt lat="41.0557540" lon="0.5583690">
        <ele>176.4</ele>
        <time>2020-08-07T16:58:01Z</time>
      </trkpt>
      <trkpt lat="41.0558520" lon="0.5584650">
        <ele>175.8</ele>
        <time>2020-08-07T16:58:03Z</time>
      </trkpt>
      <trkpt lat="41.0559090" lon="0.5584880">
        <ele>175.6</ele>
        <time>2020-08-07T16:58:04Z</time>
      </trkpt>
      <trkpt lat="41.0559670" lon="0.5584940">
        <ele>175.4</ele>
        <time>2020-08-07T16:58:05Z</time>
      </trkpt>
      <trkpt lat="41.0560660" lon="0.5584510">
        <ele>175.1</ele>
        <time>2020-08-07T16:58:07Z</time>
      </trkpt>
      <trkpt lat="41.0560860" lon="0.5583930">
        <ele>175.0</ele>
        <time>2020-08-07T16:58:08Z</time>
      </trkpt>
      <trkpt lat="41.0560910" lon="0.5582570">
        <ele>174.9</ele>
        <time>2020-08-07T16:58:10Z</time>
      </trkpt>
      <trkpt lat="41.0561060" lon="0.5581330">
        <ele>174.8</ele>
        <time>2020-08-07T16:58:12Z</time>
      </trkpt>
      <trkpt lat="41.0561240" lon="0.5580670">
        <ele>174.8</ele>
        <time>2020-08-07T16:58:13Z</time>
      </trkpt>
      <trkpt lat="41.0562050" lon="0.5580140">
        <ele>174.7</ele>
        <time>2020-08-07T16:58:15Z</time>
      </trkpt>
      <trkpt lat="41.0562920" lon="0.5580300">
        <ele>174.4</ele>
        <time>2020-08-07T16:58:17Z</time>
      </trkpt>
      <trkpt lat="41.0563290" lon="0.5580530">
        <ele>174.3</ele>
        <time>2020-08-07T16:58:18Z</time>
      </trkpt>
      <trkpt lat="41.0563490" lon="0.5580900">
        <ele>174.1</ele>
        <time>2020-08-07T16:58:19Z</time>
      </trkpt>
      <trkpt lat="41.0563800" lon="0.5581980">
        <ele>173.7</ele>
        <time>2020-08-07T16:58:21Z</time>
      </trkpt>
      <trkpt lat="41.0563940" lon="0.5582620">
        <ele>173.4</ele>
        <time>2020-08-07T16:58:22Z</time>
      </trkpt>
      <trkpt lat="41.0564070" lon="0.5583310">
        <ele>173.1</ele>
        <time>2020-08-07T16:58:23Z</time>
      </trkpt>
      <trkpt lat="41.0564320" lon="0.5584790">
        <ele>172.5</ele>
        <time>2020-08-07T16:58:25Z</time>
      </trkpt>
      <trkpt lat="41.0564530" lon="0.5586430">
        <ele>171.8</ele>
        <time>2020-08-07T16:58:27Z</time>
      </trkpt>
      <trkpt lat="41.0564650" lon="0.5588150">
        <ele>171.1</ele>
        <time>2020-08-07T16:58:29Z</time>
      </trkpt>
      <trkpt lat="41.0564680" lon="0.5589030">
        <ele>170.8</ele>
        <time>2020-08-07T16:58:30Z</time>
      </trkpt>
      <trkpt lat="41.0564950" lon="0.5590440">
        <ele>170.4</ele>
        <time>2020-08-07T16:58:32Z</time>
      </trkpt>
      <trkpt lat="41.0565190" lon="0.5591960">
        <ele>169.8</ele>
        <time>2020-08-07T16:58:34Z</time>
      </trkpt>
      <trkpt lat="41.0565370" lon="0.5592770">
        <ele>169.6</ele>
        <time>2020-08-07T16:58:35Z</time>
      </trkpt>
      <trkpt lat="41.0565620" lon="0.5593550">
        <ele>169.3</ele>
        <time>2020-08-07T16:58:36Z</time>
      </trkpt>
      <trkpt lat="41.0565930" lon="0.5594300">
        <ele>169.0</ele>
        <time>2020-08-07T16:58:37Z</time>
      </trkpt>
      <trkpt lat="41.0566260" lon="0.5594960">
        <ele>168.7</ele>
        <time>2020-08-07T16:58:38Z</time>
      </trkpt>
      <trkpt lat="41.0567190" lon="0.5595930">
        <ele>168.2</ele>
        <time>2020-08-07T16:58:40Z</time>
      </trkpt>
      <trkpt lat="41.0567650" lon="0.5596230">
        <ele>167.9</ele>
        <time>2020-08-07T16:58:41Z</time>
      </trkpt>
      <trkpt lat="41.0568230" lon="0.5596410">
        <ele>167.6</ele>
        <time>2020-08-07T16:58:42Z</time>
      </trkpt>
      <trkpt lat="41.0569530" lon="0.5596530">
        <ele>166.9</ele>
        <time>2020-08-07T16:58:44Z</time>
      </trkpt>
      <trkpt lat="41.0570880" lon="0.5597070">
        <ele>166.2</ele>
        <time>2020-08-07T16:58:46Z</time>
      </trkpt>
      <trkpt lat="41.0571450" lon="0.5597620">
        <ele>165.9</ele>
        <time>2020-08-07T16:58:47Z</time>
      </trkpt>
      <trkpt lat="41.0572030" lon="0.5598940">
        <ele>165.4</ele>
        <time>2020-08-07T16:58:49Z</time>
      </trkpt>
      <trkpt lat="41.0572010" lon="0.5599730">
        <ele>165.2</ele>
        <time>2020-08-07T16:58:50Z</time>
      </trkpt>
      <trkpt lat="41.0571950" lon="0.5600480">
        <ele>164.9</ele>
        <time>2020-08-07T16:58:51Z</time>
      </trkpt>
      <trkpt lat="41.0571910" lon="0.5602040">
        <ele>164.3</ele>
        <time>2020-08-07T16:58:53Z</time>
      </trkpt>
      <trkpt lat="41.0571950" lon="0.5602820">
        <ele>164.1</ele>
        <time>2020-08-07T16:58:54Z</time>
      </trkpt>
      <trkpt lat="41.0572060" lon="0.5603600">
        <ele>163.8</ele>
        <time>2020-08-07T16:58:55Z</time>
      </trkpt>
      <trkpt lat="41.0572470" lon="0.5605170">
        <ele>163.3</ele>
        <time>2020-08-07T16:58:57Z</time>
      </trkpt>
      <trkpt lat="41.0573100" lon="0.5606600">
        <ele>162.9</ele>
        <time>2020-08-07T16:58:59Z</time>
      </trkpt>
      <trkpt lat="41.0573490" lon="0.5607260">
        <ele>162.7</ele>
        <time>2020-08-07T16:59:00Z</time>
      </trkpt>
      <trkpt lat="41.0573930" lon="0.5607900">
        <ele>162.5</ele>
        <time>2020-08-07T16:59:01Z</time>
      </trkpt>
      <trkpt lat="41.0574380" lon="0.5608530">
        <ele>162.3</ele>
        <time>2020-08-07T16:59:02Z</time>
      </trkpt>
      <trkpt lat="41.0574890" lon="0.5609150">
        <ele>162.1</ele>
        <time>2020-08-07T16:59:03Z</time>
      </trkpt>
      <trkpt lat="41.0575890" lon="0.5610210">
        <ele>161.7</ele>
        <time>2020-08-07T16:59:05Z</time>
      </trkpt>
      <trkpt lat="41.0576500" lon="0.5610830">
        <ele>161.5</ele>
        <time>2020-08-07T16:59:06Z</time>
      </trkpt>
      <trkpt lat="41.0577010" lon="0.5611450">
        <ele>161.3</ele>
        <time>2020-08-07T16:59:07Z</time>
      </trkpt>
      <trkpt lat="41.0578230" lon="0.5612510">
        <ele>160.8</ele>
        <time>2020-08-07T16:59:09Z</time>
      </trkpt>
      <trkpt lat="41.0578770" lon="0.5613190">
        <ele>160.6</ele>
        <time>2020-08-07T16:59:10Z</time>
      </trkpt>
      <trkpt lat="41.0579240" lon="0.5613790">
        <ele>160.4</ele>
        <time>2020-08-07T16:59:11Z</time>
      </trkpt>
      <trkpt lat="41.0580290" lon="0.5614850">
        <ele>159.9</ele>
        <time>2020-08-07T16:59:13Z</time>
      </trkpt>
      <trkpt lat="41.0581410" lon="0.5615870">
        <ele>159.5</ele>
        <time>2020-08-07T16:59:15Z</time>
      </trkpt>
      <trkpt lat="41.0582460" lon="0.5616920">
        <ele>159.2</ele>
        <time>2020-08-07T16:59:17Z</time>
      </trkpt>
      <trkpt lat="41.0582990" lon="0.5617440">
        <ele>159.1</ele>
        <time>2020-08-07T16:59:18Z</time>
      </trkpt>
      <trkpt lat="41.0584050" lon="0.5618490">
        <ele>158.9</ele>
        <time>2020-08-07T16:59:20Z</time>
      </trkpt>
      <trkpt lat="41.0584570" lon="0.5619030">
        <ele>158.8</ele>
        <time>2020-08-07T16:59:21Z</time>
      </trkpt>
      <trkpt lat="41.0585480" lon="0.5620150">
        <ele>158.7</ele>
        <time>2020-08-07T16:59:23Z</time>
      </trkpt>
      <trkpt lat="41.0586330" lon="0.5621240">
        <ele>158.6</ele>
        <time>2020-08-07T16:59:25Z</time>
      </trkpt>
      <trkpt lat="41.0586780" lon="0.5621730">
        <ele>158.5</ele>
        <time>2020-08-07T16:59:26Z</time>
      </trkpt>
      <trkpt lat="41.0587700" lon="0.5622760">
        <ele>158.3</ele>
        <time>2020-08-07T16:59:28Z</time>
      </trkpt>
      <trkpt lat="41.0588550" lon="0.5623740">
        <ele>158.2</ele>
        <time>2020-08-07T16:59:30Z</time>
      </trkpt>
      <trkpt lat="41.0589000" lon="0.5624260">
        <ele>158.1</ele>
        <time>2020-08-07T16:59:31Z</time>
      </trkpt>
      <trkpt lat="41.0589420" lon="0.5624760">
        <ele>158.1</ele>
        <time>2020-08-07T16:59:32Z</time>
      </trkpt>
      <trkpt lat="41.0589750" lon="0.5625220">
        <ele>158.0</ele>
        <time>2020-08-07T16:59:33Z</time>
      </trkpt>
      <trkpt lat="41.0590030" lon="0.5625780">
        <ele>158.0</ele>
        <time>2020-08-07T16:59:35Z</time>
      </trkpt>
      <trkpt lat="41.0589850" lon="0.5625730">
        <ele>158.0</ele>
        <time>2020-08-07T16:59:37Z</time>
      </trkpt>
      <trkpt lat="41.0589700" lon="0.5625630">
        <ele>158.0</ele>
        <time>2020-08-07T16:59:38Z</time>
      </trkpt>
      <trkpt lat="41.0589510" lon="0.5625480">
        <ele>157.9</ele>
        <time>2020-08-07T16:59:40Z</time>
      </trkpt>
      <trkpt lat="41.0589480" lon="0.5625480">
        <ele>157.9</ele>
        <time>2020-08-07T16:59:41Z</time>
      </trkpt>
      <trkpt lat="41.0589530" lon="0.5625460">
        <ele>157.9</ele>
        <time>2020-08-07T16:59:43Z</time>
      </trkpt>
      <trkpt lat="41.0589690" lon="0.5625450">
        <ele>157.9</ele>
        <time>2020-08-07T16:59:45Z</time>
      </trkpt>
      <trkpt lat="41.0589800" lon="0.5625400">
        <ele>157.9</ele>
        <time>2020-08-07T16:59:56Z</time>
      </trkpt>
      <trkpt lat="41.0589990" lon="0.5625580">
        <ele>157.9</ele>
        <time>2020-08-07T17:00:08Z</time>
      </trkpt>
      <trkpt lat="41.0590250" lon="0.5625920">
        <ele>157.9</ele>
        <time>2020-08-07T17:00:10Z</time>
      </trkpt>
      <trkpt lat="41.0590500" lon="0.5626340">
        <ele>157.8</ele>
        <time>2020-08-07T17:00:12Z</time>
      </trkpt>
      <trkpt lat="41.0590710" lon="0.5626620">
        <ele>157.8</ele>
        <time>2020-08-07T17:00:13Z</time>
      </trkpt>
      <trkpt lat="41.0590790" lon="0.5626700">
        <ele>157.8</ele>
        <time>2020-08-07T17:00:14Z</time>
      </trkpt>
      <trkpt lat="41.0590960" lon="0.5626870">
        <ele>157.8</ele>
        <time>2020-08-07T17:00:15Z</time>
      </trkpt>
      <trkpt lat="41.0591280" lon="0.5627280">
        <ele>157.7</ele>
        <time>2020-08-07T17:00:17Z</time>
      </trkpt>
      <trkpt lat="41.0591470" lon="0.5627550">
        <ele>157.7</ele>
        <time>2020-08-07T17:00:18Z</time>
      </trkpt>
      <trkpt lat="41.0591860" lon="0.5628040">
        <ele>157.7</ele>
        <time>2020-08-07T17:00:20Z</time>
      </trkpt>
      <trkpt lat="41.0592090" lon="0.5628290">
        <ele>157.6</ele>
        <time>2020-08-07T17:00:21Z</time>
      </trkpt>
      <trkpt lat="41.0592330" lon="0.5628540">
        <ele>157.6</ele>
        <time>2020-08-07T17:00:22Z</time>
      </trkpt>
      <trkpt lat="41.0592580" lon="0.5628810">
        <ele>157.6</ele>
        <time>2020-08-07T17:00:23Z</time>
      </trkpt>
      <trkpt lat="41.0592820" lon="0.5629070">
        <ele>157.6</ele>
        <time>2020-08-07T17:00:24Z</time>
      </trkpt>
      <trkpt lat="41.0593060" lon="0.5629340">
        <ele>157.5</ele>
        <time>2020-08-07T17:00:25Z</time>
      </trkpt>
      <trkpt lat="41.0593470" lon="0.5629860">
        <ele>157.5</ele>
        <time>2020-08-07T17:00:27Z</time>
      </trkpt>
      <trkpt lat="41.0593710" lon="0.5630160">
        <ele>157.4</ele>
        <time>2020-08-07T17:00:28Z</time>
      </trkpt>
      <trkpt lat="41.0593960" lon="0.5630440">
        <ele>157.4</ele>
        <time>2020-08-07T17:00:29Z</time>
      </trkpt>
      <trkpt lat="41.0594190" lon="0.5630740">
        <ele>157.4</ele>
        <time>2020-08-07T17:00:30Z</time>
      </trkpt>
      <trkpt lat="41.0594600" lon="0.5631240">
        <ele>157.4</ele>
        <time>2020-08-07T17:00:32Z</time>
      </trkpt>
      <trkpt lat="41.0595190" lon="0.5631910">
        <ele>157.4</ele>
        <time>2020-08-07T17:00:34Z</time>
      </trkpt>
      <trkpt lat="41.0595480" lon="0.5632220">
        <ele>157.3</ele>
        <time>2020-08-07T17:00:35Z</time>
      </trkpt>
      <trkpt lat="41.0595760" lon="0.5632530">
        <ele>157.3</ele>
        <time>2020-08-07T17:00:36Z</time>
      </trkpt>
      <trkpt lat="41.0596290" lon="0.5633010">
        <ele>157.3</ele>
        <time>2020-08-07T17:00:38Z</time>
      </trkpt>
      <trkpt lat="41.0596540" lon="0.5633200">
        <ele>157.2</ele>
        <time>2020-08-07T17:00:39Z</time>
      </trkpt>
      <trkpt lat="41.0596880" lon="0.5633460">
        <ele>157.2</ele>
        <time>2020-08-07T17:00:40Z</time>
      </trkpt>
      <trkpt lat="41.0597570" lon="0.5633920">
        <ele>157.1</ele>
        <time>2020-08-07T17:00:42Z</time>
      </trkpt>
      <trkpt lat="41.0598260" lon="0.5634330">
        <ele>157.0</ele>
        <time>2020-08-07T17:00:44Z</time>
      </trkpt>
      <trkpt lat="41.0598940" lon="0.5634700">
        <ele>156.9</ele>
        <time>2020-08-07T17:00:46Z</time>
      </trkpt>
      <trkpt lat="41.0599610" lon="0.5635060">
        <ele>156.8</ele>
        <time>2020-08-07T17:00:48Z</time>
      </trkpt>
      <trkpt lat="41.0599940" lon="0.5635260">
        <ele>156.8</ele>
        <time>2020-08-07T17:00:49Z</time>
      </trkpt>
      <trkpt lat="41.0600240" lon="0.5635450">
        <ele>156.7</ele>
        <time>2020-08-07T17:00:50Z</time>
      </trkpt>
      <trkpt lat="41.0600890" lon="0.5635900">
        <ele>156.6</ele>
        <time>2020-08-07T17:00:52Z</time>
      </trkpt>
      <trkpt lat="41.0601470" lon="0.5636750">
        <ele>156.4</ele>
        <time>2020-08-07T17:00:54Z</time>
      </trkpt>
      <trkpt lat="41.0601770" lon="0.5637780">
        <ele>156.1</ele>
        <time>2020-08-07T17:00:56Z</time>
      </trkpt>
      <trkpt lat="41.0601810" lon="0.5638350">
        <ele>155.9</ele>
        <time>2020-08-07T17:00:57Z</time>
      </trkpt>
      <trkpt lat="41.0601660" lon="0.5638980">
        <ele>155.6</ele>
        <time>2020-08-07T17:00:58Z</time>
      </trkpt>
      <trkpt lat="41.0601210" lon="0.5640380">
        <ele>155.1</ele>
        <time>2020-08-07T17:01:00Z</time>
      </trkpt>
      <trkpt lat="41.0600910" lon="0.5641820">
        <ele>154.4</ele>
        <time>2020-08-07T17:01:02Z</time>
      </trkpt>
      <trkpt lat="41.0600710" lon="0.5643240">
        <ele>153.9</ele>
        <time>2020-08-07T17:01:04Z</time>
      </trkpt>
      <trkpt lat="41.0600650" lon="0.5643980">
        <ele>153.6</ele>
        <time>2020-08-07T17:01:05Z</time>
      </trkpt>
      <trkpt lat="41.0600710" lon="0.5645520">
        <ele>153.1</ele>
        <time>2020-08-07T17:01:07Z</time>
      </trkpt>
      <trkpt lat="41.0600820" lon="0.5646260">
        <ele>152.8</ele>
        <time>2020-08-07T17:01:08Z</time>
      </trkpt>
      <trkpt lat="41.0600990" lon="0.5647780">
        <ele>152.3</ele>
        <time>2020-08-07T17:01:10Z</time>
      </trkpt>
      <trkpt lat="41.0601100" lon="0.5648530">
        <ele>152.1</ele>
        <time>2020-08-07T17:01:11Z</time>
      </trkpt>
      <trkpt lat="41.0601200" lon="0.5649320">
        <ele>151.8</ele>
        <time>2020-08-07T17:01:12Z</time>
      </trkpt>
      <trkpt lat="41.0601680" lon="0.5650790">
        <ele>151.5</ele>
        <time>2020-08-07T17:01:14Z</time>
      </trkpt>
      <trkpt lat="41.0601940" lon="0.5651500">
        <ele>151.4</ele>
        <time>2020-08-07T17:01:15Z</time>
      </trkpt>
      <trkpt lat="41.0602120" lon="0.5652250">
        <ele>151.3</ele>
        <time>2020-08-07T17:01:16Z</time>
      </trkpt>
      <trkpt lat="41.0602340" lon="0.5653940">
        <ele>151.1</ele>
        <time>2020-08-07T17:01:18Z</time>
      </trkpt>
      <trkpt lat="41.0602230" lon="0.5654790">
        <ele>151.0</ele>
        <time>2020-08-07T17:01:19Z</time>
      </trkpt>
      <trkpt lat="41.0601870" lon="0.5656310">
        <ele>150.9</ele>
        <time>2020-08-07T17:01:21Z</time>
      </trkpt>
      <trkpt lat="41.0601610" lon="0.5656990">
        <ele>150.9</ele>
        <time>2020-08-07T17:01:22Z</time>
      </trkpt>
      <trkpt lat="41.0601440" lon="0.5657610">
        <ele>150.8</ele>
        <time>2020-08-07T17:01:23Z</time>
      </trkpt>
      <trkpt lat="41.0601070" lon="0.5658810">
        <ele>150.7</ele>
        <time>2020-08-07T17:01:25Z</time>
      </trkpt>
      <trkpt lat="41.0600910" lon="0.5659410">
        <ele>150.6</ele>
        <time>2020-08-07T17:01:26Z</time>
      </trkpt>
      <trkpt lat="41.0600720" lon="0.5660000">
        <ele>150.5</ele>
        <time>2020-08-07T17:01:27Z</time>
      </trkpt>
      <trkpt lat="41.0600570" lon="0.5660530">
        <ele>150.5</ele>
        <time>2020-08-07T17:01:28Z</time>
      </trkpt>
      <trkpt lat="41.0600380" lon="0.5661110">
        <ele>150.4</ele>
        <time>2020-08-07T17:01:29Z</time>
      </trkpt>
      <trkpt lat="41.0600270" lon="0.5661650">
        <ele>150.3</ele>
        <time>2020-08-07T17:01:30Z</time>
      </trkpt>
      <trkpt lat="41.0600020" lon="0.5662650">
        <ele>150.1</ele>
        <time>2020-08-07T17:01:32Z</time>
      </trkpt>
      <trkpt lat="41.0599840" lon="0.5663260">
        <ele>150.0</ele>
        <time>2020-08-07T17:01:33Z</time>
      </trkpt>
      <trkpt lat="41.0599530" lon="0.5664360">
        <ele>149.7</ele>
        <time>2020-08-07T17:01:35Z</time>
      </trkpt>
      <trkpt lat="41.0599140" lon="0.5665500">
        <ele>149.3</ele>
        <time>2020-08-07T17:01:37Z</time>
      </trkpt>
      <trkpt lat="41.0598920" lon="0.5666130">
        <ele>149.1</ele>
        <time>2020-08-07T17:01:38Z</time>
      </trkpt>
      <trkpt lat="41.0598710" lon="0.5666770">
        <ele>148.9</ele>
        <time>2020-08-07T17:01:39Z</time>
      </trkpt>
      <trkpt lat="41.0598490" lon="0.5667390">
        <ele>148.7</ele>
        <time>2020-08-07T17:01:40Z</time>
      </trkpt>
      <trkpt lat="41.0598280" lon="0.5668070">
        <ele>148.4</ele>
        <time>2020-08-07T17:01:41Z</time>
      </trkpt>
      <trkpt lat="41.0598000" lon="0.5669420">
        <ele>147.9</ele>
        <time>2020-08-07T17:01:43Z</time>
      </trkpt>
      <trkpt lat="41.0597830" lon="0.5670150">
        <ele>147.6</ele>
        <time>2020-08-07T17:01:44Z</time>
      </trkpt>
      <trkpt lat="41.0597440" lon="0.5671540">
        <ele>147.1</ele>
        <time>2020-08-07T17:01:46Z</time>
      </trkpt>
      <trkpt lat="41.0597250" lon="0.5672210">
        <ele>146.8</ele>
        <time>2020-08-07T17:01:47Z</time>
      </trkpt>
      <trkpt lat="41.0596980" lon="0.5673540">
        <ele>146.3</ele>
        <time>2020-08-07T17:01:49Z</time>
      </trkpt>
      <trkpt lat="41.0596840" lon="0.5674170">
        <ele>146.1</ele>
        <time>2020-08-07T17:01:50Z</time>
      </trkpt>
      <trkpt lat="41.0596760" lon="0.5674860">
        <ele>145.8</ele>
        <time>2020-08-07T17:01:51Z</time>
      </trkpt>
      <trkpt lat="41.0596600" lon="0.5676360">
        <ele>145.3</ele>
        <time>2020-08-07T17:01:53Z</time>
      </trkpt>
      <trkpt lat="41.0596490" lon="0.5677200">
        <ele>145.0</ele>
        <time>2020-08-07T17:01:54Z</time>
      </trkpt>
      <trkpt lat="41.0596230" lon="0.5678040">
        <ele>144.6</ele>
        <time>2020-08-07T17:01:55Z</time>
      </trkpt>
      <trkpt lat="41.0595950" lon="0.5678800">
        <ele>144.3</ele>
        <time>2020-08-07T17:01:56Z</time>
      </trkpt>
      <trkpt lat="41.0595210" lon="0.5680160">
        <ele>143.7</ele>
        <time>2020-08-07T17:01:58Z</time>
      </trkpt>
      <trkpt lat="41.0594750" lon="0.5680820">
        <ele>143.5</ele>
        <time>2020-08-07T17:01:59Z</time>
      </trkpt>
      <trkpt lat="41.0594290" lon="0.5681450">
        <ele>143.2</ele>
        <time>2020-08-07T17:02:00Z</time>
      </trkpt>
      <trkpt lat="41.0593380" lon="0.5682720">
        <ele>142.6</ele>
        <time>2020-08-07T17:02:02Z</time>
      </trkpt>
      <trkpt lat="41.0592480" lon="0.5684130">
        <ele>142.1</ele>
        <time>2020-08-07T17:02:04Z</time>
      </trkpt>
      <trkpt lat="41.0592090" lon="0.5684850">
        <ele>141.8</ele>
        <time>2020-08-07T17:02:05Z</time>
      </trkpt>
      <trkpt lat="41.0591680" lon="0.5685550">
        <ele>141.6</ele>
        <time>2020-08-07T17:02:06Z</time>
      </trkpt>
      <trkpt lat="41.0591300" lon="0.5686290">
        <ele>141.4</ele>
        <time>2020-08-07T17:02:07Z</time>
      </trkpt>
      <trkpt lat="41.0590600" lon="0.5687850">
        <ele>141.0</ele>
        <time>2020-08-07T17:02:09Z</time>
      </trkpt>
      <trkpt lat="41.0590270" lon="0.5688580">
        <ele>140.8</ele>
        <time>2020-08-07T17:02:10Z</time>
      </trkpt>
      <trkpt lat="41.0589930" lon="0.5689260">
        <ele>140.7</ele>
        <time>2020-08-07T17:02:11Z</time>
      </trkpt>
      <trkpt lat="41.0589530" lon="0.5689860">
        <ele>140.6</ele>
        <time>2020-08-07T17:02:12Z</time>
      </trkpt>
      <trkpt lat="41.0589090" lon="0.5690400">
        <ele>140.4</ele>
        <time>2020-08-07T17:02:13Z</time>
      </trkpt>
      <trkpt lat="41.0588100" lon="0.5691410">
        <ele>140.2</ele>
        <time>2020-08-07T17:02:15Z</time>
      </trkpt>
      <trkpt lat="41.0587610" lon="0.5691830">
        <ele>140.0</ele>
        <time>2020-08-07T17:02:16Z</time>
      </trkpt>
      <trkpt lat="41.0586650" lon="0.5692660">
        <ele>139.8</ele>
        <time>2020-08-07T17:02:18Z</time>
      </trkpt>
      <trkpt lat="41.0584280" lon="0.5695680">
        <ele>139.2</ele>
        <time>2020-08-07T17:02:24Z</time>
      </trkpt>
      <trkpt lat="41.0583570" lon="0.5696720">
        <ele>139.0</ele>
        <time>2020-08-07T17:02:26Z</time>
      </trkpt>
      <trkpt lat="41.0583280" lon="0.5697270">
        <ele>138.9</ele>
        <time>2020-08-07T17:02:27Z</time>
      </trkpt>
      <trkpt lat="41.0582630" lon="0.5698290">
        <ele>138.6</ele>
        <time>2020-08-07T17:02:29Z</time>
      </trkpt>
      <trkpt lat="41.0581940" lon="0.5699300">
        <ele>138.4</ele>
        <time>2020-08-07T17:02:31Z</time>
      </trkpt>
      <trkpt lat="41.0581230" lon="0.5700340">
        <ele>138.1</ele>
        <time>2020-08-07T17:02:33Z</time>
      </trkpt>
      <trkpt lat="41.0580590" lon="0.5701190">
        <ele>137.8</ele>
        <time>2020-08-07T17:02:35Z</time>
      </trkpt>
      <trkpt lat="41.0580110" lon="0.5701740">
        <ele>137.6</ele>
        <time>2020-08-07T17:02:37Z</time>
      </trkpt>
      <trkpt lat="41.0580110" lon="0.5701840">
        <ele>137.6</ele>
        <time>2020-08-07T17:02:40Z</time>
      </trkpt>
      <trkpt lat="41.0580140" lon="0.5701820">
        <ele>137.6</ele>
        <time>2020-08-07T17:02:41Z</time>
      </trkpt>
      <trkpt lat="41.0580160" lon="0.5701800">
        <ele>137.6</ele>
        <time>2020-08-07T17:02:42Z</time>
      </trkpt>
      <trkpt lat="41.0580150" lon="0.5701790">
        <ele>137.6</ele>
        <time>2020-08-07T17:02:44Z</time>
      </trkpt>
      <trkpt lat="41.0580150" lon="0.5701820">
        <ele>137.6</ele>
        <time>2020-08-07T17:02:45Z</time>
      </trkpt>
      <trkpt lat="41.0580120" lon="0.5701840">
        <ele>137.6</ele>
        <time>2020-08-07T17:02:47Z</time>
      </trkpt>
      <trkpt lat="41.0579990" lon="0.5702240">
        <ele>137.5</ele>
        <time>2020-08-07T17:03:06Z</time>
      </trkpt>
      <trkpt lat="41.0579650" lon="0.5702700">
        <ele>137.3</ele>
        <time>2020-08-07T17:03:08Z</time>
      </trkpt>
      <trkpt lat="41.0579310" lon="0.5703310">
        <ele>137.1</ele>
        <time>2020-08-07T17:03:10Z</time>
      </trkpt>
      <trkpt lat="41.0579130" lon="0.5703650">
        <ele>137.1</ele>
        <time>2020-08-07T17:03:11Z</time>
      </trkpt>
      <trkpt lat="41.0578880" lon="0.5704030">
        <ele>136.9</ele>
        <time>2020-08-07T17:03:12Z</time>
      </trkpt>
      <trkpt lat="41.0578520" lon="0.5704540">
        <ele>136.7</ele>
        <time>2020-08-07T17:03:13Z</time>
      </trkpt>
      <trkpt lat="41.0577900" lon="0.5705570">
        <ele>136.4</ele>
        <time>2020-08-07T17:03:15Z</time>
      </trkpt>
      <trkpt lat="41.0577210" lon="0.5706670">
        <ele>136.0</ele>
        <time>2020-08-07T17:03:17Z</time>
      </trkpt>
      <trkpt lat="41.0576900" lon="0.5707240">
        <ele>135.8</ele>
        <time>2020-08-07T17:03:18Z</time>
      </trkpt>
      <trkpt lat="41.0576610" lon="0.5707860">
        <ele>135.6</ele>
        <time>2020-08-07T17:03:19Z</time>
      </trkpt>
      <trkpt lat="41.0576170" lon="0.5709210">
        <ele>135.2</ele>
        <time>2020-08-07T17:03:21Z</time>
      </trkpt>
      <trkpt lat="41.0575960" lon="0.5709930">
        <ele>134.9</ele>
        <time>2020-08-07T17:03:22Z</time>
      </trkpt>
      <trkpt lat="41.0575780" lon="0.5710660">
        <ele>134.7</ele>
        <time>2020-08-07T17:03:23Z</time>
      </trkpt>
      <trkpt lat="41.0575590" lon="0.5711530">
        <ele>134.4</ele>
        <time>2020-08-07T17:03:24Z</time>
      </trkpt>
      <trkpt lat="41.0575200" lon="0.5713180">
        <ele>133.8</ele>
        <time>2020-08-07T17:03:26Z</time>
      </trkpt>
      <trkpt lat="41.0574980" lon="0.5714000">
        <ele>133.5</ele>
        <time>2020-08-07T17:03:27Z</time>
      </trkpt>
      <trkpt lat="41.0574760" lon="0.5715630">
        <ele>132.9</ele>
        <time>2020-08-07T17:03:29Z</time>
      </trkpt>
      <trkpt lat="41.0574660" lon="0.5717410">
        <ele>132.3</ele>
        <time>2020-08-07T17:03:31Z</time>
      </trkpt>
      <trkpt lat="41.0574670" lon="0.5718280">
        <ele>132.0</ele>
        <time>2020-08-07T17:03:32Z</time>
      </trkpt>
      <trkpt lat="41.0574840" lon="0.5719930">
        <ele>131.4</ele>
        <time>2020-08-07T17:03:33Z</time>
      </trkpt>
      <trkpt lat="41.0574910" lon="0.5720750">
        <ele>131.1</ele>
        <time>2020-08-07T17:03:35Z</time>
      </trkpt>
      <trkpt lat="41.0575070" lon="0.5722590">
        <ele>130.4</ele>
        <time>2020-08-07T17:03:37Z</time>
      </trkpt>
      <trkpt lat="41.0575170" lon="0.5723570">
        <ele>130.0</ele>
        <time>2020-08-07T17:03:38Z</time>
      </trkpt>
      <trkpt lat="41.0575300" lon="0.5724550">
        <ele>129.7</ele>
        <time>2020-08-07T17:03:39Z</time>
      </trkpt>
      <trkpt lat="41.0575360" lon="0.5725560">
        <ele>129.3</ele>
        <time>2020-08-07T17:03:40Z</time>
      </trkpt>
      <trkpt lat="41.0575430" lon="0.5726540">
        <ele>128.9</ele>
        <time>2020-08-07T17:03:41Z</time>
      </trkpt>
      <trkpt lat="41.0575610" lon="0.5728520">
        <ele>128.0</ele>
        <time>2020-08-07T17:03:43Z</time>
      </trkpt>
      <trkpt lat="41.0575600" lon="0.5729550">
        <ele>127.6</ele>
        <time>2020-08-07T17:03:44Z</time>
      </trkpt>
      <trkpt lat="41.0575170" lon="0.5731490">
        <ele>126.9</ele>
        <time>2020-08-07T17:03:46Z</time>
      </trkpt>
      <trkpt lat="41.0574760" lon="0.5733320">
        <ele>126.4</ele>
        <time>2020-08-07T17:03:48Z</time>
      </trkpt>
      <trkpt lat="41.0574650" lon="0.5734180">
        <ele>126.2</ele>
        <time>2020-08-07T17:03:49Z</time>
      </trkpt>
      <trkpt lat="41.0574370" lon="0.5736000">
        <ele>125.5</ele>
        <time>2020-08-07T17:03:51Z</time>
      </trkpt>
      <trkpt lat="41.0574160" lon="0.5737000">
        <ele>125.2</ele>
        <time>2020-08-07T17:03:52Z</time>
      </trkpt>
      <trkpt lat="41.0574000" lon="0.5737970">
        <ele>124.8</ele>
        <time>2020-08-07T17:03:53Z</time>
      </trkpt>
      <trkpt lat="41.0573830" lon="0.5740020">
        <ele>124.0</ele>
        <time>2020-08-07T17:03:55Z</time>
      </trkpt>
      <trkpt lat="41.0573600" lon="0.5741990">
        <ele>123.3</ele>
        <time>2020-08-07T17:03:57Z</time>
      </trkpt>
      <trkpt lat="41.0573510" lon="0.5743020">
        <ele>122.8</ele>
        <time>2020-08-07T17:03:58Z</time>
      </trkpt>
      <trkpt lat="41.0573290" lon="0.5745000">
        <ele>122.0</ele>
        <time>2020-08-07T17:04:00Z</time>
      </trkpt>
      <trkpt lat="41.0573220" lon="0.5747140">
        <ele>121.2</ele>
        <time>2020-08-07T17:04:02Z</time>
      </trkpt>
      <trkpt lat="41.0573230" lon="0.5748240">
        <ele>120.8</ele>
        <time>2020-08-07T17:04:03Z</time>
      </trkpt>
      <trkpt lat="41.0573170" lon="0.5750400">
        <ele>119.9</ele>
        <time>2020-08-07T17:04:05Z</time>
      </trkpt>
      <trkpt lat="41.0573130" lon="0.5751470">
        <ele>119.5</ele>
        <time>2020-08-07T17:04:06Z</time>
      </trkpt>
      <trkpt lat="41.0573190" lon="0.5753480">
        <ele>118.6</ele>
        <time>2020-08-07T17:04:08Z</time>
      </trkpt>
      <trkpt lat="41.0573830" lon="0.5755290">
        <ele>117.8</ele>
        <time>2020-08-07T17:04:10Z</time>
      </trkpt>
      <trkpt lat="41.0574800" lon="0.5756700">
        <ele>117.0</ele>
        <time>2020-08-07T17:04:12Z</time>
      </trkpt>
      <trkpt lat="41.0575400" lon="0.5757210">
        <ele>116.5</ele>
        <time>2020-08-07T17:04:13Z</time>
      </trkpt>
      <trkpt lat="41.0577060" lon="0.5757880">
        <ele>115.4</ele>
        <time>2020-08-07T17:04:15Z</time>
      </trkpt>
      <trkpt lat="41.0578770" lon="0.5758610">
        <ele>114.3</ele>
        <time>2020-08-07T17:04:17Z</time>
      </trkpt>
      <trkpt lat="41.0579560" lon="0.5758960">
        <ele>113.9</ele>
        <time>2020-08-07T17:04:18Z</time>
      </trkpt>
      <trkpt lat="41.0580320" lon="0.5759460">
        <ele>113.4</ele>
        <time>2020-08-07T17:04:19Z</time>
      </trkpt>
      <trkpt lat="41.0581610" lon="0.5760840">
        <ele>112.7</ele>
        <time>2020-08-07T17:04:21Z</time>
      </trkpt>
      <trkpt lat="41.0582240" lon="0.5762730">
        <ele>112.0</ele>
        <time>2020-08-07T17:04:23Z</time>
      </trkpt>
      <trkpt lat="41.0582230" lon="0.5763760">
        <ele>111.7</ele>
        <time>2020-08-07T17:04:24Z</time>
      </trkpt>
      <trkpt lat="41.0582040" lon="0.5764770">
        <ele>111.3</ele>
        <time>2020-08-07T17:04:25Z</time>
      </trkpt>
      <trkpt lat="41.0581640" lon="0.5766840">
        <ele>110.6</ele>
        <time>2020-08-07T17:04:27Z</time>
      </trkpt>
      <trkpt lat="41.0581500" lon="0.5767800">
        <ele>110.4</ele>
        <time>2020-08-07T17:04:28Z</time>
      </trkpt>
      <trkpt lat="41.0581180" lon="0.5769680">
        <ele>109.8</ele>
        <time>2020-08-07T17:04:30Z</time>
      </trkpt>
      <trkpt lat="41.0580990" lon="0.5770620">
        <ele>109.6</ele>
        <time>2020-08-07T17:04:31Z</time>
      </trkpt>
      <trkpt lat="41.0580670" lon="0.5772430">
        <ele>109.2</ele>
        <time>2020-08-07T17:04:33Z</time>
      </trkpt>
      <trkpt lat="41.0580590" lon="0.5773310">
        <ele>109.0</ele>
        <time>2020-08-07T17:04:34Z</time>
      </trkpt>
      <trkpt lat="41.0580520" lon="0.5774220">
        <ele>108.8</ele>
        <time>2020-08-07T17:04:35Z</time>
      </trkpt>
      <trkpt lat="41.0580390" lon="0.5775870">
        <ele>108.4</ele>
        <time>2020-08-07T17:04:37Z</time>
      </trkpt>
      <trkpt lat="41.0580330" lon="0.5776640">
        <ele>108.3</ele>
        <time>2020-08-07T17:04:38Z</time>
      </trkpt>
      <trkpt lat="41.0580290" lon="0.5777450">
        <ele>108.1</ele>
        <time>2020-08-07T17:04:39Z</time>
      </trkpt>
      <trkpt lat="41.0580300" lon="0.5779110">
        <ele>107.8</ele>
        <time>2020-08-07T17:04:41Z</time>
      </trkpt>
      <trkpt lat="41.0580260" lon="0.5780650">
        <ele>107.5</ele>
        <time>2020-08-07T17:04:43Z</time>
      </trkpt>
      <trkpt lat="41.0580260" lon="0.5782180">
        <ele>107.3</ele>
        <time>2020-08-07T17:04:45Z</time>
      </trkpt>
      <trkpt lat="41.0580270" lon="0.5782970">
        <ele>107.1</ele>
        <time>2020-08-07T17:04:46Z</time>
      </trkpt>
      <trkpt lat="41.0580290" lon="0.5783600">
        <ele>107.0</ele>
        <time>2020-08-07T17:04:47Z</time>
      </trkpt>
      <trkpt lat="41.0580460" lon="0.5784960">
        <ele>106.8</ele>
        <time>2020-08-07T17:04:49Z</time>
      </trkpt>
      <trkpt lat="41.0580560" lon="0.5785700">
        <ele>106.7</ele>
        <time>2020-08-07T17:04:50Z</time>
      </trkpt>
      <trkpt lat="41.0580800" lon="0.5787090">
        <ele>106.5</ele>
        <time>2020-08-07T17:04:52Z</time>
      </trkpt>
      <trkpt lat="41.0580900" lon="0.5787850">
        <ele>106.5</ele>
        <time>2020-08-07T17:04:53Z</time>
      </trkpt>
      <trkpt lat="41.0581000" lon="0.5788580">
        <ele>106.4</ele>
        <time>2020-08-07T17:04:54Z</time>
      </trkpt>
      <trkpt lat="41.0581160" lon="0.5789990">
        <ele>106.1</ele>
        <time>2020-08-07T17:04:56Z</time>
      </trkpt>
      <trkpt lat="41.0581240" lon="0.5790710">
        <ele>106.0</ele>
        <time>2020-08-07T17:04:57Z</time>
      </trkpt>
      <trkpt lat="41.0581470" lon="0.5792200">
        <ele>105.9</ele>
        <time>2020-08-07T17:04:59Z</time>
      </trkpt>
      <trkpt lat="41.0581650" lon="0.5792950">
        <ele>105.8</ele>
        <time>2020-08-07T17:05:00Z</time>
      </trkpt>
      <trkpt lat="41.0581760" lon="0.5793670">
        <ele>105.8</ele>
        <time>2020-08-07T17:05:01Z</time>
      </trkpt>
      <trkpt lat="41.0581940" lon="0.5795030">
        <ele>105.6</ele>
        <time>2020-08-07T17:05:03Z</time>
      </trkpt>
      <trkpt lat="41.0582040" lon="0.5795690">
        <ele>105.5</ele>
        <time>2020-08-07T17:05:04Z</time>
      </trkpt>
      <trkpt lat="41.0582240" lon="0.5796280">
        <ele>105.5</ele>
        <time>2020-08-07T17:05:05Z</time>
      </trkpt>
      <trkpt lat="41.0583000" lon="0.5797420">
        <ele>105.4</ele>
        <time>2020-08-07T17:05:07Z</time>
      </trkpt>
      <trkpt lat="41.0583720" lon="0.5798020">
        <ele>105.3</ele>
        <time>2020-08-07T17:05:09Z</time>
      </trkpt>
      <trkpt lat="41.0584060" lon="0.5798140">
        <ele>105.3</ele>
        <time>2020-08-07T17:05:10Z</time>
      </trkpt>
      <trkpt lat="41.0584760" lon="0.5798530">
        <ele>105.2</ele>
        <time>2020-08-07T17:05:12Z</time>
      </trkpt>
      <trkpt lat="41.0585150" lon="0.5798790">
        <ele>105.1</ele>
        <time>2020-08-07T17:05:13Z</time>
      </trkpt>
      <trkpt lat="41.0585850" lon="0.5799330">
        <ele>104.9</ele>
        <time>2020-08-07T17:05:15Z</time>
      </trkpt>
      <trkpt lat="41.0586360" lon="0.5799750">
        <ele>104.8</ele>
        <time>2020-08-07T17:05:16Z</time>
      </trkpt>
      <trkpt lat="41.0586790" lon="0.5800130">
        <ele>104.7</ele>
        <time>2020-08-07T17:05:17Z</time>
      </trkpt>
      <trkpt lat="41.0587550" lon="0.5800860">
        <ele>104.5</ele>
        <time>2020-08-07T17:05:19Z</time>
      </trkpt>
      <trkpt lat="41.0587910" lon="0.5801330">
        <ele>104.4</ele>
        <time>2020-08-07T17:05:20Z</time>
      </trkpt>
      <trkpt lat="41.0588400" lon="0.5802490">
        <ele>104.4</ele>
        <time>2020-08-07T17:05:22Z</time>
      </trkpt>
      <trkpt lat="41.0587690" lon="0.5807560">
        <ele>103.8</ele>
        <time>2020-08-07T17:05:30Z</time>
      </trkpt>
      <trkpt lat="41.0587290" lon="0.5808760">
        <ele>103.7</ele>
        <time>2020-08-07T17:05:32Z</time>
      </trkpt>
      <trkpt lat="41.0586930" lon="0.5809990">
        <ele>103.5</ele>
        <time>2020-08-07T17:05:34Z</time>
      </trkpt>
      <trkpt lat="41.0586760" lon="0.5810610">
        <ele>103.4</ele>
        <time>2020-08-07T17:05:35Z</time>
      </trkpt>
      <trkpt lat="41.0586290" lon="0.5812460">
        <ele>103.1</ele>
        <time>2020-08-07T17:05:38Z</time>
      </trkpt>
      <trkpt lat="41.0586140" lon="0.5813120">
        <ele>103.0</ele>
        <time>2020-08-07T17:05:39Z</time>
      </trkpt>
      <trkpt lat="41.0585720" lon="0.5814360">
        <ele>102.9</ele>
        <time>2020-08-07T17:05:41Z</time>
      </trkpt>
      <trkpt lat="41.0585420" lon="0.5814940">
        <ele>102.8</ele>
        <time>2020-08-07T17:05:42Z</time>
      </trkpt>
      <trkpt lat="41.0584720" lon="0.5816550">
        <ele>102.5</ele>
        <time>2020-08-07T17:05:45Z</time>
      </trkpt>
      <trkpt lat="41.0584530" lon="0.5816960">
        <ele>102.5</ele>
        <time>2020-08-07T17:05:46Z</time>
      </trkpt>
      <trkpt lat="41.0584280" lon="0.5817390">
        <ele>102.4</ele>
        <time>2020-08-07T17:05:47Z</time>
      </trkpt>
      <trkpt lat="41.0584070" lon="0.5817770">
        <ele>102.3</ele>
        <time>2020-08-07T17:05:48Z</time>
      </trkpt>
      <trkpt lat="41.0583550" lon="0.5818650">
        <ele>102.1</ele>
        <time>2020-08-07T17:05:50Z</time>
      </trkpt>
      <trkpt lat="41.0583240" lon="0.5819220">
        <ele>101.9</ele>
        <time>2020-08-07T17:05:51Z</time>
      </trkpt>
      <trkpt lat="41.0582730" lon="0.5820080">
        <ele>101.7</ele>
        <time>2020-08-07T17:05:53Z</time>
      </trkpt>
      <trkpt lat="41.0582430" lon="0.5820600">
        <ele>101.6</ele>
        <time>2020-08-07T17:05:54Z</time>
      </trkpt>
      <trkpt lat="41.0581900" lon="0.5821600">
        <ele>101.4</ele>
        <time>2020-08-07T17:05:56Z</time>
      </trkpt>
      <trkpt lat="41.0581630" lon="0.5822040">
        <ele>101.2</ele>
        <time>2020-08-07T17:05:57Z</time>
      </trkpt>
      <trkpt lat="41.0581200" lon="0.5822720">
        <ele>101.0</ele>
        <time>2020-08-07T17:05:59Z</time>
      </trkpt>
      <trkpt lat="41.0581050" lon="0.5822950">
        <ele>101.0</ele>
        <time>2020-08-07T17:06:00Z</time>
      </trkpt>
      <trkpt lat="41.0581040" lon="0.5822950">
        <ele>101.0</ele>
        <time>2020-08-07T17:06:01Z</time>
      </trkpt>
      <trkpt lat="41.0581080" lon="0.5822880">
        <ele>101.0</ele>
        <time>2020-08-07T17:06:03Z</time>
      </trkpt>
      <trkpt lat="41.0581080" lon="0.5822810">
        <ele>101.0</ele>
        <time>2020-08-07T17:06:05Z</time>
      </trkpt>
      <trkpt lat="41.0581140" lon="0.5822620">
        <ele>100.9</ele>
        <time>2020-08-07T17:06:07Z</time>
      </trkpt>
      <trkpt lat="41.0581160" lon="0.5822530">
        <ele>100.9</ele>
        <time>2020-08-07T17:06:09Z</time>
      </trkpt>
      <trkpt lat="41.0581170" lon="0.5822500">
        <ele>100.9</ele>
        <time>2020-08-07T17:06:10Z</time>
      </trkpt>
      <trkpt lat="41.0581200" lon="0.5822500">
        <ele>100.9</ele>
        <time>2020-08-07T17:06:12Z</time>
      </trkpt>
      <trkpt lat="41.0581210" lon="0.5822520">
        <ele>100.9</ele>
        <time>2020-08-07T17:06:13Z</time>
      </trkpt>
      <trkpt lat="41.0581210" lon="0.5822540">
        <ele>100.9</ele>
        <time>2020-08-07T17:06:14Z</time>
      </trkpt>
      <trkpt lat="41.0581200" lon="0.5822550">
        <ele>100.9</ele>
        <time>2020-08-07T17:06:16Z</time>
      </trkpt>
      <trkpt lat="41.0581200" lon="0.5822550">
        <ele>100.9</ele>
        <time>2020-08-07T17:06:17Z</time>
      </trkpt>
      <trkpt lat="41.0581200" lon="0.5822550">
        <ele>100.9</ele>
        <time>2020-08-07T17:06:18Z</time>
      </trkpt>
      <trkpt lat="41.0581200" lon="0.5822560">
        <ele>100.9</ele>
        <time>2020-08-07T17:06:19Z</time>
      </trkpt>
      <trkpt lat="41.0581200" lon="0.5822550">
        <ele>100.9</ele>
        <time>2020-08-07T17:06:20Z</time>
      </trkpt>
      <trkpt lat="41.0580850" lon="0.5823320">
        <ele>100.7</ele>
        <time>2020-08-07T17:07:10Z</time>
      </trkpt>
      <trkpt lat="41.0580670" lon="0.5823600">
        <ele>100.6</ele>
        <time>2020-08-07T17:07:11Z</time>
      </trkpt>
      <trkpt lat="41.0580270" lon="0.5824280">
        <ele>100.5</ele>
        <time>2020-08-07T17:07:13Z</time>
      </trkpt>
      <trkpt lat="41.0580020" lon="0.5824710">
        <ele>100.3</ele>
        <time>2020-08-07T17:07:14Z</time>
      </trkpt>
      <trkpt lat="41.0579500" lon="0.5825560">
        <ele>100.1</ele>
        <time>2020-08-07T17:07:16Z</time>
      </trkpt>
      <trkpt lat="41.0578990" lon="0.5826380">
        <ele>99.8</ele>
        <time>2020-08-07T17:07:18Z</time>
      </trkpt>
      <trkpt lat="41.0578800" lon="0.5826710">
        <ele>99.7</ele>
        <time>2020-08-07T17:07:19Z</time>
      </trkpt>
      <trkpt lat="41.0578380" lon="0.5827510">
        <ele>99.4</ele>
        <time>2020-08-07T17:07:21Z</time>
      </trkpt>
      <trkpt lat="41.0577820" lon="0.5828500">
        <ele>99.1</ele>
        <time>2020-08-07T17:07:23Z</time>
      </trkpt>
      <trkpt lat="41.0577300" lon="0.5829390">
        <ele>98.9</ele>
        <time>2020-08-07T17:07:25Z</time>
      </trkpt>
      <trkpt lat="41.0576980" lon="0.5829980">
        <ele>98.7</ele>
        <time>2020-08-07T17:07:26Z</time>
      </trkpt>
      <trkpt lat="41.0576250" lon="0.5831130">
        <ele>98.4</ele>
        <time>2020-08-07T17:07:28Z</time>
      </trkpt>
      <trkpt lat="41.0575860" lon="0.5831750">
        <ele>98.2</ele>
        <time>2020-08-07T17:07:29Z</time>
      </trkpt>
      <trkpt lat="41.0575040" lon="0.5832920">
        <ele>97.7</ele>
        <time>2020-08-07T17:07:31Z</time>
      </trkpt>
      <trkpt lat="41.0574650" lon="0.5833540">
        <ele>97.5</ele>
        <time>2020-08-07T17:07:32Z</time>
      </trkpt>
      <trkpt lat="41.0574230" lon="0.5834100">
        <ele>97.3</ele>
        <time>2020-08-07T17:07:33Z</time>
      </trkpt>
      <trkpt lat="41.0573450" lon="0.5835180">
        <ele>96.9</ele>
        <time>2020-08-07T17:07:35Z</time>
      </trkpt>
      <trkpt lat="41.0573110" lon="0.5835860">
        <ele>96.7</ele>
        <time>2020-08-07T17:07:36Z</time>
      </trkpt>
      <trkpt lat="41.0572730" lon="0.5836510">
        <ele>96.5</ele>
        <time>2020-08-07T17:07:37Z</time>
      </trkpt>
      <trkpt lat="41.0571960" lon="0.5837700">
        <ele>96.1</ele>
        <time>2020-08-07T17:07:39Z</time>
      </trkpt>
      <trkpt lat="41.0571600" lon="0.5838280">
        <ele>95.9</ele>
        <time>2020-08-07T17:07:40Z</time>
      </trkpt>
      <trkpt lat="41.0570760" lon="0.5839520">
        <ele>95.6</ele>
        <time>2020-08-07T17:07:42Z</time>
      </trkpt>
      <trkpt lat="41.0569980" lon="0.5840740">
        <ele>95.2</ele>
        <time>2020-08-07T17:07:44Z</time>
      </trkpt>
      <trkpt lat="41.0569360" lon="0.5841920">
        <ele>94.8</ele>
        <time>2020-08-07T17:07:46Z</time>
      </trkpt>
      <trkpt lat="41.0569010" lon="0.5842490">
        <ele>94.6</ele>
        <time>2020-08-07T17:07:47Z</time>
      </trkpt>
      <trkpt lat="41.0568280" lon="0.5843710">
        <ele>94.3</ele>
        <time>2020-08-07T17:07:49Z</time>
      </trkpt>
      <trkpt lat="41.0567530" lon="0.5845050">
        <ele>93.6</ele>
        <time>2020-08-07T17:07:51Z</time>
      </trkpt>
      <trkpt lat="41.0567260" lon="0.5845730">
        <ele>93.4</ele>
        <time>2020-08-07T17:07:52Z</time>
      </trkpt>
      <trkpt lat="41.0566710" lon="0.5847040">
        <ele>93.0</ele>
        <time>2020-08-07T17:07:54Z</time>
      </trkpt>
      <trkpt lat="41.0566400" lon="0.5847720">
        <ele>92.8</ele>
        <time>2020-08-07T17:07:55Z</time>
      </trkpt>
      <trkpt lat="41.0565800" lon="0.5849050">
        <ele>92.5</ele>
        <time>2020-08-07T17:07:57Z</time>
      </trkpt>
      <trkpt lat="41.0565110" lon="0.5850450">
        <ele>92.2</ele>
        <time>2020-08-07T17:07:59Z</time>
      </trkpt>
      <trkpt lat="41.0564790" lon="0.5851070">
        <ele>92.1</ele>
        <time>2020-08-07T17:08:00Z</time>
      </trkpt>
      <trkpt lat="41.0564420" lon="0.5851640">
        <ele>92.0</ele>
        <time>2020-08-07T17:08:01Z</time>
      </trkpt>
      <trkpt lat="41.0560770" lon="0.5854810">
        <ele>91.4</ele>
        <time>2020-08-07T17:08:09Z</time>
      </trkpt>
      <trkpt lat="41.0559840" lon="0.5855620">
        <ele>91.3</ele>
        <time>2020-08-07T17:08:11Z</time>
      </trkpt>
      <trkpt lat="41.0559520" lon="0.5856170">
        <ele>91.3</ele>
        <time>2020-08-07T17:08:12Z</time>
      </trkpt>
      <trkpt lat="41.0558980" lon="0.5857260">
        <ele>91.2</ele>
        <time>2020-08-07T17:08:14Z</time>
      </trkpt>
      <trkpt lat="41.0558690" lon="0.5857850">
        <ele>91.2</ele>
        <time>2020-08-07T17:08:15Z</time>
      </trkpt>
      <trkpt lat="41.0558160" lon="0.5858950">
        <ele>91.1</ele>
        <time>2020-08-07T17:08:17Z</time>
      </trkpt>
      <trkpt lat="41.0557850" lon="0.5859530">
        <ele>91.1</ele>
        <time>2020-08-07T17:08:18Z</time>
      </trkpt>
      <trkpt lat="41.0557540" lon="0.5860100">
        <ele>91.0</ele>
        <time>2020-08-07T17:08:19Z</time>
      </trkpt>
      <trkpt lat="41.0557020" lon="0.5861060">
        <ele>90.9</ele>
        <time>2020-08-07T17:08:21Z</time>
      </trkpt>
      <trkpt lat="41.0556470" lon="0.5862270">
        <ele>90.7</ele>
        <time>2020-08-07T17:08:23Z</time>
      </trkpt>
      <trkpt lat="41.0555800" lon="0.5863420">
        <ele>90.5</ele>
        <time>2020-08-07T17:08:25Z</time>
      </trkpt>
      <trkpt lat="41.0555460" lon="0.5863930">
        <ele>90.5</ele>
        <time>2020-08-07T17:08:26Z</time>
      </trkpt>
      <trkpt lat="41.0554860" lon="0.5864970">
        <ele>90.4</ele>
        <time>2020-08-07T17:08:28Z</time>
      </trkpt>
      <trkpt lat="41.0554520" lon="0.5865510">
        <ele>90.3</ele>
        <time>2020-08-07T17:08:29Z</time>
      </trkpt>
      <trkpt lat="41.0553650" lon="0.5866390">
        <ele>90.2</ele>
        <time>2020-08-07T17:08:31Z</time>
      </trkpt>
      <trkpt lat="41.0552650" lon="0.5866450">
        <ele>89.9</ele>
        <time>2020-08-07T17:08:33Z</time>
      </trkpt>
      <trkpt lat="41.0552150" lon="0.5866320">
        <ele>89.8</ele>
        <time>2020-08-07T17:08:34Z</time>
      </trkpt>
      <trkpt lat="41.0551650" lon="0.5866060">
        <ele>89.6</ele>
        <time>2020-08-07T17:08:35Z</time>
      </trkpt>
      <trkpt lat="41.0551150" lon="0.5865670">
        <ele>89.4</ele>
        <time>2020-08-07T17:08:36Z</time>
      </trkpt>
      <trkpt lat="41.0550120" lon="0.5864900">
        <ele>88.9</ele>
        <time>2020-08-07T17:08:38Z</time>
      </trkpt>
      <trkpt lat="41.0548930" lon="0.5864290">
        <ele>88.3</ele>
        <time>2020-08-07T17:08:40Z</time>
      </trkpt>
      <trkpt lat="41.0548260" lon="0.5864060">
        <ele>87.9</ele>
        <time>2020-08-07T17:08:41Z</time>
      </trkpt>
      <trkpt lat="41.0547560" lon="0.5863790">
        <ele>87.7</ele>
        <time>2020-08-07T17:08:42Z</time>
      </trkpt>
      <trkpt lat="41.0546270" lon="0.5863720">
        <ele>87.4</ele>
        <time>2020-08-07T17:08:44Z</time>
      </trkpt>
      <trkpt lat="41.0545620" lon="0.5863730">
        <ele>87.3</ele>
        <time>2020-08-07T17:08:45Z</time>
      </trkpt>
      <trkpt lat="41.0544300" lon="0.5863580">
        <ele>86.9</ele>
        <time>2020-08-07T17:08:47Z</time>
      </trkpt>
      <trkpt lat="41.0542980" lon="0.5863540">
        <ele>86.7</ele>
        <time>2020-08-07T17:08:49Z</time>
      </trkpt>
      <trkpt lat="41.0542370" lon="0.5863500">
        <ele>86.5</ele>
        <time>2020-08-07T17:08:50Z</time>
      </trkpt>
      <trkpt lat="41.0541250" lon="0.5863490">
        <ele>86.3</ele>
        <time>2020-08-07T17:08:52Z</time>
      </trkpt>
      <trkpt lat="41.0540150" lon="0.5863520">
        <ele>86.0</ele>
        <time>2020-08-07T17:08:54Z</time>
      </trkpt>
      <trkpt lat="41.0539570" lon="0.5863710">
        <ele>85.9</ele>
        <time>2020-08-07T17:08:55Z</time>
      </trkpt>
      <trkpt lat="41.0538530" lon="0.5864430">
        <ele>85.6</ele>
        <time>2020-08-07T17:08:57Z</time>
      </trkpt>
      <trkpt lat="41.0538030" lon="0.5864910">
        <ele>85.5</ele>
        <time>2020-08-07T17:08:58Z</time>
      </trkpt>
      <trkpt lat="41.0537030" lon="0.5865760">
        <ele>85.2</ele>
        <time>2020-08-07T17:09:00Z</time>
      </trkpt>
      <trkpt lat="41.0536060" lon="0.5866610">
        <ele>84.9</ele>
        <time>2020-08-07T17:09:02Z</time>
      </trkpt>
      <trkpt lat="41.0535600" lon="0.5867020">
        <ele>84.8</ele>
        <time>2020-08-07T17:09:03Z</time>
      </trkpt>
      <trkpt lat="41.0535110" lon="0.5867430">
        <ele>84.6</ele>
        <time>2020-08-07T17:09:04Z</time>
      </trkpt>
      <trkpt lat="41.0534750" lon="0.5867970">
        <ele>84.5</ele>
        <time>2020-08-07T17:09:05Z</time>
      </trkpt>
      <trkpt lat="41.0534390" lon="0.5868500">
        <ele>84.3</ele>
        <time>2020-08-07T17:09:06Z</time>
      </trkpt>
      <trkpt lat="41.0533610" lon="0.5869420">
        <ele>84.1</ele>
        <time>2020-08-07T17:09:08Z</time>
      </trkpt>
      <trkpt lat="41.0532860" lon="0.5870580">
        <ele>83.8</ele>
        <time>2020-08-07T17:09:10Z</time>
      </trkpt>
      <trkpt lat="41.0532130" lon="0.5871530">
        <ele>83.6</ele>
        <time>2020-08-07T17:09:12Z</time>
      </trkpt>
      <trkpt lat="41.0531390" lon="0.5872540">
        <ele>83.4</ele>
        <time>2020-08-07T17:09:14Z</time>
      </trkpt>
      <trkpt lat="41.0531040" lon="0.5873060">
        <ele>83.2</ele>
        <time>2020-08-07T17:09:15Z</time>
      </trkpt>
      <trkpt lat="41.0530430" lon="0.5874140">
        <ele>83.0</ele>
        <time>2020-08-07T17:09:17Z</time>
      </trkpt>
      <trkpt lat="41.0530100" lon="0.5874630">
        <ele>82.9</ele>
        <time>2020-08-07T17:09:18Z</time>
      </trkpt>
      <trkpt lat="41.0529750" lon="0.5875150">
        <ele>82.8</ele>
        <time>2020-08-07T17:09:19Z</time>
      </trkpt>
      <trkpt lat="41.0529000" lon="0.5876290">
        <ele>82.5</ele>
        <time>2020-08-07T17:09:21Z</time>
      </trkpt>
      <trkpt lat="41.0528680" lon="0.5876900">
        <ele>82.3</ele>
        <time>2020-08-07T17:09:22Z</time>
      </trkpt>
      <trkpt lat="41.0528020" lon="0.5877990">
        <ele>82.1</ele>
        <time>2020-08-07T17:09:24Z</time>
      </trkpt>
      <trkpt lat="41.0527650" lon="0.5878500">
        <ele>82.0</ele>
        <time>2020-08-07T17:09:25Z</time>
      </trkpt>
      <trkpt lat="41.0527180" lon="0.5879450">
        <ele>81.7</ele>
        <time>2020-08-07T17:09:27Z</time>
      </trkpt>
      <trkpt lat="41.0526980" lon="0.5880060">
        <ele>81.6</ele>
        <time>2020-08-07T17:09:28Z</time>
      </trkpt>
      <trkpt lat="41.0526680" lon="0.5880950">
        <ele>81.4</ele>
        <time>2020-08-07T17:09:30Z</time>
      </trkpt>
      <trkpt lat="41.0526500" lon="0.5881650">
        <ele>81.3</ele>
        <time>2020-08-07T17:09:32Z</time>
      </trkpt>
      <trkpt lat="41.0526470" lon="0.5881900">
        <ele>81.3</ele>
        <time>2020-08-07T17:09:33Z</time>
      </trkpt>
      <trkpt lat="41.0526490" lon="0.5881960">
        <ele>81.3</ele>
        <time>2020-08-07T17:09:34Z</time>
      </trkpt>
      <trkpt lat="41.0526570" lon="0.5881950">
        <ele>81.2</ele>
        <time>2020-08-07T17:09:36Z</time>
      </trkpt>
      <trkpt lat="41.0526560" lon="0.5881930">
        <ele>81.2</ele>
        <time>2020-08-07T17:09:38Z</time>
      </trkpt>
      <trkpt lat="41.0526540" lon="0.5881920">
        <ele>81.2</ele>
        <time>2020-08-07T17:09:39Z</time>
      </trkpt>
      <trkpt lat="41.0526530" lon="0.5881920">
        <ele>81.2</ele>
        <time>2020-08-07T17:09:40Z</time>
      </trkpt>
      <trkpt lat="41.0526530" lon="0.5881900">
        <ele>81.2</ele>
        <time>2020-08-07T17:09:42Z</time>
      </trkpt>
      <trkpt lat="41.0526530" lon="0.5881910">
        <ele>81.2</ele>
        <time>2020-08-07T17:09:43Z</time>
      </trkpt>
      <trkpt lat="41.0526510" lon="0.5881920">
        <ele>81.2</ele>
        <time>2020-08-07T17:09:44Z</time>
      </trkpt>
      <trkpt lat="41.0526430" lon="0.5882120">
        <ele>81.2</ele>
        <time>2020-08-07T17:10:03Z</time>
      </trkpt>
      <trkpt lat="41.0526370" lon="0.5882210">
        <ele>81.2</ele>
        <time>2020-08-07T17:10:04Z</time>
      </trkpt>
      <trkpt lat="41.0526320" lon="0.5882580">
        <ele>81.1</ele>
        <time>2020-08-07T17:10:06Z</time>
      </trkpt>
      <trkpt lat="41.0526200" lon="0.5883150">
        <ele>81.0</ele>
        <time>2020-08-07T17:10:08Z</time>
      </trkpt>
      <trkpt lat="41.0526110" lon="0.5883430">
        <ele>81.0</ele>
        <time>2020-08-07T17:10:09Z</time>
      </trkpt>
      <trkpt lat="41.0525900" lon="0.5884030">
        <ele>80.9</ele>
        <time>2020-08-07T17:10:11Z</time>
      </trkpt>
      <trkpt lat="41.0525820" lon="0.5884340">
        <ele>80.8</ele>
        <time>2020-08-07T17:10:12Z</time>
      </trkpt>
      <trkpt lat="41.0525660" lon="0.5885030">
        <ele>80.7</ele>
        <time>2020-08-07T17:10:14Z</time>
      </trkpt>
      <trkpt lat="41.0525580" lon="0.5885390">
        <ele>80.6</ele>
        <time>2020-08-07T17:10:15Z</time>
      </trkpt>
      <trkpt lat="41.0525440" lon="0.5886030">
        <ele>80.5</ele>
        <time>2020-08-07T17:10:17Z</time>
      </trkpt>
      <trkpt lat="41.0525360" lon="0.5886370">
        <ele>80.4</ele>
        <time>2020-08-07T17:10:18Z</time>
      </trkpt>
      <trkpt lat="41.0525290" lon="0.5886780">
        <ele>80.3</ele>
        <time>2020-08-07T17:10:19Z</time>
      </trkpt>
      <trkpt lat="41.0525220" lon="0.5887220">
        <ele>80.2</ele>
        <time>2020-08-07T17:10:20Z</time>
      </trkpt>
      <trkpt lat="41.0525060" lon="0.5888210">
        <ele>80.0</ele>
        <time>2020-08-07T17:10:22Z</time>
      </trkpt>
      <trkpt lat="41.0525170" lon="0.5887820">
        <ele>79.9</ele>
        <time>2020-08-07T17:10:23Z</time>
      </trkpt>
      <trkpt lat="41.0525220" lon="0.5887470">
        <ele>79.8</ele>
        <time>2020-08-07T17:10:24Z</time>
      </trkpt>
      <trkpt lat="41.0525230" lon="0.5886900">
        <ele>79.7</ele>
        <time>2020-08-07T17:10:26Z</time>
      </trkpt>
      <trkpt lat="41.0525230" lon="0.5886480">
        <ele>79.6</ele>
        <time>2020-08-07T17:10:27Z</time>
      </trkpt>
      <trkpt lat="41.0525140" lon="0.5886160">
        <ele>79.5</ele>
        <time>2020-08-07T17:10:28Z</time>
      </trkpt>
      <trkpt lat="41.0525030" lon="0.5886110">
        <ele>79.5</ele>
        <time>2020-08-07T17:10:30Z</time>
      </trkpt>
      <trkpt lat="41.0524900" lon="0.5886200">
        <ele>79.5</ele>
        <time>2020-08-07T17:10:31Z</time>
      </trkpt>
      <trkpt lat="41.0524760" lon="0.5886310">
        <ele>79.4</ele>
        <time>2020-08-07T17:10:32Z</time>
      </trkpt>
      <trkpt lat="41.0524420" lon="0.5886560">
        <ele>79.3</ele>
        <time>2020-08-07T17:10:34Z</time>
      </trkpt>
      <trkpt lat="41.0524150" lon="0.5887060">
        <ele>79.1</ele>
        <time>2020-08-07T17:10:35Z</time>
      </trkpt>
      <trkpt lat="41.0524350" lon="0.5887910">
        <ele>78.9</ele>
        <time>2020-08-07T17:10:36Z</time>
      </trkpt>
      <trkpt lat="41.0524200" lon="0.5889920">
        <ele>78.4</ele>
        <time>2020-08-07T17:10:37Z</time>
      </trkpt>
      <trkpt lat="41.0523810" lon="0.5891620">
        <ele>78.0</ele>
        <time>2020-08-07T17:10:39Z</time>
      </trkpt>
      <trkpt lat="41.0523600" lon="0.5892810">
        <ele>77.7</ele>
        <time>2020-08-07T17:10:40Z</time>
      </trkpt>
      <trkpt lat="41.0523460" lon="0.5894530">
        <ele>77.3</ele>
        <time>2020-08-07T17:10:41Z</time>
      </trkpt>
      <trkpt lat="41.0523550" lon="0.5895250">
        <ele>77.2</ele>
        <time>2020-08-07T17:10:43Z</time>
      </trkpt>
      <trkpt lat="41.0523600" lon="0.5896100">
        <ele>77.1</ele>
        <time>2020-08-07T17:10:45Z</time>
      </trkpt>
      <trkpt lat="41.0523500" lon="0.5896790">
        <ele>77.0</ele>
        <time>2020-08-07T17:10:47Z</time>
      </trkpt>
      <trkpt lat="41.0523420" lon="0.5897470">
        <ele>76.8</ele>
        <time>2020-08-07T17:10:48Z</time>
      </trkpt>
      <trkpt lat="41.0523380" lon="0.5897960">
        <ele>76.7</ele>
        <time>2020-08-07T17:10:50Z</time>
      </trkpt>
      <trkpt lat="41.0523380" lon="0.5898160">
        <ele>76.7</ele>
        <time>2020-08-07T17:10:51Z</time>
      </trkpt>
      <trkpt lat="41.0523390" lon="0.5898450">
        <ele>76.6</ele>
        <time>2020-08-07T17:10:53Z</time>
      </trkpt>
      <trkpt lat="41.0523400" lon="0.5898570">
        <ele>76.6</ele>
        <time>2020-08-07T17:10:54Z</time>
      </trkpt>
      <trkpt lat="41.0523440" lon="0.5898760">
        <ele>76.5</ele>
        <time>2020-08-07T17:10:56Z</time>
      </trkpt>
      <trkpt lat="41.0523460" lon="0.5898830">
        <ele>76.5</ele>
        <time>2020-08-07T17:10:57Z</time>
      </trkpt>
      <trkpt lat="41.0523500" lon="0.5898950">
        <ele>76.5</ele>
        <time>2020-08-07T17:10:59Z</time>
      </trkpt>
      <trkpt lat="41.0523790" lon="0.5899510">
        <ele>76.3</ele>
        <time>2020-08-07T17:11:08Z</time>
      </trkpt>
      <trkpt lat="41.0523890" lon="0.5899680">
        <ele>76.3</ele>
        <time>2020-08-07T17:11:09Z</time>
      </trkpt>
      <trkpt lat="41.0524160" lon="0.5900220">
        <ele>76.1</ele>
        <time>2020-08-07T17:11:11Z</time>
      </trkpt>
      <trkpt lat="41.0524440" lon="0.5900960">
        <ele>75.9</ele>
        <time>2020-08-07T17:11:13Z</time>
      </trkpt>
      <trkpt lat="41.0524570" lon="0.5901440">
        <ele>75.8</ele>
        <time>2020-08-07T17:11:14Z</time>
      </trkpt>
      <trkpt lat="41.0524760" lon="0.5902330">
        <ele>75.6</ele>
        <time>2020-08-07T17:11:16Z</time>
      </trkpt>
      <trkpt lat="41.0524840" lon="0.5902870">
        <ele>75.4</ele>
        <time>2020-08-07T17:11:17Z</time>
      </trkpt>
      <trkpt lat="41.0524880" lon="0.5903330">
        <ele>75.3</ele>
        <time>2020-08-07T17:11:18Z</time>
      </trkpt>
      <trkpt lat="41.0524340" lon="0.5902800">
        <ele>75.1</ele>
        <time>2020-08-07T17:11:19Z</time>
      </trkpt>
      <trkpt lat="41.0524750" lon="0.5904860">
        <ele>74.5</ele>
        <time>2020-08-07T17:11:21Z</time>
      </trkpt>
      <trkpt lat="41.0524920" lon="0.5905690">
        <ele>74.2</ele>
        <time>2020-08-07T17:11:22Z</time>
      </trkpt>
      <trkpt lat="41.0524870" lon="0.5906410">
        <ele>74.0</ele>
        <time>2020-08-07T17:11:23Z</time>
      </trkpt>
      <trkpt lat="41.0525170" lon="0.5907900">
        <ele>73.7</ele>
        <time>2020-08-07T17:11:25Z</time>
      </trkpt>
      <trkpt lat="41.0525300" lon="0.5908600">
        <ele>73.5</ele>
        <time>2020-08-07T17:11:26Z</time>
      </trkpt>
      <trkpt lat="41.0525380" lon="0.5909400">
        <ele>73.3</ele>
        <time>2020-08-07T17:11:27Z</time>
      </trkpt>
      <trkpt lat="41.0525590" lon="0.5910850">
        <ele>72.9</ele>
        <time>2020-08-07T17:11:29Z</time>
      </trkpt>
      <trkpt lat="41.0525580" lon="0.5911560">
        <ele>72.7</ele>
        <time>2020-08-07T17:11:30Z</time>
      </trkpt>
      <trkpt lat="41.0525500" lon="0.5913060">
        <ele>72.2</ele>
        <time>2020-08-07T17:11:32Z</time>
      </trkpt>
      <trkpt lat="41.0525390" lon="0.5914410">
        <ele>71.8</ele>
        <time>2020-08-07T17:11:34Z</time>
      </trkpt>
      <trkpt lat="41.0525360" lon="0.5915170">
        <ele>71.6</ele>
        <time>2020-08-07T17:11:35Z</time>
      </trkpt>
      <trkpt lat="41.0525370" lon="0.5915860">
        <ele>71.3</ele>
        <time>2020-08-07T17:11:36Z</time>
      </trkpt>
      <trkpt lat="41.0525130" lon="0.5917280">
        <ele>70.8</ele>
        <time>2020-08-07T17:11:38Z</time>
      </trkpt>
      <trkpt lat="41.0524990" lon="0.5918730">
        <ele>70.4</ele>
        <time>2020-08-07T17:11:40Z</time>
      </trkpt>
      <trkpt lat="41.0524930" lon="0.5919420">
        <ele>70.2</ele>
        <time>2020-08-07T17:11:41Z</time>
      </trkpt>
      <trkpt lat="41.0524760" lon="0.5920930">
        <ele>69.7</ele>
        <time>2020-08-07T17:11:43Z</time>
      </trkpt>
      <trkpt lat="41.0524720" lon="0.5921690">
        <ele>69.4</ele>
        <time>2020-08-07T17:11:44Z</time>
      </trkpt>
      <trkpt lat="41.0524490" lon="0.5923220">
        <ele>68.9</ele>
        <time>2020-08-07T17:11:46Z</time>
      </trkpt>
      <trkpt lat="41.0524270" lon="0.5924730">
        <ele>68.4</ele>
        <time>2020-08-07T17:11:48Z</time>
      </trkpt>
      <trkpt lat="41.0523960" lon="0.5926240">
        <ele>68.0</ele>
        <time>2020-08-07T17:11:50Z</time>
      </trkpt>
      <trkpt lat="41.0523710" lon="0.5926980">
        <ele>67.9</ele>
        <time>2020-08-07T17:11:51Z</time>
      </trkpt>
      <trkpt lat="41.0523040" lon="0.5928320">
        <ele>67.6</ele>
        <time>2020-08-07T17:11:53Z</time>
      </trkpt>
      <trkpt lat="41.0522640" lon="0.5928910">
        <ele>67.5</ele>
        <time>2020-08-07T17:11:54Z</time>
      </trkpt>
      <trkpt lat="41.0521780" lon="0.5929830">
        <ele>67.3</ele>
        <time>2020-08-07T17:11:56Z</time>
      </trkpt>
      <trkpt lat="41.0521360" lon="0.5930180">
        <ele>67.3</ele>
        <time>2020-08-07T17:11:57Z</time>
      </trkpt>
      <trkpt lat="41.0520380" lon="0.5930750">
        <ele>67.2</ele>
        <time>2020-08-07T17:11:59Z</time>
      </trkpt>
      <trkpt lat="41.0519850" lon="0.5930950">
        <ele>67.2</ele>
        <time>2020-08-07T17:12:00Z</time>
      </trkpt>
      <trkpt lat="41.0516190" lon="0.5932750">
        <ele>67.3</ele>
        <time>2020-08-07T17:12:08Z</time>
      </trkpt>
      <trkpt lat="41.0515760" lon="0.5932960">
        <ele>67.3</ele>
        <time>2020-08-07T17:12:09Z</time>
      </trkpt>
      <trkpt lat="41.0514980" lon="0.5933000">
        <ele>67.4</ele>
        <time>2020-08-07T17:12:11Z</time>
      </trkpt>
      <trkpt lat="41.0514610" lon="0.5932990">
        <ele>67.5</ele>
        <time>2020-08-07T17:12:12Z</time>
      </trkpt>
      <trkpt lat="41.0513700" lon="0.5933210">
        <ele>67.6</ele>
        <time>2020-08-07T17:12:14Z</time>
      </trkpt>
      <trkpt lat="41.0513350" lon="0.5933190">
        <ele>67.6</ele>
        <time>2020-08-07T17:12:15Z</time>
      </trkpt>
      <trkpt lat="41.0512960" lon="0.5933140">
        <ele>67.7</ele>
        <time>2020-08-07T17:12:16Z</time>
      </trkpt>
      <trkpt lat="41.0513340" lon="0.5933260">
        <ele>67.7</ele>
        <time>2020-08-07T17:12:17Z</time>
      </trkpt>
      <trkpt lat="41.0513510" lon="0.5933210">
        <ele>67.7</ele>
        <time>2020-08-07T17:12:18Z</time>
      </trkpt>
      <trkpt lat="41.0513510" lon="0.5932960">
        <ele>67.7</ele>
        <time>2020-08-07T17:12:20Z</time>
      </trkpt>
      <trkpt lat="41.0513540" lon="0.5932400">
        <ele>67.7</ele>
        <time>2020-08-07T17:12:22Z</time>
      </trkpt>
      <trkpt lat="41.0512810" lon="0.5931690">
        <ele>67.7</ele>
        <time>2020-08-07T17:12:24Z</time>
      </trkpt>
      <trkpt lat="41.0512370" lon="0.5931060">
        <ele>67.7</ele>
        <time>2020-08-07T17:12:26Z</time>
      </trkpt>
      <trkpt lat="41.0511840" lon="0.5930490">
        <ele>67.7</ele>
        <time>2020-08-07T17:12:27Z</time>
      </trkpt>
      <trkpt lat="41.0511540" lon="0.5930130">
        <ele>67.6</ele>
        <time>2020-08-07T17:12:29Z</time>
      </trkpt>
      <trkpt lat="41.0511310" lon="0.5929840">
        <ele>67.6</ele>
        <time>2020-08-07T17:12:30Z</time>
      </trkpt>
      <trkpt lat="41.0510650" lon="0.5929070">
        <ele>67.4</ele>
        <time>2020-08-07T17:12:32Z</time>
      </trkpt>
      <trkpt lat="41.0510020" lon="0.5928240">
        <ele>67.3</ele>
        <time>2020-08-07T17:12:33Z</time>
      </trkpt>
      <trkpt lat="41.0509500" lon="0.5927660">
        <ele>67.2</ele>
        <time>2020-08-07T17:12:34Z</time>
      </trkpt>
      <trkpt lat="41.0507670" lon="0.5925800">
        <ele>67.0</ele>
        <time>2020-08-07T17:12:36Z</time>
      </trkpt>
      <trkpt lat="41.0507230" lon="0.5925370">
        <ele>66.9</ele>
        <time>2020-08-07T17:12:37Z</time>
      </trkpt>
      <trkpt lat="41.0506870" lon="0.5925030">
        <ele>66.9</ele>
        <time>2020-08-07T17:12:38Z</time>
      </trkpt>
      <trkpt lat="41.0506440" lon="0.5924950">
        <ele>66.9</ele>
        <time>2020-08-07T17:12:39Z</time>
      </trkpt>
      <trkpt lat="41.0506060" lon="0.5924710">
        <ele>66.9</ele>
        <time>2020-08-07T17:12:40Z</time>
      </trkpt>
      <trkpt lat="41.0505710" lon="0.5924570">
        <ele>66.9</ele>
        <time>2020-08-07T17:12:42Z</time>
      </trkpt>
      <trkpt lat="41.0505580" lon="0.5924580">
        <ele>66.9</ele>
        <time>2020-08-07T17:12:43Z</time>
      </trkpt>
      <trkpt lat="41.0505330" lon="0.5924730">
        <ele>66.9</ele>
        <time>2020-08-07T17:12:45Z</time>
      </trkpt>
      <trkpt lat="41.0505220" lon="0.5924960">
        <ele>66.9</ele>
        <time>2020-08-07T17:12:46Z</time>
      </trkpt>
      <trkpt lat="41.0505100" lon="0.5925610">
        <ele>66.9</ele>
        <time>2020-08-07T17:12:48Z</time>
      </trkpt>
      <trkpt lat="41.0504560" lon="0.5926580">
        <ele>66.8</ele>
        <time>2020-08-07T17:12:49Z</time>
      </trkpt>
      <trkpt lat="41.0504200" lon="0.5928140">
        <ele>66.8</ele>
        <time>2020-08-07T17:12:51Z</time>
      </trkpt>
      <trkpt lat="41.0504520" lon="0.5928090">
        <ele>66.8</ele>
        <time>2020-08-07T17:12:52Z</time>
      </trkpt>
      <trkpt lat="41.0504360" lon="0.5929300">
        <ele>66.8</ele>
        <time>2020-08-07T17:12:54Z</time>
      </trkpt>
      <trkpt lat="41.0504420" lon="0.5930110">
        <ele>66.8</ele>
        <time>2020-08-07T17:12:55Z</time>
      </trkpt>
      <trkpt lat="41.0504720" lon="0.5931330">
        <ele>66.8</ele>
        <time>2020-08-07T17:12:56Z</time>
      </trkpt>
      <trkpt lat="41.0505070" lon="0.5931420">
        <ele>66.9</ele>
        <time>2020-08-07T17:12:58Z</time>
      </trkpt>
      <trkpt lat="41.0504740" lon="0.5931120">
        <ele>66.9</ele>
        <time>2020-08-07T17:12:59Z</time>
      </trkpt>
      <trkpt lat="41.0504190" lon="0.5930840">
        <ele>66.9</ele>
        <time>2020-08-07T17:13:01Z</time>
      </trkpt>
      <trkpt lat="41.0504020" lon="0.5930980">
        <ele>66.9</ele>
        <time>2020-08-07T17:13:02Z</time>
      </trkpt>
      <trkpt lat="41.0503700" lon="0.5931500">
        <ele>67.0</ele>
        <time>2020-08-07T17:13:04Z</time>
      </trkpt>
      <trkpt lat="41.0503710" lon="0.5932150">
        <ele>67.0</ele>
        <time>2020-08-07T17:13:05Z</time>
      </trkpt>
      <trkpt lat="41.0503720" lon="0.5933170">
        <ele>67.0</ele>
        <time>2020-08-07T17:13:07Z</time>
      </trkpt>
      <trkpt lat="41.0503890" lon="0.5933710">
        <ele>67.0</ele>
        <time>2020-08-07T17:13:08Z</time>
      </trkpt>
      <trkpt lat="41.0503980" lon="0.5934660">
        <ele>66.9</ele>
        <time>2020-08-07T17:13:10Z</time>
      </trkpt>
      <trkpt lat="41.0504150" lon="0.5935520">
        <ele>66.7</ele>
        <time>2020-08-07T17:13:12Z</time>
      </trkpt>
      <trkpt lat="41.0504160" lon="0.5935910">
        <ele>66.7</ele>
        <time>2020-08-07T17:13:13Z</time>
      </trkpt>
      <trkpt lat="41.0504080" lon="0.5936590">
        <ele>66.5</ele>
        <time>2020-08-07T17:13:15Z</time>
      </trkpt>
      <trkpt lat="41.0502910" lon="0.5939060">
        <ele>65.6</ele>
        <time>2020-08-07T17:13:16Z</time>
      </trkpt>
      <trkpt lat="41.0502570" lon="0.5939750">
        <ele>65.3</ele>
        <time>2020-08-07T17:13:17Z</time>
      </trkpt>
      <trkpt lat="41.0501580" lon="0.5941640">
        <ele>64.4</ele>
        <time>2020-08-07T17:13:19Z</time>
      </trkpt>
      <trkpt lat="41.0500960" lon="0.5942980">
        <ele>63.8</ele>
        <time>2020-08-07T17:13:21Z</time>
      </trkpt>
      <trkpt lat="41.0500740" lon="0.5943560">
        <ele>63.5</ele>
        <time>2020-08-07T17:13:22Z</time>
      </trkpt>
      <trkpt lat="41.0500710" lon="0.5944210">
        <ele>63.3</ele>
        <time>2020-08-07T17:13:23Z</time>
      </trkpt>
      <trkpt lat="41.0500450" lon="0.5944430">
        <ele>63.1</ele>
        <time>2020-08-07T17:13:24Z</time>
      </trkpt>
      <trkpt lat="41.0500270" lon="0.5944450">
        <ele>63.0</ele>
        <time>2020-08-07T17:13:26Z</time>
      </trkpt>
      <trkpt lat="41.0500100" lon="0.5944580">
        <ele>62.9</ele>
        <time>2020-08-07T17:13:28Z</time>
      </trkpt>
      <trkpt lat="41.0500080" lon="0.5944640">
        <ele>62.9</ele>
        <time>2020-08-07T17:13:29Z</time>
      </trkpt>
      <trkpt lat="41.0500160" lon="0.5944680">
        <ele>62.9</ele>
        <time>2020-08-07T17:13:30Z</time>
      </trkpt>
      <trkpt lat="41.0500250" lon="0.5944700">
        <ele>62.8</ele>
        <time>2020-08-07T17:13:32Z</time>
      </trkpt>
      <trkpt lat="41.0500300" lon="0.5944720">
        <ele>62.8</ele>
        <time>2020-08-07T17:13:33Z</time>
      </trkpt>
      <trkpt lat="41.0500330" lon="0.5944770">
        <ele>62.8</ele>
        <time>2020-08-07T17:13:34Z</time>
      </trkpt>
      <trkpt lat="41.0500380" lon="0.5944900">
        <ele>62.7</ele>
        <time>2020-08-07T17:13:36Z</time>
      </trkpt>
      <trkpt lat="41.0500370" lon="0.5945100">
        <ele>62.6</ele>
        <time>2020-08-07T17:13:38Z</time>
      </trkpt>
      <trkpt lat="41.0500350" lon="0.5945170">
        <ele>62.6</ele>
        <time>2020-08-07T17:13:39Z</time>
      </trkpt>
      <trkpt lat="41.0500310" lon="0.5945290">
        <ele>62.5</ele>
        <time>2020-08-07T17:13:41Z</time>
      </trkpt>
      <trkpt lat="41.0500060" lon="0.5945900">
        <ele>62.3</ele>
        <time>2020-08-07T17:13:48Z</time>
      </trkpt>
      <trkpt lat="41.0500000" lon="0.5946130">
        <ele>62.2</ele>
        <time>2020-08-07T17:13:50Z</time>
      </trkpt>
      <trkpt lat="41.0500000" lon="0.5946130">
        <ele>62.2</ele>
        <time>2020-08-07T17:13:52Z</time>
      </trkpt>
      <trkpt lat="41.0500010" lon="0.5946120">
        <ele>62.1</ele>
        <time>2020-08-07T17:13:53Z</time>
      </trkpt>
      <trkpt lat="41.0500010" lon="0.5946110">
        <ele>62.1</ele>
        <time>2020-08-07T17:13:54Z</time>
      </trkpt>
      <trkpt lat="41.0500010" lon="0.5946060">
        <ele>62.1</ele>
        <time>2020-08-07T17:13:56Z</time>
      </trkpt>
      <trkpt lat="41.0500010" lon="0.5946030">
        <ele>62.1</ele>
        <time>2020-08-07T17:13:58Z</time>
      </trkpt>
      <trkpt lat="41.0500010" lon="0.5946070">
        <ele>62.1</ele>
        <time>2020-08-07T17:13:59Z</time>
      </trkpt>
      <trkpt lat="41.0500020" lon="0.5946110">
        <ele>62.1</ele>
        <time>2020-08-07T17:14:01Z</time>
      </trkpt>
      <trkpt lat="41.0499790" lon="0.5946170">
        <ele>62.0</ele>
        <time>2020-08-07T17:15:01Z</time>
      </trkpt>
      <trkpt lat="41.0499690" lon="0.5946230">
        <ele>61.9</ele>
        <time>2020-08-07T17:15:02Z</time>
      </trkpt>
      <trkpt lat="41.0499490" lon="0.5946400">
        <ele>61.8</ele>
        <time>2020-08-07T17:15:04Z</time>
      </trkpt>
      <trkpt lat="41.0499400" lon="0.5946510">
        <ele>61.7</ele>
        <time>2020-08-07T17:15:05Z</time>
      </trkpt>
      <trkpt lat="41.0499290" lon="0.5946610">
        <ele>61.7</ele>
        <time>2020-08-07T17:15:06Z</time>
      </trkpt>
      <trkpt lat="41.0499190" lon="0.5946920">
        <ele>61.6</ele>
        <time>2020-08-07T17:15:08Z</time>
      </trkpt>
      <trkpt lat="41.0499040" lon="0.5947080">
        <ele>61.5</ele>
        <time>2020-08-07T17:15:09Z</time>
      </trkpt>
      <trkpt lat="41.0498850" lon="0.5947550">
        <ele>61.3</ele>
        <time>2020-08-07T17:15:11Z</time>
      </trkpt>
      <trkpt lat="41.0497610" lon="0.5950400">
        <ele>60.0</ele>
        <time>2020-08-07T17:15:12Z</time>
      </trkpt>
      <trkpt lat="41.0497340" lon="0.5950870">
        <ele>59.8</ele>
        <time>2020-08-07T17:15:13Z</time>
      </trkpt>
      <trkpt lat="41.0496920" lon="0.5951400">
        <ele>59.5</ele>
        <time>2020-08-07T17:15:14Z</time>
      </trkpt>
      <trkpt lat="41.0496550" lon="0.5951770">
        <ele>59.3</ele>
        <time>2020-08-07T17:15:15Z</time>
      </trkpt>
      <trkpt lat="41.0495810" lon="0.5952340">
        <ele>58.9</ele>
        <time>2020-08-07T17:15:17Z</time>
      </trkpt>
      <trkpt lat="41.0495460" lon="0.5952610">
        <ele>58.7</ele>
        <time>2020-08-07T17:15:18Z</time>
      </trkpt>
      <trkpt lat="41.0495090" lon="0.5952890">
        <ele>58.5</ele>
        <time>2020-08-07T17:15:19Z</time>
      </trkpt>
      <trkpt lat="41.0494310" lon="0.5953420">
        <ele>58.0</ele>
        <time>2020-08-07T17:15:21Z</time>
      </trkpt>
      <trkpt lat="41.0493920" lon="0.5953620">
        <ele>57.7</ele>
        <time>2020-08-07T17:15:22Z</time>
      </trkpt>
      <trkpt lat="41.0493240" lon="0.5953740">
        <ele>57.4</ele>
        <time>2020-08-07T17:15:24Z</time>
      </trkpt>
      <trkpt lat="41.0493010" lon="0.5953680">
        <ele>57.2</ele>
        <time>2020-08-07T17:15:25Z</time>
      </trkpt>
      <trkpt lat="41.0492680" lon="0.5953570">
        <ele>57.0</ele>
        <time>2020-08-07T17:15:27Z</time>
      </trkpt>
      <trkpt lat="41.0492360" lon="0.5953450">
        <ele>56.8</ele>
        <time>2020-08-07T17:15:28Z</time>
      </trkpt>
      <trkpt lat="41.0492240" lon="0.5953410">
        <ele>56.7</ele>
        <time>2020-08-07T17:15:29Z</time>
      </trkpt>
      <trkpt lat="41.0491970" lon="0.5953280">
        <ele>56.6</ele>
        <time>2020-08-07T17:15:30Z</time>
      </trkpt>
      <trkpt lat="41.0491760" lon="0.5953170">
        <ele>56.4</ele>
        <time>2020-08-07T17:15:31Z</time>
      </trkpt>
      <trkpt lat="41.0491100" lon="0.5952710">
        <ele>56.0</ele>
        <time>2020-08-07T17:15:33Z</time>
      </trkpt>
      <trkpt lat="41.0490350" lon="0.5952100">
        <ele>55.5</ele>
        <time>2020-08-07T17:15:35Z</time>
      </trkpt>
      <trkpt lat="41.0489630" lon="0.5951240">
        <ele>54.9</ele>
        <time>2020-08-07T17:15:37Z</time>
      </trkpt>
      <trkpt lat="41.0488890" lon="0.5950290">
        <ele>54.3</ele>
        <time>2020-08-07T17:15:39Z</time>
      </trkpt>
      <trkpt lat="41.0488510" lon="0.5949720">
        <ele>53.9</ele>
        <time>2020-08-07T17:15:40Z</time>
      </trkpt>
      <trkpt lat="41.0487680" lon="0.5948650">
        <ele>53.3</ele>
        <time>2020-08-07T17:15:42Z</time>
      </trkpt>
      <trkpt lat="41.0486700" lon="0.5947600">
        <ele>52.5</ele>
        <time>2020-08-07T17:15:44Z</time>
      </trkpt>
      <trkpt lat="41.0486210" lon="0.5947200">
        <ele>52.2</ele>
        <time>2020-08-07T17:15:45Z</time>
      </trkpt>
      <trkpt lat="41.0485670" lon="0.5946750">
        <ele>51.8</ele>
        <time>2020-08-07T17:15:46Z</time>
      </trkpt>
      <trkpt lat="41.0484540" lon="0.5945780">
        <ele>51.0</ele>
        <time>2020-08-07T17:15:48Z</time>
      </trkpt>
      <trkpt lat="41.0483190" lon="0.5944980">
        <ele>50.3</ele>
        <time>2020-08-07T17:15:50Z</time>
      </trkpt>
      <trkpt lat="41.0482500" lon="0.5944820">
        <ele>50.1</ele>
        <time>2020-08-07T17:15:51Z</time>
      </trkpt>
      <trkpt lat="41.0481020" lon="0.5944430">
        <ele>49.8</ele>
        <time>2020-08-07T17:15:53Z</time>
      </trkpt>
      <trkpt lat="41.0480330" lon="0.5944180">
        <ele>49.8</ele>
        <time>2020-08-07T17:15:54Z</time>
      </trkpt>
      <trkpt lat="41.0479690" lon="0.5943940">
        <ele>49.9</ele>
        <time>2020-08-07T17:15:55Z</time>
      </trkpt>
      <trkpt lat="41.0478570" lon="0.5943790">
        <ele>50.1</ele>
        <time>2020-08-07T17:15:57Z</time>
      </trkpt>
      <trkpt lat="41.0478020" lon="0.5943960">
        <ele>50.1</ele>
        <time>2020-08-07T17:15:58Z</time>
      </trkpt>
      <trkpt lat="41.0477180" lon="0.5944900">
        <ele>49.9</ele>
        <time>2020-08-07T17:16:00Z</time>
      </trkpt>
      <trkpt lat="41.0476890" lon="0.5945490">
        <ele>49.7</ele>
        <time>2020-08-07T17:16:01Z</time>
      </trkpt>
      <trkpt lat="41.0476640" lon="0.5946100">
        <ele>49.6</ele>
        <time>2020-08-07T17:16:02Z</time>
      </trkpt>
      <trkpt lat="41.0476440" lon="0.5946680">
        <ele>49.5</ele>
        <time>2020-08-07T17:16:03Z</time>
      </trkpt>
      <trkpt lat="41.0476170" lon="0.5947890">
        <ele>49.2</ele>
        <time>2020-08-07T17:16:05Z</time>
      </trkpt>
      <trkpt lat="41.0476030" lon="0.5948490">
        <ele>49.1</ele>
        <time>2020-08-07T17:16:06Z</time>
      </trkpt>
      <trkpt lat="41.0475830" lon="0.5949740">
        <ele>48.8</ele>
        <time>2020-08-07T17:16:08Z</time>
      </trkpt>
      <trkpt lat="41.0475830" lon="0.5950400">
        <ele>48.7</ele>
        <time>2020-08-07T17:16:09Z</time>
      </trkpt>
      <trkpt lat="41.0475940" lon="0.5951140">
        <ele>48.6</ele>
        <time>2020-08-07T17:16:10Z</time>
      </trkpt>
      <trkpt lat="41.0476230" lon="0.5952600">
        <ele>48.2</ele>
        <time>2020-08-07T17:16:12Z</time>
      </trkpt>
      <trkpt lat="41.0476300" lon="0.5953910">
        <ele>47.8</ele>
        <time>2020-08-07T17:16:14Z</time>
      </trkpt>
      <trkpt lat="41.0476440" lon="0.5954540">
        <ele>47.7</ele>
        <time>2020-08-07T17:16:15Z</time>
      </trkpt>
      <trkpt lat="41.0476770" lon="0.5955730">
        <ele>47.4</ele>
        <time>2020-08-07T17:16:17Z</time>
      </trkpt>
      <trkpt lat="41.0476810" lon="0.5956320">
        <ele>47.3</ele>
        <time>2020-08-07T17:16:18Z</time>
      </trkpt>
      <trkpt lat="41.0476830" lon="0.5956920">
        <ele>47.1</ele>
        <time>2020-08-07T17:16:19Z</time>
      </trkpt>
      <trkpt lat="41.0476960" lon="0.5958100">
        <ele>46.9</ele>
        <time>2020-08-07T17:16:21Z</time>
      </trkpt>
      <trkpt lat="41.0477110" lon="0.5959310">
        <ele>46.6</ele>
        <time>2020-08-07T17:16:23Z</time>
      </trkpt>
      <trkpt lat="41.0477220" lon="0.5960460">
        <ele>46.3</ele>
        <time>2020-08-07T17:16:25Z</time>
      </trkpt>
      <trkpt lat="41.0477260" lon="0.5961040">
        <ele>46.2</ele>
        <time>2020-08-07T17:16:26Z</time>
      </trkpt>
      <trkpt lat="41.0477260" lon="0.5961610">
        <ele>46.0</ele>
        <time>2020-08-07T17:16:27Z</time>
      </trkpt>
      <trkpt lat="41.0477240" lon="0.5962100">
        <ele>45.9</ele>
        <time>2020-08-07T17:16:28Z</time>
      </trkpt>
      <trkpt lat="41.0477220" lon="0.5962690">
        <ele>45.8</ele>
        <time>2020-08-07T17:16:29Z</time>
      </trkpt>
      <trkpt lat="41.0477240" lon="0.5963280">
        <ele>45.6</ele>
        <time>2020-08-07T17:16:30Z</time>
      </trkpt>
      <trkpt lat="41.0477280" lon="0.5963890">
        <ele>45.5</ele>
        <time>2020-08-07T17:16:31Z</time>
      </trkpt>
      <trkpt lat="41.0477270" lon="0.5964450">
        <ele>45.4</ele>
        <time>2020-08-07T17:16:32Z</time>
      </trkpt>
      <trkpt lat="41.0477280" lon="0.5965580">
        <ele>45.1</ele>
        <time>2020-08-07T17:16:34Z</time>
      </trkpt>
      <trkpt lat="41.0477280" lon="0.5966200">
        <ele>45.0</ele>
        <time>2020-08-07T17:16:35Z</time>
      </trkpt>
      <trkpt lat="41.0477270" lon="0.5966810">
        <ele>44.9</ele>
        <time>2020-08-07T17:16:36Z</time>
      </trkpt>
      <trkpt lat="41.0477310" lon="0.5967920">
        <ele>44.7</ele>
        <time>2020-08-07T17:16:38Z</time>
      </trkpt>
      <trkpt lat="41.0477310" lon="0.5969100">
        <ele>44.4</ele>
        <time>2020-08-07T17:16:40Z</time>
      </trkpt>
      <trkpt lat="41.0477300" lon="0.5969720">
        <ele>44.3</ele>
        <time>2020-08-07T17:16:41Z</time>
      </trkpt>
      <trkpt lat="41.0477300" lon="0.5970320">
        <ele>44.2</ele>
        <time>2020-08-07T17:16:42Z</time>
      </trkpt>
      <trkpt lat="41.0477330" lon="0.5971550">
        <ele>43.9</ele>
        <time>2020-08-07T17:16:44Z</time>
      </trkpt>
      <trkpt lat="41.0477320" lon="0.5972160">
        <ele>43.8</ele>
        <time>2020-08-07T17:16:45Z</time>
      </trkpt>
      <trkpt lat="41.0477350" lon="0.5972780">
        <ele>43.7</ele>
        <time>2020-08-07T17:16:46Z</time>
      </trkpt>
      <trkpt lat="41.0477380" lon="0.5974030">
        <ele>43.4</ele>
        <time>2020-08-07T17:16:48Z</time>
      </trkpt>
      <trkpt lat="41.0477430" lon="0.5974660">
        <ele>43.3</ele>
        <time>2020-08-07T17:16:49Z</time>
      </trkpt>
      <trkpt lat="41.0477530" lon="0.5975880">
        <ele>42.9</ele>
        <time>2020-08-07T17:16:51Z</time>
      </trkpt>
      <trkpt lat="41.0477550" lon="0.5976510">
        <ele>42.8</ele>
        <time>2020-08-07T17:16:52Z</time>
      </trkpt>
      <trkpt lat="41.0477480" lon="0.5977770">
        <ele>42.4</ele>
        <time>2020-08-07T17:16:54Z</time>
      </trkpt>
      <trkpt lat="41.0477420" lon="0.5978390">
        <ele>42.3</ele>
        <time>2020-08-07T17:16:55Z</time>
      </trkpt>
      <trkpt lat="41.0477190" lon="0.5979680">
        <ele>41.9</ele>
        <time>2020-08-07T17:16:57Z</time>
      </trkpt>
      <trkpt lat="41.0476960" lon="0.5980940">
        <ele>41.6</ele>
        <time>2020-08-07T17:16:59Z</time>
      </trkpt>
      <trkpt lat="41.0476820" lon="0.5981580">
        <ele>41.5</ele>
        <time>2020-08-07T17:17:00Z</time>
      </trkpt>
      <trkpt lat="41.0476650" lon="0.5982780">
        <ele>41.3</ele>
        <time>2020-08-07T17:17:02Z</time>
      </trkpt>
      <trkpt lat="41.0476540" lon="0.5983380">
        <ele>41.2</ele>
        <time>2020-08-07T17:17:03Z</time>
      </trkpt>
      <trkpt lat="41.0474940" lon="0.5986480">
        <ele>40.6</ele>
        <time>2020-08-07T17:17:09Z</time>
      </trkpt>
      <trkpt lat="41.0474420" lon="0.5986960">
        <ele>40.5</ele>
        <time>2020-08-07T17:17:10Z</time>
      </trkpt>
      <trkpt lat="41.0474270" lon="0.5987080">
        <ele>40.4</ele>
        <time>2020-08-07T17:17:11Z</time>
      </trkpt>
      <trkpt lat="41.0473650" lon="0.5987750">
        <ele>40.2</ele>
        <time>2020-08-07T17:17:13Z</time>
      </trkpt>
      <trkpt lat="41.0473300" lon="0.5988190">
        <ele>40.1</ele>
        <time>2020-08-07T17:17:14Z</time>
      </trkpt>
      <trkpt lat="41.0472620" lon="0.5989010">
        <ele>40.0</ele>
        <time>2020-08-07T17:17:16Z</time>
      </trkpt>
      <trkpt lat="41.0471930" lon="0.5989730">
        <ele>39.9</ele>
        <time>2020-08-07T17:17:18Z</time>
      </trkpt>
      <trkpt lat="41.0471360" lon="0.5990300">
        <ele>39.9</ele>
        <time>2020-08-07T17:17:20Z</time>
      </trkpt>
      <trkpt lat="41.0471050" lon="0.5990650">
        <ele>39.8</ele>
        <time>2020-08-07T17:17:21Z</time>
      </trkpt>
      <trkpt lat="41.0470750" lon="0.5990980">
        <ele>39.7</ele>
        <time>2020-08-07T17:17:22Z</time>
      </trkpt>
      <trkpt lat="41.0470210" lon="0.5991570">
        <ele>39.6</ele>
        <time>2020-08-07T17:17:24Z</time>
      </trkpt>
      <trkpt lat="41.0469750" lon="0.5991960">
        <ele>39.5</ele>
        <time>2020-08-07T17:17:26Z</time>
      </trkpt>
      <trkpt lat="41.0469050" lon="0.5992260">
        <ele>39.4</ele>
        <time>2020-08-07T17:17:28Z</time>
      </trkpt>
      <trkpt lat="41.0468690" lon="0.5992340">
        <ele>39.4</ele>
        <time>2020-08-07T17:17:29Z</time>
      </trkpt>
      <trkpt lat="41.0468310" lon="0.5992390">
        <ele>39.3</ele>
        <time>2020-08-07T17:17:30Z</time>
      </trkpt>
      <trkpt lat="41.0467600" lon="0.5992450">
        <ele>39.2</ele>
        <time>2020-08-07T17:17:32Z</time>
      </trkpt>
      <trkpt lat="41.0466580" lon="0.5992550">
        <ele>39.1</ele>
        <time>2020-08-07T17:17:34Z</time>
      </trkpt>
      <trkpt lat="41.0466180" lon="0.5992620">
        <ele>39.1</ele>
        <time>2020-08-07T17:17:35Z</time>
      </trkpt>
      <trkpt lat="41.0465390" lon="0.5992750">
        <ele>39.0</ele>
        <time>2020-08-07T17:17:37Z</time>
      </trkpt>
      <trkpt lat="41.0465010" lon="0.5992820">
        <ele>38.9</ele>
        <time>2020-08-07T17:17:38Z</time>
      </trkpt>
      <trkpt lat="41.0464650" lon="0.5992890">
        <ele>38.8</ele>
        <time>2020-08-07T17:17:39Z</time>
      </trkpt>
      <trkpt lat="41.0464280" lon="0.5992960">
        <ele>38.8</ele>
        <time>2020-08-07T17:17:40Z</time>
      </trkpt>
      <trkpt lat="41.0463510" lon="0.5993150">
        <ele>38.6</ele>
        <time>2020-08-07T17:17:42Z</time>
      </trkpt>
      <trkpt lat="41.0462750" lon="0.5993330">
        <ele>38.5</ele>
        <time>2020-08-07T17:17:44Z</time>
      </trkpt>
      <trkpt lat="41.0462380" lon="0.5993410">
        <ele>38.4</ele>
        <time>2020-08-07T17:17:45Z</time>
      </trkpt>
      <trkpt lat="41.0462020" lon="0.5993480">
        <ele>38.3</ele>
        <time>2020-08-07T17:17:46Z</time>
      </trkpt>
      <trkpt lat="41.0461280" lon="0.5993620">
        <ele>38.2</ele>
        <time>2020-08-07T17:17:48Z</time>
      </trkpt>
      <trkpt lat="41.0460500" lon="0.5993800">
        <ele>38.0</ele>
        <time>2020-08-07T17:17:50Z</time>
      </trkpt>
      <trkpt lat="41.0460110" lon="0.5993890">
        <ele>37.9</ele>
        <time>2020-08-07T17:17:51Z</time>
      </trkpt>
      <trkpt lat="41.0459760" lon="0.5993950">
        <ele>37.9</ele>
        <time>2020-08-07T17:17:52Z</time>
      </trkpt>
      <trkpt lat="41.0459440" lon="0.5993970">
        <ele>37.8</ele>
        <time>2020-08-07T17:17:53Z</time>
      </trkpt>
      <trkpt lat="41.0458690" lon="0.5993980">
        <ele>37.6</ele>
        <time>2020-08-07T17:17:55Z</time>
      </trkpt>
      <trkpt lat="41.0458390" lon="0.5993950">
        <ele>37.4</ele>
        <time>2020-08-07T17:17:56Z</time>
      </trkpt>
      <trkpt lat="41.0457960" lon="0.5993860">
        <ele>37.3</ele>
        <time>2020-08-07T17:17:57Z</time>
      </trkpt>
      <trkpt lat="41.0457140" lon="0.5993430">
        <ele>36.9</ele>
        <time>2020-08-07T17:17:59Z</time>
      </trkpt>
      <trkpt lat="41.0456400" lon="0.5992930">
        <ele>36.6</ele>
        <time>2020-08-07T17:18:01Z</time>
      </trkpt>
      <trkpt lat="41.0456020" lon="0.5992680">
        <ele>36.5</ele>
        <time>2020-08-07T17:18:02Z</time>
      </trkpt>
      <trkpt lat="41.0455240" lon="0.5992170">
        <ele>36.2</ele>
        <time>2020-08-07T17:18:04Z</time>
      </trkpt>
      <trkpt lat="41.0454860" lon="0.5991910">
        <ele>36.0</ele>
        <time>2020-08-07T17:18:05Z</time>
      </trkpt>
      <trkpt lat="41.0454100" lon="0.5991430">
        <ele>35.7</ele>
        <time>2020-08-07T17:18:07Z</time>
      </trkpt>
      <trkpt lat="41.0453260" lon="0.5990970">
        <ele>35.4</ele>
        <time>2020-08-07T17:18:09Z</time>
      </trkpt>
      <trkpt lat="41.0452380" lon="0.5990610">
        <ele>35.1</ele>
        <time>2020-08-07T17:18:11Z</time>
      </trkpt>
      <trkpt lat="41.0451530" lon="0.5990270">
        <ele>34.8</ele>
        <time>2020-08-07T17:18:13Z</time>
      </trkpt>
      <trkpt lat="41.0451110" lon="0.5990080">
        <ele>34.7</ele>
        <time>2020-08-07T17:18:14Z</time>
      </trkpt>
      <trkpt lat="41.0450160" lon="0.5989540">
        <ele>34.4</ele>
        <time>2020-08-07T17:18:16Z</time>
      </trkpt>
      <trkpt lat="41.0449270" lon="0.5988950">
        <ele>34.0</ele>
        <time>2020-08-07T17:18:18Z</time>
      </trkpt>
      <trkpt lat="41.0448840" lon="0.5988630">
        <ele>33.9</ele>
        <time>2020-08-07T17:18:19Z</time>
      </trkpt>
      <trkpt lat="41.0447960" lon="0.5988040">
        <ele>33.6</ele>
        <time>2020-08-07T17:18:21Z</time>
      </trkpt>
      <trkpt lat="41.0447070" lon="0.5987450">
        <ele>33.2</ele>
        <time>2020-08-07T17:18:23Z</time>
      </trkpt>
      <trkpt lat="41.0446120" lon="0.5987080">
        <ele>33.0</ele>
        <time>2020-08-07T17:18:25Z</time>
      </trkpt>
      <trkpt lat="41.0445620" lon="0.5987030">
        <ele>32.8</ele>
        <time>2020-08-07T17:18:26Z</time>
      </trkpt>
      <trkpt lat="41.0444650" lon="0.5986860">
        <ele>32.6</ele>
        <time>2020-08-07T17:18:28Z</time>
      </trkpt>
      <trkpt lat="41.0443730" lon="0.5986740">
        <ele>32.3</ele>
        <time>2020-08-07T17:18:30Z</time>
      </trkpt>
      <trkpt lat="41.0443270" lon="0.5986650">
        <ele>32.2</ele>
        <time>2020-08-07T17:18:31Z</time>
      </trkpt>
      <trkpt lat="41.0442800" lon="0.5986520">
        <ele>32.1</ele>
        <time>2020-08-07T17:18:32Z</time>
      </trkpt>
      <trkpt lat="41.0441920" lon="0.5986280">
        <ele>31.9</ele>
        <time>2020-08-07T17:18:34Z</time>
      </trkpt>
      <trkpt lat="41.0441500" lon="0.5986170">
        <ele>31.9</ele>
        <time>2020-08-07T17:18:35Z</time>
      </trkpt>
      <trkpt lat="41.0441090" lon="0.5986080">
        <ele>31.8</ele>
        <time>2020-08-07T17:18:36Z</time>
      </trkpt>
      <trkpt lat="41.0440690" lon="0.5986020">
        <ele>31.7</ele>
        <time>2020-08-07T17:18:37Z</time>
      </trkpt>
      <trkpt lat="41.0440350" lon="0.5985990">
        <ele>31.7</ele>
        <time>2020-08-07T17:18:38Z</time>
      </trkpt>
      <trkpt lat="41.0439960" lon="0.5985860">
        <ele>31.6</ele>
        <time>2020-08-07T17:18:39Z</time>
      </trkpt>
      <trkpt lat="41.0439590" lon="0.5985720">
        <ele>31.5</ele>
        <time>2020-08-07T17:18:40Z</time>
      </trkpt>
      <trkpt lat="41.0438990" lon="0.5985570">
        <ele>31.4</ele>
        <time>2020-08-07T17:18:42Z</time>
      </trkpt>
      <trkpt lat="41.0438180" lon="0.5985350">
        <ele>31.2</ele>
        <time>2020-08-07T17:18:44Z</time>
      </trkpt>
      <trkpt lat="41.0437790" lon="0.5985270">
        <ele>31.1</ele>
        <time>2020-08-07T17:18:46Z</time>
      </trkpt>
      <trkpt lat="41.0437030" lon="0.5985220">
        <ele>30.9</ele>
        <time>2020-08-07T17:18:47Z</time>
      </trkpt>
      <trkpt lat="41.0436290" lon="0.5985350">
        <ele>30.6</ele>
        <time>2020-08-07T17:18:49Z</time>
      </trkpt>
      <trkpt lat="41.0435930" lon="0.5985480">
        <ele>30.4</ele>
        <time>2020-08-07T17:18:50Z</time>
      </trkpt>
      <trkpt lat="41.0435220" lon="0.5985850">
        <ele>30.1</ele>
        <time>2020-08-07T17:18:52Z</time>
      </trkpt>
      <trkpt lat="41.0434920" lon="0.5986080">
        <ele>30.0</ele>
        <time>2020-08-07T17:18:53Z</time>
      </trkpt>
      <trkpt lat="41.0434530" lon="0.5986380">
        <ele>29.8</ele>
        <time>2020-08-07T17:18:54Z</time>
      </trkpt>
      <trkpt lat="41.0433720" lon="0.5987110">
        <ele>29.4</ele>
        <time>2020-08-07T17:18:56Z</time>
      </trkpt>
      <trkpt lat="41.0433320" lon="0.5987410">
        <ele>29.3</ele>
        <time>2020-08-07T17:18:57Z</time>
      </trkpt>
      <trkpt lat="41.0432920" lon="0.5987660">
        <ele>29.1</ele>
        <time>2020-08-07T17:18:58Z</time>
      </trkpt>
      <trkpt lat="41.0432480" lon="0.5987840">
        <ele>28.9</ele>
        <time>2020-08-07T17:18:59Z</time>
      </trkpt>
      <trkpt lat="41.0431470" lon="0.5988370">
        <ele>28.6</ele>
        <time>2020-08-07T17:19:01Z</time>
      </trkpt>
      <trkpt lat="41.0430960" lon="0.5988640">
        <ele>28.5</ele>
        <time>2020-08-07T17:19:02Z</time>
      </trkpt>
      <trkpt lat="41.0430510" lon="0.5989020">
        <ele>28.3</ele>
        <time>2020-08-07T17:19:03Z</time>
      </trkpt>
      <trkpt lat="41.0430050" lon="0.5989290">
        <ele>28.2</ele>
        <time>2020-08-07T17:19:04Z</time>
      </trkpt>
      <trkpt lat="41.0429690" lon="0.5989470">
        <ele>28.2</ele>
        <time>2020-08-07T17:19:05Z</time>
      </trkpt>
      <trkpt lat="41.0428980" lon="0.5989140">
        <ele>28.0</ele>
        <time>2020-08-07T17:19:07Z</time>
      </trkpt>
      <trkpt lat="41.0428570" lon="0.5988830">
        <ele>27.9</ele>
        <time>2020-08-07T17:19:08Z</time>
      </trkpt>
      <trkpt lat="41.0427780" lon="0.5988430">
        <ele>27.8</ele>
        <time>2020-08-07T17:19:10Z</time>
      </trkpt>
      <trkpt lat="41.0427410" lon="0.5988260">
        <ele>27.7</ele>
        <time>2020-08-07T17:19:11Z</time>
      </trkpt>
      <trkpt lat="41.0427020" lon="0.5988180">
        <ele>27.6</ele>
        <time>2020-08-07T17:19:12Z</time>
      </trkpt>
      <trkpt lat="41.0426210" lon="0.5987930">
        <ele>27.5</ele>
        <time>2020-08-07T17:19:14Z</time>
      </trkpt>
      <trkpt lat="41.0425520" lon="0.5987680">
        <ele>27.4</ele>
        <time>2020-08-07T17:19:16Z</time>
      </trkpt>
      <trkpt lat="41.0424710" lon="0.5987380">
        <ele>27.2</ele>
        <time>2020-08-07T17:19:19Z</time>
      </trkpt>
      <trkpt lat="41.0423920" lon="0.5987160">
        <ele>27.1</ele>
        <time>2020-08-07T17:19:20Z</time>
      </trkpt>
      <trkpt lat="41.0423140" lon="0.5986970">
        <ele>27.0</ele>
        <time>2020-08-07T17:19:22Z</time>
      </trkpt>
      <trkpt lat="41.0422800" lon="0.5986890">
        <ele>27.0</ele>
        <time>2020-08-07T17:19:23Z</time>
      </trkpt>
      <trkpt lat="41.0422180" lon="0.5986810">
        <ele>26.9</ele>
        <time>2020-08-07T17:19:25Z</time>
      </trkpt>
      <trkpt lat="41.0421850" lon="0.5986850">
        <ele>26.9</ele>
        <time>2020-08-07T17:19:26Z</time>
      </trkpt>
      <trkpt lat="41.0421210" lon="0.5987020">
        <ele>26.8</ele>
        <time>2020-08-07T17:19:28Z</time>
      </trkpt>
      <trkpt lat="41.0420920" lon="0.5987180">
        <ele>26.8</ele>
        <time>2020-08-07T17:19:29Z</time>
      </trkpt>
      <trkpt lat="41.0420650" lon="0.5987350">
        <ele>26.8</ele>
        <time>2020-08-07T17:19:30Z</time>
      </trkpt>
      <trkpt lat="41.0420130" lon="0.5987720">
        <ele>26.7</ele>
        <time>2020-08-07T17:19:32Z</time>
      </trkpt>
      <trkpt lat="41.0419650" lon="0.5988180">
        <ele>26.6</ele>
        <time>2020-08-07T17:19:34Z</time>
      </trkpt>
      <trkpt lat="41.0419090" lon="0.5988710">
        <ele>26.5</ele>
        <time>2020-08-07T17:19:36Z</time>
      </trkpt>
      <trkpt lat="41.0418780" lon="0.5989010">
        <ele>26.5</ele>
        <time>2020-08-07T17:19:37Z</time>
      </trkpt>
      <trkpt lat="41.0418480" lon="0.5989300">
        <ele>26.4</ele>
        <time>2020-08-07T17:19:38Z</time>
      </trkpt>
      <trkpt lat="41.0417910" lon="0.5989900">
        <ele>26.3</ele>
        <time>2020-08-07T17:19:40Z</time>
      </trkpt>
      <trkpt lat="41.0417350" lon="0.5990470">
        <ele>26.3</ele>
        <time>2020-08-07T17:19:42Z</time>
      </trkpt>
      <trkpt lat="41.0417040" lon="0.5990740">
        <ele>26.2</ele>
        <time>2020-08-07T17:19:43Z</time>
      </trkpt>
      <trkpt lat="41.0416380" lon="0.5991250">
        <ele>26.1</ele>
        <time>2020-08-07T17:19:45Z</time>
      </trkpt>
      <trkpt lat="41.0415730" lon="0.5991780">
        <ele>26.0</ele>
        <time>2020-08-07T17:19:47Z</time>
      </trkpt>
      <trkpt lat="41.0415390" lon="0.5992040">
        <ele>25.9</ele>
        <time>2020-08-07T17:19:48Z</time>
      </trkpt>
      <trkpt lat="41.0415060" lon="0.5992300">
        <ele>25.8</ele>
        <time>2020-08-07T17:19:49Z</time>
      </trkpt>
      <trkpt lat="41.0414790" lon="0.5992530">
        <ele>25.7</ele>
        <time>2020-08-07T17:19:50Z</time>
      </trkpt>
      <trkpt lat="41.0414160" lon="0.5993060">
        <ele>25.6</ele>
        <time>2020-08-07T17:19:52Z</time>
      </trkpt>
      <trkpt lat="41.0413810" lon="0.5993360">
        <ele>25.6</ele>
        <time>2020-08-07T17:19:53Z</time>
      </trkpt>
      <trkpt lat="41.0413120" lon="0.5993950">
        <ele>25.4</ele>
        <time>2020-08-07T17:19:55Z</time>
      </trkpt>
      <trkpt lat="41.0412780" lon="0.5994230">
        <ele>25.4</ele>
        <time>2020-08-07T17:19:56Z</time>
      </trkpt>
      <trkpt lat="41.0412080" lon="0.5994720">
        <ele>25.2</ele>
        <time>2020-08-07T17:19:58Z</time>
      </trkpt>
      <trkpt lat="41.0411580" lon="0.5995070">
        <ele>25.1</ele>
        <time>2020-08-07T17:19:59Z</time>
      </trkpt>
      <trkpt lat="41.0411210" lon="0.5995350">
        <ele>25.1</ele>
        <time>2020-08-07T17:20:01Z</time>
      </trkpt>
      <trkpt lat="41.0410970" lon="0.5995540">
        <ele>25.1</ele>
        <time>2020-08-07T17:20:02Z</time>
      </trkpt>
      <trkpt lat="41.0410770" lon="0.5995690">
        <ele>25.0</ele>
        <time>2020-08-07T17:20:03Z</time>
      </trkpt>
      <trkpt lat="41.0410490" lon="0.5995900">
        <ele>25.0</ele>
        <time>2020-08-07T17:20:05Z</time>
      </trkpt>
      <trkpt lat="41.0410300" lon="0.5996030">
        <ele>25.0</ele>
        <time>2020-08-07T17:20:07Z</time>
      </trkpt>
      <trkpt lat="41.0410110" lon="0.5996130">
        <ele>25.0</ele>
        <time>2020-08-07T17:20:09Z</time>
      </trkpt>
      <trkpt lat="41.0410170" lon="0.5996140">
        <ele>25.0</ele>
        <time>2020-08-07T17:20:10Z</time>
      </trkpt>
      <trkpt lat="41.0410090" lon="0.5996250">
        <ele>25.0</ele>
        <time>2020-08-07T17:20:11Z</time>
      </trkpt>
      <trkpt lat="41.0409970" lon="0.5996450">
        <ele>24.9</ele>
        <time>2020-08-07T17:20:13Z</time>
      </trkpt>
      <trkpt lat="41.0410010" lon="0.5996500">
        <ele>24.9</ele>
        <time>2020-08-07T17:20:14Z</time>
      </trkpt>
      <trkpt lat="41.0409950" lon="0.5996570">
        <ele>24.9</ele>
        <time>2020-08-07T17:20:15Z</time>
      </trkpt>
      <trkpt lat="41.0409860" lon="0.5996680">
        <ele>24.9</ele>
        <time>2020-08-07T17:20:17Z</time>
      </trkpt>
      <trkpt lat="41.0409710" lon="0.5996890">
        <ele>24.9</ele>
        <time>2020-08-07T17:20:19Z</time>
      </trkpt>
      <trkpt lat="41.0409710" lon="0.5996920">
        <ele>24.9</ele>
        <time>2020-08-07T17:20:20Z</time>
      </trkpt>
      <trkpt lat="41.0409720" lon="0.5996950">
        <ele>24.9</ele>
        <time>2020-08-07T17:20:21Z</time>
      </trkpt>
      <trkpt lat="41.0409710" lon="0.5997010">
        <ele>24.9</ele>
        <time>2020-08-07T17:20:22Z</time>
      </trkpt>
      <trkpt lat="41.0409690" lon="0.5997050">
        <ele>24.9</ele>
        <time>2020-08-07T17:20:23Z</time>
      </trkpt>
      <trkpt lat="41.0409650" lon="0.5997150">
        <ele>24.9</ele>
        <time>2020-08-07T17:20:25Z</time>
      </trkpt>
      <trkpt lat="41.0409670" lon="0.5997420">
        <ele>24.9</ele>
        <time>2020-08-07T17:20:27Z</time>
      </trkpt>
      <trkpt lat="41.0409660" lon="0.5997710">
        <ele>24.9</ele>
        <time>2020-08-07T17:20:29Z</time>
      </trkpt>
      <trkpt lat="41.0409610" lon="0.5997790">
        <ele>24.9</ele>
        <time>2020-08-07T17:20:30Z</time>
      </trkpt>
      <trkpt lat="41.0409570" lon="0.5997860">
        <ele>24.9</ele>
        <time>2020-08-07T17:20:31Z</time>
      </trkpt>
      <trkpt lat="41.0409440" lon="0.5997910">
        <ele>24.9</ele>
        <time>2020-08-07T17:20:33Z</time>
      </trkpt>
      <trkpt lat="41.0409390" lon="0.5997940">
        <ele>24.9</ele>
        <time>2020-08-07T17:20:34Z</time>
      </trkpt>
      <trkpt lat="41.0409340" lon="0.5997960">
        <ele>24.9</ele>
        <time>2020-08-07T17:20:35Z</time>
      </trkpt>
      <trkpt lat="41.0409300" lon="0.5997980">
        <ele>24.9</ele>
        <time>2020-08-07T17:20:36Z</time>
      </trkpt>
      <trkpt lat="41.0408670" lon="0.5998580">
        <ele>24.9</ele>
        <time>2020-08-07T17:20:38Z</time>
      </trkpt>
      <trkpt lat="41.0408300" lon="0.5998920">
        <ele>24.9</ele>
        <time>2020-08-07T17:20:39Z</time>
      </trkpt>
      <trkpt lat="41.0407870" lon="0.5999310">
        <ele>24.9</ele>
        <time>2020-08-07T17:20:41Z</time>
      </trkpt>
      <trkpt lat="41.0407830" lon="0.5999350">
        <ele>24.7</ele>
        <time>2020-08-07T17:20:42Z</time>
      </trkpt>
      <trkpt lat="41.0407840" lon="0.5999340">
        <ele>24.7</ele>
        <time>2020-08-07T17:20:43Z</time>
      </trkpt>
      <trkpt lat="41.0407900" lon="0.5999290">
        <ele>24.7</ele>
        <time>2020-08-07T17:20:45Z</time>
      </trkpt>
      <trkpt lat="41.0407950" lon="0.5999250">
        <ele>24.7</ele>
        <time>2020-08-07T17:20:47Z</time>
      </trkpt>
      <trkpt lat="41.0407950" lon="0.5999240">
        <ele>24.7</ele>
        <time>2020-08-07T17:20:48Z</time>
      </trkpt>
      <trkpt lat="41.0407950" lon="0.5999240">
        <ele>24.7</ele>
        <time>2020-08-07T17:20:50Z</time>
      </trkpt>
      <trkpt lat="41.0407950" lon="0.5999240">
        <ele>24.7</ele>
        <time>2020-08-07T17:20:51Z</time>
      </trkpt>
      <trkpt lat="41.0407950" lon="0.5999240">
        <ele>24.7</ele>
        <time>2020-08-07T17:20:53Z</time>
      </trkpt>
      <trkpt lat="41.0408140" lon="0.5999390">
        <ele>24.6</ele>
        <time>2020-08-07T17:23:14Z</time>
      </trkpt>
      <trkpt lat="41.0408240" lon="0.5999430">
        <ele>24.6</ele>
        <time>2020-08-07T17:23:15Z</time>
      </trkpt>
      <trkpt lat="41.0408280" lon="0.5999450">
        <ele>24.6</ele>
        <time>2020-08-07T17:23:16Z</time>
      </trkpt>
      <trkpt lat="41.0408310" lon="0.5999460">
        <ele>24.6</ele>
        <time>2020-08-07T17:23:17Z</time>
      </trkpt>
      <trkpt lat="41.0408350" lon="0.5999470">
        <ele>24.5</ele>
        <time>2020-08-07T17:23:18Z</time>
      </trkpt>
      <trkpt lat="41.0408440" lon="0.5999530">
        <ele>24.5</ele>
        <time>2020-08-07T17:23:20Z</time>
      </trkpt>
      <trkpt lat="41.0408530" lon="0.5999580">
        <ele>24.5</ele>
        <time>2020-08-07T17:23:22Z</time>
      </trkpt>
      <trkpt lat="41.0408550" lon="0.5999610">
        <ele>24.5</ele>
        <time>2020-08-07T17:23:23Z</time>
      </trkpt>
      <trkpt lat="41.0408560" lon="0.5999640">
        <ele>24.5</ele>
        <time>2020-08-07T17:23:24Z</time>
      </trkpt>
      <trkpt lat="41.0408550" lon="0.5999670">
        <ele>24.5</ele>
        <time>2020-08-07T17:23:26Z</time>
      </trkpt>
      <trkpt lat="41.0408550" lon="0.5999670">
        <ele>24.5</ele>
        <time>2020-08-07T17:23:27Z</time>
      </trkpt>
      <trkpt lat="41.0408550" lon="0.5999680">
        <ele>24.4</ele>
        <time>2020-08-07T17:23:29Z</time>
      </trkpt>
      <trkpt lat="41.0408560" lon="0.5999680">
        <ele>24.4</ele>
        <time>2020-08-07T17:23:31Z</time>
      </trkpt>
      <trkpt lat="41.0408570" lon="0.5999680">
        <ele>24.4</ele>
        <time>2020-08-07T17:23:32Z</time>
      </trkpt>
      <trkpt lat="41.0408570" lon="0.5999680">
        <ele>24.4</ele>
        <time>2020-08-07T17:23:33Z</time>
      </trkpt>
      <trkpt lat="41.0408650" lon="0.5999760">
        <ele>24.4</ele>
        <time>2020-08-07T17:24:16Z</time>
      </trkpt>
      <trkpt lat="41.0408770" lon="0.5999920">
        <ele>24.3</ele>
        <time>2020-08-07T17:24:18Z</time>
      </trkpt>
      <trkpt lat="41.0408870" lon="0.6000070">
        <ele>24.3</ele>
        <time>2020-08-07T17:24:19Z</time>
      </trkpt>
      <trkpt lat="41.0409110" lon="0.6000530">
        <ele>24.2</ele>
        <time>2020-08-07T17:24:21Z</time>
      </trkpt>
      <trkpt lat="41.0409250" lon="0.6000840">
        <ele>24.1</ele>
        <time>2020-08-07T17:24:22Z</time>
      </trkpt>
      <trkpt lat="41.0409530" lon="0.6001420">
        <ele>23.9</ele>
        <time>2020-08-07T17:24:24Z</time>
      </trkpt>
      <trkpt lat="41.0409780" lon="0.6001800">
        <ele>23.8</ele>
        <time>2020-08-07T17:24:25Z</time>
      </trkpt>
      <trkpt lat="41.0409870" lon="0.6001920">
        <ele>23.8</ele>
        <time>2020-08-07T17:24:26Z</time>
      </trkpt>
      <trkpt lat="41.0410050" lon="0.6002200">
        <ele>23.7</ele>
        <time>2020-08-07T17:24:27Z</time>
      </trkpt>
      <trkpt lat="41.0410420" lon="0.6002780">
        <ele>23.5</ele>
        <time>2020-08-07T17:24:29Z</time>
      </trkpt>
      <trkpt lat="41.0410610" lon="0.6003070">
        <ele>23.5</ele>
        <time>2020-08-07T17:24:30Z</time>
      </trkpt>
      <trkpt lat="41.0410930" lon="0.6003660">
        <ele>23.3</ele>
        <time>2020-08-07T17:24:32Z</time>
      </trkpt>
      <trkpt lat="41.0411130" lon="0.6004010">
        <ele>23.3</ele>
        <time>2020-08-07T17:24:33Z</time>
      </trkpt>
      <trkpt lat="41.0411540" lon="0.6004710">
        <ele>23.1</ele>
        <time>2020-08-07T17:24:35Z</time>
      </trkpt>
      <trkpt lat="41.0411750" lon="0.6005050">
        <ele>23.0</ele>
        <time>2020-08-07T17:24:36Z</time>
      </trkpt>
      <trkpt lat="41.0411960" lon="0.6005400">
        <ele>22.9</ele>
        <time>2020-08-07T17:24:37Z</time>
      </trkpt>
      <trkpt lat="41.0412180" lon="0.6005780">
        <ele>22.9</ele>
        <time>2020-08-07T17:24:38Z</time>
      </trkpt>
      <trkpt lat="41.0412410" lon="0.6006190">
        <ele>22.8</ele>
        <time>2020-08-07T17:24:39Z</time>
      </trkpt>
      <trkpt lat="41.0412610" lon="0.6006600">
        <ele>22.7</ele>
        <time>2020-08-07T17:24:40Z</time>
      </trkpt>
      <trkpt lat="41.0412820" lon="0.6007020">
        <ele>22.7</ele>
        <time>2020-08-07T17:24:41Z</time>
      </trkpt>
      <trkpt lat="41.0413260" lon="0.6007860">
        <ele>22.6</ele>
        <time>2020-08-07T17:24:43Z</time>
      </trkpt>
      <trkpt lat="41.0413480" lon="0.6008300">
        <ele>22.5</ele>
        <time>2020-08-07T17:24:44Z</time>
      </trkpt>
      <trkpt lat="41.0413880" lon="0.6009230">
        <ele>22.5</ele>
        <time>2020-08-07T17:24:46Z</time>
      </trkpt>
      <trkpt lat="41.0414080" lon="0.6009740">
        <ele>22.4</ele>
        <time>2020-08-07T17:24:47Z</time>
      </trkpt>
      <trkpt lat="41.0414470" lon="0.6010810">
        <ele>22.4</ele>
        <time>2020-08-07T17:24:49Z</time>
      </trkpt>
      <trkpt lat="41.0414640" lon="0.6011360">
        <ele>22.4</ele>
        <time>2020-08-07T17:24:50Z</time>
      </trkpt>
      <trkpt lat="41.0414800" lon="0.6011910">
        <ele>22.3</ele>
        <time>2020-08-07T17:24:51Z</time>
      </trkpt>
      <trkpt lat="41.0415050" lon="0.6012900">
        <ele>22.3</ele>
        <time>2020-08-07T17:24:53Z</time>
      </trkpt>
      <trkpt lat="41.0415210" lon="0.6013460">
        <ele>22.2</ele>
        <time>2020-08-07T17:24:54Z</time>
      </trkpt>
      <trkpt lat="41.0415480" lon="0.6014450">
        <ele>22.1</ele>
        <time>2020-08-07T17:24:56Z</time>
      </trkpt>
      <trkpt lat="41.0415750" lon="0.6015370">
        <ele>22.0</ele>
        <time>2020-08-07T17:24:58Z</time>
      </trkpt>
      <trkpt lat="41.0416030" lon="0.6016270">
        <ele>22.0</ele>
        <time>2020-08-07T17:25:00Z</time>
      </trkpt>
      <trkpt lat="41.0416170" lon="0.6016710">
        <ele>22.0</ele>
        <time>2020-08-07T17:25:01Z</time>
      </trkpt>
      <trkpt lat="41.0416470" lon="0.6017560">
        <ele>22.1</ele>
        <time>2020-08-07T17:25:03Z</time>
      </trkpt>
      <trkpt lat="41.0416780" lon="0.6018390">
        <ele>22.1</ele>
        <time>2020-08-07T17:25:05Z</time>
      </trkpt>
      <trkpt lat="41.0417070" lon="0.6019260">
        <ele>22.2</ele>
        <time>2020-08-07T17:25:07Z</time>
      </trkpt>
      <trkpt lat="41.0417370" lon="0.6020160">
        <ele>22.3</ele>
        <time>2020-08-07T17:25:09Z</time>
      </trkpt>
      <trkpt lat="41.0417510" lon="0.6020580">
        <ele>22.3</ele>
        <time>2020-08-07T17:25:10Z</time>
      </trkpt>
      <trkpt lat="41.0417820" lon="0.6021400">
        <ele>22.4</ele>
        <time>2020-08-07T17:25:12Z</time>
      </trkpt>
      <trkpt lat="41.0417990" lon="0.6021840">
        <ele>22.4</ele>
        <time>2020-08-07T17:25:13Z</time>
      </trkpt>
      <trkpt lat="41.0418130" lon="0.6022270">
        <ele>22.5</ele>
        <time>2020-08-07T17:25:14Z</time>
      </trkpt>
      <trkpt lat="41.0418290" lon="0.6022710">
        <ele>22.5</ele>
        <time>2020-08-07T17:25:15Z</time>
      </trkpt>
      <trkpt lat="41.0418590" lon="0.6023510">
        <ele>22.6</ele>
        <time>2020-08-07T17:25:17Z</time>
      </trkpt>
      <trkpt lat="41.0418910" lon="0.6024340">
        <ele>22.7</ele>
        <time>2020-08-07T17:25:19Z</time>
      </trkpt>
      <trkpt lat="41.0419090" lon="0.6024780">
        <ele>22.7</ele>
        <time>2020-08-07T17:25:20Z</time>
      </trkpt>
      <trkpt lat="41.0419270" lon="0.6025220">
        <ele>22.7</ele>
        <time>2020-08-07T17:25:21Z</time>
      </trkpt>
      <trkpt lat="41.0419570" lon="0.6026070">
        <ele>22.8</ele>
        <time>2020-08-07T17:25:23Z</time>
      </trkpt>
      <trkpt lat="41.0419730" lon="0.6026510">
        <ele>22.9</ele>
        <time>2020-08-07T17:25:24Z</time>
      </trkpt>
      <trkpt lat="41.0420050" lon="0.6027440">
        <ele>23.0</ele>
        <time>2020-08-07T17:25:26Z</time>
      </trkpt>
      <trkpt lat="41.0420380" lon="0.6028360">
        <ele>23.2</ele>
        <time>2020-08-07T17:25:28Z</time>
      </trkpt>
      <trkpt lat="41.0420570" lon="0.6028830">
        <ele>23.3</ele>
        <time>2020-08-07T17:25:29Z</time>
      </trkpt>
      <trkpt lat="41.0420920" lon="0.6029720">
        <ele>23.5</ele>
        <time>2020-08-07T17:25:31Z</time>
      </trkpt>
      <trkpt lat="41.0421270" lon="0.6030590">
        <ele>23.6</ele>
        <time>2020-08-07T17:25:33Z</time>
      </trkpt>
      <trkpt lat="41.0421460" lon="0.6031040">
        <ele>23.8</ele>
        <time>2020-08-07T17:25:34Z</time>
      </trkpt>
      <trkpt lat="41.0421830" lon="0.6031940">
        <ele>24.0</ele>
        <time>2020-08-07T17:25:36Z</time>
      </trkpt>
      <trkpt lat="41.0422190" lon="0.6032810">
        <ele>24.2</ele>
        <time>2020-08-07T17:25:38Z</time>
      </trkpt>
      <trkpt lat="41.0422550" lon="0.6033720">
        <ele>24.4</ele>
        <time>2020-08-07T17:25:40Z</time>
      </trkpt>
      <trkpt lat="41.0422890" lon="0.6034620">
        <ele>24.7</ele>
        <time>2020-08-07T17:25:42Z</time>
      </trkpt>
      <trkpt lat="41.0423020" lon="0.6035040">
        <ele>24.8</ele>
        <time>2020-08-07T17:25:43Z</time>
      </trkpt>
      <trkpt lat="41.0423270" lon="0.6035890">
        <ele>25.0</ele>
        <time>2020-08-07T17:25:45Z</time>
      </trkpt>
      <trkpt lat="41.0423510" lon="0.6036710">
        <ele>25.2</ele>
        <time>2020-08-07T17:25:47Z</time>
      </trkpt>
      <trkpt lat="41.0423620" lon="0.6037090">
        <ele>25.3</ele>
        <time>2020-08-07T17:25:48Z</time>
      </trkpt>
      <trkpt lat="41.0423720" lon="0.6037490">
        <ele>25.5</ele>
        <time>2020-08-07T17:25:49Z</time>
      </trkpt>
      <trkpt lat="41.0423790" lon="0.6037820">
        <ele>25.6</ele>
        <time>2020-08-07T17:25:50Z</time>
      </trkpt>
      <trkpt lat="41.0423900" lon="0.6038500">
        <ele>25.8</ele>
        <time>2020-08-07T17:25:52Z</time>
      </trkpt>
      <trkpt lat="41.0424040" lon="0.6039000">
        <ele>26.0</ele>
        <time>2020-08-07T17:25:53Z</time>
      </trkpt>
      <trkpt lat="41.0424090" lon="0.6039180">
        <ele>26.1</ele>
        <time>2020-08-07T17:25:54Z</time>
      </trkpt>
      <trkpt lat="41.0424310" lon="0.6039890">
        <ele>26.3</ele>
        <time>2020-08-07T17:25:56Z</time>
      </trkpt>
      <trkpt lat="41.0424420" lon="0.6040230">
        <ele>26.5</ele>
        <time>2020-08-07T17:25:57Z</time>
      </trkpt>
      <trkpt lat="41.0424650" lon="0.6040850">
        <ele>26.7</ele>
        <time>2020-08-07T17:25:59Z</time>
      </trkpt>
      <trkpt lat="41.0424810" lon="0.6041180">
        <ele>26.8</ele>
        <time>2020-08-07T17:26:00Z</time>
      </trkpt>
      <trkpt lat="41.0425070" lon="0.6041830">
        <ele>27.1</ele>
        <time>2020-08-07T17:26:02Z</time>
      </trkpt>
      <trkpt lat="41.0425180" lon="0.6042330">
        <ele>27.3</ele>
        <time>2020-08-07T17:26:03Z</time>
      </trkpt>
      <trkpt lat="41.0425220" lon="0.6042500">
        <ele>27.4</ele>
        <time>2020-08-07T17:26:04Z</time>
      </trkpt>
      <trkpt lat="41.0425490" lon="0.6043260">
        <ele>27.7</ele>
        <time>2020-08-07T17:26:06Z</time>
      </trkpt>
      <trkpt lat="41.0425630" lon="0.6043620">
        <ele>27.8</ele>
        <time>2020-08-07T17:26:07Z</time>
      </trkpt>
      <trkpt lat="41.0425960" lon="0.6044290">
        <ele>28.1</ele>
        <time>2020-08-07T17:26:09Z</time>
      </trkpt>
      <trkpt lat="41.0426120" lon="0.6044570">
        <ele>28.2</ele>
        <time>2020-08-07T17:26:10Z</time>
      </trkpt>
      <trkpt lat="41.0426510" lon="0.6045060">
        <ele>28.4</ele>
        <time>2020-08-07T17:26:12Z</time>
      </trkpt>
      <trkpt lat="41.0427050" lon="0.6045420">
        <ele>28.5</ele>
        <time>2020-08-07T17:26:14Z</time>
      </trkpt>
      <trkpt lat="41.0427320" lon="0.6045550">
        <ele>28.5</ele>
        <time>2020-08-07T17:26:15Z</time>
      </trkpt>
      <trkpt lat="41.0427830" lon="0.6045820">
        <ele>28.6</ele>
        <time>2020-08-07T17:26:17Z</time>
      </trkpt>
      <trkpt lat="41.0428110" lon="0.6045960">
        <ele>28.6</ele>
        <time>2020-08-07T17:26:18Z</time>
      </trkpt>
      <trkpt lat="41.0428690" lon="0.6046310">
        <ele>28.6</ele>
        <time>2020-08-07T17:26:20Z</time>
      </trkpt>
      <trkpt lat="41.0428980" lon="0.6046480">
        <ele>28.6</ele>
        <time>2020-08-07T17:26:21Z</time>
      </trkpt>
      <trkpt lat="41.0429640" lon="0.6046840">
        <ele>28.6</ele>
        <time>2020-08-07T17:26:23Z</time>
      </trkpt>
      <trkpt lat="41.0429950" lon="0.6047040">
        <ele>28.6</ele>
        <time>2020-08-07T17:26:24Z</time>
      </trkpt>
      <trkpt lat="41.0430270" lon="0.6047260">
        <ele>28.6</ele>
        <time>2020-08-07T17:26:25Z</time>
      </trkpt>
      <trkpt lat="41.0430600" lon="0.6047480">
        <ele>28.5</ele>
        <time>2020-08-07T17:26:26Z</time>
      </trkpt>
      <trkpt lat="41.0431240" lon="0.6047980">
        <ele>28.5</ele>
        <time>2020-08-07T17:26:28Z</time>
      </trkpt>
      <trkpt lat="41.0431540" lon="0.6048240">
        <ele>28.5</ele>
        <time>2020-08-07T17:26:29Z</time>
      </trkpt>
      <trkpt lat="41.0431820" lon="0.6048480">
        <ele>28.5</ele>
        <time>2020-08-07T17:26:30Z</time>
      </trkpt>
      <trkpt lat="41.0432110" lon="0.6048710">
        <ele>28.5</ele>
        <time>2020-08-07T17:26:31Z</time>
      </trkpt>
      <trkpt lat="41.0432400" lon="0.6048770">
        <ele>28.5</ele>
        <time>2020-08-07T17:26:32Z</time>
      </trkpt>
      <trkpt lat="41.0432660" lon="0.6048650">
        <ele>28.4</ele>
        <time>2020-08-07T17:26:33Z</time>
      </trkpt>
      <trkpt lat="41.0432890" lon="0.6048440">
        <ele>28.4</ele>
        <time>2020-08-07T17:26:34Z</time>
      </trkpt>
      <trkpt lat="41.0433030" lon="0.6048060">
        <ele>28.4</ele>
        <time>2020-08-07T17:26:35Z</time>
      </trkpt>
      <trkpt lat="41.0433140" lon="0.6047850">
        <ele>28.4</ele>
        <time>2020-08-07T17:26:37Z</time>
      </trkpt>
      <trkpt lat="41.0433290" lon="0.6047760">
        <ele>28.4</ele>
        <time>2020-08-07T17:26:38Z</time>
      </trkpt>
      <trkpt lat="41.0433520" lon="0.6048090">
        <ele>28.4</ele>
        <time>2020-08-07T17:26:39Z</time>
      </trkpt>
      <trkpt lat="41.0433620" lon="0.6048170">
        <ele>28.4</ele>
        <time>2020-08-07T17:26:40Z</time>
      </trkpt>
      <trkpt lat="41.0433980" lon="0.6048630">
        <ele>28.4</ele>
        <time>2020-08-07T17:26:42Z</time>
      </trkpt>
      <trkpt lat="41.0434170" lon="0.6049010">
        <ele>28.4</ele>
        <time>2020-08-07T17:26:43Z</time>
      </trkpt>
      <trkpt lat="41.0434580" lon="0.6049310">
        <ele>28.3</ele>
        <time>2020-08-07T17:26:45Z</time>
      </trkpt>
      <trkpt lat="41.0434830" lon="0.6049520">
        <ele>28.3</ele>
        <time>2020-08-07T17:26:46Z</time>
      </trkpt>
      <trkpt lat="41.0435130" lon="0.6049970">
        <ele>28.3</ele>
        <time>2020-08-07T17:26:47Z</time>
      </trkpt>
      <trkpt lat="41.0435400" lon="0.6050330">
        <ele>28.2</ele>
        <time>2020-08-07T17:26:49Z</time>
      </trkpt>
      <trkpt lat="41.0435750" lon="0.6050740">
        <ele>28.2</ele>
        <time>2020-08-07T17:26:50Z</time>
      </trkpt>
      <trkpt lat="41.0435970" lon="0.6051050">
        <ele>28.2</ele>
        <time>2020-08-07T17:26:52Z</time>
      </trkpt>
      <trkpt lat="41.0436410" lon="0.6051530">
        <ele>28.1</ele>
        <time>2020-08-07T17:26:54Z</time>
      </trkpt>
      <trkpt lat="41.0436760" lon="0.6052010">
        <ele>28.0</ele>
        <time>2020-08-07T17:26:56Z</time>
      </trkpt>
      <trkpt lat="41.0436790" lon="0.6052720">
        <ele>28.0</ele>
        <time>2020-08-07T17:26:58Z</time>
      </trkpt>
      <trkpt lat="41.0436870" lon="0.6053140">
        <ele>28.0</ele>
        <time>2020-08-07T17:26:59Z</time>
      </trkpt>
      <trkpt lat="41.0436910" lon="0.6053270">
        <ele>28.0</ele>
        <time>2020-08-07T17:27:00Z</time>
      </trkpt>
      <trkpt lat="41.0437140" lon="0.6053740">
        <ele>28.0</ele>
        <time>2020-08-07T17:27:02Z</time>
      </trkpt>
      <trkpt lat="41.0437280" lon="0.6053940">
        <ele>28.0</ele>
        <time>2020-08-07T17:27:03Z</time>
      </trkpt>
      <trkpt lat="41.0437570" lon="0.6054300">
        <ele>28.0</ele>
        <time>2020-08-07T17:27:05Z</time>
      </trkpt>
      <trkpt lat="41.0437920" lon="0.6054880">
        <ele>28.0</ele>
        <time>2020-08-07T17:27:06Z</time>
      </trkpt>
      <trkpt lat="41.0438470" lon="0.6055020">
        <ele>28.0</ele>
        <time>2020-08-07T17:27:07Z</time>
      </trkpt>
      <trkpt lat="41.0439330" lon="0.6054960">
        <ele>28.0</ele>
        <time>2020-08-07T17:27:09Z</time>
      </trkpt>
      <trkpt lat="41.0440070" lon="0.6055050">
        <ele>28.0</ele>
        <time>2020-08-07T17:27:10Z</time>
      </trkpt>
      <trkpt lat="41.0441560" lon="0.6055560">
        <ele>28.0</ele>
        <time>2020-08-07T17:27:12Z</time>
      </trkpt>
      <trkpt lat="41.0443020" lon="0.6057410">
        <ele>28.1</ele>
        <time>2020-08-07T17:27:13Z</time>
      </trkpt>
      <trkpt lat="41.0445580" lon="0.6061250">
        <ele>28.2</ele>
        <time>2020-08-07T17:27:14Z</time>
      </trkpt>
      <trkpt lat="41.0446130" lon="0.6061990">
        <ele>28.1</ele>
        <time>2020-08-07T17:27:16Z</time>
      </trkpt>
      <trkpt lat="41.0446800" lon="0.6062780">
        <ele>28.1</ele>
        <time>2020-08-07T17:27:18Z</time>
      </trkpt>
      <trkpt lat="41.0447430" lon="0.6063510">
        <ele>28.0</ele>
        <time>2020-08-07T17:27:20Z</time>
      </trkpt>
      <trkpt lat="41.0447280" lon="0.6063540">
        <ele>28.0</ele>
        <time>2020-08-07T17:27:21Z</time>
      </trkpt>
      <trkpt lat="41.0447120" lon="0.6063630">
        <ele>28.0</ele>
        <time>2020-08-07T17:27:22Z</time>
      </trkpt>
      <trkpt lat="41.0447340" lon="0.6064130">
        <ele>27.9</ele>
        <time>2020-08-07T17:27:23Z</time>
      </trkpt>
      <trkpt lat="41.0447570" lon="0.6064410">
        <ele>27.9</ele>
        <time>2020-08-07T17:27:24Z</time>
      </trkpt>
      <trkpt lat="41.0448640" lon="0.6065290">
        <ele>27.8</ele>
        <time>2020-08-07T17:27:25Z</time>
      </trkpt>
      <trkpt lat="41.0449110" lon="0.6065720">
        <ele>27.7</ele>
        <time>2020-08-07T17:27:27Z</time>
      </trkpt>
      <trkpt lat="41.0449530" lon="0.6066090">
        <ele>27.6</ele>
        <time>2020-08-07T17:27:28Z</time>
      </trkpt>
      <trkpt lat="41.0449930" lon="0.6066450">
        <ele>27.5</ele>
        <time>2020-08-07T17:27:29Z</time>
      </trkpt>
      <trkpt lat="41.0450990" lon="0.6067710">
        <ele>27.2</ele>
        <time>2020-08-07T17:27:31Z</time>
      </trkpt>
      <trkpt lat="41.0451820" lon="0.6068680">
        <ele>27.0</ele>
        <time>2020-08-07T17:27:33Z</time>
      </trkpt>
      <trkpt lat="41.0452210" lon="0.6069130">
        <ele>26.9</ele>
        <time>2020-08-07T17:27:34Z</time>
      </trkpt>
      <trkpt lat="41.0452590" lon="0.6069600">
        <ele>26.8</ele>
        <time>2020-08-07T17:27:35Z</time>
      </trkpt>
      <trkpt lat="41.0452980" lon="0.6070060">
        <ele>26.7</ele>
        <time>2020-08-07T17:27:36Z</time>
      </trkpt>
      <trkpt lat="41.0453850" lon="0.6070830">
        <ele>26.5</ele>
        <time>2020-08-07T17:27:38Z</time>
      </trkpt>
      <trkpt lat="41.0454590" lon="0.6071720">
        <ele>26.4</ele>
        <time>2020-08-07T17:27:40Z</time>
      </trkpt>
      <trkpt lat="41.0454980" lon="0.6072180">
        <ele>26.3</ele>
        <time>2020-08-07T17:27:41Z</time>
      </trkpt>
      <trkpt lat="41.0455360" lon="0.6072590">
        <ele>26.2</ele>
        <time>2020-08-07T17:27:42Z</time>
      </trkpt>
      <trkpt lat="41.0456170" lon="0.6073430">
        <ele>26.0</ele>
        <time>2020-08-07T17:27:44Z</time>
      </trkpt>
      <trkpt lat="41.0456810" lon="0.6074260">
        <ele>25.9</ele>
        <time>2020-08-07T17:27:46Z</time>
      </trkpt>
      <trkpt lat="41.0457520" lon="0.6075270">
        <ele>25.7</ele>
        <time>2020-08-07T17:27:48Z</time>
      </trkpt>
      <trkpt lat="41.0458180" lon="0.6076170">
        <ele>25.6</ele>
        <time>2020-08-07T17:27:50Z</time>
      </trkpt>
      <trkpt lat="41.0458530" lon="0.6076660">
        <ele>25.6</ele>
        <time>2020-08-07T17:27:51Z</time>
      </trkpt>
      <trkpt lat="41.0459470" lon="0.6077850">
        <ele>25.4</ele>
        <time>2020-08-07T17:27:53Z</time>
      </trkpt>
      <trkpt lat="41.0459920" lon="0.6078430">
        <ele>25.4</ele>
        <time>2020-08-07T17:27:54Z</time>
      </trkpt>
      <trkpt lat="41.0460780" lon="0.6079330">
        <ele>25.3</ele>
        <time>2020-08-07T17:27:56Z</time>
      </trkpt>
      <trkpt lat="41.0461560" lon="0.6080000">
        <ele>25.3</ele>
        <time>2020-08-07T17:27:58Z</time>
      </trkpt>
      <trkpt lat="41.0461930" lon="0.6080350">
        <ele>25.3</ele>
        <time>2020-08-07T17:27:59Z</time>
      </trkpt>
      <trkpt lat="41.0462670" lon="0.6081310">
        <ele>25.3</ele>
        <time>2020-08-07T17:28:01Z</time>
      </trkpt>
      <trkpt lat="41.0462990" lon="0.6081840">
        <ele>25.3</ele>
        <time>2020-08-07T17:28:02Z</time>
      </trkpt>
      <trkpt lat="41.0463660" lon="0.6082890">
        <ele>25.3</ele>
        <time>2020-08-07T17:28:04Z</time>
      </trkpt>
      <trkpt lat="41.0464330" lon="0.6083870">
        <ele>25.3</ele>
        <time>2020-08-07T17:28:06Z</time>
      </trkpt>
      <trkpt lat="41.0464630" lon="0.6084360">
        <ele>25.3</ele>
        <time>2020-08-07T17:28:07Z</time>
      </trkpt>
      <trkpt lat="41.0464920" lon="0.6084780">
        <ele>25.2</ele>
        <time>2020-08-07T17:28:08Z</time>
      </trkpt>
      <trkpt lat="41.0465500" lon="0.6085670">
        <ele>25.0</ele>
        <time>2020-08-07T17:28:10Z</time>
      </trkpt>
      <trkpt lat="41.0466080" lon="0.6086500">
        <ele>24.9</ele>
        <time>2020-08-07T17:28:12Z</time>
      </trkpt>
      <trkpt lat="41.0466680" lon="0.6087280">
        <ele>24.8</ele>
        <time>2020-08-07T17:28:14Z</time>
      </trkpt>
      <trkpt lat="41.0467110" lon="0.6087660">
        <ele>24.8</ele>
        <time>2020-08-07T17:28:15Z</time>
      </trkpt>
      <trkpt lat="41.0467860" lon="0.6088540">
        <ele>24.8</ele>
        <time>2020-08-07T17:28:17Z</time>
      </trkpt>
      <trkpt lat="41.0468560" lon="0.6089540">
        <ele>24.8</ele>
        <time>2020-08-07T17:28:19Z</time>
      </trkpt>
      <trkpt lat="41.0468850" lon="0.6090000">
        <ele>24.8</ele>
        <time>2020-08-07T17:28:20Z</time>
      </trkpt>
      <trkpt lat="41.0469390" lon="0.6090820">
        <ele>24.9</ele>
        <time>2020-08-07T17:28:22Z</time>
      </trkpt>
      <trkpt lat="41.0469720" lon="0.6091260">
        <ele>24.9</ele>
        <time>2020-08-07T17:28:23Z</time>
      </trkpt>
      <trkpt lat="41.0470280" lon="0.6092090">
        <ele>24.9</ele>
        <time>2020-08-07T17:28:25Z</time>
      </trkpt>
      <trkpt lat="41.0470570" lon="0.6092590">
        <ele>25.0</ele>
        <time>2020-08-07T17:28:26Z</time>
      </trkpt>
      <trkpt lat="41.0471200" lon="0.6093550">
        <ele>25.0</ele>
        <time>2020-08-07T17:28:28Z</time>
      </trkpt>
      <trkpt lat="41.0471510" lon="0.6094010">
        <ele>25.1</ele>
        <time>2020-08-07T17:28:29Z</time>
      </trkpt>
      <trkpt lat="41.0471970" lon="0.6094800">
        <ele>25.1</ele>
        <time>2020-08-07T17:28:31Z</time>
      </trkpt>
      <trkpt lat="41.0472580" lon="0.6095730">
        <ele>25.2</ele>
        <time>2020-08-07T17:28:33Z</time>
      </trkpt>
      <trkpt lat="41.0472910" lon="0.6096170">
        <ele>25.3</ele>
        <time>2020-08-07T17:28:34Z</time>
      </trkpt>
      <trkpt lat="41.0473220" lon="0.6096610">
        <ele>25.3</ele>
        <time>2020-08-07T17:28:35Z</time>
      </trkpt>
      <trkpt lat="41.0473480" lon="0.6097030">
        <ele>25.4</ele>
        <time>2020-08-07T17:28:36Z</time>
      </trkpt>
      <trkpt lat="41.0473740" lon="0.6097410">
        <ele>25.4</ele>
        <time>2020-08-07T17:28:37Z</time>
      </trkpt>
      <trkpt lat="41.0474350" lon="0.6098280">
        <ele>25.4</ele>
        <time>2020-08-07T17:28:39Z</time>
      </trkpt>
      <trkpt lat="41.0474620" lon="0.6098630">
        <ele>25.5</ele>
        <time>2020-08-07T17:28:40Z</time>
      </trkpt>
      <trkpt lat="41.0474940" lon="0.6099070">
        <ele>25.5</ele>
        <time>2020-08-07T17:28:41Z</time>
      </trkpt>
      <trkpt lat="41.0475540" lon="0.6099910">
        <ele>25.5</ele>
        <time>2020-08-07T17:28:43Z</time>
      </trkpt>
      <trkpt lat="41.0476140" lon="0.6100760">
        <ele>25.5</ele>
        <time>2020-08-07T17:28:45Z</time>
      </trkpt>
      <trkpt lat="41.0476460" lon="0.6101180">
        <ele>25.5</ele>
        <time>2020-08-07T17:28:46Z</time>
      </trkpt>
      <trkpt lat="41.0477070" lon="0.6101990">
        <ele>25.5</ele>
        <time>2020-08-07T17:28:48Z</time>
      </trkpt>
      <trkpt lat="41.0477670" lon="0.6102840">
        <ele>25.6</ele>
        <time>2020-08-07T17:28:50Z</time>
      </trkpt>
      <trkpt lat="41.0477960" lon="0.6103230">
        <ele>25.6</ele>
        <time>2020-08-07T17:28:51Z</time>
      </trkpt>
      <trkpt lat="41.0478220" lon="0.6103580">
        <ele>25.7</ele>
        <time>2020-08-07T17:28:52Z</time>
      </trkpt>
      <trkpt lat="41.0478500" lon="0.6103960">
        <ele>25.7</ele>
        <time>2020-08-07T17:28:53Z</time>
      </trkpt>
      <trkpt lat="41.0478810" lon="0.6104360">
        <ele>25.7</ele>
        <time>2020-08-07T17:28:54Z</time>
      </trkpt>
      <trkpt lat="41.0479130" lon="0.6104800">
        <ele>25.8</ele>
        <time>2020-08-07T17:28:55Z</time>
      </trkpt>
      <trkpt lat="41.0479450" lon="0.6105240">
        <ele>25.8</ele>
        <time>2020-08-07T17:28:56Z</time>
      </trkpt>
      <trkpt lat="41.0480060" lon="0.6106080">
        <ele>25.8</ele>
        <time>2020-08-07T17:28:58Z</time>
      </trkpt>
      <trkpt lat="41.0480660" lon="0.6106960">
        <ele>25.9</ele>
        <time>2020-08-07T17:29:00Z</time>
      </trkpt>
      <trkpt lat="41.0480940" lon="0.6107410">
        <ele>25.9</ele>
        <time>2020-08-07T17:29:01Z</time>
      </trkpt>
      <trkpt lat="41.0481490" lon="0.6108290">
        <ele>25.9</ele>
        <time>2020-08-07T17:29:03Z</time>
      </trkpt>
      <trkpt lat="41.0482060" lon="0.6109210">
        <ele>26.0</ele>
        <time>2020-08-07T17:29:05Z</time>
      </trkpt>
      <trkpt lat="41.0482600" lon="0.6110050">
        <ele>26.0</ele>
        <time>2020-08-07T17:29:07Z</time>
      </trkpt>
      <trkpt lat="41.0482860" lon="0.6110420">
        <ele>26.0</ele>
        <time>2020-08-07T17:29:08Z</time>
      </trkpt>
      <trkpt lat="41.0483400" lon="0.6111250">
        <ele>26.0</ele>
        <time>2020-08-07T17:29:10Z</time>
      </trkpt>
      <trkpt lat="41.0483670" lon="0.6111690">
        <ele>26.0</ele>
        <time>2020-08-07T17:29:11Z</time>
      </trkpt>
      <trkpt lat="41.0483930" lon="0.6112110">
        <ele>26.0</ele>
        <time>2020-08-07T17:29:12Z</time>
      </trkpt>
      <trkpt lat="41.0484440" lon="0.6112880">
        <ele>26.0</ele>
        <time>2020-08-07T17:29:14Z</time>
      </trkpt>
      <trkpt lat="41.0484690" lon="0.6113280">
        <ele>26.0</ele>
        <time>2020-08-07T17:29:15Z</time>
      </trkpt>
      <trkpt lat="41.0484940" lon="0.6113660">
        <ele>25.9</ele>
        <time>2020-08-07T17:29:16Z</time>
      </trkpt>
      <trkpt lat="41.0485520" lon="0.6114420">
        <ele>25.9</ele>
        <time>2020-08-07T17:29:18Z</time>
      </trkpt>
      <trkpt lat="41.0486150" lon="0.6115200">
        <ele>25.9</ele>
        <time>2020-08-07T17:29:20Z</time>
      </trkpt>
      <trkpt lat="41.0486420" lon="0.6115560">
        <ele>25.9</ele>
        <time>2020-08-07T17:29:21Z</time>
      </trkpt>
      <trkpt lat="41.0486650" lon="0.6115900">
        <ele>25.9</ele>
        <time>2020-08-07T17:29:22Z</time>
      </trkpt>
      <trkpt lat="41.0487090" lon="0.6116570">
        <ele>26.0</ele>
        <time>2020-08-07T17:29:24Z</time>
      </trkpt>
      <trkpt lat="41.0487550" lon="0.6117230">
        <ele>26.0</ele>
        <time>2020-08-07T17:29:26Z</time>
      </trkpt>
      <trkpt lat="41.0488080" lon="0.6117910">
        <ele>26.0</ele>
        <time>2020-08-07T17:29:28Z</time>
      </trkpt>
      <trkpt lat="41.0488330" lon="0.6118250">
        <ele>26.0</ele>
        <time>2020-08-07T17:29:29Z</time>
      </trkpt>
      <trkpt lat="41.0488550" lon="0.6118570">
        <ele>26.0</ele>
        <time>2020-08-07T17:29:30Z</time>
      </trkpt>
      <trkpt lat="41.0488870" lon="0.6119050">
        <ele>26.0</ele>
        <time>2020-08-07T17:29:32Z</time>
      </trkpt>
      <trkpt lat="41.0488950" lon="0.6119190">
        <ele>26.0</ele>
        <time>2020-08-07T17:29:33Z</time>
      </trkpt>
      <trkpt lat="41.0488990" lon="0.6119230">
        <ele>26.0</ele>
        <time>2020-08-07T17:29:35Z</time>
      </trkpt>
      <trkpt lat="41.0488960" lon="0.6119100">
        <ele>26.0</ele>
        <time>2020-08-07T17:29:37Z</time>
      </trkpt>
      <trkpt lat="41.0488880" lon="0.6118910">
        <ele>26.0</ele>
        <time>2020-08-07T17:29:38Z</time>
      </trkpt>
      <trkpt lat="41.0488740" lon="0.6118610">
        <ele>26.0</ele>
        <time>2020-08-07T17:29:40Z</time>
      </trkpt>
      <trkpt lat="41.0488740" lon="0.6118540">
        <ele>26.0</ele>
        <time>2020-08-07T17:29:42Z</time>
      </trkpt>
      <trkpt lat="41.0488750" lon="0.6118540">
        <ele>26.0</ele>
        <time>2020-08-07T17:29:43Z</time>
      </trkpt>
      <trkpt lat="41.0488750" lon="0.6118530">
        <ele>26.0</ele>
        <time>2020-08-07T17:29:45Z</time>
      </trkpt>
      <trkpt lat="41.0488740" lon="0.6118510">
        <ele>26.0</ele>
        <time>2020-08-07T17:29:46Z</time>
      </trkpt>
      <trkpt lat="41.0488730" lon="0.6118500">
        <ele>26.0</ele>
        <time>2020-08-07T17:29:48Z</time>
      </trkpt>
      <trkpt lat="41.0488730" lon="0.6118500">
        <ele>26.0</ele>
        <time>2020-08-07T17:29:49Z</time>
      </trkpt>
      <trkpt lat="41.0488730" lon="0.6118510">
        <ele>26.0</ele>
        <time>2020-08-07T17:29:51Z</time>
      </trkpt>
      <trkpt lat="41.0488730" lon="0.6118510">
        <ele>26.0</ele>
        <time>2020-08-07T17:29:52Z</time>
      </trkpt>
      <trkpt lat="41.0488730" lon="0.6118510">
        <ele>26.0</ele>
        <time>2020-08-07T17:29:53Z</time>
      </trkpt>
      <trkpt lat="41.0488930" lon="0.6118880">
        <ele>26.0</ele>
        <time>2020-08-07T17:30:20Z</time>
      </trkpt>
      <trkpt lat="41.0488960" lon="0.6119160">
        <ele>26.0</ele>
        <time>2020-08-07T17:30:22Z</time>
      </trkpt>
      <trkpt lat="41.0488940" lon="0.6119310">
        <ele>25.9</ele>
        <time>2020-08-07T17:30:24Z</time>
      </trkpt>
      <trkpt lat="41.0488920" lon="0.6119320">
        <ele>25.9</ele>
        <time>2020-08-07T17:30:25Z</time>
      </trkpt>
      <trkpt lat="41.0488920" lon="0.6119330">
        <ele>25.9</ele>
        <time>2020-08-07T17:30:27Z</time>
      </trkpt>
      <trkpt lat="41.0488940" lon="0.6119350">
        <ele>25.9</ele>
        <time>2020-08-07T17:30:29Z</time>
      </trkpt>
      <trkpt lat="41.0488940" lon="0.6119360">
        <ele>25.9</ele>
        <time>2020-08-07T17:30:30Z</time>
      </trkpt>
      <trkpt lat="41.0488930" lon="0.6119360">
        <ele>25.9</ele>
        <time>2020-08-07T17:30:31Z</time>
      </trkpt>
      <trkpt lat="41.0488930" lon="0.6119340">
        <ele>25.9</ele>
        <time>2020-08-07T17:30:32Z</time>
      </trkpt>
      <trkpt lat="41.0488920" lon="0.6119320">
        <ele>25.9</ele>
        <time>2020-08-07T17:30:34Z</time>
      </trkpt>
      <trkpt lat="41.0488920" lon="0.6119320">
        <ele>25.9</ele>
        <time>2020-08-07T17:30:35Z</time>
      </trkpt>
      <trkpt lat="41.0489220" lon="0.6119310">
        <ele>25.9</ele>
        <time>2020-08-07T17:32:02Z</time>
      </trkpt>
      <trkpt lat="41.0489340" lon="0.6119150">
        <ele>25.9</ele>
        <time>2020-08-07T17:32:03Z</time>
      </trkpt>
      <trkpt lat="41.0489300" lon="0.6118510">
        <ele>25.9</ele>
        <time>2020-08-07T17:32:05Z</time>
      </trkpt>
      <trkpt lat="41.0489040" lon="0.6118110">
        <ele>25.9</ele>
        <time>2020-08-07T17:32:06Z</time>
      </trkpt>
      <trkpt lat="41.0488930" lon="0.6117980">
        <ele>25.9</ele>
        <time>2020-08-07T17:32:07Z</time>
      </trkpt>
      <trkpt lat="41.0488480" lon="0.6117370">
        <ele>25.9</ele>
        <time>2020-08-07T17:32:09Z</time>
      </trkpt>
      <trkpt lat="41.0488040" lon="0.6116770">
        <ele>25.9</ele>
        <time>2020-08-07T17:32:11Z</time>
      </trkpt>
      <trkpt lat="41.0487630" lon="0.6116280">
        <ele>25.9</ele>
        <time>2020-08-07T17:32:13Z</time>
      </trkpt>
      <trkpt lat="41.0487440" lon="0.6116050">
        <ele>26.0</ele>
        <time>2020-08-07T17:32:14Z</time>
      </trkpt>
      <trkpt lat="41.0486970" lon="0.6115480">
        <ele>26.0</ele>
        <time>2020-08-07T17:32:16Z</time>
      </trkpt>
      <trkpt lat="41.0486750" lon="0.6115220">
        <ele>26.0</ele>
        <time>2020-08-07T17:32:17Z</time>
      </trkpt>
      <trkpt lat="41.0486230" lon="0.6114550">
        <ele>26.0</ele>
        <time>2020-08-07T17:32:19Z</time>
      </trkpt>
      <trkpt lat="41.0485720" lon="0.6113850">
        <ele>26.0</ele>
        <time>2020-08-07T17:32:21Z</time>
      </trkpt>
      <trkpt lat="41.0485510" lon="0.6113570">
        <ele>26.0</ele>
        <time>2020-08-07T17:32:22Z</time>
      </trkpt>
      <trkpt lat="41.0483090" lon="0.6110490">
        <ele>25.9</ele>
        <time>2020-08-07T17:32:31Z</time>
      </trkpt>
      <trkpt lat="41.0482350" lon="0.6109480">
        <ele>25.8</ele>
        <time>2020-08-07T17:32:32Z</time>
      </trkpt>
      <trkpt lat="41.0482040" lon="0.6109040">
        <ele>25.8</ele>
        <time>2020-08-07T17:32:34Z</time>
      </trkpt>
      <trkpt lat="41.0481480" lon="0.6108190">
        <ele>25.8</ele>
        <time>2020-08-07T17:32:36Z</time>
      </trkpt>
      <trkpt lat="41.0481200" lon="0.6107750">
        <ele>25.8</ele>
        <time>2020-08-07T17:32:37Z</time>
      </trkpt>
      <trkpt lat="41.0480950" lon="0.6107330">
        <ele>25.8</ele>
        <time>2020-08-07T17:32:38Z</time>
      </trkpt>
      <trkpt lat="41.0480680" lon="0.6106920">
        <ele>25.8</ele>
        <time>2020-08-07T17:32:39Z</time>
      </trkpt>
      <trkpt lat="41.0480070" lon="0.6106170">
        <ele>25.7</ele>
        <time>2020-08-07T17:32:41Z</time>
      </trkpt>
      <trkpt lat="41.0479410" lon="0.6105420">
        <ele>25.6</ele>
        <time>2020-08-07T17:32:43Z</time>
      </trkpt>
      <trkpt lat="41.0478830" lon="0.6104620">
        <ele>25.5</ele>
        <time>2020-08-07T17:32:45Z</time>
      </trkpt>
      <trkpt lat="41.0478400" lon="0.6103990">
        <ele>25.5</ele>
        <time>2020-08-07T17:32:46Z</time>
      </trkpt>
      <trkpt lat="41.0478260" lon="0.6103790">
        <ele>25.5</ele>
        <time>2020-08-07T17:32:47Z</time>
      </trkpt>
      <trkpt lat="41.0477980" lon="0.6103390">
        <ele>25.5</ele>
        <time>2020-08-07T17:32:48Z</time>
      </trkpt>
      <trkpt lat="41.0477470" lon="0.6102530">
        <ele>25.5</ele>
        <time>2020-08-07T17:32:50Z</time>
      </trkpt>
      <trkpt lat="41.0477210" lon="0.6102020">
        <ele>25.5</ele>
        <time>2020-08-07T17:32:51Z</time>
      </trkpt>
      <trkpt lat="41.0476940" lon="0.6101530">
        <ele>25.5</ele>
        <time>2020-08-07T17:32:52Z</time>
      </trkpt>
      <trkpt lat="41.0476490" lon="0.6100780">
        <ele>25.5</ele>
        <time>2020-08-07T17:32:54Z</time>
      </trkpt>
      <trkpt lat="41.0476200" lon="0.6100370">
        <ele>25.5</ele>
        <time>2020-08-07T17:32:55Z</time>
      </trkpt>
      <trkpt lat="41.0475710" lon="0.6099730">
        <ele>25.4</ele>
        <time>2020-08-07T17:32:57Z</time>
      </trkpt>
      <trkpt lat="41.0475230" lon="0.6099080">
        <ele>25.4</ele>
        <time>2020-08-07T17:32:59Z</time>
      </trkpt>
      <trkpt lat="41.0474920" lon="0.6098670">
        <ele>25.4</ele>
        <time>2020-08-07T17:33:00Z</time>
      </trkpt>
      <trkpt lat="41.0474600" lon="0.6098220">
        <ele>25.4</ele>
        <time>2020-08-07T17:33:01Z</time>
      </trkpt>
      <trkpt lat="41.0474030" lon="0.6097410">
        <ele>25.3</ele>
        <time>2020-08-07T17:33:03Z</time>
      </trkpt>
      <trkpt lat="41.0473380" lon="0.6096530">
        <ele>25.2</ele>
        <time>2020-08-07T17:33:05Z</time>
      </trkpt>
      <trkpt lat="41.0473050" lon="0.6096060">
        <ele>25.1</ele>
        <time>2020-08-07T17:33:06Z</time>
      </trkpt>
      <trkpt lat="41.0472470" lon="0.6095240">
        <ele>25.1</ele>
        <time>2020-08-07T17:33:08Z</time>
      </trkpt>
      <trkpt lat="41.0472160" lon="0.6094870">
        <ele>25.0</ele>
        <time>2020-08-07T17:33:09Z</time>
      </trkpt>
      <trkpt lat="41.0471940" lon="0.6094600">
        <ele>25.0</ele>
        <time>2020-08-07T17:33:10Z</time>
      </trkpt>
      <trkpt lat="41.0471270" lon="0.6093700">
        <ele>25.0</ele>
        <time>2020-08-07T17:33:12Z</time>
      </trkpt>
      <trkpt lat="41.0470910" lon="0.6093250">
        <ele>24.9</ele>
        <time>2020-08-07T17:33:13Z</time>
      </trkpt>
      <trkpt lat="41.0470310" lon="0.6092430">
        <ele>24.9</ele>
        <time>2020-08-07T17:33:15Z</time>
      </trkpt>
      <trkpt lat="41.0469740" lon="0.6091580">
        <ele>24.9</ele>
        <time>2020-08-07T17:33:17Z</time>
      </trkpt>
      <trkpt lat="41.0469470" lon="0.6091220">
        <ele>24.9</ele>
        <time>2020-08-07T17:33:18Z</time>
      </trkpt>
      <trkpt lat="41.0468830" lon="0.6090370">
        <ele>24.8</ele>
        <time>2020-08-07T17:33:20Z</time>
      </trkpt>
      <trkpt lat="41.0468570" lon="0.6090030">
        <ele>24.8</ele>
        <time>2020-08-07T17:33:21Z</time>
      </trkpt>
      <trkpt lat="41.0468310" lon="0.6089660">
        <ele>24.8</ele>
        <time>2020-08-07T17:33:22Z</time>
      </trkpt>
      <trkpt lat="41.0467730" lon="0.6088860">
        <ele>24.8</ele>
        <time>2020-08-07T17:33:24Z</time>
      </trkpt>
      <trkpt lat="41.0467440" lon="0.6088480">
        <ele>24.8</ele>
        <time>2020-08-07T17:33:25Z</time>
      </trkpt>
      <trkpt lat="41.0467160" lon="0.6088140">
        <ele>24.8</ele>
        <time>2020-08-07T17:33:26Z</time>
      </trkpt>
      <trkpt lat="41.0466650" lon="0.6087540">
        <ele>24.8</ele>
        <time>2020-08-07T17:33:28Z</time>
      </trkpt>
      <trkpt lat="41.0466320" lon="0.6087110">
        <ele>24.9</ele>
        <time>2020-08-07T17:33:29Z</time>
      </trkpt>
      <trkpt lat="41.0465720" lon="0.6086270">
        <ele>25.0</ele>
        <time>2020-08-07T17:33:31Z</time>
      </trkpt>
      <trkpt lat="41.0465430" lon="0.6085790">
        <ele>25.0</ele>
        <time>2020-08-07T17:33:32Z</time>
      </trkpt>
      <trkpt lat="41.0464860" lon="0.6084890">
        <ele>25.2</ele>
        <time>2020-08-07T17:33:34Z</time>
      </trkpt>
      <trkpt lat="41.0464280" lon="0.6084020">
        <ele>25.3</ele>
        <time>2020-08-07T17:33:36Z</time>
      </trkpt>
      <trkpt lat="41.0463790" lon="0.6083350">
        <ele>25.3</ele>
        <time>2020-08-07T17:33:38Z</time>
      </trkpt>
      <trkpt lat="41.0463530" lon="0.6083000">
        <ele>25.3</ele>
        <time>2020-08-07T17:33:39Z</time>
      </trkpt>
      <trkpt lat="41.0462900" lon="0.6082200">
        <ele>25.3</ele>
        <time>2020-08-07T17:33:41Z</time>
      </trkpt>
      <trkpt lat="41.0462370" lon="0.6081590">
        <ele>25.3</ele>
        <time>2020-08-07T17:33:43Z</time>
      </trkpt>
      <trkpt lat="41.0462050" lon="0.6081190">
        <ele>25.3</ele>
        <time>2020-08-07T17:33:44Z</time>
      </trkpt>
      <trkpt lat="41.0461450" lon="0.6080410">
        <ele>25.3</ele>
        <time>2020-08-07T17:33:46Z</time>
      </trkpt>
      <trkpt lat="41.0460930" lon="0.6079760">
        <ele>25.3</ele>
        <time>2020-08-07T17:33:48Z</time>
      </trkpt>
      <trkpt lat="41.0460450" lon="0.6079150">
        <ele>25.3</ele>
        <time>2020-08-07T17:33:50Z</time>
      </trkpt>
      <trkpt lat="41.0460210" lon="0.6078800">
        <ele>25.4</ele>
        <time>2020-08-07T17:33:51Z</time>
      </trkpt>
      <trkpt lat="41.0459980" lon="0.6078460">
        <ele>25.4</ele>
        <time>2020-08-07T17:33:52Z</time>
      </trkpt>
      <trkpt lat="41.0459580" lon="0.6077860">
        <ele>25.4</ele>
        <time>2020-08-07T17:33:54Z</time>
      </trkpt>
      <trkpt lat="41.0459100" lon="0.6077210">
        <ele>25.5</ele>
        <time>2020-08-07T17:33:56Z</time>
      </trkpt>
      <trkpt lat="41.0458850" lon="0.6076850">
        <ele>25.5</ele>
        <time>2020-08-07T17:33:57Z</time>
      </trkpt>
      <trkpt lat="41.0458410" lon="0.6076250">
        <ele>25.6</ele>
        <time>2020-08-07T17:33:59Z</time>
      </trkpt>
      <trkpt lat="41.0458160" lon="0.6075950">
        <ele>25.6</ele>
        <time>2020-08-07T17:34:00Z</time>
      </trkpt>
      <trkpt lat="41.0457630" lon="0.6075300">
        <ele>25.7</ele>
        <time>2020-08-07T17:34:02Z</time>
      </trkpt>
      <trkpt lat="41.0457340" lon="0.6074950">
        <ele>25.8</ele>
        <time>2020-08-07T17:34:03Z</time>
      </trkpt>
      <trkpt lat="41.0457060" lon="0.6074620">
        <ele>25.9</ele>
        <time>2020-08-07T17:34:04Z</time>
      </trkpt>
      <trkpt lat="41.0456570" lon="0.6074060">
        <ele>26.0</ele>
        <time>2020-08-07T17:34:06Z</time>
      </trkpt>
      <trkpt lat="41.0456310" lon="0.6073720">
        <ele>26.1</ele>
        <time>2020-08-07T17:34:07Z</time>
      </trkpt>
      <trkpt lat="41.0456050" lon="0.6073360">
        <ele>26.1</ele>
        <time>2020-08-07T17:34:08Z</time>
      </trkpt>
      <trkpt lat="41.0455560" lon="0.6072640">
        <ele>26.2</ele>
        <time>2020-08-07T17:34:10Z</time>
      </trkpt>
      <trkpt lat="41.0455320" lon="0.6072340">
        <ele>26.3</ele>
        <time>2020-08-07T17:34:11Z</time>
      </trkpt>
      <trkpt lat="41.0454810" lon="0.6071770">
        <ele>26.4</ele>
        <time>2020-08-07T17:34:13Z</time>
      </trkpt>
      <trkpt lat="41.0454540" lon="0.6071440">
        <ele>26.4</ele>
        <time>2020-08-07T17:34:14Z</time>
      </trkpt>
      <trkpt lat="41.0454050" lon="0.6070870">
        <ele>26.6</ele>
        <time>2020-08-07T17:34:16Z</time>
      </trkpt>
      <trkpt lat="41.0453640" lon="0.6070320">
        <ele>26.7</ele>
        <time>2020-08-07T17:34:18Z</time>
      </trkpt>
      <trkpt lat="41.0453230" lon="0.6069730">
        <ele>26.8</ele>
        <time>2020-08-07T17:34:20Z</time>
      </trkpt>
      <trkpt lat="41.0452960" lon="0.6069430">
        <ele>26.8</ele>
        <time>2020-08-07T17:34:21Z</time>
      </trkpt>
      <trkpt lat="41.0452440" lon="0.6068830">
        <ele>27.0</ele>
        <time>2020-08-07T17:34:23Z</time>
      </trkpt>
      <trkpt lat="41.0451980" lon="0.6068290">
        <ele>27.1</ele>
        <time>2020-08-07T17:34:25Z</time>
      </trkpt>
      <trkpt lat="41.0451740" lon="0.6068020">
        <ele>27.1</ele>
        <time>2020-08-07T17:34:26Z</time>
      </trkpt>
      <trkpt lat="41.0451280" lon="0.6067410">
        <ele>27.3</ele>
        <time>2020-08-07T17:34:28Z</time>
      </trkpt>
      <trkpt lat="41.0450820" lon="0.6066810">
        <ele>27.4</ele>
        <time>2020-08-07T17:34:30Z</time>
      </trkpt>
      <trkpt lat="41.0450580" lon="0.6066510">
        <ele>27.5</ele>
        <time>2020-08-07T17:34:31Z</time>
      </trkpt>
      <trkpt lat="41.0450180" lon="0.6066050">
        <ele>27.6</ele>
        <time>2020-08-07T17:34:32Z</time>
      </trkpt>
      <trkpt lat="41.0449800" lon="0.6065620">
        <ele>27.7</ele>
        <time>2020-08-07T17:34:34Z</time>
      </trkpt>
      <trkpt lat="41.0449560" lon="0.6065340">
        <ele>27.8</ele>
        <time>2020-08-07T17:34:35Z</time>
      </trkpt>
      <trkpt lat="41.0449100" lon="0.6064830">
        <ele>27.8</ele>
        <time>2020-08-07T17:34:37Z</time>
      </trkpt>
      <trkpt lat="41.0448840" lon="0.6064550">
        <ele>27.9</ele>
        <time>2020-08-07T17:34:38Z</time>
      </trkpt>
      <trkpt lat="41.0448420" lon="0.6064120">
        <ele>27.9</ele>
        <time>2020-08-07T17:34:40Z</time>
      </trkpt>
      <trkpt lat="41.0448280" lon="0.6063960">
        <ele>27.9</ele>
        <time>2020-08-07T17:34:41Z</time>
      </trkpt>
      <trkpt lat="41.0448170" lon="0.6063840">
        <ele>27.9</ele>
        <time>2020-08-07T17:34:42Z</time>
      </trkpt>
      <trkpt lat="41.0448080" lon="0.6063710">
        <ele>28.0</ele>
        <time>2020-08-07T17:34:43Z</time>
      </trkpt>
      <trkpt lat="41.0447870" lon="0.6063430">
        <ele>28.0</ele>
        <time>2020-08-07T17:34:45Z</time>
      </trkpt>
      <trkpt lat="41.0447000" lon="0.6062200">
        <ele>28.1</ele>
        <time>2020-08-07T17:34:47Z</time>
      </trkpt>
      <trkpt lat="41.0446470" lon="0.6061550">
        <ele>28.1</ele>
        <time>2020-08-07T17:34:48Z</time>
      </trkpt>
      <trkpt lat="41.0445670" lon="0.6060650">
        <ele>28.2</ele>
        <time>2020-08-07T17:34:50Z</time>
      </trkpt>
      <trkpt lat="41.0445300" lon="0.6060260">
        <ele>28.2</ele>
        <time>2020-08-07T17:34:51Z</time>
      </trkpt>
      <trkpt lat="41.0445030" lon="0.6059960">
        <ele>28.2</ele>
        <time>2020-08-07T17:34:52Z</time>
      </trkpt>
      <trkpt lat="41.0444450" lon="0.6059280">
        <ele>28.2</ele>
        <time>2020-08-07T17:34:54Z</time>
      </trkpt>
      <trkpt lat="41.0444130" lon="0.6058860">
        <ele>28.2</ele>
        <time>2020-08-07T17:34:55Z</time>
      </trkpt>
      <trkpt lat="41.0443830" lon="0.6058440">
        <ele>28.2</ele>
        <time>2020-08-07T17:34:56Z</time>
      </trkpt>
      <trkpt lat="41.0443230" lon="0.6057640">
        <ele>28.1</ele>
        <time>2020-08-07T17:34:58Z</time>
      </trkpt>
      <trkpt lat="41.0442640" lon="0.6056910">
        <ele>28.1</ele>
        <time>2020-08-07T17:35:00Z</time>
      </trkpt>
      <trkpt lat="41.0442350" lon="0.6056540">
        <ele>28.0</ele>
        <time>2020-08-07T17:35:01Z</time>
      </trkpt>
      <trkpt lat="41.0441730" lon="0.6055770">
        <ele>28.0</ele>
        <time>2020-08-07T17:35:03Z</time>
      </trkpt>
      <trkpt lat="41.0441460" lon="0.6055430">
        <ele>28.0</ele>
        <time>2020-08-07T17:35:04Z</time>
      </trkpt>
      <trkpt lat="41.0440890" lon="0.6054740">
        <ele>28.0</ele>
        <time>2020-08-07T17:35:06Z</time>
      </trkpt>
      <trkpt lat="41.0440590" lon="0.6054370">
        <ele>28.0</ele>
        <time>2020-08-07T17:35:07Z</time>
      </trkpt>
      <trkpt lat="41.0440070" lon="0.6053720">
        <ele>28.0</ele>
        <time>2020-08-07T17:35:09Z</time>
      </trkpt>
      <trkpt lat="41.0439890" lon="0.6053460">
        <ele>28.0</ele>
        <time>2020-08-07T17:35:10Z</time>
      </trkpt>
      <trkpt lat="41.0439340" lon="0.6052760">
        <ele>28.0</ele>
        <time>2020-08-07T17:35:12Z</time>
      </trkpt>
      <trkpt lat="41.0439010" lon="0.6052350">
        <ele>28.0</ele>
        <time>2020-08-07T17:35:13Z</time>
      </trkpt>
      <trkpt lat="41.0438450" lon="0.6051700">
        <ele>28.0</ele>
        <time>2020-08-07T17:35:15Z</time>
      </trkpt>
      <trkpt lat="41.0437780" lon="0.6051040">
        <ele>28.0</ele>
        <time>2020-08-07T17:35:17Z</time>
      </trkpt>
      <trkpt lat="41.0436980" lon="0.6050430">
        <ele>28.1</ele>
        <time>2020-08-07T17:35:19Z</time>
      </trkpt>
      <trkpt lat="41.0436310" lon="0.6050100">
        <ele>28.2</ele>
        <time>2020-08-07T17:35:21Z</time>
      </trkpt>
      <trkpt lat="41.0435950" lon="0.6049950">
        <ele>28.2</ele>
        <time>2020-08-07T17:35:22Z</time>
      </trkpt>
      <trkpt lat="41.0435130" lon="0.6049530">
        <ele>28.3</ele>
        <time>2020-08-07T17:35:24Z</time>
      </trkpt>
      <trkpt lat="41.0434690" lon="0.6049230">
        <ele>28.3</ele>
        <time>2020-08-07T17:35:25Z</time>
      </trkpt>
      <trkpt lat="41.0434010" lon="0.6048670">
        <ele>28.4</ele>
        <time>2020-08-07T17:35:27Z</time>
      </trkpt>
      <trkpt lat="41.0433660" lon="0.6048360">
        <ele>28.4</ele>
        <time>2020-08-07T17:35:28Z</time>
      </trkpt>
      <trkpt lat="41.0432990" lon="0.6047790">
        <ele>28.4</ele>
        <time>2020-08-07T17:35:30Z</time>
      </trkpt>
      <trkpt lat="41.0432350" lon="0.6047240">
        <ele>28.5</ele>
        <time>2020-08-07T17:35:32Z</time>
      </trkpt>
      <trkpt lat="41.0432140" lon="0.6047010">
        <ele>28.5</ele>
        <time>2020-08-07T17:35:33Z</time>
      </trkpt>
      <trkpt lat="41.0431660" lon="0.6046580">
        <ele>28.5</ele>
        <time>2020-08-07T17:35:35Z</time>
      </trkpt>
      <trkpt lat="41.0431110" lon="0.6046280">
        <ele>28.5</ele>
        <time>2020-08-07T17:35:37Z</time>
      </trkpt>
      <trkpt lat="41.0430800" lon="0.6046120">
        <ele>28.5</ele>
        <time>2020-08-07T17:35:38Z</time>
      </trkpt>
      <trkpt lat="41.0430500" lon="0.6045950">
        <ele>28.6</ele>
        <time>2020-08-07T17:35:39Z</time>
      </trkpt>
      <trkpt lat="41.0430010" lon="0.6045630">
        <ele>28.6</ele>
        <time>2020-08-07T17:35:41Z</time>
      </trkpt>
      <trkpt lat="41.0429730" lon="0.6045470">
        <ele>28.6</ele>
        <time>2020-08-07T17:35:42Z</time>
      </trkpt>
      <trkpt lat="41.0429450" lon="0.6045340">
        <ele>28.6</ele>
        <time>2020-08-07T17:35:43Z</time>
      </trkpt>
      <trkpt lat="41.0429070" lon="0.6045210">
        <ele>28.6</ele>
        <time>2020-08-07T17:35:44Z</time>
      </trkpt>
      <trkpt lat="41.0428940" lon="0.6045180">
        <ele>28.6</ele>
        <time>2020-08-07T17:35:45Z</time>
      </trkpt>
      <trkpt lat="41.0428730" lon="0.6045130">
        <ele>28.6</ele>
        <time>2020-08-07T17:35:46Z</time>
      </trkpt>
      <trkpt lat="41.0428330" lon="0.6044930">
        <ele>28.6</ele>
        <time>2020-08-07T17:35:48Z</time>
      </trkpt>
      <trkpt lat="41.0428060" lon="0.6044740">
        <ele>28.6</ele>
        <time>2020-08-07T17:35:49Z</time>
      </trkpt>
      <trkpt lat="41.0427960" lon="0.6044670">
        <ele>28.6</ele>
        <time>2020-08-07T17:35:50Z</time>
      </trkpt>
      <trkpt lat="41.0427580" lon="0.6044370">
        <ele>28.5</ele>
        <time>2020-08-07T17:35:52Z</time>
      </trkpt>
      <trkpt lat="41.0427360" lon="0.6044210">
        <ele>28.4</ele>
        <time>2020-08-07T17:35:53Z</time>
      </trkpt>
      <trkpt lat="41.0426950" lon="0.6043830">
        <ele>28.3</ele>
        <time>2020-08-07T17:35:55Z</time>
      </trkpt>
      <trkpt lat="41.0426440" lon="0.6043140">
        <ele>28.0</ele>
        <time>2020-08-07T17:35:57Z</time>
      </trkpt>
      <trkpt lat="41.0426160" lon="0.6042730">
        <ele>27.8</ele>
        <time>2020-08-07T17:35:58Z</time>
      </trkpt>
      <trkpt lat="41.0425530" lon="0.6041600">
        <ele>27.2</ele>
        <time>2020-08-07T17:36:00Z</time>
      </trkpt>
      <trkpt lat="41.0425210" lon="0.6040920">
        <ele>26.8</ele>
        <time>2020-08-07T17:36:01Z</time>
      </trkpt>
      <trkpt lat="41.0424930" lon="0.6040220">
        <ele>26.6</ele>
        <time>2020-08-07T17:36:02Z</time>
      </trkpt>
      <trkpt lat="41.0424450" lon="0.6038830">
        <ele>26.2</ele>
        <time>2020-08-07T17:36:04Z</time>
      </trkpt>
      <trkpt lat="41.0424050" lon="0.6037530">
        <ele>25.8</ele>
        <time>2020-08-07T17:36:06Z</time>
      </trkpt>
      <trkpt lat="41.0423780" lon="0.6036960">
        <ele>25.6</ele>
        <time>2020-08-07T17:36:07Z</time>
      </trkpt>
      <trkpt lat="41.0423100" lon="0.6036050">
        <ele>25.2</ele>
        <time>2020-08-07T17:36:09Z</time>
      </trkpt>
      <trkpt lat="41.0422790" lon="0.6036040">
        <ele>25.2</ele>
        <time>2020-08-07T17:36:10Z</time>
      </trkpt>
      <trkpt lat="41.0422160" lon="0.6036670">
        <ele>25.3</ele>
        <time>2020-08-07T17:36:12Z</time>
      </trkpt>
      <trkpt lat="41.0421900" lon="0.6036980">
        <ele>25.3</ele>
        <time>2020-08-07T17:36:13Z</time>
      </trkpt>
      <trkpt lat="41.0421660" lon="0.6037250">
        <ele>25.4</ele>
        <time>2020-08-07T17:36:14Z</time>
      </trkpt>
      <trkpt lat="41.0421320" lon="0.6037780">
        <ele>25.4</ele>
        <time>2020-08-07T17:36:16Z</time>
      </trkpt>
      <trkpt lat="41.0420940" lon="0.6038110">
        <ele>25.5</ele>
        <time>2020-08-07T17:36:18Z</time>
      </trkpt>
      <trkpt lat="41.0420590" lon="0.6038330">
        <ele>25.5</ele>
        <time>2020-08-07T17:36:19Z</time>
      </trkpt>
      <trkpt lat="41.0420460" lon="0.6038410">
        <ele>25.5</ele>
        <time>2020-08-07T17:36:20Z</time>
      </trkpt>
      <trkpt lat="41.0419950" lon="0.6038730">
        <ele>25.6</ele>
        <time>2020-08-07T17:36:22Z</time>
      </trkpt>
      <trkpt lat="41.0419390" lon="0.6039130">
        <ele>25.6</ele>
        <time>2020-08-07T17:36:24Z</time>
      </trkpt>
      <trkpt lat="41.0419150" lon="0.6039310">
        <ele>25.6</ele>
        <time>2020-08-07T17:36:25Z</time>
      </trkpt>
      <trkpt lat="41.0418650" lon="0.6039680">
        <ele>25.6</ele>
        <time>2020-08-07T17:36:27Z</time>
      </trkpt>
      <trkpt lat="41.0418340" lon="0.6039880">
        <ele>25.6</ele>
        <time>2020-08-07T17:36:28Z</time>
      </trkpt>
      <trkpt lat="41.0417700" lon="0.6040140">
        <ele>25.6</ele>
        <time>2020-08-07T17:36:30Z</time>
      </trkpt>
      <trkpt lat="41.0417060" lon="0.6040280">
        <ele>25.6</ele>
        <time>2020-08-07T17:36:32Z</time>
      </trkpt>
      <trkpt lat="41.0416760" lon="0.6040350">
        <ele>25.6</ele>
        <time>2020-08-07T17:36:33Z</time>
      </trkpt>
      <trkpt lat="41.0416500" lon="0.6040430">
        <ele>25.6</ele>
        <time>2020-08-07T17:36:35Z</time>
      </trkpt>
      <trkpt lat="41.0416470" lon="0.6040510">
        <ele>25.7</ele>
        <time>2020-08-07T17:36:36Z</time>
      </trkpt>
      <trkpt lat="41.0416440" lon="0.6040600">
        <ele>25.7</ele>
        <time>2020-08-07T17:36:37Z</time>
      </trkpt>
      <trkpt lat="41.0416460" lon="0.6040650">
        <ele>25.7</ele>
        <time>2020-08-07T17:36:38Z</time>
      </trkpt>
      <trkpt lat="41.0416480" lon="0.6040630">
        <ele>25.7</ele>
        <time>2020-08-07T17:36:40Z</time>
      </trkpt>
      <trkpt lat="41.0416500" lon="0.6040590">
        <ele>25.7</ele>
        <time>2020-08-07T17:36:41Z</time>
      </trkpt>
      <trkpt lat="41.0416490" lon="0.6040570">
        <ele>25.7</ele>
        <time>2020-08-07T17:36:42Z</time>
      </trkpt>
      <trkpt lat="41.0416450" lon="0.6040570">
        <ele>25.7</ele>
        <time>2020-08-07T17:36:43Z</time>
      </trkpt>
      <trkpt lat="41.0416450" lon="0.6040560">
        <ele>25.7</ele>
        <time>2020-08-07T17:36:44Z</time>
      </trkpt>
      <trkpt lat="41.0416430" lon="0.6040540">
        <ele>25.7</ele>
        <time>2020-08-07T17:36:46Z</time>
      </trkpt>
      <trkpt lat="41.0416430" lon="0.6040530">
        <ele>25.7</ele>
        <time>2020-08-07T17:36:47Z</time>
      </trkpt>
      <trkpt lat="41.0416430" lon="0.6040520">
        <ele>25.7</ele>
        <time>2020-08-07T17:36:48Z</time>
      </trkpt>
      <trkpt lat="41.0416130" lon="0.6040590">
        <ele>25.7</ele>
        <time>2020-08-07T17:37:04Z</time>
      </trkpt>
      <trkpt lat="41.0416010" lon="0.6040610">
        <ele>25.7</ele>
        <time>2020-08-07T17:37:05Z</time>
      </trkpt>
      <trkpt lat="41.0415920" lon="0.6040600">
        <ele>25.7</ele>
        <time>2020-08-07T17:37:06Z</time>
      </trkpt>
      <trkpt lat="41.0415780" lon="0.6040400">
        <ele>25.7</ele>
        <time>2020-08-07T17:37:08Z</time>
      </trkpt>
      <trkpt lat="41.0415780" lon="0.6040280">
        <ele>25.7</ele>
        <time>2020-08-07T17:37:09Z</time>
      </trkpt>
      <trkpt lat="41.0415790" lon="0.6040230">
        <ele>25.7</ele>
        <time>2020-08-07T17:37:10Z</time>
      </trkpt>
      <trkpt lat="41.0415810" lon="0.6040210">
        <ele>25.7</ele>
        <time>2020-08-07T17:37:11Z</time>
      </trkpt>
      <trkpt lat="41.0415820" lon="0.6040190">
        <ele>25.7</ele>
        <time>2020-08-07T17:37:12Z</time>
      </trkpt>
      <trkpt lat="41.0415840" lon="0.6040130">
        <ele>25.7</ele>
        <time>2020-08-07T17:37:14Z</time>
      </trkpt>
      <trkpt lat="41.0415850" lon="0.6040110">
        <ele>25.7</ele>
        <time>2020-08-07T17:37:15Z</time>
      </trkpt>
      <trkpt lat="41.0415850" lon="0.6040090">
        <ele>25.7</ele>
        <time>2020-08-07T17:37:17Z</time>
      </trkpt>
      <trkpt lat="41.0415850" lon="0.6040090">
        <ele>25.7</ele>
        <time>2020-08-07T17:37:18Z</time>
      </trkpt>
      <trkpt lat="41.0415850" lon="0.6040080">
        <ele>25.7</ele>
        <time>2020-08-07T17:37:19Z</time>
      </trkpt>
      <trkpt lat="41.0415800" lon="0.6040120">
        <ele>25.7</ele>
        <time>2020-08-07T17:37:21Z</time>
      </trkpt>
      <trkpt lat="41.0415720" lon="0.6040160">
        <ele>25.7</ele>
        <time>2020-08-07T17:37:22Z</time>
      </trkpt>
      <trkpt lat="41.0415590" lon="0.6040260">
        <ele>25.6</ele>
        <time>2020-08-07T17:37:24Z</time>
      </trkpt>
      <trkpt lat="41.0415470" lon="0.6040440">
        <ele>25.6</ele>
        <time>2020-08-07T17:37:26Z</time>
      </trkpt>
      <trkpt lat="41.0415350" lon="0.6040590">
        <ele>25.6</ele>
        <time>2020-08-07T17:37:27Z</time>
      </trkpt>
      <trkpt lat="41.0415170" lon="0.6040720">
        <ele>25.6</ele>
        <time>2020-08-07T17:37:28Z</time>
      </trkpt>
      <trkpt lat="41.0414790" lon="0.6040910">
        <ele>25.5</ele>
        <time>2020-08-07T17:37:30Z</time>
      </trkpt>
      <trkpt lat="41.0414550" lon="0.6040990">
        <ele>25.5</ele>
        <time>2020-08-07T17:37:31Z</time>
      </trkpt>
      <trkpt lat="41.0414520" lon="0.6040990">
        <ele>25.5</ele>
        <time>2020-08-07T17:37:33Z</time>
      </trkpt>
      <trkpt lat="41.0414490" lon="0.6040990">
        <ele>25.5</ele>
        <time>2020-08-07T17:37:34Z</time>
      </trkpt>
      <trkpt lat="41.0414460" lon="0.6040990">
        <ele>25.5</ele>
        <time>2020-08-07T17:37:35Z</time>
      </trkpt>
      <trkpt lat="41.0414430" lon="0.6040990">
        <ele>25.5</ele>
        <time>2020-08-07T17:37:36Z</time>
      </trkpt>
      <trkpt lat="41.0414330" lon="0.6041220">
        <ele>25.4</ele>
        <time>2020-08-07T17:37:38Z</time>
      </trkpt>
      <trkpt lat="41.0414220" lon="0.6041380">
        <ele>25.4</ele>
        <time>2020-08-07T17:37:39Z</time>
      </trkpt>
      <trkpt lat="41.0414040" lon="0.6041470">
        <ele>25.3</ele>
        <time>2020-08-07T17:37:40Z</time>
      </trkpt>
      <trkpt lat="41.0413670" lon="0.6041650">
        <ele>25.2</ele>
        <time>2020-08-07T17:37:42Z</time>
      </trkpt>
      <trkpt lat="41.0413290" lon="0.6041920">
        <ele>25.1</ele>
        <time>2020-08-07T17:37:43Z</time>
      </trkpt>
      <trkpt lat="41.0412970" lon="0.6042220">
        <ele>25.0</ele>
        <time>2020-08-07T17:37:45Z</time>
      </trkpt>
      <trkpt lat="41.0412610" lon="0.6042580">
        <ele>25.0</ele>
        <time>2020-08-07T17:37:46Z</time>
      </trkpt>
      <trkpt lat="41.0412250" lon="0.6042950">
        <ele>24.9</ele>
        <time>2020-08-07T17:37:48Z</time>
      </trkpt>
      <trkpt lat="41.0411640" lon="0.6043370">
        <ele>24.7</ele>
        <time>2020-08-07T17:37:49Z</time>
      </trkpt>
      <trkpt lat="41.0409990" lon="0.6044020">
        <ele>24.2</ele>
        <time>2020-08-07T17:37:51Z</time>
      </trkpt>
      <trkpt lat="41.0408960" lon="0.6044310">
        <ele>23.8</ele>
        <time>2020-08-07T17:37:52Z</time>
      </trkpt>
      <trkpt lat="41.0408110" lon="0.6044500">
        <ele>23.6</ele>
        <time>2020-08-07T17:37:53Z</time>
      </trkpt>
      <trkpt lat="41.0406900" lon="0.6044460">
        <ele>23.4</ele>
        <time>2020-08-07T17:37:55Z</time>
      </trkpt>
      <trkpt lat="41.0406980" lon="0.6044350">
        <ele>23.3</ele>
        <time>2020-08-07T17:37:57Z</time>
      </trkpt>
      <trkpt lat="41.0407100" lon="0.6044680">
        <ele>23.3</ele>
        <time>2020-08-07T17:37:58Z</time>
      </trkpt>
      <trkpt lat="41.0406870" lon="0.6044760">
        <ele>23.3</ele>
        <time>2020-08-07T17:37:59Z</time>
      </trkpt>
      <trkpt lat="41.0406650" lon="0.6044760">
        <ele>23.2</ele>
        <time>2020-08-07T17:38:01Z</time>
      </trkpt>
      <trkpt lat="41.0406370" lon="0.6044800">
        <ele>23.2</ele>
        <time>2020-08-07T17:38:02Z</time>
      </trkpt>
      <trkpt lat="41.0405460" lon="0.6044370">
        <ele>23.1</ele>
        <time>2020-08-07T17:38:03Z</time>
      </trkpt>
      <trkpt lat="41.0404990" lon="0.6044010">
        <ele>23.0</ele>
        <time>2020-08-07T17:38:05Z</time>
      </trkpt>
      <trkpt lat="41.0404730" lon="0.6043500">
        <ele>23.0</ele>
        <time>2020-08-07T17:38:06Z</time>
      </trkpt>
      <trkpt lat="41.0404350" lon="0.6042730">
        <ele>23.0</ele>
        <time>2020-08-07T17:38:07Z</time>
      </trkpt>
      <trkpt lat="41.0404060" lon="0.6042210">
        <ele>22.9</ele>
        <time>2020-08-07T17:38:09Z</time>
      </trkpt>
      <trkpt lat="41.0403720" lon="0.6041670">
        <ele>22.8</ele>
        <time>2020-08-07T17:38:10Z</time>
      </trkpt>
      <trkpt lat="41.0403390" lon="0.6041180">
        <ele>22.8</ele>
        <time>2020-08-07T17:38:11Z</time>
      </trkpt>
      <trkpt lat="41.0403110" lon="0.6040760">
        <ele>22.7</ele>
        <time>2020-08-07T17:38:12Z</time>
      </trkpt>
      <trkpt lat="41.0402890" lon="0.6040360">
        <ele>22.7</ele>
        <time>2020-08-07T17:38:14Z</time>
      </trkpt>
      <trkpt lat="41.0402710" lon="0.6039960">
        <ele>22.7</ele>
        <time>2020-08-07T17:38:15Z</time>
      </trkpt>
      <trkpt lat="41.0402050" lon="0.6039020">
        <ele>22.6</ele>
        <time>2020-08-07T17:38:16Z</time>
      </trkpt>
      <trkpt lat="41.0401380" lon="0.6038280">
        <ele>22.5</ele>
        <time>2020-08-07T17:38:17Z</time>
      </trkpt>
      <trkpt lat="41.0401030" lon="0.6037570">
        <ele>22.4</ele>
        <time>2020-08-07T17:38:19Z</time>
      </trkpt>
      <trkpt lat="41.0400770" lon="0.6037060">
        <ele>22.4</ele>
        <time>2020-08-07T17:38:20Z</time>
      </trkpt>
      <trkpt lat="41.0399630" lon="0.6035670">
        <ele>22.3</ele>
        <time>2020-08-07T17:38:21Z</time>
      </trkpt>
      <trkpt lat="41.0398580" lon="0.6034350">
        <ele>22.3</ele>
        <time>2020-08-07T17:38:23Z</time>
      </trkpt>
      <trkpt lat="41.0397940" lon="0.6033400">
        <ele>22.4</ele>
        <time>2020-08-07T17:38:25Z</time>
      </trkpt>
      <trkpt lat="41.0397690" lon="0.6032990">
        <ele>22.4</ele>
        <time>2020-08-07T17:38:26Z</time>
      </trkpt>
      <trkpt lat="41.0397390" lon="0.6032520">
        <ele>22.3</ele>
        <time>2020-08-07T17:38:27Z</time>
      </trkpt>
      <trkpt lat="41.0396750" lon="0.6031570">
        <ele>22.3</ele>
        <time>2020-08-07T17:38:29Z</time>
      </trkpt>
      <trkpt lat="41.0396470" lon="0.6031190">
        <ele>22.3</ele>
        <time>2020-08-07T17:38:30Z</time>
      </trkpt>
      <trkpt lat="41.0395900" lon="0.6030380">
        <ele>22.2</ele>
        <time>2020-08-07T17:38:32Z</time>
      </trkpt>
      <trkpt lat="41.0395380" lon="0.6029570">
        <ele>22.2</ele>
        <time>2020-08-07T17:38:34Z</time>
      </trkpt>
      <trkpt lat="41.0395170" lon="0.6029200">
        <ele>22.2</ele>
        <time>2020-08-07T17:38:35Z</time>
      </trkpt>
      <trkpt lat="41.0394670" lon="0.6028350">
        <ele>22.2</ele>
        <time>2020-08-07T17:38:37Z</time>
      </trkpt>
      <trkpt lat="41.0394460" lon="0.6027990">
        <ele>22.2</ele>
        <time>2020-08-07T17:38:38Z</time>
      </trkpt>
      <trkpt lat="41.0394270" lon="0.6027650">
        <ele>22.2</ele>
        <time>2020-08-07T17:38:39Z</time>
      </trkpt>
      <trkpt lat="41.0393740" lon="0.6026770">
        <ele>22.2</ele>
        <time>2020-08-07T17:38:41Z</time>
      </trkpt>
      <trkpt lat="41.0393540" lon="0.6026390">
        <ele>22.2</ele>
        <time>2020-08-07T17:38:42Z</time>
      </trkpt>
      <trkpt lat="41.0393040" lon="0.6025530">
        <ele>22.2</ele>
        <time>2020-08-07T17:38:44Z</time>
      </trkpt>
      <trkpt lat="41.0392540" lon="0.6024710">
        <ele>22.2</ele>
        <time>2020-08-07T17:38:46Z</time>
      </trkpt>
      <trkpt lat="41.0392270" lon="0.6024330">
        <ele>22.2</ele>
        <time>2020-08-07T17:38:47Z</time>
      </trkpt>
      <trkpt lat="41.0391750" lon="0.6023560">
        <ele>22.1</ele>
        <time>2020-08-07T17:38:49Z</time>
      </trkpt>
      <trkpt lat="41.0391170" lon="0.6022670">
        <ele>22.1</ele>
        <time>2020-08-07T17:38:51Z</time>
      </trkpt>
      <trkpt lat="41.0390880" lon="0.6022250">
        <ele>22.1</ele>
        <time>2020-08-07T17:38:52Z</time>
      </trkpt>
      <trkpt lat="41.0390600" lon="0.6021850">
        <ele>22.0</ele>
        <time>2020-08-07T17:38:53Z</time>
      </trkpt>
      <trkpt lat="41.0390340" lon="0.6021470">
        <ele>22.0</ele>
        <time>2020-08-07T17:38:54Z</time>
      </trkpt>
      <trkpt lat="41.0389810" lon="0.6020650">
        <ele>22.0</ele>
        <time>2020-08-07T17:38:56Z</time>
      </trkpt>
      <trkpt lat="41.0389540" lon="0.6020210">
        <ele>22.0</ele>
        <time>2020-08-07T17:38:57Z</time>
      </trkpt>
      <trkpt lat="41.0389010" lon="0.6019330">
        <ele>22.0</ele>
        <time>2020-08-07T17:38:59Z</time>
      </trkpt>
      <trkpt lat="41.0388750" lon="0.6018880">
        <ele>22.0</ele>
        <time>2020-08-07T17:39:00Z</time>
      </trkpt>
      <trkpt lat="41.0388220" lon="0.6017980">
        <ele>22.0</ele>
        <time>2020-08-07T17:39:02Z</time>
      </trkpt>
      <trkpt lat="41.0387960" lon="0.6017550">
        <ele>22.0</ele>
        <time>2020-08-07T17:39:03Z</time>
      </trkpt>
      <trkpt lat="41.0387460" lon="0.6016790">
        <ele>22.0</ele>
        <time>2020-08-07T17:39:05Z</time>
      </trkpt>
      <trkpt lat="41.0386920" lon="0.6015950">
        <ele>22.0</ele>
        <time>2020-08-07T17:39:07Z</time>
      </trkpt>
      <trkpt lat="41.0386660" lon="0.6015460">
        <ele>22.0</ele>
        <time>2020-08-07T17:39:08Z</time>
      </trkpt>
      <trkpt lat="41.0386300" lon="0.6014630">
        <ele>22.1</ele>
        <time>2020-08-07T17:39:10Z</time>
      </trkpt>
      <trkpt lat="41.0386010" lon="0.6013980">
        <ele>22.1</ele>
        <time>2020-08-07T17:39:12Z</time>
      </trkpt>
      <trkpt lat="41.0385460" lon="0.6013000">
        <ele>22.1</ele>
        <time>2020-08-07T17:39:14Z</time>
      </trkpt>
      <trkpt lat="41.0385190" lon="0.6012560">
        <ele>22.2</ele>
        <time>2020-08-07T17:39:15Z</time>
      </trkpt>
      <trkpt lat="41.0384670" lon="0.6011700">
        <ele>22.2</ele>
        <time>2020-08-07T17:39:17Z</time>
      </trkpt>
      <trkpt lat="41.0384170" lon="0.6010840">
        <ele>22.2</ele>
        <time>2020-08-07T17:39:19Z</time>
      </trkpt>
      <trkpt lat="41.0383910" lon="0.6010420">
        <ele>22.3</ele>
        <time>2020-08-07T17:39:20Z</time>
      </trkpt>
      <trkpt lat="41.0383430" lon="0.6009670">
        <ele>22.3</ele>
        <time>2020-08-07T17:39:22Z</time>
      </trkpt>
      <trkpt lat="41.0383150" lon="0.6009230">
        <ele>22.3</ele>
        <time>2020-08-07T17:39:23Z</time>
      </trkpt>
      <trkpt lat="41.0382890" lon="0.6008810">
        <ele>22.3</ele>
        <time>2020-08-07T17:39:24Z</time>
      </trkpt>
      <trkpt lat="41.0382620" lon="0.6008430">
        <ele>22.3</ele>
        <time>2020-08-07T17:39:25Z</time>
      </trkpt>
      <trkpt lat="41.0382040" lon="0.6007730">
        <ele>22.3</ele>
        <time>2020-08-07T17:39:27Z</time>
      </trkpt>
      <trkpt lat="41.0381460" lon="0.6007070">
        <ele>22.3</ele>
        <time>2020-08-07T17:39:29Z</time>
      </trkpt>
      <trkpt lat="41.0380970" lon="0.6006260">
        <ele>22.3</ele>
        <time>2020-08-07T17:39:31Z</time>
      </trkpt>
      <trkpt lat="41.0380730" lon="0.6005850">
        <ele>22.4</ele>
        <time>2020-08-07T17:39:32Z</time>
      </trkpt>
      <trkpt lat="41.0380520" lon="0.6005500">
        <ele>22.4</ele>
        <time>2020-08-07T17:39:33Z</time>
      </trkpt>
      <trkpt lat="41.0380010" lon="0.6004660">
        <ele>22.4</ele>
        <time>2020-08-07T17:39:35Z</time>
      </trkpt>
      <trkpt lat="41.0379760" lon="0.6004240">
        <ele>22.4</ele>
        <time>2020-08-07T17:39:36Z</time>
      </trkpt>
      <trkpt lat="41.0379280" lon="0.6003470">
        <ele>22.4</ele>
        <time>2020-08-07T17:39:38Z</time>
      </trkpt>
      <trkpt lat="41.0379050" lon="0.6003080">
        <ele>22.4</ele>
        <time>2020-08-07T17:39:39Z</time>
      </trkpt>
      <trkpt lat="41.0378540" lon="0.6002240">
        <ele>22.4</ele>
        <time>2020-08-07T17:39:41Z</time>
      </trkpt>
      <trkpt lat="41.0378330" lon="0.6001880">
        <ele>22.4</ele>
        <time>2020-08-07T17:39:42Z</time>
      </trkpt>
      <trkpt lat="41.0377780" lon="0.6001040">
        <ele>22.3</ele>
        <time>2020-08-07T17:39:44Z</time>
      </trkpt>
      <trkpt lat="41.0377210" lon="0.6000260">
        <ele>22.3</ele>
        <time>2020-08-07T17:39:46Z</time>
      </trkpt>
      <trkpt lat="41.0376970" lon="0.5999880">
        <ele>22.3</ele>
        <time>2020-08-07T17:39:47Z</time>
      </trkpt>
      <trkpt lat="41.0376560" lon="0.5999170">
        <ele>22.3</ele>
        <time>2020-08-07T17:39:49Z</time>
      </trkpt>
      <trkpt lat="41.0376030" lon="0.5998360">
        <ele>22.3</ele>
        <time>2020-08-07T17:39:51Z</time>
      </trkpt>
      <trkpt lat="41.0375780" lon="0.5997980">
        <ele>22.3</ele>
        <time>2020-08-07T17:39:52Z</time>
      </trkpt>
      <trkpt lat="41.0375560" lon="0.5997650">
        <ele>22.3</ele>
        <time>2020-08-07T17:39:53Z</time>
      </trkpt>
      <trkpt lat="41.0375100" lon="0.5996850">
        <ele>22.2</ele>
        <time>2020-08-07T17:39:55Z</time>
      </trkpt>
      <trkpt lat="41.0374840" lon="0.5996400">
        <ele>22.2</ele>
        <time>2020-08-07T17:39:56Z</time>
      </trkpt>
      <trkpt lat="41.0374350" lon="0.5995550">
        <ele>22.1</ele>
        <time>2020-08-07T17:39:58Z</time>
      </trkpt>
      <trkpt lat="41.0374050" lon="0.5995090">
        <ele>22.1</ele>
        <time>2020-08-07T17:39:59Z</time>
      </trkpt>
      <trkpt lat="41.0373840" lon="0.5994780">
        <ele>22.1</ele>
        <time>2020-08-07T17:40:00Z</time>
      </trkpt>
      <trkpt lat="41.0373220" lon="0.5993950">
        <ele>22.0</ele>
        <time>2020-08-07T17:40:02Z</time>
      </trkpt>
      <trkpt lat="41.0372850" lon="0.5993470">
        <ele>22.0</ele>
        <time>2020-08-07T17:40:03Z</time>
      </trkpt>
      <trkpt lat="41.0372500" lon="0.5993040">
        <ele>22.0</ele>
        <time>2020-08-07T17:40:04Z</time>
      </trkpt>
      <trkpt lat="41.0371960" lon="0.5992470">
        <ele>22.0</ele>
        <time>2020-08-07T17:40:06Z</time>
      </trkpt>
      <trkpt lat="41.0371660" lon="0.5992180">
        <ele>22.0</ele>
        <time>2020-08-07T17:40:07Z</time>
      </trkpt>
      <trkpt lat="41.0371060" lon="0.5991800">
        <ele>22.0</ele>
        <time>2020-08-07T17:40:09Z</time>
      </trkpt>
      <trkpt lat="41.0370430" lon="0.5991610">
        <ele>22.1</ele>
        <time>2020-08-07T17:40:11Z</time>
      </trkpt>
      <trkpt lat="41.0370150" lon="0.5991580">
        <ele>22.1</ele>
        <time>2020-08-07T17:40:12Z</time>
      </trkpt>
      <trkpt lat="41.0369950" lon="0.5991660">
        <ele>22.1</ele>
        <time>2020-08-07T17:40:13Z</time>
      </trkpt>
      <trkpt lat="41.0369660" lon="0.5992050">
        <ele>22.1</ele>
        <time>2020-08-07T17:40:15Z</time>
      </trkpt>
      <trkpt lat="41.0369480" lon="0.5992450">
        <ele>22.2</ele>
        <time>2020-08-07T17:40:16Z</time>
      </trkpt>
      <trkpt lat="41.0369280" lon="0.5992990">
        <ele>22.2</ele>
        <time>2020-08-07T17:40:17Z</time>
      </trkpt>
      <trkpt lat="41.0369090" lon="0.5993560">
        <ele>22.2</ele>
        <time>2020-08-07T17:40:18Z</time>
      </trkpt>
      <trkpt lat="41.0368910" lon="0.5994170">
        <ele>22.2</ele>
        <time>2020-08-07T17:40:19Z</time>
      </trkpt>
      <trkpt lat="41.0368480" lon="0.5995310">
        <ele>22.2</ele>
        <time>2020-08-07T17:40:21Z</time>
      </trkpt>
      <trkpt lat="41.0368000" lon="0.5996380">
        <ele>22.2</ele>
        <time>2020-08-07T17:40:23Z</time>
      </trkpt>
      <trkpt lat="41.0367760" lon="0.5996920">
        <ele>22.1</ele>
        <time>2020-08-07T17:40:24Z</time>
      </trkpt>
      <trkpt lat="41.0367210" lon="0.5997950">
        <ele>22.0</ele>
        <time>2020-08-07T17:40:26Z</time>
      </trkpt>
      <trkpt lat="41.0366950" lon="0.5998450">
        <ele>22.0</ele>
        <time>2020-08-07T17:40:27Z</time>
      </trkpt>
      <trkpt lat="41.0366670" lon="0.5998950">
        <ele>21.9</ele>
        <time>2020-08-07T17:40:28Z</time>
      </trkpt>
      <trkpt lat="41.0365820" lon="0.6000510">
        <ele>21.8</ele>
        <time>2020-08-07T17:40:34Z</time>
      </trkpt>
      <trkpt lat="41.0365160" lon="0.6001550">
        <ele>21.7</ele>
        <time>2020-08-07T17:40:35Z</time>
      </trkpt>
      <trkpt lat="41.0364920" lon="0.6001910">
        <ele>21.7</ele>
        <time>2020-08-07T17:40:36Z</time>
      </trkpt>
      <trkpt lat="41.0364530" lon="0.6002600">
        <ele>21.6</ele>
        <time>2020-08-07T17:40:37Z</time>
      </trkpt>
      <trkpt lat="41.0363870" lon="0.6003890">
        <ele>21.5</ele>
        <time>2020-08-07T17:40:39Z</time>
      </trkpt>
      <trkpt lat="41.0363640" lon="0.6004510">
        <ele>21.5</ele>
        <time>2020-08-07T17:40:40Z</time>
      </trkpt>
      <trkpt lat="41.0363400" lon="0.6005200">
        <ele>21.4</ele>
        <time>2020-08-07T17:40:41Z</time>
      </trkpt>
      <trkpt lat="41.0362680" lon="0.6006610">
        <ele>21.3</ele>
        <time>2020-08-07T17:40:43Z</time>
      </trkpt>
      <trkpt lat="41.0362280" lon="0.6007170">
        <ele>21.3</ele>
        <time>2020-08-07T17:40:44Z</time>
      </trkpt>
      <trkpt lat="41.0361580" lon="0.6008130">
        <ele>21.3</ele>
        <time>2020-08-07T17:40:46Z</time>
      </trkpt>
      <trkpt lat="41.0361240" lon="0.6008570">
        <ele>21.3</ele>
        <time>2020-08-07T17:40:47Z</time>
      </trkpt>
      <trkpt lat="41.0360610" lon="0.6009310">
        <ele>21.3</ele>
        <time>2020-08-07T17:40:49Z</time>
      </trkpt>
      <trkpt lat="41.0359990" lon="0.6010090">
        <ele>21.3</ele>
        <time>2020-08-07T17:40:51Z</time>
      </trkpt>
      <trkpt lat="41.0359740" lon="0.6010500">
        <ele>21.2</ele>
        <time>2020-08-07T17:40:52Z</time>
      </trkpt>
      <trkpt lat="41.0359440" lon="0.6010960">
        <ele>21.2</ele>
        <time>2020-08-07T17:40:53Z</time>
      </trkpt>
      <trkpt lat="41.0359160" lon="0.6011390">
        <ele>21.2</ele>
        <time>2020-08-07T17:40:54Z</time>
      </trkpt>
      <trkpt lat="41.0358840" lon="0.6011910">
        <ele>21.2</ele>
        <time>2020-08-07T17:40:55Z</time>
      </trkpt>
      <trkpt lat="41.0358560" lon="0.6012350">
        <ele>21.1</ele>
        <time>2020-08-07T17:40:56Z</time>
      </trkpt>
      <trkpt lat="41.0358000" lon="0.6013170">
        <ele>21.1</ele>
        <time>2020-08-07T17:40:58Z</time>
      </trkpt>
      <trkpt lat="41.0357770" lon="0.6013560">
        <ele>21.1</ele>
        <time>2020-08-07T17:40:59Z</time>
      </trkpt>
      <trkpt lat="41.0357600" lon="0.6013960">
        <ele>21.1</ele>
        <time>2020-08-07T17:41:00Z</time>
      </trkpt>
      <trkpt lat="41.0357360" lon="0.6014400">
        <ele>21.0</ele>
        <time>2020-08-07T17:41:01Z</time>
      </trkpt>
      <trkpt lat="41.0357140" lon="0.6014770">
        <ele>21.0</ele>
        <time>2020-08-07T17:41:02Z</time>
      </trkpt>
      <trkpt lat="41.0356660" lon="0.6015630">
        <ele>21.0</ele>
        <time>2020-08-07T17:41:04Z</time>
      </trkpt>
      <trkpt lat="41.0356490" lon="0.6016130">
        <ele>21.0</ele>
        <time>2020-08-07T17:41:05Z</time>
      </trkpt>
      <trkpt lat="41.0356140" lon="0.6017100">
        <ele>21.0</ele>
        <time>2020-08-07T17:41:07Z</time>
      </trkpt>
      <trkpt lat="41.0355950" lon="0.6017610">
        <ele>21.0</ele>
        <time>2020-08-07T17:41:08Z</time>
      </trkpt>
      <trkpt lat="41.0355760" lon="0.6018110">
        <ele>21.0</ele>
        <time>2020-08-07T17:41:09Z</time>
      </trkpt>
      <trkpt lat="41.0355580" lon="0.6018590">
        <ele>21.0</ele>
        <time>2020-08-07T17:41:10Z</time>
      </trkpt>
      <trkpt lat="41.0355230" lon="0.6019550">
        <ele>21.0</ele>
        <time>2020-08-07T17:41:12Z</time>
      </trkpt>
      <trkpt lat="41.0355060" lon="0.6020060">
        <ele>21.0</ele>
        <time>2020-08-07T17:41:13Z</time>
      </trkpt>
      <trkpt lat="41.0354760" lon="0.6021040">
        <ele>21.0</ele>
        <time>2020-08-07T17:41:15Z</time>
      </trkpt>
      <trkpt lat="41.0354460" lon="0.6021980">
        <ele>21.0</ele>
        <time>2020-08-07T17:41:17Z</time>
      </trkpt>
      <trkpt lat="41.0354320" lon="0.6022430">
        <ele>20.9</ele>
        <time>2020-08-07T17:41:18Z</time>
      </trkpt>
      <trkpt lat="41.0354040" lon="0.6023260">
        <ele>20.8</ele>
        <time>2020-08-07T17:41:20Z</time>
      </trkpt>
      <trkpt lat="41.0353740" lon="0.6024090">
        <ele>20.6</ele>
        <time>2020-08-07T17:41:22Z</time>
      </trkpt>
      <trkpt lat="41.0353600" lon="0.6024540">
        <ele>20.6</ele>
        <time>2020-08-07T17:41:23Z</time>
      </trkpt>
      <trkpt lat="41.0353290" lon="0.6025520">
        <ele>20.6</ele>
        <time>2020-08-07T17:41:25Z</time>
      </trkpt>
      <trkpt lat="41.0352930" lon="0.6026530">
        <ele>20.5</ele>
        <time>2020-08-07T17:41:27Z</time>
      </trkpt>
      <trkpt lat="41.0352480" lon="0.6027570">
        <ele>20.5</ele>
        <time>2020-08-07T17:41:29Z</time>
      </trkpt>
      <trkpt lat="41.0352250" lon="0.6028080">
        <ele>20.5</ele>
        <time>2020-08-07T17:41:30Z</time>
      </trkpt>
      <trkpt lat="41.0351860" lon="0.6029040">
        <ele>20.5</ele>
        <time>2020-08-07T17:41:32Z</time>
      </trkpt>
      <trkpt lat="41.0351660" lon="0.6029570">
        <ele>20.5</ele>
        <time>2020-08-07T17:41:33Z</time>
      </trkpt>
      <trkpt lat="41.0351320" lon="0.6030580">
        <ele>20.7</ele>
        <time>2020-08-07T17:41:35Z</time>
      </trkpt>
      <trkpt lat="41.0350980" lon="0.6031560">
        <ele>20.8</ele>
        <time>2020-08-07T17:41:37Z</time>
      </trkpt>
      <trkpt lat="41.0350600" lon="0.6032610">
        <ele>21.0</ele>
        <time>2020-08-07T17:41:39Z</time>
      </trkpt>
      <trkpt lat="41.0350450" lon="0.6033090">
        <ele>21.0</ele>
        <time>2020-08-07T17:41:40Z</time>
      </trkpt>
      <trkpt lat="41.0350320" lon="0.6033580">
        <ele>21.1</ele>
        <time>2020-08-07T17:41:41Z</time>
      </trkpt>
      <trkpt lat="41.0350230" lon="0.6034060">
        <ele>21.1</ele>
        <time>2020-08-07T17:41:42Z</time>
      </trkpt>
      <trkpt lat="41.0350120" lon="0.6034550">
        <ele>21.1</ele>
        <time>2020-08-07T17:41:43Z</time>
      </trkpt>
      <trkpt lat="41.0349810" lon="0.6035550">
        <ele>21.1</ele>
        <time>2020-08-07T17:41:45Z</time>
      </trkpt>
      <trkpt lat="41.0349490" lon="0.6036540">
        <ele>21.1</ele>
        <time>2020-08-07T17:41:47Z</time>
      </trkpt>
      <trkpt lat="41.0349130" lon="0.6037520">
        <ele>21.1</ele>
        <time>2020-08-07T17:41:49Z</time>
      </trkpt>
      <trkpt lat="41.0348950" lon="0.6038030">
        <ele>21.1</ele>
        <time>2020-08-07T17:41:50Z</time>
      </trkpt>
      <trkpt lat="41.0348660" lon="0.6038930">
        <ele>21.1</ele>
        <time>2020-08-07T17:41:52Z</time>
      </trkpt>
      <trkpt lat="41.0348290" lon="0.6039960">
        <ele>21.1</ele>
        <time>2020-08-07T17:41:54Z</time>
      </trkpt>
      <trkpt lat="41.0348120" lon="0.6040420">
        <ele>21.1</ele>
        <time>2020-08-07T17:41:55Z</time>
      </trkpt>
      <trkpt lat="41.0347970" lon="0.6040810">
        <ele>21.1</ele>
        <time>2020-08-07T17:41:56Z</time>
      </trkpt>
      <trkpt lat="41.0347800" lon="0.6041280">
        <ele>21.1</ele>
        <time>2020-08-07T17:41:57Z</time>
      </trkpt>
      <trkpt lat="41.0347470" lon="0.6042220">
        <ele>21.1</ele>
        <time>2020-08-07T17:41:59Z</time>
      </trkpt>
      <trkpt lat="41.0347300" lon="0.6042710">
        <ele>21.1</ele>
        <time>2020-08-07T17:42:00Z</time>
      </trkpt>
      <trkpt lat="41.0346950" lon="0.6043760">
        <ele>21.0</ele>
        <time>2020-08-07T17:42:02Z</time>
      </trkpt>
      <trkpt lat="41.0346760" lon="0.6044260">
        <ele>21.0</ele>
        <time>2020-08-07T17:42:03Z</time>
      </trkpt>
      <trkpt lat="41.0346580" lon="0.6044750">
        <ele>21.0</ele>
        <time>2020-08-07T17:42:04Z</time>
      </trkpt>
      <trkpt lat="41.0346410" lon="0.6045260">
        <ele>21.0</ele>
        <time>2020-08-07T17:42:05Z</time>
      </trkpt>
      <trkpt lat="41.0346240" lon="0.6045790">
        <ele>21.0</ele>
        <time>2020-08-07T17:42:06Z</time>
      </trkpt>
      <trkpt lat="41.0345940" lon="0.6046810">
        <ele>21.0</ele>
        <time>2020-08-07T17:42:08Z</time>
      </trkpt>
      <trkpt lat="41.0345790" lon="0.6047310">
        <ele>21.1</ele>
        <time>2020-08-07T17:42:09Z</time>
      </trkpt>
      <trkpt lat="41.0345620" lon="0.6047830">
        <ele>21.1</ele>
        <time>2020-08-07T17:42:10Z</time>
      </trkpt>
      <trkpt lat="41.0345450" lon="0.6048340">
        <ele>21.2</ele>
        <time>2020-08-07T17:42:11Z</time>
      </trkpt>
      <trkpt lat="41.0345100" lon="0.6049330">
        <ele>21.3</ele>
        <time>2020-08-07T17:42:13Z</time>
      </trkpt>
      <trkpt lat="41.0344740" lon="0.6050290">
        <ele>21.3</ele>
        <time>2020-08-07T17:42:15Z</time>
      </trkpt>
      <trkpt lat="41.0344570" lon="0.6050750">
        <ele>21.4</ele>
        <time>2020-08-07T17:42:16Z</time>
      </trkpt>
      <trkpt lat="41.0344400" lon="0.6051200">
        <ele>21.3</ele>
        <time>2020-08-07T17:42:17Z</time>
      </trkpt>
      <trkpt lat="41.0344230" lon="0.6051650">
        <ele>21.3</ele>
        <time>2020-08-07T17:42:18Z</time>
      </trkpt>
      <trkpt lat="41.0343870" lon="0.6052590">
        <ele>21.2</ele>
        <time>2020-08-07T17:42:20Z</time>
      </trkpt>
      <trkpt lat="41.0343670" lon="0.6053100">
        <ele>21.2</ele>
        <time>2020-08-07T17:42:21Z</time>
      </trkpt>
      <trkpt lat="41.0343460" lon="0.6053610">
        <ele>21.1</ele>
        <time>2020-08-07T17:42:22Z</time>
      </trkpt>
      <trkpt lat="41.0343090" lon="0.6054550">
        <ele>21.1</ele>
        <time>2020-08-07T17:42:24Z</time>
      </trkpt>
      <trkpt lat="41.0342920" lon="0.6055010">
        <ele>21.1</ele>
        <time>2020-08-07T17:42:25Z</time>
      </trkpt>
      <trkpt lat="41.0342590" lon="0.6055920">
        <ele>21.0</ele>
        <time>2020-08-07T17:42:27Z</time>
      </trkpt>
      <trkpt lat="41.0342430" lon="0.6056390">
        <ele>21.0</ele>
        <time>2020-08-07T17:42:28Z</time>
      </trkpt>
      <trkpt lat="41.0342090" lon="0.6057390">
        <ele>21.0</ele>
        <time>2020-08-07T17:42:30Z</time>
      </trkpt>
      <trkpt lat="41.0341710" lon="0.6058380">
        <ele>21.0</ele>
        <time>2020-08-07T17:42:32Z</time>
      </trkpt>
      <trkpt lat="41.0341310" lon="0.6059440">
        <ele>21.0</ele>
        <time>2020-08-07T17:42:34Z</time>
      </trkpt>
      <trkpt lat="41.0341090" lon="0.6059980">
        <ele>21.0</ele>
        <time>2020-08-07T17:42:35Z</time>
      </trkpt>
      <trkpt lat="41.0340740" lon="0.6061020">
        <ele>21.0</ele>
        <time>2020-08-07T17:42:37Z</time>
      </trkpt>
      <trkpt lat="41.0340410" lon="0.6062010">
        <ele>20.9</ele>
        <time>2020-08-07T17:42:39Z</time>
      </trkpt>
      <trkpt lat="41.0340100" lon="0.6063070">
        <ele>20.8</ele>
        <time>2020-08-07T17:42:41Z</time>
      </trkpt>
      <trkpt lat="41.0339970" lon="0.6063580">
        <ele>20.7</ele>
        <time>2020-08-07T17:42:42Z</time>
      </trkpt>
      <trkpt lat="41.0339840" lon="0.6064070">
        <ele>20.7</ele>
        <time>2020-08-07T17:42:43Z</time>
      </trkpt>
      <trkpt lat="41.0339700" lon="0.6064540">
        <ele>20.6</ele>
        <time>2020-08-07T17:42:44Z</time>
      </trkpt>
      <trkpt lat="41.0339560" lon="0.6064990">
        <ele>20.6</ele>
        <time>2020-08-07T17:42:45Z</time>
      </trkpt>
      <trkpt lat="41.0339270" lon="0.6065870">
        <ele>20.5</ele>
        <time>2020-08-07T17:42:47Z</time>
      </trkpt>
      <trkpt lat="41.0339170" lon="0.6066120">
        <ele>20.5</ele>
        <time>2020-08-07T17:42:48Z</time>
      </trkpt>
      <trkpt lat="41.0338770" lon="0.6067070">
        <ele>20.5</ele>
        <time>2020-08-07T17:42:50Z</time>
      </trkpt>
      <trkpt lat="41.0338570" lon="0.6067560">
        <ele>20.5</ele>
        <time>2020-08-07T17:42:51Z</time>
      </trkpt>
      <trkpt lat="41.0338240" lon="0.6068490">
        <ele>20.5</ele>
        <time>2020-08-07T17:42:53Z</time>
      </trkpt>
      <trkpt lat="41.0337950" lon="0.6069540">
        <ele>20.5</ele>
        <time>2020-08-07T17:42:55Z</time>
      </trkpt>
      <trkpt lat="41.0337830" lon="0.6069990">
        <ele>20.5</ele>
        <time>2020-08-07T17:42:56Z</time>
      </trkpt>
      <trkpt lat="41.0337520" lon="0.6070860">
        <ele>20.5</ele>
        <time>2020-08-07T17:42:58Z</time>
      </trkpt>
      <trkpt lat="41.0337130" lon="0.6071930">
        <ele>20.4</ele>
        <time>2020-08-07T17:43:00Z</time>
      </trkpt>
      <trkpt lat="41.0336950" lon="0.6072450">
        <ele>20.4</ele>
        <time>2020-08-07T17:43:01Z</time>
      </trkpt>
      <trkpt lat="41.0336670" lon="0.6073270">
        <ele>20.4</ele>
        <time>2020-08-07T17:43:03Z</time>
      </trkpt>
      <trkpt lat="41.0336520" lon="0.6073730">
        <ele>20.4</ele>
        <time>2020-08-07T17:43:04Z</time>
      </trkpt>
      <trkpt lat="41.0336390" lon="0.6074170">
        <ele>20.4</ele>
        <time>2020-08-07T17:43:05Z</time>
      </trkpt>
      <trkpt lat="41.0336280" lon="0.6074560">
        <ele>20.4</ele>
        <time>2020-08-07T17:43:06Z</time>
      </trkpt>
      <trkpt lat="41.0336140" lon="0.6074980">
        <ele>20.4</ele>
        <time>2020-08-07T17:43:07Z</time>
      </trkpt>
      <trkpt lat="41.0335780" lon="0.6075970">
        <ele>20.4</ele>
        <time>2020-08-07T17:43:09Z</time>
      </trkpt>
      <trkpt lat="41.0335640" lon="0.6076390">
        <ele>20.4</ele>
        <time>2020-08-07T17:43:10Z</time>
      </trkpt>
      <trkpt lat="41.0335500" lon="0.6076800">
        <ele>20.4</ele>
        <time>2020-08-07T17:43:11Z</time>
      </trkpt>
      <trkpt lat="41.0335370" lon="0.6077200">
        <ele>20.4</ele>
        <time>2020-08-07T17:43:12Z</time>
      </trkpt>
      <trkpt lat="41.0335120" lon="0.6077930">
        <ele>20.5</ele>
        <time>2020-08-07T17:43:14Z</time>
      </trkpt>
      <trkpt lat="41.0335010" lon="0.6078310">
        <ele>20.6</ele>
        <time>2020-08-07T17:43:15Z</time>
      </trkpt>
      <trkpt lat="41.0334900" lon="0.6078780">
        <ele>20.6</ele>
        <time>2020-08-07T17:43:16Z</time>
      </trkpt>
      <trkpt lat="41.0334810" lon="0.6079180">
        <ele>20.7</ele>
        <time>2020-08-07T17:43:17Z</time>
      </trkpt>
      <trkpt lat="41.0334650" lon="0.6079700">
        <ele>20.7</ele>
        <time>2020-08-07T17:43:18Z</time>
      </trkpt>
      <trkpt lat="41.0334350" lon="0.6080650">
        <ele>20.8</ele>
        <time>2020-08-07T17:43:20Z</time>
      </trkpt>
      <trkpt lat="41.0334060" lon="0.6081400">
        <ele>20.8</ele>
        <time>2020-08-07T17:43:22Z</time>
      </trkpt>
      <trkpt lat="41.0333870" lon="0.6081840">
        <ele>20.8</ele>
        <time>2020-08-07T17:43:23Z</time>
      </trkpt>
      <trkpt lat="41.0333650" lon="0.6082280">
        <ele>20.8</ele>
        <time>2020-08-07T17:43:24Z</time>
      </trkpt>
      <trkpt lat="41.0333190" lon="0.6082980">
        <ele>20.8</ele>
        <time>2020-08-07T17:43:26Z</time>
      </trkpt>
      <trkpt lat="41.0332600" lon="0.6083460">
        <ele>20.7</ele>
        <time>2020-08-07T17:43:28Z</time>
      </trkpt>
      <trkpt lat="41.0332310" lon="0.6083630">
        <ele>20.7</ele>
        <time>2020-08-07T17:43:29Z</time>
      </trkpt>
      <trkpt lat="41.0331860" lon="0.6083780">
        <ele>20.6</ele>
        <time>2020-08-07T17:43:31Z</time>
      </trkpt>
      <trkpt lat="41.0331550" lon="0.6083940">
        <ele>20.6</ele>
        <time>2020-08-07T17:43:32Z</time>
      </trkpt>
      <trkpt lat="41.0331440" lon="0.6083980">
        <ele>20.6</ele>
        <time>2020-08-07T17:43:33Z</time>
      </trkpt>
      <trkpt lat="41.0331110" lon="0.6084060">
        <ele>20.5</ele>
        <time>2020-08-07T17:43:34Z</time>
      </trkpt>
      <trkpt lat="41.0330980" lon="0.6084080">
        <ele>20.5</ele>
        <time>2020-08-07T17:43:35Z</time>
      </trkpt>
      <trkpt lat="41.0330550" lon="0.6084100">
        <ele>20.4</ele>
        <time>2020-08-07T17:43:37Z</time>
      </trkpt>
      <trkpt lat="41.0330230" lon="0.6084220">
        <ele>20.3</ele>
        <time>2020-08-07T17:43:39Z</time>
      </trkpt>
      <trkpt lat="41.0330140" lon="0.6084290">
        <ele>20.3</ele>
        <time>2020-08-07T17:43:40Z</time>
      </trkpt>
      <trkpt lat="41.0330180" lon="0.6084350">
        <ele>20.3</ele>
        <time>2020-08-07T17:43:42Z</time>
      </trkpt>
      <trkpt lat="41.0330290" lon="0.6084290">
        <ele>20.2</ele>
        <time>2020-08-07T17:43:44Z</time>
      </trkpt>
      <trkpt lat="41.0330290" lon="0.6084280">
        <ele>20.2</ele>
        <time>2020-08-07T17:43:46Z</time>
      </trkpt>
      <trkpt lat="41.0330290" lon="0.6084310">
        <ele>20.2</ele>
        <time>2020-08-07T17:43:47Z</time>
      </trkpt>
      <trkpt lat="41.0330270" lon="0.6084340">
        <ele>20.2</ele>
        <time>2020-08-07T17:43:48Z</time>
      </trkpt>
      <trkpt lat="41.0330220" lon="0.6084420">
        <ele>20.2</ele>
        <time>2020-08-07T17:43:50Z</time>
      </trkpt>
      <trkpt lat="41.0330210" lon="0.6084450">
        <ele>20.2</ele>
        <time>2020-08-07T17:43:51Z</time>
      </trkpt>
      <trkpt lat="41.0330190" lon="0.6084470">
        <ele>20.2</ele>
        <time>2020-08-07T17:43:52Z</time>
      </trkpt>
      <trkpt lat="41.0330170" lon="0.6084490">
        <ele>20.2</ele>
        <time>2020-08-07T17:43:54Z</time>
      </trkpt>
      <trkpt lat="41.0330160" lon="0.6084490">
        <ele>20.2</ele>
        <time>2020-08-07T17:43:55Z</time>
      </trkpt>
      <trkpt lat="41.0330160" lon="0.6084490">
        <ele>20.2</ele>
        <time>2020-08-07T17:43:56Z</time>
      </trkpt>
      <trkpt lat="41.0330160" lon="0.6084490">
        <ele>20.2</ele>
        <time>2020-08-07T17:43:58Z</time>
      </trkpt>
      <trkpt lat="41.0330160" lon="0.6084480">
        <ele>20.2</ele>
        <time>2020-08-07T17:43:59Z</time>
      </trkpt>
      <trkpt lat="41.0330160" lon="0.6084480">
        <ele>20.2</ele>
        <time>2020-08-07T17:44:01Z</time>
      </trkpt>
      <trkpt lat="41.0330440" lon="0.6084600">
        <ele>20.1</ele>
        <time>2020-08-07T17:44:39Z</time>
      </trkpt>
      <trkpt lat="41.0330460" lon="0.6084660">
        <ele>20.1</ele>
        <time>2020-08-07T17:44:40Z</time>
      </trkpt>
      <trkpt lat="41.0330430" lon="0.6084670">
        <ele>20.1</ele>
        <time>2020-08-07T17:44:42Z</time>
      </trkpt>
      <trkpt lat="41.0330420" lon="0.6084650">
        <ele>20.1</ele>
        <time>2020-08-07T17:44:43Z</time>
      </trkpt>
      <trkpt lat="41.0330390" lon="0.6084640">
        <ele>20.1</ele>
        <time>2020-08-07T17:44:44Z</time>
      </trkpt>
      <trkpt lat="41.0330390" lon="0.6084650">
        <ele>20.1</ele>
        <time>2020-08-07T17:44:45Z</time>
      </trkpt>
      <trkpt lat="41.0330390" lon="0.6084650">
        <ele>20.1</ele>
        <time>2020-08-07T17:44:47Z</time>
      </trkpt>
      <trkpt lat="41.0330330" lon="0.6084660">
        <ele>20.1</ele>
        <time>2020-08-07T17:44:49Z</time>
      </trkpt>
      <trkpt lat="41.0330290" lon="0.6084670">
        <ele>20.1</ele>
        <time>2020-08-07T17:44:50Z</time>
      </trkpt>
      <trkpt lat="41.0330240" lon="0.6084690">
        <ele>20.0</ele>
        <time>2020-08-07T17:44:52Z</time>
      </trkpt>
      <trkpt lat="41.0330230" lon="0.6084700">
        <ele>20.0</ele>
        <time>2020-08-07T17:44:54Z</time>
      </trkpt>
      <trkpt lat="41.0330230" lon="0.6084700">
        <ele>20.0</ele>
        <time>2020-08-07T17:44:55Z</time>
      </trkpt>
      <trkpt lat="41.0330230" lon="0.6084700">
        <ele>20.0</ele>
        <time>2020-08-07T17:44:57Z</time>
      </trkpt>
      <trkpt lat="41.0330230" lon="0.6084700">
        <ele>20.0</ele>
        <time>2020-08-07T17:44:58Z</time>
      </trkpt>
      <trkpt lat="41.0330230" lon="0.6084690">
        <ele>20.0</ele>
        <time>2020-08-07T17:44:59Z</time>
      </trkpt>
      <trkpt lat="41.0330230" lon="0.6084690">
        <ele>20.0</ele>
        <time>2020-08-07T17:45:01Z</time>
      </trkpt>
      <trkpt lat="41.0330150" lon="0.6084580">
        <ele>20.0</ele>
        <time>2020-08-07T17:45:11Z</time>
      </trkpt>
      <trkpt lat="41.0329980" lon="0.6084490">
        <ele>20.0</ele>
        <time>2020-08-07T17:45:12Z</time>
      </trkpt>
      <trkpt lat="41.0329650" lon="0.6084430">
        <ele>19.9</ele>
        <time>2020-08-07T17:45:14Z</time>
      </trkpt>
      <trkpt lat="41.0329530" lon="0.6084450">
        <ele>19.9</ele>
        <time>2020-08-07T17:45:15Z</time>
      </trkpt>
      <trkpt lat="41.0329330" lon="0.6084500">
        <ele>19.9</ele>
        <time>2020-08-07T17:45:17Z</time>
      </trkpt>
      <trkpt lat="41.0329160" lon="0.6084590">
        <ele>19.8</ele>
        <time>2020-08-07T17:45:19Z</time>
      </trkpt>
      <trkpt lat="41.0328990" lon="0.6084710">
        <ele>19.8</ele>
        <time>2020-08-07T17:45:21Z</time>
      </trkpt>
      <trkpt lat="41.0328910" lon="0.6084750">
        <ele>19.8</ele>
        <time>2020-08-07T17:45:22Z</time>
      </trkpt>
      <trkpt lat="41.0328790" lon="0.6084850">
        <ele>19.8</ele>
        <time>2020-08-07T17:45:24Z</time>
      </trkpt>
      <trkpt lat="41.0328830" lon="0.6084820">
        <ele>19.8</ele>
        <time>2020-08-07T17:45:25Z</time>
      </trkpt>
      <trkpt lat="41.0328940" lon="0.6084720">
        <ele>19.8</ele>
        <time>2020-08-07T17:45:27Z</time>
      </trkpt>
      <trkpt lat="41.0328950" lon="0.6084670">
        <ele>19.8</ele>
        <time>2020-08-07T17:45:28Z</time>
      </trkpt>
      <trkpt lat="41.0328930" lon="0.6084640">
        <ele>19.8</ele>
        <time>2020-08-07T17:45:29Z</time>
      </trkpt>
      <trkpt lat="41.0328930" lon="0.6084640">
        <ele>19.8</ele>
        <time>2020-08-07T17:45:30Z</time>
      </trkpt>
      <trkpt lat="41.0328940" lon="0.6084650">
        <ele>19.8</ele>
        <time>2020-08-07T17:45:31Z</time>
      </trkpt>
      <trkpt lat="41.0328940" lon="0.6084670">
        <ele>19.8</ele>
        <time>2020-08-07T17:45:33Z</time>
      </trkpt>
      <trkpt lat="41.0328950" lon="0.6084660">
        <ele>19.8</ele>
        <time>2020-08-07T17:45:34Z</time>
      </trkpt>
      <trkpt lat="41.0328940" lon="0.6084660">
        <ele>19.8</ele>
        <time>2020-08-07T17:45:36Z</time>
      </trkpt>
      <trkpt lat="41.0328930" lon="0.6084660">
        <ele>19.8</ele>
        <time>2020-08-07T17:45:37Z</time>
      </trkpt>
      <trkpt lat="41.0328950" lon="0.6084640">
        <ele>19.8</ele>
        <time>2020-08-07T17:45:39Z</time>
      </trkpt>
      <trkpt lat="41.0328470" lon="0.6084830">
        <ele>19.8</ele>
        <time>2020-08-07T17:46:41Z</time>
      </trkpt>
      <trkpt lat="41.0328440" lon="0.6084860">
        <ele>19.8</ele>
        <time>2020-08-07T17:46:43Z</time>
      </trkpt>
      <trkpt lat="41.0328370" lon="0.6084900">
        <ele>19.8</ele>
        <time>2020-08-07T17:46:44Z</time>
      </trkpt>
      <trkpt lat="41.0328210" lon="0.6084960">
        <ele>19.8</ele>
        <time>2020-08-07T17:46:46Z</time>
      </trkpt>
      <trkpt lat="41.0328130" lon="0.6085020">
        <ele>19.8</ele>
        <time>2020-08-07T17:46:47Z</time>
      </trkpt>
      <trkpt lat="41.0327950" lon="0.6085150">
        <ele>19.8</ele>
        <time>2020-08-07T17:46:49Z</time>
      </trkpt>
      <trkpt lat="41.0327850" lon="0.6085230">
        <ele>19.8</ele>
        <time>2020-08-07T17:46:50Z</time>
      </trkpt>
      <trkpt lat="41.0327620" lon="0.6085400">
        <ele>19.8</ele>
        <time>2020-08-07T17:46:52Z</time>
      </trkpt>
      <trkpt lat="41.0327530" lon="0.6085470">
        <ele>19.8</ele>
        <time>2020-08-07T17:46:53Z</time>
      </trkpt>
      <trkpt lat="41.0327400" lon="0.6085600">
        <ele>19.8</ele>
        <time>2020-08-07T17:46:56Z</time>
      </trkpt>
      <trkpt lat="41.0327220" lon="0.6085810">
        <ele>19.8</ele>
        <time>2020-08-07T17:46:58Z</time>
      </trkpt>
      <trkpt lat="41.0327070" lon="0.6085940">
        <ele>19.8</ele>
        <time>2020-08-07T17:47:00Z</time>
      </trkpt>
      <trkpt lat="41.0326980" lon="0.6085970">
        <ele>19.8</ele>
        <time>2020-08-07T17:47:01Z</time>
      </trkpt>
      <trkpt lat="41.0326830" lon="0.6086000">
        <ele>19.7</ele>
        <time>2020-08-07T17:47:03Z</time>
      </trkpt>
      <trkpt lat="41.0326680" lon="0.6086040">
        <ele>19.7</ele>
        <time>2020-08-07T17:47:05Z</time>
      </trkpt>
      <trkpt lat="41.0326720" lon="0.6086000">
        <ele>19.7</ele>
        <time>2020-08-07T17:47:06Z</time>
      </trkpt>
      <trkpt lat="41.0326740" lon="0.6085940">
        <ele>19.7</ele>
        <time>2020-08-07T17:47:07Z</time>
      </trkpt>
      <trkpt lat="41.0326760" lon="0.6085860">
        <ele>19.7</ele>
        <time>2020-08-07T17:47:09Z</time>
      </trkpt>
      <trkpt lat="41.0326730" lon="0.6085800">
        <ele>19.7</ele>
        <time>2020-08-07T17:47:11Z</time>
      </trkpt>
      <trkpt lat="41.0326700" lon="0.6085800">
        <ele>19.7</ele>
        <time>2020-08-07T17:47:13Z</time>
      </trkpt>
      <trkpt lat="41.0326600" lon="0.6085820">
        <ele>19.7</ele>
        <time>2020-08-07T17:47:15Z</time>
      </trkpt>
      <trkpt lat="41.0326390" lon="0.6085860">
        <ele>19.7</ele>
        <time>2020-08-07T17:47:17Z</time>
      </trkpt>
      <trkpt lat="41.0326250" lon="0.6085880">
        <ele>19.7</ele>
        <time>2020-08-07T17:47:18Z</time>
      </trkpt>
      <trkpt lat="41.0326140" lon="0.6085910">
        <ele>19.7</ele>
        <time>2020-08-07T17:47:19Z</time>
      </trkpt>
      <trkpt lat="41.0326020" lon="0.6085930">
        <ele>19.7</ele>
        <time>2020-08-07T17:47:21Z</time>
      </trkpt>
      <trkpt lat="41.0325910" lon="0.6085940">
        <ele>19.7</ele>
        <time>2020-08-07T17:47:23Z</time>
      </trkpt>
      <trkpt lat="41.0325850" lon="0.6085940">
        <ele>19.7</ele>
        <time>2020-08-07T17:47:24Z</time>
      </trkpt>
      <trkpt lat="41.0325780" lon="0.6085940">
        <ele>19.7</ele>
        <time>2020-08-07T17:47:25Z</time>
      </trkpt>
      <trkpt lat="41.0325710" lon="0.6085940">
        <ele>19.7</ele>
        <time>2020-08-07T17:47:26Z</time>
      </trkpt>
      <trkpt lat="41.0325670" lon="0.6085790">
        <ele>19.7</ele>
        <time>2020-08-07T17:47:28Z</time>
      </trkpt>
      <trkpt lat="41.0325650" lon="0.6085740">
        <ele>19.7</ele>
        <time>2020-08-07T17:47:29Z</time>
      </trkpt>
      <trkpt lat="41.0325600" lon="0.6085740">
        <ele>19.7</ele>
        <time>2020-08-07T17:47:30Z</time>
      </trkpt>
      <trkpt lat="41.0325470" lon="0.6085760">
        <ele>19.6</ele>
        <time>2020-08-07T17:47:32Z</time>
      </trkpt>
      <trkpt lat="41.0325400" lon="0.6085860">
        <ele>19.6</ele>
        <time>2020-08-07T17:47:34Z</time>
      </trkpt>
      <trkpt lat="41.0325350" lon="0.6085910">
        <ele>19.6</ele>
        <time>2020-08-07T17:47:35Z</time>
      </trkpt>
      <trkpt lat="41.0325280" lon="0.6085930">
        <ele>19.6</ele>
        <time>2020-08-07T17:47:36Z</time>
      </trkpt>
      <trkpt lat="41.0325200" lon="0.6085970">
        <ele>19.6</ele>
        <time>2020-08-07T17:47:38Z</time>
      </trkpt>
      <trkpt lat="41.0325160" lon="0.6086000">
        <ele>19.6</ele>
        <time>2020-08-07T17:47:39Z</time>
      </trkpt>
      <trkpt lat="41.0325130" lon="0.6086020">
        <ele>19.6</ele>
        <time>2020-08-07T17:47:40Z</time>
      </trkpt>
      <trkpt lat="41.0325130" lon="0.6086050">
        <ele>19.6</ele>
        <time>2020-08-07T17:47:41Z</time>
      </trkpt>
      <trkpt lat="41.0325140" lon="0.6086060">
        <ele>19.6</ele>
        <time>2020-08-07T17:47:43Z</time>
      </trkpt>
      <trkpt lat="41.0325140" lon="0.6086050">
        <ele>19.6</ele>
        <time>2020-08-07T17:47:44Z</time>
      </trkpt>
      <trkpt lat="41.0325140" lon="0.6086040">
        <ele>19.6</ele>
        <time>2020-08-07T17:47:45Z</time>
      </trkpt>
      <trkpt lat="41.0325130" lon="0.6086050">
        <ele>19.6</ele>
        <time>2020-08-07T17:47:46Z</time>
      </trkpt>
      <trkpt lat="41.0325120" lon="0.6086060">
        <ele>19.6</ele>
        <time>2020-08-07T17:47:47Z</time>
      </trkpt>
      <trkpt lat="41.0325110" lon="0.6086070">
        <ele>19.6</ele>
        <time>2020-08-07T17:47:48Z</time>
      </trkpt>
      <trkpt lat="41.0325100" lon="0.6086080">
        <ele>19.6</ele>
        <time>2020-08-07T17:47:49Z</time>
      </trkpt>
      <trkpt lat="41.0325040" lon="0.6086110">
        <ele>19.6</ele>
        <time>2020-08-07T17:47:51Z</time>
      </trkpt>
      <trkpt lat="41.0324820" lon="0.6086160">
        <ele>19.6</ele>
        <time>2020-08-07T17:47:54Z</time>
      </trkpt>
      <trkpt lat="41.0324630" lon="0.6086230">
        <ele>19.6</ele>
        <time>2020-08-07T17:47:56Z</time>
      </trkpt>
      <trkpt lat="41.0324480" lon="0.6086300">
        <ele>19.6</ele>
        <time>2020-08-07T17:47:58Z</time>
      </trkpt>
      <trkpt lat="41.0324420" lon="0.6086350">
        <ele>19.6</ele>
        <time>2020-08-07T17:47:59Z</time>
      </trkpt>
      <trkpt lat="41.0324320" lon="0.6086460">
        <ele>19.6</ele>
        <time>2020-08-07T17:48:01Z</time>
      </trkpt>
      <trkpt lat="41.0324220" lon="0.6086650">
        <ele>19.6</ele>
        <time>2020-08-07T17:48:03Z</time>
      </trkpt>
      <trkpt lat="41.0324130" lon="0.6086770">
        <ele>19.6</ele>
        <time>2020-08-07T17:48:05Z</time>
      </trkpt>
      <trkpt lat="41.0324090" lon="0.6086790">
        <ele>19.6</ele>
        <time>2020-08-07T17:48:06Z</time>
      </trkpt>
      <trkpt lat="41.0324040" lon="0.6086800">
        <ele>19.6</ele>
        <time>2020-08-07T17:48:08Z</time>
      </trkpt>
      <trkpt lat="41.0324000" lon="0.6086820">
        <ele>19.6</ele>
        <time>2020-08-07T17:48:10Z</time>
      </trkpt>
      <trkpt lat="41.0323950" lon="0.6086830">
        <ele>19.6</ele>
        <time>2020-08-07T17:48:11Z</time>
      </trkpt>
      <trkpt lat="41.0323900" lon="0.6086850">
        <ele>19.6</ele>
        <time>2020-08-07T17:48:13Z</time>
      </trkpt>
      <trkpt lat="41.0323860" lon="0.6086860">
        <ele>19.5</ele>
        <time>2020-08-07T17:48:14Z</time>
      </trkpt>
      <trkpt lat="41.0323810" lon="0.6086880">
        <ele>19.5</ele>
        <time>2020-08-07T17:48:15Z</time>
      </trkpt>
      <trkpt lat="41.0323770" lon="0.6086890">
        <ele>19.5</ele>
        <time>2020-08-07T17:48:17Z</time>
      </trkpt>
      <trkpt lat="41.0323720" lon="0.6086900">
        <ele>19.5</ele>
        <time>2020-08-07T17:48:27Z</time>
      </trkpt>
      <trkpt lat="41.0323670" lon="0.6086920">
        <ele>19.5</ele>
        <time>2020-08-07T17:48:28Z</time>
      </trkpt>
      <trkpt lat="41.0323630" lon="0.6086930">
        <ele>19.5</ele>
        <time>2020-08-07T17:48:30Z</time>
      </trkpt>
      <trkpt lat="41.0323580" lon="0.6086950">
        <ele>19.5</ele>
        <time>2020-08-07T17:48:31Z</time>
      </trkpt>
      <trkpt lat="41.0323530" lon="0.6086960">
        <ele>19.5</ele>
        <time>2020-08-07T17:48:33Z</time>
      </trkpt>
      <trkpt lat="41.0323490" lon="0.6086980">
        <ele>19.5</ele>
        <time>2020-08-07T17:48:35Z</time>
      </trkpt>
      <trkpt lat="41.0323440" lon="0.6086990">
        <ele>19.5</ele>
        <time>2020-08-07T17:48:36Z</time>
      </trkpt>
      <trkpt lat="41.0323400" lon="0.6087010">
        <ele>19.5</ele>
        <time>2020-08-07T17:48:45Z</time>
      </trkpt>
      <trkpt lat="41.0323350" lon="0.6087020">
        <ele>19.5</ele>
        <time>2020-08-07T17:48:45Z</time>
      </trkpt>
      <trkpt lat="41.0323290" lon="0.6087030">
        <ele>19.5</ele>
        <time>2020-08-07T17:48:46Z</time>
      </trkpt>
      <trkpt lat="41.0323050" lon="0.6087110">
        <ele>19.5</ele>
        <time>2020-08-07T17:48:48Z</time>
      </trkpt>
      <trkpt lat="41.0322950" lon="0.6087180">
        <ele>19.5</ele>
        <time>2020-08-07T17:48:49Z</time>
      </trkpt>
      <trkpt lat="41.0322800" lon="0.6087290">
        <ele>19.4</ele>
        <time>2020-08-07T17:48:51Z</time>
      </trkpt>
      <trkpt lat="41.0322750" lon="0.6087320">
        <ele>19.4</ele>
        <time>2020-08-07T17:48:52Z</time>
      </trkpt>
      <trkpt lat="41.0322670" lon="0.6087370">
        <ele>19.4</ele>
        <time>2020-08-07T17:48:54Z</time>
      </trkpt>
      <trkpt lat="41.0322590" lon="0.6087450">
        <ele>19.4</ele>
        <time>2020-08-07T17:48:56Z</time>
      </trkpt>
      <trkpt lat="41.0322570" lon="0.6087510">
        <ele>19.4</ele>
        <time>2020-08-07T17:48:58Z</time>
      </trkpt>
      <trkpt lat="41.0322510" lon="0.6087570">
        <ele>19.4</ele>
        <time>2020-08-07T17:49:00Z</time>
      </trkpt>
      <trkpt lat="41.0322460" lon="0.6087610">
        <ele>19.4</ele>
        <time>2020-08-07T17:49:01Z</time>
      </trkpt>
      <trkpt lat="41.0322410" lon="0.6087650">
        <ele>19.4</ele>
        <time>2020-08-07T17:49:02Z</time>
      </trkpt>
      <trkpt lat="41.0322310" lon="0.6087730">
        <ele>19.4</ele>
        <time>2020-08-07T17:49:04Z</time>
      </trkpt>
      <trkpt lat="41.0322250" lon="0.6087770">
        <ele>19.4</ele>
        <time>2020-08-07T17:49:05Z</time>
      </trkpt>
      <trkpt lat="41.0322150" lon="0.6087730">
        <ele>19.4</ele>
        <time>2020-08-07T17:49:07Z</time>
      </trkpt>
      <trkpt lat="41.0322090" lon="0.6087650">
        <ele>19.3</ele>
        <time>2020-08-07T17:49:08Z</time>
      </trkpt>
      <trkpt lat="41.0322040" lon="0.6087570">
        <ele>19.3</ele>
        <time>2020-08-07T17:49:10Z</time>
      </trkpt>
      <trkpt lat="41.0322040" lon="0.6087580">
        <ele>19.3</ele>
        <time>2020-08-07T17:49:12Z</time>
      </trkpt>
      <trkpt lat="41.0322030" lon="0.6087580">
        <ele>19.3</ele>
        <time>2020-08-07T17:49:13Z</time>
      </trkpt>
      <trkpt lat="41.0322020" lon="0.6087580">
        <ele>19.3</ele>
        <time>2020-08-07T17:49:14Z</time>
      </trkpt>
      <trkpt lat="41.0322000" lon="0.6087580">
        <ele>19.3</ele>
        <time>2020-08-07T17:49:15Z</time>
      </trkpt>
      <trkpt lat="41.0321980" lon="0.6087590">
        <ele>19.3</ele>
        <time>2020-08-07T17:49:16Z</time>
      </trkpt>
      <trkpt lat="41.0321970" lon="0.6087590">
        <ele>19.3</ele>
        <time>2020-08-07T17:49:17Z</time>
      </trkpt>
      <trkpt lat="41.0321930" lon="0.6087610">
        <ele>19.3</ele>
        <time>2020-08-07T17:49:18Z</time>
      </trkpt>
      <trkpt lat="41.0321830" lon="0.6087660">
        <ele>19.3</ele>
        <time>2020-08-07T17:49:20Z</time>
      </trkpt>
      <trkpt lat="41.0321790" lon="0.6087680">
        <ele>19.3</ele>
        <time>2020-08-07T17:49:21Z</time>
      </trkpt>
      <trkpt lat="41.0321650" lon="0.6087780">
        <ele>19.3</ele>
        <time>2020-08-07T17:49:23Z</time>
      </trkpt>
      <trkpt lat="41.0321610" lon="0.6087830">
        <ele>19.3</ele>
        <time>2020-08-07T17:49:24Z</time>
      </trkpt>
      <trkpt lat="41.0321570" lon="0.6087850">
        <ele>19.4</ele>
        <time>2020-08-07T17:49:25Z</time>
      </trkpt>
      <trkpt lat="41.0321530" lon="0.6087900">
        <ele>19.4</ele>
        <time>2020-08-07T17:49:27Z</time>
      </trkpt>
      <trkpt lat="41.0321520" lon="0.6087920">
        <ele>19.4</ele>
        <time>2020-08-07T17:49:28Z</time>
      </trkpt>
      <trkpt lat="41.0321480" lon="0.6087900">
        <ele>19.4</ele>
        <time>2020-08-07T17:49:30Z</time>
      </trkpt>
      <trkpt lat="41.0321500" lon="0.6087940">
        <ele>19.4</ele>
        <time>2020-08-07T17:49:31Z</time>
      </trkpt>
      <trkpt lat="41.0321520" lon="0.6087970">
        <ele>19.4</ele>
        <time>2020-08-07T17:49:33Z</time>
      </trkpt>
      <trkpt lat="41.0321510" lon="0.6087960">
        <ele>19.4</ele>
        <time>2020-08-07T17:49:34Z</time>
      </trkpt>
      <trkpt lat="41.0321470" lon="0.6087990">
        <ele>19.4</ele>
        <time>2020-08-07T17:49:36Z</time>
      </trkpt>
      <trkpt lat="41.0321430" lon="0.6088020">
        <ele>19.4</ele>
        <time>2020-08-07T17:49:37Z</time>
      </trkpt>
      <trkpt lat="41.0321430" lon="0.6088020">
        <ele>19.4</ele>
        <time>2020-08-07T17:49:37Z</time>
      </trkpt>
      <trkpt lat="41.0321380" lon="0.6088050">
        <ele>19.4</ele>
        <time>2020-08-07T17:49:39Z</time>
      </trkpt>
      <trkpt lat="41.0321370" lon="0.6088070">
        <ele>19.4</ele>
        <time>2020-08-07T17:49:40Z</time>
      </trkpt>
      <trkpt lat="41.0321360" lon="0.6088090">
        <ele>19.4</ele>
        <time>2020-08-07T17:49:42Z</time>
      </trkpt>
      <trkpt lat="41.0321380" lon="0.6088110">
        <ele>19.4</ele>
        <time>2020-08-07T17:49:44Z</time>
      </trkpt>
      <trkpt lat="41.0321370" lon="0.6088120">
        <ele>19.4</ele>
        <time>2020-08-07T17:49:45Z</time>
      </trkpt>
      <trkpt lat="41.0321370" lon="0.6088130">
        <ele>19.4</ele>
        <time>2020-08-07T17:49:46Z</time>
      </trkpt>
      <trkpt lat="41.0321380" lon="0.6088130">
        <ele>19.4</ele>
        <time>2020-08-07T17:49:48Z</time>
      </trkpt>
      <trkpt lat="41.0321400" lon="0.6088130">
        <ele>19.4</ele>
        <time>2020-08-07T17:49:49Z</time>
      </trkpt>
      <trkpt lat="41.0321420" lon="0.6088160">
        <ele>19.4</ele>
        <time>2020-08-07T17:49:51Z</time>
      </trkpt>
      <trkpt lat="41.0321410" lon="0.6088170">
        <ele>19.4</ele>
        <time>2020-08-07T17:49:53Z</time>
      </trkpt>
      <trkpt lat="41.0321400" lon="0.6088180">
        <ele>19.4</ele>
        <time>2020-08-07T17:49:55Z</time>
      </trkpt>
      <trkpt lat="41.0321390" lon="0.6088180">
        <ele>19.4</ele>
        <time>2020-08-07T17:49:56Z</time>
      </trkpt>
      <trkpt lat="41.0321390" lon="0.6088180">
        <ele>19.4</ele>
        <time>2020-08-07T17:49:58Z</time>
      </trkpt>
      <trkpt lat="41.0321390" lon="0.6088180">
        <ele>19.4</ele>
        <time>2020-08-07T17:50:00Z</time>
      </trkpt>
      <trkpt lat="41.0321390" lon="0.6088190">
        <ele>19.4</ele>
        <time>2020-08-07T17:50:02Z</time>
      </trkpt>
      <trkpt lat="41.0321390" lon="0.6088190">
        <ele>19.4</ele>
        <time>2020-08-07T17:50:04Z</time>
      </trkpt>
      <trkpt lat="41.0321390" lon="0.6088190">
        <ele>19.4</ele>
        <time>2020-08-07T17:50:05Z</time>
      </trkpt>
      <trkpt lat="41.0321380" lon="0.6088190">
        <ele>19.4</ele>
        <time>2020-08-07T17:50:07Z</time>
      </trkpt>
      <trkpt lat="41.0321380" lon="0.6088200">
        <ele>19.4</ele>
        <time>2020-08-07T17:50:08Z</time>
      </trkpt>
      <trkpt lat="41.0321380" lon="0.6088200">
        <ele>19.4</ele>
        <time>2020-08-07T17:50:10Z</time>
      </trkpt>
      <trkpt lat="41.0321380" lon="0.6088200">
        <ele>19.4</ele>
        <time>2020-08-07T17:50:12Z</time>
      </trkpt>
      <trkpt lat="41.0321380" lon="0.6088200">
        <ele>19.4</ele>
        <time>2020-08-07T17:50:13Z</time>
      </trkpt>
      <trkpt lat="41.0321380" lon="0.6088200">
        <ele>19.4</ele>
        <time>2020-08-07T17:50:15Z</time>
      </trkpt>
      <trkpt lat="41.0321380" lon="0.6088200">
        <ele>19.4</ele>
        <time>2020-08-07T17:50:16Z</time>
      </trkpt>
      <trkpt lat="41.0321380" lon="0.6088200">
        <ele>19.4</ele>
        <time>2020-08-07T17:50:18Z</time>
      </trkpt>
      <trkpt lat="41.0321380" lon="0.6088200">
        <ele>19.4</ele>
        <time>2020-08-07T17:50:19Z</time>
      </trkpt>
      <trkpt lat="41.0321380" lon="0.6088200">
        <ele>19.4</ele>
        <time>2020-08-07T17:50:20Z</time>
      </trkpt>
      <trkpt lat="41.0321380" lon="0.6088200">
        <ele>19.4</ele>
        <time>2020-08-07T17:50:22Z</time>
      </trkpt>
      <trkpt lat="41.0321380" lon="0.6088200">
        <ele>19.4</ele>
        <time>2020-08-07T17:50:23Z</time>
      </trkpt>
      <trkpt lat="41.0321380" lon="0.6088200">
        <ele>19.4</ele>
        <time>2020-08-07T17:50:24Z</time>
      </trkpt>
      <trkpt lat="41.0321370" lon="0.6088210">
        <ele>19.4</ele>
        <time>2020-08-07T17:50:26Z</time>
      </trkpt>
      <trkpt lat="41.0321370" lon="0.6088220">
        <ele>19.4</ele>
        <time>2020-08-07T17:50:27Z</time>
      </trkpt>
      <trkpt lat="41.0321370" lon="0.6088230">
        <ele>19.4</ele>
        <time>2020-08-07T17:50:29Z</time>
      </trkpt>
      <trkpt lat="41.0321370" lon="0.6088230">
        <ele>19.4</ele>
        <time>2020-08-07T17:50:30Z</time>
      </trkpt>
      <trkpt lat="41.0321370" lon="0.6088230">
        <ele>19.4</ele>
        <time>2020-08-07T17:50:32Z</time>
      </trkpt>
      <trkpt lat="41.0321370" lon="0.6088230">
        <ele>19.4</ele>
        <time>2020-08-07T17:50:33Z</time>
      </trkpt>
      <trkpt lat="41.0321370" lon="0.6088230">
        <ele>19.4</ele>
        <time>2020-08-07T17:50:35Z</time>
      </trkpt>
      <trkpt lat="41.0321370" lon="0.6088230">
        <ele>19.4</ele>
        <time>2020-08-07T17:50:36Z</time>
      </trkpt>
      <trkpt lat="41.0321370" lon="0.6088240">
        <ele>19.4</ele>
        <time>2020-08-07T17:50:37Z</time>
      </trkpt>
      <trkpt lat="41.0321360" lon="0.6088240">
        <ele>19.4</ele>
        <time>2020-08-07T17:50:38Z</time>
      </trkpt>
      <trkpt lat="41.0321360" lon="0.6088240">
        <ele>19.4</ele>
        <time>2020-08-07T17:50:39Z</time>
      </trkpt>
      <trkpt lat="41.0321360" lon="0.6088240">
        <ele>19.4</ele>
        <time>2020-08-07T17:50:41Z</time>
      </trkpt>
      <trkpt lat="41.0321360" lon="0.6088240">
        <ele>19.4</ele>
        <time>2020-08-07T17:50:43Z</time>
      </trkpt>
      <trkpt lat="41.0321360" lon="0.6088240">
        <ele>19.4</ele>
        <time>2020-08-07T17:50:44Z</time>
      </trkpt>
      <trkpt lat="41.0321360" lon="0.6088240">
        <ele>19.4</ele>
        <time>2020-08-07T17:50:46Z</time>
      </trkpt>
      <trkpt lat="41.0321360" lon="0.6088240">
        <ele>19.4</ele>
        <time>2020-08-07T17:50:47Z</time>
      </trkpt>
      <trkpt lat="41.0321360" lon="0.6088240">
        <ele>19.4</ele>
        <time>2020-08-07T17:50:48Z</time>
      </trkpt>
      <trkpt lat="41.0321360" lon="0.6088240">
        <ele>19.4</ele>
        <time>2020-08-07T17:50:50Z</time>
      </trkpt>
      <trkpt lat="41.0321360" lon="0.6088240">
        <ele>19.4</ele>
        <time>2020-08-07T17:50:52Z</time>
      </trkpt>
      <trkpt lat="41.0321360" lon="0.6088240">
        <ele>19.4</ele>
        <time>2020-08-07T17:50:53Z</time>
      </trkpt>
      <trkpt lat="41.0321360" lon="0.6088240">
        <ele>19.4</ele>
        <time>2020-08-07T17:50:54Z</time>
      </trkpt>
      <trkpt lat="41.0321360" lon="0.6088240">
        <ele>19.4</ele>
        <time>2020-08-07T17:50:56Z</time>
      </trkpt>
      <trkpt lat="41.0321360" lon="0.6088240">
        <ele>19.4</ele>
        <time>2020-08-07T17:50:57Z</time>
      </trkpt>
      <trkpt lat="41.0321360" lon="0.6088240">
        <ele>19.4</ele>
        <time>2020-08-07T17:50:58Z</time>
      </trkpt>
      <trkpt lat="41.0321360" lon="0.6088240">
        <ele>19.4</ele>
        <time>2020-08-07T17:51:00Z</time>
      </trkpt>
      <trkpt lat="41.0321360" lon="0.6088240">
        <ele>19.4</ele>
        <time>2020-08-07T17:51:02Z</time>
      </trkpt>
      <trkpt lat="41.0321360" lon="0.6088240">
        <ele>19.4</ele>
        <time>2020-08-07T17:51:03Z</time>
      </trkpt>
      <trkpt lat="41.0321360" lon="0.6088240">
        <ele>19.4</ele>
        <time>2020-08-07T17:51:05Z</time>
      </trkpt>
      <trkpt lat="41.0321360" lon="0.6088240">
        <ele>19.4</ele>
        <time>2020-08-07T17:51:07Z</time>
      </trkpt>
      <trkpt lat="41.0321360" lon="0.6088240">
        <ele>19.4</ele>
        <time>2020-08-07T17:51:08Z</time>
      </trkpt>
      <trkpt lat="41.0321360" lon="0.6088250">
        <ele>19.4</ele>
        <time>2020-08-07T17:51:10Z</time>
      </trkpt>
      <trkpt lat="41.0321360" lon="0.6088250">
        <ele>19.4</ele>
        <time>2020-08-07T17:51:12Z</time>
      </trkpt>
      <trkpt lat="41.0321360" lon="0.6088250">
        <ele>19.4</ele>
        <time>2020-08-07T17:51:13Z</time>
      </trkpt>
      <trkpt lat="41.0321360" lon="0.6088250">
        <ele>19.4</ele>
        <time>2020-08-07T17:51:14Z</time>
      </trkpt>
      <trkpt lat="41.0321360" lon="0.6088250">
        <ele>19.4</ele>
        <time>2020-08-07T17:51:15Z</time>
      </trkpt>
      <trkpt lat="41.0321360" lon="0.6088250">
        <ele>19.4</ele>
        <time>2020-08-07T17:51:16Z</time>
      </trkpt>
      <trkpt lat="41.0321360" lon="0.6088250">
        <ele>19.4</ele>
        <time>2020-08-07T17:51:17Z</time>
      </trkpt>
      <trkpt lat="41.0321360" lon="0.6088250">
        <ele>19.4</ele>
        <time>2020-08-07T17:51:19Z</time>
      </trkpt>
      <trkpt lat="41.0321360" lon="0.6088250">
        <ele>19.4</ele>
        <time>2020-08-07T17:51:20Z</time>
      </trkpt>
      <trkpt lat="41.0321360" lon="0.6088250">
        <ele>19.4</ele>
        <time>2020-08-07T17:51:21Z</time>
      </trkpt>
      <trkpt lat="41.0321360" lon="0.6088250">
        <ele>19.4</ele>
        <time>2020-08-07T17:51:23Z</time>
      </trkpt>
      <trkpt lat="41.0321360" lon="0.6088260">
        <ele>19.4</ele>
        <time>2020-08-07T17:51:25Z</time>
      </trkpt>
      <trkpt lat="41.0321360" lon="0.6088260">
        <ele>19.4</ele>
        <time>2020-08-07T17:51:27Z</time>
      </trkpt>
      <trkpt lat="41.0321350" lon="0.6088260">
        <ele>19.4</ele>
        <time>2020-08-07T17:51:29Z</time>
      </trkpt>
      <trkpt lat="41.0321350" lon="0.6088260">
        <ele>19.4</ele>
        <time>2020-08-07T17:51:30Z</time>
      </trkpt>
      <trkpt lat="41.0321350" lon="0.6088260">
        <ele>19.4</ele>
        <time>2020-08-07T17:51:31Z</time>
      </trkpt>
      <trkpt lat="41.0321350" lon="0.6088260">
        <ele>19.4</ele>
        <time>2020-08-07T17:51:33Z</time>
      </trkpt>
      <trkpt lat="41.0321350" lon="0.6088260">
        <ele>19.4</ele>
        <time>2020-08-07T17:51:34Z</time>
      </trkpt>
      <trkpt lat="41.0321350" lon="0.6088260">
        <ele>19.4</ele>
        <time>2020-08-07T17:51:35Z</time>
      </trkpt>
      <trkpt lat="41.0321350" lon="0.6088260">
        <ele>19.4</ele>
        <time>2020-08-07T17:51:37Z</time>
      </trkpt>
      <trkpt lat="41.0321350" lon="0.6088270">
        <ele>19.4</ele>
        <time>2020-08-07T17:51:38Z</time>
      </trkpt>
      <trkpt lat="41.0321350" lon="0.6088280">
        <ele>19.4</ele>
        <time>2020-08-07T17:51:39Z</time>
      </trkpt>
      <trkpt lat="41.0321350" lon="0.6088280">
        <ele>19.4</ele>
        <time>2020-08-07T17:51:41Z</time>
      </trkpt>
      <trkpt lat="41.0321350" lon="0.6088290">
        <ele>19.4</ele>
        <time>2020-08-07T17:51:42Z</time>
      </trkpt>
      <trkpt lat="41.0321350" lon="0.6088290">
        <ele>19.4</ele>
        <time>2020-08-07T17:51:43Z</time>
      </trkpt>
      <trkpt lat="41.0321350" lon="0.6088290">
        <ele>19.4</ele>
        <time>2020-08-07T17:51:45Z</time>
      </trkpt>
      <trkpt lat="41.0321350" lon="0.6088300">
        <ele>19.4</ele>
        <time>2020-08-07T17:51:46Z</time>
      </trkpt>
      <trkpt lat="41.0321350" lon="0.6088300">
        <ele>19.4</ele>
        <time>2020-08-07T17:51:47Z</time>
      </trkpt>
      <trkpt lat="41.0321350" lon="0.6088310">
        <ele>19.4</ele>
        <time>2020-08-07T17:51:49Z</time>
      </trkpt>
      <trkpt lat="41.0321350" lon="0.6088310">
        <ele>19.4</ele>
        <time>2020-08-07T17:51:51Z</time>
      </trkpt>
      <trkpt lat="41.0321350" lon="0.6088310">
        <ele>19.4</ele>
        <time>2020-08-07T17:51:53Z</time>
      </trkpt>
      <trkpt lat="41.0321350" lon="0.6088310">
        <ele>19.4</ele>
        <time>2020-08-07T17:51:54Z</time>
      </trkpt>
      <trkpt lat="41.0321350" lon="0.6088310">
        <ele>19.4</ele>
        <time>2020-08-07T17:51:56Z</time>
      </trkpt>
      <trkpt lat="41.0321350" lon="0.6088310">
        <ele>19.4</ele>
        <time>2020-08-07T17:51:58Z</time>
      </trkpt>
      <trkpt lat="41.0321350" lon="0.6088310">
        <ele>19.4</ele>
        <time>2020-08-07T17:51:59Z</time>
      </trkpt>
      <trkpt lat="41.0321200" lon="0.6088340">
        <ele>19.4</ele>
        <time>2020-08-07T17:52:01Z</time>
      </trkpt>
      <trkpt lat="41.0321020" lon="0.6088370">
        <ele>19.5</ele>
        <time>2020-08-07T17:52:02Z</time>
      </trkpt>
      <trkpt lat="41.0321080" lon="0.6088290">
        <ele>19.5</ele>
        <time>2020-08-07T17:52:03Z</time>
      </trkpt>
      <trkpt lat="41.0321110" lon="0.6088200">
        <ele>19.5</ele>
        <time>2020-08-07T17:52:05Z</time>
      </trkpt>
      <trkpt lat="41.0321110" lon="0.6088160">
        <ele>19.5</ele>
        <time>2020-08-07T17:52:06Z</time>
      </trkpt>
      <trkpt lat="41.0321120" lon="0.6088140">
        <ele>19.5</ele>
        <time>2020-08-07T17:52:07Z</time>
      </trkpt>
      <trkpt lat="41.0321090" lon="0.6088210">
        <ele>19.5</ele>
        <time>2020-08-07T17:52:09Z</time>
      </trkpt>
      <trkpt lat="41.0321080" lon="0.6088240">
        <ele>19.5</ele>
        <time>2020-08-07T17:52:10Z</time>
      </trkpt>
      <trkpt lat="41.0321060" lon="0.6088290">
        <ele>19.5</ele>
        <time>2020-08-07T17:52:12Z</time>
      </trkpt>
      <trkpt lat="41.0321050" lon="0.6088310">
        <ele>19.6</ele>
        <time>2020-08-07T17:52:13Z</time>
      </trkpt>
      <trkpt lat="41.0321030" lon="0.6088320">
        <ele>19.6</ele>
        <time>2020-08-07T17:52:17Z</time>
      </trkpt>
      <trkpt lat="41.0320620" lon="0.6088640">
        <ele>19.7</ele>
        <time>2020-08-07T17:52:19Z</time>
      </trkpt>
      <trkpt lat="41.0320310" lon="0.6088840">
        <ele>19.7</ele>
        <time>2020-08-07T17:52:21Z</time>
      </trkpt>
      <trkpt lat="41.0319950" lon="0.6089040">
        <ele>19.8</ele>
        <time>2020-08-07T17:52:23Z</time>
      </trkpt>
      <trkpt lat="41.0319780" lon="0.6089130">
        <ele>19.8</ele>
        <time>2020-08-07T17:52:24Z</time>
      </trkpt>
      <trkpt lat="41.0319490" lon="0.6089310">
        <ele>19.9</ele>
        <time>2020-08-07T17:52:26Z</time>
      </trkpt>
      <trkpt lat="41.0319370" lon="0.6089390">
        <ele>19.9</ele>
        <time>2020-08-07T17:52:27Z</time>
      </trkpt>
      <trkpt lat="41.0319140" lon="0.6089530">
        <ele>20.0</ele>
        <time>2020-08-07T17:52:29Z</time>
      </trkpt>
      <trkpt lat="41.0318720" lon="0.6089750">
        <ele>20.1</ele>
        <time>2020-08-07T17:52:31Z</time>
      </trkpt>
      <trkpt lat="41.0318560" lon="0.6089830">
        <ele>20.2</ele>
        <time>2020-08-07T17:52:33Z</time>
      </trkpt>
      <trkpt lat="41.0318400" lon="0.6089910">
        <ele>20.3</ele>
        <time>2020-08-07T17:52:35Z</time>
      </trkpt>
      <trkpt lat="41.0318240" lon="0.6089990">
        <ele>20.4</ele>
        <time>2020-08-07T17:52:36Z</time>
      </trkpt>
      <trkpt lat="41.0318030" lon="0.6090140">
        <ele>20.5</ele>
        <time>2020-08-07T17:52:38Z</time>
      </trkpt>
      <trkpt lat="41.0317940" lon="0.6090200">
        <ele>20.6</ele>
        <time>2020-08-07T17:52:39Z</time>
      </trkpt>
      <trkpt lat="41.0317770" lon="0.6090290">
        <ele>20.7</ele>
        <time>2020-08-07T17:52:41Z</time>
      </trkpt>
      <trkpt lat="41.0317700" lon="0.6090330">
        <ele>20.8</ele>
        <time>2020-08-07T17:52:43Z</time>
      </trkpt>
      <trkpt lat="41.0317630" lon="0.6090360">
        <ele>20.8</ele>
        <time>2020-08-07T17:52:44Z</time>
      </trkpt>
      <trkpt lat="41.0317580" lon="0.6090410">
        <ele>20.9</ele>
        <time>2020-08-07T17:52:45Z</time>
      </trkpt>
      <trkpt lat="41.0317540" lon="0.6090450">
        <ele>20.9</ele>
        <time>2020-08-07T17:52:46Z</time>
      </trkpt>
      <trkpt lat="41.0317510" lon="0.6090490">
        <ele>20.9</ele>
        <time>2020-08-07T17:52:47Z</time>
      </trkpt>
      <trkpt lat="41.0317490" lon="0.6090510">
        <ele>20.9</ele>
        <time>2020-08-07T17:52:49Z</time>
      </trkpt>
      <trkpt lat="41.0317490" lon="0.6090510">
        <ele>20.9</ele>
        <time>2020-08-07T17:52:50Z</time>
      </trkpt>
      <trkpt lat="41.0317500" lon="0.6090500">
        <ele>20.9</ele>
        <time>2020-08-07T17:52:51Z</time>
      </trkpt>
      <trkpt lat="41.0317500" lon="0.6090490">
        <ele>20.9</ele>
        <time>2020-08-07T17:52:52Z</time>
      </trkpt>
      <trkpt lat="41.0317490" lon="0.6090480">
        <ele>20.9</ele>
        <time>2020-08-07T17:52:54Z</time>
      </trkpt>
      <trkpt lat="41.0317490" lon="0.6090490">
        <ele>21.0</ele>
        <time>2020-08-07T17:52:56Z</time>
      </trkpt>
      <trkpt lat="41.0317490" lon="0.6090490">
        <ele>21.0</ele>
        <time>2020-08-07T17:52:57Z</time>
      </trkpt>
      <trkpt lat="41.0317390" lon="0.6090040">
        <ele>21.2</ele>
        <time>2020-08-07T18:05:50Z</time>
      </trkpt>
      <trkpt lat="41.0317320" lon="0.6090020">
        <ele>21.2</ele>
        <time>2020-08-07T18:05:51Z</time>
      </trkpt>
      <trkpt lat="41.0317260" lon="0.6090010">
        <ele>21.3</ele>
        <time>2020-08-07T18:05:52Z</time>
      </trkpt>
      <trkpt lat="41.0317250" lon="0.6090000">
        <ele>21.3</ele>
        <time>2020-08-07T18:05:54Z</time>
      </trkpt>
      <trkpt lat="41.0317300" lon="0.6089970">
        <ele>21.3</ele>
        <time>2020-08-07T18:05:56Z</time>
      </trkpt>
      <trkpt lat="41.0317330" lon="0.6089960">
        <ele>21.3</ele>
        <time>2020-08-07T18:05:57Z</time>
      </trkpt>
      <trkpt lat="41.0317270" lon="0.6089940">
        <ele>21.4</ele>
        <time>2020-08-07T18:05:58Z</time>
      </trkpt>
      <trkpt lat="41.0317160" lon="0.6089890">
        <ele>21.4</ele>
        <time>2020-08-07T18:06:00Z</time>
      </trkpt>
      <trkpt lat="41.0317100" lon="0.6089850">
        <ele>21.5</ele>
        <time>2020-08-07T18:06:01Z</time>
      </trkpt>
      <trkpt lat="41.0317050" lon="0.6089810">
        <ele>21.5</ele>
        <time>2020-08-07T18:06:02Z</time>
      </trkpt>
      <trkpt lat="41.0317030" lon="0.6089760">
        <ele>21.5</ele>
        <time>2020-08-07T18:06:03Z</time>
      </trkpt>
      <trkpt lat="41.0317000" lon="0.6089690">
        <ele>21.6</ele>
        <time>2020-08-07T18:06:05Z</time>
      </trkpt>
      <trkpt lat="41.0316980" lon="0.6089660">
        <ele>21.6</ele>
        <time>2020-08-07T18:06:06Z</time>
      </trkpt>
      <trkpt lat="41.0316980" lon="0.6089620">
        <ele>21.6</ele>
        <time>2020-08-07T18:06:08Z</time>
      </trkpt>
      <trkpt lat="41.0316990" lon="0.6089600">
        <ele>21.6</ele>
        <time>2020-08-07T18:06:09Z</time>
      </trkpt>
      <trkpt lat="41.0317000" lon="0.6089580">
        <ele>21.6</ele>
        <time>2020-08-07T18:06:10Z</time>
      </trkpt>
      <trkpt lat="41.0317010" lon="0.6089570">
        <ele>21.6</ele>
        <time>2020-08-07T18:06:12Z</time>
      </trkpt>
      <trkpt lat="41.0317000" lon="0.6089570">
        <ele>21.6</ele>
        <time>2020-08-07T18:06:14Z</time>
      </trkpt>
      <trkpt lat="41.0317000" lon="0.6089570">
        <ele>21.6</ele>
        <time>2020-08-07T18:06:15Z</time>
      </trkpt>
      <trkpt lat="41.0317000" lon="0.6089570">
        <ele>21.6</ele>
        <time>2020-08-07T18:06:16Z</time>
      </trkpt>
      <trkpt lat="41.0316910" lon="0.6089430">
        <ele>21.7</ele>
        <time>2020-08-07T18:06:31Z</time>
      </trkpt>
      <trkpt lat="41.0316830" lon="0.6089300">
        <ele>21.8</ele>
        <time>2020-08-07T18:06:32Z</time>
      </trkpt>
      <trkpt lat="41.0316730" lon="0.6089030">
        <ele>21.9</ele>
        <time>2020-08-07T18:06:34Z</time>
      </trkpt>
      <trkpt lat="41.0316700" lon="0.6088860">
        <ele>22.0</ele>
        <time>2020-08-07T18:06:35Z</time>
      </trkpt>
      <trkpt lat="41.0316640" lon="0.6088560">
        <ele>22.1</ele>
        <time>2020-08-07T18:06:37Z</time>
      </trkpt>
      <trkpt lat="41.0316580" lon="0.6088300">
        <ele>22.3</ele>
        <time>2020-08-07T18:06:39Z</time>
      </trkpt>
      <trkpt lat="41.0316540" lon="0.6088180">
        <ele>22.3</ele>
        <time>2020-08-07T18:06:40Z</time>
      </trkpt>
      <trkpt lat="41.0316440" lon="0.6088140">
        <ele>22.4</ele>
        <time>2020-08-07T18:06:42Z</time>
      </trkpt>
      <trkpt lat="41.0316630" lon="0.6088220">
        <ele>22.5</ele>
        <time>2020-08-07T18:06:44Z</time>
      </trkpt>
      <trkpt lat="41.0316730" lon="0.6088240">
        <ele>22.5</ele>
        <time>2020-08-07T18:06:45Z</time>
      </trkpt>
      <trkpt lat="41.0316710" lon="0.6088260">
        <ele>22.6</ele>
        <time>2020-08-07T18:06:47Z</time>
      </trkpt>
      <trkpt lat="41.0316690" lon="0.6088170">
        <ele>22.6</ele>
        <time>2020-08-07T18:06:49Z</time>
      </trkpt>
      <trkpt lat="41.0316730" lon="0.6088190">
        <ele>22.6</ele>
        <time>2020-08-07T18:06:50Z</time>
      </trkpt>
      <trkpt lat="41.0316660" lon="0.6087830">
        <ele>22.8</ele>
        <time>2020-08-07T18:06:51Z</time>
      </trkpt>
      <trkpt lat="41.0316440" lon="0.6087120">
        <ele>23.1</ele>
        <time>2020-08-07T18:06:53Z</time>
      </trkpt>
      <trkpt lat="41.0316180" lon="0.6086470">
        <ele>23.4</ele>
        <time>2020-08-07T18:06:55Z</time>
      </trkpt>
      <trkpt lat="41.0316080" lon="0.6086220">
        <ele>23.4</ele>
        <time>2020-08-07T18:06:56Z</time>
      </trkpt>
      <trkpt lat="41.0315950" lon="0.6085830">
        <ele>23.6</ele>
        <time>2020-08-07T18:06:58Z</time>
      </trkpt>
      <trkpt lat="41.0315880" lon="0.6085680">
        <ele>23.6</ele>
        <time>2020-08-07T18:06:59Z</time>
      </trkpt>
      <trkpt lat="41.0315750" lon="0.6085460">
        <ele>23.7</ele>
        <time>2020-08-07T18:07:01Z</time>
      </trkpt>
      <trkpt lat="41.0315680" lon="0.6085420">
        <ele>23.7</ele>
        <time>2020-08-07T18:07:02Z</time>
      </trkpt>
      <trkpt lat="41.0315530" lon="0.6085500">
        <ele>23.8</ele>
        <time>2020-08-07T18:07:04Z</time>
      </trkpt>
      <trkpt lat="41.0315470" lon="0.6085540">
        <ele>23.8</ele>
        <time>2020-08-07T18:07:05Z</time>
      </trkpt>
      <trkpt lat="41.0315420" lon="0.6085550">
        <ele>23.8</ele>
        <time>2020-08-07T18:07:06Z</time>
      </trkpt>
      <trkpt lat="41.0315400" lon="0.6085550">
        <ele>23.8</ele>
        <time>2020-08-07T18:07:07Z</time>
      </trkpt>
      <trkpt lat="41.0315390" lon="0.6085550">
        <ele>23.9</ele>
        <time>2020-08-07T18:07:08Z</time>
      </trkpt>
      <trkpt lat="41.0315380" lon="0.6085540">
        <ele>23.9</ele>
        <time>2020-08-07T18:07:10Z</time>
      </trkpt>
      <trkpt lat="41.0315350" lon="0.6085530">
        <ele>23.9</ele>
        <time>2020-08-07T18:07:11Z</time>
      </trkpt>
      <trkpt lat="41.0315320" lon="0.6085520">
        <ele>23.9</ele>
        <time>2020-08-07T18:07:12Z</time>
      </trkpt>
      <trkpt lat="41.0315300" lon="0.6085510">
        <ele>23.9</ele>
        <time>2020-08-07T18:07:13Z</time>
      </trkpt>
      <trkpt lat="41.0315270" lon="0.6085500">
        <ele>23.9</ele>
        <time>2020-08-07T18:07:14Z</time>
      </trkpt>
      <trkpt lat="41.0315250" lon="0.6085490">
        <ele>23.9</ele>
        <time>2020-08-07T18:07:15Z</time>
      </trkpt>
      <trkpt lat="41.0315230" lon="0.6085480">
        <ele>23.9</ele>
        <time>2020-08-07T18:07:17Z</time>
      </trkpt>
      <trkpt lat="41.0315230" lon="0.6085480">
        <ele>23.9</ele>
        <time>2020-08-07T18:07:18Z</time>
      </trkpt>
      <trkpt lat="41.0315080" lon="0.6084920">
        <ele>24.1</ele>
        <time>2020-08-07T18:07:53Z</time>
      </trkpt>
      <trkpt lat="41.0315020" lon="0.6084620">
        <ele>24.2</ele>
        <time>2020-08-07T18:07:54Z</time>
      </trkpt>
      <trkpt lat="41.0314930" lon="0.6084090">
        <ele>24.3</ele>
        <time>2020-08-07T18:07:56Z</time>
      </trkpt>
      <trkpt lat="41.0314870" lon="0.6083670">
        <ele>24.4</ele>
        <time>2020-08-07T18:07:58Z</time>
      </trkpt>
      <trkpt lat="41.0314770" lon="0.6083180">
        <ele>24.6</ele>
        <time>2020-08-07T18:08:00Z</time>
      </trkpt>
      <trkpt lat="41.0314690" lon="0.6082880">
        <ele>24.7</ele>
        <time>2020-08-07T18:08:01Z</time>
      </trkpt>
      <trkpt lat="41.0314570" lon="0.6082340">
        <ele>24.8</ele>
        <time>2020-08-07T18:08:03Z</time>
      </trkpt>
      <trkpt lat="41.0314500" lon="0.6082040">
        <ele>24.9</ele>
        <time>2020-08-07T18:08:04Z</time>
      </trkpt>
      <trkpt lat="41.0314350" lon="0.6081550">
        <ele>25.0</ele>
        <time>2020-08-07T18:08:06Z</time>
      </trkpt>
      <trkpt lat="41.0314260" lon="0.6081340">
        <ele>25.1</ele>
        <time>2020-08-07T18:08:07Z</time>
      </trkpt>
      <trkpt lat="41.0314150" lon="0.6080930">
        <ele>25.2</ele>
        <time>2020-08-07T18:08:09Z</time>
      </trkpt>
      <trkpt lat="41.0314130" lon="0.6080740">
        <ele>25.3</ele>
        <time>2020-08-07T18:08:10Z</time>
      </trkpt>
      <trkpt lat="41.0314110" lon="0.6080370">
        <ele>25.4</ele>
        <time>2020-08-07T18:08:12Z</time>
      </trkpt>
      <trkpt lat="41.0314120" lon="0.6079940">
        <ele>25.5</ele>
        <time>2020-08-07T18:08:14Z</time>
      </trkpt>
      <trkpt lat="41.0314100" lon="0.6079860">
        <ele>25.6</ele>
        <time>2020-08-07T18:08:15Z</time>
      </trkpt>
      <trkpt lat="41.0314170" lon="0.6080330">
        <ele>25.7</ele>
        <time>2020-08-07T18:08:16Z</time>
      </trkpt>
      <trkpt lat="41.0314100" lon="0.6080460">
        <ele>25.8</ele>
        <time>2020-08-07T18:08:18Z</time>
      </trkpt>
      <trkpt lat="41.0314070" lon="0.6080490">
        <ele>25.8</ele>
        <time>2020-08-07T18:08:19Z</time>
      </trkpt>
      <trkpt lat="41.0314030" lon="0.6080490">
        <ele>25.8</ele>
        <time>2020-08-07T18:08:20Z</time>
      </trkpt>
      <trkpt lat="41.0314000" lon="0.6080480">
        <ele>25.8</ele>
        <time>2020-08-07T18:08:22Z</time>
      </trkpt>
      <trkpt lat="41.0313960" lon="0.6080460">
        <ele>25.8</ele>
        <time>2020-08-07T18:08:23Z</time>
      </trkpt>
      <trkpt lat="41.0313880" lon="0.6080360">
        <ele>25.9</ele>
        <time>2020-08-07T18:08:25Z</time>
      </trkpt>
      <trkpt lat="41.0313820" lon="0.6080300">
        <ele>25.9</ele>
        <time>2020-08-07T18:08:26Z</time>
      </trkpt>
      <trkpt lat="41.0313730" lon="0.6080140">
        <ele>26.0</ele>
        <time>2020-08-07T18:08:28Z</time>
      </trkpt>
      <trkpt lat="41.0313680" lon="0.6080070">
        <ele>26.0</ele>
        <time>2020-08-07T18:08:29Z</time>
      </trkpt>
      <trkpt lat="41.0313510" lon="0.6079300">
        <ele>26.2</ele>
        <time>2020-08-07T18:08:30Z</time>
      </trkpt>
      <trkpt lat="41.0313340" lon="0.6077850">
        <ele>26.5</ele>
        <time>2020-08-07T18:08:32Z</time>
      </trkpt>
      <trkpt lat="41.0313280" lon="0.6077330">
        <ele>26.6</ele>
        <time>2020-08-07T18:08:33Z</time>
      </trkpt>
      <trkpt lat="41.0313220" lon="0.6076880">
        <ele>26.7</ele>
        <time>2020-08-07T18:08:34Z</time>
      </trkpt>
      <trkpt lat="41.0313160" lon="0.6076480">
        <ele>26.7</ele>
        <time>2020-08-07T18:08:35Z</time>
      </trkpt>
      <trkpt lat="41.0313090" lon="0.6076110">
        <ele>26.8</ele>
        <time>2020-08-07T18:08:36Z</time>
      </trkpt>
      <trkpt lat="41.0312940" lon="0.6075400">
        <ele>26.9</ele>
        <time>2020-08-07T18:08:38Z</time>
      </trkpt>
      <trkpt lat="41.0312860" lon="0.6075100">
        <ele>27.0</ele>
        <time>2020-08-07T18:08:39Z</time>
      </trkpt>
      <trkpt lat="41.0312650" lon="0.6074630">
        <ele>27.1</ele>
        <time>2020-08-07T18:08:41Z</time>
      </trkpt>
      <trkpt lat="41.0312600" lon="0.6074950">
        <ele>27.1</ele>
        <time>2020-08-07T18:08:42Z</time>
      </trkpt>
      <trkpt lat="41.0312680" lon="0.6075450">
        <ele>27.2</ele>
        <time>2020-08-07T18:08:43Z</time>
      </trkpt>
      <trkpt lat="41.0312770" lon="0.6076180">
        <ele>27.4</ele>
        <time>2020-08-07T18:08:45Z</time>
      </trkpt>
      <trkpt lat="41.0312950" lon="0.6076640">
        <ele>27.5</ele>
        <time>2020-08-07T18:08:47Z</time>
      </trkpt>
      <trkpt lat="41.0313030" lon="0.6076910">
        <ele>27.5</ele>
        <time>2020-08-07T18:08:49Z</time>
      </trkpt>
      <trkpt lat="41.0313070" lon="0.6077020">
        <ele>27.5</ele>
        <time>2020-08-07T18:08:50Z</time>
      </trkpt>
      <trkpt lat="41.0312920" lon="0.6076880">
        <ele>27.6</ele>
        <time>2020-08-07T18:08:51Z</time>
      </trkpt>
      <trkpt lat="41.0312760" lon="0.6076690">
        <ele>27.6</ele>
        <time>2020-08-07T18:08:52Z</time>
      </trkpt>
      <trkpt lat="41.0312590" lon="0.6076490">
        <ele>27.7</ele>
        <time>2020-08-07T18:08:53Z</time>
      </trkpt>
      <trkpt lat="41.0312420" lon="0.6076300">
        <ele>27.8</ele>
        <time>2020-08-07T18:08:54Z</time>
      </trkpt>
      <trkpt lat="41.0312260" lon="0.6076100">
        <ele>27.8</ele>
        <time>2020-08-07T18:08:55Z</time>
      </trkpt>
      <trkpt lat="41.0312090" lon="0.6075910">
        <ele>27.9</ele>
        <time>2020-08-07T18:08:56Z</time>
      </trkpt>
      <trkpt lat="41.0311930" lon="0.6075710">
        <ele>28.0</ele>
        <time>2020-08-07T18:08:58Z</time>
      </trkpt>
      <trkpt lat="41.0311760" lon="0.6075520">
        <ele>28.0</ele>
        <time>2020-08-07T18:08:59Z</time>
      </trkpt>
      <trkpt lat="41.0311590" lon="0.6075320">
        <ele>28.1</ele>
        <time>2020-08-07T18:09:48Z</time>
      </trkpt>
      <trkpt lat="41.0311430" lon="0.6075130">
        <ele>28.2</ele>
        <time>2020-08-07T18:09:49Z</time>
      </trkpt>
      <trkpt lat="41.0311260" lon="0.6074930">
        <ele>28.7</ele>
        <time>2020-08-07T18:09:50Z</time>
      </trkpt>
      <trkpt lat="41.0311180" lon="0.6075130">
        <ele>28.7</ele>
        <time>2020-08-07T18:09:51Z</time>
      </trkpt>
      <trkpt lat="41.0311210" lon="0.6075330">
        <ele>28.7</ele>
        <time>2020-08-07T18:09:52Z</time>
      </trkpt>
      <trkpt lat="41.0311320" lon="0.6075500">
        <ele>28.7</ele>
        <time>2020-08-07T18:09:53Z</time>
      </trkpt>
      <trkpt lat="41.0311640" lon="0.6075650">
        <ele>28.7</ele>
        <time>2020-08-07T18:09:55Z</time>
      </trkpt>
      <trkpt lat="41.0311780" lon="0.6075650">
        <ele>28.7</ele>
        <time>2020-08-07T18:09:56Z</time>
      </trkpt>
      <trkpt lat="41.0311980" lon="0.6075680">
        <ele>28.6</ele>
        <time>2020-08-07T18:09:58Z</time>
      </trkpt>
      <trkpt lat="41.0312070" lon="0.6075780">
        <ele>28.3</ele>
        <time>2020-08-07T18:09:59Z</time>
      </trkpt>
      <trkpt lat="41.0312110" lon="0.6075910">
        <ele>28.3</ele>
        <time>2020-08-07T18:10:02Z</time>
      </trkpt>
      <trkpt lat="41.0312220" lon="0.6076020">
        <ele>28.3</ele>
        <time>2020-08-07T18:10:03Z</time>
      </trkpt>
      <trkpt lat="41.0312310" lon="0.6076170">
        <ele>28.3</ele>
        <time>2020-08-07T18:10:04Z</time>
      </trkpt>
      <trkpt lat="41.0312380" lon="0.6076340">
        <ele>28.2</ele>
        <time>2020-08-07T18:10:05Z</time>
      </trkpt>
      <trkpt lat="41.0312430" lon="0.6076720">
        <ele>28.2</ele>
        <time>2020-08-07T18:10:06Z</time>
      </trkpt>
      <trkpt lat="41.0312470" lon="0.6077180">
        <ele>28.2</ele>
        <time>2020-08-07T18:10:08Z</time>
      </trkpt>
      <trkpt lat="41.0312450" lon="0.6077320">
        <ele>28.2</ele>
        <time>2020-08-07T18:10:09Z</time>
      </trkpt>
      <trkpt lat="41.0312600" lon="0.6077810">
        <ele>28.1</ele>
        <time>2020-08-07T18:10:11Z</time>
      </trkpt>
      <trkpt lat="41.0313350" lon="0.6082660">
        <ele>28.0</ele>
        <time>2020-08-07T18:10:18Z</time>
      </trkpt>
      <trkpt lat="41.0313210" lon="0.6083880">
        <ele>27.9</ele>
        <time>2020-08-07T18:10:20Z</time>
      </trkpt>
      <trkpt lat="41.0313150" lon="0.6084450">
        <ele>27.9</ele>
        <time>2020-08-07T18:10:22Z</time>
      </trkpt>
      <trkpt lat="41.0313120" lon="0.6084610">
        <ele>27.9</ele>
        <time>2020-08-07T18:10:23Z</time>
      </trkpt>
      <trkpt lat="41.0313100" lon="0.6084730">
        <ele>27.9</ele>
        <time>2020-08-07T18:10:24Z</time>
      </trkpt>
      <trkpt lat="41.0313090" lon="0.6084800">
        <ele>27.9</ele>
        <time>2020-08-07T18:10:25Z</time>
      </trkpt>
      <trkpt lat="41.0313060" lon="0.6084770">
        <ele>27.9</ele>
        <time>2020-08-07T18:10:26Z</time>
      </trkpt>
      <trkpt lat="41.0313000" lon="0.6084560">
        <ele>27.9</ele>
        <time>2020-08-07T18:10:27Z</time>
      </trkpt>
      <trkpt lat="41.0313000" lon="0.6084630">
        <ele>27.9</ele>
        <time>2020-08-07T18:10:28Z</time>
      </trkpt>
      <trkpt lat="41.0313040" lon="0.6084790">
        <ele>27.9</ele>
        <time>2020-08-07T18:10:30Z</time>
      </trkpt>
      <trkpt lat="41.0313180" lon="0.6085420">
        <ele>27.9</ele>
        <time>2020-08-07T18:10:32Z</time>
      </trkpt>
      <trkpt lat="41.0313230" lon="0.6085430">
        <ele>27.9</ele>
        <time>2020-08-07T18:10:34Z</time>
      </trkpt>
      <trkpt lat="41.0313160" lon="0.6084200">
        <ele>27.8</ele>
        <time>2020-08-07T18:10:36Z</time>
      </trkpt>
      <trkpt lat="41.0313240" lon="0.6083960">
        <ele>27.8</ele>
        <time>2020-08-07T18:10:37Z</time>
      </trkpt>
      <trkpt lat="41.0313330" lon="0.6083790">
        <ele>27.8</ele>
        <time>2020-08-07T18:10:39Z</time>
      </trkpt>
      <trkpt lat="41.0313470" lon="0.6083790">
        <ele>27.8</ele>
        <time>2020-08-07T18:10:40Z</time>
      </trkpt>
      <trkpt lat="41.0313670" lon="0.6083900">
        <ele>27.8</ele>
        <time>2020-08-07T18:10:42Z</time>
      </trkpt>
      <trkpt lat="41.0313900" lon="0.6084250">
        <ele>27.8</ele>
        <time>2020-08-07T18:10:43Z</time>
      </trkpt>
      <trkpt lat="41.0314010" lon="0.6084480">
        <ele>27.8</ele>
        <time>2020-08-07T18:10:45Z</time>
      </trkpt>
      <trkpt lat="41.0314330" lon="0.6085430">
        <ele>27.8</ele>
        <time>2020-08-07T18:10:47Z</time>
      </trkpt>
      <trkpt lat="41.0314560" lon="0.6086590">
        <ele>27.8</ele>
        <time>2020-08-07T18:10:48Z</time>
      </trkpt>
      <trkpt lat="41.0314770" lon="0.6087460">
        <ele>27.9</ele>
        <time>2020-08-07T18:10:49Z</time>
      </trkpt>
      <trkpt lat="41.0315060" lon="0.6089720">
        <ele>28.0</ele>
        <time>2020-08-07T18:10:50Z</time>
      </trkpt>
      <trkpt lat="41.0315190" lon="0.6090950">
        <ele>28.0</ele>
        <time>2020-08-07T18:10:51Z</time>
      </trkpt>
      <trkpt lat="41.0315320" lon="0.6092050">
        <ele>28.0</ele>
        <time>2020-08-07T18:10:53Z</time>
      </trkpt>
      <trkpt lat="41.0315380" lon="0.6092870">
        <ele>28.0</ele>
        <time>2020-08-07T18:10:54Z</time>
      </trkpt>
      <trkpt lat="41.0315490" lon="0.6093420">
        <ele>28.0</ele>
        <time>2020-08-07T18:10:55Z</time>
      </trkpt>
      <trkpt lat="41.0315550" lon="0.6093990">
        <ele>28.1</ele>
        <time>2020-08-07T18:10:56Z</time>
      </trkpt>
      <trkpt lat="41.0315630" lon="0.6094800">
        <ele>28.1</ele>
        <time>2020-08-07T18:10:57Z</time>
      </trkpt>
      <trkpt lat="41.0315720" lon="0.6095320">
        <ele>28.1</ele>
        <time>2020-08-07T18:10:59Z</time>
      </trkpt>
      <trkpt lat="41.0315800" lon="0.6095710">
        <ele>28.2</ele>
        <time>2020-08-07T18:11:00Z</time>
      </trkpt>
      <trkpt lat="41.0316030" lon="0.6096530">
        <ele>28.2</ele>
        <time>2020-08-07T18:11:02Z</time>
      </trkpt>
      <trkpt lat="41.0316120" lon="0.6096920">
        <ele>28.2</ele>
        <time>2020-08-07T18:11:03Z</time>
      </trkpt>
      <trkpt lat="41.0316320" lon="0.6097650">
        <ele>28.3</ele>
        <time>2020-08-07T18:11:05Z</time>
      </trkpt>
      <trkpt lat="41.0316520" lon="0.6098360">
        <ele>28.3</ele>
        <time>2020-08-07T18:11:07Z</time>
      </trkpt>
      <trkpt lat="41.0316710" lon="0.6099040">
        <ele>28.4</ele>
        <time>2020-08-07T18:11:09Z</time>
      </trkpt>
      <trkpt lat="41.0316780" lon="0.6099360">
        <ele>28.4</ele>
        <time>2020-08-07T18:11:10Z</time>
      </trkpt>
      <trkpt lat="41.0316920" lon="0.6099990">
        <ele>28.4</ele>
        <time>2020-08-07T18:11:12Z</time>
      </trkpt>
      <trkpt lat="41.0316990" lon="0.6100650">
        <ele>28.5</ele>
        <time>2020-08-07T18:11:13Z</time>
      </trkpt>
      <trkpt lat="41.0317050" lon="0.6101220">
        <ele>28.5</ele>
        <time>2020-08-07T18:11:15Z</time>
      </trkpt>
      <trkpt lat="41.0316870" lon="0.6102000">
        <ele>28.6</ele>
        <time>2020-08-07T18:11:16Z</time>
      </trkpt>
      <trkpt lat="41.0316600" lon="0.6102660">
        <ele>28.6</ele>
        <time>2020-08-07T18:11:17Z</time>
      </trkpt>
      <trkpt lat="41.0317660" lon="0.6107640">
        <ele>28.7</ele>
        <time>2020-08-07T18:11:19Z</time>
      </trkpt>
      <trkpt lat="41.0317970" lon="0.6109160">
        <ele>28.7</ele>
        <time>2020-08-07T18:11:21Z</time>
      </trkpt>
      <trkpt lat="41.0318320" lon="0.6110250">
        <ele>28.7</ele>
        <time>2020-08-07T18:11:22Z</time>
      </trkpt>
      <trkpt lat="41.0318600" lon="0.6112450">
        <ele>28.7</ele>
        <time>2020-08-07T18:11:24Z</time>
      </trkpt>
      <trkpt lat="41.0318640" lon="0.6113380">
        <ele>28.7</ele>
        <time>2020-08-07T18:11:25Z</time>
      </trkpt>
      <trkpt lat="41.0318670" lon="0.6114280">
        <ele>28.7</ele>
        <time>2020-08-07T18:11:26Z</time>
      </trkpt>
      <trkpt lat="41.0318680" lon="0.6115990">
        <ele>28.7</ele>
        <time>2020-08-07T18:11:28Z</time>
      </trkpt>
      <trkpt lat="41.0318640" lon="0.6117510">
        <ele>28.6</ele>
        <time>2020-08-07T18:11:30Z</time>
      </trkpt>
      <trkpt lat="41.0318610" lon="0.6118230">
        <ele>28.6</ele>
        <time>2020-08-07T18:11:31Z</time>
      </trkpt>
      <trkpt lat="41.0318580" lon="0.6118950">
        <ele>28.6</ele>
        <time>2020-08-07T18:11:32Z</time>
      </trkpt>
      <trkpt lat="41.0318520" lon="0.6120330">
        <ele>28.5</ele>
        <time>2020-08-07T18:11:34Z</time>
      </trkpt>
      <trkpt lat="41.0318450" lon="0.6121660">
        <ele>28.5</ele>
        <time>2020-08-07T18:11:36Z</time>
      </trkpt>
      <trkpt lat="41.0318450" lon="0.6122300">
        <ele>28.4</ele>
        <time>2020-08-07T18:11:37Z</time>
      </trkpt>
      <trkpt lat="41.0318460" lon="0.6123410">
        <ele>28.4</ele>
        <time>2020-08-07T18:11:39Z</time>
      </trkpt>
      <trkpt lat="41.0318460" lon="0.6123980">
        <ele>28.4</ele>
        <time>2020-08-07T18:11:40Z</time>
      </trkpt>
      <trkpt lat="41.0318460" lon="0.6124500">
        <ele>28.3</ele>
        <time>2020-08-07T18:11:41Z</time>
      </trkpt>
      <trkpt lat="41.0318480" lon="0.6125440">
        <ele>28.1</ele>
        <time>2020-08-07T18:11:43Z</time>
      </trkpt>
      <trkpt lat="41.0318710" lon="0.6126350">
        <ele>27.9</ele>
        <time>2020-08-07T18:11:44Z</time>
      </trkpt>
      <trkpt lat="41.0318930" lon="0.6126680">
        <ele>27.9</ele>
        <time>2020-08-07T18:11:46Z</time>
      </trkpt>
      <trkpt lat="41.0319030" lon="0.6127210">
        <ele>27.9</ele>
        <time>2020-08-07T18:11:47Z</time>
      </trkpt>
      <trkpt lat="41.0318950" lon="0.6127440">
        <ele>27.8</ele>
        <time>2020-08-07T18:11:49Z</time>
      </trkpt>
      <trkpt lat="41.0318850" lon="0.6127880">
        <ele>27.8</ele>
        <time>2020-08-07T18:11:51Z</time>
      </trkpt>
      <trkpt lat="41.0318770" lon="0.6128320">
        <ele>27.8</ele>
        <time>2020-08-07T18:11:52Z</time>
      </trkpt>
      <trkpt lat="41.0318630" lon="0.6129190">
        <ele>27.8</ele>
        <time>2020-08-07T18:11:54Z</time>
      </trkpt>
      <trkpt lat="41.0318580" lon="0.6130020">
        <ele>27.8</ele>
        <time>2020-08-07T18:11:56Z</time>
      </trkpt>
      <trkpt lat="41.0318560" lon="0.6130650">
        <ele>27.8</ele>
        <time>2020-08-07T18:11:57Z</time>
      </trkpt>
      <trkpt lat="41.0318560" lon="0.6131550">
        <ele>27.8</ele>
        <time>2020-08-07T18:11:58Z</time>
      </trkpt>
      <trkpt lat="41.0318630" lon="0.6132380">
        <ele>27.8</ele>
        <time>2020-08-07T18:12:00Z</time>
      </trkpt>
      <trkpt lat="41.0318700" lon="0.6132920">
        <ele>27.8</ele>
        <time>2020-08-07T18:12:01Z</time>
      </trkpt>
      <trkpt lat="41.0318770" lon="0.6133280">
        <ele>27.9</ele>
        <time>2020-08-07T18:12:02Z</time>
      </trkpt>
      <trkpt lat="41.0318890" lon="0.6133920">
        <ele>27.9</ele>
        <time>2020-08-07T18:12:04Z</time>
      </trkpt>
      <trkpt lat="41.0318990" lon="0.6134420">
        <ele>28.0</ele>
        <time>2020-08-07T18:12:06Z</time>
      </trkpt>
      <trkpt lat="41.0319060" lon="0.6134720">
        <ele>28.0</ele>
        <time>2020-08-07T18:12:07Z</time>
      </trkpt>
      <trkpt lat="41.0319130" lon="0.6135060">
        <ele>28.0</ele>
        <time>2020-08-07T18:12:09Z</time>
      </trkpt>
      <trkpt lat="41.0319250" lon="0.6135640">
        <ele>28.1</ele>
        <time>2020-08-07T18:12:10Z</time>
      </trkpt>
      <trkpt lat="41.0319320" lon="0.6135990">
        <ele>28.1</ele>
        <time>2020-08-07T18:12:11Z</time>
      </trkpt>
      <trkpt lat="41.0319560" lon="0.6137470">
        <ele>28.3</ele>
        <time>2020-08-07T18:12:12Z</time>
      </trkpt>
      <trkpt lat="41.0319840" lon="0.6139640">
        <ele>28.6</ele>
        <time>2020-08-07T18:12:14Z</time>
      </trkpt>
      <trkpt lat="41.0319980" lon="0.6140740">
        <ele>28.7</ele>
        <time>2020-08-07T18:12:15Z</time>
      </trkpt>
      <trkpt lat="41.0320060" lon="0.6141270">
        <ele>28.7</ele>
        <time>2020-08-07T18:12:16Z</time>
      </trkpt>
      <trkpt lat="41.0320120" lon="0.6141750">
        <ele>28.8</ele>
        <time>2020-08-07T18:12:17Z</time>
      </trkpt>
      <trkpt lat="41.0320170" lon="0.6142240">
        <ele>28.8</ele>
        <time>2020-08-07T18:12:18Z</time>
      </trkpt>
      <trkpt lat="41.0320270" lon="0.6143050">
        <ele>28.9</ele>
        <time>2020-08-07T18:12:21Z</time>
      </trkpt>
      <trkpt lat="41.0320690" lon="0.6145240">
        <ele>29.1</ele>
        <time>2020-08-07T18:12:22Z</time>
      </trkpt>
      <trkpt lat="41.0321070" lon="0.6147250">
        <ele>29.2</ele>
        <time>2020-08-07T18:12:23Z</time>
      </trkpt>
      <trkpt lat="41.0321460" lon="0.6149260">
        <ele>29.4</ele>
        <time>2020-08-07T18:12:25Z</time>
      </trkpt>
      <trkpt lat="41.0321450" lon="0.6149210">
        <ele>29.4</ele>
        <time>2020-08-07T18:12:26Z</time>
      </trkpt>
      <trkpt lat="41.0321430" lon="0.6149510">
        <ele>29.4</ele>
        <time>2020-08-07T18:12:27Z</time>
      </trkpt>
      <trkpt lat="41.0321420" lon="0.6149810">
        <ele>29.4</ele>
        <time>2020-08-07T18:12:28Z</time>
      </trkpt>
      <trkpt lat="41.0321600" lon="0.6150450">
        <ele>29.5</ele>
        <time>2020-08-07T18:12:30Z</time>
      </trkpt>
      <trkpt lat="41.0321630" lon="0.6150880">
        <ele>29.5</ele>
        <time>2020-08-07T18:12:31Z</time>
      </trkpt>
      <trkpt lat="41.0321690" lon="0.6151970">
        <ele>29.5</ele>
        <time>2020-08-07T18:12:32Z</time>
      </trkpt>
      <trkpt lat="41.0321790" lon="0.6154010">
        <ele>29.6</ele>
        <time>2020-08-07T18:12:34Z</time>
      </trkpt>
      <trkpt lat="41.0321920" lon="0.6154660">
        <ele>29.6</ele>
        <time>2020-08-07T18:12:35Z</time>
      </trkpt>
      <trkpt lat="41.0321780" lon="0.6156610">
        <ele>29.7</ele>
        <time>2020-08-07T18:12:37Z</time>
      </trkpt>
      <trkpt lat="41.0321670" lon="0.6157350">
        <ele>29.6</ele>
        <time>2020-08-07T18:12:38Z</time>
      </trkpt>
      <trkpt lat="41.0321560" lon="0.6158030">
        <ele>29.6</ele>
        <time>2020-08-07T18:12:39Z</time>
      </trkpt>
      <trkpt lat="41.0321500" lon="0.6159360">
        <ele>29.6</ele>
        <time>2020-08-07T18:12:41Z</time>
      </trkpt>
      <trkpt lat="41.0321500" lon="0.6160000">
        <ele>29.6</ele>
        <time>2020-08-07T18:12:42Z</time>
      </trkpt>
      <trkpt lat="41.0321470" lon="0.6160620">
        <ele>29.6</ele>
        <time>2020-08-07T18:12:43Z</time>
      </trkpt>
      <trkpt lat="41.0321570" lon="0.6161350">
        <ele>29.6</ele>
        <time>2020-08-07T18:12:44Z</time>
      </trkpt>
      <trkpt lat="41.0321570" lon="0.6162380">
        <ele>29.5</ele>
        <time>2020-08-07T18:12:46Z</time>
      </trkpt>
      <trkpt lat="41.0321560" lon="0.6162980">
        <ele>29.5</ele>
        <time>2020-08-07T18:12:47Z</time>
      </trkpt>
      <trkpt lat="41.0321520" lon="0.6163610">
        <ele>29.4</ele>
        <time>2020-08-07T18:12:48Z</time>
      </trkpt>
      <trkpt lat="41.0321550" lon="0.6164270">
        <ele>29.4</ele>
        <time>2020-08-07T18:12:49Z</time>
      </trkpt>
      <trkpt lat="41.0321280" lon="0.6165570">
        <ele>29.4</ele>
        <time>2020-08-07T18:12:51Z</time>
      </trkpt>
      <trkpt lat="41.0321170" lon="0.6166250">
        <ele>29.4</ele>
        <time>2020-08-07T18:12:52Z</time>
      </trkpt>
      <trkpt lat="41.0321100" lon="0.6166890">
        <ele>29.3</ele>
        <time>2020-08-07T18:12:53Z</time>
      </trkpt>
      <trkpt lat="41.0321020" lon="0.6168110">
        <ele>29.3</ele>
        <time>2020-08-07T18:12:55Z</time>
      </trkpt>
      <trkpt lat="41.0320960" lon="0.6168760">
        <ele>29.3</ele>
        <time>2020-08-07T18:12:56Z</time>
      </trkpt>
      <trkpt lat="41.0320860" lon="0.6170030">
        <ele>29.2</ele>
        <time>2020-08-07T18:12:58Z</time>
      </trkpt>
      <trkpt lat="41.0320810" lon="0.6170660">
        <ele>29.2</ele>
        <time>2020-08-07T18:12:59Z</time>
      </trkpt>
      <trkpt lat="41.0320730" lon="0.6171310">
        <ele>29.2</ele>
        <time>2020-08-07T18:13:00Z</time>
      </trkpt>
      <trkpt lat="41.0320620" lon="0.6171930">
        <ele>29.2</ele>
        <time>2020-08-07T18:13:01Z</time>
      </trkpt>
      <trkpt lat="41.0320460" lon="0.6172540">
        <ele>29.3</ele>
        <time>2020-08-07T18:13:02Z</time>
      </trkpt>
      <trkpt lat="41.0320330" lon="0.6173170">
        <ele>29.3</ele>
        <time>2020-08-07T18:13:03Z</time>
      </trkpt>
      <trkpt lat="41.0320010" lon="0.6174500">
        <ele>29.5</ele>
        <time>2020-08-07T18:13:05Z</time>
      </trkpt>
      <trkpt lat="41.0319820" lon="0.6175200">
        <ele>29.6</ele>
        <time>2020-08-07T18:13:06Z</time>
      </trkpt>
      <trkpt lat="41.0319700" lon="0.6175860">
        <ele>29.5</ele>
        <time>2020-08-07T18:13:07Z</time>
      </trkpt>
      <trkpt lat="41.0319560" lon="0.6177240">
        <ele>29.4</ele>
        <time>2020-08-07T18:13:09Z</time>
      </trkpt>
      <trkpt lat="41.0319610" lon="0.6178490">
        <ele>29.3</ele>
        <time>2020-08-07T18:13:11Z</time>
      </trkpt>
      <trkpt lat="41.0319640" lon="0.6179690">
        <ele>29.2</ele>
        <time>2020-08-07T18:13:13Z</time>
      </trkpt>
      <trkpt lat="41.0319650" lon="0.6180320">
        <ele>29.1</ele>
        <time>2020-08-07T18:13:14Z</time>
      </trkpt>
      <trkpt lat="41.0319620" lon="0.6180960">
        <ele>29.0</ele>
        <time>2020-08-07T18:13:15Z</time>
      </trkpt>
      <trkpt lat="41.0319630" lon="0.6181610">
        <ele>29.0</ele>
        <time>2020-08-07T18:13:16Z</time>
      </trkpt>
      <trkpt lat="41.0319640" lon="0.6182250">
        <ele>28.9</ele>
        <time>2020-08-07T18:13:17Z</time>
      </trkpt>
      <trkpt lat="41.0319680" lon="0.6182840">
        <ele>28.9</ele>
        <time>2020-08-07T18:13:18Z</time>
      </trkpt>
      <trkpt lat="41.0319720" lon="0.6183460">
        <ele>28.9</ele>
        <time>2020-08-07T18:13:19Z</time>
      </trkpt>
      <trkpt lat="41.0319740" lon="0.6184080">
        <ele>28.8</ele>
        <time>2020-08-07T18:13:20Z</time>
      </trkpt>
      <trkpt lat="41.0319860" lon="0.6185400">
        <ele>28.7</ele>
        <time>2020-08-07T18:13:22Z</time>
      </trkpt>
      <trkpt lat="41.0319910" lon="0.6186030">
        <ele>28.7</ele>
        <time>2020-08-07T18:13:23Z</time>
      </trkpt>
      <trkpt lat="41.0320060" lon="0.6187250">
        <ele>28.6</ele>
        <time>2020-08-07T18:13:25Z</time>
      </trkpt>
      <trkpt lat="41.0320150" lon="0.6187860">
        <ele>28.5</ele>
        <time>2020-08-07T18:13:26Z</time>
      </trkpt>
      <trkpt lat="41.0320280" lon="0.6188460">
        <ele>28.5</ele>
        <time>2020-08-07T18:13:27Z</time>
      </trkpt>
      <trkpt lat="41.0320430" lon="0.6189760">
        <ele>28.4</ele>
        <time>2020-08-07T18:13:29Z</time>
      </trkpt>
      <trkpt lat="41.0320630" lon="0.6191030">
        <ele>28.3</ele>
        <time>2020-08-07T18:13:31Z</time>
      </trkpt>
      <trkpt lat="41.0320690" lon="0.6191680">
        <ele>28.3</ele>
        <time>2020-08-07T18:13:32Z</time>
      </trkpt>
      <trkpt lat="41.0320850" lon="0.6193070">
        <ele>28.2</ele>
        <time>2020-08-07T18:13:34Z</time>
      </trkpt>
      <trkpt lat="41.0320970" lon="0.6194380">
        <ele>28.2</ele>
        <time>2020-08-07T18:13:36Z</time>
      </trkpt>
      <trkpt lat="41.0320980" lon="0.6195020">
        <ele>28.3</ele>
        <time>2020-08-07T18:13:37Z</time>
      </trkpt>
      <trkpt lat="41.0320990" lon="0.6195640">
        <ele>28.4</ele>
        <time>2020-08-07T18:13:38Z</time>
      </trkpt>
      <trkpt lat="41.0321180" lon="0.6196850">
        <ele>28.5</ele>
        <time>2020-08-07T18:13:40Z</time>
      </trkpt>
      <trkpt lat="41.0321300" lon="0.6197470">
        <ele>28.6</ele>
        <time>2020-08-07T18:13:41Z</time>
      </trkpt>
      <trkpt lat="41.0321620" lon="0.6198740">
        <ele>28.5</ele>
        <time>2020-08-07T18:13:43Z</time>
      </trkpt>
      <trkpt lat="41.0321750" lon="0.6199930">
        <ele>28.4</ele>
        <time>2020-08-07T18:13:45Z</time>
      </trkpt>
      <trkpt lat="41.0321730" lon="0.6201090">
        <ele>28.4</ele>
        <time>2020-08-07T18:13:47Z</time>
      </trkpt>
      <trkpt lat="41.0321730" lon="0.6201680">
        <ele>28.4</ele>
        <time>2020-08-07T18:13:48Z</time>
      </trkpt>
      <trkpt lat="41.0321760" lon="0.6202260">
        <ele>28.3</ele>
        <time>2020-08-07T18:13:49Z</time>
      </trkpt>
      <trkpt lat="41.0321810" lon="0.6203520">
        <ele>28.3</ele>
        <time>2020-08-07T18:13:51Z</time>
      </trkpt>
      <trkpt lat="41.0321810" lon="0.6204150">
        <ele>28.2</ele>
        <time>2020-08-07T18:13:52Z</time>
      </trkpt>
      <trkpt lat="41.0321800" lon="0.6204760">
        <ele>28.2</ele>
        <time>2020-08-07T18:13:53Z</time>
      </trkpt>
      <trkpt lat="41.0321820" lon="0.6205990">
        <ele>28.1</ele>
        <time>2020-08-07T18:13:55Z</time>
      </trkpt>
      <trkpt lat="41.0321870" lon="0.6206610">
        <ele>28.1</ele>
        <time>2020-08-07T18:13:56Z</time>
      </trkpt>
      <trkpt lat="41.0321900" lon="0.6207230">
        <ele>28.1</ele>
        <time>2020-08-07T18:13:57Z</time>
      </trkpt>
      <trkpt lat="41.0321910" lon="0.6207870">
        <ele>28.1</ele>
        <time>2020-08-07T18:13:58Z</time>
      </trkpt>
      <trkpt lat="41.0321940" lon="0.6209150">
        <ele>28.0</ele>
        <time>2020-08-07T18:14:00Z</time>
      </trkpt>
      <trkpt lat="41.0321960" lon="0.6209800">
        <ele>28.0</ele>
        <time>2020-08-07T18:14:01Z</time>
      </trkpt>
      <trkpt lat="41.0322060" lon="0.6211100">
        <ele>28.0</ele>
        <time>2020-08-07T18:14:03Z</time>
      </trkpt>
      <trkpt lat="41.0322130" lon="0.6211760">
        <ele>28.0</ele>
        <time>2020-08-07T18:14:04Z</time>
      </trkpt>
      <trkpt lat="41.0322200" lon="0.6212430">
        <ele>28.0</ele>
        <time>2020-08-07T18:14:05Z</time>
      </trkpt>
      <trkpt lat="41.0322380" lon="0.6213760">
        <ele>27.9</ele>
        <time>2020-08-07T18:14:07Z</time>
      </trkpt>
      <trkpt lat="41.0322580" lon="0.6215070">
        <ele>27.9</ele>
        <time>2020-08-07T18:14:09Z</time>
      </trkpt>
      <trkpt lat="41.0322780" lon="0.6216380">
        <ele>27.8</ele>
        <time>2020-08-07T18:14:11Z</time>
      </trkpt>
      <trkpt lat="41.0323000" lon="0.6217650">
        <ele>27.7</ele>
        <time>2020-08-07T18:14:13Z</time>
      </trkpt>
      <trkpt lat="41.0323110" lon="0.6218300">
        <ele>27.7</ele>
        <time>2020-08-07T18:14:14Z</time>
      </trkpt>
      <trkpt lat="41.0323250" lon="0.6218930">
        <ele>27.7</ele>
        <time>2020-08-07T18:14:15Z</time>
      </trkpt>
      <trkpt lat="41.0323530" lon="0.6220220">
        <ele>27.6</ele>
        <time>2020-08-07T18:14:17Z</time>
      </trkpt>
      <trkpt lat="41.0323690" lon="0.6220850">
        <ele>27.6</ele>
        <time>2020-08-07T18:14:18Z</time>
      </trkpt>
      <trkpt lat="41.0323880" lon="0.6221440">
        <ele>27.6</ele>
        <time>2020-08-07T18:14:19Z</time>
      </trkpt>
      <trkpt lat="41.0324220" lon="0.6222660">
        <ele>27.6</ele>
        <time>2020-08-07T18:14:21Z</time>
      </trkpt>
      <trkpt lat="41.0324510" lon="0.6223880">
        <ele>27.6</ele>
        <time>2020-08-07T18:14:23Z</time>
      </trkpt>
      <trkpt lat="41.0324700" lon="0.6224490">
        <ele>27.6</ele>
        <time>2020-08-07T18:14:24Z</time>
      </trkpt>
      <trkpt lat="41.0325110" lon="0.6225730">
        <ele>27.7</ele>
        <time>2020-08-07T18:14:26Z</time>
      </trkpt>
      <trkpt lat="41.0325310" lon="0.6226350">
        <ele>27.7</ele>
        <time>2020-08-07T18:14:27Z</time>
      </trkpt>
      <trkpt lat="41.0325730" lon="0.6227500">
        <ele>27.6</ele>
        <time>2020-08-07T18:14:29Z</time>
      </trkpt>
      <trkpt lat="41.0326010" lon="0.6228070">
        <ele>27.5</ele>
        <time>2020-08-07T18:14:30Z</time>
      </trkpt>
      <trkpt lat="41.0326270" lon="0.6228650">
        <ele>27.5</ele>
        <time>2020-08-07T18:14:31Z</time>
      </trkpt>
      <trkpt lat="41.0326530" lon="0.6229220">
        <ele>27.4</ele>
        <time>2020-08-07T18:14:32Z</time>
      </trkpt>
      <trkpt lat="41.0326790" lon="0.6229790">
        <ele>27.4</ele>
        <time>2020-08-07T18:14:33Z</time>
      </trkpt>
      <trkpt lat="41.0327060" lon="0.6230350">
        <ele>27.4</ele>
        <time>2020-08-07T18:14:34Z</time>
      </trkpt>
      <trkpt lat="41.0327250" lon="0.6230850">
        <ele>27.4</ele>
        <time>2020-08-07T18:14:35Z</time>
      </trkpt>
      <trkpt lat="41.0327670" lon="0.6231840">
        <ele>27.3</ele>
        <time>2020-08-07T18:14:37Z</time>
      </trkpt>
      <trkpt lat="41.0327920" lon="0.6232430">
        <ele>27.3</ele>
        <time>2020-08-07T18:14:38Z</time>
      </trkpt>
      <trkpt lat="41.0328380" lon="0.6233470">
        <ele>27.2</ele>
        <time>2020-08-07T18:14:40Z</time>
      </trkpt>
      <trkpt lat="41.0328620" lon="0.6233990">
        <ele>27.1</ele>
        <time>2020-08-07T18:14:41Z</time>
      </trkpt>
      <trkpt lat="41.0328830" lon="0.6234520">
        <ele>27.1</ele>
        <time>2020-08-07T18:14:42Z</time>
      </trkpt>
      <trkpt lat="41.0329320" lon="0.6235510">
        <ele>27.0</ele>
        <time>2020-08-07T18:14:44Z</time>
      </trkpt>
      <trkpt lat="41.0329950" lon="0.6236510">
        <ele>26.9</ele>
        <time>2020-08-07T18:14:46Z</time>
      </trkpt>
      <trkpt lat="41.0330250" lon="0.6237030">
        <ele>26.9</ele>
        <time>2020-08-07T18:14:47Z</time>
      </trkpt>
      <trkpt lat="41.0330840" lon="0.6237990">
        <ele>26.8</ele>
        <time>2020-08-07T18:14:49Z</time>
      </trkpt>
      <trkpt lat="41.0331150" lon="0.6238400">
        <ele>26.8</ele>
        <time>2020-08-07T18:14:50Z</time>
      </trkpt>
      <trkpt lat="41.0331720" lon="0.6239150">
        <ele>26.7</ele>
        <time>2020-08-07T18:14:52Z</time>
      </trkpt>
      <trkpt lat="41.0332070" lon="0.6239590">
        <ele>26.7</ele>
        <time>2020-08-07T18:14:53Z</time>
      </trkpt>
      <trkpt lat="41.0332730" lon="0.6240490">
        <ele>26.6</ele>
        <time>2020-08-07T18:14:55Z</time>
      </trkpt>
      <trkpt lat="41.0333380" lon="0.6241430">
        <ele>26.5</ele>
        <time>2020-08-07T18:14:57Z</time>
      </trkpt>
      <trkpt lat="41.0333710" lon="0.6241920">
        <ele>26.5</ele>
        <time>2020-08-07T18:14:58Z</time>
      </trkpt>
      <trkpt lat="41.0334350" lon="0.6242870">
        <ele>26.5</ele>
        <time>2020-08-07T18:15:00Z</time>
      </trkpt>
      <trkpt lat="41.0334970" lon="0.6243730">
        <ele>26.5</ele>
        <time>2020-08-07T18:15:02Z</time>
      </trkpt>
      <trkpt lat="41.0335620" lon="0.6244620">
        <ele>26.5</ele>
        <time>2020-08-07T18:15:04Z</time>
      </trkpt>
      <trkpt lat="41.0335940" lon="0.6245080">
        <ele>26.6</ele>
        <time>2020-08-07T18:15:05Z</time>
      </trkpt>
      <trkpt lat="41.0336660" lon="0.6245970">
        <ele>26.7</ele>
        <time>2020-08-07T18:15:07Z</time>
      </trkpt>
      <trkpt lat="41.0337300" lon="0.6246900">
        <ele>26.7</ele>
        <time>2020-08-07T18:15:09Z</time>
      </trkpt>
      <trkpt lat="41.0337610" lon="0.6247400">
        <ele>26.7</ele>
        <time>2020-08-07T18:15:10Z</time>
      </trkpt>
      <trkpt lat="41.0337940" lon="0.6247920">
        <ele>26.6</ele>
        <time>2020-08-07T18:15:11Z</time>
      </trkpt>
      <trkpt lat="41.0338510" lon="0.6248870">
        <ele>26.5</ele>
        <time>2020-08-07T18:15:13Z</time>
      </trkpt>
      <trkpt lat="41.0338790" lon="0.6249310">
        <ele>26.4</ele>
        <time>2020-08-07T18:15:14Z</time>
      </trkpt>
      <trkpt lat="41.0339030" lon="0.6249760">
        <ele>26.4</ele>
        <time>2020-08-07T18:15:15Z</time>
      </trkpt>
      <trkpt lat="41.0339500" lon="0.6250640">
        <ele>26.3</ele>
        <time>2020-08-07T18:15:17Z</time>
      </trkpt>
      <trkpt lat="41.0339750" lon="0.6251110">
        <ele>26.2</ele>
        <time>2020-08-07T18:15:18Z</time>
      </trkpt>
      <trkpt lat="41.0340050" lon="0.6251610">
        <ele>26.2</ele>
        <time>2020-08-07T18:15:19Z</time>
      </trkpt>
      <trkpt lat="41.0340640" lon="0.6252540">
        <ele>26.1</ele>
        <time>2020-08-07T18:15:21Z</time>
      </trkpt>
      <trkpt lat="41.0341280" lon="0.6253470">
        <ele>26.1</ele>
        <time>2020-08-07T18:15:23Z</time>
      </trkpt>
      <trkpt lat="41.0341940" lon="0.6254450">
        <ele>26.1</ele>
        <time>2020-08-07T18:15:25Z</time>
      </trkpt>
      <trkpt lat="41.0342230" lon="0.6254930">
        <ele>26.1</ele>
        <time>2020-08-07T18:15:26Z</time>
      </trkpt>
      <trkpt lat="41.0342800" lon="0.6256090">
        <ele>26.0</ele>
        <time>2020-08-07T18:15:28Z</time>
      </trkpt>
      <trkpt lat="41.0343070" lon="0.6256710">
        <ele>26.0</ele>
        <time>2020-08-07T18:15:29Z</time>
      </trkpt>
      <trkpt lat="41.0343340" lon="0.6257360">
        <ele>26.0</ele>
        <time>2020-08-07T18:15:30Z</time>
      </trkpt>
      <trkpt lat="41.0343870" lon="0.6258580">
        <ele>25.9</ele>
        <time>2020-08-07T18:15:32Z</time>
      </trkpt>
      <trkpt lat="41.0345930" lon="0.6262130">
        <ele>25.7</ele>
        <time>2020-08-07T18:15:39Z</time>
      </trkpt>
      <trkpt lat="41.0346550" lon="0.6263040">
        <ele>25.7</ele>
        <time>2020-08-07T18:15:41Z</time>
      </trkpt>
      <trkpt lat="41.0346850" lon="0.6263510">
        <ele>25.7</ele>
        <time>2020-08-07T18:15:42Z</time>
      </trkpt>
      <trkpt lat="41.0347140" lon="0.6263970">
        <ele>25.6</ele>
        <time>2020-08-07T18:15:43Z</time>
      </trkpt>
      <trkpt lat="41.0347720" lon="0.6264910">
        <ele>25.6</ele>
        <time>2020-08-07T18:15:45Z</time>
      </trkpt>
      <trkpt lat="41.0348340" lon="0.6265820">
        <ele>25.6</ele>
        <time>2020-08-07T18:15:47Z</time>
      </trkpt>
      <trkpt lat="41.0349030" lon="0.6266680">
        <ele>25.6</ele>
        <time>2020-08-07T18:15:49Z</time>
      </trkpt>
      <trkpt lat="41.0349360" lon="0.6267140">
        <ele>25.7</ele>
        <time>2020-08-07T18:15:50Z</time>
      </trkpt>
      <trkpt lat="41.0350010" lon="0.6268100">
        <ele>25.8</ele>
        <time>2020-08-07T18:15:52Z</time>
      </trkpt>
      <trkpt lat="41.0351000" lon="0.6269520">
        <ele>26.2</ele>
        <time>2020-08-07T18:15:55Z</time>
      </trkpt>
      <trkpt lat="41.0351320" lon="0.6270000">
        <ele>26.2</ele>
        <time>2020-08-07T18:15:56Z</time>
      </trkpt>
      <trkpt lat="41.0351610" lon="0.6270510">
        <ele>26.2</ele>
        <time>2020-08-07T18:15:57Z</time>
      </trkpt>
      <trkpt lat="41.0352110" lon="0.6271580">
        <ele>26.2</ele>
        <time>2020-08-07T18:15:59Z</time>
      </trkpt>
      <trkpt lat="41.0352360" lon="0.6272120">
        <ele>26.2</ele>
        <time>2020-08-07T18:16:00Z</time>
      </trkpt>
      <trkpt lat="41.0352890" lon="0.6273210">
        <ele>26.2</ele>
        <time>2020-08-07T18:16:02Z</time>
      </trkpt>
      <trkpt lat="41.0353470" lon="0.6274190">
        <ele>26.2</ele>
        <time>2020-08-07T18:16:04Z</time>
      </trkpt>
      <trkpt lat="41.0354130" lon="0.6275140">
        <ele>26.2</ele>
        <time>2020-08-07T18:16:06Z</time>
      </trkpt>
      <trkpt lat="41.0354420" lon="0.6275630">
        <ele>26.2</ele>
        <time>2020-08-07T18:16:07Z</time>
      </trkpt>
      <trkpt lat="41.0354640" lon="0.6276070">
        <ele>26.2</ele>
        <time>2020-08-07T18:16:08Z</time>
      </trkpt>
      <trkpt lat="41.0354880" lon="0.6276530">
        <ele>26.2</ele>
        <time>2020-08-07T18:16:09Z</time>
      </trkpt>
      <trkpt lat="41.0355150" lon="0.6276990">
        <ele>26.2</ele>
        <time>2020-08-07T18:16:10Z</time>
      </trkpt>
      <trkpt lat="41.0355440" lon="0.6277500">
        <ele>26.2</ele>
        <time>2020-08-07T18:16:11Z</time>
      </trkpt>
      <trkpt lat="41.0355740" lon="0.6278000">
        <ele>26.2</ele>
        <time>2020-08-07T18:16:12Z</time>
      </trkpt>
      <trkpt lat="41.0356330" lon="0.6278970">
        <ele>26.2</ele>
        <time>2020-08-07T18:16:14Z</time>
      </trkpt>
      <trkpt lat="41.0356030" lon="0.6279240">
        <ele>26.2</ele>
        <time>2020-08-07T18:16:15Z</time>
      </trkpt>
      <trkpt lat="41.0356390" lon="0.6279680">
        <ele>26.2</ele>
        <time>2020-08-07T18:16:16Z</time>
      </trkpt>
      <trkpt lat="41.0356610" lon="0.6280150">
        <ele>26.1</ele>
        <time>2020-08-07T18:16:17Z</time>
      </trkpt>
      <trkpt lat="41.0356410" lon="0.6280810">
        <ele>26.1</ele>
        <time>2020-08-07T18:16:19Z</time>
      </trkpt>
      <trkpt lat="41.0356400" lon="0.6281110">
        <ele>26.1</ele>
        <time>2020-08-07T18:16:20Z</time>
      </trkpt>
      <trkpt lat="41.0356670" lon="0.6281500">
        <ele>26.1</ele>
        <time>2020-08-07T18:16:22Z</time>
      </trkpt>
      <trkpt lat="41.0356970" lon="0.6281750">
        <ele>26.0</ele>
        <time>2020-08-07T18:16:23Z</time>
      </trkpt>
      <trkpt lat="41.0357100" lon="0.6281850">
        <ele>26.0</ele>
        <time>2020-08-07T18:16:24Z</time>
      </trkpt>
      <trkpt lat="41.0357230" lon="0.6281850">
        <ele>26.0</ele>
        <time>2020-08-07T18:16:26Z</time>
      </trkpt>
      <trkpt lat="41.0357360" lon="0.6282020">
        <ele>26.0</ele>
        <time>2020-08-07T18:16:27Z</time>
      </trkpt>
      <trkpt lat="41.0357710" lon="0.6282300">
        <ele>26.0</ele>
        <time>2020-08-07T18:16:28Z</time>
      </trkpt>
      <trkpt lat="41.0357930" lon="0.6282290">
        <ele>26.0</ele>
        <time>2020-08-07T18:16:29Z</time>
      </trkpt>
      <trkpt lat="41.0358260" lon="0.6282190">
        <ele>26.0</ele>
        <time>2020-08-07T18:16:30Z</time>
      </trkpt>
      <trkpt lat="41.0358620" lon="0.6282700">
        <ele>26.0</ele>
        <time>2020-08-07T18:16:32Z</time>
      </trkpt>
      <trkpt lat="41.0358750" lon="0.6282990">
        <ele>26.0</ele>
        <time>2020-08-07T18:16:33Z</time>
      </trkpt>
      <trkpt lat="41.0358940" lon="0.6283720">
        <ele>26.0</ele>
        <time>2020-08-07T18:16:35Z</time>
      </trkpt>
      <trkpt lat="41.0359040" lon="0.6284040">
        <ele>26.0</ele>
        <time>2020-08-07T18:16:36Z</time>
      </trkpt>
      <trkpt lat="41.0359180" lon="0.6284420">
        <ele>26.0</ele>
        <time>2020-08-07T18:16:37Z</time>
      </trkpt>
      <trkpt lat="41.0359310" lon="0.6284760">
        <ele>26.0</ele>
        <time>2020-08-07T18:16:38Z</time>
      </trkpt>
      <trkpt lat="41.0359440" lon="0.6285100">
        <ele>26.0</ele>
        <time>2020-08-07T18:16:40Z</time>
      </trkpt>
      <trkpt lat="41.0359590" lon="0.6285420">
        <ele>26.0</ele>
        <time>2020-08-07T18:16:41Z</time>
      </trkpt>
      <trkpt lat="41.0359840" lon="0.6285900">
        <ele>26.1</ele>
        <time>2020-08-07T18:16:42Z</time>
      </trkpt>
      <trkpt lat="41.0360060" lon="0.6286300">
        <ele>26.1</ele>
        <time>2020-08-07T18:16:44Z</time>
      </trkpt>
      <trkpt lat="41.0360270" lon="0.6286630">
        <ele>26.1</ele>
        <time>2020-08-07T18:16:45Z</time>
      </trkpt>
      <trkpt lat="41.0360480" lon="0.6286990">
        <ele>26.1</ele>
        <time>2020-08-07T18:16:46Z</time>
      </trkpt>
      <trkpt lat="41.0361970" lon="0.6289720">
        <ele>26.3</ele>
        <time>2020-08-07T18:16:48Z</time>
      </trkpt>
      <trkpt lat="41.0362810" lon="0.6291130">
        <ele>26.3</ele>
        <time>2020-08-07T18:16:49Z</time>
      </trkpt>
      <trkpt lat="41.0362950" lon="0.6291240">
        <ele>26.3</ele>
        <time>2020-08-07T18:16:50Z</time>
      </trkpt>
      <trkpt lat="41.0363260" lon="0.6292180">
        <ele>26.4</ele>
        <time>2020-08-07T18:16:51Z</time>
      </trkpt>
      <trkpt lat="41.0363570" lon="0.6293340">
        <ele>26.4</ele>
        <time>2020-08-07T18:16:53Z</time>
      </trkpt>
      <trkpt lat="41.0363780" lon="0.6294100">
        <ele>26.5</ele>
        <time>2020-08-07T18:16:54Z</time>
      </trkpt>
      <trkpt lat="41.0364020" lon="0.6294700">
        <ele>26.5</ele>
        <time>2020-08-07T18:16:55Z</time>
      </trkpt>
      <trkpt lat="41.0364260" lon="0.6295360">
        <ele>26.6</ele>
        <time>2020-08-07T18:16:58Z</time>
      </trkpt>
      <trkpt lat="41.0364380" lon="0.6295710">
        <ele>26.7</ele>
        <time>2020-08-07T18:16:59Z</time>
      </trkpt>
      <trkpt lat="41.0364560" lon="0.6295980">
        <ele>26.7</ele>
        <time>2020-08-07T18:17:00Z</time>
      </trkpt>
      <trkpt lat="41.0364730" lon="0.6296370">
        <ele>26.7</ele>
        <time>2020-08-07T18:17:01Z</time>
      </trkpt>
      <trkpt lat="41.0364850" lon="0.6296660">
        <ele>26.8</ele>
        <time>2020-08-07T18:17:03Z</time>
      </trkpt>
      <trkpt lat="41.0365090" lon="0.6297070">
        <ele>26.8</ele>
        <time>2020-08-07T18:17:05Z</time>
      </trkpt>
      <trkpt lat="41.0365230" lon="0.6297400">
        <ele>26.8</ele>
        <time>2020-08-07T18:17:06Z</time>
      </trkpt>
      <trkpt lat="41.0365500" lon="0.6297870">
        <ele>26.8</ele>
        <time>2020-08-07T18:17:08Z</time>
      </trkpt>
      <trkpt lat="41.0365740" lon="0.6298330">
        <ele>26.8</ele>
        <time>2020-08-07T18:17:09Z</time>
      </trkpt>
      <trkpt lat="41.0365830" lon="0.6298490">
        <ele>26.8</ele>
        <time>2020-08-07T18:17:10Z</time>
      </trkpt>
      <trkpt lat="41.0366000" lon="0.6298830">
        <ele>26.9</ele>
        <time>2020-08-07T18:17:11Z</time>
      </trkpt>
      <trkpt lat="41.0366260" lon="0.6299460">
        <ele>26.9</ele>
        <time>2020-08-07T18:17:13Z</time>
      </trkpt>
      <trkpt lat="41.0366440" lon="0.6299980">
        <ele>26.9</ele>
        <time>2020-08-07T18:17:14Z</time>
      </trkpt>
      <trkpt lat="41.0366630" lon="0.6300590">
        <ele>27.0</ele>
        <time>2020-08-07T18:17:15Z</time>
      </trkpt>
      <trkpt lat="41.0366810" lon="0.6301250">
        <ele>27.0</ele>
        <time>2020-08-07T18:17:17Z</time>
      </trkpt>
      <trkpt lat="41.0366930" lon="0.6301680">
        <ele>27.0</ele>
        <time>2020-08-07T18:17:18Z</time>
      </trkpt>
      <trkpt lat="41.0367030" lon="0.6302150">
        <ele>27.1</ele>
        <time>2020-08-07T18:17:19Z</time>
      </trkpt>
      <trkpt lat="41.0367170" lon="0.6302880">
        <ele>27.1</ele>
        <time>2020-08-07T18:17:20Z</time>
      </trkpt>
      <trkpt lat="41.0367280" lon="0.6303530">
        <ele>27.2</ele>
        <time>2020-08-07T18:17:22Z</time>
      </trkpt>
      <trkpt lat="41.0368750" lon="0.6306960">
        <ele>27.5</ele>
        <time>2020-08-07T18:17:23Z</time>
      </trkpt>
      <trkpt lat="41.0369050" lon="0.6307820">
        <ele>27.6</ele>
        <time>2020-08-07T18:17:25Z</time>
      </trkpt>
      <trkpt lat="41.0369740" lon="0.6309560">
        <ele>27.7</ele>
        <time>2020-08-07T18:17:26Z</time>
      </trkpt>
      <trkpt lat="41.0368900" lon="0.6308320">
        <ele>27.8</ele>
        <time>2020-08-07T18:17:27Z</time>
      </trkpt>
      <trkpt lat="41.0368760" lon="0.6307630">
        <ele>27.8</ele>
        <time>2020-08-07T18:17:28Z</time>
      </trkpt>
      <trkpt lat="41.0369550" lon="0.6308140">
        <ele>27.9</ele>
        <time>2020-08-07T18:17:29Z</time>
      </trkpt>
      <trkpt lat="41.0370280" lon="0.6308810">
        <ele>27.9</ele>
        <time>2020-08-07T18:17:31Z</time>
      </trkpt>
      <trkpt lat="41.0370770" lon="0.6309560">
        <ele>28.0</ele>
        <time>2020-08-07T18:17:32Z</time>
      </trkpt>
      <trkpt lat="41.0371160" lon="0.6310420">
        <ele>28.0</ele>
        <time>2020-08-07T18:17:33Z</time>
      </trkpt>
      <trkpt lat="41.0371490" lon="0.6311170">
        <ele>28.0</ele>
        <time>2020-08-07T18:17:34Z</time>
      </trkpt>
      <trkpt lat="41.0371960" lon="0.6312230">
        <ele>28.1</ele>
        <time>2020-08-07T18:17:36Z</time>
      </trkpt>
      <trkpt lat="41.0372260" lon="0.6313370">
        <ele>28.1</ele>
        <time>2020-08-07T18:17:37Z</time>
      </trkpt>
      <trkpt lat="41.0372320" lon="0.6314150">
        <ele>28.2</ele>
        <time>2020-08-07T18:17:39Z</time>
      </trkpt>
      <trkpt lat="41.0372400" lon="0.6314970">
        <ele>28.2</ele>
        <time>2020-08-07T18:17:40Z</time>
      </trkpt>
      <trkpt lat="41.0372440" lon="0.6315560">
        <ele>28.3</ele>
        <time>2020-08-07T18:17:41Z</time>
      </trkpt>
      <trkpt lat="41.0372490" lon="0.6316390">
        <ele>28.3</ele>
        <time>2020-08-07T18:17:43Z</time>
      </trkpt>
      <trkpt lat="41.0372450" lon="0.6317210">
        <ele>28.4</ele>
        <time>2020-08-07T18:17:44Z</time>
      </trkpt>
      <trkpt lat="41.0372440" lon="0.6317720">
        <ele>28.4</ele>
        <time>2020-08-07T18:17:45Z</time>
      </trkpt>
      <trkpt lat="41.0372580" lon="0.6318550">
        <ele>28.5</ele>
        <time>2020-08-07T18:17:47Z</time>
      </trkpt>
      <trkpt lat="41.0372670" lon="0.6318920">
        <ele>28.5</ele>
        <time>2020-08-07T18:17:48Z</time>
      </trkpt>
      <trkpt lat="41.0372880" lon="0.6319510">
        <ele>28.6</ele>
        <time>2020-08-07T18:17:49Z</time>
      </trkpt>
      <trkpt lat="41.0373080" lon="0.6319980">
        <ele>28.7</ele>
        <time>2020-08-07T18:17:50Z</time>
      </trkpt>
      <trkpt lat="41.0373330" lon="0.6320440">
        <ele>28.7</ele>
        <time>2020-08-07T18:17:52Z</time>
      </trkpt>
      <trkpt lat="41.0373570" lon="0.6320940">
        <ele>28.8</ele>
        <time>2020-08-07T18:17:53Z</time>
      </trkpt>
      <trkpt lat="41.0373790" lon="0.6321390">
        <ele>28.9</ele>
        <time>2020-08-07T18:17:54Z</time>
      </trkpt>
      <trkpt lat="41.0374010" lon="0.6321900">
        <ele>28.9</ele>
        <time>2020-08-07T18:17:55Z</time>
      </trkpt>
      <trkpt lat="41.0374180" lon="0.6322400">
        <ele>29.0</ele>
        <time>2020-08-07T18:17:56Z</time>
      </trkpt>
      <trkpt lat="41.0374440" lon="0.6323270">
        <ele>29.2</ele>
        <time>2020-08-07T18:17:58Z</time>
      </trkpt>
      <trkpt lat="41.0374540" lon="0.6323590">
        <ele>29.2</ele>
        <time>2020-08-07T18:17:59Z</time>
      </trkpt>
      <trkpt lat="41.0374640" lon="0.6323870">
        <ele>29.3</ele>
        <time>2020-08-07T18:18:01Z</time>
      </trkpt>
      <trkpt lat="41.0374720" lon="0.6324350">
        <ele>29.3</ele>
        <time>2020-08-07T18:18:02Z</time>
      </trkpt>
      <trkpt lat="41.0374780" lon="0.6324970">
        <ele>29.4</ele>
        <time>2020-08-07T18:18:05Z</time>
      </trkpt>
      <trkpt lat="41.0374700" lon="0.6326260">
        <ele>29.5</ele>
        <time>2020-08-07T18:18:07Z</time>
      </trkpt>
      <trkpt lat="41.0374730" lon="0.6326930">
        <ele>29.6</ele>
        <time>2020-08-07T18:18:08Z</time>
      </trkpt>
      <trkpt lat="41.0374910" lon="0.6328260">
        <ele>29.6</ele>
        <time>2020-08-07T18:18:10Z</time>
      </trkpt>
      <trkpt lat="41.0375070" lon="0.6328970">
        <ele>29.7</ele>
        <time>2020-08-07T18:18:11Z</time>
      </trkpt>
      <trkpt lat="41.0375470" lon="0.6330400">
        <ele>29.7</ele>
        <time>2020-08-07T18:18:12Z</time>
      </trkpt>
      <trkpt lat="41.0376220" lon="0.6332390">
        <ele>29.9</ele>
        <time>2020-08-07T18:18:14Z</time>
      </trkpt>
      <trkpt lat="41.0376770" lon="0.6333920">
        <ele>30.0</ele>
        <time>2020-08-07T18:18:15Z</time>
      </trkpt>
      <trkpt lat="41.0377070" lon="0.6334890">
        <ele>30.1</ele>
        <time>2020-08-07T18:18:16Z</time>
      </trkpt>
      <trkpt lat="41.0377130" lon="0.6335910">
        <ele>30.2</ele>
        <time>2020-08-07T18:18:18Z</time>
      </trkpt>
      <trkpt lat="41.0377220" lon="0.6337220">
        <ele>30.3</ele>
        <time>2020-08-07T18:18:19Z</time>
      </trkpt>
      <trkpt lat="41.0377330" lon="0.6338430">
        <ele>30.4</ele>
        <time>2020-08-07T18:18:21Z</time>
      </trkpt>
      <trkpt lat="41.0377500" lon="0.6339780">
        <ele>30.5</ele>
        <time>2020-08-07T18:18:23Z</time>
      </trkpt>
      <trkpt lat="41.0377570" lon="0.6340320">
        <ele>30.6</ele>
        <time>2020-08-07T18:18:24Z</time>
      </trkpt>
      <trkpt lat="41.0377640" lon="0.6340750">
        <ele>30.6</ele>
        <time>2020-08-07T18:18:25Z</time>
      </trkpt>
      <trkpt lat="41.0377690" lon="0.6341160">
        <ele>30.6</ele>
        <time>2020-08-07T18:18:26Z</time>
      </trkpt>
      <trkpt lat="41.0377860" lon="0.6341810">
        <ele>30.6</ele>
        <time>2020-08-07T18:18:27Z</time>
      </trkpt>
      <trkpt lat="41.0378130" lon="0.6342660">
        <ele>30.7</ele>
        <time>2020-08-07T18:18:28Z</time>
      </trkpt>
      <trkpt lat="41.0378390" lon="0.6343510">
        <ele>30.7</ele>
        <time>2020-08-07T18:18:29Z</time>
      </trkpt>
      <trkpt lat="41.0378620" lon="0.6344240">
        <ele>30.8</ele>
        <time>2020-08-07T18:18:30Z</time>
      </trkpt>
      <trkpt lat="41.0378990" lon="0.6345470">
        <ele>30.9</ele>
        <time>2020-08-07T18:18:32Z</time>
      </trkpt>
      <trkpt lat="41.0379160" lon="0.6346020">
        <ele>30.9</ele>
        <time>2020-08-07T18:18:33Z</time>
      </trkpt>
      <trkpt lat="41.0379450" lon="0.6346990">
        <ele>31.0</ele>
        <time>2020-08-07T18:18:34Z</time>
      </trkpt>
      <trkpt lat="41.0379680" lon="0.6347670">
        <ele>31.0</ele>
        <time>2020-08-07T18:18:36Z</time>
      </trkpt>
      <trkpt lat="41.0379850" lon="0.6348210">
        <ele>31.1</ele>
        <time>2020-08-07T18:18:37Z</time>
      </trkpt>
      <trkpt lat="41.0379990" lon="0.6348700">
        <ele>31.1</ele>
        <time>2020-08-07T18:18:38Z</time>
      </trkpt>
      <trkpt lat="41.0380250" lon="0.6349500">
        <ele>31.2</ele>
        <time>2020-08-07T18:18:39Z</time>
      </trkpt>
      <trkpt lat="41.0380470" lon="0.6350030">
        <ele>31.3</ele>
        <time>2020-08-07T18:18:41Z</time>
      </trkpt>
      <trkpt lat="41.0380740" lon="0.6350780">
        <ele>31.3</ele>
        <time>2020-08-07T18:18:42Z</time>
      </trkpt>
      <trkpt lat="41.0380920" lon="0.6351270">
        <ele>31.4</ele>
        <time>2020-08-07T18:18:43Z</time>
      </trkpt>
      <trkpt lat="41.0381160" lon="0.6351910">
        <ele>31.4</ele>
        <time>2020-08-07T18:18:45Z</time>
      </trkpt>
      <trkpt lat="41.0381460" lon="0.6352710">
        <ele>31.4</ele>
        <time>2020-08-07T18:18:46Z</time>
      </trkpt>
      <trkpt lat="41.0381660" lon="0.6353240">
        <ele>31.5</ele>
        <time>2020-08-07T18:18:47Z</time>
      </trkpt>
      <trkpt lat="41.0381890" lon="0.6353800">
        <ele>31.5</ele>
        <time>2020-08-07T18:18:49Z</time>
      </trkpt>
      <trkpt lat="41.0382170" lon="0.6354540">
        <ele>31.6</ele>
        <time>2020-08-07T18:18:50Z</time>
      </trkpt>
      <trkpt lat="41.0382410" lon="0.6355190">
        <ele>31.6</ele>
        <time>2020-08-07T18:18:52Z</time>
      </trkpt>
      <trkpt lat="41.0382580" lon="0.6355650">
        <ele>31.7</ele>
        <time>2020-08-07T18:18:53Z</time>
      </trkpt>
      <trkpt lat="41.0382920" lon="0.6356500">
        <ele>31.7</ele>
        <time>2020-08-07T18:18:54Z</time>
      </trkpt>
      <trkpt lat="41.0383160" lon="0.6357020">
        <ele>31.8</ele>
        <time>2020-08-07T18:18:56Z</time>
      </trkpt>
      <trkpt lat="41.0383380" lon="0.6357500">
        <ele>31.8</ele>
        <time>2020-08-07T18:18:57Z</time>
      </trkpt>
      <trkpt lat="41.0383560" lon="0.6357960">
        <ele>31.9</ele>
        <time>2020-08-07T18:18:58Z</time>
      </trkpt>
      <trkpt lat="41.0383900" lon="0.6358660">
        <ele>32.0</ele>
        <time>2020-08-07T18:18:59Z</time>
      </trkpt>
      <trkpt lat="41.0384140" lon="0.6359110">
        <ele>32.0</ele>
        <time>2020-08-07T18:19:00Z</time>
      </trkpt>
      <trkpt lat="41.0384370" lon="0.6359580">
        <ele>32.1</ele>
        <time>2020-08-07T18:19:01Z</time>
      </trkpt>
      <trkpt lat="41.0384600" lon="0.6360070">
        <ele>32.1</ele>
        <time>2020-08-07T18:19:03Z</time>
      </trkpt>
      <trkpt lat="41.0384930" lon="0.6360820">
        <ele>32.2</ele>
        <time>2020-08-07T18:19:04Z</time>
      </trkpt>
      <trkpt lat="41.0385190" lon="0.6361420">
        <ele>32.3</ele>
        <time>2020-08-07T18:19:05Z</time>
      </trkpt>
      <trkpt lat="41.0385450" lon="0.6361960">
        <ele>32.3</ele>
        <time>2020-08-07T18:19:07Z</time>
      </trkpt>
      <trkpt lat="41.0385800" lon="0.6362900">
        <ele>32.4</ele>
        <time>2020-08-07T18:19:09Z</time>
      </trkpt>
      <trkpt lat="41.0386060" lon="0.6363380">
        <ele>32.4</ele>
        <time>2020-08-07T18:19:10Z</time>
      </trkpt>
      <trkpt lat="41.0386430" lon="0.6363690">
        <ele>32.5</ele>
        <time>2020-08-07T18:19:11Z</time>
      </trkpt>
      <trkpt lat="41.0386930" lon="0.6364710">
        <ele>32.6</ele>
        <time>2020-08-07T18:19:13Z</time>
      </trkpt>
      <trkpt lat="41.0387340" lon="0.6365810">
        <ele>32.6</ele>
        <time>2020-08-07T18:19:15Z</time>
      </trkpt>
      <trkpt lat="41.0387770" lon="0.6366830">
        <ele>32.7</ele>
        <time>2020-08-07T18:19:17Z</time>
      </trkpt>
      <trkpt lat="41.0388000" lon="0.6367330">
        <ele>32.8</ele>
        <time>2020-08-07T18:19:18Z</time>
      </trkpt>
      <trkpt lat="41.0388530" lon="0.6368330">
        <ele>32.9</ele>
        <time>2020-08-07T18:19:20Z</time>
      </trkpt>
      <trkpt lat="41.0388880" lon="0.6368910">
        <ele>32.9</ele>
        <time>2020-08-07T18:19:21Z</time>
      </trkpt>
      <trkpt lat="41.0389200" lon="0.6369570">
        <ele>33.0</ele>
        <time>2020-08-07T18:19:22Z</time>
      </trkpt>
      <trkpt lat="41.0389640" lon="0.6370580">
        <ele>33.1</ele>
        <time>2020-08-07T18:19:24Z</time>
      </trkpt>
      <trkpt lat="41.0389680" lon="0.6370820">
        <ele>33.2</ele>
        <time>2020-08-07T18:19:25Z</time>
      </trkpt>
      <trkpt lat="41.0389660" lon="0.6370600">
        <ele>33.2</ele>
        <time>2020-08-07T18:19:26Z</time>
      </trkpt>
      <trkpt lat="41.0389980" lon="0.6370600">
        <ele>33.2</ele>
        <time>2020-08-07T18:19:27Z</time>
      </trkpt>
      <trkpt lat="41.0390270" lon="0.6370910">
        <ele>33.3</ele>
        <time>2020-08-07T18:19:29Z</time>
      </trkpt>
      <trkpt lat="41.0390340" lon="0.6371050">
        <ele>33.3</ele>
        <time>2020-08-07T18:19:30Z</time>
      </trkpt>
      <trkpt lat="41.0390560" lon="0.6371610">
        <ele>33.4</ele>
        <time>2020-08-07T18:19:32Z</time>
      </trkpt>
      <trkpt lat="41.0390760" lon="0.6372230">
        <ele>33.5</ele>
        <time>2020-08-07T18:19:33Z</time>
      </trkpt>
      <trkpt lat="41.0390900" lon="0.6372650">
        <ele>33.5</ele>
        <time>2020-08-07T18:19:35Z</time>
      </trkpt>
      <trkpt lat="41.0391080" lon="0.6373090">
        <ele>33.6</ele>
        <time>2020-08-07T18:19:36Z</time>
      </trkpt>
      <trkpt lat="41.0391400" lon="0.6373890">
        <ele>33.6</ele>
        <time>2020-08-07T18:19:37Z</time>
      </trkpt>
      <trkpt lat="41.0391640" lon="0.6374400">
        <ele>33.7</ele>
        <time>2020-08-07T18:19:39Z</time>
      </trkpt>
      <trkpt lat="41.0391850" lon="0.6374820">
        <ele>33.7</ele>
        <time>2020-08-07T18:19:40Z</time>
      </trkpt>
      <trkpt lat="41.0392050" lon="0.6375190">
        <ele>33.7</ele>
        <time>2020-08-07T18:19:41Z</time>
      </trkpt>
      <trkpt lat="41.0392210" lon="0.6375500">
        <ele>33.7</ele>
        <time>2020-08-07T18:19:42Z</time>
      </trkpt>
      <trkpt lat="41.0392490" lon="0.6375960">
        <ele>33.8</ele>
        <time>2020-08-07T18:19:43Z</time>
      </trkpt>
      <trkpt lat="41.0392930" lon="0.6376310">
        <ele>33.8</ele>
        <time>2020-08-07T18:19:45Z</time>
      </trkpt>
      <trkpt lat="41.0393180" lon="0.6376390">
        <ele>33.8</ele>
        <time>2020-08-07T18:19:46Z</time>
      </trkpt>
      <trkpt lat="41.0394660" lon="0.6377460">
        <ele>34.0</ele>
        <time>2020-08-07T18:19:48Z</time>
      </trkpt>
      <trkpt lat="41.0395460" lon="0.6378500">
        <ele>34.0</ele>
        <time>2020-08-07T18:19:49Z</time>
      </trkpt>
      <trkpt lat="41.0396700" lon="0.6380950">
        <ele>34.0</ele>
        <time>2020-08-07T18:19:51Z</time>
      </trkpt>
      <trkpt lat="41.0396640" lon="0.6381090">
        <ele>34.0</ele>
        <time>2020-08-07T18:19:52Z</time>
      </trkpt>
      <trkpt lat="41.0397050" lon="0.6382530">
        <ele>34.0</ele>
        <time>2020-08-07T18:19:54Z</time>
      </trkpt>
      <trkpt lat="41.0398260" lon="0.6383940">
        <ele>33.9</ele>
        <time>2020-08-07T18:19:56Z</time>
      </trkpt>
      <trkpt lat="41.0399120" lon="0.6384910">
        <ele>33.8</ele>
        <time>2020-08-07T18:19:58Z</time>
      </trkpt>
      <trkpt lat="41.0399540" lon="0.6385390">
        <ele>33.8</ele>
        <time>2020-08-07T18:19:59Z</time>
      </trkpt>
      <trkpt lat="41.0399920" lon="0.6385870">
        <ele>33.7</ele>
        <time>2020-08-07T18:20:00Z</time>
      </trkpt>
      <trkpt lat="41.0400690" lon="0.6386910">
        <ele>33.6</ele>
        <time>2020-08-07T18:20:02Z</time>
      </trkpt>
      <trkpt lat="41.0401400" lon="0.6387980">
        <ele>33.5</ele>
        <time>2020-08-07T18:20:04Z</time>
      </trkpt>
      <trkpt lat="41.0401760" lon="0.6388460">
        <ele>33.5</ele>
        <time>2020-08-07T18:20:05Z</time>
      </trkpt>
      <trkpt lat="41.0402430" lon="0.6389310">
        <ele>33.3</ele>
        <time>2020-08-07T18:20:07Z</time>
      </trkpt>
      <trkpt lat="41.0408290" lon="0.6395270">
        <ele>32.2</ele>
        <time>2020-08-07T18:20:22Z</time>
      </trkpt>
      <trkpt lat="41.0408290" lon="0.6395270">
        <ele>32.2</ele>
        <time>2020-08-07T18:20:22Z</time>
      </trkpt>
      <trkpt lat="41.0409180" lon="0.6396010">
        <ele>32.0</ele>
        <time>2020-08-07T18:20:23Z</time>
      </trkpt>
      <trkpt lat="41.0410080" lon="0.6396770">
        <ele>31.8</ele>
        <time>2020-08-07T18:20:25Z</time>
      </trkpt>
      <trkpt lat="41.0410530" lon="0.6397170">
        <ele>31.7</ele>
        <time>2020-08-07T18:20:26Z</time>
      </trkpt>
      <trkpt lat="41.0411480" lon="0.6398020">
        <ele>31.5</ele>
        <time>2020-08-07T18:20:28Z</time>
      </trkpt>
      <trkpt lat="41.0412480" lon="0.6398850">
        <ele>31.3</ele>
        <time>2020-08-07T18:20:30Z</time>
      </trkpt>
      <trkpt lat="41.0413050" lon="0.6399260">
        <ele>31.1</ele>
        <time>2020-08-07T18:20:31Z</time>
      </trkpt>
      <trkpt lat="41.0413590" lon="0.6399630">
        <ele>31.0</ele>
        <time>2020-08-07T18:20:32Z</time>
      </trkpt>
      <trkpt lat="41.0414610" lon="0.6400400">
        <ele>30.9</ele>
        <time>2020-08-07T18:20:34Z</time>
      </trkpt>
      <trkpt lat="41.0415110" lon="0.6400750">
        <ele>30.8</ele>
        <time>2020-08-07T18:20:35Z</time>
      </trkpt>
      <trkpt lat="41.0415630" lon="0.6401070">
        <ele>30.7</ele>
        <time>2020-08-07T18:20:36Z</time>
      </trkpt>
      <trkpt lat="41.0416170" lon="0.6401360">
        <ele>30.5</ele>
        <time>2020-08-07T18:20:37Z</time>
      </trkpt>
      <trkpt lat="41.0417230" lon="0.6401940">
        <ele>30.3</ele>
        <time>2020-08-07T18:20:39Z</time>
      </trkpt>
      <trkpt lat="41.0417770" lon="0.6402300">
        <ele>30.2</ele>
        <time>2020-08-07T18:20:40Z</time>
      </trkpt>
      <trkpt lat="41.0418860" lon="0.6402890">
        <ele>30.0</ele>
        <time>2020-08-07T18:20:42Z</time>
      </trkpt>
      <trkpt lat="41.0419390" lon="0.6403170">
        <ele>29.9</ele>
        <time>2020-08-07T18:20:43Z</time>
      </trkpt>
      <trkpt lat="41.0420410" lon="0.6403730">
        <ele>29.7</ele>
        <time>2020-08-07T18:20:45Z</time>
      </trkpt>
      <trkpt lat="41.0420920" lon="0.6403980">
        <ele>29.7</ele>
        <time>2020-08-07T18:20:46Z</time>
      </trkpt>
      <trkpt lat="41.0421430" lon="0.6404250">
        <ele>29.6</ele>
        <time>2020-08-07T18:20:47Z</time>
      </trkpt>
      <trkpt lat="41.0421950" lon="0.6404440">
        <ele>29.6</ele>
        <time>2020-08-07T18:20:48Z</time>
      </trkpt>
      <trkpt lat="41.0422460" lon="0.6404610">
        <ele>29.6</ele>
        <time>2020-08-07T18:20:49Z</time>
      </trkpt>
      <trkpt lat="41.0422980" lon="0.6404810">
        <ele>29.5</ele>
        <time>2020-08-07T18:20:50Z</time>
      </trkpt>
      <trkpt lat="41.0424010" lon="0.6405200">
        <ele>29.3</ele>
        <time>2020-08-07T18:20:52Z</time>
      </trkpt>
      <trkpt lat="41.0424530" lon="0.6405390">
        <ele>29.2</ele>
        <time>2020-08-07T18:20:53Z</time>
      </trkpt>
      <trkpt lat="41.0425060" lon="0.6405560">
        <ele>29.1</ele>
        <time>2020-08-07T18:20:54Z</time>
      </trkpt>
      <trkpt lat="41.0425590" lon="0.6405730">
        <ele>29.0</ele>
        <time>2020-08-07T18:20:55Z</time>
      </trkpt>
      <trkpt lat="41.0426680" lon="0.6406070">
        <ele>28.7</ele>
        <time>2020-08-07T18:20:57Z</time>
      </trkpt>
      <trkpt lat="41.0427250" lon="0.6406200">
        <ele>28.6</ele>
        <time>2020-08-07T18:20:58Z</time>
      </trkpt>
      <trkpt lat="41.0428360" lon="0.6406430">
        <ele>28.4</ele>
        <time>2020-08-07T18:21:00Z</time>
      </trkpt>
      <trkpt lat="41.0428920" lon="0.6406580">
        <ele>28.4</ele>
        <time>2020-08-07T18:21:01Z</time>
      </trkpt>
      <trkpt lat="41.0430040" lon="0.6406910">
        <ele>28.2</ele>
        <time>2020-08-07T18:21:03Z</time>
      </trkpt>
      <trkpt lat="41.0430590" lon="0.6407100">
        <ele>28.2</ele>
        <time>2020-08-07T18:21:04Z</time>
      </trkpt>
      <trkpt lat="41.0431680" lon="0.6407470">
        <ele>27.8</ele>
        <time>2020-08-07T18:21:06Z</time>
      </trkpt>
      <trkpt lat="41.0432810" lon="0.6407870">
        <ele>27.5</ele>
        <time>2020-08-07T18:21:08Z</time>
      </trkpt>
      <trkpt lat="41.0433900" lon="0.6408330">
        <ele>27.2</ele>
        <time>2020-08-07T18:21:10Z</time>
      </trkpt>
      <trkpt lat="41.0434460" lon="0.6408550">
        <ele>27.1</ele>
        <time>2020-08-07T18:21:11Z</time>
      </trkpt>
      <trkpt lat="41.0435040" lon="0.6408830">
        <ele>27.0</ele>
        <time>2020-08-07T18:21:12Z</time>
      </trkpt>
      <trkpt lat="41.0436150" lon="0.6409430">
        <ele>26.8</ele>
        <time>2020-08-07T18:21:14Z</time>
      </trkpt>
      <trkpt lat="41.0436640" lon="0.6409780">
        <ele>26.8</ele>
        <time>2020-08-07T18:21:15Z</time>
      </trkpt>
      <trkpt lat="41.0437140" lon="0.6410130">
        <ele>26.7</ele>
        <time>2020-08-07T18:21:16Z</time>
      </trkpt>
      <trkpt lat="41.0437620" lon="0.6410480">
        <ele>26.7</ele>
        <time>2020-08-07T18:21:17Z</time>
      </trkpt>
      <trkpt lat="41.0438520" lon="0.6411150">
        <ele>26.5</ele>
        <time>2020-08-07T18:21:19Z</time>
      </trkpt>
      <trkpt lat="41.0439000" lon="0.6411500">
        <ele>26.4</ele>
        <time>2020-08-07T18:21:20Z</time>
      </trkpt>
      <trkpt lat="41.0439920" lon="0.6412250">
        <ele>26.6</ele>
        <time>2020-08-07T18:21:22Z</time>
      </trkpt>
      <trkpt lat="41.0440330" lon="0.6412680">
        <ele>26.7</ele>
        <time>2020-08-07T18:21:23Z</time>
      </trkpt>
      <trkpt lat="41.0440760" lon="0.6413150">
        <ele>26.9</ele>
        <time>2020-08-07T18:21:24Z</time>
      </trkpt>
      <trkpt lat="41.0441620" lon="0.6414110">
        <ele>27.6</ele>
        <time>2020-08-07T18:21:26Z</time>
      </trkpt>
      <trkpt lat="41.0442090" lon="0.6414630">
        <ele>28.1</ele>
        <time>2020-08-07T18:21:27Z</time>
      </trkpt>
      <trkpt lat="41.0442960" lon="0.6415700">
        <ele>27.8</ele>
        <time>2020-08-07T18:21:29Z</time>
      </trkpt>
      <trkpt lat="41.0443760" lon="0.6416860">
        <ele>27.6</ele>
        <time>2020-08-07T18:21:31Z</time>
      </trkpt>
      <trkpt lat="41.0444120" lon="0.6417440">
        <ele>27.5</ele>
        <time>2020-08-07T18:21:32Z</time>
      </trkpt>
      <trkpt lat="41.0444800" lon="0.6418570">
        <ele>27.3</ele>
        <time>2020-08-07T18:21:34Z</time>
      </trkpt>
      <trkpt lat="41.0445140" lon="0.6419210">
        <ele>27.2</ele>
        <time>2020-08-07T18:21:35Z</time>
      </trkpt>
      <trkpt lat="41.0445850" lon="0.6420430">
        <ele>27.0</ele>
        <time>2020-08-07T18:21:37Z</time>
      </trkpt>
      <trkpt lat="41.0446130" lon="0.6420990">
        <ele>26.9</ele>
        <time>2020-08-07T18:21:38Z</time>
      </trkpt>
      <trkpt lat="41.0446630" lon="0.6422070">
        <ele>27.0</ele>
        <time>2020-08-07T18:21:40Z</time>
      </trkpt>
      <trkpt lat="41.0446870" lon="0.6422660">
        <ele>27.1</ele>
        <time>2020-08-07T18:21:41Z</time>
      </trkpt>
      <trkpt lat="41.0446980" lon="0.6423490">
        <ele>27.2</ele>
        <time>2020-08-07T18:21:43Z</time>
      </trkpt>
      <trkpt lat="41.0447220" lon="0.6424050">
        <ele>27.2</ele>
        <time>2020-08-07T18:21:44Z</time>
      </trkpt>
      <trkpt lat="41.0447550" lon="0.6424980">
        <ele>27.3</ele>
        <time>2020-08-07T18:21:46Z</time>
      </trkpt>
      <trkpt lat="41.0447690" lon="0.6425440">
        <ele>27.4</ele>
        <time>2020-08-07T18:21:47Z</time>
      </trkpt>
      <trkpt lat="41.0448130" lon="0.6426520">
        <ele>27.5</ele>
        <time>2020-08-07T18:21:49Z</time>
      </trkpt>
      <trkpt lat="41.0448610" lon="0.6427470">
        <ele>27.6</ele>
        <time>2020-08-07T18:21:51Z</time>
      </trkpt>
      <trkpt lat="41.0448830" lon="0.6427940">
        <ele>27.7</ele>
        <time>2020-08-07T18:21:52Z</time>
      </trkpt>
      <trkpt lat="41.0449050" lon="0.6428470">
        <ele>27.8</ele>
        <time>2020-08-07T18:21:53Z</time>
      </trkpt>
      <trkpt lat="41.0449440" lon="0.6429330">
        <ele>27.9</ele>
        <time>2020-08-07T18:21:55Z</time>
      </trkpt>
      <trkpt lat="41.0449610" lon="0.6429780">
        <ele>28.0</ele>
        <time>2020-08-07T18:21:56Z</time>
      </trkpt>
      <trkpt lat="41.0449800" lon="0.6430350">
        <ele>28.1</ele>
        <time>2020-08-07T18:21:57Z</time>
      </trkpt>
      <trkpt lat="41.0449930" lon="0.6430770">
        <ele>28.1</ele>
        <time>2020-08-07T18:21:58Z</time>
      </trkpt>
      <trkpt lat="41.0450080" lon="0.6431290">
        <ele>28.2</ele>
        <time>2020-08-07T18:21:59Z</time>
      </trkpt>
      <trkpt lat="41.0450390" lon="0.6432330">
        <ele>28.4</ele>
        <time>2020-08-07T18:22:01Z</time>
      </trkpt>
      <trkpt lat="41.0450550" lon="0.6432940">
        <ele>28.5</ele>
        <time>2020-08-07T18:22:03Z</time>
      </trkpt>
      <trkpt lat="41.0450310" lon="0.6432290">
        <ele>28.6</ele>
        <time>2020-08-07T18:22:04Z</time>
      </trkpt>
      <trkpt lat="41.0450170" lon="0.6431880">
        <ele>28.7</ele>
        <time>2020-08-07T18:22:05Z</time>
      </trkpt>
      <trkpt lat="41.0450620" lon="0.6432840">
        <ele>28.9</ele>
        <time>2020-08-07T18:22:06Z</time>
      </trkpt>
      <trkpt lat="41.0450920" lon="0.6433520">
        <ele>29.0</ele>
        <time>2020-08-07T18:22:07Z</time>
      </trkpt>
      <trkpt lat="41.0451340" lon="0.6434630">
        <ele>29.4</ele>
        <time>2020-08-07T18:22:08Z</time>
      </trkpt>
      <trkpt lat="41.0451510" lon="0.6435290">
        <ele>29.6</ele>
        <time>2020-08-07T18:22:09Z</time>
      </trkpt>
      <trkpt lat="41.0451650" lon="0.6435750">
        <ele>29.8</ele>
        <time>2020-08-07T18:22:11Z</time>
      </trkpt>
      <trkpt lat="41.0451840" lon="0.6436450">
        <ele>30.0</ele>
        <time>2020-08-07T18:22:13Z</time>
      </trkpt>
      <trkpt lat="41.0451970" lon="0.6436800">
        <ele>30.1</ele>
        <time>2020-08-07T18:22:14Z</time>
      </trkpt>
      <trkpt lat="41.0452320" lon="0.6437610">
        <ele>30.2</ele>
        <time>2020-08-07T18:22:16Z</time>
      </trkpt>
      <trkpt lat="41.0452500" lon="0.6437970">
        <ele>30.2</ele>
        <time>2020-08-07T18:22:17Z</time>
      </trkpt>
      <trkpt lat="41.0453110" lon="0.6439840">
        <ele>30.5</ele>
        <time>2020-08-07T18:22:19Z</time>
      </trkpt>
      <trkpt lat="41.0453380" lon="0.6440590">
        <ele>30.6</ele>
        <time>2020-08-07T18:22:20Z</time>
      </trkpt>
      <trkpt lat="41.0453800" lon="0.6442130">
        <ele>30.8</ele>
        <time>2020-08-07T18:22:21Z</time>
      </trkpt>
      <trkpt lat="41.0454060" lon="0.6442930">
        <ele>30.9</ele>
        <time>2020-08-07T18:22:22Z</time>
      </trkpt>
      <trkpt lat="41.0454270" lon="0.6443690">
        <ele>31.0</ele>
        <time>2020-08-07T18:22:24Z</time>
      </trkpt>
      <trkpt lat="41.0454650" lon="0.6444830">
        <ele>31.1</ele>
        <time>2020-08-07T18:22:26Z</time>
      </trkpt>
      <trkpt lat="41.0454820" lon="0.6445420">
        <ele>31.2</ele>
        <time>2020-08-07T18:22:27Z</time>
      </trkpt>
      <trkpt lat="41.0455100" lon="0.6446220">
        <ele>31.3</ele>
        <time>2020-08-07T18:22:28Z</time>
      </trkpt>
      <trkpt lat="41.0455350" lon="0.6446950">
        <ele>31.4</ele>
        <time>2020-08-07T18:22:30Z</time>
      </trkpt>
      <trkpt lat="41.0455680" lon="0.6447850">
        <ele>31.4</ele>
        <time>2020-08-07T18:22:31Z</time>
      </trkpt>
      <trkpt lat="41.0455890" lon="0.6448430">
        <ele>31.5</ele>
        <time>2020-08-07T18:22:33Z</time>
      </trkpt>
      <trkpt lat="41.0456080" lon="0.6448970">
        <ele>31.6</ele>
        <time>2020-08-07T18:22:34Z</time>
      </trkpt>
      <trkpt lat="41.0456240" lon="0.6449410">
        <ele>31.7</ele>
        <time>2020-08-07T18:22:36Z</time>
      </trkpt>
      <trkpt lat="41.0456540" lon="0.6449950">
        <ele>31.8</ele>
        <time>2020-08-07T18:22:37Z</time>
      </trkpt>
      <trkpt lat="41.0456740" lon="0.6450450">
        <ele>31.9</ele>
        <time>2020-08-07T18:22:39Z</time>
      </trkpt>
      <trkpt lat="41.0456950" lon="0.6451020">
        <ele>32.0</ele>
        <time>2020-08-07T18:22:40Z</time>
      </trkpt>
      <trkpt lat="41.0457150" lon="0.6451600">
        <ele>32.0</ele>
        <time>2020-08-07T18:22:41Z</time>
      </trkpt>
      <trkpt lat="41.0457430" lon="0.6452560">
        <ele>32.2</ele>
        <time>2020-08-07T18:22:42Z</time>
      </trkpt>
      <trkpt lat="41.0457610" lon="0.6453220">
        <ele>32.3</ele>
        <time>2020-08-07T18:22:44Z</time>
      </trkpt>
      <trkpt lat="41.0457770" lon="0.6453710">
        <ele>32.4</ele>
        <time>2020-08-07T18:22:45Z</time>
      </trkpt>
      <trkpt lat="41.0458100" lon="0.6454640">
        <ele>32.5</ele>
        <time>2020-08-07T18:22:47Z</time>
      </trkpt>
      <trkpt lat="41.0458470" lon="0.6455450">
        <ele>32.7</ele>
        <time>2020-08-07T18:22:48Z</time>
      </trkpt>
      <trkpt lat="41.0458530" lon="0.6456050">
        <ele>32.8</ele>
        <time>2020-08-07T18:22:50Z</time>
      </trkpt>
      <trkpt lat="41.0458770" lon="0.6456650">
        <ele>32.9</ele>
        <time>2020-08-07T18:22:51Z</time>
      </trkpt>
      <trkpt lat="41.0459090" lon="0.6457440">
        <ele>33.1</ele>
        <time>2020-08-07T18:22:53Z</time>
      </trkpt>
      <trkpt lat="41.0459280" lon="0.6457850">
        <ele>33.2</ele>
        <time>2020-08-07T18:22:54Z</time>
      </trkpt>
      <trkpt lat="41.0459590" lon="0.6458480">
        <ele>33.3</ele>
        <time>2020-08-07T18:22:56Z</time>
      </trkpt>
      <trkpt lat="41.0459840" lon="0.6459010">
        <ele>33.4</ele>
        <time>2020-08-07T18:22:58Z</time>
      </trkpt>
      <trkpt lat="41.0460110" lon="0.6459850">
        <ele>33.5</ele>
        <time>2020-08-07T18:22:59Z</time>
      </trkpt>
      <trkpt lat="41.0460380" lon="0.6460600">
        <ele>33.5</ele>
        <time>2020-08-07T18:23:01Z</time>
      </trkpt>
      <trkpt lat="41.0460520" lon="0.6461020">
        <ele>33.6</ele>
        <time>2020-08-07T18:23:02Z</time>
      </trkpt>
      <trkpt lat="41.0460700" lon="0.6461510">
        <ele>33.6</ele>
        <time>2020-08-07T18:23:03Z</time>
      </trkpt>
      <trkpt lat="41.0460900" lon="0.6462040">
        <ele>33.7</ele>
        <time>2020-08-07T18:23:05Z</time>
      </trkpt>
      <trkpt lat="41.0461090" lon="0.6462480">
        <ele>33.7</ele>
        <time>2020-08-07T18:23:06Z</time>
      </trkpt>
      <trkpt lat="41.0461150" lon="0.6462620">
        <ele>33.8</ele>
        <time>2020-08-07T18:23:07Z</time>
      </trkpt>
      <trkpt lat="41.0461310" lon="0.6463030">
        <ele>33.8</ele>
        <time>2020-08-07T18:23:08Z</time>
      </trkpt>
      <trkpt lat="41.0461570" lon="0.6463630">
        <ele>33.9</ele>
        <time>2020-08-07T18:23:10Z</time>
      </trkpt>
      <trkpt lat="41.0461790" lon="0.6464150">
        <ele>34.0</ele>
        <time>2020-08-07T18:23:11Z</time>
      </trkpt>
      <trkpt lat="41.0461980" lon="0.6464650">
        <ele>34.1</ele>
        <time>2020-08-07T18:23:13Z</time>
      </trkpt>
      <trkpt lat="41.0462150" lon="0.6465140">
        <ele>34.2</ele>
        <time>2020-08-07T18:23:14Z</time>
      </trkpt>
      <trkpt lat="41.0462340" lon="0.6465700">
        <ele>34.3</ele>
        <time>2020-08-07T18:23:15Z</time>
      </trkpt>
      <trkpt lat="41.0463310" lon="0.6467780">
        <ele>34.8</ele>
        <time>2020-08-07T18:23:16Z</time>
      </trkpt>
      <trkpt lat="41.0463480" lon="0.6467860">
        <ele>34.8</ele>
        <time>2020-08-07T18:23:18Z</time>
      </trkpt>
      <trkpt lat="41.0463800" lon="0.6468760">
        <ele>35.0</ele>
        <time>2020-08-07T18:23:19Z</time>
      </trkpt>
      <trkpt lat="41.0463760" lon="0.6469360">
        <ele>35.1</ele>
        <time>2020-08-07T18:23:21Z</time>
      </trkpt>
      <trkpt lat="41.0463860" lon="0.6470150">
        <ele>35.3</ele>
        <time>2020-08-07T18:23:22Z</time>
      </trkpt>
      <trkpt lat="41.0464120" lon="0.6470900">
        <ele>35.5</ele>
        <time>2020-08-07T18:23:24Z</time>
      </trkpt>
      <trkpt lat="41.0464810" lon="0.6472660">
        <ele>36.0</ele>
        <time>2020-08-07T18:23:26Z</time>
      </trkpt>
      <trkpt lat="41.0465290" lon="0.6473790">
        <ele>36.3</ele>
        <time>2020-08-07T18:23:27Z</time>
      </trkpt>
      <trkpt lat="41.0465560" lon="0.6474460">
        <ele>36.5</ele>
        <time>2020-08-07T18:23:28Z</time>
      </trkpt>
      <trkpt lat="41.0465810" lon="0.6475050">
        <ele>36.7</ele>
        <time>2020-08-07T18:23:30Z</time>
      </trkpt>
      <trkpt lat="41.0466000" lon="0.6475550">
        <ele>36.9</ele>
        <time>2020-08-07T18:23:31Z</time>
      </trkpt>
      <trkpt lat="41.0466190" lon="0.6476160">
        <ele>37.1</ele>
        <time>2020-08-07T18:23:32Z</time>
      </trkpt>
      <trkpt lat="41.0466340" lon="0.6476740">
        <ele>37.3</ele>
        <time>2020-08-07T18:23:33Z</time>
      </trkpt>
      <trkpt lat="41.0466550" lon="0.6477490">
        <ele>37.5</ele>
        <time>2020-08-07T18:23:34Z</time>
      </trkpt>
      <trkpt lat="41.0466740" lon="0.6478150">
        <ele>37.7</ele>
        <time>2020-08-07T18:23:36Z</time>
      </trkpt>
      <trkpt lat="41.0467020" lon="0.6479160">
        <ele>38.0</ele>
        <time>2020-08-07T18:23:37Z</time>
      </trkpt>
      <trkpt lat="41.0467250" lon="0.6479990">
        <ele>38.3</ele>
        <time>2020-08-07T18:23:39Z</time>
      </trkpt>
      <trkpt lat="41.0467410" lon="0.6480750">
        <ele>38.6</ele>
        <time>2020-08-07T18:23:41Z</time>
      </trkpt>
      <trkpt lat="41.0467580" lon="0.6481440">
        <ele>38.9</ele>
        <time>2020-08-07T18:23:42Z</time>
      </trkpt>
      <trkpt lat="41.0467720" lon="0.6482090">
        <ele>39.1</ele>
        <time>2020-08-07T18:23:43Z</time>
      </trkpt>
      <trkpt lat="41.0467800" lon="0.6482560">
        <ele>39.3</ele>
        <time>2020-08-07T18:23:45Z</time>
      </trkpt>
      <trkpt lat="41.0467830" lon="0.6482730">
        <ele>39.3</ele>
        <time>2020-08-07T18:23:46Z</time>
      </trkpt>
      <trkpt lat="41.0467920" lon="0.6483090">
        <ele>39.5</ele>
        <time>2020-08-07T18:23:47Z</time>
      </trkpt>
      <trkpt lat="41.0468020" lon="0.6483530">
        <ele>39.6</ele>
        <time>2020-08-07T18:23:49Z</time>
      </trkpt>
      <trkpt lat="41.0468050" lon="0.6483650">
        <ele>39.6</ele>
        <time>2020-08-07T18:23:50Z</time>
      </trkpt>
      <trkpt lat="41.0468130" lon="0.6484030">
        <ele>39.8</ele>
        <time>2020-08-07T18:23:51Z</time>
      </trkpt>
      <trkpt lat="41.0468200" lon="0.6484310">
        <ele>39.9</ele>
        <time>2020-08-07T18:23:53Z</time>
      </trkpt>
      <trkpt lat="41.0468230" lon="0.6484470">
        <ele>39.9</ele>
        <time>2020-08-07T18:23:54Z</time>
      </trkpt>
      <trkpt lat="41.0468250" lon="0.6484620">
        <ele>40.0</ele>
        <time>2020-08-07T18:23:55Z</time>
      </trkpt>
      <trkpt lat="41.0468320" lon="0.6485020">
        <ele>40.1</ele>
        <time>2020-08-07T18:23:57Z</time>
      </trkpt>
      <trkpt lat="41.0468350" lon="0.6485180">
        <ele>40.1</ele>
        <time>2020-08-07T18:23:58Z</time>
      </trkpt>
      <trkpt lat="41.0468410" lon="0.6485450">
        <ele>40.2</ele>
        <time>2020-08-07T18:23:59Z</time>
      </trkpt>
      <trkpt lat="41.0468460" lon="0.6485780">
        <ele>40.4</ele>
        <time>2020-08-07T18:24:01Z</time>
      </trkpt>
      <trkpt lat="41.0468540" lon="0.6486200">
        <ele>40.5</ele>
        <time>2020-08-07T18:24:03Z</time>
      </trkpt>
      <trkpt lat="41.0468580" lon="0.6486430">
        <ele>40.6</ele>
        <time>2020-08-07T18:24:04Z</time>
      </trkpt>
      <trkpt lat="41.0468620" lon="0.6486650">
        <ele>40.7</ele>
        <time>2020-08-07T18:24:05Z</time>
      </trkpt>
      <trkpt lat="41.0468700" lon="0.6487030">
        <ele>40.8</ele>
        <time>2020-08-07T18:24:06Z</time>
      </trkpt>
      <trkpt lat="41.0468730" lon="0.6487160">
        <ele>40.9</ele>
        <time>2020-08-07T18:24:07Z</time>
      </trkpt>
      <trkpt lat="41.0468820" lon="0.6487550">
        <ele>41.0</ele>
        <time>2020-08-07T18:24:08Z</time>
      </trkpt>
      <trkpt lat="41.0468920" lon="0.6488000">
        <ele>41.2</ele>
        <time>2020-08-07T18:24:10Z</time>
      </trkpt>
      <trkpt lat="41.0469030" lon="0.6488630">
        <ele>41.5</ele>
        <time>2020-08-07T18:24:12Z</time>
      </trkpt>
      <trkpt lat="41.0469100" lon="0.6489090">
        <ele>41.6</ele>
        <time>2020-08-07T18:24:13Z</time>
      </trkpt>
      <trkpt lat="41.0469120" lon="0.6489240">
        <ele>41.7</ele>
        <time>2020-08-07T18:24:14Z</time>
      </trkpt>
      <trkpt lat="41.0469170" lon="0.6489700">
        <ele>41.9</ele>
        <time>2020-08-07T18:24:15Z</time>
      </trkpt>
      <trkpt lat="41.0469240" lon="0.6490100">
        <ele>42.0</ele>
        <time>2020-08-07T18:24:16Z</time>
      </trkpt>
      <trkpt lat="41.0469330" lon="0.6490720">
        <ele>42.2</ele>
        <time>2020-08-07T18:24:18Z</time>
      </trkpt>
      <trkpt lat="41.0469360" lon="0.6490950">
        <ele>42.3</ele>
        <time>2020-08-07T18:24:19Z</time>
      </trkpt>
      <trkpt lat="41.0469400" lon="0.6491180">
        <ele>42.4</ele>
        <time>2020-08-07T18:24:20Z</time>
      </trkpt>
      <trkpt lat="41.0469480" lon="0.6491730">
        <ele>42.6</ele>
        <time>2020-08-07T18:24:21Z</time>
      </trkpt>
      <trkpt lat="41.0469510" lon="0.6491970">
        <ele>42.7</ele>
        <time>2020-08-07T18:24:22Z</time>
      </trkpt>
      <trkpt lat="41.0469570" lon="0.6492390">
        <ele>42.8</ele>
        <time>2020-08-07T18:24:23Z</time>
      </trkpt>
      <trkpt lat="41.0469660" lon="0.6492920">
        <ele>43.0</ele>
        <time>2020-08-07T18:24:25Z</time>
      </trkpt>
      <trkpt lat="41.0469720" lon="0.6493400">
        <ele>43.2</ele>
        <time>2020-08-07T18:24:26Z</time>
      </trkpt>
      <trkpt lat="41.0469790" lon="0.6493870">
        <ele>43.4</ele>
        <time>2020-08-07T18:24:27Z</time>
      </trkpt>
      <trkpt lat="41.0469850" lon="0.6494220">
        <ele>43.5</ele>
        <time>2020-08-07T18:24:28Z</time>
      </trkpt>
      <trkpt lat="41.0469930" lon="0.6494640">
        <ele>43.7</ele>
        <time>2020-08-07T18:24:30Z</time>
      </trkpt>
      <trkpt lat="41.0470400" lon="0.6496510">
        <ele>44.0</ele>
        <time>2020-08-07T18:24:31Z</time>
      </trkpt>
      <trkpt lat="41.0470610" lon="0.6497400">
        <ele>44.3</ele>
        <time>2020-08-07T18:24:33Z</time>
      </trkpt>
      <trkpt lat="41.0471190" lon="0.6499600">
        <ele>45.0</ele>
        <time>2020-08-07T18:24:35Z</time>
      </trkpt>
      <trkpt lat="41.0471600" lon="0.6501200">
        <ele>45.6</ele>
        <time>2020-08-07T18:24:36Z</time>
      </trkpt>
      <trkpt lat="41.0471860" lon="0.6502280">
        <ele>45.9</ele>
        <time>2020-08-07T18:24:37Z</time>
      </trkpt>
      <trkpt lat="41.0472060" lon="0.6503020">
        <ele>46.2</ele>
        <time>2020-08-07T18:24:38Z</time>
      </trkpt>
      <trkpt lat="41.0472210" lon="0.6503620">
        <ele>46.4</ele>
        <time>2020-08-07T18:24:40Z</time>
      </trkpt>
      <trkpt lat="41.0472360" lon="0.6504320">
        <ele>46.6</ele>
        <time>2020-08-07T18:24:41Z</time>
      </trkpt>
      <trkpt lat="41.0472470" lon="0.6504840">
        <ele>46.8</ele>
        <time>2020-08-07T18:24:42Z</time>
      </trkpt>
      <trkpt lat="41.0472570" lon="0.6505370">
        <ele>46.9</ele>
        <time>2020-08-07T18:24:44Z</time>
      </trkpt>
      <trkpt lat="41.0472680" lon="0.6506020">
        <ele>47.1</ele>
        <time>2020-08-07T18:24:45Z</time>
      </trkpt>
      <trkpt lat="41.0472770" lon="0.6506490">
        <ele>47.3</ele>
        <time>2020-08-07T18:24:47Z</time>
      </trkpt>
      <trkpt lat="41.0472850" lon="0.6506840">
        <ele>47.4</ele>
        <time>2020-08-07T18:24:48Z</time>
      </trkpt>
      <trkpt lat="41.0472930" lon="0.6507140">
        <ele>47.5</ele>
        <time>2020-08-07T18:24:49Z</time>
      </trkpt>
      <trkpt lat="41.0473110" lon="0.6507850">
        <ele>47.7</ele>
        <time>2020-08-07T18:24:51Z</time>
      </trkpt>
      <trkpt lat="41.0473250" lon="0.6508310">
        <ele>47.8</ele>
        <time>2020-08-07T18:24:52Z</time>
      </trkpt>
      <trkpt lat="41.0473300" lon="0.6508470">
        <ele>47.9</ele>
        <time>2020-08-07T18:24:53Z</time>
      </trkpt>
      <trkpt lat="41.0473460" lon="0.6508920">
        <ele>48.0</ele>
        <time>2020-08-07T18:24:54Z</time>
      </trkpt>
      <trkpt lat="41.0473510" lon="0.6509070">
        <ele>48.1</ele>
        <time>2020-08-07T18:24:55Z</time>
      </trkpt>
      <trkpt lat="41.0473630" lon="0.6509410">
        <ele>48.2</ele>
        <time>2020-08-07T18:24:56Z</time>
      </trkpt>
      <trkpt lat="41.0473740" lon="0.6509740">
        <ele>48.3</ele>
        <time>2020-08-07T18:24:57Z</time>
      </trkpt>
      <trkpt lat="41.0473870" lon="0.6510080">
        <ele>48.4</ele>
        <time>2020-08-07T18:24:58Z</time>
      </trkpt>
      <trkpt lat="41.0473990" lon="0.6510450">
        <ele>48.5</ele>
        <time>2020-08-07T18:24:59Z</time>
      </trkpt>
      <trkpt lat="41.0474130" lon="0.6510780">
        <ele>48.6</ele>
        <time>2020-08-07T18:25:00Z</time>
      </trkpt>
      <trkpt lat="41.0474320" lon="0.6511400">
        <ele>48.8</ele>
        <time>2020-08-07T18:25:01Z</time>
      </trkpt>
      <trkpt lat="41.0474450" lon="0.6511860">
        <ele>49.0</ele>
        <time>2020-08-07T18:25:02Z</time>
      </trkpt>
      <trkpt lat="41.0474620" lon="0.6512510">
        <ele>49.2</ele>
        <time>2020-08-07T18:25:04Z</time>
      </trkpt>
      <trkpt lat="41.0474820" lon="0.6513480">
        <ele>49.5</ele>
        <time>2020-08-07T18:25:05Z</time>
      </trkpt>
      <trkpt lat="41.0474910" lon="0.6514040">
        <ele>49.7</ele>
        <time>2020-08-07T18:25:07Z</time>
      </trkpt>
      <trkpt lat="41.0474990" lon="0.6514830">
        <ele>49.9</ele>
        <time>2020-08-07T18:25:08Z</time>
      </trkpt>
      <trkpt lat="41.0475010" lon="0.6515320">
        <ele>50.0</ele>
        <time>2020-08-07T18:25:10Z</time>
      </trkpt>
      <trkpt lat="41.0475020" lon="0.6515810">
        <ele>50.2</ele>
        <time>2020-08-07T18:25:11Z</time>
      </trkpt>
      <trkpt lat="41.0475010" lon="0.6515950">
        <ele>50.2</ele>
        <time>2020-08-07T18:25:12Z</time>
      </trkpt>
      <trkpt lat="41.0475000" lon="0.6516510">
        <ele>50.4</ele>
        <time>2020-08-07T18:25:14Z</time>
      </trkpt>
      <trkpt lat="41.0474980" lon="0.6516950">
        <ele>50.5</ele>
        <time>2020-08-07T18:25:15Z</time>
      </trkpt>
      <trkpt lat="41.0474950" lon="0.6517090">
        <ele>50.5</ele>
        <time>2020-08-07T18:25:16Z</time>
      </trkpt>
      <trkpt lat="41.0474900" lon="0.6517550">
        <ele>50.6</ele>
        <time>2020-08-07T18:25:18Z</time>
      </trkpt>
      <trkpt lat="41.0474860" lon="0.6518090">
        <ele>50.7</ele>
        <time>2020-08-07T18:25:20Z</time>
      </trkpt>
      <trkpt lat="41.0474830" lon="0.6518540">
        <ele>50.8</ele>
        <time>2020-08-07T18:25:21Z</time>
      </trkpt>
      <trkpt lat="41.0474820" lon="0.6518680">
        <ele>50.9</ele>
        <time>2020-08-07T18:25:22Z</time>
      </trkpt>
      <trkpt lat="41.0474700" lon="0.6519170">
        <ele>51.0</ele>
        <time>2020-08-07T18:25:24Z</time>
      </trkpt>
      <trkpt lat="41.0474650" lon="0.6519610">
        <ele>51.1</ele>
        <time>2020-08-07T18:25:25Z</time>
      </trkpt>
      <trkpt lat="41.0474630" lon="0.6519770">
        <ele>51.1</ele>
        <time>2020-08-07T18:25:26Z</time>
      </trkpt>
      <trkpt lat="41.0474530" lon="0.6521220">
        <ele>51.2</ele>
        <time>2020-08-07T18:25:28Z</time>
      </trkpt>
      <trkpt lat="41.0474530" lon="0.6522430">
        <ele>51.3</ele>
        <time>2020-08-07T18:25:29Z</time>
      </trkpt>
      <trkpt lat="41.0474600" lon="0.6524460">
        <ele>51.3</ele>
        <time>2020-08-07T18:25:30Z</time>
      </trkpt>
      <trkpt lat="41.0474690" lon="0.6525950">
        <ele>51.2</ele>
        <time>2020-08-07T18:25:31Z</time>
      </trkpt>
      <trkpt lat="41.0474790" lon="0.6526910">
        <ele>51.1</ele>
        <time>2020-08-07T18:25:33Z</time>
      </trkpt>
      <trkpt lat="41.0474800" lon="0.6527560">
        <ele>51.0</ele>
        <time>2020-08-07T18:25:34Z</time>
      </trkpt>
      <trkpt lat="41.0474840" lon="0.6528110">
        <ele>50.9</ele>
        <time>2020-08-07T18:25:35Z</time>
      </trkpt>
      <trkpt lat="41.0474970" lon="0.6530900">
        <ele>50.5</ele>
        <time>2020-08-07T18:25:37Z</time>
      </trkpt>
      <trkpt lat="41.0474900" lon="0.6532060">
        <ele>50.2</ele>
        <time>2020-08-07T18:25:38Z</time>
      </trkpt>
      <trkpt lat="41.0474940" lon="0.6532990">
        <ele>49.9</ele>
        <time>2020-08-07T18:25:40Z</time>
      </trkpt>
      <trkpt lat="41.0474880" lon="0.6534040">
        <ele>49.6</ele>
        <time>2020-08-07T18:25:41Z</time>
      </trkpt>
      <trkpt lat="41.0474760" lon="0.6536030">
        <ele>48.8</ele>
        <time>2020-08-07T18:25:43Z</time>
      </trkpt>
      <trkpt lat="41.0474690" lon="0.6536980">
        <ele>48.5</ele>
        <time>2020-08-07T18:25:44Z</time>
      </trkpt>
      <trkpt lat="41.0474590" lon="0.6538950">
        <ele>47.7</ele>
        <time>2020-08-07T18:25:46Z</time>
      </trkpt>
      <trkpt lat="41.0474550" lon="0.6539950">
        <ele>47.4</ele>
        <time>2020-08-07T18:25:47Z</time>
      </trkpt>
      <trkpt lat="41.0474480" lon="0.6541930">
        <ele>46.6</ele>
        <time>2020-08-07T18:25:49Z</time>
      </trkpt>
      <trkpt lat="41.0474460" lon="0.6542910">
        <ele>46.2</ele>
        <time>2020-08-07T18:25:50Z</time>
      </trkpt>
      <trkpt lat="41.0474450" lon="0.6543900">
        <ele>45.7</ele>
        <time>2020-08-07T18:25:51Z</time>
      </trkpt>
      <trkpt lat="41.0474460" lon="0.6544900">
        <ele>45.3</ele>
        <time>2020-08-07T18:25:52Z</time>
      </trkpt>
      <trkpt lat="41.0474000" lon="0.6550580">
        <ele>43.0</ele>
        <time>2020-08-07T18:25:59Z</time>
      </trkpt>
      <trkpt lat="41.0475320" lon="0.6553510">
        <ele>41.9</ele>
        <time>2020-08-07T18:26:00Z</time>
      </trkpt>
      <trkpt lat="41.0475990" lon="0.6554900">
        <ele>41.4</ele>
        <time>2020-08-07T18:26:02Z</time>
      </trkpt>
      <trkpt lat="41.0476530" lon="0.6556170">
        <ele>41.0</ele>
        <time>2020-08-07T18:26:03Z</time>
      </trkpt>
      <trkpt lat="41.0477010" lon="0.6557350">
        <ele>40.6</ele>
        <time>2020-08-07T18:26:04Z</time>
      </trkpt>
      <trkpt lat="41.0477490" lon="0.6558460">
        <ele>40.2</ele>
        <time>2020-08-07T18:26:05Z</time>
      </trkpt>
      <trkpt lat="41.0478370" lon="0.6560640">
        <ele>39.5</ele>
        <time>2020-08-07T18:26:07Z</time>
      </trkpt>
      <trkpt lat="41.0478850" lon="0.6561710">
        <ele>39.1</ele>
        <time>2020-08-07T18:26:08Z</time>
      </trkpt>
      <trkpt lat="41.0479330" lon="0.6562790">
        <ele>38.8</ele>
        <time>2020-08-07T18:26:09Z</time>
      </trkpt>
      <trkpt lat="41.0480280" lon="0.6564690">
        <ele>38.2</ele>
        <time>2020-08-07T18:26:11Z</time>
      </trkpt>
      <trkpt lat="41.0480770" lon="0.6565580">
        <ele>37.9</ele>
        <time>2020-08-07T18:26:12Z</time>
      </trkpt>
      <trkpt lat="41.0481290" lon="0.6566490">
        <ele>37.5</ele>
        <time>2020-08-07T18:26:13Z</time>
      </trkpt>
      <trkpt lat="41.0482310" lon="0.6568180">
        <ele>36.9</ele>
        <time>2020-08-07T18:26:15Z</time>
      </trkpt>
      <trkpt lat="41.0483300" lon="0.6569750">
        <ele>36.3</ele>
        <time>2020-08-07T18:26:17Z</time>
      </trkpt>
      <trkpt lat="41.0484270" lon="0.6571310">
        <ele>35.8</ele>
        <time>2020-08-07T18:26:19Z</time>
      </trkpt>
      <trkpt lat="41.0484730" lon="0.6572070">
        <ele>35.6</ele>
        <time>2020-08-07T18:26:20Z</time>
      </trkpt>
      <trkpt lat="41.0485650" lon="0.6573530">
        <ele>35.0</ele>
        <time>2020-08-07T18:26:22Z</time>
      </trkpt>
      <trkpt lat="41.0486490" lon="0.6574930">
        <ele>34.4</ele>
        <time>2020-08-07T18:26:24Z</time>
      </trkpt>
      <trkpt lat="41.0486920" lon="0.6575650">
        <ele>34.1</ele>
        <time>2020-08-07T18:26:25Z</time>
      </trkpt>
      <trkpt lat="41.0487340" lon="0.6576310">
        <ele>33.9</ele>
        <time>2020-08-07T18:26:26Z</time>
      </trkpt>
      <trkpt lat="41.0488130" lon="0.6577570">
        <ele>33.4</ele>
        <time>2020-08-07T18:26:28Z</time>
      </trkpt>
      <trkpt lat="41.0488530" lon="0.6578190">
        <ele>33.2</ele>
        <time>2020-08-07T18:26:29Z</time>
      </trkpt>
      <trkpt lat="41.0488950" lon="0.6578840">
        <ele>33.0</ele>
        <time>2020-08-07T18:26:30Z</time>
      </trkpt>
      <trkpt lat="41.0489400" lon="0.6579460">
        <ele>32.7</ele>
        <time>2020-08-07T18:26:31Z</time>
      </trkpt>
      <trkpt lat="41.0490260" lon="0.6580760">
        <ele>32.3</ele>
        <time>2020-08-07T18:26:33Z</time>
      </trkpt>
      <trkpt lat="41.0490710" lon="0.6581450">
        <ele>32.1</ele>
        <time>2020-08-07T18:26:34Z</time>
      </trkpt>
      <trkpt lat="41.0491190" lon="0.6582230">
        <ele>31.9</ele>
        <time>2020-08-07T18:26:35Z</time>
      </trkpt>
      <trkpt lat="41.0491680" lon="0.6583070">
        <ele>31.8</ele>
        <time>2020-08-07T18:26:36Z</time>
      </trkpt>
      <trkpt lat="41.0492550" lon="0.6584130">
        <ele>31.6</ele>
        <time>2020-08-07T18:26:38Z</time>
      </trkpt>
      <trkpt lat="41.0492970" lon="0.6584660">
        <ele>31.6</ele>
        <time>2020-08-07T18:26:39Z</time>
      </trkpt>
      <trkpt lat="41.0493410" lon="0.6585260">
        <ele>31.5</ele>
        <time>2020-08-07T18:26:40Z</time>
      </trkpt>
      <trkpt lat="41.0494330" lon="0.6586290">
        <ele>31.3</ele>
        <time>2020-08-07T18:26:42Z</time>
      </trkpt>
      <trkpt lat="41.0494780" lon="0.6586850">
        <ele>31.3</ele>
        <time>2020-08-07T18:26:43Z</time>
      </trkpt>
      <trkpt lat="41.0495750" lon="0.6587790">
        <ele>31.1</ele>
        <time>2020-08-07T18:26:45Z</time>
      </trkpt>
      <trkpt lat="41.0496250" lon="0.6588220">
        <ele>31.0</ele>
        <time>2020-08-07T18:26:46Z</time>
      </trkpt>
      <trkpt lat="41.0497170" lon="0.6588990">
        <ele>30.9</ele>
        <time>2020-08-07T18:26:48Z</time>
      </trkpt>
      <trkpt lat="41.0497640" lon="0.6589360">
        <ele>30.8</ele>
        <time>2020-08-07T18:26:49Z</time>
      </trkpt>
      <trkpt lat="41.0498130" lon="0.6589750">
        <ele>30.7</ele>
        <time>2020-08-07T18:26:50Z</time>
      </trkpt>
      <trkpt lat="41.0499180" lon="0.6590470">
        <ele>30.6</ele>
        <time>2020-08-07T18:26:52Z</time>
      </trkpt>
      <trkpt lat="41.0499700" lon="0.6590840">
        <ele>30.5</ele>
        <time>2020-08-07T18:26:53Z</time>
      </trkpt>
      <trkpt lat="41.0500220" lon="0.6591200">
        <ele>30.5</ele>
        <time>2020-08-07T18:26:54Z</time>
      </trkpt>
      <trkpt lat="41.0500760" lon="0.6591570">
        <ele>30.5</ele>
        <time>2020-08-07T18:26:55Z</time>
      </trkpt>
      <trkpt lat="41.0501820" lon="0.6592260">
        <ele>30.4</ele>
        <time>2020-08-07T18:26:57Z</time>
      </trkpt>
      <trkpt lat="41.0502310" lon="0.6592570">
        <ele>30.3</ele>
        <time>2020-08-07T18:26:58Z</time>
      </trkpt>
      <trkpt lat="41.0503260" lon="0.6593170">
        <ele>30.2</ele>
        <time>2020-08-07T18:27:00Z</time>
      </trkpt>
      <trkpt lat="41.0504240" lon="0.6593750">
        <ele>30.2</ele>
        <time>2020-08-07T18:27:02Z</time>
      </trkpt>
      <trkpt lat="41.0505180" lon="0.6594290">
        <ele>30.2</ele>
        <time>2020-08-07T18:27:04Z</time>
      </trkpt>
      <trkpt lat="41.0505610" lon="0.6594550">
        <ele>30.3</ele>
        <time>2020-08-07T18:27:05Z</time>
      </trkpt>
      <trkpt lat="41.0506050" lon="0.6594840">
        <ele>30.3</ele>
        <time>2020-08-07T18:27:06Z</time>
      </trkpt>
      <trkpt lat="41.0506510" lon="0.6595130">
        <ele>30.3</ele>
        <time>2020-08-07T18:27:07Z</time>
      </trkpt>
      <trkpt lat="41.0506950" lon="0.6595410">
        <ele>30.3</ele>
        <time>2020-08-07T18:27:08Z</time>
      </trkpt>
      <trkpt lat="41.0507760" lon="0.6595960">
        <ele>30.3</ele>
        <time>2020-08-07T18:27:10Z</time>
      </trkpt>
      <trkpt lat="41.0508180" lon="0.6596240">
        <ele>30.3</ele>
        <time>2020-08-07T18:27:11Z</time>
      </trkpt>
      <trkpt lat="41.0508970" lon="0.6596760">
        <ele>30.2</ele>
        <time>2020-08-07T18:27:13Z</time>
      </trkpt>
      <trkpt lat="41.0509380" lon="0.6597000">
        <ele>30.2</ele>
        <time>2020-08-07T18:27:14Z</time>
      </trkpt>
      <trkpt lat="41.0510190" lon="0.6597510">
        <ele>30.2</ele>
        <time>2020-08-07T18:27:16Z</time>
      </trkpt>
      <trkpt lat="41.0510580" lon="0.6597780">
        <ele>30.2</ele>
        <time>2020-08-07T18:27:17Z</time>
      </trkpt>
      <trkpt lat="41.0511440" lon="0.6598260">
        <ele>30.2</ele>
        <time>2020-08-07T18:27:19Z</time>
      </trkpt>
      <trkpt lat="41.0511850" lon="0.6598500">
        <ele>30.1</ele>
        <time>2020-08-07T18:27:20Z</time>
      </trkpt>
      <trkpt lat="41.0512680" lon="0.6598970">
        <ele>29.9</ele>
        <time>2020-08-07T18:27:22Z</time>
      </trkpt>
      <trkpt lat="41.0513130" lon="0.6599210">
        <ele>29.8</ele>
        <time>2020-08-07T18:27:23Z</time>
      </trkpt>
      <trkpt lat="41.0514060" lon="0.6599620">
        <ele>29.7</ele>
        <time>2020-08-07T18:27:25Z</time>
      </trkpt>
      <trkpt lat="41.0514520" lon="0.6599860">
        <ele>29.6</ele>
        <time>2020-08-07T18:27:26Z</time>
      </trkpt>
      <trkpt lat="41.0515440" lon="0.6600360">
        <ele>29.6</ele>
        <time>2020-08-07T18:27:28Z</time>
      </trkpt>
      <trkpt lat="41.0515890" lon="0.6600600">
        <ele>29.6</ele>
        <time>2020-08-07T18:27:29Z</time>
      </trkpt>
      <trkpt lat="41.0516770" lon="0.6601140">
        <ele>29.5</ele>
        <time>2020-08-07T18:27:31Z</time>
      </trkpt>
      <trkpt lat="41.0517180" lon="0.6601420">
        <ele>29.5</ele>
        <time>2020-08-07T18:27:32Z</time>
      </trkpt>
      <trkpt lat="41.0518060" lon="0.6601940">
        <ele>29.5</ele>
        <time>2020-08-07T18:27:34Z</time>
      </trkpt>
      <trkpt lat="41.0518550" lon="0.6602170">
        <ele>29.5</ele>
        <time>2020-08-07T18:27:35Z</time>
      </trkpt>
      <trkpt lat="41.0519060" lon="0.6602420">
        <ele>29.5</ele>
        <time>2020-08-07T18:27:36Z</time>
      </trkpt>
      <trkpt lat="41.0519990" lon="0.6602900">
        <ele>29.5</ele>
        <time>2020-08-07T18:27:38Z</time>
      </trkpt>
      <trkpt lat="41.0520390" lon="0.6603140">
        <ele>29.5</ele>
        <time>2020-08-07T18:27:39Z</time>
      </trkpt>
      <trkpt lat="41.0521290" lon="0.6603680">
        <ele>29.4</ele>
        <time>2020-08-07T18:27:41Z</time>
      </trkpt>
      <trkpt lat="41.0521770" lon="0.6603970">
        <ele>29.4</ele>
        <time>2020-08-07T18:27:42Z</time>
      </trkpt>
      <trkpt lat="41.0522620" lon="0.6604520">
        <ele>29.5</ele>
        <time>2020-08-07T18:27:44Z</time>
      </trkpt>
      <trkpt lat="41.0523040" lon="0.6604760">
        <ele>29.5</ele>
        <time>2020-08-07T18:27:45Z</time>
      </trkpt>
      <trkpt lat="41.0523500" lon="0.6605030">
        <ele>29.4</ele>
        <time>2020-08-07T18:27:46Z</time>
      </trkpt>
      <trkpt lat="41.0524300" lon="0.6605500">
        <ele>29.4</ele>
        <time>2020-08-07T18:27:48Z</time>
      </trkpt>
      <trkpt lat="41.0524630" lon="0.6605670">
        <ele>29.4</ele>
        <time>2020-08-07T18:27:49Z</time>
      </trkpt>
      <trkpt lat="41.0525000" lon="0.6605920">
        <ele>29.4</ele>
        <time>2020-08-07T18:27:50Z</time>
      </trkpt>
      <trkpt lat="41.0525810" lon="0.6606450">
        <ele>29.3</ele>
        <time>2020-08-07T18:27:52Z</time>
      </trkpt>
      <trkpt lat="41.0526220" lon="0.6606680">
        <ele>29.3</ele>
        <time>2020-08-07T18:27:53Z</time>
      </trkpt>
      <trkpt lat="41.0526580" lon="0.6606890">
        <ele>29.3</ele>
        <time>2020-08-07T18:27:54Z</time>
      </trkpt>
      <trkpt lat="41.0527400" lon="0.6607330">
        <ele>29.3</ele>
        <time>2020-08-07T18:27:56Z</time>
      </trkpt>
      <trkpt lat="41.0527820" lon="0.6607540">
        <ele>29.3</ele>
        <time>2020-08-07T18:27:57Z</time>
      </trkpt>
      <trkpt lat="41.0528230" lon="0.6607760">
        <ele>29.3</ele>
        <time>2020-08-07T18:27:58Z</time>
      </trkpt>
      <trkpt lat="41.0529050" lon="0.6608230">
        <ele>29.3</ele>
        <time>2020-08-07T18:28:00Z</time>
      </trkpt>
      <trkpt lat="41.0529480" lon="0.6608490">
        <ele>29.3</ele>
        <time>2020-08-07T18:28:01Z</time>
      </trkpt>
      <trkpt lat="41.0529910" lon="0.6608750">
        <ele>29.2</ele>
        <time>2020-08-07T18:28:02Z</time>
      </trkpt>
      <trkpt lat="41.0530360" lon="0.6609020">
        <ele>29.2</ele>
        <time>2020-08-07T18:28:03Z</time>
      </trkpt>
      <trkpt lat="41.0530810" lon="0.6609290">
        <ele>29.2</ele>
        <time>2020-08-07T18:28:04Z</time>
      </trkpt>
      <trkpt lat="41.0531650" lon="0.6609860">
        <ele>29.2</ele>
        <time>2020-08-07T18:28:06Z</time>
      </trkpt>
      <trkpt lat="41.0532050" lon="0.6610120">
        <ele>29.1</ele>
        <time>2020-08-07T18:28:07Z</time>
      </trkpt>
      <trkpt lat="41.0532430" lon="0.6610350">
        <ele>29.1</ele>
        <time>2020-08-07T18:28:08Z</time>
      </trkpt>
      <trkpt lat="41.0533240" lon="0.6610810">
        <ele>29.1</ele>
        <time>2020-08-07T18:28:10Z</time>
      </trkpt>
      <trkpt lat="41.0534100" lon="0.6611350">
        <ele>29.1</ele>
        <time>2020-08-07T18:28:12Z</time>
      </trkpt>
      <trkpt lat="41.0534540" lon="0.6611630">
        <ele>29.1</ele>
        <time>2020-08-07T18:28:13Z</time>
      </trkpt>
      <trkpt lat="41.0535410" lon="0.6612130">
        <ele>29.1</ele>
        <time>2020-08-07T18:28:15Z</time>
      </trkpt>
      <trkpt lat="41.0536200" lon="0.6612630">
        <ele>29.1</ele>
        <time>2020-08-07T18:28:17Z</time>
      </trkpt>
      <trkpt lat="41.0536940" lon="0.6613130">
        <ele>29.1</ele>
        <time>2020-08-07T18:28:19Z</time>
      </trkpt>
      <trkpt lat="41.0537260" lon="0.6613350">
        <ele>29.1</ele>
        <time>2020-08-07T18:28:20Z</time>
      </trkpt>
      <trkpt lat="41.0537670" lon="0.6613590">
        <ele>29.1</ele>
        <time>2020-08-07T18:28:21Z</time>
      </trkpt>
      <trkpt lat="41.0538070" lon="0.6613870">
        <ele>29.1</ele>
        <time>2020-08-07T18:28:22Z</time>
      </trkpt>
      <trkpt lat="41.0538490" lon="0.6614140">
        <ele>29.1</ele>
        <time>2020-08-07T18:28:23Z</time>
      </trkpt>
      <trkpt lat="41.0538930" lon="0.6614370">
        <ele>29.1</ele>
        <time>2020-08-07T18:28:24Z</time>
      </trkpt>
      <trkpt lat="41.0539780" lon="0.6614850">
        <ele>29.1</ele>
        <time>2020-08-07T18:28:26Z</time>
      </trkpt>
      <trkpt lat="41.0540150" lon="0.6615100">
        <ele>29.0</ele>
        <time>2020-08-07T18:28:27Z</time>
      </trkpt>
      <trkpt lat="41.0541060" lon="0.6615580">
        <ele>29.0</ele>
        <time>2020-08-07T18:28:29Z</time>
      </trkpt>
      <trkpt lat="41.0541510" lon="0.6615780">
        <ele>29.0</ele>
        <time>2020-08-07T18:28:30Z</time>
      </trkpt>
      <trkpt lat="41.0542350" lon="0.6616190">
        <ele>29.0</ele>
        <time>2020-08-07T18:28:32Z</time>
      </trkpt>
      <trkpt lat="41.0542760" lon="0.6616440">
        <ele>29.0</ele>
        <time>2020-08-07T18:28:33Z</time>
      </trkpt>
      <trkpt lat="41.0543190" lon="0.6616700">
        <ele>29.0</ele>
        <time>2020-08-07T18:28:34Z</time>
      </trkpt>
      <trkpt lat="41.0544030" lon="0.6617200">
        <ele>29.0</ele>
        <time>2020-08-07T18:28:36Z</time>
      </trkpt>
      <trkpt lat="41.0544390" lon="0.6617450">
        <ele>29.1</ele>
        <time>2020-08-07T18:28:37Z</time>
      </trkpt>
      <trkpt lat="41.0544690" lon="0.6617700">
        <ele>29.1</ele>
        <time>2020-08-07T18:28:38Z</time>
      </trkpt>
      <trkpt lat="41.0544970" lon="0.6617920">
        <ele>29.1</ele>
        <time>2020-08-07T18:28:39Z</time>
      </trkpt>
      <trkpt lat="41.0545670" lon="0.6618360">
        <ele>29.0</ele>
        <time>2020-08-07T18:28:41Z</time>
      </trkpt>
      <trkpt lat="41.0546060" lon="0.6618600">
        <ele>29.0</ele>
        <time>2020-08-07T18:28:42Z</time>
      </trkpt>
      <trkpt lat="41.0546470" lon="0.6618850">
        <ele>28.9</ele>
        <time>2020-08-07T18:28:43Z</time>
      </trkpt>
      <trkpt lat="41.0547290" lon="0.6619330">
        <ele>28.9</ele>
        <time>2020-08-07T18:28:45Z</time>
      </trkpt>
      <trkpt lat="41.0548090" lon="0.6619820">
        <ele>28.8</ele>
        <time>2020-08-07T18:28:47Z</time>
      </trkpt>
      <trkpt lat="41.0548480" lon="0.6620060">
        <ele>28.8</ele>
        <time>2020-08-07T18:28:48Z</time>
      </trkpt>
      <trkpt lat="41.0548910" lon="0.6620300">
        <ele>28.8</ele>
        <time>2020-08-07T18:28:49Z</time>
      </trkpt>
      <trkpt lat="41.0549360" lon="0.6620550">
        <ele>28.7</ele>
        <time>2020-08-07T18:28:50Z</time>
      </trkpt>
      <trkpt lat="41.0549820" lon="0.6620760">
        <ele>28.7</ele>
        <time>2020-08-07T18:28:51Z</time>
      </trkpt>
      <trkpt lat="41.0550700" lon="0.6621150">
        <ele>28.6</ele>
        <time>2020-08-07T18:28:53Z</time>
      </trkpt>
      <trkpt lat="41.0551470" lon="0.6621590">
        <ele>28.6</ele>
        <time>2020-08-07T18:28:55Z</time>
      </trkpt>
      <trkpt lat="41.0551850" lon="0.6621820">
        <ele>28.5</ele>
        <time>2020-08-07T18:28:56Z</time>
      </trkpt>
      <trkpt lat="41.0552590" lon="0.6622280">
        <ele>28.5</ele>
        <time>2020-08-07T18:28:58Z</time>
      </trkpt>
      <trkpt lat="41.0552960" lon="0.6622500">
        <ele>28.5</ele>
        <time>2020-08-07T18:28:59Z</time>
      </trkpt>
      <trkpt lat="41.0553290" lon="0.6622720">
        <ele>28.5</ele>
        <time>2020-08-07T18:29:00Z</time>
      </trkpt>
      <trkpt lat="41.0553690" lon="0.6622970">
        <ele>28.5</ele>
        <time>2020-08-07T18:29:01Z</time>
      </trkpt>
      <trkpt lat="41.0554520" lon="0.6623460">
        <ele>28.4</ele>
        <time>2020-08-07T18:29:03Z</time>
      </trkpt>
      <trkpt lat="41.0554880" lon="0.6623660">
        <ele>28.4</ele>
        <time>2020-08-07T18:29:04Z</time>
      </trkpt>
      <trkpt lat="41.0555270" lon="0.6623890">
        <ele>28.4</ele>
        <time>2020-08-07T18:29:05Z</time>
      </trkpt>
      <trkpt lat="41.0556100" lon="0.6624390">
        <ele>28.3</ele>
        <time>2020-08-07T18:29:07Z</time>
      </trkpt>
      <trkpt lat="41.0556530" lon="0.6624650">
        <ele>28.2</ele>
        <time>2020-08-07T18:29:08Z</time>
      </trkpt>
      <trkpt lat="41.0557360" lon="0.6625130">
        <ele>28.1</ele>
        <time>2020-08-07T18:29:10Z</time>
      </trkpt>
      <trkpt lat="41.0557750" lon="0.6625360">
        <ele>28.1</ele>
        <time>2020-08-07T18:29:11Z</time>
      </trkpt>
      <trkpt lat="41.0558150" lon="0.6625630">
        <ele>28.0</ele>
        <time>2020-08-07T18:29:12Z</time>
      </trkpt>
      <trkpt lat="41.0558870" lon="0.6626160">
        <ele>27.9</ele>
        <time>2020-08-07T18:29:14Z</time>
      </trkpt>
      <trkpt lat="41.0559270" lon="0.6626420">
        <ele>27.9</ele>
        <time>2020-08-07T18:29:15Z</time>
      </trkpt>
      <trkpt lat="41.0560040" lon="0.6626900">
        <ele>27.8</ele>
        <time>2020-08-07T18:29:17Z</time>
      </trkpt>
      <trkpt lat="41.0560460" lon="0.6627160">
        <ele>27.8</ele>
        <time>2020-08-07T18:29:18Z</time>
      </trkpt>
      <trkpt lat="41.0560890" lon="0.6627390">
        <ele>27.8</ele>
        <time>2020-08-07T18:29:19Z</time>
      </trkpt>
      <trkpt lat="41.0561680" lon="0.6627800">
        <ele>27.8</ele>
        <time>2020-08-07T18:29:21Z</time>
      </trkpt>
      <trkpt lat="41.0562060" lon="0.6627990">
        <ele>27.8</ele>
        <time>2020-08-07T18:29:22Z</time>
      </trkpt>
      <trkpt lat="41.0562820" lon="0.6628390">
        <ele>27.8</ele>
        <time>2020-08-07T18:29:24Z</time>
      </trkpt>
      <trkpt lat="41.0563630" lon="0.6628800">
        <ele>27.7</ele>
        <time>2020-08-07T18:29:26Z</time>
      </trkpt>
      <trkpt lat="41.0564030" lon="0.6628990">
        <ele>27.7</ele>
        <time>2020-08-07T18:29:27Z</time>
      </trkpt>
      <trkpt lat="41.0564840" lon="0.6629370">
        <ele>27.6</ele>
        <time>2020-08-07T18:29:29Z</time>
      </trkpt>
      <trkpt lat="41.0565630" lon="0.6629720">
        <ele>27.5</ele>
        <time>2020-08-07T18:29:31Z</time>
      </trkpt>
      <trkpt lat="41.0566080" lon="0.6629930">
        <ele>27.5</ele>
        <time>2020-08-07T18:29:32Z</time>
      </trkpt>
      <trkpt lat="41.0567020" lon="0.6630390">
        <ele>27.4</ele>
        <time>2020-08-07T18:29:34Z</time>
      </trkpt>
      <trkpt lat="41.0567450" lon="0.6630660">
        <ele>27.4</ele>
        <time>2020-08-07T18:29:35Z</time>
      </trkpt>
      <trkpt lat="41.0568300" lon="0.6631090">
        <ele>27.5</ele>
        <time>2020-08-07T18:29:37Z</time>
      </trkpt>
      <trkpt lat="41.0568620" lon="0.6631180">
        <ele>27.5</ele>
        <time>2020-08-07T18:29:38Z</time>
      </trkpt>
      <trkpt lat="41.0569380" lon="0.6631300">
        <ele>27.5</ele>
        <time>2020-08-07T18:29:40Z</time>
      </trkpt>
      <trkpt lat="41.0569850" lon="0.6631360">
        <ele>27.6</ele>
        <time>2020-08-07T18:29:41Z</time>
      </trkpt>
      <trkpt lat="41.0570720" lon="0.6631380">
        <ele>27.6</ele>
        <time>2020-08-07T18:29:43Z</time>
      </trkpt>
      <trkpt lat="41.0571160" lon="0.6631350">
        <ele>27.7</ele>
        <time>2020-08-07T18:29:44Z</time>
      </trkpt>
      <trkpt lat="41.0571940" lon="0.6631270">
        <ele>27.8</ele>
        <time>2020-08-07T18:29:46Z</time>
      </trkpt>
      <trkpt lat="41.0572370" lon="0.6631260">
        <ele>27.8</ele>
        <time>2020-08-07T18:29:47Z</time>
      </trkpt>
      <trkpt lat="41.0572770" lon="0.6631210">
        <ele>27.9</ele>
        <time>2020-08-07T18:29:48Z</time>
      </trkpt>
      <trkpt lat="41.0573170" lon="0.6631130">
        <ele>27.9</ele>
        <time>2020-08-07T18:29:49Z</time>
      </trkpt>
      <trkpt lat="41.0573910" lon="0.6630880">
        <ele>28.0</ele>
        <time>2020-08-07T18:29:51Z</time>
      </trkpt>
      <trkpt lat="41.0574710" lon="0.6630680">
        <ele>28.1</ele>
        <time>2020-08-07T18:29:53Z</time>
      </trkpt>
      <trkpt lat="41.0575490" lon="0.6630570">
        <ele>28.2</ele>
        <time>2020-08-07T18:29:55Z</time>
      </trkpt>
      <trkpt lat="41.0575910" lon="0.6630530">
        <ele>28.4</ele>
        <time>2020-08-07T18:29:56Z</time>
      </trkpt>
      <trkpt lat="41.0576720" lon="0.6630450">
        <ele>28.4</ele>
        <time>2020-08-07T18:29:58Z</time>
      </trkpt>
      <trkpt lat="41.0577520" lon="0.6630340">
        <ele>28.3</ele>
        <time>2020-08-07T18:30:00Z</time>
      </trkpt>
      <trkpt lat="41.0578280" lon="0.6630300">
        <ele>28.3</ele>
        <time>2020-08-07T18:30:02Z</time>
      </trkpt>
      <trkpt lat="41.0578650" lon="0.6630230">
        <ele>28.3</ele>
        <time>2020-08-07T18:30:03Z</time>
      </trkpt>
      <trkpt lat="41.0579380" lon="0.6630060">
        <ele>28.3</ele>
        <time>2020-08-07T18:30:05Z</time>
      </trkpt>
      <trkpt lat="41.0579750" lon="0.6629960">
        <ele>28.2</ele>
        <time>2020-08-07T18:30:06Z</time>
      </trkpt>
      <trkpt lat="41.0580410" lon="0.6629720">
        <ele>28.2</ele>
        <time>2020-08-07T18:30:08Z</time>
      </trkpt>
      <trkpt lat="41.0580750" lon="0.6629550">
        <ele>28.2</ele>
        <time>2020-08-07T18:30:09Z</time>
      </trkpt>
      <trkpt lat="41.0581080" lon="0.6629390">
        <ele>28.1</ele>
        <time>2020-08-07T18:30:10Z</time>
      </trkpt>
      <trkpt lat="41.0581810" lon="0.6628990">
        <ele>28.1</ele>
        <time>2020-08-07T18:30:12Z</time>
      </trkpt>
      <trkpt lat="41.0582230" lon="0.6628740">
        <ele>28.1</ele>
        <time>2020-08-07T18:30:13Z</time>
      </trkpt>
      <trkpt lat="41.0582940" lon="0.6628310">
        <ele>28.2</ele>
        <time>2020-08-07T18:30:15Z</time>
      </trkpt>
      <trkpt lat="41.0583660" lon="0.6627880">
        <ele>28.2</ele>
        <time>2020-08-07T18:30:17Z</time>
      </trkpt>
      <trkpt lat="41.0584070" lon="0.6627640">
        <ele>28.3</ele>
        <time>2020-08-07T18:30:18Z</time>
      </trkpt>
      <trkpt lat="41.0584440" lon="0.6627420">
        <ele>28.3</ele>
        <time>2020-08-07T18:30:19Z</time>
      </trkpt>
      <trkpt lat="41.0585230" lon="0.6626880">
        <ele>28.4</ele>
        <time>2020-08-07T18:30:21Z</time>
      </trkpt>
      <trkpt lat="41.0585510" lon="0.6626680">
        <ele>28.4</ele>
        <time>2020-08-07T18:30:22Z</time>
      </trkpt>
      <trkpt lat="41.0585900" lon="0.6626390">
        <ele>28.4</ele>
        <time>2020-08-07T18:30:23Z</time>
      </trkpt>
      <trkpt lat="41.0586620" lon="0.6625960">
        <ele>28.4</ele>
        <time>2020-08-07T18:30:25Z</time>
      </trkpt>
      <trkpt lat="41.0587370" lon="0.6625530">
        <ele>28.5</ele>
        <time>2020-08-07T18:30:27Z</time>
      </trkpt>
      <trkpt lat="41.0587710" lon="0.6625320">
        <ele>28.5</ele>
        <time>2020-08-07T18:30:28Z</time>
      </trkpt>
      <trkpt lat="41.0588480" lon="0.6624800">
        <ele>28.6</ele>
        <time>2020-08-07T18:30:30Z</time>
      </trkpt>
      <trkpt lat="41.0588810" lon="0.6624580">
        <ele>28.6</ele>
        <time>2020-08-07T18:30:31Z</time>
      </trkpt>
      <trkpt lat="41.0589150" lon="0.6624330">
        <ele>28.7</ele>
        <time>2020-08-07T18:30:32Z</time>
      </trkpt>
      <trkpt lat="41.0589520" lon="0.6624070">
        <ele>28.7</ele>
        <time>2020-08-07T18:30:33Z</time>
      </trkpt>
      <trkpt lat="41.0589890" lon="0.6623840">
        <ele>28.8</ele>
        <time>2020-08-07T18:30:34Z</time>
      </trkpt>
      <trkpt lat="41.0590230" lon="0.6623650">
        <ele>28.8</ele>
        <time>2020-08-07T18:30:35Z</time>
      </trkpt>
      <trkpt lat="41.0591000" lon="0.6623130">
        <ele>28.9</ele>
        <time>2020-08-07T18:30:37Z</time>
      </trkpt>
      <trkpt lat="41.0591390" lon="0.6622860">
        <ele>29.0</ele>
        <time>2020-08-07T18:30:38Z</time>
      </trkpt>
      <trkpt lat="41.0591750" lon="0.6622640">
        <ele>29.1</ele>
        <time>2020-08-07T18:30:39Z</time>
      </trkpt>
      <trkpt lat="41.0592140" lon="0.6622400">
        <ele>29.1</ele>
        <time>2020-08-07T18:30:40Z</time>
      </trkpt>
      <trkpt lat="41.0592840" lon="0.6621980">
        <ele>29.3</ele>
        <time>2020-08-07T18:30:42Z</time>
      </trkpt>
      <trkpt lat="41.0593230" lon="0.6621750">
        <ele>29.3</ele>
        <time>2020-08-07T18:30:43Z</time>
      </trkpt>
      <trkpt lat="41.0593970" lon="0.6621360">
        <ele>29.5</ele>
        <time>2020-08-07T18:30:45Z</time>
      </trkpt>
      <trkpt lat="41.0594330" lon="0.6621170">
        <ele>29.5</ele>
        <time>2020-08-07T18:30:46Z</time>
      </trkpt>
      <trkpt lat="41.0594690" lon="0.6620990">
        <ele>29.6</ele>
        <time>2020-08-07T18:30:47Z</time>
      </trkpt>
      <trkpt lat="41.0595030" lon="0.6620830">
        <ele>29.6</ele>
        <time>2020-08-07T18:30:48Z</time>
      </trkpt>
      <trkpt lat="41.0595780" lon="0.6620510">
        <ele>29.7</ele>
        <time>2020-08-07T18:30:50Z</time>
      </trkpt>
      <trkpt lat="41.0596090" lon="0.6620400">
        <ele>29.8</ele>
        <time>2020-08-07T18:30:51Z</time>
      </trkpt>
      <trkpt lat="41.0596550" lon="0.6620230">
        <ele>29.9</ele>
        <time>2020-08-07T18:30:52Z</time>
      </trkpt>
      <trkpt lat="41.0597360" lon="0.6619980">
        <ele>30.0</ele>
        <time>2020-08-07T18:30:54Z</time>
      </trkpt>
      <trkpt lat="41.0598130" lon="0.6619790">
        <ele>30.1</ele>
        <time>2020-08-07T18:30:56Z</time>
      </trkpt>
      <trkpt lat="41.0598540" lon="0.6619710">
        <ele>30.1</ele>
        <time>2020-08-07T18:30:57Z</time>
      </trkpt>
      <trkpt lat="41.0599390" lon="0.6619570">
        <ele>30.2</ele>
        <time>2020-08-07T18:30:59Z</time>
      </trkpt>
      <trkpt lat="41.0599790" lon="0.6619510">
        <ele>30.3</ele>
        <time>2020-08-07T18:31:00Z</time>
      </trkpt>
      <trkpt lat="41.0600510" lon="0.6619460">
        <ele>30.4</ele>
        <time>2020-08-07T18:31:02Z</time>
      </trkpt>
      <trkpt lat="41.0601330" lon="0.6619420">
        <ele>30.5</ele>
        <time>2020-08-07T18:31:04Z</time>
      </trkpt>
      <trkpt lat="41.0601650" lon="0.6619420">
        <ele>30.5</ele>
        <time>2020-08-07T18:31:05Z</time>
      </trkpt>
      <trkpt lat="41.0602430" lon="0.6619440">
        <ele>30.6</ele>
        <time>2020-08-07T18:31:07Z</time>
      </trkpt>
      <trkpt lat="41.0602810" lon="0.6619490">
        <ele>30.7</ele>
        <time>2020-08-07T18:31:08Z</time>
      </trkpt>
      <trkpt lat="41.0603460" lon="0.6619620">
        <ele>30.7</ele>
        <time>2020-08-07T18:31:10Z</time>
      </trkpt>
      <trkpt lat="41.0603810" lon="0.6619690">
        <ele>30.7</ele>
        <time>2020-08-07T18:31:11Z</time>
      </trkpt>
      <trkpt lat="41.0604230" lon="0.6619760">
        <ele>30.8</ele>
        <time>2020-08-07T18:31:12Z</time>
      </trkpt>
      <trkpt lat="41.0604980" lon="0.6619880">
        <ele>30.8</ele>
        <time>2020-08-07T18:31:14Z</time>
      </trkpt>
      <trkpt lat="41.0605700" lon="0.6620030">
        <ele>30.9</ele>
        <time>2020-08-07T18:31:16Z</time>
      </trkpt>
      <trkpt lat="41.0606100" lon="0.6620100">
        <ele>30.9</ele>
        <time>2020-08-07T18:31:17Z</time>
      </trkpt>
      <trkpt lat="41.0606470" lon="0.6620160">
        <ele>30.9</ele>
        <time>2020-08-07T18:31:18Z</time>
      </trkpt>
      <trkpt lat="41.0607270" lon="0.6620290">
        <ele>31.0</ele>
        <time>2020-08-07T18:31:20Z</time>
      </trkpt>
      <trkpt lat="41.0607620" lon="0.6620360">
        <ele>31.0</ele>
        <time>2020-08-07T18:31:21Z</time>
      </trkpt>
      <trkpt lat="41.0608450" lon="0.6620560">
        <ele>31.0</ele>
        <time>2020-08-07T18:31:23Z</time>
      </trkpt>
      <trkpt lat="41.0608860" lon="0.6620690">
        <ele>31.0</ele>
        <time>2020-08-07T18:31:24Z</time>
      </trkpt>
      <trkpt lat="41.0609270" lon="0.6620820">
        <ele>31.1</ele>
        <time>2020-08-07T18:31:25Z</time>
      </trkpt>
      <trkpt lat="41.0609650" lon="0.6620940">
        <ele>31.1</ele>
        <time>2020-08-07T18:31:26Z</time>
      </trkpt>
      <trkpt lat="41.0610460" lon="0.6621140">
        <ele>31.2</ele>
        <time>2020-08-07T18:31:28Z</time>
      </trkpt>
      <trkpt lat="41.0611210" lon="0.6621290">
        <ele>31.3</ele>
        <time>2020-08-07T18:31:30Z</time>
      </trkpt>
      <trkpt lat="41.0611570" lon="0.6621370">
        <ele>31.3</ele>
        <time>2020-08-07T18:31:31Z</time>
      </trkpt>
      <trkpt lat="41.0612290" lon="0.6621530">
        <ele>31.4</ele>
        <time>2020-08-07T18:31:33Z</time>
      </trkpt>
      <trkpt lat="41.0612660" lon="0.6621610">
        <ele>31.4</ele>
        <time>2020-08-07T18:31:34Z</time>
      </trkpt>
      <trkpt lat="41.0613050" lon="0.6621710">
        <ele>31.5</ele>
        <time>2020-08-07T18:31:35Z</time>
      </trkpt>
      <trkpt lat="41.0613800" lon="0.6621900">
        <ele>31.6</ele>
        <time>2020-08-07T18:31:37Z</time>
      </trkpt>
      <trkpt lat="41.0614180" lon="0.6622000">
        <ele>31.6</ele>
        <time>2020-08-07T18:31:38Z</time>
      </trkpt>
      <trkpt lat="41.0614570" lon="0.6622090">
        <ele>31.7</ele>
        <time>2020-08-07T18:31:39Z</time>
      </trkpt>
      <trkpt lat="41.0615350" lon="0.6622300">
        <ele>31.7</ele>
        <time>2020-08-07T18:31:41Z</time>
      </trkpt>
      <trkpt lat="41.0615760" lon="0.6622410">
        <ele>31.7</ele>
        <time>2020-08-07T18:31:42Z</time>
      </trkpt>
      <trkpt lat="41.0616160" lon="0.6622500">
        <ele>31.7</ele>
        <time>2020-08-07T18:31:43Z</time>
      </trkpt>
      <trkpt lat="41.0616980" lon="0.6622680">
        <ele>31.8</ele>
        <time>2020-08-07T18:31:45Z</time>
      </trkpt>
      <trkpt lat="41.0617840" lon="0.6622900">
        <ele>31.8</ele>
        <time>2020-08-07T18:31:47Z</time>
      </trkpt>
      <trkpt lat="41.0618280" lon="0.6623020">
        <ele>31.8</ele>
        <time>2020-08-07T18:31:48Z</time>
      </trkpt>
      <trkpt lat="41.0618710" lon="0.6623160">
        <ele>31.8</ele>
        <time>2020-08-07T18:31:49Z</time>
      </trkpt>
      <trkpt lat="41.0619110" lon="0.6623290">
        <ele>31.7</ele>
        <time>2020-08-07T18:31:50Z</time>
      </trkpt>
      <trkpt lat="41.0619520" lon="0.6623440">
        <ele>31.7</ele>
        <time>2020-08-07T18:31:51Z</time>
      </trkpt>
      <trkpt lat="41.0619900" lon="0.6623600">
        <ele>31.7</ele>
        <time>2020-08-07T18:31:52Z</time>
      </trkpt>
      <trkpt lat="41.0620280" lon="0.6623760">
        <ele>31.7</ele>
        <time>2020-08-07T18:31:53Z</time>
      </trkpt>
      <trkpt lat="41.0621070" lon="0.6624080">
        <ele>31.6</ele>
        <time>2020-08-07T18:31:55Z</time>
      </trkpt>
      <trkpt lat="41.0621470" lon="0.6624260">
        <ele>31.6</ele>
        <time>2020-08-07T18:31:56Z</time>
      </trkpt>
      <trkpt lat="41.0621840" lon="0.6624430">
        <ele>31.6</ele>
        <time>2020-08-07T18:31:57Z</time>
      </trkpt>
      <trkpt lat="41.0622230" lon="0.6624980">
        <ele>31.5</ele>
        <time>2020-08-07T18:31:59Z</time>
      </trkpt>
      <trkpt lat="41.0622220" lon="0.6625220">
        <ele>31.5</ele>
        <time>2020-08-07T18:32:00Z</time>
      </trkpt>
      <trkpt lat="41.0622270" lon="0.6625340">
        <ele>31.5</ele>
        <time>2020-08-07T18:32:01Z</time>
      </trkpt>
      <trkpt lat="41.0622330" lon="0.6625470">
        <ele>31.5</ele>
        <time>2020-08-07T18:32:02Z</time>
      </trkpt>
      <trkpt lat="41.0622740" lon="0.6625610">
        <ele>31.5</ele>
        <time>2020-08-07T18:32:04Z</time>
      </trkpt>
      <trkpt lat="41.0622870" lon="0.6625620">
        <ele>31.5</ele>
        <time>2020-08-07T18:32:05Z</time>
      </trkpt>
      <trkpt lat="41.0623000" lon="0.6625630">
        <ele>31.5</ele>
        <time>2020-08-07T18:32:06Z</time>
      </trkpt>
      <trkpt lat="41.0623110" lon="0.6625460">
        <ele>31.5</ele>
        <time>2020-08-07T18:32:07Z</time>
      </trkpt>
      <trkpt lat="41.0623300" lon="0.6625470">
        <ele>31.5</ele>
        <time>2020-08-07T18:32:08Z</time>
      </trkpt>
      <trkpt lat="41.0624130" lon="0.6625320">
        <ele>31.4</ele>
        <time>2020-08-07T18:32:10Z</time>
      </trkpt>
      <trkpt lat="41.0624680" lon="0.6625470">
        <ele>31.3</ele>
        <time>2020-08-07T18:32:11Z</time>
      </trkpt>
      <trkpt lat="41.0626600" lon="0.6626480">
        <ele>31.1</ele>
        <time>2020-08-07T18:32:13Z</time>
      </trkpt>
      <trkpt lat="41.0628100" lon="0.6627290">
        <ele>31.0</ele>
        <time>2020-08-07T18:32:15Z</time>
      </trkpt>
      <trkpt lat="41.0628760" lon="0.6627660">
        <ele>30.9</ele>
        <time>2020-08-07T18:32:16Z</time>
      </trkpt>
      <trkpt lat="41.0629370" lon="0.6628000">
        <ele>30.8</ele>
        <time>2020-08-07T18:32:17Z</time>
      </trkpt>
      <trkpt lat="41.0630490" lon="0.6628700">
        <ele>30.7</ele>
        <time>2020-08-07T18:32:19Z</time>
      </trkpt>
      <trkpt lat="41.0631010" lon="0.6629050">
        <ele>30.5</ele>
        <time>2020-08-07T18:32:20Z</time>
      </trkpt>
      <trkpt lat="41.0631500" lon="0.6629400">
        <ele>30.4</ele>
        <time>2020-08-07T18:32:21Z</time>
      </trkpt>
      <trkpt lat="41.0631980" lon="0.6629720">
        <ele>30.4</ele>
        <time>2020-08-07T18:32:22Z</time>
      </trkpt>
      <trkpt lat="41.0632900" lon="0.6630380">
        <ele>30.2</ele>
        <time>2020-08-07T18:32:24Z</time>
      </trkpt>
      <trkpt lat="41.0633370" lon="0.6630720">
        <ele>30.1</ele>
        <time>2020-08-07T18:32:25Z</time>
      </trkpt>
      <trkpt lat="41.0634280" lon="0.6631380">
        <ele>29.9</ele>
        <time>2020-08-07T18:32:27Z</time>
      </trkpt>
      <trkpt lat="41.0634730" lon="0.6631690">
        <ele>29.7</ele>
        <time>2020-08-07T18:32:28Z</time>
      </trkpt>
      <trkpt lat="41.0635630" lon="0.6632370">
        <ele>29.5</ele>
        <time>2020-08-07T18:32:30Z</time>
      </trkpt>
      <trkpt lat="41.0636470" lon="0.6633170">
        <ele>29.3</ele>
        <time>2020-08-07T18:32:32Z</time>
      </trkpt>
      <trkpt lat="41.0636900" lon="0.6633560">
        <ele>29.1</ele>
        <time>2020-08-07T18:32:33Z</time>
      </trkpt>
      <trkpt lat="41.0637810" lon="0.6634340">
        <ele>28.8</ele>
        <time>2020-08-07T18:32:35Z</time>
      </trkpt>
      <trkpt lat="41.0638260" lon="0.6634700">
        <ele>28.7</ele>
        <time>2020-08-07T18:32:36Z</time>
      </trkpt>
      <trkpt lat="41.0638720" lon="0.6635090">
        <ele>28.6</ele>
        <time>2020-08-07T18:32:37Z</time>
      </trkpt>
      <trkpt lat="41.0639630" lon="0.6635770">
        <ele>28.3</ele>
        <time>2020-08-07T18:32:39Z</time>
      </trkpt>
      <trkpt lat="41.0640090" lon="0.6636090">
        <ele>28.2</ele>
        <time>2020-08-07T18:32:40Z</time>
      </trkpt>
      <trkpt lat="41.0640570" lon="0.6636390">
        <ele>28.1</ele>
        <time>2020-08-07T18:32:41Z</time>
      </trkpt>
      <trkpt lat="41.0641040" lon="0.6636660">
        <ele>28.0</ele>
        <time>2020-08-07T18:32:42Z</time>
      </trkpt>
      <trkpt lat="41.0641520" lon="0.6636910">
        <ele>27.9</ele>
        <time>2020-08-07T18:32:43Z</time>
      </trkpt>
      <trkpt lat="41.0642000" lon="0.6637150">
        <ele>27.7</ele>
        <time>2020-08-07T18:32:44Z</time>
      </trkpt>
      <trkpt lat="41.0642940" lon="0.6637590">
        <ele>27.5</ele>
        <time>2020-08-07T18:32:46Z</time>
      </trkpt>
      <trkpt lat="41.0643410" lon="0.6637790">
        <ele>27.4</ele>
        <time>2020-08-07T18:32:47Z</time>
      </trkpt>
      <trkpt lat="41.0644310" lon="0.6638220">
        <ele>27.2</ele>
        <time>2020-08-07T18:32:49Z</time>
      </trkpt>
      <trkpt lat="41.0644790" lon="0.6638400">
        <ele>27.1</ele>
        <time>2020-08-07T18:32:50Z</time>
      </trkpt>
      <trkpt lat="41.0645270" lon="0.6638560">
        <ele>27.0</ele>
        <time>2020-08-07T18:32:51Z</time>
      </trkpt>
      <trkpt lat="41.0646230" lon="0.6638860">
        <ele>26.8</ele>
        <time>2020-08-07T18:32:53Z</time>
      </trkpt>
      <trkpt lat="41.0646700" lon="0.6638980">
        <ele>26.8</ele>
        <time>2020-08-07T18:32:54Z</time>
      </trkpt>
      <trkpt lat="41.0647190" lon="0.6639070">
        <ele>26.7</ele>
        <time>2020-08-07T18:32:55Z</time>
      </trkpt>
      <trkpt lat="41.0647680" lon="0.6639170">
        <ele>26.6</ele>
        <time>2020-08-07T18:32:56Z</time>
      </trkpt>
      <trkpt lat="41.0648670" lon="0.6639310">
        <ele>26.6</ele>
        <time>2020-08-07T18:32:58Z</time>
      </trkpt>
      <trkpt lat="41.0649170" lon="0.6639350">
        <ele>26.7</ele>
        <time>2020-08-07T18:32:59Z</time>
      </trkpt>
      <trkpt lat="41.0649670" lon="0.6639380">
        <ele>26.7</ele>
        <time>2020-08-07T18:33:00Z</time>
      </trkpt>
      <trkpt lat="41.0650660" lon="0.6639390">
        <ele>26.8</ele>
        <time>2020-08-07T18:33:02Z</time>
      </trkpt>
      <trkpt lat="41.0651150" lon="0.6639390">
        <ele>26.9</ele>
        <time>2020-08-07T18:33:03Z</time>
      </trkpt>
      <trkpt lat="41.0651640" lon="0.6639370">
        <ele>26.9</ele>
        <time>2020-08-07T18:33:04Z</time>
      </trkpt>
      <trkpt lat="41.0652130" lon="0.6639340">
        <ele>26.9</ele>
        <time>2020-08-07T18:33:05Z</time>
      </trkpt>
      <trkpt lat="41.0653080" lon="0.6639230">
        <ele>26.9</ele>
        <time>2020-08-07T18:33:07Z</time>
      </trkpt>
      <trkpt lat="41.0653560" lon="0.6639170">
        <ele>26.9</ele>
        <time>2020-08-07T18:33:08Z</time>
      </trkpt>
      <trkpt lat="41.0654030" lon="0.6639080">
        <ele>26.9</ele>
        <time>2020-08-07T18:33:09Z</time>
      </trkpt>
      <trkpt lat="41.0654500" lon="0.6638990">
        <ele>26.9</ele>
        <time>2020-08-07T18:33:10Z</time>
      </trkpt>
      <trkpt lat="41.0654970" lon="0.6638880">
        <ele>26.9</ele>
        <time>2020-08-07T18:33:11Z</time>
      </trkpt>
      <trkpt lat="41.0655440" lon="0.6638770">
        <ele>26.8</ele>
        <time>2020-08-07T18:33:12Z</time>
      </trkpt>
      <trkpt lat="41.0655910" lon="0.6638650">
        <ele>26.7</ele>
        <time>2020-08-07T18:33:13Z</time>
      </trkpt>
      <trkpt lat="41.0656860" lon="0.6638380">
        <ele>26.7</ele>
        <time>2020-08-07T18:33:15Z</time>
      </trkpt>
      <trkpt lat="41.0657780" lon="0.6638060">
        <ele>26.7</ele>
        <time>2020-08-07T18:33:17Z</time>
      </trkpt>
      <trkpt lat="41.0658240" lon="0.6637860">
        <ele>26.7</ele>
        <time>2020-08-07T18:33:18Z</time>
      </trkpt>
      <trkpt lat="41.0658680" lon="0.6637710">
        <ele>26.7</ele>
        <time>2020-08-07T18:33:19Z</time>
      </trkpt>
      <trkpt lat="41.0659130" lon="0.6637550">
        <ele>26.7</ele>
        <time>2020-08-07T18:33:20Z</time>
      </trkpt>
      <trkpt lat="41.0659570" lon="0.6637420">
        <ele>26.7</ele>
        <time>2020-08-07T18:33:21Z</time>
      </trkpt>
      <trkpt lat="41.0660010" lon="0.6637280">
        <ele>26.7</ele>
        <time>2020-08-07T18:33:22Z</time>
      </trkpt>
      <trkpt lat="41.0660450" lon="0.6637100">
        <ele>26.8</ele>
        <time>2020-08-07T18:33:23Z</time>
      </trkpt>
      <trkpt lat="41.0661290" lon="0.6636750">
        <ele>26.8</ele>
        <time>2020-08-07T18:33:25Z</time>
      </trkpt>
      <trkpt lat="41.0661740" lon="0.6636590">
        <ele>26.9</ele>
        <time>2020-08-07T18:33:26Z</time>
      </trkpt>
      <trkpt lat="41.0662170" lon="0.6636460">
        <ele>27.0</ele>
        <time>2020-08-07T18:33:27Z</time>
      </trkpt>
      <trkpt lat="41.0662610" lon="0.6636300">
        <ele>27.0</ele>
        <time>2020-08-07T18:33:28Z</time>
      </trkpt>
      <trkpt lat="41.0663060" lon="0.6636160">
        <ele>27.1</ele>
        <time>2020-08-07T18:33:29Z</time>
      </trkpt>
      <trkpt lat="41.0663870" lon="0.6635690">
        <ele>27.1</ele>
        <time>2020-08-07T18:33:31Z</time>
      </trkpt>
      <trkpt lat="41.0664020" lon="0.6635160">
        <ele>27.1</ele>
        <time>2020-08-07T18:33:32Z</time>
      </trkpt>
      <trkpt lat="41.0664040" lon="0.6634450">
        <ele>27.1</ele>
        <time>2020-08-07T18:33:33Z</time>
      </trkpt>
      <trkpt lat="41.0664060" lon="0.6634070">
        <ele>27.1</ele>
        <time>2020-08-07T18:33:34Z</time>
      </trkpt>
      <trkpt lat="41.0664850" lon="0.6633920">
        <ele>27.1</ele>
        <time>2020-08-07T18:33:36Z</time>
      </trkpt>
      <trkpt lat="41.0665660" lon="0.6633990">
        <ele>27.1</ele>
        <time>2020-08-07T18:33:37Z</time>
      </trkpt>
      <trkpt lat="41.0665740" lon="0.6634530">
        <ele>27.1</ele>
        <time>2020-08-07T18:33:38Z</time>
      </trkpt>
      <trkpt lat="41.0665590" lon="0.6634970">
        <ele>27.1</ele>
        <time>2020-08-07T18:33:39Z</time>
      </trkpt>
      <trkpt lat="41.0665290" lon="0.6635570">
        <ele>27.0</ele>
        <time>2020-08-07T18:33:40Z</time>
      </trkpt>
      <trkpt lat="41.0665160" lon="0.6636160">
        <ele>27.0</ele>
        <time>2020-08-07T18:33:42Z</time>
      </trkpt>
      <trkpt lat="41.0665530" lon="0.6636460">
        <ele>27.0</ele>
        <time>2020-08-07T18:33:43Z</time>
      </trkpt>
      <trkpt lat="41.0666080" lon="0.6636440">
        <ele>27.1</ele>
        <time>2020-08-07T18:33:45Z</time>
      </trkpt>
      <trkpt lat="41.0666480" lon="0.6636410">
        <ele>27.1</ele>
        <time>2020-08-07T18:33:46Z</time>
      </trkpt>
      <trkpt lat="41.0666870" lon="0.6636230">
        <ele>27.1</ele>
        <time>2020-08-07T18:33:47Z</time>
      </trkpt>
      <trkpt lat="41.0667570" lon="0.6635480">
        <ele>27.1</ele>
        <time>2020-08-07T18:33:49Z</time>
      </trkpt>
      <trkpt lat="41.0667900" lon="0.6635090">
        <ele>27.1</ele>
        <time>2020-08-07T18:33:50Z</time>
      </trkpt>
      <trkpt lat="41.0668370" lon="0.6634620">
        <ele>27.2</ele>
        <time>2020-08-07T18:33:51Z</time>
      </trkpt>
      <trkpt lat="41.0668710" lon="0.6634360">
        <ele>27.2</ele>
        <time>2020-08-07T18:33:52Z</time>
      </trkpt>
      <trkpt lat="41.0669160" lon="0.6634010">
        <ele>27.2</ele>
        <time>2020-08-07T18:33:54Z</time>
      </trkpt>
      <trkpt lat="41.0669310" lon="0.6633880">
        <ele>27.3</ele>
        <time>2020-08-07T18:33:55Z</time>
      </trkpt>
      <trkpt lat="41.0669460" lon="0.6633760">
        <ele>27.3</ele>
        <time>2020-08-07T18:33:56Z</time>
      </trkpt>
      <trkpt lat="41.0669910" lon="0.6633450">
        <ele>27.3</ele>
        <time>2020-08-07T18:33:58Z</time>
      </trkpt>
      <trkpt lat="41.0670200" lon="0.6633230">
        <ele>27.4</ele>
        <time>2020-08-07T18:33:59Z</time>
      </trkpt>
      <trkpt lat="41.0670290" lon="0.6633150">
        <ele>27.4</ele>
        <time>2020-08-07T18:34:00Z</time>
      </trkpt>
      <trkpt lat="41.0670610" lon="0.6632950">
        <ele>27.4</ele>
        <time>2020-08-07T18:34:01Z</time>
      </trkpt>
      <trkpt lat="41.0670670" lon="0.6632890">
        <ele>27.4</ele>
        <time>2020-08-07T18:34:02Z</time>
      </trkpt>
      <trkpt lat="41.0671000" lon="0.6632650">
        <ele>27.5</ele>
        <time>2020-08-07T18:34:03Z</time>
      </trkpt>
      <trkpt lat="41.0671100" lon="0.6632590">
        <ele>27.5</ele>
        <time>2020-08-07T18:34:04Z</time>
      </trkpt>
      <trkpt lat="41.0671450" lon="0.6632410">
        <ele>27.5</ele>
        <time>2020-08-07T18:34:06Z</time>
      </trkpt>
      <trkpt lat="41.0671670" lon="0.6632300">
        <ele>27.5</ele>
        <time>2020-08-07T18:34:07Z</time>
      </trkpt>
      <trkpt lat="41.0672570" lon="0.6631630">
        <ele>27.6</ele>
        <time>2020-08-07T18:34:09Z</time>
      </trkpt>
      <trkpt lat="41.0673210" lon="0.6631270">
        <ele>27.7</ele>
        <time>2020-08-07T18:34:10Z</time>
      </trkpt>
      <trkpt lat="41.0673880" lon="0.6630960">
        <ele>27.7</ele>
        <time>2020-08-07T18:34:11Z</time>
      </trkpt>
      <trkpt lat="41.0674230" lon="0.6630630">
        <ele>27.7</ele>
        <time>2020-08-07T18:34:12Z</time>
      </trkpt>
      <trkpt lat="41.0675560" lon="0.6630280">
        <ele>27.8</ele>
        <time>2020-08-07T18:34:14Z</time>
      </trkpt>
      <trkpt lat="41.0676790" lon="0.6630170">
        <ele>27.9</ele>
        <time>2020-08-07T18:34:15Z</time>
      </trkpt>
      <trkpt lat="41.0677660" lon="0.6630120">
        <ele>28.0</ele>
        <time>2020-08-07T18:34:17Z</time>
      </trkpt>
      <trkpt lat="41.0678840" lon="0.6630430">
        <ele>28.2</ele>
        <time>2020-08-07T18:34:19Z</time>
      </trkpt>
      <trkpt lat="41.0679360" lon="0.6630640">
        <ele>28.2</ele>
        <time>2020-08-07T18:34:20Z</time>
      </trkpt>
      <trkpt lat="41.0679790" lon="0.6630740">
        <ele>28.3</ele>
        <time>2020-08-07T18:34:21Z</time>
      </trkpt>
      <trkpt lat="41.0680150" lon="0.6630760">
        <ele>28.4</ele>
        <time>2020-08-07T18:34:22Z</time>
      </trkpt>
      <trkpt lat="41.0680510" lon="0.6630870">
        <ele>28.5</ele>
        <time>2020-08-07T18:34:23Z</time>
      </trkpt>
      <trkpt lat="41.0681140" lon="0.6630820">
        <ele>28.6</ele>
        <time>2020-08-07T18:34:25Z</time>
      </trkpt>
      <trkpt lat="41.0681770" lon="0.6630990">
        <ele>28.8</ele>
        <time>2020-08-07T18:34:27Z</time>
      </trkpt>
      <trkpt lat="41.0682060" lon="0.6630980">
        <ele>28.8</ele>
        <time>2020-08-07T18:34:28Z</time>
      </trkpt>
      <trkpt lat="41.0682560" lon="0.6631130">
        <ele>28.9</ele>
        <time>2020-08-07T18:34:30Z</time>
      </trkpt>
      <trkpt lat="41.0682990" lon="0.6631300">
        <ele>29.0</ele>
        <time>2020-08-07T18:34:32Z</time>
      </trkpt>
      <trkpt lat="41.0683440" lon="0.6631440">
        <ele>29.2</ele>
        <time>2020-08-07T18:34:34Z</time>
      </trkpt>
      <trkpt lat="41.0683720" lon="0.6631610">
        <ele>29.3</ele>
        <time>2020-08-07T18:34:35Z</time>
      </trkpt>
      <trkpt lat="41.0683810" lon="0.6631680">
        <ele>29.3</ele>
        <time>2020-08-07T18:34:36Z</time>
      </trkpt>
      <trkpt lat="41.0684000" lon="0.6631960">
        <ele>29.4</ele>
        <time>2020-08-07T18:34:37Z</time>
      </trkpt>
      <trkpt lat="41.0684070" lon="0.6632060">
        <ele>29.4</ele>
        <time>2020-08-07T18:34:38Z</time>
      </trkpt>
      <trkpt lat="41.0684370" lon="0.6632220">
        <ele>29.5</ele>
        <time>2020-08-07T18:34:39Z</time>
      </trkpt>
      <trkpt lat="41.0684460" lon="0.6632270">
        <ele>29.5</ele>
        <time>2020-08-07T18:34:40Z</time>
      </trkpt>
      <trkpt lat="41.0684820" lon="0.6632400">
        <ele>29.7</ele>
        <time>2020-08-07T18:34:42Z</time>
      </trkpt>
      <trkpt lat="41.0685210" lon="0.6632530">
        <ele>29.8</ele>
        <time>2020-08-07T18:34:44Z</time>
      </trkpt>
      <trkpt lat="41.0685720" lon="0.6632580">
        <ele>30.0</ele>
        <time>2020-08-07T18:34:45Z</time>
      </trkpt>
      <trkpt lat="41.0686250" lon="0.6632420">
        <ele>30.2</ele>
        <time>2020-08-07T18:34:46Z</time>
      </trkpt>
      <trkpt lat="41.0687620" lon="0.6632300">
        <ele>30.8</ele>
        <time>2020-08-07T18:34:48Z</time>
      </trkpt>
      <trkpt lat="41.0688340" lon="0.6632370">
        <ele>31.1</ele>
        <time>2020-08-07T18:34:49Z</time>
      </trkpt>
      <trkpt lat="41.0689030" lon="0.6632490">
        <ele>31.4</ele>
        <time>2020-08-07T18:34:50Z</time>
      </trkpt>
      <trkpt lat="41.0690400" lon="0.6633060">
        <ele>31.9</ele>
        <time>2020-08-07T18:34:52Z</time>
      </trkpt>
      <trkpt lat="41.0691260" lon="0.6633630">
        <ele>32.2</ele>
        <time>2020-08-07T18:34:53Z</time>
      </trkpt>
      <trkpt lat="41.0691700" lon="0.6633750">
        <ele>32.3</ele>
        <time>2020-08-07T18:34:55Z</time>
      </trkpt>
      <trkpt lat="41.0692220" lon="0.6633990">
        <ele>32.6</ele>
        <time>2020-08-07T18:34:57Z</time>
      </trkpt>
      <trkpt lat="41.0692720" lon="0.6634320">
        <ele>32.9</ele>
        <time>2020-08-07T18:34:59Z</time>
      </trkpt>
      <trkpt lat="41.0692980" lon="0.6634460">
        <ele>33.1</ele>
        <time>2020-08-07T18:35:00Z</time>
      </trkpt>
      <trkpt lat="41.0693290" lon="0.6634680">
        <ele>33.2</ele>
        <time>2020-08-07T18:35:01Z</time>
      </trkpt>
      <trkpt lat="41.0693400" lon="0.6634740">
        <ele>33.3</ele>
        <time>2020-08-07T18:35:02Z</time>
      </trkpt>
      <trkpt lat="41.0693870" lon="0.6634950">
        <ele>33.6</ele>
        <time>2020-08-07T18:35:04Z</time>
      </trkpt>
      <trkpt lat="41.0694130" lon="0.6635110">
        <ele>33.7</ele>
        <time>2020-08-07T18:35:05Z</time>
      </trkpt>
      <trkpt lat="41.0694600" lon="0.6635340">
        <ele>33.9</ele>
        <time>2020-08-07T18:35:06Z</time>
      </trkpt>
      <trkpt lat="41.0694830" lon="0.6635440">
        <ele>34.1</ele>
        <time>2020-08-07T18:35:07Z</time>
      </trkpt>
      <trkpt lat="41.0695070" lon="0.6635540">
        <ele>34.2</ele>
        <time>2020-08-07T18:35:08Z</time>
      </trkpt>
      <trkpt lat="41.0695310" lon="0.6635630">
        <ele>34.3</ele>
        <time>2020-08-07T18:35:10Z</time>
      </trkpt>
      <trkpt lat="41.0695680" lon="0.6635650">
        <ele>34.5</ele>
        <time>2020-08-07T18:35:11Z</time>
      </trkpt>
      <trkpt lat="41.0695790" lon="0.6635670">
        <ele>34.5</ele>
        <time>2020-08-07T18:35:12Z</time>
      </trkpt>
      <trkpt lat="41.0696180" lon="0.6635670">
        <ele>34.7</ele>
        <time>2020-08-07T18:35:13Z</time>
      </trkpt>
      <trkpt lat="41.0696530" lon="0.6635680">
        <ele>34.9</ele>
        <time>2020-08-07T18:35:15Z</time>
      </trkpt>
      <trkpt lat="41.0696620" lon="0.6635690">
        <ele>34.9</ele>
        <time>2020-08-07T18:35:16Z</time>
      </trkpt>
      <trkpt lat="41.0696920" lon="0.6635730">
        <ele>35.0</ele>
        <time>2020-08-07T18:35:17Z</time>
      </trkpt>
      <trkpt lat="41.0697220" lon="0.6635720">
        <ele>35.2</ele>
        <time>2020-08-07T18:35:18Z</time>
      </trkpt>
      <trkpt lat="41.0697500" lon="0.6635720">
        <ele>35.3</ele>
        <time>2020-08-07T18:35:20Z</time>
      </trkpt>
      <trkpt lat="41.0697600" lon="0.6635710">
        <ele>35.3</ele>
        <time>2020-08-07T18:35:21Z</time>
      </trkpt>
      <trkpt lat="41.0697920" lon="0.6635720">
        <ele>35.5</ele>
        <time>2020-08-07T18:35:22Z</time>
      </trkpt>
      <trkpt lat="41.0698020" lon="0.6635730">
        <ele>35.5</ele>
        <time>2020-08-07T18:35:23Z</time>
      </trkpt>
      <trkpt lat="41.0698390" lon="0.6635800">
        <ele>35.7</ele>
        <time>2020-08-07T18:35:25Z</time>
      </trkpt>
      <trkpt lat="41.0698730" lon="0.6635810">
        <ele>35.9</ele>
        <time>2020-08-07T18:35:27Z</time>
      </trkpt>
      <trkpt lat="41.0699120" lon="0.6635860">
        <ele>36.0</ele>
        <time>2020-08-07T18:35:29Z</time>
      </trkpt>
      <trkpt lat="41.0699310" lon="0.6635870">
        <ele>36.1</ele>
        <time>2020-08-07T18:35:30Z</time>
      </trkpt>
      <trkpt lat="41.0699440" lon="0.6635930">
        <ele>36.2</ele>
        <time>2020-08-07T18:35:31Z</time>
      </trkpt>
      <trkpt lat="41.0699720" lon="0.6636040">
        <ele>36.3</ele>
        <time>2020-08-07T18:35:32Z</time>
      </trkpt>
      <trkpt lat="41.0699850" lon="0.6636110">
        <ele>36.4</ele>
        <time>2020-08-07T18:35:33Z</time>
      </trkpt>
      <trkpt lat="41.0700050" lon="0.6636210">
        <ele>36.5</ele>
        <time>2020-08-07T18:35:34Z</time>
      </trkpt>
      <trkpt lat="41.0700540" lon="0.6636400">
        <ele>36.7</ele>
        <time>2020-08-07T18:35:36Z</time>
      </trkpt>
      <trkpt lat="41.0700970" lon="0.6637110">
        <ele>37.1</ele>
        <time>2020-08-07T18:35:38Z</time>
      </trkpt>
      <trkpt lat="41.0701640" lon="0.6637560">
        <ele>37.5</ele>
        <time>2020-08-07T18:35:39Z</time>
      </trkpt>
      <trkpt lat="41.0702420" lon="0.6638110">
        <ele>37.9</ele>
        <time>2020-08-07T18:35:40Z</time>
      </trkpt>
      <trkpt lat="41.0703110" lon="0.6638430">
        <ele>38.3</ele>
        <time>2020-08-07T18:35:42Z</time>
      </trkpt>
      <trkpt lat="41.0703740" lon="0.6638870">
        <ele>38.6</ele>
        <time>2020-08-07T18:35:44Z</time>
      </trkpt>
      <trkpt lat="41.0704060" lon="0.6639050">
        <ele>38.8</ele>
        <time>2020-08-07T18:35:45Z</time>
      </trkpt>
      <trkpt lat="41.0704370" lon="0.6639230">
        <ele>39.2</ele>
        <time>2020-08-07T18:35:46Z</time>
      </trkpt>
      <trkpt lat="41.0704930" lon="0.6639570">
        <ele>39.6</ele>
        <time>2020-08-07T18:35:48Z</time>
      </trkpt>
      <trkpt lat="41.0705180" lon="0.6639740">
        <ele>39.8</ele>
        <time>2020-08-07T18:35:49Z</time>
      </trkpt>
      <trkpt lat="41.0705400" lon="0.6639890">
        <ele>39.9</ele>
        <time>2020-08-07T18:35:50Z</time>
      </trkpt>
      <trkpt lat="41.0705780" lon="0.6640190">
        <ele>40.2</ele>
        <time>2020-08-07T18:35:52Z</time>
      </trkpt>
      <trkpt lat="41.0706050" lon="0.6640450">
        <ele>40.4</ele>
        <time>2020-08-07T18:35:53Z</time>
      </trkpt>
      <trkpt lat="41.0706140" lon="0.6640550">
        <ele>40.4</ele>
        <time>2020-08-07T18:35:54Z</time>
      </trkpt>
      <trkpt lat="41.0708950" lon="0.6644290">
        <ele>41.4</ele>
        <time>2020-08-07T18:35:56Z</time>
      </trkpt>
      <trkpt lat="41.0709100" lon="0.6645410">
        <ele>41.0</ele>
        <time>2020-08-07T18:35:58Z</time>
      </trkpt>
      <trkpt lat="41.0709020" lon="0.6645860">
        <ele>40.9</ele>
        <time>2020-08-07T18:35:59Z</time>
      </trkpt>
      <trkpt lat="41.0708850" lon="0.6646240">
        <ele>40.7</ele>
        <time>2020-08-07T18:36:00Z</time>
      </trkpt>
      <trkpt lat="41.0708630" lon="0.6646570">
        <ele>40.6</ele>
        <time>2020-08-07T18:36:01Z</time>
      </trkpt>
      <trkpt lat="41.0708020" lon="0.6647060">
        <ele>40.5</ele>
        <time>2020-08-07T18:36:03Z</time>
      </trkpt>
      <trkpt lat="41.0707680" lon="0.6647200">
        <ele>40.4</ele>
        <time>2020-08-07T18:36:04Z</time>
      </trkpt>
      <trkpt lat="41.0707280" lon="0.6647230">
        <ele>40.3</ele>
        <time>2020-08-07T18:36:05Z</time>
      </trkpt>
      <trkpt lat="41.0706600" lon="0.6647140">
        <ele>40.4</ele>
        <time>2020-08-07T18:36:07Z</time>
      </trkpt>
      <trkpt lat="41.0706280" lon="0.6647030">
        <ele>41.1</ele>
        <time>2020-08-07T18:36:08Z</time>
      </trkpt>
      <trkpt lat="41.0705880" lon="0.6646740">
        <ele>41.8</ele>
        <time>2020-08-07T18:36:09Z</time>
      </trkpt>
      <trkpt lat="41.0705080" lon="0.6646400">
        <ele>40.8</ele>
        <time>2020-08-07T18:36:11Z</time>
      </trkpt>
      <trkpt lat="41.0704300" lon="0.6646440">
        <ele>39.9</ele>
        <time>2020-08-07T18:36:13Z</time>
      </trkpt>
      <trkpt lat="41.0703810" lon="0.6646600">
        <ele>39.3</ele>
        <time>2020-08-07T18:36:14Z</time>
      </trkpt>
      <trkpt lat="41.0703370" lon="0.6646910">
        <ele>39.1</ele>
        <time>2020-08-07T18:36:15Z</time>
      </trkpt>
      <trkpt lat="41.0702950" lon="0.6647370">
        <ele>38.8</ele>
        <time>2020-08-07T18:36:17Z</time>
      </trkpt>
      <trkpt lat="41.0702670" lon="0.6647800">
        <ele>38.6</ele>
        <time>2020-08-07T18:36:18Z</time>
      </trkpt>
      <trkpt lat="41.0702480" lon="0.6648320">
        <ele>38.3</ele>
        <time>2020-08-07T18:36:19Z</time>
      </trkpt>
      <trkpt lat="41.0702270" lon="0.6649080">
        <ele>38.0</ele>
        <time>2020-08-07T18:36:20Z</time>
      </trkpt>
      <trkpt lat="41.0702190" lon="0.6649730">
        <ele>37.8</ele>
        <time>2020-08-07T18:36:22Z</time>
      </trkpt>
      <trkpt lat="41.0702240" lon="0.6650770">
        <ele>37.5</ele>
        <time>2020-08-07T18:36:23Z</time>
      </trkpt>
      <trkpt lat="41.0702370" lon="0.6651390">
        <ele>37.3</ele>
        <time>2020-08-07T18:36:25Z</time>
      </trkpt>
      <trkpt lat="41.0702510" lon="0.6651960">
        <ele>37.1</ele>
        <time>2020-08-07T18:36:26Z</time>
      </trkpt>
      <trkpt lat="41.0702950" lon="0.6653010">
        <ele>36.4</ele>
        <time>2020-08-07T18:36:28Z</time>
      </trkpt>
      <trkpt lat="41.0703110" lon="0.6653530">
        <ele>35.9</ele>
        <time>2020-08-07T18:36:29Z</time>
      </trkpt>
      <trkpt lat="41.0703300" lon="0.6654600">
        <ele>35.0</ele>
        <time>2020-08-07T18:36:31Z</time>
      </trkpt>
      <trkpt lat="41.0703120" lon="0.6655850">
        <ele>33.8</ele>
        <time>2020-08-07T18:36:33Z</time>
      </trkpt>
      <trkpt lat="41.0702880" lon="0.6656620">
        <ele>33.3</ele>
        <time>2020-08-07T18:36:34Z</time>
      </trkpt>
      <trkpt lat="41.0702670" lon="0.6657350">
        <ele>32.7</ele>
        <time>2020-08-07T18:36:35Z</time>
      </trkpt>
      <trkpt lat="41.0702160" lon="0.6658880">
        <ele>31.8</ele>
        <time>2020-08-07T18:36:37Z</time>
      </trkpt>
      <trkpt lat="41.0701420" lon="0.6660470">
        <ele>30.9</ele>
        <time>2020-08-07T18:36:39Z</time>
      </trkpt>
      <trkpt lat="41.0700980" lon="0.6661300">
        <ele>30.4</ele>
        <time>2020-08-07T18:36:40Z</time>
      </trkpt>
      <trkpt lat="41.0700450" lon="0.6661990">
        <ele>30.0</ele>
        <time>2020-08-07T18:36:41Z</time>
      </trkpt>
      <trkpt lat="41.0699870" lon="0.6662610">
        <ele>29.7</ele>
        <time>2020-08-07T18:36:42Z</time>
      </trkpt>
      <trkpt lat="41.0698580" lon="0.6663680">
        <ele>29.1</ele>
        <time>2020-08-07T18:36:44Z</time>
      </trkpt>
      <trkpt lat="41.0697890" lon="0.6664240">
        <ele>28.8</ele>
        <time>2020-08-07T18:36:45Z</time>
      </trkpt>
      <trkpt lat="41.0697270" lon="0.6664740">
        <ele>28.6</ele>
        <time>2020-08-07T18:36:46Z</time>
      </trkpt>
      <trkpt lat="41.0696700" lon="0.6665120">
        <ele>28.5</ele>
        <time>2020-08-07T18:36:47Z</time>
      </trkpt>
      <trkpt lat="41.0695560" lon="0.6665930">
        <ele>28.4</ele>
        <time>2020-08-07T18:36:49Z</time>
      </trkpt>
      <trkpt lat="41.0695030" lon="0.6666350">
        <ele>28.4</ele>
        <time>2020-08-07T18:36:50Z</time>
      </trkpt>
      <trkpt lat="41.0693970" lon="0.6667140">
        <ele>28.4</ele>
        <time>2020-08-07T18:36:52Z</time>
      </trkpt>
      <trkpt lat="41.0692730" lon="0.6668030">
        <ele>28.6</ele>
        <time>2020-08-07T18:36:54Z</time>
      </trkpt>
      <trkpt lat="41.0691720" lon="0.6668760">
        <ele>28.9</ele>
        <time>2020-08-07T18:36:56Z</time>
      </trkpt>
      <trkpt lat="41.0691270" lon="0.6669120">
        <ele>29.1</ele>
        <time>2020-08-07T18:36:57Z</time>
      </trkpt>
      <trkpt lat="41.0690470" lon="0.6669860">
        <ele>29.4</ele>
        <time>2020-08-07T18:36:59Z</time>
      </trkpt>
      <trkpt lat="41.0690130" lon="0.6670190">
        <ele>29.5</ele>
        <time>2020-08-07T18:37:00Z</time>
      </trkpt>
      <trkpt lat="41.0689590" lon="0.6670850">
        <ele>29.8</ele>
        <time>2020-08-07T18:37:02Z</time>
      </trkpt>
      <trkpt lat="41.0689310" lon="0.6671210">
        <ele>29.9</ele>
        <time>2020-08-07T18:37:03Z</time>
      </trkpt>
      <trkpt lat="41.0688900" lon="0.6671610">
        <ele>30.2</ele>
        <time>2020-08-07T18:37:05Z</time>
      </trkpt>
      <trkpt lat="41.0688610" lon="0.6671920">
        <ele>30.3</ele>
        <time>2020-08-07T18:37:06Z</time>
      </trkpt>
      <trkpt lat="41.0688070" lon="0.6672590">
        <ele>30.6</ele>
        <time>2020-08-07T18:37:08Z</time>
      </trkpt>
      <trkpt lat="41.0687690" lon="0.6673120">
        <ele>30.9</ele>
        <time>2020-08-07T18:37:09Z</time>
      </trkpt>
      <trkpt lat="41.0687410" lon="0.6673560">
        <ele>31.0</ele>
        <time>2020-08-07T18:37:11Z</time>
      </trkpt>
      <trkpt lat="41.0687180" lon="0.6673980">
        <ele>31.2</ele>
        <time>2020-08-07T18:37:12Z</time>
      </trkpt>
      <trkpt lat="41.0686840" lon="0.6674720">
        <ele>31.5</ele>
        <time>2020-08-07T18:37:14Z</time>
      </trkpt>
      <trkpt lat="41.0686550" lon="0.6675420">
        <ele>31.8</ele>
        <time>2020-08-07T18:37:16Z</time>
      </trkpt>
      <trkpt lat="41.0686380" lon="0.6675810">
        <ele>31.9</ele>
        <time>2020-08-07T18:37:17Z</time>
      </trkpt>
      <trkpt lat="41.0686340" lon="0.6675920">
        <ele>32.0</ele>
        <time>2020-08-07T18:37:18Z</time>
      </trkpt>
      <trkpt lat="41.0686220" lon="0.6676230">
        <ele>32.1</ele>
        <time>2020-08-07T18:37:20Z</time>
      </trkpt>
      <trkpt lat="41.0686230" lon="0.6676270">
        <ele>32.1</ele>
        <time>2020-08-07T18:37:21Z</time>
      </trkpt>
      <trkpt lat="41.0686220" lon="0.6676470">
        <ele>32.2</ele>
        <time>2020-08-07T18:37:23Z</time>
      </trkpt>
      <trkpt lat="41.0686200" lon="0.6676620">
        <ele>32.3</ele>
        <time>2020-08-07T18:37:24Z</time>
      </trkpt>
      <trkpt lat="41.0686140" lon="0.6676720">
        <ele>32.3</ele>
        <time>2020-08-07T18:37:25Z</time>
      </trkpt>
      <trkpt lat="41.0686080" lon="0.6676820">
        <ele>32.3</ele>
        <time>2020-08-07T18:37:26Z</time>
      </trkpt>
      <trkpt lat="41.0685980" lon="0.6677010">
        <ele>32.4</ele>
        <time>2020-08-07T18:37:28Z</time>
      </trkpt>
      <trkpt lat="41.0685950" lon="0.6677090">
        <ele>32.5</ele>
        <time>2020-08-07T18:37:29Z</time>
      </trkpt>
      <trkpt lat="41.0685990" lon="0.6677220">
        <ele>32.5</ele>
        <time>2020-08-07T18:37:31Z</time>
      </trkpt>
      <trkpt lat="41.0686060" lon="0.6677290">
        <ele>32.6</ele>
        <time>2020-08-07T18:37:32Z</time>
      </trkpt>
      <trkpt lat="41.0686140" lon="0.6677340">
        <ele>32.6</ele>
        <time>2020-08-07T18:37:33Z</time>
      </trkpt>
      <trkpt lat="41.0686170" lon="0.6677380">
        <ele>32.6</ele>
        <time>2020-08-07T18:37:34Z</time>
      </trkpt>
      <trkpt lat="41.0686170" lon="0.6677420">
        <ele>32.6</ele>
        <time>2020-08-07T18:37:36Z</time>
      </trkpt>
      <trkpt lat="41.0686180" lon="0.6677420">
        <ele>32.6</ele>
        <time>2020-08-07T18:37:37Z</time>
      </trkpt>
      <trkpt lat="41.0686180" lon="0.6677420">
        <ele>32.6</ele>
        <time>2020-08-07T18:37:38Z</time>
      </trkpt>
      <trkpt lat="41.0686180" lon="0.6677420">
        <ele>32.6</ele>
        <time>2020-08-07T18:37:39Z</time>
      </trkpt>
      <trkpt lat="41.0686170" lon="0.6677430">
        <ele>32.7</ele>
        <time>2020-08-07T18:37:40Z</time>
      </trkpt>
      <trkpt lat="41.0686170" lon="0.6677430">
        <ele>32.7</ele>
        <time>2020-08-07T18:37:41Z</time>
      </trkpt>
      <trkpt lat="41.0686170" lon="0.6677450">
        <ele>32.7</ele>
        <time>2020-08-07T18:37:42Z</time>
      </trkpt>
      <trkpt lat="41.0686170" lon="0.6677460">
        <ele>32.7</ele>
        <time>2020-08-07T18:37:43Z</time>
      </trkpt>
      <trkpt lat="41.0686170" lon="0.6677460">
        <ele>32.7</ele>
        <time>2020-08-07T18:37:44Z</time>
      </trkpt>
      <trkpt lat="41.0685950" lon="0.6677860">
        <ele>32.9</ele>
        <time>2020-08-07T18:39:34Z</time>
      </trkpt>
      <trkpt lat="41.0685720" lon="0.6678390">
        <ele>33.1</ele>
        <time>2020-08-07T18:39:36Z</time>
      </trkpt>
      <trkpt lat="41.0685530" lon="0.6678910">
        <ele>33.4</ele>
        <time>2020-08-07T18:39:38Z</time>
      </trkpt>
      <trkpt lat="41.0685440" lon="0.6679210">
        <ele>33.5</ele>
        <time>2020-08-07T18:39:39Z</time>
      </trkpt>
      <trkpt lat="41.0685190" lon="0.6679880">
        <ele>33.9</ele>
        <time>2020-08-07T18:39:41Z</time>
      </trkpt>
      <trkpt lat="41.0684960" lon="0.6680560">
        <ele>34.3</ele>
        <time>2020-08-07T18:39:43Z</time>
      </trkpt>
      <trkpt lat="41.0684820" lon="0.6680930">
        <ele>34.5</ele>
        <time>2020-08-07T18:39:44Z</time>
      </trkpt>
      <trkpt lat="41.0684560" lon="0.6681630">
        <ele>35.0</ele>
        <time>2020-08-07T18:39:46Z</time>
      </trkpt>
      <trkpt lat="41.0684300" lon="0.6682360">
        <ele>35.4</ele>
        <time>2020-08-07T18:39:48Z</time>
      </trkpt>
      <trkpt lat="41.0684190" lon="0.6682700">
        <ele>35.6</ele>
        <time>2020-08-07T18:39:49Z</time>
      </trkpt>
      <trkpt lat="41.0684000" lon="0.6683400">
        <ele>36.0</ele>
        <time>2020-08-07T18:39:51Z</time>
      </trkpt>
      <trkpt lat="41.0683920" lon="0.6683750">
        <ele>36.2</ele>
        <time>2020-08-07T18:39:52Z</time>
      </trkpt>
      <trkpt lat="41.0683740" lon="0.6684510">
        <ele>36.7</ele>
        <time>2020-08-07T18:39:54Z</time>
      </trkpt>
      <trkpt lat="41.0683660" lon="0.6684860">
        <ele>36.9</ele>
        <time>2020-08-07T18:39:55Z</time>
      </trkpt>
      <trkpt lat="41.0683580" lon="0.6685210">
        <ele>37.1</ele>
        <time>2020-08-07T18:39:56Z</time>
      </trkpt>
      <trkpt lat="41.0683520" lon="0.6685530">
        <ele>37.3</ele>
        <time>2020-08-07T18:39:57Z</time>
      </trkpt>
      <trkpt lat="41.0683420" lon="0.6686180">
        <ele>37.7</ele>
        <time>2020-08-07T18:39:59Z</time>
      </trkpt>
      <trkpt lat="41.0683310" lon="0.6686820">
        <ele>38.0</ele>
        <time>2020-08-07T18:40:01Z</time>
      </trkpt>
      <trkpt lat="41.0683270" lon="0.6687120">
        <ele>38.2</ele>
        <time>2020-08-07T18:40:02Z</time>
      </trkpt>
      <trkpt lat="41.0683180" lon="0.6687730">
        <ele>38.6</ele>
        <time>2020-08-07T18:40:04Z</time>
      </trkpt>
      <trkpt lat="41.0683120" lon="0.6687990">
        <ele>38.7</ele>
        <time>2020-08-07T18:40:05Z</time>
      </trkpt>
      <trkpt lat="41.0683020" lon="0.6688550">
        <ele>39.0</ele>
        <time>2020-08-07T18:40:07Z</time>
      </trkpt>
      <trkpt lat="41.0683000" lon="0.6688800">
        <ele>39.2</ele>
        <time>2020-08-07T18:40:08Z</time>
      </trkpt>
      <trkpt lat="41.0683000" lon="0.6689000">
        <ele>39.3</ele>
        <time>2020-08-07T18:40:09Z</time>
      </trkpt>
      <trkpt lat="41.0683060" lon="0.6689430">
        <ele>39.5</ele>
        <time>2020-08-07T18:40:11Z</time>
      </trkpt>
      <trkpt lat="41.0683060" lon="0.6689560">
        <ele>39.6</ele>
        <time>2020-08-07T18:40:12Z</time>
      </trkpt>
      <trkpt lat="41.0683030" lon="0.6689910">
        <ele>39.8</ele>
        <time>2020-08-07T18:40:13Z</time>
      </trkpt>
      <trkpt lat="41.0682840" lon="0.6690680">
        <ele>40.2</ele>
        <time>2020-08-07T18:40:15Z</time>
      </trkpt>
      <trkpt lat="41.0682610" lon="0.6692470">
        <ele>41.3</ele>
        <time>2020-08-07T18:40:22Z</time>
      </trkpt>
      <trkpt lat="41.0682610" lon="0.6692850">
        <ele>41.6</ele>
        <time>2020-08-07T18:40:23Z</time>
      </trkpt>
      <trkpt lat="41.0682600" lon="0.6693550">
        <ele>42.0</ele>
        <time>2020-08-07T18:40:25Z</time>
      </trkpt>
      <trkpt lat="41.0682610" lon="0.6693960">
        <ele>42.3</ele>
        <time>2020-08-07T18:40:26Z</time>
      </trkpt>
      <trkpt lat="41.0682610" lon="0.6694100">
        <ele>42.3</ele>
        <time>2020-08-07T18:40:27Z</time>
      </trkpt>
      <trkpt lat="41.0682610" lon="0.6694050">
        <ele>42.4</ele>
        <time>2020-08-07T18:40:29Z</time>
      </trkpt>
      <trkpt lat="41.0682610" lon="0.6693720">
        <ele>42.6</ele>
        <time>2020-08-07T18:40:30Z</time>
      </trkpt>
      <trkpt lat="41.0682580" lon="0.6693320">
        <ele>42.8</ele>
        <time>2020-08-07T18:40:31Z</time>
      </trkpt>
      <trkpt lat="41.0682570" lon="0.6693180">
        <ele>42.9</ele>
        <time>2020-08-07T18:40:32Z</time>
      </trkpt>
      <trkpt lat="41.0682550" lon="0.6693150">
        <ele>42.9</ele>
        <time>2020-08-07T18:40:33Z</time>
      </trkpt>
      <trkpt lat="41.0682540" lon="0.6693300">
        <ele>43.0</ele>
        <time>2020-08-07T18:40:34Z</time>
      </trkpt>
      <trkpt lat="41.0682500" lon="0.6693590">
        <ele>43.2</ele>
        <time>2020-08-07T18:40:36Z</time>
      </trkpt>
      <trkpt lat="41.0682450" lon="0.6694170">
        <ele>43.5</ele>
        <time>2020-08-07T18:40:38Z</time>
      </trkpt>
      <trkpt lat="41.0682410" lon="0.6695060">
        <ele>44.0</ele>
        <time>2020-08-07T18:40:39Z</time>
      </trkpt>
      <trkpt lat="41.0682330" lon="0.6696040">
        <ele>44.5</ele>
        <time>2020-08-07T18:40:41Z</time>
      </trkpt>
      <trkpt lat="41.0682290" lon="0.6696490">
        <ele>44.7</ele>
        <time>2020-08-07T18:40:42Z</time>
      </trkpt>
      <trkpt lat="41.0682220" lon="0.6697400">
        <ele>45.2</ele>
        <time>2020-08-07T18:40:43Z</time>
      </trkpt>
      <trkpt lat="41.0682130" lon="0.6698100">
        <ele>45.6</ele>
        <time>2020-08-07T18:40:45Z</time>
      </trkpt>
      <trkpt lat="41.0682060" lon="0.6698810">
        <ele>46.0</ele>
        <time>2020-08-07T18:40:47Z</time>
      </trkpt>
      <trkpt lat="41.0681970" lon="0.6699480">
        <ele>46.4</ele>
        <time>2020-08-07T18:40:49Z</time>
      </trkpt>
      <trkpt lat="41.0681900" lon="0.6699990">
        <ele>46.7</ele>
        <time>2020-08-07T18:40:50Z</time>
      </trkpt>
      <trkpt lat="41.0681880" lon="0.6700140">
        <ele>46.8</ele>
        <time>2020-08-07T18:40:51Z</time>
      </trkpt>
      <trkpt lat="41.0681810" lon="0.6700800">
        <ele>47.1</ele>
        <time>2020-08-07T18:40:53Z</time>
      </trkpt>
      <trkpt lat="41.0681760" lon="0.6701260">
        <ele>47.4</ele>
        <time>2020-08-07T18:40:54Z</time>
      </trkpt>
      <trkpt lat="41.0681740" lon="0.6701400">
        <ele>47.5</ele>
        <time>2020-08-07T18:40:55Z</time>
      </trkpt>
      <trkpt lat="41.0681720" lon="0.6701680">
        <ele>47.7</ele>
        <time>2020-08-07T18:40:56Z</time>
      </trkpt>
      <trkpt lat="41.0681650" lon="0.6702210">
        <ele>48.0</ele>
        <time>2020-08-07T18:40:58Z</time>
      </trkpt>
      <trkpt lat="41.0681540" lon="0.6702610">
        <ele>48.2</ele>
        <time>2020-08-07T18:40:59Z</time>
      </trkpt>
      <trkpt lat="41.0681450" lon="0.6703050">
        <ele>48.5</ele>
        <time>2020-08-07T18:41:00Z</time>
      </trkpt>
      <trkpt lat="41.0681430" lon="0.6703180">
        <ele>48.6</ele>
        <time>2020-08-07T18:41:01Z</time>
      </trkpt>
      <trkpt lat="41.0681360" lon="0.6703680">
        <ele>48.9</ele>
        <time>2020-08-07T18:41:03Z</time>
      </trkpt>
      <trkpt lat="41.0681300" lon="0.6704220">
        <ele>49.3</ele>
        <time>2020-08-07T18:41:05Z</time>
      </trkpt>
      <trkpt lat="41.0681270" lon="0.6704640">
        <ele>49.5</ele>
        <time>2020-08-07T18:41:06Z</time>
      </trkpt>
      <trkpt lat="41.0681260" lon="0.6704780">
        <ele>49.6</ele>
        <time>2020-08-07T18:41:07Z</time>
      </trkpt>
      <trkpt lat="41.0681250" lon="0.6705060">
        <ele>49.8</ele>
        <time>2020-08-07T18:41:08Z</time>
      </trkpt>
      <trkpt lat="41.0681200" lon="0.6705640">
        <ele>50.1</ele>
        <time>2020-08-07T18:41:10Z</time>
      </trkpt>
      <trkpt lat="41.0681130" lon="0.6706260">
        <ele>50.5</ele>
        <time>2020-08-07T18:41:12Z</time>
      </trkpt>
      <trkpt lat="41.0681050" lon="0.6706720">
        <ele>50.8</ele>
        <time>2020-08-07T18:41:13Z</time>
      </trkpt>
      <trkpt lat="41.0681020" lon="0.6706860">
        <ele>50.9</ele>
        <time>2020-08-07T18:41:14Z</time>
      </trkpt>
      <trkpt lat="41.0680930" lon="0.6707310">
        <ele>51.1</ele>
        <time>2020-08-07T18:41:15Z</time>
      </trkpt>
      <trkpt lat="41.0680890" lon="0.6707450">
        <ele>51.2</ele>
        <time>2020-08-07T18:41:16Z</time>
      </trkpt>
      <trkpt lat="41.0680760" lon="0.6708010">
        <ele>51.6</ele>
        <time>2020-08-07T18:41:18Z</time>
      </trkpt>
      <trkpt lat="41.0680680" lon="0.6708430">
        <ele>51.8</ele>
        <time>2020-08-07T18:41:19Z</time>
      </trkpt>
      <trkpt lat="41.0680650" lon="0.6708570">
        <ele>51.9</ele>
        <time>2020-08-07T18:41:20Z</time>
      </trkpt>
      <trkpt lat="41.0680600" lon="0.6708850">
        <ele>52.0</ele>
        <time>2020-08-07T18:41:21Z</time>
      </trkpt>
      <trkpt lat="41.0680470" lon="0.6709430">
        <ele>52.4</ele>
        <time>2020-08-07T18:41:23Z</time>
      </trkpt>
      <trkpt lat="41.0680360" lon="0.6709860">
        <ele>52.6</ele>
        <time>2020-08-07T18:41:24Z</time>
      </trkpt>
      <trkpt lat="41.0680320" lon="0.6710000">
        <ele>52.7</ele>
        <time>2020-08-07T18:41:25Z</time>
      </trkpt>
      <trkpt lat="41.0680230" lon="0.6710290">
        <ele>52.9</ele>
        <time>2020-08-07T18:41:26Z</time>
      </trkpt>
      <trkpt lat="41.0680070" lon="0.6710860">
        <ele>53.1</ele>
        <time>2020-08-07T18:41:28Z</time>
      </trkpt>
      <trkpt lat="41.0679960" lon="0.6711290">
        <ele>53.4</ele>
        <time>2020-08-07T18:41:29Z</time>
      </trkpt>
      <trkpt lat="41.0679920" lon="0.6711430">
        <ele>53.4</ele>
        <time>2020-08-07T18:41:30Z</time>
      </trkpt>
      <trkpt lat="41.0679780" lon="0.6711800">
        <ele>53.6</ele>
        <time>2020-08-07T18:41:31Z</time>
      </trkpt>
      <trkpt lat="41.0679730" lon="0.6711920">
        <ele>53.7</ele>
        <time>2020-08-07T18:41:32Z</time>
      </trkpt>
      <trkpt lat="41.0679540" lon="0.6712270">
        <ele>53.9</ele>
        <time>2020-08-07T18:41:34Z</time>
      </trkpt>
      <trkpt lat="41.0679440" lon="0.6712450">
        <ele>54.0</ele>
        <time>2020-08-07T18:41:35Z</time>
      </trkpt>
      <trkpt lat="41.0679180" lon="0.6712940">
        <ele>54.3</ele>
        <time>2020-08-07T18:41:37Z</time>
      </trkpt>
      <trkpt lat="41.0679040" lon="0.6713210">
        <ele>54.4</ele>
        <time>2020-08-07T18:41:38Z</time>
      </trkpt>
      <trkpt lat="41.0678800" lon="0.6713730">
        <ele>54.7</ele>
        <time>2020-08-07T18:41:40Z</time>
      </trkpt>
      <trkpt lat="41.0678690" lon="0.6713980">
        <ele>54.9</ele>
        <time>2020-08-07T18:41:41Z</time>
      </trkpt>
      <trkpt lat="41.0678450" lon="0.6714480">
        <ele>55.2</ele>
        <time>2020-08-07T18:41:43Z</time>
      </trkpt>
      <trkpt lat="41.0678300" lon="0.6714850">
        <ele>55.4</ele>
        <time>2020-08-07T18:41:44Z</time>
      </trkpt>
      <trkpt lat="41.0678250" lon="0.6714970">
        <ele>55.4</ele>
        <time>2020-08-07T18:41:45Z</time>
      </trkpt>
      <trkpt lat="41.0678150" lon="0.6715200">
        <ele>55.6</ele>
        <time>2020-08-07T18:41:46Z</time>
      </trkpt>
      <trkpt lat="41.0677930" lon="0.6715650">
        <ele>55.8</ele>
        <time>2020-08-07T18:41:48Z</time>
      </trkpt>
      <trkpt lat="41.0677740" lon="0.6715920">
        <ele>56.0</ele>
        <time>2020-08-07T18:41:49Z</time>
      </trkpt>
      <trkpt lat="41.0677670" lon="0.6716010">
        <ele>56.1</ele>
        <time>2020-08-07T18:41:50Z</time>
      </trkpt>
      <trkpt lat="41.0677350" lon="0.6716420">
        <ele>56.3</ele>
        <time>2020-08-07T18:41:52Z</time>
      </trkpt>
      <trkpt lat="41.0677090" lon="0.6716720">
        <ele>56.5</ele>
        <time>2020-08-07T18:41:53Z</time>
      </trkpt>
      <trkpt lat="41.0676990" lon="0.6716830">
        <ele>56.6</ele>
        <time>2020-08-07T18:41:54Z</time>
      </trkpt>
      <trkpt lat="41.0676820" lon="0.6717050">
        <ele>56.8</ele>
        <time>2020-08-07T18:41:55Z</time>
      </trkpt>
      <trkpt lat="41.0676510" lon="0.6717410">
        <ele>57.0</ele>
        <time>2020-08-07T18:41:57Z</time>
      </trkpt>
      <trkpt lat="41.0676330" lon="0.6717630">
        <ele>57.1</ele>
        <time>2020-08-07T18:41:58Z</time>
      </trkpt>
      <trkpt lat="41.0675960" lon="0.6718040">
        <ele>57.4</ele>
        <time>2020-08-07T18:42:00Z</time>
      </trkpt>
      <trkpt lat="41.0675710" lon="0.6718290">
        <ele>57.6</ele>
        <time>2020-08-07T18:42:01Z</time>
      </trkpt>
      <trkpt lat="41.0675620" lon="0.6718380">
        <ele>57.6</ele>
        <time>2020-08-07T18:42:02Z</time>
      </trkpt>
      <trkpt lat="41.0675270" lon="0.6718760">
        <ele>57.9</ele>
        <time>2020-08-07T18:42:04Z</time>
      </trkpt>
      <trkpt lat="41.0675030" lon="0.6719030">
        <ele>58.0</ele>
        <time>2020-08-07T18:42:05Z</time>
      </trkpt>
      <trkpt lat="41.0674940" lon="0.6719120">
        <ele>58.1</ele>
        <time>2020-08-07T18:42:06Z</time>
      </trkpt>
      <trkpt lat="41.0674760" lon="0.6719290">
        <ele>58.2</ele>
        <time>2020-08-07T18:42:07Z</time>
      </trkpt>
      <trkpt lat="41.0674390" lon="0.6719650">
        <ele>58.4</ele>
        <time>2020-08-07T18:42:09Z</time>
      </trkpt>
      <trkpt lat="41.0673980" lon="0.6719960">
        <ele>58.7</ele>
        <time>2020-08-07T18:42:11Z</time>
      </trkpt>
      <trkpt lat="41.0673780" lon="0.6720080">
        <ele>58.8</ele>
        <time>2020-08-07T18:42:12Z</time>
      </trkpt>
      <trkpt lat="41.0673380" lon="0.6720330">
        <ele>59.0</ele>
        <time>2020-08-07T18:42:14Z</time>
      </trkpt>
      <trkpt lat="41.0673180" lon="0.6720450">
        <ele>59.1</ele>
        <time>2020-08-07T18:42:15Z</time>
      </trkpt>
      <trkpt lat="41.0672790" lon="0.6720720">
        <ele>59.3</ele>
        <time>2020-08-07T18:42:17Z</time>
      </trkpt>
      <trkpt lat="41.0672590" lon="0.6720870">
        <ele>59.4</ele>
        <time>2020-08-07T18:42:18Z</time>
      </trkpt>
      <trkpt lat="41.0672200" lon="0.6721130">
        <ele>59.7</ele>
        <time>2020-08-07T18:42:20Z</time>
      </trkpt>
      <trkpt lat="41.0672000" lon="0.6721270">
        <ele>59.8</ele>
        <time>2020-08-07T18:42:21Z</time>
      </trkpt>
      <trkpt lat="41.0671590" lon="0.6721530">
        <ele>60.0</ele>
        <time>2020-08-07T18:42:23Z</time>
      </trkpt>
      <trkpt lat="41.0671200" lon="0.6721780">
        <ele>60.2</ele>
        <time>2020-08-07T18:42:25Z</time>
      </trkpt>
      <trkpt lat="41.0670810" lon="0.6722020">
        <ele>60.5</ele>
        <time>2020-08-07T18:42:27Z</time>
      </trkpt>
      <trkpt lat="41.0670510" lon="0.6722220">
        <ele>60.6</ele>
        <time>2020-08-07T18:42:28Z</time>
      </trkpt>
      <trkpt lat="41.0670410" lon="0.6722280">
        <ele>60.7</ele>
        <time>2020-08-07T18:42:29Z</time>
      </trkpt>
      <trkpt lat="41.0670230" lon="0.6722410">
        <ele>60.8</ele>
        <time>2020-08-07T18:42:30Z</time>
      </trkpt>
      <trkpt lat="41.0669860" lon="0.6722630">
        <ele>61.0</ele>
        <time>2020-08-07T18:42:32Z</time>
      </trkpt>
      <trkpt lat="41.0669670" lon="0.6722750">
        <ele>61.1</ele>
        <time>2020-08-07T18:42:33Z</time>
      </trkpt>
      <trkpt lat="41.0669290" lon="0.6722990">
        <ele>61.3</ele>
        <time>2020-08-07T18:42:35Z</time>
      </trkpt>
      <trkpt lat="41.0669010" lon="0.6723180">
        <ele>61.4</ele>
        <time>2020-08-07T18:42:36Z</time>
      </trkpt>
      <trkpt lat="41.0668910" lon="0.6723240">
        <ele>61.5</ele>
        <time>2020-08-07T18:42:37Z</time>
      </trkpt>
      <trkpt lat="41.0668530" lon="0.6723470">
        <ele>61.7</ele>
        <time>2020-08-07T18:42:39Z</time>
      </trkpt>
      <trkpt lat="41.0668330" lon="0.6723600">
        <ele>61.8</ele>
        <time>2020-08-07T18:42:40Z</time>
      </trkpt>
      <trkpt lat="41.0667960" lon="0.6723840">
        <ele>62.0</ele>
        <time>2020-08-07T18:42:42Z</time>
      </trkpt>
      <trkpt lat="41.0667570" lon="0.6724110">
        <ele>62.2</ele>
        <time>2020-08-07T18:42:44Z</time>
      </trkpt>
      <trkpt lat="41.0667370" lon="0.6724250">
        <ele>62.3</ele>
        <time>2020-08-07T18:42:45Z</time>
      </trkpt>
      <trkpt lat="41.0666970" lon="0.6724510">
        <ele>62.5</ele>
        <time>2020-08-07T18:42:47Z</time>
      </trkpt>
      <trkpt lat="41.0666670" lon="0.6724700">
        <ele>62.6</ele>
        <time>2020-08-07T18:42:48Z</time>
      </trkpt>
      <trkpt lat="41.0666570" lon="0.6724760">
        <ele>62.7</ele>
        <time>2020-08-07T18:42:49Z</time>
      </trkpt>
      <trkpt lat="41.0666210" lon="0.6725010">
        <ele>62.8</ele>
        <time>2020-08-07T18:42:51Z</time>
      </trkpt>
      <trkpt lat="41.0665950" lon="0.6725190">
        <ele>62.9</ele>
        <time>2020-08-07T18:42:52Z</time>
      </trkpt>
      <trkpt lat="41.0665860" lon="0.6725250">
        <ele>63.0</ele>
        <time>2020-08-07T18:42:53Z</time>
      </trkpt>
      <trkpt lat="41.0665580" lon="0.6725450">
        <ele>63.1</ele>
        <time>2020-08-07T18:42:54Z</time>
      </trkpt>
      <trkpt lat="41.0665480" lon="0.6725510">
        <ele>63.2</ele>
        <time>2020-08-07T18:42:55Z</time>
      </trkpt>
      <trkpt lat="41.0665140" lon="0.6725710">
        <ele>63.3</ele>
        <time>2020-08-07T18:42:56Z</time>
      </trkpt>
      <trkpt lat="41.0665010" lon="0.6725780">
        <ele>63.4</ele>
        <time>2020-08-07T18:42:57Z</time>
      </trkpt>
      <trkpt lat="41.0664770" lon="0.6725920">
        <ele>63.5</ele>
        <time>2020-08-07T18:42:58Z</time>
      </trkpt>
      <trkpt lat="41.0664530" lon="0.6726060">
        <ele>63.6</ele>
        <time>2020-08-07T18:42:59Z</time>
      </trkpt>
      <trkpt lat="41.0664060" lon="0.6726320">
        <ele>63.8</ele>
        <time>2020-08-07T18:43:01Z</time>
      </trkpt>
      <trkpt lat="41.0663470" lon="0.6726580">
        <ele>64.1</ele>
        <time>2020-08-07T18:43:03Z</time>
      </trkpt>
      <trkpt lat="41.0662970" lon="0.6726800">
        <ele>64.3</ele>
        <time>2020-08-07T18:43:05Z</time>
      </trkpt>
      <trkpt lat="41.0662790" lon="0.6726890">
        <ele>64.4</ele>
        <time>2020-08-07T18:43:06Z</time>
      </trkpt>
      <trkpt lat="41.0662480" lon="0.6727090">
        <ele>64.5</ele>
        <time>2020-08-07T18:43:08Z</time>
      </trkpt>
      <trkpt lat="41.0662220" lon="0.6727270">
        <ele>64.7</ele>
        <time>2020-08-07T18:43:09Z</time>
      </trkpt>
      <trkpt lat="41.0662130" lon="0.6727330">
        <ele>64.7</ele>
        <time>2020-08-07T18:43:10Z</time>
      </trkpt>
      <trkpt lat="41.0661780" lon="0.6727570">
        <ele>64.9</ele>
        <time>2020-08-07T18:43:12Z</time>
      </trkpt>
      <trkpt lat="41.0661510" lon="0.6727770">
        <ele>65.1</ele>
        <time>2020-08-07T18:43:13Z</time>
      </trkpt>
      <trkpt lat="41.0661430" lon="0.6727830">
        <ele>65.2</ele>
        <time>2020-08-07T18:43:14Z</time>
      </trkpt>
      <trkpt lat="41.0661240" lon="0.6727980">
        <ele>65.3</ele>
        <time>2020-08-07T18:43:15Z</time>
      </trkpt>
      <trkpt lat="41.0661110" lon="0.6727840">
        <ele>65.4</ele>
        <time>2020-08-07T18:43:16Z</time>
      </trkpt>
      <trkpt lat="41.0661150" lon="0.6727440">
        <ele>65.5</ele>
        <time>2020-08-07T18:43:18Z</time>
      </trkpt>
      <trkpt lat="41.0661140" lon="0.6727350">
        <ele>65.6</ele>
        <time>2020-08-07T18:43:19Z</time>
      </trkpt>
      <trkpt lat="41.0660950" lon="0.6727390">
        <ele>65.7</ele>
        <time>2020-08-07T18:43:20Z</time>
      </trkpt>
      <trkpt lat="41.0660850" lon="0.6727550">
        <ele>65.7</ele>
        <time>2020-08-07T18:43:21Z</time>
      </trkpt>
      <trkpt lat="41.0660750" lon="0.6727710">
        <ele>65.8</ele>
        <time>2020-08-07T18:43:22Z</time>
      </trkpt>
      <trkpt lat="41.0660630" lon="0.6727990">
        <ele>65.9</ele>
        <time>2020-08-07T18:43:23Z</time>
      </trkpt>
      <trkpt lat="41.0660420" lon="0.6728290">
        <ele>66.1</ele>
        <time>2020-08-07T18:43:25Z</time>
      </trkpt>
      <trkpt lat="41.0660240" lon="0.6728570">
        <ele>66.2</ele>
        <time>2020-08-07T18:43:27Z</time>
      </trkpt>
      <trkpt lat="41.0660180" lon="0.6728710">
        <ele>66.3</ele>
        <time>2020-08-07T18:43:28Z</time>
      </trkpt>
      <trkpt lat="41.0660060" lon="0.6728870">
        <ele>66.4</ele>
        <time>2020-08-07T18:43:29Z</time>
      </trkpt>
      <trkpt lat="41.0659810" lon="0.6729180">
        <ele>66.5</ele>
        <time>2020-08-07T18:43:30Z</time>
      </trkpt>
      <trkpt lat="41.0659580" lon="0.6729530">
        <ele>66.7</ele>
        <time>2020-08-07T18:43:32Z</time>
      </trkpt>
      <trkpt lat="41.0659500" lon="0.6729620">
        <ele>66.8</ele>
        <time>2020-08-07T18:43:33Z</time>
      </trkpt>
      <trkpt lat="41.0659330" lon="0.6729820">
        <ele>66.9</ele>
        <time>2020-08-07T18:43:34Z</time>
      </trkpt>
      <trkpt lat="41.0659140" lon="0.6730050">
        <ele>67.0</ele>
        <time>2020-08-07T18:43:36Z</time>
      </trkpt>
      <trkpt lat="41.0658910" lon="0.6730330">
        <ele>67.2</ele>
        <time>2020-08-07T18:43:37Z</time>
      </trkpt>
      <trkpt lat="41.0658830" lon="0.6730420">
        <ele>67.2</ele>
        <time>2020-08-07T18:43:38Z</time>
      </trkpt>
      <trkpt lat="41.0658530" lon="0.6730740">
        <ele>67.4</ele>
        <time>2020-08-07T18:43:40Z</time>
      </trkpt>
      <trkpt lat="41.0658310" lon="0.6731000">
        <ele>67.6</ele>
        <time>2020-08-07T18:43:41Z</time>
      </trkpt>
      <trkpt lat="41.0658200" lon="0.6731110">
        <ele>67.7</ele>
        <time>2020-08-07T18:43:42Z</time>
      </trkpt>
      <trkpt lat="41.0657930" lon="0.6731410">
        <ele>67.8</ele>
        <time>2020-08-07T18:43:44Z</time>
      </trkpt>
      <trkpt lat="41.0657860" lon="0.6731490">
        <ele>67.9</ele>
        <time>2020-08-07T18:43:45Z</time>
      </trkpt>
      <trkpt lat="41.0657730" lon="0.6731630">
        <ele>68.0</ele>
        <time>2020-08-07T18:43:46Z</time>
      </trkpt>
      <trkpt lat="41.0657620" lon="0.6731780">
        <ele>68.1</ele>
        <time>2020-08-07T18:43:47Z</time>
      </trkpt>
      <trkpt lat="41.0657400" lon="0.6732070">
        <ele>68.3</ele>
        <time>2020-08-07T18:43:49Z</time>
      </trkpt>
      <trkpt lat="41.0657300" lon="0.6732220">
        <ele>68.4</ele>
        <time>2020-08-07T18:43:50Z</time>
      </trkpt>
      <trkpt lat="41.0657200" lon="0.6732360">
        <ele>68.5</ele>
        <time>2020-08-07T18:43:51Z</time>
      </trkpt>
      <trkpt lat="41.0657030" lon="0.6732640">
        <ele>68.7</ele>
        <time>2020-08-07T18:43:53Z</time>
      </trkpt>
      <trkpt lat="41.0656980" lon="0.6732760">
        <ele>68.7</ele>
        <time>2020-08-07T18:43:54Z</time>
      </trkpt>
      <trkpt lat="41.0656930" lon="0.6732900">
        <ele>68.8</ele>
        <time>2020-08-07T18:43:55Z</time>
      </trkpt>
      <trkpt lat="41.0656750" lon="0.6733310">
        <ele>69.1</ele>
        <time>2020-08-07T18:43:57Z</time>
      </trkpt>
      <trkpt lat="41.0656590" lon="0.6733690">
        <ele>69.3</ele>
        <time>2020-08-07T18:43:59Z</time>
      </trkpt>
      <trkpt lat="41.0656540" lon="0.6733830">
        <ele>69.4</ele>
        <time>2020-08-07T18:44:00Z</time>
      </trkpt>
      <trkpt lat="41.0656420" lon="0.6734180">
        <ele>69.6</ele>
        <time>2020-08-07T18:44:02Z</time>
      </trkpt>
      <trkpt lat="41.0656330" lon="0.6734450">
        <ele>69.8</ele>
        <time>2020-08-07T18:44:04Z</time>
      </trkpt>
      <trkpt lat="41.0656300" lon="0.6734570">
        <ele>69.9</ele>
        <time>2020-08-07T18:44:05Z</time>
      </trkpt>
      <trkpt lat="41.0656240" lon="0.6734820">
        <ele>70.0</ele>
        <time>2020-08-07T18:44:06Z</time>
      </trkpt>
      <trkpt lat="41.0656210" lon="0.6734970">
        <ele>70.1</ele>
        <time>2020-08-07T18:44:07Z</time>
      </trkpt>
      <trkpt lat="41.0656180" lon="0.6735120">
        <ele>70.2</ele>
        <time>2020-08-07T18:44:09Z</time>
      </trkpt>
      <trkpt lat="41.0656150" lon="0.6735270">
        <ele>70.3</ele>
        <time>2020-08-07T18:44:10Z</time>
      </trkpt>
      <trkpt lat="41.0656110" lon="0.6735410">
        <ele>70.4</ele>
        <time>2020-08-07T18:44:12Z</time>
      </trkpt>
      <trkpt lat="41.0656080" lon="0.6735560">
        <ele>70.5</ele>
        <time>2020-08-07T18:44:13Z</time>
      </trkpt>
      <trkpt lat="41.0656050" lon="0.6735710">
        <ele>70.6</ele>
        <time>2020-08-07T18:44:14Z</time>
      </trkpt>
      <trkpt lat="41.0656020" lon="0.6735860">
        <ele>70.7</ele>
        <time>2020-08-07T18:44:15Z</time>
      </trkpt>
      <trkpt lat="41.0655280" lon="0.6737640">
        <ele>71.6</ele>
        <time>2020-08-07T18:44:17Z</time>
      </trkpt>
      <trkpt lat="41.0654240" lon="0.6740070">
        <ele>72.2</ele>
        <time>2020-08-07T18:44:19Z</time>
      </trkpt>
      <trkpt lat="41.0653840" lon="0.6741030">
        <ele>72.5</ele>
        <time>2020-08-07T18:44:20Z</time>
      </trkpt>
      <trkpt lat="41.0653350" lon="0.6742150">
        <ele>72.8</ele>
        <time>2020-08-07T18:44:21Z</time>
      </trkpt>
      <trkpt lat="41.0652920" lon="0.6743350">
        <ele>73.2</ele>
        <time>2020-08-07T18:44:23Z</time>
      </trkpt>
      <trkpt lat="41.0652740" lon="0.6743870">
        <ele>73.3</ele>
        <time>2020-08-07T18:44:24Z</time>
      </trkpt>
      <trkpt lat="41.0652580" lon="0.6744320">
        <ele>73.5</ele>
        <time>2020-08-07T18:44:25Z</time>
      </trkpt>
      <trkpt lat="41.0652310" lon="0.6745130">
        <ele>73.7</ele>
        <time>2020-08-07T18:44:27Z</time>
      </trkpt>
      <trkpt lat="41.0652220" lon="0.6745470">
        <ele>73.8</ele>
        <time>2020-08-07T18:44:28Z</time>
      </trkpt>
      <trkpt lat="41.0652050" lon="0.6746110">
        <ele>74.0</ele>
        <time>2020-08-07T18:44:30Z</time>
      </trkpt>
      <trkpt lat="41.0651960" lon="0.6746430">
        <ele>74.2</ele>
        <time>2020-08-07T18:44:31Z</time>
      </trkpt>
      <trkpt lat="41.0651770" lon="0.6747060">
        <ele>74.4</ele>
        <time>2020-08-07T18:44:33Z</time>
      </trkpt>
      <trkpt lat="41.0651670" lon="0.6747370">
        <ele>74.5</ele>
        <time>2020-08-07T18:44:34Z</time>
      </trkpt>
      <trkpt lat="41.0651440" lon="0.6747970">
        <ele>74.7</ele>
        <time>2020-08-07T18:44:36Z</time>
      </trkpt>
      <trkpt lat="41.0651260" lon="0.6748400">
        <ele>74.9</ele>
        <time>2020-08-07T18:44:37Z</time>
      </trkpt>
      <trkpt lat="41.0651200" lon="0.6748540">
        <ele>75.0</ele>
        <time>2020-08-07T18:44:38Z</time>
      </trkpt>
      <trkpt lat="41.0651000" lon="0.6749120">
        <ele>75.2</ele>
        <time>2020-08-07T18:44:40Z</time>
      </trkpt>
      <trkpt lat="41.0650840" lon="0.6749590">
        <ele>75.3</ele>
        <time>2020-08-07T18:44:41Z</time>
      </trkpt>
      <trkpt lat="41.0650780" lon="0.6749740">
        <ele>75.4</ele>
        <time>2020-08-07T18:44:42Z</time>
      </trkpt>
      <trkpt lat="41.0650550" lon="0.6750350">
        <ele>75.6</ele>
        <time>2020-08-07T18:44:44Z</time>
      </trkpt>
      <trkpt lat="41.0650420" lon="0.6750680">
        <ele>75.8</ele>
        <time>2020-08-07T18:44:45Z</time>
      </trkpt>
      <trkpt lat="41.0650180" lon="0.6751310">
        <ele>76.0</ele>
        <time>2020-08-07T18:44:47Z</time>
      </trkpt>
      <trkpt lat="41.0650040" lon="0.6751630">
        <ele>76.1</ele>
        <time>2020-08-07T18:44:48Z</time>
      </trkpt>
      <trkpt lat="41.0649770" lon="0.6752250">
        <ele>76.3</ele>
        <time>2020-08-07T18:44:50Z</time>
      </trkpt>
      <trkpt lat="41.0649630" lon="0.6752570">
        <ele>76.5</ele>
        <time>2020-08-07T18:44:51Z</time>
      </trkpt>
      <trkpt lat="41.0649310" lon="0.6753240">
        <ele>76.8</ele>
        <time>2020-08-07T18:44:53Z</time>
      </trkpt>
      <trkpt lat="41.0649150" lon="0.6753570">
        <ele>76.9</ele>
        <time>2020-08-07T18:44:54Z</time>
      </trkpt>
      <trkpt lat="41.0649500" lon="0.6752560">
        <ele>77.3</ele>
        <time>2020-08-07T18:44:55Z</time>
      </trkpt>
      <trkpt lat="41.0649630" lon="0.6752080">
        <ele>77.5</ele>
        <time>2020-08-07T18:44:56Z</time>
      </trkpt>
      <trkpt lat="41.0649660" lon="0.6751930">
        <ele>77.6</ele>
        <time>2020-08-07T18:44:57Z</time>
      </trkpt>
      <trkpt lat="41.0649500" lon="0.6752200">
        <ele>77.7</ele>
        <time>2020-08-07T18:44:58Z</time>
      </trkpt>
      <trkpt lat="41.0649290" lon="0.6752720">
        <ele>78.0</ele>
        <time>2020-08-07T18:44:59Z</time>
      </trkpt>
      <trkpt lat="41.0648640" lon="0.6754370">
        <ele>78.6</ele>
        <time>2020-08-07T18:45:01Z</time>
      </trkpt>
      <trkpt lat="41.0648610" lon="0.6754310">
        <ele>78.7</ele>
        <time>2020-08-07T18:45:02Z</time>
      </trkpt>
      <trkpt lat="41.0648960" lon="0.6753260">
        <ele>79.1</ele>
        <time>2020-08-07T18:45:04Z</time>
      </trkpt>
      <trkpt lat="41.0649060" lon="0.6752900">
        <ele>79.2</ele>
        <time>2020-08-07T18:45:05Z</time>
      </trkpt>
      <trkpt lat="41.0649190" lon="0.6752400">
        <ele>79.4</ele>
        <time>2020-08-07T18:45:07Z</time>
      </trkpt>
      <trkpt lat="41.0648740" lon="0.6753320">
        <ele>79.8</ele>
        <time>2020-08-07T18:45:08Z</time>
      </trkpt>
      <trkpt lat="41.0648250" lon="0.6754400">
        <ele>80.2</ele>
        <time>2020-08-07T18:45:09Z</time>
      </trkpt>
      <trkpt lat="41.0647770" lon="0.6755470">
        <ele>80.6</ele>
        <time>2020-08-07T18:45:10Z</time>
      </trkpt>
      <trkpt lat="41.0647280" lon="0.6756540">
        <ele>81.0</ele>
        <time>2020-08-07T18:45:12Z</time>
      </trkpt>
      <trkpt lat="41.0646890" lon="0.6757280">
        <ele>81.3</ele>
        <time>2020-08-07T18:45:13Z</time>
      </trkpt>
      <trkpt lat="41.0646430" lon="0.6758090">
        <ele>81.7</ele>
        <time>2020-08-07T18:45:14Z</time>
      </trkpt>
      <trkpt lat="41.0645900" lon="0.6759120">
        <ele>82.1</ele>
        <time>2020-08-07T18:45:16Z</time>
      </trkpt>
      <trkpt lat="41.0645630" lon="0.6759600">
        <ele>82.3</ele>
        <time>2020-08-07T18:45:17Z</time>
      </trkpt>
      <trkpt lat="41.0645380" lon="0.6760030">
        <ele>82.5</ele>
        <time>2020-08-07T18:45:18Z</time>
      </trkpt>
      <trkpt lat="41.0645150" lon="0.6760420">
        <ele>82.7</ele>
        <time>2020-08-07T18:45:19Z</time>
      </trkpt>
      <trkpt lat="41.0644930" lon="0.6760770">
        <ele>82.9</ele>
        <time>2020-08-07T18:45:20Z</time>
      </trkpt>
      <trkpt lat="41.0644520" lon="0.6761410">
        <ele>83.2</ele>
        <time>2020-08-07T18:45:22Z</time>
      </trkpt>
      <trkpt lat="41.0644130" lon="0.6761970">
        <ele>83.4</ele>
        <time>2020-08-07T18:45:24Z</time>
      </trkpt>
      <trkpt lat="41.0643940" lon="0.6762230">
        <ele>83.6</ele>
        <time>2020-08-07T18:45:25Z</time>
      </trkpt>
      <trkpt lat="41.0643570" lon="0.6762690">
        <ele>83.8</ele>
        <time>2020-08-07T18:45:27Z</time>
      </trkpt>
      <trkpt lat="41.0643380" lon="0.6762930">
        <ele>83.9</ele>
        <time>2020-08-07T18:45:28Z</time>
      </trkpt>
      <trkpt lat="41.0643010" lon="0.6763380">
        <ele>84.1</ele>
        <time>2020-08-07T18:45:30Z</time>
      </trkpt>
      <trkpt lat="41.0642630" lon="0.6763840">
        <ele>84.4</ele>
        <time>2020-08-07T18:45:32Z</time>
      </trkpt>
      <trkpt lat="41.0642270" lon="0.6764280">
        <ele>84.6</ele>
        <time>2020-08-07T18:45:34Z</time>
      </trkpt>
      <trkpt lat="41.0642090" lon="0.6764510">
        <ele>84.7</ele>
        <time>2020-08-07T18:45:35Z</time>
      </trkpt>
      <trkpt lat="41.0641970" lon="0.6764740">
        <ele>84.8</ele>
        <time>2020-08-07T18:45:37Z</time>
      </trkpt>
      <trkpt lat="41.0642360" lon="0.6764330">
        <ele>85.0</ele>
        <time>2020-08-07T18:45:39Z</time>
      </trkpt>
      <trkpt lat="41.0642570" lon="0.6764070">
        <ele>85.2</ele>
        <time>2020-08-07T18:45:40Z</time>
      </trkpt>
      <trkpt lat="41.0642750" lon="0.6763850">
        <ele>85.3</ele>
        <time>2020-08-07T18:45:42Z</time>
      </trkpt>
      <trkpt lat="41.0642720" lon="0.6763870">
        <ele>85.3</ele>
        <time>2020-08-07T18:45:43Z</time>
      </trkpt>
      <trkpt lat="41.0642750" lon="0.6763890">
        <ele>85.3</ele>
        <time>2020-08-07T18:45:45Z</time>
      </trkpt>
      <trkpt lat="41.0642680" lon="0.6763980">
        <ele>85.3</ele>
        <time>2020-08-07T18:45:46Z</time>
      </trkpt>
      <trkpt lat="41.0642620" lon="0.6764090">
        <ele>85.4</ele>
        <time>2020-08-07T18:45:47Z</time>
      </trkpt>
      <trkpt lat="41.0642580" lon="0.6764280">
        <ele>85.4</ele>
        <time>2020-08-07T18:45:48Z</time>
      </trkpt>
      <trkpt lat="41.0642550" lon="0.6764460">
        <ele>85.5</ele>
        <time>2020-08-07T18:45:50Z</time>
      </trkpt>
      <trkpt lat="41.0642460" lon="0.6764750">
        <ele>85.6</ele>
        <time>2020-08-07T18:45:51Z</time>
      </trkpt>
      <trkpt lat="41.0642330" lon="0.6765080">
        <ele>85.7</ele>
        <time>2020-08-07T18:45:53Z</time>
      </trkpt>
      <trkpt lat="41.0642200" lon="0.6765440">
        <ele>85.8</ele>
        <time>2020-08-07T18:45:54Z</time>
      </trkpt>
      <trkpt lat="41.0642140" lon="0.6765550">
        <ele>85.9</ele>
        <time>2020-08-07T18:45:55Z</time>
      </trkpt>
      <trkpt lat="41.0642010" lon="0.6765930">
        <ele>86.0</ele>
        <time>2020-08-07T18:45:56Z</time>
      </trkpt>
      <trkpt lat="41.0641850" lon="0.6766310">
        <ele>86.2</ele>
        <time>2020-08-07T18:45:58Z</time>
      </trkpt>
      <trkpt lat="41.0641740" lon="0.6766550">
        <ele>86.3</ele>
        <time>2020-08-07T18:45:59Z</time>
      </trkpt>
      <trkpt lat="41.0641580" lon="0.6766970">
        <ele>86.5</ele>
        <time>2020-08-07T18:46:01Z</time>
      </trkpt>
      <trkpt lat="41.0641410" lon="0.6767400">
        <ele>86.6</ele>
        <time>2020-08-07T18:46:02Z</time>
      </trkpt>
      <trkpt lat="41.0641370" lon="0.6767520">
        <ele>86.7</ele>
        <time>2020-08-07T18:46:03Z</time>
      </trkpt>
      <trkpt lat="41.0641300" lon="0.6767780">
        <ele>86.8</ele>
        <time>2020-08-07T18:46:04Z</time>
      </trkpt>
      <trkpt lat="41.0641230" lon="0.6768050">
        <ele>86.9</ele>
        <time>2020-08-07T18:46:06Z</time>
      </trkpt>
      <trkpt lat="41.0641170" lon="0.6768300">
        <ele>87.0</ele>
        <time>2020-08-07T18:46:07Z</time>
      </trkpt>
      <trkpt lat="41.0641020" lon="0.6768830">
        <ele>87.2</ele>
        <time>2020-08-07T18:46:09Z</time>
      </trkpt>
      <trkpt lat="41.0640900" lon="0.6769340">
        <ele>87.4</ele>
        <time>2020-08-07T18:46:11Z</time>
      </trkpt>
      <trkpt lat="41.0640850" lon="0.6769600">
        <ele>87.5</ele>
        <time>2020-08-07T18:46:12Z</time>
      </trkpt>
      <trkpt lat="41.0640770" lon="0.6770130">
        <ele>87.7</ele>
        <time>2020-08-07T18:46:14Z</time>
      </trkpt>
      <trkpt lat="41.0640730" lon="0.6770400">
        <ele>87.9</ele>
        <time>2020-08-07T18:46:15Z</time>
      </trkpt>
      <trkpt lat="41.0640650" lon="0.6771010">
        <ele>88.1</ele>
        <time>2020-08-07T18:46:17Z</time>
      </trkpt>
      <trkpt lat="41.0640560" lon="0.6771640">
        <ele>88.3</ele>
        <time>2020-08-07T18:46:19Z</time>
      </trkpt>
      <trkpt lat="41.0640470" lon="0.6772090">
        <ele>88.4</ele>
        <time>2020-08-07T18:46:20Z</time>
      </trkpt>
      <trkpt lat="41.0640430" lon="0.6772270">
        <ele>88.5</ele>
        <time>2020-08-07T18:46:21Z</time>
      </trkpt>
      <trkpt lat="41.0640350" lon="0.6772860">
        <ele>88.7</ele>
        <time>2020-08-07T18:46:23Z</time>
      </trkpt>
      <trkpt lat="41.0640330" lon="0.6773040">
        <ele>88.7</ele>
        <time>2020-08-07T18:46:24Z</time>
      </trkpt>
      <trkpt lat="41.0640300" lon="0.6773220">
        <ele>88.8</ele>
        <time>2020-08-07T18:46:25Z</time>
      </trkpt>
      <trkpt lat="41.0640210" lon="0.6773730">
        <ele>88.9</ele>
        <time>2020-08-07T18:46:27Z</time>
      </trkpt>
      <trkpt lat="41.0640140" lon="0.6774250">
        <ele>89.1</ele>
        <time>2020-08-07T18:46:29Z</time>
      </trkpt>
      <trkpt lat="41.0640100" lon="0.6774830">
        <ele>89.3</ele>
        <time>2020-08-07T18:46:31Z</time>
      </trkpt>
      <trkpt lat="41.0640050" lon="0.6775390">
        <ele>89.4</ele>
        <time>2020-08-07T18:46:33Z</time>
      </trkpt>
      <trkpt lat="41.0640000" lon="0.6776000">
        <ele>89.6</ele>
        <time>2020-08-07T18:46:35Z</time>
      </trkpt>
      <trkpt lat="41.0639950" lon="0.6776580">
        <ele>89.7</ele>
        <time>2020-08-07T18:46:37Z</time>
      </trkpt>
      <trkpt lat="41.0639930" lon="0.6776880">
        <ele>89.8</ele>
        <time>2020-08-07T18:46:38Z</time>
      </trkpt>
      <trkpt lat="41.0639820" lon="0.6777480">
        <ele>89.9</ele>
        <time>2020-08-07T18:46:40Z</time>
      </trkpt>
      <trkpt lat="41.0639800" lon="0.6777780">
        <ele>90.0</ele>
        <time>2020-08-07T18:46:41Z</time>
      </trkpt>
      <trkpt lat="41.0639750" lon="0.6778340">
        <ele>90.2</ele>
        <time>2020-08-07T18:46:43Z</time>
      </trkpt>
      <trkpt lat="41.0639720" lon="0.6778830">
        <ele>90.3</ele>
        <time>2020-08-07T18:46:45Z</time>
      </trkpt>
      <trkpt lat="41.0639730" lon="0.6779330">
        <ele>90.4</ele>
        <time>2020-08-07T18:46:46Z</time>
      </trkpt>
      <trkpt lat="41.0639760" lon="0.6779610">
        <ele>90.4</ele>
        <time>2020-08-07T18:46:47Z</time>
      </trkpt>
      <trkpt lat="41.0639970" lon="0.6781230">
        <ele>90.8</ele>
        <time>2020-08-07T18:46:49Z</time>
      </trkpt>
      <trkpt lat="41.0640100" lon="0.6782860">
        <ele>91.1</ele>
        <time>2020-08-07T18:46:51Z</time>
      </trkpt>
      <trkpt lat="41.0639950" lon="0.6784880">
        <ele>91.6</ele>
        <time>2020-08-07T18:46:52Z</time>
      </trkpt>
      <trkpt lat="41.0639850" lon="0.6786340">
        <ele>91.9</ele>
        <time>2020-08-07T18:46:53Z</time>
      </trkpt>
      <trkpt lat="41.0639780" lon="0.6787480">
        <ele>92.2</ele>
        <time>2020-08-07T18:46:54Z</time>
      </trkpt>
      <trkpt lat="41.0639500" lon="0.6789670">
        <ele>92.8</ele>
        <time>2020-08-07T18:46:56Z</time>
      </trkpt>
      <trkpt lat="41.0639470" lon="0.6790260">
        <ele>92.9</ele>
        <time>2020-08-07T18:46:57Z</time>
      </trkpt>
      <trkpt lat="41.0639300" lon="0.6790580">
        <ele>93.0</ele>
        <time>2020-08-07T18:46:59Z</time>
      </trkpt>
      <trkpt lat="41.0639230" lon="0.6790950">
        <ele>93.0</ele>
        <time>2020-08-07T18:47:01Z</time>
      </trkpt>
      <trkpt lat="41.0639150" lon="0.6791320">
        <ele>93.1</ele>
        <time>2020-08-07T18:47:02Z</time>
      </trkpt>
      <trkpt lat="41.0638980" lon="0.6792090">
        <ele>93.2</ele>
        <time>2020-08-07T18:47:03Z</time>
      </trkpt>
      <trkpt lat="41.0638820" lon="0.6792770">
        <ele>93.3</ele>
        <time>2020-08-07T18:47:04Z</time>
      </trkpt>
      <trkpt lat="41.0638670" lon="0.6793380">
        <ele>93.5</ele>
        <time>2020-08-07T18:47:05Z</time>
      </trkpt>
      <trkpt lat="41.0638370" lon="0.6794440">
        <ele>93.7</ele>
        <time>2020-08-07T18:47:07Z</time>
      </trkpt>
      <trkpt lat="41.0638070" lon="0.6795360">
        <ele>94.0</ele>
        <time>2020-08-07T18:47:09Z</time>
      </trkpt>
      <trkpt lat="41.0637850" lon="0.6795800">
        <ele>94.1</ele>
        <time>2020-08-07T18:47:10Z</time>
      </trkpt>
      <trkpt lat="41.0637570" lon="0.6796550">
        <ele>94.3</ele>
        <time>2020-08-07T18:47:12Z</time>
      </trkpt>
      <trkpt lat="41.0637430" lon="0.6796910">
        <ele>94.4</ele>
        <time>2020-08-07T18:47:13Z</time>
      </trkpt>
      <trkpt lat="41.0637130" lon="0.6797550">
        <ele>94.5</ele>
        <time>2020-08-07T18:47:15Z</time>
      </trkpt>
      <trkpt lat="41.0636820" lon="0.6798140">
        <ele>94.6</ele>
        <time>2020-08-07T18:47:17Z</time>
      </trkpt>
      <trkpt lat="41.0636670" lon="0.6798440">
        <ele>94.7</ele>
        <time>2020-08-07T18:47:18Z</time>
      </trkpt>
      <trkpt lat="41.0636330" lon="0.6799010">
        <ele>94.8</ele>
        <time>2020-08-07T18:47:20Z</time>
      </trkpt>
      <trkpt lat="41.0636150" lon="0.6799280">
        <ele>94.9</ele>
        <time>2020-08-07T18:47:21Z</time>
      </trkpt>
      <trkpt lat="41.0635950" lon="0.6799570">
        <ele>94.9</ele>
        <time>2020-08-07T18:47:22Z</time>
      </trkpt>
      <trkpt lat="41.0635520" lon="0.6800070">
        <ele>95.0</ele>
        <time>2020-08-07T18:47:24Z</time>
      </trkpt>
      <trkpt lat="41.0635260" lon="0.6800330">
        <ele>95.1</ele>
        <time>2020-08-07T18:47:25Z</time>
      </trkpt>
      <trkpt lat="41.0635050" lon="0.6800630">
        <ele>95.2</ele>
        <time>2020-08-07T18:47:26Z</time>
      </trkpt>
      <trkpt lat="41.0634790" lon="0.6800920">
        <ele>95.2</ele>
        <time>2020-08-07T18:47:27Z</time>
      </trkpt>
      <trkpt lat="41.0634360" lon="0.6801520">
        <ele>95.4</ele>
        <time>2020-08-07T18:47:29Z</time>
      </trkpt>
      <trkpt lat="41.0633940" lon="0.6802080">
        <ele>95.5</ele>
        <time>2020-08-07T18:47:31Z</time>
      </trkpt>
      <trkpt lat="41.0633720" lon="0.6802290">
        <ele>95.6</ele>
        <time>2020-08-07T18:47:32Z</time>
      </trkpt>
      <trkpt lat="41.0633350" lon="0.6802850">
        <ele>95.8</ele>
        <time>2020-08-07T18:47:34Z</time>
      </trkpt>
      <trkpt lat="41.0633000" lon="0.6803390">
        <ele>96.0</ele>
        <time>2020-08-07T18:47:36Z</time>
      </trkpt>
      <trkpt lat="41.0632810" lon="0.6803660">
        <ele>96.1</ele>
        <time>2020-08-07T18:47:37Z</time>
      </trkpt>
      <trkpt lat="41.0632630" lon="0.6803930">
        <ele>96.2</ele>
        <time>2020-08-07T18:47:38Z</time>
      </trkpt>
      <trkpt lat="41.0632450" lon="0.6804200">
        <ele>96.3</ele>
        <time>2020-08-07T18:47:39Z</time>
      </trkpt>
      <trkpt lat="41.0632080" lon="0.6804740">
        <ele>96.5</ele>
        <time>2020-08-07T18:47:41Z</time>
      </trkpt>
      <trkpt lat="41.0631900" lon="0.6805010">
        <ele>96.6</ele>
        <time>2020-08-07T18:47:42Z</time>
      </trkpt>
      <trkpt lat="41.0631540" lon="0.6805520">
        <ele>96.9</ele>
        <time>2020-08-07T18:47:44Z</time>
      </trkpt>
      <trkpt lat="41.0631190" lon="0.6806040">
        <ele>97.1</ele>
        <time>2020-08-07T18:47:46Z</time>
      </trkpt>
      <trkpt lat="41.0630840" lon="0.6806560">
        <ele>97.4</ele>
        <time>2020-08-07T18:47:48Z</time>
      </trkpt>
      <trkpt lat="41.0630500" lon="0.6807070">
        <ele>97.6</ele>
        <time>2020-08-07T18:47:50Z</time>
      </trkpt>
      <trkpt lat="41.0630330" lon="0.6807330">
        <ele>97.7</ele>
        <time>2020-08-07T18:47:51Z</time>
      </trkpt>
      <trkpt lat="41.0629980" lon="0.6807860">
        <ele>98.0</ele>
        <time>2020-08-07T18:47:53Z</time>
      </trkpt>
      <trkpt lat="41.0629640" lon="0.6808410">
        <ele>98.3</ele>
        <time>2020-08-07T18:47:55Z</time>
      </trkpt>
      <trkpt lat="41.0629260" lon="0.6809000">
        <ele>98.7</ele>
        <time>2020-08-07T18:47:57Z</time>
      </trkpt>
      <trkpt lat="41.0629070" lon="0.6809290">
        <ele>98.8</ele>
        <time>2020-08-07T18:47:58Z</time>
      </trkpt>
      <trkpt lat="41.0628690" lon="0.6809890">
        <ele>99.2</ele>
        <time>2020-08-07T18:48:00Z</time>
      </trkpt>
      <trkpt lat="41.0628500" lon="0.6810200">
        <ele>99.3</ele>
        <time>2020-08-07T18:48:01Z</time>
      </trkpt>
      <trkpt lat="41.0628130" lon="0.6810770">
        <ele>99.6</ele>
        <time>2020-08-07T18:48:03Z</time>
      </trkpt>
      <trkpt lat="41.0627780" lon="0.6811300">
        <ele>99.9</ele>
        <time>2020-08-07T18:48:05Z</time>
      </trkpt>
      <trkpt lat="41.0627420" lon="0.6811850">
        <ele>100.2</ele>
        <time>2020-08-07T18:48:07Z</time>
      </trkpt>
      <trkpt lat="41.0627240" lon="0.6812110">
        <ele>100.4</ele>
        <time>2020-08-07T18:48:08Z</time>
      </trkpt>
      <trkpt lat="41.0626890" lon="0.6812620">
        <ele>100.7</ele>
        <time>2020-08-07T18:48:10Z</time>
      </trkpt>
      <trkpt lat="41.0626710" lon="0.6812870">
        <ele>100.9</ele>
        <time>2020-08-07T18:48:11Z</time>
      </trkpt>
      <trkpt lat="41.0626360" lon="0.6813370">
        <ele>101.2</ele>
        <time>2020-08-07T18:48:13Z</time>
      </trkpt>
      <trkpt lat="41.0626030" lon="0.6813840">
        <ele>101.4</ele>
        <time>2020-08-07T18:48:15Z</time>
      </trkpt>
      <trkpt lat="41.0625790" lon="0.6814180">
        <ele>101.6</ele>
        <time>2020-08-07T18:48:16Z</time>
      </trkpt>
      <trkpt lat="41.0625710" lon="0.6814290">
        <ele>101.7</ele>
        <time>2020-08-07T18:48:17Z</time>
      </trkpt>
      <trkpt lat="41.0625470" lon="0.6814640">
        <ele>101.9</ele>
        <time>2020-08-07T18:48:18Z</time>
      </trkpt>
      <trkpt lat="41.0625390" lon="0.6814750">
        <ele>102.0</ele>
        <time>2020-08-07T18:48:19Z</time>
      </trkpt>
      <trkpt lat="41.0625240" lon="0.6814980">
        <ele>102.1</ele>
        <time>2020-08-07T18:48:20Z</time>
      </trkpt>
      <trkpt lat="41.0624930" lon="0.6815430">
        <ele>102.4</ele>
        <time>2020-08-07T18:48:22Z</time>
      </trkpt>
      <trkpt lat="41.0624630" lon="0.6815880">
        <ele>102.7</ele>
        <time>2020-08-07T18:48:24Z</time>
      </trkpt>
      <trkpt lat="41.0624340" lon="0.6816330">
        <ele>102.9</ele>
        <time>2020-08-07T18:48:26Z</time>
      </trkpt>
      <trkpt lat="41.0624120" lon="0.6816680">
        <ele>103.1</ele>
        <time>2020-08-07T18:48:27Z</time>
      </trkpt>
      <trkpt lat="41.0624050" lon="0.6816790">
        <ele>103.2</ele>
        <time>2020-08-07T18:48:28Z</time>
      </trkpt>
      <trkpt lat="41.0623860" lon="0.6817100">
        <ele>103.4</ele>
        <time>2020-08-07T18:48:29Z</time>
      </trkpt>
      <trkpt lat="41.0623810" lon="0.6817180">
        <ele>103.4</ele>
        <time>2020-08-07T18:48:30Z</time>
      </trkpt>
      <trkpt lat="41.0623670" lon="0.6817410">
        <ele>103.6</ele>
        <time>2020-08-07T18:48:31Z</time>
      </trkpt>
      <trkpt lat="41.0623410" lon="0.6817840">
        <ele>103.8</ele>
        <time>2020-08-07T18:48:33Z</time>
      </trkpt>
      <trkpt lat="41.0623280" lon="0.6818050">
        <ele>104.0</ele>
        <time>2020-08-07T18:48:34Z</time>
      </trkpt>
      <trkpt lat="41.0623030" lon="0.6818480">
        <ele>104.2</ele>
        <time>2020-08-07T18:48:36Z</time>
      </trkpt>
      <trkpt lat="41.0622900" lon="0.6818700">
        <ele>104.4</ele>
        <time>2020-08-07T18:48:37Z</time>
      </trkpt>
      <trkpt lat="41.0622650" lon="0.6819120">
        <ele>104.7</ele>
        <time>2020-08-07T18:48:39Z</time>
      </trkpt>
      <trkpt lat="41.0622520" lon="0.6819320">
        <ele>104.8</ele>
        <time>2020-08-07T18:48:40Z</time>
      </trkpt>
      <trkpt lat="41.0622270" lon="0.6819760">
        <ele>105.1</ele>
        <time>2020-08-07T18:48:42Z</time>
      </trkpt>
      <trkpt lat="41.0622020" lon="0.6820180">
        <ele>105.3</ele>
        <time>2020-08-07T18:48:44Z</time>
      </trkpt>
      <trkpt lat="41.0621840" lon="0.6820510">
        <ele>105.5</ele>
        <time>2020-08-07T18:48:45Z</time>
      </trkpt>
      <trkpt lat="41.0621780" lon="0.6820610">
        <ele>105.6</ele>
        <time>2020-08-07T18:48:46Z</time>
      </trkpt>
      <trkpt lat="41.0621660" lon="0.6820830">
        <ele>105.8</ele>
        <time>2020-08-07T18:48:47Z</time>
      </trkpt>
      <trkpt lat="41.0621430" lon="0.6821240">
        <ele>106.0</ele>
        <time>2020-08-07T18:48:49Z</time>
      </trkpt>
      <trkpt lat="41.0621210" lon="0.6821630">
        <ele>106.3</ele>
        <time>2020-08-07T18:48:51Z</time>
      </trkpt>
      <trkpt lat="41.0621010" lon="0.6821980">
        <ele>106.5</ele>
        <time>2020-08-07T18:48:53Z</time>
      </trkpt>
      <trkpt lat="41.0620800" lon="0.6822370">
        <ele>106.7</ele>
        <time>2020-08-07T18:48:55Z</time>
      </trkpt>
      <trkpt lat="41.0620720" lon="0.6822540">
        <ele>106.8</ele>
        <time>2020-08-07T18:48:56Z</time>
      </trkpt>
      <trkpt lat="41.0620540" lon="0.6822910">
        <ele>107.0</ele>
        <time>2020-08-07T18:48:58Z</time>
      </trkpt>
      <trkpt lat="41.0620460" lon="0.6823150">
        <ele>107.1</ele>
        <time>2020-08-07T18:48:59Z</time>
      </trkpt>
      <trkpt lat="41.0620610" lon="0.6823000">
        <ele>107.3</ele>
        <time>2020-08-07T18:49:01Z</time>
      </trkpt>
      <trkpt lat="41.0620740" lon="0.6822980">
        <ele>107.3</ele>
        <time>2020-08-07T18:49:03Z</time>
      </trkpt>
      <trkpt lat="41.0620790" lon="0.6823000">
        <ele>107.4</ele>
        <time>2020-08-07T18:49:04Z</time>
      </trkpt>
      <trkpt lat="41.0620800" lon="0.6823140">
        <ele>107.5</ele>
        <time>2020-08-07T18:49:06Z</time>
      </trkpt>
      <trkpt lat="41.0620800" lon="0.6823150">
        <ele>107.5</ele>
        <time>2020-08-07T18:49:07Z</time>
      </trkpt>
      <trkpt lat="41.0620750" lon="0.6823310">
        <ele>107.5</ele>
        <time>2020-08-07T18:49:08Z</time>
      </trkpt>
      <trkpt lat="41.0620690" lon="0.6823470">
        <ele>107.6</ele>
        <time>2020-08-07T18:49:09Z</time>
      </trkpt>
      <trkpt lat="41.0620570" lon="0.6823750">
        <ele>107.8</ele>
        <time>2020-08-07T18:49:12Z</time>
      </trkpt>
      <trkpt lat="41.0620490" lon="0.6823870">
        <ele>107.9</ele>
        <time>2020-08-07T18:49:13Z</time>
      </trkpt>
      <trkpt lat="41.0620440" lon="0.6823960">
        <ele>107.9</ele>
        <time>2020-08-07T18:49:14Z</time>
      </trkpt>
      <trkpt lat="41.0620380" lon="0.6824040">
        <ele>108.0</ele>
        <time>2020-08-07T18:49:16Z</time>
      </trkpt>
      <trkpt lat="41.0620340" lon="0.6824080">
        <ele>108.0</ele>
        <time>2020-08-07T18:49:18Z</time>
      </trkpt>
      <trkpt lat="41.0620330" lon="0.6824080">
        <ele>108.0</ele>
        <time>2020-08-07T18:49:19Z</time>
      </trkpt>
      <trkpt lat="41.0620310" lon="0.6824090">
        <ele>108.0</ele>
        <time>2020-08-07T18:49:21Z</time>
      </trkpt>
      <trkpt lat="41.0620280" lon="0.6824120">
        <ele>108.0</ele>
        <time>2020-08-07T18:49:23Z</time>
      </trkpt>
      <trkpt lat="41.0620270" lon="0.6824130">
        <ele>108.1</ele>
        <time>2020-08-07T18:49:24Z</time>
      </trkpt>
      <trkpt lat="41.0620270" lon="0.6824140">
        <ele>108.1</ele>
        <time>2020-08-07T18:49:25Z</time>
      </trkpt>
      <trkpt lat="41.0620250" lon="0.6824170">
        <ele>108.1</ele>
        <time>2020-08-07T18:49:27Z</time>
      </trkpt>
      <trkpt lat="41.0619700" lon="0.6825670">
        <ele>108.9</ele>
        <time>2020-08-07T18:49:32Z</time>
      </trkpt>
      <trkpt lat="41.0619460" lon="0.6826290">
        <ele>109.3</ele>
        <time>2020-08-07T18:49:34Z</time>
      </trkpt>
      <trkpt lat="41.0619440" lon="0.6826360">
        <ele>109.4</ele>
        <time>2020-08-07T18:49:35Z</time>
      </trkpt>
      <trkpt lat="41.0619450" lon="0.6826310">
        <ele>109.4</ele>
        <time>2020-08-07T18:49:37Z</time>
      </trkpt>
      <trkpt lat="41.0619480" lon="0.6826240">
        <ele>109.4</ele>
        <time>2020-08-07T18:49:39Z</time>
      </trkpt>
      <trkpt lat="41.0619490" lon="0.6826210">
        <ele>109.5</ele>
        <time>2020-08-07T18:49:40Z</time>
      </trkpt>
      <trkpt lat="41.0619500" lon="0.6826190">
        <ele>109.5</ele>
        <time>2020-08-07T18:49:42Z</time>
      </trkpt>
      <trkpt lat="41.0619500" lon="0.6826180">
        <ele>109.5</ele>
        <time>2020-08-07T18:49:43Z</time>
      </trkpt>
      <trkpt lat="41.0619500" lon="0.6826180">
        <ele>109.5</ele>
        <time>2020-08-07T18:49:44Z</time>
      </trkpt>
      <trkpt lat="41.0619500" lon="0.6826180">
        <ele>109.5</ele>
        <time>2020-08-07T18:49:45Z</time>
      </trkpt>
      <trkpt lat="41.0619500" lon="0.6826180">
        <ele>109.5</ele>
        <time>2020-08-07T18:49:46Z</time>
      </trkpt>
      <trkpt lat="41.0619500" lon="0.6826180">
        <ele>109.5</ele>
        <time>2020-08-07T18:49:47Z</time>
      </trkpt>
      <trkpt lat="41.0619300" lon="0.6826610">
        <ele>109.8</ele>
        <time>2020-08-07T18:52:29Z</time>
      </trkpt>
      <trkpt lat="41.0619280" lon="0.6826940">
        <ele>109.9</ele>
        <time>2020-08-07T18:52:31Z</time>
      </trkpt>
      <trkpt lat="41.0619290" lon="0.6827080">
        <ele>110.0</ele>
        <time>2020-08-07T18:52:32Z</time>
      </trkpt>
      <trkpt lat="41.0619340" lon="0.6827530">
        <ele>110.3</ele>
        <time>2020-08-07T18:52:34Z</time>
      </trkpt>
      <trkpt lat="41.0619320" lon="0.6828050">
        <ele>110.6</ele>
        <time>2020-08-07T18:52:36Z</time>
      </trkpt>
      <trkpt lat="41.0619320" lon="0.6828450">
        <ele>110.8</ele>
        <time>2020-08-07T18:52:37Z</time>
      </trkpt>
      <trkpt lat="41.0619310" lon="0.6828580">
        <ele>110.9</ele>
        <time>2020-08-07T18:52:38Z</time>
      </trkpt>
      <trkpt lat="41.0619300" lon="0.6829080">
        <ele>111.2</ele>
        <time>2020-08-07T18:52:40Z</time>
      </trkpt>
      <trkpt lat="41.0619300" lon="0.6829310">
        <ele>111.3</ele>
        <time>2020-08-07T18:52:41Z</time>
      </trkpt>
      <trkpt lat="41.0619290" lon="0.6829790">
        <ele>111.6</ele>
        <time>2020-08-07T18:52:43Z</time>
      </trkpt>
      <trkpt lat="41.0619280" lon="0.6830050">
        <ele>111.7</ele>
        <time>2020-08-07T18:52:44Z</time>
      </trkpt>
      <trkpt lat="41.0619240" lon="0.6830580">
        <ele>112.0</ele>
        <time>2020-08-07T18:52:46Z</time>
      </trkpt>
      <trkpt lat="41.0619220" lon="0.6830840">
        <ele>112.2</ele>
        <time>2020-08-07T18:52:47Z</time>
      </trkpt>
      <trkpt lat="41.0619240" lon="0.6831280">
        <ele>112.5</ele>
        <time>2020-08-07T18:52:49Z</time>
      </trkpt>
      <trkpt lat="41.0619220" lon="0.6831510">
        <ele>112.6</ele>
        <time>2020-08-07T18:52:50Z</time>
      </trkpt>
      <trkpt lat="41.0619190" lon="0.6832010">
        <ele>113.0</ele>
        <time>2020-08-07T18:52:52Z</time>
      </trkpt>
      <trkpt lat="41.0619190" lon="0.6832430">
        <ele>113.3</ele>
        <time>2020-08-07T18:52:53Z</time>
      </trkpt>
      <trkpt lat="41.0619190" lon="0.6832570">
        <ele>113.4</ele>
        <time>2020-08-07T18:52:54Z</time>
      </trkpt>
      <trkpt lat="41.0619160" lon="0.6833010">
        <ele>113.7</ele>
        <time>2020-08-07T18:52:55Z</time>
      </trkpt>
      <trkpt lat="41.0619150" lon="0.6833150">
        <ele>113.8</ele>
        <time>2020-08-07T18:52:56Z</time>
      </trkpt>
      <trkpt lat="41.0619170" lon="0.6833700">
        <ele>114.3</ele>
        <time>2020-08-07T18:52:58Z</time>
      </trkpt>
      <trkpt lat="41.0619170" lon="0.6833950">
        <ele>114.5</ele>
        <time>2020-08-07T18:52:59Z</time>
      </trkpt>
      <trkpt lat="41.0619170" lon="0.6834440">
        <ele>115.0</ele>
        <time>2020-08-07T18:53:01Z</time>
      </trkpt>
      <trkpt lat="41.0619160" lon="0.6834820">
        <ele>115.3</ele>
        <time>2020-08-07T18:53:02Z</time>
      </trkpt>
      <trkpt lat="41.0619150" lon="0.6834950">
        <ele>115.5</ele>
        <time>2020-08-07T18:53:03Z</time>
      </trkpt>
      <trkpt lat="41.0619170" lon="0.6835440">
        <ele>115.9</ele>
        <time>2020-08-07T18:53:05Z</time>
      </trkpt>
      <trkpt lat="41.0619170" lon="0.6835860">
        <ele>116.4</ele>
        <time>2020-08-07T18:53:07Z</time>
      </trkpt>
      <trkpt lat="41.0619160" lon="0.6836090">
        <ele>116.6</ele>
        <time>2020-08-07T18:53:08Z</time>
      </trkpt>
      <trkpt lat="41.0619140" lon="0.6836340">
        <ele>116.8</ele>
        <time>2020-08-07T18:53:09Z</time>
      </trkpt>
      <trkpt lat="41.0619070" lon="0.6836840">
        <ele>117.4</ele>
        <time>2020-08-07T18:53:11Z</time>
      </trkpt>
      <trkpt lat="41.0619030" lon="0.6837080">
        <ele>117.6</ele>
        <time>2020-08-07T18:53:12Z</time>
      </trkpt>
      <trkpt lat="41.0618860" lon="0.6837840">
        <ele>118.5</ele>
        <time>2020-08-07T18:53:15Z</time>
      </trkpt>
      <trkpt lat="41.0618530" lon="0.6838880">
        <ele>119.1</ele>
        <time>2020-08-07T18:53:19Z</time>
      </trkpt>
      <trkpt lat="41.0618390" lon="0.6839290">
        <ele>119.3</ele>
        <time>2020-08-07T18:53:20Z</time>
      </trkpt>
      <trkpt lat="41.0618340" lon="0.6839410">
        <ele>119.3</ele>
        <time>2020-08-07T18:53:21Z</time>
      </trkpt>
      <trkpt lat="41.0618190" lon="0.6839770">
        <ele>119.4</ele>
        <time>2020-08-07T18:53:22Z</time>
      </trkpt>
      <trkpt lat="41.0618140" lon="0.6839890">
        <ele>119.5</ele>
        <time>2020-08-07T18:53:23Z</time>
      </trkpt>
      <trkpt lat="41.0617930" lon="0.6840420">
        <ele>119.7</ele>
        <time>2020-08-07T18:53:25Z</time>
      </trkpt>
      <trkpt lat="41.0617810" lon="0.6840700">
        <ele>119.8</ele>
        <time>2020-08-07T18:53:26Z</time>
      </trkpt>
      <trkpt lat="41.0617570" lon="0.6841170">
        <ele>120.0</ele>
        <time>2020-08-07T18:53:28Z</time>
      </trkpt>
      <trkpt lat="41.0617320" lon="0.6841690">
        <ele>120.2</ele>
        <time>2020-08-07T18:53:30Z</time>
      </trkpt>
      <trkpt lat="41.0617200" lon="0.6841940">
        <ele>120.3</ele>
        <time>2020-08-07T18:53:31Z</time>
      </trkpt>
      <trkpt lat="41.0617000" lon="0.6842400">
        <ele>120.5</ele>
        <time>2020-08-07T18:53:33Z</time>
      </trkpt>
      <trkpt lat="41.0616780" lon="0.6842870">
        <ele>120.7</ele>
        <time>2020-08-07T18:53:35Z</time>
      </trkpt>
      <trkpt lat="41.0616590" lon="0.6843330">
        <ele>121.0</ele>
        <time>2020-08-07T18:53:37Z</time>
      </trkpt>
      <trkpt lat="41.0616420" lon="0.6843690">
        <ele>121.2</ele>
        <time>2020-08-07T18:53:38Z</time>
      </trkpt>
      <trkpt lat="41.0616360" lon="0.6843800">
        <ele>121.2</ele>
        <time>2020-08-07T18:53:39Z</time>
      </trkpt>
      <trkpt lat="41.0616200" lon="0.6844170">
        <ele>121.4</ele>
        <time>2020-08-07T18:53:40Z</time>
      </trkpt>
      <trkpt lat="41.0616140" lon="0.6844280">
        <ele>121.5</ele>
        <time>2020-08-07T18:53:41Z</time>
      </trkpt>
      <trkpt lat="41.0615940" lon="0.6844720">
        <ele>121.8</ele>
        <time>2020-08-07T18:53:43Z</time>
      </trkpt>
      <trkpt lat="41.0615840" lon="0.6844950">
        <ele>121.9</ele>
        <time>2020-08-07T18:53:44Z</time>
      </trkpt>
      <trkpt lat="41.0615620" lon="0.6845450">
        <ele>122.2</ele>
        <time>2020-08-07T18:53:46Z</time>
      </trkpt>
      <trkpt lat="41.0615500" lon="0.6845660">
        <ele>122.4</ele>
        <time>2020-08-07T18:53:47Z</time>
      </trkpt>
      <trkpt lat="41.0615270" lon="0.6846150">
        <ele>122.7</ele>
        <time>2020-08-07T18:53:49Z</time>
      </trkpt>
      <trkpt lat="41.0615090" lon="0.6846510">
        <ele>122.9</ele>
        <time>2020-08-07T18:53:50Z</time>
      </trkpt>
      <trkpt lat="41.0615030" lon="0.6846620">
        <ele>123.0</ele>
        <time>2020-08-07T18:53:51Z</time>
      </trkpt>
      <trkpt lat="41.0614860" lon="0.6846980">
        <ele>123.3</ele>
        <time>2020-08-07T18:53:52Z</time>
      </trkpt>
      <trkpt lat="41.0614810" lon="0.6847100">
        <ele>123.4</ele>
        <time>2020-08-07T18:53:53Z</time>
      </trkpt>
      <trkpt lat="41.0614620" lon="0.6847580">
        <ele>123.7</ele>
        <time>2020-08-07T18:53:55Z</time>
      </trkpt>
      <trkpt lat="41.0614420" lon="0.6848010">
        <ele>124.0</ele>
        <time>2020-08-07T18:53:57Z</time>
      </trkpt>
      <trkpt lat="41.0614270" lon="0.6848340">
        <ele>124.2</ele>
        <time>2020-08-07T18:53:58Z</time>
      </trkpt>
      <trkpt lat="41.0614220" lon="0.6848450">
        <ele>124.2</ele>
        <time>2020-08-07T18:53:59Z</time>
      </trkpt>
      <trkpt lat="41.0614140" lon="0.6848680">
        <ele>124.4</ele>
        <time>2020-08-07T18:54:00Z</time>
      </trkpt>
      <trkpt lat="41.0613990" lon="0.6849100">
        <ele>124.7</ele>
        <time>2020-08-07T18:54:02Z</time>
      </trkpt>
      <trkpt lat="41.0613760" lon="0.6849560">
        <ele>125.0</ele>
        <time>2020-08-07T18:54:04Z</time>
      </trkpt>
      <trkpt lat="41.0613540" lon="0.6849990">
        <ele>125.3</ele>
        <time>2020-08-07T18:54:06Z</time>
      </trkpt>
      <trkpt lat="41.0613420" lon="0.6850240">
        <ele>125.4</ele>
        <time>2020-08-07T18:54:07Z</time>
      </trkpt>
      <trkpt lat="41.0613200" lon="0.6850740">
        <ele>125.8</ele>
        <time>2020-08-07T18:54:09Z</time>
      </trkpt>
      <trkpt lat="41.0613060" lon="0.6851110">
        <ele>126.0</ele>
        <time>2020-08-07T18:54:10Z</time>
      </trkpt>
      <trkpt lat="41.0613000" lon="0.6851230">
        <ele>126.1</ele>
        <time>2020-08-07T18:54:11Z</time>
      </trkpt>
      <trkpt lat="41.0612830" lon="0.6851580">
        <ele>126.3</ele>
        <time>2020-08-07T18:54:12Z</time>
      </trkpt>
      <trkpt lat="41.0612770" lon="0.6851700">
        <ele>126.4</ele>
        <time>2020-08-07T18:54:13Z</time>
      </trkpt>
      <trkpt lat="41.0612550" lon="0.6852180">
        <ele>126.7</ele>
        <time>2020-08-07T18:54:15Z</time>
      </trkpt>
      <trkpt lat="41.0612360" lon="0.6852630">
        <ele>126.9</ele>
        <time>2020-08-07T18:54:17Z</time>
      </trkpt>
      <trkpt lat="41.0612180" lon="0.6852990">
        <ele>127.2</ele>
        <time>2020-08-07T18:54:18Z</time>
      </trkpt>
      <trkpt lat="41.0612120" lon="0.6853100">
        <ele>127.2</ele>
        <time>2020-08-07T18:54:19Z</time>
      </trkpt>
      <trkpt lat="41.0611930" lon="0.6853550">
        <ele>127.5</ele>
        <time>2020-08-07T18:54:21Z</time>
      </trkpt>
      <trkpt lat="41.0611780" lon="0.6853900">
        <ele>127.7</ele>
        <time>2020-08-07T18:54:22Z</time>
      </trkpt>
      <trkpt lat="41.0611730" lon="0.6854020">
        <ele>127.8</ele>
        <time>2020-08-07T18:54:23Z</time>
      </trkpt>
      <trkpt lat="41.0611630" lon="0.6854280">
        <ele>127.9</ele>
        <time>2020-08-07T18:54:24Z</time>
      </trkpt>
      <trkpt lat="41.0611450" lon="0.6854750">
        <ele>128.2</ele>
        <time>2020-08-07T18:54:26Z</time>
      </trkpt>
      <trkpt lat="41.0611290" lon="0.6855170">
        <ele>128.5</ele>
        <time>2020-08-07T18:54:28Z</time>
      </trkpt>
      <trkpt lat="41.0611150" lon="0.6855580">
        <ele>128.7</ele>
        <time>2020-08-07T18:54:30Z</time>
      </trkpt>
      <trkpt lat="41.0610990" lon="0.6856080">
        <ele>129.0</ele>
        <time>2020-08-07T18:54:32Z</time>
      </trkpt>
      <trkpt lat="41.0610850" lon="0.6856430">
        <ele>129.2</ele>
        <time>2020-08-07T18:54:33Z</time>
      </trkpt>
      <trkpt lat="41.0610800" lon="0.6856540">
        <ele>129.3</ele>
        <time>2020-08-07T18:54:34Z</time>
      </trkpt>
      <trkpt lat="41.0610730" lon="0.6856760">
        <ele>129.4</ele>
        <time>2020-08-07T18:54:35Z</time>
      </trkpt>
      <trkpt lat="41.0610580" lon="0.6857220">
        <ele>129.7</ele>
        <time>2020-08-07T18:54:37Z</time>
      </trkpt>
      <trkpt lat="41.0610530" lon="0.6857440">
        <ele>129.9</ele>
        <time>2020-08-07T18:54:38Z</time>
      </trkpt>
      <trkpt lat="41.0610480" lon="0.6857640">
        <ele>130.0</ele>
        <time>2020-08-07T18:54:39Z</time>
      </trkpt>
      <trkpt lat="41.0610400" lon="0.6858040">
        <ele>130.2</ele>
        <time>2020-08-07T18:54:41Z</time>
      </trkpt>
      <trkpt lat="41.0610290" lon="0.6858490">
        <ele>130.5</ele>
        <time>2020-08-07T18:54:43Z</time>
      </trkpt>
      <trkpt lat="41.0610210" lon="0.6858870">
        <ele>130.8</ele>
        <time>2020-08-07T18:54:44Z</time>
      </trkpt>
      <trkpt lat="41.0610180" lon="0.6858990">
        <ele>130.8</ele>
        <time>2020-08-07T18:54:45Z</time>
      </trkpt>
      <trkpt lat="41.0610090" lon="0.6859480">
        <ele>131.1</ele>
        <time>2020-08-07T18:54:47Z</time>
      </trkpt>
      <trkpt lat="41.0610010" lon="0.6859750">
        <ele>131.3</ele>
        <time>2020-08-07T18:54:48Z</time>
      </trkpt>
      <trkpt lat="41.0609850" lon="0.6860280">
        <ele>131.7</ele>
        <time>2020-08-07T18:54:50Z</time>
      </trkpt>
      <trkpt lat="41.0609680" lon="0.6860740">
        <ele>132.0</ele>
        <time>2020-08-07T18:54:52Z</time>
      </trkpt>
      <trkpt lat="41.0609530" lon="0.6861180">
        <ele>132.3</ele>
        <time>2020-08-07T18:54:54Z</time>
      </trkpt>
      <trkpt lat="41.0609440" lon="0.6861440">
        <ele>132.5</ele>
        <time>2020-08-07T18:54:55Z</time>
      </trkpt>
      <trkpt lat="41.0609250" lon="0.6861930">
        <ele>132.8</ele>
        <time>2020-08-07T18:54:57Z</time>
      </trkpt>
      <trkpt lat="41.0609100" lon="0.6862370">
        <ele>133.1</ele>
        <time>2020-08-07T18:54:59Z</time>
      </trkpt>
      <trkpt lat="41.0608940" lon="0.6862830">
        <ele>133.4</ele>
        <time>2020-08-07T18:55:01Z</time>
      </trkpt>
      <trkpt lat="41.0608750" lon="0.6863300">
        <ele>133.7</ele>
        <time>2020-08-07T18:55:03Z</time>
      </trkpt>
      <trkpt lat="41.0608610" lon="0.6863570">
        <ele>133.9</ele>
        <time>2020-08-07T18:55:04Z</time>
      </trkpt>
      <trkpt lat="41.0608350" lon="0.6864050">
        <ele>134.3</ele>
        <time>2020-08-07T18:55:06Z</time>
      </trkpt>
      <trkpt lat="41.0608110" lon="0.6864540">
        <ele>134.6</ele>
        <time>2020-08-07T18:55:08Z</time>
      </trkpt>
      <trkpt lat="41.0608000" lon="0.6864760">
        <ele>134.8</ele>
        <time>2020-08-07T18:55:09Z</time>
      </trkpt>
      <trkpt lat="41.0607770" lon="0.6865210">
        <ele>135.1</ele>
        <time>2020-08-07T18:55:11Z</time>
      </trkpt>
      <trkpt lat="41.0607600" lon="0.6865670">
        <ele>135.4</ele>
        <time>2020-08-07T18:55:13Z</time>
      </trkpt>
      <trkpt lat="41.0607500" lon="0.6866050">
        <ele>135.6</ele>
        <time>2020-08-07T18:55:14Z</time>
      </trkpt>
      <trkpt lat="41.0607460" lon="0.6866180">
        <ele>135.7</ele>
        <time>2020-08-07T18:55:15Z</time>
      </trkpt>
      <trkpt lat="41.0607290" lon="0.6866670">
        <ele>136.0</ele>
        <time>2020-08-07T18:55:17Z</time>
      </trkpt>
      <trkpt lat="41.0607140" lon="0.6867130">
        <ele>136.3</ele>
        <time>2020-08-07T18:55:19Z</time>
      </trkpt>
      <trkpt lat="41.0606990" lon="0.6867520">
        <ele>136.5</ele>
        <time>2020-08-07T18:55:20Z</time>
      </trkpt>
      <trkpt lat="41.0606930" lon="0.6867660">
        <ele>136.6</ele>
        <time>2020-08-07T18:55:21Z</time>
      </trkpt>
      <trkpt lat="41.0606760" lon="0.6868120">
        <ele>136.9</ele>
        <time>2020-08-07T18:55:23Z</time>
      </trkpt>
      <trkpt lat="41.0606680" lon="0.6868360">
        <ele>137.0</ele>
        <time>2020-08-07T18:55:24Z</time>
      </trkpt>
      <trkpt lat="41.0606500" lon="0.6868790">
        <ele>137.3</ele>
        <time>2020-08-07T18:55:26Z</time>
      </trkpt>
      <trkpt lat="41.0606390" lon="0.6869030">
        <ele>137.4</ele>
        <time>2020-08-07T18:55:27Z</time>
      </trkpt>
      <trkpt lat="41.0606190" lon="0.6869590">
        <ele>137.8</ele>
        <time>2020-08-07T18:55:29Z</time>
      </trkpt>
      <trkpt lat="41.0606000" lon="0.6870150">
        <ele>138.1</ele>
        <time>2020-08-07T18:55:31Z</time>
      </trkpt>
      <trkpt lat="41.0605860" lon="0.6870510">
        <ele>138.3</ele>
        <time>2020-08-07T18:55:32Z</time>
      </trkpt>
      <trkpt lat="41.0605810" lon="0.6870630">
        <ele>138.4</ele>
        <time>2020-08-07T18:55:33Z</time>
      </trkpt>
      <trkpt lat="41.0605650" lon="0.6871000">
        <ele>138.6</ele>
        <time>2020-08-07T18:55:34Z</time>
      </trkpt>
      <trkpt lat="41.0605600" lon="0.6871120">
        <ele>138.7</ele>
        <time>2020-08-07T18:55:35Z</time>
      </trkpt>
      <trkpt lat="41.0605390" lon="0.6871570">
        <ele>139.0</ele>
        <time>2020-08-07T18:55:37Z</time>
      </trkpt>
      <trkpt lat="41.0605170" lon="0.6871950">
        <ele>139.3</ele>
        <time>2020-08-07T18:55:39Z</time>
      </trkpt>
      <trkpt lat="41.0605090" lon="0.6872150">
        <ele>139.4</ele>
        <time>2020-08-07T18:55:40Z</time>
      </trkpt>
      <trkpt lat="41.0605000" lon="0.6872360">
        <ele>139.5</ele>
        <time>2020-08-07T18:55:41Z</time>
      </trkpt>
      <trkpt lat="41.0604930" lon="0.6872570">
        <ele>139.7</ele>
        <time>2020-08-07T18:55:42Z</time>
      </trkpt>
      <trkpt lat="41.0604860" lon="0.6872760">
        <ele>139.8</ele>
        <time>2020-08-07T18:55:43Z</time>
      </trkpt>
      <trkpt lat="41.0604700" lon="0.6873190">
        <ele>140.1</ele>
        <time>2020-08-07T18:55:45Z</time>
      </trkpt>
      <trkpt lat="41.0604520" lon="0.6873610">
        <ele>140.3</ele>
        <time>2020-08-07T18:55:47Z</time>
      </trkpt>
      <trkpt lat="41.0604340" lon="0.6873980">
        <ele>140.6</ele>
        <time>2020-08-07T18:55:49Z</time>
      </trkpt>
      <trkpt lat="41.0604270" lon="0.6874160">
        <ele>140.7</ele>
        <time>2020-08-07T18:55:50Z</time>
      </trkpt>
      <trkpt lat="41.0604100" lon="0.6874580">
        <ele>140.9</ele>
        <time>2020-08-07T18:55:52Z</time>
      </trkpt>
      <trkpt lat="41.0604020" lon="0.6874810">
        <ele>141.1</ele>
        <time>2020-08-07T18:55:53Z</time>
      </trkpt>
      <trkpt lat="41.0603830" lon="0.6875290">
        <ele>141.4</ele>
        <time>2020-08-07T18:55:55Z</time>
      </trkpt>
      <trkpt lat="41.0603690" lon="0.6875740">
        <ele>141.6</ele>
        <time>2020-08-07T18:55:57Z</time>
      </trkpt>
      <trkpt lat="41.0603620" lon="0.6875980">
        <ele>141.8</ele>
        <time>2020-08-07T18:55:58Z</time>
      </trkpt>
      <trkpt lat="41.0603480" lon="0.6876490">
        <ele>142.1</ele>
        <time>2020-08-07T18:56:00Z</time>
      </trkpt>
      <trkpt lat="41.0603330" lon="0.6877000">
        <ele>142.4</ele>
        <time>2020-08-07T18:56:02Z</time>
      </trkpt>
      <trkpt lat="41.0603250" lon="0.6877220">
        <ele>142.5</ele>
        <time>2020-08-07T18:56:03Z</time>
      </trkpt>
      <trkpt lat="41.0603190" lon="0.6877440">
        <ele>142.6</ele>
        <time>2020-08-07T18:56:04Z</time>
      </trkpt>
      <trkpt lat="41.0603030" lon="0.6877880">
        <ele>142.9</ele>
        <time>2020-08-07T18:56:06Z</time>
      </trkpt>
      <trkpt lat="41.0602940" lon="0.6878110">
        <ele>143.1</ele>
        <time>2020-08-07T18:56:07Z</time>
      </trkpt>
      <trkpt lat="41.0602760" lon="0.6878540">
        <ele>143.3</ele>
        <time>2020-08-07T18:56:09Z</time>
      </trkpt>
      <trkpt lat="41.0602620" lon="0.6878890">
        <ele>143.6</ele>
        <time>2020-08-07T18:56:10Z</time>
      </trkpt>
      <trkpt lat="41.0602570" lon="0.6879000">
        <ele>143.7</ele>
        <time>2020-08-07T18:56:11Z</time>
      </trkpt>
      <trkpt lat="41.0602400" lon="0.6879430">
        <ele>143.9</ele>
        <time>2020-08-07T18:56:13Z</time>
      </trkpt>
      <trkpt lat="41.0602230" lon="0.6879840">
        <ele>144.2</ele>
        <time>2020-08-07T18:56:15Z</time>
      </trkpt>
      <trkpt lat="41.0602140" lon="0.6880020">
        <ele>144.3</ele>
        <time>2020-08-07T18:56:16Z</time>
      </trkpt>
      <trkpt lat="41.0601930" lon="0.6880430">
        <ele>144.6</ele>
        <time>2020-08-07T18:56:18Z</time>
      </trkpt>
      <trkpt lat="41.0601830" lon="0.6880640">
        <ele>144.8</ele>
        <time>2020-08-07T18:56:19Z</time>
      </trkpt>
      <trkpt lat="41.0601660" lon="0.6881070">
        <ele>145.0</ele>
        <time>2020-08-07T18:56:21Z</time>
      </trkpt>
      <trkpt lat="41.0601590" lon="0.6881230">
        <ele>145.1</ele>
        <time>2020-08-07T18:56:22Z</time>
      </trkpt>
      <trkpt lat="41.0601510" lon="0.6881410">
        <ele>145.3</ele>
        <time>2020-08-07T18:56:23Z</time>
      </trkpt>
      <trkpt lat="41.0601430" lon="0.6881610">
        <ele>145.4</ele>
        <time>2020-08-07T18:56:24Z</time>
      </trkpt>
      <trkpt lat="41.0601260" lon="0.6882000">
        <ele>145.7</ele>
        <time>2020-08-07T18:56:26Z</time>
      </trkpt>
      <trkpt lat="41.0601190" lon="0.6882170">
        <ele>145.8</ele>
        <time>2020-08-07T18:56:27Z</time>
      </trkpt>
      <trkpt lat="41.0601090" lon="0.6882360">
        <ele>145.9</ele>
        <time>2020-08-07T18:56:28Z</time>
      </trkpt>
      <trkpt lat="41.0600900" lon="0.6882770">
        <ele>146.2</ele>
        <time>2020-08-07T18:56:30Z</time>
      </trkpt>
      <trkpt lat="41.0600820" lon="0.6882970">
        <ele>146.3</ele>
        <time>2020-08-07T18:56:31Z</time>
      </trkpt>
      <trkpt lat="41.0600610" lon="0.6883370">
        <ele>146.6</ele>
        <time>2020-08-07T18:56:33Z</time>
      </trkpt>
      <trkpt lat="41.0600430" lon="0.6883780">
        <ele>146.9</ele>
        <time>2020-08-07T18:56:35Z</time>
      </trkpt>
      <trkpt lat="41.0600340" lon="0.6884000">
        <ele>147.0</ele>
        <time>2020-08-07T18:56:36Z</time>
      </trkpt>
      <trkpt lat="41.0600160" lon="0.6884440">
        <ele>147.3</ele>
        <time>2020-08-07T18:56:38Z</time>
      </trkpt>
      <trkpt lat="41.0600080" lon="0.6884650">
        <ele>147.5</ele>
        <time>2020-08-07T18:56:39Z</time>
      </trkpt>
      <trkpt lat="41.0599940" lon="0.6885080">
        <ele>147.8</ele>
        <time>2020-08-07T18:56:41Z</time>
      </trkpt>
      <trkpt lat="41.0599880" lon="0.6885310">
        <ele>147.9</ele>
        <time>2020-08-07T18:56:42Z</time>
      </trkpt>
      <trkpt lat="41.0599760" lon="0.6885740">
        <ele>148.2</ele>
        <time>2020-08-07T18:56:44Z</time>
      </trkpt>
      <trkpt lat="41.0599610" lon="0.6886210">
        <ele>148.5</ele>
        <time>2020-08-07T18:56:46Z</time>
      </trkpt>
      <trkpt lat="41.0599440" lon="0.6886630">
        <ele>148.8</ele>
        <time>2020-08-07T18:56:48Z</time>
      </trkpt>
      <trkpt lat="41.0599200" lon="0.6887110">
        <ele>149.1</ele>
        <time>2020-08-07T18:56:50Z</time>
      </trkpt>
      <trkpt lat="41.0599100" lon="0.6887340">
        <ele>149.2</ele>
        <time>2020-08-07T18:56:51Z</time>
      </trkpt>
      <trkpt lat="41.0598920" lon="0.6887780">
        <ele>149.5</ele>
        <time>2020-08-07T18:56:53Z</time>
      </trkpt>
      <trkpt lat="41.0598770" lon="0.6888130">
        <ele>149.7</ele>
        <time>2020-08-07T18:56:54Z</time>
      </trkpt>
      <trkpt lat="41.0598720" lon="0.6888250">
        <ele>149.8</ele>
        <time>2020-08-07T18:56:55Z</time>
      </trkpt>
      <trkpt lat="41.0598530" lon="0.6888690">
        <ele>150.1</ele>
        <time>2020-08-07T18:56:57Z</time>
      </trkpt>
      <trkpt lat="41.0598350" lon="0.6889160">
        <ele>150.4</ele>
        <time>2020-08-07T18:56:59Z</time>
      </trkpt>
      <trkpt lat="41.0598270" lon="0.6889380">
        <ele>150.6</ele>
        <time>2020-08-07T18:57:00Z</time>
      </trkpt>
      <trkpt lat="41.0598060" lon="0.6889820">
        <ele>150.9</ele>
        <time>2020-08-07T18:57:02Z</time>
      </trkpt>
      <trkpt lat="41.0597850" lon="0.6890250">
        <ele>151.2</ele>
        <time>2020-08-07T18:57:04Z</time>
      </trkpt>
      <trkpt lat="41.0597750" lon="0.6890470">
        <ele>151.3</ele>
        <time>2020-08-07T18:57:05Z</time>
      </trkpt>
      <trkpt lat="41.0597570" lon="0.6890860">
        <ele>151.6</ele>
        <time>2020-08-07T18:57:07Z</time>
      </trkpt>
      <trkpt lat="41.0597300" lon="0.6891460">
        <ele>152.0</ele>
        <time>2020-08-07T18:57:09Z</time>
      </trkpt>
      <trkpt lat="41.0597090" lon="0.6891850">
        <ele>152.3</ele>
        <time>2020-08-07T18:57:10Z</time>
      </trkpt>
      <trkpt lat="41.0597020" lon="0.6891970">
        <ele>152.4</ele>
        <time>2020-08-07T18:57:11Z</time>
      </trkpt>
      <trkpt lat="41.0596810" lon="0.6892330">
        <ele>152.7</ele>
        <time>2020-08-07T18:57:12Z</time>
      </trkpt>
      <trkpt lat="41.0596740" lon="0.6892450">
        <ele>152.8</ele>
        <time>2020-08-07T18:57:13Z</time>
      </trkpt>
      <trkpt lat="41.0596470" lon="0.6892910">
        <ele>153.1</ele>
        <time>2020-08-07T18:57:15Z</time>
      </trkpt>
      <trkpt lat="41.0596300" lon="0.6893250">
        <ele>153.4</ele>
        <time>2020-08-07T18:57:16Z</time>
      </trkpt>
      <trkpt lat="41.0596240" lon="0.6893360">
        <ele>153.5</ele>
        <time>2020-08-07T18:57:17Z</time>
      </trkpt>
      <trkpt lat="41.0596060" lon="0.6893690">
        <ele>153.7</ele>
        <time>2020-08-07T18:57:18Z</time>
      </trkpt>
      <trkpt lat="41.0595990" lon="0.6893800">
        <ele>153.8</ele>
        <time>2020-08-07T18:57:19Z</time>
      </trkpt>
      <trkpt lat="41.0595810" lon="0.6894160">
        <ele>154.1</ele>
        <time>2020-08-07T18:57:20Z</time>
      </trkpt>
      <trkpt lat="41.0595750" lon="0.6894270">
        <ele>154.1</ele>
        <time>2020-08-07T18:57:21Z</time>
      </trkpt>
      <trkpt lat="41.0595620" lon="0.6894520">
        <ele>154.3</ele>
        <time>2020-08-07T18:57:22Z</time>
      </trkpt>
      <trkpt lat="41.0595420" lon="0.6894980">
        <ele>154.6</ele>
        <time>2020-08-07T18:57:24Z</time>
      </trkpt>
      <trkpt lat="41.0595290" lon="0.6895300">
        <ele>154.8</ele>
        <time>2020-08-07T18:57:25Z</time>
      </trkpt>
      <trkpt lat="41.0595240" lon="0.6895410">
        <ele>154.9</ele>
        <time>2020-08-07T18:57:26Z</time>
      </trkpt>
      <trkpt lat="41.0595140" lon="0.6895650">
        <ele>155.1</ele>
        <time>2020-08-07T18:57:27Z</time>
      </trkpt>
      <trkpt lat="41.0594920" lon="0.6896090">
        <ele>155.4</ele>
        <time>2020-08-07T18:57:29Z</time>
      </trkpt>
      <trkpt lat="41.0594820" lon="0.6896310">
        <ele>155.6</ele>
        <time>2020-08-07T18:57:30Z</time>
      </trkpt>
      <trkpt lat="41.0594620" lon="0.6896740">
        <ele>155.9</ele>
        <time>2020-08-07T18:57:32Z</time>
      </trkpt>
      <trkpt lat="41.0594520" lon="0.6896930">
        <ele>156.0</ele>
        <time>2020-08-07T18:57:33Z</time>
      </trkpt>
      <trkpt lat="41.0594330" lon="0.6897360">
        <ele>156.3</ele>
        <time>2020-08-07T18:57:35Z</time>
      </trkpt>
      <trkpt lat="41.0594180" lon="0.6897720">
        <ele>156.6</ele>
        <time>2020-08-07T18:57:36Z</time>
      </trkpt>
      <trkpt lat="41.0594120" lon="0.6897830">
        <ele>156.6</ele>
        <time>2020-08-07T18:57:37Z</time>
      </trkpt>
      <trkpt lat="41.0593920" lon="0.6898300">
        <ele>157.0</ele>
        <time>2020-08-07T18:57:39Z</time>
      </trkpt>
      <trkpt lat="41.0593770" lon="0.6898620">
        <ele>157.2</ele>
        <time>2020-08-07T18:57:40Z</time>
      </trkpt>
      <trkpt lat="41.0593710" lon="0.6898720">
        <ele>157.3</ele>
        <time>2020-08-07T18:57:41Z</time>
      </trkpt>
      <trkpt lat="41.0593550" lon="0.6899040">
        <ele>157.5</ele>
        <time>2020-08-07T18:57:42Z</time>
      </trkpt>
      <trkpt lat="41.0593500" lon="0.6899140">
        <ele>157.6</ele>
        <time>2020-08-07T18:57:43Z</time>
      </trkpt>
      <trkpt lat="41.0593270" lon="0.6899570">
        <ele>157.9</ele>
        <time>2020-08-07T18:57:45Z</time>
      </trkpt>
      <trkpt lat="41.0593090" lon="0.6899920">
        <ele>158.1</ele>
        <time>2020-08-07T18:57:47Z</time>
      </trkpt>
      <trkpt lat="41.0592900" lon="0.6900300">
        <ele>158.4</ele>
        <time>2020-08-07T18:57:49Z</time>
      </trkpt>
      <trkpt lat="41.0592690" lon="0.6900690">
        <ele>158.7</ele>
        <time>2020-08-07T18:57:51Z</time>
      </trkpt>
      <trkpt lat="41.0592580" lon="0.6900890">
        <ele>158.9</ele>
        <time>2020-08-07T18:57:52Z</time>
      </trkpt>
      <trkpt lat="41.0592370" lon="0.6901280">
        <ele>159.2</ele>
        <time>2020-08-07T18:57:54Z</time>
      </trkpt>
      <trkpt lat="41.0592280" lon="0.6901470">
        <ele>159.3</ele>
        <time>2020-08-07T18:57:55Z</time>
      </trkpt>
      <trkpt lat="41.0592080" lon="0.6901840">
        <ele>159.6</ele>
        <time>2020-08-07T18:57:57Z</time>
      </trkpt>
      <trkpt lat="41.0591970" lon="0.6902050">
        <ele>159.8</ele>
        <time>2020-08-07T18:57:58Z</time>
      </trkpt>
      <trkpt lat="41.0591880" lon="0.6902230">
        <ele>159.9</ele>
        <time>2020-08-07T18:57:59Z</time>
      </trkpt>
      <trkpt lat="41.0591690" lon="0.6902640">
        <ele>160.2</ele>
        <time>2020-08-07T18:58:01Z</time>
      </trkpt>
      <trkpt lat="41.0591610" lon="0.6902840">
        <ele>160.4</ele>
        <time>2020-08-07T18:58:02Z</time>
      </trkpt>
      <trkpt lat="41.0591540" lon="0.6903020">
        <ele>160.5</ele>
        <time>2020-08-07T18:58:03Z</time>
      </trkpt>
      <trkpt lat="41.0591370" lon="0.6903390">
        <ele>160.8</ele>
        <time>2020-08-07T18:58:05Z</time>
      </trkpt>
      <trkpt lat="41.0591230" lon="0.6903570">
        <ele>160.9</ele>
        <time>2020-08-07T18:58:06Z</time>
      </trkpt>
      <trkpt lat="41.0590990" lon="0.6903950">
        <ele>161.2</ele>
        <time>2020-08-07T18:58:08Z</time>
      </trkpt>
      <trkpt lat="41.0590770" lon="0.6904340">
        <ele>161.5</ele>
        <time>2020-08-07T18:58:10Z</time>
      </trkpt>
      <trkpt lat="41.0590660" lon="0.6904560">
        <ele>161.7</ele>
        <time>2020-08-07T18:58:11Z</time>
      </trkpt>
      <trkpt lat="41.0590470" lon="0.6904990">
        <ele>162.0</ele>
        <time>2020-08-07T18:58:13Z</time>
      </trkpt>
      <trkpt lat="41.0590360" lon="0.6905200">
        <ele>162.2</ele>
        <time>2020-08-07T18:58:14Z</time>
      </trkpt>
      <trkpt lat="41.0590170" lon="0.6905640">
        <ele>162.4</ele>
        <time>2020-08-07T18:58:16Z</time>
      </trkpt>
      <trkpt lat="41.0589970" lon="0.6906110">
        <ele>162.7</ele>
        <time>2020-08-07T18:58:18Z</time>
      </trkpt>
      <trkpt lat="41.0589870" lon="0.6906350">
        <ele>162.9</ele>
        <time>2020-08-07T18:58:19Z</time>
      </trkpt>
      <trkpt lat="41.0589690" lon="0.6906830">
        <ele>163.2</ele>
        <time>2020-08-07T18:58:21Z</time>
      </trkpt>
      <trkpt lat="41.0589610" lon="0.6907060">
        <ele>163.3</ele>
        <time>2020-08-07T18:58:22Z</time>
      </trkpt>
      <trkpt lat="41.0589440" lon="0.6907520">
        <ele>163.6</ele>
        <time>2020-08-07T18:58:24Z</time>
      </trkpt>
      <trkpt lat="41.0589300" lon="0.6907840">
        <ele>163.8</ele>
        <time>2020-08-07T18:58:25Z</time>
      </trkpt>
      <trkpt lat="41.0589250" lon="0.6907930">
        <ele>163.9</ele>
        <time>2020-08-07T18:58:26Z</time>
      </trkpt>
      <trkpt lat="41.0589020" lon="0.6908340">
        <ele>164.2</ele>
        <time>2020-08-07T18:58:28Z</time>
      </trkpt>
      <trkpt lat="41.0588760" lon="0.6908740">
        <ele>164.5</ele>
        <time>2020-08-07T18:58:30Z</time>
      </trkpt>
      <trkpt lat="41.0588560" lon="0.6909060">
        <ele>164.7</ele>
        <time>2020-08-07T18:58:31Z</time>
      </trkpt>
      <trkpt lat="41.0588490" lon="0.6909170">
        <ele>164.8</ele>
        <time>2020-08-07T18:58:32Z</time>
      </trkpt>
      <trkpt lat="41.0588240" lon="0.6909640">
        <ele>165.1</ele>
        <time>2020-08-07T18:58:34Z</time>
      </trkpt>
      <trkpt lat="41.0588120" lon="0.6909880">
        <ele>165.2</ele>
        <time>2020-08-07T18:58:35Z</time>
      </trkpt>
      <trkpt lat="41.0587890" lon="0.6910360">
        <ele>165.5</ele>
        <time>2020-08-07T18:58:37Z</time>
      </trkpt>
      <trkpt lat="41.0587730" lon="0.6910700">
        <ele>165.8</ele>
        <time>2020-08-07T18:58:38Z</time>
      </trkpt>
      <trkpt lat="41.0587680" lon="0.6910810">
        <ele>165.9</ele>
        <time>2020-08-07T18:58:39Z</time>
      </trkpt>
      <trkpt lat="41.0587490" lon="0.6911330">
        <ele>166.2</ele>
        <time>2020-08-07T18:58:41Z</time>
      </trkpt>
      <trkpt lat="41.0587370" lon="0.6911590">
        <ele>166.4</ele>
        <time>2020-08-07T18:58:42Z</time>
      </trkpt>
      <trkpt lat="41.0587170" lon="0.6912070">
        <ele>166.8</ele>
        <time>2020-08-07T18:58:44Z</time>
      </trkpt>
      <trkpt lat="41.0587010" lon="0.6912530">
        <ele>167.1</ele>
        <time>2020-08-07T18:58:46Z</time>
      </trkpt>
      <trkpt lat="41.0586910" lon="0.6912780">
        <ele>167.2</ele>
        <time>2020-08-07T18:58:47Z</time>
      </trkpt>
      <trkpt lat="41.0586710" lon="0.6913290">
        <ele>167.6</ele>
        <time>2020-08-07T18:58:49Z</time>
      </trkpt>
      <trkpt lat="41.0586560" lon="0.6913680">
        <ele>167.9</ele>
        <time>2020-08-07T18:58:50Z</time>
      </trkpt>
      <trkpt lat="41.0586510" lon="0.6913800">
        <ele>167.9</ele>
        <time>2020-08-07T18:58:51Z</time>
      </trkpt>
      <trkpt lat="41.0586390" lon="0.6914250">
        <ele>168.2</ele>
        <time>2020-08-07T18:58:53Z</time>
      </trkpt>
      <trkpt lat="41.0586250" lon="0.6914710">
        <ele>168.5</ele>
        <time>2020-08-07T18:58:55Z</time>
      </trkpt>
      <trkpt lat="41.0586200" lon="0.6914970">
        <ele>168.6</ele>
        <time>2020-08-07T18:58:56Z</time>
      </trkpt>
      <trkpt lat="41.0586070" lon="0.6915510">
        <ele>169.0</ele>
        <time>2020-08-07T18:58:58Z</time>
      </trkpt>
      <trkpt lat="41.0585990" lon="0.6916040">
        <ele>169.2</ele>
        <time>2020-08-07T18:59:00Z</time>
      </trkpt>
      <trkpt lat="41.0585920" lon="0.6916290">
        <ele>169.4</ele>
        <time>2020-08-07T18:59:01Z</time>
      </trkpt>
      <trkpt lat="41.0585800" lon="0.6916770">
        <ele>169.6</ele>
        <time>2020-08-07T18:59:03Z</time>
      </trkpt>
      <trkpt lat="41.0585720" lon="0.6917130">
        <ele>169.8</ele>
        <time>2020-08-07T18:59:04Z</time>
      </trkpt>
      <trkpt lat="41.0585690" lon="0.6917250">
        <ele>169.8</ele>
        <time>2020-08-07T18:59:05Z</time>
      </trkpt>
      <trkpt lat="41.0585590" lon="0.6917700">
        <ele>170.0</ele>
        <time>2020-08-07T18:59:07Z</time>
      </trkpt>
      <trkpt lat="41.0585520" lon="0.6918170">
        <ele>170.2</ele>
        <time>2020-08-07T18:59:09Z</time>
      </trkpt>
      <trkpt lat="41.0585470" lon="0.6918620">
        <ele>170.4</ele>
        <time>2020-08-07T18:59:11Z</time>
      </trkpt>
      <trkpt lat="41.0585450" lon="0.6918880">
        <ele>170.5</ele>
        <time>2020-08-07T18:59:12Z</time>
      </trkpt>
      <trkpt lat="41.0585370" lon="0.6919420">
        <ele>170.7</ele>
        <time>2020-08-07T18:59:14Z</time>
      </trkpt>
      <trkpt lat="41.0585320" lon="0.6919680">
        <ele>170.8</ele>
        <time>2020-08-07T18:59:15Z</time>
      </trkpt>
      <trkpt lat="41.0585250" lon="0.6920190">
        <ele>171.0</ele>
        <time>2020-08-07T18:59:17Z</time>
      </trkpt>
      <trkpt lat="41.0585210" lon="0.6920590">
        <ele>171.2</ele>
        <time>2020-08-07T18:59:18Z</time>
      </trkpt>
      <trkpt lat="41.0585190" lon="0.6920720">
        <ele>171.2</ele>
        <time>2020-08-07T18:59:19Z</time>
      </trkpt>
      <trkpt lat="41.0585130" lon="0.6921270">
        <ele>171.4</ele>
        <time>2020-08-07T18:59:21Z</time>
      </trkpt>
      <trkpt lat="41.0585100" lon="0.6921510">
        <ele>171.5</ele>
        <time>2020-08-07T18:59:22Z</time>
      </trkpt>
      <trkpt lat="41.0585040" lon="0.6922050">
        <ele>171.7</ele>
        <time>2020-08-07T18:59:24Z</time>
      </trkpt>
      <trkpt lat="41.0585010" lon="0.6922280">
        <ele>171.8</ele>
        <time>2020-08-07T18:59:25Z</time>
      </trkpt>
      <trkpt lat="41.0584960" lon="0.6922770">
        <ele>171.9</ele>
        <time>2020-08-07T18:59:27Z</time>
      </trkpt>
      <trkpt lat="41.0584930" lon="0.6923030">
        <ele>172.0</ele>
        <time>2020-08-07T18:59:28Z</time>
      </trkpt>
      <trkpt lat="41.0584890" lon="0.6923590">
        <ele>172.2</ele>
        <time>2020-08-07T18:59:30Z</time>
      </trkpt>
      <trkpt lat="41.0584840" lon="0.6924170">
        <ele>172.3</ele>
        <time>2020-08-07T18:59:32Z</time>
      </trkpt>
      <trkpt lat="41.0584810" lon="0.6924450">
        <ele>172.4</ele>
        <time>2020-08-07T18:59:33Z</time>
      </trkpt>
      <trkpt lat="41.0584750" lon="0.6925020">
        <ele>172.6</ele>
        <time>2020-08-07T18:59:35Z</time>
      </trkpt>
      <trkpt lat="41.0584720" lon="0.6925310">
        <ele>172.7</ele>
        <time>2020-08-07T18:59:36Z</time>
      </trkpt>
      <trkpt lat="41.0584680" lon="0.6925890">
        <ele>172.8</ele>
        <time>2020-08-07T18:59:38Z</time>
      </trkpt>
      <trkpt lat="41.0584650" lon="0.6926470">
        <ele>173.0</ele>
        <time>2020-08-07T18:59:40Z</time>
      </trkpt>
      <trkpt lat="41.0584590" lon="0.6927080">
        <ele>173.1</ele>
        <time>2020-08-07T18:59:42Z</time>
      </trkpt>
      <trkpt lat="41.0584550" lon="0.6927360">
        <ele>173.2</ele>
        <time>2020-08-07T18:59:43Z</time>
      </trkpt>
      <trkpt lat="41.0584510" lon="0.6927790">
        <ele>173.3</ele>
        <time>2020-08-07T18:59:45Z</time>
      </trkpt>
      <trkpt lat="41.0584500" lon="0.6927940">
        <ele>173.3</ele>
        <time>2020-08-07T18:59:46Z</time>
      </trkpt>
      <trkpt lat="41.0584510" lon="0.6927940">
        <ele>173.3</ele>
        <time>2020-08-07T18:59:47Z</time>
      </trkpt>
      <trkpt lat="41.0584560" lon="0.6927920">
        <ele>173.3</ele>
        <time>2020-08-07T18:59:49Z</time>
      </trkpt>
      <trkpt lat="41.0584590" lon="0.6927870">
        <ele>173.4</ele>
        <time>2020-08-07T18:59:50Z</time>
      </trkpt>
      <trkpt lat="41.0584690" lon="0.6927650">
        <ele>173.4</ele>
        <time>2020-08-07T18:59:52Z</time>
      </trkpt>
      <trkpt lat="41.0584720" lon="0.6927590">
        <ele>173.4</ele>
        <time>2020-08-07T18:59:53Z</time>
      </trkpt>
      <trkpt lat="41.0584720" lon="0.6927550">
        <ele>173.4</ele>
        <time>2020-08-07T18:59:55Z</time>
      </trkpt>
      <trkpt lat="41.0584690" lon="0.6927580">
        <ele>173.5</ele>
        <time>2020-08-07T18:59:57Z</time>
      </trkpt>
      <trkpt lat="41.0584660" lon="0.6927620">
        <ele>173.5</ele>
        <time>2020-08-07T18:59:58Z</time>
      </trkpt>
      <trkpt lat="41.0584640" lon="0.6927680">
        <ele>173.5</ele>
        <time>2020-08-07T19:00:00Z</time>
      </trkpt>
      <trkpt lat="41.0584640" lon="0.6927690">
        <ele>173.5</ele>
        <time>2020-08-07T19:00:02Z</time>
      </trkpt>
      <trkpt lat="41.0584640" lon="0.6927680">
        <ele>173.5</ele>
        <time>2020-08-07T19:00:03Z</time>
      </trkpt>
      <trkpt lat="41.0584460" lon="0.6927910">
        <ele>173.6</ele>
        <time>2020-08-07T19:00:35Z</time>
      </trkpt>
      <trkpt lat="41.0584410" lon="0.6927970">
        <ele>173.6</ele>
        <time>2020-08-07T19:00:37Z</time>
      </trkpt>
      <trkpt lat="41.0584390" lon="0.6928010">
        <ele>173.6</ele>
        <time>2020-08-07T19:00:38Z</time>
      </trkpt>
      <trkpt lat="41.0584390" lon="0.6928030">
        <ele>173.6</ele>
        <time>2020-08-07T19:00:39Z</time>
      </trkpt>
      <trkpt lat="41.0584380" lon="0.6928030">
        <ele>173.6</ele>
        <time>2020-08-07T19:00:40Z</time>
      </trkpt>
      <trkpt lat="41.0584390" lon="0.6928010">
        <ele>173.6</ele>
        <time>2020-08-07T19:00:42Z</time>
      </trkpt>
      <trkpt lat="41.0584380" lon="0.6927990">
        <ele>173.6</ele>
        <time>2020-08-07T19:00:43Z</time>
      </trkpt>
      <trkpt lat="41.0584380" lon="0.6927970">
        <ele>173.6</ele>
        <time>2020-08-07T19:00:44Z</time>
      </trkpt>
      <trkpt lat="41.0584380" lon="0.6927960">
        <ele>173.6</ele>
        <time>2020-08-07T19:00:45Z</time>
      </trkpt>
      <trkpt lat="41.0584380" lon="0.6927950">
        <ele>173.6</ele>
        <time>2020-08-07T19:00:46Z</time>
      </trkpt>
      <trkpt lat="41.0584370" lon="0.6927950">
        <ele>173.6</ele>
        <time>2020-08-07T19:00:47Z</time>
      </trkpt>
      <trkpt lat="41.0584370" lon="0.6927950">
        <ele>173.6</ele>
        <time>2020-08-07T19:00:48Z</time>
      </trkpt>
      <trkpt lat="41.0584390" lon="0.6928430">
        <ele>173.7</ele>
        <time>2020-08-07T19:01:39Z</time>
      </trkpt>
      <trkpt lat="41.0584350" lon="0.6928980">
        <ele>173.9</ele>
        <time>2020-08-07T19:01:41Z</time>
      </trkpt>
      <trkpt lat="41.0584340" lon="0.6929490">
        <ele>174.0</ele>
        <time>2020-08-07T19:01:42Z</time>
      </trkpt>
      <trkpt lat="41.0584330" lon="0.6929660">
        <ele>174.0</ele>
        <time>2020-08-07T19:01:43Z</time>
      </trkpt>
      <trkpt lat="41.0584280" lon="0.6930340">
        <ele>174.1</ele>
        <time>2020-08-07T19:01:45Z</time>
      </trkpt>
      <trkpt lat="41.0584210" lon="0.6930920">
        <ele>174.1</ele>
        <time>2020-08-07T19:01:47Z</time>
      </trkpt>
      <trkpt lat="41.0584190" lon="0.6931380">
        <ele>174.2</ele>
        <time>2020-08-07T19:01:48Z</time>
      </trkpt>
      <trkpt lat="41.0584180" lon="0.6931550">
        <ele>174.2</ele>
        <time>2020-08-07T19:01:49Z</time>
      </trkpt>
      <trkpt lat="41.0584170" lon="0.6931890">
        <ele>174.2</ele>
        <time>2020-08-07T19:01:50Z</time>
      </trkpt>
      <trkpt lat="41.0584180" lon="0.6932550">
        <ele>174.2</ele>
        <time>2020-08-07T19:01:52Z</time>
      </trkpt>
      <trkpt lat="41.0584220" lon="0.6933240">
        <ele>174.2</ele>
        <time>2020-08-07T19:01:54Z</time>
      </trkpt>
      <trkpt lat="41.0584230" lon="0.6933610">
        <ele>174.2</ele>
        <time>2020-08-07T19:01:56Z</time>
      </trkpt>
      <trkpt lat="41.0584230" lon="0.6934260">
        <ele>174.3</ele>
        <time>2020-08-07T19:01:57Z</time>
      </trkpt>
      <trkpt lat="41.0584220" lon="0.6934560">
        <ele>174.3</ele>
        <time>2020-08-07T19:01:58Z</time>
      </trkpt>
      <trkpt lat="41.0584150" lon="0.6935210">
        <ele>174.3</ele>
        <time>2020-08-07T19:02:00Z</time>
      </trkpt>
      <trkpt lat="41.0584110" lon="0.6935570">
        <ele>174.3</ele>
        <time>2020-08-07T19:02:01Z</time>
      </trkpt>
      <trkpt lat="41.0584040" lon="0.6936340">
        <ele>174.4</ele>
        <time>2020-08-07T19:02:03Z</time>
      </trkpt>
      <trkpt lat="41.0584010" lon="0.6936720">
        <ele>174.4</ele>
        <time>2020-08-07T19:02:04Z</time>
      </trkpt>
      <trkpt lat="41.0583980" lon="0.6937100">
        <ele>174.4</ele>
        <time>2020-08-07T19:02:05Z</time>
      </trkpt>
      <trkpt lat="41.0583870" lon="0.6937880">
        <ele>174.4</ele>
        <time>2020-08-07T19:02:07Z</time>
      </trkpt>
      <trkpt lat="41.0583790" lon="0.6938280">
        <ele>174.4</ele>
        <time>2020-08-07T19:02:08Z</time>
      </trkpt>
      <trkpt lat="41.0583720" lon="0.6938690">
        <ele>174.4</ele>
        <time>2020-08-07T19:02:09Z</time>
      </trkpt>
      <trkpt lat="41.0583600" lon="0.6939600">
        <ele>174.4</ele>
        <time>2020-08-07T19:02:11Z</time>
      </trkpt>
      <trkpt lat="41.0583560" lon="0.6940060">
        <ele>174.4</ele>
        <time>2020-08-07T19:02:12Z</time>
      </trkpt>
      <trkpt lat="41.0583490" lon="0.6940940">
        <ele>174.3</ele>
        <time>2020-08-07T19:02:14Z</time>
      </trkpt>
      <trkpt lat="41.0583460" lon="0.6941380">
        <ele>174.3</ele>
        <time>2020-08-07T19:02:15Z</time>
      </trkpt>
      <trkpt lat="41.0583410" lon="0.6942320">
        <ele>174.2</ele>
        <time>2020-08-07T19:02:17Z</time>
      </trkpt>
      <trkpt lat="41.0583360" lon="0.6943220">
        <ele>174.2</ele>
        <time>2020-08-07T19:02:19Z</time>
      </trkpt>
      <trkpt lat="41.0583330" lon="0.6943690">
        <ele>174.1</ele>
        <time>2020-08-07T19:02:20Z</time>
      </trkpt>
      <trkpt lat="41.0583270" lon="0.6944710">
        <ele>174.1</ele>
        <time>2020-08-07T19:02:22Z</time>
      </trkpt>
      <trkpt lat="41.0583230" lon="0.6945220">
        <ele>174.0</ele>
        <time>2020-08-07T19:02:23Z</time>
      </trkpt>
      <trkpt lat="41.0583130" lon="0.6946220">
        <ele>174.0</ele>
        <time>2020-08-07T19:02:25Z</time>
      </trkpt>
      <trkpt lat="41.0583080" lon="0.6946750">
        <ele>173.9</ele>
        <time>2020-08-07T19:02:26Z</time>
      </trkpt>
      <trkpt lat="41.0583040" lon="0.6947300">
        <ele>173.9</ele>
        <time>2020-08-07T19:02:27Z</time>
      </trkpt>
      <trkpt lat="41.0582990" lon="0.6947850">
        <ele>173.9</ele>
        <time>2020-08-07T19:02:28Z</time>
      </trkpt>
      <trkpt lat="41.0582950" lon="0.6948410">
        <ele>173.9</ele>
        <time>2020-08-07T19:02:29Z</time>
      </trkpt>
      <trkpt lat="41.0582910" lon="0.6948970">
        <ele>173.9</ele>
        <time>2020-08-07T19:02:30Z</time>
      </trkpt>
      <trkpt lat="41.0582880" lon="0.6949550">
        <ele>173.9</ele>
        <time>2020-08-07T19:02:31Z</time>
      </trkpt>
      <trkpt lat="41.0582810" lon="0.6950620">
        <ele>173.8</ele>
        <time>2020-08-07T19:02:33Z</time>
      </trkpt>
      <trkpt lat="41.0582760" lon="0.6951100">
        <ele>173.8</ele>
        <time>2020-08-07T19:02:34Z</time>
      </trkpt>
      <trkpt lat="41.0582720" lon="0.6951610">
        <ele>173.8</ele>
        <time>2020-08-07T19:02:35Z</time>
      </trkpt>
      <trkpt lat="41.0582680" lon="0.6952130">
        <ele>173.8</ele>
        <time>2020-08-07T19:02:36Z</time>
      </trkpt>
      <trkpt lat="41.0582570" lon="0.6953310">
        <ele>173.8</ele>
        <time>2020-08-07T19:02:38Z</time>
      </trkpt>
      <trkpt lat="41.0582510" lon="0.6953910">
        <ele>173.8</ele>
        <time>2020-08-07T19:02:39Z</time>
      </trkpt>
      <trkpt lat="41.0582460" lon="0.6954460">
        <ele>173.8</ele>
        <time>2020-08-07T19:02:40Z</time>
      </trkpt>
      <trkpt lat="41.0582410" lon="0.6955080">
        <ele>173.8</ele>
        <time>2020-08-07T19:02:41Z</time>
      </trkpt>
      <trkpt lat="41.0582320" lon="0.6956290">
        <ele>173.8</ele>
        <time>2020-08-07T19:02:43Z</time>
      </trkpt>
      <trkpt lat="41.0582190" lon="0.6957470">
        <ele>173.8</ele>
        <time>2020-08-07T19:02:45Z</time>
      </trkpt>
      <trkpt lat="41.0582000" lon="0.6958660">
        <ele>173.8</ele>
        <time>2020-08-07T19:02:47Z</time>
      </trkpt>
      <trkpt lat="41.0581920" lon="0.6959160">
        <ele>173.8</ele>
        <time>2020-08-07T19:02:48Z</time>
      </trkpt>
      <trkpt lat="41.0581720" lon="0.6960350">
        <ele>173.9</ele>
        <time>2020-08-07T19:02:50Z</time>
      </trkpt>
      <trkpt lat="41.0581630" lon="0.6960900">
        <ele>173.9</ele>
        <time>2020-08-07T19:02:51Z</time>
      </trkpt>
      <trkpt lat="41.0581400" lon="0.6962060">
        <ele>174.0</ele>
        <time>2020-08-07T19:02:53Z</time>
      </trkpt>
      <trkpt lat="41.0581300" lon="0.6962560">
        <ele>174.0</ele>
        <time>2020-08-07T19:02:54Z</time>
      </trkpt>
      <trkpt lat="41.0581150" lon="0.6963130">
        <ele>174.1</ele>
        <time>2020-08-07T19:02:55Z</time>
      </trkpt>
      <trkpt lat="41.0580830" lon="0.6964180">
        <ele>174.2</ele>
        <time>2020-08-07T19:02:57Z</time>
      </trkpt>
      <trkpt lat="41.0580680" lon="0.6964680">
        <ele>174.2</ele>
        <time>2020-08-07T19:02:58Z</time>
      </trkpt>
      <trkpt lat="41.0580400" lon="0.6965720">
        <ele>174.2</ele>
        <time>2020-08-07T19:03:00Z</time>
      </trkpt>
      <trkpt lat="41.0580100" lon="0.6966730">
        <ele>174.3</ele>
        <time>2020-08-07T19:03:02Z</time>
      </trkpt>
      <trkpt lat="41.0579930" lon="0.6967220">
        <ele>174.3</ele>
        <time>2020-08-07T19:03:03Z</time>
      </trkpt>
      <trkpt lat="41.0579740" lon="0.6967700">
        <ele>174.4</ele>
        <time>2020-08-07T19:03:04Z</time>
      </trkpt>
      <trkpt lat="41.0579340" lon="0.6968650">
        <ele>174.5</ele>
        <time>2020-08-07T19:03:06Z</time>
      </trkpt>
      <trkpt lat="41.0579140" lon="0.6969100">
        <ele>174.5</ele>
        <time>2020-08-07T19:03:07Z</time>
      </trkpt>
      <trkpt lat="41.0578940" lon="0.6969560">
        <ele>174.5</ele>
        <time>2020-08-07T19:03:08Z</time>
      </trkpt>
      <trkpt lat="41.0578550" lon="0.6970470">
        <ele>174.6</ele>
        <time>2020-08-07T19:03:10Z</time>
      </trkpt>
      <trkpt lat="41.0578170" lon="0.6971360">
        <ele>174.7</ele>
        <time>2020-08-07T19:03:12Z</time>
      </trkpt>
      <trkpt lat="41.0577800" lon="0.6972190">
        <ele>174.8</ele>
        <time>2020-08-07T19:03:14Z</time>
      </trkpt>
      <trkpt lat="41.0577440" lon="0.6973100">
        <ele>174.9</ele>
        <time>2020-08-07T19:03:16Z</time>
      </trkpt>
      <trkpt lat="41.0577250" lon="0.6973590">
        <ele>175.0</ele>
        <time>2020-08-07T19:03:17Z</time>
      </trkpt>
      <trkpt lat="41.0577070" lon="0.6974030">
        <ele>175.0</ele>
        <time>2020-08-07T19:03:18Z</time>
      </trkpt>
      <trkpt lat="41.0576880" lon="0.6974490">
        <ele>175.0</ele>
        <time>2020-08-07T19:03:19Z</time>
      </trkpt>
      <trkpt lat="41.0576700" lon="0.6974950">
        <ele>175.1</ele>
        <time>2020-08-07T19:03:20Z</time>
      </trkpt>
      <trkpt lat="41.0576360" lon="0.6975780">
        <ele>175.2</ele>
        <time>2020-08-07T19:03:22Z</time>
      </trkpt>
      <trkpt lat="41.0576040" lon="0.6976610">
        <ele>175.2</ele>
        <time>2020-08-07T19:03:24Z</time>
      </trkpt>
      <trkpt lat="41.0575880" lon="0.6977040">
        <ele>175.3</ele>
        <time>2020-08-07T19:03:25Z</time>
      </trkpt>
      <trkpt lat="41.0575750" lon="0.6977400">
        <ele>175.3</ele>
        <time>2020-08-07T19:03:26Z</time>
      </trkpt>
      <trkpt lat="41.0575440" lon="0.6978260">
        <ele>175.4</ele>
        <time>2020-08-07T19:03:28Z</time>
      </trkpt>
      <trkpt lat="41.0575280" lon="0.6978710">
        <ele>175.5</ele>
        <time>2020-08-07T19:03:29Z</time>
      </trkpt>
      <trkpt lat="41.0575120" lon="0.6979160">
        <ele>175.5</ele>
        <time>2020-08-07T19:03:30Z</time>
      </trkpt>
      <trkpt lat="41.0574980" lon="0.6979560">
        <ele>175.6</ele>
        <time>2020-08-07T19:03:31Z</time>
      </trkpt>
      <trkpt lat="41.0574630" lon="0.6980470">
        <ele>175.7</ele>
        <time>2020-08-07T19:03:33Z</time>
      </trkpt>
      <trkpt lat="41.0574460" lon="0.6980890">
        <ele>175.7</ele>
        <time>2020-08-07T19:03:34Z</time>
      </trkpt>
      <trkpt lat="41.0574300" lon="0.6981310">
        <ele>175.7</ele>
        <time>2020-08-07T19:03:35Z</time>
      </trkpt>
      <trkpt lat="41.0574130" lon="0.6981770">
        <ele>175.8</ele>
        <time>2020-08-07T19:03:36Z</time>
      </trkpt>
      <trkpt lat="41.0573950" lon="0.6982230">
        <ele>175.8</ele>
        <time>2020-08-07T19:03:37Z</time>
      </trkpt>
      <trkpt lat="41.0573770" lon="0.6982670">
        <ele>175.9</ele>
        <time>2020-08-07T19:03:38Z</time>
      </trkpt>
      <trkpt lat="41.0573430" lon="0.6983500">
        <ele>176.0</ele>
        <time>2020-08-07T19:03:40Z</time>
      </trkpt>
      <trkpt lat="41.0573260" lon="0.6983940">
        <ele>176.0</ele>
        <time>2020-08-07T19:03:41Z</time>
      </trkpt>
      <trkpt lat="41.0572930" lon="0.6984790">
        <ele>176.0</ele>
        <time>2020-08-07T19:03:43Z</time>
      </trkpt>
      <trkpt lat="41.0572760" lon="0.6985260">
        <ele>176.1</ele>
        <time>2020-08-07T19:03:44Z</time>
      </trkpt>
      <trkpt lat="41.0572420" lon="0.6986170">
        <ele>176.2</ele>
        <time>2020-08-07T19:03:46Z</time>
      </trkpt>
      <trkpt lat="41.0572250" lon="0.6986620">
        <ele>176.3</ele>
        <time>2020-08-07T19:03:47Z</time>
      </trkpt>
      <trkpt lat="41.0571920" lon="0.6987510">
        <ele>176.4</ele>
        <time>2020-08-07T19:03:49Z</time>
      </trkpt>
      <trkpt lat="41.0571780" lon="0.6987910">
        <ele>176.4</ele>
        <time>2020-08-07T19:03:50Z</time>
      </trkpt>
      <trkpt lat="41.0571460" lon="0.6988820">
        <ele>176.6</ele>
        <time>2020-08-07T19:03:52Z</time>
      </trkpt>
      <trkpt lat="41.0571320" lon="0.6989220">
        <ele>176.7</ele>
        <time>2020-08-07T19:03:53Z</time>
      </trkpt>
      <trkpt lat="41.0571000" lon="0.6990120">
        <ele>176.8</ele>
        <time>2020-08-07T19:03:55Z</time>
      </trkpt>
      <trkpt lat="41.0570820" lon="0.6990580">
        <ele>176.9</ele>
        <time>2020-08-07T19:03:56Z</time>
      </trkpt>
      <trkpt lat="41.0570640" lon="0.6991060">
        <ele>177.0</ele>
        <time>2020-08-07T19:03:57Z</time>
      </trkpt>
      <trkpt lat="41.0570480" lon="0.6991540">
        <ele>177.0</ele>
        <time>2020-08-07T19:03:58Z</time>
      </trkpt>
      <trkpt lat="41.0570150" lon="0.6992520">
        <ele>177.2</ele>
        <time>2020-08-07T19:04:00Z</time>
      </trkpt>
      <trkpt lat="41.0569970" lon="0.6993000">
        <ele>177.2</ele>
        <time>2020-08-07T19:04:01Z</time>
      </trkpt>
      <trkpt lat="41.0569610" lon="0.6993930">
        <ele>177.3</ele>
        <time>2020-08-07T19:04:03Z</time>
      </trkpt>
      <trkpt lat="41.0569430" lon="0.6994410">
        <ele>177.4</ele>
        <time>2020-08-07T19:04:04Z</time>
      </trkpt>
      <trkpt lat="41.0569240" lon="0.6994890">
        <ele>177.5</ele>
        <time>2020-08-07T19:04:05Z</time>
      </trkpt>
      <trkpt lat="41.0568860" lon="0.6995840">
        <ele>177.7</ele>
        <time>2020-08-07T19:04:07Z</time>
      </trkpt>
      <trkpt lat="41.0568670" lon="0.6996320">
        <ele>177.8</ele>
        <time>2020-08-07T19:04:08Z</time>
      </trkpt>
      <trkpt lat="41.0568490" lon="0.6996800">
        <ele>177.9</ele>
        <time>2020-08-07T19:04:09Z</time>
      </trkpt>
      <trkpt lat="41.0568130" lon="0.6997750">
        <ele>178.1</ele>
        <time>2020-08-07T19:04:11Z</time>
      </trkpt>
      <trkpt lat="41.0567940" lon="0.6998220">
        <ele>178.1</ele>
        <time>2020-08-07T19:04:12Z</time>
      </trkpt>
      <trkpt lat="41.0567540" lon="0.6999200">
        <ele>178.3</ele>
        <time>2020-08-07T19:04:14Z</time>
      </trkpt>
      <trkpt lat="41.0567320" lon="0.6999690">
        <ele>178.4</ele>
        <time>2020-08-07T19:04:15Z</time>
      </trkpt>
      <trkpt lat="41.0566930" lon="0.7000620">
        <ele>178.6</ele>
        <time>2020-08-07T19:04:17Z</time>
      </trkpt>
      <trkpt lat="41.0566750" lon="0.7001090">
        <ele>178.7</ele>
        <time>2020-08-07T19:04:18Z</time>
      </trkpt>
      <trkpt lat="41.0566420" lon="0.7002010">
        <ele>178.9</ele>
        <time>2020-08-07T19:04:20Z</time>
      </trkpt>
      <trkpt lat="41.0566070" lon="0.7002980">
        <ele>179.0</ele>
        <time>2020-08-07T19:04:22Z</time>
      </trkpt>
      <trkpt lat="41.0565740" lon="0.7003930">
        <ele>179.2</ele>
        <time>2020-08-07T19:04:24Z</time>
      </trkpt>
      <trkpt lat="41.0565570" lon="0.7004400">
        <ele>179.3</ele>
        <time>2020-08-07T19:04:25Z</time>
      </trkpt>
      <trkpt lat="41.0565410" lon="0.7004880">
        <ele>179.4</ele>
        <time>2020-08-07T19:04:26Z</time>
      </trkpt>
      <trkpt lat="41.0565110" lon="0.7005830">
        <ele>179.6</ele>
        <time>2020-08-07T19:04:28Z</time>
      </trkpt>
      <trkpt lat="41.0564850" lon="0.7006660">
        <ele>179.8</ele>
        <time>2020-08-07T19:04:30Z</time>
      </trkpt>
      <trkpt lat="41.0564550" lon="0.7007610">
        <ele>180.0</ele>
        <time>2020-08-07T19:04:32Z</time>
      </trkpt>
      <trkpt lat="41.0564430" lon="0.7007960">
        <ele>180.1</ele>
        <time>2020-08-07T19:04:33Z</time>
      </trkpt>
      <trkpt lat="41.0564090" lon="0.7008750">
        <ele>180.4</ele>
        <time>2020-08-07T19:04:35Z</time>
      </trkpt>
      <trkpt lat="41.0563910" lon="0.7009140">
        <ele>180.5</ele>
        <time>2020-08-07T19:04:36Z</time>
      </trkpt>
      <trkpt lat="41.0563750" lon="0.7009540">
        <ele>180.6</ele>
        <time>2020-08-07T19:04:37Z</time>
      </trkpt>
      <trkpt lat="41.0563600" lon="0.7009930">
        <ele>180.8</ele>
        <time>2020-08-07T19:04:38Z</time>
      </trkpt>
      <trkpt lat="41.0563470" lon="0.7010330">
        <ele>180.9</ele>
        <time>2020-08-07T19:04:39Z</time>
      </trkpt>
      <trkpt lat="41.0563350" lon="0.7010690">
        <ele>181.1</ele>
        <time>2020-08-07T19:04:40Z</time>
      </trkpt>
      <trkpt lat="41.0563090" lon="0.7011420">
        <ele>181.4</ele>
        <time>2020-08-07T19:04:42Z</time>
      </trkpt>
      <trkpt lat="41.0562910" lon="0.7011890">
        <ele>181.6</ele>
        <time>2020-08-07T19:04:43Z</time>
      </trkpt>
      <trkpt lat="41.0562840" lon="0.7012040">
        <ele>181.7</ele>
        <time>2020-08-07T19:04:44Z</time>
      </trkpt>
      <trkpt lat="41.0562710" lon="0.7012380">
        <ele>181.8</ele>
        <time>2020-08-07T19:04:45Z</time>
      </trkpt>
      <trkpt lat="41.0562490" lon="0.7012990">
        <ele>182.1</ele>
        <time>2020-08-07T19:04:47Z</time>
      </trkpt>
      <trkpt lat="41.0562350" lon="0.7013320">
        <ele>182.2</ele>
        <time>2020-08-07T19:04:48Z</time>
      </trkpt>
      <trkpt lat="41.0562190" lon="0.7013650">
        <ele>182.4</ele>
        <time>2020-08-07T19:04:49Z</time>
      </trkpt>
      <trkpt lat="41.0562060" lon="0.7013940">
        <ele>182.5</ele>
        <time>2020-08-07T19:04:50Z</time>
      </trkpt>
      <trkpt lat="41.0561810" lon="0.7014600">
        <ele>182.8</ele>
        <time>2020-08-07T19:04:52Z</time>
      </trkpt>
      <trkpt lat="41.0561580" lon="0.7015220">
        <ele>183.0</ele>
        <time>2020-08-07T19:04:54Z</time>
      </trkpt>
      <trkpt lat="41.0561440" lon="0.7015560">
        <ele>183.2</ele>
        <time>2020-08-07T19:04:55Z</time>
      </trkpt>
      <trkpt lat="41.0561250" lon="0.7015990">
        <ele>183.4</ele>
        <time>2020-08-07T19:04:56Z</time>
      </trkpt>
      <trkpt lat="41.0561180" lon="0.7016120">
        <ele>183.4</ele>
        <time>2020-08-07T19:04:57Z</time>
      </trkpt>
      <trkpt lat="41.0560940" lon="0.7016680">
        <ele>183.7</ele>
        <time>2020-08-07T19:04:59Z</time>
      </trkpt>
      <trkpt lat="41.0560820" lon="0.7016970">
        <ele>183.8</ele>
        <time>2020-08-07T19:05:00Z</time>
      </trkpt>
      <trkpt lat="41.0560580" lon="0.7017560">
        <ele>184.1</ele>
        <time>2020-08-07T19:05:02Z</time>
      </trkpt>
      <trkpt lat="41.0560440" lon="0.7017880">
        <ele>184.2</ele>
        <time>2020-08-07T19:05:03Z</time>
      </trkpt>
      <trkpt lat="41.0560310" lon="0.7018200">
        <ele>184.3</ele>
        <time>2020-08-07T19:05:04Z</time>
      </trkpt>
      <trkpt lat="41.0560170" lon="0.7018530">
        <ele>184.5</ele>
        <time>2020-08-07T19:05:05Z</time>
      </trkpt>
      <trkpt lat="41.0560020" lon="0.7018870">
        <ele>184.6</ele>
        <time>2020-08-07T19:05:06Z</time>
      </trkpt>
      <trkpt lat="41.0559880" lon="0.7019230">
        <ele>184.8</ele>
        <time>2020-08-07T19:05:07Z</time>
      </trkpt>
      <trkpt lat="41.0559580" lon="0.7019990">
        <ele>185.1</ele>
        <time>2020-08-07T19:05:09Z</time>
      </trkpt>
      <trkpt lat="41.0559470" lon="0.7020300">
        <ele>185.3</ele>
        <time>2020-08-07T19:05:10Z</time>
      </trkpt>
      <trkpt lat="41.0559220" lon="0.7020920">
        <ele>185.6</ele>
        <time>2020-08-07T19:05:12Z</time>
      </trkpt>
      <trkpt lat="41.0558970" lon="0.7021540">
        <ele>185.9</ele>
        <time>2020-08-07T19:05:14Z</time>
      </trkpt>
      <trkpt lat="41.0558670" lon="0.7022250">
        <ele>186.2</ele>
        <time>2020-08-07T19:05:16Z</time>
      </trkpt>
      <trkpt lat="41.0558490" lon="0.7022720">
        <ele>186.4</ele>
        <time>2020-08-07T19:05:17Z</time>
      </trkpt>
      <trkpt lat="41.0558430" lon="0.7022870">
        <ele>186.4</ele>
        <time>2020-08-07T19:05:18Z</time>
      </trkpt>
      <trkpt lat="41.0558310" lon="0.7023210">
        <ele>186.5</ele>
        <time>2020-08-07T19:05:19Z</time>
      </trkpt>
      <trkpt lat="41.0558190" lon="0.7023580">
        <ele>186.7</ele>
        <time>2020-08-07T19:05:20Z</time>
      </trkpt>
      <trkpt lat="41.0557980" lon="0.7024260">
        <ele>187.0</ele>
        <time>2020-08-07T19:05:22Z</time>
      </trkpt>
      <trkpt lat="41.0557690" lon="0.7025040">
        <ele>187.3</ele>
        <time>2020-08-07T19:05:24Z</time>
      </trkpt>
      <trkpt lat="41.0557460" lon="0.7025720">
        <ele>187.6</ele>
        <time>2020-08-07T19:05:26Z</time>
      </trkpt>
      <trkpt lat="41.0557330" lon="0.7026110">
        <ele>187.7</ele>
        <time>2020-08-07T19:05:27Z</time>
      </trkpt>
      <trkpt lat="41.0557150" lon="0.7026580">
        <ele>187.9</ele>
        <time>2020-08-07T19:05:28Z</time>
      </trkpt>
      <trkpt lat="41.0557080" lon="0.7026760">
        <ele>188.0</ele>
        <time>2020-08-07T19:05:29Z</time>
      </trkpt>
      <trkpt lat="41.0556890" lon="0.7027230">
        <ele>188.2</ele>
        <time>2020-08-07T19:05:30Z</time>
      </trkpt>
      <trkpt lat="41.0556830" lon="0.7027380">
        <ele>188.3</ele>
        <time>2020-08-07T19:05:31Z</time>
      </trkpt>
      <trkpt lat="41.0556630" lon="0.7027960">
        <ele>188.5</ele>
        <time>2020-08-07T19:05:32Z</time>
      </trkpt>
      <trkpt lat="41.0556450" lon="0.7028380">
        <ele>188.7</ele>
        <time>2020-08-07T19:05:34Z</time>
      </trkpt>
      <trkpt lat="41.0556380" lon="0.7028510">
        <ele>188.8</ele>
        <time>2020-08-07T19:05:35Z</time>
      </trkpt>
      <trkpt lat="41.0556440" lon="0.7029120">
        <ele>189.0</ele>
        <time>2020-08-07T19:05:37Z</time>
      </trkpt>
      <trkpt lat="41.0556370" lon="0.7029470">
        <ele>189.2</ele>
        <time>2020-08-07T19:05:38Z</time>
      </trkpt>
      <trkpt lat="41.0555870" lon="0.7029990">
        <ele>189.5</ele>
        <time>2020-08-07T19:05:40Z</time>
      </trkpt>
      <trkpt lat="41.0555610" lon="0.7030750">
        <ele>189.8</ele>
        <time>2020-08-07T19:05:41Z</time>
      </trkpt>
      <trkpt lat="41.0555460" lon="0.7031130">
        <ele>190.0</ele>
        <time>2020-08-07T19:05:42Z</time>
      </trkpt>
      <trkpt lat="41.0555290" lon="0.7031530">
        <ele>190.2</ele>
        <time>2020-08-07T19:05:44Z</time>
      </trkpt>
      <trkpt lat="41.0555090" lon="0.7032210">
        <ele>190.5</ele>
        <time>2020-08-07T19:05:46Z</time>
      </trkpt>
      <trkpt lat="41.0554870" lon="0.7032900">
        <ele>190.8</ele>
        <time>2020-08-07T19:05:48Z</time>
      </trkpt>
      <trkpt lat="41.0554620" lon="0.7033560">
        <ele>191.1</ele>
        <time>2020-08-07T19:05:50Z</time>
      </trkpt>
      <trkpt lat="41.0554400" lon="0.7034220">
        <ele>191.4</ele>
        <time>2020-08-07T19:05:52Z</time>
      </trkpt>
      <trkpt lat="41.0554120" lon="0.7035090">
        <ele>191.8</ele>
        <time>2020-08-07T19:05:55Z</time>
      </trkpt>
      <trkpt lat="41.0553100" lon="0.7038040">
        <ele>192.9</ele>
        <time>2020-08-07T19:06:03Z</time>
      </trkpt>
      <trkpt lat="41.0552980" lon="0.7038400">
        <ele>193.0</ele>
        <time>2020-08-07T19:06:04Z</time>
      </trkpt>
      <trkpt lat="41.0552760" lon="0.7039070">
        <ele>193.2</ele>
        <time>2020-08-07T19:06:06Z</time>
      </trkpt>
      <trkpt lat="41.0552650" lon="0.7039390">
        <ele>193.3</ele>
        <time>2020-08-07T19:06:07Z</time>
      </trkpt>
      <trkpt lat="41.0552420" lon="0.7040010">
        <ele>193.6</ele>
        <time>2020-08-07T19:06:09Z</time>
      </trkpt>
      <trkpt lat="41.0552290" lon="0.7040330">
        <ele>193.7</ele>
        <time>2020-08-07T19:06:10Z</time>
      </trkpt>
      <trkpt lat="41.0552150" lon="0.7040650">
        <ele>193.8</ele>
        <time>2020-08-07T19:06:11Z</time>
      </trkpt>
      <trkpt lat="41.0552020" lon="0.7040970">
        <ele>193.9</ele>
        <time>2020-08-07T19:06:12Z</time>
      </trkpt>
      <trkpt lat="41.0551750" lon="0.7041620">
        <ele>194.2</ele>
        <time>2020-08-07T19:06:14Z</time>
      </trkpt>
      <trkpt lat="41.0551610" lon="0.7041960">
        <ele>194.3</ele>
        <time>2020-08-07T19:06:15Z</time>
      </trkpt>
      <trkpt lat="41.0551480" lon="0.7042290">
        <ele>194.5</ele>
        <time>2020-08-07T19:06:16Z</time>
      </trkpt>
      <trkpt lat="41.0551360" lon="0.7042610">
        <ele>194.6</ele>
        <time>2020-08-07T19:06:17Z</time>
      </trkpt>
      <trkpt lat="41.0551240" lon="0.7042940">
        <ele>194.7</ele>
        <time>2020-08-07T19:06:18Z</time>
      </trkpt>
      <trkpt lat="41.0551020" lon="0.7043560">
        <ele>195.0</ele>
        <time>2020-08-07T19:06:20Z</time>
      </trkpt>
      <trkpt lat="41.0550850" lon="0.7044040">
        <ele>195.2</ele>
        <time>2020-08-07T19:06:21Z</time>
      </trkpt>
      <trkpt lat="41.0550790" lon="0.7044190">
        <ele>195.2</ele>
        <time>2020-08-07T19:06:22Z</time>
      </trkpt>
      <trkpt lat="41.0550570" lon="0.7044760">
        <ele>195.5</ele>
        <time>2020-08-07T19:06:24Z</time>
      </trkpt>
      <trkpt lat="41.0550440" lon="0.7045100">
        <ele>195.6</ele>
        <time>2020-08-07T19:06:25Z</time>
      </trkpt>
      <trkpt lat="41.0550180" lon="0.7045760">
        <ele>195.9</ele>
        <time>2020-08-07T19:06:27Z</time>
      </trkpt>
      <trkpt lat="41.0550050" lon="0.7046080">
        <ele>196.0</ele>
        <time>2020-08-07T19:06:28Z</time>
      </trkpt>
      <trkpt lat="41.0549920" lon="0.7046410">
        <ele>196.2</ele>
        <time>2020-08-07T19:06:29Z</time>
      </trkpt>
      <trkpt lat="41.0549800" lon="0.7046690">
        <ele>196.3</ele>
        <time>2020-08-07T19:06:30Z</time>
      </trkpt>
      <trkpt lat="41.0549560" lon="0.7047310">
        <ele>196.5</ele>
        <time>2020-08-07T19:06:32Z</time>
      </trkpt>
      <trkpt lat="41.0549320" lon="0.7047920">
        <ele>196.8</ele>
        <time>2020-08-07T19:06:34Z</time>
      </trkpt>
      <trkpt lat="41.0549130" lon="0.7048390">
        <ele>197.0</ele>
        <time>2020-08-07T19:06:35Z</time>
      </trkpt>
      <trkpt lat="41.0549060" lon="0.7048550">
        <ele>197.1</ele>
        <time>2020-08-07T19:06:36Z</time>
      </trkpt>
      <trkpt lat="41.0548810" lon="0.7049180">
        <ele>197.3</ele>
        <time>2020-08-07T19:06:38Z</time>
      </trkpt>
      <trkpt lat="41.0548650" lon="0.7049630">
        <ele>197.5</ele>
        <time>2020-08-07T19:06:39Z</time>
      </trkpt>
      <trkpt lat="41.0548600" lon="0.7049780">
        <ele>197.5</ele>
        <time>2020-08-07T19:06:40Z</time>
      </trkpt>
      <trkpt lat="41.0548350" lon="0.7050410">
        <ele>197.8</ele>
        <time>2020-08-07T19:06:42Z</time>
      </trkpt>
      <trkpt lat="41.0548110" lon="0.7051040">
        <ele>198.0</ele>
        <time>2020-08-07T19:06:44Z</time>
      </trkpt>
      <trkpt lat="41.0547950" lon="0.7051540">
        <ele>198.2</ele>
        <time>2020-08-07T19:06:46Z</time>
      </trkpt>
      <trkpt lat="41.0547930" lon="0.7051620">
        <ele>198.2</ele>
        <time>2020-08-07T19:06:47Z</time>
      </trkpt>
      <trkpt lat="41.0547920" lon="0.7051700">
        <ele>198.2</ele>
        <time>2020-08-07T19:06:48Z</time>
      </trkpt>
      <trkpt lat="41.0547910" lon="0.7051790">
        <ele>198.3</ele>
        <time>2020-08-07T19:06:50Z</time>
      </trkpt>
      <trkpt lat="41.0547900" lon="0.7051870">
        <ele>198.3</ele>
        <time>2020-08-07T19:06:51Z</time>
      </trkpt>
      <trkpt lat="41.0547880" lon="0.7051950">
        <ele>198.3</ele>
        <time>2020-08-07T19:06:52Z</time>
      </trkpt>
      <trkpt lat="41.0547870" lon="0.7052030">
        <ele>198.3</ele>
        <time>2020-08-07T19:06:53Z</time>
      </trkpt>
      <trkpt lat="41.0547750" lon="0.7052430">
        <ele>198.5</ele>
        <time>2020-08-07T19:06:54Z</time>
      </trkpt>
      <trkpt lat="41.0547700" lon="0.7052580">
        <ele>198.5</ele>
        <time>2020-08-07T19:06:55Z</time>
      </trkpt>
      <trkpt lat="41.0547540" lon="0.7053040">
        <ele>198.7</ele>
        <time>2020-08-07T19:06:57Z</time>
      </trkpt>
      <trkpt lat="41.0547470" lon="0.7053230">
        <ele>198.7</ele>
        <time>2020-08-07T19:06:58Z</time>
      </trkpt>
      <trkpt lat="41.0547320" lon="0.7053720">
        <ele>198.9</ele>
        <time>2020-08-07T19:06:59Z</time>
      </trkpt>
      <trkpt lat="41.0547260" lon="0.7053880">
        <ele>198.9</ele>
        <time>2020-08-07T19:07:00Z</time>
      </trkpt>
      <trkpt lat="41.0547120" lon="0.7054340">
        <ele>199.1</ele>
        <time>2020-08-07T19:07:02Z</time>
      </trkpt>
      <trkpt lat="41.0547070" lon="0.7054480">
        <ele>199.1</ele>
        <time>2020-08-07T19:07:03Z</time>
      </trkpt>
      <trkpt lat="41.0546910" lon="0.7054980">
        <ele>199.3</ele>
        <time>2020-08-07T19:07:04Z</time>
      </trkpt>
      <trkpt lat="41.0546830" lon="0.7055190">
        <ele>199.4</ele>
        <time>2020-08-07T19:07:05Z</time>
      </trkpt>
      <trkpt lat="41.0546700" lon="0.7055600">
        <ele>199.5</ele>
        <time>2020-08-07T19:07:06Z</time>
      </trkpt>
      <trkpt lat="41.0546510" lon="0.7056240">
        <ele>199.7</ele>
        <time>2020-08-07T19:07:08Z</time>
      </trkpt>
      <trkpt lat="41.0546420" lon="0.7056550">
        <ele>199.7</ele>
        <time>2020-08-07T19:07:09Z</time>
      </trkpt>
      <trkpt lat="41.0546310" lon="0.7056940">
        <ele>199.8</ele>
        <time>2020-08-07T19:07:11Z</time>
      </trkpt>
      <trkpt lat="41.0546210" lon="0.7057310">
        <ele>199.9</ele>
        <time>2020-08-07T19:07:12Z</time>
      </trkpt>
      <trkpt lat="41.0546120" lon="0.7057710">
        <ele>200.0</ele>
        <time>2020-08-07T19:07:13Z</time>
      </trkpt>
      <trkpt lat="41.0546040" lon="0.7058100">
        <ele>200.1</ele>
        <time>2020-08-07T19:07:14Z</time>
      </trkpt>
      <trkpt lat="41.0545940" lon="0.7058610">
        <ele>200.2</ele>
        <time>2020-08-07T19:07:16Z</time>
      </trkpt>
      <trkpt lat="41.0545840" lon="0.7059070">
        <ele>200.3</ele>
        <time>2020-08-07T19:07:17Z</time>
      </trkpt>
      <trkpt lat="41.0545760" lon="0.7059450">
        <ele>200.4</ele>
        <time>2020-08-07T19:07:18Z</time>
      </trkpt>
      <trkpt lat="41.0545690" lon="0.7059820">
        <ele>200.5</ele>
        <time>2020-08-07T19:07:19Z</time>
      </trkpt>
      <trkpt lat="41.0545590" lon="0.7060290">
        <ele>200.6</ele>
        <time>2020-08-07T19:07:21Z</time>
      </trkpt>
      <trkpt lat="41.0545460" lon="0.7060950">
        <ele>200.8</ele>
        <time>2020-08-07T19:07:22Z</time>
      </trkpt>
      <trkpt lat="41.0545380" lon="0.7061320">
        <ele>200.8</ele>
        <time>2020-08-07T19:07:24Z</time>
      </trkpt>
      <trkpt lat="41.0545300" lon="0.7061650">
        <ele>200.9</ele>
        <time>2020-08-07T19:07:25Z</time>
      </trkpt>
      <trkpt lat="41.0545150" lon="0.7062360">
        <ele>201.0</ele>
        <time>2020-08-07T19:07:27Z</time>
      </trkpt>
      <trkpt lat="41.0545060" lon="0.7062720">
        <ele>201.1</ele>
        <time>2020-08-07T19:07:28Z</time>
      </trkpt>
      <trkpt lat="41.0544950" lon="0.7063200">
        <ele>201.2</ele>
        <time>2020-08-07T19:07:29Z</time>
      </trkpt>
      <trkpt lat="41.0544850" lon="0.7063620">
        <ele>201.3</ele>
        <time>2020-08-07T19:07:30Z</time>
      </trkpt>
      <trkpt lat="41.0544720" lon="0.7064120">
        <ele>201.4</ele>
        <time>2020-08-07T19:07:32Z</time>
      </trkpt>
      <trkpt lat="41.0544580" lon="0.7064640">
        <ele>201.5</ele>
        <time>2020-08-07T19:07:33Z</time>
      </trkpt>
      <trkpt lat="41.0544460" lon="0.7065040">
        <ele>201.6</ele>
        <time>2020-08-07T19:07:34Z</time>
      </trkpt>
      <trkpt lat="41.0544320" lon="0.7065480">
        <ele>201.6</ele>
        <time>2020-08-07T19:07:36Z</time>
      </trkpt>
      <trkpt lat="41.0544140" lon="0.7066090">
        <ele>201.7</ele>
        <time>2020-08-07T19:07:37Z</time>
      </trkpt>
      <trkpt lat="41.0543990" lon="0.7066720">
        <ele>201.8</ele>
        <time>2020-08-07T19:07:39Z</time>
      </trkpt>
      <trkpt lat="41.0543950" lon="0.7066930">
        <ele>201.8</ele>
        <time>2020-08-07T19:07:40Z</time>
      </trkpt>
      <trkpt lat="41.0543910" lon="0.7067150">
        <ele>201.8</ele>
        <time>2020-08-07T19:07:41Z</time>
      </trkpt>
      <trkpt lat="41.0543690" lon="0.7068800">
        <ele>202.0</ele>
        <time>2020-08-07T19:07:43Z</time>
      </trkpt>
      <trkpt lat="41.0543290" lon="0.7072440">
        <ele>202.6</ele>
        <time>2020-08-07T19:07:45Z</time>
      </trkpt>
      <trkpt lat="41.0543140" lon="0.7074240">
        <ele>202.9</ele>
        <time>2020-08-07T19:07:47Z</time>
      </trkpt>
      <trkpt lat="41.0543090" lon="0.7074990">
        <ele>203.1</ele>
        <time>2020-08-07T19:07:48Z</time>
      </trkpt>
      <trkpt lat="41.0543020" lon="0.7076150">
        <ele>203.3</ele>
        <time>2020-08-07T19:07:50Z</time>
      </trkpt>
      <trkpt lat="41.0542990" lon="0.7076690">
        <ele>203.4</ele>
        <time>2020-08-07T19:07:51Z</time>
      </trkpt>
      <trkpt lat="41.0542900" lon="0.7077640">
        <ele>203.6</ele>
        <time>2020-08-07T19:07:53Z</time>
      </trkpt>
      <trkpt lat="41.0542850" lon="0.7078080">
        <ele>203.7</ele>
        <time>2020-08-07T19:07:54Z</time>
      </trkpt>
      <trkpt lat="41.0542810" lon="0.7078530">
        <ele>203.8</ele>
        <time>2020-08-07T19:07:55Z</time>
      </trkpt>
      <trkpt lat="41.0542760" lon="0.7078960">
        <ele>203.9</ele>
        <time>2020-08-07T19:07:56Z</time>
      </trkpt>
      <trkpt lat="41.0542640" lon="0.7079550">
        <ele>204.0</ele>
        <time>2020-08-07T19:07:58Z</time>
      </trkpt>
      <trkpt lat="41.0542620" lon="0.7079600">
        <ele>204.1</ele>
        <time>2020-08-07T19:07:59Z</time>
      </trkpt>
      <trkpt lat="41.0542600" lon="0.7079580">
        <ele>204.1</ele>
        <time>2020-08-07T19:08:00Z</time>
      </trkpt>
      <trkpt lat="41.0542590" lon="0.7079550">
        <ele>204.1</ele>
        <time>2020-08-07T19:08:01Z</time>
      </trkpt>
      <trkpt lat="41.0542540" lon="0.7079410">
        <ele>204.1</ele>
        <time>2020-08-07T19:08:02Z</time>
      </trkpt>
      <trkpt lat="41.0542480" lon="0.7079290">
        <ele>204.1</ele>
        <time>2020-08-07T19:08:04Z</time>
      </trkpt>
      <trkpt lat="41.0542460" lon="0.7079280">
        <ele>204.1</ele>
        <time>2020-08-07T19:08:05Z</time>
      </trkpt>
      <trkpt lat="41.0542460" lon="0.7079290">
        <ele>204.1</ele>
        <time>2020-08-07T19:08:06Z</time>
      </trkpt>
      <trkpt lat="41.0542460" lon="0.7079310">
        <ele>204.1</ele>
        <time>2020-08-07T19:08:07Z</time>
      </trkpt>
      <trkpt lat="41.0542480" lon="0.7079320">
        <ele>204.2</ele>
        <time>2020-08-07T19:08:09Z</time>
      </trkpt>
      <trkpt lat="41.0542450" lon="0.7079360">
        <ele>204.2</ele>
        <time>2020-08-07T19:08:11Z</time>
      </trkpt>
      <trkpt lat="41.0542430" lon="0.7079370">
        <ele>204.2</ele>
        <time>2020-08-07T19:08:12Z</time>
      </trkpt>
      <trkpt lat="41.0542410" lon="0.7079380">
        <ele>204.2</ele>
        <time>2020-08-07T19:08:15Z</time>
      </trkpt>
      <trkpt lat="41.0542370" lon="0.7079950">
        <ele>204.3</ele>
        <time>2020-08-07T19:08:24Z</time>
      </trkpt>
      <trkpt lat="41.0542310" lon="0.7080760">
        <ele>204.5</ele>
        <time>2020-08-07T19:08:26Z</time>
      </trkpt>
      <trkpt lat="41.0542200" lon="0.7081680">
        <ele>204.7</ele>
        <time>2020-08-07T19:08:28Z</time>
      </trkpt>
      <trkpt lat="41.0542110" lon="0.7082580">
        <ele>204.9</ele>
        <time>2020-08-07T19:08:30Z</time>
      </trkpt>
      <trkpt lat="41.0542080" lon="0.7082990">
        <ele>204.9</ele>
        <time>2020-08-07T19:08:31Z</time>
      </trkpt>
      <trkpt lat="41.0542050" lon="0.7083400">
        <ele>205.0</ele>
        <time>2020-08-07T19:08:32Z</time>
      </trkpt>
      <trkpt lat="41.0542030" lon="0.7083820">
        <ele>205.1</ele>
        <time>2020-08-07T19:08:33Z</time>
      </trkpt>
      <trkpt lat="41.0542030" lon="0.7084270">
        <ele>205.2</ele>
        <time>2020-08-07T19:08:34Z</time>
      </trkpt>
      <trkpt lat="41.0542050" lon="0.7084830">
        <ele>205.3</ele>
        <time>2020-08-07T19:08:35Z</time>
      </trkpt>
      <trkpt lat="41.0542040" lon="0.7085050">
        <ele>205.4</ele>
        <time>2020-08-07T19:08:36Z</time>
      </trkpt>
      <trkpt lat="41.0541990" lon="0.7085930">
        <ele>205.6</ele>
        <time>2020-08-07T19:08:38Z</time>
      </trkpt>
      <trkpt lat="41.0541960" lon="0.7086470">
        <ele>205.7</ele>
        <time>2020-08-07T19:08:39Z</time>
      </trkpt>
      <trkpt lat="41.0541910" lon="0.7087400">
        <ele>205.9</ele>
        <time>2020-08-07T19:08:41Z</time>
      </trkpt>
      <trkpt lat="41.0541870" lon="0.7087850">
        <ele>205.9</ele>
        <time>2020-08-07T19:08:42Z</time>
      </trkpt>
      <trkpt lat="41.0541820" lon="0.7088250">
        <ele>206.0</ele>
        <time>2020-08-07T19:08:43Z</time>
      </trkpt>
      <trkpt lat="41.0541720" lon="0.7089150">
        <ele>206.2</ele>
        <time>2020-08-07T19:08:45Z</time>
      </trkpt>
      <trkpt lat="41.0541670" lon="0.7089650">
        <ele>206.4</ele>
        <time>2020-08-07T19:08:46Z</time>
      </trkpt>
      <trkpt lat="41.0541580" lon="0.7090530">
        <ele>206.6</ele>
        <time>2020-08-07T19:08:48Z</time>
      </trkpt>
      <trkpt lat="41.0541550" lon="0.7090910">
        <ele>206.7</ele>
        <time>2020-08-07T19:08:49Z</time>
      </trkpt>
      <trkpt lat="41.0541230" lon="0.7093370">
        <ele>207.2</ele>
        <time>2020-08-07T19:08:59Z</time>
      </trkpt>
      <trkpt lat="41.0541230" lon="0.7093370">
        <ele>207.2</ele>
        <time>2020-08-07T19:08:59Z</time>
      </trkpt>
      <trkpt lat="41.0540920" lon="0.7095640">
        <ele>207.7</ele>
        <time>2020-08-07T19:09:00Z</time>
      </trkpt>
      <trkpt lat="41.0540830" lon="0.7096350">
        <ele>207.9</ele>
        <time>2020-08-07T19:09:02Z</time>
      </trkpt>
      <trkpt lat="41.0540760" lon="0.7096850">
        <ele>208.0</ele>
        <time>2020-08-07T19:09:03Z</time>
      </trkpt>
      <trkpt lat="41.0540710" lon="0.7097320">
        <ele>208.1</ele>
        <time>2020-08-07T19:09:04Z</time>
      </trkpt>
      <trkpt lat="41.0540620" lon="0.7098170">
        <ele>208.3</ele>
        <time>2020-08-07T19:09:06Z</time>
      </trkpt>
      <trkpt lat="41.0540580" lon="0.7098550">
        <ele>208.4</ele>
        <time>2020-08-07T19:09:07Z</time>
      </trkpt>
      <trkpt lat="41.0540540" lon="0.7099010">
        <ele>208.6</ele>
        <time>2020-08-07T19:09:08Z</time>
      </trkpt>
      <trkpt lat="41.0540500" lon="0.7099460">
        <ele>208.7</ele>
        <time>2020-08-07T19:09:09Z</time>
      </trkpt>
      <trkpt lat="41.0540470" lon="0.7099830">
        <ele>208.7</ele>
        <time>2020-08-07T19:09:10Z</time>
      </trkpt>
      <trkpt lat="41.0540410" lon="0.7100460">
        <ele>208.9</ele>
        <time>2020-08-07T19:09:12Z</time>
      </trkpt>
      <trkpt lat="41.0540280" lon="0.7101570">
        <ele>209.2</ele>
        <time>2020-08-07T19:09:14Z</time>
      </trkpt>
      <trkpt lat="41.0540220" lon="0.7102040">
        <ele>209.3</ele>
        <time>2020-08-07T19:09:15Z</time>
      </trkpt>
      <trkpt lat="41.0540110" lon="0.7102870">
        <ele>209.5</ele>
        <time>2020-08-07T19:09:17Z</time>
      </trkpt>
      <trkpt lat="41.0540010" lon="0.7103750">
        <ele>209.6</ele>
        <time>2020-08-07T19:09:19Z</time>
      </trkpt>
      <trkpt lat="41.0539930" lon="0.7104310">
        <ele>209.8</ele>
        <time>2020-08-07T19:09:20Z</time>
      </trkpt>
      <trkpt lat="41.0539890" lon="0.7104540">
        <ele>209.8</ele>
        <time>2020-08-07T19:09:21Z</time>
      </trkpt>
      <trkpt lat="41.0539810" lon="0.7105000">
        <ele>209.9</ele>
        <time>2020-08-07T19:09:22Z</time>
      </trkpt>
      <trkpt lat="41.0539620" lon="0.7105860">
        <ele>210.0</ele>
        <time>2020-08-07T19:09:24Z</time>
      </trkpt>
      <trkpt lat="41.0539400" lon="0.7106800">
        <ele>210.2</ele>
        <time>2020-08-07T19:09:26Z</time>
      </trkpt>
      <trkpt lat="41.0539280" lon="0.7107290">
        <ele>210.3</ele>
        <time>2020-08-07T19:09:27Z</time>
      </trkpt>
      <trkpt lat="41.0539060" lon="0.7108060">
        <ele>210.4</ele>
        <time>2020-08-07T19:09:29Z</time>
      </trkpt>
      <trkpt lat="41.0538740" lon="0.7108960">
        <ele>210.6</ele>
        <time>2020-08-07T19:09:31Z</time>
      </trkpt>
      <trkpt lat="41.0538580" lon="0.7109370">
        <ele>210.7</ele>
        <time>2020-08-07T19:09:32Z</time>
      </trkpt>
      <trkpt lat="41.0538410" lon="0.7109740">
        <ele>210.8</ele>
        <time>2020-08-07T19:09:33Z</time>
      </trkpt>
      <trkpt lat="41.0538070" lon="0.7110480">
        <ele>211.1</ele>
        <time>2020-08-07T19:09:35Z</time>
      </trkpt>
      <trkpt lat="41.0537760" lon="0.7111060">
        <ele>211.3</ele>
        <time>2020-08-07T19:09:37Z</time>
      </trkpt>
      <trkpt lat="41.0537370" lon="0.7111790">
        <ele>211.5</ele>
        <time>2020-08-07T19:09:39Z</time>
      </trkpt>
      <trkpt lat="41.0537200" lon="0.7112090">
        <ele>211.6</ele>
        <time>2020-08-07T19:09:40Z</time>
      </trkpt>
      <trkpt lat="41.0536980" lon="0.7112480">
        <ele>211.7</ele>
        <time>2020-08-07T19:09:41Z</time>
      </trkpt>
      <trkpt lat="41.0536710" lon="0.7112960">
        <ele>211.8</ele>
        <time>2020-08-07T19:09:43Z</time>
      </trkpt>
      <trkpt lat="41.0536520" lon="0.7113260">
        <ele>211.9</ele>
        <time>2020-08-07T19:09:44Z</time>
      </trkpt>
      <trkpt lat="41.0536340" lon="0.7113550">
        <ele>212.0</ele>
        <time>2020-08-07T19:09:45Z</time>
      </trkpt>
      <trkpt lat="41.0536150" lon="0.7113840">
        <ele>212.1</ele>
        <time>2020-08-07T19:09:46Z</time>
      </trkpt>
      <trkpt lat="41.0535850" lon="0.7114340">
        <ele>212.3</ele>
        <time>2020-08-07T19:09:47Z</time>
      </trkpt>
      <trkpt lat="41.0535620" lon="0.7114690">
        <ele>212.4</ele>
        <time>2020-08-07T19:09:49Z</time>
      </trkpt>
      <trkpt lat="41.0535280" lon="0.7115290">
        <ele>212.6</ele>
        <time>2020-08-07T19:09:51Z</time>
      </trkpt>
      <trkpt lat="41.0535090" lon="0.7115570">
        <ele>212.8</ele>
        <time>2020-08-07T19:09:52Z</time>
      </trkpt>
      <trkpt lat="41.0534720" lon="0.7116100">
        <ele>213.0</ele>
        <time>2020-08-07T19:09:54Z</time>
      </trkpt>
      <trkpt lat="41.0534420" lon="0.7116560">
        <ele>213.2</ele>
        <time>2020-08-07T19:09:55Z</time>
      </trkpt>
      <trkpt lat="41.0534170" lon="0.7116940">
        <ele>213.3</ele>
        <time>2020-08-07T19:09:57Z</time>
      </trkpt>
      <trkpt lat="41.0533960" lon="0.7117240">
        <ele>213.5</ele>
        <time>2020-08-07T19:09:58Z</time>
      </trkpt>
      <trkpt lat="41.0533640" lon="0.7117730">
        <ele>213.7</ele>
        <time>2020-08-07T19:09:59Z</time>
      </trkpt>
      <trkpt lat="41.0533490" lon="0.7117960">
        <ele>213.8</ele>
        <time>2020-08-07T19:10:00Z</time>
      </trkpt>
      <trkpt lat="41.0533270" lon="0.7118330">
        <ele>213.9</ele>
        <time>2020-08-07T19:10:02Z</time>
      </trkpt>
      <trkpt lat="41.0533080" lon="0.7118620">
        <ele>214.1</ele>
        <time>2020-08-07T19:10:03Z</time>
      </trkpt>
      <trkpt lat="41.0532890" lon="0.7118920">
        <ele>214.2</ele>
        <time>2020-08-07T19:10:04Z</time>
      </trkpt>
      <trkpt lat="41.0532600" lon="0.7119490">
        <ele>214.4</ele>
        <time>2020-08-07T19:10:05Z</time>
      </trkpt>
      <trkpt lat="41.0532410" lon="0.7119830">
        <ele>214.5</ele>
        <time>2020-08-07T19:10:07Z</time>
      </trkpt>
      <trkpt lat="41.0532250" lon="0.7120140">
        <ele>214.6</ele>
        <time>2020-08-07T19:10:08Z</time>
      </trkpt>
      <trkpt lat="41.0532110" lon="0.7120450">
        <ele>214.7</ele>
        <time>2020-08-07T19:10:09Z</time>
      </trkpt>
      <trkpt lat="41.0531900" lon="0.7120990">
        <ele>214.8</ele>
        <time>2020-08-07T19:10:10Z</time>
      </trkpt>
      <trkpt lat="41.0531730" lon="0.7121390">
        <ele>215.0</ele>
        <time>2020-08-07T19:10:11Z</time>
      </trkpt>
      <trkpt lat="41.0531560" lon="0.7121750">
        <ele>215.1</ele>
        <time>2020-08-07T19:10:13Z</time>
      </trkpt>
      <trkpt lat="41.0531300" lon="0.7122420">
        <ele>215.3</ele>
        <time>2020-08-07T19:10:15Z</time>
      </trkpt>
      <trkpt lat="41.0531150" lon="0.7122980">
        <ele>215.5</ele>
        <time>2020-08-07T19:10:16Z</time>
      </trkpt>
      <trkpt lat="41.0531040" lon="0.7123390">
        <ele>215.6</ele>
        <time>2020-08-07T19:10:17Z</time>
      </trkpt>
      <trkpt lat="41.0530950" lon="0.7123770">
        <ele>215.7</ele>
        <time>2020-08-07T19:10:18Z</time>
      </trkpt>
      <trkpt lat="41.0530830" lon="0.7124250">
        <ele>215.8</ele>
        <time>2020-08-07T19:10:20Z</time>
      </trkpt>
      <trkpt lat="41.0530720" lon="0.7124620">
        <ele>215.9</ele>
        <time>2020-08-07T19:10:21Z</time>
      </trkpt>
      <trkpt lat="41.0530620" lon="0.7125420">
        <ele>216.1</ele>
        <time>2020-08-07T19:10:23Z</time>
      </trkpt>
      <trkpt lat="41.0530580" lon="0.7125910">
        <ele>216.2</ele>
        <time>2020-08-07T19:10:24Z</time>
      </trkpt>
      <trkpt lat="41.0530550" lon="0.7126290">
        <ele>216.3</ele>
        <time>2020-08-07T19:10:25Z</time>
      </trkpt>
      <trkpt lat="41.0530480" lon="0.7126850">
        <ele>216.4</ele>
        <time>2020-08-07T19:10:27Z</time>
      </trkpt>
      <trkpt lat="41.0530440" lon="0.7127350">
        <ele>216.5</ele>
        <time>2020-08-07T19:10:28Z</time>
      </trkpt>
      <trkpt lat="41.0530410" lon="0.7127860">
        <ele>216.7</ele>
        <time>2020-08-07T19:10:30Z</time>
      </trkpt>
      <trkpt lat="41.0530410" lon="0.7128320">
        <ele>216.8</ele>
        <time>2020-08-07T19:10:31Z</time>
      </trkpt>
      <trkpt lat="41.0530400" lon="0.7128450">
        <ele>216.8</ele>
        <time>2020-08-07T19:10:32Z</time>
      </trkpt>
      <trkpt lat="41.0530360" lon="0.7128800">
        <ele>216.8</ele>
        <time>2020-08-07T19:10:33Z</time>
      </trkpt>
      <trkpt lat="41.0530320" lon="0.7129170">
        <ele>216.9</ele>
        <time>2020-08-07T19:10:35Z</time>
      </trkpt>
      <trkpt lat="41.0530300" lon="0.7129400">
        <ele>217.0</ele>
        <time>2020-08-07T19:10:36Z</time>
      </trkpt>
      <trkpt lat="41.0530260" lon="0.7129530">
        <ele>217.0</ele>
        <time>2020-08-07T19:10:37Z</time>
      </trkpt>
      <trkpt lat="41.0530270" lon="0.7129570">
        <ele>217.0</ele>
        <time>2020-08-07T19:10:38Z</time>
      </trkpt>
      <trkpt lat="41.0530280" lon="0.7129530">
        <ele>217.0</ele>
        <time>2020-08-07T19:10:39Z</time>
      </trkpt>
      <trkpt lat="41.0530280" lon="0.7129480">
        <ele>217.0</ele>
        <time>2020-08-07T19:10:40Z</time>
      </trkpt>
      <trkpt lat="41.0530280" lon="0.7129440">
        <ele>217.0</ele>
        <time>2020-08-07T19:10:42Z</time>
      </trkpt>
      <trkpt lat="41.0530290" lon="0.7129430">
        <ele>217.0</ele>
        <time>2020-08-07T19:10:43Z</time>
      </trkpt>
      <trkpt lat="41.0530290" lon="0.7129430">
        <ele>217.0</ele>
        <time>2020-08-07T19:10:44Z</time>
      </trkpt>
      <trkpt lat="41.0530290" lon="0.7129420">
        <ele>217.0</ele>
        <time>2020-08-07T19:10:45Z</time>
      </trkpt>
      <trkpt lat="41.0530290" lon="0.7129370">
        <ele>217.0</ele>
        <time>2020-08-07T19:10:47Z</time>
      </trkpt>
      <trkpt lat="41.0530510" lon="0.7130140">
        <ele>217.2</ele>
        <time>2020-08-07T19:11:56Z</time>
      </trkpt>
      <trkpt lat="41.0530440" lon="0.7130660">
        <ele>217.3</ele>
        <time>2020-08-07T19:11:58Z</time>
      </trkpt>
      <trkpt lat="41.0530330" lon="0.7131050">
        <ele>217.4</ele>
        <time>2020-08-07T19:11:59Z</time>
      </trkpt>
      <trkpt lat="41.0530180" lon="0.7131940">
        <ele>217.5</ele>
        <time>2020-08-07T19:12:01Z</time>
      </trkpt>
      <trkpt lat="41.0530080" lon="0.7132380">
        <ele>217.6</ele>
        <time>2020-08-07T19:12:02Z</time>
      </trkpt>
      <trkpt lat="41.0529920" lon="0.7133540">
        <ele>217.9</ele>
        <time>2020-08-07T19:12:03Z</time>
      </trkpt>
      <trkpt lat="41.0529750" lon="0.7134750">
        <ele>218.1</ele>
        <time>2020-08-07T19:12:04Z</time>
      </trkpt>
      <trkpt lat="41.0529640" lon="0.7136100">
        <ele>218.4</ele>
        <time>2020-08-07T19:12:06Z</time>
      </trkpt>
      <trkpt lat="41.0529580" lon="0.7136960">
        <ele>218.6</ele>
        <time>2020-08-07T19:12:07Z</time>
      </trkpt>
      <trkpt lat="41.0529490" lon="0.7137690">
        <ele>218.7</ele>
        <time>2020-08-07T19:12:08Z</time>
      </trkpt>
      <trkpt lat="41.0529320" lon="0.7138650">
        <ele>219.0</ele>
        <time>2020-08-07T19:12:10Z</time>
      </trkpt>
      <trkpt lat="41.0529270" lon="0.7139240">
        <ele>219.2</ele>
        <time>2020-08-07T19:12:11Z</time>
      </trkpt>
      <trkpt lat="41.0529210" lon="0.7139830">
        <ele>219.3</ele>
        <time>2020-08-07T19:12:12Z</time>
      </trkpt>
      <trkpt lat="41.0529140" lon="0.7140410">
        <ele>219.5</ele>
        <time>2020-08-07T19:12:13Z</time>
      </trkpt>
      <trkpt lat="41.0529020" lon="0.7141470">
        <ele>219.6</ele>
        <time>2020-08-07T19:12:15Z</time>
      </trkpt>
      <trkpt lat="41.0528970" lon="0.7141930">
        <ele>219.6</ele>
        <time>2020-08-07T19:12:16Z</time>
      </trkpt>
      <trkpt lat="41.0528920" lon="0.7142340">
        <ele>219.6</ele>
        <time>2020-08-07T19:12:17Z</time>
      </trkpt>
      <trkpt lat="41.0528890" lon="0.7142590">
        <ele>219.6</ele>
        <time>2020-08-07T19:12:18Z</time>
      </trkpt>
      <trkpt lat="41.0528830" lon="0.7143120">
        <ele>219.7</ele>
        <time>2020-08-07T19:12:20Z</time>
      </trkpt>
      <trkpt lat="41.0528770" lon="0.7143610">
        <ele>219.7</ele>
        <time>2020-08-07T19:12:21Z</time>
      </trkpt>
      <trkpt lat="41.0528750" lon="0.7143760">
        <ele>219.7</ele>
        <time>2020-08-07T19:12:22Z</time>
      </trkpt>
      <trkpt lat="41.0528700" lon="0.7144160">
        <ele>219.7</ele>
        <time>2020-08-07T19:12:24Z</time>
      </trkpt>
      <trkpt lat="41.0528670" lon="0.7144440">
        <ele>219.7</ele>
        <time>2020-08-07T19:12:25Z</time>
      </trkpt>
      <trkpt lat="41.0528660" lon="0.7144540">
        <ele>219.7</ele>
        <time>2020-08-07T19:12:26Z</time>
      </trkpt>
      <trkpt lat="41.0528580" lon="0.7145100">
        <ele>219.8</ele>
        <time>2020-08-07T19:12:28Z</time>
      </trkpt>
      <trkpt lat="41.0528500" lon="0.7145610">
        <ele>219.8</ele>
        <time>2020-08-07T19:12:29Z</time>
      </trkpt>
      <trkpt lat="41.0528450" lon="0.7145820">
        <ele>219.9</ele>
        <time>2020-08-07T19:12:30Z</time>
      </trkpt>
      <trkpt lat="41.0528360" lon="0.7146360">
        <ele>219.9</ele>
        <time>2020-08-07T19:12:32Z</time>
      </trkpt>
      <trkpt lat="41.0528230" lon="0.7147070">
        <ele>220.0</ele>
        <time>2020-08-07T19:12:33Z</time>
      </trkpt>
      <trkpt lat="41.0528150" lon="0.7147440">
        <ele>220.0</ele>
        <time>2020-08-07T19:12:34Z</time>
      </trkpt>
      <trkpt lat="41.0528060" lon="0.7147890">
        <ele>220.0</ele>
        <time>2020-08-07T19:12:35Z</time>
      </trkpt>
      <trkpt lat="41.0527970" lon="0.7148360">
        <ele>220.1</ele>
        <time>2020-08-07T19:12:37Z</time>
      </trkpt>
      <trkpt lat="41.0527880" lon="0.7148760">
        <ele>220.1</ele>
        <time>2020-08-07T19:12:38Z</time>
      </trkpt>
      <trkpt lat="41.0527800" lon="0.7149110">
        <ele>220.1</ele>
        <time>2020-08-07T19:12:39Z</time>
      </trkpt>
      <trkpt lat="41.0527720" lon="0.7149550">
        <ele>220.2</ele>
        <time>2020-08-07T19:12:40Z</time>
      </trkpt>
      <trkpt lat="41.0527690" lon="0.7149670">
        <ele>220.2</ele>
        <time>2020-08-07T19:12:41Z</time>
      </trkpt>
      <trkpt lat="41.0527650" lon="0.7149940">
        <ele>220.2</ele>
        <time>2020-08-07T19:12:43Z</time>
      </trkpt>
      <trkpt lat="41.0527660" lon="0.7149970">
        <ele>220.2</ele>
        <time>2020-08-07T19:12:44Z</time>
      </trkpt>
      <trkpt lat="41.0527760" lon="0.7151300">
        <ele>220.2</ele>
        <time>2020-08-07T19:12:46Z</time>
      </trkpt>
      <trkpt lat="41.0527780" lon="0.7152510">
        <ele>220.3</ele>
        <time>2020-08-07T19:12:47Z</time>
      </trkpt>
      <trkpt lat="41.0527800" lon="0.7153420">
        <ele>220.3</ele>
        <time>2020-08-07T19:12:48Z</time>
      </trkpt>
      <trkpt lat="41.0527810" lon="0.7154430">
        <ele>220.4</ele>
        <time>2020-08-07T19:12:50Z</time>
      </trkpt>
      <trkpt lat="41.0527770" lon="0.7155040">
        <ele>220.4</ele>
        <time>2020-08-07T19:12:51Z</time>
      </trkpt>
      <trkpt lat="41.0527720" lon="0.7155400">
        <ele>220.4</ele>
        <time>2020-08-07T19:12:54Z</time>
      </trkpt>
      <trkpt lat="41.0527680" lon="0.7155750">
        <ele>220.5</ele>
        <time>2020-08-07T19:13:24Z</time>
      </trkpt>
      <trkpt lat="41.0527630" lon="0.7156110">
        <ele>220.5</ele>
        <time>2020-08-07T19:13:25Z</time>
      </trkpt>
      <trkpt lat="41.0527580" lon="0.7156460">
        <ele>220.5</ele>
        <time>2020-08-07T19:13:26Z</time>
      </trkpt>
      <trkpt lat="41.0527570" lon="0.7156850">
        <ele>220.6</ele>
        <time>2020-08-07T19:13:28Z</time>
      </trkpt>
      <trkpt lat="41.0527590" lon="0.7156850">
        <ele>220.6</ele>
        <time>2020-08-07T19:13:30Z</time>
      </trkpt>
      <trkpt lat="41.0527600" lon="0.7156840">
        <ele>220.6</ele>
        <time>2020-08-07T19:13:31Z</time>
      </trkpt>
      <trkpt lat="41.0527620" lon="0.7156840">
        <ele>220.6</ele>
        <time>2020-08-07T19:13:33Z</time>
      </trkpt>
      <trkpt lat="41.0527630" lon="0.7156830">
        <ele>220.6</ele>
        <time>2020-08-07T19:13:34Z</time>
      </trkpt>
      <trkpt lat="41.0527640" lon="0.7156820">
        <ele>220.6</ele>
        <time>2020-08-07T19:13:35Z</time>
      </trkpt>
      <trkpt lat="41.0527660" lon="0.7156820">
        <ele>220.6</ele>
        <time>2020-08-07T19:13:36Z</time>
      </trkpt>
      <trkpt lat="41.0527670" lon="0.7156810">
        <ele>220.6</ele>
        <time>2020-08-07T19:13:37Z</time>
      </trkpt>
      <trkpt lat="41.0527630" lon="0.7157420">
        <ele>220.6</ele>
        <time>2020-08-07T19:13:39Z</time>
      </trkpt>
      <trkpt lat="41.0527590" lon="0.7158040">
        <ele>220.7</ele>
        <time>2020-08-07T19:13:41Z</time>
      </trkpt>
      <trkpt lat="41.0527560" lon="0.7158660">
        <ele>220.7</ele>
        <time>2020-08-07T19:13:42Z</time>
      </trkpt>
      <trkpt lat="41.0527520" lon="0.7159280">
        <ele>220.7</ele>
        <time>2020-08-07T19:13:44Z</time>
      </trkpt>
      <trkpt lat="41.0527480" lon="0.7159890">
        <ele>220.8</ele>
        <time>2020-08-07T19:13:46Z</time>
      </trkpt>
      <trkpt lat="41.0527440" lon="0.7160510">
        <ele>220.8</ele>
        <time>2020-08-07T19:13:59Z</time>
      </trkpt>
      <trkpt lat="41.0527410" lon="0.7161130">
        <ele>220.9</ele>
        <time>2020-08-07T19:14:00Z</time>
      </trkpt>
      <trkpt lat="41.0527370" lon="0.7161750">
        <ele>220.9</ele>
        <time>2020-08-07T19:14:02Z</time>
      </trkpt>
      <trkpt lat="41.0527330" lon="0.7162370">
        <ele>221.0</ele>
        <time>2020-08-07T19:14:03Z</time>
      </trkpt>
      <trkpt lat="41.0527010" lon="0.7164280">
        <ele>221.1</ele>
        <time>2020-08-07T19:14:05Z</time>
      </trkpt>
      <trkpt lat="41.0526830" lon="0.7165090">
        <ele>221.2</ele>
        <time>2020-08-07T19:14:06Z</time>
      </trkpt>
      <trkpt lat="41.0526660" lon="0.7165810">
        <ele>221.2</ele>
        <time>2020-08-07T19:14:07Z</time>
      </trkpt>
      <trkpt lat="41.0526300" lon="0.7167100">
        <ele>221.3</ele>
        <time>2020-08-07T19:14:09Z</time>
      </trkpt>
      <trkpt lat="41.0526120" lon="0.7167760">
        <ele>221.3</ele>
        <time>2020-08-07T19:14:10Z</time>
      </trkpt>
      <trkpt lat="41.0525950" lon="0.7168370">
        <ele>221.4</ele>
        <time>2020-08-07T19:14:11Z</time>
      </trkpt>
      <trkpt lat="41.0525550" lon="0.7169540">
        <ele>221.5</ele>
        <time>2020-08-07T19:14:13Z</time>
      </trkpt>
      <trkpt lat="41.0525250" lon="0.7170440">
        <ele>221.6</ele>
        <time>2020-08-07T19:14:14Z</time>
      </trkpt>
      <trkpt lat="41.0525140" lon="0.7170720">
        <ele>221.6</ele>
        <time>2020-08-07T19:14:15Z</time>
      </trkpt>
      <trkpt lat="41.0524940" lon="0.7171300">
        <ele>221.7</ele>
        <time>2020-08-07T19:14:16Z</time>
      </trkpt>
      <trkpt lat="41.0524750" lon="0.7171840">
        <ele>221.7</ele>
        <time>2020-08-07T19:14:17Z</time>
      </trkpt>
      <trkpt lat="41.0524340" lon="0.7172900">
        <ele>221.8</ele>
        <time>2020-08-07T19:14:19Z</time>
      </trkpt>
      <trkpt lat="41.0524110" lon="0.7173450">
        <ele>221.8</ele>
        <time>2020-08-07T19:14:20Z</time>
      </trkpt>
      <trkpt lat="41.0523690" lon="0.7174520">
        <ele>221.9</ele>
        <time>2020-08-07T19:14:22Z</time>
      </trkpt>
      <trkpt lat="41.0523530" lon="0.7175010">
        <ele>221.9</ele>
        <time>2020-08-07T19:14:23Z</time>
      </trkpt>
      <trkpt lat="41.0523150" lon="0.7176070">
        <ele>222.1</ele>
        <time>2020-08-07T19:14:25Z</time>
      </trkpt>
      <trkpt lat="41.0522920" lon="0.7176610">
        <ele>222.1</ele>
        <time>2020-08-07T19:14:26Z</time>
      </trkpt>
      <trkpt lat="41.0522740" lon="0.7177000">
        <ele>222.2</ele>
        <time>2020-08-07T19:14:27Z</time>
      </trkpt>
      <trkpt lat="41.0522350" lon="0.7177880">
        <ele>222.3</ele>
        <time>2020-08-07T19:14:29Z</time>
      </trkpt>
      <trkpt lat="41.0521930" lon="0.7178800">
        <ele>222.4</ele>
        <time>2020-08-07T19:14:31Z</time>
      </trkpt>
      <trkpt lat="41.0522410" lon="0.7178640">
        <ele>222.5</ele>
        <time>2020-08-07T19:14:32Z</time>
      </trkpt>
      <trkpt lat="41.0522430" lon="0.7178570">
        <ele>222.5</ele>
        <time>2020-08-07T19:14:34Z</time>
      </trkpt>
      <trkpt lat="41.0522300" lon="0.7178840">
        <ele>222.6</ele>
        <time>2020-08-07T19:14:35Z</time>
      </trkpt>
      <trkpt lat="41.0522240" lon="0.7178940">
        <ele>222.6</ele>
        <time>2020-08-07T19:14:37Z</time>
      </trkpt>
      <trkpt lat="41.0522180" lon="0.7179230">
        <ele>222.7</ele>
        <time>2020-08-07T19:14:38Z</time>
      </trkpt>
      <trkpt lat="41.0522140" lon="0.7179540">
        <ele>222.7</ele>
        <time>2020-08-07T19:14:40Z</time>
      </trkpt>
      <trkpt lat="41.0521930" lon="0.7180090">
        <ele>222.8</ele>
        <time>2020-08-07T19:14:42Z</time>
      </trkpt>
      <trkpt lat="41.0521870" lon="0.7180240">
        <ele>222.9</ele>
        <time>2020-08-07T19:14:43Z</time>
      </trkpt>
      <trkpt lat="41.0521800" lon="0.7180380">
        <ele>222.9</ele>
        <time>2020-08-07T19:14:44Z</time>
      </trkpt>
      <trkpt lat="41.0521740" lon="0.7180520">
        <ele>223.0</ele>
        <time>2020-08-07T19:14:45Z</time>
      </trkpt>
      <trkpt lat="41.0521640" lon="0.7180900">
        <ele>223.0</ele>
        <time>2020-08-07T19:14:46Z</time>
      </trkpt>
      <trkpt lat="41.0521530" lon="0.7181410">
        <ele>223.2</ele>
        <time>2020-08-07T19:14:48Z</time>
      </trkpt>
      <trkpt lat="41.0521480" lon="0.7181590">
        <ele>223.2</ele>
        <time>2020-08-07T19:14:49Z</time>
      </trkpt>
      <trkpt lat="41.0521400" lon="0.7182080">
        <ele>223.3</ele>
        <time>2020-08-07T19:14:51Z</time>
      </trkpt>
      <trkpt lat="41.0521270" lon="0.7182460">
        <ele>223.4</ele>
        <time>2020-08-07T19:14:52Z</time>
      </trkpt>
      <trkpt lat="41.0521110" lon="0.7183060">
        <ele>223.6</ele>
        <time>2020-08-07T19:14:54Z</time>
      </trkpt>
      <trkpt lat="41.0521050" lon="0.7183240">
        <ele>223.6</ele>
        <time>2020-08-07T19:14:55Z</time>
      </trkpt>
      <trkpt lat="41.0520990" lon="0.7183410">
        <ele>223.7</ele>
        <time>2020-08-07T19:14:56Z</time>
      </trkpt>
      <trkpt lat="41.0520800" lon="0.7183970">
        <ele>223.8</ele>
        <time>2020-08-07T19:14:58Z</time>
      </trkpt>
      <trkpt lat="41.0520640" lon="0.7184290">
        <ele>223.9</ele>
        <time>2020-08-07T19:14:59Z</time>
      </trkpt>
      <trkpt lat="41.0520580" lon="0.7184370">
        <ele>223.9</ele>
        <time>2020-08-07T19:15:00Z</time>
      </trkpt>
      <trkpt lat="41.0520380" lon="0.7184840">
        <ele>224.1</ele>
        <time>2020-08-07T19:15:02Z</time>
      </trkpt>
      <trkpt lat="41.0520010" lon="0.7185520">
        <ele>224.3</ele>
        <time>2020-08-07T19:15:03Z</time>
      </trkpt>
      <trkpt lat="41.0519290" lon="0.7186270">
        <ele>224.5</ele>
        <time>2020-08-07T19:15:05Z</time>
      </trkpt>
      <trkpt lat="41.0518770" lon="0.7186870">
        <ele>224.7</ele>
        <time>2020-08-07T19:15:06Z</time>
      </trkpt>
      <trkpt lat="41.0518270" lon="0.7187560">
        <ele>224.9</ele>
        <time>2020-08-07T19:15:07Z</time>
      </trkpt>
      <trkpt lat="41.0517350" lon="0.7188870">
        <ele>225.4</ele>
        <time>2020-08-07T19:15:09Z</time>
      </trkpt>
      <trkpt lat="41.0516780" lon="0.7189890">
        <ele>225.7</ele>
        <time>2020-08-07T19:15:10Z</time>
      </trkpt>
      <trkpt lat="41.0516420" lon="0.7190540">
        <ele>226.0</ele>
        <time>2020-08-07T19:15:11Z</time>
      </trkpt>
      <trkpt lat="41.0516070" lon="0.7191080">
        <ele>226.2</ele>
        <time>2020-08-07T19:15:13Z</time>
      </trkpt>
      <trkpt lat="41.0515870" lon="0.7191380">
        <ele>226.3</ele>
        <time>2020-08-07T19:15:14Z</time>
      </trkpt>
      <trkpt lat="41.0515710" lon="0.7191680">
        <ele>226.4</ele>
        <time>2020-08-07T19:15:15Z</time>
      </trkpt>
      <trkpt lat="41.0515660" lon="0.7192080">
        <ele>226.5</ele>
        <time>2020-08-07T19:15:16Z</time>
      </trkpt>
      <trkpt lat="41.0515480" lon="0.7192530">
        <ele>226.7</ele>
        <time>2020-08-07T19:15:17Z</time>
      </trkpt>
      <trkpt lat="41.0515320" lon="0.7193000">
        <ele>226.8</ele>
        <time>2020-08-07T19:15:19Z</time>
      </trkpt>
      <trkpt lat="41.0515200" lon="0.7193480">
        <ele>226.9</ele>
        <time>2020-08-07T19:15:20Z</time>
      </trkpt>
      <trkpt lat="41.0515180" lon="0.7193660">
        <ele>227.0</ele>
        <time>2020-08-07T19:15:21Z</time>
      </trkpt>
      <trkpt lat="41.0514980" lon="0.7194170">
        <ele>227.1</ele>
        <time>2020-08-07T19:15:23Z</time>
      </trkpt>
      <trkpt lat="41.0514890" lon="0.7194650">
        <ele>227.3</ele>
        <time>2020-08-07T19:15:24Z</time>
      </trkpt>
      <trkpt lat="41.0514830" lon="0.7194830">
        <ele>227.3</ele>
        <time>2020-08-07T19:15:25Z</time>
      </trkpt>
      <trkpt lat="41.0514650" lon="0.7195210">
        <ele>227.4</ele>
        <time>2020-08-07T19:15:27Z</time>
      </trkpt>
      <trkpt lat="41.0514540" lon="0.7195460">
        <ele>227.5</ele>
        <time>2020-08-07T19:15:28Z</time>
      </trkpt>
      <trkpt lat="41.0514290" lon="0.7195860">
        <ele>227.7</ele>
        <time>2020-08-07T19:15:30Z</time>
      </trkpt>
      <trkpt lat="41.0514050" lon="0.7196160">
        <ele>227.8</ele>
        <time>2020-08-07T19:15:32Z</time>
      </trkpt>
      <trkpt lat="41.0513820" lon="0.7196410">
        <ele>227.9</ele>
        <time>2020-08-07T19:15:34Z</time>
      </trkpt>
      <trkpt lat="41.0513610" lon="0.7196650">
        <ele>228.0</ele>
        <time>2020-08-07T19:15:36Z</time>
      </trkpt>
      <trkpt lat="41.0512970" lon="0.7198490">
        <ele>228.6</ele>
        <time>2020-08-07T19:15:38Z</time>
      </trkpt>
      <trkpt lat="41.0512310" lon="0.7201180">
        <ele>229.4</ele>
        <time>2020-08-07T19:15:40Z</time>
      </trkpt>
      <trkpt lat="41.0511800" lon="0.7203170">
        <ele>230.0</ele>
        <time>2020-08-07T19:15:42Z</time>
      </trkpt>
      <trkpt lat="41.0512620" lon="0.7200040">
        <ele>230.9</ele>
        <time>2020-08-07T19:15:43Z</time>
      </trkpt>
      <trkpt lat="41.0512800" lon="0.7199070">
        <ele>231.2</ele>
        <time>2020-08-07T19:15:45Z</time>
      </trkpt>
      <trkpt lat="41.0512670" lon="0.7198590">
        <ele>231.3</ele>
        <time>2020-08-07T19:15:47Z</time>
      </trkpt>
      <trkpt lat="41.0511530" lon="0.7202390">
        <ele>232.4</ele>
        <time>2020-08-07T19:15:49Z</time>
      </trkpt>
      <trkpt lat="41.0511120" lon="0.7203800">
        <ele>232.9</ele>
        <time>2020-08-07T19:15:50Z</time>
      </trkpt>
      <trkpt lat="41.0510820" lon="0.7205050">
        <ele>233.3</ele>
        <time>2020-08-07T19:15:52Z</time>
      </trkpt>
      <trkpt lat="41.0510720" lon="0.7205540">
        <ele>233.4</ele>
        <time>2020-08-07T19:15:53Z</time>
      </trkpt>
      <trkpt lat="41.0510610" lon="0.7205980">
        <ele>233.6</ele>
        <time>2020-08-07T19:15:54Z</time>
      </trkpt>
      <trkpt lat="41.0510400" lon="0.7206680">
        <ele>233.7</ele>
        <time>2020-08-07T19:15:56Z</time>
      </trkpt>
      <trkpt lat="41.0510230" lon="0.7207190">
        <ele>233.9</ele>
        <time>2020-08-07T19:15:58Z</time>
      </trkpt>
      <trkpt lat="41.0510020" lon="0.7207680">
        <ele>234.0</ele>
        <time>2020-08-07T19:16:00Z</time>
      </trkpt>
      <trkpt lat="41.0509930" lon="0.7207880">
        <ele>234.1</ele>
        <time>2020-08-07T19:16:01Z</time>
      </trkpt>
      <trkpt lat="41.0509850" lon="0.7208080">
        <ele>234.1</ele>
        <time>2020-08-07T19:16:02Z</time>
      </trkpt>
      <trkpt lat="41.0509770" lon="0.7208290">
        <ele>234.2</ele>
        <time>2020-08-07T19:16:03Z</time>
      </trkpt>
      <trkpt lat="41.0509150" lon="0.7209750">
        <ele>234.7</ele>
        <time>2020-08-07T19:16:05Z</time>
      </trkpt>
      <trkpt lat="41.0508770" lon="0.7210750">
        <ele>235.0</ele>
        <time>2020-08-07T19:16:06Z</time>
      </trkpt>
      <trkpt lat="41.0508200" lon="0.7212260">
        <ele>235.4</ele>
        <time>2020-08-07T19:16:08Z</time>
      </trkpt>
      <trkpt lat="41.0507920" lon="0.7213000">
        <ele>235.6</ele>
        <time>2020-08-07T19:16:09Z</time>
      </trkpt>
      <trkpt lat="41.0507710" lon="0.7213500">
        <ele>235.8</ele>
        <time>2020-08-07T19:16:10Z</time>
      </trkpt>
      <trkpt lat="41.0507500" lon="0.7214010">
        <ele>235.9</ele>
        <time>2020-08-07T19:16:11Z</time>
      </trkpt>
      <trkpt lat="41.0507690" lon="0.7213490">
        <ele>236.1</ele>
        <time>2020-08-07T19:16:12Z</time>
      </trkpt>
      <trkpt lat="41.0507160" lon="0.7214610">
        <ele>236.4</ele>
        <time>2020-08-07T19:16:14Z</time>
      </trkpt>
      <trkpt lat="41.0506940" lon="0.7215160">
        <ele>236.5</ele>
        <time>2020-08-07T19:16:15Z</time>
      </trkpt>
      <trkpt lat="41.0506720" lon="0.7215680">
        <ele>236.7</ele>
        <time>2020-08-07T19:16:16Z</time>
      </trkpt>
      <trkpt lat="41.0507060" lon="0.7214960">
        <ele>236.9</ele>
        <time>2020-08-07T19:16:17Z</time>
      </trkpt>
      <trkpt lat="41.0507240" lon="0.7214440">
        <ele>237.0</ele>
        <time>2020-08-07T19:16:18Z</time>
      </trkpt>
      <trkpt lat="41.0507490" lon="0.7213670">
        <ele>237.2</ele>
        <time>2020-08-07T19:16:20Z</time>
      </trkpt>
      <trkpt lat="41.0507420" lon="0.7213590">
        <ele>237.2</ele>
        <time>2020-08-07T19:16:21Z</time>
      </trkpt>
      <trkpt lat="41.0507370" lon="0.7213560">
        <ele>237.2</ele>
        <time>2020-08-07T19:16:22Z</time>
      </trkpt>
      <trkpt lat="41.0507260" lon="0.7213590">
        <ele>237.3</ele>
        <time>2020-08-07T19:16:24Z</time>
      </trkpt>
      <trkpt lat="41.0507300" lon="0.7213590">
        <ele>237.3</ele>
        <time>2020-08-07T19:16:25Z</time>
      </trkpt>
      <trkpt lat="41.0507190" lon="0.7213760">
        <ele>237.3</ele>
        <time>2020-08-07T19:16:26Z</time>
      </trkpt>
      <trkpt lat="41.0507070" lon="0.7214040">
        <ele>237.4</ele>
        <time>2020-08-07T19:16:27Z</time>
      </trkpt>
      <trkpt lat="41.0506980" lon="0.7214180">
        <ele>237.5</ele>
        <time>2020-08-07T19:16:28Z</time>
      </trkpt>
      <trkpt lat="41.0506790" lon="0.7214510">
        <ele>237.6</ele>
        <time>2020-08-07T19:16:30Z</time>
      </trkpt>
      <trkpt lat="41.0506570" lon="0.7214900">
        <ele>237.7</ele>
        <time>2020-08-07T19:16:32Z</time>
      </trkpt>
      <trkpt lat="41.0506280" lon="0.7215450">
        <ele>237.8</ele>
        <time>2020-08-07T19:16:33Z</time>
      </trkpt>
      <trkpt lat="41.0505880" lon="0.7215900">
        <ele>238.0</ele>
        <time>2020-08-07T19:16:34Z</time>
      </trkpt>
      <trkpt lat="41.0505390" lon="0.7216800">
        <ele>238.3</ele>
        <time>2020-08-07T19:16:35Z</time>
      </trkpt>
      <trkpt lat="41.0504990" lon="0.7217470">
        <ele>238.5</ele>
        <time>2020-08-07T19:16:36Z</time>
      </trkpt>
      <trkpt lat="41.0504330" lon="0.7219100">
        <ele>238.9</ele>
        <time>2020-08-07T19:16:38Z</time>
      </trkpt>
      <trkpt lat="41.0504090" lon="0.7219930">
        <ele>239.2</ele>
        <time>2020-08-07T19:16:39Z</time>
      </trkpt>
      <trkpt lat="41.0503720" lon="0.7221730">
        <ele>239.7</ele>
        <time>2020-08-07T19:16:41Z</time>
      </trkpt>
      <trkpt lat="41.0503490" lon="0.7222810">
        <ele>240.0</ele>
        <time>2020-08-07T19:16:43Z</time>
      </trkpt>
      <trkpt lat="41.0503250" lon="0.7223470">
        <ele>240.2</ele>
        <time>2020-08-07T19:16:45Z</time>
      </trkpt>
      <trkpt lat="41.0503090" lon="0.7223920">
        <ele>240.3</ele>
        <time>2020-08-07T19:16:46Z</time>
      </trkpt>
      <trkpt lat="41.0503040" lon="0.7224060">
        <ele>240.4</ele>
        <time>2020-08-07T19:16:47Z</time>
      </trkpt>
      <trkpt lat="41.0502900" lon="0.7224430">
        <ele>240.5</ele>
        <time>2020-08-07T19:16:48Z</time>
      </trkpt>
      <trkpt lat="41.0502830" lon="0.7224540">
        <ele>240.5</ele>
        <time>2020-08-07T19:16:49Z</time>
      </trkpt>
      <trkpt lat="41.0502610" lon="0.7224950">
        <ele>240.6</ele>
        <time>2020-08-07T19:16:51Z</time>
      </trkpt>
      <trkpt lat="41.0502330" lon="0.7225400">
        <ele>240.8</ele>
        <time>2020-08-07T19:16:53Z</time>
      </trkpt>
      <trkpt lat="41.0501730" lon="0.7228120">
        <ele>241.6</ele>
        <time>2020-08-07T19:16:55Z</time>
      </trkpt>
      <trkpt lat="41.0501640" lon="0.7229240">
        <ele>242.0</ele>
        <time>2020-08-07T19:16:57Z</time>
      </trkpt>
      <trkpt lat="41.0501230" lon="0.7229490">
        <ele>242.2</ele>
        <time>2020-08-07T19:16:58Z</time>
      </trkpt>
      <trkpt lat="41.0500780" lon="0.7229740">
        <ele>242.4</ele>
        <time>2020-08-07T19:17:00Z</time>
      </trkpt>
      <trkpt lat="41.0500680" lon="0.7230160">
        <ele>242.6</ele>
        <time>2020-08-07T19:17:01Z</time>
      </trkpt>
      <trkpt lat="41.0500560" lon="0.7230510">
        <ele>242.7</ele>
        <time>2020-08-07T19:17:02Z</time>
      </trkpt>
      <trkpt lat="41.0499850" lon="0.7232580">
        <ele>243.6</ele>
        <time>2020-08-07T19:17:04Z</time>
      </trkpt>
      <trkpt lat="41.0499700" lon="0.7232990">
        <ele>243.8</ele>
        <time>2020-08-07T19:17:05Z</time>
      </trkpt>
      <trkpt lat="41.0499550" lon="0.7233370">
        <ele>244.0</ele>
        <time>2020-08-07T19:17:06Z</time>
      </trkpt>
      <trkpt lat="41.0499290" lon="0.7234020">
        <ele>244.3</ele>
        <time>2020-08-07T19:17:07Z</time>
      </trkpt>
      <trkpt lat="41.0499120" lon="0.7234400">
        <ele>244.4</ele>
        <time>2020-08-07T19:17:08Z</time>
      </trkpt>
      <trkpt lat="41.0498950" lon="0.7234840">
        <ele>244.5</ele>
        <time>2020-08-07T19:17:10Z</time>
      </trkpt>
      <trkpt lat="41.0498830" lon="0.7235200">
        <ele>244.7</ele>
        <time>2020-08-07T19:17:11Z</time>
      </trkpt>
      <trkpt lat="41.0498600" lon="0.7235790">
        <ele>244.9</ele>
        <time>2020-08-07T19:17:12Z</time>
      </trkpt>
      <trkpt lat="41.0498490" lon="0.7236140">
        <ele>245.0</ele>
        <time>2020-08-07T19:17:14Z</time>
      </trkpt>
      <trkpt lat="41.0498280" lon="0.7236750">
        <ele>245.2</ele>
        <time>2020-08-07T19:17:16Z</time>
      </trkpt>
      <trkpt lat="41.0498160" lon="0.7237070">
        <ele>245.4</ele>
        <time>2020-08-07T19:17:17Z</time>
      </trkpt>
      <trkpt lat="41.0497890" lon="0.7237720">
        <ele>245.6</ele>
        <time>2020-08-07T19:17:19Z</time>
      </trkpt>
      <trkpt lat="41.0497740" lon="0.7238050">
        <ele>245.8</ele>
        <time>2020-08-07T19:17:20Z</time>
      </trkpt>
      <trkpt lat="41.0497560" lon="0.7238400">
        <ele>245.9</ele>
        <time>2020-08-07T19:17:21Z</time>
      </trkpt>
      <trkpt lat="41.0497200" lon="0.7239150">
        <ele>246.2</ele>
        <time>2020-08-07T19:17:23Z</time>
      </trkpt>
      <trkpt lat="41.0497050" lon="0.7239460">
        <ele>246.3</ele>
        <time>2020-08-07T19:17:24Z</time>
      </trkpt>
      <trkpt lat="41.0496890" lon="0.7239980">
        <ele>246.5</ele>
        <time>2020-08-07T19:17:25Z</time>
      </trkpt>
      <trkpt lat="41.0496680" lon="0.7240520">
        <ele>246.7</ele>
        <time>2020-08-07T19:17:27Z</time>
      </trkpt>
      <trkpt lat="41.0496490" lon="0.7240970">
        <ele>246.8</ele>
        <time>2020-08-07T19:17:28Z</time>
      </trkpt>
      <trkpt lat="41.0496410" lon="0.7241140">
        <ele>246.9</ele>
        <time>2020-08-07T19:17:29Z</time>
      </trkpt>
      <trkpt lat="41.0496190" lon="0.7241720">
        <ele>247.1</ele>
        <time>2020-08-07T19:17:31Z</time>
      </trkpt>
      <trkpt lat="41.0496010" lon="0.7242160">
        <ele>247.3</ele>
        <time>2020-08-07T19:17:32Z</time>
      </trkpt>
      <trkpt lat="41.0495950" lon="0.7242300">
        <ele>247.3</ele>
        <time>2020-08-07T19:17:33Z</time>
      </trkpt>
      <trkpt lat="41.0495840" lon="0.7242620">
        <ele>247.4</ele>
        <time>2020-08-07T19:17:34Z</time>
      </trkpt>
      <trkpt lat="41.0495590" lon="0.7243230">
        <ele>247.6</ele>
        <time>2020-08-07T19:17:36Z</time>
      </trkpt>
      <trkpt lat="41.0495390" lon="0.7243820">
        <ele>247.8</ele>
        <time>2020-08-07T19:17:38Z</time>
      </trkpt>
      <trkpt lat="41.0495280" lon="0.7244120">
        <ele>247.9</ele>
        <time>2020-08-07T19:17:39Z</time>
      </trkpt>
      <trkpt lat="41.0495020" lon="0.7244810">
        <ele>248.1</ele>
        <time>2020-08-07T19:17:41Z</time>
      </trkpt>
      <trkpt lat="41.0494880" lon="0.7245170">
        <ele>248.3</ele>
        <time>2020-08-07T19:17:42Z</time>
      </trkpt>
      <trkpt lat="41.0494660" lon="0.7245740">
        <ele>248.5</ele>
        <time>2020-08-07T19:17:44Z</time>
      </trkpt>
      <trkpt lat="41.0494470" lon="0.7246370">
        <ele>248.7</ele>
        <time>2020-08-07T19:17:46Z</time>
      </trkpt>
      <trkpt lat="41.0494380" lon="0.7246660">
        <ele>248.8</ele>
        <time>2020-08-07T19:17:47Z</time>
      </trkpt>
      <trkpt lat="41.0493300" lon="0.7250180">
        <ele>249.9</ele>
        <time>2020-08-07T19:17:58Z</time>
      </trkpt>
      <trkpt lat="41.0493300" lon="0.7250180">
        <ele>249.9</ele>
        <time>2020-08-07T19:17:58Z</time>
      </trkpt>
      <trkpt lat="41.0493240" lon="0.7250580">
        <ele>250.0</ele>
        <time>2020-08-07T19:17:59Z</time>
      </trkpt>
      <trkpt lat="41.0493020" lon="0.7251120">
        <ele>250.2</ele>
        <time>2020-08-07T19:18:01Z</time>
      </trkpt>
      <trkpt lat="41.0492840" lon="0.7252000">
        <ele>250.4</ele>
        <time>2020-08-07T19:18:03Z</time>
      </trkpt>
      <trkpt lat="41.0492740" lon="0.7252370">
        <ele>250.5</ele>
        <time>2020-08-07T19:18:04Z</time>
      </trkpt>
      <trkpt lat="41.0492570" lon="0.7252910">
        <ele>250.7</ele>
        <time>2020-08-07T19:18:05Z</time>
      </trkpt>
      <trkpt lat="41.0492400" lon="0.7253380">
        <ele>250.8</ele>
        <time>2020-08-07T19:18:07Z</time>
      </trkpt>
      <trkpt lat="41.0492300" lon="0.7253720">
        <ele>250.9</ele>
        <time>2020-08-07T19:18:08Z</time>
      </trkpt>
      <trkpt lat="41.0492170" lon="0.7254120">
        <ele>251.1</ele>
        <time>2020-08-07T19:18:09Z</time>
      </trkpt>
      <trkpt lat="41.0492040" lon="0.7254510">
        <ele>251.2</ele>
        <time>2020-08-07T19:18:10Z</time>
      </trkpt>
      <trkpt lat="41.0491760" lon="0.7255410">
        <ele>251.5</ele>
        <time>2020-08-07T19:18:12Z</time>
      </trkpt>
      <trkpt lat="41.0491430" lon="0.7256440">
        <ele>251.8</ele>
        <time>2020-08-07T19:18:14Z</time>
      </trkpt>
      <trkpt lat="41.0491280" lon="0.7256910">
        <ele>251.9</ele>
        <time>2020-08-07T19:18:15Z</time>
      </trkpt>
      <trkpt lat="41.0490960" lon="0.7257840">
        <ele>252.2</ele>
        <time>2020-08-07T19:18:17Z</time>
      </trkpt>
      <trkpt lat="41.0490860" lon="0.7258270">
        <ele>252.3</ele>
        <time>2020-08-07T19:18:18Z</time>
      </trkpt>
      <trkpt lat="41.0490750" lon="0.7258680">
        <ele>252.4</ele>
        <time>2020-08-07T19:18:19Z</time>
      </trkpt>
      <trkpt lat="41.0490630" lon="0.7259040">
        <ele>252.5</ele>
        <time>2020-08-07T19:18:20Z</time>
      </trkpt>
      <trkpt lat="41.0490440" lon="0.7259760">
        <ele>252.7</ele>
        <time>2020-08-07T19:18:21Z</time>
      </trkpt>
      <trkpt lat="41.0490290" lon="0.7260240">
        <ele>252.8</ele>
        <time>2020-08-07T19:18:23Z</time>
      </trkpt>
      <trkpt lat="41.0490180" lon="0.7260630">
        <ele>252.9</ele>
        <time>2020-08-07T19:18:24Z</time>
      </trkpt>
      <trkpt lat="41.0490050" lon="0.7261100">
        <ele>253.0</ele>
        <time>2020-08-07T19:18:25Z</time>
      </trkpt>
      <trkpt lat="41.0489940" lon="0.7261480">
        <ele>253.1</ele>
        <time>2020-08-07T19:18:26Z</time>
      </trkpt>
      <trkpt lat="41.0489700" lon="0.7262260">
        <ele>253.3</ele>
        <time>2020-08-07T19:18:28Z</time>
      </trkpt>
      <trkpt lat="41.0489470" lon="0.7263020">
        <ele>253.4</ele>
        <time>2020-08-07T19:18:30Z</time>
      </trkpt>
      <trkpt lat="41.0489260" lon="0.7263700">
        <ele>253.6</ele>
        <time>2020-08-07T19:18:31Z</time>
      </trkpt>
      <trkpt lat="41.0489110" lon="0.7264240">
        <ele>253.7</ele>
        <time>2020-08-07T19:18:33Z</time>
      </trkpt>
      <trkpt lat="41.0488870" lon="0.7265010">
        <ele>253.9</ele>
        <time>2020-08-07T19:18:35Z</time>
      </trkpt>
      <trkpt lat="41.0488670" lon="0.7265530">
        <ele>254.0</ele>
        <time>2020-08-07T19:18:36Z</time>
      </trkpt>
      <trkpt lat="41.0488450" lon="0.7266070">
        <ele>254.1</ele>
        <time>2020-08-07T19:18:37Z</time>
      </trkpt>
      <trkpt lat="41.0488300" lon="0.7266500">
        <ele>254.2</ele>
        <time>2020-08-07T19:18:38Z</time>
      </trkpt>
      <trkpt lat="41.0488160" lon="0.7266930">
        <ele>254.3</ele>
        <time>2020-08-07T19:18:40Z</time>
      </trkpt>
      <trkpt lat="41.0487890" lon="0.7267710">
        <ele>254.4</ele>
        <time>2020-08-07T19:18:42Z</time>
      </trkpt>
      <trkpt lat="41.0487650" lon="0.7268460">
        <ele>254.6</ele>
        <time>2020-08-07T19:18:44Z</time>
      </trkpt>
      <trkpt lat="41.0487400" lon="0.7269190">
        <ele>254.7</ele>
        <time>2020-08-07T19:18:46Z</time>
      </trkpt>
      <trkpt lat="41.0487260" lon="0.7269610">
        <ele>254.8</ele>
        <time>2020-08-07T19:18:47Z</time>
      </trkpt>
      <trkpt lat="41.0487080" lon="0.7270270">
        <ele>255.0</ele>
        <time>2020-08-07T19:18:48Z</time>
      </trkpt>
      <trkpt lat="41.0486970" lon="0.7270660">
        <ele>255.1</ele>
        <time>2020-08-07T19:18:49Z</time>
      </trkpt>
      <trkpt lat="41.0486820" lon="0.7271130">
        <ele>255.2</ele>
        <time>2020-08-07T19:18:51Z</time>
      </trkpt>
      <trkpt lat="41.0486640" lon="0.7271890">
        <ele>255.4</ele>
        <time>2020-08-07T19:18:53Z</time>
      </trkpt>
      <trkpt lat="41.0486460" lon="0.7272470">
        <ele>255.5</ele>
        <time>2020-08-07T19:18:54Z</time>
      </trkpt>
      <trkpt lat="41.0486320" lon="0.7272990">
        <ele>255.6</ele>
        <time>2020-08-07T19:18:55Z</time>
      </trkpt>
      <trkpt lat="41.0486220" lon="0.7273350">
        <ele>255.7</ele>
        <time>2020-08-07T19:18:57Z</time>
      </trkpt>
      <trkpt lat="41.0486030" lon="0.7273950">
        <ele>255.8</ele>
        <time>2020-08-07T19:18:58Z</time>
      </trkpt>
      <trkpt lat="41.0485870" lon="0.7274500">
        <ele>255.9</ele>
        <time>2020-08-07T19:19:00Z</time>
      </trkpt>
      <trkpt lat="41.0485700" lon="0.7275140">
        <ele>256.1</ele>
        <time>2020-08-07T19:19:02Z</time>
      </trkpt>
      <trkpt lat="41.0485540" lon="0.7275710">
        <ele>256.2</ele>
        <time>2020-08-07T19:19:03Z</time>
      </trkpt>
      <trkpt lat="41.0485420" lon="0.7276120">
        <ele>256.3</ele>
        <time>2020-08-07T19:19:04Z</time>
      </trkpt>
      <trkpt lat="41.0485300" lon="0.7276540">
        <ele>256.4</ele>
        <time>2020-08-07T19:19:05Z</time>
      </trkpt>
      <trkpt lat="41.0485160" lon="0.7277070">
        <ele>256.5</ele>
        <time>2020-08-07T19:19:07Z</time>
      </trkpt>
      <trkpt lat="41.0484960" lon="0.7277850">
        <ele>256.7</ele>
        <time>2020-08-07T19:19:09Z</time>
      </trkpt>
      <trkpt lat="41.0484730" lon="0.7278700">
        <ele>256.9</ele>
        <time>2020-08-07T19:19:11Z</time>
      </trkpt>
      <trkpt lat="41.0484540" lon="0.7279360">
        <ele>257.0</ele>
        <time>2020-08-07T19:19:12Z</time>
      </trkpt>
      <trkpt lat="41.0484340" lon="0.7280010">
        <ele>257.2</ele>
        <time>2020-08-07T19:19:14Z</time>
      </trkpt>
      <trkpt lat="41.0484180" lon="0.7280440">
        <ele>257.3</ele>
        <time>2020-08-07T19:19:15Z</time>
      </trkpt>
      <trkpt lat="41.0483980" lon="0.7281190">
        <ele>257.4</ele>
        <time>2020-08-07T19:19:17Z</time>
      </trkpt>
      <trkpt lat="41.0483870" lon="0.7281570">
        <ele>257.5</ele>
        <time>2020-08-07T19:19:18Z</time>
      </trkpt>
      <trkpt lat="41.0483660" lon="0.7282370">
        <ele>257.6</ele>
        <time>2020-08-07T19:19:20Z</time>
      </trkpt>
      <trkpt lat="41.0483480" lon="0.7283030">
        <ele>257.8</ele>
        <time>2020-08-07T19:19:21Z</time>
      </trkpt>
      <trkpt lat="41.0483310" lon="0.7283640">
        <ele>257.9</ele>
        <time>2020-08-07T19:19:23Z</time>
      </trkpt>
      <trkpt lat="41.0483080" lon="0.7284420">
        <ele>258.0</ele>
        <time>2020-08-07T19:19:25Z</time>
      </trkpt>
      <trkpt lat="41.0482850" lon="0.7285220">
        <ele>258.2</ele>
        <time>2020-08-07T19:19:27Z</time>
      </trkpt>
      <trkpt lat="41.0482590" lon="0.7285990">
        <ele>258.4</ele>
        <time>2020-08-07T19:19:28Z</time>
      </trkpt>
      <trkpt lat="41.0482440" lon="0.7286450">
        <ele>258.5</ele>
        <time>2020-08-07T19:19:30Z</time>
      </trkpt>
      <trkpt lat="41.0482320" lon="0.7286840">
        <ele>258.5</ele>
        <time>2020-08-07T19:19:31Z</time>
      </trkpt>
      <trkpt lat="41.0482210" lon="0.7287320">
        <ele>258.6</ele>
        <time>2020-08-07T19:19:32Z</time>
      </trkpt>
      <trkpt lat="41.0481930" lon="0.7288170">
        <ele>258.7</ele>
        <time>2020-08-07T19:19:34Z</time>
      </trkpt>
      <trkpt lat="41.0481690" lon="0.7289110">
        <ele>258.9</ele>
        <time>2020-08-07T19:19:36Z</time>
      </trkpt>
      <trkpt lat="41.0481520" lon="0.7289740">
        <ele>259.0</ele>
        <time>2020-08-07T19:19:37Z</time>
      </trkpt>
      <trkpt lat="41.0481360" lon="0.7290250">
        <ele>259.1</ele>
        <time>2020-08-07T19:19:38Z</time>
      </trkpt>
      <trkpt lat="41.0481170" lon="0.7290970">
        <ele>259.2</ele>
        <time>2020-08-07T19:19:40Z</time>
      </trkpt>
      <trkpt lat="41.0481040" lon="0.7291460">
        <ele>259.3</ele>
        <time>2020-08-07T19:19:41Z</time>
      </trkpt>
      <trkpt lat="41.0480870" lon="0.7292060">
        <ele>259.4</ele>
        <time>2020-08-07T19:19:42Z</time>
      </trkpt>
      <trkpt lat="41.0480680" lon="0.7292660">
        <ele>259.5</ele>
        <time>2020-08-07T19:19:43Z</time>
      </trkpt>
      <trkpt lat="41.0480490" lon="0.7293240">
        <ele>259.6</ele>
        <time>2020-08-07T19:19:45Z</time>
      </trkpt>
      <trkpt lat="41.0480230" lon="0.7294060">
        <ele>259.7</ele>
        <time>2020-08-07T19:19:47Z</time>
      </trkpt>
      <trkpt lat="41.0480100" lon="0.7294480">
        <ele>259.8</ele>
        <time>2020-08-07T19:19:48Z</time>
      </trkpt>
      <trkpt lat="41.0479870" lon="0.7295340">
        <ele>260.0</ele>
        <time>2020-08-07T19:19:50Z</time>
      </trkpt>
      <trkpt lat="41.0479650" lon="0.7296120">
        <ele>260.1</ele>
        <time>2020-08-07T19:19:52Z</time>
      </trkpt>
      <trkpt lat="41.0479520" lon="0.7296520">
        <ele>260.2</ele>
        <time>2020-08-07T19:19:53Z</time>
      </trkpt>
      <trkpt lat="41.0479280" lon="0.7297350">
        <ele>260.3</ele>
        <time>2020-08-07T19:19:55Z</time>
      </trkpt>
      <trkpt lat="41.0479170" lon="0.7297760">
        <ele>260.4</ele>
        <time>2020-08-07T19:19:56Z</time>
      </trkpt>
      <trkpt lat="41.0479070" lon="0.7298170">
        <ele>260.5</ele>
        <time>2020-08-07T19:19:57Z</time>
      </trkpt>
      <trkpt lat="41.0478840" lon="0.7298930">
        <ele>260.6</ele>
        <time>2020-08-07T19:19:58Z</time>
      </trkpt>
      <trkpt lat="41.0478660" lon="0.7299500">
        <ele>260.7</ele>
        <time>2020-08-07T19:20:00Z</time>
      </trkpt>
      <trkpt lat="41.0478400" lon="0.7300290">
        <ele>260.9</ele>
        <time>2020-08-07T19:20:01Z</time>
      </trkpt>
      <trkpt lat="41.0478220" lon="0.7300790">
        <ele>261.0</ele>
        <time>2020-08-07T19:20:03Z</time>
      </trkpt>
      <trkpt lat="41.0478040" lon="0.7301250">
        <ele>261.1</ele>
        <time>2020-08-07T19:20:04Z</time>
      </trkpt>
      <trkpt lat="41.0477900" lon="0.7301700">
        <ele>261.2</ele>
        <time>2020-08-07T19:20:05Z</time>
      </trkpt>
      <trkpt lat="41.0477770" lon="0.7302130">
        <ele>261.3</ele>
        <time>2020-08-07T19:20:06Z</time>
      </trkpt>
      <trkpt lat="41.0477500" lon="0.7302930">
        <ele>261.5</ele>
        <time>2020-08-07T19:20:07Z</time>
      </trkpt>
      <trkpt lat="41.0477300" lon="0.7303500">
        <ele>261.6</ele>
        <time>2020-08-07T19:20:09Z</time>
      </trkpt>
      <trkpt lat="41.0477140" lon="0.7303950">
        <ele>261.7</ele>
        <time>2020-08-07T19:20:10Z</time>
      </trkpt>
      <trkpt lat="41.0476850" lon="0.7304780">
        <ele>261.9</ele>
        <time>2020-08-07T19:20:11Z</time>
      </trkpt>
      <trkpt lat="41.0476700" lon="0.7305220">
        <ele>262.0</ele>
        <time>2020-08-07T19:20:12Z</time>
      </trkpt>
      <trkpt lat="41.0476570" lon="0.7305660">
        <ele>262.1</ele>
        <time>2020-08-07T19:20:14Z</time>
      </trkpt>
      <trkpt lat="41.0476440" lon="0.7306090">
        <ele>262.2</ele>
        <time>2020-08-07T19:20:15Z</time>
      </trkpt>
      <trkpt lat="41.0476300" lon="0.7306570">
        <ele>262.3</ele>
        <time>2020-08-07T19:20:16Z</time>
      </trkpt>
      <trkpt lat="41.0476070" lon="0.7307400">
        <ele>262.4</ele>
        <time>2020-08-07T19:20:18Z</time>
      </trkpt>
      <trkpt lat="41.0475970" lon="0.7307820">
        <ele>262.5</ele>
        <time>2020-08-07T19:20:19Z</time>
      </trkpt>
      <trkpt lat="41.0475840" lon="0.7308230">
        <ele>262.6</ele>
        <time>2020-08-07T19:20:20Z</time>
      </trkpt>
      <trkpt lat="41.0475710" lon="0.7308630">
        <ele>262.7</ele>
        <time>2020-08-07T19:20:21Z</time>
      </trkpt>
      <trkpt lat="41.0475490" lon="0.7309440">
        <ele>262.9</ele>
        <time>2020-08-07T19:20:23Z</time>
      </trkpt>
      <trkpt lat="41.0475350" lon="0.7309950">
        <ele>263.0</ele>
        <time>2020-08-07T19:20:24Z</time>
      </trkpt>
      <trkpt lat="41.0474870" lon="0.7311690">
        <ele>263.4</ele>
        <time>2020-08-07T19:20:29Z</time>
      </trkpt>
      <trkpt lat="41.0474650" lon="0.7312390">
        <ele>263.5</ele>
        <time>2020-08-07T19:20:30Z</time>
      </trkpt>
      <trkpt lat="41.0474530" lon="0.7312860">
        <ele>263.6</ele>
        <time>2020-08-07T19:20:32Z</time>
      </trkpt>
      <trkpt lat="41.0474360" lon="0.7313450">
        <ele>263.8</ele>
        <time>2020-08-07T19:20:33Z</time>
      </trkpt>
      <trkpt lat="41.0474200" lon="0.7313990">
        <ele>263.9</ele>
        <time>2020-08-07T19:20:35Z</time>
      </trkpt>
      <trkpt lat="41.0474070" lon="0.7314410">
        <ele>264.0</ele>
        <time>2020-08-07T19:20:36Z</time>
      </trkpt>
      <trkpt lat="41.0474030" lon="0.7314540">
        <ele>264.0</ele>
        <time>2020-08-07T19:20:37Z</time>
      </trkpt>
      <trkpt lat="41.0473930" lon="0.7314720">
        <ele>264.1</ele>
        <time>2020-08-07T19:20:38Z</time>
      </trkpt>
      <trkpt lat="41.0473830" lon="0.7315010">
        <ele>264.1</ele>
        <time>2020-08-07T19:20:40Z</time>
      </trkpt>
      <trkpt lat="41.0473670" lon="0.7315400">
        <ele>264.2</ele>
        <time>2020-08-07T19:20:42Z</time>
      </trkpt>
      <trkpt lat="41.0473630" lon="0.7315480">
        <ele>264.2</ele>
        <time>2020-08-07T19:20:43Z</time>
      </trkpt>
      <trkpt lat="41.0473490" lon="0.7315890">
        <ele>264.3</ele>
        <time>2020-08-07T19:20:44Z</time>
      </trkpt>
      <trkpt lat="41.0473390" lon="0.7316180">
        <ele>264.4</ele>
        <time>2020-08-07T19:20:46Z</time>
      </trkpt>
      <trkpt lat="41.0473270" lon="0.7316560">
        <ele>264.5</ele>
        <time>2020-08-07T19:20:48Z</time>
      </trkpt>
      <trkpt lat="41.0473200" lon="0.7316720">
        <ele>264.5</ele>
        <time>2020-08-07T19:20:49Z</time>
      </trkpt>
      <trkpt lat="41.0473120" lon="0.7316980">
        <ele>264.6</ele>
        <time>2020-08-07T19:20:50Z</time>
      </trkpt>
      <trkpt lat="41.0473000" lon="0.7317380">
        <ele>264.7</ele>
        <time>2020-08-07T19:20:51Z</time>
      </trkpt>
      <trkpt lat="41.0472890" lon="0.7317770">
        <ele>264.8</ele>
        <time>2020-08-07T19:20:53Z</time>
      </trkpt>
      <trkpt lat="41.0472850" lon="0.7317910">
        <ele>264.8</ele>
        <time>2020-08-07T19:20:54Z</time>
      </trkpt>
      <trkpt lat="41.0472690" lon="0.7318490">
        <ele>265.0</ele>
        <time>2020-08-07T19:20:56Z</time>
      </trkpt>
      <trkpt lat="41.0472610" lon="0.7318860">
        <ele>265.1</ele>
        <time>2020-08-07T19:20:57Z</time>
      </trkpt>
      <trkpt lat="41.0472530" lon="0.7319160">
        <ele>265.1</ele>
        <time>2020-08-07T19:20:58Z</time>
      </trkpt>
      <trkpt lat="41.0472420" lon="0.7319550">
        <ele>265.3</ele>
        <time>2020-08-07T19:21:00Z</time>
      </trkpt>
      <trkpt lat="41.0472290" lon="0.7320090">
        <ele>265.4</ele>
        <time>2020-08-07T19:21:02Z</time>
      </trkpt>
      <trkpt lat="41.0472160" lon="0.7320630">
        <ele>265.6</ele>
        <time>2020-08-07T19:21:04Z</time>
      </trkpt>
      <trkpt lat="41.0472040" lon="0.7321150">
        <ele>265.7</ele>
        <time>2020-08-07T19:21:05Z</time>
      </trkpt>
      <trkpt lat="41.0471960" lon="0.7321600">
        <ele>265.9</ele>
        <time>2020-08-07T19:21:07Z</time>
      </trkpt>
      <trkpt lat="41.0471930" lon="0.7321740">
        <ele>265.9</ele>
        <time>2020-08-07T19:21:08Z</time>
      </trkpt>
      <trkpt lat="41.0471750" lon="0.7322280">
        <ele>266.1</ele>
        <time>2020-08-07T19:21:09Z</time>
      </trkpt>
      <trkpt lat="41.0471620" lon="0.7322610">
        <ele>266.2</ele>
        <time>2020-08-07T19:21:11Z</time>
      </trkpt>
      <trkpt lat="41.0471470" lon="0.7322890">
        <ele>266.3</ele>
        <time>2020-08-07T19:21:12Z</time>
      </trkpt>
      <trkpt lat="41.0471190" lon="0.7323310">
        <ele>266.5</ele>
        <time>2020-08-07T19:21:14Z</time>
      </trkpt>
      <trkpt lat="41.0470920" lon="0.7323660">
        <ele>266.6</ele>
        <time>2020-08-07T19:21:16Z</time>
      </trkpt>
      <trkpt lat="41.0470820" lon="0.7323780">
        <ele>266.6</ele>
        <time>2020-08-07T19:21:17Z</time>
      </trkpt>
      <trkpt lat="41.0470560" lon="0.7323970">
        <ele>266.7</ele>
        <time>2020-08-07T19:21:18Z</time>
      </trkpt>
      <trkpt lat="41.0470460" lon="0.7324040">
        <ele>266.9</ele>
        <time>2020-08-07T19:21:19Z</time>
      </trkpt>
      <trkpt lat="41.0470110" lon="0.7324390">
        <ele>267.2</ele>
        <time>2020-08-07T19:21:21Z</time>
      </trkpt>
      <trkpt lat="41.0469750" lon="0.7324610">
        <ele>267.5</ele>
        <time>2020-08-07T19:21:23Z</time>
      </trkpt>
      <trkpt lat="41.0469390" lon="0.7324890">
        <ele>267.8</ele>
        <time>2020-08-07T19:21:24Z</time>
      </trkpt>
      <trkpt lat="41.0469200" lon="0.7325050">
        <ele>267.9</ele>
        <time>2020-08-07T19:21:25Z</time>
      </trkpt>
      <trkpt lat="41.0468420" lon="0.7325940">
        <ele>268.6</ele>
        <time>2020-08-07T19:21:26Z</time>
      </trkpt>
      <trkpt lat="41.0467650" lon="0.7326900">
        <ele>269.3</ele>
        <time>2020-08-07T19:21:28Z</time>
      </trkpt>
      <trkpt lat="41.0467080" lon="0.7327590">
        <ele>269.9</ele>
        <time>2020-08-07T19:21:29Z</time>
      </trkpt>
      <trkpt lat="41.0466250" lon="0.7328740">
        <ele>270.6</ele>
        <time>2020-08-07T19:21:30Z</time>
      </trkpt>
      <trkpt lat="41.0465840" lon="0.7329290">
        <ele>271.0</ele>
        <time>2020-08-07T19:21:31Z</time>
      </trkpt>
      <trkpt lat="41.0465490" lon="0.7329760">
        <ele>271.3</ele>
        <time>2020-08-07T19:21:32Z</time>
      </trkpt>
      <trkpt lat="41.0465080" lon="0.7330250">
        <ele>271.6</ele>
        <time>2020-08-07T19:21:34Z</time>
      </trkpt>
      <trkpt lat="41.0464800" lon="0.7330610">
        <ele>271.9</ele>
        <time>2020-08-07T19:21:36Z</time>
      </trkpt>
      <trkpt lat="41.0464480" lon="0.7331370">
        <ele>272.3</ele>
        <time>2020-08-07T19:21:38Z</time>
      </trkpt>
      <trkpt lat="41.0464240" lon="0.7331950">
        <ele>272.7</ele>
        <time>2020-08-07T19:21:39Z</time>
      </trkpt>
      <trkpt lat="41.0464090" lon="0.7332220">
        <ele>272.9</ele>
        <time>2020-08-07T19:21:40Z</time>
      </trkpt>
      <trkpt lat="41.0463930" lon="0.7332500">
        <ele>273.0</ele>
        <time>2020-08-07T19:21:42Z</time>
      </trkpt>
      <trkpt lat="41.0463720" lon="0.7332820">
        <ele>273.3</ele>
        <time>2020-08-07T19:21:43Z</time>
      </trkpt>
      <trkpt lat="41.0463650" lon="0.7332920">
        <ele>273.4</ele>
        <time>2020-08-07T19:21:44Z</time>
      </trkpt>
      <trkpt lat="41.0463430" lon="0.7333250">
        <ele>273.6</ele>
        <time>2020-08-07T19:21:45Z</time>
      </trkpt>
      <trkpt lat="41.0463350" lon="0.7333360">
        <ele>273.7</ele>
        <time>2020-08-07T19:21:46Z</time>
      </trkpt>
      <trkpt lat="41.0463110" lon="0.7333780">
        <ele>273.8</ele>
        <time>2020-08-07T19:21:48Z</time>
      </trkpt>
      <trkpt lat="41.0462830" lon="0.7334160">
        <ele>274.0</ele>
        <time>2020-08-07T19:21:49Z</time>
      </trkpt>
      <trkpt lat="41.0462690" lon="0.7334330">
        <ele>274.0</ele>
        <time>2020-08-07T19:21:50Z</time>
      </trkpt>
      <trkpt lat="41.0462490" lon="0.7334620">
        <ele>274.1</ele>
        <time>2020-08-07T19:21:52Z</time>
      </trkpt>
      <trkpt lat="41.0462170" lon="0.7335050">
        <ele>274.3</ele>
        <time>2020-08-07T19:21:54Z</time>
      </trkpt>
      <trkpt lat="41.0462000" lon="0.7335250">
        <ele>274.4</ele>
        <time>2020-08-07T19:21:55Z</time>
      </trkpt>
      <trkpt lat="41.0461680" lon="0.7335690">
        <ele>274.6</ele>
        <time>2020-08-07T19:21:57Z</time>
      </trkpt>
      <trkpt lat="41.0461380" lon="0.7336030">
        <ele>274.7</ele>
        <time>2020-08-07T19:21:58Z</time>
      </trkpt>
      <trkpt lat="41.0461190" lon="0.7336230">
        <ele>274.8</ele>
        <time>2020-08-07T19:21:59Z</time>
      </trkpt>
      <trkpt lat="41.0461020" lon="0.7336410">
        <ele>274.9</ele>
        <time>2020-08-07T19:22:01Z</time>
      </trkpt>
      <trkpt lat="41.0460770" lon="0.7336720">
        <ele>275.1</ele>
        <time>2020-08-07T19:22:02Z</time>
      </trkpt>
      <trkpt lat="41.0460700" lon="0.7336800">
        <ele>275.1</ele>
        <time>2020-08-07T19:22:03Z</time>
      </trkpt>
      <trkpt lat="41.0460460" lon="0.7337060">
        <ele>275.3</ele>
        <time>2020-08-07T19:22:04Z</time>
      </trkpt>
      <trkpt lat="41.0460230" lon="0.7337300">
        <ele>275.4</ele>
        <time>2020-08-07T19:22:06Z</time>
      </trkpt>
      <trkpt lat="41.0460150" lon="0.7337360">
        <ele>275.5</ele>
        <time>2020-08-07T19:22:07Z</time>
      </trkpt>
      <trkpt lat="41.0459830" lon="0.7337390">
        <ele>275.6</ele>
        <time>2020-08-07T19:22:10Z</time>
      </trkpt>
      <trkpt lat="41.0459560" lon="0.7337540">
        <ele>275.8</ele>
        <time>2020-08-07T19:22:11Z</time>
      </trkpt>
      <trkpt lat="41.0459440" lon="0.7337620">
        <ele>275.8</ele>
        <time>2020-08-07T19:22:12Z</time>
      </trkpt>
      <trkpt lat="41.0459340" lon="0.7337690">
        <ele>275.9</ele>
        <time>2020-08-07T19:22:13Z</time>
      </trkpt>
      <trkpt lat="41.0459240" lon="0.7337760">
        <ele>275.9</ele>
        <time>2020-08-07T19:22:14Z</time>
      </trkpt>
      <trkpt lat="41.0459060" lon="0.7337890">
        <ele>276.0</ele>
        <time>2020-08-07T19:22:16Z</time>
      </trkpt>
      <trkpt lat="41.0458970" lon="0.7337960">
        <ele>276.1</ele>
        <time>2020-08-07T19:22:17Z</time>
      </trkpt>
      <trkpt lat="41.0458790" lon="0.7338120">
        <ele>276.2</ele>
        <time>2020-08-07T19:22:19Z</time>
      </trkpt>
      <trkpt lat="41.0458700" lon="0.7338220">
        <ele>276.2</ele>
        <time>2020-08-07T19:22:20Z</time>
      </trkpt>
      <trkpt lat="41.0458560" lon="0.7338390">
        <ele>276.3</ele>
        <time>2020-08-07T19:22:21Z</time>
      </trkpt>
      <trkpt lat="41.0458490" lon="0.7338480">
        <ele>276.4</ele>
        <time>2020-08-07T19:22:22Z</time>
      </trkpt>
      <trkpt lat="41.0458430" lon="0.7338560">
        <ele>276.4</ele>
        <time>2020-08-07T19:22:23Z</time>
      </trkpt>
      <trkpt lat="41.0458230" lon="0.7338890">
        <ele>276.6</ele>
        <time>2020-08-07T19:22:25Z</time>
      </trkpt>
      <trkpt lat="41.0458160" lon="0.7338980">
        <ele>276.6</ele>
        <time>2020-08-07T19:22:26Z</time>
      </trkpt>
      <trkpt lat="41.0458000" lon="0.7339180">
        <ele>276.7</ele>
        <time>2020-08-07T19:22:28Z</time>
      </trkpt>
      <trkpt lat="41.0457920" lon="0.7339250">
        <ele>276.7</ele>
        <time>2020-08-07T19:22:29Z</time>
      </trkpt>
      <trkpt lat="41.0457840" lon="0.7339390">
        <ele>276.8</ele>
        <time>2020-08-07T19:22:31Z</time>
      </trkpt>
      <trkpt lat="41.0457830" lon="0.7339580">
        <ele>276.9</ele>
        <time>2020-08-07T19:22:32Z</time>
      </trkpt>
      <trkpt lat="41.0457710" lon="0.7339780">
        <ele>276.9</ele>
        <time>2020-08-07T19:22:34Z</time>
      </trkpt>
      <trkpt lat="41.0457440" lon="0.7340220">
        <ele>277.1</ele>
        <time>2020-08-07T19:22:35Z</time>
      </trkpt>
      <trkpt lat="41.0457320" lon="0.7340410">
        <ele>277.2</ele>
        <time>2020-08-07T19:22:36Z</time>
      </trkpt>
      <trkpt lat="41.0457110" lon="0.7340720">
        <ele>277.4</ele>
        <time>2020-08-07T19:22:37Z</time>
      </trkpt>
      <trkpt lat="41.0456890" lon="0.7341020">
        <ele>277.6</ele>
        <time>2020-08-07T19:22:39Z</time>
      </trkpt>
      <trkpt lat="41.0456650" lon="0.7341350">
        <ele>277.7</ele>
        <time>2020-08-07T19:22:40Z</time>
      </trkpt>
      <trkpt lat="41.0456250" lon="0.7342020">
        <ele>278.1</ele>
        <time>2020-08-07T19:22:42Z</time>
      </trkpt>
      <trkpt lat="41.0456030" lon="0.7342310">
        <ele>278.2</ele>
        <time>2020-08-07T19:22:43Z</time>
      </trkpt>
      <trkpt lat="41.0455640" lon="0.7342790">
        <ele>278.5</ele>
        <time>2020-08-07T19:22:45Z</time>
      </trkpt>
      <trkpt lat="41.0455330" lon="0.7343090">
        <ele>278.8</ele>
        <time>2020-08-07T19:22:46Z</time>
      </trkpt>
      <trkpt lat="41.0455190" lon="0.7343190">
        <ele>278.9</ele>
        <time>2020-08-07T19:22:47Z</time>
      </trkpt>
      <trkpt lat="41.0454840" lon="0.7343420">
        <ele>279.1</ele>
        <time>2020-08-07T19:22:49Z</time>
      </trkpt>
      <trkpt lat="41.0452540" lon="0.7345170">
        <ele>280.6</ele>
        <time>2020-08-07T19:22:51Z</time>
      </trkpt>
      <trkpt lat="41.0451850" lon="0.7345640">
        <ele>280.9</ele>
        <time>2020-08-07T19:22:52Z</time>
      </trkpt>
      <trkpt lat="41.0451110" lon="0.7346140">
        <ele>281.3</ele>
        <time>2020-08-07T19:22:54Z</time>
      </trkpt>
      <trkpt lat="41.0450920" lon="0.7346280">
        <ele>281.4</ele>
        <time>2020-08-07T19:22:55Z</time>
      </trkpt>
      <trkpt lat="41.0450800" lon="0.7346360">
        <ele>281.4</ele>
        <time>2020-08-07T19:22:56Z</time>
      </trkpt>
      <trkpt lat="41.0450650" lon="0.7346460">
        <ele>281.5</ele>
        <time>2020-08-07T19:22:57Z</time>
      </trkpt>
      <trkpt lat="41.0450570" lon="0.7346500">
        <ele>281.5</ele>
        <time>2020-08-07T19:22:58Z</time>
      </trkpt>
      <trkpt lat="41.0450480" lon="0.7346530">
        <ele>281.5</ele>
        <time>2020-08-07T19:23:00Z</time>
      </trkpt>
      <trkpt lat="41.0450350" lon="0.7346480">
        <ele>281.5</ele>
        <time>2020-08-07T19:23:02Z</time>
      </trkpt>
      <trkpt lat="41.0450290" lon="0.7346440">
        <ele>281.6</ele>
        <time>2020-08-07T19:23:03Z</time>
      </trkpt>
      <trkpt lat="41.0450340" lon="0.7346400">
        <ele>281.6</ele>
        <time>2020-08-07T19:23:05Z</time>
      </trkpt>
      <trkpt lat="41.0450220" lon="0.7346170">
        <ele>281.6</ele>
        <time>2020-08-07T19:23:07Z</time>
      </trkpt>
      <trkpt lat="41.0450140" lon="0.7346090">
        <ele>281.6</ele>
        <time>2020-08-07T19:23:08Z</time>
      </trkpt>
      <trkpt lat="41.0449860" lon="0.7346030">
        <ele>281.6</ele>
        <time>2020-08-07T19:23:10Z</time>
      </trkpt>
      <trkpt lat="41.0449790" lon="0.7346310">
        <ele>281.6</ele>
        <time>2020-08-07T19:23:12Z</time>
      </trkpt>
      <trkpt lat="41.0449930" lon="0.7346300">
        <ele>281.6</ele>
        <time>2020-08-07T19:23:13Z</time>
      </trkpt>
      <trkpt lat="41.0448840" lon="0.7345950">
        <ele>281.6</ele>
        <time>2020-08-07T19:23:15Z</time>
      </trkpt>
      <trkpt lat="41.0448140" lon="0.7345870">
        <ele>281.6</ele>
        <time>2020-08-07T19:23:16Z</time>
      </trkpt>
      <trkpt lat="41.0446880" lon="0.7345930">
        <ele>281.5</ele>
        <time>2020-08-07T19:23:18Z</time>
      </trkpt>
      <trkpt lat="41.0446330" lon="0.7346020">
        <ele>281.5</ele>
        <time>2020-08-07T19:23:19Z</time>
      </trkpt>
      <trkpt lat="41.0444910" lon="0.7346390">
        <ele>281.4</ele>
        <time>2020-08-07T19:23:21Z</time>
      </trkpt>
      <trkpt lat="41.0444520" lon="0.7346490">
        <ele>281.4</ele>
        <time>2020-08-07T19:23:22Z</time>
      </trkpt>
      <trkpt lat="41.0444140" lon="0.7346590">
        <ele>281.4</ele>
        <time>2020-08-07T19:23:23Z</time>
      </trkpt>
      <trkpt lat="41.0443460" lon="0.7346790">
        <ele>281.4</ele>
        <time>2020-08-07T19:23:25Z</time>
      </trkpt>
      <trkpt lat="41.0443000" lon="0.7347130">
        <ele>281.4</ele>
        <time>2020-08-07T19:23:26Z</time>
      </trkpt>
      <trkpt lat="41.0442630" lon="0.7347340">
        <ele>281.4</ele>
        <time>2020-08-07T19:23:27Z</time>
      </trkpt>
      <trkpt lat="41.0442280" lon="0.7347510">
        <ele>281.5</ele>
        <time>2020-08-07T19:23:28Z</time>
      </trkpt>
      <trkpt lat="41.0441570" lon="0.7347770">
        <ele>281.6</ele>
        <time>2020-08-07T19:23:30Z</time>
      </trkpt>
      <trkpt lat="41.0440840" lon="0.7347950">
        <ele>281.7</ele>
        <time>2020-08-07T19:23:32Z</time>
      </trkpt>
      <trkpt lat="41.0440570" lon="0.7348030">
        <ele>281.7</ele>
        <time>2020-08-07T19:23:33Z</time>
      </trkpt>
      <trkpt lat="41.0440240" lon="0.7348130">
        <ele>281.8</ele>
        <time>2020-08-07T19:23:34Z</time>
      </trkpt>
      <trkpt lat="41.0439940" lon="0.7348250">
        <ele>281.8</ele>
        <time>2020-08-07T19:23:35Z</time>
      </trkpt>
      <trkpt lat="41.0439380" lon="0.7348610">
        <ele>282.0</ele>
        <time>2020-08-07T19:23:37Z</time>
      </trkpt>
      <trkpt lat="41.0439120" lon="0.7348940">
        <ele>282.1</ele>
        <time>2020-08-07T19:23:38Z</time>
      </trkpt>
      <trkpt lat="41.0438840" lon="0.7349130">
        <ele>282.1</ele>
        <time>2020-08-07T19:23:39Z</time>
      </trkpt>
      <trkpt lat="41.0438520" lon="0.7349220">
        <ele>282.2</ele>
        <time>2020-08-07T19:23:40Z</time>
      </trkpt>
      <trkpt lat="41.0438170" lon="0.7349360">
        <ele>282.3</ele>
        <time>2020-08-07T19:23:41Z</time>
      </trkpt>
      <trkpt lat="41.0437540" lon="0.7349590">
        <ele>282.5</ele>
        <time>2020-08-07T19:23:43Z</time>
      </trkpt>
      <trkpt lat="41.0437200" lon="0.7349650">
        <ele>282.6</ele>
        <time>2020-08-07T19:23:44Z</time>
      </trkpt>
      <trkpt lat="41.0436530" lon="0.7349770">
        <ele>282.8</ele>
        <time>2020-08-07T19:23:45Z</time>
      </trkpt>
      <trkpt lat="41.0435800" lon="0.7349780">
        <ele>283.0</ele>
        <time>2020-08-07T19:23:48Z</time>
      </trkpt>
      <trkpt lat="41.0435150" lon="0.7349860">
        <ele>283.2</ele>
        <time>2020-08-07T19:23:50Z</time>
      </trkpt>
      <trkpt lat="41.0434670" lon="0.7349910">
        <ele>283.4</ele>
        <time>2020-08-07T19:23:51Z</time>
      </trkpt>
      <trkpt lat="41.0434400" lon="0.7349940">
        <ele>283.5</ele>
        <time>2020-08-07T19:23:52Z</time>
      </trkpt>
      <trkpt lat="41.0433890" lon="0.7349980">
        <ele>283.6</ele>
        <time>2020-08-07T19:23:54Z</time>
      </trkpt>
      <trkpt lat="41.0433710" lon="0.7350000">
        <ele>283.7</ele>
        <time>2020-08-07T19:23:55Z</time>
      </trkpt>
      <trkpt lat="41.0433540" lon="0.7350020">
        <ele>283.7</ele>
        <time>2020-08-07T19:23:56Z</time>
      </trkpt>
      <trkpt lat="41.0433160" lon="0.7350110">
        <ele>283.8</ele>
        <time>2020-08-07T19:23:57Z</time>
      </trkpt>
      <trkpt lat="41.0432900" lon="0.7350350">
        <ele>284.2</ele>
        <time>2020-08-07T19:23:58Z</time>
      </trkpt>
      <trkpt lat="41.0432730" lon="0.7350680">
        <ele>284.3</ele>
        <time>2020-08-07T19:24:00Z</time>
      </trkpt>
      <trkpt lat="41.0432610" lon="0.7350890">
        <ele>284.4</ele>
        <time>2020-08-07T19:24:01Z</time>
      </trkpt>
      <trkpt lat="41.0432390" lon="0.7351380">
        <ele>284.6</ele>
        <time>2020-08-07T19:24:03Z</time>
      </trkpt>
      <trkpt lat="41.0432160" lon="0.7351820">
        <ele>284.7</ele>
        <time>2020-08-07T19:24:04Z</time>
      </trkpt>
      <trkpt lat="41.0432070" lon="0.7351970">
        <ele>284.8</ele>
        <time>2020-08-07T19:24:05Z</time>
      </trkpt>
      <trkpt lat="41.0431690" lon="0.7352640">
        <ele>285.0</ele>
        <time>2020-08-07T19:24:07Z</time>
      </trkpt>
      <trkpt lat="41.0431540" lon="0.7353000">
        <ele>285.1</ele>
        <time>2020-08-07T19:24:08Z</time>
      </trkpt>
      <trkpt lat="41.0431490" lon="0.7353080">
        <ele>285.1</ele>
        <time>2020-08-07T19:24:09Z</time>
      </trkpt>
      <trkpt lat="41.0431190" lon="0.7353730">
        <ele>285.4</ele>
        <time>2020-08-07T19:24:11Z</time>
      </trkpt>
      <trkpt lat="41.0430950" lon="0.7354290">
        <ele>285.6</ele>
        <time>2020-08-07T19:24:13Z</time>
      </trkpt>
      <trkpt lat="41.0430810" lon="0.7354610">
        <ele>285.7</ele>
        <time>2020-08-07T19:24:14Z</time>
      </trkpt>
      <trkpt lat="41.0430680" lon="0.7354900">
        <ele>285.9</ele>
        <time>2020-08-07T19:24:15Z</time>
      </trkpt>
      <trkpt lat="41.0430490" lon="0.7355380">
        <ele>286.1</ele>
        <time>2020-08-07T19:24:17Z</time>
      </trkpt>
      <trkpt lat="41.0430340" lon="0.7355760">
        <ele>286.2</ele>
        <time>2020-08-07T19:24:18Z</time>
      </trkpt>
      <trkpt lat="41.0430290" lon="0.7355870">
        <ele>286.3</ele>
        <time>2020-08-07T19:24:19Z</time>
      </trkpt>
      <trkpt lat="41.0430180" lon="0.7356120">
        <ele>286.4</ele>
        <time>2020-08-07T19:24:20Z</time>
      </trkpt>
      <trkpt lat="41.0430000" lon="0.7356580">
        <ele>286.5</ele>
        <time>2020-08-07T19:24:22Z</time>
      </trkpt>
      <trkpt lat="41.0429880" lon="0.7356880">
        <ele>286.7</ele>
        <time>2020-08-07T19:24:23Z</time>
      </trkpt>
      <trkpt lat="41.0429690" lon="0.7357430">
        <ele>286.9</ele>
        <time>2020-08-07T19:24:25Z</time>
      </trkpt>
      <trkpt lat="41.0429510" lon="0.7357870">
        <ele>287.1</ele>
        <time>2020-08-07T19:24:26Z</time>
      </trkpt>
      <trkpt lat="41.0429450" lon="0.7358010">
        <ele>287.2</ele>
        <time>2020-08-07T19:24:27Z</time>
      </trkpt>
      <trkpt lat="41.0429240" lon="0.7358560">
        <ele>287.4</ele>
        <time>2020-08-07T19:24:29Z</time>
      </trkpt>
      <trkpt lat="41.0429030" lon="0.7359090">
        <ele>287.6</ele>
        <time>2020-08-07T19:24:31Z</time>
      </trkpt>
      <trkpt lat="41.0428840" lon="0.7359600">
        <ele>287.9</ele>
        <time>2020-08-07T19:24:33Z</time>
      </trkpt>
      <trkpt lat="41.0428710" lon="0.7359920">
        <ele>288.0</ele>
        <time>2020-08-07T19:24:34Z</time>
      </trkpt>
      <trkpt lat="41.0428600" lon="0.7360230">
        <ele>288.2</ele>
        <time>2020-08-07T19:24:35Z</time>
      </trkpt>
      <trkpt lat="41.0428420" lon="0.7360670">
        <ele>288.4</ele>
        <time>2020-08-07T19:24:37Z</time>
      </trkpt>
      <trkpt lat="41.0428240" lon="0.7361100">
        <ele>288.6</ele>
        <time>2020-08-07T19:24:38Z</time>
      </trkpt>
      <trkpt lat="41.0428110" lon="0.7361400">
        <ele>288.7</ele>
        <time>2020-08-07T19:24:39Z</time>
      </trkpt>
      <trkpt lat="41.0427930" lon="0.7361720">
        <ele>288.9</ele>
        <time>2020-08-07T19:24:41Z</time>
      </trkpt>
      <trkpt lat="41.0427720" lon="0.7362170">
        <ele>289.1</ele>
        <time>2020-08-07T19:24:43Z</time>
      </trkpt>
      <trkpt lat="41.0427650" lon="0.7362340">
        <ele>289.2</ele>
        <time>2020-08-07T19:24:44Z</time>
      </trkpt>
      <trkpt lat="41.0427520" lon="0.7362640">
        <ele>289.4</ele>
        <time>2020-08-07T19:24:46Z</time>
      </trkpt>
      <trkpt lat="41.0427360" lon="0.7362910">
        <ele>289.5</ele>
        <time>2020-08-07T19:24:48Z</time>
      </trkpt>
      <trkpt lat="41.0427310" lon="0.7362990">
        <ele>289.6</ele>
        <time>2020-08-07T19:24:49Z</time>
      </trkpt>
      <trkpt lat="41.0427220" lon="0.7363160">
        <ele>289.7</ele>
        <time>2020-08-07T19:24:50Z</time>
      </trkpt>
      <trkpt lat="41.0427070" lon="0.7363450">
        <ele>289.8</ele>
        <time>2020-08-07T19:24:52Z</time>
      </trkpt>
      <trkpt lat="41.0426990" lon="0.7363670">
        <ele>289.9</ele>
        <time>2020-08-07T19:24:54Z</time>
      </trkpt>
      <trkpt lat="41.0426910" lon="0.7363860">
        <ele>290.0</ele>
        <time>2020-08-07T19:24:56Z</time>
      </trkpt>
      <trkpt lat="41.0426850" lon="0.7363970">
        <ele>290.1</ele>
        <time>2020-08-07T19:24:57Z</time>
      </trkpt>
      <trkpt lat="41.0426720" lon="0.7364160">
        <ele>290.2</ele>
        <time>2020-08-07T19:24:59Z</time>
      </trkpt>
      <trkpt lat="41.0426520" lon="0.7364410">
        <ele>290.4</ele>
        <time>2020-08-07T19:25:01Z</time>
      </trkpt>
      <trkpt lat="41.0426350" lon="0.7364640">
        <ele>290.5</ele>
        <time>2020-08-07T19:25:03Z</time>
      </trkpt>
      <trkpt lat="41.0426200" lon="0.7364890">
        <ele>290.6</ele>
        <time>2020-08-07T19:25:05Z</time>
      </trkpt>
      <trkpt lat="41.0425760" lon="0.7365790">
        <ele>291.1</ele>
        <time>2020-08-07T19:25:06Z</time>
      </trkpt>
      <trkpt lat="41.0425070" lon="0.7367190">
        <ele>291.8</ele>
        <time>2020-08-07T19:25:08Z</time>
      </trkpt>
      <trkpt lat="41.0425050" lon="0.7367230">
        <ele>291.8</ele>
        <time>2020-08-07T19:25:09Z</time>
      </trkpt>
      <trkpt lat="41.0424820" lon="0.7367600">
        <ele>292.0</ele>
        <time>2020-08-07T19:25:11Z</time>
      </trkpt>
      <trkpt lat="41.0424610" lon="0.7367990">
        <ele>292.2</ele>
        <time>2020-08-07T19:25:12Z</time>
      </trkpt>
      <trkpt lat="41.0424420" lon="0.7368350">
        <ele>292.4</ele>
        <time>2020-08-07T19:25:13Z</time>
      </trkpt>
      <trkpt lat="41.0424000" lon="0.7369040">
        <ele>292.8</ele>
        <time>2020-08-07T19:25:15Z</time>
      </trkpt>
      <trkpt lat="41.0423620" lon="0.7369620">
        <ele>293.1</ele>
        <time>2020-08-07T19:25:17Z</time>
      </trkpt>
      <trkpt lat="41.0423290" lon="0.7370150">
        <ele>293.4</ele>
        <time>2020-08-07T19:25:19Z</time>
      </trkpt>
      <trkpt lat="41.0422980" lon="0.7370650">
        <ele>293.7</ele>
        <time>2020-08-07T19:25:21Z</time>
      </trkpt>
      <trkpt lat="41.0423540" lon="0.7369780">
        <ele>294.2</ele>
        <time>2020-08-07T19:25:23Z</time>
      </trkpt>
      <trkpt lat="41.0423650" lon="0.7369610">
        <ele>294.3</ele>
        <time>2020-08-07T19:25:25Z</time>
      </trkpt>
      <trkpt lat="41.0423740" lon="0.7369480">
        <ele>294.4</ele>
        <time>2020-08-07T19:25:27Z</time>
      </trkpt>
      <trkpt lat="41.0423720" lon="0.7369520">
        <ele>294.5</ele>
        <time>2020-08-07T19:25:28Z</time>
      </trkpt>
      <trkpt lat="41.0423680" lon="0.7369560">
        <ele>294.5</ele>
        <time>2020-08-07T19:25:29Z</time>
      </trkpt>
      <trkpt lat="41.0423660" lon="0.7369540">
        <ele>294.5</ele>
        <time>2020-08-07T19:25:30Z</time>
      </trkpt>
      <trkpt lat="41.0423600" lon="0.7369640">
        <ele>294.6</ele>
        <time>2020-08-07T19:25:31Z</time>
      </trkpt>
      <trkpt lat="41.0423510" lon="0.7369790">
        <ele>294.7</ele>
        <time>2020-08-07T19:25:32Z</time>
      </trkpt>
      <trkpt lat="41.0423420" lon="0.7370050">
        <ele>294.8</ele>
        <time>2020-08-07T19:25:33Z</time>
      </trkpt>
      <trkpt lat="41.0423330" lon="0.7370270">
        <ele>294.9</ele>
        <time>2020-08-07T19:25:35Z</time>
      </trkpt>
      <trkpt lat="41.0423260" lon="0.7370470">
        <ele>295.0</ele>
        <time>2020-08-07T19:25:36Z</time>
      </trkpt>
      <trkpt lat="41.0423190" lon="0.7370630">
        <ele>295.1</ele>
        <time>2020-08-07T19:25:37Z</time>
      </trkpt>
      <trkpt lat="41.0423030" lon="0.7370920">
        <ele>295.3</ele>
        <time>2020-08-07T19:25:39Z</time>
      </trkpt>
      <trkpt lat="41.0422840" lon="0.7371220">
        <ele>295.5</ele>
        <time>2020-08-07T19:25:41Z</time>
      </trkpt>
      <trkpt lat="41.0422730" lon="0.7371400">
        <ele>295.6</ele>
        <time>2020-08-07T19:25:42Z</time>
      </trkpt>
      <trkpt lat="41.0422620" lon="0.7371580">
        <ele>295.7</ele>
        <time>2020-08-07T19:25:43Z</time>
      </trkpt>
      <trkpt lat="41.0422520" lon="0.7371740">
        <ele>295.8</ele>
        <time>2020-08-07T19:25:44Z</time>
      </trkpt>
      <trkpt lat="41.0422330" lon="0.7372000">
        <ele>296.0</ele>
        <time>2020-08-07T19:25:46Z</time>
      </trkpt>
      <trkpt lat="41.0422220" lon="0.7372120">
        <ele>296.1</ele>
        <time>2020-08-07T19:25:47Z</time>
      </trkpt>
      <trkpt lat="41.0422120" lon="0.7372230">
        <ele>296.1</ele>
        <time>2020-08-07T19:25:48Z</time>
      </trkpt>
      <trkpt lat="41.0422010" lon="0.7372330">
        <ele>296.2</ele>
        <time>2020-08-07T19:25:49Z</time>
      </trkpt>
      <trkpt lat="41.0421830" lon="0.7372560">
        <ele>296.4</ele>
        <time>2020-08-07T19:25:51Z</time>
      </trkpt>
      <trkpt lat="41.0421710" lon="0.7372640">
        <ele>296.5</ele>
        <time>2020-08-07T19:25:52Z</time>
      </trkpt>
      <trkpt lat="41.0421580" lon="0.7372720">
        <ele>296.6</ele>
        <time>2020-08-07T19:25:53Z</time>
      </trkpt>
      <trkpt lat="41.0421450" lon="0.7372800">
        <ele>296.7</ele>
        <time>2020-08-07T19:25:54Z</time>
      </trkpt>
      <trkpt lat="41.0421300" lon="0.7372890">
        <ele>296.8</ele>
        <time>2020-08-07T19:25:55Z</time>
      </trkpt>
      <trkpt lat="41.0420970" lon="0.7373070">
        <ele>297.0</ele>
        <time>2020-08-07T19:25:57Z</time>
      </trkpt>
      <trkpt lat="41.0420820" lon="0.7373150">
        <ele>297.1</ele>
        <time>2020-08-07T19:25:58Z</time>
      </trkpt>
      <trkpt lat="41.0420690" lon="0.7373230">
        <ele>297.2</ele>
        <time>2020-08-07T19:25:59Z</time>
      </trkpt>
      <trkpt lat="41.0420550" lon="0.7373380">
        <ele>297.4</ele>
        <time>2020-08-07T19:26:00Z</time>
      </trkpt>
      <trkpt lat="41.0420410" lon="0.7373650">
        <ele>297.6</ele>
        <time>2020-08-07T19:26:02Z</time>
      </trkpt>
      <trkpt lat="41.0420340" lon="0.7373790">
        <ele>297.7</ele>
        <time>2020-08-07T19:26:03Z</time>
      </trkpt>
      <trkpt lat="41.0420170" lon="0.7374070">
        <ele>297.9</ele>
        <time>2020-08-07T19:26:05Z</time>
      </trkpt>
      <trkpt lat="41.0420020" lon="0.7374290">
        <ele>298.0</ele>
        <time>2020-08-07T19:26:06Z</time>
      </trkpt>
      <trkpt lat="41.0419970" lon="0.7374370">
        <ele>298.1</ele>
        <time>2020-08-07T19:26:07Z</time>
      </trkpt>
      <trkpt lat="41.0419910" lon="0.7374460">
        <ele>298.2</ele>
        <time>2020-08-07T19:26:08Z</time>
      </trkpt>
      <trkpt lat="41.0419700" lon="0.7374690">
        <ele>298.4</ele>
        <time>2020-08-07T19:26:10Z</time>
      </trkpt>
      <trkpt lat="41.0418480" lon="0.7375850">
        <ele>299.7</ele>
        <time>2020-08-07T19:26:12Z</time>
      </trkpt>
      <trkpt lat="41.0417500" lon="0.7376740">
        <ele>301.2</ele>
        <time>2020-08-07T19:26:13Z</time>
      </trkpt>
      <trkpt lat="41.0416680" lon="0.7377480">
        <ele>301.7</ele>
        <time>2020-08-07T19:26:14Z</time>
      </trkpt>
      <trkpt lat="41.0416030" lon="0.7378040">
        <ele>302.2</ele>
        <time>2020-08-07T19:26:15Z</time>
      </trkpt>
      <trkpt lat="41.0415530" lon="0.7378480">
        <ele>302.6</ele>
        <time>2020-08-07T19:26:16Z</time>
      </trkpt>
      <trkpt lat="41.0414780" lon="0.7379130">
        <ele>303.2</ele>
        <time>2020-08-07T19:26:18Z</time>
      </trkpt>
      <trkpt lat="41.0414090" lon="0.7379750">
        <ele>303.7</ele>
        <time>2020-08-07T19:26:20Z</time>
      </trkpt>
      <trkpt lat="41.0414070" lon="0.7379870">
        <ele>303.7</ele>
        <time>2020-08-07T19:26:21Z</time>
      </trkpt>
      <trkpt lat="41.0414190" lon="0.7379840">
        <ele>303.6</ele>
        <time>2020-08-07T19:26:23Z</time>
      </trkpt>
      <trkpt lat="41.0414320" lon="0.7379800">
        <ele>303.5</ele>
        <time>2020-08-07T19:26:25Z</time>
      </trkpt>
      <trkpt lat="41.0414440" lon="0.7379770">
        <ele>303.5</ele>
        <time>2020-08-07T19:26:26Z</time>
      </trkpt>
      <trkpt lat="41.0414560" lon="0.7379740">
        <ele>303.4</ele>
        <time>2020-08-07T19:26:27Z</time>
      </trkpt>
      <trkpt lat="41.0414680" lon="0.7379710">
        <ele>303.4</ele>
        <time>2020-08-07T19:26:28Z</time>
      </trkpt>
      <trkpt lat="41.0414810" lon="0.7379670">
        <ele>303.3</ele>
        <time>2020-08-07T19:26:29Z</time>
      </trkpt>
      <trkpt lat="41.0414930" lon="0.7379640">
        <ele>303.2</ele>
        <time>2020-08-07T19:26:31Z</time>
      </trkpt>
      <trkpt lat="41.0415050" lon="0.7379610">
        <ele>303.2</ele>
        <time>2020-08-07T19:26:32Z</time>
      </trkpt>
      <trkpt lat="41.0415170" lon="0.7379580">
        <ele>303.1</ele>
        <time>2020-08-07T19:26:33Z</time>
      </trkpt>
      <trkpt lat="41.0415300" lon="0.7379540">
        <ele>303.1</ele>
        <time>2020-08-07T19:26:51Z</time>
      </trkpt>
      <trkpt lat="41.0415420" lon="0.7379510">
        <ele>303.0</ele>
        <time>2020-08-07T19:26:52Z</time>
      </trkpt>
      <trkpt lat="41.0415540" lon="0.7379480">
        <ele>303.0</ele>
        <time>2020-08-07T19:26:53Z</time>
      </trkpt>
      <trkpt lat="41.0414980" lon="0.7379840">
        <ele>302.7</ele>
        <time>2020-08-07T19:26:54Z</time>
      </trkpt>
      <trkpt lat="41.0415840" lon="0.7378950">
        <ele>302.2</ele>
        <time>2020-08-07T19:26:55Z</time>
      </trkpt>
      <trkpt lat="41.0416360" lon="0.7378450">
        <ele>301.9</ele>
        <time>2020-08-07T19:26:57Z</time>
      </trkpt>
      <trkpt lat="41.0416990" lon="0.7377960">
        <ele>301.6</ele>
        <time>2020-08-07T19:26:59Z</time>
      </trkpt>
      <trkpt lat="41.0417320" lon="0.7378030">
        <ele>301.1</ele>
        <time>2020-08-07T19:27:00Z</time>
      </trkpt>
      <trkpt lat="41.0417740" lon="0.7378310">
        <ele>300.8</ele>
        <time>2020-08-07T19:27:03Z</time>
      </trkpt>
      <trkpt lat="41.0417720" lon="0.7378520">
        <ele>300.6</ele>
        <time>2020-08-07T19:27:04Z</time>
      </trkpt>
      <trkpt lat="41.0417770" lon="0.7378740">
        <ele>300.6</ele>
        <time>2020-08-07T19:27:05Z</time>
      </trkpt>
      <trkpt lat="41.0417080" lon="0.7381020">
        <ele>299.7</ele>
        <time>2020-08-07T19:27:07Z</time>
      </trkpt>
      <trkpt lat="41.0416810" lon="0.7381820">
        <ele>299.8</ele>
        <time>2020-08-07T19:27:09Z</time>
      </trkpt>
      <trkpt lat="41.0416810" lon="0.7382480">
        <ele>299.1</ele>
        <time>2020-08-07T19:27:10Z</time>
      </trkpt>
      <trkpt lat="41.0416990" lon="0.7382940">
        <ele>298.4</ele>
        <time>2020-08-07T19:27:11Z</time>
      </trkpt>
      <trkpt lat="41.0417210" lon="0.7383430">
        <ele>297.7</ele>
        <time>2020-08-07T19:27:13Z</time>
      </trkpt>
      <trkpt lat="41.0417350" lon="0.7383870">
        <ele>297.5</ele>
        <time>2020-08-07T19:27:14Z</time>
      </trkpt>
      <trkpt lat="41.0417380" lon="0.7384020">
        <ele>297.2</ele>
        <time>2020-08-07T19:27:15Z</time>
      </trkpt>
      <trkpt lat="41.0417820" lon="0.7384950">
        <ele>296.5</ele>
        <time>2020-08-07T19:27:17Z</time>
      </trkpt>
      <trkpt lat="41.0417990" lon="0.7385400">
        <ele>296.2</ele>
        <time>2020-08-07T19:27:19Z</time>
      </trkpt>
      <trkpt lat="41.0418040" lon="0.7385570">
        <ele>296.2</ele>
        <time>2020-08-07T19:27:20Z</time>
      </trkpt>
      <trkpt lat="41.0418070" lon="0.7385640">
        <ele>296.2</ele>
        <time>2020-08-07T19:27:22Z</time>
      </trkpt>
      <trkpt lat="41.0418090" lon="0.7385670">
        <ele>296.2</ele>
        <time>2020-08-07T19:27:23Z</time>
      </trkpt>
      <trkpt lat="41.0418130" lon="0.7385710">
        <ele>296.2</ele>
        <time>2020-08-07T19:27:24Z</time>
      </trkpt>
      <trkpt lat="41.0418180" lon="0.7385750">
        <ele>295.9</ele>
        <time>2020-08-07T19:27:26Z</time>
      </trkpt>
      <trkpt lat="41.0418190" lon="0.7385750">
        <ele>295.9</ele>
        <time>2020-08-07T19:27:27Z</time>
      </trkpt>
      <trkpt lat="41.0417310" lon="0.7386240">
        <ele>296.3</ele>
        <time>2020-08-07T19:28:45Z</time>
      </trkpt>
      <trkpt lat="41.0417320" lon="0.7386370">
        <ele>296.3</ele>
        <time>2020-08-07T19:28:47Z</time>
      </trkpt>
      <trkpt lat="41.0417310" lon="0.7386480">
        <ele>296.3</ele>
        <time>2020-08-07T19:28:48Z</time>
      </trkpt>
      <trkpt lat="41.0417150" lon="0.7386430">
        <ele>296.4</ele>
        <time>2020-08-07T19:28:51Z</time>
      </trkpt>
      <trkpt lat="41.0417250" lon="0.7386290">
        <ele>296.3</ele>
        <time>2020-08-07T19:28:52Z</time>
      </trkpt>
      <trkpt lat="41.0417310" lon="0.7386250">
        <ele>296.3</ele>
        <time>2020-08-07T19:28:53Z</time>
      </trkpt>
      <trkpt lat="41.0417360" lon="0.7386220">
        <ele>296.3</ele>
        <time>2020-08-07T19:28:55Z</time>
      </trkpt>
      <trkpt lat="41.0417370" lon="0.7386190">
        <ele>296.3</ele>
        <time>2020-08-07T19:28:56Z</time>
      </trkpt>
      <trkpt lat="41.0417380" lon="0.7386160">
        <ele>296.3</ele>
        <time>2020-08-07T19:28:57Z</time>
      </trkpt>
      <trkpt lat="41.0417390" lon="0.7386120">
        <ele>296.4</ele>
        <time>2020-08-07T19:28:58Z</time>
      </trkpt>
      <trkpt lat="41.0417400" lon="0.7386100">
        <ele>296.4</ele>
        <time>2020-08-07T19:29:00Z</time>
      </trkpt>
      <trkpt lat="41.0417410" lon="0.7386060">
        <ele>296.4</ele>
        <time>2020-08-07T19:29:01Z</time>
      </trkpt>
      <trkpt lat="41.0416800" lon="0.7387250">
        <ele>296.3</ele>
        <time>2020-08-07T19:32:53Z</time>
      </trkpt>
      <trkpt lat="41.0416290" lon="0.7388380">
        <ele>296.3</ele>
        <time>2020-08-07T19:32:55Z</time>
      </trkpt>
      <trkpt lat="41.0416170" lon="0.7388660">
        <ele>296.4</ele>
        <time>2020-08-07T19:32:56Z</time>
      </trkpt>
      <trkpt lat="41.0416190" lon="0.7388770">
        <ele>296.5</ele>
        <time>2020-08-07T19:32:58Z</time>
      </trkpt>
      <trkpt lat="41.0416240" lon="0.7388720">
        <ele>296.3</ele>
        <time>2020-08-07T19:32:59Z</time>
      </trkpt>
      <trkpt lat="41.0416280" lon="0.7388660">
        <ele>296.3</ele>
        <time>2020-08-07T19:33:00Z</time>
      </trkpt>
      <trkpt lat="41.0416310" lon="0.7388600">
        <ele>296.3</ele>
        <time>2020-08-07T19:33:01Z</time>
      </trkpt>
      <trkpt lat="41.0416330" lon="0.7388560">
        <ele>296.3</ele>
        <time>2020-08-07T19:33:02Z</time>
      </trkpt>
      <trkpt lat="41.0416330" lon="0.7388530">
        <ele>296.3</ele>
        <time>2020-08-07T19:33:03Z</time>
      </trkpt>
      <trkpt lat="41.0416330" lon="0.7388520">
        <ele>296.3</ele>
        <time>2020-08-07T19:33:04Z</time>
      </trkpt>
      <trkpt lat="41.0416320" lon="0.7388510">
        <ele>296.3</ele>
        <time>2020-08-07T19:33:05Z</time>
      </trkpt>
      <trkpt lat="41.0416310" lon="0.7388500">
        <ele>296.3</ele>
        <time>2020-08-07T19:33:06Z</time>
      </trkpt>
      <trkpt lat="41.0416290" lon="0.7388470">
        <ele>296.3</ele>
        <time>2020-08-07T19:33:07Z</time>
      </trkpt>
      <trkpt lat="41.0416280" lon="0.7388450">
        <ele>296.3</ele>
        <time>2020-08-07T19:33:08Z</time>
      </trkpt>
      <trkpt lat="41.0416250" lon="0.7388410">
        <ele>296.3</ele>
        <time>2020-08-07T19:33:10Z</time>
      </trkpt>
      <trkpt lat="41.0415580" lon="0.7388130">
        <ele>296.6</ele>
        <time>2020-08-07T19:34:59Z</time>
      </trkpt>
      <trkpt lat="41.0415290" lon="0.7388130">
        <ele>296.7</ele>
        <time>2020-08-07T19:35:00Z</time>
      </trkpt>
      <trkpt lat="41.0414990" lon="0.7388180">
        <ele>296.9</ele>
        <time>2020-08-07T19:35:01Z</time>
      </trkpt>
      <trkpt lat="41.0414720" lon="0.7388230">
        <ele>297.1</ele>
        <time>2020-08-07T19:35:02Z</time>
      </trkpt>
      <trkpt lat="41.0414410" lon="0.7388310">
        <ele>297.3</ele>
        <time>2020-08-07T19:35:04Z</time>
      </trkpt>
      <trkpt lat="41.0414330" lon="0.7388350">
        <ele>297.3</ele>
        <time>2020-08-07T19:35:05Z</time>
      </trkpt>
      <trkpt lat="41.0414330" lon="0.7388700">
        <ele>297.3</ele>
        <time>2020-08-07T19:35:07Z</time>
      </trkpt>
      <trkpt lat="41.0414440" lon="0.7388870">
        <ele>297.3</ele>
        <time>2020-08-07T19:35:08Z</time>
      </trkpt>
      <trkpt lat="41.0414540" lon="0.7388960">
        <ele>297.3</ele>
        <time>2020-08-07T19:35:09Z</time>
      </trkpt>
      <trkpt lat="41.0414740" lon="0.7389020">
        <ele>297.1</ele>
        <time>2020-08-07T19:35:11Z</time>
      </trkpt>
      <trkpt lat="41.0414790" lon="0.7389010">
        <ele>297.1</ele>
        <time>2020-08-07T19:35:12Z</time>
      </trkpt>
      <trkpt lat="41.0414840" lon="0.7389010">
        <ele>297.1</ele>
        <time>2020-08-07T19:35:13Z</time>
      </trkpt>
      <trkpt lat="41.0414890" lon="0.7389000">
        <ele>297.1</ele>
        <time>2020-08-07T19:35:15Z</time>
      </trkpt>
      <trkpt lat="41.0414940" lon="0.7389000">
        <ele>296.9</ele>
        <time>2020-08-07T19:35:16Z</time>
      </trkpt>
      <trkpt lat="41.0415050" lon="0.7388780">
        <ele>296.9</ele>
        <time>2020-08-07T19:35:18Z</time>
      </trkpt>
      <trkpt lat="41.0415100" lon="0.7388690">
        <ele>296.9</ele>
        <time>2020-08-07T19:35:19Z</time>
      </trkpt>
      <trkpt lat="41.0415160" lon="0.7388640">
        <ele>296.9</ele>
        <time>2020-08-07T19:35:20Z</time>
      </trkpt>
      <trkpt lat="41.0415220" lon="0.7388560">
        <ele>296.9</ele>
        <time>2020-08-07T19:35:22Z</time>
      </trkpt>
      <trkpt lat="41.0415250" lon="0.7388540">
        <ele>296.7</ele>
        <time>2020-08-07T19:35:24Z</time>
      </trkpt>
      <trkpt lat="41.0415260" lon="0.7388540">
        <ele>296.7</ele>
        <time>2020-08-07T19:35:26Z</time>
      </trkpt>
      <trkpt lat="41.0415270" lon="0.7388540">
        <ele>296.7</ele>
        <time>2020-08-07T19:35:28Z</time>
      </trkpt>
      <trkpt lat="41.0415270" lon="0.7388550">
        <ele>296.7</ele>
        <time>2020-08-07T19:35:29Z</time>
      </trkpt>
      <trkpt lat="41.0414970" lon="0.7389020">
        <ele>296.9</ele>
        <time>2020-08-07T19:35:49Z</time>
      </trkpt>
      <trkpt lat="41.0414970" lon="0.7389010">
        <ele>296.9</ele>
        <time>2020-08-07T19:35:50Z</time>
      </trkpt>
      <trkpt lat="41.0414970" lon="0.7389000">
        <ele>296.9</ele>
        <time>2020-08-07T19:35:51Z</time>
      </trkpt>
      <trkpt lat="41.0414980" lon="0.7388990">
        <ele>296.9</ele>
        <time>2020-08-07T19:35:52Z</time>
      </trkpt>
      <trkpt lat="41.0414980" lon="0.7388980">
        <ele>296.9</ele>
        <time>2020-08-07T19:35:53Z</time>
      </trkpt>
      <trkpt lat="41.0414960" lon="0.7388970">
        <ele>296.9</ele>
        <time>2020-08-07T19:35:55Z</time>
      </trkpt>
      <trkpt lat="41.0414950" lon="0.7388970">
        <ele>296.9</ele>
        <time>2020-08-07T19:35:56Z</time>
      </trkpt>
      <trkpt lat="41.0414910" lon="0.7388980">
        <ele>297.1</ele>
        <time>2020-08-07T19:35:58Z</time>
      </trkpt>
      <trkpt lat="41.0414900" lon="0.7388980">
        <ele>297.1</ele>
        <time>2020-08-07T19:35:59Z</time>
      </trkpt>
      <trkpt lat="41.0414900" lon="0.7388980">
        <ele>297.1</ele>
        <time>2020-08-07T19:36:00Z</time>
      </trkpt>
      <trkpt lat="41.0414880" lon="0.7388990">
        <ele>297.1</ele>
        <time>2020-08-07T19:36:02Z</time>
      </trkpt>
      <trkpt lat="41.0414870" lon="0.7388990">
        <ele>297.1</ele>
        <time>2020-08-07T19:36:03Z</time>
      </trkpt>
      <trkpt lat="41.0414870" lon="0.7389000">
        <ele>297.1</ele>
        <time>2020-08-07T19:36:05Z</time>
      </trkpt>
      <trkpt lat="41.0414870" lon="0.7389000">
        <ele>297.1</ele>
        <time>2020-08-07T19:36:07Z</time>
      </trkpt>
      <trkpt lat="41.0414880" lon="0.7389000">
        <ele>297.1</ele>
        <time>2020-08-07T19:36:09Z</time>
      </trkpt>
      <trkpt lat="41.0414880" lon="0.7389000">
        <ele>297.1</ele>
        <time>2020-08-07T19:36:10Z</time>
      </trkpt>
      <trkpt lat="41.0414880" lon="0.7389000">
        <ele>297.1</ele>
        <time>2020-08-07T19:36:11Z</time>
      </trkpt>
      <trkpt lat="41.0414870" lon="0.7389000">
        <ele>297.1</ele>
        <time>2020-08-07T19:36:13Z</time>
      </trkpt>
      <trkpt lat="41.0414870" lon="0.7389000">
        <ele>297.1</ele>
        <time>2020-08-07T19:36:15Z</time>
      </trkpt>
      <trkpt lat="41.0414870" lon="0.7389000">
        <ele>297.1</ele>
        <time>2020-08-07T19:36:17Z</time>
      </trkpt>
      <trkpt lat="41.0414870" lon="0.7389010">
        <ele>297.1</ele>
        <time>2020-08-07T19:36:19Z</time>
      </trkpt>
      <trkpt lat="41.0414870" lon="0.7389010">
        <ele>297.1</ele>
        <time>2020-08-07T19:36:20Z</time>
      </trkpt>
      <trkpt lat="41.0414870" lon="0.7389010">
        <ele>297.1</ele>
        <time>2020-08-07T19:36:21Z</time>
      </trkpt>
      <trkpt lat="41.0414870" lon="0.7389010">
        <ele>297.1</ele>
        <time>2020-08-07T19:36:23Z</time>
      </trkpt>
      <trkpt lat="41.0414870" lon="0.7389010">
        <ele>297.1</ele>
        <time>2020-08-07T19:36:24Z</time>
      </trkpt>
      <trkpt lat="41.0414870" lon="0.7389010">
        <ele>297.1</ele>
        <time>2020-08-07T19:36:26Z</time>
      </trkpt>
      <trkpt lat="41.0414870" lon="0.7389010">
        <ele>297.1</ele>
        <time>2020-08-07T19:36:27Z</time>
      </trkpt>
      <trkpt lat="41.0414870" lon="0.7389010">
        <ele>297.1</ele>
        <time>2020-08-07T19:36:28Z</time>
      </trkpt>
      <trkpt lat="41.0414870" lon="0.7389010">
        <ele>297.1</ele>
        <time>2020-08-07T19:36:29Z</time>
      </trkpt>
      <trkpt lat="41.0414870" lon="0.7389010">
        <ele>297.1</ele>
        <time>2020-08-07T19:36:30Z</time>
      </trkpt>
      <trkpt lat="41.0414870" lon="0.7389010">
        <ele>297.1</ele>
        <time>2020-08-07T19:36:31Z</time>
      </trkpt>
      <trkpt lat="41.0414870" lon="0.7389010">
        <ele>297.1</ele>
        <time>2020-08-07T19:36:33Z</time>
      </trkpt>
      <trkpt lat="41.0414870" lon="0.7389010">
        <ele>297.1</ele>
        <time>2020-08-07T19:36:34Z</time>
      </trkpt>
      <trkpt lat="41.0414870" lon="0.7389010">
        <ele>297.1</ele>
        <time>2020-08-07T19:36:36Z</time>
      </trkpt>
      <trkpt lat="41.0414870" lon="0.7389010">
        <ele>297.1</ele>
        <time>2020-08-07T19:36:37Z</time>
      </trkpt>
      <trkpt lat="41.0414870" lon="0.7389010">
        <ele>297.1</ele>
        <time>2020-08-07T19:36:39Z</time>
      </trkpt>
      <trkpt lat="41.0414870" lon="0.7389010">
        <ele>297.1</ele>
        <time>2020-08-07T19:36:40Z</time>
      </trkpt>
      <trkpt lat="41.0414870" lon="0.7389010">
        <ele>297.1</ele>
        <time>2020-08-07T19:36:42Z</time>
      </trkpt>
      <trkpt lat="41.0414870" lon="0.7389010">
        <ele>297.1</ele>
        <time>2020-08-07T19:36:43Z</time>
      </trkpt>
      <trkpt lat="41.0414870" lon="0.7389010">
        <ele>297.1</ele>
        <time>2020-08-07T19:36:44Z</time>
      </trkpt>
      <trkpt lat="41.0414870" lon="0.7389010">
        <ele>297.1</ele>
        <time>2020-08-07T19:36:46Z</time>
      </trkpt>
      <trkpt lat="41.0414870" lon="0.7389010">
        <ele>297.1</ele>
        <time>2020-08-07T19:36:47Z</time>
      </trkpt>
      <trkpt lat="41.0414870" lon="0.7389010">
        <ele>297.1</ele>
        <time>2020-08-07T19:36:48Z</time>
      </trkpt>
      <trkpt lat="41.0414870" lon="0.7389010">
        <ele>297.1</ele>
        <time>2020-08-07T19:36:50Z</time>
      </trkpt>
      <trkpt lat="41.0414870" lon="0.7389010">
        <ele>297.1</ele>
        <time>2020-08-07T19:36:52Z</time>
      </trkpt>
      <trkpt lat="41.0414870" lon="0.7389010">
        <ele>297.1</ele>
        <time>2020-08-07T19:36:54Z</time>
      </trkpt>
      <trkpt lat="41.0414870" lon="0.7389010">
        <ele>297.1</ele>
        <time>2020-08-07T19:36:55Z</time>
      </trkpt>
      <trkpt lat="41.0414870" lon="0.7389010">
        <ele>297.1</ele>
        <time>2020-08-07T19:36:56Z</time>
      </trkpt>
      <trkpt lat="41.0414870" lon="0.7389010">
        <ele>297.1</ele>
        <time>2020-08-07T19:36:58Z</time>
      </trkpt>
      <trkpt lat="41.0414870" lon="0.7389010">
        <ele>297.1</ele>
        <time>2020-08-07T19:36:59Z</time>
      </trkpt>
      <trkpt lat="41.0414870" lon="0.7389010">
        <ele>297.1</ele>
        <time>2020-08-07T19:37:00Z</time>
      </trkpt>
      <trkpt lat="41.0414870" lon="0.7389010">
        <ele>297.1</ele>
        <time>2020-08-07T19:37:01Z</time>
      </trkpt>
      <trkpt lat="41.0414870" lon="0.7389010">
        <ele>297.1</ele>
        <time>2020-08-07T19:37:03Z</time>
      </trkpt>
      <trkpt lat="41.0414870" lon="0.7389010">
        <ele>297.1</ele>
        <time>2020-08-07T19:37:04Z</time>
      </trkpt>
      <trkpt lat="41.0414870" lon="0.7389010">
        <ele>297.1</ele>
        <time>2020-08-07T19:37:06Z</time>
      </trkpt>
      <trkpt lat="41.0414870" lon="0.7389010">
        <ele>297.1</ele>
        <time>2020-08-07T19:37:07Z</time>
      </trkpt>
      <trkpt lat="41.0414870" lon="0.7389010">
        <ele>297.1</ele>
        <time>2020-08-07T19:37:08Z</time>
      </trkpt>
      <trkpt lat="41.0414870" lon="0.7389010">
        <ele>297.1</ele>
        <time>2020-08-07T19:37:10Z</time>
      </trkpt>
      <trkpt lat="41.0414870" lon="0.7389010">
        <ele>297.1</ele>
        <time>2020-08-07T19:37:11Z</time>
      </trkpt>
      <trkpt lat="41.0414870" lon="0.7389010">
        <ele>297.1</ele>
        <time>2020-08-07T19:37:12Z</time>
      </trkpt>
      <trkpt lat="41.0414870" lon="0.7389010">
        <ele>297.1</ele>
        <time>2020-08-07T19:37:13Z</time>
      </trkpt>
      <trkpt lat="41.0414870" lon="0.7389010">
        <ele>297.1</ele>
        <time>2020-08-07T19:37:15Z</time>
      </trkpt>
      <trkpt lat="41.0414870" lon="0.7389010">
        <ele>297.1</ele>
        <time>2020-08-07T19:37:17Z</time>
      </trkpt>
      <trkpt lat="41.0414870" lon="0.7389010">
        <ele>297.1</ele>
        <time>2020-08-07T19:37:19Z</time>
      </trkpt>
      <trkpt lat="41.0414870" lon="0.7389010">
        <ele>297.1</ele>
        <time>2020-08-07T19:37:20Z</time>
      </trkpt>
      <trkpt lat="41.0414870" lon="0.7389010">
        <ele>297.1</ele>
        <time>2020-08-07T19:37:21Z</time>
      </trkpt>
      <trkpt lat="41.0414870" lon="0.7389010">
        <ele>297.1</ele>
        <time>2020-08-07T19:37:28Z</time>
      </trkpt>
      <trkpt lat="41.0414870" lon="0.7389010">
        <ele>297.1</ele>
        <time>2020-08-07T19:37:29Z</time>
      </trkpt>
      <trkpt lat="41.0414870" lon="0.7389010">
        <ele>297.1</ele>
        <time>2020-08-07T19:37:30Z</time>
      </trkpt>
      <trkpt lat="41.0414870" lon="0.7389010">
        <ele>297.1</ele>
        <time>2020-08-07T19:37:31Z</time>
      </trkpt>
      <trkpt lat="41.0414870" lon="0.7389010">
        <ele>297.1</ele>
        <time>2020-08-07T19:37:33Z</time>
      </trkpt>
      <trkpt lat="41.0414870" lon="0.7389010">
        <ele>297.1</ele>
        <time>2020-08-07T19:37:34Z</time>
      </trkpt>
      <trkpt lat="41.0414870" lon="0.7389010">
        <ele>297.1</ele>
        <time>2020-08-07T19:37:35Z</time>
      </trkpt>
      <trkpt lat="41.0414870" lon="0.7389010">
        <ele>297.1</ele>
        <time>2020-08-07T19:37:37Z</time>
      </trkpt>
      <trkpt lat="41.0414870" lon="0.7389010">
        <ele>297.1</ele>
        <time>2020-08-07T19:37:38Z</time>
      </trkpt>
      <trkpt lat="41.0414870" lon="0.7389010">
        <ele>297.1</ele>
        <time>2020-08-07T19:37:39Z</time>
      </trkpt>
      <trkpt lat="41.0414870" lon="0.7389010">
        <ele>297.1</ele>
        <time>2020-08-07T19:37:41Z</time>
      </trkpt>
      <trkpt lat="41.0414870" lon="0.7389010">
        <ele>297.1</ele>
        <time>2020-08-07T19:37:44Z</time>
      </trkpt>
      <trkpt lat="41.0414870" lon="0.7389010">
        <ele>297.1</ele>
        <time>2020-08-07T19:37:45Z</time>
      </trkpt>
      <trkpt lat="41.0414870" lon="0.7389010">
        <ele>297.1</ele>
        <time>2020-08-07T19:37:47Z</time>
      </trkpt>
      <trkpt lat="41.0414870" lon="0.7389010">
        <ele>297.1</ele>
        <time>2020-08-07T19:37:49Z</time>
      </trkpt>
      <trkpt lat="41.0414870" lon="0.7389010">
        <ele>297.1</ele>
        <time>2020-08-07T19:37:50Z</time>
      </trkpt>
      <trkpt lat="41.0414870" lon="0.7389010">
        <ele>297.1</ele>
        <time>2020-08-07T19:37:52Z</time>
      </trkpt>
      <trkpt lat="41.0414870" lon="0.7389010">
        <ele>297.1</ele>
        <time>2020-08-07T19:37:53Z</time>
      </trkpt>
      <trkpt lat="41.0414870" lon="0.7389010">
        <ele>297.1</ele>
        <time>2020-08-07T19:37:54Z</time>
      </trkpt>
      <trkpt lat="41.0414870" lon="0.7389010">
        <ele>297.1</ele>
        <time>2020-08-07T19:37:56Z</time>
      </trkpt>
      <trkpt lat="41.0414870" lon="0.7389010">
        <ele>297.1</ele>
        <time>2020-08-07T19:37:57Z</time>
      </trkpt>
      <trkpt lat="41.0414870" lon="0.7389010">
        <ele>297.1</ele>
        <time>2020-08-07T19:37:58Z</time>
      </trkpt>
      <trkpt lat="41.0414870" lon="0.7389010">
        <ele>297.1</ele>
        <time>2020-08-07T19:38:00Z</time>
      </trkpt>
      <trkpt lat="41.0414870" lon="0.7389010">
        <ele>297.1</ele>
        <time>2020-08-07T19:38:01Z</time>
      </trkpt>
      <trkpt lat="41.0414870" lon="0.7389010">
        <ele>297.1</ele>
        <time>2020-08-07T19:38:02Z</time>
      </trkpt>
      <trkpt lat="41.0414870" lon="0.7389010">
        <ele>297.1</ele>
        <time>2020-08-07T19:38:04Z</time>
      </trkpt>
      <trkpt lat="41.0414870" lon="0.7389010">
        <ele>297.1</ele>
        <time>2020-08-07T19:38:05Z</time>
      </trkpt>
      <trkpt lat="41.0414870" lon="0.7389010">
        <ele>297.1</ele>
        <time>2020-08-07T19:38:07Z</time>
      </trkpt>
      <trkpt lat="41.0414870" lon="0.7389010">
        <ele>297.1</ele>
        <time>2020-08-07T19:38:08Z</time>
      </trkpt>
      <trkpt lat="41.0414870" lon="0.7389010">
        <ele>297.1</ele>
        <time>2020-08-07T19:38:10Z</time>
      </trkpt>
      <trkpt lat="41.0414870" lon="0.7389010">
        <ele>297.1</ele>
        <time>2020-08-07T19:38:12Z</time>
      </trkpt>
      <trkpt lat="41.0414870" lon="0.7389010">
        <ele>297.1</ele>
        <time>2020-08-07T19:38:13Z</time>
      </trkpt>
      <trkpt lat="41.0414870" lon="0.7389010">
        <ele>297.1</ele>
        <time>2020-08-07T19:38:14Z</time>
      </trkpt>
      <trkpt lat="41.0414870" lon="0.7389010">
        <ele>297.1</ele>
        <time>2020-08-07T19:38:15Z</time>
      </trkpt>
      <trkpt lat="41.0414870" lon="0.7389010">
        <ele>297.1</ele>
        <time>2020-08-07T19:38:16Z</time>
      </trkpt>
      <trkpt lat="41.0414870" lon="0.7389010">
        <ele>297.1</ele>
        <time>2020-08-07T19:38:17Z</time>
      </trkpt>
      <trkpt lat="41.0414870" lon="0.7389010">
        <ele>297.1</ele>
        <time>2020-08-07T19:38:18Z</time>
      </trkpt>
      <trkpt lat="41.0414870" lon="0.7389010">
        <ele>297.1</ele>
        <time>2020-08-07T19:38:19Z</time>
      </trkpt>
      <trkpt lat="41.0414870" lon="0.7389010">
        <ele>297.1</ele>
        <time>2020-08-07T19:38:20Z</time>
      </trkpt>
      <trkpt lat="41.0414870" lon="0.7389010">
        <ele>297.1</ele>
        <time>2020-08-07T19:38:22Z</time>
      </trkpt>
      <trkpt lat="41.0414870" lon="0.7389010">
        <ele>297.1</ele>
        <time>2020-08-07T19:38:24Z</time>
      </trkpt>
      <trkpt lat="41.0414870" lon="0.7389010">
        <ele>297.1</ele>
        <time>2020-08-07T19:38:25Z</time>
      </trkpt>
      <trkpt lat="41.0414870" lon="0.7389010">
        <ele>297.1</ele>
        <time>2020-08-07T19:38:27Z</time>
      </trkpt>
      <trkpt lat="41.0414870" lon="0.7389010">
        <ele>297.1</ele>
        <time>2020-08-07T19:38:28Z</time>
      </trkpt>
      <trkpt lat="41.0414870" lon="0.7389010">
        <ele>297.1</ele>
        <time>2020-08-07T19:38:30Z</time>
      </trkpt>
      <trkpt lat="41.0414870" lon="0.7389010">
        <ele>297.1</ele>
        <time>2020-08-07T19:38:31Z</time>
      </trkpt>
      <trkpt lat="41.0414870" lon="0.7389010">
        <ele>297.1</ele>
        <time>2020-08-07T19:38:32Z</time>
      </trkpt>
      <trkpt lat="41.0414870" lon="0.7389010">
        <ele>297.1</ele>
        <time>2020-08-07T19:38:34Z</time>
      </trkpt>
      <trkpt lat="41.0414870" lon="0.7389010">
        <ele>297.1</ele>
        <time>2020-08-07T19:38:35Z</time>
      </trkpt>
      <trkpt lat="41.0414870" lon="0.7389010">
        <ele>297.1</ele>
        <time>2020-08-07T19:38:37Z</time>
      </trkpt>
      <trkpt lat="41.0414870" lon="0.7389010">
        <ele>297.1</ele>
        <time>2020-08-07T19:38:38Z</time>
      </trkpt>
      <trkpt lat="41.0414870" lon="0.7389010">
        <ele>297.1</ele>
        <time>2020-08-07T19:38:40Z</time>
      </trkpt>
      <trkpt lat="41.0414870" lon="0.7389010">
        <ele>297.1</ele>
        <time>2020-08-07T19:38:41Z</time>
      </trkpt>
      <trkpt lat="41.0414870" lon="0.7389010">
        <ele>297.1</ele>
        <time>2020-08-07T19:38:42Z</time>
      </trkpt>
      <trkpt lat="41.0414870" lon="0.7389010">
        <ele>297.1</ele>
        <time>2020-08-07T19:38:43Z</time>
      </trkpt>
      <trkpt lat="41.0414870" lon="0.7389010">
        <ele>297.1</ele>
        <time>2020-08-07T19:38:44Z</time>
      </trkpt>
      <trkpt lat="41.0414870" lon="0.7389010">
        <ele>297.1</ele>
        <time>2020-08-07T19:38:45Z</time>
      </trkpt>
      <trkpt lat="41.0414870" lon="0.7389010">
        <ele>297.1</ele>
        <time>2020-08-07T19:38:47Z</time>
      </trkpt>
      <trkpt lat="41.0414870" lon="0.7389010">
        <ele>297.1</ele>
        <time>2020-08-07T19:38:48Z</time>
      </trkpt>
      <trkpt lat="41.0414870" lon="0.7389010">
        <ele>297.1</ele>
        <time>2020-08-07T19:38:50Z</time>
      </trkpt>
      <trkpt lat="41.0414870" lon="0.7389000">
        <ele>297.1</ele>
        <time>2020-08-07T19:38:51Z</time>
      </trkpt>
      <trkpt lat="41.0414870" lon="0.7389000">
        <ele>297.1</ele>
        <time>2020-08-07T19:38:53Z</time>
      </trkpt>
      <trkpt lat="41.0414870" lon="0.7389000">
        <ele>297.1</ele>
        <time>2020-08-07T19:38:54Z</time>
      </trkpt>
      <trkpt lat="41.0414870" lon="0.7389000">
        <ele>297.1</ele>
        <time>2020-08-07T19:38:55Z</time>
      </trkpt>
      <trkpt lat="41.0414870" lon="0.7389000">
        <ele>297.1</ele>
        <time>2020-08-07T19:38:57Z</time>
      </trkpt>
      <trkpt lat="41.0414870" lon="0.7389000">
        <ele>297.1</ele>
        <time>2020-08-07T19:38:58Z</time>
      </trkpt>
      <trkpt lat="41.0414870" lon="0.7389000">
        <ele>297.1</ele>
        <time>2020-08-07T19:38:59Z</time>
      </trkpt>
      <trkpt lat="41.0414870" lon="0.7389000">
        <ele>297.1</ele>
        <time>2020-08-07T19:39:00Z</time>
      </trkpt>
      <trkpt lat="41.0414870" lon="0.7389000">
        <ele>297.1</ele>
        <time>2020-08-07T19:39:02Z</time>
      </trkpt>
      <trkpt lat="41.0414870" lon="0.7389000">
        <ele>297.1</ele>
        <time>2020-08-07T19:39:03Z</time>
      </trkpt>
      <trkpt lat="41.0414870" lon="0.7389000">
        <ele>297.1</ele>
        <time>2020-08-07T19:39:05Z</time>
      </trkpt>
      <trkpt lat="41.0414870" lon="0.7389000">
        <ele>297.1</ele>
        <time>2020-08-07T19:39:07Z</time>
      </trkpt>
      <trkpt lat="41.0414870" lon="0.7389000">
        <ele>297.1</ele>
        <time>2020-08-07T19:39:09Z</time>
      </trkpt>
      <trkpt lat="41.0414870" lon="0.7389000">
        <ele>297.1</ele>
        <time>2020-08-07T19:39:11Z</time>
      </trkpt>
      <trkpt lat="41.0414870" lon="0.7389000">
        <ele>297.1</ele>
        <time>2020-08-07T19:39:12Z</time>
      </trkpt>
      <trkpt lat="41.0414870" lon="0.7389000">
        <ele>297.1</ele>
        <time>2020-08-07T19:39:14Z</time>
      </trkpt>
      <trkpt lat="41.0414870" lon="0.7389000">
        <ele>297.1</ele>
        <time>2020-08-07T19:39:16Z</time>
      </trkpt>
      <trkpt lat="41.0414870" lon="0.7389000">
        <ele>297.1</ele>
        <time>2020-08-07T19:39:18Z</time>
      </trkpt>
      <trkpt lat="41.0414870" lon="0.7389000">
        <ele>297.1</ele>
        <time>2020-08-07T19:39:20Z</time>
      </trkpt>
      <trkpt lat="41.0414870" lon="0.7389000">
        <ele>297.1</ele>
        <time>2020-08-07T19:39:21Z</time>
      </trkpt>
      <trkpt lat="41.0414870" lon="0.7389000">
        <ele>297.1</ele>
        <time>2020-08-07T19:39:23Z</time>
      </trkpt>
      <trkpt lat="41.0414870" lon="0.7389000">
        <ele>297.1</ele>
        <time>2020-08-07T19:39:24Z</time>
      </trkpt>
      <trkpt lat="41.0414870" lon="0.7389000">
        <ele>297.1</ele>
        <time>2020-08-07T19:39:25Z</time>
      </trkpt>
      <trkpt lat="41.0414870" lon="0.7389000">
        <ele>297.1</ele>
        <time>2020-08-07T19:39:28Z</time>
      </trkpt>
      <trkpt lat="41.0414870" lon="0.7389000">
        <ele>297.1</ele>
        <time>2020-08-07T19:39:30Z</time>
      </trkpt>
      <trkpt lat="41.0414870" lon="0.7389000">
        <ele>297.1</ele>
        <time>2020-08-07T19:39:31Z</time>
      </trkpt>
      <trkpt lat="41.0417440" lon="0.7386040">
        <ele>302.8</ele>
        <time>2020-08-08T09:02:05Z</time>
      </trkpt>
      <trkpt lat="41.0417440" lon="0.7385890">
        <ele>302.8</ele>
        <time>2020-08-08T09:02:07Z</time>
      </trkpt>
      <trkpt lat="41.0417480" lon="0.7385730">
        <ele>302.8</ele>
        <time>2020-08-08T09:02:09Z</time>
      </trkpt>
      <trkpt lat="41.0417510" lon="0.7385580">
        <ele>302.8</ele>
        <time>2020-08-08T09:02:10Z</time>
      </trkpt>
      <trkpt lat="41.0417550" lon="0.7385420">
        <ele>302.8</ele>
        <time>2020-08-08T09:02:11Z</time>
      </trkpt>
      <trkpt lat="41.0417580" lon="0.7385260">
        <ele>302.7</ele>
        <time>2020-08-08T09:02:12Z</time>
      </trkpt>
      <trkpt lat="41.0417620" lon="0.7385100">
        <ele>302.7</ele>
        <time>2020-08-08T09:02:14Z</time>
      </trkpt>
      <trkpt lat="41.0417650" lon="0.7384950">
        <ele>302.7</ele>
        <time>2020-08-08T09:02:15Z</time>
      </trkpt>
      <trkpt lat="41.0417690" lon="0.7384790">
        <ele>302.7</ele>
        <time>2020-08-08T09:02:49Z</time>
      </trkpt>
      <trkpt lat="41.0417720" lon="0.7384630">
        <ele>302.7</ele>
        <time>2020-08-08T09:02:50Z</time>
      </trkpt>
      <trkpt lat="41.0417810" lon="0.7384170">
        <ele>302.6</ele>
        <time>2020-08-08T09:02:52Z</time>
      </trkpt>
      <trkpt lat="41.0417940" lon="0.7383960">
        <ele>302.6</ele>
        <time>2020-08-08T09:02:53Z</time>
      </trkpt>
      <trkpt lat="41.0418020" lon="0.7383890">
        <ele>302.5</ele>
        <time>2020-08-08T09:02:54Z</time>
      </trkpt>
      <trkpt lat="41.0418100" lon="0.7383810">
        <ele>302.5</ele>
        <time>2020-08-08T09:02:55Z</time>
      </trkpt>
      <trkpt lat="41.0418120" lon="0.7383770">
        <ele>302.5</ele>
        <time>2020-08-08T09:02:56Z</time>
      </trkpt>
      <trkpt lat="41.0418200" lon="0.7383890">
        <ele>302.5</ele>
        <time>2020-08-08T09:02:58Z</time>
      </trkpt>
      <trkpt lat="41.0418230" lon="0.7383910">
        <ele>302.5</ele>
        <time>2020-08-08T09:02:59Z</time>
      </trkpt>
      <trkpt lat="41.0418240" lon="0.7383920">
        <ele>302.5</ele>
        <time>2020-08-08T09:03:00Z</time>
      </trkpt>
      <trkpt lat="41.0418170" lon="0.7383930">
        <ele>302.5</ele>
        <time>2020-08-08T09:03:02Z</time>
      </trkpt>
      <trkpt lat="41.0418150" lon="0.7383940">
        <ele>302.5</ele>
        <time>2020-08-08T09:03:04Z</time>
      </trkpt>
      <trkpt lat="41.0418160" lon="0.7383950">
        <ele>302.5</ele>
        <time>2020-08-08T09:03:05Z</time>
      </trkpt>
      <trkpt lat="41.0418100" lon="0.7384150">
        <ele>302.5</ele>
        <time>2020-08-08T09:03:06Z</time>
      </trkpt>
      <trkpt lat="41.0418090" lon="0.7384210">
        <ele>302.4</ele>
        <time>2020-08-08T09:03:07Z</time>
      </trkpt>
      <trkpt lat="41.0418090" lon="0.7384230">
        <ele>302.4</ele>
        <time>2020-08-08T09:03:08Z</time>
      </trkpt>
      <trkpt lat="41.0418140" lon="0.7384180">
        <ele>302.4</ele>
        <time>2020-08-08T09:03:10Z</time>
      </trkpt>
      <trkpt lat="41.0418230" lon="0.7383970">
        <ele>302.4</ele>
        <time>2020-08-08T09:03:12Z</time>
      </trkpt>
      <trkpt lat="41.0418130" lon="0.7383700">
        <ele>302.4</ele>
        <time>2020-08-08T09:03:14Z</time>
      </trkpt>
      <trkpt lat="41.0417450" lon="0.7383170">
        <ele>302.2</ele>
        <time>2020-08-08T09:03:16Z</time>
      </trkpt>
      <trkpt lat="41.0417550" lon="0.7383380">
        <ele>302.2</ele>
        <time>2020-08-08T09:03:17Z</time>
      </trkpt>
      <trkpt lat="41.0416990" lon="0.7382790">
        <ele>302.1</ele>
        <time>2020-08-08T09:03:19Z</time>
      </trkpt>
      <trkpt lat="41.0416620" lon="0.7382390">
        <ele>302.0</ele>
        <time>2020-08-08T09:03:21Z</time>
      </trkpt>
      <trkpt lat="41.0416300" lon="0.7381960">
        <ele>301.9</ele>
        <time>2020-08-08T09:03:23Z</time>
      </trkpt>
      <trkpt lat="41.0416110" lon="0.7381670">
        <ele>301.9</ele>
        <time>2020-08-08T09:03:24Z</time>
      </trkpt>
      <trkpt lat="41.0416040" lon="0.7381570">
        <ele>301.9</ele>
        <time>2020-08-08T09:03:25Z</time>
      </trkpt>
      <trkpt lat="41.0415920" lon="0.7381340">
        <ele>301.8</ele>
        <time>2020-08-08T09:03:26Z</time>
      </trkpt>
      <trkpt lat="41.0415670" lon="0.7380840">
        <ele>301.8</ele>
        <time>2020-08-08T09:03:28Z</time>
      </trkpt>
      <trkpt lat="41.0415520" lon="0.7380500">
        <ele>301.7</ele>
        <time>2020-08-08T09:03:29Z</time>
      </trkpt>
      <trkpt lat="41.0415480" lon="0.7380400">
        <ele>301.7</ele>
        <time>2020-08-08T09:03:30Z</time>
      </trkpt>
      <trkpt lat="41.0415380" lon="0.7380090">
        <ele>301.7</ele>
        <time>2020-08-08T09:03:32Z</time>
      </trkpt>
      <trkpt lat="41.0415320" lon="0.7379810">
        <ele>301.6</ele>
        <time>2020-08-08T09:03:34Z</time>
      </trkpt>
      <trkpt lat="41.0415390" lon="0.7379540">
        <ele>301.6</ele>
        <time>2020-08-08T09:03:35Z</time>
      </trkpt>
      <trkpt lat="41.0415420" lon="0.7379440">
        <ele>301.6</ele>
        <time>2020-08-08T09:03:36Z</time>
      </trkpt>
      <trkpt lat="41.0415450" lon="0.7379330">
        <ele>301.6</ele>
        <time>2020-08-08T09:03:37Z</time>
      </trkpt>
      <trkpt lat="41.0415530" lon="0.7379180">
        <ele>301.5</ele>
        <time>2020-08-08T09:03:38Z</time>
      </trkpt>
      <trkpt lat="41.0415690" lon="0.7379060">
        <ele>301.5</ele>
        <time>2020-08-08T09:03:39Z</time>
      </trkpt>
      <trkpt lat="41.0416000" lon="0.7378710">
        <ele>301.5</ele>
        <time>2020-08-08T09:03:41Z</time>
      </trkpt>
      <trkpt lat="41.0416100" lon="0.7378580">
        <ele>301.4</ele>
        <time>2020-08-08T09:03:42Z</time>
      </trkpt>
      <trkpt lat="41.0416200" lon="0.7378450">
        <ele>301.4</ele>
        <time>2020-08-08T09:03:43Z</time>
      </trkpt>
      <trkpt lat="41.0416470" lon="0.7378220">
        <ele>301.4</ele>
        <time>2020-08-08T09:03:45Z</time>
      </trkpt>
      <trkpt lat="41.0416650" lon="0.7378040">
        <ele>301.3</ele>
        <time>2020-08-08T09:03:46Z</time>
      </trkpt>
      <trkpt lat="41.0416920" lon="0.7377800">
        <ele>301.3</ele>
        <time>2020-08-08T09:03:48Z</time>
      </trkpt>
      <trkpt lat="41.0417020" lon="0.7377670">
        <ele>301.3</ele>
        <time>2020-08-08T09:03:49Z</time>
      </trkpt>
      <trkpt lat="41.0417100" lon="0.7377560">
        <ele>301.3</ele>
        <time>2020-08-08T09:03:50Z</time>
      </trkpt>
      <trkpt lat="41.0417220" lon="0.7377410">
        <ele>301.2</ele>
        <time>2020-08-08T09:03:52Z</time>
      </trkpt>
      <trkpt lat="41.0417320" lon="0.7377210">
        <ele>301.2</ele>
        <time>2020-08-08T09:03:54Z</time>
      </trkpt>
      <trkpt lat="41.0417360" lon="0.7377130">
        <ele>301.2</ele>
        <time>2020-08-08T09:03:55Z</time>
      </trkpt>
      <trkpt lat="41.0417420" lon="0.7377060">
        <ele>301.2</ele>
        <time>2020-08-08T09:03:56Z</time>
      </trkpt>
      <trkpt lat="41.0417480" lon="0.7376990">
        <ele>301.2</ele>
        <time>2020-08-08T09:03:58Z</time>
      </trkpt>
      <trkpt lat="41.0417590" lon="0.7376980">
        <ele>301.2</ele>
        <time>2020-08-08T09:04:00Z</time>
      </trkpt>
      <trkpt lat="41.0417720" lon="0.7376930">
        <ele>301.6</ele>
        <time>2020-08-08T09:04:01Z</time>
      </trkpt>
      <trkpt lat="41.0417850" lon="0.7376800">
        <ele>301.6</ele>
        <time>2020-08-08T09:04:02Z</time>
      </trkpt>
      <trkpt lat="41.0417960" lon="0.7376320">
        <ele>301.8</ele>
        <time>2020-08-08T09:04:04Z</time>
      </trkpt>
      <trkpt lat="41.0417810" lon="0.7375940">
        <ele>302.0</ele>
        <time>2020-08-08T09:04:06Z</time>
      </trkpt>
      <trkpt lat="41.0417740" lon="0.7375840">
        <ele>302.1</ele>
        <time>2020-08-08T09:04:07Z</time>
      </trkpt>
      <trkpt lat="41.0417630" lon="0.7375740">
        <ele>302.1</ele>
        <time>2020-08-08T09:04:08Z</time>
      </trkpt>
      <trkpt lat="41.0417520" lon="0.7375650">
        <ele>302.2</ele>
        <time>2020-08-08T09:04:09Z</time>
      </trkpt>
      <trkpt lat="41.0417370" lon="0.7375490">
        <ele>302.3</ele>
        <time>2020-08-08T09:04:11Z</time>
      </trkpt>
      <trkpt lat="41.0417210" lon="0.7375270">
        <ele>302.4</ele>
        <time>2020-08-08T09:04:12Z</time>
      </trkpt>
      <trkpt lat="41.0416960" lon="0.7375000">
        <ele>302.6</ele>
        <time>2020-08-08T09:04:14Z</time>
      </trkpt>
      <trkpt lat="41.0416830" lon="0.7374890">
        <ele>302.7</ele>
        <time>2020-08-08T09:04:15Z</time>
      </trkpt>
      <trkpt lat="41.0416550" lon="0.7374680">
        <ele>302.9</ele>
        <time>2020-08-08T09:04:17Z</time>
      </trkpt>
      <trkpt lat="41.0416400" lon="0.7374570">
        <ele>303.0</ele>
        <time>2020-08-08T09:04:18Z</time>
      </trkpt>
      <trkpt lat="41.0416350" lon="0.7375430">
        <ele>303.4</ele>
        <time>2020-08-08T09:04:20Z</time>
      </trkpt>
      <trkpt lat="41.0416200" lon="0.7375550">
        <ele>303.5</ele>
        <time>2020-08-08T09:04:22Z</time>
      </trkpt>
      <trkpt lat="41.0416200" lon="0.7375750">
        <ele>303.6</ele>
        <time>2020-08-08T09:04:24Z</time>
      </trkpt>
      <trkpt lat="41.0416160" lon="0.7375820">
        <ele>303.7</ele>
        <time>2020-08-08T09:04:25Z</time>
      </trkpt>
      <trkpt lat="41.0416120" lon="0.7375930">
        <ele>303.7</ele>
        <time>2020-08-08T09:04:27Z</time>
      </trkpt>
      <trkpt lat="41.0416100" lon="0.7375980">
        <ele>303.8</ele>
        <time>2020-08-08T09:04:28Z</time>
      </trkpt>
      <trkpt lat="41.0416030" lon="0.7375980">
        <ele>303.8</ele>
        <time>2020-08-08T09:04:29Z</time>
      </trkpt>
      <trkpt lat="41.0415880" lon="0.7375920">
        <ele>303.9</ele>
        <time>2020-08-08T09:04:31Z</time>
      </trkpt>
      <trkpt lat="41.0415790" lon="0.7375730">
        <ele>304.0</ele>
        <time>2020-08-08T09:04:33Z</time>
      </trkpt>
      <trkpt lat="41.0415640" lon="0.7375510">
        <ele>304.2</ele>
        <time>2020-08-08T09:04:35Z</time>
      </trkpt>
      <trkpt lat="41.0415570" lon="0.7375350">
        <ele>304.3</ele>
        <time>2020-08-08T09:04:36Z</time>
      </trkpt>
      <trkpt lat="41.0415440" lon="0.7375110">
        <ele>304.4</ele>
        <time>2020-08-08T09:04:38Z</time>
      </trkpt>
      <trkpt lat="41.0415370" lon="0.7375020">
        <ele>304.5</ele>
        <time>2020-08-08T09:04:39Z</time>
      </trkpt>
      <trkpt lat="41.0415280" lon="0.7374930">
        <ele>304.6</ele>
        <time>2020-08-08T09:04:40Z</time>
      </trkpt>
      <trkpt lat="41.0415180" lon="0.7374810">
        <ele>304.7</ele>
        <time>2020-08-08T09:04:42Z</time>
      </trkpt>
      <trkpt lat="41.0415090" lon="0.7374670">
        <ele>304.8</ele>
        <time>2020-08-08T09:04:43Z</time>
      </trkpt>
      <trkpt lat="41.0415010" lon="0.7374590">
        <ele>304.9</ele>
        <time>2020-08-08T09:04:44Z</time>
      </trkpt>
      <trkpt lat="41.0414960" lon="0.7374520">
        <ele>304.9</ele>
        <time>2020-08-08T09:04:45Z</time>
      </trkpt>
      <trkpt lat="41.0414900" lon="0.7374460">
        <ele>305.0</ele>
        <time>2020-08-08T09:04:46Z</time>
      </trkpt>
      <trkpt lat="41.0414850" lon="0.7374340">
        <ele>305.0</ele>
        <time>2020-08-08T09:04:48Z</time>
      </trkpt>
      <trkpt lat="41.0414700" lon="0.7374200">
        <ele>305.2</ele>
        <time>2020-08-08T09:04:50Z</time>
      </trkpt>
      <trkpt lat="41.0414440" lon="0.7373950">
        <ele>305.4</ele>
        <time>2020-08-08T09:04:51Z</time>
      </trkpt>
      <trkpt lat="41.0414280" lon="0.7373810">
        <ele>305.5</ele>
        <time>2020-08-08T09:04:52Z</time>
      </trkpt>
      <trkpt lat="41.0414210" lon="0.7373730">
        <ele>305.6</ele>
        <time>2020-08-08T09:04:53Z</time>
      </trkpt>
      <trkpt lat="41.0414110" lon="0.7373610">
        <ele>305.7</ele>
        <time>2020-08-08T09:04:55Z</time>
      </trkpt>
      <trkpt lat="41.0414020" lon="0.7373550">
        <ele>305.8</ele>
        <time>2020-08-08T09:04:56Z</time>
      </trkpt>
      <trkpt lat="41.0413940" lon="0.7373470">
        <ele>305.9</ele>
        <time>2020-08-08T09:04:57Z</time>
      </trkpt>
      <trkpt lat="41.0413900" lon="0.7373300">
        <ele>306.0</ele>
        <time>2020-08-08T09:04:59Z</time>
      </trkpt>
      <trkpt lat="41.0413720" lon="0.7373140">
        <ele>306.1</ele>
        <time>2020-08-08T09:05:01Z</time>
      </trkpt>
      <trkpt lat="41.0413640" lon="0.7373040">
        <ele>306.2</ele>
        <time>2020-08-08T09:05:02Z</time>
      </trkpt>
      <trkpt lat="41.0413610" lon="0.7372910">
        <ele>306.3</ele>
        <time>2020-08-08T09:05:03Z</time>
      </trkpt>
      <trkpt lat="41.0413460" lon="0.7372730">
        <ele>306.5</ele>
        <time>2020-08-08T09:05:05Z</time>
      </trkpt>
      <trkpt lat="41.0413370" lon="0.7372590">
        <ele>306.6</ele>
        <time>2020-08-08T09:05:06Z</time>
      </trkpt>
      <trkpt lat="41.0413290" lon="0.7372440">
        <ele>306.7</ele>
        <time>2020-08-08T09:05:07Z</time>
      </trkpt>
      <trkpt lat="41.0413050" lon="0.7372140">
        <ele>307.0</ele>
        <time>2020-08-08T09:05:08Z</time>
      </trkpt>
      <trkpt lat="41.0412950" lon="0.7371920">
        <ele>307.1</ele>
        <time>2020-08-08T09:05:09Z</time>
      </trkpt>
      <trkpt lat="41.0412890" lon="0.7371820">
        <ele>307.2</ele>
        <time>2020-08-08T09:05:10Z</time>
      </trkpt>
      <trkpt lat="41.0412830" lon="0.7371730">
        <ele>307.3</ele>
        <time>2020-08-08T09:05:11Z</time>
      </trkpt>
      <trkpt lat="41.0412720" lon="0.7371570">
        <ele>307.4</ele>
        <time>2020-08-08T09:05:12Z</time>
      </trkpt>
      <trkpt lat="41.0412500" lon="0.7371010">
        <ele>307.8</ele>
        <time>2020-08-08T09:05:14Z</time>
      </trkpt>
      <trkpt lat="41.0412530" lon="0.7370850">
        <ele>307.8</ele>
        <time>2020-08-08T09:05:16Z</time>
      </trkpt>
      <trkpt lat="41.0412510" lon="0.7370740">
        <ele>307.9</ele>
        <time>2020-08-08T09:05:17Z</time>
      </trkpt>
      <trkpt lat="41.0412500" lon="0.7370660">
        <ele>308.0</ele>
        <time>2020-08-08T09:05:18Z</time>
      </trkpt>
      <trkpt lat="41.0412500" lon="0.7370640">
        <ele>308.0</ele>
        <time>2020-08-08T09:05:19Z</time>
      </trkpt>
      <trkpt lat="41.0412450" lon="0.7370540">
        <ele>308.0</ele>
        <time>2020-08-08T09:05:21Z</time>
      </trkpt>
      <trkpt lat="41.0412440" lon="0.7370520">
        <ele>308.0</ele>
        <time>2020-08-08T09:05:22Z</time>
      </trkpt>
      <trkpt lat="41.0412410" lon="0.7370460">
        <ele>308.1</ele>
        <time>2020-08-08T09:05:23Z</time>
      </trkpt>
      <trkpt lat="41.0412390" lon="0.7370420">
        <ele>308.1</ele>
        <time>2020-08-08T09:05:24Z</time>
      </trkpt>
      <trkpt lat="41.0412370" lon="0.7370380">
        <ele>308.1</ele>
        <time>2020-08-08T09:05:25Z</time>
      </trkpt>
      <trkpt lat="41.0412320" lon="0.7370280">
        <ele>308.2</ele>
        <time>2020-08-08T09:05:26Z</time>
      </trkpt>
      <trkpt lat="41.0411320" lon="0.7368890">
        <ele>309.6</ele>
        <time>2020-08-08T09:05:28Z</time>
      </trkpt>
      <trkpt lat="41.0410800" lon="0.7368200">
        <ele>309.9</ele>
        <time>2020-08-08T09:05:30Z</time>
      </trkpt>
      <trkpt lat="41.0410110" lon="0.7367250">
        <ele>310.3</ele>
        <time>2020-08-08T09:05:32Z</time>
      </trkpt>
      <trkpt lat="41.0410200" lon="0.7367370">
        <ele>310.4</ele>
        <time>2020-08-08T09:05:33Z</time>
      </trkpt>
      <trkpt lat="41.0410270" lon="0.7367380">
        <ele>310.4</ele>
        <time>2020-08-08T09:05:35Z</time>
      </trkpt>
      <trkpt lat="41.0410400" lon="0.7367480">
        <ele>310.5</ele>
        <time>2020-08-08T09:05:36Z</time>
      </trkpt>
      <trkpt lat="41.0410460" lon="0.7367500">
        <ele>310.5</ele>
        <time>2020-08-08T09:05:37Z</time>
      </trkpt>
      <trkpt lat="41.0410510" lon="0.7367620">
        <ele>310.5</ele>
        <time>2020-08-08T09:05:39Z</time>
      </trkpt>
      <trkpt lat="41.0410510" lon="0.7367700">
        <ele>310.6</ele>
        <time>2020-08-08T09:05:40Z</time>
      </trkpt>
      <trkpt lat="41.0410440" lon="0.7367870">
        <ele>310.6</ele>
        <time>2020-08-08T09:05:41Z</time>
      </trkpt>
      <trkpt lat="41.0410790" lon="0.7368500">
        <ele>310.1</ele>
        <time>2020-08-08T09:05:43Z</time>
      </trkpt>
      <trkpt lat="41.0411200" lon="0.7368800">
        <ele>309.7</ele>
        <time>2020-08-08T09:05:45Z</time>
      </trkpt>
      <trkpt lat="41.0411470" lon="0.7368900">
        <ele>309.5</ele>
        <time>2020-08-08T09:05:46Z</time>
      </trkpt>
      <trkpt lat="41.0411530" lon="0.7368930">
        <ele>309.4</ele>
        <time>2020-08-08T09:05:47Z</time>
      </trkpt>
      <trkpt lat="41.0411620" lon="0.7368970">
        <ele>309.2</ele>
        <time>2020-08-08T09:05:49Z</time>
      </trkpt>
      <trkpt lat="41.0411640" lon="0.7368970">
        <ele>309.2</ele>
        <time>2020-08-08T09:05:51Z</time>
      </trkpt>
      <trkpt lat="41.0411610" lon="0.7368980">
        <ele>309.2</ele>
        <time>2020-08-08T09:05:52Z</time>
      </trkpt>
      <trkpt lat="41.0411560" lon="0.7368990">
        <ele>309.2</ele>
        <time>2020-08-08T09:05:54Z</time>
      </trkpt>
      <trkpt lat="41.0411510" lon="0.7369000">
        <ele>309.2</ele>
        <time>2020-08-08T09:05:56Z</time>
      </trkpt>
      <trkpt lat="41.0411500" lon="0.7369000">
        <ele>309.2</ele>
        <time>2020-08-08T09:05:57Z</time>
      </trkpt>
      <trkpt lat="41.0411470" lon="0.7369000">
        <ele>309.1</ele>
        <time>2020-08-08T09:05:59Z</time>
      </trkpt>
      <trkpt lat="41.0411060" lon="0.7368600">
        <ele>309.0</ele>
        <time>2020-08-08T09:06:02Z</time>
      </trkpt>
      <trkpt lat="41.0410510" lon="0.7368040">
        <ele>308.7</ele>
        <time>2020-08-08T09:06:04Z</time>
      </trkpt>
      <trkpt lat="41.0410410" lon="0.7367920">
        <ele>308.5</ele>
        <time>2020-08-08T09:06:06Z</time>
      </trkpt>
      <trkpt lat="41.0410420" lon="0.7367920">
        <ele>308.5</ele>
        <time>2020-08-08T09:06:08Z</time>
      </trkpt>
      <trkpt lat="41.0410430" lon="0.7367910">
        <ele>308.5</ele>
        <time>2020-08-08T09:06:11Z</time>
      </trkpt>
      <trkpt lat="41.0410430" lon="0.7367910">
        <ele>308.5</ele>
        <time>2020-08-08T09:06:12Z</time>
      </trkpt>
      <trkpt lat="41.0410430" lon="0.7367910">
        <ele>308.5</ele>
        <time>2020-08-08T09:06:13Z</time>
      </trkpt>
      <trkpt lat="41.0410430" lon="0.7367900">
        <ele>308.5</ele>
        <time>2020-08-08T09:06:15Z</time>
      </trkpt>
      <trkpt lat="41.0410800" lon="0.7368030">
        <ele>308.5</ele>
        <time>2020-08-08T09:08:01Z</time>
      </trkpt>
      <trkpt lat="41.0411110" lon="0.7368010">
        <ele>308.4</ele>
        <time>2020-08-08T09:08:03Z</time>
      </trkpt>
      <trkpt lat="41.0411410" lon="0.7367890">
        <ele>308.3</ele>
        <time>2020-08-08T09:08:04Z</time>
      </trkpt>
      <trkpt lat="41.0411520" lon="0.7367810">
        <ele>308.2</ele>
        <time>2020-08-08T09:08:05Z</time>
      </trkpt>
      <trkpt lat="41.0411700" lon="0.7367670">
        <ele>308.2</ele>
        <time>2020-08-08T09:08:07Z</time>
      </trkpt>
      <trkpt lat="41.0411730" lon="0.7367640">
        <ele>308.2</ele>
        <time>2020-08-08T09:08:08Z</time>
      </trkpt>
      <trkpt lat="41.0411780" lon="0.7367690">
        <ele>308.2</ele>
        <time>2020-08-08T09:08:10Z</time>
      </trkpt>
      <trkpt lat="41.0411850" lon="0.7367840">
        <ele>308.1</ele>
        <time>2020-08-08T09:08:12Z</time>
      </trkpt>
      <trkpt lat="41.0411880" lon="0.7367890">
        <ele>308.1</ele>
        <time>2020-08-08T09:08:13Z</time>
      </trkpt>
      <trkpt lat="41.0411930" lon="0.7367930">
        <ele>308.1</ele>
        <time>2020-08-08T09:08:15Z</time>
      </trkpt>
      <trkpt lat="41.0411950" lon="0.7367940">
        <ele>308.1</ele>
        <time>2020-08-08T09:08:16Z</time>
      </trkpt>
      <trkpt lat="41.0411970" lon="0.7367900">
        <ele>308.1</ele>
        <time>2020-08-08T09:08:17Z</time>
      </trkpt>
      <trkpt lat="41.0411990" lon="0.7367860">
        <ele>308.1</ele>
        <time>2020-08-08T09:08:18Z</time>
      </trkpt>
      <trkpt lat="41.0412010" lon="0.7367840">
        <ele>308.1</ele>
        <time>2020-08-08T09:08:19Z</time>
      </trkpt>
      <trkpt lat="41.0412010" lon="0.7367810">
        <ele>308.1</ele>
        <time>2020-08-08T09:08:21Z</time>
      </trkpt>
      <trkpt lat="41.0412040" lon="0.7367770">
        <ele>308.0</ele>
        <time>2020-08-08T09:08:22Z</time>
      </trkpt>
      <trkpt lat="41.0412040" lon="0.7367730">
        <ele>308.0</ele>
        <time>2020-08-08T09:08:23Z</time>
      </trkpt>
      <trkpt lat="41.0411930" lon="0.7367500">
        <ele>308.0</ele>
        <time>2020-08-08T09:08:25Z</time>
      </trkpt>
      <trkpt lat="41.0411870" lon="0.7367360">
        <ele>307.9</ele>
        <time>2020-08-08T09:08:26Z</time>
      </trkpt>
      <trkpt lat="41.0411820" lon="0.7367220">
        <ele>307.9</ele>
        <time>2020-08-08T09:08:27Z</time>
      </trkpt>
      <trkpt lat="41.0411790" lon="0.7367160">
        <ele>307.9</ele>
        <time>2020-08-08T09:08:28Z</time>
      </trkpt>
      <trkpt lat="41.0411800" lon="0.7367120">
        <ele>307.9</ele>
        <time>2020-08-08T09:08:30Z</time>
      </trkpt>
      <trkpt lat="41.0411780" lon="0.7367080">
        <ele>307.9</ele>
        <time>2020-08-08T09:08:31Z</time>
      </trkpt>
      <trkpt lat="41.0411770" lon="0.7367030">
        <ele>307.9</ele>
        <time>2020-08-08T09:08:32Z</time>
      </trkpt>
      <trkpt lat="41.0411760" lon="0.7366980">
        <ele>307.9</ele>
        <time>2020-08-08T09:08:34Z</time>
      </trkpt>
      <trkpt lat="41.0411750" lon="0.7366930">
        <ele>307.8</ele>
        <time>2020-08-08T09:08:35Z</time>
      </trkpt>
      <trkpt lat="41.0411730" lon="0.7366890">
        <ele>307.8</ele>
        <time>2020-08-08T09:08:37Z</time>
      </trkpt>
      <trkpt lat="41.0411720" lon="0.7366840">
        <ele>307.8</ele>
        <time>2020-08-08T09:08:38Z</time>
      </trkpt>
      <trkpt lat="41.0411710" lon="0.7366790">
        <ele>307.8</ele>
        <time>2020-08-08T09:08:47Z</time>
      </trkpt>
      <trkpt lat="41.0411690" lon="0.7366750">
        <ele>307.8</ele>
        <time>2020-08-08T09:08:49Z</time>
      </trkpt>
      <trkpt lat="41.0411680" lon="0.7366700">
        <ele>307.8</ele>
        <time>2020-08-08T09:08:50Z</time>
      </trkpt>
      <trkpt lat="41.0411670" lon="0.7366650">
        <ele>307.8</ele>
        <time>2020-08-08T09:08:51Z</time>
      </trkpt>
      <trkpt lat="41.0411660" lon="0.7366600">
        <ele>307.8</ele>
        <time>2020-08-08T09:08:52Z</time>
      </trkpt>
      <trkpt lat="41.0411640" lon="0.7366560">
        <ele>307.8</ele>
        <time>2020-08-08T09:08:54Z</time>
      </trkpt>
      <trkpt lat="41.0411630" lon="0.7366510">
        <ele>307.8</ele>
        <time>2020-08-08T09:08:55Z</time>
      </trkpt>
      <trkpt lat="41.0411640" lon="0.7366320">
        <ele>307.7</ele>
        <time>2020-08-08T09:08:56Z</time>
      </trkpt>
      <trkpt lat="41.0411660" lon="0.7366130">
        <ele>307.7</ele>
        <time>2020-08-08T09:08:57Z</time>
      </trkpt>
      <trkpt lat="41.0411660" lon="0.7365640">
        <ele>307.6</ele>
        <time>2020-08-08T09:08:59Z</time>
      </trkpt>
      <trkpt lat="41.0411550" lon="0.7365220">
        <ele>307.5</ele>
        <time>2020-08-08T09:09:00Z</time>
      </trkpt>
      <trkpt lat="41.0411530" lon="0.7365080">
        <ele>307.4</ele>
        <time>2020-08-08T09:09:01Z</time>
      </trkpt>
      <trkpt lat="41.0411310" lon="0.7364530">
        <ele>307.3</ele>
        <time>2020-08-08T09:09:03Z</time>
      </trkpt>
      <trkpt lat="41.0411190" lon="0.7364370">
        <ele>307.3</ele>
        <time>2020-08-08T09:09:05Z</time>
      </trkpt>
      <trkpt lat="41.0411070" lon="0.7364210">
        <ele>307.2</ele>
        <time>2020-08-08T09:09:06Z</time>
      </trkpt>
      <trkpt lat="41.0410930" lon="0.7363830">
        <ele>307.1</ele>
        <time>2020-08-08T09:09:08Z</time>
      </trkpt>
      <trkpt lat="41.0410920" lon="0.7363660">
        <ele>307.1</ele>
        <time>2020-08-08T09:09:09Z</time>
      </trkpt>
      <trkpt lat="41.0410920" lon="0.7363310">
        <ele>307.0</ele>
        <time>2020-08-08T09:09:11Z</time>
      </trkpt>
      <trkpt lat="41.0410690" lon="0.7362120">
        <ele>306.6</ele>
        <time>2020-08-08T09:09:14Z</time>
      </trkpt>
      <trkpt lat="41.0410510" lon="0.7361050">
        <ele>306.3</ele>
        <time>2020-08-08T09:09:16Z</time>
      </trkpt>
      <trkpt lat="41.0410420" lon="0.7360380">
        <ele>306.0</ele>
        <time>2020-08-08T09:09:17Z</time>
      </trkpt>
      <trkpt lat="41.0410460" lon="0.7359730">
        <ele>305.6</ele>
        <time>2020-08-08T09:09:18Z</time>
      </trkpt>
      <trkpt lat="41.0410550" lon="0.7359320">
        <ele>305.4</ele>
        <time>2020-08-08T09:09:19Z</time>
      </trkpt>
      <trkpt lat="41.0410580" lon="0.7359170">
        <ele>305.3</ele>
        <time>2020-08-08T09:09:20Z</time>
      </trkpt>
      <trkpt lat="41.0410590" lon="0.7358670">
        <ele>305.0</ele>
        <time>2020-08-08T09:09:22Z</time>
      </trkpt>
      <trkpt lat="41.0410560" lon="0.7358310">
        <ele>304.6</ele>
        <time>2020-08-08T09:09:24Z</time>
      </trkpt>
      <trkpt lat="41.0410610" lon="0.7358170">
        <ele>304.5</ele>
        <time>2020-08-08T09:09:25Z</time>
      </trkpt>
      <trkpt lat="41.0410720" lon="0.7358010">
        <ele>304.3</ele>
        <time>2020-08-08T09:09:26Z</time>
      </trkpt>
      <trkpt lat="41.0411070" lon="0.7357590">
        <ele>303.9</ele>
        <time>2020-08-08T09:09:28Z</time>
      </trkpt>
      <trkpt lat="41.0411170" lon="0.7357480">
        <ele>303.8</ele>
        <time>2020-08-08T09:09:29Z</time>
      </trkpt>
      <trkpt lat="41.0411280" lon="0.7357370">
        <ele>303.7</ele>
        <time>2020-08-08T09:09:30Z</time>
      </trkpt>
      <trkpt lat="41.0411530" lon="0.7357080">
        <ele>303.5</ele>
        <time>2020-08-08T09:09:32Z</time>
      </trkpt>
      <trkpt lat="41.0411630" lon="0.7356920">
        <ele>303.3</ele>
        <time>2020-08-08T09:09:33Z</time>
      </trkpt>
      <trkpt lat="41.0411720" lon="0.7356750">
        <ele>303.2</ele>
        <time>2020-08-08T09:09:34Z</time>
      </trkpt>
      <trkpt lat="41.0411820" lon="0.7356590">
        <ele>303.1</ele>
        <time>2020-08-08T09:09:35Z</time>
      </trkpt>
      <trkpt lat="41.0411900" lon="0.7356420">
        <ele>303.0</ele>
        <time>2020-08-08T09:09:36Z</time>
      </trkpt>
      <trkpt lat="41.0411970" lon="0.7356250">
        <ele>302.9</ele>
        <time>2020-08-08T09:09:37Z</time>
      </trkpt>
      <trkpt lat="41.0412160" lon="0.7355700">
        <ele>302.5</ele>
        <time>2020-08-08T09:09:39Z</time>
      </trkpt>
      <trkpt lat="41.0412220" lon="0.7355510">
        <ele>302.4</ele>
        <time>2020-08-08T09:09:41Z</time>
      </trkpt>
      <trkpt lat="41.0412270" lon="0.7355330">
        <ele>302.3</ele>
        <time>2020-08-08T09:09:42Z</time>
      </trkpt>
      <trkpt lat="41.0412310" lon="0.7355120">
        <ele>302.2</ele>
        <time>2020-08-08T09:09:43Z</time>
      </trkpt>
      <trkpt lat="41.0412250" lon="0.7354700">
        <ele>301.9</ele>
        <time>2020-08-08T09:09:45Z</time>
      </trkpt>
      <trkpt lat="41.0412120" lon="0.7354310">
        <ele>301.7</ele>
        <time>2020-08-08T09:09:47Z</time>
      </trkpt>
      <trkpt lat="41.0412050" lon="0.7353840">
        <ele>301.5</ele>
        <time>2020-08-08T09:09:49Z</time>
      </trkpt>
      <trkpt lat="41.0411990" lon="0.7353330">
        <ele>301.3</ele>
        <time>2020-08-08T09:09:51Z</time>
      </trkpt>
      <trkpt lat="41.0411880" lon="0.7352870">
        <ele>301.1</ele>
        <time>2020-08-08T09:09:52Z</time>
      </trkpt>
      <trkpt lat="41.0411830" lon="0.7352710">
        <ele>301.0</ele>
        <time>2020-08-08T09:09:53Z</time>
      </trkpt>
      <trkpt lat="41.0411640" lon="0.7351990">
        <ele>300.8</ele>
        <time>2020-08-08T09:09:55Z</time>
      </trkpt>
      <trkpt lat="41.0411530" lon="0.7351610">
        <ele>300.6</ele>
        <time>2020-08-08T09:09:56Z</time>
      </trkpt>
      <trkpt lat="41.0411390" lon="0.7351210">
        <ele>300.5</ele>
        <time>2020-08-08T09:09:57Z</time>
      </trkpt>
      <trkpt lat="41.0411260" lon="0.7350840">
        <ele>300.4</ele>
        <time>2020-08-08T09:09:58Z</time>
      </trkpt>
      <trkpt lat="41.0411150" lon="0.7350510">
        <ele>300.3</ele>
        <time>2020-08-08T09:09:59Z</time>
      </trkpt>
      <trkpt lat="41.0411070" lon="0.7350260">
        <ele>300.2</ele>
        <time>2020-08-08T09:10:00Z</time>
      </trkpt>
      <trkpt lat="41.0411020" lon="0.7349990">
        <ele>300.1</ele>
        <time>2020-08-08T09:10:02Z</time>
      </trkpt>
      <trkpt lat="41.0411050" lon="0.7349810">
        <ele>300.1</ele>
        <time>2020-08-08T09:10:03Z</time>
      </trkpt>
      <trkpt lat="41.0411080" lon="0.7349710">
        <ele>300.0</ele>
        <time>2020-08-08T09:10:04Z</time>
      </trkpt>
      <trkpt lat="41.0411210" lon="0.7349760">
        <ele>300.0</ele>
        <time>2020-08-08T09:10:06Z</time>
      </trkpt>
      <trkpt lat="41.0411300" lon="0.7349950">
        <ele>299.9</ele>
        <time>2020-08-08T09:10:07Z</time>
      </trkpt>
      <trkpt lat="41.0411330" lon="0.7349980">
        <ele>299.9</ele>
        <time>2020-08-08T09:10:08Z</time>
      </trkpt>
      <trkpt lat="41.0411300" lon="0.7349960">
        <ele>299.9</ele>
        <time>2020-08-08T09:10:10Z</time>
      </trkpt>
      <trkpt lat="41.0411280" lon="0.7349950">
        <ele>299.9</ele>
        <time>2020-08-08T09:10:11Z</time>
      </trkpt>
      <trkpt lat="41.0411230" lon="0.7349890">
        <ele>299.9</ele>
        <time>2020-08-08T09:10:13Z</time>
      </trkpt>
      <trkpt lat="41.0411190" lon="0.7349830">
        <ele>299.9</ele>
        <time>2020-08-08T09:10:15Z</time>
      </trkpt>
      <trkpt lat="41.0411180" lon="0.7349810">
        <ele>299.9</ele>
        <time>2020-08-08T09:10:16Z</time>
      </trkpt>
      <trkpt lat="41.0411170" lon="0.7349810">
        <ele>299.9</ele>
        <time>2020-08-08T09:10:17Z</time>
      </trkpt>
      <trkpt lat="41.0411170" lon="0.7349810">
        <ele>299.9</ele>
        <time>2020-08-08T09:10:19Z</time>
      </trkpt>
      <trkpt lat="41.0410980" lon="0.7349830">
        <ele>299.8</ele>
        <time>2020-08-08T09:10:47Z</time>
      </trkpt>
      <trkpt lat="41.0410870" lon="0.7349890">
        <ele>299.8</ele>
        <time>2020-08-08T09:10:48Z</time>
      </trkpt>
      <trkpt lat="41.0410800" lon="0.7350000">
        <ele>299.7</ele>
        <time>2020-08-08T09:10:49Z</time>
      </trkpt>
      <trkpt lat="41.0410840" lon="0.7350430">
        <ele>299.6</ele>
        <time>2020-08-08T09:10:51Z</time>
      </trkpt>
      <trkpt lat="41.0411020" lon="0.7350750">
        <ele>299.5</ele>
        <time>2020-08-08T09:10:53Z</time>
      </trkpt>
      <trkpt lat="41.0411080" lon="0.7350870">
        <ele>299.5</ele>
        <time>2020-08-08T09:10:54Z</time>
      </trkpt>
      <trkpt lat="41.0411230" lon="0.7351060">
        <ele>299.5</ele>
        <time>2020-08-08T09:10:56Z</time>
      </trkpt>
      <trkpt lat="41.0411290" lon="0.7351080">
        <ele>299.5</ele>
        <time>2020-08-08T09:10:57Z</time>
      </trkpt>
      <trkpt lat="41.0411480" lon="0.7350960">
        <ele>299.4</ele>
        <time>2020-08-08T09:10:59Z</time>
      </trkpt>
      <trkpt lat="41.0411600" lon="0.7350730">
        <ele>299.4</ele>
        <time>2020-08-08T09:11:01Z</time>
      </trkpt>
      <trkpt lat="41.0411600" lon="0.7350620">
        <ele>299.3</ele>
        <time>2020-08-08T09:11:02Z</time>
      </trkpt>
      <trkpt lat="41.0411570" lon="0.7350560">
        <ele>299.3</ele>
        <time>2020-08-08T09:11:03Z</time>
      </trkpt>
      <trkpt lat="41.0411570" lon="0.7350530">
        <ele>299.3</ele>
        <time>2020-08-08T09:11:05Z</time>
      </trkpt>
      <trkpt lat="41.0411590" lon="0.7350530">
        <ele>299.3</ele>
        <time>2020-08-08T09:11:06Z</time>
      </trkpt>
      <trkpt lat="41.0411630" lon="0.7350520">
        <ele>299.3</ele>
        <time>2020-08-08T09:11:08Z</time>
      </trkpt>
      <trkpt lat="41.0411680" lon="0.7350510">
        <ele>299.3</ele>
        <time>2020-08-08T09:11:09Z</time>
      </trkpt>
      <trkpt lat="41.0411720" lon="0.7350510">
        <ele>299.3</ele>
        <time>2020-08-08T09:11:11Z</time>
      </trkpt>
      <trkpt lat="41.0411730" lon="0.7350510">
        <ele>299.3</ele>
        <time>2020-08-08T09:11:12Z</time>
      </trkpt>
      <trkpt lat="41.0411740" lon="0.7350510">
        <ele>299.3</ele>
        <time>2020-08-08T09:11:14Z</time>
      </trkpt>
      <trkpt lat="41.0411860" lon="0.7350440">
        <ele>299.3</ele>
        <time>2020-08-08T09:11:33Z</time>
      </trkpt>
      <trkpt lat="41.0411860" lon="0.7350340">
        <ele>299.2</ele>
        <time>2020-08-08T09:11:35Z</time>
      </trkpt>
      <trkpt lat="41.0411810" lon="0.7350230">
        <ele>299.2</ele>
        <time>2020-08-08T09:11:37Z</time>
      </trkpt>
      <trkpt lat="41.0411780" lon="0.7350070">
        <ele>299.2</ele>
        <time>2020-08-08T09:11:39Z</time>
      </trkpt>
      <trkpt lat="41.0411690" lon="0.7349840">
        <ele>299.2</ele>
        <time>2020-08-08T09:11:40Z</time>
      </trkpt>
      <trkpt lat="41.0411620" lon="0.7349830">
        <ele>299.2</ele>
        <time>2020-08-08T09:11:42Z</time>
      </trkpt>
      <trkpt lat="41.0411600" lon="0.7349860">
        <ele>299.2</ele>
        <time>2020-08-08T09:11:43Z</time>
      </trkpt>
      <trkpt lat="41.0411570" lon="0.7349970">
        <ele>299.1</ele>
        <time>2020-08-08T09:11:45Z</time>
      </trkpt>
      <trkpt lat="41.0411560" lon="0.7350030">
        <ele>299.1</ele>
        <time>2020-08-08T09:11:46Z</time>
      </trkpt>
      <trkpt lat="41.0411560" lon="0.7350060">
        <ele>299.1</ele>
        <time>2020-08-08T09:11:47Z</time>
      </trkpt>
      <trkpt lat="41.0411510" lon="0.7349970">
        <ele>299.1</ele>
        <time>2020-08-08T09:11:48Z</time>
      </trkpt>
      <trkpt lat="41.0411440" lon="0.7349900">
        <ele>299.1</ele>
        <time>2020-08-08T09:11:49Z</time>
      </trkpt>
      <trkpt lat="41.0411380" lon="0.7349890">
        <ele>299.1</ele>
        <time>2020-08-08T09:11:51Z</time>
      </trkpt>
      <trkpt lat="41.0411430" lon="0.7350030">
        <ele>299.1</ele>
        <time>2020-08-08T09:11:53Z</time>
      </trkpt>
      <trkpt lat="41.0411460" lon="0.7350090">
        <ele>299.1</ele>
        <time>2020-08-08T09:11:54Z</time>
      </trkpt>
      <trkpt lat="41.0411500" lon="0.7350150">
        <ele>299.1</ele>
        <time>2020-08-08T09:11:56Z</time>
      </trkpt>
      <trkpt lat="41.0411500" lon="0.7350160">
        <ele>299.1</ele>
        <time>2020-08-08T09:11:57Z</time>
      </trkpt>
      <trkpt lat="41.0411510" lon="0.7350120">
        <ele>299.1</ele>
        <time>2020-08-08T09:11:59Z</time>
      </trkpt>
      <trkpt lat="41.0411510" lon="0.7350080">
        <ele>299.1</ele>
        <time>2020-08-08T09:12:00Z</time>
      </trkpt>
      <trkpt lat="41.0411510" lon="0.7350050">
        <ele>299.1</ele>
        <time>2020-08-08T09:12:02Z</time>
      </trkpt>
      <trkpt lat="41.0411510" lon="0.7350050">
        <ele>299.1</ele>
        <time>2020-08-08T09:12:04Z</time>
      </trkpt>
      <trkpt lat="41.0411510" lon="0.7350050">
        <ele>299.1</ele>
        <time>2020-08-08T09:12:06Z</time>
      </trkpt>
      <trkpt lat="41.0411310" lon="0.7349600">
        <ele>299.0</ele>
        <time>2020-08-08T09:12:42Z</time>
      </trkpt>
      <trkpt lat="41.0411270" lon="0.7349480">
        <ele>299.0</ele>
        <time>2020-08-08T09:12:43Z</time>
      </trkpt>
      <trkpt lat="41.0411300" lon="0.7349440">
        <ele>299.0</ele>
        <time>2020-08-08T09:12:45Z</time>
      </trkpt>
      <trkpt lat="41.0411330" lon="0.7349440">
        <ele>299.0</ele>
        <time>2020-08-08T09:12:46Z</time>
      </trkpt>
      <trkpt lat="41.0411350" lon="0.7349450">
        <ele>299.0</ele>
        <time>2020-08-08T09:12:48Z</time>
      </trkpt>
      <trkpt lat="41.0411350" lon="0.7349460">
        <ele>299.0</ele>
        <time>2020-08-08T09:12:50Z</time>
      </trkpt>
      <trkpt lat="41.0411350" lon="0.7349450">
        <ele>299.0</ele>
        <time>2020-08-08T09:12:51Z</time>
      </trkpt>
      <trkpt lat="41.0411330" lon="0.7349430">
        <ele>299.0</ele>
        <time>2020-08-08T09:12:52Z</time>
      </trkpt>
      <trkpt lat="41.0411300" lon="0.7349400">
        <ele>299.0</ele>
        <time>2020-08-08T09:12:53Z</time>
      </trkpt>
      <trkpt lat="41.0411190" lon="0.7349170">
        <ele>299.0</ele>
        <time>2020-08-08T09:13:54Z</time>
      </trkpt>
      <trkpt lat="41.0411120" lon="0.7348940">
        <ele>298.9</ele>
        <time>2020-08-08T09:13:56Z</time>
      </trkpt>
      <trkpt lat="41.0411090" lon="0.7348750">
        <ele>298.9</ele>
        <time>2020-08-08T09:13:57Z</time>
      </trkpt>
      <trkpt lat="41.0411010" lon="0.7348180">
        <ele>299.0</ele>
        <time>2020-08-08T09:13:59Z</time>
      </trkpt>
      <trkpt lat="41.0410920" lon="0.7347660">
        <ele>299.4</ele>
        <time>2020-08-08T09:14:00Z</time>
      </trkpt>
      <trkpt lat="41.0410880" lon="0.7347490">
        <ele>299.5</ele>
        <time>2020-08-08T09:14:01Z</time>
      </trkpt>
      <trkpt lat="41.0410780" lon="0.7347160">
        <ele>299.7</ele>
        <time>2020-08-08T09:14:02Z</time>
      </trkpt>
      <trkpt lat="41.0410520" lon="0.7346580">
        <ele>300.2</ele>
        <time>2020-08-08T09:14:04Z</time>
      </trkpt>
      <trkpt lat="41.0410320" lon="0.7346150">
        <ele>300.5</ele>
        <time>2020-08-08T09:14:06Z</time>
      </trkpt>
      <trkpt lat="41.0410260" lon="0.7345990">
        <ele>300.7</ele>
        <time>2020-08-08T09:14:07Z</time>
      </trkpt>
      <trkpt lat="41.0410190" lon="0.7345580">
        <ele>300.9</ele>
        <time>2020-08-08T09:14:09Z</time>
      </trkpt>
      <trkpt lat="41.0410060" lon="0.7345110">
        <ele>301.2</ele>
        <time>2020-08-08T09:14:11Z</time>
      </trkpt>
      <trkpt lat="41.0409960" lon="0.7344860">
        <ele>301.4</ele>
        <time>2020-08-08T09:14:12Z</time>
      </trkpt>
      <trkpt lat="41.0409740" lon="0.7344450">
        <ele>301.8</ele>
        <time>2020-08-08T09:14:14Z</time>
      </trkpt>
      <trkpt lat="41.0409550" lon="0.7343990">
        <ele>302.1</ele>
        <time>2020-08-08T09:14:16Z</time>
      </trkpt>
      <trkpt lat="41.0409530" lon="0.7343750">
        <ele>302.2</ele>
        <time>2020-08-08T09:14:17Z</time>
      </trkpt>
      <trkpt lat="41.0409510" lon="0.7343270">
        <ele>302.7</ele>
        <time>2020-08-08T09:14:19Z</time>
      </trkpt>
      <trkpt lat="41.0409490" lon="0.7342890">
        <ele>302.8</ele>
        <time>2020-08-08T09:14:20Z</time>
      </trkpt>
      <trkpt lat="41.0409480" lon="0.7342770">
        <ele>302.9</ele>
        <time>2020-08-08T09:14:21Z</time>
      </trkpt>
      <trkpt lat="41.0409470" lon="0.7342510">
        <ele>303.0</ele>
        <time>2020-08-08T09:14:22Z</time>
      </trkpt>
      <trkpt lat="41.0409500" lon="0.7342070">
        <ele>303.2</ele>
        <time>2020-08-08T09:14:24Z</time>
      </trkpt>
      <trkpt lat="41.0409510" lon="0.7341850">
        <ele>303.3</ele>
        <time>2020-08-08T09:14:25Z</time>
      </trkpt>
      <trkpt lat="41.0409480" lon="0.7341430">
        <ele>303.5</ele>
        <time>2020-08-08T09:14:27Z</time>
      </trkpt>
      <trkpt lat="41.0409420" lon="0.7340950">
        <ele>303.7</ele>
        <time>2020-08-08T09:14:29Z</time>
      </trkpt>
      <trkpt lat="41.0409410" lon="0.7340740">
        <ele>303.8</ele>
        <time>2020-08-08T09:14:30Z</time>
      </trkpt>
      <trkpt lat="41.0409460" lon="0.7340340">
        <ele>303.9</ele>
        <time>2020-08-08T09:14:32Z</time>
      </trkpt>
      <trkpt lat="41.0409510" lon="0.7340140">
        <ele>304.0</ele>
        <time>2020-08-08T09:14:33Z</time>
      </trkpt>
      <trkpt lat="41.0409550" lon="0.7339940">
        <ele>304.1</ele>
        <time>2020-08-08T09:14:34Z</time>
      </trkpt>
      <trkpt lat="41.0409580" lon="0.7339750">
        <ele>304.2</ele>
        <time>2020-08-08T09:14:35Z</time>
      </trkpt>
      <trkpt lat="41.0409630" lon="0.7339400">
        <ele>304.4</ele>
        <time>2020-08-08T09:14:37Z</time>
      </trkpt>
      <trkpt lat="41.0409680" lon="0.7339230">
        <ele>304.5</ele>
        <time>2020-08-08T09:14:38Z</time>
      </trkpt>
      <trkpt lat="41.0409780" lon="0.7338940">
        <ele>304.6</ele>
        <time>2020-08-08T09:14:40Z</time>
      </trkpt>
      <trkpt lat="41.0409830" lon="0.7338780">
        <ele>304.7</ele>
        <time>2020-08-08T09:14:41Z</time>
      </trkpt>
      <trkpt lat="41.0409870" lon="0.7338600">
        <ele>304.8</ele>
        <time>2020-08-08T09:14:42Z</time>
      </trkpt>
      <trkpt lat="41.0409960" lon="0.7338360">
        <ele>305.0</ele>
        <time>2020-08-08T09:14:44Z</time>
      </trkpt>
      <trkpt lat="41.0410040" lon="0.7338270">
        <ele>305.0</ele>
        <time>2020-08-08T09:14:45Z</time>
      </trkpt>
      <trkpt lat="41.0410150" lon="0.7338160">
        <ele>305.1</ele>
        <time>2020-08-08T09:14:46Z</time>
      </trkpt>
      <trkpt lat="41.0410350" lon="0.7337900">
        <ele>305.3</ele>
        <time>2020-08-08T09:14:48Z</time>
      </trkpt>
      <trkpt lat="41.0410440" lon="0.7337750">
        <ele>305.4</ele>
        <time>2020-08-08T09:14:49Z</time>
      </trkpt>
      <trkpt lat="41.0410550" lon="0.7337470">
        <ele>305.6</ele>
        <time>2020-08-08T09:14:51Z</time>
      </trkpt>
      <trkpt lat="41.0410580" lon="0.7337060">
        <ele>305.8</ele>
        <time>2020-08-08T09:14:52Z</time>
      </trkpt>
      <trkpt lat="41.0410580" lon="0.7336950">
        <ele>305.9</ele>
        <time>2020-08-08T09:14:53Z</time>
      </trkpt>
      <trkpt lat="41.0410600" lon="0.7336480">
        <ele>306.1</ele>
        <time>2020-08-08T09:14:55Z</time>
      </trkpt>
      <trkpt lat="41.0410590" lon="0.7336030">
        <ele>306.4</ele>
        <time>2020-08-08T09:14:57Z</time>
      </trkpt>
      <trkpt lat="41.0410570" lon="0.7335830">
        <ele>306.5</ele>
        <time>2020-08-08T09:14:58Z</time>
      </trkpt>
      <trkpt lat="41.0410510" lon="0.7335480">
        <ele>306.7</ele>
        <time>2020-08-08T09:15:00Z</time>
      </trkpt>
      <trkpt lat="41.0410500" lon="0.7335360">
        <ele>306.7</ele>
        <time>2020-08-08T09:15:01Z</time>
      </trkpt>
      <trkpt lat="41.0410520" lon="0.7335230">
        <ele>306.8</ele>
        <time>2020-08-08T09:15:02Z</time>
      </trkpt>
      <trkpt lat="41.0410570" lon="0.7335110">
        <ele>306.9</ele>
        <time>2020-08-08T09:15:03Z</time>
      </trkpt>
      <trkpt lat="41.0410670" lon="0.7334820">
        <ele>307.1</ele>
        <time>2020-08-08T09:15:05Z</time>
      </trkpt>
      <trkpt lat="41.0410710" lon="0.7334570">
        <ele>307.4</ele>
        <time>2020-08-08T09:15:07Z</time>
      </trkpt>
      <trkpt lat="41.0410760" lon="0.7334160">
        <ele>307.8</ele>
        <time>2020-08-08T09:15:08Z</time>
      </trkpt>
      <trkpt lat="41.0410760" lon="0.7334080">
        <ele>307.9</ele>
        <time>2020-08-08T09:15:09Z</time>
      </trkpt>
      <trkpt lat="41.0410780" lon="0.7333920">
        <ele>308.1</ele>
        <time>2020-08-08T09:15:10Z</time>
      </trkpt>
      <trkpt lat="41.0410810" lon="0.7333660">
        <ele>308.4</ele>
        <time>2020-08-08T09:15:12Z</time>
      </trkpt>
      <trkpt lat="41.0410860" lon="0.7333350">
        <ele>308.7</ele>
        <time>2020-08-08T09:15:13Z</time>
      </trkpt>
      <trkpt lat="41.0410880" lon="0.7333250">
        <ele>308.8</ele>
        <time>2020-08-08T09:15:14Z</time>
      </trkpt>
      <trkpt lat="41.0410970" lon="0.7333070">
        <ele>309.0</ele>
        <time>2020-08-08T09:15:16Z</time>
      </trkpt>
      <trkpt lat="41.0411010" lon="0.7332890">
        <ele>309.2</ele>
        <time>2020-08-08T09:15:17Z</time>
      </trkpt>
      <trkpt lat="41.0411010" lon="0.7332460">
        <ele>309.7</ele>
        <time>2020-08-08T09:15:19Z</time>
      </trkpt>
      <trkpt lat="41.0411030" lon="0.7332040">
        <ele>310.1</ele>
        <time>2020-08-08T09:15:21Z</time>
      </trkpt>
      <trkpt lat="41.0411070" lon="0.7331840">
        <ele>310.3</ele>
        <time>2020-08-08T09:15:22Z</time>
      </trkpt>
      <trkpt lat="41.0411150" lon="0.7331520">
        <ele>310.7</ele>
        <time>2020-08-08T09:15:24Z</time>
      </trkpt>
      <trkpt lat="41.0411220" lon="0.7331240">
        <ele>311.0</ele>
        <time>2020-08-08T09:15:26Z</time>
      </trkpt>
      <trkpt lat="41.0411270" lon="0.7331130">
        <ele>311.1</ele>
        <time>2020-08-08T09:15:27Z</time>
      </trkpt>
      <trkpt lat="41.0411400" lon="0.7330970">
        <ele>311.3</ele>
        <time>2020-08-08T09:15:28Z</time>
      </trkpt>
      <trkpt lat="41.0411490" lon="0.7330890">
        <ele>311.5</ele>
        <time>2020-08-08T09:15:30Z</time>
      </trkpt>
      <trkpt lat="41.0411570" lon="0.7330810">
        <ele>311.6</ele>
        <time>2020-08-08T09:15:31Z</time>
      </trkpt>
      <trkpt lat="41.0411650" lon="0.7330590">
        <ele>311.9</ele>
        <time>2020-08-08T09:15:32Z</time>
      </trkpt>
      <trkpt lat="41.0411680" lon="0.7330500">
        <ele>312.0</ele>
        <time>2020-08-08T09:15:33Z</time>
      </trkpt>
      <trkpt lat="41.0411700" lon="0.7330420">
        <ele>312.1</ele>
        <time>2020-08-08T09:15:34Z</time>
      </trkpt>
      <trkpt lat="41.0411730" lon="0.7330330">
        <ele>312.2</ele>
        <time>2020-08-08T09:15:35Z</time>
      </trkpt>
      <trkpt lat="41.0411820" lon="0.7330030">
        <ele>312.5</ele>
        <time>2020-08-08T09:15:37Z</time>
      </trkpt>
      <trkpt lat="41.0411790" lon="0.7329690">
        <ele>312.8</ele>
        <time>2020-08-08T09:15:39Z</time>
      </trkpt>
      <trkpt lat="41.0411720" lon="0.7329490">
        <ele>312.8</ele>
        <time>2020-08-08T09:15:41Z</time>
      </trkpt>
      <trkpt lat="41.0411640" lon="0.7329390">
        <ele>312.9</ele>
        <time>2020-08-08T09:15:42Z</time>
      </trkpt>
      <trkpt lat="41.0411560" lon="0.7329150">
        <ele>313.0</ele>
        <time>2020-08-08T09:15:43Z</time>
      </trkpt>
      <trkpt lat="41.0411540" lon="0.7329000">
        <ele>313.0</ele>
        <time>2020-08-08T09:15:45Z</time>
      </trkpt>
      <trkpt lat="41.0411520" lon="0.7328850">
        <ele>313.1</ele>
        <time>2020-08-08T09:15:46Z</time>
      </trkpt>
      <trkpt lat="41.0411670" lon="0.7328350">
        <ele>313.3</ele>
        <time>2020-08-08T09:15:48Z</time>
      </trkpt>
      <trkpt lat="41.0411720" lon="0.7328190">
        <ele>313.4</ele>
        <time>2020-08-08T09:15:50Z</time>
      </trkpt>
      <trkpt lat="41.0411780" lon="0.7328030">
        <ele>313.4</ele>
        <time>2020-08-08T09:15:51Z</time>
      </trkpt>
      <trkpt lat="41.0411890" lon="0.7327860">
        <ele>313.5</ele>
        <time>2020-08-08T09:15:52Z</time>
      </trkpt>
      <trkpt lat="41.0411960" lon="0.7327830">
        <ele>313.6</ele>
        <time>2020-08-08T09:15:53Z</time>
      </trkpt>
      <trkpt lat="41.0412030" lon="0.7327790">
        <ele>313.7</ele>
        <time>2020-08-08T09:15:55Z</time>
      </trkpt>
      <trkpt lat="41.0412110" lon="0.7327760">
        <ele>313.8</ele>
        <time>2020-08-08T09:15:56Z</time>
      </trkpt>
      <trkpt lat="41.0412180" lon="0.7327720">
        <ele>313.9</ele>
        <time>2020-08-08T09:15:57Z</time>
      </trkpt>
      <trkpt lat="41.0412250" lon="0.7327690">
        <ele>313.9</ele>
        <time>2020-08-08T09:15:58Z</time>
      </trkpt>
      <trkpt lat="41.0412320" lon="0.7327650">
        <ele>314.0</ele>
        <time>2020-08-08T09:15:59Z</time>
      </trkpt>
      <trkpt lat="41.0412270" lon="0.7327790">
        <ele>314.2</ele>
        <time>2020-08-08T09:16:00Z</time>
      </trkpt>
      <trkpt lat="41.0412210" lon="0.7327990">
        <ele>314.3</ele>
        <time>2020-08-08T09:16:02Z</time>
      </trkpt>
      <trkpt lat="41.0412140" lon="0.7328190">
        <ele>314.5</ele>
        <time>2020-08-08T09:16:03Z</time>
      </trkpt>
      <trkpt lat="41.0412080" lon="0.7328390">
        <ele>314.7</ele>
        <time>2020-08-08T09:16:05Z</time>
      </trkpt>
      <trkpt lat="41.0412010" lon="0.7328590">
        <ele>314.9</ele>
        <time>2020-08-08T09:16:06Z</time>
      </trkpt>
      <trkpt lat="41.0411950" lon="0.7328660">
        <ele>315.0</ele>
        <time>2020-08-08T09:16:07Z</time>
      </trkpt>
      <trkpt lat="41.0411970" lon="0.7328570">
        <ele>315.0</ele>
        <time>2020-08-08T09:16:09Z</time>
      </trkpt>
      <trkpt lat="41.0411990" lon="0.7328490">
        <ele>315.1</ele>
        <time>2020-08-08T09:16:11Z</time>
      </trkpt>
      <trkpt lat="41.0412010" lon="0.7328400">
        <ele>315.2</ele>
        <time>2020-08-08T09:16:12Z</time>
      </trkpt>
      <trkpt lat="41.0412030" lon="0.7328320">
        <ele>315.2</ele>
        <time>2020-08-08T09:16:14Z</time>
      </trkpt>
      <trkpt lat="41.0412050" lon="0.7328240">
        <ele>315.3</ele>
        <time>2020-08-08T09:16:15Z</time>
      </trkpt>
      <trkpt lat="41.0412070" lon="0.7328150">
        <ele>315.4</ele>
        <time>2020-08-08T09:16:16Z</time>
      </trkpt>
      <trkpt lat="41.0412090" lon="0.7328070">
        <ele>315.5</ele>
        <time>2020-08-08T09:16:18Z</time>
      </trkpt>
      <trkpt lat="41.0412110" lon="0.7327980">
        <ele>315.5</ele>
        <time>2020-08-08T09:16:22Z</time>
      </trkpt>
      <trkpt lat="41.0412130" lon="0.7327900">
        <ele>315.6</ele>
        <time>2020-08-08T09:16:24Z</time>
      </trkpt>
      <trkpt lat="41.0412150" lon="0.7327810">
        <ele>315.7</ele>
        <time>2020-08-08T09:16:26Z</time>
      </trkpt>
      <trkpt lat="41.0412170" lon="0.7327730">
        <ele>315.8</ele>
        <time>2020-08-08T09:16:27Z</time>
      </trkpt>
      <trkpt lat="41.0412440" lon="0.7327280">
        <ele>316.2</ele>
        <time>2020-08-08T09:16:29Z</time>
      </trkpt>
      <trkpt lat="41.0412470" lon="0.7327280">
        <ele>316.3</ele>
        <time>2020-08-08T09:16:31Z</time>
      </trkpt>
      <trkpt lat="41.0412480" lon="0.7327310">
        <ele>316.3</ele>
        <time>2020-08-08T09:16:33Z</time>
      </trkpt>
      <trkpt lat="41.0412500" lon="0.7327330">
        <ele>316.3</ele>
        <time>2020-08-08T09:16:35Z</time>
      </trkpt>
      <trkpt lat="41.0412520" lon="0.7327360">
        <ele>316.3</ele>
        <time>2020-08-08T09:16:37Z</time>
      </trkpt>
      <trkpt lat="41.0412530" lon="0.7327390">
        <ele>316.4</ele>
        <time>2020-08-08T09:16:38Z</time>
      </trkpt>
      <trkpt lat="41.0412550" lon="0.7327420">
        <ele>316.4</ele>
        <time>2020-08-08T09:16:39Z</time>
      </trkpt>
      <trkpt lat="41.0412560" lon="0.7327450">
        <ele>316.4</ele>
        <time>2020-08-08T09:16:40Z</time>
      </trkpt>
      <trkpt lat="41.0412580" lon="0.7327470">
        <ele>316.5</ele>
        <time>2020-08-08T09:16:41Z</time>
      </trkpt>
      <trkpt lat="41.0412600" lon="0.7327500">
        <ele>316.5</ele>
        <time>2020-08-08T09:17:18Z</time>
      </trkpt>
      <trkpt lat="41.0412610" lon="0.7327530">
        <ele>316.5</ele>
        <time>2020-08-08T09:17:19Z</time>
      </trkpt>
      <trkpt lat="41.0412630" lon="0.7327560">
        <ele>316.6</ele>
        <time>2020-08-08T09:17:20Z</time>
      </trkpt>
      <trkpt lat="41.0412650" lon="0.7327590">
        <ele>316.6</ele>
        <time>2020-08-08T09:17:21Z</time>
      </trkpt>
      <trkpt lat="41.0412660" lon="0.7327620">
        <ele>316.6</ele>
        <time>2020-08-08T09:17:23Z</time>
      </trkpt>
      <trkpt lat="41.0412680" lon="0.7327640">
        <ele>316.6</ele>
        <time>2020-08-08T09:17:24Z</time>
      </trkpt>
      <trkpt lat="41.0412690" lon="0.7327670">
        <ele>316.7</ele>
        <time>2020-08-08T09:17:25Z</time>
      </trkpt>
      <trkpt lat="41.0412710" lon="0.7327700">
        <ele>316.7</ele>
        <time>2020-08-08T09:17:26Z</time>
      </trkpt>
      <trkpt lat="41.0412840" lon="0.7327710">
        <ele>319.1</ele>
        <time>2020-08-08T09:17:27Z</time>
      </trkpt>
      <trkpt lat="41.0412940" lon="0.7327690">
        <ele>319.0</ele>
        <time>2020-08-08T09:17:29Z</time>
      </trkpt>
      <trkpt lat="41.0412970" lon="0.7327650">
        <ele>319.0</ele>
        <time>2020-08-08T09:17:31Z</time>
      </trkpt>
      <trkpt lat="41.0412980" lon="0.7327640">
        <ele>319.0</ele>
        <time>2020-08-08T09:17:32Z</time>
      </trkpt>
      <trkpt lat="41.0413080" lon="0.7327620">
        <ele>319.0</ele>
        <time>2020-08-08T09:17:34Z</time>
      </trkpt>
      <trkpt lat="41.0413160" lon="0.7327590">
        <ele>319.0</ele>
        <time>2020-08-08T09:17:35Z</time>
      </trkpt>
      <trkpt lat="41.0413270" lon="0.7327610">
        <ele>319.0</ele>
        <time>2020-08-08T09:17:36Z</time>
      </trkpt>
      <trkpt lat="41.0413370" lon="0.7327700">
        <ele>319.0</ele>
        <time>2020-08-08T09:17:38Z</time>
      </trkpt>
      <trkpt lat="41.0413400" lon="0.7327760">
        <ele>319.0</ele>
        <time>2020-08-08T09:17:39Z</time>
      </trkpt>
      <trkpt lat="41.0413450" lon="0.7327810">
        <ele>319.0</ele>
        <time>2020-08-08T09:17:40Z</time>
      </trkpt>
      <trkpt lat="41.0413610" lon="0.7327920">
        <ele>318.9</ele>
        <time>2020-08-08T09:17:42Z</time>
      </trkpt>
      <trkpt lat="41.0413730" lon="0.7328030">
        <ele>318.9</ele>
        <time>2020-08-08T09:17:43Z</time>
      </trkpt>
      <trkpt lat="41.0413800" lon="0.7328110">
        <ele>318.9</ele>
        <time>2020-08-08T09:17:44Z</time>
      </trkpt>
      <trkpt lat="41.0413900" lon="0.7328200">
        <ele>318.9</ele>
        <time>2020-08-08T09:17:45Z</time>
      </trkpt>
      <trkpt lat="41.0413960" lon="0.7328240">
        <ele>318.9</ele>
        <time>2020-08-08T09:17:46Z</time>
      </trkpt>
      <trkpt lat="41.0413990" lon="0.7328270">
        <ele>318.9</ele>
        <time>2020-08-08T09:17:47Z</time>
      </trkpt>
      <trkpt lat="41.0414120" lon="0.7328380">
        <ele>318.8</ele>
        <time>2020-08-08T09:17:49Z</time>
      </trkpt>
      <trkpt lat="41.0414160" lon="0.7328410">
        <ele>318.8</ele>
        <time>2020-08-08T09:17:50Z</time>
      </trkpt>
      <trkpt lat="41.0414740" lon="0.7328690">
        <ele>318.7</ele>
        <time>2020-08-08T09:17:52Z</time>
      </trkpt>
      <trkpt lat="41.0415400" lon="0.7328750">
        <ele>318.6</ele>
        <time>2020-08-08T09:18:07Z</time>
      </trkpt>
      <trkpt lat="41.0415350" lon="0.7328690">
        <ele>318.5</ele>
        <time>2020-08-08T09:18:08Z</time>
      </trkpt>
      <trkpt lat="41.0415330" lon="0.7328660">
        <ele>318.5</ele>
        <time>2020-08-08T09:18:11Z</time>
      </trkpt>
      <trkpt lat="41.0415360" lon="0.7328690">
        <ele>318.5</ele>
        <time>2020-08-08T09:18:12Z</time>
      </trkpt>
      <trkpt lat="41.0415380" lon="0.7328720">
        <ele>318.5</ele>
        <time>2020-08-08T09:18:13Z</time>
      </trkpt>
      <trkpt lat="41.0415380" lon="0.7328720">
        <ele>318.5</ele>
        <time>2020-08-08T09:18:15Z</time>
      </trkpt>
      <trkpt lat="41.0415460" lon="0.7328720">
        <ele>318.5</ele>
        <time>2020-08-08T09:18:17Z</time>
      </trkpt>
      <trkpt lat="41.0415560" lon="0.7328710">
        <ele>318.5</ele>
        <time>2020-08-08T09:18:18Z</time>
      </trkpt>
      <trkpt lat="41.0415820" lon="0.7328710">
        <ele>318.4</ele>
        <time>2020-08-08T09:18:20Z</time>
      </trkpt>
      <trkpt lat="41.0415980" lon="0.7328740">
        <ele>318.4</ele>
        <time>2020-08-08T09:18:22Z</time>
      </trkpt>
      <trkpt lat="41.0416160" lon="0.7328860">
        <ele>318.4</ele>
        <time>2020-08-08T09:18:23Z</time>
      </trkpt>
      <trkpt lat="41.0416280" lon="0.7329020">
        <ele>318.3</ele>
        <time>2020-08-08T09:18:24Z</time>
      </trkpt>
      <trkpt lat="41.0416370" lon="0.7329100">
        <ele>318.3</ele>
        <time>2020-08-08T09:18:25Z</time>
      </trkpt>
      <trkpt lat="41.0416400" lon="0.7329100">
        <ele>318.3</ele>
        <time>2020-08-08T09:18:26Z</time>
      </trkpt>
      <trkpt lat="41.0416480" lon="0.7329080">
        <ele>318.3</ele>
        <time>2020-08-08T09:18:27Z</time>
      </trkpt>
      <trkpt lat="41.0416570" lon="0.7329070">
        <ele>318.3</ele>
        <time>2020-08-08T09:18:28Z</time>
      </trkpt>
      <trkpt lat="41.0416640" lon="0.7329040">
        <ele>318.3</ele>
        <time>2020-08-08T09:18:30Z</time>
      </trkpt>
      <trkpt lat="41.0416700" lon="0.7328990">
        <ele>318.3</ele>
        <time>2020-08-08T09:18:31Z</time>
      </trkpt>
      <trkpt lat="41.0416770" lon="0.7328860">
        <ele>318.3</ele>
        <time>2020-08-08T09:18:32Z</time>
      </trkpt>
      <trkpt lat="41.0416820" lon="0.7328740">
        <ele>318.3</ele>
        <time>2020-08-08T09:18:33Z</time>
      </trkpt>
      <trkpt lat="41.0416930" lon="0.7328540">
        <ele>318.3</ele>
        <time>2020-08-08T09:18:35Z</time>
      </trkpt>
      <trkpt lat="41.0416990" lon="0.7328540">
        <ele>318.3</ele>
        <time>2020-08-08T09:18:36Z</time>
      </trkpt>
      <trkpt lat="41.0417190" lon="0.7328440">
        <ele>318.3</ele>
        <time>2020-08-08T09:18:37Z</time>
      </trkpt>
      <trkpt lat="41.0417380" lon="0.7328290">
        <ele>318.4</ele>
        <time>2020-08-08T09:18:38Z</time>
      </trkpt>
      <trkpt lat="41.0417580" lon="0.7328230">
        <ele>318.4</ele>
        <time>2020-08-08T09:18:40Z</time>
      </trkpt>
      <trkpt lat="41.0417740" lon="0.7328110">
        <ele>318.4</ele>
        <time>2020-08-08T09:18:42Z</time>
      </trkpt>
      <trkpt lat="41.0417780" lon="0.7328070">
        <ele>318.4</ele>
        <time>2020-08-08T09:18:43Z</time>
      </trkpt>
      <trkpt lat="41.0417790" lon="0.7328040">
        <ele>318.4</ele>
        <time>2020-08-08T09:18:44Z</time>
      </trkpt>
      <trkpt lat="41.0417800" lon="0.7328020">
        <ele>318.4</ele>
        <time>2020-08-08T09:18:45Z</time>
      </trkpt>
      <trkpt lat="41.0417880" lon="0.7327890">
        <ele>318.4</ele>
        <time>2020-08-08T09:18:47Z</time>
      </trkpt>
      <trkpt lat="41.0417920" lon="0.7327830">
        <ele>318.5</ele>
        <time>2020-08-08T09:18:51Z</time>
      </trkpt>
      <trkpt lat="41.0417960" lon="0.7327780">
        <ele>318.5</ele>
        <time>2020-08-08T09:18:53Z</time>
      </trkpt>
      <trkpt lat="41.0418000" lon="0.7327720">
        <ele>318.5</ele>
        <time>2020-08-08T09:18:53Z</time>
      </trkpt>
      <trkpt lat="41.0418010" lon="0.7327700">
        <ele>318.5</ele>
        <time>2020-08-08T09:18:54Z</time>
      </trkpt>
      <trkpt lat="41.0418010" lon="0.7327700">
        <ele>318.5</ele>
        <time>2020-08-08T09:18:55Z</time>
      </trkpt>
      <trkpt lat="41.0418030" lon="0.7327740">
        <ele>318.5</ele>
        <time>2020-08-08T09:18:57Z</time>
      </trkpt>
      <trkpt lat="41.0418070" lon="0.7327750">
        <ele>318.5</ele>
        <time>2020-08-08T09:19:00Z</time>
      </trkpt>
      <trkpt lat="41.0418150" lon="0.7327780">
        <ele>318.5</ele>
        <time>2020-08-08T09:19:01Z</time>
      </trkpt>
      <trkpt lat="41.0418230" lon="0.7327860">
        <ele>318.5</ele>
        <time>2020-08-08T09:19:03Z</time>
      </trkpt>
      <trkpt lat="41.0418300" lon="0.7327920">
        <ele>318.4</ele>
        <time>2020-08-08T09:19:04Z</time>
      </trkpt>
      <trkpt lat="41.0418340" lon="0.7327990">
        <ele>318.4</ele>
        <time>2020-08-08T09:19:05Z</time>
      </trkpt>
      <trkpt lat="41.0418320" lon="0.7328060">
        <ele>318.4</ele>
        <time>2020-08-08T09:19:06Z</time>
      </trkpt>
      <trkpt lat="41.0418310" lon="0.7328160">
        <ele>318.4</ele>
        <time>2020-08-08T09:19:07Z</time>
      </trkpt>
      <trkpt lat="41.0418340" lon="0.7328270">
        <ele>318.4</ele>
        <time>2020-08-08T09:19:09Z</time>
      </trkpt>
      <trkpt lat="41.0418420" lon="0.7328280">
        <ele>318.4</ele>
        <time>2020-08-08T09:19:11Z</time>
      </trkpt>
      <trkpt lat="41.0418450" lon="0.7328090">
        <ele>318.4</ele>
        <time>2020-08-08T09:19:12Z</time>
      </trkpt>
      <trkpt lat="41.0418450" lon="0.7328040">
        <ele>318.4</ele>
        <time>2020-08-08T09:19:13Z</time>
      </trkpt>
      <trkpt lat="41.0418450" lon="0.7328020">
        <ele>318.4</ele>
        <time>2020-08-08T09:19:14Z</time>
      </trkpt>
      <trkpt lat="41.0418440" lon="0.7328030">
        <ele>318.4</ele>
        <time>2020-08-08T09:19:15Z</time>
      </trkpt>
      <trkpt lat="41.0418450" lon="0.7328020">
        <ele>318.4</ele>
        <time>2020-08-08T09:19:18Z</time>
      </trkpt>
      <trkpt lat="41.0418440" lon="0.7328000">
        <ele>318.4</ele>
        <time>2020-08-08T09:19:19Z</time>
      </trkpt>
      <trkpt lat="41.0418440" lon="0.7328000">
        <ele>318.4</ele>
        <time>2020-08-08T09:19:20Z</time>
      </trkpt>
      <trkpt lat="41.0418440" lon="0.7327890">
        <ele>318.4</ele>
        <time>2020-08-08T09:19:22Z</time>
      </trkpt>
      <trkpt lat="41.0418450" lon="0.7327770">
        <ele>318.4</ele>
        <time>2020-08-08T09:19:24Z</time>
      </trkpt>
      <trkpt lat="41.0418170" lon="0.7327570">
        <ele>318.4</ele>
        <time>2020-08-08T09:19:30Z</time>
      </trkpt>
      <trkpt lat="41.0417810" lon="0.7327420">
        <ele>318.4</ele>
        <time>2020-08-08T09:19:32Z</time>
      </trkpt>
      <trkpt lat="41.0417760" lon="0.7327410">
        <ele>318.4</ele>
        <time>2020-08-08T09:19:34Z</time>
      </trkpt>
      <trkpt lat="41.0417770" lon="0.7327410">
        <ele>318.4</ele>
        <time>2020-08-08T09:19:35Z</time>
      </trkpt>
      <trkpt lat="41.0417820" lon="0.7327440">
        <ele>318.4</ele>
        <time>2020-08-08T09:19:37Z</time>
      </trkpt>
      <trkpt lat="41.0417850" lon="0.7327450">
        <ele>318.4</ele>
        <time>2020-08-08T09:19:39Z</time>
      </trkpt>
      <trkpt lat="41.0417850" lon="0.7327450">
        <ele>318.4</ele>
        <time>2020-08-08T09:19:40Z</time>
      </trkpt>
      <trkpt lat="41.0417860" lon="0.7327460">
        <ele>318.4</ele>
        <time>2020-08-08T09:19:41Z</time>
      </trkpt>
      <trkpt lat="41.0417870" lon="0.7327460">
        <ele>318.4</ele>
        <time>2020-08-08T09:19:43Z</time>
      </trkpt>
      <trkpt lat="41.0417870" lon="0.7327460">
        <ele>318.4</ele>
        <time>2020-08-08T09:19:44Z</time>
      </trkpt>
      <trkpt lat="41.0417870" lon="0.7327460">
        <ele>318.4</ele>
        <time>2020-08-08T09:19:45Z</time>
      </trkpt>
      <trkpt lat="41.0418400" lon="0.7327590">
        <ele>318.4</ele>
        <time>2020-08-08T09:19:58Z</time>
      </trkpt>
      <trkpt lat="41.0418570" lon="0.7327630">
        <ele>318.4</ele>
        <time>2020-08-08T09:19:59Z</time>
      </trkpt>
      <trkpt lat="41.0418680" lon="0.7327660">
        <ele>318.4</ele>
        <time>2020-08-08T09:20:00Z</time>
      </trkpt>
      <trkpt lat="41.0418730" lon="0.7327650">
        <ele>318.4</ele>
        <time>2020-08-08T09:20:02Z</time>
      </trkpt>
      <trkpt lat="41.0418730" lon="0.7327630">
        <ele>318.4</ele>
        <time>2020-08-08T09:20:03Z</time>
      </trkpt>
      <trkpt lat="41.0418730" lon="0.7327610">
        <ele>318.4</ele>
        <time>2020-08-08T09:20:05Z</time>
      </trkpt>
      <trkpt lat="41.0418730" lon="0.7327590">
        <ele>318.4</ele>
        <time>2020-08-08T09:20:06Z</time>
      </trkpt>
      <trkpt lat="41.0418730" lon="0.7327580">
        <ele>318.4</ele>
        <time>2020-08-08T09:20:08Z</time>
      </trkpt>
      <trkpt lat="41.0418730" lon="0.7327560">
        <ele>318.4</ele>
        <time>2020-08-08T09:20:10Z</time>
      </trkpt>
      <trkpt lat="41.0418730" lon="0.7327540">
        <ele>318.4</ele>
        <time>2020-08-08T09:20:11Z</time>
      </trkpt>
      <trkpt lat="41.0418730" lon="0.7327520">
        <ele>318.4</ele>
        <time>2020-08-08T09:20:12Z</time>
      </trkpt>
      <trkpt lat="41.0418730" lon="0.7327500">
        <ele>318.4</ele>
        <time>2020-08-08T09:20:13Z</time>
      </trkpt>
      <trkpt lat="41.0418740" lon="0.7327480">
        <ele>318.4</ele>
        <time>2020-08-08T09:20:17Z</time>
      </trkpt>
      <trkpt lat="41.0418740" lon="0.7327460">
        <ele>318.4</ele>
        <time>2020-08-08T09:20:18Z</time>
      </trkpt>
      <trkpt lat="41.0418740" lon="0.7327440">
        <ele>318.4</ele>
        <time>2020-08-08T09:20:19Z</time>
      </trkpt>
      <trkpt lat="41.0418740" lon="0.7327420">
        <ele>318.4</ele>
        <time>2020-08-08T09:20:20Z</time>
      </trkpt>
      <trkpt lat="41.0418740" lon="0.7327400">
        <ele>318.4</ele>
        <time>2020-08-08T09:20:21Z</time>
      </trkpt>
      <trkpt lat="41.0418740" lon="0.7327390">
        <ele>318.4</ele>
        <time>2020-08-08T09:20:23Z</time>
      </trkpt>
      <trkpt lat="41.0418740" lon="0.7327370">
        <ele>318.4</ele>
        <time>2020-08-08T09:20:24Z</time>
      </trkpt>
      <trkpt lat="41.0418740" lon="0.7327350">
        <ele>318.4</ele>
        <time>2020-08-08T09:20:26Z</time>
      </trkpt>
      <trkpt lat="41.0418740" lon="0.7327330">
        <ele>318.4</ele>
        <time>2020-08-08T09:20:31Z</time>
      </trkpt>
      <trkpt lat="41.0418740" lon="0.7327310">
        <ele>318.4</ele>
        <time>2020-08-08T09:20:32Z</time>
      </trkpt>
      <trkpt lat="41.0418840" lon="0.7327530">
        <ele>318.4</ele>
        <time>2020-08-08T09:20:34Z</time>
      </trkpt>
      <trkpt lat="41.0418970" lon="0.7327750">
        <ele>318.4</ele>
        <time>2020-08-08T09:20:36Z</time>
      </trkpt>
      <trkpt lat="41.0419030" lon="0.7327810">
        <ele>318.4</ele>
        <time>2020-08-08T09:20:38Z</time>
      </trkpt>
      <trkpt lat="41.0419050" lon="0.7327820">
        <ele>318.4</ele>
        <time>2020-08-08T09:20:39Z</time>
      </trkpt>
      <trkpt lat="41.0419100" lon="0.7327770">
        <ele>318.4</ele>
        <time>2020-08-08T09:20:41Z</time>
      </trkpt>
      <trkpt lat="41.0419100" lon="0.7327750">
        <ele>318.4</ele>
        <time>2020-08-08T09:20:42Z</time>
      </trkpt>
      <trkpt lat="41.0419120" lon="0.7327730">
        <ele>318.4</ele>
        <time>2020-08-08T09:20:43Z</time>
      </trkpt>
      <trkpt lat="41.0419170" lon="0.7327720">
        <ele>318.4</ele>
        <time>2020-08-08T09:20:45Z</time>
      </trkpt>
      <trkpt lat="41.0419230" lon="0.7327740">
        <ele>318.4</ele>
        <time>2020-08-08T09:20:48Z</time>
      </trkpt>
      <trkpt lat="41.0419270" lon="0.7327750">
        <ele>318.4</ele>
        <time>2020-08-08T09:20:49Z</time>
      </trkpt>
      <trkpt lat="41.0420480" lon="0.7328770">
        <ele>317.6</ele>
        <time>2020-08-08T09:21:00Z</time>
      </trkpt>
      <trkpt lat="41.0420560" lon="0.7328860">
        <ele>317.6</ele>
        <time>2020-08-08T09:21:01Z</time>
      </trkpt>
      <trkpt lat="41.0420600" lon="0.7328890">
        <ele>317.6</ele>
        <time>2020-08-08T09:21:02Z</time>
      </trkpt>
      <trkpt lat="41.0420590" lon="0.7328860">
        <ele>317.6</ele>
        <time>2020-08-08T09:21:04Z</time>
      </trkpt>
      <trkpt lat="41.0420570" lon="0.7328820">
        <ele>317.6</ele>
        <time>2020-08-08T09:21:05Z</time>
      </trkpt>
      <trkpt lat="41.0420560" lon="0.7328810">
        <ele>317.6</ele>
        <time>2020-08-08T09:21:06Z</time>
      </trkpt>
      <trkpt lat="41.0420550" lon="0.7328800">
        <ele>317.6</ele>
        <time>2020-08-08T09:21:07Z</time>
      </trkpt>
      <trkpt lat="41.0420400" lon="0.7328390">
        <ele>317.6</ele>
        <time>2020-08-08T09:21:09Z</time>
      </trkpt>
      <trkpt lat="41.0420340" lon="0.7328210">
        <ele>317.6</ele>
        <time>2020-08-08T09:21:10Z</time>
      </trkpt>
      <trkpt lat="41.0420260" lon="0.7328040">
        <ele>317.6</ele>
        <time>2020-08-08T09:21:12Z</time>
      </trkpt>
      <trkpt lat="41.0420360" lon="0.7328070">
        <ele>317.6</ele>
        <time>2020-08-08T09:21:13Z</time>
      </trkpt>
      <trkpt lat="41.0420460" lon="0.7328110">
        <ele>317.6</ele>
        <time>2020-08-08T09:21:14Z</time>
      </trkpt>
      <trkpt lat="41.0420510" lon="0.7328170">
        <ele>317.6</ele>
        <time>2020-08-08T09:21:16Z</time>
      </trkpt>
      <trkpt lat="41.0420520" lon="0.7328180">
        <ele>317.6</ele>
        <time>2020-08-08T09:21:17Z</time>
      </trkpt>
      <trkpt lat="41.0420530" lon="0.7328200">
        <ele>317.6</ele>
        <time>2020-08-08T09:21:18Z</time>
      </trkpt>
      <trkpt lat="41.0420530" lon="0.7328210">
        <ele>317.6</ele>
        <time>2020-08-08T09:21:19Z</time>
      </trkpt>
      <trkpt lat="41.0420540" lon="0.7328210">
        <ele>317.6</ele>
        <time>2020-08-08T09:21:20Z</time>
      </trkpt>
      <trkpt lat="41.0420540" lon="0.7328210">
        <ele>317.6</ele>
        <time>2020-08-08T09:21:21Z</time>
      </trkpt>
      <trkpt lat="41.0420550" lon="0.7328210">
        <ele>317.6</ele>
        <time>2020-08-08T09:21:23Z</time>
      </trkpt>
      <trkpt lat="41.0420550" lon="0.7328210">
        <ele>317.6</ele>
        <time>2020-08-08T09:21:24Z</time>
      </trkpt>
      <trkpt lat="41.0420580" lon="0.7328680">
        <ele>317.6</ele>
        <time>2020-08-08T09:21:33Z</time>
      </trkpt>
      <trkpt lat="41.0420540" lon="0.7328790">
        <ele>317.6</ele>
        <time>2020-08-08T09:21:34Z</time>
      </trkpt>
      <trkpt lat="41.0420530" lon="0.7328820">
        <ele>317.6</ele>
        <time>2020-08-08T09:21:35Z</time>
      </trkpt>
      <trkpt lat="41.0420530" lon="0.7328790">
        <ele>317.6</ele>
        <time>2020-08-08T09:21:37Z</time>
      </trkpt>
      <trkpt lat="41.0420540" lon="0.7328770">
        <ele>317.6</ele>
        <time>2020-08-08T09:21:38Z</time>
      </trkpt>
      <trkpt lat="41.0420540" lon="0.7328760">
        <ele>317.6</ele>
        <time>2020-08-08T09:21:39Z</time>
      </trkpt>
      <trkpt lat="41.0420540" lon="0.7328750">
        <ele>317.6</ele>
        <time>2020-08-08T09:21:40Z</time>
      </trkpt>
      <trkpt lat="41.0420540" lon="0.7328740">
        <ele>317.6</ele>
        <time>2020-08-08T09:21:41Z</time>
      </trkpt>
      <trkpt lat="41.0420550" lon="0.7328740">
        <ele>317.6</ele>
        <time>2020-08-08T09:21:43Z</time>
      </trkpt>
      <trkpt lat="41.0420550" lon="0.7328740">
        <ele>317.6</ele>
        <time>2020-08-08T09:21:44Z</time>
      </trkpt>
      <trkpt lat="41.0420550" lon="0.7328740">
        <ele>317.6</ele>
        <time>2020-08-08T09:21:45Z</time>
      </trkpt>
      <trkpt lat="41.0420770" lon="0.7329110">
        <ele>317.5</ele>
        <time>2020-08-08T09:22:09Z</time>
      </trkpt>
      <trkpt lat="41.0421030" lon="0.7329470">
        <ele>317.4</ele>
        <time>2020-08-08T09:22:11Z</time>
      </trkpt>
      <trkpt lat="41.0421240" lon="0.7329390">
        <ele>317.4</ele>
        <time>2020-08-08T09:22:13Z</time>
      </trkpt>
      <trkpt lat="41.0421350" lon="0.7329360">
        <ele>317.4</ele>
        <time>2020-08-08T09:22:14Z</time>
      </trkpt>
      <trkpt lat="41.0421430" lon="0.7329390">
        <ele>317.1</ele>
        <time>2020-08-08T09:22:15Z</time>
      </trkpt>
      <trkpt lat="41.0421440" lon="0.7329470">
        <ele>317.0</ele>
        <time>2020-08-08T09:22:16Z</time>
      </trkpt>
      <trkpt lat="41.0421440" lon="0.7329550">
        <ele>316.9</ele>
        <time>2020-08-08T09:22:17Z</time>
      </trkpt>
      <trkpt lat="41.0421450" lon="0.7329630">
        <ele>316.8</ele>
        <time>2020-08-08T09:22:19Z</time>
      </trkpt>
      <trkpt lat="41.0421450" lon="0.7329710">
        <ele>316.6</ele>
        <time>2020-08-08T09:22:20Z</time>
      </trkpt>
      <trkpt lat="41.0421450" lon="0.7329800">
        <ele>316.5</ele>
        <time>2020-08-08T09:22:22Z</time>
      </trkpt>
      <trkpt lat="41.0421460" lon="0.7329880">
        <ele>316.4</ele>
        <time>2020-08-08T09:22:23Z</time>
      </trkpt>
      <trkpt lat="41.0421460" lon="0.7329960">
        <ele>316.2</ele>
        <time>2020-08-08T09:22:25Z</time>
      </trkpt>
      <trkpt lat="41.0421470" lon="0.7330040">
        <ele>316.1</ele>
        <time>2020-08-08T09:22:27Z</time>
      </trkpt>
      <trkpt lat="41.0421470" lon="0.7330120">
        <ele>316.0</ele>
        <time>2020-08-08T09:22:28Z</time>
      </trkpt>
      <trkpt lat="41.0421360" lon="0.7330190">
        <ele>315.7</ele>
        <time>2020-08-08T09:22:29Z</time>
      </trkpt>
      <trkpt lat="41.0421330" lon="0.7330380">
        <ele>315.4</ele>
        <time>2020-08-08T09:22:31Z</time>
      </trkpt>
      <trkpt lat="41.0421370" lon="0.7330530">
        <ele>315.1</ele>
        <time>2020-08-08T09:22:33Z</time>
      </trkpt>
      <trkpt lat="41.0421390" lon="0.7330570">
        <ele>315.1</ele>
        <time>2020-08-08T09:22:34Z</time>
      </trkpt>
      <trkpt lat="41.0421380" lon="0.7330750">
        <ele>314.8</ele>
        <time>2020-08-08T09:22:35Z</time>
      </trkpt>
      <trkpt lat="41.0421310" lon="0.7331120">
        <ele>314.1</ele>
        <time>2020-08-08T09:22:37Z</time>
      </trkpt>
      <trkpt lat="41.0421330" lon="0.7331390">
        <ele>313.7</ele>
        <time>2020-08-08T09:22:39Z</time>
      </trkpt>
      <trkpt lat="41.0421350" lon="0.7331520">
        <ele>313.4</ele>
        <time>2020-08-08T09:22:40Z</time>
      </trkpt>
      <trkpt lat="41.0421370" lon="0.7331650">
        <ele>313.2</ele>
        <time>2020-08-08T09:22:41Z</time>
      </trkpt>
      <trkpt lat="41.0421390" lon="0.7331780">
        <ele>312.6</ele>
        <time>2020-08-08T09:22:43Z</time>
      </trkpt>
      <trkpt lat="41.0421400" lon="0.7331920">
        <ele>312.6</ele>
        <time>2020-08-08T09:22:46Z</time>
      </trkpt>
      <trkpt lat="41.0421420" lon="0.7332050">
        <ele>312.6</ele>
        <time>2020-08-08T09:22:48Z</time>
      </trkpt>
      <trkpt lat="41.0421440" lon="0.7332180">
        <ele>312.6</ele>
        <time>2020-08-08T09:22:55Z</time>
      </trkpt>
      <trkpt lat="41.0421460" lon="0.7332310">
        <ele>312.6</ele>
        <time>2020-08-08T09:22:57Z</time>
      </trkpt>
      <trkpt lat="41.0421480" lon="0.7332440">
        <ele>312.6</ele>
        <time>2020-08-08T09:22:58Z</time>
      </trkpt>
      <trkpt lat="41.0421580" lon="0.7332380">
        <ele>312.6</ele>
        <time>2020-08-08T09:22:59Z</time>
      </trkpt>
      <trkpt lat="41.0421610" lon="0.7332310">
        <ele>312.6</ele>
        <time>2020-08-08T09:23:01Z</time>
      </trkpt>
      <trkpt lat="41.0421570" lon="0.7332170">
        <ele>312.6</ele>
        <time>2020-08-08T09:23:03Z</time>
      </trkpt>
      <trkpt lat="41.0421580" lon="0.7332050">
        <ele>312.6</ele>
        <time>2020-08-08T09:23:04Z</time>
      </trkpt>
      <trkpt lat="41.0421680" lon="0.7331880">
        <ele>312.6</ele>
        <time>2020-08-08T09:23:06Z</time>
      </trkpt>
      <trkpt lat="41.0421820" lon="0.7331830">
        <ele>312.6</ele>
        <time>2020-08-08T09:23:07Z</time>
      </trkpt>
      <trkpt lat="41.0421950" lon="0.7331770">
        <ele>312.6</ele>
        <time>2020-08-08T09:23:08Z</time>
      </trkpt>
      <trkpt lat="41.0422090" lon="0.7331680">
        <ele>312.6</ele>
        <time>2020-08-08T09:23:09Z</time>
      </trkpt>
      <trkpt lat="41.0422320" lon="0.7331380">
        <ele>311.7</ele>
        <time>2020-08-08T09:23:11Z</time>
      </trkpt>
      <trkpt lat="41.0422380" lon="0.7331220">
        <ele>311.6</ele>
        <time>2020-08-08T09:23:12Z</time>
      </trkpt>
      <trkpt lat="41.0422470" lon="0.7331100">
        <ele>311.6</ele>
        <time>2020-08-08T09:23:14Z</time>
      </trkpt>
      <trkpt lat="41.0422550" lon="0.7331040">
        <ele>311.5</ele>
        <time>2020-08-08T09:23:15Z</time>
      </trkpt>
      <trkpt lat="41.0422640" lon="0.7330980">
        <ele>311.5</ele>
        <time>2020-08-08T09:23:16Z</time>
      </trkpt>
      <trkpt lat="41.0422770" lon="0.7330910">
        <ele>311.5</ele>
        <time>2020-08-08T09:23:17Z</time>
      </trkpt>
      <trkpt lat="41.0422880" lon="0.7330870">
        <ele>311.4</ele>
        <time>2020-08-08T09:23:18Z</time>
      </trkpt>
      <trkpt lat="41.0423230" lon="0.7330660">
        <ele>311.2</ele>
        <time>2020-08-08T09:23:20Z</time>
      </trkpt>
      <trkpt lat="41.0423340" lon="0.7330590">
        <ele>311.3</ele>
        <time>2020-08-08T09:23:21Z</time>
      </trkpt>
      <trkpt lat="41.0423560" lon="0.7330250">
        <ele>311.6</ele>
        <time>2020-08-08T09:23:23Z</time>
      </trkpt>
      <trkpt lat="41.0423590" lon="0.7330150">
        <ele>311.7</ele>
        <time>2020-08-08T09:23:24Z</time>
      </trkpt>
      <trkpt lat="41.0423650" lon="0.7329720">
        <ele>312.0</ele>
        <time>2020-08-08T09:23:25Z</time>
      </trkpt>
      <trkpt lat="41.0423650" lon="0.7329580">
        <ele>312.1</ele>
        <time>2020-08-08T09:23:26Z</time>
      </trkpt>
      <trkpt lat="41.0423660" lon="0.7329300">
        <ele>313.4</ele>
        <time>2020-08-08T09:23:28Z</time>
      </trkpt>
      <trkpt lat="41.0423690" lon="0.7329110">
        <ele>313.6</ele>
        <time>2020-08-08T09:23:29Z</time>
      </trkpt>
      <trkpt lat="41.0423660" lon="0.7328890">
        <ele>313.9</ele>
        <time>2020-08-08T09:23:30Z</time>
      </trkpt>
      <trkpt lat="41.0423740" lon="0.7328640">
        <ele>314.2</ele>
        <time>2020-08-08T09:23:32Z</time>
      </trkpt>
      <trkpt lat="41.0423830" lon="0.7328520">
        <ele>314.4</ele>
        <time>2020-08-08T09:23:33Z</time>
      </trkpt>
      <trkpt lat="41.0423970" lon="0.7328400">
        <ele>314.6</ele>
        <time>2020-08-08T09:23:35Z</time>
      </trkpt>
      <trkpt lat="41.0424100" lon="0.7328280">
        <ele>314.5</ele>
        <time>2020-08-08T09:23:36Z</time>
      </trkpt>
      <trkpt lat="41.0424200" lon="0.7328150">
        <ele>314.4</ele>
        <time>2020-08-08T09:23:38Z</time>
      </trkpt>
      <trkpt lat="41.0424380" lon="0.7328030">
        <ele>314.3</ele>
        <time>2020-08-08T09:23:40Z</time>
      </trkpt>
      <trkpt lat="41.0424380" lon="0.7327950">
        <ele>314.2</ele>
        <time>2020-08-08T09:23:42Z</time>
      </trkpt>
      <trkpt lat="41.0424380" lon="0.7327910">
        <ele>314.2</ele>
        <time>2020-08-08T09:23:43Z</time>
      </trkpt>
      <trkpt lat="41.0424370" lon="0.7327870">
        <ele>314.2</ele>
        <time>2020-08-08T09:23:44Z</time>
      </trkpt>
      <trkpt lat="41.0424360" lon="0.7327810">
        <ele>314.1</ele>
        <time>2020-08-08T09:23:46Z</time>
      </trkpt>
      <trkpt lat="41.0424380" lon="0.7327740">
        <ele>314.1</ele>
        <time>2020-08-08T09:23:48Z</time>
      </trkpt>
      <trkpt lat="41.0424520" lon="0.7327510">
        <ele>313.9</ele>
        <time>2020-08-08T09:24:00Z</time>
      </trkpt>
      <trkpt lat="41.0424690" lon="0.7327400">
        <ele>313.8</ele>
        <time>2020-08-08T09:24:01Z</time>
      </trkpt>
      <trkpt lat="41.0424820" lon="0.7327330">
        <ele>313.7</ele>
        <time>2020-08-08T09:24:02Z</time>
      </trkpt>
      <trkpt lat="41.0424930" lon="0.7327260">
        <ele>313.4</ele>
        <time>2020-08-08T09:24:03Z</time>
      </trkpt>
      <trkpt lat="41.0425090" lon="0.7327180">
        <ele>313.3</ele>
        <time>2020-08-08T09:24:05Z</time>
      </trkpt>
      <trkpt lat="41.0425200" lon="0.7327120">
        <ele>313.3</ele>
        <time>2020-08-08T09:24:06Z</time>
      </trkpt>
      <trkpt lat="41.0425300" lon="0.7327070">
        <ele>313.2</ele>
        <time>2020-08-08T09:24:07Z</time>
      </trkpt>
      <trkpt lat="41.0425480" lon="0.7327000">
        <ele>313.1</ele>
        <time>2020-08-08T09:24:09Z</time>
      </trkpt>
      <trkpt lat="41.0425570" lon="0.7327020">
        <ele>313.1</ele>
        <time>2020-08-08T09:24:10Z</time>
      </trkpt>
      <trkpt lat="41.0425670" lon="0.7327010">
        <ele>313.0</ele>
        <time>2020-08-08T09:24:11Z</time>
      </trkpt>
      <trkpt lat="41.0425810" lon="0.7327050">
        <ele>312.9</ele>
        <time>2020-08-08T09:24:13Z</time>
      </trkpt>
      <trkpt lat="41.0425920" lon="0.7327070">
        <ele>312.9</ele>
        <time>2020-08-08T09:24:14Z</time>
      </trkpt>
      <trkpt lat="41.0426000" lon="0.7327090">
        <ele>312.9</ele>
        <time>2020-08-08T09:24:15Z</time>
      </trkpt>
      <trkpt lat="41.0426060" lon="0.7327070">
        <ele>312.8</ele>
        <time>2020-08-08T09:24:16Z</time>
      </trkpt>
      <trkpt lat="41.0426260" lon="0.7327120">
        <ele>312.7</ele>
        <time>2020-08-08T09:24:18Z</time>
      </trkpt>
      <trkpt lat="41.0426410" lon="0.7327110">
        <ele>312.7</ele>
        <time>2020-08-08T09:24:20Z</time>
      </trkpt>
      <trkpt lat="41.0426500" lon="0.7327120">
        <ele>312.6</ele>
        <time>2020-08-08T09:24:22Z</time>
      </trkpt>
      <trkpt lat="41.0426590" lon="0.7327140">
        <ele>312.6</ele>
        <time>2020-08-08T09:24:23Z</time>
      </trkpt>
      <trkpt lat="41.0426590" lon="0.7327170">
        <ele>312.6</ele>
        <time>2020-08-08T09:24:24Z</time>
      </trkpt>
      <trkpt lat="41.0426560" lon="0.7327190">
        <ele>312.5</ele>
        <time>2020-08-08T09:24:25Z</time>
      </trkpt>
      <trkpt lat="41.0426520" lon="0.7327200">
        <ele>312.5</ele>
        <time>2020-08-08T09:24:27Z</time>
      </trkpt>
      <trkpt lat="41.0426480" lon="0.7327210">
        <ele>312.5</ele>
        <time>2020-08-08T09:24:28Z</time>
      </trkpt>
      <trkpt lat="41.0426450" lon="0.7327230">
        <ele>312.5</ele>
        <time>2020-08-08T09:24:30Z</time>
      </trkpt>
      <trkpt lat="41.0426410" lon="0.7327240">
        <ele>312.5</ele>
        <time>2020-08-08T09:24:38Z</time>
      </trkpt>
      <trkpt lat="41.0426370" lon="0.7327250">
        <ele>312.5</ele>
        <time>2020-08-08T09:24:39Z</time>
      </trkpt>
      <trkpt lat="41.0426340" lon="0.7327260">
        <ele>312.4</ele>
        <time>2020-08-08T09:24:40Z</time>
      </trkpt>
      <trkpt lat="41.0426300" lon="0.7327280">
        <ele>312.4</ele>
        <time>2020-08-08T09:24:42Z</time>
      </trkpt>
      <trkpt lat="41.0426260" lon="0.7327290">
        <ele>312.4</ele>
        <time>2020-08-08T09:24:43Z</time>
      </trkpt>
      <trkpt lat="41.0426230" lon="0.7327300">
        <ele>312.4</ele>
        <time>2020-08-08T09:24:44Z</time>
      </trkpt>
      <trkpt lat="41.0426190" lon="0.7327320">
        <ele>312.4</ele>
        <time>2020-08-08T09:24:46Z</time>
      </trkpt>
      <trkpt lat="41.0426160" lon="0.7327330">
        <ele>312.3</ele>
        <time>2020-08-08T09:24:47Z</time>
      </trkpt>
      <trkpt lat="41.0426120" lon="0.7327340">
        <ele>312.3</ele>
        <time>2020-08-08T09:24:48Z</time>
      </trkpt>
      <trkpt lat="41.0426080" lon="0.7327360">
        <ele>312.3</ele>
        <time>2020-08-08T09:24:50Z</time>
      </trkpt>
      <trkpt lat="41.0426050" lon="0.7327370">
        <ele>312.3</ele>
        <time>2020-08-08T09:24:51Z</time>
      </trkpt>
      <trkpt lat="41.0426010" lon="0.7327380">
        <ele>312.3</ele>
        <time>2020-08-08T09:24:52Z</time>
      </trkpt>
      <trkpt lat="41.0425970" lon="0.7327390">
        <ele>312.3</ele>
        <time>2020-08-08T09:24:54Z</time>
      </trkpt>
      <trkpt lat="41.0425940" lon="0.7327410">
        <ele>312.2</ele>
        <time>2020-08-08T09:24:55Z</time>
      </trkpt>
      <trkpt lat="41.0425900" lon="0.7327420">
        <ele>312.2</ele>
        <time>2020-08-08T09:24:57Z</time>
      </trkpt>
      <trkpt lat="41.0425860" lon="0.7327430">
        <ele>312.2</ele>
        <time>2020-08-08T09:24:58Z</time>
      </trkpt>
      <trkpt lat="41.0425830" lon="0.7327450">
        <ele>312.2</ele>
        <time>2020-08-08T09:25:12Z</time>
      </trkpt>
      <trkpt lat="41.0425790" lon="0.7327460">
        <ele>312.2</ele>
        <time>2020-08-08T09:25:13Z</time>
      </trkpt>
      <trkpt lat="41.0425100" lon="0.7327920">
        <ele>311.8</ele>
        <time>2020-08-08T09:25:14Z</time>
      </trkpt>
      <trkpt lat="41.0425310" lon="0.7327830">
        <ele>311.7</ele>
        <time>2020-08-08T09:25:15Z</time>
      </trkpt>
      <trkpt lat="41.0425590" lon="0.7327650">
        <ele>311.5</ele>
        <time>2020-08-08T09:25:16Z</time>
      </trkpt>
      <trkpt lat="41.0425880" lon="0.7327530">
        <ele>311.4</ele>
        <time>2020-08-08T09:25:17Z</time>
      </trkpt>
      <trkpt lat="41.0425950" lon="0.7327500">
        <ele>311.4</ele>
        <time>2020-08-08T09:25:18Z</time>
      </trkpt>
      <trkpt lat="41.0426110" lon="0.7327480">
        <ele>311.3</ele>
        <time>2020-08-08T09:25:20Z</time>
      </trkpt>
      <trkpt lat="41.0426180" lon="0.7327450">
        <ele>311.2</ele>
        <time>2020-08-08T09:25:21Z</time>
      </trkpt>
      <trkpt lat="41.0426220" lon="0.7327370">
        <ele>311.2</ele>
        <time>2020-08-08T09:25:22Z</time>
      </trkpt>
      <trkpt lat="41.0426220" lon="0.7327270">
        <ele>311.2</ele>
        <time>2020-08-08T09:25:24Z</time>
      </trkpt>
      <trkpt lat="41.0426200" lon="0.7327240">
        <ele>311.2</ele>
        <time>2020-08-08T09:25:25Z</time>
      </trkpt>
      <trkpt lat="41.0426180" lon="0.7327210">
        <ele>311.1</ele>
        <time>2020-08-08T09:25:26Z</time>
      </trkpt>
      <trkpt lat="41.0426160" lon="0.7327190">
        <ele>311.1</ele>
        <time>2020-08-08T09:25:28Z</time>
      </trkpt>
      <trkpt lat="41.0426140" lon="0.7327160">
        <ele>311.1</ele>
        <time>2020-08-08T09:25:30Z</time>
      </trkpt>
      <trkpt lat="41.0426120" lon="0.7327130">
        <ele>311.1</ele>
        <time>2020-08-08T09:25:31Z</time>
      </trkpt>
      <trkpt lat="41.0426100" lon="0.7327100">
        <ele>311.1</ele>
        <time>2020-08-08T09:25:33Z</time>
      </trkpt>
      <trkpt lat="41.0426070" lon="0.7327070">
        <ele>311.1</ele>
        <time>2020-08-08T09:25:34Z</time>
      </trkpt>
      <trkpt lat="41.0426050" lon="0.7327040">
        <ele>311.1</ele>
        <time>2020-08-08T09:25:35Z</time>
      </trkpt>
      <trkpt lat="41.0426030" lon="0.7327010">
        <ele>311.0</ele>
        <time>2020-08-08T09:25:36Z</time>
      </trkpt>
      <trkpt lat="41.0426010" lon="0.7326980">
        <ele>311.0</ele>
        <time>2020-08-08T09:25:38Z</time>
      </trkpt>
      <trkpt lat="41.0425990" lon="0.7326960">
        <ele>311.0</ele>
        <time>2020-08-08T09:25:40Z</time>
      </trkpt>
      <trkpt lat="41.0425970" lon="0.7326930">
        <ele>311.0</ele>
        <time>2020-08-08T09:25:42Z</time>
      </trkpt>
      <trkpt lat="41.0425950" lon="0.7326900">
        <ele>311.0</ele>
        <time>2020-08-08T09:25:43Z</time>
      </trkpt>
      <trkpt lat="41.0425930" lon="0.7326870">
        <ele>311.0</ele>
        <time>2020-08-08T09:25:44Z</time>
      </trkpt>
      <trkpt lat="41.0425580" lon="0.7327010">
        <ele>310.8</ele>
        <time>2020-08-08T09:25:46Z</time>
      </trkpt>
      <trkpt lat="41.0425160" lon="0.7327220">
        <ele>310.6</ele>
        <time>2020-08-08T09:25:48Z</time>
      </trkpt>
      <trkpt lat="41.0425040" lon="0.7327310">
        <ele>310.5</ele>
        <time>2020-08-08T09:25:49Z</time>
      </trkpt>
      <trkpt lat="41.0425110" lon="0.7327410">
        <ele>310.5</ele>
        <time>2020-08-08T09:25:51Z</time>
      </trkpt>
      <trkpt lat="41.0425260" lon="0.7327410">
        <ele>310.4</ele>
        <time>2020-08-08T09:25:52Z</time>
      </trkpt>
      <trkpt lat="41.0425660" lon="0.7327390">
        <ele>310.2</ele>
        <time>2020-08-08T09:25:54Z</time>
      </trkpt>
      <trkpt lat="41.0425850" lon="0.7327380">
        <ele>310.1</ele>
        <time>2020-08-08T09:25:55Z</time>
      </trkpt>
      <trkpt lat="41.0426010" lon="0.7327380">
        <ele>310.0</ele>
        <time>2020-08-08T09:25:57Z</time>
      </trkpt>
      <trkpt lat="41.0426450" lon="0.7327450">
        <ele>309.8</ele>
        <time>2020-08-08T09:25:58Z</time>
      </trkpt>
      <trkpt lat="41.0426930" lon="0.7327680">
        <ele>309.5</ele>
        <time>2020-08-08T09:26:00Z</time>
      </trkpt>
      <trkpt lat="41.0427150" lon="0.7327700">
        <ele>309.4</ele>
        <time>2020-08-08T09:26:02Z</time>
      </trkpt>
      <trkpt lat="41.0427240" lon="0.7327660">
        <ele>309.4</ele>
        <time>2020-08-08T09:26:03Z</time>
      </trkpt>
      <trkpt lat="41.0427300" lon="0.7327630">
        <ele>309.3</ele>
        <time>2020-08-08T09:26:04Z</time>
      </trkpt>
      <trkpt lat="41.0427350" lon="0.7327660">
        <ele>309.3</ele>
        <time>2020-08-08T09:26:05Z</time>
      </trkpt>
      <trkpt lat="41.0427410" lon="0.7327760">
        <ele>309.3</ele>
        <time>2020-08-08T09:26:06Z</time>
      </trkpt>
      <trkpt lat="41.0427480" lon="0.7327900">
        <ele>309.2</ele>
        <time>2020-08-08T09:26:08Z</time>
      </trkpt>
      <trkpt lat="41.0427550" lon="0.7327930">
        <ele>309.2</ele>
        <time>2020-08-08T09:26:09Z</time>
      </trkpt>
      <trkpt lat="41.0427770" lon="0.7327870">
        <ele>309.0</ele>
        <time>2020-08-08T09:26:10Z</time>
      </trkpt>
      <trkpt lat="41.0427940" lon="0.7327770">
        <ele>309.0</ele>
        <time>2020-08-08T09:26:11Z</time>
      </trkpt>
      <trkpt lat="41.0428060" lon="0.7327680">
        <ele>308.9</ele>
        <time>2020-08-08T09:26:12Z</time>
      </trkpt>
      <trkpt lat="41.0428440" lon="0.7327400">
        <ele>308.7</ele>
        <time>2020-08-08T09:26:14Z</time>
      </trkpt>
      <trkpt lat="41.0428570" lon="0.7327220">
        <ele>308.6</ele>
        <time>2020-08-08T09:26:15Z</time>
      </trkpt>
      <trkpt lat="41.0428800" lon="0.7326950">
        <ele>308.4</ele>
        <time>2020-08-08T09:26:17Z</time>
      </trkpt>
      <trkpt lat="41.0428810" lon="0.7326870">
        <ele>306.9</ele>
        <time>2020-08-08T09:26:18Z</time>
      </trkpt>
      <trkpt lat="41.0428670" lon="0.7326760">
        <ele>306.7</ele>
        <time>2020-08-08T09:26:20Z</time>
      </trkpt>
      <trkpt lat="41.0428410" lon="0.7326660">
        <ele>306.4</ele>
        <time>2020-08-08T09:26:24Z</time>
      </trkpt>
      <trkpt lat="41.0427520" lon="0.7327180">
        <ele>305.3</ele>
        <time>2020-08-08T09:26:28Z</time>
      </trkpt>
      <trkpt lat="41.0427370" lon="0.7327290">
        <ele>305.1</ele>
        <time>2020-08-08T09:26:29Z</time>
      </trkpt>
      <trkpt lat="41.0427350" lon="0.7327380">
        <ele>305.0</ele>
        <time>2020-08-08T09:26:30Z</time>
      </trkpt>
      <trkpt lat="41.0427390" lon="0.7327400">
        <ele>305.0</ele>
        <time>2020-08-08T09:26:32Z</time>
      </trkpt>
      <trkpt lat="41.0427430" lon="0.7327430">
        <ele>304.9</ele>
        <time>2020-08-08T09:26:33Z</time>
      </trkpt>
      <trkpt lat="41.0427470" lon="0.7327450">
        <ele>304.9</ele>
        <time>2020-08-08T09:26:35Z</time>
      </trkpt>
      <trkpt lat="41.0427510" lon="0.7327480">
        <ele>304.8</ele>
        <time>2020-08-08T09:26:36Z</time>
      </trkpt>
      <trkpt lat="41.0427550" lon="0.7327510">
        <ele>304.8</ele>
        <time>2020-08-08T09:26:37Z</time>
      </trkpt>
      <trkpt lat="41.0427590" lon="0.7327530">
        <ele>304.7</ele>
        <time>2020-08-08T09:26:38Z</time>
      </trkpt>
      <trkpt lat="41.0427640" lon="0.7327560">
        <ele>304.6</ele>
        <time>2020-08-08T09:26:39Z</time>
      </trkpt>
      <trkpt lat="41.0427680" lon="0.7327580">
        <ele>304.6</ele>
        <time>2020-08-08T09:26:41Z</time>
      </trkpt>
      <trkpt lat="41.0427720" lon="0.7327610">
        <ele>304.5</ele>
        <time>2020-08-08T09:26:43Z</time>
      </trkpt>
      <trkpt lat="41.0427760" lon="0.7327640">
        <ele>304.5</ele>
        <time>2020-08-08T09:26:45Z</time>
      </trkpt>
      <trkpt lat="41.0427800" lon="0.7327660">
        <ele>304.4</ele>
        <time>2020-08-08T09:26:46Z</time>
      </trkpt>
      <trkpt lat="41.0427840" lon="0.7327690">
        <ele>304.4</ele>
        <time>2020-08-08T09:26:47Z</time>
      </trkpt>
      <trkpt lat="41.0427880" lon="0.7327710">
        <ele>304.3</ele>
        <time>2020-08-08T09:26:49Z</time>
      </trkpt>
      <trkpt lat="41.0427920" lon="0.7327740">
        <ele>304.3</ele>
        <time>2020-08-08T09:26:50Z</time>
      </trkpt>
      <trkpt lat="41.0428050" lon="0.7327760">
        <ele>304.1</ele>
        <time>2020-08-08T09:26:51Z</time>
      </trkpt>
      <trkpt lat="41.0428130" lon="0.7327760">
        <ele>304.0</ele>
        <time>2020-08-08T09:26:53Z</time>
      </trkpt>
      <trkpt lat="41.0428180" lon="0.7327690">
        <ele>304.0</ele>
        <time>2020-08-08T09:26:54Z</time>
      </trkpt>
      <trkpt lat="41.0428180" lon="0.7327600">
        <ele>303.9</ele>
        <time>2020-08-08T09:26:55Z</time>
      </trkpt>
      <trkpt lat="41.0428220" lon="0.7327810">
        <ele>303.7</ele>
        <time>2020-08-08T09:26:56Z</time>
      </trkpt>
      <trkpt lat="41.0428260" lon="0.7327950">
        <ele>303.6</ele>
        <time>2020-08-08T09:26:58Z</time>
      </trkpt>
      <trkpt lat="41.0428310" lon="0.7328100">
        <ele>303.4</ele>
        <time>2020-08-08T09:26:59Z</time>
      </trkpt>
      <trkpt lat="41.0428350" lon="0.7328230">
        <ele>303.3</ele>
        <time>2020-08-08T09:27:01Z</time>
      </trkpt>
      <trkpt lat="41.0428400" lon="0.7328370">
        <ele>303.2</ele>
        <time>2020-08-08T09:27:04Z</time>
      </trkpt>
      <trkpt lat="41.0428760" lon="0.7328410">
        <ele>302.7</ele>
        <time>2020-08-08T09:27:21Z</time>
      </trkpt>
      <trkpt lat="41.0428960" lon="0.7328380">
        <ele>302.5</ele>
        <time>2020-08-08T09:27:22Z</time>
      </trkpt>
      <trkpt lat="41.0429080" lon="0.7328370">
        <ele>302.4</ele>
        <time>2020-08-08T09:27:23Z</time>
      </trkpt>
      <trkpt lat="41.0429200" lon="0.7328370">
        <ele>302.2</ele>
        <time>2020-08-08T09:27:24Z</time>
      </trkpt>
      <trkpt lat="41.0429350" lon="0.7328370">
        <ele>302.1</ele>
        <time>2020-08-08T09:27:25Z</time>
      </trkpt>
      <trkpt lat="41.0429500" lon="0.7328380">
        <ele>301.9</ele>
        <time>2020-08-08T09:27:27Z</time>
      </trkpt>
      <trkpt lat="41.0429720" lon="0.7328510">
        <ele>301.6</ele>
        <time>2020-08-08T09:27:29Z</time>
      </trkpt>
      <trkpt lat="41.0429850" lon="0.7328610">
        <ele>301.4</ele>
        <time>2020-08-08T09:27:31Z</time>
      </trkpt>
      <trkpt lat="41.0429890" lon="0.7328650">
        <ele>301.4</ele>
        <time>2020-08-08T09:27:32Z</time>
      </trkpt>
      <trkpt lat="41.0429940" lon="0.7328700">
        <ele>301.3</ele>
        <time>2020-08-08T09:27:33Z</time>
      </trkpt>
      <trkpt lat="41.0429970" lon="0.7328780">
        <ele>301.2</ele>
        <time>2020-08-08T09:27:35Z</time>
      </trkpt>
      <trkpt lat="41.0429950" lon="0.7329050">
        <ele>301.0</ele>
        <time>2020-08-08T09:27:38Z</time>
      </trkpt>
      <trkpt lat="41.0430020" lon="0.7329300">
        <ele>300.8</ele>
        <time>2020-08-08T09:27:40Z</time>
      </trkpt>
      <trkpt lat="41.0430050" lon="0.7329410">
        <ele>300.7</ele>
        <time>2020-08-08T09:27:44Z</time>
      </trkpt>
      <trkpt lat="41.0430090" lon="0.7329620">
        <ele>300.5</ele>
        <time>2020-08-08T09:27:45Z</time>
      </trkpt>
      <trkpt lat="41.0430280" lon="0.7330120">
        <ele>300.0</ele>
        <time>2020-08-08T09:27:47Z</time>
      </trkpt>
      <trkpt lat="41.0430650" lon="0.7330450">
        <ele>299.5</ele>
        <time>2020-08-08T09:27:49Z</time>
      </trkpt>
      <trkpt lat="41.0431020" lon="0.7330540">
        <ele>299.4</ele>
        <time>2020-08-08T09:27:50Z</time>
      </trkpt>
      <trkpt lat="41.0431090" lon="0.7330510">
        <ele>299.3</ele>
        <time>2020-08-08T09:27:51Z</time>
      </trkpt>
      <trkpt lat="41.0431060" lon="0.7330350">
        <ele>299.3</ele>
        <time>2020-08-08T09:27:54Z</time>
      </trkpt>
      <trkpt lat="41.0431010" lon="0.7330290">
        <ele>299.2</ele>
        <time>2020-08-08T09:27:55Z</time>
      </trkpt>
      <trkpt lat="41.0430870" lon="0.7330200">
        <ele>299.2</ele>
        <time>2020-08-08T09:27:57Z</time>
      </trkpt>
      <trkpt lat="41.0430840" lon="0.7330190">
        <ele>299.1</ele>
        <time>2020-08-08T09:27:59Z</time>
      </trkpt>
      <trkpt lat="41.0430860" lon="0.7330240">
        <ele>299.1</ele>
        <time>2020-08-08T09:28:01Z</time>
      </trkpt>
      <trkpt lat="41.0430880" lon="0.7330270">
        <ele>299.1</ele>
        <time>2020-08-08T09:28:02Z</time>
      </trkpt>
      <trkpt lat="41.0430890" lon="0.7330290">
        <ele>299.1</ele>
        <time>2020-08-08T09:28:03Z</time>
      </trkpt>
      <trkpt lat="41.0430890" lon="0.7330310">
        <ele>299.1</ele>
        <time>2020-08-08T09:28:04Z</time>
      </trkpt>
      <trkpt lat="41.0430900" lon="0.7330320">
        <ele>299.1</ele>
        <time>2020-08-08T09:28:06Z</time>
      </trkpt>
      <trkpt lat="41.0430910" lon="0.7330340">
        <ele>299.1</ele>
        <time>2020-08-08T09:28:07Z</time>
      </trkpt>
      <trkpt lat="41.0431000" lon="0.7328750">
        <ele>298.5</ele>
        <time>2020-08-08T09:28:29Z</time>
      </trkpt>
      <trkpt lat="41.0431300" lon="0.7328120">
        <ele>298.2</ele>
        <time>2020-08-08T09:28:31Z</time>
      </trkpt>
      <trkpt lat="41.0431780" lon="0.7327380">
        <ele>297.7</ele>
        <time>2020-08-08T09:28:33Z</time>
      </trkpt>
      <trkpt lat="41.0431830" lon="0.7326550">
        <ele>297.2</ele>
        <time>2020-08-08T09:29:05Z</time>
      </trkpt>
      <trkpt lat="41.0431970" lon="0.7326380">
        <ele>297.0</ele>
        <time>2020-08-08T09:29:06Z</time>
      </trkpt>
      <trkpt lat="41.0432000" lon="0.7326360">
        <ele>297.0</ele>
        <time>2020-08-08T09:29:07Z</time>
      </trkpt>
      <trkpt lat="41.0432020" lon="0.7326350">
        <ele>297.0</ele>
        <time>2020-08-08T09:29:11Z</time>
      </trkpt>
      <trkpt lat="41.0432010" lon="0.7326380">
        <ele>297.0</ele>
        <time>2020-08-08T09:29:15Z</time>
      </trkpt>
      <trkpt lat="41.0432000" lon="0.7326420">
        <ele>297.0</ele>
        <time>2020-08-08T09:29:16Z</time>
      </trkpt>
      <trkpt lat="41.0432000" lon="0.7326440">
        <ele>296.9</ele>
        <time>2020-08-08T09:29:17Z</time>
      </trkpt>
      <trkpt lat="41.0432080" lon="0.7326370">
        <ele>296.9</ele>
        <time>2020-08-08T09:29:19Z</time>
      </trkpt>
      <trkpt lat="41.0432310" lon="0.7326160">
        <ele>296.6</ele>
        <time>2020-08-08T09:29:21Z</time>
      </trkpt>
      <trkpt lat="41.0432570" lon="0.7326110">
        <ele>296.5</ele>
        <time>2020-08-08T09:29:23Z</time>
      </trkpt>
      <trkpt lat="41.0432750" lon="0.7326110">
        <ele>296.4</ele>
        <time>2020-08-08T09:29:24Z</time>
      </trkpt>
      <trkpt lat="41.0432930" lon="0.7326070">
        <ele>296.3</ele>
        <time>2020-08-08T09:29:25Z</time>
      </trkpt>
      <trkpt lat="41.0433050" lon="0.7326010">
        <ele>296.3</ele>
        <time>2020-08-08T09:29:27Z</time>
      </trkpt>
      <trkpt lat="41.0433090" lon="0.7325840">
        <ele>296.2</ele>
        <time>2020-08-08T09:29:29Z</time>
      </trkpt>
      <trkpt lat="41.0432940" lon="0.7325560">
        <ele>296.1</ele>
        <time>2020-08-08T09:29:30Z</time>
      </trkpt>
      <trkpt lat="41.0432800" lon="0.7325480">
        <ele>296.0</ele>
        <time>2020-08-08T09:29:33Z</time>
      </trkpt>
      <trkpt lat="41.0432750" lon="0.7325470">
        <ele>296.0</ele>
        <time>2020-08-08T09:29:35Z</time>
      </trkpt>
      <trkpt lat="41.0432730" lon="0.7325440">
        <ele>296.0</ele>
        <time>2020-08-08T09:29:36Z</time>
      </trkpt>
      <trkpt lat="41.0432720" lon="0.7325380">
        <ele>295.9</ele>
        <time>2020-08-08T09:29:38Z</time>
      </trkpt>
      <trkpt lat="41.0432730" lon="0.7325340">
        <ele>295.9</ele>
        <time>2020-08-08T09:29:39Z</time>
      </trkpt>
      <trkpt lat="41.0433510" lon="0.7322950">
        <ele>294.7</ele>
        <time>2020-08-08T09:29:52Z</time>
      </trkpt>
      <trkpt lat="41.0433600" lon="0.7322790">
        <ele>294.6</ele>
        <time>2020-08-08T09:29:53Z</time>
      </trkpt>
      <trkpt lat="41.0433600" lon="0.7322780">
        <ele>294.6</ele>
        <time>2020-08-08T09:29:55Z</time>
      </trkpt>
      <trkpt lat="41.0433600" lon="0.7322780">
        <ele>294.6</ele>
        <time>2020-08-08T09:29:56Z</time>
      </trkpt>
      <trkpt lat="41.0433590" lon="0.7322770">
        <ele>294.6</ele>
        <time>2020-08-08T09:29:57Z</time>
      </trkpt>
      <trkpt lat="41.0433590" lon="0.7322770">
        <ele>294.6</ele>
        <time>2020-08-08T09:29:58Z</time>
      </trkpt>
      <trkpt lat="41.0433590" lon="0.7322770">
        <ele>294.6</ele>
        <time>2020-08-08T09:29:59Z</time>
      </trkpt>
      <trkpt lat="41.0433570" lon="0.7322630">
        <ele>294.5</ele>
        <time>2020-08-08T09:30:01Z</time>
      </trkpt>
      <trkpt lat="41.0433570" lon="0.7322550">
        <ele>294.5</ele>
        <time>2020-08-08T09:30:02Z</time>
      </trkpt>
      <trkpt lat="41.0433580" lon="0.7322430">
        <ele>294.5</ele>
        <time>2020-08-08T09:30:03Z</time>
      </trkpt>
      <trkpt lat="41.0433570" lon="0.7322280">
        <ele>294.5</ele>
        <time>2020-08-08T09:30:04Z</time>
      </trkpt>
      <trkpt lat="41.0433560" lon="0.7322090">
        <ele>294.5</ele>
        <time>2020-08-08T09:30:05Z</time>
      </trkpt>
      <trkpt lat="41.0433460" lon="0.7321690">
        <ele>294.5</ele>
        <time>2020-08-08T09:30:07Z</time>
      </trkpt>
      <trkpt lat="41.0433330" lon="0.7321330">
        <ele>294.5</ele>
        <time>2020-08-08T09:30:09Z</time>
      </trkpt>
      <trkpt lat="41.0433260" lon="0.7321090">
        <ele>294.5</ele>
        <time>2020-08-08T09:30:10Z</time>
      </trkpt>
      <trkpt lat="41.0433190" lon="0.7320880">
        <ele>294.5</ele>
        <time>2020-08-08T09:30:11Z</time>
      </trkpt>
      <trkpt lat="41.0433070" lon="0.7320340">
        <ele>294.5</ele>
        <time>2020-08-08T09:30:13Z</time>
      </trkpt>
      <trkpt lat="41.0433080" lon="0.7320190">
        <ele>294.5</ele>
        <time>2020-08-08T09:30:14Z</time>
      </trkpt>
      <trkpt lat="41.0433100" lon="0.7320030">
        <ele>294.5</ele>
        <time>2020-08-08T09:30:15Z</time>
      </trkpt>
      <trkpt lat="41.0433110" lon="0.7319880">
        <ele>294.5</ele>
        <time>2020-08-08T09:30:16Z</time>
      </trkpt>
      <trkpt lat="41.0433260" lon="0.7320260">
        <ele>294.5</ele>
        <time>2020-08-08T09:30:17Z</time>
      </trkpt>
      <trkpt lat="41.0433310" lon="0.7320370">
        <ele>294.5</ele>
        <time>2020-08-08T09:30:18Z</time>
      </trkpt>
      <trkpt lat="41.0433460" lon="0.7320370">
        <ele>294.5</ele>
        <time>2020-08-08T09:30:20Z</time>
      </trkpt>
      <trkpt lat="41.0433540" lon="0.7320130">
        <ele>294.5</ele>
        <time>2020-08-08T09:30:21Z</time>
      </trkpt>
      <trkpt lat="41.0433530" lon="0.7319820">
        <ele>294.6</ele>
        <time>2020-08-08T09:30:22Z</time>
      </trkpt>
      <trkpt lat="41.0433520" lon="0.7319370">
        <ele>294.6</ele>
        <time>2020-08-08T09:30:24Z</time>
      </trkpt>
      <trkpt lat="41.0433530" lon="0.7318940">
        <ele>294.6</ele>
        <time>2020-08-08T09:30:25Z</time>
      </trkpt>
      <trkpt lat="41.0433650" lon="0.7318170">
        <ele>294.6</ele>
        <time>2020-08-08T09:30:26Z</time>
      </trkpt>
      <trkpt lat="41.0433780" lon="0.7317420">
        <ele>294.6</ele>
        <time>2020-08-08T09:30:27Z</time>
      </trkpt>
      <trkpt lat="41.0433810" lon="0.7316600">
        <ele>294.7</ele>
        <time>2020-08-08T09:30:29Z</time>
      </trkpt>
      <trkpt lat="41.0433860" lon="0.7316050">
        <ele>294.7</ele>
        <time>2020-08-08T09:30:30Z</time>
      </trkpt>
      <trkpt lat="41.0433790" lon="0.7315640">
        <ele>294.7</ele>
        <time>2020-08-08T09:30:31Z</time>
      </trkpt>
      <trkpt lat="41.0433640" lon="0.7315120">
        <ele>294.7</ele>
        <time>2020-08-08T09:30:33Z</time>
      </trkpt>
      <trkpt lat="41.0433570" lon="0.7314750">
        <ele>294.7</ele>
        <time>2020-08-08T09:30:34Z</time>
      </trkpt>
      <trkpt lat="41.0433560" lon="0.7314630">
        <ele>294.8</ele>
        <time>2020-08-08T09:30:35Z</time>
      </trkpt>
      <trkpt lat="41.0433490" lon="0.7314490">
        <ele>294.8</ele>
        <time>2020-08-08T09:30:37Z</time>
      </trkpt>
      <trkpt lat="41.0433480" lon="0.7314500">
        <ele>294.8</ele>
        <time>2020-08-08T09:30:43Z</time>
      </trkpt>
      <trkpt lat="41.0433470" lon="0.7314460">
        <ele>294.8</ele>
        <time>2020-08-08T09:30:44Z</time>
      </trkpt>
      <trkpt lat="41.0433450" lon="0.7314380">
        <ele>294.8</ele>
        <time>2020-08-08T09:30:45Z</time>
      </trkpt>
      <trkpt lat="41.0433420" lon="0.7314300">
        <ele>294.8</ele>
        <time>2020-08-08T09:30:46Z</time>
      </trkpt>
      <trkpt lat="41.0433400" lon="0.7314300">
        <ele>294.8</ele>
        <time>2020-08-08T09:30:48Z</time>
      </trkpt>
      <trkpt lat="41.0433380" lon="0.7314310">
        <ele>294.8</ele>
        <time>2020-08-08T09:30:50Z</time>
      </trkpt>
      <trkpt lat="41.0433360" lon="0.7314310">
        <ele>294.8</ele>
        <time>2020-08-08T09:30:51Z</time>
      </trkpt>
      <trkpt lat="41.0433290" lon="0.7314300">
        <ele>294.8</ele>
        <time>2020-08-08T09:30:53Z</time>
      </trkpt>
      <trkpt lat="41.0433250" lon="0.7314290">
        <ele>294.8</ele>
        <time>2020-08-08T09:30:54Z</time>
      </trkpt>
      <trkpt lat="41.0433230" lon="0.7314280">
        <ele>294.8</ele>
        <time>2020-08-08T09:30:56Z</time>
      </trkpt>
      <trkpt lat="41.0433230" lon="0.7314630">
        <ele>294.8</ele>
        <time>2020-08-08T09:31:56Z</time>
      </trkpt>
      <trkpt lat="41.0433260" lon="0.7314630">
        <ele>294.8</ele>
        <time>2020-08-08T09:31:58Z</time>
      </trkpt>
      <trkpt lat="41.0433270" lon="0.7314630">
        <ele>294.8</ele>
        <time>2020-08-08T09:31:59Z</time>
      </trkpt>
      <trkpt lat="41.0433290" lon="0.7314660">
        <ele>294.8</ele>
        <time>2020-08-08T09:32:01Z</time>
      </trkpt>
      <trkpt lat="41.0433290" lon="0.7314710">
        <ele>294.8</ele>
        <time>2020-08-08T09:32:02Z</time>
      </trkpt>
      <trkpt lat="41.0433290" lon="0.7314750">
        <ele>294.8</ele>
        <time>2020-08-08T09:32:03Z</time>
      </trkpt>
      <trkpt lat="41.0433300" lon="0.7314780">
        <ele>294.8</ele>
        <time>2020-08-08T09:32:05Z</time>
      </trkpt>
      <trkpt lat="41.0433320" lon="0.7314800">
        <ele>294.8</ele>
        <time>2020-08-08T09:32:06Z</time>
      </trkpt>
      <trkpt lat="41.0433300" lon="0.7315060">
        <ele>294.9</ele>
        <time>2020-08-08T09:32:45Z</time>
      </trkpt>
      <trkpt lat="41.0433290" lon="0.7315110">
        <ele>294.9</ele>
        <time>2020-08-08T09:32:47Z</time>
      </trkpt>
      <trkpt lat="41.0433310" lon="0.7315170">
        <ele>294.9</ele>
        <time>2020-08-08T09:32:48Z</time>
      </trkpt>
      <trkpt lat="41.0433380" lon="0.7315180">
        <ele>294.9</ele>
        <time>2020-08-08T09:32:50Z</time>
      </trkpt>
      <trkpt lat="41.0433410" lon="0.7315170">
        <ele>294.9</ele>
        <time>2020-08-08T09:32:51Z</time>
      </trkpt>
      <trkpt lat="41.0433410" lon="0.7315190">
        <ele>294.9</ele>
        <time>2020-08-08T09:32:52Z</time>
      </trkpt>
      <trkpt lat="41.0433390" lon="0.7315210">
        <ele>294.9</ele>
        <time>2020-08-08T09:32:54Z</time>
      </trkpt>
      <trkpt lat="41.0433390" lon="0.7315210">
        <ele>294.9</ele>
        <time>2020-08-08T09:32:55Z</time>
      </trkpt>
      <trkpt lat="41.0433390" lon="0.7315160">
        <ele>294.9</ele>
        <time>2020-08-08T09:32:57Z</time>
      </trkpt>
      <trkpt lat="41.0433340" lon="0.7315190">
        <ele>294.9</ele>
        <time>2020-08-08T09:33:00Z</time>
      </trkpt>
      <trkpt lat="41.0433340" lon="0.7315190">
        <ele>294.9</ele>
        <time>2020-08-08T09:33:01Z</time>
      </trkpt>
      <trkpt lat="41.0433390" lon="0.7315110">
        <ele>294.9</ele>
        <time>2020-08-08T09:33:03Z</time>
      </trkpt>
      <trkpt lat="41.0433420" lon="0.7315010">
        <ele>294.9</ele>
        <time>2020-08-08T09:33:05Z</time>
      </trkpt>
      <trkpt lat="41.0433450" lon="0.7314990">
        <ele>294.9</ele>
        <time>2020-08-08T09:33:06Z</time>
      </trkpt>
      <trkpt lat="41.0433450" lon="0.7315000">
        <ele>294.9</ele>
        <time>2020-08-08T09:33:08Z</time>
      </trkpt>
      <trkpt lat="41.0433450" lon="0.7315020">
        <ele>294.9</ele>
        <time>2020-08-08T09:33:10Z</time>
      </trkpt>
      <trkpt lat="41.0433650" lon="0.7314940">
        <ele>294.9</ele>
        <time>2020-08-08T09:33:27Z</time>
      </trkpt>
      <trkpt lat="41.0433650" lon="0.7314940">
        <ele>294.9</ele>
        <time>2020-08-08T09:33:29Z</time>
      </trkpt>
      <trkpt lat="41.0433640" lon="0.7314940">
        <ele>294.9</ele>
        <time>2020-08-08T09:33:30Z</time>
      </trkpt>
      <trkpt lat="41.0433640" lon="0.7314940">
        <ele>294.9</ele>
        <time>2020-08-08T09:33:32Z</time>
      </trkpt>
      <trkpt lat="41.0433640" lon="0.7314940">
        <ele>294.9</ele>
        <time>2020-08-08T09:33:33Z</time>
      </trkpt>
      <trkpt lat="41.0433640" lon="0.7314940">
        <ele>294.9</ele>
        <time>2020-08-08T09:33:34Z</time>
      </trkpt>
      <trkpt lat="41.0433640" lon="0.7314940">
        <ele>294.9</ele>
        <time>2020-08-08T09:33:36Z</time>
      </trkpt>
      <trkpt lat="41.0433640" lon="0.7314940">
        <ele>294.9</ele>
        <time>2020-08-08T09:33:37Z</time>
      </trkpt>
      <trkpt lat="41.0433320" lon="0.7315070">
        <ele>295.0</ele>
        <time>2020-08-08T09:33:56Z</time>
      </trkpt>
      <trkpt lat="41.0433290" lon="0.7315080">
        <ele>295.0</ele>
        <time>2020-08-08T09:33:57Z</time>
      </trkpt>
      <trkpt lat="41.0433290" lon="0.7315080">
        <ele>295.0</ele>
        <time>2020-08-08T09:33:58Z</time>
      </trkpt>
      <trkpt lat="41.0433300" lon="0.7315060">
        <ele>295.0</ele>
        <time>2020-08-08T09:34:00Z</time>
      </trkpt>
      <trkpt lat="41.0433310" lon="0.7315050">
        <ele>295.0</ele>
        <time>2020-08-08T09:34:02Z</time>
      </trkpt>
      <trkpt lat="41.0433320" lon="0.7315050">
        <ele>295.0</ele>
        <time>2020-08-08T09:34:04Z</time>
      </trkpt>
      <trkpt lat="41.0433330" lon="0.7315050">
        <ele>295.0</ele>
        <time>2020-08-08T09:34:05Z</time>
      </trkpt>
      <trkpt lat="41.0433540" lon="0.7314980">
        <ele>295.0</ele>
        <time>2020-08-08T09:34:06Z</time>
      </trkpt>
      <trkpt lat="41.0433630" lon="0.7314950">
        <ele>295.0</ele>
        <time>2020-08-08T09:34:07Z</time>
      </trkpt>
      <trkpt lat="41.0433690" lon="0.7314930">
        <ele>295.0</ele>
        <time>2020-08-08T09:34:09Z</time>
      </trkpt>
      <trkpt lat="41.0433670" lon="0.7314940">
        <ele>295.0</ele>
        <time>2020-08-08T09:34:11Z</time>
      </trkpt>
      <trkpt lat="41.0433670" lon="0.7314940">
        <ele>295.0</ele>
        <time>2020-08-08T09:34:12Z</time>
      </trkpt>
      <trkpt lat="41.0433650" lon="0.7314950">
        <ele>295.0</ele>
        <time>2020-08-08T09:34:14Z</time>
      </trkpt>
      <trkpt lat="41.0433650" lon="0.7314950">
        <ele>295.0</ele>
        <time>2020-08-08T09:34:16Z</time>
      </trkpt>
      <trkpt lat="41.0433650" lon="0.7314950">
        <ele>295.0</ele>
        <time>2020-08-08T09:34:17Z</time>
      </trkpt>
      <trkpt lat="41.0433650" lon="0.7314950">
        <ele>295.0</ele>
        <time>2020-08-08T09:34:18Z</time>
      </trkpt>
      <trkpt lat="41.0433650" lon="0.7314950">
        <ele>295.0</ele>
        <time>2020-08-08T09:34:19Z</time>
      </trkpt>
      <trkpt lat="41.0433330" lon="0.7315190">
        <ele>295.1</ele>
        <time>2020-08-08T09:43:30Z</time>
      </trkpt>
      <trkpt lat="41.0433600" lon="0.7315070">
        <ele>295.1</ele>
        <time>2020-08-08T09:43:31Z</time>
      </trkpt>
      <trkpt lat="41.0433690" lon="0.7315040">
        <ele>295.1</ele>
        <time>2020-08-08T09:43:33Z</time>
      </trkpt>
      <trkpt lat="41.0433700" lon="0.7315030">
        <ele>295.1</ele>
        <time>2020-08-08T09:43:34Z</time>
      </trkpt>
      <trkpt lat="41.0433710" lon="0.7315030">
        <ele>295.1</ele>
        <time>2020-08-08T09:43:35Z</time>
      </trkpt>
      <trkpt lat="41.0433700" lon="0.7315030">
        <ele>295.1</ele>
        <time>2020-08-08T09:43:36Z</time>
      </trkpt>
      <trkpt lat="41.0433690" lon="0.7315040">
        <ele>295.1</ele>
        <time>2020-08-08T09:43:38Z</time>
      </trkpt>
      <trkpt lat="41.0433690" lon="0.7315040">
        <ele>295.1</ele>
        <time>2020-08-08T09:43:39Z</time>
      </trkpt>
      <trkpt lat="41.0433690" lon="0.7315040">
        <ele>295.1</ele>
        <time>2020-08-08T09:43:40Z</time>
      </trkpt>
      <trkpt lat="41.0433690" lon="0.7315040">
        <ele>295.1</ele>
        <time>2020-08-08T09:43:42Z</time>
      </trkpt>
      <trkpt lat="41.0433600" lon="0.7315770">
        <ele>295.2</ele>
        <time>2020-08-08T09:54:01Z</time>
      </trkpt>
      <trkpt lat="41.0433430" lon="0.7315820">
        <ele>295.2</ele>
        <time>2020-08-08T09:54:03Z</time>
      </trkpt>
      <trkpt lat="41.0433370" lon="0.7315920">
        <ele>295.2</ele>
        <time>2020-08-08T09:54:04Z</time>
      </trkpt>
      <trkpt lat="41.0433400" lon="0.7316060">
        <ele>295.2</ele>
        <time>2020-08-08T09:54:05Z</time>
      </trkpt>
      <trkpt lat="41.0433380" lon="0.7316400">
        <ele>295.2</ele>
        <time>2020-08-08T09:54:07Z</time>
      </trkpt>
      <trkpt lat="41.0433380" lon="0.7316740">
        <ele>295.3</ele>
        <time>2020-08-08T09:54:08Z</time>
      </trkpt>
      <trkpt lat="41.0433370" lon="0.7316900">
        <ele>295.3</ele>
        <time>2020-08-08T09:54:09Z</time>
      </trkpt>
      <trkpt lat="41.0433350" lon="0.7317050">
        <ele>295.3</ele>
        <time>2020-08-08T09:54:11Z</time>
      </trkpt>
      <trkpt lat="41.0433340" lon="0.7317210">
        <ele>295.3</ele>
        <time>2020-08-08T09:54:12Z</time>
      </trkpt>
      <trkpt lat="41.0433330" lon="0.7317360">
        <ele>295.3</ele>
        <time>2020-08-08T09:54:13Z</time>
      </trkpt>
      <trkpt lat="41.0433240" lon="0.7317950">
        <ele>295.4</ele>
        <time>2020-08-08T09:54:15Z</time>
      </trkpt>
      <trkpt lat="41.0433220" lon="0.7318190">
        <ele>295.4</ele>
        <time>2020-08-08T09:54:16Z</time>
      </trkpt>
      <trkpt lat="41.0433200" lon="0.7318420">
        <ele>295.4</ele>
        <time>2020-08-08T09:54:17Z</time>
      </trkpt>
      <trkpt lat="41.0433320" lon="0.7318810">
        <ele>295.4</ele>
        <time>2020-08-08T09:54:19Z</time>
      </trkpt>
      <trkpt lat="41.0433440" lon="0.7319040">
        <ele>295.5</ele>
        <time>2020-08-08T09:54:20Z</time>
      </trkpt>
      <trkpt lat="41.0433680" lon="0.7319320">
        <ele>295.5</ele>
        <time>2020-08-08T09:54:22Z</time>
      </trkpt>
      <trkpt lat="41.0433530" lon="0.7319280">
        <ele>295.5</ele>
        <time>2020-08-08T09:54:24Z</time>
      </trkpt>
      <trkpt lat="41.0433230" lon="0.7319040">
        <ele>295.5</ele>
        <time>2020-08-08T09:54:26Z</time>
      </trkpt>
      <trkpt lat="41.0432970" lon="0.7318760">
        <ele>295.6</ele>
        <time>2020-08-08T09:54:27Z</time>
      </trkpt>
      <trkpt lat="41.0432680" lon="0.7318420">
        <ele>295.6</ele>
        <time>2020-08-08T09:54:28Z</time>
      </trkpt>
      <trkpt lat="41.0432580" lon="0.7318310">
        <ele>295.6</ele>
        <time>2020-08-08T09:54:29Z</time>
      </trkpt>
      <trkpt lat="41.0432140" lon="0.7317930">
        <ele>295.6</ele>
        <time>2020-08-08T09:54:31Z</time>
      </trkpt>
      <trkpt lat="41.0431810" lon="0.7317720">
        <ele>295.7</ele>
        <time>2020-08-08T09:54:32Z</time>
      </trkpt>
      <trkpt lat="41.0431310" lon="0.7317460">
        <ele>295.7</ele>
        <time>2020-08-08T09:54:34Z</time>
      </trkpt>
      <trkpt lat="41.0430990" lon="0.7317450">
        <ele>295.7</ele>
        <time>2020-08-08T09:54:36Z</time>
      </trkpt>
      <trkpt lat="41.0430910" lon="0.7317510">
        <ele>295.7</ele>
        <time>2020-08-08T09:54:37Z</time>
      </trkpt>
      <trkpt lat="41.0430900" lon="0.7317700">
        <ele>295.8</ele>
        <time>2020-08-08T09:54:39Z</time>
      </trkpt>
      <trkpt lat="41.0430910" lon="0.7318010">
        <ele>295.8</ele>
        <time>2020-08-08T09:54:41Z</time>
      </trkpt>
      <trkpt lat="41.0430910" lon="0.7318250">
        <ele>295.8</ele>
        <time>2020-08-08T09:54:42Z</time>
      </trkpt>
      <trkpt lat="41.0430900" lon="0.7318340">
        <ele>295.8</ele>
        <time>2020-08-08T09:54:44Z</time>
      </trkpt>
      <trkpt lat="41.0430880" lon="0.7318430">
        <ele>295.8</ele>
        <time>2020-08-08T09:54:46Z</time>
      </trkpt>
      <trkpt lat="41.0430870" lon="0.7318520">
        <ele>295.8</ele>
        <time>2020-08-08T09:54:48Z</time>
      </trkpt>
      <trkpt lat="41.0430860" lon="0.7318610">
        <ele>295.8</ele>
        <time>2020-08-08T09:54:51Z</time>
      </trkpt>
      <trkpt lat="41.0430850" lon="0.7318690">
        <ele>295.8</ele>
        <time>2020-08-08T09:54:53Z</time>
      </trkpt>
      <trkpt lat="41.0430840" lon="0.7318780">
        <ele>295.8</ele>
        <time>2020-08-08T09:54:55Z</time>
      </trkpt>
      <trkpt lat="41.0430820" lon="0.7318870">
        <ele>295.8</ele>
        <time>2020-08-08T09:55:08Z</time>
      </trkpt>
      <trkpt lat="41.0430810" lon="0.7318960">
        <ele>295.8</ele>
        <time>2020-08-08T09:55:09Z</time>
      </trkpt>
      <trkpt lat="41.0430800" lon="0.7319050">
        <ele>295.8</ele>
        <time>2020-08-08T09:55:10Z</time>
      </trkpt>
      <trkpt lat="41.0430830" lon="0.7319340">
        <ele>295.8</ele>
        <time>2020-08-08T09:55:12Z</time>
      </trkpt>
      <trkpt lat="41.0430810" lon="0.7319450">
        <ele>295.9</ele>
        <time>2020-08-08T09:55:13Z</time>
      </trkpt>
      <trkpt lat="41.0430650" lon="0.7319500">
        <ele>295.9</ele>
        <time>2020-08-08T09:55:14Z</time>
      </trkpt>
      <trkpt lat="41.0430520" lon="0.7319230">
        <ele>295.9</ele>
        <time>2020-08-08T09:55:16Z</time>
      </trkpt>
      <trkpt lat="41.0430500" lon="0.7319200">
        <ele>295.9</ele>
        <time>2020-08-08T09:55:20Z</time>
      </trkpt>
      <trkpt lat="41.0430500" lon="0.7319160">
        <ele>295.9</ele>
        <time>2020-08-08T09:55:21Z</time>
      </trkpt>
      <trkpt lat="41.0430490" lon="0.7319130">
        <ele>295.9</ele>
        <time>2020-08-08T09:55:23Z</time>
      </trkpt>
      <trkpt lat="41.0430490" lon="0.7319110">
        <ele>295.9</ele>
        <time>2020-08-08T09:55:25Z</time>
      </trkpt>
      <trkpt lat="41.0430140" lon="0.7319180">
        <ele>297.1</ele>
        <time>2020-08-08T09:55:38Z</time>
      </trkpt>
      <trkpt lat="41.0430010" lon="0.7319210">
        <ele>297.4</ele>
        <time>2020-08-08T09:55:39Z</time>
      </trkpt>
      <trkpt lat="41.0429860" lon="0.7319400">
        <ele>297.9</ele>
        <time>2020-08-08T09:55:41Z</time>
      </trkpt>
      <trkpt lat="41.0429820" lon="0.7319400">
        <ele>298.0</ele>
        <time>2020-08-08T09:55:42Z</time>
      </trkpt>
      <trkpt lat="41.0429780" lon="0.7319380">
        <ele>298.1</ele>
        <time>2020-08-08T09:55:43Z</time>
      </trkpt>
      <trkpt lat="41.0429710" lon="0.7319420">
        <ele>298.2</ele>
        <time>2020-08-08T09:55:45Z</time>
      </trkpt>
      <trkpt lat="41.0429680" lon="0.7319440">
        <ele>298.3</ele>
        <time>2020-08-08T09:55:46Z</time>
      </trkpt>
      <trkpt lat="41.0429640" lon="0.7319460">
        <ele>298.4</ele>
        <time>2020-08-08T09:55:47Z</time>
      </trkpt>
      <trkpt lat="41.0429620" lon="0.7319460">
        <ele>298.4</ele>
        <time>2020-08-08T09:55:49Z</time>
      </trkpt>
      <trkpt lat="41.0429570" lon="0.7319430">
        <ele>298.6</ele>
        <time>2020-08-08T09:55:50Z</time>
      </trkpt>
      <trkpt lat="41.0429540" lon="0.7319420">
        <ele>298.6</ele>
        <time>2020-08-08T09:55:51Z</time>
      </trkpt>
      <trkpt lat="41.0429520" lon="0.7319390">
        <ele>298.7</ele>
        <time>2020-08-08T09:55:53Z</time>
      </trkpt>
      <trkpt lat="41.0429480" lon="0.7319410">
        <ele>298.8</ele>
        <time>2020-08-08T09:55:55Z</time>
      </trkpt>
      <trkpt lat="41.0429470" lon="0.7319440">
        <ele>298.9</ele>
        <time>2020-08-08T09:55:56Z</time>
      </trkpt>
      <trkpt lat="41.0429440" lon="0.7319480">
        <ele>299.0</ele>
        <time>2020-08-08T09:55:58Z</time>
      </trkpt>
      <trkpt lat="41.0429080" lon="0.7319210">
        <ele>299.7</ele>
        <time>2020-08-08T09:56:00Z</time>
      </trkpt>
      <trkpt lat="41.0428780" lon="0.7318930">
        <ele>300.4</ele>
        <time>2020-08-08T09:56:01Z</time>
      </trkpt>
      <trkpt lat="41.0428780" lon="0.7318920">
        <ele>300.4</ele>
        <time>2020-08-08T09:56:02Z</time>
      </trkpt>
      <trkpt lat="41.0428780" lon="0.7318920">
        <ele>300.4</ele>
        <time>2020-08-08T09:56:04Z</time>
      </trkpt>
      <trkpt lat="41.0428800" lon="0.7318930">
        <ele>300.4</ele>
        <time>2020-08-08T09:56:05Z</time>
      </trkpt>
      <trkpt lat="41.0428810" lon="0.7318950">
        <ele>300.4</ele>
        <time>2020-08-08T09:56:06Z</time>
      </trkpt>
      <trkpt lat="41.0428830" lon="0.7318960">
        <ele>300.5</ele>
        <time>2020-08-08T09:56:07Z</time>
      </trkpt>
      <trkpt lat="41.0428830" lon="0.7318970">
        <ele>300.5</ele>
        <time>2020-08-08T09:56:08Z</time>
      </trkpt>
      <trkpt lat="41.0428830" lon="0.7318970">
        <ele>300.5</ele>
        <time>2020-08-08T09:56:10Z</time>
      </trkpt>
      <trkpt lat="41.0428830" lon="0.7318970">
        <ele>300.5</ele>
        <time>2020-08-08T09:56:12Z</time>
      </trkpt>
      <trkpt lat="41.0428830" lon="0.7318970">
        <ele>300.5</ele>
        <time>2020-08-08T09:56:13Z</time>
      </trkpt>
      <trkpt lat="41.0428830" lon="0.7318970">
        <ele>300.5</ele>
        <time>2020-08-08T09:56:15Z</time>
      </trkpt>
      <trkpt lat="41.0428630" lon="0.7319960">
        <ele>301.6</ele>
        <time>2020-08-08T09:56:21Z</time>
      </trkpt>
      <trkpt lat="41.0428550" lon="0.7320430">
        <ele>302.0</ele>
        <time>2020-08-08T09:56:22Z</time>
      </trkpt>
      <trkpt lat="41.0428630" lon="0.7320260">
        <ele>302.2</ele>
        <time>2020-08-08T09:56:23Z</time>
      </trkpt>
      <trkpt lat="41.0428660" lon="0.7320260">
        <ele>302.3</ele>
        <time>2020-08-08T09:56:25Z</time>
      </trkpt>
      <trkpt lat="41.0428720" lon="0.7320070">
        <ele>302.5</ele>
        <time>2020-08-08T09:56:26Z</time>
      </trkpt>
      <trkpt lat="41.0428700" lon="0.7319980">
        <ele>302.5</ele>
        <time>2020-08-08T09:56:27Z</time>
      </trkpt>
      <trkpt lat="41.0428630" lon="0.7319740">
        <ele>302.8</ele>
        <time>2020-08-08T09:56:29Z</time>
      </trkpt>
      <trkpt lat="41.0428550" lon="0.7319650">
        <ele>302.9</ele>
        <time>2020-08-08T09:56:30Z</time>
      </trkpt>
      <trkpt lat="41.0428400" lon="0.7319620">
        <ele>303.1</ele>
        <time>2020-08-08T09:56:32Z</time>
      </trkpt>
      <trkpt lat="41.0428260" lon="0.7319550">
        <ele>303.3</ele>
        <time>2020-08-08T09:56:33Z</time>
      </trkpt>
      <trkpt lat="41.0428090" lon="0.7319660">
        <ele>303.5</ele>
        <time>2020-08-08T09:56:35Z</time>
      </trkpt>
      <trkpt lat="41.0427960" lon="0.7319710">
        <ele>303.7</ele>
        <time>2020-08-08T09:56:36Z</time>
      </trkpt>
      <trkpt lat="41.0427730" lon="0.7319820">
        <ele>304.0</ele>
        <time>2020-08-08T09:56:37Z</time>
      </trkpt>
      <trkpt lat="41.0427620" lon="0.7319900">
        <ele>304.1</ele>
        <time>2020-08-08T09:56:38Z</time>
      </trkpt>
      <trkpt lat="41.0427500" lon="0.7319980">
        <ele>304.3</ele>
        <time>2020-08-08T09:56:39Z</time>
      </trkpt>
      <trkpt lat="41.0427240" lon="0.7320090">
        <ele>304.6</ele>
        <time>2020-08-08T09:56:43Z</time>
      </trkpt>
      <trkpt lat="41.0427180" lon="0.7320160">
        <ele>304.7</ele>
        <time>2020-08-08T09:56:54Z</time>
      </trkpt>
      <trkpt lat="41.0427110" lon="0.7320230">
        <ele>304.9</ele>
        <time>2020-08-08T09:56:54Z</time>
      </trkpt>
      <trkpt lat="41.0426630" lon="0.7320430">
        <ele>305.5</ele>
        <time>2020-08-08T09:57:02Z</time>
      </trkpt>
      <trkpt lat="41.0426150" lon="0.7321730">
        <ele>306.8</ele>
        <time>2020-08-08T09:57:06Z</time>
      </trkpt>
      <trkpt lat="41.0425960" lon="0.7322600">
        <ele>307.7</ele>
        <time>2020-08-08T09:57:07Z</time>
      </trkpt>
      <trkpt lat="41.0425660" lon="0.7323060">
        <ele>308.3</ele>
        <time>2020-08-08T09:57:10Z</time>
      </trkpt>
      <trkpt lat="41.0425570" lon="0.7323020">
        <ele>308.4</ele>
        <time>2020-08-08T09:57:12Z</time>
      </trkpt>
      <trkpt lat="41.0425480" lon="0.7323120">
        <ele>308.6</ele>
        <time>2020-08-08T09:57:14Z</time>
      </trkpt>
      <trkpt lat="41.0425400" lon="0.7323220">
        <ele>308.7</ele>
        <time>2020-08-08T09:57:15Z</time>
      </trkpt>
      <trkpt lat="41.0425310" lon="0.7323320">
        <ele>308.8</ele>
        <time>2020-08-08T09:57:16Z</time>
      </trkpt>
      <trkpt lat="41.0425230" lon="0.7323420">
        <ele>309.0</ele>
        <time>2020-08-08T09:57:17Z</time>
      </trkpt>
      <trkpt lat="41.0424870" lon="0.7323790">
        <ele>309.6</ele>
        <time>2020-08-08T09:57:19Z</time>
      </trkpt>
      <trkpt lat="41.0424690" lon="0.7323720">
        <ele>309.8</ele>
        <time>2020-08-08T09:57:20Z</time>
      </trkpt>
      <trkpt lat="41.0424590" lon="0.7323670">
        <ele>309.9</ele>
        <time>2020-08-08T09:57:21Z</time>
      </trkpt>
      <trkpt lat="41.0424460" lon="0.7323810">
        <ele>310.1</ele>
        <time>2020-08-08T09:57:23Z</time>
      </trkpt>
      <trkpt lat="41.0424430" lon="0.7323900">
        <ele>310.2</ele>
        <time>2020-08-08T09:57:25Z</time>
      </trkpt>
      <trkpt lat="41.0424410" lon="0.7324000">
        <ele>310.3</ele>
        <time>2020-08-08T09:57:27Z</time>
      </trkpt>
      <trkpt lat="41.0424380" lon="0.7324090">
        <ele>310.4</ele>
        <time>2020-08-08T09:57:28Z</time>
      </trkpt>
      <trkpt lat="41.0424360" lon="0.7324160">
        <ele>310.4</ele>
        <time>2020-08-08T09:57:29Z</time>
      </trkpt>
      <trkpt lat="41.0424290" lon="0.7324220">
        <ele>310.5</ele>
        <time>2020-08-08T09:57:31Z</time>
      </trkpt>
      <trkpt lat="41.0424270" lon="0.7324340">
        <ele>310.6</ele>
        <time>2020-08-08T09:57:33Z</time>
      </trkpt>
      <trkpt lat="41.0424230" lon="0.7324410">
        <ele>310.7</ele>
        <time>2020-08-08T09:57:35Z</time>
      </trkpt>
      <trkpt lat="41.0424210" lon="0.7324450">
        <ele>310.8</ele>
        <time>2020-08-08T09:57:37Z</time>
      </trkpt>
      <trkpt lat="41.0424190" lon="0.7324490">
        <ele>310.8</ele>
        <time>2020-08-08T09:57:38Z</time>
      </trkpt>
      <trkpt lat="41.0424140" lon="0.7324550">
        <ele>312.3</ele>
        <time>2020-08-08T09:57:40Z</time>
      </trkpt>
      <trkpt lat="41.0423900" lon="0.7324790">
        <ele>312.4</ele>
        <time>2020-08-08T09:57:42Z</time>
      </trkpt>
      <trkpt lat="41.0423830" lon="0.7324930">
        <ele>312.5</ele>
        <time>2020-08-08T09:57:43Z</time>
      </trkpt>
      <trkpt lat="41.0423850" lon="0.7324970">
        <ele>312.5</ele>
        <time>2020-08-08T09:57:44Z</time>
      </trkpt>
      <trkpt lat="41.0423880" lon="0.7325010">
        <ele>312.5</ele>
        <time>2020-08-08T09:57:45Z</time>
      </trkpt>
      <trkpt lat="41.0423910" lon="0.7325050">
        <ele>312.5</ele>
        <time>2020-08-08T09:57:46Z</time>
      </trkpt>
      <trkpt lat="41.0423940" lon="0.7325100">
        <ele>312.5</ele>
        <time>2020-08-08T09:57:48Z</time>
      </trkpt>
      <trkpt lat="41.0423960" lon="0.7325140">
        <ele>312.5</ele>
        <time>2020-08-08T09:57:49Z</time>
      </trkpt>
      <trkpt lat="41.0423990" lon="0.7325180">
        <ele>312.6</ele>
        <time>2020-08-08T09:57:50Z</time>
      </trkpt>
      <trkpt lat="41.0424020" lon="0.7325220">
        <ele>312.6</ele>
        <time>2020-08-08T09:57:52Z</time>
      </trkpt>
      <trkpt lat="41.0424040" lon="0.7325260">
        <ele>312.6</ele>
        <time>2020-08-08T09:57:53Z</time>
      </trkpt>
      <trkpt lat="41.0424070" lon="0.7325300">
        <ele>312.6</ele>
        <time>2020-08-08T09:57:55Z</time>
      </trkpt>
      <trkpt lat="41.0424100" lon="0.7325340">
        <ele>312.6</ele>
        <time>2020-08-08T09:57:56Z</time>
      </trkpt>
      <trkpt lat="41.0424120" lon="0.7325380">
        <ele>312.6</ele>
        <time>2020-08-08T09:57:58Z</time>
      </trkpt>
      <trkpt lat="41.0424150" lon="0.7325430">
        <ele>312.6</ele>
        <time>2020-08-08T09:57:59Z</time>
      </trkpt>
      <trkpt lat="41.0424180" lon="0.7325470">
        <ele>312.7</ele>
        <time>2020-08-08T09:58:00Z</time>
      </trkpt>
      <trkpt lat="41.0424210" lon="0.7325510">
        <ele>312.7</ele>
        <time>2020-08-08T09:58:02Z</time>
      </trkpt>
      <trkpt lat="41.0424230" lon="0.7325550">
        <ele>312.7</ele>
        <time>2020-08-08T09:58:03Z</time>
      </trkpt>
      <trkpt lat="41.0424260" lon="0.7325590">
        <ele>312.7</ele>
        <time>2020-08-08T09:58:04Z</time>
      </trkpt>
      <trkpt lat="41.0424300" lon="0.7325640">
        <ele>312.7</ele>
        <time>2020-08-08T09:58:05Z</time>
      </trkpt>
      <trkpt lat="41.0424300" lon="0.7325640">
        <ele>312.7</ele>
        <time>2020-08-08T09:58:07Z</time>
      </trkpt>
      <trkpt lat="41.0424280" lon="0.7325610">
        <ele>312.7</ele>
        <time>2020-08-08T09:58:08Z</time>
      </trkpt>
      <trkpt lat="41.0424270" lon="0.7325590">
        <ele>312.7</ele>
        <time>2020-08-08T09:58:10Z</time>
      </trkpt>
      <trkpt lat="41.0424260" lon="0.7325590">
        <ele>312.7</ele>
        <time>2020-08-08T09:58:12Z</time>
      </trkpt>
      <trkpt lat="41.0424260" lon="0.7325580">
        <ele>312.7</ele>
        <time>2020-08-08T09:58:13Z</time>
      </trkpt>
      <trkpt lat="41.0424260" lon="0.7325580">
        <ele>312.7</ele>
        <time>2020-08-08T09:58:14Z</time>
      </trkpt>
      <trkpt lat="41.0424260" lon="0.7325580">
        <ele>312.7</ele>
        <time>2020-08-08T09:58:16Z</time>
      </trkpt>
      <trkpt lat="41.0424260" lon="0.7325580">
        <ele>312.7</ele>
        <time>2020-08-08T09:58:17Z</time>
      </trkpt>
      <trkpt lat="41.0424390" lon="0.7326300">
        <ele>312.9</ele>
        <time>2020-08-08T09:59:43Z</time>
      </trkpt>
      <trkpt lat="41.0424620" lon="0.7326770">
        <ele>313.1</ele>
        <time>2020-08-08T09:59:45Z</time>
      </trkpt>
      <trkpt lat="41.0424690" lon="0.7327030">
        <ele>313.2</ele>
        <time>2020-08-08T09:59:46Z</time>
      </trkpt>
      <trkpt lat="41.0424690" lon="0.7327200">
        <ele>313.2</ele>
        <time>2020-08-08T09:59:47Z</time>
      </trkpt>
      <trkpt lat="41.0424660" lon="0.7327440">
        <ele>313.3</ele>
        <time>2020-08-08T09:59:49Z</time>
      </trkpt>
      <trkpt lat="41.0424600" lon="0.7327590">
        <ele>313.3</ele>
        <time>2020-08-08T09:59:50Z</time>
      </trkpt>
      <trkpt lat="41.0424550" lon="0.7327660">
        <ele>313.4</ele>
        <time>2020-08-08T09:59:51Z</time>
      </trkpt>
      <trkpt lat="41.0424500" lon="0.7327670">
        <ele>313.4</ele>
        <time>2020-08-08T09:59:52Z</time>
      </trkpt>
      <trkpt lat="41.0424380" lon="0.7327620">
        <ele>313.4</ele>
        <time>2020-08-08T09:59:54Z</time>
      </trkpt>
      <trkpt lat="41.0424300" lon="0.7327570">
        <ele>313.5</ele>
        <time>2020-08-08T09:59:55Z</time>
      </trkpt>
      <trkpt lat="41.0424180" lon="0.7327470">
        <ele>313.5</ele>
        <time>2020-08-08T09:59:56Z</time>
      </trkpt>
      <trkpt lat="41.0424080" lon="0.7327400">
        <ele>313.6</ele>
        <time>2020-08-08T09:59:57Z</time>
      </trkpt>
      <trkpt lat="41.0424010" lon="0.7327360">
        <ele>313.6</ele>
        <time>2020-08-08T09:59:59Z</time>
      </trkpt>
      <trkpt lat="41.0424010" lon="0.7327350">
        <ele>313.6</ele>
        <time>2020-08-08T10:00:00Z</time>
      </trkpt>
      <trkpt lat="41.0424020" lon="0.7327350">
        <ele>313.6</ele>
        <time>2020-08-08T10:00:01Z</time>
      </trkpt>
      <trkpt lat="41.0424030" lon="0.7327340">
        <ele>313.6</ele>
        <time>2020-08-08T10:00:02Z</time>
      </trkpt>
      <trkpt lat="41.0424050" lon="0.7327340">
        <ele>313.6</ele>
        <time>2020-08-08T10:00:04Z</time>
      </trkpt>
      <trkpt lat="41.0424060" lon="0.7327320">
        <ele>313.6</ele>
        <time>2020-08-08T10:00:09Z</time>
      </trkpt>
      <trkpt lat="41.0424680" lon="0.7327170">
        <ele>313.8</ele>
        <time>2020-08-08T10:00:15Z</time>
      </trkpt>
      <trkpt lat="41.0424170" lon="0.7327310">
        <ele>314.0</ele>
        <time>2020-08-08T10:00:17Z</time>
      </trkpt>
      <trkpt lat="41.0424080" lon="0.7327330">
        <ele>314.1</ele>
        <time>2020-08-08T10:00:19Z</time>
      </trkpt>
      <trkpt lat="41.0424060" lon="0.7327340">
        <ele>314.1</ele>
        <time>2020-08-08T10:00:21Z</time>
      </trkpt>
      <trkpt lat="41.0424060" lon="0.7327350">
        <ele>314.1</ele>
        <time>2020-08-08T10:00:23Z</time>
      </trkpt>
      <trkpt lat="41.0424060" lon="0.7327360">
        <ele>314.1</ele>
        <time>2020-08-08T10:00:24Z</time>
      </trkpt>
      <trkpt lat="41.0424060" lon="0.7327360">
        <ele>314.1</ele>
        <time>2020-08-08T10:00:26Z</time>
      </trkpt>
      <trkpt lat="41.0424070" lon="0.7327370">
        <ele>314.1</ele>
        <time>2020-08-08T10:00:28Z</time>
      </trkpt>
      <trkpt lat="41.0424070" lon="0.7327370">
        <ele>314.1</ele>
        <time>2020-08-08T10:00:30Z</time>
      </trkpt>
      <trkpt lat="41.0424070" lon="0.7327370">
        <ele>314.1</ele>
        <time>2020-08-08T10:00:31Z</time>
      </trkpt>
      <trkpt lat="41.0424070" lon="0.7327370">
        <ele>314.1</ele>
        <time>2020-08-08T10:00:33Z</time>
      </trkpt>
      <trkpt lat="41.0424070" lon="0.7327370">
        <ele>314.1</ele>
        <time>2020-08-08T10:00:34Z</time>
      </trkpt>
      <trkpt lat="41.0424070" lon="0.7327370">
        <ele>314.1</ele>
        <time>2020-08-08T10:00:36Z</time>
      </trkpt>
      <trkpt lat="41.0424070" lon="0.7327370">
        <ele>314.1</ele>
        <time>2020-08-08T10:00:38Z</time>
      </trkpt>
      <trkpt lat="41.0424070" lon="0.7327360">
        <ele>314.1</ele>
        <time>2020-08-08T10:00:39Z</time>
      </trkpt>
      <trkpt lat="41.0424070" lon="0.7327350">
        <ele>314.1</ele>
        <time>2020-08-08T10:00:42Z</time>
      </trkpt>
      <trkpt lat="41.0424070" lon="0.7327340">
        <ele>314.1</ele>
        <time>2020-08-08T10:00:44Z</time>
      </trkpt>
      <trkpt lat="41.0424070" lon="0.7327340">
        <ele>314.1</ele>
        <time>2020-08-08T10:00:45Z</time>
      </trkpt>
      <trkpt lat="41.0424070" lon="0.7327340">
        <ele>314.1</ele>
        <time>2020-08-08T10:00:46Z</time>
      </trkpt>
      <trkpt lat="41.0424080" lon="0.7327350">
        <ele>314.1</ele>
        <time>2020-08-08T10:00:49Z</time>
      </trkpt>
      <trkpt lat="41.0424070" lon="0.7327350">
        <ele>314.1</ele>
        <time>2020-08-08T10:00:50Z</time>
      </trkpt>
      <trkpt lat="41.0424070" lon="0.7327350">
        <ele>314.1</ele>
        <time>2020-08-08T10:00:52Z</time>
      </trkpt>
      <trkpt lat="41.0424070" lon="0.7327350">
        <ele>314.1</ele>
        <time>2020-08-08T10:00:53Z</time>
      </trkpt>
      <trkpt lat="41.0424070" lon="0.7327350">
        <ele>314.1</ele>
        <time>2020-08-08T10:00:54Z</time>
      </trkpt>
      <trkpt lat="41.0424050" lon="0.7327440">
        <ele>314.1</ele>
        <time>2020-08-08T10:00:55Z</time>
      </trkpt>
      <trkpt lat="41.0424050" lon="0.7327510">
        <ele>314.1</ele>
        <time>2020-08-08T10:00:56Z</time>
      </trkpt>
      <trkpt lat="41.0424030" lon="0.7327680">
        <ele>314.2</ele>
        <time>2020-08-08T10:00:57Z</time>
      </trkpt>
      <trkpt lat="41.0423980" lon="0.7328090">
        <ele>314.5</ele>
        <time>2020-08-08T10:00:59Z</time>
      </trkpt>
      <trkpt lat="41.0424160" lon="0.7328600">
        <ele>314.4</ele>
        <time>2020-08-08T10:01:01Z</time>
      </trkpt>
      <trkpt lat="41.0424220" lon="0.7328750">
        <ele>314.1</ele>
        <time>2020-08-08T10:01:02Z</time>
      </trkpt>
      <trkpt lat="41.0424290" lon="0.7328890">
        <ele>313.8</ele>
        <time>2020-08-08T10:01:03Z</time>
      </trkpt>
      <trkpt lat="41.0424300" lon="0.7329080">
        <ele>313.5</ele>
        <time>2020-08-08T10:01:04Z</time>
      </trkpt>
      <trkpt lat="41.0424290" lon="0.7329210">
        <ele>313.3</ele>
        <time>2020-08-08T10:01:05Z</time>
      </trkpt>
      <trkpt lat="41.0424290" lon="0.7329420">
        <ele>312.9</ele>
        <time>2020-08-08T10:01:07Z</time>
      </trkpt>
      <trkpt lat="41.0424330" lon="0.7329780">
        <ele>312.3</ele>
        <time>2020-08-08T10:01:09Z</time>
      </trkpt>
      <trkpt lat="41.0424340" lon="0.7329940">
        <ele>311.6</ele>
        <time>2020-08-08T10:01:10Z</time>
      </trkpt>
      <trkpt lat="41.0424340" lon="0.7330040">
        <ele>311.4</ele>
        <time>2020-08-08T10:01:11Z</time>
      </trkpt>
      <trkpt lat="41.0424310" lon="0.7330150">
        <ele>311.2</ele>
        <time>2020-08-08T10:01:13Z</time>
      </trkpt>
      <trkpt lat="41.0424270" lon="0.7330190">
        <ele>311.0</ele>
        <time>2020-08-08T10:01:15Z</time>
      </trkpt>
      <trkpt lat="41.0424250" lon="0.7330210">
        <ele>311.0</ele>
        <time>2020-08-08T10:01:16Z</time>
      </trkpt>
      <trkpt lat="41.0424250" lon="0.7330240">
        <ele>310.9</ele>
        <time>2020-08-08T10:01:18Z</time>
      </trkpt>
      <trkpt lat="41.0424260" lon="0.7330240">
        <ele>310.9</ele>
        <time>2020-08-08T10:01:20Z</time>
      </trkpt>
      <trkpt lat="41.0424260" lon="0.7330240">
        <ele>310.9</ele>
        <time>2020-08-08T10:01:21Z</time>
      </trkpt>
      <trkpt lat="41.0424280" lon="0.7330260">
        <ele>310.8</ele>
        <time>2020-08-08T10:01:22Z</time>
      </trkpt>
      <trkpt lat="41.0424290" lon="0.7330290">
        <ele>310.8</ele>
        <time>2020-08-08T10:01:23Z</time>
      </trkpt>
      <trkpt lat="41.0424300" lon="0.7330310">
        <ele>310.7</ele>
        <time>2020-08-08T10:01:25Z</time>
      </trkpt>
      <trkpt lat="41.0424300" lon="0.7330530">
        <ele>310.3</ele>
        <time>2020-08-08T10:02:15Z</time>
      </trkpt>
      <trkpt lat="41.0424330" lon="0.7330570">
        <ele>310.2</ele>
        <time>2020-08-08T10:02:16Z</time>
      </trkpt>
      <trkpt lat="41.0424340" lon="0.7330610">
        <ele>310.1</ele>
        <time>2020-08-08T10:02:17Z</time>
      </trkpt>
      <trkpt lat="41.0424360" lon="0.7330650">
        <ele>310.0</ele>
        <time>2020-08-08T10:02:19Z</time>
      </trkpt>
      <trkpt lat="41.0424390" lon="0.7330690">
        <ele>309.9</ele>
        <time>2020-08-08T10:02:20Z</time>
      </trkpt>
      <trkpt lat="41.0424490" lon="0.7330740">
        <ele>309.7</ele>
        <time>2020-08-08T10:02:22Z</time>
      </trkpt>
      <trkpt lat="41.0424570" lon="0.7330760">
        <ele>309.4</ele>
        <time>2020-08-08T10:02:23Z</time>
      </trkpt>
      <trkpt lat="41.0424740" lon="0.7330860">
        <ele>309.0</ele>
        <time>2020-08-08T10:02:25Z</time>
      </trkpt>
      <trkpt lat="41.0424820" lon="0.7330980">
        <ele>308.6</ele>
        <time>2020-08-08T10:02:26Z</time>
      </trkpt>
      <trkpt lat="41.0424910" lon="0.7331110">
        <ele>308.8</ele>
        <time>2020-08-08T10:02:27Z</time>
      </trkpt>
      <trkpt lat="41.0425070" lon="0.7331340">
        <ele>309.1</ele>
        <time>2020-08-08T10:02:29Z</time>
      </trkpt>
      <trkpt lat="41.0425130" lon="0.7331460">
        <ele>309.3</ele>
        <time>2020-08-08T10:02:30Z</time>
      </trkpt>
      <trkpt lat="41.0425150" lon="0.7331530">
        <ele>309.4</ele>
        <time>2020-08-08T10:02:31Z</time>
      </trkpt>
      <trkpt lat="41.0425150" lon="0.7331550">
        <ele>309.4</ele>
        <time>2020-08-08T10:02:32Z</time>
      </trkpt>
      <trkpt lat="41.0425160" lon="0.7331570">
        <ele>309.4</ele>
        <time>2020-08-08T10:02:33Z</time>
      </trkpt>
      <trkpt lat="41.0425110" lon="0.7331460">
        <ele>309.6</ele>
        <time>2020-08-08T10:02:35Z</time>
      </trkpt>
      <trkpt lat="41.0425090" lon="0.7331420">
        <ele>309.6</ele>
        <time>2020-08-08T10:02:36Z</time>
      </trkpt>
      <trkpt lat="41.0425060" lon="0.7331370">
        <ele>309.7</ele>
        <time>2020-08-08T10:02:38Z</time>
      </trkpt>
      <trkpt lat="41.0424940" lon="0.7331200">
        <ele>309.9</ele>
        <time>2020-08-08T10:02:39Z</time>
      </trkpt>
      <trkpt lat="41.0424800" lon="0.7330970">
        <ele>310.3</ele>
        <time>2020-08-08T10:02:41Z</time>
      </trkpt>
      <trkpt lat="41.0424760" lon="0.7330890">
        <ele>310.4</ele>
        <time>2020-08-08T10:02:42Z</time>
      </trkpt>
      <trkpt lat="41.0424740" lon="0.7330850">
        <ele>310.4</ele>
        <time>2020-08-08T10:02:44Z</time>
      </trkpt>
      <trkpt lat="41.0424730" lon="0.7330870">
        <ele>310.5</ele>
        <time>2020-08-08T10:02:45Z</time>
      </trkpt>
      <trkpt lat="41.0424720" lon="0.7330890">
        <ele>310.5</ele>
        <time>2020-08-08T10:02:47Z</time>
      </trkpt>
      <trkpt lat="41.0424670" lon="0.7330900">
        <ele>310.6</ele>
        <time>2020-08-08T10:02:56Z</time>
      </trkpt>
      <trkpt lat="41.0424550" lon="0.7330490">
        <ele>311.0</ele>
        <time>2020-08-08T10:03:18Z</time>
      </trkpt>
      <trkpt lat="41.0424490" lon="0.7330350">
        <ele>311.2</ele>
        <time>2020-08-08T10:03:19Z</time>
      </trkpt>
      <trkpt lat="41.0424420" lon="0.7330220">
        <ele>311.4</ele>
        <time>2020-08-08T10:03:20Z</time>
      </trkpt>
      <trkpt lat="41.0424330" lon="0.7330110">
        <ele>311.6</ele>
        <time>2020-08-08T10:03:21Z</time>
      </trkpt>
      <trkpt lat="41.0424230" lon="0.7330030">
        <ele>311.8</ele>
        <time>2020-08-08T10:03:22Z</time>
      </trkpt>
      <trkpt lat="41.0423980" lon="0.7330060">
        <ele>312.1</ele>
        <time>2020-08-08T10:03:24Z</time>
      </trkpt>
      <trkpt lat="41.0423810" lon="0.7330130">
        <ele>311.8</ele>
        <time>2020-08-08T10:03:25Z</time>
      </trkpt>
      <trkpt lat="41.0423430" lon="0.7330330">
        <ele>311.5</ele>
        <time>2020-08-08T10:03:27Z</time>
      </trkpt>
      <trkpt lat="41.0423090" lon="0.7330550">
        <ele>311.3</ele>
        <time>2020-08-08T10:03:28Z</time>
      </trkpt>
      <trkpt lat="41.0422990" lon="0.7330620">
        <ele>311.3</ele>
        <time>2020-08-08T10:03:29Z</time>
      </trkpt>
      <trkpt lat="41.0422870" lon="0.7330780">
        <ele>311.4</ele>
        <time>2020-08-08T10:03:31Z</time>
      </trkpt>
      <trkpt lat="41.0422850" lon="0.7330960">
        <ele>311.4</ele>
        <time>2020-08-08T10:03:33Z</time>
      </trkpt>
      <trkpt lat="41.0422840" lon="0.7331030">
        <ele>311.4</ele>
        <time>2020-08-08T10:03:35Z</time>
      </trkpt>
      <trkpt lat="41.0422840" lon="0.7331020">
        <ele>311.4</ele>
        <time>2020-08-08T10:03:36Z</time>
      </trkpt>
      <trkpt lat="41.0422830" lon="0.7331010">
        <ele>311.4</ele>
        <time>2020-08-08T10:03:37Z</time>
      </trkpt>
      <trkpt lat="41.0422840" lon="0.7331020">
        <ele>311.4</ele>
        <time>2020-08-08T10:03:39Z</time>
      </trkpt>
      <trkpt lat="41.0422820" lon="0.7331040">
        <ele>311.4</ele>
        <time>2020-08-08T10:03:40Z</time>
      </trkpt>
      <trkpt lat="41.0422810" lon="0.7331050">
        <ele>311.4</ele>
        <time>2020-08-08T10:03:41Z</time>
      </trkpt>
      <trkpt lat="41.0422790" lon="0.7331060">
        <ele>311.4</ele>
        <time>2020-08-08T10:03:43Z</time>
      </trkpt>
      <trkpt lat="41.0422790" lon="0.7331060">
        <ele>311.4</ele>
        <time>2020-08-08T10:03:44Z</time>
      </trkpt>
      <trkpt lat="41.0422790" lon="0.7331060">
        <ele>311.4</ele>
        <time>2020-08-08T10:03:46Z</time>
      </trkpt>
      <trkpt lat="41.0422870" lon="0.7331340">
        <ele>311.5</ele>
        <time>2020-08-08T10:12:01Z</time>
      </trkpt>
      <trkpt lat="41.0422870" lon="0.7331400">
        <ele>311.5</ele>
        <time>2020-08-08T10:12:02Z</time>
      </trkpt>
      <trkpt lat="41.0422840" lon="0.7331400">
        <ele>311.5</ele>
        <time>2020-08-08T10:12:04Z</time>
      </trkpt>
      <trkpt lat="41.0422800" lon="0.7331280">
        <ele>311.5</ele>
        <time>2020-08-08T10:12:06Z</time>
      </trkpt>
      <trkpt lat="41.0422760" lon="0.7331190">
        <ele>311.5</ele>
        <time>2020-08-08T10:12:08Z</time>
      </trkpt>
      <trkpt lat="41.0422710" lon="0.7331130">
        <ele>311.5</ele>
        <time>2020-08-08T10:12:09Z</time>
      </trkpt>
      <trkpt lat="41.0422600" lon="0.7331110">
        <ele>312.2</ele>
        <time>2020-08-08T10:12:11Z</time>
      </trkpt>
      <trkpt lat="41.0422500" lon="0.7331120">
        <ele>312.3</ele>
        <time>2020-08-08T10:12:12Z</time>
      </trkpt>
      <trkpt lat="41.0421740" lon="0.7331340">
        <ele>313.0</ele>
        <time>2020-08-08T10:12:20Z</time>
      </trkpt>
      <trkpt lat="41.0421050" lon="0.7331680">
        <ele>313.5</ele>
        <time>2020-08-08T10:12:22Z</time>
      </trkpt>
      <trkpt lat="41.0420870" lon="0.7331790">
        <ele>313.6</ele>
        <time>2020-08-08T10:12:23Z</time>
      </trkpt>
      <trkpt lat="41.0420730" lon="0.7331930">
        <ele>313.7</ele>
        <time>2020-08-08T10:12:25Z</time>
      </trkpt>
      <trkpt lat="41.0420670" lon="0.7332150">
        <ele>313.8</ele>
        <time>2020-08-08T10:12:27Z</time>
      </trkpt>
      <trkpt lat="41.0420700" lon="0.7332170">
        <ele>313.8</ele>
        <time>2020-08-08T10:12:29Z</time>
      </trkpt>
      <trkpt lat="41.0420730" lon="0.7332180">
        <ele>313.8</ele>
        <time>2020-08-08T10:12:31Z</time>
      </trkpt>
      <trkpt lat="41.0420740" lon="0.7332170">
        <ele>313.8</ele>
        <time>2020-08-08T10:12:32Z</time>
      </trkpt>
      <trkpt lat="41.0420750" lon="0.7332170">
        <ele>313.8</ele>
        <time>2020-08-08T10:12:33Z</time>
      </trkpt>
      <trkpt lat="41.0420750" lon="0.7332170">
        <ele>313.8</ele>
        <time>2020-08-08T10:12:35Z</time>
      </trkpt>
      <trkpt lat="41.0420750" lon="0.7332150">
        <ele>313.8</ele>
        <time>2020-08-08T10:12:37Z</time>
      </trkpt>
      <trkpt lat="41.0420710" lon="0.7332290">
        <ele>313.9</ele>
        <time>2020-08-08T10:12:56Z</time>
      </trkpt>
      <trkpt lat="41.0420480" lon="0.7332450">
        <ele>314.0</ele>
        <time>2020-08-08T10:12:58Z</time>
      </trkpt>
      <trkpt lat="41.0420310" lon="0.7332530">
        <ele>314.1</ele>
        <time>2020-08-08T10:13:00Z</time>
      </trkpt>
      <trkpt lat="41.0420260" lon="0.7332540">
        <ele>314.1</ele>
        <time>2020-08-08T10:13:02Z</time>
      </trkpt>
      <trkpt lat="41.0420200" lon="0.7332530">
        <ele>314.1</ele>
        <time>2020-08-08T10:13:04Z</time>
      </trkpt>
      <trkpt lat="41.0420180" lon="0.7332520">
        <ele>314.1</ele>
        <time>2020-08-08T10:13:05Z</time>
      </trkpt>
      <trkpt lat="41.0420170" lon="0.7332520">
        <ele>314.1</ele>
        <time>2020-08-08T10:13:07Z</time>
      </trkpt>
      <trkpt lat="41.0420200" lon="0.7332530">
        <ele>314.1</ele>
        <time>2020-08-08T10:13:08Z</time>
      </trkpt>
      <trkpt lat="41.0420220" lon="0.7332530">
        <ele>314.1</ele>
        <time>2020-08-08T10:13:09Z</time>
      </trkpt>
      <trkpt lat="41.0420250" lon="0.7332540">
        <ele>314.2</ele>
        <time>2020-08-08T10:13:11Z</time>
      </trkpt>
      <trkpt lat="41.0420260" lon="0.7332550">
        <ele>314.2</ele>
        <time>2020-08-08T10:13:12Z</time>
      </trkpt>
      <trkpt lat="41.0420270" lon="0.7332550">
        <ele>314.2</ele>
        <time>2020-08-08T10:13:13Z</time>
      </trkpt>
      <trkpt lat="41.0420270" lon="0.7332550">
        <ele>314.2</ele>
        <time>2020-08-08T10:13:14Z</time>
      </trkpt>
      <trkpt lat="41.0419600" lon="0.7332160">
        <ele>314.4</ele>
        <time>2020-08-08T10:14:27Z</time>
      </trkpt>
      <trkpt lat="41.0419370" lon="0.7332110">
        <ele>314.4</ele>
        <time>2020-08-08T10:14:28Z</time>
      </trkpt>
      <trkpt lat="41.0419000" lon="0.7331980">
        <ele>314.4</ele>
        <time>2020-08-08T10:14:30Z</time>
      </trkpt>
      <trkpt lat="41.0418950" lon="0.7331940">
        <ele>314.4</ele>
        <time>2020-08-08T10:14:31Z</time>
      </trkpt>
      <trkpt lat="41.0419060" lon="0.7331870">
        <ele>314.4</ele>
        <time>2020-08-08T10:14:33Z</time>
      </trkpt>
      <trkpt lat="41.0419200" lon="0.7331870">
        <ele>314.4</ele>
        <time>2020-08-08T10:14:34Z</time>
      </trkpt>
      <trkpt lat="41.0419440" lon="0.7331880">
        <ele>314.4</ele>
        <time>2020-08-08T10:14:36Z</time>
      </trkpt>
      <trkpt lat="41.0419550" lon="0.7331900">
        <ele>314.4</ele>
        <time>2020-08-08T10:14:37Z</time>
      </trkpt>
      <trkpt lat="41.0419650" lon="0.7331920">
        <ele>314.4</ele>
        <time>2020-08-08T10:14:38Z</time>
      </trkpt>
      <trkpt lat="41.0419780" lon="0.7331950">
        <ele>314.4</ele>
        <time>2020-08-08T10:14:40Z</time>
      </trkpt>
      <trkpt lat="41.0419820" lon="0.7331970">
        <ele>314.4</ele>
        <time>2020-08-08T10:14:42Z</time>
      </trkpt>
      <trkpt lat="41.0419850" lon="0.7331970">
        <ele>314.4</ele>
        <time>2020-08-08T10:14:43Z</time>
      </trkpt>
      <trkpt lat="41.0419880" lon="0.7331980">
        <ele>314.4</ele>
        <time>2020-08-08T10:14:44Z</time>
      </trkpt>
      <trkpt lat="41.0419910" lon="0.7331980">
        <ele>314.4</ele>
        <time>2020-08-08T10:14:45Z</time>
      </trkpt>
      <trkpt lat="41.0420010" lon="0.7332010">
        <ele>314.4</ele>
        <time>2020-08-08T10:14:47Z</time>
      </trkpt>
      <trkpt lat="41.0420070" lon="0.7332030">
        <ele>314.4</ele>
        <time>2020-08-08T10:14:48Z</time>
      </trkpt>
      <trkpt lat="41.0420130" lon="0.7332050">
        <ele>314.4</ele>
        <time>2020-08-08T10:14:49Z</time>
      </trkpt>
      <trkpt lat="41.0420170" lon="0.7332060">
        <ele>314.4</ele>
        <time>2020-08-08T10:14:50Z</time>
      </trkpt>
      <trkpt lat="41.0420200" lon="0.7332070">
        <ele>314.4</ele>
        <time>2020-08-08T10:14:52Z</time>
      </trkpt>
      <trkpt lat="41.0420210" lon="0.7332070">
        <ele>314.4</ele>
        <time>2020-08-08T10:14:54Z</time>
      </trkpt>
      <trkpt lat="41.0420210" lon="0.7332070">
        <ele>314.4</ele>
        <time>2020-08-08T10:14:55Z</time>
      </trkpt>
      <trkpt lat="41.0420210" lon="0.7332070">
        <ele>314.4</ele>
        <time>2020-08-08T10:14:57Z</time>
      </trkpt>
      <trkpt lat="41.0420220" lon="0.7332070">
        <ele>314.4</ele>
        <time>2020-08-08T10:14:59Z</time>
      </trkpt>
      <trkpt lat="41.0420230" lon="0.7332070">
        <ele>314.4</ele>
        <time>2020-08-08T10:15:01Z</time>
      </trkpt>
      <trkpt lat="41.0420620" lon="0.7332120">
        <ele>314.4</ele>
        <time>2020-08-08T10:18:13Z</time>
      </trkpt>
      <trkpt lat="41.0420690" lon="0.7332110">
        <ele>314.4</ele>
        <time>2020-08-08T10:18:14Z</time>
      </trkpt>
      <trkpt lat="41.0420790" lon="0.7332110">
        <ele>314.4</ele>
        <time>2020-08-08T10:18:16Z</time>
      </trkpt>
      <trkpt lat="41.0420790" lon="0.7332130">
        <ele>314.4</ele>
        <time>2020-08-08T10:18:17Z</time>
      </trkpt>
      <trkpt lat="41.0420800" lon="0.7332160">
        <ele>314.4</ele>
        <time>2020-08-08T10:18:19Z</time>
      </trkpt>
      <trkpt lat="41.0420820" lon="0.7332170">
        <ele>314.4</ele>
        <time>2020-08-08T10:18:20Z</time>
      </trkpt>
      <trkpt lat="41.0420880" lon="0.7332180">
        <ele>314.4</ele>
        <time>2020-08-08T10:18:22Z</time>
      </trkpt>
      <trkpt lat="41.0420910" lon="0.7332180">
        <ele>314.4</ele>
        <time>2020-08-08T10:18:23Z</time>
      </trkpt>
      <trkpt lat="41.0420950" lon="0.7332210">
        <ele>314.4</ele>
        <time>2020-08-08T10:18:25Z</time>
      </trkpt>
      <trkpt lat="41.0420930" lon="0.7332230">
        <ele>314.4</ele>
        <time>2020-08-08T10:18:27Z</time>
      </trkpt>
      <trkpt lat="41.0421040" lon="0.7331760">
        <ele>314.4</ele>
        <time>2020-08-08T10:19:11Z</time>
      </trkpt>
      <trkpt lat="41.0421000" lon="0.7331760">
        <ele>314.4</ele>
        <time>2020-08-08T10:19:12Z</time>
      </trkpt>
      <trkpt lat="41.0420920" lon="0.7331810">
        <ele>314.5</ele>
        <time>2020-08-08T10:19:14Z</time>
      </trkpt>
      <trkpt lat="41.0420860" lon="0.7331840">
        <ele>314.5</ele>
        <time>2020-08-08T10:19:15Z</time>
      </trkpt>
      <trkpt lat="41.0420780" lon="0.7331880">
        <ele>314.5</ele>
        <time>2020-08-08T10:19:16Z</time>
      </trkpt>
      <trkpt lat="41.0420730" lon="0.7331970">
        <ele>314.5</ele>
        <time>2020-08-08T10:19:18Z</time>
      </trkpt>
      <trkpt lat="41.0420710" lon="0.7332160">
        <ele>314.5</ele>
        <time>2020-08-08T10:19:20Z</time>
      </trkpt>
      <trkpt lat="41.0420620" lon="0.7332290">
        <ele>314.5</ele>
        <time>2020-08-08T10:19:21Z</time>
      </trkpt>
      <trkpt lat="41.0420460" lon="0.7332410">
        <ele>314.5</ele>
        <time>2020-08-08T10:19:22Z</time>
      </trkpt>
      <trkpt lat="41.0420160" lon="0.7332520">
        <ele>314.5</ele>
        <time>2020-08-08T10:19:24Z</time>
      </trkpt>
      <trkpt lat="41.0419990" lon="0.7332520">
        <ele>314.5</ele>
        <time>2020-08-08T10:19:25Z</time>
      </trkpt>
      <trkpt lat="41.0419840" lon="0.7332520">
        <ele>314.5</ele>
        <time>2020-08-08T10:19:26Z</time>
      </trkpt>
      <trkpt lat="41.0419460" lon="0.7332620">
        <ele>314.5</ele>
        <time>2020-08-08T10:19:28Z</time>
      </trkpt>
      <trkpt lat="41.0419350" lon="0.7332650">
        <ele>314.5</ele>
        <time>2020-08-08T10:19:29Z</time>
      </trkpt>
      <trkpt lat="41.0419250" lon="0.7332690">
        <ele>314.5</ele>
        <time>2020-08-08T10:19:30Z</time>
      </trkpt>
      <trkpt lat="41.0419140" lon="0.7332720">
        <ele>314.5</ele>
        <time>2020-08-08T10:19:31Z</time>
      </trkpt>
      <trkpt lat="41.0418980" lon="0.7332820">
        <ele>314.5</ele>
        <time>2020-08-08T10:19:32Z</time>
      </trkpt>
      <trkpt lat="41.0418820" lon="0.7332960">
        <ele>314.5</ele>
        <time>2020-08-08T10:19:33Z</time>
      </trkpt>
      <trkpt lat="41.0418650" lon="0.7333180">
        <ele>314.5</ele>
        <time>2020-08-08T10:19:35Z</time>
      </trkpt>
      <trkpt lat="41.0418630" lon="0.7333290">
        <ele>314.5</ele>
        <time>2020-08-08T10:19:37Z</time>
      </trkpt>
      <trkpt lat="41.0418640" lon="0.7333320">
        <ele>314.5</ele>
        <time>2020-08-08T10:19:38Z</time>
      </trkpt>
      <trkpt lat="41.0418690" lon="0.7333320">
        <ele>314.5</ele>
        <time>2020-08-08T10:19:39Z</time>
      </trkpt>
      <trkpt lat="41.0418740" lon="0.7333290">
        <ele>314.5</ele>
        <time>2020-08-08T10:19:40Z</time>
      </trkpt>
      <trkpt lat="41.0418780" lon="0.7333240">
        <ele>314.5</ele>
        <time>2020-08-08T10:19:41Z</time>
      </trkpt>
      <trkpt lat="41.0418810" lon="0.7333170">
        <ele>314.5</ele>
        <time>2020-08-08T10:19:43Z</time>
      </trkpt>
      <trkpt lat="41.0418810" lon="0.7333140">
        <ele>314.5</ele>
        <time>2020-08-08T10:19:44Z</time>
      </trkpt>
      <trkpt lat="41.0418800" lon="0.7333150">
        <ele>314.5</ele>
        <time>2020-08-08T10:19:46Z</time>
      </trkpt>
      <trkpt lat="41.0418790" lon="0.7333180">
        <ele>314.5</ele>
        <time>2020-08-08T10:19:47Z</time>
      </trkpt>
      <trkpt lat="41.0418790" lon="0.7333240">
        <ele>314.5</ele>
        <time>2020-08-08T10:19:49Z</time>
      </trkpt>
      <trkpt lat="41.0418790" lon="0.7333250">
        <ele>314.5</ele>
        <time>2020-08-08T10:19:51Z</time>
      </trkpt>
      <trkpt lat="41.0418790" lon="0.7333260">
        <ele>314.5</ele>
        <time>2020-08-08T10:19:52Z</time>
      </trkpt>
      <trkpt lat="41.0418790" lon="0.7333260">
        <ele>314.5</ele>
        <time>2020-08-08T10:19:53Z</time>
      </trkpt>
      <trkpt lat="41.0418230" lon="0.7333300">
        <ele>314.5</ele>
        <time>2020-08-08T10:20:16Z</time>
      </trkpt>
      <trkpt lat="41.0418050" lon="0.7333340">
        <ele>314.5</ele>
        <time>2020-08-08T10:20:17Z</time>
      </trkpt>
      <trkpt lat="41.0417900" lon="0.7333600">
        <ele>314.5</ele>
        <time>2020-08-08T10:20:19Z</time>
      </trkpt>
      <trkpt lat="41.0418290" lon="0.7333800">
        <ele>314.5</ele>
        <time>2020-08-08T10:20:21Z</time>
      </trkpt>
      <trkpt lat="41.0418770" lon="0.7333660">
        <ele>314.5</ele>
        <time>2020-08-08T10:20:23Z</time>
      </trkpt>
      <trkpt lat="41.0418970" lon="0.7333570">
        <ele>314.5</ele>
        <time>2020-08-08T10:20:24Z</time>
      </trkpt>
      <trkpt lat="41.0419440" lon="0.7333320">
        <ele>314.5</ele>
        <time>2020-08-08T10:20:26Z</time>
      </trkpt>
      <trkpt lat="41.0419630" lon="0.7333230">
        <ele>314.5</ele>
        <time>2020-08-08T10:20:27Z</time>
      </trkpt>
      <trkpt lat="41.0419660" lon="0.7333190">
        <ele>314.5</ele>
        <time>2020-08-08T10:20:28Z</time>
      </trkpt>
      <trkpt lat="41.0419690" lon="0.7333030">
        <ele>314.5</ele>
        <time>2020-08-08T10:20:30Z</time>
      </trkpt>
      <trkpt lat="41.0419700" lon="0.7332960">
        <ele>314.5</ele>
        <time>2020-08-08T10:20:31Z</time>
      </trkpt>
      <trkpt lat="41.0419680" lon="0.7332920">
        <ele>314.5</ele>
        <time>2020-08-08T10:20:33Z</time>
      </trkpt>
      <trkpt lat="41.0419670" lon="0.7332790">
        <ele>314.5</ele>
        <time>2020-08-08T10:20:35Z</time>
      </trkpt>
      <trkpt lat="41.0419560" lon="0.7332580">
        <ele>314.5</ele>
        <time>2020-08-08T10:20:37Z</time>
      </trkpt>
      <trkpt lat="41.0419520" lon="0.7332530">
        <ele>314.5</ele>
        <time>2020-08-08T10:20:38Z</time>
      </trkpt>
      <trkpt lat="41.0419450" lon="0.7332480">
        <ele>314.5</ele>
        <time>2020-08-08T10:20:39Z</time>
      </trkpt>
      <trkpt lat="41.0419390" lon="0.7332440">
        <ele>314.5</ele>
        <time>2020-08-08T10:20:40Z</time>
      </trkpt>
      <trkpt lat="41.0419320" lon="0.7332380">
        <ele>314.5</ele>
        <time>2020-08-08T10:20:41Z</time>
      </trkpt>
      <trkpt lat="41.0419210" lon="0.7332310">
        <ele>314.5</ele>
        <time>2020-08-08T10:20:43Z</time>
      </trkpt>
      <trkpt lat="41.0419120" lon="0.7332270">
        <ele>314.5</ele>
        <time>2020-08-08T10:20:44Z</time>
      </trkpt>
      <trkpt lat="41.0419030" lon="0.7332220">
        <ele>314.5</ele>
        <time>2020-08-08T10:20:45Z</time>
      </trkpt>
      <trkpt lat="41.0418820" lon="0.7332110">
        <ele>314.5</ele>
        <time>2020-08-08T10:20:47Z</time>
      </trkpt>
      <trkpt lat="41.0418720" lon="0.7332040">
        <ele>314.5</ele>
        <time>2020-08-08T10:20:48Z</time>
      </trkpt>
      <trkpt lat="41.0418590" lon="0.7331980">
        <ele>314.5</ele>
        <time>2020-08-08T10:20:50Z</time>
      </trkpt>
      <trkpt lat="41.0418550" lon="0.7331970">
        <ele>314.5</ele>
        <time>2020-08-08T10:20:51Z</time>
      </trkpt>
      <trkpt lat="41.0418410" lon="0.7331910">
        <ele>314.5</ele>
        <time>2020-08-08T10:20:53Z</time>
      </trkpt>
      <trkpt lat="41.0418210" lon="0.7331750">
        <ele>314.5</ele>
        <time>2020-08-08T10:20:55Z</time>
      </trkpt>
      <trkpt lat="41.0418140" lon="0.7331690">
        <ele>314.5</ele>
        <time>2020-08-08T10:20:56Z</time>
      </trkpt>
      <trkpt lat="41.0418120" lon="0.7331650">
        <ele>314.5</ele>
        <time>2020-08-08T10:20:57Z</time>
      </trkpt>
      <trkpt lat="41.0418180" lon="0.7331650">
        <ele>314.5</ele>
        <time>2020-08-08T10:20:59Z</time>
      </trkpt>
      <trkpt lat="41.0418220" lon="0.7331650">
        <ele>314.5</ele>
        <time>2020-08-08T10:21:00Z</time>
      </trkpt>
      <trkpt lat="41.0418210" lon="0.7331630">
        <ele>314.5</ele>
        <time>2020-08-08T10:21:02Z</time>
      </trkpt>
      <trkpt lat="41.0418170" lon="0.7331620">
        <ele>314.5</ele>
        <time>2020-08-08T10:21:04Z</time>
      </trkpt>
      <trkpt lat="41.0418170" lon="0.7331630">
        <ele>314.5</ele>
        <time>2020-08-08T10:21:05Z</time>
      </trkpt>
      <trkpt lat="41.0418180" lon="0.7331640">
        <ele>314.5</ele>
        <time>2020-08-08T10:21:06Z</time>
      </trkpt>
      <trkpt lat="41.0418190" lon="0.7331650">
        <ele>314.5</ele>
        <time>2020-08-08T10:21:08Z</time>
      </trkpt>
      <trkpt lat="41.0418720" lon="0.7331750">
        <ele>314.4</ele>
        <time>2020-08-08T10:23:01Z</time>
      </trkpt>
      <trkpt lat="41.0419050" lon="0.7331810">
        <ele>314.4</ele>
        <time>2020-08-08T10:23:03Z</time>
      </trkpt>
      <trkpt lat="41.0419240" lon="0.7331850">
        <ele>314.4</ele>
        <time>2020-08-08T10:23:04Z</time>
      </trkpt>
      <trkpt lat="41.0419410" lon="0.7331840">
        <ele>314.4</ele>
        <time>2020-08-08T10:23:05Z</time>
      </trkpt>
      <trkpt lat="41.0419570" lon="0.7331820">
        <ele>314.3</ele>
        <time>2020-08-08T10:23:06Z</time>
      </trkpt>
      <trkpt lat="41.0419850" lon="0.7331780">
        <ele>314.2</ele>
        <time>2020-08-08T10:23:08Z</time>
      </trkpt>
      <trkpt lat="41.0420210" lon="0.7331750">
        <ele>314.1</ele>
        <time>2020-08-08T10:23:10Z</time>
      </trkpt>
      <trkpt lat="41.0420380" lon="0.7331730">
        <ele>314.0</ele>
        <time>2020-08-08T10:23:11Z</time>
      </trkpt>
      <trkpt lat="41.0420550" lon="0.7331690">
        <ele>313.9</ele>
        <time>2020-08-08T10:23:12Z</time>
      </trkpt>
      <trkpt lat="41.0420870" lon="0.7331680">
        <ele>313.7</ele>
        <time>2020-08-08T10:23:14Z</time>
      </trkpt>
      <trkpt lat="41.0421180" lon="0.7331840">
        <ele>313.5</ele>
        <time>2020-08-08T10:23:16Z</time>
      </trkpt>
      <trkpt lat="41.0421380" lon="0.7331970">
        <ele>313.3</ele>
        <time>2020-08-08T10:23:18Z</time>
      </trkpt>
      <trkpt lat="41.0421450" lon="0.7332020">
        <ele>313.2</ele>
        <time>2020-08-08T10:23:19Z</time>
      </trkpt>
      <trkpt lat="41.0421680" lon="0.7332100">
        <ele>313.0</ele>
        <time>2020-08-08T10:23:21Z</time>
      </trkpt>
      <trkpt lat="41.0421870" lon="0.7332210">
        <ele>312.9</ele>
        <time>2020-08-08T10:23:23Z</time>
      </trkpt>
      <trkpt lat="41.0421920" lon="0.7332260">
        <ele>312.8</ele>
        <time>2020-08-08T10:23:24Z</time>
      </trkpt>
      <trkpt lat="41.0422060" lon="0.7332480">
        <ele>311.7</ele>
        <time>2020-08-08T10:23:26Z</time>
      </trkpt>
      <trkpt lat="41.0422130" lon="0.7332550">
        <ele>310.7</ele>
        <time>2020-08-08T10:23:27Z</time>
      </trkpt>
      <trkpt lat="41.0422170" lon="0.7332590">
        <ele>310.7</ele>
        <time>2020-08-08T10:23:28Z</time>
      </trkpt>
      <trkpt lat="41.0422190" lon="0.7332600">
        <ele>310.7</ele>
        <time>2020-08-08T10:23:29Z</time>
      </trkpt>
      <trkpt lat="41.0422200" lon="0.7332600">
        <ele>310.7</ele>
        <time>2020-08-08T10:23:30Z</time>
      </trkpt>
      <trkpt lat="41.0422200" lon="0.7332560">
        <ele>310.7</ele>
        <time>2020-08-08T10:23:32Z</time>
      </trkpt>
      <trkpt lat="41.0422220" lon="0.7332540">
        <ele>310.6</ele>
        <time>2020-08-08T10:23:34Z</time>
      </trkpt>
      <trkpt lat="41.0422230" lon="0.7332550">
        <ele>310.6</ele>
        <time>2020-08-08T10:23:35Z</time>
      </trkpt>
      <trkpt lat="41.0422240" lon="0.7332550">
        <ele>310.6</ele>
        <time>2020-08-08T10:23:36Z</time>
      </trkpt>
      <trkpt lat="41.0422240" lon="0.7332560">
        <ele>310.6</ele>
        <time>2020-08-08T10:23:37Z</time>
      </trkpt>
      <trkpt lat="41.0422250" lon="0.7332570">
        <ele>310.6</ele>
        <time>2020-08-08T10:23:38Z</time>
      </trkpt>
      <trkpt lat="41.0422250" lon="0.7332590">
        <ele>310.6</ele>
        <time>2020-08-08T10:23:40Z</time>
      </trkpt>
      <trkpt lat="41.0422210" lon="0.7332980">
        <ele>310.4</ele>
        <time>2020-08-08T10:23:54Z</time>
      </trkpt>
      <trkpt lat="41.0422190" lon="0.7333240">
        <ele>309.9</ele>
        <time>2020-08-08T10:23:55Z</time>
      </trkpt>
      <trkpt lat="41.0422220" lon="0.7333790">
        <ele>309.8</ele>
        <time>2020-08-08T10:23:57Z</time>
      </trkpt>
      <trkpt lat="41.0422280" lon="0.7334040">
        <ele>309.2</ele>
        <time>2020-08-08T10:23:58Z</time>
      </trkpt>
      <trkpt lat="41.0422450" lon="0.7334570">
        <ele>308.6</ele>
        <time>2020-08-08T10:24:00Z</time>
      </trkpt>
      <trkpt lat="41.0422580" lon="0.7334820">
        <ele>308.3</ele>
        <time>2020-08-08T10:24:01Z</time>
      </trkpt>
      <trkpt lat="41.0422890" lon="0.7335150">
        <ele>307.5</ele>
        <time>2020-08-08T10:24:03Z</time>
      </trkpt>
      <trkpt lat="41.0423080" lon="0.7335250">
        <ele>307.3</ele>
        <time>2020-08-08T10:24:04Z</time>
      </trkpt>
      <trkpt lat="41.0423410" lon="0.7335450">
        <ele>307.0</ele>
        <time>2020-08-08T10:24:06Z</time>
      </trkpt>
      <trkpt lat="41.0423530" lon="0.7335550">
        <ele>307.0</ele>
        <time>2020-08-08T10:24:07Z</time>
      </trkpt>
      <trkpt lat="41.0423620" lon="0.7335600">
        <ele>306.8</ele>
        <time>2020-08-08T10:24:08Z</time>
      </trkpt>
      <trkpt lat="41.0423740" lon="0.7335630">
        <ele>306.5</ele>
        <time>2020-08-08T10:24:10Z</time>
      </trkpt>
      <trkpt lat="41.0423870" lon="0.7335670">
        <ele>306.3</ele>
        <time>2020-08-08T10:24:12Z</time>
      </trkpt>
      <trkpt lat="41.0423910" lon="0.7335730">
        <ele>306.1</ele>
        <time>2020-08-08T10:24:13Z</time>
      </trkpt>
      <trkpt lat="41.0423950" lon="0.7335790">
        <ele>306.0</ele>
        <time>2020-08-08T10:24:14Z</time>
      </trkpt>
      <trkpt lat="41.0423990" lon="0.7335850">
        <ele>305.9</ele>
        <time>2020-08-08T10:24:16Z</time>
      </trkpt>
      <trkpt lat="41.0424030" lon="0.7335910">
        <ele>305.8</ele>
        <time>2020-08-08T10:24:17Z</time>
      </trkpt>
      <trkpt lat="41.0424070" lon="0.7335970">
        <ele>305.7</ele>
        <time>2020-08-08T10:24:19Z</time>
      </trkpt>
      <trkpt lat="41.0424110" lon="0.7336030">
        <ele>305.6</ele>
        <time>2020-08-08T10:24:20Z</time>
      </trkpt>
      <trkpt lat="41.0424160" lon="0.7336100">
        <ele>305.4</ele>
        <time>2020-08-08T10:24:21Z</time>
      </trkpt>
      <trkpt lat="41.0424200" lon="0.7336160">
        <ele>305.3</ele>
        <time>2020-08-08T10:24:23Z</time>
      </trkpt>
      <trkpt lat="41.0424240" lon="0.7336220">
        <ele>305.2</ele>
        <time>2020-08-08T10:24:24Z</time>
      </trkpt>
      <trkpt lat="41.0424280" lon="0.7336280">
        <ele>305.1</ele>
        <time>2020-08-08T10:24:27Z</time>
      </trkpt>
      <trkpt lat="41.0424320" lon="0.7336340">
        <ele>305.0</ele>
        <time>2020-08-08T10:24:28Z</time>
      </trkpt>
      <trkpt lat="41.0424360" lon="0.7336400">
        <ele>304.8</ele>
        <time>2020-08-08T10:24:30Z</time>
      </trkpt>
      <trkpt lat="41.0424400" lon="0.7336460">
        <ele>304.7</ele>
        <time>2020-08-08T10:24:35Z</time>
      </trkpt>
      <trkpt lat="41.0424440" lon="0.7336520">
        <ele>304.6</ele>
        <time>2020-08-08T10:24:36Z</time>
      </trkpt>
      <trkpt lat="41.0424670" lon="0.7336730">
        <ele>304.1</ele>
        <time>2020-08-08T10:24:37Z</time>
      </trkpt>
      <trkpt lat="41.0425110" lon="0.7337150">
        <ele>303.0</ele>
        <time>2020-08-08T10:24:39Z</time>
      </trkpt>
      <trkpt lat="41.0425600" lon="0.7337610">
        <ele>302.0</ele>
        <time>2020-08-08T10:24:41Z</time>
      </trkpt>
      <trkpt lat="41.0426980" lon="0.7338970">
        <ele>300.5</ele>
        <time>2020-08-08T10:24:49Z</time>
      </trkpt>
      <trkpt lat="41.0427320" lon="0.7339290">
        <ele>300.5</ele>
        <time>2020-08-08T10:24:51Z</time>
      </trkpt>
      <trkpt lat="41.0427300" lon="0.7339360">
        <ele>300.5</ele>
        <time>2020-08-08T10:24:52Z</time>
      </trkpt>
      <trkpt lat="41.0426970" lon="0.7339330">
        <ele>300.5</ele>
        <time>2020-08-08T10:24:53Z</time>
      </trkpt>
      <trkpt lat="41.0426320" lon="0.7339240">
        <ele>300.5</ele>
        <time>2020-08-08T10:24:54Z</time>
      </trkpt>
      <trkpt lat="41.0425920" lon="0.7339140">
        <ele>300.4</ele>
        <time>2020-08-08T10:24:55Z</time>
      </trkpt>
      <trkpt lat="41.0425660" lon="0.7339040">
        <ele>300.4</ele>
        <time>2020-08-08T10:24:56Z</time>
      </trkpt>
      <trkpt lat="41.0425440" lon="0.7338940">
        <ele>300.4</ele>
        <time>2020-08-08T10:24:57Z</time>
      </trkpt>
      <trkpt lat="41.0425110" lon="0.7338870">
        <ele>300.4</ele>
        <time>2020-08-08T10:24:59Z</time>
      </trkpt>
      <trkpt lat="41.0424790" lon="0.7339110">
        <ele>300.4</ele>
        <time>2020-08-08T10:25:01Z</time>
      </trkpt>
      <trkpt lat="41.0424630" lon="0.7339260">
        <ele>300.4</ele>
        <time>2020-08-08T10:25:06Z</time>
      </trkpt>
      <trkpt lat="41.0424470" lon="0.7339420">
        <ele>300.4</ele>
        <time>2020-08-08T10:25:08Z</time>
      </trkpt>
      <trkpt lat="41.0424310" lon="0.7339570">
        <ele>300.4</ele>
        <time>2020-08-08T10:25:09Z</time>
      </trkpt>
      <trkpt lat="41.0424070" lon="0.7339700">
        <ele>300.4</ele>
        <time>2020-08-08T10:25:11Z</time>
      </trkpt>
      <trkpt lat="41.0423970" lon="0.7339670">
        <ele>300.4</ele>
        <time>2020-08-08T10:25:12Z</time>
      </trkpt>
      <trkpt lat="41.0423970" lon="0.7339570">
        <ele>300.4</ele>
        <time>2020-08-08T10:25:13Z</time>
      </trkpt>
      <trkpt lat="41.0423970" lon="0.7339430">
        <ele>300.4</ele>
        <time>2020-08-08T10:25:14Z</time>
      </trkpt>
      <trkpt lat="41.0424040" lon="0.7339160">
        <ele>300.4</ele>
        <time>2020-08-08T10:25:16Z</time>
      </trkpt>
      <trkpt lat="41.0424290" lon="0.7338850">
        <ele>300.4</ele>
        <time>2020-08-08T10:25:17Z</time>
      </trkpt>
      <trkpt lat="41.0424380" lon="0.7338750">
        <ele>300.4</ele>
        <time>2020-08-08T10:25:18Z</time>
      </trkpt>
      <trkpt lat="41.0424530" lon="0.7338590">
        <ele>300.4</ele>
        <time>2020-08-08T10:25:19Z</time>
      </trkpt>
      <trkpt lat="41.0424790" lon="0.7338460">
        <ele>300.4</ele>
        <time>2020-08-08T10:25:21Z</time>
      </trkpt>
      <trkpt lat="41.0424850" lon="0.7338490">
        <ele>300.4</ele>
        <time>2020-08-08T10:25:22Z</time>
      </trkpt>
      <trkpt lat="41.0424950" lon="0.7338520">
        <ele>300.4</ele>
        <time>2020-08-08T10:25:23Z</time>
      </trkpt>
      <trkpt lat="41.0425010" lon="0.7338770">
        <ele>300.4</ele>
        <time>2020-08-08T10:25:24Z</time>
      </trkpt>
      <trkpt lat="41.0425100" lon="0.7339140">
        <ele>300.4</ele>
        <time>2020-08-08T10:25:25Z</time>
      </trkpt>
      <trkpt lat="41.0425130" lon="0.7339290">
        <ele>300.4</ele>
        <time>2020-08-08T10:25:26Z</time>
      </trkpt>
      <trkpt lat="41.0425180" lon="0.7339670">
        <ele>300.3</ele>
        <time>2020-08-08T10:25:27Z</time>
      </trkpt>
      <trkpt lat="41.0425290" lon="0.7340420">
        <ele>300.3</ele>
        <time>2020-08-08T10:25:29Z</time>
      </trkpt>
      <trkpt lat="41.0425350" lon="0.7340730">
        <ele>300.3</ele>
        <time>2020-08-08T10:25:30Z</time>
      </trkpt>
      <trkpt lat="41.0425560" lon="0.7341170">
        <ele>300.3</ele>
        <time>2020-08-08T10:25:32Z</time>
      </trkpt>
      <trkpt lat="41.0425700" lon="0.7341310">
        <ele>300.3</ele>
        <time>2020-08-08T10:25:33Z</time>
      </trkpt>
      <trkpt lat="41.0425940" lon="0.7341350">
        <ele>300.3</ele>
        <time>2020-08-08T10:25:35Z</time>
      </trkpt>
      <trkpt lat="41.0426000" lon="0.7341330">
        <ele>300.3</ele>
        <time>2020-08-08T10:25:36Z</time>
      </trkpt>
      <trkpt lat="41.0426130" lon="0.7341210">
        <ele>300.3</ele>
        <time>2020-08-08T10:25:38Z</time>
      </trkpt>
      <trkpt lat="41.0426150" lon="0.7341150">
        <ele>300.3</ele>
        <time>2020-08-08T10:25:39Z</time>
      </trkpt>
      <trkpt lat="41.0426120" lon="0.7341120">
        <ele>300.3</ele>
        <time>2020-08-08T10:25:40Z</time>
      </trkpt>
      <trkpt lat="41.0426090" lon="0.7341080">
        <ele>300.3</ele>
        <time>2020-08-08T10:25:41Z</time>
      </trkpt>
      <trkpt lat="41.0426050" lon="0.7341040">
        <ele>300.3</ele>
        <time>2020-08-08T10:25:42Z</time>
      </trkpt>
      <trkpt lat="41.0426060" lon="0.7340990">
        <ele>300.3</ele>
        <time>2020-08-08T10:25:44Z</time>
      </trkpt>
      <trkpt lat="41.0426050" lon="0.7340980">
        <ele>300.3</ele>
        <time>2020-08-08T10:25:45Z</time>
      </trkpt>
      <trkpt lat="41.0426050" lon="0.7340990">
        <ele>300.3</ele>
        <time>2020-08-08T10:25:47Z</time>
      </trkpt>
      <trkpt lat="41.0426060" lon="0.7341020">
        <ele>300.3</ele>
        <time>2020-08-08T10:25:49Z</time>
      </trkpt>
      <trkpt lat="41.0426060" lon="0.7341030">
        <ele>300.3</ele>
        <time>2020-08-08T10:25:50Z</time>
      </trkpt>
      <trkpt lat="41.0426050" lon="0.7341040">
        <ele>300.3</ele>
        <time>2020-08-08T10:25:52Z</time>
      </trkpt>
      <trkpt lat="41.0426290" lon="0.7340810">
        <ele>300.3</ele>
        <time>2020-08-08T10:26:14Z</time>
      </trkpt>
      <trkpt lat="41.0426310" lon="0.7340740">
        <ele>300.3</ele>
        <time>2020-08-08T10:26:15Z</time>
      </trkpt>
      <trkpt lat="41.0426310" lon="0.7340660">
        <ele>300.3</ele>
        <time>2020-08-08T10:26:17Z</time>
      </trkpt>
      <trkpt lat="41.0426300" lon="0.7340680">
        <ele>300.3</ele>
        <time>2020-08-08T10:26:19Z</time>
      </trkpt>
      <trkpt lat="41.0426310" lon="0.7340670">
        <ele>300.3</ele>
        <time>2020-08-08T10:26:21Z</time>
      </trkpt>
      <trkpt lat="41.0426320" lon="0.7340670">
        <ele>300.3</ele>
        <time>2020-08-08T10:26:22Z</time>
      </trkpt>
      <trkpt lat="41.0426350" lon="0.7340630">
        <ele>300.3</ele>
        <time>2020-08-08T10:26:24Z</time>
      </trkpt>
      <trkpt lat="41.0426360" lon="0.7340610">
        <ele>300.3</ele>
        <time>2020-08-08T10:26:25Z</time>
      </trkpt>
      <trkpt lat="41.0426530" lon="0.7340410">
        <ele>300.3</ele>
        <time>2020-08-08T10:26:31Z</time>
      </trkpt>
      <trkpt lat="41.0426540" lon="0.7340310">
        <ele>300.3</ele>
        <time>2020-08-08T10:26:32Z</time>
      </trkpt>
      <trkpt lat="41.0426550" lon="0.7340230">
        <ele>300.3</ele>
        <time>2020-08-08T10:26:33Z</time>
      </trkpt>
      <trkpt lat="41.0426490" lon="0.7340180">
        <ele>300.3</ele>
        <time>2020-08-08T10:26:35Z</time>
      </trkpt>
      <trkpt lat="41.0426400" lon="0.7340180">
        <ele>300.3</ele>
        <time>2020-08-08T10:26:36Z</time>
      </trkpt>
      <trkpt lat="41.0426280" lon="0.7340250">
        <ele>300.3</ele>
        <time>2020-08-08T10:26:38Z</time>
      </trkpt>
      <trkpt lat="41.0426240" lon="0.7340380">
        <ele>300.3</ele>
        <time>2020-08-08T10:26:39Z</time>
      </trkpt>
      <trkpt lat="41.0426190" lon="0.7340500">
        <ele>300.3</ele>
        <time>2020-08-08T10:26:40Z</time>
      </trkpt>
      <trkpt lat="41.0426170" lon="0.7340640">
        <ele>300.3</ele>
        <time>2020-08-08T10:26:41Z</time>
      </trkpt>
      <trkpt lat="41.0426120" lon="0.7340760">
        <ele>300.3</ele>
        <time>2020-08-08T10:26:42Z</time>
      </trkpt>
      <trkpt lat="41.0426010" lon="0.7340840">
        <ele>300.3</ele>
        <time>2020-08-08T10:26:44Z</time>
      </trkpt>
      <trkpt lat="41.0425930" lon="0.7340990">
        <ele>300.3</ele>
        <time>2020-08-08T10:26:45Z</time>
      </trkpt>
      <trkpt lat="41.0425890" lon="0.7341080">
        <ele>300.3</ele>
        <time>2020-08-08T10:26:46Z</time>
      </trkpt>
      <trkpt lat="41.0425740" lon="0.7341210">
        <ele>300.3</ele>
        <time>2020-08-08T10:26:48Z</time>
      </trkpt>
      <trkpt lat="41.0425670" lon="0.7341250">
        <ele>300.2</ele>
        <time>2020-08-08T10:26:49Z</time>
      </trkpt>
      <trkpt lat="41.0425590" lon="0.7341300">
        <ele>300.2</ele>
        <time>2020-08-08T10:26:51Z</time>
      </trkpt>
      <trkpt lat="41.0425580" lon="0.7341290">
        <ele>292.8</ele>
        <time>2020-08-08T10:26:52Z</time>
      </trkpt>
      <trkpt lat="41.0425560" lon="0.7341290">
        <ele>292.8</ele>
        <time>2020-08-08T10:26:53Z</time>
      </trkpt>
      <trkpt lat="41.0425520" lon="0.7341290">
        <ele>292.8</ele>
        <time>2020-08-08T10:26:55Z</time>
      </trkpt>
      <trkpt lat="41.0425500" lon="0.7341280">
        <ele>292.8</ele>
        <time>2020-08-08T10:26:56Z</time>
      </trkpt>
      <trkpt lat="41.0425470" lon="0.7341280">
        <ele>292.8</ele>
        <time>2020-08-08T10:26:58Z</time>
      </trkpt>
      <trkpt lat="41.0425460" lon="0.7341270">
        <ele>292.8</ele>
        <time>2020-08-08T10:26:59Z</time>
      </trkpt>
      <trkpt lat="41.0425610" lon="0.7341010">
        <ele>292.7</ele>
        <time>2020-08-08T10:27:24Z</time>
      </trkpt>
      <trkpt lat="41.0425640" lon="0.7340940">
        <ele>292.6</ele>
        <time>2020-08-08T10:27:26Z</time>
      </trkpt>
      <trkpt lat="41.0425580" lon="0.7340870">
        <ele>292.6</ele>
        <time>2020-08-08T10:27:27Z</time>
      </trkpt>
      <trkpt lat="41.0425410" lon="0.7340720">
        <ele>292.5</ele>
        <time>2020-08-08T10:27:28Z</time>
      </trkpt>
      <trkpt lat="41.0425150" lon="0.7340550">
        <ele>292.4</ele>
        <time>2020-08-08T10:27:30Z</time>
      </trkpt>
      <trkpt lat="41.0425010" lon="0.7340500">
        <ele>292.3</ele>
        <time>2020-08-08T10:27:31Z</time>
      </trkpt>
      <trkpt lat="41.0424880" lon="0.7340460">
        <ele>292.2</ele>
        <time>2020-08-08T10:27:32Z</time>
      </trkpt>
      <trkpt lat="41.0424620" lon="0.7340540">
        <ele>292.1</ele>
        <time>2020-08-08T10:27:34Z</time>
      </trkpt>
      <trkpt lat="41.0424650" lon="0.7340650">
        <ele>292.0</ele>
        <time>2020-08-08T10:27:35Z</time>
      </trkpt>
      <trkpt lat="41.0424690" lon="0.7340820">
        <ele>292.0</ele>
        <time>2020-08-08T10:27:37Z</time>
      </trkpt>
      <trkpt lat="41.0424720" lon="0.7341040">
        <ele>291.9</ele>
        <time>2020-08-08T10:27:38Z</time>
      </trkpt>
      <trkpt lat="41.0424760" lon="0.7341140">
        <ele>291.9</ele>
        <time>2020-08-08T10:27:39Z</time>
      </trkpt>
      <trkpt lat="41.0424970" lon="0.7341200">
        <ele>291.7</ele>
        <time>2020-08-08T10:27:41Z</time>
      </trkpt>
      <trkpt lat="41.0425180" lon="0.7341090">
        <ele>291.6</ele>
        <time>2020-08-08T10:27:42Z</time>
      </trkpt>
      <trkpt lat="41.0425270" lon="0.7340950">
        <ele>291.6</ele>
        <time>2020-08-08T10:27:44Z</time>
      </trkpt>
      <trkpt lat="41.0425460" lon="0.7340900">
        <ele>291.5</ele>
        <time>2020-08-08T10:27:45Z</time>
      </trkpt>
      <trkpt lat="41.0425560" lon="0.7340870">
        <ele>291.5</ele>
        <time>2020-08-08T10:27:47Z</time>
      </trkpt>
      <trkpt lat="41.0425730" lon="0.7340780">
        <ele>291.4</ele>
        <time>2020-08-08T10:27:48Z</time>
      </trkpt>
      <trkpt lat="41.0425890" lon="0.7340760">
        <ele>291.3</ele>
        <time>2020-08-08T10:27:49Z</time>
      </trkpt>
      <trkpt lat="41.0426020" lon="0.7340790">
        <ele>291.2</ele>
        <time>2020-08-08T10:27:50Z</time>
      </trkpt>
      <trkpt lat="41.0426180" lon="0.7340840">
        <ele>291.2</ele>
        <time>2020-08-08T10:27:51Z</time>
      </trkpt>
      <trkpt lat="41.0426620" lon="0.7341080">
        <ele>291.0</ele>
        <time>2020-08-08T10:27:53Z</time>
      </trkpt>
      <trkpt lat="41.0426810" lon="0.7341200">
        <ele>290.9</ele>
        <time>2020-08-08T10:27:54Z</time>
      </trkpt>
      <trkpt lat="41.0426990" lon="0.7341310">
        <ele>290.8</ele>
        <time>2020-08-08T10:27:55Z</time>
      </trkpt>
      <trkpt lat="41.0427160" lon="0.7341510">
        <ele>290.7</ele>
        <time>2020-08-08T10:27:56Z</time>
      </trkpt>
      <trkpt lat="41.0427480" lon="0.7341860">
        <ele>290.5</ele>
        <time>2020-08-08T10:27:58Z</time>
      </trkpt>
      <trkpt lat="41.0427760" lon="0.7342260">
        <ele>290.3</ele>
        <time>2020-08-08T10:27:59Z</time>
      </trkpt>
      <trkpt lat="41.0427940" lon="0.7342570">
        <ele>290.2</ele>
        <time>2020-08-08T10:28:00Z</time>
      </trkpt>
      <trkpt lat="41.0428080" lon="0.7342880">
        <ele>290.1</ele>
        <time>2020-08-08T10:28:01Z</time>
      </trkpt>
      <trkpt lat="41.0428210" lon="0.7343310">
        <ele>289.4</ele>
        <time>2020-08-08T10:28:03Z</time>
      </trkpt>
      <trkpt lat="41.0428310" lon="0.7343720">
        <ele>289.1</ele>
        <time>2020-08-08T10:28:04Z</time>
      </trkpt>
      <trkpt lat="41.0428440" lon="0.7343980">
        <ele>288.8</ele>
        <time>2020-08-08T10:28:05Z</time>
      </trkpt>
      <trkpt lat="41.0428800" lon="0.7344640">
        <ele>288.2</ele>
        <time>2020-08-08T10:28:07Z</time>
      </trkpt>
      <trkpt lat="41.0429130" lon="0.7345030">
        <ele>287.7</ele>
        <time>2020-08-08T10:28:08Z</time>
      </trkpt>
      <trkpt lat="41.0429750" lon="0.7345780">
        <ele>286.9</ele>
        <time>2020-08-08T10:28:10Z</time>
      </trkpt>
      <trkpt lat="41.0430440" lon="0.7346690">
        <ele>286.1</ele>
        <time>2020-08-08T10:28:11Z</time>
      </trkpt>
      <trkpt lat="41.0431070" lon="0.7347330">
        <ele>285.5</ele>
        <time>2020-08-08T10:28:13Z</time>
      </trkpt>
      <trkpt lat="41.0431530" lon="0.7347680">
        <ele>285.1</ele>
        <time>2020-08-08T10:28:15Z</time>
      </trkpt>
      <trkpt lat="41.0431920" lon="0.7347870">
        <ele>284.9</ele>
        <time>2020-08-08T10:28:16Z</time>
      </trkpt>
      <trkpt lat="41.0432220" lon="0.7347950">
        <ele>284.7</ele>
        <time>2020-08-08T10:28:17Z</time>
      </trkpt>
      <trkpt lat="41.0432560" lon="0.7348100">
        <ele>284.4</ele>
        <time>2020-08-08T10:28:19Z</time>
      </trkpt>
      <trkpt lat="41.0432820" lon="0.7348220">
        <ele>284.2</ele>
        <time>2020-08-08T10:28:20Z</time>
      </trkpt>
      <trkpt lat="41.0433090" lon="0.7348250">
        <ele>283.9</ele>
        <time>2020-08-08T10:28:22Z</time>
      </trkpt>
      <trkpt lat="41.0433270" lon="0.7348250">
        <ele>283.9</ele>
        <time>2020-08-08T10:28:24Z</time>
      </trkpt>
      <trkpt lat="41.0433530" lon="0.7348280">
        <ele>283.8</ele>
        <time>2020-08-08T10:28:26Z</time>
      </trkpt>
      <trkpt lat="41.0433720" lon="0.7348270">
        <ele>283.7</ele>
        <time>2020-08-08T10:28:27Z</time>
      </trkpt>
      <trkpt lat="41.0434040" lon="0.7348110">
        <ele>283.6</ele>
        <time>2020-08-08T10:28:29Z</time>
      </trkpt>
      <trkpt lat="41.0434130" lon="0.7348160">
        <ele>283.6</ele>
        <time>2020-08-08T10:28:30Z</time>
      </trkpt>
      <trkpt lat="41.0434340" lon="0.7348240">
        <ele>283.5</ele>
        <time>2020-08-08T10:28:32Z</time>
      </trkpt>
      <trkpt lat="41.0434470" lon="0.7348300">
        <ele>283.5</ele>
        <time>2020-08-08T10:28:33Z</time>
      </trkpt>
      <trkpt lat="41.0434600" lon="0.7348360">
        <ele>283.5</ele>
        <time>2020-08-08T10:28:34Z</time>
      </trkpt>
      <trkpt lat="41.0434840" lon="0.7348450">
        <ele>283.3</ele>
        <time>2020-08-08T10:28:36Z</time>
      </trkpt>
      <trkpt lat="41.0434950" lon="0.7348500">
        <ele>283.3</ele>
        <time>2020-08-08T10:28:38Z</time>
      </trkpt>
      <trkpt lat="41.0435180" lon="0.7348570">
        <ele>283.2</ele>
        <time>2020-08-08T10:28:39Z</time>
      </trkpt>
      <trkpt lat="41.0435610" lon="0.7348730">
        <ele>283.0</ele>
        <time>2020-08-08T10:28:43Z</time>
      </trkpt>
      <trkpt lat="41.0435770" lon="0.7348810">
        <ele>283.0</ele>
        <time>2020-08-08T10:28:44Z</time>
      </trkpt>
      <trkpt lat="41.0436010" lon="0.7348890">
        <ele>282.9</ele>
        <time>2020-08-08T10:28:46Z</time>
      </trkpt>
      <trkpt lat="41.0436210" lon="0.7348850">
        <ele>282.8</ele>
        <time>2020-08-08T10:28:47Z</time>
      </trkpt>
      <trkpt lat="41.0436300" lon="0.7348860">
        <ele>282.8</ele>
        <time>2020-08-08T10:28:49Z</time>
      </trkpt>
      <trkpt lat="41.0436400" lon="0.7348860">
        <ele>282.8</ele>
        <time>2020-08-08T10:28:51Z</time>
      </trkpt>
      <trkpt lat="41.0436490" lon="0.7348870">
        <ele>282.7</ele>
        <time>2020-08-08T10:28:52Z</time>
      </trkpt>
      <trkpt lat="41.0436590" lon="0.7348880">
        <ele>282.7</ele>
        <time>2020-08-08T10:28:53Z</time>
      </trkpt>
      <trkpt lat="41.0436680" lon="0.7348890">
        <ele>282.7</ele>
        <time>2020-08-08T10:28:55Z</time>
      </trkpt>
      <trkpt lat="41.0436780" lon="0.7348900">
        <ele>282.7</ele>
        <time>2020-08-08T10:28:57Z</time>
      </trkpt>
      <trkpt lat="41.0436870" lon="0.7348900">
        <ele>282.6</ele>
        <time>2020-08-08T10:28:58Z</time>
      </trkpt>
      <trkpt lat="41.0436970" lon="0.7348910">
        <ele>282.6</ele>
        <time>2020-08-08T10:28:59Z</time>
      </trkpt>
      <trkpt lat="41.0437060" lon="0.7348920">
        <ele>282.6</ele>
        <time>2020-08-08T10:29:00Z</time>
      </trkpt>
      <trkpt lat="41.0437250" lon="0.7348950">
        <ele>282.5</ele>
        <time>2020-08-08T10:29:02Z</time>
      </trkpt>
      <trkpt lat="41.0437410" lon="0.7348950">
        <ele>282.5</ele>
        <time>2020-08-08T10:29:03Z</time>
      </trkpt>
      <trkpt lat="41.0437560" lon="0.7348950">
        <ele>282.4</ele>
        <time>2020-08-08T10:29:04Z</time>
      </trkpt>
      <trkpt lat="41.0437820" lon="0.7348900">
        <ele>282.4</ele>
        <time>2020-08-08T10:29:05Z</time>
      </trkpt>
      <trkpt lat="41.0438170" lon="0.7348780">
        <ele>282.3</ele>
        <time>2020-08-08T10:29:07Z</time>
      </trkpt>
      <trkpt lat="41.0438250" lon="0.7348730">
        <ele>282.3</ele>
        <time>2020-08-08T10:29:08Z</time>
      </trkpt>
      <trkpt lat="41.0438320" lon="0.7348690">
        <ele>282.2</ele>
        <time>2020-08-08T10:29:09Z</time>
      </trkpt>
      <trkpt lat="41.0438400" lon="0.7348640">
        <ele>282.2</ele>
        <time>2020-08-08T10:29:11Z</time>
      </trkpt>
      <trkpt lat="41.0438470" lon="0.7348590">
        <ele>282.2</ele>
        <time>2020-08-08T10:29:12Z</time>
      </trkpt>
      <trkpt lat="41.0438590" lon="0.7348540">
        <ele>282.2</ele>
        <time>2020-08-08T10:29:13Z</time>
      </trkpt>
      <trkpt lat="41.0438860" lon="0.7348450">
        <ele>282.1</ele>
        <time>2020-08-08T10:29:15Z</time>
      </trkpt>
      <trkpt lat="41.0439200" lon="0.7348350">
        <ele>282.0</ele>
        <time>2020-08-08T10:29:16Z</time>
      </trkpt>
      <trkpt lat="41.0439300" lon="0.7348320">
        <ele>282.0</ele>
        <time>2020-08-08T10:29:17Z</time>
      </trkpt>
      <trkpt lat="41.0439680" lon="0.7348150">
        <ele>281.9</ele>
        <time>2020-08-08T10:29:19Z</time>
      </trkpt>
      <trkpt lat="41.0439960" lon="0.7348050">
        <ele>281.8</ele>
        <time>2020-08-08T10:29:20Z</time>
      </trkpt>
      <trkpt lat="41.0440280" lon="0.7348000">
        <ele>281.8</ele>
        <time>2020-08-08T10:29:21Z</time>
      </trkpt>
      <trkpt lat="41.0440580" lon="0.7347950">
        <ele>281.7</ele>
        <time>2020-08-08T10:29:23Z</time>
      </trkpt>
      <trkpt lat="41.0440850" lon="0.7347850">
        <ele>281.7</ele>
        <time>2020-08-08T10:29:24Z</time>
      </trkpt>
      <trkpt lat="41.0441130" lon="0.7347730">
        <ele>281.6</ele>
        <time>2020-08-08T10:29:25Z</time>
      </trkpt>
      <trkpt lat="41.0441560" lon="0.7347480">
        <ele>281.6</ele>
        <time>2020-08-08T10:29:27Z</time>
      </trkpt>
      <trkpt lat="41.0441810" lon="0.7347300">
        <ele>281.5</ele>
        <time>2020-08-08T10:29:28Z</time>
      </trkpt>
      <trkpt lat="41.0442010" lon="0.7347180">
        <ele>281.5</ele>
        <time>2020-08-08T10:29:29Z</time>
      </trkpt>
      <trkpt lat="41.0442460" lon="0.7346940">
        <ele>281.5</ele>
        <time>2020-08-08T10:29:31Z</time>
      </trkpt>
      <trkpt lat="41.0442910" lon="0.7346580">
        <ele>281.4</ele>
        <time>2020-08-08T10:29:33Z</time>
      </trkpt>
      <trkpt lat="41.0443090" lon="0.7346490">
        <ele>281.4</ele>
        <time>2020-08-08T10:29:34Z</time>
      </trkpt>
      <trkpt lat="41.0443260" lon="0.7346390">
        <ele>281.4</ele>
        <time>2020-08-08T10:29:35Z</time>
      </trkpt>
      <trkpt lat="41.0443700" lon="0.7346190">
        <ele>281.4</ele>
        <time>2020-08-08T10:29:37Z</time>
      </trkpt>
      <trkpt lat="41.0444060" lon="0.7346060">
        <ele>281.4</ele>
        <time>2020-08-08T10:29:38Z</time>
      </trkpt>
      <trkpt lat="41.0444340" lon="0.7346000">
        <ele>281.4</ele>
        <time>2020-08-08T10:29:39Z</time>
      </trkpt>
      <trkpt lat="41.0444640" lon="0.7345910">
        <ele>281.4</ele>
        <time>2020-08-08T10:29:40Z</time>
      </trkpt>
      <trkpt lat="41.0444910" lon="0.7345820">
        <ele>281.4</ele>
        <time>2020-08-08T10:29:42Z</time>
      </trkpt>
      <trkpt lat="41.0445140" lon="0.7345730">
        <ele>281.4</ele>
        <time>2020-08-08T10:29:43Z</time>
      </trkpt>
      <trkpt lat="41.0445180" lon="0.7345730">
        <ele>281.4</ele>
        <time>2020-08-08T10:29:44Z</time>
      </trkpt>
      <trkpt lat="41.0446000" lon="0.7345410">
        <ele>281.5</ele>
        <time>2020-08-08T10:29:45Z</time>
      </trkpt>
      <trkpt lat="41.0446770" lon="0.7345110">
        <ele>281.5</ele>
        <time>2020-08-08T10:29:46Z</time>
      </trkpt>
      <trkpt lat="41.0447530" lon="0.7344810">
        <ele>281.6</ele>
        <time>2020-08-08T10:29:48Z</time>
      </trkpt>
      <trkpt lat="41.0447690" lon="0.7344840">
        <ele>281.6</ele>
        <time>2020-08-08T10:29:49Z</time>
      </trkpt>
      <trkpt lat="41.0447740" lon="0.7344870">
        <ele>281.6</ele>
        <time>2020-08-08T10:29:50Z</time>
      </trkpt>
      <trkpt lat="41.0447780" lon="0.7344900">
        <ele>281.6</ele>
        <time>2020-08-08T10:29:52Z</time>
      </trkpt>
      <trkpt lat="41.0447830" lon="0.7344930">
        <ele>281.6</ele>
        <time>2020-08-08T10:29:53Z</time>
      </trkpt>
      <trkpt lat="41.0447880" lon="0.7344960">
        <ele>281.6</ele>
        <time>2020-08-08T10:29:55Z</time>
      </trkpt>
      <trkpt lat="41.0447930" lon="0.7344990">
        <ele>281.6</ele>
        <time>2020-08-08T10:29:57Z</time>
      </trkpt>
      <trkpt lat="41.0447980" lon="0.7345020">
        <ele>281.6</ele>
        <time>2020-08-08T10:29:59Z</time>
      </trkpt>
      <trkpt lat="41.0448030" lon="0.7345050">
        <ele>281.6</ele>
        <time>2020-08-08T10:30:00Z</time>
      </trkpt>
      <trkpt lat="41.0448070" lon="0.7345080">
        <ele>281.6</ele>
        <time>2020-08-08T10:30:01Z</time>
      </trkpt>
      <trkpt lat="41.0448120" lon="0.7345110">
        <ele>281.6</ele>
        <time>2020-08-08T10:30:11Z</time>
      </trkpt>
      <trkpt lat="41.0448170" lon="0.7345140">
        <ele>281.6</ele>
        <time>2020-08-08T10:30:12Z</time>
      </trkpt>
      <trkpt lat="41.0448410" lon="0.7345240">
        <ele>281.6</ele>
        <time>2020-08-08T10:30:13Z</time>
      </trkpt>
      <trkpt lat="41.0448920" lon="0.7345420">
        <ele>281.6</ele>
        <time>2020-08-08T10:30:15Z</time>
      </trkpt>
      <trkpt lat="41.0449080" lon="0.7345460">
        <ele>281.6</ele>
        <time>2020-08-08T10:30:16Z</time>
      </trkpt>
      <trkpt lat="41.0449360" lon="0.7345510">
        <ele>281.6</ele>
        <time>2020-08-08T10:30:18Z</time>
      </trkpt>
      <trkpt lat="41.0449420" lon="0.7345580">
        <ele>281.6</ele>
        <time>2020-08-08T10:30:19Z</time>
      </trkpt>
      <trkpt lat="41.0449370" lon="0.7345650">
        <ele>281.6</ele>
        <time>2020-08-08T10:30:21Z</time>
      </trkpt>
      <trkpt lat="41.0449350" lon="0.7345660">
        <ele>281.6</ele>
        <time>2020-08-08T10:30:22Z</time>
      </trkpt>
      <trkpt lat="41.0449420" lon="0.7345680">
        <ele>281.6</ele>
        <time>2020-08-08T10:30:23Z</time>
      </trkpt>
      <trkpt lat="41.0449410" lon="0.7345660">
        <ele>281.6</ele>
        <time>2020-08-08T10:30:25Z</time>
      </trkpt>
      <trkpt lat="41.0449370" lon="0.7345630">
        <ele>281.6</ele>
        <time>2020-08-08T10:30:26Z</time>
      </trkpt>
      <trkpt lat="41.0449380" lon="0.7345580">
        <ele>281.6</ele>
        <time>2020-08-08T10:30:28Z</time>
      </trkpt>
      <trkpt lat="41.0449400" lon="0.7345560">
        <ele>281.6</ele>
        <time>2020-08-08T10:30:29Z</time>
      </trkpt>
      <trkpt lat="41.0449480" lon="0.7345540">
        <ele>281.6</ele>
        <time>2020-08-08T10:30:31Z</time>
      </trkpt>
      <trkpt lat="41.0449530" lon="0.7345540">
        <ele>281.6</ele>
        <time>2020-08-08T10:30:32Z</time>
      </trkpt>
      <trkpt lat="41.0449580" lon="0.7345540">
        <ele>281.6</ele>
        <time>2020-08-08T10:30:33Z</time>
      </trkpt>
      <trkpt lat="41.0450020" lon="0.7345710">
        <ele>281.6</ele>
        <time>2020-08-08T10:30:45Z</time>
      </trkpt>
      <trkpt lat="41.0450060" lon="0.7345750">
        <ele>281.6</ele>
        <time>2020-08-08T10:30:46Z</time>
      </trkpt>
      <trkpt lat="41.0450050" lon="0.7345730">
        <ele>281.6</ele>
        <time>2020-08-08T10:30:48Z</time>
      </trkpt>
      <trkpt lat="41.0450050" lon="0.7345740">
        <ele>281.6</ele>
        <time>2020-08-08T10:30:49Z</time>
      </trkpt>
      <trkpt lat="41.0450050" lon="0.7345750">
        <ele>281.6</ele>
        <time>2020-08-08T10:30:51Z</time>
      </trkpt>
      <trkpt lat="41.0450050" lon="0.7345750">
        <ele>281.6</ele>
        <time>2020-08-08T10:30:52Z</time>
      </trkpt>
      <trkpt lat="41.0450050" lon="0.7345750">
        <ele>281.6</ele>
        <time>2020-08-08T10:30:53Z</time>
      </trkpt>
      <trkpt lat="41.0450050" lon="0.7345750">
        <ele>281.6</ele>
        <time>2020-08-08T10:30:54Z</time>
      </trkpt>
      <trkpt lat="41.0450060" lon="0.7345750">
        <ele>281.6</ele>
        <time>2020-08-08T10:30:55Z</time>
      </trkpt>
      <trkpt lat="41.0450060" lon="0.7345750">
        <ele>281.6</ele>
        <time>2020-08-08T10:30:57Z</time>
      </trkpt>
      <trkpt lat="41.0450060" lon="0.7345750">
        <ele>281.6</ele>
        <time>2020-08-08T10:30:58Z</time>
      </trkpt>
      <trkpt lat="41.0450060" lon="0.7345750">
        <ele>281.6</ele>
        <time>2020-08-08T10:31:00Z</time>
      </trkpt>
      <trkpt lat="41.0450060" lon="0.7345750">
        <ele>281.6</ele>
        <time>2020-08-08T10:31:02Z</time>
      </trkpt>
      <trkpt lat="41.0450110" lon="0.7345810">
        <ele>281.6</ele>
        <time>2020-08-08T10:31:03Z</time>
      </trkpt>
      <trkpt lat="41.0450190" lon="0.7345890">
        <ele>281.6</ele>
        <time>2020-08-08T10:31:04Z</time>
      </trkpt>
      <trkpt lat="41.0450420" lon="0.7346060">
        <ele>281.5</ele>
        <time>2020-08-08T10:31:06Z</time>
      </trkpt>
      <trkpt lat="41.0450580" lon="0.7346150">
        <ele>281.5</ele>
        <time>2020-08-08T10:31:07Z</time>
      </trkpt>
      <trkpt lat="41.0450900" lon="0.7346250">
        <ele>281.3</ele>
        <time>2020-08-08T10:31:09Z</time>
      </trkpt>
      <trkpt lat="41.0451120" lon="0.7346240">
        <ele>281.3</ele>
        <time>2020-08-08T10:31:10Z</time>
      </trkpt>
      <trkpt lat="41.0451050" lon="0.7346140">
        <ele>281.2</ele>
        <time>2020-08-08T10:31:11Z</time>
      </trkpt>
      <trkpt lat="41.0451100" lon="0.7346030">
        <ele>281.2</ele>
        <time>2020-08-08T10:31:12Z</time>
      </trkpt>
      <trkpt lat="41.0451180" lon="0.7345840">
        <ele>281.1</ele>
        <time>2020-08-08T10:31:14Z</time>
      </trkpt>
      <trkpt lat="41.0451560" lon="0.7345610">
        <ele>280.9</ele>
        <time>2020-08-08T10:31:15Z</time>
      </trkpt>
      <trkpt lat="41.0451760" lon="0.7345510">
        <ele>280.8</ele>
        <time>2020-08-08T10:31:16Z</time>
      </trkpt>
      <trkpt lat="41.0452170" lon="0.7345210">
        <ele>280.6</ele>
        <time>2020-08-08T10:31:17Z</time>
      </trkpt>
      <trkpt lat="41.0452520" lon="0.7344920">
        <ele>280.4</ele>
        <time>2020-08-08T10:31:18Z</time>
      </trkpt>
      <trkpt lat="41.0453160" lon="0.7344380">
        <ele>280.0</ele>
        <time>2020-08-08T10:31:20Z</time>
      </trkpt>
      <trkpt lat="41.0453490" lon="0.7344110">
        <ele>279.8</ele>
        <time>2020-08-08T10:31:21Z</time>
      </trkpt>
      <trkpt lat="41.0453810" lon="0.7343850">
        <ele>279.6</ele>
        <time>2020-08-08T10:31:22Z</time>
      </trkpt>
      <trkpt lat="41.0454090" lon="0.7343620">
        <ele>279.4</ele>
        <time>2020-08-08T10:31:24Z</time>
      </trkpt>
      <trkpt lat="41.0454320" lon="0.7343420">
        <ele>279.2</ele>
        <time>2020-08-08T10:31:25Z</time>
      </trkpt>
      <trkpt lat="41.0454580" lon="0.7343150">
        <ele>279.0</ele>
        <time>2020-08-08T10:31:26Z</time>
      </trkpt>
      <trkpt lat="41.0454630" lon="0.7343080">
        <ele>279.0</ele>
        <time>2020-08-08T10:31:27Z</time>
      </trkpt>
      <trkpt lat="41.0454880" lon="0.7342820">
        <ele>278.8</ele>
        <time>2020-08-08T10:31:29Z</time>
      </trkpt>
      <trkpt lat="41.0455150" lon="0.7342540">
        <ele>278.6</ele>
        <time>2020-08-08T10:31:30Z</time>
      </trkpt>
      <trkpt lat="41.0455520" lon="0.7342210">
        <ele>278.3</ele>
        <time>2020-08-08T10:31:32Z</time>
      </trkpt>
      <trkpt lat="41.0455630" lon="0.7342110">
        <ele>278.3</ele>
        <time>2020-08-08T10:31:33Z</time>
      </trkpt>
      <trkpt lat="41.0455750" lon="0.7342020">
        <ele>278.2</ele>
        <time>2020-08-08T10:31:34Z</time>
      </trkpt>
      <trkpt lat="41.0457070" lon="0.7340380">
        <ele>277.3</ele>
        <time>2020-08-08T10:31:35Z</time>
      </trkpt>
      <trkpt lat="41.0458230" lon="0.7338920">
        <ele>276.6</ele>
        <time>2020-08-08T10:31:37Z</time>
      </trkpt>
      <trkpt lat="41.0458540" lon="0.7338440">
        <ele>276.3</ele>
        <time>2020-08-08T10:31:38Z</time>
      </trkpt>
      <trkpt lat="41.0458790" lon="0.7337690">
        <ele>276.1</ele>
        <time>2020-08-08T10:31:40Z</time>
      </trkpt>
      <trkpt lat="41.0459100" lon="0.7337490">
        <ele>275.9</ele>
        <time>2020-08-08T10:31:41Z</time>
      </trkpt>
      <trkpt lat="41.0459470" lon="0.7337540">
        <ele>275.7</ele>
        <time>2020-08-08T10:31:43Z</time>
      </trkpt>
      <trkpt lat="41.0459810" lon="0.7337400">
        <ele>275.6</ele>
        <time>2020-08-08T10:31:44Z</time>
      </trkpt>
      <trkpt lat="41.0459910" lon="0.7337340">
        <ele>275.5</ele>
        <time>2020-08-08T10:31:45Z</time>
      </trkpt>
      <trkpt lat="41.0460160" lon="0.7337150">
        <ele>275.4</ele>
        <time>2020-08-08T10:31:46Z</time>
      </trkpt>
      <trkpt lat="41.0460260" lon="0.7337060">
        <ele>275.3</ele>
        <time>2020-08-08T10:31:47Z</time>
      </trkpt>
      <trkpt lat="41.0460620" lon="0.7336730">
        <ele>275.1</ele>
        <time>2020-08-08T10:31:49Z</time>
      </trkpt>
      <trkpt lat="41.0460970" lon="0.7336410">
        <ele>274.9</ele>
        <time>2020-08-08T10:31:50Z</time>
      </trkpt>
      <trkpt lat="41.0461120" lon="0.7336290">
        <ele>274.8</ele>
        <time>2020-08-08T10:31:51Z</time>
      </trkpt>
      <trkpt lat="41.0463290" lon="0.7334220">
        <ele>273.9</ele>
        <time>2020-08-08T10:31:53Z</time>
      </trkpt>
      <trkpt lat="41.0464490" lon="0.7333110">
        <ele>272.9</ele>
        <time>2020-08-08T10:31:55Z</time>
      </trkpt>
      <trkpt lat="41.0465490" lon="0.7332210">
        <ele>272.2</ele>
        <time>2020-08-08T10:31:57Z</time>
      </trkpt>
      <trkpt lat="41.0465870" lon="0.7331850">
        <ele>272.0</ele>
        <time>2020-08-08T10:31:58Z</time>
      </trkpt>
      <trkpt lat="41.0466130" lon="0.7331120">
        <ele>271.6</ele>
        <time>2020-08-08T10:32:00Z</time>
      </trkpt>
      <trkpt lat="41.0466000" lon="0.7330710">
        <ele>271.4</ele>
        <time>2020-08-08T10:32:01Z</time>
      </trkpt>
      <trkpt lat="41.0465940" lon="0.7330610">
        <ele>271.4</ele>
        <time>2020-08-08T10:32:02Z</time>
      </trkpt>
      <trkpt lat="41.0465990" lon="0.7330320">
        <ele>271.3</ele>
        <time>2020-08-08T10:32:04Z</time>
      </trkpt>
      <trkpt lat="41.0466200" lon="0.7330150">
        <ele>271.1</ele>
        <time>2020-08-08T10:32:05Z</time>
      </trkpt>
      <trkpt lat="41.0466760" lon="0.7330290">
        <ele>270.8</ele>
        <time>2020-08-08T10:32:07Z</time>
      </trkpt>
      <trkpt lat="41.0467290" lon="0.7330450">
        <ele>270.6</ele>
        <time>2020-08-08T10:32:09Z</time>
      </trkpt>
      <trkpt lat="41.0467490" lon="0.7330560">
        <ele>270.4</ele>
        <time>2020-08-08T10:32:10Z</time>
      </trkpt>
      <trkpt lat="41.0467800" lon="0.7330670">
        <ele>270.3</ele>
        <time>2020-08-08T10:32:12Z</time>
      </trkpt>
      <trkpt lat="41.0467940" lon="0.7330740">
        <ele>270.2</ele>
        <time>2020-08-08T10:32:13Z</time>
      </trkpt>
      <trkpt lat="41.0468240" lon="0.7330730">
        <ele>270.0</ele>
        <time>2020-08-08T10:32:15Z</time>
      </trkpt>
      <trkpt lat="41.0468620" lon="0.7330630">
        <ele>269.8</ele>
        <time>2020-08-08T10:32:17Z</time>
      </trkpt>
      <trkpt lat="41.0468950" lon="0.7330380">
        <ele>269.6</ele>
        <time>2020-08-08T10:32:19Z</time>
      </trkpt>
      <trkpt lat="41.0469300" lon="0.7329980">
        <ele>269.3</ele>
        <time>2020-08-08T10:32:21Z</time>
      </trkpt>
      <trkpt lat="41.0469690" lon="0.7329710">
        <ele>269.0</ele>
        <time>2020-08-08T10:32:23Z</time>
      </trkpt>
      <trkpt lat="41.0470010" lon="0.7329340">
        <ele>268.8</ele>
        <time>2020-08-08T10:32:24Z</time>
      </trkpt>
      <trkpt lat="41.0470340" lon="0.7328860">
        <ele>268.5</ele>
        <time>2020-08-08T10:32:26Z</time>
      </trkpt>
      <trkpt lat="41.0470510" lon="0.7328490">
        <ele>268.3</ele>
        <time>2020-08-08T10:32:27Z</time>
      </trkpt>
      <trkpt lat="41.0470910" lon="0.7327480">
        <ele>267.8</ele>
        <time>2020-08-08T10:32:28Z</time>
      </trkpt>
      <trkpt lat="41.0471410" lon="0.7326020">
        <ele>267.1</ele>
        <time>2020-08-08T10:32:30Z</time>
      </trkpt>
      <trkpt lat="41.0471780" lon="0.7324700">
        <ele>266.7</ele>
        <time>2020-08-08T10:32:32Z</time>
      </trkpt>
      <trkpt lat="41.0472080" lon="0.7323740">
        <ele>266.5</ele>
        <time>2020-08-08T10:32:34Z</time>
      </trkpt>
      <trkpt lat="41.0472480" lon="0.7322550">
        <ele>266.2</ele>
        <time>2020-08-08T10:32:35Z</time>
      </trkpt>
      <trkpt lat="41.0472890" lon="0.7321250">
        <ele>265.8</ele>
        <time>2020-08-08T10:32:37Z</time>
      </trkpt>
      <trkpt lat="41.0473050" lon="0.7320580">
        <ele>265.6</ele>
        <time>2020-08-08T10:32:38Z</time>
      </trkpt>
      <trkpt lat="41.0473380" lon="0.7319290">
        <ele>265.2</ele>
        <time>2020-08-08T10:32:40Z</time>
      </trkpt>
      <trkpt lat="41.0473790" lon="0.7317860">
        <ele>264.8</ele>
        <time>2020-08-08T10:32:42Z</time>
      </trkpt>
      <trkpt lat="41.0473990" lon="0.7317170">
        <ele>264.7</ele>
        <time>2020-08-08T10:32:43Z</time>
      </trkpt>
      <trkpt lat="41.0474190" lon="0.7316430">
        <ele>264.5</ele>
        <time>2020-08-08T10:32:44Z</time>
      </trkpt>
      <trkpt lat="41.0474430" lon="0.7315680">
        <ele>264.3</ele>
        <time>2020-08-08T10:32:45Z</time>
      </trkpt>
      <trkpt lat="41.0474630" lon="0.7314920">
        <ele>264.2</ele>
        <time>2020-08-08T10:32:46Z</time>
      </trkpt>
      <trkpt lat="41.0474990" lon="0.7313380">
        <ele>263.8</ele>
        <time>2020-08-08T10:32:48Z</time>
      </trkpt>
      <trkpt lat="41.0475210" lon="0.7312550">
        <ele>263.6</ele>
        <time>2020-08-08T10:32:49Z</time>
      </trkpt>
      <trkpt lat="41.0475430" lon="0.7311720">
        <ele>263.5</ele>
        <time>2020-08-08T10:32:50Z</time>
      </trkpt>
      <trkpt lat="41.0475870" lon="0.7310100">
        <ele>263.1</ele>
        <time>2020-08-08T10:32:52Z</time>
      </trkpt>
      <trkpt lat="41.0476410" lon="0.7308450">
        <ele>262.8</ele>
        <time>2020-08-08T10:32:54Z</time>
      </trkpt>
      <trkpt lat="41.0476680" lon="0.7307570">
        <ele>262.6</ele>
        <time>2020-08-08T10:32:55Z</time>
      </trkpt>
      <trkpt lat="41.0476970" lon="0.7305600">
        <ele>262.2</ele>
        <time>2020-08-08T10:32:57Z</time>
      </trkpt>
      <trkpt lat="41.0477000" lon="0.7303870">
        <ele>261.9</ele>
        <time>2020-08-08T10:32:59Z</time>
      </trkpt>
      <trkpt lat="41.0477200" lon="0.7302770">
        <ele>261.7</ele>
        <time>2020-08-08T10:33:01Z</time>
      </trkpt>
      <trkpt lat="41.0477480" lon="0.7302360">
        <ele>261.6</ele>
        <time>2020-08-08T10:33:02Z</time>
      </trkpt>
      <trkpt lat="41.0478070" lon="0.7301740">
        <ele>261.4</ele>
        <time>2020-08-08T10:33:04Z</time>
      </trkpt>
      <trkpt lat="41.0478670" lon="0.7301430">
        <ele>261.2</ele>
        <time>2020-08-08T10:33:05Z</time>
      </trkpt>
      <trkpt lat="41.0479700" lon="0.7301090">
        <ele>260.9</ele>
        <time>2020-08-08T10:33:07Z</time>
      </trkpt>
      <trkpt lat="41.0479930" lon="0.7300900">
        <ele>260.9</ele>
        <time>2020-08-08T10:33:08Z</time>
      </trkpt>
      <trkpt lat="41.0480240" lon="0.7300610">
        <ele>260.8</ele>
        <time>2020-08-08T10:33:10Z</time>
      </trkpt>
      <trkpt lat="41.0480340" lon="0.7300520">
        <ele>260.7</ele>
        <time>2020-08-08T10:33:11Z</time>
      </trkpt>
      <trkpt lat="41.0480520" lon="0.7300310">
        <ele>260.7</ele>
        <time>2020-08-08T10:33:12Z</time>
      </trkpt>
      <trkpt lat="41.0480690" lon="0.7300060">
        <ele>260.6</ele>
        <time>2020-08-08T10:33:14Z</time>
      </trkpt>
      <trkpt lat="41.0480910" lon="0.7299720">
        <ele>260.5</ele>
        <time>2020-08-08T10:33:15Z</time>
      </trkpt>
      <trkpt lat="41.0481080" lon="0.7299390">
        <ele>260.5</ele>
        <time>2020-08-08T10:33:16Z</time>
      </trkpt>
      <trkpt lat="41.0481210" lon="0.7299060">
        <ele>260.4</ele>
        <time>2020-08-08T10:33:18Z</time>
      </trkpt>
      <trkpt lat="41.0481240" lon="0.7298950">
        <ele>260.4</ele>
        <time>2020-08-08T10:33:19Z</time>
      </trkpt>
      <trkpt lat="41.0481200" lon="0.7299000">
        <ele>260.4</ele>
        <time>2020-08-08T10:33:20Z</time>
      </trkpt>
      <trkpt lat="41.0481160" lon="0.7299050">
        <ele>260.4</ele>
        <time>2020-08-08T10:33:21Z</time>
      </trkpt>
      <trkpt lat="41.0481130" lon="0.7299100">
        <ele>260.4</ele>
        <time>2020-08-08T10:33:23Z</time>
      </trkpt>
      <trkpt lat="41.0481100" lon="0.7299150">
        <ele>260.4</ele>
        <time>2020-08-08T10:33:24Z</time>
      </trkpt>
      <trkpt lat="41.0481070" lon="0.7299200">
        <ele>260.4</ele>
        <time>2020-08-08T10:33:26Z</time>
      </trkpt>
      <trkpt lat="41.0481030" lon="0.7299250">
        <ele>260.3</ele>
        <time>2020-08-08T10:33:28Z</time>
      </trkpt>
      <trkpt lat="41.0481000" lon="0.7299300">
        <ele>260.3</ele>
        <time>2020-08-08T10:33:28Z</time>
      </trkpt>
      <trkpt lat="41.0480970" lon="0.7299320">
        <ele>260.3</ele>
        <time>2020-08-08T10:33:30Z</time>
      </trkpt>
      <trkpt lat="41.0480970" lon="0.7299300">
        <ele>260.3</ele>
        <time>2020-08-08T10:33:32Z</time>
      </trkpt>
      <trkpt lat="41.0480960" lon="0.7299280">
        <ele>260.3</ele>
        <time>2020-08-08T10:33:34Z</time>
      </trkpt>
      <trkpt lat="41.0480960" lon="0.7299280">
        <ele>260.3</ele>
        <time>2020-08-08T10:33:35Z</time>
      </trkpt>
      <trkpt lat="41.0480960" lon="0.7299270">
        <ele>260.3</ele>
        <time>2020-08-08T10:33:37Z</time>
      </trkpt>
      <trkpt lat="41.0480960" lon="0.7299270">
        <ele>260.3</ele>
        <time>2020-08-08T10:33:38Z</time>
      </trkpt>
      <trkpt lat="41.0480950" lon="0.7299260">
        <ele>260.3</ele>
        <time>2020-08-08T10:33:39Z</time>
      </trkpt>
      <trkpt lat="41.0480950" lon="0.7299260">
        <ele>260.3</ele>
        <time>2020-08-08T10:33:40Z</time>
      </trkpt>
      <trkpt lat="41.0480950" lon="0.7299260">
        <ele>260.3</ele>
        <time>2020-08-08T10:33:41Z</time>
      </trkpt>
      <trkpt lat="41.0480950" lon="0.7299260">
        <ele>260.3</ele>
        <time>2020-08-08T10:33:43Z</time>
      </trkpt>
      <trkpt lat="41.0480950" lon="0.7299260">
        <ele>260.3</ele>
        <time>2020-08-08T10:33:44Z</time>
      </trkpt>
      <trkpt lat="41.0480950" lon="0.7299260">
        <ele>260.3</ele>
        <time>2020-08-08T10:33:46Z</time>
      </trkpt>
      <trkpt lat="41.0480950" lon="0.7299260">
        <ele>260.3</ele>
        <time>2020-08-08T10:33:47Z</time>
      </trkpt>
      <trkpt lat="41.0480950" lon="0.7299270">
        <ele>260.3</ele>
        <time>2020-08-08T10:33:49Z</time>
      </trkpt>
      <trkpt lat="41.0481080" lon="0.7299050">
        <ele>260.3</ele>
        <time>2020-08-08T10:33:51Z</time>
      </trkpt>
      <trkpt lat="41.0481150" lon="0.7298940">
        <ele>260.2</ele>
        <time>2020-08-08T10:33:52Z</time>
      </trkpt>
      <trkpt lat="41.0481200" lon="0.7298880">
        <ele>260.2</ele>
        <time>2020-08-08T10:33:53Z</time>
      </trkpt>
      <trkpt lat="41.0481230" lon="0.7298790">
        <ele>260.2</ele>
        <time>2020-08-08T10:33:55Z</time>
      </trkpt>
      <trkpt lat="41.0481180" lon="0.7298810">
        <ele>260.2</ele>
        <time>2020-08-08T10:33:56Z</time>
      </trkpt>
      <trkpt lat="41.0481110" lon="0.7298850">
        <ele>260.2</ele>
        <time>2020-08-08T10:33:58Z</time>
      </trkpt>
      <trkpt lat="41.0481110" lon="0.7298850">
        <ele>260.2</ele>
        <time>2020-08-08T10:33:59Z</time>
      </trkpt>
      <trkpt lat="41.0481090" lon="0.7298850">
        <ele>260.2</ele>
        <time>2020-08-08T10:34:00Z</time>
      </trkpt>
      <trkpt lat="41.0481080" lon="0.7298850">
        <ele>260.2</ele>
        <time>2020-08-08T10:34:02Z</time>
      </trkpt>
      <trkpt lat="41.0481080" lon="0.7298860">
        <ele>260.2</ele>
        <time>2020-08-08T10:34:04Z</time>
      </trkpt>
      <trkpt lat="41.0481100" lon="0.7298880">
        <ele>260.2</ele>
        <time>2020-08-08T10:34:05Z</time>
      </trkpt>
      <trkpt lat="41.0481240" lon="0.7298490">
        <ele>260.1</ele>
        <time>2020-08-08T10:34:31Z</time>
      </trkpt>
      <trkpt lat="41.0481290" lon="0.7298320">
        <ele>260.1</ele>
        <time>2020-08-08T10:34:32Z</time>
      </trkpt>
      <trkpt lat="41.0481400" lon="0.7297840">
        <ele>260.0</ele>
        <time>2020-08-08T10:34:34Z</time>
      </trkpt>
      <trkpt lat="41.0481450" lon="0.7297550">
        <ele>259.9</ele>
        <time>2020-08-08T10:34:35Z</time>
      </trkpt>
      <trkpt lat="41.0481430" lon="0.7297650">
        <ele>259.9</ele>
        <time>2020-08-08T10:34:37Z</time>
      </trkpt>
      <trkpt lat="41.0481420" lon="0.7297820">
        <ele>259.9</ele>
        <time>2020-08-08T10:34:38Z</time>
      </trkpt>
      <trkpt lat="41.0481410" lon="0.7297910">
        <ele>259.9</ele>
        <time>2020-08-08T10:34:39Z</time>
      </trkpt>
      <trkpt lat="41.0481350" lon="0.7297920">
        <ele>259.9</ele>
        <time>2020-08-08T10:34:40Z</time>
      </trkpt>
      <trkpt lat="41.0481280" lon="0.7297630">
        <ele>259.8</ele>
        <time>2020-08-08T10:34:41Z</time>
      </trkpt>
      <trkpt lat="41.0481260" lon="0.7296940">
        <ele>259.7</ele>
        <time>2020-08-08T10:34:43Z</time>
      </trkpt>
      <trkpt lat="41.0481250" lon="0.7296510">
        <ele>259.7</ele>
        <time>2020-08-08T10:34:44Z</time>
      </trkpt>
      <trkpt lat="41.0481150" lon="0.7295950">
        <ele>259.6</ele>
        <time>2020-08-08T10:34:45Z</time>
      </trkpt>
      <trkpt lat="41.0481200" lon="0.7295490">
        <ele>259.5</ele>
        <time>2020-08-08T10:34:47Z</time>
      </trkpt>
      <trkpt lat="41.0481290" lon="0.7295070">
        <ele>259.5</ele>
        <time>2020-08-08T10:34:48Z</time>
      </trkpt>
      <trkpt lat="41.0481360" lon="0.7294600">
        <ele>259.4</ele>
        <time>2020-08-08T10:34:49Z</time>
      </trkpt>
      <trkpt lat="41.0481410" lon="0.7294260">
        <ele>259.3</ele>
        <time>2020-08-08T10:34:50Z</time>
      </trkpt>
      <trkpt lat="41.0481510" lon="0.7293720">
        <ele>259.2</ele>
        <time>2020-08-08T10:34:52Z</time>
      </trkpt>
      <trkpt lat="41.0481600" lon="0.7293340">
        <ele>259.2</ele>
        <time>2020-08-08T10:34:53Z</time>
      </trkpt>
      <trkpt lat="41.0481720" lon="0.7292980">
        <ele>259.1</ele>
        <time>2020-08-08T10:34:54Z</time>
      </trkpt>
      <trkpt lat="41.0481820" lon="0.7292620">
        <ele>259.0</ele>
        <time>2020-08-08T10:34:55Z</time>
      </trkpt>
      <trkpt lat="41.0481990" lon="0.7291960">
        <ele>258.9</ele>
        <time>2020-08-08T10:34:57Z</time>
      </trkpt>
      <trkpt lat="41.0482650" lon="0.7288830">
        <ele>258.4</ele>
        <time>2020-08-08T10:34:58Z</time>
      </trkpt>
      <trkpt lat="41.0482760" lon="0.7288340">
        <ele>258.4</ele>
        <time>2020-08-08T10:34:59Z</time>
      </trkpt>
      <trkpt lat="41.0483170" lon="0.7286650">
        <ele>258.0</ele>
        <time>2020-08-08T10:35:01Z</time>
      </trkpt>
      <trkpt lat="41.0483370" lon="0.7285920">
        <ele>257.9</ele>
        <time>2020-08-08T10:35:02Z</time>
      </trkpt>
      <trkpt lat="41.0483560" lon="0.7285190">
        <ele>257.7</ele>
        <time>2020-08-08T10:35:03Z</time>
      </trkpt>
      <trkpt lat="41.0483730" lon="0.7284490">
        <ele>257.6</ele>
        <time>2020-08-08T10:35:04Z</time>
      </trkpt>
      <trkpt lat="41.0484150" lon="0.7283150">
        <ele>257.4</ele>
        <time>2020-08-08T10:35:06Z</time>
      </trkpt>
      <trkpt lat="41.0484580" lon="0.7281790">
        <ele>257.1</ele>
        <time>2020-08-08T10:35:08Z</time>
      </trkpt>
      <trkpt lat="41.0484790" lon="0.7281160">
        <ele>257.0</ele>
        <time>2020-08-08T10:35:09Z</time>
      </trkpt>
      <trkpt lat="41.0484960" lon="0.7280530">
        <ele>256.8</ele>
        <time>2020-08-08T10:35:10Z</time>
      </trkpt>
      <trkpt lat="41.0485250" lon="0.7279370">
        <ele>256.6</ele>
        <time>2020-08-08T10:35:12Z</time>
      </trkpt>
      <trkpt lat="41.0485430" lon="0.7278290">
        <ele>256.3</ele>
        <time>2020-08-08T10:35:14Z</time>
      </trkpt>
      <trkpt lat="41.0485540" lon="0.7277770">
        <ele>256.2</ele>
        <time>2020-08-08T10:35:15Z</time>
      </trkpt>
      <trkpt lat="41.0485680" lon="0.7277270">
        <ele>256.1</ele>
        <time>2020-08-08T10:35:16Z</time>
      </trkpt>
      <trkpt lat="41.0485800" lon="0.7276820">
        <ele>256.0</ele>
        <time>2020-08-08T10:35:17Z</time>
      </trkpt>
      <trkpt lat="41.0485830" lon="0.7275850">
        <ele>255.9</ele>
        <time>2020-08-08T10:35:19Z</time>
      </trkpt>
      <trkpt lat="41.0485830" lon="0.7275450">
        <ele>255.8</ele>
        <time>2020-08-08T10:35:20Z</time>
      </trkpt>
      <trkpt lat="41.0485840" lon="0.7275340">
        <ele>255.8</ele>
        <time>2020-08-08T10:35:21Z</time>
      </trkpt>
      <trkpt lat="41.0485950" lon="0.7275190">
        <ele>255.7</ele>
        <time>2020-08-08T10:35:22Z</time>
      </trkpt>
      <trkpt lat="41.0486090" lon="0.7275000">
        <ele>255.7</ele>
        <time>2020-08-08T10:35:23Z</time>
      </trkpt>
      <trkpt lat="41.0486690" lon="0.7273820">
        <ele>255.4</ele>
        <time>2020-08-08T10:35:24Z</time>
      </trkpt>
      <trkpt lat="41.0487080" lon="0.7272970">
        <ele>255.1</ele>
        <time>2020-08-08T10:35:25Z</time>
      </trkpt>
      <trkpt lat="41.0487650" lon="0.7271410">
        <ele>254.8</ele>
        <time>2020-08-08T10:35:27Z</time>
      </trkpt>
      <trkpt lat="41.0487840" lon="0.7270720">
        <ele>254.6</ele>
        <time>2020-08-08T10:35:28Z</time>
      </trkpt>
      <trkpt lat="41.0488030" lon="0.7270060">
        <ele>254.5</ele>
        <time>2020-08-08T10:35:29Z</time>
      </trkpt>
      <trkpt lat="41.0488450" lon="0.7268730">
        <ele>254.3</ele>
        <time>2020-08-08T10:35:31Z</time>
      </trkpt>
      <trkpt lat="41.0488690" lon="0.7268020">
        <ele>254.1</ele>
        <time>2020-08-08T10:35:32Z</time>
      </trkpt>
      <trkpt lat="41.0489040" lon="0.7266680">
        <ele>253.9</ele>
        <time>2020-08-08T10:35:34Z</time>
      </trkpt>
      <trkpt lat="41.0489570" lon="0.7265230">
        <ele>253.5</ele>
        <time>2020-08-08T10:35:36Z</time>
      </trkpt>
      <trkpt lat="41.0490010" lon="0.7263860">
        <ele>253.3</ele>
        <time>2020-08-08T10:35:38Z</time>
      </trkpt>
      <trkpt lat="41.0490190" lon="0.7263100">
        <ele>253.1</ele>
        <time>2020-08-08T10:35:39Z</time>
      </trkpt>
      <trkpt lat="41.0490430" lon="0.7262330">
        <ele>252.9</ele>
        <time>2020-08-08T10:35:40Z</time>
      </trkpt>
      <trkpt lat="41.0490720" lon="0.7261530">
        <ele>252.7</ele>
        <time>2020-08-08T10:35:41Z</time>
      </trkpt>
      <trkpt lat="41.0491200" lon="0.7259910">
        <ele>252.4</ele>
        <time>2020-08-08T10:35:43Z</time>
      </trkpt>
      <trkpt lat="41.0491410" lon="0.7259110">
        <ele>252.2</ele>
        <time>2020-08-08T10:35:44Z</time>
      </trkpt>
      <trkpt lat="41.0491900" lon="0.7257500">
        <ele>251.7</ele>
        <time>2020-08-08T10:35:46Z</time>
      </trkpt>
      <trkpt lat="41.0492150" lon="0.7256720">
        <ele>251.5</ele>
        <time>2020-08-08T10:35:47Z</time>
      </trkpt>
      <trkpt lat="41.0492750" lon="0.7255110">
        <ele>251.0</ele>
        <time>2020-08-08T10:35:49Z</time>
      </trkpt>
      <trkpt lat="41.0493050" lon="0.7254310">
        <ele>250.7</ele>
        <time>2020-08-08T10:35:50Z</time>
      </trkpt>
      <trkpt lat="41.0493560" lon="0.7252700">
        <ele>250.3</ele>
        <time>2020-08-08T10:35:52Z</time>
      </trkpt>
      <trkpt lat="41.0493830" lon="0.7251830">
        <ele>250.0</ele>
        <time>2020-08-08T10:35:53Z</time>
      </trkpt>
      <trkpt lat="41.0494120" lon="0.7250940">
        <ele>249.7</ele>
        <time>2020-08-08T10:35:54Z</time>
      </trkpt>
      <trkpt lat="41.0494350" lon="0.7250020">
        <ele>249.5</ele>
        <time>2020-08-08T10:35:55Z</time>
      </trkpt>
      <trkpt lat="41.0494990" lon="0.7248170">
        <ele>248.9</ele>
        <time>2020-08-08T10:35:57Z</time>
      </trkpt>
      <trkpt lat="41.0495410" lon="0.7247230">
        <ele>248.6</ele>
        <time>2020-08-08T10:35:58Z</time>
      </trkpt>
      <trkpt lat="41.0495730" lon="0.7246310">
        <ele>248.3</ele>
        <time>2020-08-08T10:35:59Z</time>
      </trkpt>
      <trkpt lat="41.0495990" lon="0.7245320">
        <ele>248.0</ele>
        <time>2020-08-08T10:36:00Z</time>
      </trkpt>
      <trkpt lat="41.0496340" lon="0.7244330">
        <ele>247.6</ele>
        <time>2020-08-08T10:36:01Z</time>
      </trkpt>
      <trkpt lat="41.0496990" lon="0.7242470">
        <ele>247.1</ele>
        <time>2020-08-08T10:36:03Z</time>
      </trkpt>
      <trkpt lat="41.0497300" lon="0.7241620">
        <ele>246.8</ele>
        <time>2020-08-08T10:36:04Z</time>
      </trkpt>
      <trkpt lat="41.0497650" lon="0.7240720">
        <ele>246.5</ele>
        <time>2020-08-08T10:36:05Z</time>
      </trkpt>
      <trkpt lat="41.0498130" lon="0.7238960">
        <ele>245.9</ele>
        <time>2020-08-08T10:36:07Z</time>
      </trkpt>
      <trkpt lat="41.0498470" lon="0.7238160">
        <ele>245.6</ele>
        <time>2020-08-08T10:36:08Z</time>
      </trkpt>
      <trkpt lat="41.0499220" lon="0.7236440">
        <ele>244.9</ele>
        <time>2020-08-08T10:36:10Z</time>
      </trkpt>
      <trkpt lat="41.0500040" lon="0.7234670">
        <ele>244.3</ele>
        <time>2020-08-08T10:36:12Z</time>
      </trkpt>
      <trkpt lat="41.0500870" lon="0.7232790">
        <ele>243.4</ele>
        <time>2020-08-08T10:36:14Z</time>
      </trkpt>
      <trkpt lat="41.0501290" lon="0.7231850">
        <ele>242.9</ele>
        <time>2020-08-08T10:36:15Z</time>
      </trkpt>
      <trkpt lat="41.0502130" lon="0.7229960">
        <ele>242.0</ele>
        <time>2020-08-08T10:36:17Z</time>
      </trkpt>
      <trkpt lat="41.0502760" lon="0.7228040">
        <ele>241.2</ele>
        <time>2020-08-08T10:36:19Z</time>
      </trkpt>
      <trkpt lat="41.0503090" lon="0.7227020">
        <ele>240.8</ele>
        <time>2020-08-08T10:36:20Z</time>
      </trkpt>
      <trkpt lat="41.0503860" lon="0.7225020">
        <ele>240.2</ele>
        <time>2020-08-08T10:36:22Z</time>
      </trkpt>
      <trkpt lat="41.0504720" lon="0.7223070">
        <ele>239.4</ele>
        <time>2020-08-08T10:36:24Z</time>
      </trkpt>
      <trkpt lat="41.0505130" lon="0.7222060">
        <ele>239.1</ele>
        <time>2020-08-08T10:36:25Z</time>
      </trkpt>
      <trkpt lat="41.0505560" lon="0.7221050">
        <ele>238.7</ele>
        <time>2020-08-08T10:36:26Z</time>
      </trkpt>
      <trkpt lat="41.0506560" lon="0.7219140">
        <ele>238.0</ele>
        <time>2020-08-08T10:36:28Z</time>
      </trkpt>
      <trkpt lat="41.0507050" lon="0.7218170">
        <ele>237.7</ele>
        <time>2020-08-08T10:36:29Z</time>
      </trkpt>
      <trkpt lat="41.0507490" lon="0.7217190">
        <ele>237.4</ele>
        <time>2020-08-08T10:36:30Z</time>
      </trkpt>
      <trkpt lat="41.0508270" lon="0.7215240">
        <ele>236.8</ele>
        <time>2020-08-08T10:36:32Z</time>
      </trkpt>
      <trkpt lat="41.0508950" lon="0.7213410">
        <ele>236.2</ele>
        <time>2020-08-08T10:36:34Z</time>
      </trkpt>
      <trkpt lat="41.0509300" lon="0.7212510">
        <ele>235.9</ele>
        <time>2020-08-08T10:36:35Z</time>
      </trkpt>
      <trkpt lat="41.0509660" lon="0.7211630">
        <ele>235.6</ele>
        <time>2020-08-08T10:36:36Z</time>
      </trkpt>
      <trkpt lat="41.0510020" lon="0.7210710">
        <ele>235.3</ele>
        <time>2020-08-08T10:36:37Z</time>
      </trkpt>
      <trkpt lat="41.0510400" lon="0.7209770">
        <ele>235.0</ele>
        <time>2020-08-08T10:36:38Z</time>
      </trkpt>
      <trkpt lat="41.0511150" lon="0.7207890">
        <ele>234.3</ele>
        <time>2020-08-08T10:36:40Z</time>
      </trkpt>
      <trkpt lat="41.0511580" lon="0.7206940">
        <ele>234.0</ele>
        <time>2020-08-08T10:36:41Z</time>
      </trkpt>
      <trkpt lat="41.0511970" lon="0.7205940">
        <ele>233.6</ele>
        <time>2020-08-08T10:36:42Z</time>
      </trkpt>
      <trkpt lat="41.0512780" lon="0.7204040">
        <ele>232.9</ele>
        <time>2020-08-08T10:36:44Z</time>
      </trkpt>
      <trkpt lat="41.0513420" lon="0.7202260">
        <ele>232.2</ele>
        <time>2020-08-08T10:36:46Z</time>
      </trkpt>
      <trkpt lat="41.0513760" lon="0.7201340">
        <ele>231.9</ele>
        <time>2020-08-08T10:36:47Z</time>
      </trkpt>
      <trkpt lat="41.0514130" lon="0.7200380">
        <ele>231.5</ele>
        <time>2020-08-08T10:36:48Z</time>
      </trkpt>
      <trkpt lat="41.0514500" lon="0.7199360">
        <ele>231.2</ele>
        <time>2020-08-08T10:36:49Z</time>
      </trkpt>
      <trkpt lat="41.0515310" lon="0.7197330">
        <ele>230.4</ele>
        <time>2020-08-08T10:36:51Z</time>
      </trkpt>
      <trkpt lat="41.0516230" lon="0.7195390">
        <ele>229.7</ele>
        <time>2020-08-08T10:36:53Z</time>
      </trkpt>
      <trkpt lat="41.0516650" lon="0.7194410">
        <ele>229.3</ele>
        <time>2020-08-08T10:36:54Z</time>
      </trkpt>
      <trkpt lat="41.0517370" lon="0.7192400">
        <ele>228.6</ele>
        <time>2020-08-08T10:36:56Z</time>
      </trkpt>
      <trkpt lat="41.0517710" lon="0.7191410">
        <ele>228.2</ele>
        <time>2020-08-08T10:36:57Z</time>
      </trkpt>
      <trkpt lat="41.0518090" lon="0.7190420">
        <ele>227.8</ele>
        <time>2020-08-08T10:36:58Z</time>
      </trkpt>
      <trkpt lat="41.0518480" lon="0.7189410">
        <ele>227.4</ele>
        <time>2020-08-08T10:36:59Z</time>
      </trkpt>
      <trkpt lat="41.0518880" lon="0.7188420">
        <ele>227.1</ele>
        <time>2020-08-08T10:37:00Z</time>
      </trkpt>
      <trkpt lat="41.0519690" lon="0.7186450">
        <ele>226.4</ele>
        <time>2020-08-08T10:37:02Z</time>
      </trkpt>
      <trkpt lat="41.0520520" lon="0.7184570">
        <ele>225.6</ele>
        <time>2020-08-08T10:37:04Z</time>
      </trkpt>
      <trkpt lat="41.0520980" lon="0.7183600">
        <ele>225.2</ele>
        <time>2020-08-08T10:37:05Z</time>
      </trkpt>
      <trkpt lat="41.0521460" lon="0.7182600">
        <ele>224.9</ele>
        <time>2020-08-08T10:37:06Z</time>
      </trkpt>
      <trkpt lat="41.0521900" lon="0.7181660">
        <ele>224.6</ele>
        <time>2020-08-08T10:37:07Z</time>
      </trkpt>
      <trkpt lat="41.0522750" lon="0.7179650">
        <ele>224.0</ele>
        <time>2020-08-08T10:37:09Z</time>
      </trkpt>
      <trkpt lat="41.0523600" lon="0.7177680">
        <ele>223.4</ele>
        <time>2020-08-08T10:37:11Z</time>
      </trkpt>
      <trkpt lat="41.0524340" lon="0.7175820">
        <ele>222.8</ele>
        <time>2020-08-08T10:37:13Z</time>
      </trkpt>
      <trkpt lat="41.0524670" lon="0.7174900">
        <ele>222.6</ele>
        <time>2020-08-08T10:37:14Z</time>
      </trkpt>
      <trkpt lat="41.0525020" lon="0.7174010">
        <ele>222.4</ele>
        <time>2020-08-08T10:37:15Z</time>
      </trkpt>
      <trkpt lat="41.0525720" lon="0.7172280">
        <ele>222.1</ele>
        <time>2020-08-08T10:37:17Z</time>
      </trkpt>
      <trkpt lat="41.0526040" lon="0.7171420">
        <ele>222.0</ele>
        <time>2020-08-08T10:37:18Z</time>
      </trkpt>
      <trkpt lat="41.0526670" lon="0.7169810">
        <ele>221.8</ele>
        <time>2020-08-08T10:37:20Z</time>
      </trkpt>
      <trkpt lat="41.0527020" lon="0.7168210">
        <ele>221.7</ele>
        <time>2020-08-08T10:37:22Z</time>
      </trkpt>
      <trkpt lat="41.0527260" lon="0.7167450">
        <ele>221.7</ele>
        <time>2020-08-08T10:37:23Z</time>
      </trkpt>
      <trkpt lat="41.0527660" lon="0.7165930">
        <ele>221.5</ele>
        <time>2020-08-08T10:37:25Z</time>
      </trkpt>
      <trkpt lat="41.0527850" lon="0.7165130">
        <ele>221.4</ele>
        <time>2020-08-08T10:37:26Z</time>
      </trkpt>
      <trkpt lat="41.0528000" lon="0.7164370">
        <ele>221.3</ele>
        <time>2020-08-08T10:37:27Z</time>
      </trkpt>
      <trkpt lat="41.0528090" lon="0.7163550">
        <ele>221.3</ele>
        <time>2020-08-08T10:37:28Z</time>
      </trkpt>
      <trkpt lat="41.0528290" lon="0.7162060">
        <ele>221.2</ele>
        <time>2020-08-08T10:37:30Z</time>
      </trkpt>
      <trkpt lat="41.0528590" lon="0.7160700">
        <ele>221.1</ele>
        <time>2020-08-08T10:37:32Z</time>
      </trkpt>
      <trkpt lat="41.0528690" lon="0.7159950">
        <ele>221.0</ele>
        <time>2020-08-08T10:37:33Z</time>
      </trkpt>
      <trkpt lat="41.0528790" lon="0.7159170">
        <ele>220.9</ele>
        <time>2020-08-08T10:37:34Z</time>
      </trkpt>
      <trkpt lat="41.0528840" lon="0.7157560">
        <ele>220.8</ele>
        <time>2020-08-08T10:37:36Z</time>
      </trkpt>
      <trkpt lat="41.0528900" lon="0.7155970">
        <ele>220.7</ele>
        <time>2020-08-08T10:37:38Z</time>
      </trkpt>
      <trkpt lat="41.0528930" lon="0.7155200">
        <ele>220.6</ele>
        <time>2020-08-08T10:37:39Z</time>
      </trkpt>
      <trkpt lat="41.0529070" lon="0.7153810">
        <ele>220.4</ele>
        <time>2020-08-08T10:37:41Z</time>
      </trkpt>
      <trkpt lat="41.0529130" lon="0.7153120">
        <ele>220.4</ele>
        <time>2020-08-08T10:37:42Z</time>
      </trkpt>
      <trkpt lat="41.0529170" lon="0.7152430">
        <ele>220.3</ele>
        <time>2020-08-08T10:37:43Z</time>
      </trkpt>
      <trkpt lat="41.0529070" lon="0.7151040">
        <ele>220.3</ele>
        <time>2020-08-08T10:37:45Z</time>
      </trkpt>
      <trkpt lat="41.0529090" lon="0.7150310">
        <ele>220.2</ele>
        <time>2020-08-08T10:37:46Z</time>
      </trkpt>
      <trkpt lat="41.0529130" lon="0.7149580">
        <ele>220.2</ele>
        <time>2020-08-08T10:37:47Z</time>
      </trkpt>
      <trkpt lat="41.0529170" lon="0.7148810">
        <ele>220.2</ele>
        <time>2020-08-08T10:37:48Z</time>
      </trkpt>
      <trkpt lat="41.0529320" lon="0.7147300">
        <ele>220.1</ele>
        <time>2020-08-08T10:37:50Z</time>
      </trkpt>
      <trkpt lat="41.0529400" lon="0.7146510">
        <ele>220.0</ele>
        <time>2020-08-08T10:37:51Z</time>
      </trkpt>
      <trkpt lat="41.0529540" lon="0.7144940">
        <ele>219.8</ele>
        <time>2020-08-08T10:37:53Z</time>
      </trkpt>
      <trkpt lat="41.0529610" lon="0.7144160">
        <ele>219.7</ele>
        <time>2020-08-08T10:37:54Z</time>
      </trkpt>
      <trkpt lat="41.0529610" lon="0.7143410">
        <ele>219.7</ele>
        <time>2020-08-08T10:37:55Z</time>
      </trkpt>
      <trkpt lat="41.0529590" lon="0.7142640">
        <ele>219.6</ele>
        <time>2020-08-08T10:37:56Z</time>
      </trkpt>
      <trkpt lat="41.0529600" lon="0.7141890">
        <ele>219.6</ele>
        <time>2020-08-08T10:37:57Z</time>
      </trkpt>
      <trkpt lat="41.0529640" lon="0.7141140">
        <ele>219.6</ele>
        <time>2020-08-08T10:37:58Z</time>
      </trkpt>
      <trkpt lat="41.0529710" lon="0.7139670">
        <ele>219.3</ele>
        <time>2020-08-08T10:38:00Z</time>
      </trkpt>
      <trkpt lat="41.0529820" lon="0.7138910">
        <ele>219.0</ele>
        <time>2020-08-08T10:38:01Z</time>
      </trkpt>
      <trkpt lat="41.0529980" lon="0.7137420">
        <ele>218.6</ele>
        <time>2020-08-08T10:38:03Z</time>
      </trkpt>
      <trkpt lat="41.0530280" lon="0.7136190">
        <ele>218.4</ele>
        <time>2020-08-08T10:38:05Z</time>
      </trkpt>
      <trkpt lat="41.0530400" lon="0.7135530">
        <ele>218.2</ele>
        <time>2020-08-08T10:38:06Z</time>
      </trkpt>
      <trkpt lat="41.0530680" lon="0.7134420">
        <ele>218.0</ele>
        <time>2020-08-08T10:38:08Z</time>
      </trkpt>
      <trkpt lat="41.0530790" lon="0.7133730">
        <ele>217.8</ele>
        <time>2020-08-08T10:38:09Z</time>
      </trkpt>
      <trkpt lat="41.0530860" lon="0.7133120">
        <ele>217.7</ele>
        <time>2020-08-08T10:38:10Z</time>
      </trkpt>
      <trkpt lat="41.0530980" lon="0.7131720">
        <ele>217.4</ele>
        <time>2020-08-08T10:38:12Z</time>
      </trkpt>
      <trkpt lat="41.0531110" lon="0.7130290">
        <ele>217.2</ele>
        <time>2020-08-08T10:38:14Z</time>
      </trkpt>
      <trkpt lat="41.0531230" lon="0.7129540">
        <ele>217.0</ele>
        <time>2020-08-08T10:38:15Z</time>
      </trkpt>
      <trkpt lat="41.0531370" lon="0.7128070">
        <ele>216.7</ele>
        <time>2020-08-08T10:38:17Z</time>
      </trkpt>
      <trkpt lat="41.0531420" lon="0.7126520">
        <ele>216.4</ele>
        <time>2020-08-08T10:38:19Z</time>
      </trkpt>
      <trkpt lat="41.0531570" lon="0.7124930">
        <ele>216.0</ele>
        <time>2020-08-08T10:38:21Z</time>
      </trkpt>
      <trkpt lat="41.0531770" lon="0.7124230">
        <ele>215.8</ele>
        <time>2020-08-08T10:38:22Z</time>
      </trkpt>
      <trkpt lat="41.0532040" lon="0.7123610">
        <ele>215.6</ele>
        <time>2020-08-08T10:38:23Z</time>
      </trkpt>
      <trkpt lat="41.0532540" lon="0.7122060">
        <ele>215.2</ele>
        <time>2020-08-08T10:38:25Z</time>
      </trkpt>
      <trkpt lat="41.0532820" lon="0.7121270">
        <ele>214.9</ele>
        <time>2020-08-08T10:38:26Z</time>
      </trkpt>
      <trkpt lat="41.0533190" lon="0.7120600">
        <ele>214.7</ele>
        <time>2020-08-08T10:38:27Z</time>
      </trkpt>
      <trkpt lat="41.0533570" lon="0.7119920">
        <ele>214.4</ele>
        <time>2020-08-08T10:38:28Z</time>
      </trkpt>
      <trkpt lat="41.0533980" lon="0.7119230">
        <ele>214.2</ele>
        <time>2020-08-08T10:38:29Z</time>
      </trkpt>
      <trkpt lat="41.0534360" lon="0.7118520">
        <ele>213.9</ele>
        <time>2020-08-08T10:38:30Z</time>
      </trkpt>
      <trkpt lat="41.0535160" lon="0.7117080">
        <ele>213.3</ele>
        <time>2020-08-08T10:38:32Z</time>
      </trkpt>
      <trkpt lat="41.0535960" lon="0.7115590">
        <ele>212.7</ele>
        <time>2020-08-08T10:38:34Z</time>
      </trkpt>
      <trkpt lat="41.0536780" lon="0.7114080">
        <ele>212.2</ele>
        <time>2020-08-08T10:38:36Z</time>
      </trkpt>
      <trkpt lat="41.0537180" lon="0.7113330">
        <ele>212.0</ele>
        <time>2020-08-08T10:38:37Z</time>
      </trkpt>
      <trkpt lat="41.0537930" lon="0.7111990">
        <ele>211.6</ele>
        <time>2020-08-08T10:38:39Z</time>
      </trkpt>
      <trkpt lat="41.0538580" lon="0.7110460">
        <ele>211.1</ele>
        <time>2020-08-08T10:38:41Z</time>
      </trkpt>
      <trkpt lat="41.0538920" lon="0.7109690">
        <ele>210.8</ele>
        <time>2020-08-08T10:38:42Z</time>
      </trkpt>
      <trkpt lat="41.0539590" lon="0.7108140">
        <ele>210.5</ele>
        <time>2020-08-08T10:38:44Z</time>
      </trkpt>
      <trkpt lat="41.0540060" lon="0.7106470">
        <ele>210.2</ele>
        <time>2020-08-08T10:38:46Z</time>
      </trkpt>
      <trkpt lat="41.0540230" lon="0.7105590">
        <ele>210.0</ele>
        <time>2020-08-08T10:38:47Z</time>
      </trkpt>
      <trkpt lat="41.0540520" lon="0.7103960">
        <ele>209.7</ele>
        <time>2020-08-08T10:38:49Z</time>
      </trkpt>
      <trkpt lat="41.0540730" lon="0.7102410">
        <ele>209.3</ele>
        <time>2020-08-08T10:38:51Z</time>
      </trkpt>
      <trkpt lat="41.0540810" lon="0.7101640">
        <ele>209.2</ele>
        <time>2020-08-08T10:38:52Z</time>
      </trkpt>
      <trkpt lat="41.0540910" lon="0.7100850">
        <ele>209.0</ele>
        <time>2020-08-08T10:38:53Z</time>
      </trkpt>
      <trkpt lat="41.0541000" lon="0.7100060">
        <ele>208.8</ele>
        <time>2020-08-08T10:38:54Z</time>
      </trkpt>
      <trkpt lat="41.0541140" lon="0.7098450">
        <ele>208.4</ele>
        <time>2020-08-08T10:38:56Z</time>
      </trkpt>
      <trkpt lat="41.0541360" lon="0.7096720">
        <ele>207.9</ele>
        <time>2020-08-08T10:38:58Z</time>
      </trkpt>
      <trkpt lat="41.0541470" lon="0.7095870">
        <ele>207.7</ele>
        <time>2020-08-08T10:38:59Z</time>
      </trkpt>
      <trkpt lat="41.0541600" lon="0.7095070">
        <ele>207.6</ele>
        <time>2020-08-08T10:39:00Z</time>
      </trkpt>
      <trkpt lat="41.0541850" lon="0.7093380">
        <ele>207.2</ele>
        <time>2020-08-08T10:39:02Z</time>
      </trkpt>
      <trkpt lat="41.0541960" lon="0.7092570">
        <ele>207.0</ele>
        <time>2020-08-08T10:39:03Z</time>
      </trkpt>
      <trkpt lat="41.0542070" lon="0.7091740">
        <ele>206.8</ele>
        <time>2020-08-08T10:39:04Z</time>
      </trkpt>
      <trkpt lat="41.0542260" lon="0.7090230">
        <ele>206.4</ele>
        <time>2020-08-08T10:39:06Z</time>
      </trkpt>
      <trkpt lat="41.0542310" lon="0.7089390">
        <ele>206.2</ele>
        <time>2020-08-08T10:39:07Z</time>
      </trkpt>
      <trkpt lat="41.0542380" lon="0.7088540">
        <ele>206.0</ele>
        <time>2020-08-08T10:39:08Z</time>
      </trkpt>
      <trkpt lat="41.0542380" lon="0.7087640">
        <ele>205.8</ele>
        <time>2020-08-08T10:39:09Z</time>
      </trkpt>
      <trkpt lat="41.0542570" lon="0.7085900">
        <ele>205.5</ele>
        <time>2020-08-08T10:39:11Z</time>
      </trkpt>
      <trkpt lat="41.0542770" lon="0.7084220">
        <ele>205.1</ele>
        <time>2020-08-08T10:39:13Z</time>
      </trkpt>
      <trkpt lat="41.0542880" lon="0.7083360">
        <ele>204.9</ele>
        <time>2020-08-08T10:39:14Z</time>
      </trkpt>
      <trkpt lat="41.0543160" lon="0.7081730">
        <ele>204.6</ele>
        <time>2020-08-08T10:39:16Z</time>
      </trkpt>
      <trkpt lat="41.0543290" lon="0.7080910">
        <ele>204.4</ele>
        <time>2020-08-08T10:39:17Z</time>
      </trkpt>
      <trkpt lat="41.0543520" lon="0.7079320">
        <ele>204.0</ele>
        <time>2020-08-08T10:39:19Z</time>
      </trkpt>
      <trkpt lat="41.0543610" lon="0.7078500">
        <ele>203.9</ele>
        <time>2020-08-08T10:39:20Z</time>
      </trkpt>
      <trkpt lat="41.0543690" lon="0.7077670">
        <ele>203.7</ele>
        <time>2020-08-08T10:39:21Z</time>
      </trkpt>
      <trkpt lat="41.0543760" lon="0.7075820">
        <ele>203.3</ele>
        <time>2020-08-08T10:39:23Z</time>
      </trkpt>
      <trkpt lat="41.0543810" lon="0.7074940">
        <ele>203.1</ele>
        <time>2020-08-08T10:39:24Z</time>
      </trkpt>
      <trkpt lat="41.0543970" lon="0.7073250">
        <ele>202.8</ele>
        <time>2020-08-08T10:39:26Z</time>
      </trkpt>
      <trkpt lat="41.0544060" lon="0.7072410">
        <ele>202.6</ele>
        <time>2020-08-08T10:39:27Z</time>
      </trkpt>
      <trkpt lat="41.0544160" lon="0.7071570">
        <ele>202.5</ele>
        <time>2020-08-08T10:39:28Z</time>
      </trkpt>
      <trkpt lat="41.0544480" lon="0.7070270">
        <ele>202.2</ele>
        <time>2020-08-08T10:39:30Z</time>
      </trkpt>
      <trkpt lat="41.0544510" lon="0.7069500">
        <ele>202.1</ele>
        <time>2020-08-08T10:39:31Z</time>
      </trkpt>
      <trkpt lat="41.0544560" lon="0.7068720">
        <ele>202.0</ele>
        <time>2020-08-08T10:39:32Z</time>
      </trkpt>
      <trkpt lat="41.0544630" lon="0.7067920">
        <ele>201.9</ele>
        <time>2020-08-08T10:39:33Z</time>
      </trkpt>
      <trkpt lat="41.0544700" lon="0.7067100">
        <ele>201.8</ele>
        <time>2020-08-08T10:39:34Z</time>
      </trkpt>
      <trkpt lat="41.0544880" lon="0.7065460">
        <ele>201.6</ele>
        <time>2020-08-08T10:39:36Z</time>
      </trkpt>
      <trkpt lat="41.0545100" lon="0.7063750">
        <ele>201.3</ele>
        <time>2020-08-08T10:39:38Z</time>
      </trkpt>
      <trkpt lat="41.0545230" lon="0.7062910">
        <ele>201.2</ele>
        <time>2020-08-08T10:39:39Z</time>
      </trkpt>
      <trkpt lat="41.0545600" lon="0.7061350">
        <ele>200.9</ele>
        <time>2020-08-08T10:39:41Z</time>
      </trkpt>
      <trkpt lat="41.0545770" lon="0.7060630">
        <ele>200.7</ele>
        <time>2020-08-08T10:39:42Z</time>
      </trkpt>
      <trkpt lat="41.0545890" lon="0.7059940">
        <ele>200.6</ele>
        <time>2020-08-08T10:39:43Z</time>
      </trkpt>
      <trkpt lat="41.0546270" lon="0.7058650">
        <ele>200.2</ele>
        <time>2020-08-08T10:39:45Z</time>
      </trkpt>
      <trkpt lat="41.0546750" lon="0.7057330">
        <ele>199.9</ele>
        <time>2020-08-08T10:39:47Z</time>
      </trkpt>
      <trkpt lat="41.0547010" lon="0.7056620">
        <ele>199.7</ele>
        <time>2020-08-08T10:39:48Z</time>
      </trkpt>
      <trkpt lat="41.0547270" lon="0.7055940">
        <ele>199.5</ele>
        <time>2020-08-08T10:39:49Z</time>
      </trkpt>
      <trkpt lat="41.0547530" lon="0.7055320">
        <ele>199.3</ele>
        <time>2020-08-08T10:39:50Z</time>
      </trkpt>
      <trkpt lat="41.0548050" lon="0.7053900">
        <ele>198.9</ele>
        <time>2020-08-08T10:39:52Z</time>
      </trkpt>
      <trkpt lat="41.0548310" lon="0.7053120">
        <ele>198.6</ele>
        <time>2020-08-08T10:39:53Z</time>
      </trkpt>
      <trkpt lat="41.0548530" lon="0.7052320">
        <ele>198.3</ele>
        <time>2020-08-08T10:39:54Z</time>
      </trkpt>
      <trkpt lat="41.0548740" lon="0.7051550">
        <ele>198.1</ele>
        <time>2020-08-08T10:39:55Z</time>
      </trkpt>
      <trkpt lat="41.0548970" lon="0.7050740">
        <ele>197.8</ele>
        <time>2020-08-08T10:39:56Z</time>
      </trkpt>
      <trkpt lat="41.0549600" lon="0.7049000">
        <ele>197.1</ele>
        <time>2020-08-08T10:39:58Z</time>
      </trkpt>
      <trkpt lat="41.0549980" lon="0.7048160">
        <ele>196.7</ele>
        <time>2020-08-08T10:39:59Z</time>
      </trkpt>
      <trkpt lat="41.0550340" lon="0.7047410">
        <ele>196.4</ele>
        <time>2020-08-08T10:40:00Z</time>
      </trkpt>
      <trkpt lat="41.0551060" lon="0.7045730">
        <ele>195.7</ele>
        <time>2020-08-08T10:40:02Z</time>
      </trkpt>
      <trkpt lat="41.0551410" lon="0.7044830">
        <ele>195.3</ele>
        <time>2020-08-08T10:40:03Z</time>
      </trkpt>
      <trkpt lat="41.0551770" lon="0.7043910">
        <ele>194.9</ele>
        <time>2020-08-08T10:40:04Z</time>
      </trkpt>
      <trkpt lat="41.0552450" lon="0.7042040">
        <ele>194.2</ele>
        <time>2020-08-08T10:40:06Z</time>
      </trkpt>
      <trkpt lat="41.0552780" lon="0.7041080">
        <ele>193.8</ele>
        <time>2020-08-08T10:40:07Z</time>
      </trkpt>
      <trkpt lat="41.0553120" lon="0.7040100">
        <ele>193.4</ele>
        <time>2020-08-08T10:40:08Z</time>
      </trkpt>
      <trkpt lat="41.0553500" lon="0.7039150">
        <ele>193.1</ele>
        <time>2020-08-08T10:40:09Z</time>
      </trkpt>
      <trkpt lat="41.0554200" lon="0.7037230">
        <ele>192.5</ele>
        <time>2020-08-08T10:40:11Z</time>
      </trkpt>
      <trkpt lat="41.0554530" lon="0.7036300">
        <ele>192.2</ele>
        <time>2020-08-08T10:40:12Z</time>
      </trkpt>
      <trkpt lat="41.0555220" lon="0.7034480">
        <ele>191.3</ele>
        <time>2020-08-08T10:40:14Z</time>
      </trkpt>
      <trkpt lat="41.0555560" lon="0.7033570">
        <ele>190.9</ele>
        <time>2020-08-08T10:40:15Z</time>
      </trkpt>
      <trkpt lat="41.0555910" lon="0.7032640">
        <ele>190.4</ele>
        <time>2020-08-08T10:40:16Z</time>
      </trkpt>
      <trkpt lat="41.0556620" lon="0.7030740">
        <ele>189.6</ele>
        <time>2020-08-08T10:40:18Z</time>
      </trkpt>
      <trkpt lat="41.0556970" lon="0.7029770">
        <ele>189.2</ele>
        <time>2020-08-08T10:40:19Z</time>
      </trkpt>
      <trkpt lat="41.0557670" lon="0.7027890">
        <ele>188.4</ele>
        <time>2020-08-08T10:40:21Z</time>
      </trkpt>
      <trkpt lat="41.0558380" lon="0.7025990">
        <ele>187.5</ele>
        <time>2020-08-08T10:40:23Z</time>
      </trkpt>
      <trkpt lat="41.0558630" lon="0.7025000">
        <ele>187.1</ele>
        <time>2020-08-08T10:40:24Z</time>
      </trkpt>
      <trkpt lat="41.0558900" lon="0.7024000">
        <ele>186.8</ele>
        <time>2020-08-08T10:40:25Z</time>
      </trkpt>
      <trkpt lat="41.0559640" lon="0.7021940">
        <ele>185.9</ele>
        <time>2020-08-08T10:40:27Z</time>
      </trkpt>
      <trkpt lat="41.0560070" lon="0.7020890">
        <ele>185.5</ele>
        <time>2020-08-08T10:40:28Z</time>
      </trkpt>
      <trkpt lat="41.0560490" lon="0.7019820">
        <ele>185.0</ele>
        <time>2020-08-08T10:40:29Z</time>
      </trkpt>
      <trkpt lat="41.0561340" lon="0.7017730">
        <ele>184.0</ele>
        <time>2020-08-08T10:40:31Z</time>
      </trkpt>
      <trkpt lat="41.0561740" lon="0.7016730">
        <ele>183.6</ele>
        <time>2020-08-08T10:40:32Z</time>
      </trkpt>
      <trkpt lat="41.0562010" lon="0.7015710">
        <ele>183.2</ele>
        <time>2020-08-08T10:40:33Z</time>
      </trkpt>
      <trkpt lat="41.0562760" lon="0.7013640">
        <ele>182.3</ele>
        <time>2020-08-08T10:40:35Z</time>
      </trkpt>
      <trkpt lat="41.0563410" lon="0.7011600">
        <ele>181.5</ele>
        <time>2020-08-08T10:40:37Z</time>
      </trkpt>
      <trkpt lat="41.0564230" lon="0.7009630">
        <ele>180.7</ele>
        <time>2020-08-08T10:40:39Z</time>
      </trkpt>
      <trkpt lat="41.0564970" lon="0.7007690">
        <ele>180.1</ele>
        <time>2020-08-08T10:40:41Z</time>
      </trkpt>
      <trkpt lat="41.0565330" lon="0.7006780">
        <ele>179.8</ele>
        <time>2020-08-08T10:40:42Z</time>
      </trkpt>
      <trkpt lat="41.0566060" lon="0.7004920">
        <ele>179.4</ele>
        <time>2020-08-08T10:40:44Z</time>
      </trkpt>
      <trkpt lat="41.0566460" lon="0.7004020">
        <ele>179.2</ele>
        <time>2020-08-08T10:40:45Z</time>
      </trkpt>
      <trkpt lat="41.0566840" lon="0.7003120">
        <ele>179.0</ele>
        <time>2020-08-08T10:40:46Z</time>
      </trkpt>
      <trkpt lat="41.0567200" lon="0.7002200">
        <ele>178.9</ele>
        <time>2020-08-08T10:40:47Z</time>
      </trkpt>
      <trkpt lat="41.0567770" lon="0.7000410">
        <ele>178.5</ele>
        <time>2020-08-08T10:40:49Z</time>
      </trkpt>
      <trkpt lat="41.0568110" lon="0.6999550">
        <ele>178.4</ele>
        <time>2020-08-08T10:40:50Z</time>
      </trkpt>
      <trkpt lat="41.0568810" lon="0.6997850">
        <ele>178.1</ele>
        <time>2020-08-08T10:40:52Z</time>
      </trkpt>
      <trkpt lat="41.0569460" lon="0.6996110">
        <ele>177.8</ele>
        <time>2020-08-08T10:40:54Z</time>
      </trkpt>
      <trkpt lat="41.0570080" lon="0.6994470">
        <ele>177.4</ele>
        <time>2020-08-08T10:40:56Z</time>
      </trkpt>
      <trkpt lat="41.0570440" lon="0.6993670">
        <ele>177.3</ele>
        <time>2020-08-08T10:40:57Z</time>
      </trkpt>
      <trkpt lat="41.0571190" lon="0.6991990">
        <ele>177.1</ele>
        <time>2020-08-08T10:40:59Z</time>
      </trkpt>
      <trkpt lat="41.0571850" lon="0.6990620">
        <ele>176.9</ele>
        <time>2020-08-08T10:41:01Z</time>
      </trkpt>
      <trkpt lat="41.0572160" lon="0.6989910">
        <ele>176.7</ele>
        <time>2020-08-08T10:41:02Z</time>
      </trkpt>
      <trkpt lat="41.0572640" lon="0.6988370">
        <ele>176.5</ele>
        <time>2020-08-08T10:41:04Z</time>
      </trkpt>
      <trkpt lat="41.0572880" lon="0.6987620">
        <ele>176.4</ele>
        <time>2020-08-08T10:41:05Z</time>
      </trkpt>
      <trkpt lat="41.0573440" lon="0.6986220">
        <ele>176.2</ele>
        <time>2020-08-08T10:41:07Z</time>
      </trkpt>
      <trkpt lat="41.0573720" lon="0.6985510">
        <ele>176.1</ele>
        <time>2020-08-08T10:41:08Z</time>
      </trkpt>
      <trkpt lat="41.0574250" lon="0.6984050">
        <ele>176.0</ele>
        <time>2020-08-08T10:41:10Z</time>
      </trkpt>
      <trkpt lat="41.0574690" lon="0.6982620">
        <ele>175.8</ele>
        <time>2020-08-08T10:41:12Z</time>
      </trkpt>
      <trkpt lat="41.0575180" lon="0.6981190">
        <ele>175.7</ele>
        <time>2020-08-08T10:41:14Z</time>
      </trkpt>
      <trkpt lat="41.0575670" lon="0.6979770">
        <ele>175.6</ele>
        <time>2020-08-08T10:41:16Z</time>
      </trkpt>
      <trkpt lat="41.0575910" lon="0.6979080">
        <ele>175.5</ele>
        <time>2020-08-08T10:41:17Z</time>
      </trkpt>
      <trkpt lat="41.0576500" lon="0.6977780">
        <ele>175.4</ele>
        <time>2020-08-08T10:41:19Z</time>
      </trkpt>
      <trkpt lat="41.0576750" lon="0.6977040">
        <ele>175.3</ele>
        <time>2020-08-08T10:41:20Z</time>
      </trkpt>
      <trkpt lat="41.0577010" lon="0.6976270">
        <ele>175.2</ele>
        <time>2020-08-08T10:41:21Z</time>
      </trkpt>
      <trkpt lat="41.0577260" lon="0.6975550">
        <ele>175.1</ele>
        <time>2020-08-08T10:41:22Z</time>
      </trkpt>
      <trkpt lat="41.0577490" lon="0.6974900">
        <ele>175.1</ele>
        <time>2020-08-08T10:41:23Z</time>
      </trkpt>
      <trkpt lat="41.0577960" lon="0.6973590">
        <ele>175.0</ele>
        <time>2020-08-08T10:41:25Z</time>
      </trkpt>
      <trkpt lat="41.0578210" lon="0.6972860">
        <ele>174.9</ele>
        <time>2020-08-08T10:41:26Z</time>
      </trkpt>
      <trkpt lat="41.0578760" lon="0.6971570">
        <ele>174.8</ele>
        <time>2020-08-08T10:41:28Z</time>
      </trkpt>
      <trkpt lat="41.0579080" lon="0.6970990">
        <ele>174.7</ele>
        <time>2020-08-08T10:41:29Z</time>
      </trkpt>
      <trkpt lat="41.0579360" lon="0.6970420">
        <ele>174.6</ele>
        <time>2020-08-08T10:41:30Z</time>
      </trkpt>
      <trkpt lat="41.0579860" lon="0.6969140">
        <ele>174.5</ele>
        <time>2020-08-08T10:41:32Z</time>
      </trkpt>
      <trkpt lat="41.0580340" lon="0.6967750">
        <ele>174.4</ele>
        <time>2020-08-08T10:41:34Z</time>
      </trkpt>
      <trkpt lat="41.0580490" lon="0.6967110">
        <ele>174.3</ele>
        <time>2020-08-08T10:41:35Z</time>
      </trkpt>
      <trkpt lat="41.0580850" lon="0.6965830">
        <ele>174.2</ele>
        <time>2020-08-08T10:41:37Z</time>
      </trkpt>
      <trkpt lat="41.0580990" lon="0.6965160">
        <ele>174.2</ele>
        <time>2020-08-08T10:41:38Z</time>
      </trkpt>
      <trkpt lat="41.0581070" lon="0.6964480">
        <ele>174.2</ele>
        <time>2020-08-08T10:41:39Z</time>
      </trkpt>
      <trkpt lat="41.0581170" lon="0.6963790">
        <ele>174.1</ele>
        <time>2020-08-08T10:41:40Z</time>
      </trkpt>
      <trkpt lat="41.0581560" lon="0.6962400">
        <ele>174.0</ele>
        <time>2020-08-08T10:41:42Z</time>
      </trkpt>
      <trkpt lat="41.0581770" lon="0.6961740">
        <ele>174.0</ele>
        <time>2020-08-08T10:41:43Z</time>
      </trkpt>
      <trkpt lat="41.0581940" lon="0.6961030">
        <ele>173.9</ele>
        <time>2020-08-08T10:41:44Z</time>
      </trkpt>
      <trkpt lat="41.0582330" lon="0.6959640">
        <ele>173.8</ele>
        <time>2020-08-08T10:41:46Z</time>
      </trkpt>
      <trkpt lat="41.0582620" lon="0.6958300">
        <ele>173.8</ele>
        <time>2020-08-08T10:41:48Z</time>
      </trkpt>
      <trkpt lat="41.0582720" lon="0.6957610">
        <ele>173.8</ele>
        <time>2020-08-08T10:41:49Z</time>
      </trkpt>
      <trkpt lat="41.0582980" lon="0.6956220">
        <ele>173.8</ele>
        <time>2020-08-08T10:41:51Z</time>
      </trkpt>
      <trkpt lat="41.0583080" lon="0.6955550">
        <ele>173.8</ele>
        <time>2020-08-08T10:41:52Z</time>
      </trkpt>
      <trkpt lat="41.0583180" lon="0.6954890">
        <ele>173.8</ele>
        <time>2020-08-08T10:41:53Z</time>
      </trkpt>
      <trkpt lat="41.0583220" lon="0.6954190">
        <ele>173.8</ele>
        <time>2020-08-08T10:41:54Z</time>
      </trkpt>
      <trkpt lat="41.0583240" lon="0.6952850">
        <ele>173.8</ele>
        <time>2020-08-08T10:41:56Z</time>
      </trkpt>
      <trkpt lat="41.0583290" lon="0.6952170">
        <ele>173.8</ele>
        <time>2020-08-08T10:41:57Z</time>
      </trkpt>
      <trkpt lat="41.0583510" lon="0.6950810">
        <ele>173.8</ele>
        <time>2020-08-08T10:41:59Z</time>
      </trkpt>
      <trkpt lat="41.0583750" lon="0.6949460">
        <ele>173.9</ele>
        <time>2020-08-08T10:42:01Z</time>
      </trkpt>
      <trkpt lat="41.0583910" lon="0.6948810">
        <ele>173.9</ele>
        <time>2020-08-08T10:42:02Z</time>
      </trkpt>
      <trkpt lat="41.0584140" lon="0.6947530">
        <ele>173.9</ele>
        <time>2020-08-08T10:42:04Z</time>
      </trkpt>
      <trkpt lat="41.0584240" lon="0.6946220">
        <ele>174.0</ele>
        <time>2020-08-08T10:42:06Z</time>
      </trkpt>
      <trkpt lat="41.0584310" lon="0.6945570">
        <ele>174.0</ele>
        <time>2020-08-08T10:42:07Z</time>
      </trkpt>
      <trkpt lat="41.0584420" lon="0.6944980">
        <ele>174.1</ele>
        <time>2020-08-08T10:42:08Z</time>
      </trkpt>
      <trkpt lat="41.0584550" lon="0.6944390">
        <ele>174.1</ele>
        <time>2020-08-08T10:42:09Z</time>
      </trkpt>
      <trkpt lat="41.0584690" lon="0.6943070">
        <ele>174.2</ele>
        <time>2020-08-08T10:42:11Z</time>
      </trkpt>
      <trkpt lat="41.0584740" lon="0.6942430">
        <ele>174.2</ele>
        <time>2020-08-08T10:42:12Z</time>
      </trkpt>
      <trkpt lat="41.0584770" lon="0.6941810">
        <ele>174.3</ele>
        <time>2020-08-08T10:42:13Z</time>
      </trkpt>
      <trkpt lat="41.0584770" lon="0.6941200">
        <ele>174.3</ele>
        <time>2020-08-08T10:42:14Z</time>
      </trkpt>
      <trkpt lat="41.0584770" lon="0.6940570">
        <ele>174.4</ele>
        <time>2020-08-08T10:42:15Z</time>
      </trkpt>
      <trkpt lat="41.0584920" lon="0.6939310">
        <ele>174.4</ele>
        <time>2020-08-08T10:42:17Z</time>
      </trkpt>
      <trkpt lat="41.0584950" lon="0.6938670">
        <ele>174.4</ele>
        <time>2020-08-08T10:42:18Z</time>
      </trkpt>
      <trkpt lat="41.0585010" lon="0.6938060">
        <ele>174.4</ele>
        <time>2020-08-08T10:42:19Z</time>
      </trkpt>
      <trkpt lat="41.0585090" lon="0.6937440">
        <ele>174.4</ele>
        <time>2020-08-08T10:42:20Z</time>
      </trkpt>
      <trkpt lat="41.0585230" lon="0.6936240">
        <ele>174.4</ele>
        <time>2020-08-08T10:42:22Z</time>
      </trkpt>
      <trkpt lat="41.0585510" lon="0.6935060">
        <ele>174.3</ele>
        <time>2020-08-08T10:42:24Z</time>
      </trkpt>
      <trkpt lat="41.0585590" lon="0.6934450">
        <ele>174.3</ele>
        <time>2020-08-08T10:42:25Z</time>
      </trkpt>
      <trkpt lat="41.0585660" lon="0.6933800">
        <ele>174.2</ele>
        <time>2020-08-08T10:42:26Z</time>
      </trkpt>
      <trkpt lat="41.0585680" lon="0.6933150">
        <ele>174.2</ele>
        <time>2020-08-08T10:42:27Z</time>
      </trkpt>
      <trkpt lat="41.0585760" lon="0.6931880">
        <ele>174.2</ele>
        <time>2020-08-08T10:42:29Z</time>
      </trkpt>
      <trkpt lat="41.0585800" lon="0.6931180">
        <ele>174.2</ele>
        <time>2020-08-08T10:42:30Z</time>
      </trkpt>
      <trkpt lat="41.0585890" lon="0.6929810">
        <ele>174.0</ele>
        <time>2020-08-08T10:42:32Z</time>
      </trkpt>
      <trkpt lat="41.0585960" lon="0.6929060">
        <ele>173.8</ele>
        <time>2020-08-08T10:42:33Z</time>
      </trkpt>
      <trkpt lat="41.0586090" lon="0.6927680">
        <ele>173.5</ele>
        <time>2020-08-08T10:42:35Z</time>
      </trkpt>
      <trkpt lat="41.0586100" lon="0.6926980">
        <ele>173.3</ele>
        <time>2020-08-08T10:42:36Z</time>
      </trkpt>
      <trkpt lat="41.0586130" lon="0.6926280">
        <ele>173.2</ele>
        <time>2020-08-08T10:42:37Z</time>
      </trkpt>
      <trkpt lat="41.0586200" lon="0.6924740">
        <ele>172.8</ele>
        <time>2020-08-08T10:42:39Z</time>
      </trkpt>
      <trkpt lat="41.0586290" lon="0.6923220">
        <ele>172.4</ele>
        <time>2020-08-08T10:42:41Z</time>
      </trkpt>
      <trkpt lat="41.0586390" lon="0.6921590">
        <ele>171.9</ele>
        <time>2020-08-08T10:42:43Z</time>
      </trkpt>
      <trkpt lat="41.0586460" lon="0.6920750">
        <ele>171.6</ele>
        <time>2020-08-08T10:42:44Z</time>
      </trkpt>
      <trkpt lat="41.0586650" lon="0.6918980">
        <ele>170.9</ele>
        <time>2020-08-08T10:42:46Z</time>
      </trkpt>
      <trkpt lat="41.0586750" lon="0.6917980">
        <ele>170.5</ele>
        <time>2020-08-08T10:42:47Z</time>
      </trkpt>
      <trkpt lat="41.0586890" lon="0.6917070">
        <ele>170.2</ele>
        <time>2020-08-08T10:42:48Z</time>
      </trkpt>
      <trkpt lat="41.0587070" lon="0.6916110">
        <ele>169.7</ele>
        <time>2020-08-08T10:42:49Z</time>
      </trkpt>
      <trkpt lat="41.0587290" lon="0.6915140">
        <ele>169.2</ele>
        <time>2020-08-08T10:42:50Z</time>
      </trkpt>
      <trkpt lat="41.0587560" lon="0.6914160">
        <ele>168.7</ele>
        <time>2020-08-08T10:42:51Z</time>
      </trkpt>
      <trkpt lat="41.0588110" lon="0.6912110">
        <ele>167.4</ele>
        <time>2020-08-08T10:42:53Z</time>
      </trkpt>
      <trkpt lat="41.0588920" lon="0.6910060">
        <ele>165.9</ele>
        <time>2020-08-08T10:42:55Z</time>
      </trkpt>
      <trkpt lat="41.0590040" lon="0.6907800">
        <ele>164.4</ele>
        <time>2020-08-08T10:42:57Z</time>
      </trkpt>
      <trkpt lat="41.0590600" lon="0.6906650">
        <ele>163.6</ele>
        <time>2020-08-08T10:42:58Z</time>
      </trkpt>
      <trkpt lat="41.0591710" lon="0.6904400">
        <ele>162.0</ele>
        <time>2020-08-08T10:43:00Z</time>
      </trkpt>
      <trkpt lat="41.0592280" lon="0.6903250">
        <ele>161.2</ele>
        <time>2020-08-08T10:43:01Z</time>
      </trkpt>
      <trkpt lat="41.0592890" lon="0.6902100">
        <ele>160.3</ele>
        <time>2020-08-08T10:43:02Z</time>
      </trkpt>
      <trkpt lat="41.0594150" lon="0.6899790">
        <ele>158.4</ele>
        <time>2020-08-08T10:43:04Z</time>
      </trkpt>
      <trkpt lat="41.0594720" lon="0.6898620">
        <ele>157.6</ele>
        <time>2020-08-08T10:43:05Z</time>
      </trkpt>
      <trkpt lat="41.0595970" lon="0.6896430">
        <ele>155.9</ele>
        <time>2020-08-08T10:43:07Z</time>
      </trkpt>
      <trkpt lat="41.0597220" lon="0.6894080">
        <ele>154.1</ele>
        <time>2020-08-08T10:43:09Z</time>
      </trkpt>
      <trkpt lat="41.0597820" lon="0.6892850">
        <ele>153.2</ele>
        <time>2020-08-08T10:43:10Z</time>
      </trkpt>
      <trkpt lat="41.0598410" lon="0.6891580">
        <ele>152.3</ele>
        <time>2020-08-08T10:43:11Z</time>
      </trkpt>
      <trkpt lat="41.0599010" lon="0.6890260">
        <ele>151.4</ele>
        <time>2020-08-08T10:43:12Z</time>
      </trkpt>
      <trkpt lat="41.0599600" lon="0.6888910">
        <ele>150.4</ele>
        <time>2020-08-08T10:43:13Z</time>
      </trkpt>
      <trkpt lat="41.0600740" lon="0.6886280">
        <ele>148.7</ele>
        <time>2020-08-08T10:43:15Z</time>
      </trkpt>
      <trkpt lat="41.0601350" lon="0.6884920">
        <ele>147.7</ele>
        <time>2020-08-08T10:43:16Z</time>
      </trkpt>
      <trkpt lat="41.0602540" lon="0.6882240">
        <ele>145.8</ele>
        <time>2020-08-08T10:43:18Z</time>
      </trkpt>
      <trkpt lat="41.0603640" lon="0.6879570">
        <ele>144.0</ele>
        <time>2020-08-08T10:43:20Z</time>
      </trkpt>
      <trkpt lat="41.0604230" lon="0.6878160">
        <ele>143.1</ele>
        <time>2020-08-08T10:43:21Z</time>
      </trkpt>
      <trkpt lat="41.0605440" lon="0.6875320">
        <ele>141.2</ele>
        <time>2020-08-08T10:43:23Z</time>
      </trkpt>
      <trkpt lat="41.0605990" lon="0.6873890">
        <ele>140.3</ele>
        <time>2020-08-08T10:43:24Z</time>
      </trkpt>
      <trkpt lat="41.0606990" lon="0.6870890">
        <ele>138.5</ele>
        <time>2020-08-08T10:43:26Z</time>
      </trkpt>
      <trkpt lat="41.0607550" lon="0.6869450">
        <ele>137.6</ele>
        <time>2020-08-08T10:43:27Z</time>
      </trkpt>
      <trkpt lat="41.0608510" lon="0.6866470">
        <ele>135.7</ele>
        <time>2020-08-08T10:43:29Z</time>
      </trkpt>
      <trkpt lat="41.0609510" lon="0.6863440">
        <ele>133.8</ele>
        <time>2020-08-08T10:43:31Z</time>
      </trkpt>
      <trkpt lat="41.0610030" lon="0.6861910">
        <ele>132.8</ele>
        <time>2020-08-08T10:43:32Z</time>
      </trkpt>
      <trkpt lat="41.0611140" lon="0.6858840">
        <ele>130.6</ele>
        <time>2020-08-08T10:43:34Z</time>
      </trkpt>
      <trkpt lat="41.0612430" lon="0.6855680">
        <ele>128.5</ele>
        <time>2020-08-08T10:43:36Z</time>
      </trkpt>
      <trkpt lat="41.0613060" lon="0.6854070">
        <ele>127.5</ele>
        <time>2020-08-08T10:43:37Z</time>
      </trkpt>
      <trkpt lat="41.0614330" lon="0.6850940">
        <ele>125.6</ele>
        <time>2020-08-08T10:43:39Z</time>
      </trkpt>
      <trkpt lat="41.0615720" lon="0.6847990">
        <ele>123.6</ele>
        <time>2020-08-08T10:43:41Z</time>
      </trkpt>
      <trkpt lat="41.0616400" lon="0.6846620">
        <ele>122.6</ele>
        <time>2020-08-08T10:43:42Z</time>
      </trkpt>
      <trkpt lat="41.0617570" lon="0.6843990">
        <ele>121.0</ele>
        <time>2020-08-08T10:43:44Z</time>
      </trkpt>
      <trkpt lat="41.0618880" lon="0.6841230">
        <ele>119.7</ele>
        <time>2020-08-08T10:43:46Z</time>
      </trkpt>
      <trkpt lat="41.0619890" lon="0.6838550">
        <ele>118.7</ele>
        <time>2020-08-08T10:43:48Z</time>
      </trkpt>
      <trkpt lat="41.0620220" lon="0.6837130">
        <ele>117.5</ele>
        <time>2020-08-08T10:43:49Z</time>
      </trkpt>
      <trkpt lat="41.0620460" lon="0.6835720">
        <ele>115.8</ele>
        <time>2020-08-08T10:43:50Z</time>
      </trkpt>
      <trkpt lat="41.0620660" lon="0.6832880">
        <ele>113.1</ele>
        <time>2020-08-08T10:43:52Z</time>
      </trkpt>
      <trkpt lat="41.0621070" lon="0.6830070">
        <ele>111.1</ele>
        <time>2020-08-08T10:43:54Z</time>
      </trkpt>
      <trkpt lat="41.0621160" lon="0.6828620">
        <ele>110.2</ele>
        <time>2020-08-08T10:43:55Z</time>
      </trkpt>
      <trkpt lat="41.0621280" lon="0.6827170">
        <ele>109.3</ele>
        <time>2020-08-08T10:43:56Z</time>
      </trkpt>
      <trkpt lat="41.0621630" lon="0.6824370">
        <ele>107.7</ele>
        <time>2020-08-08T10:43:58Z</time>
      </trkpt>
      <trkpt lat="41.0621990" lon="0.6823070">
        <ele>106.9</ele>
        <time>2020-08-08T10:43:59Z</time>
      </trkpt>
      <trkpt lat="41.0622970" lon="0.6820650">
        <ele>105.4</ele>
        <time>2020-08-08T10:44:01Z</time>
      </trkpt>
      <trkpt lat="41.0624310" lon="0.6818480">
        <ele>103.9</ele>
        <time>2020-08-08T10:44:03Z</time>
      </trkpt>
      <trkpt lat="41.0625030" lon="0.6817340">
        <ele>103.1</ele>
        <time>2020-08-08T10:44:04Z</time>
      </trkpt>
      <trkpt lat="41.0626300" lon="0.6814990">
        <ele>101.7</ele>
        <time>2020-08-08T10:44:06Z</time>
      </trkpt>
      <trkpt lat="41.0627580" lon="0.6812800">
        <ele>100.3</ele>
        <time>2020-08-08T10:44:08Z</time>
      </trkpt>
      <trkpt lat="41.0628240" lon="0.6811760">
        <ele>99.7</ele>
        <time>2020-08-08T10:44:09Z</time>
      </trkpt>
      <trkpt lat="41.0629540" lon="0.6809690">
        <ele>98.4</ele>
        <time>2020-08-08T10:44:11Z</time>
      </trkpt>
      <trkpt lat="41.0630210" lon="0.6808700">
        <ele>97.8</ele>
        <time>2020-08-08T10:44:12Z</time>
      </trkpt>
      <trkpt lat="41.0630910" lon="0.6807710">
        <ele>97.2</ele>
        <time>2020-08-08T10:44:13Z</time>
      </trkpt>
      <trkpt lat="41.0632300" lon="0.6805840">
        <ele>96.3</ele>
        <time>2020-08-08T10:44:15Z</time>
      </trkpt>
      <trkpt lat="41.0632870" lon="0.6804850">
        <ele>95.9</ele>
        <time>2020-08-08T10:44:16Z</time>
      </trkpt>
      <trkpt lat="41.0634040" lon="0.6802970">
        <ele>95.3</ele>
        <time>2020-08-08T10:44:18Z</time>
      </trkpt>
      <trkpt lat="41.0634740" lon="0.6801980">
        <ele>95.1</ele>
        <time>2020-08-08T10:44:19Z</time>
      </trkpt>
      <trkpt lat="41.0635990" lon="0.6800070">
        <ele>94.6</ele>
        <time>2020-08-08T10:44:21Z</time>
      </trkpt>
      <trkpt lat="41.0636550" lon="0.6799210">
        <ele>94.4</ele>
        <time>2020-08-08T10:44:22Z</time>
      </trkpt>
      <trkpt lat="41.0637080" lon="0.6798390">
        <ele>94.2</ele>
        <time>2020-08-08T10:44:23Z</time>
      </trkpt>
      <trkpt lat="41.0638140" lon="0.6796680">
        <ele>93.6</ele>
        <time>2020-08-08T10:44:25Z</time>
      </trkpt>
      <trkpt lat="41.0639130" lon="0.6794930">
        <ele>93.1</ele>
        <time>2020-08-08T10:44:27Z</time>
      </trkpt>
      <trkpt lat="41.0639600" lon="0.6794000">
        <ele>92.9</ele>
        <time>2020-08-08T10:44:28Z</time>
      </trkpt>
      <trkpt lat="41.0640310" lon="0.6791990">
        <ele>92.3</ele>
        <time>2020-08-08T10:44:30Z</time>
      </trkpt>
      <trkpt lat="41.0640570" lon="0.6790950">
        <ele>92.0</ele>
        <time>2020-08-08T10:44:31Z</time>
      </trkpt>
      <trkpt lat="41.0640860" lon="0.6788920">
        <ele>91.4</ele>
        <time>2020-08-08T10:44:33Z</time>
      </trkpt>
      <trkpt lat="41.0640890" lon="0.6786900">
        <ele>90.9</ele>
        <time>2020-08-08T10:44:35Z</time>
      </trkpt>
      <trkpt lat="41.0641000" lon="0.6784820">
        <ele>90.5</ele>
        <time>2020-08-08T10:44:37Z</time>
      </trkpt>
      <trkpt lat="41.0640980" lon="0.6783800">
        <ele>90.3</ele>
        <time>2020-08-08T10:44:38Z</time>
      </trkpt>
      <trkpt lat="41.0640790" lon="0.6781730">
        <ele>89.7</ele>
        <time>2020-08-08T10:44:40Z</time>
      </trkpt>
      <trkpt lat="41.0640750" lon="0.6780720">
        <ele>89.4</ele>
        <time>2020-08-08T10:44:41Z</time>
      </trkpt>
      <trkpt lat="41.0640730" lon="0.6779780">
        <ele>89.1</ele>
        <time>2020-08-08T10:44:42Z</time>
      </trkpt>
      <trkpt lat="41.0640660" lon="0.6778790">
        <ele>88.8</ele>
        <time>2020-08-08T10:44:43Z</time>
      </trkpt>
      <trkpt lat="41.0640560" lon="0.6777850">
        <ele>88.5</ele>
        <time>2020-08-08T10:44:44Z</time>
      </trkpt>
      <trkpt lat="41.0640470" lon="0.6776880">
        <ele>88.1</ele>
        <time>2020-08-08T10:44:45Z</time>
      </trkpt>
      <trkpt lat="41.0640400" lon="0.6774720">
        <ele>87.3</ele>
        <time>2020-08-08T10:44:47Z</time>
      </trkpt>
      <trkpt lat="41.0640410" lon="0.6773540">
        <ele>86.8</ele>
        <time>2020-08-08T10:44:48Z</time>
      </trkpt>
      <trkpt lat="41.0640550" lon="0.6772310">
        <ele>86.2</ele>
        <time>2020-08-08T10:44:49Z</time>
      </trkpt>
      <trkpt lat="41.0641040" lon="0.6769710">
        <ele>85.3</ele>
        <time>2020-08-08T10:44:51Z</time>
      </trkpt>
      <trkpt lat="41.0641800" lon="0.6767170">
        <ele>84.2</ele>
        <time>2020-08-08T10:44:53Z</time>
      </trkpt>
      <trkpt lat="41.0642490" lon="0.6765990">
        <ele>83.7</ele>
        <time>2020-08-08T10:44:54Z</time>
      </trkpt>
      <trkpt lat="41.0643890" lon="0.6763850">
        <ele>82.6</ele>
        <time>2020-08-08T10:44:56Z</time>
      </trkpt>
      <trkpt lat="41.0644610" lon="0.6762980">
        <ele>82.0</ele>
        <time>2020-08-08T10:44:57Z</time>
      </trkpt>
      <trkpt lat="41.0645930" lon="0.6761160">
        <ele>81.1</ele>
        <time>2020-08-08T10:44:59Z</time>
      </trkpt>
      <trkpt lat="41.0647260" lon="0.6759380">
        <ele>80.2</ele>
        <time>2020-08-08T10:45:01Z</time>
      </trkpt>
      <trkpt lat="41.0648330" lon="0.6757600">
        <ele>79.3</ele>
        <time>2020-08-08T10:45:03Z</time>
      </trkpt>
      <trkpt lat="41.0648920" lon="0.6756610">
        <ele>78.8</ele>
        <time>2020-08-08T10:45:04Z</time>
      </trkpt>
      <trkpt lat="41.0649450" lon="0.6755530">
        <ele>78.3</ele>
        <time>2020-08-08T10:45:05Z</time>
      </trkpt>
      <trkpt lat="41.0650270" lon="0.6753300">
        <ele>77.2</ele>
        <time>2020-08-08T10:45:07Z</time>
      </trkpt>
      <trkpt lat="41.0650620" lon="0.6752120">
        <ele>76.7</ele>
        <time>2020-08-08T10:45:08Z</time>
      </trkpt>
      <trkpt lat="41.0650980" lon="0.6750990">
        <ele>76.2</ele>
        <time>2020-08-08T10:45:09Z</time>
      </trkpt>
      <trkpt lat="41.0651400" lon="0.6749770">
        <ele>75.7</ele>
        <time>2020-08-08T10:45:10Z</time>
      </trkpt>
      <trkpt lat="41.0652270" lon="0.6747350">
        <ele>74.7</ele>
        <time>2020-08-08T10:45:12Z</time>
      </trkpt>
      <trkpt lat="41.0653060" lon="0.6744950">
        <ele>73.8</ele>
        <time>2020-08-08T10:45:14Z</time>
      </trkpt>
      <trkpt lat="41.0653480" lon="0.6743810">
        <ele>73.4</ele>
        <time>2020-08-08T10:45:15Z</time>
      </trkpt>
      <trkpt lat="41.0654250" lon="0.6741510">
        <ele>72.6</ele>
        <time>2020-08-08T10:45:17Z</time>
      </trkpt>
      <trkpt lat="41.0654670" lon="0.6740350">
        <ele>72.3</ele>
        <time>2020-08-08T10:45:18Z</time>
      </trkpt>
      <trkpt lat="41.0655480" lon="0.6738000">
        <ele>71.7</ele>
        <time>2020-08-08T10:45:20Z</time>
      </trkpt>
      <trkpt lat="41.0655970" lon="0.6736870">
        <ele>71.2</ele>
        <time>2020-08-08T10:45:21Z</time>
      </trkpt>
      <trkpt lat="41.0656490" lon="0.6735730">
        <ele>70.4</ele>
        <time>2020-08-08T10:45:22Z</time>
      </trkpt>
      <trkpt lat="41.0657020" lon="0.6734630">
        <ele>69.6</ele>
        <time>2020-08-08T10:45:23Z</time>
      </trkpt>
      <trkpt lat="41.0657540" lon="0.6733520">
        <ele>68.8</ele>
        <time>2020-08-08T10:45:24Z</time>
      </trkpt>
      <trkpt lat="41.0658730" lon="0.6731490">
        <ele>67.6</ele>
        <time>2020-08-08T10:45:26Z</time>
      </trkpt>
      <trkpt lat="41.0660150" lon="0.6729720">
        <ele>66.6</ele>
        <time>2020-08-08T10:45:28Z</time>
      </trkpt>
      <trkpt lat="41.0660910" lon="0.6728980">
        <ele>66.1</ele>
        <time>2020-08-08T10:45:29Z</time>
      </trkpt>
      <trkpt lat="41.0662440" lon="0.6727720">
        <ele>65.2</ele>
        <time>2020-08-08T10:45:31Z</time>
      </trkpt>
      <trkpt lat="41.0663340" lon="0.6727090">
        <ele>64.7</ele>
        <time>2020-08-08T10:45:32Z</time>
      </trkpt>
      <trkpt lat="41.0664200" lon="0.6726550">
        <ele>64.2</ele>
        <time>2020-08-08T10:45:33Z</time>
      </trkpt>
      <trkpt lat="41.0665880" lon="0.6725290">
        <ele>63.4</ele>
        <time>2020-08-08T10:45:35Z</time>
      </trkpt>
      <trkpt lat="41.0667530" lon="0.6724010">
        <ele>62.6</ele>
        <time>2020-08-08T10:45:37Z</time>
      </trkpt>
      <trkpt lat="41.0668480" lon="0.6723480">
        <ele>62.2</ele>
        <time>2020-08-08T10:45:38Z</time>
      </trkpt>
      <trkpt lat="41.0669400" lon="0.6722930">
        <ele>61.7</ele>
        <time>2020-08-08T10:45:39Z</time>
      </trkpt>
      <trkpt lat="41.0671490" lon="0.6721750">
        <ele>60.6</ele>
        <time>2020-08-08T10:45:41Z</time>
      </trkpt>
      <trkpt lat="41.0673610" lon="0.6720420">
        <ele>59.4</ele>
        <time>2020-08-08T10:45:43Z</time>
      </trkpt>
      <trkpt lat="41.0674650" lon="0.6719680">
        <ele>58.8</ele>
        <time>2020-08-08T10:45:44Z</time>
      </trkpt>
      <trkpt lat="41.0676560" lon="0.6718040">
        <ele>57.6</ele>
        <time>2020-08-08T10:45:46Z</time>
      </trkpt>
      <trkpt lat="41.0678250" lon="0.6716220">
        <ele>56.4</ele>
        <time>2020-08-08T10:45:48Z</time>
      </trkpt>
      <trkpt lat="41.0678990" lon="0.6715210">
        <ele>55.7</ele>
        <time>2020-08-08T10:45:49Z</time>
      </trkpt>
      <trkpt lat="41.0679640" lon="0.6714150">
        <ele>55.0</ele>
        <time>2020-08-08T10:45:50Z</time>
      </trkpt>
      <trkpt lat="41.0680050" lon="0.6713000">
        <ele>54.4</ele>
        <time>2020-08-08T10:45:51Z</time>
      </trkpt>
      <trkpt lat="41.0681420" lon="0.6709370">
        <ele>52.4</ele>
        <time>2020-08-08T10:45:54Z</time>
      </trkpt>
      <trkpt lat="41.0681770" lon="0.6708060">
        <ele>51.7</ele>
        <time>2020-08-08T10:45:55Z</time>
      </trkpt>
      <trkpt lat="41.0682140" lon="0.6705390">
        <ele>50.1</ele>
        <time>2020-08-08T10:45:57Z</time>
      </trkpt>
      <trkpt lat="41.0682260" lon="0.6703970">
        <ele>49.2</ele>
        <time>2020-08-08T10:45:58Z</time>
      </trkpt>
      <trkpt lat="41.0682530" lon="0.6701170">
        <ele>47.4</ele>
        <time>2020-08-08T10:46:00Z</time>
      </trkpt>
      <trkpt lat="41.0682780" lon="0.6699710">
        <ele>46.6</ele>
        <time>2020-08-08T10:46:01Z</time>
      </trkpt>
      <trkpt lat="41.0682970" lon="0.6698190">
        <ele>45.7</ele>
        <time>2020-08-08T10:46:02Z</time>
      </trkpt>
      <trkpt lat="41.0683170" lon="0.6696600">
        <ele>44.8</ele>
        <time>2020-08-08T10:46:03Z</time>
      </trkpt>
      <trkpt lat="41.0683630" lon="0.6693410">
        <ele>43.1</ele>
        <time>2020-08-08T10:46:05Z</time>
      </trkpt>
      <trkpt lat="41.0683840" lon="0.6691860">
        <ele>42.1</ele>
        <time>2020-08-08T10:46:06Z</time>
      </trkpt>
      <trkpt lat="41.0684140" lon="0.6690290">
        <ele>41.1</ele>
        <time>2020-08-08T10:46:07Z</time>
      </trkpt>
      <trkpt lat="41.0684710" lon="0.6687150">
        <ele>39.2</ele>
        <time>2020-08-08T10:46:09Z</time>
      </trkpt>
      <trkpt lat="41.0684930" lon="0.6685520">
        <ele>38.3</ele>
        <time>2020-08-08T10:46:10Z</time>
      </trkpt>
      <trkpt lat="41.0685590" lon="0.6682290">
        <ele>36.4</ele>
        <time>2020-08-08T10:46:12Z</time>
      </trkpt>
      <trkpt lat="41.0685980" lon="0.6680690">
        <ele>35.4</ele>
        <time>2020-08-08T10:46:13Z</time>
      </trkpt>
      <trkpt lat="41.0686850" lon="0.6677630">
        <ele>33.7</ele>
        <time>2020-08-08T10:46:15Z</time>
      </trkpt>
      <trkpt lat="41.0687180" lon="0.6676250">
        <ele>33.0</ele>
        <time>2020-08-08T10:46:16Z</time>
      </trkpt>
      <trkpt lat="41.0688080" lon="0.6673860">
        <ele>32.0</ele>
        <time>2020-08-08T10:46:18Z</time>
      </trkpt>
      <trkpt lat="41.0688780" lon="0.6672740">
        <ele>31.5</ele>
        <time>2020-08-08T10:46:19Z</time>
      </trkpt>
      <trkpt lat="41.0689490" lon="0.6671710">
        <ele>31.0</ele>
        <time>2020-08-08T10:46:20Z</time>
      </trkpt>
      <trkpt lat="41.0691030" lon="0.6670150">
        <ele>30.2</ele>
        <time>2020-08-08T10:46:22Z</time>
      </trkpt>
      <trkpt lat="41.0692520" lon="0.6668970">
        <ele>29.5</ele>
        <time>2020-08-08T10:46:24Z</time>
      </trkpt>
      <trkpt lat="41.0693230" lon="0.6668490">
        <ele>29.2</ele>
        <time>2020-08-08T10:46:25Z</time>
      </trkpt>
      <trkpt lat="41.0693810" lon="0.6668070">
        <ele>29.0</ele>
        <time>2020-08-08T10:46:26Z</time>
      </trkpt>
      <trkpt lat="41.0695070" lon="0.6667140">
        <ele>28.6</ele>
        <time>2020-08-08T10:46:28Z</time>
      </trkpt>
      <trkpt lat="41.0695660" lon="0.6666710">
        <ele>28.5</ele>
        <time>2020-08-08T10:46:29Z</time>
      </trkpt>
      <trkpt lat="41.0696230" lon="0.6666350">
        <ele>28.4</ele>
        <time>2020-08-08T10:46:30Z</time>
      </trkpt>
      <trkpt lat="41.0697230" lon="0.6665610">
        <ele>28.4</ele>
        <time>2020-08-08T10:46:32Z</time>
      </trkpt>
      <trkpt lat="41.0697690" lon="0.6665200">
        <ele>28.4</ele>
        <time>2020-08-08T10:46:33Z</time>
      </trkpt>
      <trkpt lat="41.0698140" lon="0.6664820">
        <ele>28.4</ele>
        <time>2020-08-08T10:46:34Z</time>
      </trkpt>
      <trkpt lat="41.0698890" lon="0.6664030">
        <ele>28.5</ele>
        <time>2020-08-08T10:46:36Z</time>
      </trkpt>
      <trkpt lat="41.0699270" lon="0.6663730">
        <ele>28.6</ele>
        <time>2020-08-08T10:46:37Z</time>
      </trkpt>
      <trkpt lat="41.0699620" lon="0.6663410">
        <ele>28.7</ele>
        <time>2020-08-08T10:46:38Z</time>
      </trkpt>
      <trkpt lat="41.0700360" lon="0.6662700">
        <ele>28.9</ele>
        <time>2020-08-08T10:46:40Z</time>
      </trkpt>
      <trkpt lat="41.0700940" lon="0.6662070">
        <ele>29.2</ele>
        <time>2020-08-08T10:46:42Z</time>
      </trkpt>
      <trkpt lat="41.0701230" lon="0.6661750">
        <ele>29.3</ele>
        <time>2020-08-08T10:46:43Z</time>
      </trkpt>
      <trkpt lat="41.0701840" lon="0.6661050">
        <ele>29.7</ele>
        <time>2020-08-08T10:46:45Z</time>
      </trkpt>
      <trkpt lat="41.0702110" lon="0.6660880">
        <ele>29.8</ele>
        <time>2020-08-08T10:46:46Z</time>
      </trkpt>
      <trkpt lat="41.0702240" lon="0.6661590">
        <ele>30.0</ele>
        <time>2020-08-08T10:46:48Z</time>
      </trkpt>
      <trkpt lat="41.0702230" lon="0.6661970">
        <ele>30.2</ele>
        <time>2020-08-08T10:46:50Z</time>
      </trkpt>
      <trkpt lat="41.0702530" lon="0.6662040">
        <ele>30.4</ele>
        <time>2020-08-08T10:46:51Z</time>
      </trkpt>
      <trkpt lat="41.0702310" lon="0.6661300">
        <ele>30.7</ele>
        <time>2020-08-08T10:46:52Z</time>
      </trkpt>
      <trkpt lat="41.0702300" lon="0.6660530">
        <ele>31.1</ele>
        <time>2020-08-08T10:46:53Z</time>
      </trkpt>
      <trkpt lat="41.0702440" lon="0.6659850">
        <ele>31.4</ele>
        <time>2020-08-08T10:46:54Z</time>
      </trkpt>
      <trkpt lat="41.0703140" lon="0.6657880">
        <ele>32.6</ele>
        <time>2020-08-08T10:46:56Z</time>
      </trkpt>
      <trkpt lat="41.0703670" lon="0.6656300">
        <ele>33.8</ele>
        <time>2020-08-08T10:46:57Z</time>
      </trkpt>
      <trkpt lat="41.0703830" lon="0.6655670">
        <ele>34.1</ele>
        <time>2020-08-08T10:46:58Z</time>
      </trkpt>
      <trkpt lat="41.0703950" lon="0.6655160">
        <ele>34.4</ele>
        <time>2020-08-08T10:46:59Z</time>
      </trkpt>
      <trkpt lat="41.0704190" lon="0.6654390">
        <ele>34.8</ele>
        <time>2020-08-08T10:47:01Z</time>
      </trkpt>
      <trkpt lat="41.0704620" lon="0.6653850">
        <ele>35.2</ele>
        <time>2020-08-08T10:47:03Z</time>
      </trkpt>
      <trkpt lat="41.0704860" lon="0.6653660">
        <ele>35.3</ele>
        <time>2020-08-08T10:47:04Z</time>
      </trkpt>
      <trkpt lat="41.0705290" lon="0.6653440">
        <ele>35.5</ele>
        <time>2020-08-08T10:47:06Z</time>
      </trkpt>
      <trkpt lat="41.0705650" lon="0.6653360">
        <ele>35.7</ele>
        <time>2020-08-08T10:47:08Z</time>
      </trkpt>
      <trkpt lat="41.0705890" lon="0.6653340">
        <ele>35.9</ele>
        <time>2020-08-08T10:47:09Z</time>
      </trkpt>
      <trkpt lat="41.0706370" lon="0.6653180">
        <ele>36.3</ele>
        <time>2020-08-08T10:47:11Z</time>
      </trkpt>
      <trkpt lat="41.0706830" lon="0.6652950">
        <ele>36.7</ele>
        <time>2020-08-08T10:47:13Z</time>
      </trkpt>
      <trkpt lat="41.0707310" lon="0.6652570">
        <ele>37.0</ele>
        <time>2020-08-08T10:47:15Z</time>
      </trkpt>
      <trkpt lat="41.0707510" lon="0.6652380">
        <ele>37.2</ele>
        <time>2020-08-08T10:47:16Z</time>
      </trkpt>
      <trkpt lat="41.0707820" lon="0.6651810">
        <ele>37.6</ele>
        <time>2020-08-08T10:47:18Z</time>
      </trkpt>
      <trkpt lat="41.0707980" lon="0.6651350">
        <ele>37.8</ele>
        <time>2020-08-08T10:47:19Z</time>
      </trkpt>
      <trkpt lat="41.0708030" lon="0.6651180">
        <ele>37.9</ele>
        <time>2020-08-08T10:47:20Z</time>
      </trkpt>
      <trkpt lat="41.0708130" lon="0.6650840">
        <ele>38.1</ele>
        <time>2020-08-08T10:47:21Z</time>
      </trkpt>
      <trkpt lat="41.0708210" lon="0.6650490">
        <ele>38.2</ele>
        <time>2020-08-08T10:47:22Z</time>
      </trkpt>
      <trkpt lat="41.0708260" lon="0.6650130">
        <ele>38.4</ele>
        <time>2020-08-08T10:47:23Z</time>
      </trkpt>
      <trkpt lat="41.0708270" lon="0.6649460">
        <ele>38.5</ele>
        <time>2020-08-08T10:47:25Z</time>
      </trkpt>
      <trkpt lat="41.0708110" lon="0.6649320">
        <ele>38.6</ele>
        <time>2020-08-08T10:47:26Z</time>
      </trkpt>
      <trkpt lat="41.0707780" lon="0.6649320">
        <ele>38.7</ele>
        <time>2020-08-08T10:47:28Z</time>
      </trkpt>
      <trkpt lat="41.0707530" lon="0.6649310">
        <ele>38.7</ele>
        <time>2020-08-08T10:47:29Z</time>
      </trkpt>
      <trkpt lat="41.0707340" lon="0.6649430">
        <ele>38.7</ele>
        <time>2020-08-08T10:47:31Z</time>
      </trkpt>
      <trkpt lat="41.0707240" lon="0.6649310">
        <ele>38.7</ele>
        <time>2020-08-08T10:47:32Z</time>
      </trkpt>
      <trkpt lat="41.0707130" lon="0.6649250">
        <ele>38.7</ele>
        <time>2020-08-08T10:47:33Z</time>
      </trkpt>
      <trkpt lat="41.0707060" lon="0.6649160">
        <ele>38.7</ele>
        <time>2020-08-08T10:47:34Z</time>
      </trkpt>
      <trkpt lat="41.0707050" lon="0.6649020">
        <ele>38.7</ele>
        <time>2020-08-08T10:47:35Z</time>
      </trkpt>
      <trkpt lat="41.0707020" lon="0.6648940">
        <ele>38.7</ele>
        <time>2020-08-08T10:47:36Z</time>
      </trkpt>
      <trkpt lat="41.0706940" lon="0.6648900">
        <ele>38.7</ele>
        <time>2020-08-08T10:47:38Z</time>
      </trkpt>
      <trkpt lat="41.0707030" lon="0.6648980">
        <ele>38.7</ele>
        <time>2020-08-08T10:47:39Z</time>
      </trkpt>
      <trkpt lat="41.0707180" lon="0.6649080">
        <ele>38.7</ele>
        <time>2020-08-08T10:47:40Z</time>
      </trkpt>
      <trkpt lat="41.0707580" lon="0.6648800">
        <ele>38.8</ele>
        <time>2020-08-08T10:47:42Z</time>
      </trkpt>
      <trkpt lat="41.0707860" lon="0.6648330">
        <ele>38.9</ele>
        <time>2020-08-08T10:47:44Z</time>
      </trkpt>
      <trkpt lat="41.0708020" lon="0.6647940">
        <ele>38.9</ele>
        <time>2020-08-08T10:47:45Z</time>
      </trkpt>
      <trkpt lat="41.0708440" lon="0.6647500">
        <ele>39.0</ele>
        <time>2020-08-08T10:47:46Z</time>
      </trkpt>
      <trkpt lat="41.0708960" lon="0.6647060">
        <ele>39.1</ele>
        <time>2020-08-08T10:47:47Z</time>
      </trkpt>
      <trkpt lat="41.0709730" lon="0.6646370">
        <ele>39.3</ele>
        <time>2020-08-08T10:47:49Z</time>
      </trkpt>
      <trkpt lat="41.0710230" lon="0.6645890">
        <ele>39.5</ele>
        <time>2020-08-08T10:47:50Z</time>
      </trkpt>
      <trkpt lat="41.0710670" lon="0.6645470">
        <ele>39.6</ele>
        <time>2020-08-08T10:47:51Z</time>
      </trkpt>
      <trkpt lat="41.0711070" lon="0.6645140">
        <ele>39.8</ele>
        <time>2020-08-08T10:47:52Z</time>
      </trkpt>
      <trkpt lat="41.0711330" lon="0.6644960">
        <ele>39.8</ele>
        <time>2020-08-08T10:47:53Z</time>
      </trkpt>
      <trkpt lat="41.0711570" lon="0.6644780">
        <ele>39.9</ele>
        <time>2020-08-08T10:47:54Z</time>
      </trkpt>
      <trkpt lat="41.0711760" lon="0.6644630">
        <ele>40.0</ele>
        <time>2020-08-08T10:47:55Z</time>
      </trkpt>
      <trkpt lat="41.0712090" lon="0.6644310">
        <ele>40.1</ele>
        <time>2020-08-08T10:47:57Z</time>
      </trkpt>
      <trkpt lat="41.0712290" lon="0.6644030">
        <ele>40.2</ele>
        <time>2020-08-08T10:47:58Z</time>
      </trkpt>
      <trkpt lat="41.0712580" lon="0.6643540">
        <ele>40.3</ele>
        <time>2020-08-08T10:48:00Z</time>
      </trkpt>
      <trkpt lat="41.0712730" lon="0.6643170">
        <ele>40.4</ele>
        <time>2020-08-08T10:48:01Z</time>
      </trkpt>
      <trkpt lat="41.0712790" lon="0.6643020">
        <ele>40.4</ele>
        <time>2020-08-08T10:48:02Z</time>
      </trkpt>
      <trkpt lat="41.0712850" lon="0.6642750">
        <ele>40.6</ele>
        <time>2020-08-08T10:48:03Z</time>
      </trkpt>
      <trkpt lat="41.0712910" lon="0.6642210">
        <ele>40.9</ele>
        <time>2020-08-08T10:48:05Z</time>
      </trkpt>
      <trkpt lat="41.0712950" lon="0.6641840">
        <ele>41.1</ele>
        <time>2020-08-08T10:48:06Z</time>
      </trkpt>
      <trkpt lat="41.0712900" lon="0.6641370">
        <ele>41.3</ele>
        <time>2020-08-08T10:48:08Z</time>
      </trkpt>
      <trkpt lat="41.0712880" lon="0.6641190">
        <ele>41.4</ele>
        <time>2020-08-08T10:48:09Z</time>
      </trkpt>
      <trkpt lat="41.0712890" lon="0.6640800">
        <ele>41.7</ele>
        <time>2020-08-08T10:48:11Z</time>
      </trkpt>
      <trkpt lat="41.0712870" lon="0.6640580">
        <ele>41.9</ele>
        <time>2020-08-08T10:48:12Z</time>
      </trkpt>
      <trkpt lat="41.0712860" lon="0.6640350">
        <ele>42.0</ele>
        <time>2020-08-08T10:48:13Z</time>
      </trkpt>
      <trkpt lat="41.0712850" lon="0.6640180">
        <ele>42.1</ele>
        <time>2020-08-08T10:48:14Z</time>
      </trkpt>
      <trkpt lat="41.0712860" lon="0.6639820">
        <ele>42.4</ele>
        <time>2020-08-08T10:48:16Z</time>
      </trkpt>
      <trkpt lat="41.0712660" lon="0.6639440">
        <ele>42.7</ele>
        <time>2020-08-08T10:48:17Z</time>
      </trkpt>
      <trkpt lat="41.0712580" lon="0.6639330">
        <ele>42.7</ele>
        <time>2020-08-08T10:48:18Z</time>
      </trkpt>
      <trkpt lat="41.0712370" lon="0.6639180">
        <ele>42.9</ele>
        <time>2020-08-08T10:48:19Z</time>
      </trkpt>
      <trkpt lat="41.0712140" lon="0.6639080">
        <ele>42.9</ele>
        <time>2020-08-08T10:48:21Z</time>
      </trkpt>
      <trkpt lat="41.0711830" lon="0.6639070">
        <ele>43.0</ele>
        <time>2020-08-08T10:48:22Z</time>
      </trkpt>
      <trkpt lat="41.0711700" lon="0.6639050">
        <ele>42.9</ele>
        <time>2020-08-08T10:48:23Z</time>
      </trkpt>
      <trkpt lat="41.0711350" lon="0.6638950">
        <ele>42.7</ele>
        <time>2020-08-08T10:48:24Z</time>
      </trkpt>
      <trkpt lat="41.0711030" lon="0.6638820">
        <ele>42.5</ele>
        <time>2020-08-08T10:48:25Z</time>
      </trkpt>
      <trkpt lat="41.0710730" lon="0.6638670">
        <ele>42.3</ele>
        <time>2020-08-08T10:48:26Z</time>
      </trkpt>
      <trkpt lat="41.0709980" lon="0.6638340">
        <ele>41.8</ele>
        <time>2020-08-08T10:48:28Z</time>
      </trkpt>
      <trkpt lat="41.0709090" lon="0.6637820">
        <ele>41.6</ele>
        <time>2020-08-08T10:48:29Z</time>
      </trkpt>
      <trkpt lat="41.0708130" lon="0.6637360">
        <ele>41.3</ele>
        <time>2020-08-08T10:48:31Z</time>
      </trkpt>
      <trkpt lat="41.0707240" lon="0.6637070">
        <ele>41.0</ele>
        <time>2020-08-08T10:48:32Z</time>
      </trkpt>
      <trkpt lat="41.0706710" lon="0.6636950">
        <ele>40.9</ele>
        <time>2020-08-08T10:48:33Z</time>
      </trkpt>
      <trkpt lat="41.0706190" lon="0.6636870">
        <ele>40.7</ele>
        <time>2020-08-08T10:48:34Z</time>
      </trkpt>
      <trkpt lat="41.0705680" lon="0.6636780">
        <ele>40.5</ele>
        <time>2020-08-08T10:48:35Z</time>
      </trkpt>
      <trkpt lat="41.0704610" lon="0.6636660">
        <ele>39.9</ele>
        <time>2020-08-08T10:48:37Z</time>
      </trkpt>
      <trkpt lat="41.0704050" lon="0.6636610">
        <ele>39.5</ele>
        <time>2020-08-08T10:48:38Z</time>
      </trkpt>
      <trkpt lat="41.0703470" lon="0.6636520">
        <ele>39.1</ele>
        <time>2020-08-08T10:48:39Z</time>
      </trkpt>
      <trkpt lat="41.0702950" lon="0.6636420">
        <ele>38.8</ele>
        <time>2020-08-08T10:48:40Z</time>
      </trkpt>
      <trkpt lat="41.0702420" lon="0.6636340">
        <ele>38.4</ele>
        <time>2020-08-08T10:48:41Z</time>
      </trkpt>
      <trkpt lat="41.0701300" lon="0.6636120">
        <ele>37.7</ele>
        <time>2020-08-08T10:48:43Z</time>
      </trkpt>
      <trkpt lat="41.0700700" lon="0.6636010">
        <ele>37.3</ele>
        <time>2020-08-08T10:48:44Z</time>
      </trkpt>
      <trkpt lat="41.0700060" lon="0.6635860">
        <ele>36.9</ele>
        <time>2020-08-08T10:48:45Z</time>
      </trkpt>
      <trkpt lat="41.0698780" lon="0.6635520">
        <ele>36.0</ele>
        <time>2020-08-08T10:48:47Z</time>
      </trkpt>
      <trkpt lat="41.0697400" lon="0.6635110">
        <ele>35.1</ele>
        <time>2020-08-08T10:48:49Z</time>
      </trkpt>
      <trkpt lat="41.0696660" lon="0.6634860">
        <ele>34.6</ele>
        <time>2020-08-08T10:48:50Z</time>
      </trkpt>
      <trkpt lat="41.0695190" lon="0.6634460">
        <ele>33.8</ele>
        <time>2020-08-08T10:48:52Z</time>
      </trkpt>
      <trkpt lat="41.0694420" lon="0.6634240">
        <ele>33.4</ele>
        <time>2020-08-08T10:48:53Z</time>
      </trkpt>
      <trkpt lat="41.0693660" lon="0.6633960">
        <ele>33.1</ele>
        <time>2020-08-08T10:48:54Z</time>
      </trkpt>
      <trkpt lat="41.0692110" lon="0.6633460">
        <ele>32.4</ele>
        <time>2020-08-08T10:48:56Z</time>
      </trkpt>
      <trkpt lat="41.0690570" lon="0.6632980">
        <ele>32.0</ele>
        <time>2020-08-08T10:48:58Z</time>
      </trkpt>
      <trkpt lat="41.0689810" lon="0.6632710">
        <ele>31.7</ele>
        <time>2020-08-08T10:48:59Z</time>
      </trkpt>
      <trkpt lat="41.0688320" lon="0.6632140">
        <ele>31.0</ele>
        <time>2020-08-08T10:49:01Z</time>
      </trkpt>
      <trkpt lat="41.0686850" lon="0.6631420">
        <ele>30.4</ele>
        <time>2020-08-08T10:49:03Z</time>
      </trkpt>
      <trkpt lat="41.0685260" lon="0.6630770">
        <ele>29.7</ele>
        <time>2020-08-08T10:49:05Z</time>
      </trkpt>
      <trkpt lat="41.0684470" lon="0.6630510">
        <ele>29.5</ele>
        <time>2020-08-08T10:49:06Z</time>
      </trkpt>
      <trkpt lat="41.0682960" lon="0.6630160">
        <ele>29.0</ele>
        <time>2020-08-08T10:49:08Z</time>
      </trkpt>
      <trkpt lat="41.0682210" lon="0.6630120">
        <ele>28.8</ele>
        <time>2020-08-08T10:49:09Z</time>
      </trkpt>
      <trkpt lat="41.0680770" lon="0.6629970">
        <ele>28.5</ele>
        <time>2020-08-08T10:49:11Z</time>
      </trkpt>
      <trkpt lat="41.0680110" lon="0.6629970">
        <ele>28.4</ele>
        <time>2020-08-08T10:49:12Z</time>
      </trkpt>
      <trkpt lat="41.0678810" lon="0.6630040">
        <ele>28.2</ele>
        <time>2020-08-08T10:49:14Z</time>
      </trkpt>
      <trkpt lat="41.0678160" lon="0.6630140">
        <ele>28.1</ele>
        <time>2020-08-08T10:49:15Z</time>
      </trkpt>
      <trkpt lat="41.0677530" lon="0.6630210">
        <ele>28.0</ele>
        <time>2020-08-08T10:49:16Z</time>
      </trkpt>
      <trkpt lat="41.0676320" lon="0.6630380">
        <ele>27.8</ele>
        <time>2020-08-08T10:49:18Z</time>
      </trkpt>
      <trkpt lat="41.0675150" lon="0.6630570">
        <ele>27.7</ele>
        <time>2020-08-08T10:49:20Z</time>
      </trkpt>
      <trkpt lat="41.0674070" lon="0.6630840">
        <ele>27.7</ele>
        <time>2020-08-08T10:49:22Z</time>
      </trkpt>
      <trkpt lat="41.0672990" lon="0.6631090">
        <ele>27.6</ele>
        <time>2020-08-08T10:49:24Z</time>
      </trkpt>
      <trkpt lat="41.0672450" lon="0.6631220">
        <ele>27.6</ele>
        <time>2020-08-08T10:49:25Z</time>
      </trkpt>
      <trkpt lat="41.0671390" lon="0.6631500">
        <ele>27.4</ele>
        <time>2020-08-08T10:49:27Z</time>
      </trkpt>
      <trkpt lat="41.0670470" lon="0.6631870">
        <ele>27.3</ele>
        <time>2020-08-08T10:49:29Z</time>
      </trkpt>
      <trkpt lat="41.0669560" lon="0.6632330">
        <ele>27.2</ele>
        <time>2020-08-08T10:49:31Z</time>
      </trkpt>
      <trkpt lat="41.0669070" lon="0.6632480">
        <ele>27.1</ele>
        <time>2020-08-08T10:49:32Z</time>
      </trkpt>
      <trkpt lat="41.0668130" lon="0.6632860">
        <ele>27.1</ele>
        <time>2020-08-08T10:49:34Z</time>
      </trkpt>
      <trkpt lat="41.0667630" lon="0.6632980">
        <ele>27.1</ele>
        <time>2020-08-08T10:49:35Z</time>
      </trkpt>
      <trkpt lat="41.0666640" lon="0.6633380">
        <ele>27.0</ele>
        <time>2020-08-08T10:49:37Z</time>
      </trkpt>
      <trkpt lat="41.0665610" lon="0.6633760">
        <ele>27.1</ele>
        <time>2020-08-08T10:49:39Z</time>
      </trkpt>
      <trkpt lat="41.0665130" lon="0.6633910">
        <ele>27.1</ele>
        <time>2020-08-08T10:49:40Z</time>
      </trkpt>
      <trkpt lat="41.0664630" lon="0.6634090">
        <ele>27.1</ele>
        <time>2020-08-08T10:49:41Z</time>
      </trkpt>
      <trkpt lat="41.0664140" lon="0.6634290">
        <ele>27.1</ele>
        <time>2020-08-08T10:49:42Z</time>
      </trkpt>
      <trkpt lat="41.0663120" lon="0.6634690">
        <ele>27.1</ele>
        <time>2020-08-08T10:49:44Z</time>
      </trkpt>
      <trkpt lat="41.0662620" lon="0.6634870">
        <ele>27.1</ele>
        <time>2020-08-08T10:49:45Z</time>
      </trkpt>
      <trkpt lat="41.0661600" lon="0.6635330">
        <ele>26.9</ele>
        <time>2020-08-08T10:49:47Z</time>
      </trkpt>
      <trkpt lat="41.0661150" lon="0.6635570">
        <ele>26.8</ele>
        <time>2020-08-08T10:49:48Z</time>
      </trkpt>
      <trkpt lat="41.0660220" lon="0.6635970">
        <ele>26.8</ele>
        <time>2020-08-08T10:49:50Z</time>
      </trkpt>
      <trkpt lat="41.0659720" lon="0.6636250">
        <ele>26.7</ele>
        <time>2020-08-08T10:49:51Z</time>
      </trkpt>
      <trkpt lat="41.0658830" lon="0.6636820">
        <ele>26.7</ele>
        <time>2020-08-08T10:49:53Z</time>
      </trkpt>
      <trkpt lat="41.0657880" lon="0.6637210">
        <ele>26.7</ele>
        <time>2020-08-08T10:49:55Z</time>
      </trkpt>
      <trkpt lat="41.0657380" lon="0.6637360">
        <ele>26.7</ele>
        <time>2020-08-08T10:49:56Z</time>
      </trkpt>
      <trkpt lat="41.0656350" lon="0.6637610">
        <ele>26.7</ele>
        <time>2020-08-08T10:49:58Z</time>
      </trkpt>
      <trkpt lat="41.0655850" lon="0.6637640">
        <ele>26.7</ele>
        <time>2020-08-08T10:49:59Z</time>
      </trkpt>
      <trkpt lat="41.0655360" lon="0.6637580">
        <ele>26.8</ele>
        <time>2020-08-08T10:50:00Z</time>
      </trkpt>
      <trkpt lat="41.0654330" lon="0.6637740">
        <ele>26.9</ele>
        <time>2020-08-08T10:50:02Z</time>
      </trkpt>
      <trkpt lat="41.0653770" lon="0.6637870">
        <ele>26.9</ele>
        <time>2020-08-08T10:50:03Z</time>
      </trkpt>
      <trkpt lat="41.0652730" lon="0.6638080">
        <ele>26.9</ele>
        <time>2020-08-08T10:50:05Z</time>
      </trkpt>
      <trkpt lat="41.0652310" lon="0.6638130">
        <ele>26.9</ele>
        <time>2020-08-08T10:50:06Z</time>
      </trkpt>
      <trkpt lat="41.0651430" lon="0.6637970">
        <ele>26.9</ele>
        <time>2020-08-08T10:50:08Z</time>
      </trkpt>
      <trkpt lat="41.0650560" lon="0.6637810">
        <ele>26.8</ele>
        <time>2020-08-08T10:50:10Z</time>
      </trkpt>
      <trkpt lat="41.0650140" lon="0.6637740">
        <ele>26.7</ele>
        <time>2020-08-08T10:50:11Z</time>
      </trkpt>
      <trkpt lat="41.0649180" lon="0.6637610">
        <ele>26.7</ele>
        <time>2020-08-08T10:50:13Z</time>
      </trkpt>
      <trkpt lat="41.0648720" lon="0.6637550">
        <ele>26.6</ele>
        <time>2020-08-08T10:50:14Z</time>
      </trkpt>
      <trkpt lat="41.0647860" lon="0.6637360">
        <ele>26.6</ele>
        <time>2020-08-08T10:50:16Z</time>
      </trkpt>
      <trkpt lat="41.0647070" lon="0.6637190">
        <ele>26.7</ele>
        <time>2020-08-08T10:50:18Z</time>
      </trkpt>
      <trkpt lat="41.0646650" lon="0.6637050">
        <ele>26.8</ele>
        <time>2020-08-08T10:50:19Z</time>
      </trkpt>
      <trkpt lat="41.0646180" lon="0.6636900">
        <ele>26.9</ele>
        <time>2020-08-08T10:50:20Z</time>
      </trkpt>
      <trkpt lat="41.0645800" lon="0.6636790">
        <ele>26.9</ele>
        <time>2020-08-08T10:50:21Z</time>
      </trkpt>
      <trkpt lat="41.0644910" lon="0.6636720">
        <ele>27.1</ele>
        <time>2020-08-08T10:50:23Z</time>
      </trkpt>
      <trkpt lat="41.0644500" lon="0.6636650">
        <ele>27.2</ele>
        <time>2020-08-08T10:50:24Z</time>
      </trkpt>
      <trkpt lat="41.0643710" lon="0.6636380">
        <ele>27.3</ele>
        <time>2020-08-08T10:50:26Z</time>
      </trkpt>
      <trkpt lat="41.0642940" lon="0.6636070">
        <ele>27.5</ele>
        <time>2020-08-08T10:50:28Z</time>
      </trkpt>
      <trkpt lat="41.0642650" lon="0.6635970">
        <ele>27.6</ele>
        <time>2020-08-08T10:50:29Z</time>
      </trkpt>
      <trkpt lat="41.0641940" lon="0.6635710">
        <ele>27.7</ele>
        <time>2020-08-08T10:50:31Z</time>
      </trkpt>
      <trkpt lat="41.0641640" lon="0.6635600">
        <ele>27.8</ele>
        <time>2020-08-08T10:50:32Z</time>
      </trkpt>
      <trkpt lat="41.0641330" lon="0.6635470">
        <ele>27.9</ele>
        <time>2020-08-08T10:50:33Z</time>
      </trkpt>
      <trkpt lat="41.0640660" lon="0.6635060">
        <ele>28.0</ele>
        <time>2020-08-08T10:50:35Z</time>
      </trkpt>
      <trkpt lat="41.0640300" lon="0.6634820">
        <ele>28.1</ele>
        <time>2020-08-08T10:50:36Z</time>
      </trkpt>
      <trkpt lat="41.0639630" lon="0.6634380">
        <ele>28.3</ele>
        <time>2020-08-08T10:50:38Z</time>
      </trkpt>
      <trkpt lat="41.0639010" lon="0.6633930">
        <ele>28.5</ele>
        <time>2020-08-08T10:50:40Z</time>
      </trkpt>
      <trkpt lat="41.0638670" lon="0.6633670">
        <ele>28.6</ele>
        <time>2020-08-08T10:50:41Z</time>
      </trkpt>
      <trkpt lat="41.0638040" lon="0.6633180">
        <ele>28.7</ele>
        <time>2020-08-08T10:50:43Z</time>
      </trkpt>
      <trkpt lat="41.0637710" lon="0.6632900">
        <ele>28.8</ele>
        <time>2020-08-08T10:50:44Z</time>
      </trkpt>
      <trkpt lat="41.0637120" lon="0.6632440">
        <ele>29.0</ele>
        <time>2020-08-08T10:50:46Z</time>
      </trkpt>
      <trkpt lat="41.0636800" lon="0.6632190">
        <ele>29.1</ele>
        <time>2020-08-08T10:50:47Z</time>
      </trkpt>
      <trkpt lat="41.0636560" lon="0.6632010">
        <ele>29.2</ele>
        <time>2020-08-08T10:50:48Z</time>
      </trkpt>
      <trkpt lat="41.0635890" lon="0.6631520">
        <ele>29.4</ele>
        <time>2020-08-08T10:50:50Z</time>
      </trkpt>
      <trkpt lat="41.0635570" lon="0.6631280">
        <ele>29.4</ele>
        <time>2020-08-08T10:50:51Z</time>
      </trkpt>
      <trkpt lat="41.0635050" lon="0.6630900">
        <ele>29.6</ele>
        <time>2020-08-08T10:50:53Z</time>
      </trkpt>
      <trkpt lat="41.0634780" lon="0.6630730">
        <ele>29.6</ele>
        <time>2020-08-08T10:50:54Z</time>
      </trkpt>
      <trkpt lat="41.0634450" lon="0.6630520">
        <ele>29.7</ele>
        <time>2020-08-08T10:50:55Z</time>
      </trkpt>
      <trkpt lat="41.0633830" lon="0.6630100">
        <ele>29.9</ele>
        <time>2020-08-08T10:50:57Z</time>
      </trkpt>
      <trkpt lat="41.0633540" lon="0.6629900">
        <ele>30.0</ele>
        <time>2020-08-08T10:50:58Z</time>
      </trkpt>
      <trkpt lat="41.0632920" lon="0.6629400">
        <ele>30.1</ele>
        <time>2020-08-08T10:51:00Z</time>
      </trkpt>
      <trkpt lat="41.0632350" lon="0.6628970">
        <ele>30.2</ele>
        <time>2020-08-08T10:51:02Z</time>
      </trkpt>
      <trkpt lat="41.0632020" lon="0.6628750">
        <ele>30.3</ele>
        <time>2020-08-08T10:51:03Z</time>
      </trkpt>
      <trkpt lat="41.0631430" lon="0.6628380">
        <ele>30.4</ele>
        <time>2020-08-08T10:51:05Z</time>
      </trkpt>
      <trkpt lat="41.0631160" lon="0.6628220">
        <ele>30.4</ele>
        <time>2020-08-08T10:51:06Z</time>
      </trkpt>
      <trkpt lat="41.0630480" lon="0.6627810">
        <ele>30.6</ele>
        <time>2020-08-08T10:51:08Z</time>
      </trkpt>
      <trkpt lat="41.0630170" lon="0.6627590">
        <ele>30.6</ele>
        <time>2020-08-08T10:51:09Z</time>
      </trkpt>
      <trkpt lat="41.0629550" lon="0.6627140">
        <ele>30.8</ele>
        <time>2020-08-08T10:51:11Z</time>
      </trkpt>
      <trkpt lat="41.0629160" lon="0.6626880">
        <ele>30.8</ele>
        <time>2020-08-08T10:51:12Z</time>
      </trkpt>
      <trkpt lat="41.0628460" lon="0.6626440">
        <ele>30.9</ele>
        <time>2020-08-08T10:51:14Z</time>
      </trkpt>
      <trkpt lat="41.0627810" lon="0.6626090">
        <ele>31.0</ele>
        <time>2020-08-08T10:51:16Z</time>
      </trkpt>
      <trkpt lat="41.0627460" lon="0.6625930">
        <ele>31.0</ele>
        <time>2020-08-08T10:51:17Z</time>
      </trkpt>
      <trkpt lat="41.0626780" lon="0.6625630">
        <ele>31.1</ele>
        <time>2020-08-08T10:51:19Z</time>
      </trkpt>
      <trkpt lat="41.0626170" lon="0.6625340">
        <ele>31.1</ele>
        <time>2020-08-08T10:51:21Z</time>
      </trkpt>
      <trkpt lat="41.0625780" lon="0.6625140">
        <ele>31.2</ele>
        <time>2020-08-08T10:51:22Z</time>
      </trkpt>
      <trkpt lat="41.0625090" lon="0.6624750">
        <ele>31.2</ele>
        <time>2020-08-08T10:51:24Z</time>
      </trkpt>
      <trkpt lat="41.0624530" lon="0.6624460">
        <ele>31.3</ele>
        <time>2020-08-08T10:51:26Z</time>
      </trkpt>
      <trkpt lat="41.0624200" lon="0.6624290">
        <ele>31.3</ele>
        <time>2020-08-08T10:51:27Z</time>
      </trkpt>
      <trkpt lat="41.0623600" lon="0.6624020">
        <ele>31.4</ele>
        <time>2020-08-08T10:51:29Z</time>
      </trkpt>
      <trkpt lat="41.0623290" lon="0.6623890">
        <ele>31.4</ele>
        <time>2020-08-08T10:51:30Z</time>
      </trkpt>
      <trkpt lat="41.0622960" lon="0.6623760">
        <ele>31.4</ele>
        <time>2020-08-08T10:51:31Z</time>
      </trkpt>
      <trkpt lat="41.0622350" lon="0.6623490">
        <ele>31.5</ele>
        <time>2020-08-08T10:51:33Z</time>
      </trkpt>
      <trkpt lat="41.0622020" lon="0.6623330">
        <ele>31.5</ele>
        <time>2020-08-08T10:51:34Z</time>
      </trkpt>
      <trkpt lat="41.0621450" lon="0.6623040">
        <ele>31.5</ele>
        <time>2020-08-08T10:51:36Z</time>
      </trkpt>
      <trkpt lat="41.0620950" lon="0.6622830">
        <ele>31.6</ele>
        <time>2020-08-08T10:51:38Z</time>
      </trkpt>
      <trkpt lat="41.0620750" lon="0.6622830">
        <ele>31.6</ele>
        <time>2020-08-08T10:51:39Z</time>
      </trkpt>
      <trkpt lat="41.0620650" lon="0.6622820">
        <ele>31.6</ele>
        <time>2020-08-08T10:51:41Z</time>
      </trkpt>
      <trkpt lat="41.0620560" lon="0.6622820">
        <ele>31.6</ele>
        <time>2020-08-08T10:51:42Z</time>
      </trkpt>
      <trkpt lat="41.0620160" lon="0.6622780">
        <ele>31.6</ele>
        <time>2020-08-08T10:51:44Z</time>
      </trkpt>
      <trkpt lat="41.0619850" lon="0.6622740">
        <ele>31.6</ele>
        <time>2020-08-08T10:51:46Z</time>
      </trkpt>
      <trkpt lat="41.0619500" lon="0.6622670">
        <ele>31.7</ele>
        <time>2020-08-08T10:51:47Z</time>
      </trkpt>
      <trkpt lat="41.0619210" lon="0.6622630">
        <ele>31.7</ele>
        <time>2020-08-08T10:51:48Z</time>
      </trkpt>
      <trkpt lat="41.0618780" lon="0.6622510">
        <ele>31.7</ele>
        <time>2020-08-08T10:51:50Z</time>
      </trkpt>
      <trkpt lat="41.0618500" lon="0.6622440">
        <ele>31.7</ele>
        <time>2020-08-08T10:51:51Z</time>
      </trkpt>
      <trkpt lat="41.0618150" lon="0.6622330">
        <ele>31.7</ele>
        <time>2020-08-08T10:51:52Z</time>
      </trkpt>
      <trkpt lat="41.0618030" lon="0.6622300">
        <ele>31.7</ele>
        <time>2020-08-08T10:51:53Z</time>
      </trkpt>
      <trkpt lat="41.0617740" lon="0.6622210">
        <ele>31.8</ele>
        <time>2020-08-08T10:51:54Z</time>
      </trkpt>
      <trkpt lat="41.0617280" lon="0.6622110">
        <ele>31.8</ele>
        <time>2020-08-08T10:51:56Z</time>
      </trkpt>
      <trkpt lat="41.0616890" lon="0.6622000">
        <ele>31.8</ele>
        <time>2020-08-08T10:51:58Z</time>
      </trkpt>
      <trkpt lat="41.0616610" lon="0.6621950">
        <ele>31.8</ele>
        <time>2020-08-08T10:51:59Z</time>
      </trkpt>
      <trkpt lat="41.0615660" lon="0.6621670">
        <ele>31.8</ele>
        <time>2020-08-08T10:52:01Z</time>
      </trkpt>
      <trkpt lat="41.0614910" lon="0.6621210">
        <ele>31.7</ele>
        <time>2020-08-08T10:52:03Z</time>
      </trkpt>
      <trkpt lat="41.0614620" lon="0.6621020">
        <ele>31.7</ele>
        <time>2020-08-08T10:52:04Z</time>
      </trkpt>
      <trkpt lat="41.0614120" lon="0.6620490">
        <ele>31.7</ele>
        <time>2020-08-08T10:52:06Z</time>
      </trkpt>
      <trkpt lat="41.0613400" lon="0.6620440">
        <ele>31.6</ele>
        <time>2020-08-08T10:52:07Z</time>
      </trkpt>
      <trkpt lat="41.0612920" lon="0.6620390">
        <ele>31.6</ele>
        <time>2020-08-08T10:52:08Z</time>
      </trkpt>
      <trkpt lat="41.0612470" lon="0.6620320">
        <ele>31.5</ele>
        <time>2020-08-08T10:52:09Z</time>
      </trkpt>
      <trkpt lat="41.0612040" lon="0.6620270">
        <ele>31.5</ele>
        <time>2020-08-08T10:52:10Z</time>
      </trkpt>
      <trkpt lat="41.0611640" lon="0.6620230">
        <ele>31.4</ele>
        <time>2020-08-08T10:52:11Z</time>
      </trkpt>
      <trkpt lat="41.0611040" lon="0.6620200">
        <ele>31.4</ele>
        <time>2020-08-08T10:52:13Z</time>
      </trkpt>
      <trkpt lat="41.0610560" lon="0.6620190">
        <ele>31.3</ele>
        <time>2020-08-08T10:52:14Z</time>
      </trkpt>
      <trkpt lat="41.0609760" lon="0.6620150">
        <ele>31.2</ele>
        <time>2020-08-08T10:52:16Z</time>
      </trkpt>
      <trkpt lat="41.0608920" lon="0.6619890">
        <ele>31.1</ele>
        <time>2020-08-08T10:52:17Z</time>
      </trkpt>
      <trkpt lat="41.0607490" lon="0.6619470">
        <ele>31.0</ele>
        <time>2020-08-08T10:52:19Z</time>
      </trkpt>
      <trkpt lat="41.0606460" lon="0.6619240">
        <ele>31.0</ele>
        <time>2020-08-08T10:52:21Z</time>
      </trkpt>
      <trkpt lat="41.0605700" lon="0.6619110">
        <ele>31.0</ele>
        <time>2020-08-08T10:52:22Z</time>
      </trkpt>
      <trkpt lat="41.0605030" lon="0.6618950">
        <ele>30.9</ele>
        <time>2020-08-08T10:52:23Z</time>
      </trkpt>
      <trkpt lat="41.0604520" lon="0.6618840">
        <ele>30.9</ele>
        <time>2020-08-08T10:52:25Z</time>
      </trkpt>
      <trkpt lat="41.0604010" lon="0.6618740">
        <ele>30.8</ele>
        <time>2020-08-08T10:52:26Z</time>
      </trkpt>
      <trkpt lat="41.0603540" lon="0.6618680">
        <ele>30.8</ele>
        <time>2020-08-08T10:52:27Z</time>
      </trkpt>
      <trkpt lat="41.0603060" lon="0.6618620">
        <ele>30.8</ele>
        <time>2020-08-08T10:52:28Z</time>
      </trkpt>
      <trkpt lat="41.0602650" lon="0.6618580">
        <ele>30.7</ele>
        <time>2020-08-08T10:52:29Z</time>
      </trkpt>
      <trkpt lat="41.0602040" lon="0.6618550">
        <ele>30.7</ele>
        <time>2020-08-08T10:52:31Z</time>
      </trkpt>
      <trkpt lat="41.0601560" lon="0.6618520">
        <ele>30.7</ele>
        <time>2020-08-08T10:52:32Z</time>
      </trkpt>
      <trkpt lat="41.0601180" lon="0.6618480">
        <ele>30.6</ele>
        <time>2020-08-08T10:52:34Z</time>
      </trkpt>
      <trkpt lat="41.0600850" lon="0.6618490">
        <ele>30.6</ele>
        <time>2020-08-08T10:52:35Z</time>
      </trkpt>
      <trkpt lat="41.0600550" lon="0.6618500">
        <ele>30.5</ele>
        <time>2020-08-08T10:52:37Z</time>
      </trkpt>
      <trkpt lat="41.0600270" lon="0.6618510">
        <ele>30.5</ele>
        <time>2020-08-08T10:52:38Z</time>
      </trkpt>
      <trkpt lat="41.0599920" lon="0.6618570">
        <ele>30.5</ele>
        <time>2020-08-08T10:52:39Z</time>
      </trkpt>
      <trkpt lat="41.0599490" lon="0.6618650">
        <ele>30.4</ele>
        <time>2020-08-08T10:52:41Z</time>
      </trkpt>
      <trkpt lat="41.0599060" lon="0.6618740">
        <ele>30.4</ele>
        <time>2020-08-08T10:52:42Z</time>
      </trkpt>
      <trkpt lat="41.0598750" lon="0.6618810">
        <ele>30.3</ele>
        <time>2020-08-08T10:52:43Z</time>
      </trkpt>
      <trkpt lat="41.0598340" lon="0.6618880">
        <ele>30.3</ele>
        <time>2020-08-08T10:52:44Z</time>
      </trkpt>
      <trkpt lat="41.0598030" lon="0.6618930">
        <ele>30.2</ele>
        <time>2020-08-08T10:52:45Z</time>
      </trkpt>
      <trkpt lat="41.0597540" lon="0.6618950">
        <ele>30.2</ele>
        <time>2020-08-08T10:52:47Z</time>
      </trkpt>
      <trkpt lat="41.0597030" lon="0.6618960">
        <ele>30.1</ele>
        <time>2020-08-08T10:52:48Z</time>
      </trkpt>
      <trkpt lat="41.0596680" lon="0.6618960">
        <ele>30.0</ele>
        <time>2020-08-08T10:52:49Z</time>
      </trkpt>
      <trkpt lat="41.0596180" lon="0.6618990">
        <ele>30.0</ele>
        <time>2020-08-08T10:52:51Z</time>
      </trkpt>
      <trkpt lat="41.0593710" lon="0.6620370">
        <ele>29.6</ele>
        <time>2020-08-08T10:52:52Z</time>
      </trkpt>
      <trkpt lat="41.0593280" lon="0.6620600">
        <ele>29.5</ele>
        <time>2020-08-08T10:52:53Z</time>
      </trkpt>
      <trkpt lat="41.0592870" lon="0.6620010">
        <ele>29.5</ele>
        <time>2020-08-08T10:52:55Z</time>
      </trkpt>
      <trkpt lat="41.0592610" lon="0.6619820">
        <ele>29.4</ele>
        <time>2020-08-08T10:52:56Z</time>
      </trkpt>
      <trkpt lat="41.0591630" lon="0.6620690">
        <ele>29.2</ele>
        <time>2020-08-08T10:52:57Z</time>
      </trkpt>
      <trkpt lat="41.0591080" lon="0.6621290">
        <ele>29.1</ele>
        <time>2020-08-08T10:52:58Z</time>
      </trkpt>
      <trkpt lat="41.0590950" lon="0.6621390">
        <ele>29.1</ele>
        <time>2020-08-08T10:52:59Z</time>
      </trkpt>
      <trkpt lat="41.0590910" lon="0.6621130">
        <ele>29.0</ele>
        <time>2020-08-08T10:53:00Z</time>
      </trkpt>
      <trkpt lat="41.0590190" lon="0.6621450">
        <ele>28.9</ele>
        <time>2020-08-08T10:53:02Z</time>
      </trkpt>
      <trkpt lat="41.0589140" lon="0.6622490">
        <ele>28.7</ele>
        <time>2020-08-08T10:53:03Z</time>
      </trkpt>
      <trkpt lat="41.0588730" lon="0.6622610">
        <ele>28.7</ele>
        <time>2020-08-08T10:53:05Z</time>
      </trkpt>
      <trkpt lat="41.0587520" lon="0.6623520">
        <ele>28.5</ele>
        <time>2020-08-08T10:53:06Z</time>
      </trkpt>
      <trkpt lat="41.0586950" lon="0.6624100">
        <ele>28.5</ele>
        <time>2020-08-08T10:53:07Z</time>
      </trkpt>
      <trkpt lat="41.0586460" lon="0.6624500">
        <ele>28.5</ele>
        <time>2020-08-08T10:53:08Z</time>
      </trkpt>
      <trkpt lat="41.0585540" lon="0.6625170">
        <ele>28.4</ele>
        <time>2020-08-08T10:53:10Z</time>
      </trkpt>
      <trkpt lat="41.0584670" lon="0.6625710">
        <ele>28.4</ele>
        <time>2020-08-08T10:53:12Z</time>
      </trkpt>
      <trkpt lat="41.0583860" lon="0.6626170">
        <ele>28.3</ele>
        <time>2020-08-08T10:53:14Z</time>
      </trkpt>
      <trkpt lat="41.0583440" lon="0.6626340">
        <ele>28.3</ele>
        <time>2020-08-08T10:53:15Z</time>
      </trkpt>
      <trkpt lat="41.0582570" lon="0.6626650">
        <ele>28.2</ele>
        <time>2020-08-08T10:53:17Z</time>
      </trkpt>
      <trkpt lat="41.0581810" lon="0.6626950">
        <ele>28.1</ele>
        <time>2020-08-08T10:53:19Z</time>
      </trkpt>
      <trkpt lat="41.0581450" lon="0.6627080">
        <ele>28.1</ele>
        <time>2020-08-08T10:53:20Z</time>
      </trkpt>
      <trkpt lat="41.0580750" lon="0.6627360">
        <ele>28.1</ele>
        <time>2020-08-08T10:53:22Z</time>
      </trkpt>
      <trkpt lat="41.0580310" lon="0.6627580">
        <ele>28.2</ele>
        <time>2020-08-08T10:53:23Z</time>
      </trkpt>
      <trkpt lat="41.0579930" lon="0.6628210">
        <ele>28.2</ele>
        <time>2020-08-08T10:53:25Z</time>
      </trkpt>
      <trkpt lat="41.0579680" lon="0.6628380">
        <ele>28.2</ele>
        <time>2020-08-08T10:53:26Z</time>
      </trkpt>
      <trkpt lat="41.0579570" lon="0.6628410">
        <ele>28.2</ele>
        <time>2020-08-08T10:53:27Z</time>
      </trkpt>
      <trkpt lat="41.0579330" lon="0.6628490">
        <ele>28.3</ele>
        <time>2020-08-08T10:53:28Z</time>
      </trkpt>
      <trkpt lat="41.0578990" lon="0.6628460">
        <ele>28.3</ele>
        <time>2020-08-08T10:53:30Z</time>
      </trkpt>
      <trkpt lat="41.0578720" lon="0.6628480">
        <ele>28.3</ele>
        <time>2020-08-08T10:53:31Z</time>
      </trkpt>
      <trkpt lat="41.0578400" lon="0.6628550">
        <ele>28.3</ele>
        <time>2020-08-08T10:53:32Z</time>
      </trkpt>
      <trkpt lat="41.0577680" lon="0.6628770">
        <ele>28.3</ele>
        <time>2020-08-08T10:53:33Z</time>
      </trkpt>
      <trkpt lat="41.0577190" lon="0.6628940">
        <ele>28.3</ele>
        <time>2020-08-08T10:53:34Z</time>
      </trkpt>
      <trkpt lat="41.0576380" lon="0.6629200">
        <ele>28.4</ele>
        <time>2020-08-08T10:53:36Z</time>
      </trkpt>
      <trkpt lat="41.0575640" lon="0.6629440">
        <ele>28.3</ele>
        <time>2020-08-08T10:53:37Z</time>
      </trkpt>
      <trkpt lat="41.0574890" lon="0.6629620">
        <ele>28.2</ele>
        <time>2020-08-08T10:53:38Z</time>
      </trkpt>
      <trkpt lat="41.0574400" lon="0.6629700">
        <ele>28.1</ele>
        <time>2020-08-08T10:53:39Z</time>
      </trkpt>
      <trkpt lat="41.0573450" lon="0.6629770">
        <ele>28.0</ele>
        <time>2020-08-08T10:53:41Z</time>
      </trkpt>
      <trkpt lat="41.0572920" lon="0.6629750">
        <ele>27.9</ele>
        <time>2020-08-08T10:53:42Z</time>
      </trkpt>
      <trkpt lat="41.0572380" lon="0.6629760">
        <ele>27.8</ele>
        <time>2020-08-08T10:53:43Z</time>
      </trkpt>
      <trkpt lat="41.0571370" lon="0.6629730">
        <ele>27.7</ele>
        <time>2020-08-08T10:53:45Z</time>
      </trkpt>
      <trkpt lat="41.0570900" lon="0.6629680">
        <ele>27.7</ele>
        <time>2020-08-08T10:53:46Z</time>
      </trkpt>
      <trkpt lat="41.0570400" lon="0.6629610">
        <ele>27.6</ele>
        <time>2020-08-08T10:53:47Z</time>
      </trkpt>
      <trkpt lat="41.0569520" lon="0.6629440">
        <ele>27.5</ele>
        <time>2020-08-08T10:53:49Z</time>
      </trkpt>
      <trkpt lat="41.0568640" lon="0.6629220">
        <ele>27.5</ele>
        <time>2020-08-08T10:53:51Z</time>
      </trkpt>
      <trkpt lat="41.0567780" lon="0.6628990">
        <ele>27.4</ele>
        <time>2020-08-08T10:53:53Z</time>
      </trkpt>
      <trkpt lat="41.0567040" lon="0.6628770">
        <ele>27.5</ele>
        <time>2020-08-08T10:53:55Z</time>
      </trkpt>
      <trkpt lat="41.0566620" lon="0.6628640">
        <ele>27.5</ele>
        <time>2020-08-08T10:53:56Z</time>
      </trkpt>
      <trkpt lat="41.0565940" lon="0.6628380">
        <ele>27.5</ele>
        <time>2020-08-08T10:53:58Z</time>
      </trkpt>
      <trkpt lat="41.0565560" lon="0.6628210">
        <ele>27.5</ele>
        <time>2020-08-08T10:53:59Z</time>
      </trkpt>
      <trkpt lat="41.0565210" lon="0.6628060">
        <ele>27.6</ele>
        <time>2020-08-08T10:54:00Z</time>
      </trkpt>
      <trkpt lat="41.0564450" lon="0.6627650">
        <ele>27.6</ele>
        <time>2020-08-08T10:54:02Z</time>
      </trkpt>
      <trkpt lat="41.0564080" lon="0.6627460">
        <ele>27.7</ele>
        <time>2020-08-08T10:54:03Z</time>
      </trkpt>
      <trkpt lat="41.0563550" lon="0.6627160">
        <ele>27.8</ele>
        <time>2020-08-08T10:54:05Z</time>
      </trkpt>
      <trkpt lat="41.0563210" lon="0.6626980">
        <ele>27.8</ele>
        <time>2020-08-08T10:54:06Z</time>
      </trkpt>
      <trkpt lat="41.0562540" lon="0.6626600">
        <ele>27.8</ele>
        <time>2020-08-08T10:54:08Z</time>
      </trkpt>
      <trkpt lat="41.0562170" lon="0.6626390">
        <ele>27.8</ele>
        <time>2020-08-08T10:54:09Z</time>
      </trkpt>
      <trkpt lat="41.0561500" lon="0.6626060">
        <ele>27.8</ele>
        <time>2020-08-08T10:54:11Z</time>
      </trkpt>
      <trkpt lat="41.0560800" lon="0.6625750">
        <ele>27.8</ele>
        <time>2020-08-08T10:54:13Z</time>
      </trkpt>
      <trkpt lat="41.0560440" lon="0.6625580">
        <ele>27.8</ele>
        <time>2020-08-08T10:54:14Z</time>
      </trkpt>
      <trkpt lat="41.0560070" lon="0.6625360">
        <ele>27.8</ele>
        <time>2020-08-08T10:54:15Z</time>
      </trkpt>
      <trkpt lat="41.0559380" lon="0.6624980">
        <ele>27.9</ele>
        <time>2020-08-08T10:54:17Z</time>
      </trkpt>
      <trkpt lat="41.0558630" lon="0.6624590">
        <ele>28.0</ele>
        <time>2020-08-08T10:54:19Z</time>
      </trkpt>
      <trkpt lat="41.0558300" lon="0.6624420">
        <ele>28.1</ele>
        <time>2020-08-08T10:54:20Z</time>
      </trkpt>
      <trkpt lat="41.0557620" lon="0.6624010">
        <ele>28.2</ele>
        <time>2020-08-08T10:54:22Z</time>
      </trkpt>
      <trkpt lat="41.0556850" lon="0.6623550">
        <ele>28.2</ele>
        <time>2020-08-08T10:54:24Z</time>
      </trkpt>
      <trkpt lat="41.0556500" lon="0.6623330">
        <ele>28.3</ele>
        <time>2020-08-08T10:54:25Z</time>
      </trkpt>
      <trkpt lat="41.0556080" lon="0.6623070">
        <ele>28.3</ele>
        <time>2020-08-08T10:54:26Z</time>
      </trkpt>
      <trkpt lat="41.0555290" lon="0.6622580">
        <ele>28.4</ele>
        <time>2020-08-08T10:54:28Z</time>
      </trkpt>
      <trkpt lat="41.0554930" lon="0.6622360">
        <ele>28.4</ele>
        <time>2020-08-08T10:54:29Z</time>
      </trkpt>
      <trkpt lat="41.0554550" lon="0.6622140">
        <ele>28.4</ele>
        <time>2020-08-08T10:54:30Z</time>
      </trkpt>
      <trkpt lat="41.0553750" lon="0.6621700">
        <ele>28.5</ele>
        <time>2020-08-08T10:54:32Z</time>
      </trkpt>
      <trkpt lat="41.0552990" lon="0.6621270">
        <ele>28.5</ele>
        <time>2020-08-08T10:54:34Z</time>
      </trkpt>
      <trkpt lat="41.0552200" lon="0.6620790">
        <ele>28.5</ele>
        <time>2020-08-08T10:54:36Z</time>
      </trkpt>
      <trkpt lat="41.0551870" lon="0.6620590">
        <ele>28.6</ele>
        <time>2020-08-08T10:54:37Z</time>
      </trkpt>
      <trkpt lat="41.0551140" lon="0.6620160">
        <ele>28.6</ele>
        <time>2020-08-08T10:54:39Z</time>
      </trkpt>
      <trkpt lat="41.0550450" lon="0.6619800">
        <ele>28.7</ele>
        <time>2020-08-08T10:54:41Z</time>
      </trkpt>
      <trkpt lat="41.0550080" lon="0.6619600">
        <ele>28.7</ele>
        <time>2020-08-08T10:54:42Z</time>
      </trkpt>
      <trkpt lat="41.0549360" lon="0.6619200">
        <ele>28.8</ele>
        <time>2020-08-08T10:54:44Z</time>
      </trkpt>
      <trkpt lat="41.0548590" lon="0.6618770">
        <ele>28.8</ele>
        <time>2020-08-08T10:54:46Z</time>
      </trkpt>
      <trkpt lat="41.0548250" lon="0.6618570">
        <ele>28.8</ele>
        <time>2020-08-08T10:54:47Z</time>
      </trkpt>
      <trkpt lat="41.0547580" lon="0.6618190">
        <ele>28.9</ele>
        <time>2020-08-08T10:54:49Z</time>
      </trkpt>
      <trkpt lat="41.0546900" lon="0.6617840">
        <ele>28.9</ele>
        <time>2020-08-08T10:54:51Z</time>
      </trkpt>
      <trkpt lat="41.0546560" lon="0.6617670">
        <ele>29.0</ele>
        <time>2020-08-08T10:54:52Z</time>
      </trkpt>
      <trkpt lat="41.0546210" lon="0.6617480">
        <ele>29.0</ele>
        <time>2020-08-08T10:54:53Z</time>
      </trkpt>
      <trkpt lat="41.0545520" lon="0.6617080">
        <ele>29.1</ele>
        <time>2020-08-08T10:54:55Z</time>
      </trkpt>
      <trkpt lat="41.0545120" lon="0.6616830">
        <ele>29.1</ele>
        <time>2020-08-08T10:54:56Z</time>
      </trkpt>
      <trkpt lat="41.0544420" lon="0.6616380">
        <ele>29.1</ele>
        <time>2020-08-08T10:54:58Z</time>
      </trkpt>
      <trkpt lat="41.0544040" lon="0.6616130">
        <ele>29.0</ele>
        <time>2020-08-08T10:54:59Z</time>
      </trkpt>
      <trkpt lat="41.0543270" lon="0.6615600">
        <ele>29.0</ele>
        <time>2020-08-08T10:55:01Z</time>
      </trkpt>
      <trkpt lat="41.0542450" lon="0.6615090">
        <ele>29.0</ele>
        <time>2020-08-08T10:55:03Z</time>
      </trkpt>
      <trkpt lat="41.0542090" lon="0.6614880">
        <ele>29.0</ele>
        <time>2020-08-08T10:55:04Z</time>
      </trkpt>
      <trkpt lat="41.0541330" lon="0.6614420">
        <ele>29.0</ele>
        <time>2020-08-08T10:55:06Z</time>
      </trkpt>
      <trkpt lat="41.0540490" lon="0.6613890">
        <ele>29.0</ele>
        <time>2020-08-08T10:55:08Z</time>
      </trkpt>
      <trkpt lat="41.0540130" lon="0.6613660">
        <ele>29.1</ele>
        <time>2020-08-08T10:55:09Z</time>
      </trkpt>
      <trkpt lat="41.0539340" lon="0.6613140">
        <ele>29.1</ele>
        <time>2020-08-08T10:55:11Z</time>
      </trkpt>
      <trkpt lat="41.0538530" lon="0.6612550">
        <ele>29.1</ele>
        <time>2020-08-08T10:55:13Z</time>
      </trkpt>
      <trkpt lat="41.0538100" lon="0.6612240">
        <ele>29.1</ele>
        <time>2020-08-08T10:55:14Z</time>
      </trkpt>
      <trkpt lat="41.0537290" lon="0.6611730">
        <ele>29.1</ele>
        <time>2020-08-08T10:55:16Z</time>
      </trkpt>
      <trkpt lat="41.0536870" lon="0.6611490">
        <ele>29.1</ele>
        <time>2020-08-08T10:55:17Z</time>
      </trkpt>
      <trkpt lat="41.0536130" lon="0.6611100">
        <ele>29.1</ele>
        <time>2020-08-08T10:55:19Z</time>
      </trkpt>
      <trkpt lat="41.0535730" lon="0.6610880">
        <ele>29.1</ele>
        <time>2020-08-08T10:55:20Z</time>
      </trkpt>
      <trkpt lat="41.0534970" lon="0.6610460">
        <ele>29.1</ele>
        <time>2020-08-08T10:55:22Z</time>
      </trkpt>
      <trkpt lat="41.0534590" lon="0.6610240">
        <ele>29.1</ele>
        <time>2020-08-08T10:55:23Z</time>
      </trkpt>
      <trkpt lat="41.0533910" lon="0.6609840">
        <ele>29.1</ele>
        <time>2020-08-08T10:55:25Z</time>
      </trkpt>
      <trkpt lat="41.0533190" lon="0.6609420">
        <ele>29.1</ele>
        <time>2020-08-08T10:55:27Z</time>
      </trkpt>
      <trkpt lat="41.0532440" lon="0.6608990">
        <ele>29.1</ele>
        <time>2020-08-08T10:55:29Z</time>
      </trkpt>
      <trkpt lat="41.0532010" lon="0.6608730">
        <ele>29.2</ele>
        <time>2020-08-08T10:55:30Z</time>
      </trkpt>
      <trkpt lat="41.0531320" lon="0.6608330">
        <ele>29.2</ele>
        <time>2020-08-08T10:55:32Z</time>
      </trkpt>
      <trkpt lat="41.0530910" lon="0.6608110">
        <ele>29.2</ele>
        <time>2020-08-08T10:55:33Z</time>
      </trkpt>
      <trkpt lat="41.0530130" lon="0.6607720">
        <ele>29.2</ele>
        <time>2020-08-08T10:55:35Z</time>
      </trkpt>
      <trkpt lat="41.0529330" lon="0.6607350">
        <ele>29.3</ele>
        <time>2020-08-08T10:55:37Z</time>
      </trkpt>
      <trkpt lat="41.0528520" lon="0.6606930">
        <ele>29.3</ele>
        <time>2020-08-08T10:55:39Z</time>
      </trkpt>
      <trkpt lat="41.0528160" lon="0.6606730">
        <ele>29.3</ele>
        <time>2020-08-08T10:55:40Z</time>
      </trkpt>
      <trkpt lat="41.0527740" lon="0.6606470">
        <ele>29.3</ele>
        <time>2020-08-08T10:55:41Z</time>
      </trkpt>
      <trkpt lat="41.0527350" lon="0.6606220">
        <ele>29.3</ele>
        <time>2020-08-08T10:55:42Z</time>
      </trkpt>
      <trkpt lat="41.0526570" lon="0.6605730">
        <ele>29.3</ele>
        <time>2020-08-08T10:55:44Z</time>
      </trkpt>
      <trkpt lat="41.0525800" lon="0.6605290">
        <ele>29.3</ele>
        <time>2020-08-08T10:55:46Z</time>
      </trkpt>
      <trkpt lat="41.0525430" lon="0.6605090">
        <ele>29.4</ele>
        <time>2020-08-08T10:55:47Z</time>
      </trkpt>
      <trkpt lat="41.0524650" lon="0.6604670">
        <ele>29.4</ele>
        <time>2020-08-08T10:55:49Z</time>
      </trkpt>
      <trkpt lat="41.0524300" lon="0.6604480">
        <ele>29.4</ele>
        <time>2020-08-08T10:55:50Z</time>
      </trkpt>
      <trkpt lat="41.0523630" lon="0.6604090">
        <ele>29.5</ele>
        <time>2020-08-08T10:55:52Z</time>
      </trkpt>
      <trkpt lat="41.0523270" lon="0.6603870">
        <ele>29.5</ele>
        <time>2020-08-08T10:55:53Z</time>
      </trkpt>
      <trkpt lat="41.0522500" lon="0.6603410">
        <ele>29.5</ele>
        <time>2020-08-08T10:55:55Z</time>
      </trkpt>
      <trkpt lat="41.0522100" lon="0.6603180">
        <ele>29.4</ele>
        <time>2020-08-08T10:55:56Z</time>
      </trkpt>
      <trkpt lat="41.0521750" lon="0.6602970">
        <ele>29.4</ele>
        <time>2020-08-08T10:55:57Z</time>
      </trkpt>
      <trkpt lat="41.0521060" lon="0.6602620">
        <ele>29.4</ele>
        <time>2020-08-08T10:55:59Z</time>
      </trkpt>
      <trkpt lat="41.0520700" lon="0.6602430">
        <ele>29.5</ele>
        <time>2020-08-08T10:56:00Z</time>
      </trkpt>
      <trkpt lat="41.0519960" lon="0.6602040">
        <ele>29.5</ele>
        <time>2020-08-08T10:56:02Z</time>
      </trkpt>
      <trkpt lat="41.0519240" lon="0.6601660">
        <ele>29.5</ele>
        <time>2020-08-08T10:56:04Z</time>
      </trkpt>
      <trkpt lat="41.0518500" lon="0.6601240">
        <ele>29.5</ele>
        <time>2020-08-08T10:56:06Z</time>
      </trkpt>
      <trkpt lat="41.0518120" lon="0.6601010">
        <ele>29.5</ele>
        <time>2020-08-08T10:56:07Z</time>
      </trkpt>
      <trkpt lat="41.0517420" lon="0.6600570">
        <ele>29.5</ele>
        <time>2020-08-08T10:56:09Z</time>
      </trkpt>
      <trkpt lat="41.0516680" lon="0.6600090">
        <ele>29.5</ele>
        <time>2020-08-08T10:56:11Z</time>
      </trkpt>
      <trkpt lat="41.0516290" lon="0.6599840">
        <ele>29.6</ele>
        <time>2020-08-08T10:56:12Z</time>
      </trkpt>
      <trkpt lat="41.0515600" lon="0.6599410">
        <ele>29.6</ele>
        <time>2020-08-08T10:56:14Z</time>
      </trkpt>
      <trkpt lat="41.0515230" lon="0.6599200">
        <ele>29.6</ele>
        <time>2020-08-08T10:56:15Z</time>
      </trkpt>
      <trkpt lat="41.0514840" lon="0.6598980">
        <ele>29.6</ele>
        <time>2020-08-08T10:56:16Z</time>
      </trkpt>
      <trkpt lat="41.0514140" lon="0.6598640">
        <ele>29.7</ele>
        <time>2020-08-08T10:56:18Z</time>
      </trkpt>
      <trkpt lat="41.0513770" lon="0.6598450">
        <ele>29.8</ele>
        <time>2020-08-08T10:56:19Z</time>
      </trkpt>
      <trkpt lat="41.0513380" lon="0.6598250">
        <ele>29.8</ele>
        <time>2020-08-08T10:56:20Z</time>
      </trkpt>
      <trkpt lat="41.0512570" lon="0.6597820">
        <ele>30.0</ele>
        <time>2020-08-08T10:56:22Z</time>
      </trkpt>
      <trkpt lat="41.0511880" lon="0.6597440">
        <ele>30.1</ele>
        <time>2020-08-08T10:56:24Z</time>
      </trkpt>
      <trkpt lat="41.0511510" lon="0.6597250">
        <ele>30.2</ele>
        <time>2020-08-08T10:56:25Z</time>
      </trkpt>
      <trkpt lat="41.0511140" lon="0.6597040">
        <ele>30.2</ele>
        <time>2020-08-08T10:56:26Z</time>
      </trkpt>
      <trkpt lat="41.0510760" lon="0.6596830">
        <ele>30.2</ele>
        <time>2020-08-08T10:56:27Z</time>
      </trkpt>
      <trkpt lat="41.0510390" lon="0.6596620">
        <ele>30.2</ele>
        <time>2020-08-08T10:56:28Z</time>
      </trkpt>
      <trkpt lat="41.0509610" lon="0.6596160">
        <ele>30.2</ele>
        <time>2020-08-08T10:56:30Z</time>
      </trkpt>
      <trkpt lat="41.0509190" lon="0.6595920">
        <ele>30.2</ele>
        <time>2020-08-08T10:56:31Z</time>
      </trkpt>
      <trkpt lat="41.0508810" lon="0.6595700">
        <ele>30.3</ele>
        <time>2020-08-08T10:56:32Z</time>
      </trkpt>
      <trkpt lat="41.0507970" lon="0.6595200">
        <ele>30.3</ele>
        <time>2020-08-08T10:56:34Z</time>
      </trkpt>
      <trkpt lat="41.0505210" lon="0.6593370">
        <ele>30.2</ele>
        <time>2020-08-08T10:56:41Z</time>
      </trkpt>
      <trkpt lat="41.0504050" lon="0.6592590">
        <ele>30.2</ele>
        <time>2020-08-08T10:56:43Z</time>
      </trkpt>
      <trkpt lat="41.0503290" lon="0.6592380">
        <ele>30.2</ele>
        <time>2020-08-08T10:56:45Z</time>
      </trkpt>
      <trkpt lat="41.0502830" lon="0.6592170">
        <ele>30.3</ele>
        <time>2020-08-08T10:56:47Z</time>
      </trkpt>
      <trkpt lat="41.0501950" lon="0.6591630">
        <ele>30.3</ele>
        <time>2020-08-08T10:56:48Z</time>
      </trkpt>
      <trkpt lat="41.0501540" lon="0.6591370">
        <ele>30.4</ele>
        <time>2020-08-08T10:56:49Z</time>
      </trkpt>
      <trkpt lat="41.0501230" lon="0.6591170">
        <ele>30.4</ele>
        <time>2020-08-08T10:56:50Z</time>
      </trkpt>
      <trkpt lat="41.0500340" lon="0.6590570">
        <ele>30.5</ele>
        <time>2020-08-08T10:56:52Z</time>
      </trkpt>
      <trkpt lat="41.0499120" lon="0.6589880">
        <ele>30.5</ele>
        <time>2020-08-08T10:56:55Z</time>
      </trkpt>
      <trkpt lat="41.0498650" lon="0.6589380">
        <ele>30.6</ele>
        <time>2020-08-08T10:56:57Z</time>
      </trkpt>
      <trkpt lat="41.0498400" lon="0.6588800">
        <ele>30.6</ele>
        <time>2020-08-08T10:56:59Z</time>
      </trkpt>
      <trkpt lat="41.0498130" lon="0.6588630">
        <ele>30.6</ele>
        <time>2020-08-08T10:57:00Z</time>
      </trkpt>
      <trkpt lat="41.0498030" lon="0.6588530">
        <ele>30.6</ele>
        <time>2020-08-08T10:57:01Z</time>
      </trkpt>
      <trkpt lat="41.0496820" lon="0.6587500">
        <ele>30.8</ele>
        <time>2020-08-08T10:57:03Z</time>
      </trkpt>
      <trkpt lat="41.0497250" lon="0.6588410">
        <ele>30.9</ele>
        <time>2020-08-08T10:57:05Z</time>
      </trkpt>
      <trkpt lat="41.0497100" lon="0.6588440">
        <ele>30.9</ele>
        <time>2020-08-08T10:57:07Z</time>
      </trkpt>
      <trkpt lat="41.0497010" lon="0.6588480">
        <ele>31.0</ele>
        <time>2020-08-08T10:57:08Z</time>
      </trkpt>
      <trkpt lat="41.0496920" lon="0.6588520">
        <ele>31.0</ele>
        <time>2020-08-08T10:57:09Z</time>
      </trkpt>
      <trkpt lat="41.0496490" lon="0.6588240">
        <ele>31.0</ele>
        <time>2020-08-08T10:57:11Z</time>
      </trkpt>
      <trkpt lat="41.0495370" lon="0.6587180">
        <ele>31.2</ele>
        <time>2020-08-08T10:57:12Z</time>
      </trkpt>
      <trkpt lat="41.0494720" lon="0.6586500">
        <ele>31.3</ele>
        <time>2020-08-08T10:57:13Z</time>
      </trkpt>
      <trkpt lat="41.0493950" lon="0.6585560">
        <ele>31.4</ele>
        <time>2020-08-08T10:57:15Z</time>
      </trkpt>
      <trkpt lat="41.0493550" lon="0.6584790">
        <ele>31.5</ele>
        <time>2020-08-08T10:57:16Z</time>
      </trkpt>
      <trkpt lat="41.0493220" lon="0.6584120">
        <ele>31.6</ele>
        <time>2020-08-08T10:57:17Z</time>
      </trkpt>
      <trkpt lat="41.0493000" lon="0.6583610">
        <ele>31.6</ele>
        <time>2020-08-08T10:57:18Z</time>
      </trkpt>
      <trkpt lat="41.0492750" lon="0.6583240">
        <ele>31.7</ele>
        <time>2020-08-08T10:57:20Z</time>
      </trkpt>
      <trkpt lat="41.0492530" lon="0.6582920">
        <ele>31.7</ele>
        <time>2020-08-08T10:57:21Z</time>
      </trkpt>
      <trkpt lat="41.0492270" lon="0.6582560">
        <ele>31.8</ele>
        <time>2020-08-08T10:57:22Z</time>
      </trkpt>
      <trkpt lat="41.0492000" lon="0.6582180">
        <ele>31.8</ele>
        <time>2020-08-08T10:57:23Z</time>
      </trkpt>
      <trkpt lat="41.0491810" lon="0.6581880">
        <ele>31.9</ele>
        <time>2020-08-08T10:57:24Z</time>
      </trkpt>
      <trkpt lat="41.0491470" lon="0.6581380">
        <ele>32.0</ele>
        <time>2020-08-08T10:57:26Z</time>
      </trkpt>
      <trkpt lat="41.0491220" lon="0.6581020">
        <ele>32.0</ele>
        <time>2020-08-08T10:57:27Z</time>
      </trkpt>
      <trkpt lat="41.0491000" lon="0.6580730">
        <ele>32.1</ele>
        <time>2020-08-08T10:57:28Z</time>
      </trkpt>
      <trkpt lat="41.0490750" lon="0.6580400">
        <ele>32.2</ele>
        <time>2020-08-08T10:57:29Z</time>
      </trkpt>
      <trkpt lat="41.0490540" lon="0.6580150">
        <ele>32.3</ele>
        <time>2020-08-08T10:57:31Z</time>
      </trkpt>
      <trkpt lat="41.0490320" lon="0.6579940">
        <ele>32.4</ele>
        <time>2020-08-08T10:57:32Z</time>
      </trkpt>
      <trkpt lat="41.0489910" lon="0.6579420">
        <ele>32.6</ele>
        <time>2020-08-08T10:57:34Z</time>
      </trkpt>
      <trkpt lat="41.0489690" lon="0.6579140">
        <ele>32.7</ele>
        <time>2020-08-08T10:57:35Z</time>
      </trkpt>
      <trkpt lat="41.0489280" lon="0.6578570">
        <ele>32.9</ele>
        <time>2020-08-08T10:57:37Z</time>
      </trkpt>
      <trkpt lat="41.0488930" lon="0.6578130">
        <ele>33.1</ele>
        <time>2020-08-08T10:57:38Z</time>
      </trkpt>
      <trkpt lat="41.0488570" lon="0.6577650">
        <ele>33.2</ele>
        <time>2020-08-08T10:57:40Z</time>
      </trkpt>
      <trkpt lat="41.0488180" lon="0.6577190">
        <ele>33.4</ele>
        <time>2020-08-08T10:57:41Z</time>
      </trkpt>
      <trkpt lat="41.0487740" lon="0.6576590">
        <ele>33.6</ele>
        <time>2020-08-08T10:57:43Z</time>
      </trkpt>
      <trkpt lat="41.0487510" lon="0.6576210">
        <ele>33.8</ele>
        <time>2020-08-08T10:57:44Z</time>
      </trkpt>
      <trkpt lat="41.0487310" lon="0.6575880">
        <ele>33.9</ele>
        <time>2020-08-08T10:57:45Z</time>
      </trkpt>
      <trkpt lat="41.0487030" lon="0.6575510">
        <ele>34.0</ele>
        <time>2020-08-08T10:57:47Z</time>
      </trkpt>
      <trkpt lat="41.0486790" lon="0.6575120">
        <ele>34.2</ele>
        <time>2020-08-08T10:57:48Z</time>
      </trkpt>
      <trkpt lat="41.0486200" lon="0.6573850">
        <ele>34.6</ele>
        <time>2020-08-08T10:57:50Z</time>
      </trkpt>
      <trkpt lat="41.0485750" lon="0.6572790">
        <ele>35.0</ele>
        <time>2020-08-08T10:57:51Z</time>
      </trkpt>
      <trkpt lat="41.0485340" lon="0.6571950">
        <ele>35.3</ele>
        <time>2020-08-08T10:57:52Z</time>
      </trkpt>
      <trkpt lat="41.0484990" lon="0.6571300">
        <ele>35.5</ele>
        <time>2020-08-08T10:57:53Z</time>
      </trkpt>
      <trkpt lat="41.0484680" lon="0.6570740">
        <ele>35.7</ele>
        <time>2020-08-08T10:57:54Z</time>
      </trkpt>
      <trkpt lat="41.0484260" lon="0.6570020">
        <ele>35.9</ele>
        <time>2020-08-08T10:57:56Z</time>
      </trkpt>
      <trkpt lat="41.0484030" lon="0.6569590">
        <ele>36.1</ele>
        <time>2020-08-08T10:57:57Z</time>
      </trkpt>
      <trkpt lat="41.0483750" lon="0.6569090">
        <ele>36.2</ele>
        <time>2020-08-08T10:57:58Z</time>
      </trkpt>
      <trkpt lat="41.0483510" lon="0.6568670">
        <ele>36.4</ele>
        <time>2020-08-08T10:57:59Z</time>
      </trkpt>
      <trkpt lat="41.0483170" lon="0.6568090">
        <ele>36.5</ele>
        <time>2020-08-08T10:58:01Z</time>
      </trkpt>
      <trkpt lat="41.0482930" lon="0.6567690">
        <ele>36.7</ele>
        <time>2020-08-08T10:58:02Z</time>
      </trkpt>
      <trkpt lat="41.0482730" lon="0.6567290">
        <ele>36.8</ele>
        <time>2020-08-08T10:58:03Z</time>
      </trkpt>
      <trkpt lat="41.0482560" lon="0.6566900">
        <ele>36.9</ele>
        <time>2020-08-08T10:58:04Z</time>
      </trkpt>
      <trkpt lat="41.0482320" lon="0.6566110">
        <ele>37.2</ele>
        <time>2020-08-08T10:58:07Z</time>
      </trkpt>
      <trkpt lat="41.0481890" lon="0.6565550">
        <ele>37.4</ele>
        <time>2020-08-08T10:58:08Z</time>
      </trkpt>
      <trkpt lat="41.0481630" lon="0.6565120">
        <ele>37.6</ele>
        <time>2020-08-08T10:58:09Z</time>
      </trkpt>
      <trkpt lat="41.0481370" lon="0.6564710">
        <ele>37.7</ele>
        <time>2020-08-08T10:58:10Z</time>
      </trkpt>
      <trkpt lat="41.0481220" lon="0.6564380">
        <ele>37.8</ele>
        <time>2020-08-08T10:58:11Z</time>
      </trkpt>
      <trkpt lat="41.0480860" lon="0.6563610">
        <ele>38.1</ele>
        <time>2020-08-08T10:58:13Z</time>
      </trkpt>
      <trkpt lat="41.0480220" lon="0.6562730">
        <ele>38.4</ele>
        <time>2020-08-08T10:58:15Z</time>
      </trkpt>
      <trkpt lat="41.0479690" lon="0.6561820">
        <ele>38.7</ele>
        <time>2020-08-08T10:58:17Z</time>
      </trkpt>
      <trkpt lat="41.0479460" lon="0.6561230">
        <ele>38.9</ele>
        <time>2020-08-08T10:58:18Z</time>
      </trkpt>
      <trkpt lat="41.0479400" lon="0.6561090">
        <ele>38.9</ele>
        <time>2020-08-08T10:58:20Z</time>
      </trkpt>
      <trkpt lat="41.0479430" lon="0.6561060">
        <ele>38.9</ele>
        <time>2020-08-08T10:58:21Z</time>
      </trkpt>
      <trkpt lat="41.0479500" lon="0.6560830">
        <ele>39.0</ele>
        <time>2020-08-08T10:58:22Z</time>
      </trkpt>
      <trkpt lat="41.0479610" lon="0.6560380">
        <ele>39.1</ele>
        <time>2020-08-08T10:58:24Z</time>
      </trkpt>
      <trkpt lat="41.0479230" lon="0.6559790">
        <ele>39.3</ele>
        <time>2020-08-08T10:58:26Z</time>
      </trkpt>
      <trkpt lat="41.0478910" lon="0.6559360">
        <ele>39.5</ele>
        <time>2020-08-08T10:58:27Z</time>
      </trkpt>
      <trkpt lat="41.0478690" lon="0.6558700">
        <ele>39.7</ele>
        <time>2020-08-08T10:58:29Z</time>
      </trkpt>
      <trkpt lat="41.0478250" lon="0.6558410">
        <ele>39.8</ele>
        <time>2020-08-08T10:58:31Z</time>
      </trkpt>
      <trkpt lat="41.0478040" lon="0.6558130">
        <ele>39.9</ele>
        <time>2020-08-08T10:58:32Z</time>
      </trkpt>
      <trkpt lat="41.0477580" lon="0.6557580">
        <ele>40.2</ele>
        <time>2020-08-08T10:58:34Z</time>
      </trkpt>
      <trkpt lat="41.0477370" lon="0.6557320">
        <ele>40.3</ele>
        <time>2020-08-08T10:58:36Z</time>
      </trkpt>
      <trkpt lat="41.0477100" lon="0.6557240">
        <ele>40.4</ele>
        <time>2020-08-08T10:58:37Z</time>
      </trkpt>
      <trkpt lat="41.0476980" lon="0.6557560">
        <ele>40.5</ele>
        <time>2020-08-08T10:58:38Z</time>
      </trkpt>
      <trkpt lat="41.0476720" lon="0.6557050">
        <ele>40.7</ele>
        <time>2020-08-08T10:58:40Z</time>
      </trkpt>
      <trkpt lat="41.0476770" lon="0.6556430">
        <ele>40.9</ele>
        <time>2020-08-08T10:58:41Z</time>
      </trkpt>
      <trkpt lat="41.0476640" lon="0.6555320">
        <ele>41.2</ele>
        <time>2020-08-08T10:58:42Z</time>
      </trkpt>
      <trkpt lat="41.0476310" lon="0.6552880">
        <ele>41.8</ele>
        <time>2020-08-08T10:58:44Z</time>
      </trkpt>
      <trkpt lat="41.0476120" lon="0.6551400">
        <ele>42.3</ele>
        <time>2020-08-08T10:58:46Z</time>
      </trkpt>
      <trkpt lat="41.0476090" lon="0.6550980">
        <ele>42.4</ele>
        <time>2020-08-08T10:58:47Z</time>
      </trkpt>
      <trkpt lat="41.0476120" lon="0.6550020">
        <ele>42.7</ele>
        <time>2020-08-08T10:58:50Z</time>
      </trkpt>
      <trkpt lat="41.0476070" lon="0.6548960">
        <ele>43.0</ele>
        <time>2020-08-08T10:58:52Z</time>
      </trkpt>
      <trkpt lat="41.0475970" lon="0.6548240">
        <ele>43.3</ele>
        <time>2020-08-08T10:58:53Z</time>
      </trkpt>
      <trkpt lat="41.0475870" lon="0.6546990">
        <ele>43.7</ele>
        <time>2020-08-08T10:58:57Z</time>
      </trkpt>
      <trkpt lat="41.0475620" lon="0.6545500">
        <ele>44.2</ele>
        <time>2020-08-08T10:58:58Z</time>
      </trkpt>
      <trkpt lat="41.0475440" lon="0.6544940">
        <ele>44.5</ele>
        <time>2020-08-08T10:58:59Z</time>
      </trkpt>
      <trkpt lat="41.0475400" lon="0.6544450">
        <ele>44.7</ele>
        <time>2020-08-08T10:59:00Z</time>
      </trkpt>
      <trkpt lat="41.0475470" lon="0.6543990">
        <ele>44.9</ele>
        <time>2020-08-08T10:59:01Z</time>
      </trkpt>
      <trkpt lat="41.0475580" lon="0.6543220">
        <ele>45.2</ele>
        <time>2020-08-08T10:59:03Z</time>
      </trkpt>
      <trkpt lat="41.0475660" lon="0.6542760">
        <ele>45.4</ele>
        <time>2020-08-08T10:59:04Z</time>
      </trkpt>
      <trkpt lat="41.0475820" lon="0.6542030">
        <ele>45.7</ele>
        <time>2020-08-08T10:59:06Z</time>
      </trkpt>
      <trkpt lat="41.0475990" lon="0.6541690">
        <ele>45.8</ele>
        <time>2020-08-08T10:59:08Z</time>
      </trkpt>
      <trkpt lat="41.0476670" lon="0.6541680">
        <ele>46.2</ele>
        <time>2020-08-08T10:59:11Z</time>
      </trkpt>
      <trkpt lat="41.0476200" lon="0.6541500">
        <ele>46.4</ele>
        <time>2020-08-08T10:59:12Z</time>
      </trkpt>
      <trkpt lat="41.0475890" lon="0.6541320">
        <ele>46.6</ele>
        <time>2020-08-08T10:59:14Z</time>
      </trkpt>
      <trkpt lat="41.0475480" lon="0.6540580">
        <ele>46.9</ele>
        <time>2020-08-08T10:59:17Z</time>
      </trkpt>
      <trkpt lat="41.0475610" lon="0.6539820">
        <ele>47.2</ele>
        <time>2020-08-08T10:59:18Z</time>
      </trkpt>
      <trkpt lat="41.0475850" lon="0.6539050">
        <ele>47.5</ele>
        <time>2020-08-08T10:59:20Z</time>
      </trkpt>
      <trkpt lat="41.0475650" lon="0.6538930">
        <ele>47.6</ele>
        <time>2020-08-08T10:59:21Z</time>
      </trkpt>
      <trkpt lat="41.0475430" lon="0.6538810">
        <ele>47.7</ele>
        <time>2020-08-08T10:59:23Z</time>
      </trkpt>
      <trkpt lat="41.0475350" lon="0.6538650">
        <ele>47.8</ele>
        <time>2020-08-08T10:59:25Z</time>
      </trkpt>
      <trkpt lat="41.0475230" lon="0.6538420">
        <ele>47.9</ele>
        <time>2020-08-08T10:59:26Z</time>
      </trkpt>
      <trkpt lat="41.0475510" lon="0.6536710">
        <ele>48.5</ele>
        <time>2020-08-08T10:59:27Z</time>
      </trkpt>
      <trkpt lat="41.0475900" lon="0.6535150">
        <ele>49.0</ele>
        <time>2020-08-08T10:59:28Z</time>
      </trkpt>
      <trkpt lat="41.0476290" lon="0.6533600">
        <ele>49.5</ele>
        <time>2020-08-08T10:59:30Z</time>
      </trkpt>
      <trkpt lat="41.0476570" lon="0.6531650">
        <ele>50.1</ele>
        <time>2020-08-08T10:59:32Z</time>
      </trkpt>
      <trkpt lat="41.0476610" lon="0.6531100">
        <ele>50.2</ele>
        <time>2020-08-08T10:59:33Z</time>
      </trkpt>
      <trkpt lat="41.0476630" lon="0.6530650">
        <ele>50.3</ele>
        <time>2020-08-08T10:59:34Z</time>
      </trkpt>
      <trkpt lat="41.0476650" lon="0.6530200">
        <ele>50.4</ele>
        <time>2020-08-08T10:59:35Z</time>
      </trkpt>
      <trkpt lat="41.0476710" lon="0.6530140">
        <ele>50.5</ele>
        <time>2020-08-08T10:59:36Z</time>
      </trkpt>
      <trkpt lat="41.0476740" lon="0.6530420">
        <ele>50.5</ele>
        <time>2020-08-08T10:59:38Z</time>
      </trkpt>
      <trkpt lat="41.0476780" lon="0.6530710">
        <ele>50.6</ele>
        <time>2020-08-08T10:59:39Z</time>
      </trkpt>
      <trkpt lat="41.0476990" lon="0.6530230">
        <ele>50.7</ele>
        <time>2020-08-08T10:59:40Z</time>
      </trkpt>
      <trkpt lat="41.0477030" lon="0.6529340">
        <ele>50.8</ele>
        <time>2020-08-08T10:59:41Z</time>
      </trkpt>
      <trkpt lat="41.0477010" lon="0.6528750">
        <ele>50.9</ele>
        <time>2020-08-08T10:59:42Z</time>
      </trkpt>
      <trkpt lat="41.0477030" lon="0.6527820">
        <ele>51.0</ele>
        <time>2020-08-08T10:59:44Z</time>
      </trkpt>
      <trkpt lat="41.0477010" lon="0.6526880">
        <ele>51.1</ele>
        <time>2020-08-08T10:59:46Z</time>
      </trkpt>
      <trkpt lat="41.0476980" lon="0.6525770">
        <ele>51.2</ele>
        <time>2020-08-08T10:59:47Z</time>
      </trkpt>
      <trkpt lat="41.0476930" lon="0.6524420">
        <ele>51.3</ele>
        <time>2020-08-08T10:59:48Z</time>
      </trkpt>
      <trkpt lat="41.0476890" lon="0.6523690">
        <ele>51.3</ele>
        <time>2020-08-08T10:59:50Z</time>
      </trkpt>
      <trkpt lat="41.0476800" lon="0.6522710">
        <ele>51.3</ele>
        <time>2020-08-08T10:59:51Z</time>
      </trkpt>
      <trkpt lat="41.0476740" lon="0.6521810">
        <ele>51.3</ele>
        <time>2020-08-08T10:59:53Z</time>
      </trkpt>
      <trkpt lat="41.0476650" lon="0.6521150">
        <ele>51.2</ele>
        <time>2020-08-08T10:59:54Z</time>
      </trkpt>
      <trkpt lat="41.0476610" lon="0.6520670">
        <ele>51.2</ele>
        <time>2020-08-08T10:59:55Z</time>
      </trkpt>
      <trkpt lat="41.0476540" lon="0.6520170">
        <ele>51.2</ele>
        <time>2020-08-08T10:59:56Z</time>
      </trkpt>
      <trkpt lat="41.0476380" lon="0.6519360">
        <ele>51.1</ele>
        <time>2020-08-08T10:59:58Z</time>
      </trkpt>
      <trkpt lat="41.0476260" lon="0.6518780">
        <ele>51.0</ele>
        <time>2020-08-08T10:59:59Z</time>
      </trkpt>
      <trkpt lat="41.0476140" lon="0.6518180">
        <ele>50.9</ele>
        <time>2020-08-08T11:00:00Z</time>
      </trkpt>
      <trkpt lat="41.0475940" lon="0.6517210">
        <ele>50.6</ele>
        <time>2020-08-08T11:00:02Z</time>
      </trkpt>
      <trkpt lat="41.0475790" lon="0.6516490">
        <ele>50.5</ele>
        <time>2020-08-08T11:00:04Z</time>
      </trkpt>
      <trkpt lat="41.0475660" lon="0.6515730">
        <ele>50.3</ele>
        <time>2020-08-08T11:00:05Z</time>
      </trkpt>
      <trkpt lat="41.0475500" lon="0.6515100">
        <ele>50.1</ele>
        <time>2020-08-08T11:00:06Z</time>
      </trkpt>
      <trkpt lat="41.0475230" lon="0.6514010">
        <ele>49.8</ele>
        <time>2020-08-08T11:00:08Z</time>
      </trkpt>
      <trkpt lat="41.0475110" lon="0.6513440">
        <ele>49.6</ele>
        <time>2020-08-08T11:00:09Z</time>
      </trkpt>
      <trkpt lat="41.0474810" lon="0.6512140">
        <ele>49.2</ele>
        <time>2020-08-08T11:00:11Z</time>
      </trkpt>
      <trkpt lat="41.0474660" lon="0.6511450">
        <ele>48.9</ele>
        <time>2020-08-08T11:00:12Z</time>
      </trkpt>
      <trkpt lat="41.0474530" lon="0.6510820">
        <ele>48.7</ele>
        <time>2020-08-08T11:00:13Z</time>
      </trkpt>
      <trkpt lat="41.0474210" lon="0.6509520">
        <ele>48.3</ele>
        <time>2020-08-08T11:00:15Z</time>
      </trkpt>
      <trkpt lat="41.0474030" lon="0.6508820">
        <ele>48.1</ele>
        <time>2020-08-08T11:00:16Z</time>
      </trkpt>
      <trkpt lat="41.0473810" lon="0.6507550">
        <ele>47.7</ele>
        <time>2020-08-08T11:00:18Z</time>
      </trkpt>
      <trkpt lat="41.0473680" lon="0.6506870">
        <ele>47.5</ele>
        <time>2020-08-08T11:00:19Z</time>
      </trkpt>
      <trkpt lat="41.0473530" lon="0.6506170">
        <ele>47.3</ele>
        <time>2020-08-08T11:00:20Z</time>
      </trkpt>
      <trkpt lat="41.0473160" lon="0.6504690">
        <ele>46.8</ele>
        <time>2020-08-08T11:00:22Z</time>
      </trkpt>
      <trkpt lat="41.0472710" lon="0.6503040">
        <ele>46.3</ele>
        <time>2020-08-08T11:00:24Z</time>
      </trkpt>
      <trkpt lat="41.0472520" lon="0.6502220">
        <ele>46.0</ele>
        <time>2020-08-08T11:00:25Z</time>
      </trkpt>
      <trkpt lat="41.0472300" lon="0.6501380">
        <ele>45.7</ele>
        <time>2020-08-08T11:00:26Z</time>
      </trkpt>
      <trkpt lat="41.0471930" lon="0.6499680">
        <ele>45.1</ele>
        <time>2020-08-08T11:00:28Z</time>
      </trkpt>
      <trkpt lat="41.0471720" lon="0.6498810">
        <ele>44.8</ele>
        <time>2020-08-08T11:00:29Z</time>
      </trkpt>
      <trkpt lat="41.0471410" lon="0.6497200">
        <ele>44.3</ele>
        <time>2020-08-08T11:00:31Z</time>
      </trkpt>
      <trkpt lat="41.0471270" lon="0.6496420">
        <ele>44.0</ele>
        <time>2020-08-08T11:00:32Z</time>
      </trkpt>
      <trkpt lat="41.0470970" lon="0.6494810">
        <ele>43.8</ele>
        <time>2020-08-08T11:00:34Z</time>
      </trkpt>
      <trkpt lat="41.0470770" lon="0.6494040">
        <ele>43.6</ele>
        <time>2020-08-08T11:00:35Z</time>
      </trkpt>
      <trkpt lat="41.0470380" lon="0.6492300">
        <ele>42.9</ele>
        <time>2020-08-08T11:00:37Z</time>
      </trkpt>
      <trkpt lat="41.0469880" lon="0.6490300">
        <ele>42.2</ele>
        <time>2020-08-08T11:00:39Z</time>
      </trkpt>
      <trkpt lat="41.0469680" lon="0.6489380">
        <ele>41.8</ele>
        <time>2020-08-08T11:00:40Z</time>
      </trkpt>
      <trkpt lat="41.0469510" lon="0.6488450">
        <ele>41.5</ele>
        <time>2020-08-08T11:00:41Z</time>
      </trkpt>
      <trkpt lat="41.0469140" lon="0.6486670">
        <ele>40.8</ele>
        <time>2020-08-08T11:00:43Z</time>
      </trkpt>
      <trkpt lat="41.0468980" lon="0.6485760">
        <ele>40.4</ele>
        <time>2020-08-08T11:00:44Z</time>
      </trkpt>
      <trkpt lat="41.0468810" lon="0.6484850">
        <ele>40.1</ele>
        <time>2020-08-08T11:00:45Z</time>
      </trkpt>
      <trkpt lat="41.0468620" lon="0.6483900">
        <ele>39.8</ele>
        <time>2020-08-08T11:00:46Z</time>
      </trkpt>
      <trkpt lat="41.0468190" lon="0.6482000">
        <ele>39.1</ele>
        <time>2020-08-08T11:00:48Z</time>
      </trkpt>
      <trkpt lat="41.0467930" lon="0.6481120">
        <ele>38.8</ele>
        <time>2020-08-08T11:00:49Z</time>
      </trkpt>
      <trkpt lat="41.0467430" lon="0.6479260">
        <ele>38.1</ele>
        <time>2020-08-08T11:00:51Z</time>
      </trkpt>
      <trkpt lat="41.0467150" lon="0.6478330">
        <ele>37.8</ele>
        <time>2020-08-08T11:00:52Z</time>
      </trkpt>
      <trkpt lat="41.0466900" lon="0.6477420">
        <ele>37.5</ele>
        <time>2020-08-08T11:00:53Z</time>
      </trkpt>
      <trkpt lat="41.0466440" lon="0.6475650">
        <ele>37.0</ele>
        <time>2020-08-08T11:00:55Z</time>
      </trkpt>
      <trkpt lat="41.0466190" lon="0.6474820">
        <ele>36.7</ele>
        <time>2020-08-08T11:00:56Z</time>
      </trkpt>
      <trkpt lat="41.0465740" lon="0.6473370">
        <ele>36.2</ele>
        <time>2020-08-08T11:00:58Z</time>
      </trkpt>
      <trkpt lat="41.0465470" lon="0.6472580">
        <ele>36.0</ele>
        <time>2020-08-08T11:00:59Z</time>
      </trkpt>
      <trkpt lat="41.0464840" lon="0.6470910">
        <ele>35.6</ele>
        <time>2020-08-08T11:01:01Z</time>
      </trkpt>
      <trkpt lat="41.0464550" lon="0.6470100">
        <ele>35.4</ele>
        <time>2020-08-08T11:01:02Z</time>
      </trkpt>
      <trkpt lat="41.0464250" lon="0.6469330">
        <ele>35.2</ele>
        <time>2020-08-08T11:01:03Z</time>
      </trkpt>
      <trkpt lat="41.0463720" lon="0.6467840">
        <ele>34.8</ele>
        <time>2020-08-08T11:01:05Z</time>
      </trkpt>
      <trkpt lat="41.0463160" lon="0.6466350">
        <ele>34.5</ele>
        <time>2020-08-08T11:01:07Z</time>
      </trkpt>
      <trkpt lat="41.0462860" lon="0.6465620">
        <ele>34.3</ele>
        <time>2020-08-08T11:01:08Z</time>
      </trkpt>
      <trkpt lat="41.0462550" lon="0.6464900">
        <ele>34.2</ele>
        <time>2020-08-08T11:01:09Z</time>
      </trkpt>
      <trkpt lat="41.0462280" lon="0.6464200">
        <ele>34.0</ele>
        <time>2020-08-08T11:01:10Z</time>
      </trkpt>
      <trkpt lat="41.0462050" lon="0.6463500">
        <ele>33.9</ele>
        <time>2020-08-08T11:01:11Z</time>
      </trkpt>
      <trkpt lat="41.0461520" lon="0.6462040">
        <ele>33.7</ele>
        <time>2020-08-08T11:01:13Z</time>
      </trkpt>
      <trkpt lat="41.0461230" lon="0.6461350">
        <ele>33.6</ele>
        <time>2020-08-08T11:01:14Z</time>
      </trkpt>
      <trkpt lat="41.0460960" lon="0.6460690">
        <ele>33.6</ele>
        <time>2020-08-08T11:01:15Z</time>
      </trkpt>
      <trkpt lat="41.0460720" lon="0.6460010">
        <ele>33.5</ele>
        <time>2020-08-08T11:01:16Z</time>
      </trkpt>
      <trkpt lat="41.0460170" lon="0.6458570">
        <ele>33.3</ele>
        <time>2020-08-08T11:01:18Z</time>
      </trkpt>
      <trkpt lat="41.0459880" lon="0.6457870">
        <ele>33.2</ele>
        <time>2020-08-08T11:01:19Z</time>
      </trkpt>
      <trkpt lat="41.0459620" lon="0.6457230">
        <ele>33.1</ele>
        <time>2020-08-08T11:01:20Z</time>
      </trkpt>
      <trkpt lat="41.0459370" lon="0.6456570">
        <ele>33.0</ele>
        <time>2020-08-08T11:01:21Z</time>
      </trkpt>
      <trkpt lat="41.0458920" lon="0.6455310">
        <ele>32.7</ele>
        <time>2020-08-08T11:01:23Z</time>
      </trkpt>
      <trkpt lat="41.0458650" lon="0.6454670">
        <ele>32.6</ele>
        <time>2020-08-08T11:01:24Z</time>
      </trkpt>
      <trkpt lat="41.0458380" lon="0.6454040">
        <ele>32.5</ele>
        <time>2020-08-08T11:01:25Z</time>
      </trkpt>
      <trkpt lat="41.0457930" lon="0.6452780">
        <ele>32.3</ele>
        <time>2020-08-08T11:01:27Z</time>
      </trkpt>
      <trkpt lat="41.0457710" lon="0.6452160">
        <ele>32.2</ele>
        <time>2020-08-08T11:01:28Z</time>
      </trkpt>
      <trkpt lat="41.0457210" lon="0.6450880">
        <ele>32.0</ele>
        <time>2020-08-08T11:01:30Z</time>
      </trkpt>
      <trkpt lat="41.0456970" lon="0.6450230">
        <ele>31.9</ele>
        <time>2020-08-08T11:01:31Z</time>
      </trkpt>
      <trkpt lat="41.0456520" lon="0.6448910">
        <ele>31.6</ele>
        <time>2020-08-08T11:01:33Z</time>
      </trkpt>
      <trkpt lat="41.0456260" lon="0.6448240">
        <ele>31.5</ele>
        <time>2020-08-08T11:01:34Z</time>
      </trkpt>
      <trkpt lat="41.0456020" lon="0.6447590">
        <ele>31.5</ele>
        <time>2020-08-08T11:01:35Z</time>
      </trkpt>
      <trkpt lat="41.0455810" lon="0.6446930">
        <ele>31.4</ele>
        <time>2020-08-08T11:01:36Z</time>
      </trkpt>
      <trkpt lat="41.0455650" lon="0.6446310">
        <ele>31.3</ele>
        <time>2020-08-08T11:01:37Z</time>
      </trkpt>
      <trkpt lat="41.0455300" lon="0.6445140">
        <ele>31.2</ele>
        <time>2020-08-08T11:01:39Z</time>
      </trkpt>
      <trkpt lat="41.0454940" lon="0.6443800">
        <ele>31.1</ele>
        <time>2020-08-08T11:01:41Z</time>
      </trkpt>
      <trkpt lat="41.0454730" lon="0.6443090">
        <ele>31.0</ele>
        <time>2020-08-08T11:01:42Z</time>
      </trkpt>
      <trkpt lat="41.0454340" lon="0.6441780">
        <ele>30.8</ele>
        <time>2020-08-08T11:01:44Z</time>
      </trkpt>
      <trkpt lat="41.0454150" lon="0.6441140">
        <ele>30.7</ele>
        <time>2020-08-08T11:01:45Z</time>
      </trkpt>
      <trkpt lat="41.0453800" lon="0.6439810">
        <ele>30.5</ele>
        <time>2020-08-08T11:01:47Z</time>
      </trkpt>
      <trkpt lat="41.0453390" lon="0.6438580">
        <ele>30.4</ele>
        <time>2020-08-08T11:01:49Z</time>
      </trkpt>
      <trkpt lat="41.0453280" lon="0.6437720">
        <ele>30.3</ele>
        <time>2020-08-08T11:01:51Z</time>
      </trkpt>
      <trkpt lat="41.0453200" lon="0.6437280">
        <ele>30.2</ele>
        <time>2020-08-08T11:01:52Z</time>
      </trkpt>
      <trkpt lat="41.0453100" lon="0.6437010">
        <ele>30.2</ele>
        <time>2020-08-08T11:01:53Z</time>
      </trkpt>
      <trkpt lat="41.0453080" lon="0.6437000">
        <ele>30.2</ele>
        <time>2020-08-08T11:01:55Z</time>
      </trkpt>
      <trkpt lat="41.0453100" lon="0.6437060">
        <ele>30.2</ele>
        <time>2020-08-08T11:01:56Z</time>
      </trkpt>
      <trkpt lat="41.0453070" lon="0.6436990">
        <ele>30.2</ele>
        <time>2020-08-08T11:01:58Z</time>
      </trkpt>
      <trkpt lat="41.0453040" lon="0.6436970">
        <ele>30.2</ele>
        <time>2020-08-08T11:01:59Z</time>
      </trkpt>
      <trkpt lat="41.0452990" lon="0.6436980">
        <ele>30.2</ele>
        <time>2020-08-08T11:02:01Z</time>
      </trkpt>
      <trkpt lat="41.0452970" lon="0.6436950">
        <ele>30.2</ele>
        <time>2020-08-08T11:02:02Z</time>
      </trkpt>
      <trkpt lat="41.0452960" lon="0.6436950">
        <ele>30.2</ele>
        <time>2020-08-08T11:02:04Z</time>
      </trkpt>
      <trkpt lat="41.0452930" lon="0.6436920">
        <ele>30.2</ele>
        <time>2020-08-08T11:02:05Z</time>
      </trkpt>
      <trkpt lat="41.0452920" lon="0.6436930">
        <ele>30.2</ele>
        <time>2020-08-08T11:02:06Z</time>
      </trkpt>
      <trkpt lat="41.0452920" lon="0.6436930">
        <ele>30.2</ele>
        <time>2020-08-08T11:02:08Z</time>
      </trkpt>
      <trkpt lat="41.0452950" lon="0.6436940">
        <ele>30.1</ele>
        <time>2020-08-08T11:02:10Z</time>
      </trkpt>
      <trkpt lat="41.0452960" lon="0.6436950">
        <ele>30.1</ele>
        <time>2020-08-08T11:02:12Z</time>
      </trkpt>
      <trkpt lat="41.0452760" lon="0.6436630">
        <ele>30.1</ele>
        <time>2020-08-08T11:02:22Z</time>
      </trkpt>
      <trkpt lat="41.0452610" lon="0.6436390">
        <ele>30.1</ele>
        <time>2020-08-08T11:02:23Z</time>
      </trkpt>
      <trkpt lat="41.0452380" lon="0.6435780">
        <ele>29.9</ele>
        <time>2020-08-08T11:02:25Z</time>
      </trkpt>
      <trkpt lat="41.0452230" lon="0.6435350">
        <ele>29.8</ele>
        <time>2020-08-08T11:02:26Z</time>
      </trkpt>
      <trkpt lat="41.0452070" lon="0.6434890">
        <ele>29.6</ele>
        <time>2020-08-08T11:02:27Z</time>
      </trkpt>
      <trkpt lat="41.0451890" lon="0.6434340">
        <ele>29.4</ele>
        <time>2020-08-08T11:02:28Z</time>
      </trkpt>
      <trkpt lat="41.0451580" lon="0.6433290">
        <ele>29.0</ele>
        <time>2020-08-08T11:02:30Z</time>
      </trkpt>
      <trkpt lat="41.0451440" lon="0.6432830">
        <ele>28.9</ele>
        <time>2020-08-08T11:02:31Z</time>
      </trkpt>
      <trkpt lat="41.0451260" lon="0.6432270">
        <ele>28.8</ele>
        <time>2020-08-08T11:02:32Z</time>
      </trkpt>
      <trkpt lat="41.0450820" lon="0.6430950">
        <ele>28.5</ele>
        <time>2020-08-08T11:02:34Z</time>
      </trkpt>
      <trkpt lat="41.0450600" lon="0.6430330">
        <ele>28.3</ele>
        <time>2020-08-08T11:02:35Z</time>
      </trkpt>
      <trkpt lat="41.0450180" lon="0.6429110">
        <ele>28.1</ele>
        <time>2020-08-08T11:02:37Z</time>
      </trkpt>
      <trkpt lat="41.0449990" lon="0.6428500">
        <ele>27.9</ele>
        <time>2020-08-08T11:02:38Z</time>
      </trkpt>
      <trkpt lat="41.0449790" lon="0.6427880">
        <ele>27.8</ele>
        <time>2020-08-08T11:02:39Z</time>
      </trkpt>
      <trkpt lat="41.0449490" lon="0.6426810">
        <ele>27.6</ele>
        <time>2020-08-08T11:02:41Z</time>
      </trkpt>
      <trkpt lat="41.0449220" lon="0.6426140">
        <ele>27.6</ele>
        <time>2020-08-08T11:02:42Z</time>
      </trkpt>
      <trkpt lat="41.0448840" lon="0.6424990">
        <ele>27.4</ele>
        <time>2020-08-08T11:02:44Z</time>
      </trkpt>
      <trkpt lat="41.0448630" lon="0.6424370">
        <ele>27.4</ele>
        <time>2020-08-08T11:02:45Z</time>
      </trkpt>
      <trkpt lat="41.0448360" lon="0.6423730">
        <ele>27.3</ele>
        <time>2020-08-08T11:02:46Z</time>
      </trkpt>
      <trkpt lat="41.0447730" lon="0.6422500">
        <ele>27.1</ele>
        <time>2020-08-08T11:02:48Z</time>
      </trkpt>
      <trkpt lat="41.0447420" lon="0.6421820">
        <ele>27.1</ele>
        <time>2020-08-08T11:02:49Z</time>
      </trkpt>
      <trkpt lat="41.0447130" lon="0.6421220">
        <ele>27.0</ele>
        <time>2020-08-08T11:02:50Z</time>
      </trkpt>
      <trkpt lat="41.0446880" lon="0.6420570">
        <ele>26.9</ele>
        <time>2020-08-08T11:02:51Z</time>
      </trkpt>
      <trkpt lat="41.0446630" lon="0.6419900">
        <ele>26.9</ele>
        <time>2020-08-08T11:02:52Z</time>
      </trkpt>
      <trkpt lat="41.0446160" lon="0.6418610">
        <ele>26.8</ele>
        <time>2020-08-08T11:02:54Z</time>
      </trkpt>
      <trkpt lat="41.0445940" lon="0.6417980">
        <ele>26.8</ele>
        <time>2020-08-08T11:02:55Z</time>
      </trkpt>
      <trkpt lat="41.0445760" lon="0.6417410">
        <ele>26.8</ele>
        <time>2020-08-08T11:02:56Z</time>
      </trkpt>
      <trkpt lat="41.0445560" lon="0.6416840">
        <ele>26.8</ele>
        <time>2020-08-08T11:02:57Z</time>
      </trkpt>
      <trkpt lat="41.0445060" lon="0.6415640">
        <ele>26.9</ele>
        <time>2020-08-08T11:02:59Z</time>
      </trkpt>
      <trkpt lat="41.0444780" lon="0.6414990">
        <ele>26.9</ele>
        <time>2020-08-08T11:03:00Z</time>
      </trkpt>
      <trkpt lat="41.0444550" lon="0.6414320">
        <ele>27.0</ele>
        <time>2020-08-08T11:03:01Z</time>
      </trkpt>
      <trkpt lat="41.0444070" lon="0.6413000">
        <ele>27.2</ele>
        <time>2020-08-08T11:03:03Z</time>
      </trkpt>
      <trkpt lat="41.0443830" lon="0.6412300">
        <ele>27.3</ele>
        <time>2020-08-08T11:03:04Z</time>
      </trkpt>
      <trkpt lat="41.0443650" lon="0.6411600">
        <ele>27.5</ele>
        <time>2020-08-08T11:03:05Z</time>
      </trkpt>
      <trkpt lat="41.0443340" lon="0.6410210">
        <ele>27.6</ele>
        <time>2020-08-08T11:03:07Z</time>
      </trkpt>
      <trkpt lat="41.0442870" lon="0.6408690">
        <ele>27.2</ele>
        <time>2020-08-08T11:03:09Z</time>
      </trkpt>
      <trkpt lat="41.0442540" lon="0.6407870">
        <ele>27.0</ele>
        <time>2020-08-08T11:03:10Z</time>
      </trkpt>
      <trkpt lat="41.0442180" lon="0.6407020">
        <ele>26.7</ele>
        <time>2020-08-08T11:03:11Z</time>
      </trkpt>
      <trkpt lat="41.0441890" lon="0.6406190">
        <ele>26.4</ele>
        <time>2020-08-08T11:03:12Z</time>
      </trkpt>
      <trkpt lat="41.0441360" lon="0.6404690">
        <ele>26.0</ele>
        <time>2020-08-08T11:03:14Z</time>
      </trkpt>
      <trkpt lat="41.0440800" lon="0.6403270">
        <ele>25.9</ele>
        <time>2020-08-08T11:03:16Z</time>
      </trkpt>
      <trkpt lat="41.0440460" lon="0.6402560">
        <ele>25.8</ele>
        <time>2020-08-08T11:03:17Z</time>
      </trkpt>
      <trkpt lat="41.0440190" lon="0.6401870">
        <ele>25.8</ele>
        <time>2020-08-08T11:03:18Z</time>
      </trkpt>
      <trkpt lat="41.0439820" lon="0.6400370">
        <ele>25.6</ele>
        <time>2020-08-08T11:03:20Z</time>
      </trkpt>
      <trkpt lat="41.0439640" lon="0.6399660">
        <ele>25.6</ele>
        <time>2020-08-08T11:03:21Z</time>
      </trkpt>
      <trkpt lat="41.0439230" lon="0.6398310">
        <ele>25.5</ele>
        <time>2020-08-08T11:03:23Z</time>
      </trkpt>
      <trkpt lat="41.0438970" lon="0.6397600">
        <ele>25.4</ele>
        <time>2020-08-08T11:03:24Z</time>
      </trkpt>
      <trkpt lat="41.0438500" lon="0.6396180">
        <ele>25.3</ele>
        <time>2020-08-08T11:03:26Z</time>
      </trkpt>
      <trkpt lat="41.0438230" lon="0.6395520">
        <ele>25.3</ele>
        <time>2020-08-08T11:03:27Z</time>
      </trkpt>
      <trkpt lat="41.0437740" lon="0.6394240">
        <ele>25.2</ele>
        <time>2020-08-08T11:03:29Z</time>
      </trkpt>
      <trkpt lat="41.0437520" lon="0.6393600">
        <ele>25.2</ele>
        <time>2020-08-08T11:03:30Z</time>
      </trkpt>
      <trkpt lat="41.0437290" lon="0.6393030">
        <ele>25.2</ele>
        <time>2020-08-08T11:03:31Z</time>
      </trkpt>
      <trkpt lat="41.0437000" lon="0.6392370">
        <ele>25.2</ele>
        <time>2020-08-08T11:03:32Z</time>
      </trkpt>
      <trkpt lat="41.0436620" lon="0.6391110">
        <ele>25.2</ele>
        <time>2020-08-08T11:03:34Z</time>
      </trkpt>
      <trkpt lat="41.0436260" lon="0.6389900">
        <ele>25.2</ele>
        <time>2020-08-08T11:03:36Z</time>
      </trkpt>
      <trkpt lat="41.0436050" lon="0.6389320">
        <ele>25.2</ele>
        <time>2020-08-08T11:03:37Z</time>
      </trkpt>
      <trkpt lat="41.0435780" lon="0.6388690">
        <ele>25.2</ele>
        <time>2020-08-08T11:03:38Z</time>
      </trkpt>
      <trkpt lat="41.0435470" lon="0.6388120">
        <ele>25.3</ele>
        <time>2020-08-08T11:03:39Z</time>
      </trkpt>
      <trkpt lat="41.0434980" lon="0.6387070">
        <ele>25.3</ele>
        <time>2020-08-08T11:03:41Z</time>
      </trkpt>
      <trkpt lat="41.0434890" lon="0.6386780">
        <ele>25.3</ele>
        <time>2020-08-08T11:03:42Z</time>
      </trkpt>
      <trkpt lat="41.0434590" lon="0.6385900">
        <ele>25.4</ele>
        <time>2020-08-08T11:03:44Z</time>
      </trkpt>
      <trkpt lat="41.0434410" lon="0.6385380">
        <ele>25.4</ele>
        <time>2020-08-08T11:03:45Z</time>
      </trkpt>
      <trkpt lat="41.0434270" lon="0.6384930">
        <ele>25.4</ele>
        <time>2020-08-08T11:03:46Z</time>
      </trkpt>
      <trkpt lat="41.0434030" lon="0.6384360">
        <ele>25.5</ele>
        <time>2020-08-08T11:03:47Z</time>
      </trkpt>
      <trkpt lat="41.0433620" lon="0.6383410">
        <ele>25.5</ele>
        <time>2020-08-08T11:03:49Z</time>
      </trkpt>
      <trkpt lat="41.0433450" lon="0.6383010">
        <ele>25.5</ele>
        <time>2020-08-08T11:03:50Z</time>
      </trkpt>
      <trkpt lat="41.0433270" lon="0.6382530">
        <ele>25.5</ele>
        <time>2020-08-08T11:03:51Z</time>
      </trkpt>
      <trkpt lat="41.0432910" lon="0.6381600">
        <ele>25.6</ele>
        <time>2020-08-08T11:03:53Z</time>
      </trkpt>
      <trkpt lat="41.0432480" lon="0.6380750">
        <ele>25.6</ele>
        <time>2020-08-08T11:03:55Z</time>
      </trkpt>
      <trkpt lat="41.0432210" lon="0.6380250">
        <ele>25.7</ele>
        <time>2020-08-08T11:03:56Z</time>
      </trkpt>
      <trkpt lat="41.0431780" lon="0.6379350">
        <ele>25.7</ele>
        <time>2020-08-08T11:03:58Z</time>
      </trkpt>
      <trkpt lat="41.0431330" lon="0.6378380">
        <ele>25.8</ele>
        <time>2020-08-08T11:04:00Z</time>
      </trkpt>
      <trkpt lat="41.0430910" lon="0.6377430">
        <ele>25.9</ele>
        <time>2020-08-08T11:04:02Z</time>
      </trkpt>
      <trkpt lat="41.0430680" lon="0.6376930">
        <ele>25.9</ele>
        <time>2020-08-08T11:04:03Z</time>
      </trkpt>
      <trkpt lat="41.0430190" lon="0.6375960">
        <ele>25.9</ele>
        <time>2020-08-08T11:04:05Z</time>
      </trkpt>
      <trkpt lat="41.0429740" lon="0.6374990">
        <ele>25.8</ele>
        <time>2020-08-08T11:04:07Z</time>
      </trkpt>
      <trkpt lat="41.0429540" lon="0.6374430">
        <ele>25.8</ele>
        <time>2020-08-08T11:04:08Z</time>
      </trkpt>
      <trkpt lat="41.0429210" lon="0.6373430">
        <ele>25.8</ele>
        <time>2020-08-08T11:04:10Z</time>
      </trkpt>
      <trkpt lat="41.0429080" lon="0.6373060">
        <ele>25.8</ele>
        <time>2020-08-08T11:04:11Z</time>
      </trkpt>
      <trkpt lat="41.0428930" lon="0.6372640">
        <ele>25.8</ele>
        <time>2020-08-08T11:04:12Z</time>
      </trkpt>
      <trkpt lat="41.0428890" lon="0.6372520">
        <ele>25.7</ele>
        <time>2020-08-08T11:04:13Z</time>
      </trkpt>
      <trkpt lat="41.0428770" lon="0.6371840">
        <ele>25.7</ele>
        <time>2020-08-08T11:04:15Z</time>
      </trkpt>
      <trkpt lat="41.0428720" lon="0.6371570">
        <ele>25.7</ele>
        <time>2020-08-08T11:04:18Z</time>
      </trkpt>
      <trkpt lat="41.0428660" lon="0.6371290">
        <ele>25.6</ele>
        <time>2020-08-08T11:04:19Z</time>
      </trkpt>
      <trkpt lat="41.0428610" lon="0.6371020">
        <ele>25.6</ele>
        <time>2020-08-08T11:04:21Z</time>
      </trkpt>
      <trkpt lat="41.0428560" lon="0.6370750">
        <ele>25.6</ele>
        <time>2020-08-08T11:04:22Z</time>
      </trkpt>
      <trkpt lat="41.0428390" lon="0.6370140">
        <ele>25.5</ele>
        <time>2020-08-08T11:04:24Z</time>
      </trkpt>
      <trkpt lat="41.0428090" lon="0.6369430">
        <ele>25.5</ele>
        <time>2020-08-08T11:04:26Z</time>
      </trkpt>
      <trkpt lat="41.0427770" lon="0.6368740">
        <ele>25.4</ele>
        <time>2020-08-08T11:04:28Z</time>
      </trkpt>
      <trkpt lat="41.0427650" lon="0.6368450">
        <ele>25.4</ele>
        <time>2020-08-08T11:04:29Z</time>
      </trkpt>
      <trkpt lat="41.0427430" lon="0.6367880">
        <ele>25.3</ele>
        <time>2020-08-08T11:04:31Z</time>
      </trkpt>
      <trkpt lat="41.0427280" lon="0.6367520">
        <ele>25.3</ele>
        <time>2020-08-08T11:04:32Z</time>
      </trkpt>
      <trkpt lat="41.0426790" lon="0.6366100">
        <ele>25.2</ele>
        <time>2020-08-08T11:04:36Z</time>
      </trkpt>
      <trkpt lat="41.0426630" lon="0.6365710">
        <ele>25.2</ele>
        <time>2020-08-08T11:04:37Z</time>
      </trkpt>
      <trkpt lat="41.0426300" lon="0.6365100">
        <ele>25.1</ele>
        <time>2020-08-08T11:04:39Z</time>
      </trkpt>
      <trkpt lat="41.0426110" lon="0.6364740">
        <ele>25.1</ele>
        <time>2020-08-08T11:04:40Z</time>
      </trkpt>
      <trkpt lat="41.0426050" lon="0.6364650">
        <ele>25.1</ele>
        <time>2020-08-08T11:04:41Z</time>
      </trkpt>
      <trkpt lat="41.0425940" lon="0.6364550">
        <ele>25.1</ele>
        <time>2020-08-08T11:04:43Z</time>
      </trkpt>
      <trkpt lat="41.0425870" lon="0.6364600">
        <ele>25.1</ele>
        <time>2020-08-08T11:04:46Z</time>
      </trkpt>
      <trkpt lat="41.0425820" lon="0.6364640">
        <ele>25.1</ele>
        <time>2020-08-08T11:04:48Z</time>
      </trkpt>
      <trkpt lat="41.0425800" lon="0.6364600">
        <ele>25.1</ele>
        <time>2020-08-08T11:04:49Z</time>
      </trkpt>
      <trkpt lat="41.0425770" lon="0.6364550">
        <ele>25.1</ele>
        <time>2020-08-08T11:04:51Z</time>
      </trkpt>
      <trkpt lat="41.0425740" lon="0.6364480">
        <ele>25.1</ele>
        <time>2020-08-08T11:04:52Z</time>
      </trkpt>
      <trkpt lat="41.0425730" lon="0.6364450">
        <ele>25.1</ele>
        <time>2020-08-08T11:04:53Z</time>
      </trkpt>
      <trkpt lat="41.0425740" lon="0.6364430">
        <ele>25.1</ele>
        <time>2020-08-08T11:04:56Z</time>
      </trkpt>
      <trkpt lat="41.0425740" lon="0.6364430">
        <ele>25.1</ele>
        <time>2020-08-08T11:04:57Z</time>
      </trkpt>
      <trkpt lat="41.0425730" lon="0.6364420">
        <ele>25.1</ele>
        <time>2020-08-08T11:04:58Z</time>
      </trkpt>
      <trkpt lat="41.0425730" lon="0.6364420">
        <ele>25.1</ele>
        <time>2020-08-08T11:05:00Z</time>
      </trkpt>
      <trkpt lat="41.0425590" lon="0.6364260">
        <ele>25.1</ele>
        <time>2020-08-08T11:05:01Z</time>
      </trkpt>
      <trkpt lat="41.0425590" lon="0.6364260">
        <ele>25.1</ele>
        <time>2020-08-08T11:05:01Z</time>
      </trkpt>
      <trkpt lat="41.0425300" lon="0.6363760">
        <ele>25.1</ele>
        <time>2020-08-08T11:05:03Z</time>
      </trkpt>
      <trkpt lat="41.0425180" lon="0.6363480">
        <ele>25.0</ele>
        <time>2020-08-08T11:05:04Z</time>
      </trkpt>
      <trkpt lat="41.0424950" lon="0.6362910">
        <ele>25.0</ele>
        <time>2020-08-08T11:05:06Z</time>
      </trkpt>
      <trkpt lat="41.0424860" lon="0.6362630">
        <ele>25.0</ele>
        <time>2020-08-08T11:05:07Z</time>
      </trkpt>
      <trkpt lat="41.0424750" lon="0.6362180">
        <ele>25.0</ele>
        <time>2020-08-08T11:05:09Z</time>
      </trkpt>
      <trkpt lat="41.0424660" lon="0.6361940">
        <ele>24.9</ele>
        <time>2020-08-08T11:05:10Z</time>
      </trkpt>
      <trkpt lat="41.0424540" lon="0.6361620">
        <ele>24.9</ele>
        <time>2020-08-08T11:05:12Z</time>
      </trkpt>
      <trkpt lat="41.0424420" lon="0.6361400">
        <ele>24.9</ele>
        <time>2020-08-08T11:05:13Z</time>
      </trkpt>
      <trkpt lat="41.0424360" lon="0.6361290">
        <ele>24.9</ele>
        <time>2020-08-08T11:05:14Z</time>
      </trkpt>
      <trkpt lat="41.0424290" lon="0.6361170">
        <ele>24.9</ele>
        <time>2020-08-08T11:05:15Z</time>
      </trkpt>
      <trkpt lat="41.0424230" lon="0.6360940">
        <ele>24.9</ele>
        <time>2020-08-08T11:05:16Z</time>
      </trkpt>
      <trkpt lat="41.0424070" lon="0.6360380">
        <ele>24.8</ele>
        <time>2020-08-08T11:05:18Z</time>
      </trkpt>
      <trkpt lat="41.0423890" lon="0.6359900">
        <ele>24.8</ele>
        <time>2020-08-08T11:05:21Z</time>
      </trkpt>
      <trkpt lat="41.0423790" lon="0.6359670">
        <ele>24.8</ele>
        <time>2020-08-08T11:05:22Z</time>
      </trkpt>
      <trkpt lat="41.0423700" lon="0.6359440">
        <ele>24.8</ele>
        <time>2020-08-08T11:05:23Z</time>
      </trkpt>
      <trkpt lat="41.0423620" lon="0.6358800">
        <ele>24.7</ele>
        <time>2020-08-08T11:05:24Z</time>
      </trkpt>
      <trkpt lat="41.0423570" lon="0.6358490">
        <ele>24.7</ele>
        <time>2020-08-08T11:05:25Z</time>
      </trkpt>
      <trkpt lat="41.0423440" lon="0.6357070">
        <ele>24.7</ele>
        <time>2020-08-08T11:05:28Z</time>
      </trkpt>
      <trkpt lat="41.0423390" lon="0.6356240">
        <ele>24.7</ele>
        <time>2020-08-08T11:05:45Z</time>
      </trkpt>
      <trkpt lat="41.0423350" lon="0.6355420">
        <ele>24.7</ele>
        <time>2020-08-08T11:05:45Z</time>
      </trkpt>
      <trkpt lat="41.0423610" lon="0.6353840">
        <ele>24.8</ele>
        <time>2020-08-08T11:05:46Z</time>
      </trkpt>
      <trkpt lat="41.0423830" lon="0.6351910">
        <ele>25.0</ele>
        <time>2020-08-08T11:05:49Z</time>
      </trkpt>
      <trkpt lat="41.0423820" lon="0.6351280">
        <ele>25.1</ele>
        <time>2020-08-08T11:05:50Z</time>
      </trkpt>
      <trkpt lat="41.0423690" lon="0.6350230">
        <ele>25.2</ele>
        <time>2020-08-08T11:05:52Z</time>
      </trkpt>
      <trkpt lat="41.0423550" lon="0.6349840">
        <ele>25.4</ele>
        <time>2020-08-08T11:05:53Z</time>
      </trkpt>
      <trkpt lat="41.0423390" lon="0.6349610">
        <ele>25.5</ele>
        <time>2020-08-08T11:05:54Z</time>
      </trkpt>
      <trkpt lat="41.0423240" lon="0.6349460">
        <ele>25.5</ele>
        <time>2020-08-08T11:05:56Z</time>
      </trkpt>
      <trkpt lat="41.0423210" lon="0.6349470">
        <ele>25.5</ele>
        <time>2020-08-08T11:05:57Z</time>
      </trkpt>
      <trkpt lat="41.0423120" lon="0.6349500">
        <ele>25.5</ele>
        <time>2020-08-08T11:05:59Z</time>
      </trkpt>
      <trkpt lat="41.0423040" lon="0.6349460">
        <ele>25.5</ele>
        <time>2020-08-08T11:06:01Z</time>
      </trkpt>
      <trkpt lat="41.0422930" lon="0.6349320">
        <ele>25.5</ele>
        <time>2020-08-08T11:06:02Z</time>
      </trkpt>
      <trkpt lat="41.0422890" lon="0.6349240">
        <ele>25.5</ele>
        <time>2020-08-08T11:06:03Z</time>
      </trkpt>
      <trkpt lat="41.0422860" lon="0.6349190">
        <ele>25.5</ele>
        <time>2020-08-08T11:06:04Z</time>
      </trkpt>
      <trkpt lat="41.0422850" lon="0.6349170">
        <ele>25.5</ele>
        <time>2020-08-08T11:06:06Z</time>
      </trkpt>
      <trkpt lat="41.0422840" lon="0.6349170">
        <ele>25.5</ele>
        <time>2020-08-08T11:06:07Z</time>
      </trkpt>
      <trkpt lat="41.0422850" lon="0.6349160">
        <ele>25.5</ele>
        <time>2020-08-08T11:06:09Z</time>
      </trkpt>
      <trkpt lat="41.0422860" lon="0.6349160">
        <ele>25.5</ele>
        <time>2020-08-08T11:06:10Z</time>
      </trkpt>
      <trkpt lat="41.0422860" lon="0.6349150">
        <ele>25.5</ele>
        <time>2020-08-08T11:06:11Z</time>
      </trkpt>
      <trkpt lat="41.0422870" lon="0.6349140">
        <ele>25.5</ele>
        <time>2020-08-08T11:06:13Z</time>
      </trkpt>
      <trkpt lat="41.0422870" lon="0.6349080">
        <ele>25.5</ele>
        <time>2020-08-08T11:06:15Z</time>
      </trkpt>
      <trkpt lat="41.0422850" lon="0.6348780">
        <ele>25.6</ele>
        <time>2020-08-08T11:06:17Z</time>
      </trkpt>
      <trkpt lat="41.0422620" lon="0.6348370">
        <ele>25.6</ele>
        <time>2020-08-08T11:06:19Z</time>
      </trkpt>
      <trkpt lat="41.0422490" lon="0.6348300">
        <ele>25.7</ele>
        <time>2020-08-08T11:06:20Z</time>
      </trkpt>
      <trkpt lat="41.0422370" lon="0.6348230">
        <ele>25.7</ele>
        <time>2020-08-08T11:06:21Z</time>
      </trkpt>
      <trkpt lat="41.0422030" lon="0.6348410">
        <ele>26.2</ele>
        <time>2020-08-08T11:06:22Z</time>
      </trkpt>
      <trkpt lat="41.0421920" lon="0.6348470">
        <ele>26.2</ele>
        <time>2020-08-08T11:06:23Z</time>
      </trkpt>
      <trkpt lat="41.0421600" lon="0.6348730">
        <ele>26.2</ele>
        <time>2020-08-08T11:06:25Z</time>
      </trkpt>
      <trkpt lat="41.0421550" lon="0.6348820">
        <ele>26.2</ele>
        <time>2020-08-08T11:06:26Z</time>
      </trkpt>
      <trkpt lat="41.0421520" lon="0.6348960">
        <ele>26.2</ele>
        <time>2020-08-08T11:06:28Z</time>
      </trkpt>
      <trkpt lat="41.0421530" lon="0.6349200">
        <ele>26.2</ele>
        <time>2020-08-08T11:06:30Z</time>
      </trkpt>
      <trkpt lat="41.0421540" lon="0.6349340">
        <ele>26.2</ele>
        <time>2020-08-08T11:06:33Z</time>
      </trkpt>
      <trkpt lat="41.0421540" lon="0.6349410">
        <ele>26.2</ele>
        <time>2020-08-08T11:06:34Z</time>
      </trkpt>
      <trkpt lat="41.0421550" lon="0.6349470">
        <ele>26.1</ele>
        <time>2020-08-08T11:06:35Z</time>
      </trkpt>
      <trkpt lat="41.0421550" lon="0.6349530">
        <ele>26.1</ele>
        <time>2020-08-08T11:06:36Z</time>
      </trkpt>
      <trkpt lat="41.0421560" lon="0.6349590">
        <ele>26.1</ele>
        <time>2020-08-08T11:06:37Z</time>
      </trkpt>
      <trkpt lat="41.0421570" lon="0.6349660">
        <ele>26.1</ele>
        <time>2020-08-08T11:06:39Z</time>
      </trkpt>
      <trkpt lat="41.0421570" lon="0.6349720">
        <ele>26.1</ele>
        <time>2020-08-08T11:06:40Z</time>
      </trkpt>
      <trkpt lat="41.0421580" lon="0.6349780">
        <ele>26.1</ele>
        <time>2020-08-08T11:06:41Z</time>
      </trkpt>
      <trkpt lat="41.0421580" lon="0.6349850">
        <ele>26.1</ele>
        <time>2020-08-08T11:06:42Z</time>
      </trkpt>
      <trkpt lat="41.0421590" lon="0.6349910">
        <ele>26.1</ele>
        <time>2020-08-08T11:06:43Z</time>
      </trkpt>
      <trkpt lat="41.0421780" lon="0.6349940">
        <ele>26.1</ele>
        <time>2020-08-08T11:06:44Z</time>
      </trkpt>
      <trkpt lat="41.0422130" lon="0.6349920">
        <ele>26.1</ele>
        <time>2020-08-08T11:06:46Z</time>
      </trkpt>
      <trkpt lat="41.0422300" lon="0.6349900">
        <ele>26.1</ele>
        <time>2020-08-08T11:06:47Z</time>
      </trkpt>
      <trkpt lat="41.0422710" lon="0.6349830">
        <ele>25.7</ele>
        <time>2020-08-08T11:06:49Z</time>
      </trkpt>
      <trkpt lat="41.0422960" lon="0.6349480">
        <ele>25.6</ele>
        <time>2020-08-08T11:06:51Z</time>
      </trkpt>
      <trkpt lat="41.0423190" lon="0.6348790">
        <ele>25.5</ele>
        <time>2020-08-08T11:06:53Z</time>
      </trkpt>
      <trkpt lat="41.0423160" lon="0.6348190">
        <ele>25.3</ele>
        <time>2020-08-08T11:06:55Z</time>
      </trkpt>
      <trkpt lat="41.0423060" lon="0.6347740">
        <ele>25.2</ele>
        <time>2020-08-08T11:06:56Z</time>
      </trkpt>
      <trkpt lat="41.0423020" lon="0.6347590">
        <ele>25.2</ele>
        <time>2020-08-08T11:06:57Z</time>
      </trkpt>
      <trkpt lat="41.0422970" lon="0.6347290">
        <ele>25.1</ele>
        <time>2020-08-08T11:06:58Z</time>
      </trkpt>
      <trkpt lat="41.0422930" lon="0.6346800">
        <ele>25.0</ele>
        <time>2020-08-08T11:07:00Z</time>
      </trkpt>
      <trkpt lat="41.0422890" lon="0.6346560">
        <ele>24.9</ele>
        <time>2020-08-08T11:07:01Z</time>
      </trkpt>
      <trkpt lat="41.0422840" lon="0.6346150">
        <ele>24.9</ele>
        <time>2020-08-08T11:07:03Z</time>
      </trkpt>
      <trkpt lat="41.0422860" lon="0.6345930">
        <ele>24.8</ele>
        <time>2020-08-08T11:07:04Z</time>
      </trkpt>
      <trkpt lat="41.0422990" lon="0.6345500">
        <ele>24.7</ele>
        <time>2020-08-08T11:07:06Z</time>
      </trkpt>
      <trkpt lat="41.0423030" lon="0.6345280">
        <ele>24.6</ele>
        <time>2020-08-08T11:07:07Z</time>
      </trkpt>
      <trkpt lat="41.0423060" lon="0.6345030">
        <ele>24.6</ele>
        <time>2020-08-08T11:07:08Z</time>
      </trkpt>
      <trkpt lat="41.0422980" lon="0.6344310">
        <ele>24.6</ele>
        <time>2020-08-08T11:07:11Z</time>
      </trkpt>
      <trkpt lat="41.0422910" lon="0.6344070">
        <ele>24.6</ele>
        <time>2020-08-08T11:07:12Z</time>
      </trkpt>
      <trkpt lat="41.0422830" lon="0.6343870">
        <ele>24.6</ele>
        <time>2020-08-08T11:07:14Z</time>
      </trkpt>
      <trkpt lat="41.0422840" lon="0.6343850">
        <ele>24.6</ele>
        <time>2020-08-08T11:07:16Z</time>
      </trkpt>
      <trkpt lat="41.0422870" lon="0.6343860">
        <ele>24.6</ele>
        <time>2020-08-08T11:07:17Z</time>
      </trkpt>
      <trkpt lat="41.0422800" lon="0.6343850">
        <ele>24.7</ele>
        <time>2020-08-08T11:07:20Z</time>
      </trkpt>
      <trkpt lat="41.0422750" lon="0.6343850">
        <ele>24.7</ele>
        <time>2020-08-08T11:07:21Z</time>
      </trkpt>
      <trkpt lat="41.0422790" lon="0.6343880">
        <ele>24.7</ele>
        <time>2020-08-08T11:07:24Z</time>
      </trkpt>
      <trkpt lat="41.0422860" lon="0.6343880">
        <ele>24.7</ele>
        <time>2020-08-08T11:07:25Z</time>
      </trkpt>
      <trkpt lat="41.0422850" lon="0.6343850">
        <ele>24.7</ele>
        <time>2020-08-08T11:07:26Z</time>
      </trkpt>
      <trkpt lat="41.0422840" lon="0.6343820">
        <ele>24.7</ele>
        <time>2020-08-08T11:07:27Z</time>
      </trkpt>
      <trkpt lat="41.0422850" lon="0.6343790">
        <ele>24.7</ele>
        <time>2020-08-08T11:07:28Z</time>
      </trkpt>
      <trkpt lat="41.0422840" lon="0.6343770">
        <ele>24.7</ele>
        <time>2020-08-08T11:07:29Z</time>
      </trkpt>
      <trkpt lat="41.0422840" lon="0.6343740">
        <ele>24.7</ele>
        <time>2020-08-08T11:07:30Z</time>
      </trkpt>
      <trkpt lat="41.0422900" lon="0.6343710">
        <ele>24.7</ele>
        <time>2020-08-08T11:07:32Z</time>
      </trkpt>
      <trkpt lat="41.0422580" lon="0.6343460">
        <ele>24.7</ele>
        <time>2020-08-08T11:08:19Z</time>
      </trkpt>
      <trkpt lat="41.0422430" lon="0.6343220">
        <ele>24.7</ele>
        <time>2020-08-08T11:08:21Z</time>
      </trkpt>
      <trkpt lat="41.0422390" lon="0.6343060">
        <ele>24.7</ele>
        <time>2020-08-08T11:08:22Z</time>
      </trkpt>
      <trkpt lat="41.0422370" lon="0.6342660">
        <ele>24.7</ele>
        <time>2020-08-08T11:08:24Z</time>
      </trkpt>
      <trkpt lat="41.0422370" lon="0.6342570">
        <ele>24.7</ele>
        <time>2020-08-08T11:08:25Z</time>
      </trkpt>
      <trkpt lat="41.0422410" lon="0.6342440">
        <ele>24.7</ele>
        <time>2020-08-08T11:08:26Z</time>
      </trkpt>
      <trkpt lat="41.0422570" lon="0.6342230">
        <ele>24.7</ele>
        <time>2020-08-08T11:08:28Z</time>
      </trkpt>
      <trkpt lat="41.0422780" lon="0.6342100">
        <ele>24.7</ele>
        <time>2020-08-08T11:08:29Z</time>
      </trkpt>
      <trkpt lat="41.0422880" lon="0.6342010">
        <ele>24.7</ele>
        <time>2020-08-08T11:08:30Z</time>
      </trkpt>
      <trkpt lat="41.0422990" lon="0.6341920">
        <ele>24.7</ele>
        <time>2020-08-08T11:08:32Z</time>
      </trkpt>
      <trkpt lat="41.0423170" lon="0.6341750">
        <ele>24.8</ele>
        <time>2020-08-08T11:08:34Z</time>
      </trkpt>
      <trkpt lat="41.0423180" lon="0.6341710">
        <ele>24.8</ele>
        <time>2020-08-08T11:08:35Z</time>
      </trkpt>
      <trkpt lat="41.0423100" lon="0.6341720">
        <ele>24.8</ele>
        <time>2020-08-08T11:08:37Z</time>
      </trkpt>
      <trkpt lat="41.0422990" lon="0.6341720">
        <ele>24.8</ele>
        <time>2020-08-08T11:08:42Z</time>
      </trkpt>
      <trkpt lat="41.0422940" lon="0.6341710">
        <ele>24.8</ele>
        <time>2020-08-08T11:08:44Z</time>
      </trkpt>
      <trkpt lat="41.0422950" lon="0.6341720">
        <ele>24.8</ele>
        <time>2020-08-08T11:08:45Z</time>
      </trkpt>
      <trkpt lat="41.0422950" lon="0.6341730">
        <ele>24.8</ele>
        <time>2020-08-08T11:08:46Z</time>
      </trkpt>
      <trkpt lat="41.0422890" lon="0.6341750">
        <ele>24.8</ele>
        <time>2020-08-08T11:08:47Z</time>
      </trkpt>
      <trkpt lat="41.0422770" lon="0.6341740">
        <ele>24.8</ele>
        <time>2020-08-08T11:08:49Z</time>
      </trkpt>
      <trkpt lat="41.0422910" lon="0.6341650">
        <ele>24.8</ele>
        <time>2020-08-08T11:08:58Z</time>
      </trkpt>
      <trkpt lat="41.0422900" lon="0.6341630">
        <ele>24.8</ele>
        <time>2020-08-08T11:08:59Z</time>
      </trkpt>
      <trkpt lat="41.0422900" lon="0.6341600">
        <ele>24.8</ele>
        <time>2020-08-08T11:09:00Z</time>
      </trkpt>
      <trkpt lat="41.0422820" lon="0.6341450">
        <ele>24.8</ele>
        <time>2020-08-08T11:09:02Z</time>
      </trkpt>
      <trkpt lat="41.0422800" lon="0.6341340">
        <ele>24.8</ele>
        <time>2020-08-08T11:09:03Z</time>
      </trkpt>
      <trkpt lat="41.0422790" lon="0.6341210">
        <ele>24.9</ele>
        <time>2020-08-08T11:09:05Z</time>
      </trkpt>
      <trkpt lat="41.0422830" lon="0.6341220">
        <ele>24.9</ele>
        <time>2020-08-08T11:09:08Z</time>
      </trkpt>
      <trkpt lat="41.0422790" lon="0.6341220">
        <ele>24.9</ele>
        <time>2020-08-08T11:09:09Z</time>
      </trkpt>
      <trkpt lat="41.0422700" lon="0.6341240">
        <ele>24.9</ele>
        <time>2020-08-08T11:09:10Z</time>
      </trkpt>
      <trkpt lat="41.0422630" lon="0.6341210">
        <ele>24.9</ele>
        <time>2020-08-08T11:09:12Z</time>
      </trkpt>
      <trkpt lat="41.0422610" lon="0.6341090">
        <ele>24.9</ele>
        <time>2020-08-08T11:09:13Z</time>
      </trkpt>
      <trkpt lat="41.0422610" lon="0.6340670">
        <ele>25.6</ele>
        <time>2020-08-08T11:09:15Z</time>
      </trkpt>
      <trkpt lat="41.0422630" lon="0.6340510">
        <ele>25.6</ele>
        <time>2020-08-08T11:09:16Z</time>
      </trkpt>
      <trkpt lat="41.0422720" lon="0.6340150">
        <ele>25.8</ele>
        <time>2020-08-08T11:09:18Z</time>
      </trkpt>
      <trkpt lat="41.0422790" lon="0.6340010">
        <ele>25.8</ele>
        <time>2020-08-08T11:09:19Z</time>
      </trkpt>
      <trkpt lat="41.0422820" lon="0.6339890">
        <ele>25.9</ele>
        <time>2020-08-08T11:09:20Z</time>
      </trkpt>
      <trkpt lat="41.0422870" lon="0.6339710">
        <ele>26.0</ele>
        <time>2020-08-08T11:09:22Z</time>
      </trkpt>
      <trkpt lat="41.0422890" lon="0.6339640">
        <ele>26.0</ele>
        <time>2020-08-08T11:09:23Z</time>
      </trkpt>
      <trkpt lat="41.0422960" lon="0.6339670">
        <ele>26.0</ele>
        <time>2020-08-08T11:09:25Z</time>
      </trkpt>
      <trkpt lat="41.0423160" lon="0.6339930">
        <ele>26.2</ele>
        <time>2020-08-08T11:09:27Z</time>
      </trkpt>
      <trkpt lat="41.0423330" lon="0.6340210">
        <ele>26.3</ele>
        <time>2020-08-08T11:09:29Z</time>
      </trkpt>
      <trkpt lat="41.0423340" lon="0.6340250">
        <ele>26.3</ele>
        <time>2020-08-08T11:09:31Z</time>
      </trkpt>
      <trkpt lat="41.0423330" lon="0.6340250">
        <ele>26.3</ele>
        <time>2020-08-08T11:09:32Z</time>
      </trkpt>
      <trkpt lat="41.0423330" lon="0.6340250">
        <ele>26.3</ele>
        <time>2020-08-08T11:09:33Z</time>
      </trkpt>
      <trkpt lat="41.0423340" lon="0.6340220">
        <ele>26.4</ele>
        <time>2020-08-08T11:09:35Z</time>
      </trkpt>
      <trkpt lat="41.0423340" lon="0.6340220">
        <ele>26.4</ele>
        <time>2020-08-08T11:09:38Z</time>
      </trkpt>
      <trkpt lat="41.0423340" lon="0.6340210">
        <ele>26.4</ele>
        <time>2020-08-08T11:09:39Z</time>
      </trkpt>
      <trkpt lat="41.0423350" lon="0.6340210">
        <ele>26.4</ele>
        <time>2020-08-08T11:09:41Z</time>
      </trkpt>
      <trkpt lat="41.0423530" lon="0.6339860">
        <ele>27.4</ele>
        <time>2020-08-08T11:10:05Z</time>
      </trkpt>
      <trkpt lat="41.0423630" lon="0.6339490">
        <ele>27.3</ele>
        <time>2020-08-08T11:10:07Z</time>
      </trkpt>
      <trkpt lat="41.0423810" lon="0.6339380">
        <ele>27.2</ele>
        <time>2020-08-08T11:10:08Z</time>
      </trkpt>
      <trkpt lat="41.0424330" lon="0.6339330">
        <ele>27.0</ele>
        <time>2020-08-08T11:10:10Z</time>
      </trkpt>
      <trkpt lat="41.0425630" lon="0.6339110">
        <ele>26.7</ele>
        <time>2020-08-08T11:10:17Z</time>
      </trkpt>
      <trkpt lat="41.0426010" lon="0.6338820">
        <ele>26.7</ele>
        <time>2020-08-08T11:10:19Z</time>
      </trkpt>
      <trkpt lat="41.0426160" lon="0.6338650">
        <ele>26.7</ele>
        <time>2020-08-08T11:10:20Z</time>
      </trkpt>
      <trkpt lat="41.0426180" lon="0.6338590">
        <ele>26.7</ele>
        <time>2020-08-08T11:10:21Z</time>
      </trkpt>
      <trkpt lat="41.0426120" lon="0.6338510">
        <ele>26.7</ele>
        <time>2020-08-08T11:10:22Z</time>
      </trkpt>
      <trkpt lat="41.0425810" lon="0.6338210">
        <ele>26.7</ele>
        <time>2020-08-08T11:10:24Z</time>
      </trkpt>
      <trkpt lat="41.0425740" lon="0.6338050">
        <ele>26.7</ele>
        <time>2020-08-08T11:10:25Z</time>
      </trkpt>
      <trkpt lat="41.0425660" lon="0.6337810">
        <ele>26.7</ele>
        <time>2020-08-08T11:10:26Z</time>
      </trkpt>
      <trkpt lat="41.0425710" lon="0.6337520">
        <ele>26.7</ele>
        <time>2020-08-08T11:10:28Z</time>
      </trkpt>
      <trkpt lat="41.0425820" lon="0.6337390">
        <ele>26.6</ele>
        <time>2020-08-08T11:10:29Z</time>
      </trkpt>
      <trkpt lat="41.0426060" lon="0.6337180">
        <ele>26.6</ele>
        <time>2020-08-08T11:10:30Z</time>
      </trkpt>
      <trkpt lat="41.0426160" lon="0.6337100">
        <ele>26.6</ele>
        <time>2020-08-08T11:10:31Z</time>
      </trkpt>
      <trkpt lat="41.0426560" lon="0.6336790">
        <ele>26.6</ele>
        <time>2020-08-08T11:10:33Z</time>
      </trkpt>
      <trkpt lat="41.0426650" lon="0.6336610">
        <ele>26.6</ele>
        <time>2020-08-08T11:10:34Z</time>
      </trkpt>
      <trkpt lat="41.0426590" lon="0.6336540">
        <ele>26.6</ele>
        <time>2020-08-08T11:10:36Z</time>
      </trkpt>
      <trkpt lat="41.0426540" lon="0.6336470">
        <ele>26.6</ele>
        <time>2020-08-08T11:10:37Z</time>
      </trkpt>
      <trkpt lat="41.0426480" lon="0.6336410">
        <ele>26.6</ele>
        <time>2020-08-08T11:10:38Z</time>
      </trkpt>
      <trkpt lat="41.0426430" lon="0.6336340">
        <ele>26.6</ele>
        <time>2020-08-08T11:10:40Z</time>
      </trkpt>
      <trkpt lat="41.0426370" lon="0.6336270">
        <ele>26.6</ele>
        <time>2020-08-08T11:10:41Z</time>
      </trkpt>
      <trkpt lat="41.0426190" lon="0.6336250">
        <ele>26.6</ele>
        <time>2020-08-08T11:10:42Z</time>
      </trkpt>
      <trkpt lat="41.0426060" lon="0.6336240">
        <ele>26.6</ele>
        <time>2020-08-08T11:10:43Z</time>
      </trkpt>
      <trkpt lat="41.0425980" lon="0.6336280">
        <ele>26.6</ele>
        <time>2020-08-08T11:10:45Z</time>
      </trkpt>
      <trkpt lat="41.0425980" lon="0.6336320">
        <ele>26.6</ele>
        <time>2020-08-08T11:10:48Z</time>
      </trkpt>
      <trkpt lat="41.0426100" lon="0.6336280">
        <ele>26.6</ele>
        <time>2020-08-08T11:10:53Z</time>
      </trkpt>
      <trkpt lat="41.0426110" lon="0.6336270">
        <ele>26.6</ele>
        <time>2020-08-08T11:10:54Z</time>
      </trkpt>
      <trkpt lat="41.0426110" lon="0.6336260">
        <ele>26.6</ele>
        <time>2020-08-08T11:10:55Z</time>
      </trkpt>
      <trkpt lat="41.0426100" lon="0.6336260">
        <ele>26.6</ele>
        <time>2020-08-08T11:10:56Z</time>
      </trkpt>
      <trkpt lat="41.0426120" lon="0.6336220">
        <ele>26.6</ele>
        <time>2020-08-08T11:10:58Z</time>
      </trkpt>
      <trkpt lat="41.0426300" lon="0.6335910">
        <ele>26.6</ele>
        <time>2020-08-08T11:11:02Z</time>
      </trkpt>
      <trkpt lat="41.0426440" lon="0.6335430">
        <ele>26.6</ele>
        <time>2020-08-08T11:11:04Z</time>
      </trkpt>
      <trkpt lat="41.0426430" lon="0.6334820">
        <ele>26.6</ele>
        <time>2020-08-08T11:11:06Z</time>
      </trkpt>
      <trkpt lat="41.0426390" lon="0.6334480">
        <ele>26.6</ele>
        <time>2020-08-08T11:11:07Z</time>
      </trkpt>
      <trkpt lat="41.0426330" lon="0.6333850">
        <ele>26.6</ele>
        <time>2020-08-08T11:11:09Z</time>
      </trkpt>
      <trkpt lat="41.0426300" lon="0.6333460">
        <ele>26.6</ele>
        <time>2020-08-08T11:11:10Z</time>
      </trkpt>
      <trkpt lat="41.0426290" lon="0.6333350">
        <ele>26.6</ele>
        <time>2020-08-08T11:11:11Z</time>
      </trkpt>
      <trkpt lat="41.0426280" lon="0.6333200">
        <ele>26.6</ele>
        <time>2020-08-08T11:11:12Z</time>
      </trkpt>
      <trkpt lat="41.0426230" lon="0.6332890">
        <ele>26.6</ele>
        <time>2020-08-08T11:11:13Z</time>
      </trkpt>
      <trkpt lat="41.0426150" lon="0.6332560">
        <ele>26.6</ele>
        <time>2020-08-08T11:11:14Z</time>
      </trkpt>
      <trkpt lat="41.0426020" lon="0.6332120">
        <ele>26.6</ele>
        <time>2020-08-08T11:11:16Z</time>
      </trkpt>
      <trkpt lat="41.0426010" lon="0.6331940">
        <ele>26.6</ele>
        <time>2020-08-08T11:11:17Z</time>
      </trkpt>
      <trkpt lat="41.0426010" lon="0.6331770">
        <ele>26.6</ele>
        <time>2020-08-08T11:11:18Z</time>
      </trkpt>
      <trkpt lat="41.0425990" lon="0.6331650">
        <ele>26.6</ele>
        <time>2020-08-08T11:11:19Z</time>
      </trkpt>
      <trkpt lat="41.0425990" lon="0.6331560">
        <ele>26.6</ele>
        <time>2020-08-08T11:11:20Z</time>
      </trkpt>
      <trkpt lat="41.0425980" lon="0.6331530">
        <ele>26.6</ele>
        <time>2020-08-08T11:11:22Z</time>
      </trkpt>
      <trkpt lat="41.0425950" lon="0.6331610">
        <ele>26.6</ele>
        <time>2020-08-08T11:11:23Z</time>
      </trkpt>
      <trkpt lat="41.0425990" lon="0.6331740">
        <ele>26.6</ele>
        <time>2020-08-08T11:11:25Z</time>
      </trkpt>
      <trkpt lat="41.0426070" lon="0.6331910">
        <ele>26.7</ele>
        <time>2020-08-08T11:11:27Z</time>
      </trkpt>
      <trkpt lat="41.0426060" lon="0.6331960">
        <ele>26.7</ele>
        <time>2020-08-08T11:11:28Z</time>
      </trkpt>
      <trkpt lat="41.0426020" lon="0.6332070">
        <ele>26.7</ele>
        <time>2020-08-08T11:11:29Z</time>
      </trkpt>
      <trkpt lat="41.0425970" lon="0.6332160">
        <ele>26.7</ele>
        <time>2020-08-08T11:11:30Z</time>
      </trkpt>
      <trkpt lat="41.0425910" lon="0.6332290">
        <ele>26.7</ele>
        <time>2020-08-08T11:11:31Z</time>
      </trkpt>
      <trkpt lat="41.0425900" lon="0.6332330">
        <ele>26.7</ele>
        <time>2020-08-08T11:11:32Z</time>
      </trkpt>
      <trkpt lat="41.0425950" lon="0.6332390">
        <ele>26.7</ele>
        <time>2020-08-08T11:11:33Z</time>
      </trkpt>
      <trkpt lat="41.0426070" lon="0.6332390">
        <ele>26.8</ele>
        <time>2020-08-08T11:11:34Z</time>
      </trkpt>
      <trkpt lat="41.0426190" lon="0.6332390">
        <ele>26.8</ele>
        <time>2020-08-08T11:11:35Z</time>
      </trkpt>
      <trkpt lat="41.0426270" lon="0.6332370">
        <ele>26.8</ele>
        <time>2020-08-08T11:11:36Z</time>
      </trkpt>
      <trkpt lat="41.0426360" lon="0.6332260">
        <ele>26.8</ele>
        <time>2020-08-08T11:11:37Z</time>
      </trkpt>
      <trkpt lat="41.0426390" lon="0.6332070">
        <ele>26.9</ele>
        <time>2020-08-08T11:11:38Z</time>
      </trkpt>
      <trkpt lat="41.0426380" lon="0.6331820">
        <ele>26.9</ele>
        <time>2020-08-08T11:11:39Z</time>
      </trkpt>
      <trkpt lat="41.0426340" lon="0.6331340">
        <ele>27.0</ele>
        <time>2020-08-08T11:11:41Z</time>
      </trkpt>
      <trkpt lat="41.0426350" lon="0.6331010">
        <ele>27.0</ele>
        <time>2020-08-08T11:11:43Z</time>
      </trkpt>
      <trkpt lat="41.0426370" lon="0.6330870">
        <ele>27.0</ele>
        <time>2020-08-08T11:11:44Z</time>
      </trkpt>
      <trkpt lat="41.0426370" lon="0.6330600">
        <ele>27.1</ele>
        <time>2020-08-08T11:11:46Z</time>
      </trkpt>
      <trkpt lat="41.0426320" lon="0.6330310">
        <ele>27.1</ele>
        <time>2020-08-08T11:11:48Z</time>
      </trkpt>
      <trkpt lat="41.0426290" lon="0.6330090">
        <ele>27.2</ele>
        <time>2020-08-08T11:11:50Z</time>
      </trkpt>
      <trkpt lat="41.0426250" lon="0.6330000">
        <ele>27.2</ele>
        <time>2020-08-08T11:11:51Z</time>
      </trkpt>
      <trkpt lat="41.0426190" lon="0.6329940">
        <ele>27.2</ele>
        <time>2020-08-08T11:11:52Z</time>
      </trkpt>
      <trkpt lat="41.0426020" lon="0.6330070">
        <ele>27.3</ele>
        <time>2020-08-08T11:11:54Z</time>
      </trkpt>
      <trkpt lat="41.0425980" lon="0.6330210">
        <ele>27.3</ele>
        <time>2020-08-08T11:11:55Z</time>
      </trkpt>
      <trkpt lat="41.0425900" lon="0.6330380">
        <ele>27.3</ele>
        <time>2020-08-08T11:11:56Z</time>
      </trkpt>
      <trkpt lat="41.0425860" lon="0.6330530">
        <ele>27.4</ele>
        <time>2020-08-08T11:11:57Z</time>
      </trkpt>
      <trkpt lat="41.0425670" lon="0.6330880">
        <ele>27.4</ele>
        <time>2020-08-08T11:11:59Z</time>
      </trkpt>
      <trkpt lat="41.0425580" lon="0.6331010">
        <ele>27.5</ele>
        <time>2020-08-08T11:12:00Z</time>
      </trkpt>
      <trkpt lat="41.0425340" lon="0.6331100">
        <ele>27.5</ele>
        <time>2020-08-08T11:12:01Z</time>
      </trkpt>
      <trkpt lat="41.0425070" lon="0.6331090">
        <ele>27.6</ele>
        <time>2020-08-08T11:12:02Z</time>
      </trkpt>
      <trkpt lat="41.0424750" lon="0.6330970">
        <ele>27.7</ele>
        <time>2020-08-08T11:12:04Z</time>
      </trkpt>
      <trkpt lat="41.0424730" lon="0.6330960">
        <ele>27.7</ele>
        <time>2020-08-08T11:12:05Z</time>
      </trkpt>
      <trkpt lat="41.0424720" lon="0.6331020">
        <ele>27.7</ele>
        <time>2020-08-08T11:12:06Z</time>
      </trkpt>
      <trkpt lat="41.0424760" lon="0.6331240">
        <ele>27.7</ele>
        <time>2020-08-08T11:12:08Z</time>
      </trkpt>
      <trkpt lat="41.0424670" lon="0.6331370">
        <ele>27.8</ele>
        <time>2020-08-08T11:12:09Z</time>
      </trkpt>
      <trkpt lat="41.0424340" lon="0.6331590">
        <ele>27.8</ele>
        <time>2020-08-08T11:12:11Z</time>
      </trkpt>
      <trkpt lat="41.0424020" lon="0.6331720">
        <ele>27.9</ele>
        <time>2020-08-08T11:12:12Z</time>
      </trkpt>
      <trkpt lat="41.0423900" lon="0.6331760">
        <ele>27.9</ele>
        <time>2020-08-08T11:12:13Z</time>
      </trkpt>
      <trkpt lat="41.0423660" lon="0.6331860">
        <ele>28.0</ele>
        <time>2020-08-08T11:12:14Z</time>
      </trkpt>
      <trkpt lat="41.0423260" lon="0.6332100">
        <ele>28.0</ele>
        <time>2020-08-08T11:12:16Z</time>
      </trkpt>
      <trkpt lat="41.0422970" lon="0.6332340">
        <ele>28.1</ele>
        <time>2020-08-08T11:12:17Z</time>
      </trkpt>
      <trkpt lat="41.0422860" lon="0.6332420">
        <ele>28.1</ele>
        <time>2020-08-08T11:12:18Z</time>
      </trkpt>
      <trkpt lat="41.0422370" lon="0.6332700">
        <ele>28.1</ele>
        <time>2020-08-08T11:12:20Z</time>
      </trkpt>
      <trkpt lat="41.0422130" lon="0.6332870">
        <ele>28.1</ele>
        <time>2020-08-08T11:12:21Z</time>
      </trkpt>
      <trkpt lat="41.0421460" lon="0.6333500">
        <ele>27.3</ele>
        <time>2020-08-08T11:12:25Z</time>
      </trkpt>
      <trkpt lat="41.0421310" lon="0.6333720">
        <ele>27.4</ele>
        <time>2020-08-08T11:12:27Z</time>
      </trkpt>
      <trkpt lat="41.0421320" lon="0.6333750">
        <ele>27.4</ele>
        <time>2020-08-08T11:12:28Z</time>
      </trkpt>
      <trkpt lat="41.0421480" lon="0.6333780">
        <ele>27.5</ele>
        <time>2020-08-08T11:12:31Z</time>
      </trkpt>
      <trkpt lat="41.0421680" lon="0.6333740">
        <ele>27.6</ele>
        <time>2020-08-08T11:12:33Z</time>
      </trkpt>
      <trkpt lat="41.0421860" lon="0.6333430">
        <ele>27.8</ele>
        <time>2020-08-08T11:12:36Z</time>
      </trkpt>
      <trkpt lat="41.0421960" lon="0.6333150">
        <ele>27.9</ele>
        <time>2020-08-08T11:12:46Z</time>
      </trkpt>
      <trkpt lat="41.0422070" lon="0.6332880">
        <ele>28.1</ele>
        <time>2020-08-08T11:13:21Z</time>
      </trkpt>
      <trkpt lat="41.0422180" lon="0.6332600">
        <ele>28.1</ele>
        <time>2020-08-08T11:13:23Z</time>
      </trkpt>
      <trkpt lat="41.0422280" lon="0.6332330">
        <ele>28.1</ele>
        <time>2020-08-08T11:13:24Z</time>
      </trkpt>
      <trkpt lat="41.0422390" lon="0.6332050">
        <ele>28.0</ele>
        <time>2020-08-08T11:13:25Z</time>
      </trkpt>
      <trkpt lat="41.0422760" lon="0.6331650">
        <ele>27.9</ele>
        <time>2020-08-08T11:13:27Z</time>
      </trkpt>
      <trkpt lat="41.0423000" lon="0.6331240">
        <ele>27.8</ele>
        <time>2020-08-08T11:13:28Z</time>
      </trkpt>
      <trkpt lat="41.0423080" lon="0.6331100">
        <ele>27.7</ele>
        <time>2020-08-08T11:13:29Z</time>
      </trkpt>
      <trkpt lat="41.0423370" lon="0.6330910">
        <ele>27.6</ele>
        <time>2020-08-08T11:13:31Z</time>
      </trkpt>
      <trkpt lat="41.0424130" lon="0.6331130">
        <ele>27.2</ele>
        <time>2020-08-08T11:13:33Z</time>
      </trkpt>
      <trkpt lat="41.0424550" lon="0.6331390">
        <ele>27.0</ele>
        <time>2020-08-08T11:13:34Z</time>
      </trkpt>
      <trkpt lat="41.0425200" lon="0.6331780">
        <ele>26.7</ele>
        <time>2020-08-08T11:13:36Z</time>
      </trkpt>
      <trkpt lat="41.0425510" lon="0.6331910">
        <ele>26.6</ele>
        <time>2020-08-08T11:13:37Z</time>
      </trkpt>
      <trkpt lat="41.0426080" lon="0.6331970">
        <ele>26.3</ele>
        <time>2020-08-08T11:13:39Z</time>
      </trkpt>
      <trkpt lat="41.0426410" lon="0.6331930">
        <ele>26.1</ele>
        <time>2020-08-08T11:13:40Z</time>
      </trkpt>
      <trkpt lat="41.0426940" lon="0.6331770">
        <ele>25.8</ele>
        <time>2020-08-08T11:13:42Z</time>
      </trkpt>
      <trkpt lat="41.0427220" lon="0.6331670">
        <ele>25.7</ele>
        <time>2020-08-08T11:13:43Z</time>
      </trkpt>
      <trkpt lat="41.0427660" lon="0.6331590">
        <ele>25.4</ele>
        <time>2020-08-08T11:13:44Z</time>
      </trkpt>
      <trkpt lat="41.0428200" lon="0.6331540">
        <ele>25.4</ele>
        <time>2020-08-08T11:13:46Z</time>
      </trkpt>
      <trkpt lat="41.0428420" lon="0.6331610">
        <ele>25.4</ele>
        <time>2020-08-08T11:13:47Z</time>
      </trkpt>
      <trkpt lat="41.0428540" lon="0.6332160">
        <ele>25.4</ele>
        <time>2020-08-08T11:13:49Z</time>
      </trkpt>
      <trkpt lat="41.0428490" lon="0.6332520">
        <ele>25.3</ele>
        <time>2020-08-08T11:13:50Z</time>
      </trkpt>
      <trkpt lat="41.0428290" lon="0.6333280">
        <ele>25.3</ele>
        <time>2020-08-08T11:13:52Z</time>
      </trkpt>
      <trkpt lat="41.0428130" lon="0.6333680">
        <ele>25.3</ele>
        <time>2020-08-08T11:13:53Z</time>
      </trkpt>
      <trkpt lat="41.0427970" lon="0.6334480">
        <ele>25.3</ele>
        <time>2020-08-08T11:13:55Z</time>
      </trkpt>
      <trkpt lat="41.0427880" lon="0.6334880">
        <ele>25.3</ele>
        <time>2020-08-08T11:13:56Z</time>
      </trkpt>
      <trkpt lat="41.0427820" lon="0.6335290">
        <ele>25.3</ele>
        <time>2020-08-08T11:13:57Z</time>
      </trkpt>
      <trkpt lat="41.0427700" lon="0.6336130">
        <ele>25.2</ele>
        <time>2020-08-08T11:13:59Z</time>
      </trkpt>
      <trkpt lat="41.0427700" lon="0.6336580">
        <ele>25.2</ele>
        <time>2020-08-08T11:14:00Z</time>
      </trkpt>
      <trkpt lat="41.0427740" lon="0.6337010">
        <ele>25.1</ele>
        <time>2020-08-08T11:14:01Z</time>
      </trkpt>
      <trkpt lat="41.0427820" lon="0.6337480">
        <ele>25.0</ele>
        <time>2020-08-08T11:14:02Z</time>
      </trkpt>
      <trkpt lat="41.0427850" lon="0.6337630">
        <ele>25.0</ele>
        <time>2020-08-08T11:14:03Z</time>
      </trkpt>
      <trkpt lat="41.0427930" lon="0.6338340">
        <ele>25.0</ele>
        <time>2020-08-08T11:14:05Z</time>
      </trkpt>
      <trkpt lat="41.0427900" lon="0.6338830">
        <ele>25.0</ele>
        <time>2020-08-08T11:14:06Z</time>
      </trkpt>
      <trkpt lat="41.0427880" lon="0.6338970">
        <ele>25.0</ele>
        <time>2020-08-08T11:14:07Z</time>
      </trkpt>
      <trkpt lat="41.0427840" lon="0.6339360">
        <ele>25.0</ele>
        <time>2020-08-08T11:14:08Z</time>
      </trkpt>
      <trkpt lat="41.0427820" lon="0.6339460">
        <ele>25.0</ele>
        <time>2020-08-08T11:14:09Z</time>
      </trkpt>
      <trkpt lat="41.0427810" lon="0.6339640">
        <ele>25.0</ele>
        <time>2020-08-08T11:14:10Z</time>
      </trkpt>
      <trkpt lat="41.0427780" lon="0.6339680">
        <ele>25.0</ele>
        <time>2020-08-08T11:14:12Z</time>
      </trkpt>
      <trkpt lat="41.0427750" lon="0.6339630">
        <ele>25.0</ele>
        <time>2020-08-08T11:14:13Z</time>
      </trkpt>
      <trkpt lat="41.0427720" lon="0.6339570">
        <ele>25.0</ele>
        <time>2020-08-08T11:14:14Z</time>
      </trkpt>
      <trkpt lat="41.0427730" lon="0.6339600">
        <ele>25.0</ele>
        <time>2020-08-08T11:14:16Z</time>
      </trkpt>
      <trkpt lat="41.0427770" lon="0.6339580">
        <ele>25.0</ele>
        <time>2020-08-08T11:14:18Z</time>
      </trkpt>
      <trkpt lat="41.0427770" lon="0.6339540">
        <ele>25.0</ele>
        <time>2020-08-08T11:14:19Z</time>
      </trkpt>
      <trkpt lat="41.0427770" lon="0.6339470">
        <ele>25.0</ele>
        <time>2020-08-08T11:14:20Z</time>
      </trkpt>
      <trkpt lat="41.0427830" lon="0.6339170">
        <ele>25.0</ele>
        <time>2020-08-08T11:14:22Z</time>
      </trkpt>
      <trkpt lat="41.0427800" lon="0.6338760">
        <ele>25.0</ele>
        <time>2020-08-08T11:14:24Z</time>
      </trkpt>
      <trkpt lat="41.0427770" lon="0.6338340">
        <ele>25.0</ele>
        <time>2020-08-08T11:14:25Z</time>
      </trkpt>
      <trkpt lat="41.0427750" lon="0.6338200">
        <ele>25.0</ele>
        <time>2020-08-08T11:14:26Z</time>
      </trkpt>
      <trkpt lat="41.0427740" lon="0.6338020">
        <ele>25.0</ele>
        <time>2020-08-08T11:14:27Z</time>
      </trkpt>
      <trkpt lat="41.0427760" lon="0.6337780">
        <ele>25.0</ele>
        <time>2020-08-08T11:14:29Z</time>
      </trkpt>
      <trkpt lat="41.0427750" lon="0.6337590">
        <ele>25.0</ele>
        <time>2020-08-08T11:14:30Z</time>
      </trkpt>
      <trkpt lat="41.0427780" lon="0.6337400">
        <ele>25.0</ele>
        <time>2020-08-08T11:14:31Z</time>
      </trkpt>
      <trkpt lat="41.0427880" lon="0.6337210">
        <ele>25.0</ele>
        <time>2020-08-08T11:14:33Z</time>
      </trkpt>
      <trkpt lat="41.0428040" lon="0.6337260">
        <ele>25.0</ele>
        <time>2020-08-08T11:14:34Z</time>
      </trkpt>
      <trkpt lat="41.0428160" lon="0.6337410">
        <ele>25.0</ele>
        <time>2020-08-08T11:14:35Z</time>
      </trkpt>
      <trkpt lat="41.0428190" lon="0.6337620">
        <ele>25.0</ele>
        <time>2020-08-08T11:14:36Z</time>
      </trkpt>
      <trkpt lat="41.0428190" lon="0.6337730">
        <ele>25.0</ele>
        <time>2020-08-08T11:14:38Z</time>
      </trkpt>
      <trkpt lat="41.0428200" lon="0.6337710">
        <ele>25.0</ele>
        <time>2020-08-08T11:14:39Z</time>
      </trkpt>
      <trkpt lat="41.0428220" lon="0.6337640">
        <ele>25.0</ele>
        <time>2020-08-08T11:14:41Z</time>
      </trkpt>
      <trkpt lat="41.0428240" lon="0.6337600">
        <ele>25.0</ele>
        <time>2020-08-08T11:14:42Z</time>
      </trkpt>
      <trkpt lat="41.0428270" lon="0.6337540">
        <ele>25.0</ele>
        <time>2020-08-08T11:14:44Z</time>
      </trkpt>
      <trkpt lat="41.0428360" lon="0.6337570">
        <ele>25.0</ele>
        <time>2020-08-08T11:14:46Z</time>
      </trkpt>
      <trkpt lat="41.0428440" lon="0.6337710">
        <ele>25.0</ele>
        <time>2020-08-08T11:14:47Z</time>
      </trkpt>
      <trkpt lat="41.0428570" lon="0.6337850">
        <ele>25.0</ele>
        <time>2020-08-08T11:14:49Z</time>
      </trkpt>
      <trkpt lat="41.0428600" lon="0.6337970">
        <ele>25.0</ele>
        <time>2020-08-08T11:14:50Z</time>
      </trkpt>
      <trkpt lat="41.0428650" lon="0.6338120">
        <ele>25.0</ele>
        <time>2020-08-08T11:14:52Z</time>
      </trkpt>
      <trkpt lat="41.0428710" lon="0.6338210">
        <ele>25.0</ele>
        <time>2020-08-08T11:14:53Z</time>
      </trkpt>
      <trkpt lat="41.0428770" lon="0.6338360">
        <ele>25.0</ele>
        <time>2020-08-08T11:14:55Z</time>
      </trkpt>
      <trkpt lat="41.0428780" lon="0.6338410">
        <ele>25.0</ele>
        <time>2020-08-08T11:14:56Z</time>
      </trkpt>
      <trkpt lat="41.0428830" lon="0.6338450">
        <ele>25.0</ele>
        <time>2020-08-08T11:14:58Z</time>
      </trkpt>
      <trkpt lat="41.0428840" lon="0.6338420">
        <ele>25.0</ele>
        <time>2020-08-08T11:15:00Z</time>
      </trkpt>
      <trkpt lat="41.0428820" lon="0.6338400">
        <ele>25.0</ele>
        <time>2020-08-08T11:15:01Z</time>
      </trkpt>
      <trkpt lat="41.0428810" lon="0.6338380">
        <ele>25.0</ele>
        <time>2020-08-08T11:15:02Z</time>
      </trkpt>
      <trkpt lat="41.0428800" lon="0.6338360">
        <ele>25.0</ele>
        <time>2020-08-08T11:15:03Z</time>
      </trkpt>
      <trkpt lat="41.0428790" lon="0.6338340">
        <ele>25.0</ele>
        <time>2020-08-08T11:15:04Z</time>
      </trkpt>
      <trkpt lat="41.0428780" lon="0.6338330">
        <ele>25.0</ele>
        <time>2020-08-08T11:15:05Z</time>
      </trkpt>
      <trkpt lat="41.0428780" lon="0.6338330">
        <ele>25.0</ele>
        <time>2020-08-08T11:15:06Z</time>
      </trkpt>
      <trkpt lat="41.0428770" lon="0.6338320">
        <ele>25.0</ele>
        <time>2020-08-08T11:15:07Z</time>
      </trkpt>
      <trkpt lat="41.0428770" lon="0.6338320">
        <ele>25.0</ele>
        <time>2020-08-08T11:15:08Z</time>
      </trkpt>
      <trkpt lat="41.0429010" lon="0.6338200">
        <ele>25.0</ele>
        <time>2020-08-08T11:15:15Z</time>
      </trkpt>
      <trkpt lat="41.0429080" lon="0.6338070">
        <ele>25.0</ele>
        <time>2020-08-08T11:15:16Z</time>
      </trkpt>
      <trkpt lat="41.0429040" lon="0.6337930">
        <ele>25.0</ele>
        <time>2020-08-08T11:15:18Z</time>
      </trkpt>
      <trkpt lat="41.0428990" lon="0.6337820">
        <ele>25.0</ele>
        <time>2020-08-08T11:15:19Z</time>
      </trkpt>
      <trkpt lat="41.0428930" lon="0.6337560">
        <ele>25.0</ele>
        <time>2020-08-08T11:15:20Z</time>
      </trkpt>
      <trkpt lat="41.0428890" lon="0.6337450">
        <ele>25.0</ele>
        <time>2020-08-08T11:15:22Z</time>
      </trkpt>
      <trkpt lat="41.0428850" lon="0.6337330">
        <ele>25.0</ele>
        <time>2020-08-08T11:15:23Z</time>
      </trkpt>
      <trkpt lat="41.0428760" lon="0.6337070">
        <ele>25.0</ele>
        <time>2020-08-08T11:15:24Z</time>
      </trkpt>
      <trkpt lat="41.0428740" lon="0.6336930">
        <ele>25.0</ele>
        <time>2020-08-08T11:15:26Z</time>
      </trkpt>
      <trkpt lat="41.0428710" lon="0.6336790">
        <ele>25.0</ele>
        <time>2020-08-08T11:15:27Z</time>
      </trkpt>
      <trkpt lat="41.0428760" lon="0.6336530">
        <ele>25.1</ele>
        <time>2020-08-08T11:15:28Z</time>
      </trkpt>
      <trkpt lat="41.0428830" lon="0.6336150">
        <ele>25.2</ele>
        <time>2020-08-08T11:15:30Z</time>
      </trkpt>
      <trkpt lat="41.0428860" lon="0.6335740">
        <ele>25.3</ele>
        <time>2020-08-08T11:15:31Z</time>
      </trkpt>
      <trkpt lat="41.0428840" lon="0.6335620">
        <ele>25.3</ele>
        <time>2020-08-08T11:15:32Z</time>
      </trkpt>
      <trkpt lat="41.0428800" lon="0.6335030">
        <ele>25.3</ele>
        <time>2020-08-08T11:15:34Z</time>
      </trkpt>
      <trkpt lat="41.0428800" lon="0.6334830">
        <ele>25.3</ele>
        <time>2020-08-08T11:15:35Z</time>
      </trkpt>
      <trkpt lat="41.0428800" lon="0.6334640">
        <ele>25.3</ele>
        <time>2020-08-08T11:15:36Z</time>
      </trkpt>
      <trkpt lat="41.0428820" lon="0.6334360">
        <ele>25.3</ele>
        <time>2020-08-08T11:15:37Z</time>
      </trkpt>
      <trkpt lat="41.0428760" lon="0.6334010">
        <ele>25.3</ele>
        <time>2020-08-08T11:15:39Z</time>
      </trkpt>
      <trkpt lat="41.0428510" lon="0.6333610">
        <ele>25.3</ele>
        <time>2020-08-08T11:15:40Z</time>
      </trkpt>
      <trkpt lat="41.0428390" lon="0.6333500">
        <ele>25.3</ele>
        <time>2020-08-08T11:15:41Z</time>
      </trkpt>
      <trkpt lat="41.0428140" lon="0.6333400">
        <ele>25.4</ele>
        <time>2020-08-08T11:15:42Z</time>
      </trkpt>
      <trkpt lat="41.0427910" lon="0.6333300">
        <ele>25.5</ele>
        <time>2020-08-08T11:15:44Z</time>
      </trkpt>
      <trkpt lat="41.0427760" lon="0.6333220">
        <ele>25.5</ele>
        <time>2020-08-08T11:15:45Z</time>
      </trkpt>
      <trkpt lat="41.0427610" lon="0.6333170">
        <ele>25.6</ele>
        <time>2020-08-08T11:15:46Z</time>
      </trkpt>
      <trkpt lat="41.0427310" lon="0.6333120">
        <ele>25.7</ele>
        <time>2020-08-08T11:15:47Z</time>
      </trkpt>
      <trkpt lat="41.0427220" lon="0.6333120">
        <ele>25.7</ele>
        <time>2020-08-08T11:15:48Z</time>
      </trkpt>
      <trkpt lat="41.0427020" lon="0.6333340">
        <ele>25.8</ele>
        <time>2020-08-08T11:15:49Z</time>
      </trkpt>
      <trkpt lat="41.0426950" lon="0.6333460">
        <ele>25.8</ele>
        <time>2020-08-08T11:15:51Z</time>
      </trkpt>
      <trkpt lat="41.0426890" lon="0.6333580">
        <ele>25.9</ele>
        <time>2020-08-08T11:15:52Z</time>
      </trkpt>
      <trkpt lat="41.0426830" lon="0.6333690">
        <ele>26.6</ele>
        <time>2020-08-08T11:15:53Z</time>
      </trkpt>
      <trkpt lat="41.0426760" lon="0.6333810">
        <ele>26.6</ele>
        <time>2020-08-08T11:15:55Z</time>
      </trkpt>
      <trkpt lat="41.0426700" lon="0.6333930">
        <ele>26.6</ele>
        <time>2020-08-08T11:15:56Z</time>
      </trkpt>
      <trkpt lat="41.0425530" lon="0.6334280">
        <ele>26.6</ele>
        <time>2020-08-08T11:15:58Z</time>
      </trkpt>
      <trkpt lat="41.0425200" lon="0.6334510">
        <ele>26.6</ele>
        <time>2020-08-08T11:15:59Z</time>
      </trkpt>
      <trkpt lat="41.0424910" lon="0.6334820">
        <ele>26.6</ele>
        <time>2020-08-08T11:16:00Z</time>
      </trkpt>
      <trkpt lat="41.0424550" lon="0.6335440">
        <ele>26.6</ele>
        <time>2020-08-08T11:16:02Z</time>
      </trkpt>
      <trkpt lat="41.0424200" lon="0.6335980">
        <ele>26.6</ele>
        <time>2020-08-08T11:16:04Z</time>
      </trkpt>
      <trkpt lat="41.0423980" lon="0.6336240">
        <ele>26.6</ele>
        <time>2020-08-08T11:16:05Z</time>
      </trkpt>
      <trkpt lat="41.0423650" lon="0.6336440">
        <ele>26.6</ele>
        <time>2020-08-08T11:16:06Z</time>
      </trkpt>
      <trkpt lat="41.0423140" lon="0.6336720">
        <ele>26.6</ele>
        <time>2020-08-08T11:16:08Z</time>
      </trkpt>
      <trkpt lat="41.0423010" lon="0.6337290">
        <ele>26.7</ele>
        <time>2020-08-08T11:16:10Z</time>
      </trkpt>
      <trkpt lat="41.0423110" lon="0.6337720">
        <ele>26.7</ele>
        <time>2020-08-08T11:16:11Z</time>
      </trkpt>
      <trkpt lat="41.0423140" lon="0.6337830">
        <ele>26.7</ele>
        <time>2020-08-08T11:16:12Z</time>
      </trkpt>
      <trkpt lat="41.0423430" lon="0.6337970">
        <ele>26.7</ele>
        <time>2020-08-08T11:16:14Z</time>
      </trkpt>
      <trkpt lat="41.0423590" lon="0.6337950">
        <ele>26.7</ele>
        <time>2020-08-08T11:16:15Z</time>
      </trkpt>
      <trkpt lat="41.0423760" lon="0.6337920">
        <ele>26.7</ele>
        <time>2020-08-08T11:16:16Z</time>
      </trkpt>
      <trkpt lat="41.0424310" lon="0.6337730">
        <ele>26.7</ele>
        <time>2020-08-08T11:16:19Z</time>
      </trkpt>
      <trkpt lat="41.0424260" lon="0.6337830">
        <ele>26.9</ele>
        <time>2020-08-08T11:16:21Z</time>
      </trkpt>
      <trkpt lat="41.0424210" lon="0.6337930">
        <ele>26.9</ele>
        <time>2020-08-08T11:16:24Z</time>
      </trkpt>
      <trkpt lat="41.0424160" lon="0.6338030">
        <ele>27.0</ele>
        <time>2020-08-08T11:16:25Z</time>
      </trkpt>
      <trkpt lat="41.0424110" lon="0.6338140">
        <ele>27.0</ele>
        <time>2020-08-08T11:16:26Z</time>
      </trkpt>
      <trkpt lat="41.0424060" lon="0.6338240">
        <ele>27.0</ele>
        <time>2020-08-08T11:16:28Z</time>
      </trkpt>
      <trkpt lat="41.0424010" lon="0.6338340">
        <ele>27.1</ele>
        <time>2020-08-08T11:16:31Z</time>
      </trkpt>
      <trkpt lat="41.0423960" lon="0.6338440">
        <ele>27.1</ele>
        <time>2020-08-08T11:19:10Z</time>
      </trkpt>
      <trkpt lat="41.0423910" lon="0.6338540">
        <ele>27.1</ele>
        <time>2020-08-08T11:19:11Z</time>
      </trkpt>
      <trkpt lat="41.0423860" lon="0.6338640">
        <ele>27.2</ele>
        <time>2020-08-08T11:19:12Z</time>
      </trkpt>
      <trkpt lat="41.0423600" lon="0.6338880">
        <ele>27.3</ele>
        <time>2020-08-08T11:19:13Z</time>
      </trkpt>
      <trkpt lat="41.0423360" lon="0.6339100">
        <ele>27.4</ele>
        <time>2020-08-08T11:19:14Z</time>
      </trkpt>
      <trkpt lat="41.0423110" lon="0.6339260">
        <ele>27.4</ele>
        <time>2020-08-08T11:19:15Z</time>
      </trkpt>
      <trkpt lat="41.0422880" lon="0.6339350">
        <ele>27.5</ele>
        <time>2020-08-08T11:19:16Z</time>
      </trkpt>
      <trkpt lat="41.0422650" lon="0.6339210">
        <ele>27.5</ele>
        <time>2020-08-08T11:19:18Z</time>
      </trkpt>
      <trkpt lat="41.0422600" lon="0.6338760">
        <ele>27.6</ele>
        <time>2020-08-08T11:19:19Z</time>
      </trkpt>
      <trkpt lat="41.0422710" lon="0.6338140">
        <ele>27.7</ele>
        <time>2020-08-08T11:19:21Z</time>
      </trkpt>
      <trkpt lat="41.0422740" lon="0.6337900">
        <ele>27.7</ele>
        <time>2020-08-08T11:19:22Z</time>
      </trkpt>
      <trkpt lat="41.0422770" lon="0.6337660">
        <ele>27.8</ele>
        <time>2020-08-08T11:19:23Z</time>
      </trkpt>
      <trkpt lat="41.0422810" lon="0.6337450">
        <ele>27.8</ele>
        <time>2020-08-08T11:19:24Z</time>
      </trkpt>
      <trkpt lat="41.0422850" lon="0.6337050">
        <ele>27.9</ele>
        <time>2020-08-08T11:19:26Z</time>
      </trkpt>
      <trkpt lat="41.0422880" lon="0.6336630">
        <ele>27.9</ele>
        <time>2020-08-08T11:19:28Z</time>
      </trkpt>
      <trkpt lat="41.0422880" lon="0.6336510">
        <ele>27.9</ele>
        <time>2020-08-08T11:19:29Z</time>
      </trkpt>
      <trkpt lat="41.0422890" lon="0.6336310">
        <ele>27.9</ele>
        <time>2020-08-08T11:19:30Z</time>
      </trkpt>
      <trkpt lat="41.0422910" lon="0.6336060">
        <ele>28.0</ele>
        <time>2020-08-08T11:19:31Z</time>
      </trkpt>
      <trkpt lat="41.0422910" lon="0.6335820">
        <ele>28.0</ele>
        <time>2020-08-08T11:19:32Z</time>
      </trkpt>
      <trkpt lat="41.0422790" lon="0.6335510">
        <ele>28.0</ele>
        <time>2020-08-08T11:19:34Z</time>
      </trkpt>
      <trkpt lat="41.0422720" lon="0.6335110">
        <ele>28.0</ele>
        <time>2020-08-08T11:19:36Z</time>
      </trkpt>
      <trkpt lat="41.0422750" lon="0.6334770">
        <ele>28.0</ele>
        <time>2020-08-08T11:19:38Z</time>
      </trkpt>
      <trkpt lat="41.0422660" lon="0.6334710">
        <ele>28.0</ele>
        <time>2020-08-08T11:19:39Z</time>
      </trkpt>
      <trkpt lat="41.0422490" lon="0.6334390">
        <ele>28.0</ele>
        <time>2020-08-08T11:19:41Z</time>
      </trkpt>
      <trkpt lat="41.0422420" lon="0.6334340">
        <ele>28.0</ele>
        <time>2020-08-08T11:19:42Z</time>
      </trkpt>
      <trkpt lat="41.0422200" lon="0.6334230">
        <ele>28.0</ele>
        <time>2020-08-08T11:19:44Z</time>
      </trkpt>
      <trkpt lat="41.0422100" lon="0.6334320">
        <ele>28.0</ele>
        <time>2020-08-08T11:19:45Z</time>
      </trkpt>
      <trkpt lat="41.0422060" lon="0.6334030">
        <ele>28.0</ele>
        <time>2020-08-08T11:19:47Z</time>
      </trkpt>
      <trkpt lat="41.0422000" lon="0.6333810">
        <ele>28.0</ele>
        <time>2020-08-08T11:19:49Z</time>
      </trkpt>
      <trkpt lat="41.0421940" lon="0.6333600">
        <ele>28.0</ele>
        <time>2020-08-08T11:19:52Z</time>
      </trkpt>
      <trkpt lat="41.0421890" lon="0.6333380">
        <ele>28.0</ele>
        <time>2020-08-08T11:19:54Z</time>
      </trkpt>
      <trkpt lat="41.0421830" lon="0.6333170">
        <ele>28.1</ele>
        <time>2020-08-08T11:19:56Z</time>
      </trkpt>
      <trkpt lat="41.0421770" lon="0.6332960">
        <ele>28.1</ele>
        <time>2020-08-08T11:19:57Z</time>
      </trkpt>
      <trkpt lat="41.0421710" lon="0.6332740">
        <ele>27.8</ele>
        <time>2020-08-08T11:19:58Z</time>
      </trkpt>
      <trkpt lat="41.0421650" lon="0.6332530">
        <ele>27.7</ele>
        <time>2020-08-08T11:19:59Z</time>
      </trkpt>
      <trkpt lat="41.0421500" lon="0.6331740">
        <ele>26.4</ele>
        <time>2020-08-08T11:20:00Z</time>
      </trkpt>
      <trkpt lat="41.0421160" lon="0.6330310">
        <ele>26.7</ele>
        <time>2020-08-08T11:20:03Z</time>
      </trkpt>
      <trkpt lat="41.0421170" lon="0.6330420">
        <ele>26.7</ele>
        <time>2020-08-08T11:20:05Z</time>
      </trkpt>
      <trkpt lat="41.0421160" lon="0.6330480">
        <ele>26.7</ele>
        <time>2020-08-08T11:20:06Z</time>
      </trkpt>
      <trkpt lat="41.0421160" lon="0.6330530">
        <ele>26.8</ele>
        <time>2020-08-08T11:20:07Z</time>
      </trkpt>
      <trkpt lat="41.0421190" lon="0.6330330">
        <ele>26.8</ele>
        <time>2020-08-08T11:20:08Z</time>
      </trkpt>
      <trkpt lat="41.0421190" lon="0.6330140">
        <ele>26.8</ele>
        <time>2020-08-08T11:20:09Z</time>
      </trkpt>
      <trkpt lat="41.0421130" lon="0.6329700">
        <ele>26.9</ele>
        <time>2020-08-08T11:20:10Z</time>
      </trkpt>
      <trkpt lat="41.0421110" lon="0.6329520">
        <ele>26.9</ele>
        <time>2020-08-08T11:20:11Z</time>
      </trkpt>
      <trkpt lat="41.0421080" lon="0.6328780">
        <ele>27.1</ele>
        <time>2020-08-08T11:20:13Z</time>
      </trkpt>
      <trkpt lat="41.0421110" lon="0.6328410">
        <ele>27.2</ele>
        <time>2020-08-08T11:20:14Z</time>
      </trkpt>
      <trkpt lat="41.0421290" lon="0.6327510">
        <ele>27.3</ele>
        <time>2020-08-08T11:20:20Z</time>
      </trkpt>
      <trkpt lat="41.0420990" lon="0.6328740">
        <ele>27.3</ele>
        <time>2020-08-08T11:20:22Z</time>
      </trkpt>
      <trkpt lat="41.0420880" lon="0.6328960">
        <ele>27.3</ele>
        <time>2020-08-08T11:20:23Z</time>
      </trkpt>
      <trkpt lat="41.0420770" lon="0.6329110">
        <ele>27.3</ele>
        <time>2020-08-08T11:20:24Z</time>
      </trkpt>
      <trkpt lat="41.0420590" lon="0.6328690">
        <ele>27.3</ele>
        <time>2020-08-08T11:20:26Z</time>
      </trkpt>
      <trkpt lat="41.0420620" lon="0.6328110">
        <ele>27.4</ele>
        <time>2020-08-08T11:20:27Z</time>
      </trkpt>
      <trkpt lat="41.0420600" lon="0.6326500">
        <ele>27.2</ele>
        <time>2020-08-08T11:20:28Z</time>
      </trkpt>
      <trkpt lat="41.0420520" lon="0.6325500">
        <ele>27.0</ele>
        <time>2020-08-08T11:20:29Z</time>
      </trkpt>
      <trkpt lat="41.0420380" lon="0.6324790">
        <ele>26.9</ele>
        <time>2020-08-08T11:20:30Z</time>
      </trkpt>
      <trkpt lat="41.0420200" lon="0.6324360">
        <ele>26.9</ele>
        <time>2020-08-08T11:20:31Z</time>
      </trkpt>
      <trkpt lat="41.0420000" lon="0.6323930">
        <ele>26.9</ele>
        <time>2020-08-08T11:20:32Z</time>
      </trkpt>
      <trkpt lat="41.0419600" lon="0.6322960">
        <ele>26.9</ele>
        <time>2020-08-08T11:20:34Z</time>
      </trkpt>
      <trkpt lat="41.0419150" lon="0.6322200">
        <ele>26.9</ele>
        <time>2020-08-08T11:20:36Z</time>
      </trkpt>
      <trkpt lat="41.0418700" lon="0.6321480">
        <ele>26.9</ele>
        <time>2020-08-08T11:20:38Z</time>
      </trkpt>
      <trkpt lat="41.0418300" lon="0.6321050">
        <ele>26.9</ele>
        <time>2020-08-08T11:20:40Z</time>
      </trkpt>
      <trkpt lat="41.0417960" lon="0.6320740">
        <ele>26.9</ele>
        <time>2020-08-08T11:20:42Z</time>
      </trkpt>
      <trkpt lat="41.0417860" lon="0.6320670">
        <ele>26.9</ele>
        <time>2020-08-08T11:20:43Z</time>
      </trkpt>
      <trkpt lat="41.0417870" lon="0.6320730">
        <ele>26.9</ele>
        <time>2020-08-08T11:20:45Z</time>
      </trkpt>
      <trkpt lat="41.0417890" lon="0.6320790">
        <ele>26.9</ele>
        <time>2020-08-08T11:20:46Z</time>
      </trkpt>
      <trkpt lat="41.0417900" lon="0.6320850">
        <ele>26.9</ele>
        <time>2020-08-08T11:20:48Z</time>
      </trkpt>
      <trkpt lat="41.0417920" lon="0.6320910">
        <ele>27.0</ele>
        <time>2020-08-08T11:20:51Z</time>
      </trkpt>
      <trkpt lat="41.0417940" lon="0.6320970">
        <ele>27.0</ele>
        <time>2020-08-08T11:20:52Z</time>
      </trkpt>
      <trkpt lat="41.0417950" lon="0.6321030">
        <ele>27.0</ele>
        <time>2020-08-08T11:20:54Z</time>
      </trkpt>
      <trkpt lat="41.0417970" lon="0.6321090">
        <ele>27.0</ele>
        <time>2020-08-08T11:20:56Z</time>
      </trkpt>
      <trkpt lat="41.0417980" lon="0.6321150">
        <ele>27.0</ele>
        <time>2020-08-08T11:20:59Z</time>
      </trkpt>
      <trkpt lat="41.0418000" lon="0.6321210">
        <ele>27.0</ele>
        <time>2020-08-08T11:21:01Z</time>
      </trkpt>
      <trkpt lat="41.0418020" lon="0.6321270">
        <ele>27.1</ele>
        <time>2020-08-08T11:21:02Z</time>
      </trkpt>
      <trkpt lat="41.0418030" lon="0.6321330">
        <ele>27.1</ele>
        <time>2020-08-08T11:21:03Z</time>
      </trkpt>
      <trkpt lat="41.0418050" lon="0.6321390">
        <ele>27.1</ele>
        <time>2020-08-08T11:21:05Z</time>
      </trkpt>
      <trkpt lat="41.0418060" lon="0.6321450">
        <ele>27.1</ele>
        <time>2020-08-08T11:21:07Z</time>
      </trkpt>
      <trkpt lat="41.0418080" lon="0.6321510">
        <ele>27.1</ele>
        <time>2020-08-08T11:21:08Z</time>
      </trkpt>
      <trkpt lat="41.0418110" lon="0.6321780">
        <ele>27.2</ele>
        <time>2020-08-08T11:21:10Z</time>
      </trkpt>
      <trkpt lat="41.0417980" lon="0.6322030">
        <ele>27.3</ele>
        <time>2020-08-08T11:21:13Z</time>
      </trkpt>
      <trkpt lat="41.0417820" lon="0.6322270">
        <ele>27.4</ele>
        <time>2020-08-08T11:21:14Z</time>
      </trkpt>
      <trkpt lat="41.0417750" lon="0.6322470">
        <ele>27.4</ele>
        <time>2020-08-08T11:21:16Z</time>
      </trkpt>
      <trkpt lat="41.0417720" lon="0.6322550">
        <ele>27.4</ele>
        <time>2020-08-08T11:21:17Z</time>
      </trkpt>
      <trkpt lat="41.0417650" lon="0.6322690">
        <ele>27.5</ele>
        <time>2020-08-08T11:21:18Z</time>
      </trkpt>
      <trkpt lat="41.0417480" lon="0.6323040">
        <ele>27.6</ele>
        <time>2020-08-08T11:21:20Z</time>
      </trkpt>
      <trkpt lat="41.0417310" lon="0.6323440">
        <ele>27.7</ele>
        <time>2020-08-08T11:21:22Z</time>
      </trkpt>
      <trkpt lat="41.0417200" lon="0.6323700">
        <ele>27.8</ele>
        <time>2020-08-08T11:21:23Z</time>
      </trkpt>
      <trkpt lat="41.0417030" lon="0.6324200">
        <ele>28.0</ele>
        <time>2020-08-08T11:21:25Z</time>
      </trkpt>
      <trkpt lat="41.0416990" lon="0.6324410">
        <ele>28.0</ele>
        <time>2020-08-08T11:21:26Z</time>
      </trkpt>
      <trkpt lat="41.0417030" lon="0.6324860">
        <ele>28.1</ele>
        <time>2020-08-08T11:21:28Z</time>
      </trkpt>
      <trkpt lat="41.0417170" lon="0.6325190">
        <ele>28.2</ele>
        <time>2020-08-08T11:21:29Z</time>
      </trkpt>
      <trkpt lat="41.0417230" lon="0.6325310">
        <ele>28.3</ele>
        <time>2020-08-08T11:21:30Z</time>
      </trkpt>
      <trkpt lat="41.0417510" lon="0.6325800">
        <ele>28.4</ele>
        <time>2020-08-08T11:21:32Z</time>
      </trkpt>
      <trkpt lat="41.0417870" lon="0.6326280">
        <ele>28.6</ele>
        <time>2020-08-08T11:21:34Z</time>
      </trkpt>
      <trkpt lat="41.0418070" lon="0.6326560">
        <ele>28.7</ele>
        <time>2020-08-08T11:21:35Z</time>
      </trkpt>
      <trkpt lat="41.0418240" lon="0.6326860">
        <ele>28.8</ele>
        <time>2020-08-08T11:21:36Z</time>
      </trkpt>
      <trkpt lat="41.0418360" lon="0.6326940">
        <ele>28.9</ele>
        <time>2020-08-08T11:21:37Z</time>
      </trkpt>
      <trkpt lat="41.0418550" lon="0.6326590">
        <ele>29.0</ele>
        <time>2020-08-08T11:21:39Z</time>
      </trkpt>
      <trkpt lat="41.0418680" lon="0.6326530">
        <ele>29.0</ele>
        <time>2020-08-08T11:21:40Z</time>
      </trkpt>
      <trkpt lat="41.0418780" lon="0.6326520">
        <ele>29.1</ele>
        <time>2020-08-08T11:21:41Z</time>
      </trkpt>
      <trkpt lat="41.0418900" lon="0.6326580">
        <ele>29.1</ele>
        <time>2020-08-08T11:21:42Z</time>
      </trkpt>
      <trkpt lat="41.0418970" lon="0.6326660">
        <ele>29.1</ele>
        <time>2020-08-08T11:21:44Z</time>
      </trkpt>
      <trkpt lat="41.0419010" lon="0.6326680">
        <ele>29.2</ele>
        <time>2020-08-08T11:21:45Z</time>
      </trkpt>
      <trkpt lat="41.0419060" lon="0.6326690">
        <ele>29.2</ele>
        <time>2020-08-08T11:21:46Z</time>
      </trkpt>
      <trkpt lat="41.0419100" lon="0.6326710">
        <ele>29.2</ele>
        <time>2020-08-08T11:21:47Z</time>
      </trkpt>
      <trkpt lat="41.0419150" lon="0.6326720">
        <ele>29.2</ele>
        <time>2020-08-08T11:21:48Z</time>
      </trkpt>
      <trkpt lat="41.0419190" lon="0.6326740">
        <ele>29.2</ele>
        <time>2020-08-08T11:21:50Z</time>
      </trkpt>
      <trkpt lat="41.0419240" lon="0.6326750">
        <ele>29.2</ele>
        <time>2020-08-08T11:21:51Z</time>
      </trkpt>
      <trkpt lat="41.0419300" lon="0.6326740">
        <ele>29.3</ele>
        <time>2020-08-08T11:21:52Z</time>
      </trkpt>
      <trkpt lat="41.0419370" lon="0.6326760">
        <ele>29.5</ele>
        <time>2020-08-08T11:21:54Z</time>
      </trkpt>
      <trkpt lat="41.0419350" lon="0.6326790">
        <ele>29.5</ele>
        <time>2020-08-08T11:21:55Z</time>
      </trkpt>
      <trkpt lat="41.0419340" lon="0.6326830">
        <ele>29.5</ele>
        <time>2020-08-08T11:21:56Z</time>
      </trkpt>
      <trkpt lat="41.0419340" lon="0.6326900">
        <ele>29.5</ele>
        <time>2020-08-08T11:21:59Z</time>
      </trkpt>
      <trkpt lat="41.0419330" lon="0.6326930">
        <ele>29.5</ele>
        <time>2020-08-08T11:22:00Z</time>
      </trkpt>
      <trkpt lat="41.0419330" lon="0.6326940">
        <ele>29.5</ele>
        <time>2020-08-08T11:22:01Z</time>
      </trkpt>
      <trkpt lat="41.0419350" lon="0.6327000">
        <ele>29.5</ele>
        <time>2020-08-08T11:22:03Z</time>
      </trkpt>
      <trkpt lat="41.0420250" lon="0.6328000">
        <ele>29.5</ele>
        <time>2020-08-08T11:22:14Z</time>
      </trkpt>
      <trkpt lat="41.0420560" lon="0.6328290">
        <ele>27.6</ele>
        <time>2020-08-08T11:22:15Z</time>
      </trkpt>
      <trkpt lat="41.0420680" lon="0.6328400">
        <ele>27.4</ele>
        <time>2020-08-08T11:22:31Z</time>
      </trkpt>
      <trkpt lat="41.0420870" lon="0.6328290">
        <ele>27.2</ele>
        <time>2020-08-08T11:23:38Z</time>
      </trkpt>
      <trkpt lat="41.0420960" lon="0.6328360">
        <ele>27.2</ele>
        <time>2020-08-08T11:23:39Z</time>
      </trkpt>
      <trkpt lat="41.0421010" lon="0.6328370">
        <ele>27.2</ele>
        <time>2020-08-08T11:23:41Z</time>
      </trkpt>
      <trkpt lat="41.0420990" lon="0.6328350">
        <ele>27.2</ele>
        <time>2020-08-08T11:23:43Z</time>
      </trkpt>
      <trkpt lat="41.0420940" lon="0.6328330">
        <ele>27.2</ele>
        <time>2020-08-08T11:23:44Z</time>
      </trkpt>
      <trkpt lat="41.0420890" lon="0.6328330">
        <ele>27.2</ele>
        <time>2020-08-08T11:23:46Z</time>
      </trkpt>
      <trkpt lat="41.0420860" lon="0.6328320">
        <ele>27.2</ele>
        <time>2020-08-08T11:23:48Z</time>
      </trkpt>
      <trkpt lat="41.0420840" lon="0.6328310">
        <ele>27.2</ele>
        <time>2020-08-08T11:23:49Z</time>
      </trkpt>
      <trkpt lat="41.0420830" lon="0.6328300">
        <ele>27.2</ele>
        <time>2020-08-08T11:23:50Z</time>
      </trkpt>
      <trkpt lat="41.0420820" lon="0.6328290">
        <ele>27.2</ele>
        <time>2020-08-08T11:23:51Z</time>
      </trkpt>
      <trkpt lat="41.0421210" lon="0.6328350">
        <ele>27.2</ele>
        <time>2020-08-08T11:23:55Z</time>
      </trkpt>
      <trkpt lat="41.0420960" lon="0.6328510">
        <ele>27.2</ele>
        <time>2020-08-08T11:23:56Z</time>
      </trkpt>
      <trkpt lat="41.0420750" lon="0.6328670">
        <ele>27.1</ele>
        <time>2020-08-08T11:23:57Z</time>
      </trkpt>
      <trkpt lat="41.0420540" lon="0.6328810">
        <ele>27.1</ele>
        <time>2020-08-08T11:23:59Z</time>
      </trkpt>
      <trkpt lat="41.0420430" lon="0.6328790">
        <ele>27.1</ele>
        <time>2020-08-08T11:24:00Z</time>
      </trkpt>
      <trkpt lat="41.0420350" lon="0.6328800">
        <ele>28.0</ele>
        <time>2020-08-08T11:24:01Z</time>
      </trkpt>
      <trkpt lat="41.0420150" lon="0.6328830">
        <ele>28.4</ele>
        <time>2020-08-08T11:24:03Z</time>
      </trkpt>
      <trkpt lat="41.0420060" lon="0.6328840">
        <ele>28.6</ele>
        <time>2020-08-08T11:24:04Z</time>
      </trkpt>
      <trkpt lat="41.0419980" lon="0.6328860">
        <ele>28.8</ele>
        <time>2020-08-08T11:24:05Z</time>
      </trkpt>
      <trkpt lat="41.0419920" lon="0.6328870">
        <ele>28.9</ele>
        <time>2020-08-08T11:24:06Z</time>
      </trkpt>
      <trkpt lat="41.0419810" lon="0.6328900">
        <ele>29.1</ele>
        <time>2020-08-08T11:24:08Z</time>
      </trkpt>
      <trkpt lat="41.0419100" lon="0.6329270">
        <ele>29.5</ele>
        <time>2020-08-08T11:24:17Z</time>
      </trkpt>
      <trkpt lat="41.0417990" lon="0.6329860">
        <ele>29.2</ele>
        <time>2020-08-08T11:24:22Z</time>
      </trkpt>
      <trkpt lat="41.0417070" lon="0.6330080">
        <ele>28.7</ele>
        <time>2020-08-08T11:24:23Z</time>
      </trkpt>
      <trkpt lat="41.0416960" lon="0.6330130">
        <ele>28.6</ele>
        <time>2020-08-08T11:24:24Z</time>
      </trkpt>
      <trkpt lat="41.0417000" lon="0.6330250">
        <ele>28.6</ele>
        <time>2020-08-08T11:24:26Z</time>
      </trkpt>
      <trkpt lat="41.0416930" lon="0.6330380">
        <ele>28.5</ele>
        <time>2020-08-08T11:24:28Z</time>
      </trkpt>
      <trkpt lat="41.0416860" lon="0.6330320">
        <ele>28.5</ele>
        <time>2020-08-08T11:24:29Z</time>
      </trkpt>
      <trkpt lat="41.0416800" lon="0.6330260">
        <ele>28.4</ele>
        <time>2020-08-08T11:24:30Z</time>
      </trkpt>
      <trkpt lat="41.0416650" lon="0.6330260">
        <ele>28.3</ele>
        <time>2020-08-08T11:24:31Z</time>
      </trkpt>
      <trkpt lat="41.0416350" lon="0.6330470">
        <ele>28.2</ele>
        <time>2020-08-08T11:24:33Z</time>
      </trkpt>
      <trkpt lat="41.0416340" lon="0.6330870">
        <ele>28.3</ele>
        <time>2020-08-08T11:24:34Z</time>
      </trkpt>
      <trkpt lat="41.0416370" lon="0.6331400">
        <ele>28.3</ele>
        <time>2020-08-08T11:24:36Z</time>
      </trkpt>
      <trkpt lat="41.0416420" lon="0.6331790">
        <ele>28.3</ele>
        <time>2020-08-08T11:24:37Z</time>
      </trkpt>
      <trkpt lat="41.0416500" lon="0.6332220">
        <ele>28.3</ele>
        <time>2020-08-08T11:24:38Z</time>
      </trkpt>
      <trkpt lat="41.0416560" lon="0.6332360">
        <ele>28.3</ele>
        <time>2020-08-08T11:24:39Z</time>
      </trkpt>
      <trkpt lat="41.0416650" lon="0.6332570">
        <ele>28.3</ele>
        <time>2020-08-08T11:24:40Z</time>
      </trkpt>
      <trkpt lat="41.0416830" lon="0.6332960">
        <ele>28.3</ele>
        <time>2020-08-08T11:24:42Z</time>
      </trkpt>
      <trkpt lat="41.0416920" lon="0.6333310">
        <ele>28.2</ele>
        <time>2020-08-08T11:24:43Z</time>
      </trkpt>
      <trkpt lat="41.0417010" lon="0.6333680">
        <ele>28.2</ele>
        <time>2020-08-08T11:24:44Z</time>
      </trkpt>
      <trkpt lat="41.0417100" lon="0.6334050">
        <ele>28.4</ele>
        <time>2020-08-08T11:24:46Z</time>
      </trkpt>
      <trkpt lat="41.0417190" lon="0.6334410">
        <ele>28.5</ele>
        <time>2020-08-08T11:24:47Z</time>
      </trkpt>
      <trkpt lat="41.0417240" lon="0.6334760">
        <ele>28.6</ele>
        <time>2020-08-08T11:24:48Z</time>
      </trkpt>
      <trkpt lat="41.0417300" lon="0.6335090">
        <ele>28.6</ele>
        <time>2020-08-08T11:24:49Z</time>
      </trkpt>
      <trkpt lat="41.0417460" lon="0.6335560">
        <ele>28.7</ele>
        <time>2020-08-08T11:24:51Z</time>
      </trkpt>
      <trkpt lat="41.0417580" lon="0.6335880">
        <ele>28.8</ele>
        <time>2020-08-08T11:24:52Z</time>
      </trkpt>
      <trkpt lat="41.0417740" lon="0.6336170">
        <ele>28.9</ele>
        <time>2020-08-08T11:24:53Z</time>
      </trkpt>
      <trkpt lat="41.0417900" lon="0.6336600">
        <ele>29.0</ele>
        <time>2020-08-08T11:24:55Z</time>
      </trkpt>
      <trkpt lat="41.0418030" lon="0.6337080">
        <ele>28.9</ele>
        <time>2020-08-08T11:24:56Z</time>
      </trkpt>
      <trkpt lat="41.0418160" lon="0.6338050">
        <ele>28.5</ele>
        <time>2020-08-08T11:24:57Z</time>
      </trkpt>
      <trkpt lat="41.0418220" lon="0.6338930">
        <ele>28.3</ele>
        <time>2020-08-08T11:24:58Z</time>
      </trkpt>
      <trkpt lat="41.0418260" lon="0.6339700">
        <ele>28.1</ele>
        <time>2020-08-08T11:24:59Z</time>
      </trkpt>
      <trkpt lat="41.0418360" lon="0.6340650">
        <ele>27.8</ele>
        <time>2020-08-08T11:25:01Z</time>
      </trkpt>
      <trkpt lat="41.0418450" lon="0.6341180">
        <ele>27.6</ele>
        <time>2020-08-08T11:25:02Z</time>
      </trkpt>
      <trkpt lat="41.0418590" lon="0.6341570">
        <ele>27.5</ele>
        <time>2020-08-08T11:25:03Z</time>
      </trkpt>
      <trkpt lat="41.0418720" lon="0.6341930">
        <ele>27.4</ele>
        <time>2020-08-08T11:25:04Z</time>
      </trkpt>
      <trkpt lat="41.0418810" lon="0.6342260">
        <ele>27.4</ele>
        <time>2020-08-08T11:25:05Z</time>
      </trkpt>
      <trkpt lat="41.0418930" lon="0.6342880">
        <ele>27.4</ele>
        <time>2020-08-08T11:25:07Z</time>
      </trkpt>
      <trkpt lat="41.0418940" lon="0.6343370">
        <ele>27.4</ele>
        <time>2020-08-08T11:25:08Z</time>
      </trkpt>
      <trkpt lat="41.0418850" lon="0.6343820">
        <ele>27.3</ele>
        <time>2020-08-08T11:25:09Z</time>
      </trkpt>
      <trkpt lat="41.0418640" lon="0.6344270">
        <ele>27.4</ele>
        <time>2020-08-08T11:25:11Z</time>
      </trkpt>
      <trkpt lat="41.0418410" lon="0.6344670">
        <ele>27.4</ele>
        <time>2020-08-08T11:25:12Z</time>
      </trkpt>
      <trkpt lat="41.0418330" lon="0.6344770">
        <ele>27.4</ele>
        <time>2020-08-08T11:25:13Z</time>
      </trkpt>
      <trkpt lat="41.0418160" lon="0.6345000">
        <ele>27.4</ele>
        <time>2020-08-08T11:25:14Z</time>
      </trkpt>
      <trkpt lat="41.0417920" lon="0.6345160">
        <ele>27.4</ele>
        <time>2020-08-08T11:25:16Z</time>
      </trkpt>
      <trkpt lat="41.0417620" lon="0.6345120">
        <ele>27.4</ele>
        <time>2020-08-08T11:25:17Z</time>
      </trkpt>
      <trkpt lat="41.0417460" lon="0.6344970">
        <ele>27.4</ele>
        <time>2020-08-08T11:25:18Z</time>
      </trkpt>
      <trkpt lat="41.0417250" lon="0.6344750">
        <ele>27.4</ele>
        <time>2020-08-08T11:25:20Z</time>
      </trkpt>
      <trkpt lat="41.0417110" lon="0.6344570">
        <ele>27.4</ele>
        <time>2020-08-08T11:25:21Z</time>
      </trkpt>
      <trkpt lat="41.0416990" lon="0.6344420">
        <ele>27.4</ele>
        <time>2020-08-08T11:25:23Z</time>
      </trkpt>
      <trkpt lat="41.0416860" lon="0.6344400">
        <ele>27.4</ele>
        <time>2020-08-08T11:25:24Z</time>
      </trkpt>
      <trkpt lat="41.0416750" lon="0.6344470">
        <ele>27.4</ele>
        <time>2020-08-08T11:25:25Z</time>
      </trkpt>
      <trkpt lat="41.0416760" lon="0.6344550">
        <ele>27.4</ele>
        <time>2020-08-08T11:25:27Z</time>
      </trkpt>
      <trkpt lat="41.0416930" lon="0.6344430">
        <ele>27.4</ele>
        <time>2020-08-08T11:25:29Z</time>
      </trkpt>
      <trkpt lat="41.0416970" lon="0.6344390">
        <ele>27.4</ele>
        <time>2020-08-08T11:25:30Z</time>
      </trkpt>
      <trkpt lat="41.0416990" lon="0.6344370">
        <ele>27.4</ele>
        <time>2020-08-08T11:25:31Z</time>
      </trkpt>
      <trkpt lat="41.0417000" lon="0.6344380">
        <ele>27.4</ele>
        <time>2020-08-08T11:25:33Z</time>
      </trkpt>
      <trkpt lat="41.0416980" lon="0.6344410">
        <ele>27.4</ele>
        <time>2020-08-08T11:25:35Z</time>
      </trkpt>
      <trkpt lat="41.0416980" lon="0.6344410">
        <ele>27.4</ele>
        <time>2020-08-08T11:25:36Z</time>
      </trkpt>
      <trkpt lat="41.0416980" lon="0.6344410">
        <ele>27.4</ele>
        <time>2020-08-08T11:25:37Z</time>
      </trkpt>
      <trkpt lat="41.0416980" lon="0.6344410">
        <ele>27.4</ele>
        <time>2020-08-08T11:25:39Z</time>
      </trkpt>
      <trkpt lat="41.0416980" lon="0.6344410">
        <ele>27.4</ele>
        <time>2020-08-08T11:25:40Z</time>
      </trkpt>
      <trkpt lat="41.0416980" lon="0.6344410">
        <ele>27.4</ele>
        <time>2020-08-08T11:25:42Z</time>
      </trkpt>
      <trkpt lat="41.0416980" lon="0.6344790">
        <ele>27.4</ele>
        <time>2020-08-08T11:26:24Z</time>
      </trkpt>
      <trkpt lat="41.0417130" lon="0.6344860">
        <ele>27.4</ele>
        <time>2020-08-08T11:26:26Z</time>
      </trkpt>
      <trkpt lat="41.0417140" lon="0.6344860">
        <ele>27.4</ele>
        <time>2020-08-08T11:26:27Z</time>
      </trkpt>
      <trkpt lat="41.0417160" lon="0.6344780">
        <ele>27.4</ele>
        <time>2020-08-08T11:26:29Z</time>
      </trkpt>
      <trkpt lat="41.0417160" lon="0.6344730">
        <ele>27.4</ele>
        <time>2020-08-08T11:26:30Z</time>
      </trkpt>
      <trkpt lat="41.0417200" lon="0.6344670">
        <ele>27.4</ele>
        <time>2020-08-08T11:26:32Z</time>
      </trkpt>
      <trkpt lat="41.0417310" lon="0.6344730">
        <ele>27.4</ele>
        <time>2020-08-08T11:26:34Z</time>
      </trkpt>
      <trkpt lat="41.0417330" lon="0.6344830">
        <ele>27.4</ele>
        <time>2020-08-08T11:26:36Z</time>
      </trkpt>
      <trkpt lat="41.0417290" lon="0.6344830">
        <ele>27.4</ele>
        <time>2020-08-08T11:26:37Z</time>
      </trkpt>
      <trkpt lat="41.0417280" lon="0.6344840">
        <ele>27.4</ele>
        <time>2020-08-08T11:26:38Z</time>
      </trkpt>
      <trkpt lat="41.0417280" lon="0.6344840">
        <ele>27.4</ele>
        <time>2020-08-08T11:26:39Z</time>
      </trkpt>
      <trkpt lat="41.0417280" lon="0.6344840">
        <ele>27.4</ele>
        <time>2020-08-08T11:26:40Z</time>
      </trkpt>
      <trkpt lat="41.0417280" lon="0.6344860">
        <ele>27.4</ele>
        <time>2020-08-08T11:26:41Z</time>
      </trkpt>
      <trkpt lat="41.0417300" lon="0.6345080">
        <ele>27.4</ele>
        <time>2020-08-08T11:26:43Z</time>
      </trkpt>
      <trkpt lat="41.0417330" lon="0.6345170">
        <ele>27.4</ele>
        <time>2020-08-08T11:26:45Z</time>
      </trkpt>
      <trkpt lat="41.0417340" lon="0.6345180">
        <ele>27.4</ele>
        <time>2020-08-08T11:26:46Z</time>
      </trkpt>
      <trkpt lat="41.0417350" lon="0.6345160">
        <ele>27.4</ele>
        <time>2020-08-08T11:26:48Z</time>
      </trkpt>
      <trkpt lat="41.0417300" lon="0.6345140">
        <ele>27.4</ele>
        <time>2020-08-08T11:26:50Z</time>
      </trkpt>
      <trkpt lat="41.0417280" lon="0.6345140">
        <ele>27.4</ele>
        <time>2020-08-08T11:26:51Z</time>
      </trkpt>
      <trkpt lat="41.0417270" lon="0.6345130">
        <ele>27.4</ele>
        <time>2020-08-08T11:26:52Z</time>
      </trkpt>
      <trkpt lat="41.0417280" lon="0.6345130">
        <ele>27.4</ele>
        <time>2020-08-08T11:26:54Z</time>
      </trkpt>
      <trkpt lat="41.0417290" lon="0.6345130">
        <ele>27.4</ele>
        <time>2020-08-08T11:26:55Z</time>
      </trkpt>
      <trkpt lat="41.0417080" lon="0.6344600">
        <ele>27.4</ele>
        <time>2020-08-08T11:42:47Z</time>
      </trkpt>
      <trkpt lat="41.0417090" lon="0.6344470">
        <ele>27.4</ele>
        <time>2020-08-08T11:42:48Z</time>
      </trkpt>
      <trkpt lat="41.0417290" lon="0.6344230">
        <ele>27.4</ele>
        <time>2020-08-08T11:42:50Z</time>
      </trkpt>
      <trkpt lat="41.0417560" lon="0.6344380">
        <ele>27.4</ele>
        <time>2020-08-08T11:42:51Z</time>
      </trkpt>
      <trkpt lat="41.0417640" lon="0.6344490">
        <ele>27.4</ele>
        <time>2020-08-08T11:42:52Z</time>
      </trkpt>
      <trkpt lat="41.0417800" lon="0.6344750">
        <ele>27.4</ele>
        <time>2020-08-08T11:42:53Z</time>
      </trkpt>
      <trkpt lat="41.0418150" lon="0.6345030">
        <ele>27.4</ele>
        <time>2020-08-08T11:42:55Z</time>
      </trkpt>
      <trkpt lat="41.0418670" lon="0.6344880">
        <ele>27.3</ele>
        <time>2020-08-08T11:42:57Z</time>
      </trkpt>
      <trkpt lat="41.0418920" lon="0.6344650">
        <ele>27.3</ele>
        <time>2020-08-08T11:42:58Z</time>
      </trkpt>
      <trkpt lat="41.0419140" lon="0.6344400">
        <ele>27.3</ele>
        <time>2020-08-08T11:42:59Z</time>
      </trkpt>
      <trkpt lat="41.0419400" lon="0.6344060">
        <ele>27.3</ele>
        <time>2020-08-08T11:43:00Z</time>
      </trkpt>
      <trkpt lat="41.0419470" lon="0.6343960">
        <ele>27.3</ele>
        <time>2020-08-08T11:43:01Z</time>
      </trkpt>
      <trkpt lat="41.0419630" lon="0.6343540">
        <ele>27.3</ele>
        <time>2020-08-08T11:43:03Z</time>
      </trkpt>
      <trkpt lat="41.0419660" lon="0.6343350">
        <ele>27.3</ele>
        <time>2020-08-08T11:43:04Z</time>
      </trkpt>
      <trkpt lat="41.0419700" lon="0.6343020">
        <ele>27.3</ele>
        <time>2020-08-08T11:43:06Z</time>
      </trkpt>
      <trkpt lat="41.0419600" lon="0.6342850">
        <ele>27.3</ele>
        <time>2020-08-08T11:43:08Z</time>
      </trkpt>
      <trkpt lat="41.0419450" lon="0.6342830">
        <ele>27.4</ele>
        <time>2020-08-08T11:43:09Z</time>
      </trkpt>
      <trkpt lat="41.0419270" lon="0.6342870">
        <ele>27.4</ele>
        <time>2020-08-08T11:43:11Z</time>
      </trkpt>
      <trkpt lat="41.0419230" lon="0.6342900">
        <ele>27.4</ele>
        <time>2020-08-08T11:43:13Z</time>
      </trkpt>
      <trkpt lat="41.0419230" lon="0.6342890">
        <ele>27.4</ele>
        <time>2020-08-08T11:43:14Z</time>
      </trkpt>
      <trkpt lat="41.0419230" lon="0.6342880">
        <ele>27.4</ele>
        <time>2020-08-08T11:43:16Z</time>
      </trkpt>
      <trkpt lat="41.0419220" lon="0.6342860">
        <ele>27.4</ele>
        <time>2020-08-08T11:43:17Z</time>
      </trkpt>
      <trkpt lat="41.0419190" lon="0.6342840">
        <ele>27.4</ele>
        <time>2020-08-08T11:43:19Z</time>
      </trkpt>
      <trkpt lat="41.0419170" lon="0.6342860">
        <ele>27.4</ele>
        <time>2020-08-08T11:43:20Z</time>
      </trkpt>
      <trkpt lat="41.0419130" lon="0.6342870">
        <ele>27.4</ele>
        <time>2020-08-08T11:43:22Z</time>
      </trkpt>
      <trkpt lat="41.0418870" lon="0.6342950">
        <ele>27.4</ele>
        <time>2020-08-08T11:43:33Z</time>
      </trkpt>
      <trkpt lat="41.0418890" lon="0.6342920">
        <ele>27.4</ele>
        <time>2020-08-08T11:43:34Z</time>
      </trkpt>
      <trkpt lat="41.0418880" lon="0.6342870">
        <ele>27.4</ele>
        <time>2020-08-08T11:43:36Z</time>
      </trkpt>
      <trkpt lat="41.0418870" lon="0.6342860">
        <ele>27.4</ele>
        <time>2020-08-08T11:43:37Z</time>
      </trkpt>
      <trkpt lat="41.0418860" lon="0.6342860">
        <ele>27.4</ele>
        <time>2020-08-08T11:43:38Z</time>
      </trkpt>
      <trkpt lat="41.0418850" lon="0.6342860">
        <ele>27.4</ele>
        <time>2020-08-08T11:43:39Z</time>
      </trkpt>
      <trkpt lat="41.0418810" lon="0.6342790">
        <ele>27.4</ele>
        <time>2020-08-08T11:43:40Z</time>
      </trkpt>
      <trkpt lat="41.0418670" lon="0.6342430">
        <ele>27.4</ele>
        <time>2020-08-08T11:43:42Z</time>
      </trkpt>
      <trkpt lat="41.0418620" lon="0.6342190">
        <ele>27.4</ele>
        <time>2020-08-08T11:43:43Z</time>
      </trkpt>
      <trkpt lat="41.0418590" lon="0.6341990">
        <ele>27.5</ele>
        <time>2020-08-08T11:43:44Z</time>
      </trkpt>
      <trkpt lat="41.0418490" lon="0.6341700">
        <ele>27.5</ele>
        <time>2020-08-08T11:43:46Z</time>
      </trkpt>
      <trkpt lat="41.0418320" lon="0.6341440">
        <ele>27.5</ele>
        <time>2020-08-08T11:43:48Z</time>
      </trkpt>
      <trkpt lat="41.0418090" lon="0.6340970">
        <ele>27.7</ele>
        <time>2020-08-08T11:43:50Z</time>
      </trkpt>
      <trkpt lat="41.0417960" lon="0.6340630">
        <ele>27.9</ele>
        <time>2020-08-08T11:43:51Z</time>
      </trkpt>
      <trkpt lat="41.0417760" lon="0.6339790">
        <ele>28.2</ele>
        <time>2020-08-08T11:43:53Z</time>
      </trkpt>
      <trkpt lat="41.0417740" lon="0.6339360">
        <ele>28.3</ele>
        <time>2020-08-08T11:43:54Z</time>
      </trkpt>
      <trkpt lat="41.0417600" lon="0.6338560">
        <ele>28.5</ele>
        <time>2020-08-08T11:43:56Z</time>
      </trkpt>
      <trkpt lat="41.0417490" lon="0.6338180">
        <ele>28.6</ele>
        <time>2020-08-08T11:43:57Z</time>
      </trkpt>
      <trkpt lat="41.0417390" lon="0.6337820">
        <ele>28.7</ele>
        <time>2020-08-08T11:43:58Z</time>
      </trkpt>
      <trkpt lat="41.0417290" lon="0.6337420">
        <ele>28.9</ele>
        <time>2020-08-08T11:43:59Z</time>
      </trkpt>
      <trkpt lat="41.0417210" lon="0.6337030">
        <ele>29.0</ele>
        <time>2020-08-08T11:44:00Z</time>
      </trkpt>
      <trkpt lat="41.0417050" lon="0.6336320">
        <ele>28.8</ele>
        <time>2020-08-08T11:44:02Z</time>
      </trkpt>
      <trkpt lat="41.0416830" lon="0.6335520">
        <ele>28.6</ele>
        <time>2020-08-08T11:44:04Z</time>
      </trkpt>
      <trkpt lat="41.0416760" lon="0.6335090">
        <ele>28.6</ele>
        <time>2020-08-08T11:44:05Z</time>
      </trkpt>
      <trkpt lat="41.0416720" lon="0.6334660">
        <ele>28.5</ele>
        <time>2020-08-08T11:44:06Z</time>
      </trkpt>
      <trkpt lat="41.0416730" lon="0.6334240">
        <ele>28.4</ele>
        <time>2020-08-08T11:44:07Z</time>
      </trkpt>
      <trkpt lat="41.0416730" lon="0.6333780">
        <ele>28.3</ele>
        <time>2020-08-08T11:44:08Z</time>
      </trkpt>
      <trkpt lat="41.0416770" lon="0.6332870">
        <ele>28.3</ele>
        <time>2020-08-08T11:44:10Z</time>
      </trkpt>
      <trkpt lat="41.0416780" lon="0.6332400">
        <ele>28.3</ele>
        <time>2020-08-08T11:44:11Z</time>
      </trkpt>
      <trkpt lat="41.0416810" lon="0.6331550">
        <ele>28.3</ele>
        <time>2020-08-08T11:44:13Z</time>
      </trkpt>
      <trkpt lat="41.0416680" lon="0.6330530">
        <ele>28.2</ele>
        <time>2020-08-08T11:44:14Z</time>
      </trkpt>
      <trkpt lat="41.0416510" lon="0.6329820">
        <ele>28.4</ele>
        <time>2020-08-08T11:44:23Z</time>
      </trkpt>
      <trkpt lat="41.0416350" lon="0.6329120">
        <ele>28.5</ele>
        <time>2020-08-08T11:44:24Z</time>
      </trkpt>
      <trkpt lat="41.0416170" lon="0.6328560">
        <ele>28.5</ele>
        <time>2020-08-08T11:44:26Z</time>
      </trkpt>
      <trkpt lat="41.0416010" lon="0.6327990">
        <ele>28.6</ele>
        <time>2020-08-08T11:44:28Z</time>
      </trkpt>
      <trkpt lat="41.0415890" lon="0.6327560">
        <ele>28.6</ele>
        <time>2020-08-08T11:44:29Z</time>
      </trkpt>
      <trkpt lat="41.0415850" lon="0.6327420">
        <ele>28.6</ele>
        <time>2020-08-08T11:44:30Z</time>
      </trkpt>
      <trkpt lat="41.0415720" lon="0.6326640">
        <ele>28.6</ele>
        <time>2020-08-08T11:44:32Z</time>
      </trkpt>
      <trkpt lat="41.0415680" lon="0.6326140">
        <ele>28.5</ele>
        <time>2020-08-08T11:44:33Z</time>
      </trkpt>
      <trkpt lat="41.0415680" lon="0.6325310">
        <ele>28.5</ele>
        <time>2020-08-08T11:44:35Z</time>
      </trkpt>
      <trkpt lat="41.0415320" lon="0.6324130">
        <ele>29.0</ele>
        <time>2020-08-08T11:44:39Z</time>
      </trkpt>
      <trkpt lat="41.0415100" lon="0.6323710">
        <ele>29.2</ele>
        <time>2020-08-08T11:44:40Z</time>
      </trkpt>
      <trkpt lat="41.0414860" lon="0.6323330">
        <ele>29.3</ele>
        <time>2020-08-08T11:44:41Z</time>
      </trkpt>
      <trkpt lat="41.0414640" lon="0.6322950">
        <ele>29.5</ele>
        <time>2020-08-08T11:44:42Z</time>
      </trkpt>
      <trkpt lat="41.0414280" lon="0.6322180">
        <ele>29.8</ele>
        <time>2020-08-08T11:44:44Z</time>
      </trkpt>
      <trkpt lat="41.0414140" lon="0.6321780">
        <ele>29.7</ele>
        <time>2020-08-08T11:44:45Z</time>
      </trkpt>
      <trkpt lat="41.0413870" lon="0.6321060">
        <ele>29.7</ele>
        <time>2020-08-08T11:44:47Z</time>
      </trkpt>
      <trkpt lat="41.0413660" lon="0.6320700">
        <ele>29.6</ele>
        <time>2020-08-08T11:44:48Z</time>
      </trkpt>
      <trkpt lat="41.0413430" lon="0.6320380">
        <ele>29.6</ele>
        <time>2020-08-08T11:44:49Z</time>
      </trkpt>
      <trkpt lat="41.0413010" lon="0.6319730">
        <ele>29.5</ele>
        <time>2020-08-08T11:44:51Z</time>
      </trkpt>
      <trkpt lat="41.0412700" lon="0.6319070">
        <ele>29.0</ele>
        <time>2020-08-08T11:44:53Z</time>
      </trkpt>
      <trkpt lat="41.0412590" lon="0.6318750">
        <ele>28.6</ele>
        <time>2020-08-08T11:44:54Z</time>
      </trkpt>
      <trkpt lat="41.0412390" lon="0.6318070">
        <ele>28.0</ele>
        <time>2020-08-08T11:44:56Z</time>
      </trkpt>
      <trkpt lat="41.0412270" lon="0.6317710">
        <ele>27.7</ele>
        <time>2020-08-08T11:44:57Z</time>
      </trkpt>
      <trkpt lat="41.0412180" lon="0.6317520">
        <ele>27.6</ele>
        <time>2020-08-08T11:44:58Z</time>
      </trkpt>
      <trkpt lat="41.0411720" lon="0.6317100">
        <ele>27.5</ele>
        <time>2020-08-08T11:45:00Z</time>
      </trkpt>
      <trkpt lat="41.0411410" lon="0.6317010">
        <ele>27.4</ele>
        <time>2020-08-08T11:45:01Z</time>
      </trkpt>
      <trkpt lat="41.0410760" lon="0.6316860">
        <ele>27.4</ele>
        <time>2020-08-08T11:45:03Z</time>
      </trkpt>
      <trkpt lat="41.0410430" lon="0.6316720">
        <ele>27.3</ele>
        <time>2020-08-08T11:45:04Z</time>
      </trkpt>
      <trkpt lat="41.0409810" lon="0.6316400">
        <ele>27.2</ele>
        <time>2020-08-08T11:45:06Z</time>
      </trkpt>
      <trkpt lat="41.0409480" lon="0.6316190">
        <ele>27.1</ele>
        <time>2020-08-08T11:45:07Z</time>
      </trkpt>
      <trkpt lat="41.0409230" lon="0.6316040">
        <ele>27.1</ele>
        <time>2020-08-08T11:45:08Z</time>
      </trkpt>
      <trkpt lat="41.0408940" lon="0.6315860">
        <ele>27.1</ele>
        <time>2020-08-08T11:45:09Z</time>
      </trkpt>
      <trkpt lat="41.0408390" lon="0.6315480">
        <ele>27.1</ele>
        <time>2020-08-08T11:45:11Z</time>
      </trkpt>
      <trkpt lat="41.0408130" lon="0.6315270">
        <ele>27.0</ele>
        <time>2020-08-08T11:45:12Z</time>
      </trkpt>
      <trkpt lat="41.0407610" lon="0.6314840">
        <ele>27.0</ele>
        <time>2020-08-08T11:45:14Z</time>
      </trkpt>
      <trkpt lat="41.0407320" lon="0.6314590">
        <ele>27.0</ele>
        <time>2020-08-08T11:45:15Z</time>
      </trkpt>
      <trkpt lat="41.0407030" lon="0.6314330">
        <ele>27.0</ele>
        <time>2020-08-08T11:45:16Z</time>
      </trkpt>
      <trkpt lat="41.0406570" lon="0.6313910">
        <ele>26.9</ele>
        <time>2020-08-08T11:45:18Z</time>
      </trkpt>
      <trkpt lat="41.0406340" lon="0.6313710">
        <ele>26.9</ele>
        <time>2020-08-08T11:45:19Z</time>
      </trkpt>
      <trkpt lat="41.0406150" lon="0.6313550">
        <ele>26.9</ele>
        <time>2020-08-08T11:45:20Z</time>
      </trkpt>
      <trkpt lat="41.0405650" lon="0.6313070">
        <ele>26.9</ele>
        <time>2020-08-08T11:45:22Z</time>
      </trkpt>
      <trkpt lat="41.0405410" lon="0.6312760">
        <ele>26.8</ele>
        <time>2020-08-08T11:45:23Z</time>
      </trkpt>
      <trkpt lat="41.0404920" lon="0.6312140">
        <ele>26.8</ele>
        <time>2020-08-08T11:45:25Z</time>
      </trkpt>
      <trkpt lat="41.0404680" lon="0.6311840">
        <ele>26.8</ele>
        <time>2020-08-08T11:45:26Z</time>
      </trkpt>
      <trkpt lat="41.0404310" lon="0.6311190">
        <ele>26.8</ele>
        <time>2020-08-08T11:45:29Z</time>
      </trkpt>
      <trkpt lat="41.0403760" lon="0.6310550">
        <ele>26.8</ele>
        <time>2020-08-08T11:45:30Z</time>
      </trkpt>
      <trkpt lat="41.0403510" lon="0.6310340">
        <ele>26.7</ele>
        <time>2020-08-08T11:45:31Z</time>
      </trkpt>
      <trkpt lat="41.0402930" lon="0.6309800">
        <ele>26.7</ele>
        <time>2020-08-08T11:45:33Z</time>
      </trkpt>
      <trkpt lat="41.0402640" lon="0.6309500">
        <ele>26.7</ele>
        <time>2020-08-08T11:45:34Z</time>
      </trkpt>
      <trkpt lat="41.0402090" lon="0.6308880">
        <ele>26.7</ele>
        <time>2020-08-08T11:45:36Z</time>
      </trkpt>
      <trkpt lat="41.0401820" lon="0.6308580">
        <ele>26.7</ele>
        <time>2020-08-08T11:45:37Z</time>
      </trkpt>
      <trkpt lat="41.0401340" lon="0.6308030">
        <ele>26.7</ele>
        <time>2020-08-08T11:45:39Z</time>
      </trkpt>
      <trkpt lat="41.0401110" lon="0.6307650">
        <ele>26.7</ele>
        <time>2020-08-08T11:45:40Z</time>
      </trkpt>
      <trkpt lat="41.0400860" lon="0.6307260">
        <ele>26.7</ele>
        <time>2020-08-08T11:45:41Z</time>
      </trkpt>
      <trkpt lat="41.0400390" lon="0.6306660">
        <ele>26.7</ele>
        <time>2020-08-08T11:45:43Z</time>
      </trkpt>
      <trkpt lat="41.0399820" lon="0.6306090">
        <ele>26.7</ele>
        <time>2020-08-08T11:45:45Z</time>
      </trkpt>
      <trkpt lat="41.0399540" lon="0.6305840">
        <ele>26.8</ele>
        <time>2020-08-08T11:45:46Z</time>
      </trkpt>
      <trkpt lat="41.0399100" lon="0.6305490">
        <ele>26.7</ele>
        <time>2020-08-08T11:45:48Z</time>
      </trkpt>
      <trkpt lat="41.0398820" lon="0.6305290">
        <ele>26.7</ele>
        <time>2020-08-08T11:45:49Z</time>
      </trkpt>
      <trkpt lat="41.0398510" lon="0.6305060">
        <ele>26.6</ele>
        <time>2020-08-08T11:45:50Z</time>
      </trkpt>
      <trkpt lat="41.0397870" lon="0.6304630">
        <ele>26.5</ele>
        <time>2020-08-08T11:45:52Z</time>
      </trkpt>
      <trkpt lat="41.0397280" lon="0.6304270">
        <ele>26.3</ele>
        <time>2020-08-08T11:45:54Z</time>
      </trkpt>
      <trkpt lat="41.0396610" lon="0.6303980">
        <ele>26.3</ele>
        <time>2020-08-08T11:45:56Z</time>
      </trkpt>
      <trkpt lat="41.0395850" lon="0.6303640">
        <ele>26.2</ele>
        <time>2020-08-08T11:45:58Z</time>
      </trkpt>
      <trkpt lat="41.0395580" lon="0.6303480">
        <ele>26.2</ele>
        <time>2020-08-08T11:45:59Z</time>
      </trkpt>
      <trkpt lat="41.0394930" lon="0.6303130">
        <ele>26.2</ele>
        <time>2020-08-08T11:46:01Z</time>
      </trkpt>
      <trkpt lat="41.0394540" lon="0.6302940">
        <ele>26.2</ele>
        <time>2020-08-08T11:46:02Z</time>
      </trkpt>
      <trkpt lat="41.0393870" lon="0.6302620">
        <ele>26.2</ele>
        <time>2020-08-08T11:46:04Z</time>
      </trkpt>
      <trkpt lat="41.0393510" lon="0.6302460">
        <ele>26.2</ele>
        <time>2020-08-08T11:46:05Z</time>
      </trkpt>
      <trkpt lat="41.0393200" lon="0.6302320">
        <ele>26.2</ele>
        <time>2020-08-08T11:46:06Z</time>
      </trkpt>
      <trkpt lat="41.0392790" lon="0.6302140">
        <ele>26.2</ele>
        <time>2020-08-08T11:46:07Z</time>
      </trkpt>
      <trkpt lat="41.0392380" lon="0.6301960">
        <ele>26.1</ele>
        <time>2020-08-08T11:46:08Z</time>
      </trkpt>
      <trkpt lat="41.0391670" lon="0.6301670">
        <ele>26.0</ele>
        <time>2020-08-08T11:46:10Z</time>
      </trkpt>
      <trkpt lat="41.0390890" lon="0.6301390">
        <ele>25.8</ele>
        <time>2020-08-08T11:46:12Z</time>
      </trkpt>
      <trkpt lat="41.0390520" lon="0.6301270">
        <ele>25.7</ele>
        <time>2020-08-08T11:46:13Z</time>
      </trkpt>
      <trkpt lat="41.0390150" lon="0.6301160">
        <ele>25.7</ele>
        <time>2020-08-08T11:46:14Z</time>
      </trkpt>
      <trkpt lat="41.0389690" lon="0.6301000">
        <ele>25.6</ele>
        <time>2020-08-08T11:46:15Z</time>
      </trkpt>
      <trkpt lat="41.0388880" lon="0.6300740">
        <ele>25.5</ele>
        <time>2020-08-08T11:46:17Z</time>
      </trkpt>
      <trkpt lat="41.0388130" lon="0.6300540">
        <ele>25.4</ele>
        <time>2020-08-08T11:46:19Z</time>
      </trkpt>
      <trkpt lat="41.0387440" lon="0.6300310">
        <ele>25.3</ele>
        <time>2020-08-08T11:46:21Z</time>
      </trkpt>
      <trkpt lat="41.0387050" lon="0.6300150">
        <ele>25.2</ele>
        <time>2020-08-08T11:46:22Z</time>
      </trkpt>
      <trkpt lat="41.0386370" lon="0.6299870">
        <ele>25.2</ele>
        <time>2020-08-08T11:46:24Z</time>
      </trkpt>
      <trkpt lat="41.0385970" lon="0.6299710">
        <ele>25.1</ele>
        <time>2020-08-08T11:46:25Z</time>
      </trkpt>
      <trkpt lat="41.0385570" lon="0.6299560">
        <ele>25.1</ele>
        <time>2020-08-08T11:46:26Z</time>
      </trkpt>
      <trkpt lat="41.0384850" lon="0.6299260">
        <ele>25.0</ele>
        <time>2020-08-08T11:46:28Z</time>
      </trkpt>
      <trkpt lat="41.0384110" lon="0.6298960">
        <ele>24.9</ele>
        <time>2020-08-08T11:46:30Z</time>
      </trkpt>
      <trkpt lat="41.0383360" lon="0.6298600">
        <ele>24.7</ele>
        <time>2020-08-08T11:46:32Z</time>
      </trkpt>
      <trkpt lat="41.0382930" lon="0.6298370">
        <ele>24.7</ele>
        <time>2020-08-08T11:46:33Z</time>
      </trkpt>
      <trkpt lat="41.0382520" lon="0.6298140">
        <ele>24.6</ele>
        <time>2020-08-08T11:46:34Z</time>
      </trkpt>
      <trkpt lat="41.0382230" lon="0.6298000">
        <ele>24.6</ele>
        <time>2020-08-08T11:46:35Z</time>
      </trkpt>
      <trkpt lat="41.0381400" lon="0.6297570">
        <ele>24.5</ele>
        <time>2020-08-08T11:46:37Z</time>
      </trkpt>
      <trkpt lat="41.0381070" lon="0.6297380">
        <ele>24.4</ele>
        <time>2020-08-08T11:46:38Z</time>
      </trkpt>
      <trkpt lat="41.0380700" lon="0.6297160">
        <ele>24.4</ele>
        <time>2020-08-08T11:46:39Z</time>
      </trkpt>
      <trkpt lat="41.0379920" lon="0.6296670">
        <ele>24.4</ele>
        <time>2020-08-08T11:46:41Z</time>
      </trkpt>
      <trkpt lat="41.0379590" lon="0.6296470">
        <ele>24.3</ele>
        <time>2020-08-08T11:46:42Z</time>
      </trkpt>
      <trkpt lat="41.0379200" lon="0.6296280">
        <ele>24.3</ele>
        <time>2020-08-08T11:46:43Z</time>
      </trkpt>
      <trkpt lat="41.0378380" lon="0.6295940">
        <ele>24.3</ele>
        <time>2020-08-08T11:46:45Z</time>
      </trkpt>
      <trkpt lat="41.0377600" lon="0.6295530">
        <ele>24.3</ele>
        <time>2020-08-08T11:46:47Z</time>
      </trkpt>
      <trkpt lat="41.0377190" lon="0.6295280">
        <ele>24.3</ele>
        <time>2020-08-08T11:46:48Z</time>
      </trkpt>
      <trkpt lat="41.0376420" lon="0.6294790">
        <ele>24.3</ele>
        <time>2020-08-08T11:46:50Z</time>
      </trkpt>
      <trkpt lat="41.0376040" lon="0.6294540">
        <ele>24.4</ele>
        <time>2020-08-08T11:46:51Z</time>
      </trkpt>
      <trkpt lat="41.0375640" lon="0.6294290">
        <ele>24.4</ele>
        <time>2020-08-08T11:46:52Z</time>
      </trkpt>
      <trkpt lat="41.0374920" lon="0.6293840">
        <ele>24.5</ele>
        <time>2020-08-08T11:46:54Z</time>
      </trkpt>
      <trkpt lat="41.0374560" lon="0.6293660">
        <ele>24.5</ele>
        <time>2020-08-08T11:46:55Z</time>
      </trkpt>
      <trkpt lat="41.0374160" lon="0.6293550">
        <ele>24.5</ele>
        <time>2020-08-08T11:46:56Z</time>
      </trkpt>
      <trkpt lat="41.0373750" lon="0.6293430">
        <ele>24.5</ele>
        <time>2020-08-08T11:46:57Z</time>
      </trkpt>
      <trkpt lat="41.0373070" lon="0.6293000">
        <ele>24.5</ele>
        <time>2020-08-08T11:46:59Z</time>
      </trkpt>
      <trkpt lat="41.0372780" lon="0.6292760">
        <ele>24.5</ele>
        <time>2020-08-08T11:47:00Z</time>
      </trkpt>
      <trkpt lat="41.0372460" lon="0.6292530">
        <ele>24.5</ele>
        <time>2020-08-08T11:47:01Z</time>
      </trkpt>
      <trkpt lat="41.0371860" lon="0.6292150">
        <ele>24.6</ele>
        <time>2020-08-08T11:47:03Z</time>
      </trkpt>
      <trkpt lat="41.0371180" lon="0.6291800">
        <ele>24.8</ele>
        <time>2020-08-08T11:47:05Z</time>
      </trkpt>
      <trkpt lat="41.0370870" lon="0.6291560">
        <ele>24.9</ele>
        <time>2020-08-08T11:47:06Z</time>
      </trkpt>
      <trkpt lat="41.0370250" lon="0.6291140">
        <ele>25.1</ele>
        <time>2020-08-08T11:47:08Z</time>
      </trkpt>
      <trkpt lat="41.0369900" lon="0.6290910">
        <ele>25.2</ele>
        <time>2020-08-08T11:47:09Z</time>
      </trkpt>
      <trkpt lat="41.0369630" lon="0.6290760">
        <ele>25.3</ele>
        <time>2020-08-08T11:47:10Z</time>
      </trkpt>
      <trkpt lat="41.0369030" lon="0.6290480">
        <ele>25.5</ele>
        <time>2020-08-08T11:47:12Z</time>
      </trkpt>
      <trkpt lat="41.0368790" lon="0.6290370">
        <ele>25.6</ele>
        <time>2020-08-08T11:47:13Z</time>
      </trkpt>
      <trkpt lat="41.0368290" lon="0.6290040">
        <ele>25.8</ele>
        <time>2020-08-08T11:47:15Z</time>
      </trkpt>
      <trkpt lat="41.0367850" lon="0.6289660">
        <ele>26.0</ele>
        <time>2020-08-08T11:47:17Z</time>
      </trkpt>
      <trkpt lat="41.0367550" lon="0.6289420">
        <ele>26.1</ele>
        <time>2020-08-08T11:47:18Z</time>
      </trkpt>
      <trkpt lat="41.0367420" lon="0.6289320">
        <ele>26.1</ele>
        <time>2020-08-08T11:47:19Z</time>
      </trkpt>
      <trkpt lat="41.0367230" lon="0.6289210">
        <ele>26.2</ele>
        <time>2020-08-08T11:47:20Z</time>
      </trkpt>
      <trkpt lat="41.0366840" lon="0.6288980">
        <ele>26.2</ele>
        <time>2020-08-08T11:47:22Z</time>
      </trkpt>
      <trkpt lat="41.0366380" lon="0.6288700">
        <ele>26.4</ele>
        <time>2020-08-08T11:47:24Z</time>
      </trkpt>
      <trkpt lat="41.0366120" lon="0.6288520">
        <ele>26.5</ele>
        <time>2020-08-08T11:47:25Z</time>
      </trkpt>
      <trkpt lat="41.0366050" lon="0.6288480">
        <ele>26.5</ele>
        <time>2020-08-08T11:47:26Z</time>
      </trkpt>
      <trkpt lat="41.0366060" lon="0.6288460">
        <ele>26.5</ele>
        <time>2020-08-08T11:47:28Z</time>
      </trkpt>
      <trkpt lat="41.0366160" lon="0.6288460">
        <ele>26.5</ele>
        <time>2020-08-08T11:47:30Z</time>
      </trkpt>
      <trkpt lat="41.0366180" lon="0.6288450">
        <ele>26.5</ele>
        <time>2020-08-08T11:47:31Z</time>
      </trkpt>
      <trkpt lat="41.0366180" lon="0.6288440">
        <ele>26.5</ele>
        <time>2020-08-08T11:47:32Z</time>
      </trkpt>
      <trkpt lat="41.0366180" lon="0.6288430">
        <ele>26.5</ele>
        <time>2020-08-08T11:47:33Z</time>
      </trkpt>
      <trkpt lat="41.0366170" lon="0.6288420">
        <ele>26.5</ele>
        <time>2020-08-08T11:47:34Z</time>
      </trkpt>
      <trkpt lat="41.0366140" lon="0.6288420">
        <ele>26.5</ele>
        <time>2020-08-08T11:47:36Z</time>
      </trkpt>
      <trkpt lat="41.0366110" lon="0.6288410">
        <ele>26.5</ele>
        <time>2020-08-08T11:47:38Z</time>
      </trkpt>
      <trkpt lat="41.0366100" lon="0.6288410">
        <ele>26.6</ele>
        <time>2020-08-08T11:47:39Z</time>
      </trkpt>
      <trkpt lat="41.0366100" lon="0.6288400">
        <ele>26.6</ele>
        <time>2020-08-08T11:47:40Z</time>
      </trkpt>
      <trkpt lat="41.0365590" lon="0.6287930">
        <ele>26.7</ele>
        <time>2020-08-08T11:48:38Z</time>
      </trkpt>
      <trkpt lat="41.0365230" lon="0.6287620">
        <ele>26.9</ele>
        <time>2020-08-08T11:48:40Z</time>
      </trkpt>
      <trkpt lat="41.0365050" lon="0.6287490">
        <ele>26.9</ele>
        <time>2020-08-08T11:48:41Z</time>
      </trkpt>
      <trkpt lat="41.0365020" lon="0.6287370">
        <ele>27.0</ele>
        <time>2020-08-08T11:48:43Z</time>
      </trkpt>
      <trkpt lat="41.0364990" lon="0.6287210">
        <ele>27.0</ele>
        <time>2020-08-08T11:48:44Z</time>
      </trkpt>
      <trkpt lat="41.0364810" lon="0.6286990">
        <ele>27.1</ele>
        <time>2020-08-08T11:48:46Z</time>
      </trkpt>
      <trkpt lat="41.0363950" lon="0.6286350">
        <ele>27.4</ele>
        <time>2020-08-08T11:48:48Z</time>
      </trkpt>
      <trkpt lat="41.0363360" lon="0.6285870">
        <ele>27.5</ele>
        <time>2020-08-08T11:48:49Z</time>
      </trkpt>
      <trkpt lat="41.0362850" lon="0.6285350">
        <ele>27.5</ele>
        <time>2020-08-08T11:48:51Z</time>
      </trkpt>
      <trkpt lat="41.0361970" lon="0.6284550">
        <ele>27.4</ele>
        <time>2020-08-08T11:48:52Z</time>
      </trkpt>
      <trkpt lat="41.0361450" lon="0.6284040">
        <ele>27.3</ele>
        <time>2020-08-08T11:48:54Z</time>
      </trkpt>
      <trkpt lat="41.0360850" lon="0.6283430">
        <ele>27.1</ele>
        <time>2020-08-08T11:48:55Z</time>
      </trkpt>
      <trkpt lat="41.0360350" lon="0.6282950">
        <ele>27.0</ele>
        <time>2020-08-08T11:48:57Z</time>
      </trkpt>
      <trkpt lat="41.0359880" lon="0.6282570">
        <ele>27.0</ele>
        <time>2020-08-08T11:48:58Z</time>
      </trkpt>
      <trkpt lat="41.0359710" lon="0.6282120">
        <ele>26.9</ele>
        <time>2020-08-08T11:48:59Z</time>
      </trkpt>
      <trkpt lat="41.0359470" lon="0.6281860">
        <ele>26.9</ele>
        <time>2020-08-08T11:49:00Z</time>
      </trkpt>
      <trkpt lat="41.0359100" lon="0.6281410">
        <ele>26.8</ele>
        <time>2020-08-08T11:49:02Z</time>
      </trkpt>
      <trkpt lat="41.0358610" lon="0.6280820">
        <ele>26.6</ele>
        <time>2020-08-08T11:49:03Z</time>
      </trkpt>
      <trkpt lat="41.0358320" lon="0.6280400">
        <ele>26.5</ele>
        <time>2020-08-08T11:49:04Z</time>
      </trkpt>
      <trkpt lat="41.0357800" lon="0.6279490">
        <ele>26.2</ele>
        <time>2020-08-08T11:49:06Z</time>
      </trkpt>
      <trkpt lat="41.0357430" lon="0.6278760">
        <ele>26.2</ele>
        <time>2020-08-08T11:49:08Z</time>
      </trkpt>
      <trkpt lat="41.0357020" lon="0.6278100">
        <ele>26.2</ele>
        <time>2020-08-08T11:49:09Z</time>
      </trkpt>
      <trkpt lat="41.0356470" lon="0.6277370">
        <ele>26.2</ele>
        <time>2020-08-08T11:49:11Z</time>
      </trkpt>
      <trkpt lat="41.0355670" lon="0.6276110">
        <ele>26.2</ele>
        <time>2020-08-08T11:49:13Z</time>
      </trkpt>
      <trkpt lat="41.0355380" lon="0.6275600">
        <ele>26.2</ele>
        <time>2020-08-08T11:49:14Z</time>
      </trkpt>
      <trkpt lat="41.0355000" lon="0.6274880">
        <ele>26.2</ele>
        <time>2020-08-08T11:49:15Z</time>
      </trkpt>
      <trkpt lat="41.0354050" lon="0.6273230">
        <ele>26.2</ele>
        <time>2020-08-08T11:49:18Z</time>
      </trkpt>
      <trkpt lat="41.0353410" lon="0.6272080">
        <ele>26.2</ele>
        <time>2020-08-08T11:49:20Z</time>
      </trkpt>
      <trkpt lat="41.0353100" lon="0.6271560">
        <ele>26.2</ele>
        <time>2020-08-08T11:49:21Z</time>
      </trkpt>
      <trkpt lat="41.0352860" lon="0.6271090">
        <ele>26.2</ele>
        <time>2020-08-08T11:49:22Z</time>
      </trkpt>
      <trkpt lat="41.0352310" lon="0.6270240">
        <ele>26.2</ele>
        <time>2020-08-08T11:49:24Z</time>
      </trkpt>
      <trkpt lat="41.0351980" lon="0.6269820">
        <ele>26.2</ele>
        <time>2020-08-08T11:49:25Z</time>
      </trkpt>
      <trkpt lat="41.0351830" lon="0.6269570">
        <ele>26.2</ele>
        <time>2020-08-08T11:49:26Z</time>
      </trkpt>
      <trkpt lat="41.0351790" lon="0.6269140">
        <ele>26.2</ele>
        <time>2020-08-08T11:49:28Z</time>
      </trkpt>
      <trkpt lat="41.0350860" lon="0.6268230">
        <ele>26.0</ele>
        <time>2020-08-08T11:49:29Z</time>
      </trkpt>
      <trkpt lat="41.0350560" lon="0.6267760">
        <ele>25.9</ele>
        <time>2020-08-08T11:49:30Z</time>
      </trkpt>
      <trkpt lat="41.0350280" lon="0.6267350">
        <ele>25.8</ele>
        <time>2020-08-08T11:49:31Z</time>
      </trkpt>
      <trkpt lat="41.0349630" lon="0.6266370">
        <ele>25.6</ele>
        <time>2020-08-08T11:49:33Z</time>
      </trkpt>
      <trkpt lat="41.0349090" lon="0.6265510">
        <ele>25.6</ele>
        <time>2020-08-08T11:49:35Z</time>
      </trkpt>
      <trkpt lat="41.0348860" lon="0.6265050">
        <ele>25.6</ele>
        <time>2020-08-08T11:49:36Z</time>
      </trkpt>
      <trkpt lat="41.0348590" lon="0.6264630">
        <ele>25.6</ele>
        <time>2020-08-08T11:49:38Z</time>
      </trkpt>
      <trkpt lat="41.0348010" lon="0.6263790">
        <ele>25.6</ele>
        <time>2020-08-08T11:49:40Z</time>
      </trkpt>
      <trkpt lat="41.0347750" lon="0.6263340">
        <ele>25.6</ele>
        <time>2020-08-08T11:49:41Z</time>
      </trkpt>
      <trkpt lat="41.0346890" lon="0.6261870">
        <ele>25.7</ele>
        <time>2020-08-08T11:49:42Z</time>
      </trkpt>
      <trkpt lat="41.0346600" lon="0.6261370">
        <ele>25.7</ele>
        <time>2020-08-08T11:49:44Z</time>
      </trkpt>
      <trkpt lat="41.0346170" lon="0.6260090">
        <ele>25.8</ele>
        <time>2020-08-08T11:49:46Z</time>
      </trkpt>
      <trkpt lat="41.0345380" lon="0.6258280">
        <ele>25.8</ele>
        <time>2020-08-08T11:49:49Z</time>
      </trkpt>
      <trkpt lat="41.0345210" lon="0.6258150">
        <ele>25.8</ele>
        <time>2020-08-08T11:49:50Z</time>
      </trkpt>
      <trkpt lat="41.0344670" lon="0.6257320">
        <ele>25.9</ele>
        <time>2020-08-08T11:49:52Z</time>
      </trkpt>
      <trkpt lat="41.0344140" lon="0.6256380">
        <ele>26.0</ele>
        <time>2020-08-08T11:49:54Z</time>
      </trkpt>
      <trkpt lat="41.0343920" lon="0.6255960">
        <ele>26.0</ele>
        <time>2020-08-08T11:49:55Z</time>
      </trkpt>
      <trkpt lat="41.0343700" lon="0.6255580">
        <ele>26.0</ele>
        <time>2020-08-08T11:49:56Z</time>
      </trkpt>
      <trkpt lat="41.0343540" lon="0.6255380">
        <ele>26.0</ele>
        <time>2020-08-08T11:49:57Z</time>
      </trkpt>
      <trkpt lat="41.0343170" lon="0.6254950">
        <ele>26.0</ele>
        <time>2020-08-08T11:49:59Z</time>
      </trkpt>
      <trkpt lat="41.0342910" lon="0.6254570">
        <ele>26.0</ele>
        <time>2020-08-08T11:50:00Z</time>
      </trkpt>
      <trkpt lat="41.0342350" lon="0.6253930">
        <ele>26.1</ele>
        <time>2020-08-08T11:50:02Z</time>
      </trkpt>
      <trkpt lat="41.0342190" lon="0.6253730">
        <ele>26.1</ele>
        <time>2020-08-08T11:50:03Z</time>
      </trkpt>
      <trkpt lat="41.0342140" lon="0.6253480">
        <ele>26.1</ele>
        <time>2020-08-08T11:50:05Z</time>
      </trkpt>
      <trkpt lat="41.0342750" lon="0.6253240">
        <ele>26.1</ele>
        <time>2020-08-08T11:50:07Z</time>
      </trkpt>
      <trkpt lat="41.0342860" lon="0.6252780">
        <ele>26.1</ele>
        <time>2020-08-08T11:50:09Z</time>
      </trkpt>
      <trkpt lat="41.0342730" lon="0.6252440">
        <ele>26.1</ele>
        <time>2020-08-08T11:50:11Z</time>
      </trkpt>
      <trkpt lat="41.0342450" lon="0.6252080">
        <ele>26.1</ele>
        <time>2020-08-08T11:50:13Z</time>
      </trkpt>
      <trkpt lat="41.0342230" lon="0.6251570">
        <ele>26.1</ele>
        <time>2020-08-08T11:50:14Z</time>
      </trkpt>
      <trkpt lat="41.0341720" lon="0.6250840">
        <ele>26.1</ele>
        <time>2020-08-08T11:50:16Z</time>
      </trkpt>
      <trkpt lat="41.0341490" lon="0.6250450">
        <ele>26.2</ele>
        <time>2020-08-08T11:50:17Z</time>
      </trkpt>
      <trkpt lat="41.0341180" lon="0.6250120">
        <ele>26.2</ele>
        <time>2020-08-08T11:50:18Z</time>
      </trkpt>
      <trkpt lat="41.0340060" lon="0.6248760">
        <ele>26.4</ele>
        <time>2020-08-08T11:50:21Z</time>
      </trkpt>
      <trkpt lat="41.0338770" lon="0.6248620">
        <ele>26.5</ele>
        <time>2020-08-08T11:50:25Z</time>
      </trkpt>
      <trkpt lat="41.0337950" lon="0.6247910">
        <ele>26.6</ele>
        <time>2020-08-08T11:50:26Z</time>
      </trkpt>
      <trkpt lat="41.0336740" lon="0.6246200">
        <ele>26.7</ele>
        <time>2020-08-08T11:50:28Z</time>
      </trkpt>
      <trkpt lat="41.0335770" lon="0.6244240">
        <ele>26.5</ele>
        <time>2020-08-08T11:50:30Z</time>
      </trkpt>
      <trkpt lat="41.0335030" lon="0.6242880">
        <ele>26.5</ele>
        <time>2020-08-08T11:50:32Z</time>
      </trkpt>
      <trkpt lat="41.0334770" lon="0.6242400">
        <ele>26.5</ele>
        <time>2020-08-08T11:50:33Z</time>
      </trkpt>
      <trkpt lat="41.0334220" lon="0.6241440">
        <ele>26.5</ele>
        <time>2020-08-08T11:50:35Z</time>
      </trkpt>
      <trkpt lat="41.0333930" lon="0.6240990">
        <ele>26.5</ele>
        <time>2020-08-08T11:50:36Z</time>
      </trkpt>
      <trkpt lat="41.0333650" lon="0.6240570">
        <ele>26.5</ele>
        <time>2020-08-08T11:50:37Z</time>
      </trkpt>
      <trkpt lat="41.0333170" lon="0.6239700">
        <ele>26.6</ele>
        <time>2020-08-08T11:50:39Z</time>
      </trkpt>
      <trkpt lat="41.0332710" lon="0.6238930">
        <ele>26.7</ele>
        <time>2020-08-08T11:50:41Z</time>
      </trkpt>
      <trkpt lat="41.0332190" lon="0.6238120">
        <ele>26.7</ele>
        <time>2020-08-08T11:50:43Z</time>
      </trkpt>
      <trkpt lat="41.0331920" lon="0.6237640">
        <ele>26.8</ele>
        <time>2020-08-08T11:50:44Z</time>
      </trkpt>
      <trkpt lat="41.0331360" lon="0.6236730">
        <ele>26.8</ele>
        <time>2020-08-08T11:50:46Z</time>
      </trkpt>
      <trkpt lat="41.0331080" lon="0.6236290">
        <ele>26.9</ele>
        <time>2020-08-08T11:50:47Z</time>
      </trkpt>
      <trkpt lat="41.0330790" lon="0.6235800">
        <ele>26.9</ele>
        <time>2020-08-08T11:50:48Z</time>
      </trkpt>
      <trkpt lat="41.0330200" lon="0.6234840">
        <ele>27.0</ele>
        <time>2020-08-08T11:50:50Z</time>
      </trkpt>
      <trkpt lat="41.0329310" lon="0.6233240">
        <ele>27.1</ele>
        <time>2020-08-08T11:50:52Z</time>
      </trkpt>
      <trkpt lat="41.0329030" lon="0.6232670">
        <ele>27.2</ele>
        <time>2020-08-08T11:50:53Z</time>
      </trkpt>
      <trkpt lat="41.0328720" lon="0.6232140">
        <ele>27.3</ele>
        <time>2020-08-08T11:50:54Z</time>
      </trkpt>
      <trkpt lat="41.0328180" lon="0.6231260">
        <ele>27.3</ele>
        <time>2020-08-08T11:50:56Z</time>
      </trkpt>
      <trkpt lat="41.0327920" lon="0.6230850">
        <ele>27.3</ele>
        <time>2020-08-08T11:50:57Z</time>
      </trkpt>
      <trkpt lat="41.0327640" lon="0.6230440">
        <ele>27.4</ele>
        <time>2020-08-08T11:50:58Z</time>
      </trkpt>
      <trkpt lat="41.0327080" lon="0.6229290">
        <ele>27.4</ele>
        <time>2020-08-08T11:51:00Z</time>
      </trkpt>
      <trkpt lat="41.0326830" lon="0.6228680">
        <ele>27.4</ele>
        <time>2020-08-08T11:51:01Z</time>
      </trkpt>
      <trkpt lat="41.0326590" lon="0.6228090">
        <ele>27.5</ele>
        <time>2020-08-08T11:51:02Z</time>
      </trkpt>
      <trkpt lat="41.0326350" lon="0.6227530">
        <ele>27.5</ele>
        <time>2020-08-08T11:51:03Z</time>
      </trkpt>
      <trkpt lat="41.0325950" lon="0.6226320">
        <ele>27.6</ele>
        <time>2020-08-08T11:51:05Z</time>
      </trkpt>
      <trkpt lat="41.0325680" lon="0.6225290">
        <ele>27.7</ele>
        <time>2020-08-08T11:51:07Z</time>
      </trkpt>
      <trkpt lat="41.0325530" lon="0.6224750">
        <ele>27.7</ele>
        <time>2020-08-08T11:51:08Z</time>
      </trkpt>
      <trkpt lat="41.0325370" lon="0.6224200">
        <ele>27.6</ele>
        <time>2020-08-08T11:51:09Z</time>
      </trkpt>
      <trkpt lat="41.0325000" lon="0.6223130">
        <ele>27.6</ele>
        <time>2020-08-08T11:51:11Z</time>
      </trkpt>
      <trkpt lat="41.0324690" lon="0.6222170">
        <ele>27.6</ele>
        <time>2020-08-08T11:51:13Z</time>
      </trkpt>
      <trkpt lat="41.0324460" lon="0.6221480">
        <ele>27.6</ele>
        <time>2020-08-08T11:51:14Z</time>
      </trkpt>
      <trkpt lat="41.0324270" lon="0.6220230">
        <ele>27.6</ele>
        <time>2020-08-08T11:51:16Z</time>
      </trkpt>
      <trkpt lat="41.0324220" lon="0.6219640">
        <ele>27.6</ele>
        <time>2020-08-08T11:51:17Z</time>
      </trkpt>
      <trkpt lat="41.0324160" lon="0.6219080">
        <ele>27.7</ele>
        <time>2020-08-08T11:51:18Z</time>
      </trkpt>
      <trkpt lat="41.0324080" lon="0.6218540">
        <ele>27.7</ele>
        <time>2020-08-08T11:51:20Z</time>
      </trkpt>
      <trkpt lat="41.0323900" lon="0.6217380">
        <ele>27.7</ele>
        <time>2020-08-08T11:51:21Z</time>
      </trkpt>
      <trkpt lat="41.0323810" lon="0.6216830">
        <ele>27.8</ele>
        <time>2020-08-08T11:51:22Z</time>
      </trkpt>
      <trkpt lat="41.0323720" lon="0.6216210">
        <ele>27.8</ele>
        <time>2020-08-08T11:51:23Z</time>
      </trkpt>
      <trkpt lat="41.0323550" lon="0.6215100">
        <ele>27.8</ele>
        <time>2020-08-08T11:51:25Z</time>
      </trkpt>
      <trkpt lat="41.0323370" lon="0.6213820">
        <ele>27.9</ele>
        <time>2020-08-08T11:51:27Z</time>
      </trkpt>
      <trkpt lat="41.0323190" lon="0.6212620">
        <ele>28.0</ele>
        <time>2020-08-08T11:51:29Z</time>
      </trkpt>
      <trkpt lat="41.0323090" lon="0.6212010">
        <ele>28.0</ele>
        <time>2020-08-08T11:51:30Z</time>
      </trkpt>
      <trkpt lat="41.0322940" lon="0.6210730">
        <ele>28.0</ele>
        <time>2020-08-08T11:51:32Z</time>
      </trkpt>
      <trkpt lat="41.0322860" lon="0.6210160">
        <ele>28.0</ele>
        <time>2020-08-08T11:51:33Z</time>
      </trkpt>
      <trkpt lat="41.0322730" lon="0.6208880">
        <ele>28.0</ele>
        <time>2020-08-08T11:51:35Z</time>
      </trkpt>
      <trkpt lat="41.0322640" lon="0.6208150">
        <ele>28.1</ele>
        <time>2020-08-08T11:51:36Z</time>
      </trkpt>
      <trkpt lat="41.0322490" lon="0.6206850">
        <ele>28.1</ele>
        <time>2020-08-08T11:51:38Z</time>
      </trkpt>
      <trkpt lat="41.0322370" lon="0.6205610">
        <ele>28.1</ele>
        <time>2020-08-08T11:51:40Z</time>
      </trkpt>
      <trkpt lat="41.0322300" lon="0.6204910">
        <ele>28.2</ele>
        <time>2020-08-08T11:51:41Z</time>
      </trkpt>
      <trkpt lat="41.0322240" lon="0.6204200">
        <ele>28.2</ele>
        <time>2020-08-08T11:51:42Z</time>
      </trkpt>
      <trkpt lat="41.0322160" lon="0.6202830">
        <ele>28.3</ele>
        <time>2020-08-08T11:51:44Z</time>
      </trkpt>
      <trkpt lat="41.0322120" lon="0.6202120">
        <ele>28.3</ele>
        <time>2020-08-08T11:51:45Z</time>
      </trkpt>
      <trkpt lat="41.0322070" lon="0.6200710">
        <ele>28.4</ele>
        <time>2020-08-08T11:51:47Z</time>
      </trkpt>
      <trkpt lat="41.0322030" lon="0.6199440">
        <ele>28.5</ele>
        <time>2020-08-08T11:51:49Z</time>
      </trkpt>
      <trkpt lat="41.0322010" lon="0.6198810">
        <ele>28.5</ele>
        <time>2020-08-08T11:51:50Z</time>
      </trkpt>
      <trkpt lat="41.0321790" lon="0.6197670">
        <ele>28.6</ele>
        <time>2020-08-08T11:51:52Z</time>
      </trkpt>
      <trkpt lat="41.0321710" lon="0.6197150">
        <ele>28.6</ele>
        <time>2020-08-08T11:51:53Z</time>
      </trkpt>
      <trkpt lat="41.0321600" lon="0.6196230">
        <ele>28.5</ele>
        <time>2020-08-08T11:51:55Z</time>
      </trkpt>
      <trkpt lat="41.0321540" lon="0.6195620">
        <ele>28.4</ele>
        <time>2020-08-08T11:51:56Z</time>
      </trkpt>
      <trkpt lat="41.0321400" lon="0.6194410">
        <ele>28.3</ele>
        <time>2020-08-08T11:51:58Z</time>
      </trkpt>
      <trkpt lat="41.0321330" lon="0.6193790">
        <ele>28.2</ele>
        <time>2020-08-08T11:51:59Z</time>
      </trkpt>
      <trkpt lat="41.0321220" lon="0.6192750">
        <ele>28.2</ele>
        <time>2020-08-08T11:52:01Z</time>
      </trkpt>
      <trkpt lat="41.0321100" lon="0.6191680">
        <ele>28.2</ele>
        <time>2020-08-08T11:52:03Z</time>
      </trkpt>
      <trkpt lat="41.0321030" lon="0.6191010">
        <ele>28.2</ele>
        <time>2020-08-08T11:52:04Z</time>
      </trkpt>
      <trkpt lat="41.0321030" lon="0.6190110">
        <ele>28.3</ele>
        <time>2020-08-08T11:52:06Z</time>
      </trkpt>
      <trkpt lat="41.0321280" lon="0.6190600">
        <ele>28.3</ele>
        <time>2020-08-08T11:52:07Z</time>
      </trkpt>
      <trkpt lat="41.0321490" lon="0.6191100">
        <ele>28.4</ele>
        <time>2020-08-08T11:52:08Z</time>
      </trkpt>
      <trkpt lat="41.0321820" lon="0.6191540">
        <ele>28.4</ele>
        <time>2020-08-08T11:52:10Z</time>
      </trkpt>
      <trkpt lat="41.0322180" lon="0.6191210">
        <ele>28.4</ele>
        <time>2020-08-08T11:52:12Z</time>
      </trkpt>
      <trkpt lat="41.0322130" lon="0.6190260">
        <ele>28.5</ele>
        <time>2020-08-08T11:52:14Z</time>
      </trkpt>
      <trkpt lat="41.0321450" lon="0.6187470">
        <ele>28.7</ele>
        <time>2020-08-08T11:52:15Z</time>
      </trkpt>
      <trkpt lat="41.0321650" lon="0.6187170">
        <ele>28.7</ele>
        <time>2020-08-08T11:52:17Z</time>
      </trkpt>
      <trkpt lat="41.0320990" lon="0.6186030">
        <ele>28.8</ele>
        <time>2020-08-08T11:52:19Z</time>
      </trkpt>
      <trkpt lat="41.0320880" lon="0.6185620">
        <ele>28.8</ele>
        <time>2020-08-08T11:52:20Z</time>
      </trkpt>
      <trkpt lat="41.0320860" lon="0.6185420">
        <ele>28.8</ele>
        <time>2020-08-08T11:52:21Z</time>
      </trkpt>
      <trkpt lat="41.0320880" lon="0.6184590">
        <ele>28.8</ele>
        <time>2020-08-08T11:52:22Z</time>
      </trkpt>
      <trkpt lat="41.0320690" lon="0.6182060">
        <ele>29.0</ele>
        <time>2020-08-08T11:52:24Z</time>
      </trkpt>
      <trkpt lat="41.0320520" lon="0.6180260">
        <ele>29.1</ele>
        <time>2020-08-08T11:52:26Z</time>
      </trkpt>
      <trkpt lat="41.0320550" lon="0.6179910">
        <ele>29.2</ele>
        <time>2020-08-08T11:52:27Z</time>
      </trkpt>
      <trkpt lat="41.0320600" lon="0.6179790">
        <ele>29.2</ele>
        <time>2020-08-08T11:52:28Z</time>
      </trkpt>
      <trkpt lat="41.0320660" lon="0.6180320">
        <ele>29.2</ele>
        <time>2020-08-08T11:52:30Z</time>
      </trkpt>
      <trkpt lat="41.0320620" lon="0.6176070">
        <ele>29.5</ele>
        <time>2020-08-08T11:52:32Z</time>
      </trkpt>
      <trkpt lat="41.0320590" lon="0.6175410">
        <ele>29.5</ele>
        <time>2020-08-08T11:52:33Z</time>
      </trkpt>
      <trkpt lat="41.0320230" lon="0.6173750">
        <ele>29.4</ele>
        <time>2020-08-08T11:52:35Z</time>
      </trkpt>
      <trkpt lat="41.0320300" lon="0.6172890">
        <ele>29.3</ele>
        <time>2020-08-08T11:52:36Z</time>
      </trkpt>
      <trkpt lat="41.0320300" lon="0.6172080">
        <ele>29.2</ele>
        <time>2020-08-08T11:52:38Z</time>
      </trkpt>
      <trkpt lat="41.0320110" lon="0.6172740">
        <ele>29.2</ele>
        <time>2020-08-08T11:52:39Z</time>
      </trkpt>
      <trkpt lat="41.0320030" lon="0.6173450">
        <ele>29.2</ele>
        <time>2020-08-08T11:52:41Z</time>
      </trkpt>
      <trkpt lat="41.0320610" lon="0.6170870">
        <ele>29.3</ele>
        <time>2020-08-08T11:52:42Z</time>
      </trkpt>
      <trkpt lat="41.0320880" lon="0.6169410">
        <ele>29.3</ele>
        <time>2020-08-08T11:52:43Z</time>
      </trkpt>
      <trkpt lat="41.0320990" lon="0.6168540">
        <ele>29.4</ele>
        <time>2020-08-08T11:52:44Z</time>
      </trkpt>
      <trkpt lat="41.0320870" lon="0.6169070">
        <ele>29.4</ele>
        <time>2020-08-08T11:52:46Z</time>
      </trkpt>
      <trkpt lat="41.0320860" lon="0.6169230">
        <ele>29.4</ele>
        <time>2020-08-08T11:52:47Z</time>
      </trkpt>
      <trkpt lat="41.0320910" lon="0.6169090">
        <ele>29.4</ele>
        <time>2020-08-08T11:52:49Z</time>
      </trkpt>
      <trkpt lat="41.0320890" lon="0.6168650">
        <ele>29.4</ele>
        <time>2020-08-08T11:52:50Z</time>
      </trkpt>
      <trkpt lat="41.0320970" lon="0.6167120">
        <ele>29.4</ele>
        <time>2020-08-08T11:52:52Z</time>
      </trkpt>
      <trkpt lat="41.0321060" lon="0.6166490">
        <ele>29.5</ele>
        <time>2020-08-08T11:52:53Z</time>
      </trkpt>
      <trkpt lat="41.0321220" lon="0.6165430">
        <ele>29.5</ele>
        <time>2020-08-08T11:52:55Z</time>
      </trkpt>
      <trkpt lat="41.0321270" lon="0.6164860">
        <ele>29.5</ele>
        <time>2020-08-08T11:52:56Z</time>
      </trkpt>
      <trkpt lat="41.0321300" lon="0.6164440">
        <ele>29.6</ele>
        <time>2020-08-08T11:52:57Z</time>
      </trkpt>
      <trkpt lat="41.0321320" lon="0.6163720">
        <ele>29.6</ele>
        <time>2020-08-08T11:52:59Z</time>
      </trkpt>
      <trkpt lat="41.0321340" lon="0.6163490">
        <ele>29.6</ele>
        <time>2020-08-08T11:53:00Z</time>
      </trkpt>
      <trkpt lat="41.0321460" lon="0.6162600">
        <ele>29.6</ele>
        <time>2020-08-08T11:53:02Z</time>
      </trkpt>
      <trkpt lat="41.0322030" lon="0.6161370">
        <ele>29.6</ele>
        <time>2020-08-08T11:53:03Z</time>
      </trkpt>
      <trkpt lat="41.0322330" lon="0.6160510">
        <ele>29.6</ele>
        <time>2020-08-08T11:53:04Z</time>
      </trkpt>
      <trkpt lat="41.0322490" lon="0.6159240">
        <ele>29.7</ele>
        <time>2020-08-08T11:53:05Z</time>
      </trkpt>
      <trkpt lat="41.0322550" lon="0.6158000">
        <ele>29.6</ele>
        <time>2020-08-08T11:53:07Z</time>
      </trkpt>
      <trkpt lat="41.0322520" lon="0.6157030">
        <ele>29.6</ele>
        <time>2020-08-08T11:53:08Z</time>
      </trkpt>
      <trkpt lat="41.0322450" lon="0.6156500">
        <ele>29.6</ele>
        <time>2020-08-08T11:53:09Z</time>
      </trkpt>
      <trkpt lat="41.0322360" lon="0.6155530">
        <ele>29.6</ele>
        <time>2020-08-08T11:53:11Z</time>
      </trkpt>
      <trkpt lat="41.0322200" lon="0.6152180">
        <ele>29.4</ele>
        <time>2020-08-08T11:53:12Z</time>
      </trkpt>
      <trkpt lat="41.0322140" lon="0.6151060">
        <ele>29.4</ele>
        <time>2020-08-08T11:53:14Z</time>
      </trkpt>
      <trkpt lat="41.0322100" lon="0.6150140">
        <ele>29.3</ele>
        <time>2020-08-08T11:53:15Z</time>
      </trkpt>
      <trkpt lat="41.0321980" lon="0.6148730">
        <ele>29.2</ele>
        <time>2020-08-08T11:53:17Z</time>
      </trkpt>
      <trkpt lat="41.0321910" lon="0.6147900">
        <ele>29.1</ele>
        <time>2020-08-08T11:53:18Z</time>
      </trkpt>
      <trkpt lat="41.0321790" lon="0.6146600">
        <ele>29.0</ele>
        <time>2020-08-08T11:53:20Z</time>
      </trkpt>
      <trkpt lat="41.0321700" lon="0.6146010">
        <ele>29.0</ele>
        <time>2020-08-08T11:53:21Z</time>
      </trkpt>
      <trkpt lat="41.0321500" lon="0.6144720">
        <ele>28.9</ele>
        <time>2020-08-08T11:53:23Z</time>
      </trkpt>
      <trkpt lat="41.0321340" lon="0.6144020">
        <ele>28.9</ele>
        <time>2020-08-08T11:53:24Z</time>
      </trkpt>
      <trkpt lat="41.0321120" lon="0.6142740">
        <ele>28.7</ele>
        <time>2020-08-08T11:53:26Z</time>
      </trkpt>
      <trkpt lat="41.0320950" lon="0.6142170">
        <ele>28.7</ele>
        <time>2020-08-08T11:53:27Z</time>
      </trkpt>
      <trkpt lat="41.0320780" lon="0.6141530">
        <ele>28.6</ele>
        <time>2020-08-08T11:53:28Z</time>
      </trkpt>
      <trkpt lat="41.0320510" lon="0.6140220">
        <ele>28.4</ele>
        <time>2020-08-08T11:53:30Z</time>
      </trkpt>
      <trkpt lat="41.0320330" lon="0.6138930">
        <ele>28.3</ele>
        <time>2020-08-08T11:53:32Z</time>
      </trkpt>
      <trkpt lat="41.0320200" lon="0.6138320">
        <ele>28.2</ele>
        <time>2020-08-08T11:53:33Z</time>
      </trkpt>
      <trkpt lat="41.0319930" lon="0.6136970">
        <ele>28.1</ele>
        <time>2020-08-08T11:53:35Z</time>
      </trkpt>
      <trkpt lat="41.0319830" lon="0.6136250">
        <ele>28.0</ele>
        <time>2020-08-08T11:53:36Z</time>
      </trkpt>
      <trkpt lat="41.0319770" lon="0.6135540">
        <ele>28.0</ele>
        <time>2020-08-08T11:53:37Z</time>
      </trkpt>
      <trkpt lat="41.0319620" lon="0.6134180">
        <ele>27.9</ele>
        <time>2020-08-08T11:53:39Z</time>
      </trkpt>
      <trkpt lat="41.0319510" lon="0.6132880">
        <ele>27.8</ele>
        <time>2020-08-08T11:53:41Z</time>
      </trkpt>
      <trkpt lat="41.0319380" lon="0.6131440">
        <ele>27.8</ele>
        <time>2020-08-08T11:53:43Z</time>
      </trkpt>
      <trkpt lat="41.0319300" lon="0.6130690">
        <ele>27.8</ele>
        <time>2020-08-08T11:53:44Z</time>
      </trkpt>
      <trkpt lat="41.0319200" lon="0.6129240">
        <ele>27.8</ele>
        <time>2020-08-08T11:53:46Z</time>
      </trkpt>
      <trkpt lat="41.0319130" lon="0.6128500">
        <ele>27.8</ele>
        <time>2020-08-08T11:53:47Z</time>
      </trkpt>
      <trkpt lat="41.0319050" lon="0.6127080">
        <ele>27.9</ele>
        <time>2020-08-08T11:53:49Z</time>
      </trkpt>
      <trkpt lat="41.0319050" lon="0.6126380">
        <ele>28.0</ele>
        <time>2020-08-08T11:53:50Z</time>
      </trkpt>
      <trkpt lat="41.0319060" lon="0.6125110">
        <ele>28.2</ele>
        <time>2020-08-08T11:53:52Z</time>
      </trkpt>
      <trkpt lat="41.0319170" lon="0.6124450">
        <ele>28.3</ele>
        <time>2020-08-08T11:53:53Z</time>
      </trkpt>
      <trkpt lat="41.0319280" lon="0.6123800">
        <ele>28.4</ele>
        <time>2020-08-08T11:53:54Z</time>
      </trkpt>
      <trkpt lat="41.0319360" lon="0.6122650">
        <ele>28.4</ele>
        <time>2020-08-08T11:53:56Z</time>
      </trkpt>
      <trkpt lat="41.0319360" lon="0.6121490">
        <ele>28.5</ele>
        <time>2020-08-08T11:53:58Z</time>
      </trkpt>
      <trkpt lat="41.0319340" lon="0.6121000">
        <ele>28.5</ele>
        <time>2020-08-08T11:53:59Z</time>
      </trkpt>
      <trkpt lat="41.0319400" lon="0.6119950">
        <ele>28.5</ele>
        <time>2020-08-08T11:54:01Z</time>
      </trkpt>
      <trkpt lat="41.0319460" lon="0.6119490">
        <ele>28.5</ele>
        <time>2020-08-08T11:54:02Z</time>
      </trkpt>
      <trkpt lat="41.0319500" lon="0.6118450">
        <ele>28.6</ele>
        <time>2020-08-08T11:54:04Z</time>
      </trkpt>
      <trkpt lat="41.0319500" lon="0.6118030">
        <ele>28.6</ele>
        <time>2020-08-08T11:54:05Z</time>
      </trkpt>
      <trkpt lat="41.0319470" lon="0.6117510">
        <ele>28.6</ele>
        <time>2020-08-08T11:54:06Z</time>
      </trkpt>
      <trkpt lat="41.0319470" lon="0.6116490">
        <ele>28.6</ele>
        <time>2020-08-08T11:54:08Z</time>
      </trkpt>
      <trkpt lat="41.0319450" lon="0.6115940">
        <ele>28.6</ele>
        <time>2020-08-08T11:54:09Z</time>
      </trkpt>
      <trkpt lat="41.0319130" lon="0.6116430">
        <ele>28.7</ele>
        <time>2020-08-08T11:54:11Z</time>
      </trkpt>
      <trkpt lat="41.0319270" lon="0.6116110">
        <ele>28.7</ele>
        <time>2020-08-08T11:54:12Z</time>
      </trkpt>
      <trkpt lat="41.0319340" lon="0.6116000">
        <ele>28.7</ele>
        <time>2020-08-08T11:54:13Z</time>
      </trkpt>
      <trkpt lat="41.0319540" lon="0.6115650">
        <ele>28.6</ele>
        <time>2020-08-08T11:54:15Z</time>
      </trkpt>
      <trkpt lat="41.0319630" lon="0.6115240">
        <ele>28.6</ele>
        <time>2020-08-08T11:54:16Z</time>
      </trkpt>
      <trkpt lat="41.0319680" lon="0.6114780">
        <ele>28.6</ele>
        <time>2020-08-08T11:54:17Z</time>
      </trkpt>
      <trkpt lat="41.0319680" lon="0.6114630">
        <ele>28.7</ele>
        <time>2020-08-08T11:54:18Z</time>
      </trkpt>
      <trkpt lat="41.0319730" lon="0.6113340">
        <ele>28.7</ele>
        <time>2020-08-08T11:54:20Z</time>
      </trkpt>
      <trkpt lat="41.0319850" lon="0.6111370">
        <ele>28.7</ele>
        <time>2020-08-08T11:54:22Z</time>
      </trkpt>
      <trkpt lat="41.0319680" lon="0.6110330">
        <ele>28.7</ele>
        <time>2020-08-08T11:54:24Z</time>
      </trkpt>
      <trkpt lat="41.0319090" lon="0.6108260">
        <ele>28.7</ele>
        <time>2020-08-08T11:54:25Z</time>
      </trkpt>
      <trkpt lat="41.0318480" lon="0.6106390">
        <ele>28.7</ele>
        <time>2020-08-08T11:54:27Z</time>
      </trkpt>
      <trkpt lat="41.0318250" lon="0.6105600">
        <ele>28.7</ele>
        <time>2020-08-08T11:54:28Z</time>
      </trkpt>
      <trkpt lat="41.0318060" lon="0.6104880">
        <ele>28.7</ele>
        <time>2020-08-08T11:54:29Z</time>
      </trkpt>
      <trkpt lat="41.0318010" lon="0.6104160">
        <ele>28.7</ele>
        <time>2020-08-08T11:54:30Z</time>
      </trkpt>
      <trkpt lat="41.0318130" lon="0.6103260">
        <ele>28.7</ele>
        <time>2020-08-08T11:54:32Z</time>
      </trkpt>
      <trkpt lat="41.0317810" lon="0.6102260">
        <ele>28.6</ele>
        <time>2020-08-08T11:54:34Z</time>
      </trkpt>
      <trkpt lat="41.0317420" lon="0.6101400">
        <ele>28.5</ele>
        <time>2020-08-08T11:54:35Z</time>
      </trkpt>
      <trkpt lat="41.0317040" lon="0.6100050">
        <ele>28.4</ele>
        <time>2020-08-08T11:54:37Z</time>
      </trkpt>
      <trkpt lat="41.0316840" lon="0.6099410">
        <ele>28.4</ele>
        <time>2020-08-08T11:54:38Z</time>
      </trkpt>
      <trkpt lat="41.0316720" lon="0.6098830">
        <ele>28.3</ele>
        <time>2020-08-08T11:54:39Z</time>
      </trkpt>
      <trkpt lat="41.0316610" lon="0.6098230">
        <ele>28.3</ele>
        <time>2020-08-08T11:54:40Z</time>
      </trkpt>
      <trkpt lat="41.0316510" lon="0.6097640">
        <ele>28.3</ele>
        <time>2020-08-08T11:54:41Z</time>
      </trkpt>
      <trkpt lat="41.0316370" lon="0.6097030">
        <ele>28.2</ele>
        <time>2020-08-08T11:54:42Z</time>
      </trkpt>
      <trkpt lat="41.0316250" lon="0.6096420">
        <ele>28.2</ele>
        <time>2020-08-08T11:54:43Z</time>
      </trkpt>
      <trkpt lat="41.0315980" lon="0.6095230">
        <ele>28.1</ele>
        <time>2020-08-08T11:54:45Z</time>
      </trkpt>
      <trkpt lat="41.0315740" lon="0.6094060">
        <ele>28.1</ele>
        <time>2020-08-08T11:54:47Z</time>
      </trkpt>
      <trkpt lat="41.0315600" lon="0.6093400">
        <ele>28.0</ele>
        <time>2020-08-08T11:54:48Z</time>
      </trkpt>
      <trkpt lat="41.0315500" lon="0.6092760">
        <ele>28.0</ele>
        <time>2020-08-08T11:54:49Z</time>
      </trkpt>
      <trkpt lat="41.0315280" lon="0.6091480">
        <ele>28.0</ele>
        <time>2020-08-08T11:54:51Z</time>
      </trkpt>
      <trkpt lat="41.0315150" lon="0.6090830">
        <ele>28.0</ele>
        <time>2020-08-08T11:54:52Z</time>
      </trkpt>
      <trkpt lat="41.0314870" lon="0.6089590">
        <ele>28.0</ele>
        <time>2020-08-08T11:54:54Z</time>
      </trkpt>
      <trkpt lat="41.0314670" lon="0.6088350">
        <ele>27.9</ele>
        <time>2020-08-08T11:54:56Z</time>
      </trkpt>
      <trkpt lat="41.0314580" lon="0.6087720">
        <ele>27.9</ele>
        <time>2020-08-08T11:54:57Z</time>
      </trkpt>
      <trkpt lat="41.0314350" lon="0.6086450">
        <ele>27.8</ele>
        <time>2020-08-08T11:54:59Z</time>
      </trkpt>
      <trkpt lat="41.0314090" lon="0.6085200">
        <ele>27.8</ele>
        <time>2020-08-08T11:55:01Z</time>
      </trkpt>
      <trkpt lat="41.0313880" lon="0.6083900">
        <ele>27.8</ele>
        <time>2020-08-08T11:55:03Z</time>
      </trkpt>
      <trkpt lat="41.0313760" lon="0.6083250">
        <ele>27.9</ele>
        <time>2020-08-08T11:55:04Z</time>
      </trkpt>
      <trkpt lat="41.0313630" lon="0.6082000">
        <ele>27.9</ele>
        <time>2020-08-08T11:55:06Z</time>
      </trkpt>
      <trkpt lat="41.0313470" lon="0.6080860">
        <ele>28.0</ele>
        <time>2020-08-08T11:55:08Z</time>
      </trkpt>
      <trkpt lat="41.0313350" lon="0.6080290">
        <ele>28.0</ele>
        <time>2020-08-08T11:55:09Z</time>
      </trkpt>
      <trkpt lat="41.0313110" lon="0.6079150">
        <ele>28.0</ele>
        <time>2020-08-08T11:55:11Z</time>
      </trkpt>
      <trkpt lat="41.0313000" lon="0.6078550">
        <ele>28.0</ele>
        <time>2020-08-08T11:55:12Z</time>
      </trkpt>
      <trkpt lat="41.0312800" lon="0.6077560">
        <ele>28.1</ele>
        <time>2020-08-08T11:55:14Z</time>
      </trkpt>
      <trkpt lat="41.0312610" lon="0.6076490">
        <ele>28.7</ele>
        <time>2020-08-08T11:55:16Z</time>
      </trkpt>
      <trkpt lat="41.0312540" lon="0.6076070">
        <ele>28.7</ele>
        <time>2020-08-08T11:55:17Z</time>
      </trkpt>
      <trkpt lat="41.0312500" lon="0.6075620">
        <ele>28.7</ele>
        <time>2020-08-08T11:55:18Z</time>
      </trkpt>
      <trkpt lat="41.0312540" lon="0.6075190">
        <ele>28.6</ele>
        <time>2020-08-08T11:55:20Z</time>
      </trkpt>
      <trkpt lat="41.0312540" lon="0.6074770">
        <ele>28.0</ele>
        <time>2020-08-08T11:55:21Z</time>
      </trkpt>
      <trkpt lat="41.0312690" lon="0.6075570">
        <ele>27.7</ele>
        <time>2020-08-08T11:55:22Z</time>
      </trkpt>
      <trkpt lat="41.0312840" lon="0.6076480">
        <ele>27.5</ele>
        <time>2020-08-08T11:55:23Z</time>
      </trkpt>
      <trkpt lat="41.0312990" lon="0.6077380">
        <ele>27.3</ele>
        <time>2020-08-08T11:55:25Z</time>
      </trkpt>
      <trkpt lat="41.0313380" lon="0.6078330">
        <ele>27.0</ele>
        <time>2020-08-08T11:55:26Z</time>
      </trkpt>
      <trkpt lat="41.0313760" lon="0.6079220">
        <ele>26.8</ele>
        <time>2020-08-08T11:55:27Z</time>
      </trkpt>
      <trkpt lat="41.0314330" lon="0.6080750">
        <ele>26.4</ele>
        <time>2020-08-08T11:55:29Z</time>
      </trkpt>
      <trkpt lat="41.0314510" lon="0.6081460">
        <ele>26.2</ele>
        <time>2020-08-08T11:55:30Z</time>
      </trkpt>
      <trkpt lat="41.0314830" lon="0.6082910">
        <ele>25.5</ele>
        <time>2020-08-08T11:55:32Z</time>
      </trkpt>
      <trkpt lat="41.0314950" lon="0.6083540">
        <ele>25.2</ele>
        <time>2020-08-08T11:55:33Z</time>
      </trkpt>
      <trkpt lat="41.0315210" lon="0.6084660">
        <ele>24.8</ele>
        <time>2020-08-08T11:55:35Z</time>
      </trkpt>
      <trkpt lat="41.0315510" lon="0.6085800">
        <ele>24.4</ele>
        <time>2020-08-08T11:55:37Z</time>
      </trkpt>
      <trkpt lat="41.0315710" lon="0.6086380">
        <ele>24.1</ele>
        <time>2020-08-08T11:55:38Z</time>
      </trkpt>
      <trkpt lat="41.0316030" lon="0.6087350">
        <ele>23.7</ele>
        <time>2020-08-08T11:55:40Z</time>
      </trkpt>
      <trkpt lat="41.0316210" lon="0.6087780">
        <ele>23.6</ele>
        <time>2020-08-08T11:55:41Z</time>
      </trkpt>
      <trkpt lat="41.0316340" lon="0.6088110">
        <ele>23.4</ele>
        <time>2020-08-08T11:55:42Z</time>
      </trkpt>
      <trkpt lat="41.0316410" lon="0.6088330">
        <ele>23.3</ele>
        <time>2020-08-08T11:55:43Z</time>
      </trkpt>
      <trkpt lat="41.0316670" lon="0.6088890">
        <ele>23.0</ele>
        <time>2020-08-08T11:55:45Z</time>
      </trkpt>
      <trkpt lat="41.0316870" lon="0.6089060">
        <ele>22.8</ele>
        <time>2020-08-08T11:55:46Z</time>
      </trkpt>
      <trkpt lat="41.0317120" lon="0.6089160">
        <ele>22.6</ele>
        <time>2020-08-08T11:55:48Z</time>
      </trkpt>
      <trkpt lat="41.0317300" lon="0.6089320">
        <ele>22.4</ele>
        <time>2020-08-08T11:55:49Z</time>
      </trkpt>
      <trkpt lat="41.0317350" lon="0.6089380">
        <ele>22.4</ele>
        <time>2020-08-08T11:55:50Z</time>
      </trkpt>
      <trkpt lat="41.0317400" lon="0.6089450">
        <ele>22.3</ele>
        <time>2020-08-08T11:55:52Z</time>
      </trkpt>
      <trkpt lat="41.0317450" lon="0.6089510">
        <ele>22.3</ele>
        <time>2020-08-08T11:55:53Z</time>
      </trkpt>
      <trkpt lat="41.0317490" lon="0.6089580">
        <ele>22.2</ele>
        <time>2020-08-08T11:55:54Z</time>
      </trkpt>
      <trkpt lat="41.0317540" lon="0.6089640">
        <ele>22.2</ele>
        <time>2020-08-08T11:55:56Z</time>
      </trkpt>
      <trkpt lat="41.0317590" lon="0.6089710">
        <ele>22.1</ele>
        <time>2020-08-08T11:55:58Z</time>
      </trkpt>
      <trkpt lat="41.0317640" lon="0.6089770">
        <ele>22.1</ele>
        <time>2020-08-08T11:55:59Z</time>
      </trkpt>
      <trkpt lat="41.0317690" lon="0.6089840">
        <ele>22.0</ele>
        <time>2020-08-08T11:56:00Z</time>
      </trkpt>
      <trkpt lat="41.0317780" lon="0.6089950">
        <ele>21.9</ele>
        <time>2020-08-08T11:56:01Z</time>
      </trkpt>
      <trkpt lat="41.0317830" lon="0.6089940">
        <ele>21.9</ele>
        <time>2020-08-08T11:56:02Z</time>
      </trkpt>
      <trkpt lat="41.0317890" lon="0.6089930">
        <ele>21.8</ele>
        <time>2020-08-08T11:56:03Z</time>
      </trkpt>
      <trkpt lat="41.0317950" lon="0.6089920">
        <ele>21.8</ele>
        <time>2020-08-08T11:56:05Z</time>
      </trkpt>
      <trkpt lat="41.0318000" lon="0.6089910">
        <ele>21.7</ele>
        <time>2020-08-08T11:56:06Z</time>
      </trkpt>
      <trkpt lat="41.0318060" lon="0.6089900">
        <ele>21.7</ele>
        <time>2020-08-08T11:56:08Z</time>
      </trkpt>
      <trkpt lat="41.0318120" lon="0.6089890">
        <ele>21.6</ele>
        <time>2020-08-08T11:56:10Z</time>
      </trkpt>
      <trkpt lat="41.0318170" lon="0.6089880">
        <ele>21.6</ele>
        <time>2020-08-08T11:56:12Z</time>
      </trkpt>
      <trkpt lat="41.0318230" lon="0.6089870">
        <ele>21.6</ele>
        <time>2020-08-08T11:56:14Z</time>
      </trkpt>
      <trkpt lat="41.0318290" lon="0.6089860">
        <ele>21.5</ele>
        <time>2020-08-08T12:17:31Z</time>
      </trkpt>
      <trkpt lat="41.0318340" lon="0.6089850">
        <ele>21.5</ele>
        <time>2020-08-08T12:17:33Z</time>
      </trkpt>
      <trkpt lat="41.0318400" lon="0.6089840">
        <ele>21.4</ele>
        <time>2020-08-08T12:17:34Z</time>
      </trkpt>
      <trkpt lat="41.0318610" lon="0.6089830">
        <ele>21.2</ele>
        <time>2020-08-08T12:17:35Z</time>
      </trkpt>
      <trkpt lat="41.0318940" lon="0.6089770">
        <ele>21.0</ele>
        <time>2020-08-08T12:17:37Z</time>
      </trkpt>
      <trkpt lat="41.0319060" lon="0.6089990">
        <ele>20.8</ele>
        <time>2020-08-08T12:17:38Z</time>
      </trkpt>
      <trkpt lat="41.0319140" lon="0.6090170">
        <ele>20.6</ele>
        <time>2020-08-08T12:17:39Z</time>
      </trkpt>
      <trkpt lat="41.0319210" lon="0.6090190">
        <ele>20.6</ele>
        <time>2020-08-08T12:17:41Z</time>
      </trkpt>
      <trkpt lat="41.0319320" lon="0.6090150">
        <ele>20.5</ele>
        <time>2020-08-08T12:17:42Z</time>
      </trkpt>
      <trkpt lat="41.0319430" lon="0.6090010">
        <ele>20.4</ele>
        <time>2020-08-08T12:17:43Z</time>
      </trkpt>
      <trkpt lat="41.0319620" lon="0.6089660">
        <ele>20.2</ele>
        <time>2020-08-08T12:17:45Z</time>
      </trkpt>
      <trkpt lat="41.0319660" lon="0.6089550">
        <ele>20.1</ele>
        <time>2020-08-08T12:17:46Z</time>
      </trkpt>
      <trkpt lat="41.0319730" lon="0.6089310">
        <ele>20.0</ele>
        <time>2020-08-08T12:17:47Z</time>
      </trkpt>
      <trkpt lat="41.0319730" lon="0.6089240">
        <ele>20.0</ele>
        <time>2020-08-08T12:17:48Z</time>
      </trkpt>
      <trkpt lat="41.0319740" lon="0.6089140">
        <ele>19.9</ele>
        <time>2020-08-08T12:17:49Z</time>
      </trkpt>
      <trkpt lat="41.0319730" lon="0.6088890">
        <ele>19.9</ele>
        <time>2020-08-08T12:17:51Z</time>
      </trkpt>
      <trkpt lat="41.0319760" lon="0.6088820">
        <ele>19.9</ele>
        <time>2020-08-08T12:17:52Z</time>
      </trkpt>
      <trkpt lat="41.0319790" lon="0.6088750">
        <ele>19.8</ele>
        <time>2020-08-08T12:17:53Z</time>
      </trkpt>
      <trkpt lat="41.0319820" lon="0.6088680">
        <ele>19.8</ele>
        <time>2020-08-08T12:17:54Z</time>
      </trkpt>
      <trkpt lat="41.0319900" lon="0.6088540">
        <ele>19.8</ele>
        <time>2020-08-08T12:17:56Z</time>
      </trkpt>
      <trkpt lat="41.0319940" lon="0.6088420">
        <ele>19.8</ele>
        <time>2020-08-08T12:17:57Z</time>
      </trkpt>
      <trkpt lat="41.0320130" lon="0.6088210">
        <ele>19.8</ele>
        <time>2020-08-08T12:17:59Z</time>
      </trkpt>
      <trkpt lat="41.0320280" lon="0.6088140">
        <ele>19.7</ele>
        <time>2020-08-08T12:22:17Z</time>
      </trkpt>
      <trkpt lat="41.0320420" lon="0.6088080">
        <ele>19.7</ele>
        <time>2020-08-08T12:22:19Z</time>
      </trkpt>
      <trkpt lat="41.0320560" lon="0.6088010">
        <ele>19.7</ele>
        <time>2020-08-08T12:22:20Z</time>
      </trkpt>
      <trkpt lat="41.0320700" lon="0.6087950">
        <ele>19.6</ele>
        <time>2020-08-08T12:22:21Z</time>
      </trkpt>
      <trkpt lat="41.0320850" lon="0.6087880">
        <ele>19.6</ele>
        <time>2020-08-08T12:22:23Z</time>
      </trkpt>
      <trkpt lat="41.0320990" lon="0.6087820">
        <ele>19.5</ele>
        <time>2020-08-08T12:22:25Z</time>
      </trkpt>
      <trkpt lat="41.0321130" lon="0.6087750">
        <ele>19.5</ele>
        <time>2020-08-08T12:22:26Z</time>
      </trkpt>
      <trkpt lat="41.0321280" lon="0.6087690">
        <ele>19.5</ele>
        <time>2020-08-08T12:22:27Z</time>
      </trkpt>
      <trkpt lat="41.0321420" lon="0.6087620">
        <ele>19.4</ele>
        <time>2020-08-08T12:22:28Z</time>
      </trkpt>
      <trkpt lat="41.0321560" lon="0.6087560">
        <ele>19.4</ele>
        <time>2020-08-08T12:22:29Z</time>
      </trkpt>
      <trkpt lat="41.0321700" lon="0.6087490">
        <ele>19.4</ele>
        <time>2020-08-08T12:22:31Z</time>
      </trkpt>
      <trkpt lat="41.0321850" lon="0.6087430">
        <ele>19.4</ele>
        <time>2020-08-08T12:22:32Z</time>
      </trkpt>
      <trkpt lat="41.0321990" lon="0.6087370">
        <ele>19.4</ele>
        <time>2020-08-08T12:22:34Z</time>
      </trkpt>
      <trkpt lat="41.0322130" lon="0.6087300">
        <ele>19.3</ele>
        <time>2020-08-08T12:23:40Z</time>
      </trkpt>
      <trkpt lat="41.0322280" lon="0.6087240">
        <ele>19.3</ele>
        <time>2020-08-08T12:23:41Z</time>
      </trkpt>
      <trkpt lat="41.0322420" lon="0.6087170">
        <ele>19.3</ele>
        <time>2020-08-08T12:23:46Z</time>
      </trkpt>
      <trkpt lat="41.0322560" lon="0.6087110">
        <ele>19.3</ele>
        <time>2020-08-08T12:23:48Z</time>
      </trkpt>
      <trkpt lat="41.0322700" lon="0.6087040">
        <ele>19.4</ele>
        <time>2020-08-08T12:23:50Z</time>
      </trkpt>
      <trkpt lat="41.0322850" lon="0.6086980">
        <ele>19.4</ele>
        <time>2020-08-08T12:23:51Z</time>
      </trkpt>
      <trkpt lat="41.0322990" lon="0.6086910">
        <ele>19.4</ele>
        <time>2020-08-08T12:23:53Z</time>
      </trkpt>
      <trkpt lat="41.0323130" lon="0.6086850">
        <ele>19.4</ele>
        <time>2020-08-08T12:23:54Z</time>
      </trkpt>
      <trkpt lat="41.0323280" lon="0.6086780">
        <ele>19.4</ele>
        <time>2020-08-08T12:23:56Z</time>
      </trkpt>
      <trkpt lat="41.0323420" lon="0.6086720">
        <ele>19.4</ele>
        <time>2020-08-08T12:23:57Z</time>
      </trkpt>
      <trkpt lat="41.0323560" lon="0.6086650">
        <ele>19.5</ele>
        <time>2020-08-08T12:23:58Z</time>
      </trkpt>
      <trkpt lat="41.0323700" lon="0.6086590">
        <ele>19.5</ele>
        <time>2020-08-08T12:23:59Z</time>
      </trkpt>
      <trkpt lat="41.0323850" lon="0.6086520">
        <ele>19.5</ele>
        <time>2020-08-08T12:24:01Z</time>
      </trkpt>
      <trkpt lat="41.0323990" lon="0.6086460">
        <ele>19.5</ele>
        <time>2020-08-08T12:24:01Z</time>
      </trkpt>
      <trkpt lat="41.0324130" lon="0.6086360">
        <ele>19.5</ele>
        <time>2020-08-08T12:24:02Z</time>
      </trkpt>
      <trkpt lat="41.0324400" lon="0.6086200">
        <ele>19.6</ele>
        <time>2020-08-08T12:24:04Z</time>
      </trkpt>
      <trkpt lat="41.0324560" lon="0.6086130">
        <ele>19.6</ele>
        <time>2020-08-08T12:24:05Z</time>
      </trkpt>
      <trkpt lat="41.0324710" lon="0.6086060">
        <ele>19.6</ele>
        <time>2020-08-08T12:24:06Z</time>
      </trkpt>
      <trkpt lat="41.0324820" lon="0.6086010">
        <ele>19.6</ele>
        <time>2020-08-08T12:24:07Z</time>
      </trkpt>
      <trkpt lat="41.0324960" lon="0.6085960">
        <ele>19.6</ele>
        <time>2020-08-08T12:24:08Z</time>
      </trkpt>
      <trkpt lat="41.0325220" lon="0.6085820">
        <ele>19.6</ele>
        <time>2020-08-08T12:24:10Z</time>
      </trkpt>
      <trkpt lat="41.0325370" lon="0.6085730">
        <ele>19.6</ele>
        <time>2020-08-08T12:24:11Z</time>
      </trkpt>
      <trkpt lat="41.0325730" lon="0.6085530">
        <ele>19.6</ele>
        <time>2020-08-08T12:24:13Z</time>
      </trkpt>
      <trkpt lat="41.0326030" lon="0.6085360">
        <ele>19.7</ele>
        <time>2020-08-08T12:24:15Z</time>
      </trkpt>
      <trkpt lat="41.0326160" lon="0.6085290">
        <ele>19.7</ele>
        <time>2020-08-08T12:24:16Z</time>
      </trkpt>
      <trkpt lat="41.0326360" lon="0.6085240">
        <ele>19.7</ele>
        <time>2020-08-08T12:24:18Z</time>
      </trkpt>
      <trkpt lat="41.0326500" lon="0.6085260">
        <ele>19.7</ele>
        <time>2020-08-08T12:24:20Z</time>
      </trkpt>
      <trkpt lat="41.0326550" lon="0.6085290">
        <ele>19.7</ele>
        <time>2020-08-08T12:24:21Z</time>
      </trkpt>
      <trkpt lat="41.0326650" lon="0.6085340">
        <ele>19.7</ele>
        <time>2020-08-08T12:24:23Z</time>
      </trkpt>
      <trkpt lat="41.0326690" lon="0.6085350">
        <ele>19.7</ele>
        <time>2020-08-08T12:24:24Z</time>
      </trkpt>
      <trkpt lat="41.0326740" lon="0.6085350">
        <ele>19.7</ele>
        <time>2020-08-08T12:24:25Z</time>
      </trkpt>
      <trkpt lat="41.0326790" lon="0.6085340">
        <ele>19.7</ele>
        <time>2020-08-08T12:24:26Z</time>
      </trkpt>
      <trkpt lat="41.0326960" lon="0.6085220">
        <ele>19.7</ele>
        <time>2020-08-08T12:24:28Z</time>
      </trkpt>
      <trkpt lat="41.0327030" lon="0.6085130">
        <ele>19.7</ele>
        <time>2020-08-08T12:24:29Z</time>
      </trkpt>
      <trkpt lat="41.0327080" lon="0.6085050">
        <ele>19.7</ele>
        <time>2020-08-08T12:24:30Z</time>
      </trkpt>
      <trkpt lat="41.0327120" lon="0.6084970">
        <ele>19.7</ele>
        <time>2020-08-08T12:24:31Z</time>
      </trkpt>
      <trkpt lat="41.0327190" lon="0.6084870">
        <ele>19.7</ele>
        <time>2020-08-08T12:24:32Z</time>
      </trkpt>
      <trkpt lat="41.0327250" lon="0.6084790">
        <ele>19.7</ele>
        <time>2020-08-08T12:24:33Z</time>
      </trkpt>
      <trkpt lat="41.0327290" lon="0.6084740">
        <ele>19.7</ele>
        <time>2020-08-08T12:24:34Z</time>
      </trkpt>
      <trkpt lat="41.0327410" lon="0.6084590">
        <ele>19.8</ele>
        <time>2020-08-08T12:24:36Z</time>
      </trkpt>
      <trkpt lat="41.0327470" lon="0.6084560">
        <ele>19.8</ele>
        <time>2020-08-08T12:24:37Z</time>
      </trkpt>
      <trkpt lat="41.0327570" lon="0.6084550">
        <ele>19.8</ele>
        <time>2020-08-08T12:24:39Z</time>
      </trkpt>
      <trkpt lat="41.0327600" lon="0.6084600">
        <ele>19.8</ele>
        <time>2020-08-08T12:24:41Z</time>
      </trkpt>
      <trkpt lat="41.0327580" lon="0.6084670">
        <ele>19.8</ele>
        <time>2020-08-08T12:24:43Z</time>
      </trkpt>
      <trkpt lat="41.0327560" lon="0.6084700">
        <ele>19.8</ele>
        <time>2020-08-08T12:24:45Z</time>
      </trkpt>
      <trkpt lat="41.0327580" lon="0.6084700">
        <ele>19.8</ele>
        <time>2020-08-08T12:24:46Z</time>
      </trkpt>
      <trkpt lat="41.0327590" lon="0.6084720">
        <ele>19.8</ele>
        <time>2020-08-08T12:24:48Z</time>
      </trkpt>
      <trkpt lat="41.0327590" lon="0.6084730">
        <ele>19.8</ele>
        <time>2020-08-08T12:24:49Z</time>
      </trkpt>
      <trkpt lat="41.0327720" lon="0.6084610">
        <ele>19.8</ele>
        <time>2020-08-08T12:24:52Z</time>
      </trkpt>
      <trkpt lat="41.0327830" lon="0.6084570">
        <ele>19.8</ele>
        <time>2020-08-08T12:24:54Z</time>
      </trkpt>
      <trkpt lat="41.0327870" lon="0.6084530">
        <ele>19.8</ele>
        <time>2020-08-08T12:24:56Z</time>
      </trkpt>
      <trkpt lat="41.0327880" lon="0.6084470">
        <ele>19.8</ele>
        <time>2020-08-08T12:24:57Z</time>
      </trkpt>
      <trkpt lat="41.0327910" lon="0.6084430">
        <ele>19.8</ele>
        <time>2020-08-08T12:24:58Z</time>
      </trkpt>
      <trkpt lat="41.0328020" lon="0.6084420">
        <ele>19.8</ele>
        <time>2020-08-08T12:25:00Z</time>
      </trkpt>
      <trkpt lat="41.0328050" lon="0.6084430">
        <ele>19.8</ele>
        <time>2020-08-08T12:25:01Z</time>
      </trkpt>
      <trkpt lat="41.0328050" lon="0.6084460">
        <ele>19.8</ele>
        <time>2020-08-08T12:25:02Z</time>
      </trkpt>
      <trkpt lat="41.0328060" lon="0.6084500">
        <ele>19.8</ele>
        <time>2020-08-08T12:25:04Z</time>
      </trkpt>
      <trkpt lat="41.0328060" lon="0.6084520">
        <ele>19.8</ele>
        <time>2020-08-08T12:25:05Z</time>
      </trkpt>
      <trkpt lat="41.0328110" lon="0.6084530">
        <ele>19.8</ele>
        <time>2020-08-08T12:25:07Z</time>
      </trkpt>
      <trkpt lat="41.0328130" lon="0.6084560">
        <ele>19.8</ele>
        <time>2020-08-08T12:25:09Z</time>
      </trkpt>
      <trkpt lat="41.0328090" lon="0.6084660">
        <ele>19.8</ele>
        <time>2020-08-08T12:25:11Z</time>
      </trkpt>
      <trkpt lat="41.0328080" lon="0.6084680">
        <ele>19.8</ele>
        <time>2020-08-08T12:25:12Z</time>
      </trkpt>
      <trkpt lat="41.0328080" lon="0.6084690">
        <ele>19.8</ele>
        <time>2020-08-08T12:25:14Z</time>
      </trkpt>
      <trkpt lat="41.0328080" lon="0.6084680">
        <ele>19.8</ele>
        <time>2020-08-08T12:25:15Z</time>
      </trkpt>
      <trkpt lat="41.0328090" lon="0.6084680">
        <ele>19.8</ele>
        <time>2020-08-08T12:25:16Z</time>
      </trkpt>
      <trkpt lat="41.0328090" lon="0.6084670">
        <ele>19.8</ele>
        <time>2020-08-08T12:25:17Z</time>
      </trkpt>
      <trkpt lat="41.0328100" lon="0.6084670">
        <ele>19.8</ele>
        <time>2020-08-08T12:25:19Z</time>
      </trkpt>
      <trkpt lat="41.0328100" lon="0.6084670">
        <ele>19.8</ele>
        <time>2020-08-08T12:25:20Z</time>
      </trkpt>
      <trkpt lat="41.0328100" lon="0.6084670">
        <ele>19.8</ele>
        <time>2020-08-08T12:25:21Z</time>
      </trkpt>
      <trkpt lat="41.0328280" lon="0.6084310">
        <ele>19.8</ele>
        <time>2020-08-08T12:26:30Z</time>
      </trkpt>
      <trkpt lat="41.0328380" lon="0.6084150">
        <ele>19.8</ele>
        <time>2020-08-08T12:26:31Z</time>
      </trkpt>
      <trkpt lat="41.0328530" lon="0.6084080">
        <ele>19.8</ele>
        <time>2020-08-08T12:26:33Z</time>
      </trkpt>
      <trkpt lat="41.0328600" lon="0.6084080">
        <ele>19.8</ele>
        <time>2020-08-08T12:26:35Z</time>
      </trkpt>
      <trkpt lat="41.0328610" lon="0.6084090">
        <ele>19.8</ele>
        <time>2020-08-08T12:26:36Z</time>
      </trkpt>
      <trkpt lat="41.0328620" lon="0.6084130">
        <ele>19.8</ele>
        <time>2020-08-08T12:26:38Z</time>
      </trkpt>
      <trkpt lat="41.0328610" lon="0.6084170">
        <ele>19.8</ele>
        <time>2020-08-08T12:26:39Z</time>
      </trkpt>
      <trkpt lat="41.0328610" lon="0.6084200">
        <ele>19.8</ele>
        <time>2020-08-08T12:26:40Z</time>
      </trkpt>
      <trkpt lat="41.0328600" lon="0.6084220">
        <ele>19.8</ele>
        <time>2020-08-08T12:26:42Z</time>
      </trkpt>
      <trkpt lat="41.0328600" lon="0.6084210">
        <ele>19.8</ele>
        <time>2020-08-08T12:26:44Z</time>
      </trkpt>
      <trkpt lat="41.0328600" lon="0.6084210">
        <ele>19.8</ele>
        <time>2020-08-08T12:26:45Z</time>
      </trkpt>
      <trkpt lat="41.0328800" lon="0.6084280">
        <ele>19.8</ele>
        <time>2020-08-08T12:27:50Z</time>
      </trkpt>
      <trkpt lat="41.0328790" lon="0.6084340">
        <ele>19.8</ele>
        <time>2020-08-08T12:27:51Z</time>
      </trkpt>
      <trkpt lat="41.0328780" lon="0.6084380">
        <ele>19.8</ele>
        <time>2020-08-08T12:27:52Z</time>
      </trkpt>
      <trkpt lat="41.0328780" lon="0.6084410">
        <ele>19.8</ele>
        <time>2020-08-08T12:27:53Z</time>
      </trkpt>
      <trkpt lat="41.0328820" lon="0.6084430">
        <ele>19.8</ele>
        <time>2020-08-08T12:27:55Z</time>
      </trkpt>
      <trkpt lat="41.0328880" lon="0.6084430">
        <ele>19.8</ele>
        <time>2020-08-08T12:27:57Z</time>
      </trkpt>
      <trkpt lat="41.0328900" lon="0.6084440">
        <ele>19.8</ele>
        <time>2020-08-08T12:27:58Z</time>
      </trkpt>
      <trkpt lat="41.0328900" lon="0.6084450">
        <ele>19.8</ele>
        <time>2020-08-08T12:27:59Z</time>
      </trkpt>
      <trkpt lat="41.0328890" lon="0.6084460">
        <ele>19.8</ele>
        <time>2020-08-08T12:28:01Z</time>
      </trkpt>
      <trkpt lat="41.0328850" lon="0.6084480">
        <ele>19.8</ele>
        <time>2020-08-08T12:28:03Z</time>
      </trkpt>
      <trkpt lat="41.0329030" lon="0.6084480">
        <ele>19.8</ele>
        <time>2020-08-08T12:28:16Z</time>
      </trkpt>
      <trkpt lat="41.0329450" lon="0.6084450">
        <ele>19.9</ele>
        <time>2020-08-08T12:28:18Z</time>
      </trkpt>
      <trkpt lat="41.0329660" lon="0.6084430">
        <ele>19.9</ele>
        <time>2020-08-08T12:28:19Z</time>
      </trkpt>
      <trkpt lat="41.0330030" lon="0.6084420">
        <ele>20.0</ele>
        <time>2020-08-08T12:28:21Z</time>
      </trkpt>
      <trkpt lat="41.0330190" lon="0.6084430">
        <ele>20.0</ele>
        <time>2020-08-08T12:28:22Z</time>
      </trkpt>
      <trkpt lat="41.0330350" lon="0.6084390">
        <ele>20.1</ele>
        <time>2020-08-08T12:28:23Z</time>
      </trkpt>
      <trkpt lat="41.0330600" lon="0.6084230">
        <ele>20.1</ele>
        <time>2020-08-08T12:28:25Z</time>
      </trkpt>
      <trkpt lat="41.0330710" lon="0.6084130">
        <ele>20.1</ele>
        <time>2020-08-08T12:28:26Z</time>
      </trkpt>
      <trkpt lat="41.0330860" lon="0.6083980">
        <ele>20.2</ele>
        <time>2020-08-08T12:28:27Z</time>
      </trkpt>
      <trkpt lat="41.0330980" lon="0.6083880">
        <ele>20.2</ele>
        <time>2020-08-08T12:28:28Z</time>
      </trkpt>
      <trkpt lat="41.0331200" lon="0.6083810">
        <ele>20.3</ele>
        <time>2020-08-08T12:28:30Z</time>
      </trkpt>
      <trkpt lat="41.0331450" lon="0.6083760">
        <ele>20.3</ele>
        <time>2020-08-08T12:28:32Z</time>
      </trkpt>
      <trkpt lat="41.0331510" lon="0.6083740">
        <ele>20.3</ele>
        <time>2020-08-08T12:28:33Z</time>
      </trkpt>
      <trkpt lat="41.0331560" lon="0.6083700">
        <ele>20.4</ele>
        <time>2020-08-08T12:28:35Z</time>
      </trkpt>
      <trkpt lat="41.0331560" lon="0.6083700">
        <ele>20.4</ele>
        <time>2020-08-08T12:28:36Z</time>
      </trkpt>
      <trkpt lat="41.0331580" lon="0.6083690">
        <ele>20.4</ele>
        <time>2020-08-08T12:28:38Z</time>
      </trkpt>
      <trkpt lat="41.0331600" lon="0.6083700">
        <ele>20.4</ele>
        <time>2020-08-08T12:28:39Z</time>
      </trkpt>
      <trkpt lat="41.0331620" lon="0.6083690">
        <ele>20.4</ele>
        <time>2020-08-08T12:28:40Z</time>
      </trkpt>
      <trkpt lat="41.0331650" lon="0.6083690">
        <ele>20.4</ele>
        <time>2020-08-08T12:28:42Z</time>
      </trkpt>
      <trkpt lat="41.0331670" lon="0.6083680">
        <ele>20.4</ele>
        <time>2020-08-08T12:28:44Z</time>
      </trkpt>
      <trkpt lat="41.0331670" lon="0.6083680">
        <ele>20.4</ele>
        <time>2020-08-08T12:28:46Z</time>
      </trkpt>
      <trkpt lat="41.0331850" lon="0.6083610">
        <ele>20.4</ele>
        <time>2020-08-08T12:28:52Z</time>
      </trkpt>
      <trkpt lat="41.0331960" lon="0.6083540">
        <ele>20.5</ele>
        <time>2020-08-08T12:28:53Z</time>
      </trkpt>
      <trkpt lat="41.0332260" lon="0.6083510">
        <ele>20.5</ele>
        <time>2020-08-08T12:28:55Z</time>
      </trkpt>
      <trkpt lat="41.0332680" lon="0.6083360">
        <ele>20.6</ele>
        <time>2020-08-08T12:28:57Z</time>
      </trkpt>
      <trkpt lat="41.0332810" lon="0.6083260">
        <ele>20.6</ele>
        <time>2020-08-08T12:28:58Z</time>
      </trkpt>
      <trkpt lat="41.0332930" lon="0.6083160">
        <ele>20.6</ele>
        <time>2020-08-08T12:28:59Z</time>
      </trkpt>
      <trkpt lat="41.0333200" lon="0.6082810">
        <ele>20.7</ele>
        <time>2020-08-08T12:29:01Z</time>
      </trkpt>
      <trkpt lat="41.0333450" lon="0.6082450">
        <ele>20.7</ele>
        <time>2020-08-08T12:29:02Z</time>
      </trkpt>
      <trkpt lat="41.0333540" lon="0.6082310">
        <ele>20.8</ele>
        <time>2020-08-08T12:29:03Z</time>
      </trkpt>
      <trkpt lat="41.0333720" lon="0.6082020">
        <ele>20.8</ele>
        <time>2020-08-08T12:29:04Z</time>
      </trkpt>
      <trkpt lat="41.0333970" lon="0.6081450">
        <ele>20.8</ele>
        <time>2020-08-08T12:29:06Z</time>
      </trkpt>
      <trkpt lat="41.0334130" lon="0.6081070">
        <ele>20.8</ele>
        <time>2020-08-08T12:29:07Z</time>
      </trkpt>
      <trkpt lat="41.0334170" lon="0.6080940">
        <ele>20.8</ele>
        <time>2020-08-08T12:29:08Z</time>
      </trkpt>
      <trkpt lat="41.0334270" lon="0.6080600">
        <ele>20.8</ele>
        <time>2020-08-08T12:29:09Z</time>
      </trkpt>
      <trkpt lat="41.0334470" lon="0.6079990">
        <ele>20.8</ele>
        <time>2020-08-08T12:29:11Z</time>
      </trkpt>
      <trkpt lat="41.0334580" lon="0.6079740">
        <ele>20.8</ele>
        <time>2020-08-08T12:29:12Z</time>
      </trkpt>
      <trkpt lat="41.0334830" lon="0.6079210">
        <ele>20.8</ele>
        <time>2020-08-08T12:29:14Z</time>
      </trkpt>
      <trkpt lat="41.0334980" lon="0.6078860">
        <ele>20.8</ele>
        <time>2020-08-08T12:29:15Z</time>
      </trkpt>
      <trkpt lat="41.0335170" lon="0.6078420">
        <ele>20.7</ele>
        <time>2020-08-08T12:29:16Z</time>
      </trkpt>
      <trkpt lat="41.0335240" lon="0.6078250">
        <ele>20.7</ele>
        <time>2020-08-08T12:29:17Z</time>
      </trkpt>
      <trkpt lat="41.0335960" lon="0.6076270">
        <ele>20.5</ele>
        <time>2020-08-08T12:29:25Z</time>
      </trkpt>
      <trkpt lat="41.0336130" lon="0.6075800">
        <ele>20.4</ele>
        <time>2020-08-08T12:29:26Z</time>
      </trkpt>
      <trkpt lat="41.0336150" lon="0.6075780">
        <ele>20.4</ele>
        <time>2020-08-08T12:29:27Z</time>
      </trkpt>
      <trkpt lat="41.0336160" lon="0.6075810">
        <ele>20.4</ele>
        <time>2020-08-08T12:29:28Z</time>
      </trkpt>
      <trkpt lat="41.0336160" lon="0.6075860">
        <ele>20.4</ele>
        <time>2020-08-08T12:29:30Z</time>
      </trkpt>
      <trkpt lat="41.0336160" lon="0.6075850">
        <ele>20.4</ele>
        <time>2020-08-08T12:29:31Z</time>
      </trkpt>
      <trkpt lat="41.0336150" lon="0.6075840">
        <ele>20.4</ele>
        <time>2020-08-08T12:29:32Z</time>
      </trkpt>
      <trkpt lat="41.0336140" lon="0.6075820">
        <ele>20.4</ele>
        <time>2020-08-08T12:29:33Z</time>
      </trkpt>
      <trkpt lat="41.0336130" lon="0.6075820">
        <ele>20.4</ele>
        <time>2020-08-08T12:29:34Z</time>
      </trkpt>
      <trkpt lat="41.0336140" lon="0.6075820">
        <ele>20.4</ele>
        <time>2020-08-08T12:29:36Z</time>
      </trkpt>
      <trkpt lat="41.0336120" lon="0.6075820">
        <ele>20.4</ele>
        <time>2020-08-08T12:29:37Z</time>
      </trkpt>
      <trkpt lat="41.0336260" lon="0.6075200">
        <ele>20.4</ele>
        <time>2020-08-08T12:29:45Z</time>
      </trkpt>
      <trkpt lat="41.0336350" lon="0.6074990">
        <ele>20.4</ele>
        <time>2020-08-08T12:29:46Z</time>
      </trkpt>
      <trkpt lat="41.0336420" lon="0.6074770">
        <ele>20.4</ele>
        <time>2020-08-08T12:29:47Z</time>
      </trkpt>
      <trkpt lat="41.0336540" lon="0.6074230">
        <ele>20.4</ele>
        <time>2020-08-08T12:29:49Z</time>
      </trkpt>
      <trkpt lat="41.0336870" lon="0.6073350">
        <ele>20.4</ele>
        <time>2020-08-08T12:29:51Z</time>
      </trkpt>
      <trkpt lat="41.0337020" lon="0.6072930">
        <ele>20.4</ele>
        <time>2020-08-08T12:29:52Z</time>
      </trkpt>
      <trkpt lat="41.0337220" lon="0.6072110">
        <ele>20.4</ele>
        <time>2020-08-08T12:29:54Z</time>
      </trkpt>
      <trkpt lat="41.0337460" lon="0.6071280">
        <ele>20.4</ele>
        <time>2020-08-08T12:29:56Z</time>
      </trkpt>
      <trkpt lat="41.0337610" lon="0.6070840">
        <ele>20.4</ele>
        <time>2020-08-08T12:29:57Z</time>
      </trkpt>
      <trkpt lat="41.0337740" lon="0.6070490">
        <ele>20.4</ele>
        <time>2020-08-08T12:29:58Z</time>
      </trkpt>
      <trkpt lat="41.0338030" lon="0.6069640">
        <ele>20.5</ele>
        <time>2020-08-08T12:30:00Z</time>
      </trkpt>
      <trkpt lat="41.0338150" lon="0.6069240">
        <ele>20.5</ele>
        <time>2020-08-08T12:30:01Z</time>
      </trkpt>
      <trkpt lat="41.0338420" lon="0.6068440">
        <ele>20.5</ele>
        <time>2020-08-08T12:30:03Z</time>
      </trkpt>
      <trkpt lat="41.0338570" lon="0.6068040">
        <ele>20.5</ele>
        <time>2020-08-08T12:30:04Z</time>
      </trkpt>
      <trkpt lat="41.0338870" lon="0.6067180">
        <ele>20.5</ele>
        <time>2020-08-08T12:30:06Z</time>
      </trkpt>
      <trkpt lat="41.0339180" lon="0.6066240">
        <ele>20.5</ele>
        <time>2020-08-08T12:30:08Z</time>
      </trkpt>
      <trkpt lat="41.0339310" lon="0.6065870">
        <ele>20.5</ele>
        <time>2020-08-08T12:30:09Z</time>
      </trkpt>
      <trkpt lat="41.0339620" lon="0.6065000">
        <ele>20.5</ele>
        <time>2020-08-08T12:30:11Z</time>
      </trkpt>
      <trkpt lat="41.0339920" lon="0.6064160">
        <ele>20.6</ele>
        <time>2020-08-08T12:30:13Z</time>
      </trkpt>
      <trkpt lat="41.0340090" lon="0.6063670">
        <ele>20.6</ele>
        <time>2020-08-08T12:30:14Z</time>
      </trkpt>
      <trkpt lat="41.0340250" lon="0.6063180">
        <ele>20.7</ele>
        <time>2020-08-08T12:30:15Z</time>
      </trkpt>
      <trkpt lat="41.0340420" lon="0.6062720">
        <ele>20.7</ele>
        <time>2020-08-08T12:30:16Z</time>
      </trkpt>
      <trkpt lat="41.0340740" lon="0.6061820">
        <ele>20.8</ele>
        <time>2020-08-08T12:30:18Z</time>
      </trkpt>
      <trkpt lat="41.0340980" lon="0.6061030">
        <ele>20.9</ele>
        <time>2020-08-08T12:30:20Z</time>
      </trkpt>
      <trkpt lat="41.0341110" lon="0.6060610">
        <ele>20.9</ele>
        <time>2020-08-08T12:30:21Z</time>
      </trkpt>
      <trkpt lat="41.0341430" lon="0.6059650">
        <ele>21.0</ele>
        <time>2020-08-08T12:30:23Z</time>
      </trkpt>
      <trkpt lat="41.0341690" lon="0.6058810">
        <ele>21.0</ele>
        <time>2020-08-08T12:30:25Z</time>
      </trkpt>
      <trkpt lat="41.0341820" lon="0.6058410">
        <ele>21.0</ele>
        <time>2020-08-08T12:30:26Z</time>
      </trkpt>
      <trkpt lat="41.0341950" lon="0.6057980">
        <ele>21.0</ele>
        <time>2020-08-08T12:30:27Z</time>
      </trkpt>
      <trkpt lat="41.0342090" lon="0.6057510">
        <ele>21.0</ele>
        <time>2020-08-08T12:30:28Z</time>
      </trkpt>
      <trkpt lat="41.0342360" lon="0.6056620">
        <ele>21.0</ele>
        <time>2020-08-08T12:30:30Z</time>
      </trkpt>
      <trkpt lat="41.0342530" lon="0.6056140">
        <ele>21.0</ele>
        <time>2020-08-08T12:30:31Z</time>
      </trkpt>
      <trkpt lat="41.0342830" lon="0.6055250">
        <ele>21.0</ele>
        <time>2020-08-08T12:30:33Z</time>
      </trkpt>
      <trkpt lat="41.0343140" lon="0.6054300">
        <ele>21.0</ele>
        <time>2020-08-08T12:30:35Z</time>
      </trkpt>
      <trkpt lat="41.0343510" lon="0.6053230">
        <ele>21.1</ele>
        <time>2020-08-08T12:30:37Z</time>
      </trkpt>
      <trkpt lat="41.0343670" lon="0.6052840">
        <ele>21.1</ele>
        <time>2020-08-08T12:30:38Z</time>
      </trkpt>
      <trkpt lat="41.0344070" lon="0.6051820">
        <ele>21.2</ele>
        <time>2020-08-08T12:30:40Z</time>
      </trkpt>
      <trkpt lat="41.0344230" lon="0.6051360">
        <ele>21.3</ele>
        <time>2020-08-08T12:30:41Z</time>
      </trkpt>
      <trkpt lat="41.0344410" lon="0.6050850">
        <ele>21.3</ele>
        <time>2020-08-08T12:30:42Z</time>
      </trkpt>
      <trkpt lat="41.0344710" lon="0.6050000">
        <ele>21.4</ele>
        <time>2020-08-08T12:30:44Z</time>
      </trkpt>
      <trkpt lat="41.0344880" lon="0.6049500">
        <ele>21.3</ele>
        <time>2020-08-08T12:30:45Z</time>
      </trkpt>
      <trkpt lat="41.0345200" lon="0.6048450">
        <ele>21.3</ele>
        <time>2020-08-08T12:30:47Z</time>
      </trkpt>
      <trkpt lat="41.0345320" lon="0.6048020">
        <ele>21.3</ele>
        <time>2020-08-08T12:30:48Z</time>
      </trkpt>
      <trkpt lat="41.0345490" lon="0.6047490">
        <ele>21.2</ele>
        <time>2020-08-08T12:30:49Z</time>
      </trkpt>
      <trkpt lat="41.0345830" lon="0.6046480">
        <ele>21.1</ele>
        <time>2020-08-08T12:30:51Z</time>
      </trkpt>
      <trkpt lat="41.0346140" lon="0.6045550">
        <ele>21.0</ele>
        <time>2020-08-08T12:30:53Z</time>
      </trkpt>
      <trkpt lat="41.0346300" lon="0.6045100">
        <ele>21.0</ele>
        <time>2020-08-08T12:30:54Z</time>
      </trkpt>
      <trkpt lat="41.0346670" lon="0.6044040">
        <ele>21.0</ele>
        <time>2020-08-08T12:30:56Z</time>
      </trkpt>
      <trkpt lat="41.0347040" lon="0.6043050">
        <ele>21.0</ele>
        <time>2020-08-08T12:30:58Z</time>
      </trkpt>
      <trkpt lat="41.0347370" lon="0.6042100">
        <ele>21.1</ele>
        <time>2020-08-08T12:31:00Z</time>
      </trkpt>
      <trkpt lat="41.0347710" lon="0.6041060">
        <ele>21.1</ele>
        <time>2020-08-08T12:31:02Z</time>
      </trkpt>
      <trkpt lat="41.0347890" lon="0.6040490">
        <ele>21.1</ele>
        <time>2020-08-08T12:31:03Z</time>
      </trkpt>
      <trkpt lat="41.0348050" lon="0.6040010">
        <ele>21.1</ele>
        <time>2020-08-08T12:31:04Z</time>
      </trkpt>
      <trkpt lat="41.0348360" lon="0.6038950">
        <ele>21.1</ele>
        <time>2020-08-08T12:31:06Z</time>
      </trkpt>
      <trkpt lat="41.0348520" lon="0.6038440">
        <ele>21.1</ele>
        <time>2020-08-08T12:31:07Z</time>
      </trkpt>
      <trkpt lat="41.0348680" lon="0.6037950">
        <ele>21.1</ele>
        <time>2020-08-08T12:31:08Z</time>
      </trkpt>
      <trkpt lat="41.0349020" lon="0.6036880">
        <ele>21.1</ele>
        <time>2020-08-08T12:31:10Z</time>
      </trkpt>
      <trkpt lat="41.0349160" lon="0.6036430">
        <ele>21.1</ele>
        <time>2020-08-08T12:31:11Z</time>
      </trkpt>
      <trkpt lat="41.0349320" lon="0.6035970">
        <ele>21.1</ele>
        <time>2020-08-08T12:31:12Z</time>
      </trkpt>
      <trkpt lat="41.0349680" lon="0.6034880">
        <ele>21.1</ele>
        <time>2020-08-08T12:31:14Z</time>
      </trkpt>
      <trkpt lat="41.0349860" lon="0.6034390">
        <ele>21.1</ele>
        <time>2020-08-08T12:31:15Z</time>
      </trkpt>
      <trkpt lat="41.0350240" lon="0.6033310">
        <ele>21.1</ele>
        <time>2020-08-08T12:31:17Z</time>
      </trkpt>
      <trkpt lat="41.0350580" lon="0.6032360">
        <ele>21.0</ele>
        <time>2020-08-08T12:31:19Z</time>
      </trkpt>
      <trkpt lat="41.0350930" lon="0.6031270">
        <ele>20.9</ele>
        <time>2020-08-08T12:31:21Z</time>
      </trkpt>
      <trkpt lat="41.0351100" lon="0.6030780">
        <ele>20.8</ele>
        <time>2020-08-08T12:31:22Z</time>
      </trkpt>
      <trkpt lat="41.0351490" lon="0.6029810">
        <ele>20.6</ele>
        <time>2020-08-08T12:31:24Z</time>
      </trkpt>
      <trkpt lat="41.0351730" lon="0.6029280">
        <ele>20.6</ele>
        <time>2020-08-08T12:31:25Z</time>
      </trkpt>
      <trkpt lat="41.0351960" lon="0.6028790">
        <ele>20.5</ele>
        <time>2020-08-08T12:31:26Z</time>
      </trkpt>
      <trkpt lat="41.0352400" lon="0.6027770">
        <ele>20.5</ele>
        <time>2020-08-08T12:31:28Z</time>
      </trkpt>
      <trkpt lat="41.0352580" lon="0.6027170">
        <ele>20.5</ele>
        <time>2020-08-08T12:31:29Z</time>
      </trkpt>
      <trkpt lat="41.0352980" lon="0.6026010">
        <ele>20.5</ele>
        <time>2020-08-08T12:31:31Z</time>
      </trkpt>
      <trkpt lat="41.0353160" lon="0.6025540">
        <ele>20.6</ele>
        <time>2020-08-08T12:31:32Z</time>
      </trkpt>
      <trkpt lat="41.0353330" lon="0.6025010">
        <ele>20.6</ele>
        <time>2020-08-08T12:31:33Z</time>
      </trkpt>
      <trkpt lat="41.0353660" lon="0.6024000">
        <ele>20.6</ele>
        <time>2020-08-08T12:31:35Z</time>
      </trkpt>
      <trkpt lat="41.0355150" lon="0.6019960">
        <ele>21.0</ele>
        <time>2020-08-08T12:31:43Z</time>
      </trkpt>
      <trkpt lat="41.0355590" lon="0.6018650">
        <ele>21.0</ele>
        <time>2020-08-08T12:31:44Z</time>
      </trkpt>
      <trkpt lat="41.0355840" lon="0.6018070">
        <ele>21.0</ele>
        <time>2020-08-08T12:31:45Z</time>
      </trkpt>
      <trkpt lat="41.0356110" lon="0.6017410">
        <ele>21.0</ele>
        <time>2020-08-08T12:31:46Z</time>
      </trkpt>
      <trkpt lat="41.0356390" lon="0.6016800">
        <ele>21.0</ele>
        <time>2020-08-08T12:31:47Z</time>
      </trkpt>
      <trkpt lat="41.0356920" lon="0.6015610">
        <ele>21.0</ele>
        <time>2020-08-08T12:31:49Z</time>
      </trkpt>
      <trkpt lat="41.0357430" lon="0.6014470">
        <ele>21.0</ele>
        <time>2020-08-08T12:31:51Z</time>
      </trkpt>
      <trkpt lat="41.0357730" lon="0.6013880">
        <ele>21.1</ele>
        <time>2020-08-08T12:31:52Z</time>
      </trkpt>
      <trkpt lat="41.0357940" lon="0.6013290">
        <ele>21.1</ele>
        <time>2020-08-08T12:31:53Z</time>
      </trkpt>
      <trkpt lat="41.0358240" lon="0.6012750">
        <ele>21.1</ele>
        <time>2020-08-08T12:31:54Z</time>
      </trkpt>
      <trkpt lat="41.0358610" lon="0.6012200">
        <ele>21.1</ele>
        <time>2020-08-08T12:31:55Z</time>
      </trkpt>
      <trkpt lat="41.0359450" lon="0.6010590">
        <ele>21.2</ele>
        <time>2020-08-08T12:31:58Z</time>
      </trkpt>
      <trkpt lat="41.0359700" lon="0.6010110">
        <ele>21.2</ele>
        <time>2020-08-08T12:31:59Z</time>
      </trkpt>
      <trkpt lat="41.0359900" lon="0.6009750">
        <ele>21.3</ele>
        <time>2020-08-08T12:32:00Z</time>
      </trkpt>
      <trkpt lat="41.0360210" lon="0.6009240">
        <ele>21.3</ele>
        <time>2020-08-08T12:32:01Z</time>
      </trkpt>
      <trkpt lat="41.0360510" lon="0.6008830">
        <ele>21.3</ele>
        <time>2020-08-08T12:32:02Z</time>
      </trkpt>
      <trkpt lat="41.0361130" lon="0.6007940">
        <ele>21.3</ele>
        <time>2020-08-08T12:32:04Z</time>
      </trkpt>
      <trkpt lat="41.0361450" lon="0.6007520">
        <ele>21.3</ele>
        <time>2020-08-08T12:32:05Z</time>
      </trkpt>
      <trkpt lat="41.0362200" lon="0.6006610">
        <ele>21.3</ele>
        <time>2020-08-08T12:32:07Z</time>
      </trkpt>
      <trkpt lat="41.0362570" lon="0.6006160">
        <ele>21.3</ele>
        <time>2020-08-08T12:32:08Z</time>
      </trkpt>
      <trkpt lat="41.0362910" lon="0.6005750">
        <ele>21.3</ele>
        <time>2020-08-08T12:32:09Z</time>
      </trkpt>
      <trkpt lat="41.0363240" lon="0.6005350">
        <ele>21.4</ele>
        <time>2020-08-08T12:32:10Z</time>
      </trkpt>
      <trkpt lat="41.0363560" lon="0.6005020">
        <ele>21.4</ele>
        <time>2020-08-08T12:32:11Z</time>
      </trkpt>
      <trkpt lat="41.0363940" lon="0.6004590">
        <ele>21.5</ele>
        <time>2020-08-08T12:32:12Z</time>
      </trkpt>
      <trkpt lat="41.0364480" lon="0.6003650">
        <ele>21.5</ele>
        <time>2020-08-08T12:32:14Z</time>
      </trkpt>
      <trkpt lat="41.0364680" lon="0.6003340">
        <ele>21.6</ele>
        <time>2020-08-08T12:32:15Z</time>
      </trkpt>
      <trkpt lat="41.0364970" lon="0.6002850">
        <ele>21.6</ele>
        <time>2020-08-08T12:32:16Z</time>
      </trkpt>
      <trkpt lat="41.0365370" lon="0.6002020">
        <ele>21.7</ele>
        <time>2020-08-08T12:32:18Z</time>
      </trkpt>
      <trkpt lat="41.0365730" lon="0.6001000">
        <ele>21.7</ele>
        <time>2020-08-08T12:32:20Z</time>
      </trkpt>
      <trkpt lat="41.0366180" lon="0.6000030">
        <ele>21.8</ele>
        <time>2020-08-08T12:32:22Z</time>
      </trkpt>
      <trkpt lat="41.0366420" lon="0.5999620">
        <ele>21.9</ele>
        <time>2020-08-08T12:32:23Z</time>
      </trkpt>
      <trkpt lat="41.0366940" lon="0.5998730">
        <ele>22.0</ele>
        <time>2020-08-08T12:32:25Z</time>
      </trkpt>
      <trkpt lat="41.0367180" lon="0.5998330">
        <ele>22.0</ele>
        <time>2020-08-08T12:32:26Z</time>
      </trkpt>
      <trkpt lat="41.0367720" lon="0.5997500">
        <ele>22.1</ele>
        <time>2020-08-08T12:32:28Z</time>
      </trkpt>
      <trkpt lat="41.0368260" lon="0.5996730">
        <ele>22.1</ele>
        <time>2020-08-08T12:32:30Z</time>
      </trkpt>
      <trkpt lat="41.0368510" lon="0.5996360">
        <ele>22.2</ele>
        <time>2020-08-08T12:32:31Z</time>
      </trkpt>
      <trkpt lat="41.0368780" lon="0.5995960">
        <ele>22.2</ele>
        <time>2020-08-08T12:32:32Z</time>
      </trkpt>
      <trkpt lat="41.0369300" lon="0.5995200">
        <ele>22.2</ele>
        <time>2020-08-08T12:32:34Z</time>
      </trkpt>
      <trkpt lat="41.0369560" lon="0.5994830">
        <ele>22.2</ele>
        <time>2020-08-08T12:32:35Z</time>
      </trkpt>
      <trkpt lat="41.0370070" lon="0.5994050">
        <ele>22.2</ele>
        <time>2020-08-08T12:32:37Z</time>
      </trkpt>
      <trkpt lat="41.0370350" lon="0.5993630">
        <ele>22.2</ele>
        <time>2020-08-08T12:32:38Z</time>
      </trkpt>
      <trkpt lat="41.0370640" lon="0.5993170">
        <ele>22.1</ele>
        <time>2020-08-08T12:32:39Z</time>
      </trkpt>
      <trkpt lat="41.0370920" lon="0.5992740">
        <ele>22.1</ele>
        <time>2020-08-08T12:32:40Z</time>
      </trkpt>
      <trkpt lat="41.0371170" lon="0.5992340">
        <ele>22.1</ele>
        <time>2020-08-08T12:32:41Z</time>
      </trkpt>
      <trkpt lat="41.0371730" lon="0.5991480">
        <ele>22.1</ele>
        <time>2020-08-08T12:32:43Z</time>
      </trkpt>
      <trkpt lat="41.0372010" lon="0.5991060">
        <ele>22.1</ele>
        <time>2020-08-08T12:32:44Z</time>
      </trkpt>
      <trkpt lat="41.0372290" lon="0.5990610">
        <ele>22.1</ele>
        <time>2020-08-08T12:32:45Z</time>
      </trkpt>
      <trkpt lat="41.0372670" lon="0.5989890">
        <ele>22.1</ele>
        <time>2020-08-08T12:32:47Z</time>
      </trkpt>
      <trkpt lat="41.0372670" lon="0.5989380">
        <ele>22.2</ele>
        <time>2020-08-08T12:32:49Z</time>
      </trkpt>
      <trkpt lat="41.0372610" lon="0.5989200">
        <ele>22.2</ele>
        <time>2020-08-08T12:32:50Z</time>
      </trkpt>
      <trkpt lat="41.0372530" lon="0.5989210">
        <ele>22.2</ele>
        <time>2020-08-08T12:32:52Z</time>
      </trkpt>
      <trkpt lat="41.0372520" lon="0.5989260">
        <ele>22.2</ele>
        <time>2020-08-08T12:32:54Z</time>
      </trkpt>
      <trkpt lat="41.0372530" lon="0.5989270">
        <ele>22.2</ele>
        <time>2020-08-08T12:32:55Z</time>
      </trkpt>
      <trkpt lat="41.0372550" lon="0.5989260">
        <ele>22.2</ele>
        <time>2020-08-08T12:32:56Z</time>
      </trkpt>
      <trkpt lat="41.0372570" lon="0.5989260">
        <ele>22.2</ele>
        <time>2020-08-08T12:32:57Z</time>
      </trkpt>
      <trkpt lat="41.0372610" lon="0.5989200">
        <ele>22.2</ele>
        <time>2020-08-08T12:32:59Z</time>
      </trkpt>
      <trkpt lat="41.0372630" lon="0.5989160">
        <ele>22.2</ele>
        <time>2020-08-08T12:33:00Z</time>
      </trkpt>
      <trkpt lat="41.0372650" lon="0.5989130">
        <ele>22.2</ele>
        <time>2020-08-08T12:33:02Z</time>
      </trkpt>
      <trkpt lat="41.0372630" lon="0.5989110">
        <ele>22.2</ele>
        <time>2020-08-08T12:33:04Z</time>
      </trkpt>
      <trkpt lat="41.0372630" lon="0.5989110">
        <ele>22.2</ele>
        <time>2020-08-08T12:33:05Z</time>
      </trkpt>
      <trkpt lat="41.0372630" lon="0.5989110">
        <ele>22.2</ele>
        <time>2020-08-08T12:33:08Z</time>
      </trkpt>
      <trkpt lat="41.0372630" lon="0.5989110">
        <ele>22.2</ele>
        <time>2020-08-08T12:33:10Z</time>
      </trkpt>
      <trkpt lat="41.0373010" lon="0.5989460">
        <ele>22.2</ele>
        <time>2020-08-08T12:33:18Z</time>
      </trkpt>
      <trkpt lat="41.0373160" lon="0.5989190">
        <ele>22.2</ele>
        <time>2020-08-08T12:33:19Z</time>
      </trkpt>
      <trkpt lat="41.0373360" lon="0.5988630">
        <ele>22.2</ele>
        <time>2020-08-08T12:33:21Z</time>
      </trkpt>
      <trkpt lat="41.0373510" lon="0.5988070">
        <ele>22.3</ele>
        <time>2020-08-08T12:33:23Z</time>
      </trkpt>
      <trkpt lat="41.0373610" lon="0.5987670">
        <ele>22.3</ele>
        <time>2020-08-08T12:33:24Z</time>
      </trkpt>
      <trkpt lat="41.0373650" lon="0.5987520">
        <ele>22.3</ele>
        <time>2020-08-08T12:33:25Z</time>
      </trkpt>
      <trkpt lat="41.0373760" lon="0.5987170">
        <ele>22.3</ele>
        <time>2020-08-08T12:33:26Z</time>
      </trkpt>
      <trkpt lat="41.0373810" lon="0.5987040">
        <ele>22.3</ele>
        <time>2020-08-08T12:33:27Z</time>
      </trkpt>
      <trkpt lat="41.0374010" lon="0.5986610">
        <ele>22.3</ele>
        <time>2020-08-08T12:33:29Z</time>
      </trkpt>
      <trkpt lat="41.0374050" lon="0.5986500">
        <ele>22.3</ele>
        <time>2020-08-08T12:33:30Z</time>
      </trkpt>
      <trkpt lat="41.0374090" lon="0.5986430">
        <ele>22.3</ele>
        <time>2020-08-08T12:33:31Z</time>
      </trkpt>
      <trkpt lat="41.0374190" lon="0.5986380">
        <ele>22.4</ele>
        <time>2020-08-08T12:33:33Z</time>
      </trkpt>
      <trkpt lat="41.0374230" lon="0.5986350">
        <ele>22.4</ele>
        <time>2020-08-08T12:33:35Z</time>
      </trkpt>
      <trkpt lat="41.0374230" lon="0.5986330">
        <ele>22.4</ele>
        <time>2020-08-08T12:33:36Z</time>
      </trkpt>
      <trkpt lat="41.0374210" lon="0.5986260">
        <ele>22.4</ele>
        <time>2020-08-08T12:33:38Z</time>
      </trkpt>
      <trkpt lat="41.0374200" lon="0.5986240">
        <ele>22.4</ele>
        <time>2020-08-08T12:33:39Z</time>
      </trkpt>
      <trkpt lat="41.0374170" lon="0.5986210">
        <ele>22.4</ele>
        <time>2020-08-08T12:33:41Z</time>
      </trkpt>
      <trkpt lat="41.0374140" lon="0.5986200">
        <ele>22.4</ele>
        <time>2020-08-08T12:33:43Z</time>
      </trkpt>
      <trkpt lat="41.0373910" lon="0.5985950">
        <ele>22.4</ele>
        <time>2020-08-08T12:33:58Z</time>
      </trkpt>
      <trkpt lat="41.0373820" lon="0.5985910">
        <ele>22.4</ele>
        <time>2020-08-08T12:33:59Z</time>
      </trkpt>
      <trkpt lat="41.0373850" lon="0.5985840">
        <ele>22.4</ele>
        <time>2020-08-08T12:34:01Z</time>
      </trkpt>
      <trkpt lat="41.0373900" lon="0.5985810">
        <ele>22.4</ele>
        <time>2020-08-08T12:34:03Z</time>
      </trkpt>
      <trkpt lat="41.0373910" lon="0.5985810">
        <ele>22.4</ele>
        <time>2020-08-08T12:34:04Z</time>
      </trkpt>
      <trkpt lat="41.0373910" lon="0.5985810">
        <ele>22.4</ele>
        <time>2020-08-08T12:34:06Z</time>
      </trkpt>
      <trkpt lat="41.0373910" lon="0.5985810">
        <ele>22.4</ele>
        <time>2020-08-08T12:34:07Z</time>
      </trkpt>
      <trkpt lat="41.0373910" lon="0.5985810">
        <ele>22.4</ele>
        <time>2020-08-08T12:34:09Z</time>
      </trkpt>
      <trkpt lat="41.0373790" lon="0.5985360">
        <ele>22.4</ele>
        <time>2020-08-08T12:38:47Z</time>
      </trkpt>
      <trkpt lat="41.0373770" lon="0.5985250">
        <ele>22.4</ele>
        <time>2020-08-08T12:38:48Z</time>
      </trkpt>
      <trkpt lat="41.0373720" lon="0.5984850">
        <ele>22.4</ele>
        <time>2020-08-08T12:38:50Z</time>
      </trkpt>
      <trkpt lat="41.0373680" lon="0.5984550">
        <ele>22.5</ele>
        <time>2020-08-08T12:38:51Z</time>
      </trkpt>
      <trkpt lat="41.0373720" lon="0.5984000">
        <ele>22.5</ele>
        <time>2020-08-08T12:38:53Z</time>
      </trkpt>
      <trkpt lat="41.0373770" lon="0.5983770">
        <ele>22.5</ele>
        <time>2020-08-08T12:38:54Z</time>
      </trkpt>
      <trkpt lat="41.0373930" lon="0.5983220">
        <ele>22.5</ele>
        <time>2020-08-08T12:38:56Z</time>
      </trkpt>
      <trkpt lat="41.0373970" lon="0.5983250">
        <ele>22.5</ele>
        <time>2020-08-08T12:38:58Z</time>
      </trkpt>
      <trkpt lat="41.0373960" lon="0.5983340">
        <ele>22.5</ele>
        <time>2020-08-08T12:38:59Z</time>
      </trkpt>
      <trkpt lat="41.0374010" lon="0.5983380">
        <ele>22.5</ele>
        <time>2020-08-08T12:39:00Z</time>
      </trkpt>
      <trkpt lat="41.0374060" lon="0.5983400">
        <ele>22.5</ele>
        <time>2020-08-08T12:39:01Z</time>
      </trkpt>
      <trkpt lat="41.0374100" lon="0.5983310">
        <ele>22.5</ele>
        <time>2020-08-08T12:39:03Z</time>
      </trkpt>
      <trkpt lat="41.0374120" lon="0.5983230">
        <ele>22.5</ele>
        <time>2020-08-08T12:39:05Z</time>
      </trkpt>
      <trkpt lat="41.0374150" lon="0.5983050">
        <ele>22.5</ele>
        <time>2020-08-08T12:39:06Z</time>
      </trkpt>
      <trkpt lat="41.0374100" lon="0.5982990">
        <ele>22.5</ele>
        <time>2020-08-08T12:39:07Z</time>
      </trkpt>
      <trkpt lat="41.0374040" lon="0.5982910">
        <ele>22.5</ele>
        <time>2020-08-08T12:39:08Z</time>
      </trkpt>
      <trkpt lat="41.0373990" lon="0.5982810">
        <ele>22.6</ele>
        <time>2020-08-08T12:39:09Z</time>
      </trkpt>
      <trkpt lat="41.0373870" lon="0.5982630">
        <ele>22.6</ele>
        <time>2020-08-08T12:39:11Z</time>
      </trkpt>
      <trkpt lat="41.0373730" lon="0.5982510">
        <ele>22.6</ele>
        <time>2020-08-08T12:39:12Z</time>
      </trkpt>
      <trkpt lat="41.0373660" lon="0.5982120">
        <ele>22.6</ele>
        <time>2020-08-08T12:39:13Z</time>
      </trkpt>
      <trkpt lat="41.0373650" lon="0.5981910">
        <ele>22.6</ele>
        <time>2020-08-08T12:39:14Z</time>
      </trkpt>
      <trkpt lat="41.0373590" lon="0.5981480">
        <ele>22.6</ele>
        <time>2020-08-08T12:39:15Z</time>
      </trkpt>
      <trkpt lat="41.0373340" lon="0.5980910">
        <ele>22.7</ele>
        <time>2020-08-08T12:39:17Z</time>
      </trkpt>
      <trkpt lat="41.0373200" lon="0.5980450">
        <ele>22.7</ele>
        <time>2020-08-08T12:39:18Z</time>
      </trkpt>
      <trkpt lat="41.0373130" lon="0.5980290">
        <ele>22.7</ele>
        <time>2020-08-08T12:39:19Z</time>
      </trkpt>
      <trkpt lat="41.0373070" lon="0.5980120">
        <ele>22.7</ele>
        <time>2020-08-08T12:39:20Z</time>
      </trkpt>
      <trkpt lat="41.0372880" lon="0.5979720">
        <ele>22.7</ele>
        <time>2020-08-08T12:39:22Z</time>
      </trkpt>
      <trkpt lat="41.0372820" lon="0.5979620">
        <ele>22.7</ele>
        <time>2020-08-08T12:39:23Z</time>
      </trkpt>
      <trkpt lat="41.0372750" lon="0.5979170">
        <ele>22.8</ele>
        <time>2020-08-08T12:39:25Z</time>
      </trkpt>
      <trkpt lat="41.0372720" lon="0.5979060">
        <ele>22.8</ele>
        <time>2020-08-08T12:39:26Z</time>
      </trkpt>
      <trkpt lat="41.0372630" lon="0.5978840">
        <ele>22.8</ele>
        <time>2020-08-08T12:39:27Z</time>
      </trkpt>
      <trkpt lat="41.0372610" lon="0.5978720">
        <ele>22.8</ele>
        <time>2020-08-08T12:39:28Z</time>
      </trkpt>
      <trkpt lat="41.0372470" lon="0.5978560">
        <ele>22.8</ele>
        <time>2020-08-08T12:39:29Z</time>
      </trkpt>
      <trkpt lat="41.0372360" lon="0.5978500">
        <ele>22.8</ele>
        <time>2020-08-08T12:39:31Z</time>
      </trkpt>
      <trkpt lat="41.0372260" lon="0.5978440">
        <ele>22.8</ele>
        <time>2020-08-08T12:39:32Z</time>
      </trkpt>
      <trkpt lat="41.0372120" lon="0.5978390">
        <ele>22.8</ele>
        <time>2020-08-08T12:39:33Z</time>
      </trkpt>
      <trkpt lat="41.0372000" lon="0.5978310">
        <ele>22.8</ele>
        <time>2020-08-08T12:39:34Z</time>
      </trkpt>
      <trkpt lat="41.0371810" lon="0.5978150">
        <ele>22.8</ele>
        <time>2020-08-08T12:39:35Z</time>
      </trkpt>
      <trkpt lat="41.0371750" lon="0.5978070">
        <ele>22.8</ele>
        <time>2020-08-08T12:39:37Z</time>
      </trkpt>
      <trkpt lat="41.0371680" lon="0.5977980">
        <ele>22.8</ele>
        <time>2020-08-08T12:39:38Z</time>
      </trkpt>
      <trkpt lat="41.0371560" lon="0.5977900">
        <ele>22.8</ele>
        <time>2020-08-08T12:39:39Z</time>
      </trkpt>
      <trkpt lat="41.0371260" lon="0.5977710">
        <ele>22.8</ele>
        <time>2020-08-08T12:39:41Z</time>
      </trkpt>
      <trkpt lat="41.0370890" lon="0.5977320">
        <ele>22.8</ele>
        <time>2020-08-08T12:39:43Z</time>
      </trkpt>
      <trkpt lat="41.0370770" lon="0.5977180">
        <ele>22.8</ele>
        <time>2020-08-08T12:39:44Z</time>
      </trkpt>
      <trkpt lat="41.0370640" lon="0.5977050">
        <ele>22.8</ele>
        <time>2020-08-08T12:39:45Z</time>
      </trkpt>
      <trkpt lat="41.0370460" lon="0.5976900">
        <ele>22.8</ele>
        <time>2020-08-08T12:39:46Z</time>
      </trkpt>
      <trkpt lat="41.0370110" lon="0.5976620">
        <ele>22.7</ele>
        <time>2020-08-08T12:39:48Z</time>
      </trkpt>
      <trkpt lat="41.0369800" lon="0.5976440">
        <ele>22.7</ele>
        <time>2020-08-08T12:39:50Z</time>
      </trkpt>
      <trkpt lat="41.0369680" lon="0.5976390">
        <ele>22.7</ele>
        <time>2020-08-08T12:39:51Z</time>
      </trkpt>
      <trkpt lat="41.0369450" lon="0.5976260">
        <ele>22.7</ele>
        <time>2020-08-08T12:39:52Z</time>
      </trkpt>
      <trkpt lat="41.0369150" lon="0.5976050">
        <ele>22.7</ele>
        <time>2020-08-08T12:39:54Z</time>
      </trkpt>
      <trkpt lat="41.0368810" lon="0.5975840">
        <ele>22.8</ele>
        <time>2020-08-08T12:39:55Z</time>
      </trkpt>
      <trkpt lat="41.0368550" lon="0.5975620">
        <ele>22.8</ele>
        <time>2020-08-08T12:39:56Z</time>
      </trkpt>
      <trkpt lat="41.0368330" lon="0.5975380">
        <ele>22.8</ele>
        <time>2020-08-08T12:39:58Z</time>
      </trkpt>
      <trkpt lat="41.0368110" lon="0.5975140">
        <ele>22.9</ele>
        <time>2020-08-08T12:39:59Z</time>
      </trkpt>
      <trkpt lat="41.0367900" lon="0.5974980">
        <ele>22.9</ele>
        <time>2020-08-08T12:40:00Z</time>
      </trkpt>
      <trkpt lat="41.0367730" lon="0.5974940">
        <ele>22.9</ele>
        <time>2020-08-08T12:40:02Z</time>
      </trkpt>
      <trkpt lat="41.0367450" lon="0.5974810">
        <ele>23.0</ele>
        <time>2020-08-08T12:40:03Z</time>
      </trkpt>
      <trkpt lat="41.0367090" lon="0.5974620">
        <ele>23.1</ele>
        <time>2020-08-08T12:40:04Z</time>
      </trkpt>
      <trkpt lat="41.0366850" lon="0.5974500">
        <ele>23.2</ele>
        <time>2020-08-08T12:40:05Z</time>
      </trkpt>
      <trkpt lat="41.0366490" lon="0.5974310">
        <ele>23.2</ele>
        <time>2020-08-08T12:40:07Z</time>
      </trkpt>
      <trkpt lat="41.0366120" lon="0.5974100">
        <ele>23.4</ele>
        <time>2020-08-08T12:40:09Z</time>
      </trkpt>
      <trkpt lat="41.0366010" lon="0.5974010">
        <ele>23.5</ele>
        <time>2020-08-08T12:40:11Z</time>
      </trkpt>
      <trkpt lat="41.0365900" lon="0.5973930">
        <ele>23.5</ele>
        <time>2020-08-08T12:40:12Z</time>
      </trkpt>
      <trkpt lat="41.0365740" lon="0.5973780">
        <ele>23.6</ele>
        <time>2020-08-08T12:40:13Z</time>
      </trkpt>
      <trkpt lat="41.0365460" lon="0.5973440">
        <ele>23.7</ele>
        <time>2020-08-08T12:40:15Z</time>
      </trkpt>
      <trkpt lat="41.0365350" lon="0.5973320">
        <ele>24.0</ele>
        <time>2020-08-08T12:40:16Z</time>
      </trkpt>
      <trkpt lat="41.0365170" lon="0.5973150">
        <ele>24.3</ele>
        <time>2020-08-08T12:40:18Z</time>
      </trkpt>
      <trkpt lat="41.0365110" lon="0.5973110">
        <ele>24.4</ele>
        <time>2020-08-08T12:40:19Z</time>
      </trkpt>
      <trkpt lat="41.0365000" lon="0.5973000">
        <ele>24.6</ele>
        <time>2020-08-08T12:40:20Z</time>
      </trkpt>
      <trkpt lat="41.0364940" lon="0.5972870">
        <ele>24.7</ele>
        <time>2020-08-08T12:40:22Z</time>
      </trkpt>
      <trkpt lat="41.0364900" lon="0.5972810">
        <ele>24.8</ele>
        <time>2020-08-08T12:40:23Z</time>
      </trkpt>
      <trkpt lat="41.0364840" lon="0.5972700">
        <ele>25.0</ele>
        <time>2020-08-08T12:40:25Z</time>
      </trkpt>
      <trkpt lat="41.0364820" lon="0.5972660">
        <ele>25.0</ele>
        <time>2020-08-08T12:40:26Z</time>
      </trkpt>
      <trkpt lat="41.0364740" lon="0.5972570">
        <ele>25.1</ele>
        <time>2020-08-08T12:40:28Z</time>
      </trkpt>
      <trkpt lat="41.0364690" lon="0.5972510">
        <ele>25.2</ele>
        <time>2020-08-08T12:40:30Z</time>
      </trkpt>
      <trkpt lat="41.0364250" lon="0.5971700">
        <ele>26.1</ele>
        <time>2020-08-08T12:40:48Z</time>
      </trkpt>
      <trkpt lat="41.0364180" lon="0.5971470">
        <ele>26.3</ele>
        <time>2020-08-08T12:40:49Z</time>
      </trkpt>
      <trkpt lat="41.0364060" lon="0.5971270">
        <ele>26.5</ele>
        <time>2020-08-08T12:40:51Z</time>
      </trkpt>
      <trkpt lat="41.0363980" lon="0.5971110">
        <ele>26.7</ele>
        <time>2020-08-08T12:40:52Z</time>
      </trkpt>
      <trkpt lat="41.0363920" lon="0.5970990">
        <ele>26.8</ele>
        <time>2020-08-08T12:40:53Z</time>
      </trkpt>
      <trkpt lat="41.0363810" lon="0.5970820">
        <ele>27.0</ele>
        <time>2020-08-08T12:40:55Z</time>
      </trkpt>
      <trkpt lat="41.0363720" lon="0.5970730">
        <ele>27.1</ele>
        <time>2020-08-08T12:40:56Z</time>
      </trkpt>
      <trkpt lat="41.0363630" lon="0.5970650">
        <ele>27.3</ele>
        <time>2020-08-08T12:40:57Z</time>
      </trkpt>
      <trkpt lat="41.0363540" lon="0.5970560">
        <ele>27.4</ele>
        <time>2020-08-08T12:40:59Z</time>
      </trkpt>
      <trkpt lat="41.0363480" lon="0.5970500">
        <ele>27.5</ele>
        <time>2020-08-08T12:41:00Z</time>
      </trkpt>
      <trkpt lat="41.0363420" lon="0.5970410">
        <ele>27.5</ele>
        <time>2020-08-08T12:41:02Z</time>
      </trkpt>
      <trkpt lat="41.0363370" lon="0.5970350">
        <ele>27.6</ele>
        <time>2020-08-08T12:41:03Z</time>
      </trkpt>
      <trkpt lat="41.0363340" lon="0.5970300">
        <ele>27.7</ele>
        <time>2020-08-08T12:41:04Z</time>
      </trkpt>
      <trkpt lat="41.0363130" lon="0.5970000">
        <ele>28.0</ele>
        <time>2020-08-08T12:41:05Z</time>
      </trkpt>
      <trkpt lat="41.0362960" lon="0.5969780">
        <ele>28.2</ele>
        <time>2020-08-08T12:41:09Z</time>
      </trkpt>
      <trkpt lat="41.0362790" lon="0.5969570">
        <ele>28.6</ele>
        <time>2020-08-08T12:41:10Z</time>
      </trkpt>
      <trkpt lat="41.0362620" lon="0.5969350">
        <ele>28.6</ele>
        <time>2020-08-08T12:41:11Z</time>
      </trkpt>
      <trkpt lat="41.0362290" lon="0.5969030">
        <ele>28.7</ele>
        <time>2020-08-08T12:41:13Z</time>
      </trkpt>
      <trkpt lat="41.0362060" lon="0.5968800">
        <ele>28.7</ele>
        <time>2020-08-08T12:41:14Z</time>
      </trkpt>
      <trkpt lat="41.0361910" lon="0.5968600">
        <ele>29.8</ele>
        <time>2020-08-08T12:41:15Z</time>
      </trkpt>
      <trkpt lat="41.0361750" lon="0.5968200">
        <ele>30.9</ele>
        <time>2020-08-08T12:41:17Z</time>
      </trkpt>
      <trkpt lat="41.0361780" lon="0.5967780">
        <ele>32.0</ele>
        <time>2020-08-08T12:41:18Z</time>
      </trkpt>
      <trkpt lat="41.0361800" lon="0.5967670">
        <ele>32.2</ele>
        <time>2020-08-08T12:41:19Z</time>
      </trkpt>
      <trkpt lat="41.0361820" lon="0.5967270">
        <ele>33.2</ele>
        <time>2020-08-08T12:41:21Z</time>
      </trkpt>
      <trkpt lat="41.0361830" lon="0.5967070">
        <ele>33.6</ele>
        <time>2020-08-08T12:41:22Z</time>
      </trkpt>
      <trkpt lat="41.0361890" lon="0.5966750">
        <ele>34.3</ele>
        <time>2020-08-08T12:41:24Z</time>
      </trkpt>
      <trkpt lat="41.0361880" lon="0.5966580">
        <ele>34.7</ele>
        <time>2020-08-08T12:41:25Z</time>
      </trkpt>
      <trkpt lat="41.0361920" lon="0.5966390">
        <ele>35.1</ele>
        <time>2020-08-08T12:41:26Z</time>
      </trkpt>
      <trkpt lat="41.0361950" lon="0.5966200">
        <ele>35.4</ele>
        <time>2020-08-08T12:41:27Z</time>
      </trkpt>
      <trkpt lat="41.0361920" lon="0.5965970">
        <ele>35.9</ele>
        <time>2020-08-08T12:41:28Z</time>
      </trkpt>
      <trkpt lat="41.0361900" lon="0.5965760">
        <ele>36.2</ele>
        <time>2020-08-08T12:41:29Z</time>
      </trkpt>
      <trkpt lat="41.0361920" lon="0.5965550">
        <ele>36.6</ele>
        <time>2020-08-08T12:41:30Z</time>
      </trkpt>
      <trkpt lat="41.0361980" lon="0.5965120">
        <ele>37.3</ele>
        <time>2020-08-08T12:41:32Z</time>
      </trkpt>
      <trkpt lat="41.0361990" lon="0.5965010">
        <ele>37.5</ele>
        <time>2020-08-08T12:41:33Z</time>
      </trkpt>
      <trkpt lat="41.0362020" lon="0.5964860">
        <ele>37.7</ele>
        <time>2020-08-08T12:41:34Z</time>
      </trkpt>
      <trkpt lat="41.0362040" lon="0.5964560">
        <ele>38.1</ele>
        <time>2020-08-08T12:41:36Z</time>
      </trkpt>
      <trkpt lat="41.0361990" lon="0.5964410">
        <ele>38.4</ele>
        <time>2020-08-08T12:41:37Z</time>
      </trkpt>
      <trkpt lat="41.0361960" lon="0.5964290">
        <ele>38.5</ele>
        <time>2020-08-08T12:41:38Z</time>
      </trkpt>
      <trkpt lat="41.0361910" lon="0.5964140">
        <ele>38.8</ele>
        <time>2020-08-08T12:41:40Z</time>
      </trkpt>
      <trkpt lat="41.0361850" lon="0.5963920">
        <ele>39.1</ele>
        <time>2020-08-08T12:41:41Z</time>
      </trkpt>
      <trkpt lat="41.0361820" lon="0.5963760">
        <ele>39.3</ele>
        <time>2020-08-08T12:41:42Z</time>
      </trkpt>
      <trkpt lat="41.0361760" lon="0.5963570">
        <ele>39.6</ele>
        <time>2020-08-08T12:41:43Z</time>
      </trkpt>
      <trkpt lat="41.0361700" lon="0.5963390">
        <ele>39.9</ele>
        <time>2020-08-08T12:41:44Z</time>
      </trkpt>
      <trkpt lat="41.0361590" lon="0.5963100">
        <ele>40.4</ele>
        <time>2020-08-08T12:41:46Z</time>
      </trkpt>
      <trkpt lat="41.0361530" lon="0.5962960">
        <ele>40.6</ele>
        <time>2020-08-08T12:41:47Z</time>
      </trkpt>
      <trkpt lat="41.0361480" lon="0.5962840">
        <ele>40.8</ele>
        <time>2020-08-08T12:41:48Z</time>
      </trkpt>
      <trkpt lat="41.0361460" lon="0.5962690">
        <ele>41.0</ele>
        <time>2020-08-08T12:41:49Z</time>
      </trkpt>
      <trkpt lat="41.0361490" lon="0.5962500">
        <ele>41.2</ele>
        <time>2020-08-08T12:41:51Z</time>
      </trkpt>
      <trkpt lat="41.0361530" lon="0.5962280">
        <ele>41.5</ele>
        <time>2020-08-08T12:41:52Z</time>
      </trkpt>
      <trkpt lat="41.0361540" lon="0.5962090">
        <ele>41.8</ele>
        <time>2020-08-08T12:41:53Z</time>
      </trkpt>
      <trkpt lat="41.0361430" lon="0.5961780">
        <ele>42.8</ele>
        <time>2020-08-08T12:41:55Z</time>
      </trkpt>
      <trkpt lat="41.0361280" lon="0.5961700">
        <ele>43.0</ele>
        <time>2020-08-08T12:41:57Z</time>
      </trkpt>
      <trkpt lat="41.0361120" lon="0.5961680">
        <ele>43.6</ele>
        <time>2020-08-08T12:41:58Z</time>
      </trkpt>
      <trkpt lat="41.0361090" lon="0.5961540">
        <ele>43.6</ele>
        <time>2020-08-08T12:41:59Z</time>
      </trkpt>
      <trkpt lat="41.0361070" lon="0.5961300">
        <ele>43.7</ele>
        <time>2020-08-08T12:42:01Z</time>
      </trkpt>
      <trkpt lat="41.0361090" lon="0.5961120">
        <ele>43.8</ele>
        <time>2020-08-08T12:42:02Z</time>
      </trkpt>
      <trkpt lat="41.0361160" lon="0.5960900">
        <ele>43.9</ele>
        <time>2020-08-08T12:42:03Z</time>
      </trkpt>
      <trkpt lat="41.0361230" lon="0.5960710">
        <ele>44.9</ele>
        <time>2020-08-08T12:42:04Z</time>
      </trkpt>
      <trkpt lat="41.0361290" lon="0.5960540">
        <ele>44.9</ele>
        <time>2020-08-08T12:42:05Z</time>
      </trkpt>
      <trkpt lat="41.0361390" lon="0.5960220">
        <ele>44.9</ele>
        <time>2020-08-08T12:42:07Z</time>
      </trkpt>
      <trkpt lat="41.0361420" lon="0.5960080">
        <ele>44.9</ele>
        <time>2020-08-08T12:42:08Z</time>
      </trkpt>
      <trkpt lat="41.0361490" lon="0.5959900">
        <ele>44.9</ele>
        <time>2020-08-08T12:42:09Z</time>
      </trkpt>
      <trkpt lat="41.0361560" lon="0.5959740">
        <ele>45.1</ele>
        <time>2020-08-08T12:42:10Z</time>
      </trkpt>
      <trkpt lat="41.0361610" lon="0.5959520">
        <ele>45.7</ele>
        <time>2020-08-08T12:42:11Z</time>
      </trkpt>
      <trkpt lat="41.0361680" lon="0.5959340">
        <ele>46.3</ele>
        <time>2020-08-08T12:42:13Z</time>
      </trkpt>
      <trkpt lat="41.0361750" lon="0.5959170">
        <ele>46.8</ele>
        <time>2020-08-08T12:42:14Z</time>
      </trkpt>
      <trkpt lat="41.0361780" lon="0.5958990">
        <ele>47.4</ele>
        <time>2020-08-08T12:42:15Z</time>
      </trkpt>
      <trkpt lat="41.0361850" lon="0.5958760">
        <ele>48.1</ele>
        <time>2020-08-08T12:42:16Z</time>
      </trkpt>
      <trkpt lat="41.0361890" lon="0.5958660">
        <ele>48.4</ele>
        <time>2020-08-08T12:42:17Z</time>
      </trkpt>
      <trkpt lat="41.0361930" lon="0.5958550">
        <ele>48.8</ele>
        <time>2020-08-08T12:42:18Z</time>
      </trkpt>
      <trkpt lat="41.0362020" lon="0.5958440">
        <ele>49.2</ele>
        <time>2020-08-08T12:42:19Z</time>
      </trkpt>
      <trkpt lat="41.0362160" lon="0.5958300">
        <ele>49.9</ele>
        <time>2020-08-08T12:42:21Z</time>
      </trkpt>
      <trkpt lat="41.0362310" lon="0.5958180">
        <ele>50.5</ele>
        <time>2020-08-08T12:42:22Z</time>
      </trkpt>
      <trkpt lat="41.0362410" lon="0.5957970">
        <ele>51.1</ele>
        <time>2020-08-08T12:42:23Z</time>
      </trkpt>
      <trkpt lat="41.0362560" lon="0.5957660">
        <ele>52.1</ele>
        <time>2020-08-08T12:42:25Z</time>
      </trkpt>
      <trkpt lat="41.0362690" lon="0.5957510">
        <ele>52.7</ele>
        <time>2020-08-08T12:42:26Z</time>
      </trkpt>
      <trkpt lat="41.0362890" lon="0.5957280">
        <ele>53.7</ele>
        <time>2020-08-08T12:42:28Z</time>
      </trkpt>
      <trkpt lat="41.0363200" lon="0.5957080">
        <ele>55.1</ele>
        <time>2020-08-08T12:42:30Z</time>
      </trkpt>
      <trkpt lat="41.0363370" lon="0.5956970">
        <ele>55.9</ele>
        <time>2020-08-08T12:42:32Z</time>
      </trkpt>
      <trkpt lat="41.0363480" lon="0.5956900">
        <ele>56.4</ele>
        <time>2020-08-08T12:42:33Z</time>
      </trkpt>
      <trkpt lat="41.0363590" lon="0.5956870">
        <ele>56.8</ele>
        <time>2020-08-08T12:42:34Z</time>
      </trkpt>
      <trkpt lat="41.0363710" lon="0.5956880">
        <ele>57.3</ele>
        <time>2020-08-08T12:42:35Z</time>
      </trkpt>
      <trkpt lat="41.0363830" lon="0.5956790">
        <ele>58.1</ele>
        <time>2020-08-08T12:42:36Z</time>
      </trkpt>
      <trkpt lat="41.0363910" lon="0.5956640">
        <ele>58.6</ele>
        <time>2020-08-08T12:42:38Z</time>
      </trkpt>
      <trkpt lat="41.0364010" lon="0.5956480">
        <ele>59.1</ele>
        <time>2020-08-08T12:42:39Z</time>
      </trkpt>
      <trkpt lat="41.0364100" lon="0.5956290">
        <ele>59.8</ele>
        <time>2020-08-08T12:42:40Z</time>
      </trkpt>
      <trkpt lat="41.0364160" lon="0.5956140">
        <ele>60.2</ele>
        <time>2020-08-08T12:42:41Z</time>
      </trkpt>
      <trkpt lat="41.0364130" lon="0.5955930">
        <ele>60.7</ele>
        <time>2020-08-08T12:42:42Z</time>
      </trkpt>
      <trkpt lat="41.0364040" lon="0.5955890">
        <ele>60.7</ele>
        <time>2020-08-08T12:42:44Z</time>
      </trkpt>
      <trkpt lat="41.0363940" lon="0.5955850">
        <ele>60.7</ele>
        <time>2020-08-08T12:42:46Z</time>
      </trkpt>
      <trkpt lat="41.0363850" lon="0.5955810">
        <ele>60.7</ele>
        <time>2020-08-08T12:42:47Z</time>
      </trkpt>
      <trkpt lat="41.0363760" lon="0.5955770">
        <ele>60.7</ele>
        <time>2020-08-08T12:42:48Z</time>
      </trkpt>
      <trkpt lat="41.0363590" lon="0.5955790">
        <ele>60.8</ele>
        <time>2020-08-08T12:42:50Z</time>
      </trkpt>
      <trkpt lat="41.0363460" lon="0.5955750">
        <ele>60.8</ele>
        <time>2020-08-08T12:42:51Z</time>
      </trkpt>
      <trkpt lat="41.0363330" lon="0.5955710">
        <ele>60.8</ele>
        <time>2020-08-08T12:42:52Z</time>
      </trkpt>
      <trkpt lat="41.0363140" lon="0.5955700">
        <ele>60.9</ele>
        <time>2020-08-08T12:42:54Z</time>
      </trkpt>
      <trkpt lat="41.0362930" lon="0.5955650">
        <ele>60.9</ele>
        <time>2020-08-08T12:42:56Z</time>
      </trkpt>
      <trkpt lat="41.0362830" lon="0.5955640">
        <ele>60.9</ele>
        <time>2020-08-08T12:42:57Z</time>
      </trkpt>
      <trkpt lat="41.0362710" lon="0.5955640">
        <ele>60.9</ele>
        <time>2020-08-08T12:42:58Z</time>
      </trkpt>
      <trkpt lat="41.0362590" lon="0.5955600">
        <ele>60.9</ele>
        <time>2020-08-08T12:42:59Z</time>
      </trkpt>
      <trkpt lat="41.0362430" lon="0.5955570">
        <ele>61.0</ele>
        <time>2020-08-08T12:43:01Z</time>
      </trkpt>
      <trkpt lat="41.0362280" lon="0.5955540">
        <ele>61.0</ele>
        <time>2020-08-08T12:43:02Z</time>
      </trkpt>
      <trkpt lat="41.0362090" lon="0.5955590">
        <ele>61.0</ele>
        <time>2020-08-08T12:43:04Z</time>
      </trkpt>
      <trkpt lat="41.0361950" lon="0.5955600">
        <ele>61.0</ele>
        <time>2020-08-08T12:43:05Z</time>
      </trkpt>
      <trkpt lat="41.0361800" lon="0.5955610">
        <ele>61.1</ele>
        <time>2020-08-08T12:43:06Z</time>
      </trkpt>
      <trkpt lat="41.0361670" lon="0.5955620">
        <ele>61.1</ele>
        <time>2020-08-08T12:43:08Z</time>
      </trkpt>
      <trkpt lat="41.0361590" lon="0.5955610">
        <ele>61.1</ele>
        <time>2020-08-08T12:43:09Z</time>
      </trkpt>
      <trkpt lat="41.0361470" lon="0.5955530">
        <ele>61.1</ele>
        <time>2020-08-08T12:43:11Z</time>
      </trkpt>
      <trkpt lat="41.0361340" lon="0.5955420">
        <ele>61.1</ele>
        <time>2020-08-08T12:43:12Z</time>
      </trkpt>
      <trkpt lat="41.0361200" lon="0.5955480">
        <ele>61.1</ele>
        <time>2020-08-08T12:43:14Z</time>
      </trkpt>
      <trkpt lat="41.0361080" lon="0.5955620">
        <ele>61.1</ele>
        <time>2020-08-08T12:43:15Z</time>
      </trkpt>
      <trkpt lat="41.0360940" lon="0.5955720">
        <ele>61.1</ele>
        <time>2020-08-08T12:43:16Z</time>
      </trkpt>
      <trkpt lat="41.0360780" lon="0.5955730">
        <ele>61.2</ele>
        <time>2020-08-08T12:43:18Z</time>
      </trkpt>
      <trkpt lat="41.0360690" lon="0.5955740">
        <ele>61.2</ele>
        <time>2020-08-08T12:43:19Z</time>
      </trkpt>
      <trkpt lat="41.0360660" lon="0.5955750">
        <ele>61.2</ele>
        <time>2020-08-08T12:43:21Z</time>
      </trkpt>
      <trkpt lat="41.0360630" lon="0.5955750">
        <ele>61.2</ele>
        <time>2020-08-08T12:43:23Z</time>
      </trkpt>
      <trkpt lat="41.0360610" lon="0.5955750">
        <ele>61.2</ele>
        <time>2020-08-08T12:43:24Z</time>
      </trkpt>
      <trkpt lat="41.0360600" lon="0.5955760">
        <ele>61.2</ele>
        <time>2020-08-08T12:43:25Z</time>
      </trkpt>
      <trkpt lat="41.0360580" lon="0.5955760">
        <ele>61.2</ele>
        <time>2020-08-08T12:43:27Z</time>
      </trkpt>
      <trkpt lat="41.0360580" lon="0.5955760">
        <ele>61.2</ele>
        <time>2020-08-08T12:43:28Z</time>
      </trkpt>
      <trkpt lat="41.0360420" lon="0.5955570">
        <ele>61.2</ele>
        <time>2020-08-08T12:43:34Z</time>
      </trkpt>
      <trkpt lat="41.0360360" lon="0.5955490">
        <ele>61.2</ele>
        <time>2020-08-08T12:43:35Z</time>
      </trkpt>
      <trkpt lat="41.0360340" lon="0.5955440">
        <ele>61.2</ele>
        <time>2020-08-08T12:43:36Z</time>
      </trkpt>
      <trkpt lat="41.0360360" lon="0.5955450">
        <ele>61.2</ele>
        <time>2020-08-08T12:43:38Z</time>
      </trkpt>
      <trkpt lat="41.0360390" lon="0.5955440">
        <ele>61.2</ele>
        <time>2020-08-08T12:43:40Z</time>
      </trkpt>
      <trkpt lat="41.0360400" lon="0.5955430">
        <ele>61.2</ele>
        <time>2020-08-08T12:43:41Z</time>
      </trkpt>
      <trkpt lat="41.0360390" lon="0.5955400">
        <ele>61.1</ele>
        <time>2020-08-08T12:43:43Z</time>
      </trkpt>
      <trkpt lat="41.0360390" lon="0.5955400">
        <ele>61.1</ele>
        <time>2020-08-08T12:43:44Z</time>
      </trkpt>
      <trkpt lat="41.0360380" lon="0.5955390">
        <ele>61.1</ele>
        <time>2020-08-08T12:43:45Z</time>
      </trkpt>
      <trkpt lat="41.0360100" lon="0.5955590">
        <ele>61.1</ele>
        <time>2020-08-08T12:48:36Z</time>
      </trkpt>
      <trkpt lat="41.0360110" lon="0.5955750">
        <ele>61.1</ele>
        <time>2020-08-08T12:48:37Z</time>
      </trkpt>
      <trkpt lat="41.0360190" lon="0.5955920">
        <ele>61.0</ele>
        <time>2020-08-08T12:48:39Z</time>
      </trkpt>
      <trkpt lat="41.0360280" lon="0.5955900">
        <ele>61.0</ele>
        <time>2020-08-08T12:48:40Z</time>
      </trkpt>
      <trkpt lat="41.0360440" lon="0.5955770">
        <ele>61.0</ele>
        <time>2020-08-08T12:48:42Z</time>
      </trkpt>
      <trkpt lat="41.0360450" lon="0.5955690">
        <ele>61.0</ele>
        <time>2020-08-08T12:48:44Z</time>
      </trkpt>
      <trkpt lat="41.0360420" lon="0.5955610">
        <ele>60.9</ele>
        <time>2020-08-08T12:48:45Z</time>
      </trkpt>
      <trkpt lat="41.0360420" lon="0.5955490">
        <ele>61.5</ele>
        <time>2020-08-08T12:48:47Z</time>
      </trkpt>
      <trkpt lat="41.0360470" lon="0.5955480">
        <ele>61.6</ele>
        <time>2020-08-08T12:48:53Z</time>
      </trkpt>
      <trkpt lat="41.0360500" lon="0.5955500">
        <ele>61.7</ele>
        <time>2020-08-08T12:48:55Z</time>
      </trkpt>
      <trkpt lat="41.0360470" lon="0.5955550">
        <ele>61.9</ele>
        <time>2020-08-08T12:48:57Z</time>
      </trkpt>
      <trkpt lat="41.0360700" lon="0.5955420">
        <ele>62.6</ele>
        <time>2020-08-08T12:49:01Z</time>
      </trkpt>
      <trkpt lat="41.0360780" lon="0.5955390">
        <ele>62.9</ele>
        <time>2020-08-08T12:49:02Z</time>
      </trkpt>
      <trkpt lat="41.0360960" lon="0.5955270">
        <ele>63.5</ele>
        <time>2020-08-08T12:49:04Z</time>
      </trkpt>
      <trkpt lat="41.0361090" lon="0.5955140">
        <ele>64.0</ele>
        <time>2020-08-08T12:49:06Z</time>
      </trkpt>
      <trkpt lat="41.0361170" lon="0.5954960">
        <ele>64.4</ele>
        <time>2020-08-08T12:49:08Z</time>
      </trkpt>
      <trkpt lat="41.0361280" lon="0.5954720">
        <ele>65.0</ele>
        <time>2020-08-08T12:49:10Z</time>
      </trkpt>
      <trkpt lat="41.0361420" lon="0.5954430">
        <ele>65.7</ele>
        <time>2020-08-08T12:49:12Z</time>
      </trkpt>
      <trkpt lat="41.0361590" lon="0.5954190">
        <ele>66.4</ele>
        <time>2020-08-08T12:49:14Z</time>
      </trkpt>
      <trkpt lat="41.0361740" lon="0.5954140">
        <ele>66.8</ele>
        <time>2020-08-08T12:49:16Z</time>
      </trkpt>
      <trkpt lat="41.0361850" lon="0.5954120">
        <ele>67.1</ele>
        <time>2020-08-08T12:49:17Z</time>
      </trkpt>
      <trkpt lat="41.0361940" lon="0.5954130">
        <ele>67.3</ele>
        <time>2020-08-08T12:49:18Z</time>
      </trkpt>
      <trkpt lat="41.0362020" lon="0.5954130">
        <ele>67.6</ele>
        <time>2020-08-08T12:49:19Z</time>
      </trkpt>
      <trkpt lat="41.0362090" lon="0.5954150">
        <ele>67.8</ele>
        <time>2020-08-08T12:49:20Z</time>
      </trkpt>
      <trkpt lat="41.0362200" lon="0.5954140">
        <ele>68.1</ele>
        <time>2020-08-08T12:49:21Z</time>
      </trkpt>
      <trkpt lat="41.0362330" lon="0.5954150">
        <ele>68.4</ele>
        <time>2020-08-08T12:49:22Z</time>
      </trkpt>
      <trkpt lat="41.0362470" lon="0.5954210">
        <ele>68.8</ele>
        <time>2020-08-08T12:49:24Z</time>
      </trkpt>
      <trkpt lat="41.0362450" lon="0.5954330">
        <ele>69.0</ele>
        <time>2020-08-08T12:49:26Z</time>
      </trkpt>
      <trkpt lat="41.0362300" lon="0.5954560">
        <ele>69.7</ele>
        <time>2020-08-08T12:49:29Z</time>
      </trkpt>
      <trkpt lat="41.0362270" lon="0.5954570">
        <ele>69.7</ele>
        <time>2020-08-08T12:49:31Z</time>
      </trkpt>
      <trkpt lat="41.0362250" lon="0.5954540">
        <ele>69.8</ele>
        <time>2020-08-08T12:49:32Z</time>
      </trkpt>
      <trkpt lat="41.0362250" lon="0.5954510">
        <ele>69.9</ele>
        <time>2020-08-08T12:49:33Z</time>
      </trkpt>
      <trkpt lat="41.0362330" lon="0.5954410">
        <ele>70.2</ele>
        <time>2020-08-08T12:49:35Z</time>
      </trkpt>
      <trkpt lat="41.0362400" lon="0.5954330">
        <ele>70.5</ele>
        <time>2020-08-08T12:49:36Z</time>
      </trkpt>
      <trkpt lat="41.0362480" lon="0.5954250">
        <ele>70.8</ele>
        <time>2020-08-08T12:49:37Z</time>
      </trkpt>
      <trkpt lat="41.0362560" lon="0.5954220">
        <ele>71.0</ele>
        <time>2020-08-08T12:49:38Z</time>
      </trkpt>
      <trkpt lat="41.0362670" lon="0.5954280">
        <ele>71.4</ele>
        <time>2020-08-08T12:49:40Z</time>
      </trkpt>
      <trkpt lat="41.0362720" lon="0.5954270">
        <ele>71.5</ele>
        <time>2020-08-08T12:49:41Z</time>
      </trkpt>
      <trkpt lat="41.0362840" lon="0.5954170">
        <ele>71.9</ele>
        <time>2020-08-08T12:49:43Z</time>
      </trkpt>
      <trkpt lat="41.0362930" lon="0.5954120">
        <ele>72.2</ele>
        <time>2020-08-08T12:49:44Z</time>
      </trkpt>
      <trkpt lat="41.0363010" lon="0.5954050">
        <ele>72.5</ele>
        <time>2020-08-08T12:49:45Z</time>
      </trkpt>
      <trkpt lat="41.0363030" lon="0.5954040">
        <ele>72.6</ele>
        <time>2020-08-08T12:49:47Z</time>
      </trkpt>
      <trkpt lat="41.0362980" lon="0.5954110">
        <ele>72.8</ele>
        <time>2020-08-08T12:49:48Z</time>
      </trkpt>
      <trkpt lat="41.0362920" lon="0.5954180">
        <ele>73.1</ele>
        <time>2020-08-08T12:49:49Z</time>
      </trkpt>
      <trkpt lat="41.0362790" lon="0.5954350">
        <ele>73.6</ele>
        <time>2020-08-08T12:49:51Z</time>
      </trkpt>
      <trkpt lat="41.0362720" lon="0.5954430">
        <ele>73.9</ele>
        <time>2020-08-08T12:49:52Z</time>
      </trkpt>
      <trkpt lat="41.0362690" lon="0.5954470">
        <ele>74.0</ele>
        <time>2020-08-08T12:49:53Z</time>
      </trkpt>
      <trkpt lat="41.0362650" lon="0.5954510">
        <ele>74.2</ele>
        <time>2020-08-08T12:49:55Z</time>
      </trkpt>
      <trkpt lat="41.0362960" lon="0.5954580">
        <ele>75.1</ele>
        <time>2020-08-08T12:50:09Z</time>
      </trkpt>
      <trkpt lat="41.0363030" lon="0.5954540">
        <ele>75.4</ele>
        <time>2020-08-08T12:50:10Z</time>
      </trkpt>
      <trkpt lat="41.0363120" lon="0.5954550">
        <ele>75.6</ele>
        <time>2020-08-08T12:50:12Z</time>
      </trkpt>
      <trkpt lat="41.0363210" lon="0.5954540">
        <ele>75.9</ele>
        <time>2020-08-08T12:50:13Z</time>
      </trkpt>
      <trkpt lat="41.0363310" lon="0.5954480">
        <ele>76.2</ele>
        <time>2020-08-08T12:50:14Z</time>
      </trkpt>
      <trkpt lat="41.0363470" lon="0.5954320">
        <ele>76.9</ele>
        <time>2020-08-08T12:50:15Z</time>
      </trkpt>
      <trkpt lat="41.0363600" lon="0.5954150">
        <ele>77.4</ele>
        <time>2020-08-08T12:50:17Z</time>
      </trkpt>
      <trkpt lat="41.0363680" lon="0.5954070">
        <ele>77.7</ele>
        <time>2020-08-08T12:50:18Z</time>
      </trkpt>
      <trkpt lat="41.0363800" lon="0.5953940">
        <ele>78.1</ele>
        <time>2020-08-08T12:50:19Z</time>
      </trkpt>
      <trkpt lat="41.0363930" lon="0.5953760">
        <ele>78.6</ele>
        <time>2020-08-08T12:50:21Z</time>
      </trkpt>
      <trkpt lat="41.0363970" lon="0.5953560">
        <ele>79.1</ele>
        <time>2020-08-08T12:50:23Z</time>
      </trkpt>
      <trkpt lat="41.0363950" lon="0.5953410">
        <ele>79.3</ele>
        <time>2020-08-08T12:50:24Z</time>
      </trkpt>
      <trkpt lat="41.0363970" lon="0.5953350">
        <ele>79.4</ele>
        <time>2020-08-08T12:50:25Z</time>
      </trkpt>
      <trkpt lat="41.0364000" lon="0.5953240">
        <ele>79.6</ele>
        <time>2020-08-08T12:50:27Z</time>
      </trkpt>
      <trkpt lat="41.0364000" lon="0.5953220">
        <ele>79.7</ele>
        <time>2020-08-08T12:50:28Z</time>
      </trkpt>
      <trkpt lat="41.0364010" lon="0.5953170">
        <ele>79.8</ele>
        <time>2020-08-08T12:50:30Z</time>
      </trkpt>
      <trkpt lat="41.0364020" lon="0.5953150">
        <ele>79.8</ele>
        <time>2020-08-08T12:50:31Z</time>
      </trkpt>
      <trkpt lat="41.0364020" lon="0.5953140">
        <ele>79.8</ele>
        <time>2020-08-08T12:50:32Z</time>
      </trkpt>
      <trkpt lat="41.0364030" lon="0.5953120">
        <ele>79.9</ele>
        <time>2020-08-08T12:50:33Z</time>
      </trkpt>
      <trkpt lat="41.0364040" lon="0.5952110">
        <ele>81.4</ele>
        <time>2020-08-08T12:50:55Z</time>
      </trkpt>
      <trkpt lat="41.0364010" lon="0.5951900">
        <ele>81.7</ele>
        <time>2020-08-08T12:50:56Z</time>
      </trkpt>
      <trkpt lat="41.0364000" lon="0.5951470">
        <ele>82.3</ele>
        <time>2020-08-08T12:50:58Z</time>
      </trkpt>
      <trkpt lat="41.0363990" lon="0.5951510">
        <ele>82.4</ele>
        <time>2020-08-08T12:50:59Z</time>
      </trkpt>
      <trkpt lat="41.0363990" lon="0.5951440">
        <ele>82.5</ele>
        <time>2020-08-08T12:51:00Z</time>
      </trkpt>
      <trkpt lat="41.0364000" lon="0.5951360">
        <ele>82.6</ele>
        <time>2020-08-08T12:51:02Z</time>
      </trkpt>
      <trkpt lat="41.0364000" lon="0.5951290">
        <ele>82.7</ele>
        <time>2020-08-08T12:51:03Z</time>
      </trkpt>
      <trkpt lat="41.0364010" lon="0.5951220">
        <ele>82.8</ele>
        <time>2020-08-08T12:51:04Z</time>
      </trkpt>
      <trkpt lat="41.0364010" lon="0.5951150">
        <ele>82.9</ele>
        <time>2020-08-08T12:51:05Z</time>
      </trkpt>
      <trkpt lat="41.0364020" lon="0.5951070">
        <ele>83.0</ele>
        <time>2020-08-08T12:51:06Z</time>
      </trkpt>
      <trkpt lat="41.0364020" lon="0.5951000">
        <ele>83.1</ele>
        <time>2020-08-08T12:51:08Z</time>
      </trkpt>
      <trkpt lat="41.0364030" lon="0.5950930">
        <ele>83.2</ele>
        <time>2020-08-08T12:51:09Z</time>
      </trkpt>
      <trkpt lat="41.0364120" lon="0.5950580">
        <ele>83.6</ele>
        <time>2020-08-08T12:51:10Z</time>
      </trkpt>
      <trkpt lat="41.0364140" lon="0.5950170">
        <ele>84.2</ele>
        <time>2020-08-08T12:51:11Z</time>
      </trkpt>
      <trkpt lat="41.0364130" lon="0.5950030">
        <ele>84.4</ele>
        <time>2020-08-08T12:51:12Z</time>
      </trkpt>
      <trkpt lat="41.0364130" lon="0.5949710">
        <ele>84.8</ele>
        <time>2020-08-08T12:51:14Z</time>
      </trkpt>
      <trkpt lat="41.0364140" lon="0.5949580">
        <ele>85.0</ele>
        <time>2020-08-08T12:51:15Z</time>
      </trkpt>
      <trkpt lat="41.0364400" lon="0.5948950">
        <ele>86.0</ele>
        <time>2020-08-08T12:51:17Z</time>
      </trkpt>
      <trkpt lat="41.0364430" lon="0.5948720">
        <ele>86.3</ele>
        <time>2020-08-08T12:51:18Z</time>
      </trkpt>
      <trkpt lat="41.0364440" lon="0.5948490">
        <ele>86.7</ele>
        <time>2020-08-08T12:51:20Z</time>
      </trkpt>
      <trkpt lat="41.0364450" lon="0.5948310">
        <ele>86.9</ele>
        <time>2020-08-08T12:51:21Z</time>
      </trkpt>
      <trkpt lat="41.0364500" lon="0.5948090">
        <ele>87.3</ele>
        <time>2020-08-08T12:51:23Z</time>
      </trkpt>
      <trkpt lat="41.0364550" lon="0.5947900">
        <ele>87.6</ele>
        <time>2020-08-08T12:51:24Z</time>
      </trkpt>
      <trkpt lat="41.0364580" lon="0.5947680">
        <ele>88.0</ele>
        <time>2020-08-08T12:51:26Z</time>
      </trkpt>
      <trkpt lat="41.0364580" lon="0.5947530">
        <ele>88.2</ele>
        <time>2020-08-08T12:51:27Z</time>
      </trkpt>
      <trkpt lat="41.0364570" lon="0.5947280">
        <ele>88.6</ele>
        <time>2020-08-08T12:51:29Z</time>
      </trkpt>
      <trkpt lat="41.0364570" lon="0.5947060">
        <ele>89.0</ele>
        <time>2020-08-08T12:51:30Z</time>
      </trkpt>
      <trkpt lat="41.0364560" lon="0.5946910">
        <ele>89.2</ele>
        <time>2020-08-08T12:51:31Z</time>
      </trkpt>
      <trkpt lat="41.0364560" lon="0.5946770">
        <ele>89.5</ele>
        <time>2020-08-08T12:51:32Z</time>
      </trkpt>
      <trkpt lat="41.0364570" lon="0.5946640">
        <ele>89.7</ele>
        <time>2020-08-08T12:51:33Z</time>
      </trkpt>
      <trkpt lat="41.0364590" lon="0.5946430">
        <ele>90.0</ele>
        <time>2020-08-08T12:51:35Z</time>
      </trkpt>
      <trkpt lat="41.0364620" lon="0.5946240">
        <ele>90.4</ele>
        <time>2020-08-08T12:51:37Z</time>
      </trkpt>
      <trkpt lat="41.0364630" lon="0.5946060">
        <ele>90.7</ele>
        <time>2020-08-08T12:51:39Z</time>
      </trkpt>
      <trkpt lat="41.0364630" lon="0.5945880">
        <ele>91.0</ele>
        <time>2020-08-08T12:51:41Z</time>
      </trkpt>
      <trkpt lat="41.0364630" lon="0.5945770">
        <ele>91.2</ele>
        <time>2020-08-08T12:51:42Z</time>
      </trkpt>
      <trkpt lat="41.0364620" lon="0.5945580">
        <ele>91.5</ele>
        <time>2020-08-08T12:51:44Z</time>
      </trkpt>
      <trkpt lat="41.0364600" lon="0.5945410">
        <ele>91.9</ele>
        <time>2020-08-08T12:51:45Z</time>
      </trkpt>
      <trkpt lat="41.0364570" lon="0.5945260">
        <ele>92.1</ele>
        <time>2020-08-08T12:51:46Z</time>
      </trkpt>
      <trkpt lat="41.0364520" lon="0.5945030">
        <ele>92.6</ele>
        <time>2020-08-08T12:51:48Z</time>
      </trkpt>
      <trkpt lat="41.0364470" lon="0.5944830">
        <ele>92.9</ele>
        <time>2020-08-08T12:51:49Z</time>
      </trkpt>
      <trkpt lat="41.0364430" lon="0.5944670">
        <ele>93.2</ele>
        <time>2020-08-08T12:51:51Z</time>
      </trkpt>
      <trkpt lat="41.0364380" lon="0.5944450">
        <ele>93.6</ele>
        <time>2020-08-08T12:51:52Z</time>
      </trkpt>
      <trkpt lat="41.0364330" lon="0.5944310">
        <ele>93.9</ele>
        <time>2020-08-08T12:51:54Z</time>
      </trkpt>
      <trkpt lat="41.0364260" lon="0.5944230">
        <ele>94.1</ele>
        <time>2020-08-08T12:51:55Z</time>
      </trkpt>
      <trkpt lat="41.0364190" lon="0.5944100">
        <ele>94.4</ele>
        <time>2020-08-08T12:51:56Z</time>
      </trkpt>
      <trkpt lat="41.0364120" lon="0.5944020">
        <ele>94.6</ele>
        <time>2020-08-08T12:51:57Z</time>
      </trkpt>
      <trkpt lat="41.0363990" lon="0.5943860">
        <ele>95.1</ele>
        <time>2020-08-08T12:51:59Z</time>
      </trkpt>
      <trkpt lat="41.0363900" lon="0.5943700">
        <ele>95.4</ele>
        <time>2020-08-08T12:52:00Z</time>
      </trkpt>
      <trkpt lat="41.0363820" lon="0.5943490">
        <ele>95.5</ele>
        <time>2020-08-08T12:52:02Z</time>
      </trkpt>
      <trkpt lat="41.0363750" lon="0.5943200">
        <ele>95.7</ele>
        <time>2020-08-08T12:52:04Z</time>
      </trkpt>
      <trkpt lat="41.0363700" lon="0.5943020">
        <ele>95.7</ele>
        <time>2020-08-08T12:52:06Z</time>
      </trkpt>
      <trkpt lat="41.0363680" lon="0.5942860">
        <ele>95.8</ele>
        <time>2020-08-08T12:52:07Z</time>
      </trkpt>
      <trkpt lat="41.0363660" lon="0.5942720">
        <ele>95.8</ele>
        <time>2020-08-08T12:52:09Z</time>
      </trkpt>
      <trkpt lat="41.0363620" lon="0.5942600">
        <ele>95.9</ele>
        <time>2020-08-08T12:52:10Z</time>
      </trkpt>
      <trkpt lat="41.0363600" lon="0.5942470">
        <ele>95.9</ele>
        <time>2020-08-08T12:52:11Z</time>
      </trkpt>
      <trkpt lat="41.0363550" lon="0.5942220">
        <ele>95.9</ele>
        <time>2020-08-08T12:52:12Z</time>
      </trkpt>
      <trkpt lat="41.0363530" lon="0.5942080">
        <ele>96.0</ele>
        <time>2020-08-08T12:52:14Z</time>
      </trkpt>
      <trkpt lat="41.0363500" lon="0.5941950">
        <ele>96.0</ele>
        <time>2020-08-08T12:52:15Z</time>
      </trkpt>
      <trkpt lat="41.0363460" lon="0.5941810">
        <ele>96.0</ele>
        <time>2020-08-08T12:52:16Z</time>
      </trkpt>
      <trkpt lat="41.0363400" lon="0.5941580">
        <ele>96.1</ele>
        <time>2020-08-08T12:52:18Z</time>
      </trkpt>
      <trkpt lat="41.0363370" lon="0.5941440">
        <ele>96.2</ele>
        <time>2020-08-08T12:52:19Z</time>
      </trkpt>
      <trkpt lat="41.0363350" lon="0.5941350">
        <ele>96.2</ele>
        <time>2020-08-08T12:52:20Z</time>
      </trkpt>
      <trkpt lat="41.0363310" lon="0.5941230">
        <ele>96.2</ele>
        <time>2020-08-08T12:52:22Z</time>
      </trkpt>
      <trkpt lat="41.0363300" lon="0.5941110">
        <ele>96.3</ele>
        <time>2020-08-08T12:52:24Z</time>
      </trkpt>
      <trkpt lat="41.0363310" lon="0.5940960">
        <ele>96.3</ele>
        <time>2020-08-08T12:52:25Z</time>
      </trkpt>
      <trkpt lat="41.0363320" lon="0.5940880">
        <ele>96.3</ele>
        <time>2020-08-08T12:52:26Z</time>
      </trkpt>
      <trkpt lat="41.0363330" lon="0.5940820">
        <ele>96.3</ele>
        <time>2020-08-08T12:52:27Z</time>
      </trkpt>
      <trkpt lat="41.0363360" lon="0.5940750">
        <ele>96.5</ele>
        <time>2020-08-08T12:52:28Z</time>
      </trkpt>
      <trkpt lat="41.0363390" lon="0.5940640">
        <ele>96.5</ele>
        <time>2020-08-08T12:52:30Z</time>
      </trkpt>
      <trkpt lat="41.0363410" lon="0.5940580">
        <ele>96.5</ele>
        <time>2020-08-08T12:52:32Z</time>
      </trkpt>
      <trkpt lat="41.0363380" lon="0.5940580">
        <ele>96.5</ele>
        <time>2020-08-08T12:52:33Z</time>
      </trkpt>
      <trkpt lat="41.0363330" lon="0.5940600">
        <ele>96.5</ele>
        <time>2020-08-08T12:52:34Z</time>
      </trkpt>
      <trkpt lat="41.0363300" lon="0.5940620">
        <ele>96.5</ele>
        <time>2020-08-08T12:52:36Z</time>
      </trkpt>
      <trkpt lat="41.0363260" lon="0.5940630">
        <ele>96.5</ele>
        <time>2020-08-08T12:52:37Z</time>
      </trkpt>
      <trkpt lat="41.0363240" lon="0.5940640">
        <ele>96.5</ele>
        <time>2020-08-08T12:52:39Z</time>
      </trkpt>
      <trkpt lat="41.0363220" lon="0.5940650">
        <ele>96.5</ele>
        <time>2020-08-08T12:52:40Z</time>
      </trkpt>
      <trkpt lat="41.0363200" lon="0.5940650">
        <ele>96.5</ele>
        <time>2020-08-08T12:52:41Z</time>
      </trkpt>
      <trkpt lat="41.0363180" lon="0.5940650">
        <ele>96.5</ele>
        <time>2020-08-08T12:52:42Z</time>
      </trkpt>
      <trkpt lat="41.0363150" lon="0.5940660">
        <ele>96.5</ele>
        <time>2020-08-08T12:52:44Z</time>
      </trkpt>
      <trkpt lat="41.0362480" lon="0.5941150">
        <ele>97.8</ele>
        <time>2020-08-08T12:53:01Z</time>
      </trkpt>
      <trkpt lat="41.0362400" lon="0.5941280">
        <ele>98.3</ele>
        <time>2020-08-08T12:53:03Z</time>
      </trkpt>
      <trkpt lat="41.0362270" lon="0.5941450">
        <ele>98.3</ele>
        <time>2020-08-08T12:53:05Z</time>
      </trkpt>
      <trkpt lat="41.0362190" lon="0.5941510">
        <ele>98.3</ele>
        <time>2020-08-08T12:53:06Z</time>
      </trkpt>
      <trkpt lat="41.0362130" lon="0.5941580">
        <ele>99.0</ele>
        <time>2020-08-08T12:53:07Z</time>
      </trkpt>
      <trkpt lat="41.0362090" lon="0.5941650">
        <ele>98.7</ele>
        <time>2020-08-08T12:53:08Z</time>
      </trkpt>
      <trkpt lat="41.0362020" lon="0.5941710">
        <ele>98.7</ele>
        <time>2020-08-08T12:53:09Z</time>
      </trkpt>
      <trkpt lat="41.0361960" lon="0.5941760">
        <ele>98.7</ele>
        <time>2020-08-08T12:53:10Z</time>
      </trkpt>
      <trkpt lat="41.0361910" lon="0.5941800">
        <ele>98.7</ele>
        <time>2020-08-08T12:53:12Z</time>
      </trkpt>
      <trkpt lat="41.0361830" lon="0.5941800">
        <ele>98.7</ele>
        <time>2020-08-08T12:53:13Z</time>
      </trkpt>
      <trkpt lat="41.0361750" lon="0.5941790">
        <ele>99.3</ele>
        <time>2020-08-08T12:53:14Z</time>
      </trkpt>
      <trkpt lat="41.0361680" lon="0.5941760">
        <ele>99.3</ele>
        <time>2020-08-08T12:53:16Z</time>
      </trkpt>
      <trkpt lat="41.0361570" lon="0.5941700">
        <ele>99.3</ele>
        <time>2020-08-08T12:53:17Z</time>
      </trkpt>
      <trkpt lat="41.0361500" lon="0.5941660">
        <ele>100.0</ele>
        <time>2020-08-08T12:53:19Z</time>
      </trkpt>
      <trkpt lat="41.0361430" lon="0.5941600">
        <ele>100.3</ele>
        <time>2020-08-08T12:53:20Z</time>
      </trkpt>
      <trkpt lat="41.0361380" lon="0.5941540">
        <ele>100.3</ele>
        <time>2020-08-08T12:53:21Z</time>
      </trkpt>
      <trkpt lat="41.0361290" lon="0.5941460">
        <ele>100.3</ele>
        <time>2020-08-08T12:53:23Z</time>
      </trkpt>
      <trkpt lat="41.0361220" lon="0.5941400">
        <ele>100.3</ele>
        <time>2020-08-08T12:53:24Z</time>
      </trkpt>
      <trkpt lat="41.0361160" lon="0.5941400">
        <ele>100.9</ele>
        <time>2020-08-08T12:53:25Z</time>
      </trkpt>
      <trkpt lat="41.0361060" lon="0.5941380">
        <ele>100.9</ele>
        <time>2020-08-08T12:53:27Z</time>
      </trkpt>
      <trkpt lat="41.0361030" lon="0.5941380">
        <ele>100.9</ele>
        <time>2020-08-08T12:53:28Z</time>
      </trkpt>
      <trkpt lat="41.0360980" lon="0.5941380">
        <ele>100.9</ele>
        <time>2020-08-08T12:53:29Z</time>
      </trkpt>
      <trkpt lat="41.0360940" lon="0.5941380">
        <ele>100.9</ele>
        <time>2020-08-08T12:53:31Z</time>
      </trkpt>
      <trkpt lat="41.0360910" lon="0.5941390">
        <ele>100.9</ele>
        <time>2020-08-08T12:53:32Z</time>
      </trkpt>
      <trkpt lat="41.0360910" lon="0.5941420">
        <ele>100.9</ele>
        <time>2020-08-08T12:53:34Z</time>
      </trkpt>
      <trkpt lat="41.0360900" lon="0.5941460">
        <ele>100.9</ele>
        <time>2020-08-08T12:53:35Z</time>
      </trkpt>
      <trkpt lat="41.0360870" lon="0.5941510">
        <ele>100.9</ele>
        <time>2020-08-08T12:53:36Z</time>
      </trkpt>
      <trkpt lat="41.0360850" lon="0.5941570">
        <ele>101.5</ele>
        <time>2020-08-08T12:53:37Z</time>
      </trkpt>
      <trkpt lat="41.0360840" lon="0.5941600">
        <ele>101.5</ele>
        <time>2020-08-08T12:53:38Z</time>
      </trkpt>
      <trkpt lat="41.0360790" lon="0.5941710">
        <ele>101.2</ele>
        <time>2020-08-08T12:53:40Z</time>
      </trkpt>
      <trkpt lat="41.0360730" lon="0.5941840">
        <ele>101.2</ele>
        <time>2020-08-08T12:53:42Z</time>
      </trkpt>
      <trkpt lat="41.0360710" lon="0.5941950">
        <ele>101.2</ele>
        <time>2020-08-08T12:53:43Z</time>
      </trkpt>
      <trkpt lat="41.0360680" lon="0.5942060">
        <ele>100.8</ele>
        <time>2020-08-08T12:53:44Z</time>
      </trkpt>
      <trkpt lat="41.0360630" lon="0.5942200">
        <ele>100.8</ele>
        <time>2020-08-08T12:53:46Z</time>
      </trkpt>
      <trkpt lat="41.0360590" lon="0.5942300">
        <ele>100.8</ele>
        <time>2020-08-08T12:53:47Z</time>
      </trkpt>
      <trkpt lat="41.0360560" lon="0.5942420">
        <ele>100.8</ele>
        <time>2020-08-08T12:53:48Z</time>
      </trkpt>
      <trkpt lat="41.0360520" lon="0.5942540">
        <ele>101.0</ele>
        <time>2020-08-08T12:53:49Z</time>
      </trkpt>
      <trkpt lat="41.0360490" lon="0.5942660">
        <ele>101.0</ele>
        <time>2020-08-08T12:53:50Z</time>
      </trkpt>
      <trkpt lat="41.0360480" lon="0.5942770">
        <ele>101.0</ele>
        <time>2020-08-08T12:53:51Z</time>
      </trkpt>
      <trkpt lat="41.0360470" lon="0.5942920">
        <ele>100.5</ele>
        <time>2020-08-08T12:53:53Z</time>
      </trkpt>
      <trkpt lat="41.0360460" lon="0.5943030">
        <ele>100.5</ele>
        <time>2020-08-08T12:53:54Z</time>
      </trkpt>
      <trkpt lat="41.0360450" lon="0.5943160">
        <ele>100.5</ele>
        <time>2020-08-08T12:53:55Z</time>
      </trkpt>
      <trkpt lat="41.0360450" lon="0.5943410">
        <ele>99.9</ele>
        <time>2020-08-08T12:53:57Z</time>
      </trkpt>
      <trkpt lat="41.0360450" lon="0.5943500">
        <ele>99.9</ele>
        <time>2020-08-08T12:53:58Z</time>
      </trkpt>
      <trkpt lat="41.0360460" lon="0.5943470">
        <ele>99.9</ele>
        <time>2020-08-08T12:53:59Z</time>
      </trkpt>
      <trkpt lat="41.0360470" lon="0.5943490">
        <ele>99.9</ele>
        <time>2020-08-08T12:54:01Z</time>
      </trkpt>
      <trkpt lat="41.0360480" lon="0.5943520">
        <ele>99.9</ele>
        <time>2020-08-08T12:54:02Z</time>
      </trkpt>
      <trkpt lat="41.0360480" lon="0.5943570">
        <ele>99.9</ele>
        <time>2020-08-08T12:54:04Z</time>
      </trkpt>
      <trkpt lat="41.0360490" lon="0.5943600">
        <ele>99.9</ele>
        <time>2020-08-08T12:54:05Z</time>
      </trkpt>
      <trkpt lat="41.0360510" lon="0.5943640">
        <ele>99.9</ele>
        <time>2020-08-08T12:54:06Z</time>
      </trkpt>
      <trkpt lat="41.0360540" lon="0.5943650">
        <ele>99.4</ele>
        <time>2020-08-08T12:54:08Z</time>
      </trkpt>
      <trkpt lat="41.0360930" lon="0.5943650">
        <ele>98.9</ele>
        <time>2020-08-08T12:54:11Z</time>
      </trkpt>
      <trkpt lat="41.0361090" lon="0.5943800">
        <ele>98.2</ele>
        <time>2020-08-08T12:54:13Z</time>
      </trkpt>
      <trkpt lat="41.0361090" lon="0.5943880">
        <ele>98.2</ele>
        <time>2020-08-08T12:54:14Z</time>
      </trkpt>
      <trkpt lat="41.0361060" lon="0.5943980">
        <ele>98.2</ele>
        <time>2020-08-08T12:54:15Z</time>
      </trkpt>
      <trkpt lat="41.0361010" lon="0.5944330">
        <ele>97.5</ele>
        <time>2020-08-08T12:54:22Z</time>
      </trkpt>
      <trkpt lat="41.0360360" lon="0.5944970">
        <ele>97.4</ele>
        <time>2020-08-08T12:54:24Z</time>
      </trkpt>
      <trkpt lat="41.0360090" lon="0.5945290">
        <ele>96.8</ele>
        <time>2020-08-08T12:54:25Z</time>
      </trkpt>
      <trkpt lat="41.0360020" lon="0.5945360">
        <ele>96.8</ele>
        <time>2020-08-08T12:54:26Z</time>
      </trkpt>
      <trkpt lat="41.0360010" lon="0.5945400">
        <ele>96.8</ele>
        <time>2020-08-08T12:54:28Z</time>
      </trkpt>
      <trkpt lat="41.0360020" lon="0.5945410">
        <ele>96.8</ele>
        <time>2020-08-08T12:54:29Z</time>
      </trkpt>
      <trkpt lat="41.0360030" lon="0.5945410">
        <ele>96.8</ele>
        <time>2020-08-08T12:54:31Z</time>
      </trkpt>
      <trkpt lat="41.0360040" lon="0.5945410">
        <ele>96.8</ele>
        <time>2020-08-08T12:54:32Z</time>
      </trkpt>
      <trkpt lat="41.0360040" lon="0.5945420">
        <ele>96.8</ele>
        <time>2020-08-08T12:54:33Z</time>
      </trkpt>
      <trkpt lat="41.0360040" lon="0.5945420">
        <ele>96.8</ele>
        <time>2020-08-08T12:54:34Z</time>
      </trkpt>
      <trkpt lat="41.0360040" lon="0.5945420">
        <ele>96.8</ele>
        <time>2020-08-08T12:54:35Z</time>
      </trkpt>
      <trkpt lat="41.0360040" lon="0.5945420">
        <ele>96.8</ele>
        <time>2020-08-08T12:54:39Z</time>
      </trkpt>
      <trkpt lat="41.0359510" lon="0.5945670">
        <ele>96.2</ele>
        <time>2020-08-08T12:55:22Z</time>
      </trkpt>
      <trkpt lat="41.0359440" lon="0.5945690">
        <ele>96.2</ele>
        <time>2020-08-08T12:55:24Z</time>
      </trkpt>
      <trkpt lat="41.0359420" lon="0.5945700">
        <ele>96.2</ele>
        <time>2020-08-08T12:55:26Z</time>
      </trkpt>
      <trkpt lat="41.0359420" lon="0.5945700">
        <ele>96.2</ele>
        <time>2020-08-08T12:55:27Z</time>
      </trkpt>
      <trkpt lat="41.0359410" lon="0.5945700">
        <ele>96.2</ele>
        <time>2020-08-08T12:55:28Z</time>
      </trkpt>
      <trkpt lat="41.0359410" lon="0.5945700">
        <ele>96.3</ele>
        <time>2020-08-08T12:55:30Z</time>
      </trkpt>
      <trkpt lat="41.0359410" lon="0.5945700">
        <ele>96.3</ele>
        <time>2020-08-08T12:55:32Z</time>
      </trkpt>
      <trkpt lat="41.0359410" lon="0.5945700">
        <ele>96.3</ele>
        <time>2020-08-08T12:55:33Z</time>
      </trkpt>
      <trkpt lat="41.0359410" lon="0.5945700">
        <ele>96.3</ele>
        <time>2020-08-08T12:55:34Z</time>
      </trkpt>
      <trkpt lat="41.0359250" lon="0.5945790">
        <ele>96.3</ele>
        <time>2020-08-08T12:56:00Z</time>
      </trkpt>
      <trkpt lat="41.0359120" lon="0.5945770">
        <ele>96.4</ele>
        <time>2020-08-08T12:56:02Z</time>
      </trkpt>
      <trkpt lat="41.0359090" lon="0.5945780">
        <ele>96.4</ele>
        <time>2020-08-08T12:56:03Z</time>
      </trkpt>
      <trkpt lat="41.0359080" lon="0.5945660">
        <ele>96.4</ele>
        <time>2020-08-08T12:56:04Z</time>
      </trkpt>
      <trkpt lat="41.0359060" lon="0.5945580">
        <ele>96.4</ele>
        <time>2020-08-08T12:56:05Z</time>
      </trkpt>
      <trkpt lat="41.0358930" lon="0.5945580">
        <ele>96.4</ele>
        <time>2020-08-08T12:56:07Z</time>
      </trkpt>
      <trkpt lat="41.0358870" lon="0.5945590">
        <ele>96.5</ele>
        <time>2020-08-08T12:56:08Z</time>
      </trkpt>
      <trkpt lat="41.0358800" lon="0.5945520">
        <ele>96.5</ele>
        <time>2020-08-08T12:56:10Z</time>
      </trkpt>
      <trkpt lat="41.0358760" lon="0.5945450">
        <ele>97.7</ele>
        <time>2020-08-08T12:56:11Z</time>
      </trkpt>
      <trkpt lat="41.0358730" lon="0.5945400">
        <ele>97.7</ele>
        <time>2020-08-08T12:56:13Z</time>
      </trkpt>
      <trkpt lat="41.0358650" lon="0.5945370">
        <ele>97.7</ele>
        <time>2020-08-08T12:56:14Z</time>
      </trkpt>
      <trkpt lat="41.0358630" lon="0.5945330">
        <ele>97.7</ele>
        <time>2020-08-08T12:56:16Z</time>
      </trkpt>
      <trkpt lat="41.0358630" lon="0.5945280">
        <ele>97.7</ele>
        <time>2020-08-08T12:56:17Z</time>
      </trkpt>
      <trkpt lat="41.0358590" lon="0.5945180">
        <ele>97.7</ele>
        <time>2020-08-08T12:56:19Z</time>
      </trkpt>
      <trkpt lat="41.0358570" lon="0.5945090">
        <ele>97.7</ele>
        <time>2020-08-08T12:56:20Z</time>
      </trkpt>
      <trkpt lat="41.0358530" lon="0.5944950">
        <ele>98.8</ele>
        <time>2020-08-08T12:56:21Z</time>
      </trkpt>
      <trkpt lat="41.0358470" lon="0.5944800">
        <ele>98.8</ele>
        <time>2020-08-08T12:56:23Z</time>
      </trkpt>
      <trkpt lat="41.0358470" lon="0.5944660">
        <ele>98.8</ele>
        <time>2020-08-08T12:56:24Z</time>
      </trkpt>
      <trkpt lat="41.0358430" lon="0.5944540">
        <ele>99.9</ele>
        <time>2020-08-08T12:56:25Z</time>
      </trkpt>
      <trkpt lat="41.0358360" lon="0.5944500">
        <ele>99.9</ele>
        <time>2020-08-08T12:56:26Z</time>
      </trkpt>
      <trkpt lat="41.0358300" lon="0.5944490">
        <ele>99.9</ele>
        <time>2020-08-08T12:56:28Z</time>
      </trkpt>
      <trkpt lat="41.0358300" lon="0.5944390">
        <ele>99.9</ele>
        <time>2020-08-08T12:56:30Z</time>
      </trkpt>
      <trkpt lat="41.0358320" lon="0.5944360">
        <ele>99.9</ele>
        <time>2020-08-08T12:56:31Z</time>
      </trkpt>
      <trkpt lat="41.0358330" lon="0.5944320">
        <ele>99.9</ele>
        <time>2020-08-08T12:56:32Z</time>
      </trkpt>
      <trkpt lat="41.0358350" lon="0.5944280">
        <ele>99.9</ele>
        <time>2020-08-08T12:56:33Z</time>
      </trkpt>
      <trkpt lat="41.0358410" lon="0.5944230">
        <ele>99.9</ele>
        <time>2020-08-08T12:56:35Z</time>
      </trkpt>
      <trkpt lat="41.0358430" lon="0.5944210">
        <ele>99.9</ele>
        <time>2020-08-08T12:56:36Z</time>
      </trkpt>
      <trkpt lat="41.0358450" lon="0.5944180">
        <ele>100.9</ele>
        <time>2020-08-08T12:56:37Z</time>
      </trkpt>
      <trkpt lat="41.0358480" lon="0.5944130">
        <ele>100.9</ele>
        <time>2020-08-08T12:56:39Z</time>
      </trkpt>
      <trkpt lat="41.0357900" lon="0.5941280">
        <ele>105.5</ele>
        <time>2020-08-08T12:57:55Z</time>
      </trkpt>
      <trkpt lat="41.0355740" lon="0.5941570">
        <ele>104.6</ele>
        <time>2020-08-08T13:01:18Z</time>
      </trkpt>
      <trkpt lat="41.0355700" lon="0.5941790">
        <ele>103.8</ele>
        <time>2020-08-08T13:01:19Z</time>
      </trkpt>
      <trkpt lat="41.0356030" lon="0.5942160">
        <ele>103.5</ele>
        <time>2020-08-08T13:01:21Z</time>
      </trkpt>
      <trkpt lat="41.0356240" lon="0.5942250">
        <ele>103.5</ele>
        <time>2020-08-08T13:01:22Z</time>
      </trkpt>
      <trkpt lat="41.0356700" lon="0.5942390">
        <ele>104.2</ele>
        <time>2020-08-08T13:01:24Z</time>
      </trkpt>
      <trkpt lat="41.0357080" lon="0.5942380">
        <ele>104.3</ele>
        <time>2020-08-08T13:01:26Z</time>
      </trkpt>
      <trkpt lat="41.0357170" lon="0.5942350">
        <ele>104.3</ele>
        <time>2020-08-08T13:01:27Z</time>
      </trkpt>
      <trkpt lat="41.0357290" lon="0.5942230">
        <ele>104.3</ele>
        <time>2020-08-08T13:01:29Z</time>
      </trkpt>
      <trkpt lat="41.0357340" lon="0.5942160">
        <ele>104.3</ele>
        <time>2020-08-08T13:01:30Z</time>
      </trkpt>
      <trkpt lat="41.0357280" lon="0.5942120">
        <ele>104.3</ele>
        <time>2020-08-08T13:01:32Z</time>
      </trkpt>
      <trkpt lat="41.0357220" lon="0.5942130">
        <ele>104.3</ele>
        <time>2020-08-08T13:01:33Z</time>
      </trkpt>
      <trkpt lat="41.0357190" lon="0.5942150">
        <ele>104.3</ele>
        <time>2020-08-08T13:01:34Z</time>
      </trkpt>
      <trkpt lat="41.0357090" lon="0.5942160">
        <ele>104.3</ele>
        <time>2020-08-08T13:01:36Z</time>
      </trkpt>
      <trkpt lat="41.0357010" lon="0.5942170">
        <ele>104.3</ele>
        <time>2020-08-08T13:01:37Z</time>
      </trkpt>
      <trkpt lat="41.0356850" lon="0.5942200">
        <ele>104.2</ele>
        <time>2020-08-08T13:01:39Z</time>
      </trkpt>
      <trkpt lat="41.0356820" lon="0.5942230">
        <ele>104.2</ele>
        <time>2020-08-08T13:01:41Z</time>
      </trkpt>
      <trkpt lat="41.0356830" lon="0.5942250">
        <ele>104.2</ele>
        <time>2020-08-08T13:01:43Z</time>
      </trkpt>
      <trkpt lat="41.0356910" lon="0.5942260">
        <ele>104.2</ele>
        <time>2020-08-08T13:01:44Z</time>
      </trkpt>
      <trkpt lat="41.0357030" lon="0.5942300">
        <ele>104.3</ele>
        <time>2020-08-08T13:01:45Z</time>
      </trkpt>
      <trkpt lat="41.0357170" lon="0.5942370">
        <ele>104.3</ele>
        <time>2020-08-08T13:01:47Z</time>
      </trkpt>
      <trkpt lat="41.0357200" lon="0.5942380">
        <ele>104.3</ele>
        <time>2020-08-08T13:01:48Z</time>
      </trkpt>
      <trkpt lat="41.0357220" lon="0.5942390">
        <ele>104.3</ele>
        <time>2020-08-08T13:01:49Z</time>
      </trkpt>
      <trkpt lat="41.0357240" lon="0.5942400">
        <ele>104.3</ele>
        <time>2020-08-08T13:01:51Z</time>
      </trkpt>
      <trkpt lat="41.0357260" lon="0.5942410">
        <ele>104.3</ele>
        <time>2020-08-08T13:01:52Z</time>
      </trkpt>
      <trkpt lat="41.0357250" lon="0.5942410">
        <ele>104.3</ele>
        <time>2020-08-08T13:01:53Z</time>
      </trkpt>
      <trkpt lat="41.0357240" lon="0.5942410">
        <ele>104.3</ele>
        <time>2020-08-08T13:01:54Z</time>
      </trkpt>
      <trkpt lat="41.0357240" lon="0.5942410">
        <ele>104.3</ele>
        <time>2020-08-08T13:01:56Z</time>
      </trkpt>
      <trkpt lat="41.0357250" lon="0.5942410">
        <ele>104.3</ele>
        <time>2020-08-08T13:01:57Z</time>
      </trkpt>
      <trkpt lat="41.0357250" lon="0.5942410">
        <ele>104.3</ele>
        <time>2020-08-08T13:01:59Z</time>
      </trkpt>
      <trkpt lat="41.0357510" lon="0.5942260">
        <ele>104.3</ele>
        <time>2020-08-08T13:02:15Z</time>
      </trkpt>
      <trkpt lat="41.0357760" lon="0.5942090">
        <ele>104.3</ele>
        <time>2020-08-08T13:02:17Z</time>
      </trkpt>
      <trkpt lat="41.0357780" lon="0.5942060">
        <ele>104.3</ele>
        <time>2020-08-08T13:02:18Z</time>
      </trkpt>
      <trkpt lat="41.0357670" lon="0.5942030">
        <ele>104.9</ele>
        <time>2020-08-08T13:02:20Z</time>
      </trkpt>
      <trkpt lat="41.0357530" lon="0.5942050">
        <ele>105.0</ele>
        <time>2020-08-08T13:02:21Z</time>
      </trkpt>
      <trkpt lat="41.0357340" lon="0.5942040">
        <ele>105.0</ele>
        <time>2020-08-08T13:02:23Z</time>
      </trkpt>
      <trkpt lat="41.0357310" lon="0.5942060">
        <ele>104.3</ele>
        <time>2020-08-08T13:02:25Z</time>
      </trkpt>
      <trkpt lat="41.0357340" lon="0.5942110">
        <ele>104.3</ele>
        <time>2020-08-08T13:02:27Z</time>
      </trkpt>
      <trkpt lat="41.0357340" lon="0.5942130">
        <ele>104.3</ele>
        <time>2020-08-08T13:02:31Z</time>
      </trkpt>
      <trkpt lat="41.0357330" lon="0.5942130">
        <ele>104.3</ele>
        <time>2020-08-08T13:02:35Z</time>
      </trkpt>
      <trkpt lat="41.0357140" lon="0.5942300">
        <ele>104.3</ele>
        <time>2020-08-08T13:05:20Z</time>
      </trkpt>
      <trkpt lat="41.0357130" lon="0.5942410">
        <ele>104.3</ele>
        <time>2020-08-08T13:05:21Z</time>
      </trkpt>
      <trkpt lat="41.0357130" lon="0.5942550">
        <ele>103.6</ele>
        <time>2020-08-08T13:05:22Z</time>
      </trkpt>
      <trkpt lat="41.0357120" lon="0.5942730">
        <ele>103.6</ele>
        <time>2020-08-08T13:05:24Z</time>
      </trkpt>
      <trkpt lat="41.0357130" lon="0.5942880">
        <ele>103.6</ele>
        <time>2020-08-08T13:05:25Z</time>
      </trkpt>
      <trkpt lat="41.0357190" lon="0.5942960">
        <ele>102.7</ele>
        <time>2020-08-08T13:05:26Z</time>
      </trkpt>
      <trkpt lat="41.0357270" lon="0.5943160">
        <ele>102.7</ele>
        <time>2020-08-08T13:05:28Z</time>
      </trkpt>
      <trkpt lat="41.0357340" lon="0.5943290">
        <ele>102.8</ele>
        <time>2020-08-08T13:05:29Z</time>
      </trkpt>
      <trkpt lat="41.0357430" lon="0.5943510">
        <ele>101.9</ele>
        <time>2020-08-08T13:05:31Z</time>
      </trkpt>
      <trkpt lat="41.0357500" lon="0.5943630">
        <ele>101.9</ele>
        <time>2020-08-08T13:05:32Z</time>
      </trkpt>
      <trkpt lat="41.0357550" lon="0.5943760">
        <ele>101.9</ele>
        <time>2020-08-08T13:05:33Z</time>
      </trkpt>
      <trkpt lat="41.0357550" lon="0.5943800">
        <ele>101.0</ele>
        <time>2020-08-08T13:05:34Z</time>
      </trkpt>
      <trkpt lat="41.0357550" lon="0.5943860">
        <ele>101.0</ele>
        <time>2020-08-08T13:05:35Z</time>
      </trkpt>
      <trkpt lat="41.0357640" lon="0.5944050">
        <ele>101.0</ele>
        <time>2020-08-08T13:05:37Z</time>
      </trkpt>
      <trkpt lat="41.0357720" lon="0.5944210">
        <ele>100.0</ele>
        <time>2020-08-08T13:05:38Z</time>
      </trkpt>
      <trkpt lat="41.0357790" lon="0.5944370">
        <ele>100.0</ele>
        <time>2020-08-08T13:05:39Z</time>
      </trkpt>
      <trkpt lat="41.0357860" lon="0.5944520">
        <ele>100.0</ele>
        <time>2020-08-08T13:05:40Z</time>
      </trkpt>
      <trkpt lat="41.0357910" lon="0.5944700">
        <ele>98.9</ele>
        <time>2020-08-08T13:05:41Z</time>
      </trkpt>
      <trkpt lat="41.0357980" lon="0.5944960">
        <ele>98.9</ele>
        <time>2020-08-08T13:05:43Z</time>
      </trkpt>
      <trkpt lat="41.0358030" lon="0.5945170">
        <ele>97.7</ele>
        <time>2020-08-08T13:05:44Z</time>
      </trkpt>
      <trkpt lat="41.0358080" lon="0.5945440">
        <ele>97.7</ele>
        <time>2020-08-08T13:05:46Z</time>
      </trkpt>
      <trkpt lat="41.0358110" lon="0.5945670">
        <ele>96.5</ele>
        <time>2020-08-08T13:05:47Z</time>
      </trkpt>
      <trkpt lat="41.0358130" lon="0.5945880">
        <ele>96.5</ele>
        <time>2020-08-08T13:05:48Z</time>
      </trkpt>
      <trkpt lat="41.0358160" lon="0.5946130">
        <ele>95.3</ele>
        <time>2020-08-08T13:05:50Z</time>
      </trkpt>
      <trkpt lat="41.0358180" lon="0.5946350">
        <ele>95.3</ele>
        <time>2020-08-08T13:05:51Z</time>
      </trkpt>
      <trkpt lat="41.0358180" lon="0.5946540">
        <ele>94.0</ele>
        <time>2020-08-08T13:05:52Z</time>
      </trkpt>
      <trkpt lat="41.0358190" lon="0.5946650">
        <ele>94.0</ele>
        <time>2020-08-08T13:05:53Z</time>
      </trkpt>
      <trkpt lat="41.0358200" lon="0.5946790">
        <ele>92.6</ele>
        <time>2020-08-08T13:05:55Z</time>
      </trkpt>
      <trkpt lat="41.0358210" lon="0.5946840">
        <ele>92.6</ele>
        <time>2020-08-08T13:05:56Z</time>
      </trkpt>
      <trkpt lat="41.0358240" lon="0.5946910">
        <ele>92.6</ele>
        <time>2020-08-08T13:05:58Z</time>
      </trkpt>
      <trkpt lat="41.0358250" lon="0.5946930">
        <ele>92.6</ele>
        <time>2020-08-08T13:05:59Z</time>
      </trkpt>
      <trkpt lat="41.0358260" lon="0.5946950">
        <ele>92.6</ele>
        <time>2020-08-08T13:06:00Z</time>
      </trkpt>
      <trkpt lat="41.0358290" lon="0.5946850">
        <ele>92.7</ele>
        <time>2020-08-08T13:06:03Z</time>
      </trkpt>
      <trkpt lat="41.0358330" lon="0.5946860">
        <ele>92.7</ele>
        <time>2020-08-08T13:06:05Z</time>
      </trkpt>
      <trkpt lat="41.0358350" lon="0.5946880">
        <ele>92.7</ele>
        <time>2020-08-08T13:06:07Z</time>
      </trkpt>
      <trkpt lat="41.0358380" lon="0.5946910">
        <ele>92.7</ele>
        <time>2020-08-08T13:06:08Z</time>
      </trkpt>
      <trkpt lat="41.0358400" lon="0.5946940">
        <ele>92.7</ele>
        <time>2020-08-08T13:06:09Z</time>
      </trkpt>
      <trkpt lat="41.0358430" lon="0.5947000">
        <ele>92.7</ele>
        <time>2020-08-08T13:06:10Z</time>
      </trkpt>
      <trkpt lat="41.0359150" lon="0.5948010">
        <ele>90.0</ele>
        <time>2020-08-08T13:06:45Z</time>
      </trkpt>
      <trkpt lat="41.0359180" lon="0.5948070">
        <ele>88.5</ele>
        <time>2020-08-08T13:06:46Z</time>
      </trkpt>
      <trkpt lat="41.0359180" lon="0.5948080">
        <ele>88.5</ele>
        <time>2020-08-08T13:06:47Z</time>
      </trkpt>
      <trkpt lat="41.0359190" lon="0.5948090">
        <ele>88.5</ele>
        <time>2020-08-08T13:06:49Z</time>
      </trkpt>
      <trkpt lat="41.0359180" lon="0.5948070">
        <ele>88.5</ele>
        <time>2020-08-08T13:06:54Z</time>
      </trkpt>
      <trkpt lat="41.0359170" lon="0.5948060">
        <ele>90.0</ele>
        <time>2020-08-08T13:06:56Z</time>
      </trkpt>
      <trkpt lat="41.0359170" lon="0.5948060">
        <ele>90.0</ele>
        <time>2020-08-08T13:06:58Z</time>
      </trkpt>
      <trkpt lat="41.0358720" lon="0.5947310">
        <ele>91.4</ele>
        <time>2020-08-08T13:07:55Z</time>
      </trkpt>
      <trkpt lat="41.0358660" lon="0.5947200">
        <ele>92.8</ele>
        <time>2020-08-08T13:07:56Z</time>
      </trkpt>
      <trkpt lat="41.0358610" lon="0.5947120">
        <ele>92.8</ele>
        <time>2020-08-08T13:07:57Z</time>
      </trkpt>
      <trkpt lat="41.0358570" lon="0.5947050">
        <ele>92.7</ele>
        <time>2020-08-08T13:07:58Z</time>
      </trkpt>
      <trkpt lat="41.0358520" lon="0.5947000">
        <ele>92.7</ele>
        <time>2020-08-08T13:07:59Z</time>
      </trkpt>
      <trkpt lat="41.0358420" lon="0.5946960">
        <ele>92.7</ele>
        <time>2020-08-08T13:08:01Z</time>
      </trkpt>
      <trkpt lat="41.0358290" lon="0.5946950">
        <ele>92.7</ele>
        <time>2020-08-08T13:08:03Z</time>
      </trkpt>
      <trkpt lat="41.0358170" lon="0.5946990">
        <ele>92.6</ele>
        <time>2020-08-08T13:08:04Z</time>
      </trkpt>
      <trkpt lat="41.0358050" lon="0.5947130">
        <ele>92.6</ele>
        <time>2020-08-08T13:08:06Z</time>
      </trkpt>
      <trkpt lat="41.0357990" lon="0.5947200">
        <ele>92.6</ele>
        <time>2020-08-08T13:08:07Z</time>
      </trkpt>
      <trkpt lat="41.0357940" lon="0.5947320">
        <ele>91.0</ele>
        <time>2020-08-08T13:08:09Z</time>
      </trkpt>
      <trkpt lat="41.0357920" lon="0.5947420">
        <ele>91.0</ele>
        <time>2020-08-08T13:08:10Z</time>
      </trkpt>
      <trkpt lat="41.0357920" lon="0.5947490">
        <ele>91.0</ele>
        <time>2020-08-08T13:08:11Z</time>
      </trkpt>
      <trkpt lat="41.0357940" lon="0.5947570">
        <ele>91.0</ele>
        <time>2020-08-08T13:08:12Z</time>
      </trkpt>
      <trkpt lat="41.0357990" lon="0.5947680">
        <ele>89.7</ele>
        <time>2020-08-08T13:08:13Z</time>
      </trkpt>
      <trkpt lat="41.0358060" lon="0.5947780">
        <ele>89.7</ele>
        <time>2020-08-08T13:08:14Z</time>
      </trkpt>
      <trkpt lat="41.0358150" lon="0.5947860">
        <ele>89.7</ele>
        <time>2020-08-08T13:08:16Z</time>
      </trkpt>
      <trkpt lat="41.0358230" lon="0.5947950">
        <ele>89.7</ele>
        <time>2020-08-08T13:08:17Z</time>
      </trkpt>
      <trkpt lat="41.0358310" lon="0.5947990">
        <ele>89.9</ele>
        <time>2020-08-08T13:08:19Z</time>
      </trkpt>
      <trkpt lat="41.0358350" lon="0.5948010">
        <ele>89.9</ele>
        <time>2020-08-08T13:08:20Z</time>
      </trkpt>
      <trkpt lat="41.0358390" lon="0.5948050">
        <ele>89.9</ele>
        <time>2020-08-08T13:08:22Z</time>
      </trkpt>
      <trkpt lat="41.0358400" lon="0.5948070">
        <ele>88.3</ele>
        <time>2020-08-08T13:08:23Z</time>
      </trkpt>
      <trkpt lat="41.0358410" lon="0.5948080">
        <ele>88.3</ele>
        <time>2020-08-08T13:08:24Z</time>
      </trkpt>
      <trkpt lat="41.0358410" lon="0.5948090">
        <ele>88.3</ele>
        <time>2020-08-08T13:08:26Z</time>
      </trkpt>
      <trkpt lat="41.0358410" lon="0.5948100">
        <ele>88.3</ele>
        <time>2020-08-08T13:08:28Z</time>
      </trkpt>
      <trkpt lat="41.0358410" lon="0.5948100">
        <ele>88.3</ele>
        <time>2020-08-08T13:08:29Z</time>
      </trkpt>
      <trkpt lat="41.0358400" lon="0.5948110">
        <ele>88.3</ele>
        <time>2020-08-08T13:08:30Z</time>
      </trkpt>
      <trkpt lat="41.0358400" lon="0.5948110">
        <ele>88.3</ele>
        <time>2020-08-08T13:08:31Z</time>
      </trkpt>
      <trkpt lat="41.0358390" lon="0.5948120">
        <ele>88.3</ele>
        <time>2020-08-08T13:08:33Z</time>
      </trkpt>
      <trkpt lat="41.0358390" lon="0.5948110">
        <ele>88.3</ele>
        <time>2020-08-08T13:08:34Z</time>
      </trkpt>
      <trkpt lat="41.0358420" lon="0.5948210">
        <ele>88.3</ele>
        <time>2020-08-08T13:09:37Z</time>
      </trkpt>
      <trkpt lat="41.0358410" lon="0.5948240">
        <ele>88.3</ele>
        <time>2020-08-08T13:09:39Z</time>
      </trkpt>
      <trkpt lat="41.0358410" lon="0.5948220">
        <ele>88.3</ele>
        <time>2020-08-08T13:09:40Z</time>
      </trkpt>
      <trkpt lat="41.0358400" lon="0.5948190">
        <ele>88.3</ele>
        <time>2020-08-08T13:09:41Z</time>
      </trkpt>
      <trkpt lat="41.0358400" lon="0.5948170">
        <ele>88.3</ele>
        <time>2020-08-08T13:09:43Z</time>
      </trkpt>
      <trkpt lat="41.0358400" lon="0.5948300">
        <ele>88.3</ele>
        <time>2020-08-08T13:09:44Z</time>
      </trkpt>
      <trkpt lat="41.0358380" lon="0.5948310">
        <ele>88.3</ele>
        <time>2020-08-08T13:09:46Z</time>
      </trkpt>
      <trkpt lat="41.0358390" lon="0.5948290">
        <ele>88.3</ele>
        <time>2020-08-08T13:09:47Z</time>
      </trkpt>
      <trkpt lat="41.0358400" lon="0.5948250">
        <ele>88.3</ele>
        <time>2020-08-08T13:09:49Z</time>
      </trkpt>
      <trkpt lat="41.0358410" lon="0.5948220">
        <ele>88.3</ele>
        <time>2020-08-08T13:09:51Z</time>
      </trkpt>
      <trkpt lat="41.0358410" lon="0.5948210">
        <ele>88.3</ele>
        <time>2020-08-08T13:09:52Z</time>
      </trkpt>
      <trkpt lat="41.0358420" lon="0.5948200">
        <ele>88.3</ele>
        <time>2020-08-08T13:09:53Z</time>
      </trkpt>
      <trkpt lat="41.0357520" lon="0.5947600">
        <ele>90.8</ele>
        <time>2020-08-08T13:10:56Z</time>
      </trkpt>
      <trkpt lat="41.0357400" lon="0.5947580">
        <ele>90.8</ele>
        <time>2020-08-08T13:10:57Z</time>
      </trkpt>
      <trkpt lat="41.0357250" lon="0.5947550">
        <ele>90.4</ele>
        <time>2020-08-08T13:10:58Z</time>
      </trkpt>
      <trkpt lat="41.0356990" lon="0.5947580">
        <ele>90.4</ele>
        <time>2020-08-08T13:11:01Z</time>
      </trkpt>
      <trkpt lat="41.0356780" lon="0.5947610">
        <ele>90.0</ele>
        <time>2020-08-08T13:11:03Z</time>
      </trkpt>
      <trkpt lat="41.0356640" lon="0.5947650">
        <ele>87.9</ele>
        <time>2020-08-08T13:11:04Z</time>
      </trkpt>
      <trkpt lat="41.0356580" lon="0.5947660">
        <ele>87.9</ele>
        <time>2020-08-08T13:11:05Z</time>
      </trkpt>
      <trkpt lat="41.0356280" lon="0.5947680">
        <ele>87.2</ele>
        <time>2020-08-08T13:11:07Z</time>
      </trkpt>
      <trkpt lat="41.0356080" lon="0.5947670">
        <ele>87.2</ele>
        <time>2020-08-08T13:11:09Z</time>
      </trkpt>
      <trkpt lat="41.0356060" lon="0.5947640">
        <ele>87.2</ele>
        <time>2020-08-08T13:11:11Z</time>
      </trkpt>
      <trkpt lat="41.0355980" lon="0.5947640">
        <ele>86.4</ele>
        <time>2020-08-08T13:11:12Z</time>
      </trkpt>
      <trkpt lat="41.0355900" lon="0.5947640">
        <ele>86.4</ele>
        <time>2020-08-08T13:11:13Z</time>
      </trkpt>
      <trkpt lat="41.0355940" lon="0.5947710">
        <ele>86.4</ele>
        <time>2020-08-08T13:11:14Z</time>
      </trkpt>
      <trkpt lat="41.0355940" lon="0.5947790">
        <ele>86.4</ele>
        <time>2020-08-08T13:11:16Z</time>
      </trkpt>
      <trkpt lat="41.0355840" lon="0.5947760">
        <ele>86.4</ele>
        <time>2020-08-08T13:11:17Z</time>
      </trkpt>
      <trkpt lat="41.0355790" lon="0.5947760">
        <ele>86.4</ele>
        <time>2020-08-08T13:11:18Z</time>
      </trkpt>
      <trkpt lat="41.0355710" lon="0.5947720">
        <ele>86.4</ele>
        <time>2020-08-08T13:11:19Z</time>
      </trkpt>
      <trkpt lat="41.0355530" lon="0.5947650">
        <ele>85.5</ele>
        <time>2020-08-08T13:11:21Z</time>
      </trkpt>
      <trkpt lat="41.0355380" lon="0.5947610">
        <ele>87.1</ele>
        <time>2020-08-08T13:11:22Z</time>
      </trkpt>
      <trkpt lat="41.0355290" lon="0.5947570">
        <ele>86.1</ele>
        <time>2020-08-08T13:11:23Z</time>
      </trkpt>
      <trkpt lat="41.0355050" lon="0.5947540">
        <ele>86.1</ele>
        <time>2020-08-08T13:11:25Z</time>
      </trkpt>
      <trkpt lat="41.0354840" lon="0.5947500">
        <ele>85.0</ele>
        <time>2020-08-08T13:11:26Z</time>
      </trkpt>
      <trkpt lat="41.0354600" lon="0.5947510">
        <ele>83.8</ele>
        <time>2020-08-08T13:11:28Z</time>
      </trkpt>
      <trkpt lat="41.0354390" lon="0.5947540">
        <ele>83.8</ele>
        <time>2020-08-08T13:11:29Z</time>
      </trkpt>
      <trkpt lat="41.0354160" lon="0.5947620">
        <ele>82.6</ele>
        <time>2020-08-08T13:11:31Z</time>
      </trkpt>
      <trkpt lat="41.0353950" lon="0.5947710">
        <ele>79.6</ele>
        <time>2020-08-08T13:11:32Z</time>
      </trkpt>
      <trkpt lat="41.0353830" lon="0.5947760">
        <ele>79.6</ele>
        <time>2020-08-08T13:11:33Z</time>
      </trkpt>
      <trkpt lat="41.0353660" lon="0.5947840">
        <ele>78.1</ele>
        <time>2020-08-08T13:11:35Z</time>
      </trkpt>
      <trkpt lat="41.0353610" lon="0.5947910">
        <ele>78.1</ele>
        <time>2020-08-08T13:11:36Z</time>
      </trkpt>
      <trkpt lat="41.0353530" lon="0.5947920">
        <ele>78.1</ele>
        <time>2020-08-08T13:11:37Z</time>
      </trkpt>
      <trkpt lat="41.0353430" lon="0.5947950">
        <ele>78.2</ele>
        <time>2020-08-08T13:11:39Z</time>
      </trkpt>
      <trkpt lat="41.0353380" lon="0.5947960">
        <ele>76.6</ele>
        <time>2020-08-08T13:11:41Z</time>
      </trkpt>
      <trkpt lat="41.0353390" lon="0.5947960">
        <ele>76.6</ele>
        <time>2020-08-08T13:11:42Z</time>
      </trkpt>
      <trkpt lat="41.0353370" lon="0.5947960">
        <ele>76.6</ele>
        <time>2020-08-08T13:11:44Z</time>
      </trkpt>
      <trkpt lat="41.0353370" lon="0.5947930">
        <ele>76.6</ele>
        <time>2020-08-08T13:11:45Z</time>
      </trkpt>
      <trkpt lat="41.0353350" lon="0.5947910">
        <ele>76.6</ele>
        <time>2020-08-08T13:11:46Z</time>
      </trkpt>
      <trkpt lat="41.0353350" lon="0.5947890">
        <ele>76.6</ele>
        <time>2020-08-08T13:11:47Z</time>
      </trkpt>
      <trkpt lat="41.0353340" lon="0.5947880">
        <ele>76.6</ele>
        <time>2020-08-08T13:11:49Z</time>
      </trkpt>
      <trkpt lat="41.0353340" lon="0.5947870">
        <ele>76.6</ele>
        <time>2020-08-08T13:11:50Z</time>
      </trkpt>
      <trkpt lat="41.0353340" lon="0.5947860">
        <ele>76.6</ele>
        <time>2020-08-08T13:11:52Z</time>
      </trkpt>
      <trkpt lat="41.0353340" lon="0.5947860">
        <ele>76.6</ele>
        <time>2020-08-08T13:11:54Z</time>
      </trkpt>
      <trkpt lat="41.0353390" lon="0.5947840">
        <ele>76.6</ele>
        <time>2020-08-08T13:11:55Z</time>
      </trkpt>
      <trkpt lat="41.0353240" lon="0.5947680">
        <ele>76.6</ele>
        <time>2020-08-08T13:13:09Z</time>
      </trkpt>
      <trkpt lat="41.0353230" lon="0.5947510">
        <ele>78.2</ele>
        <time>2020-08-08T13:13:10Z</time>
      </trkpt>
      <trkpt lat="41.0353200" lon="0.5947340">
        <ele>78.2</ele>
        <time>2020-08-08T13:13:11Z</time>
      </trkpt>
      <trkpt lat="41.0353160" lon="0.5947210">
        <ele>78.2</ele>
        <time>2020-08-08T13:13:12Z</time>
      </trkpt>
      <trkpt lat="41.0352980" lon="0.5946880">
        <ele>78.2</ele>
        <time>2020-08-08T13:13:14Z</time>
      </trkpt>
      <trkpt lat="41.0352940" lon="0.5946810">
        <ele>78.2</ele>
        <time>2020-08-08T13:13:15Z</time>
      </trkpt>
      <trkpt lat="41.0352850" lon="0.5946650">
        <ele>79.8</ele>
        <time>2020-08-08T13:13:16Z</time>
      </trkpt>
      <trkpt lat="41.0352750" lon="0.5946500">
        <ele>78.1</ele>
        <time>2020-08-08T13:13:18Z</time>
      </trkpt>
      <trkpt lat="41.0352630" lon="0.5946340">
        <ele>79.6</ele>
        <time>2020-08-08T13:13:19Z</time>
      </trkpt>
      <trkpt lat="41.0352500" lon="0.5946220">
        <ele>79.6</ele>
        <time>2020-08-08T13:13:20Z</time>
      </trkpt>
      <trkpt lat="41.0352380" lon="0.5946130">
        <ele>77.8</ele>
        <time>2020-08-08T13:13:21Z</time>
      </trkpt>
      <trkpt lat="41.0352190" lon="0.5946020">
        <ele>77.8</ele>
        <time>2020-08-08T13:13:23Z</time>
      </trkpt>
      <trkpt lat="41.0352050" lon="0.5945960">
        <ele>76.0</ele>
        <time>2020-08-08T13:13:24Z</time>
      </trkpt>
      <trkpt lat="41.0351910" lon="0.5945870">
        <ele>77.5</ele>
        <time>2020-08-08T13:13:25Z</time>
      </trkpt>
      <trkpt lat="41.0351810" lon="0.5945800">
        <ele>77.5</ele>
        <time>2020-08-08T13:13:26Z</time>
      </trkpt>
      <trkpt lat="41.0351740" lon="0.5945750">
        <ele>75.6</ele>
        <time>2020-08-08T13:13:27Z</time>
      </trkpt>
      <trkpt lat="41.0351670" lon="0.5945650">
        <ele>75.6</ele>
        <time>2020-08-08T13:13:28Z</time>
      </trkpt>
      <trkpt lat="41.0351490" lon="0.5945360">
        <ele>77.2</ele>
        <time>2020-08-08T13:13:30Z</time>
      </trkpt>
      <trkpt lat="41.0351440" lon="0.5945270">
        <ele>75.3</ele>
        <time>2020-08-08T13:13:31Z</time>
      </trkpt>
      <trkpt lat="41.0351300" lon="0.5944900">
        <ele>76.8</ele>
        <time>2020-08-08T13:13:33Z</time>
      </trkpt>
      <trkpt lat="41.0351240" lon="0.5944770">
        <ele>76.8</ele>
        <time>2020-08-08T13:13:34Z</time>
      </trkpt>
      <trkpt lat="41.0351200" lon="0.5944650">
        <ele>76.8</ele>
        <time>2020-08-08T13:13:35Z</time>
      </trkpt>
      <trkpt lat="41.0351190" lon="0.5944700">
        <ele>76.8</ele>
        <time>2020-08-08T13:13:37Z</time>
      </trkpt>
      <trkpt lat="41.0351170" lon="0.5944760">
        <ele>76.8</ele>
        <time>2020-08-08T13:13:38Z</time>
      </trkpt>
      <trkpt lat="41.0351160" lon="0.5944810">
        <ele>76.8</ele>
        <time>2020-08-08T13:13:40Z</time>
      </trkpt>
      <trkpt lat="41.0351140" lon="0.5944870">
        <ele>74.9</ele>
        <time>2020-08-08T13:13:42Z</time>
      </trkpt>
      <trkpt lat="41.0351120" lon="0.5944920">
        <ele>74.9</ele>
        <time>2020-08-08T13:13:44Z</time>
      </trkpt>
      <trkpt lat="41.0351110" lon="0.5944980">
        <ele>74.9</ele>
        <time>2020-08-08T13:13:46Z</time>
      </trkpt>
      <trkpt lat="41.0351090" lon="0.5945030">
        <ele>74.9</ele>
        <time>2020-08-08T13:13:47Z</time>
      </trkpt>
      <trkpt lat="41.0351070" lon="0.5945090">
        <ele>73.4</ele>
        <time>2020-08-08T13:13:49Z</time>
      </trkpt>
      <trkpt lat="41.0351060" lon="0.5945140">
        <ele>73.4</ele>
        <time>2020-08-08T13:13:50Z</time>
      </trkpt>
      <trkpt lat="41.0351040" lon="0.5945200">
        <ele>73.4</ele>
        <time>2020-08-08T13:13:59Z</time>
      </trkpt>
      <trkpt lat="41.0351030" lon="0.5945250">
        <ele>73.4</ele>
        <time>2020-08-08T13:14:00Z</time>
      </trkpt>
      <trkpt lat="41.0351010" lon="0.5945310">
        <ele>73.4</ele>
        <time>2020-08-08T13:14:01Z</time>
      </trkpt>
      <trkpt lat="41.0351030" lon="0.5946110">
        <ele>70.3</ele>
        <time>2020-08-08T13:14:06Z</time>
      </trkpt>
      <trkpt lat="41.0351060" lon="0.5945890">
        <ele>71.9</ele>
        <time>2020-08-08T13:14:07Z</time>
      </trkpt>
      <trkpt lat="41.0351120" lon="0.5945600">
        <ele>71.9</ele>
        <time>2020-08-08T13:14:09Z</time>
      </trkpt>
      <trkpt lat="41.0351140" lon="0.5945550">
        <ele>71.9</ele>
        <time>2020-08-08T13:14:10Z</time>
      </trkpt>
      <trkpt lat="41.0351170" lon="0.5945550">
        <ele>73.8</ele>
        <time>2020-08-08T13:14:11Z</time>
      </trkpt>
      <trkpt lat="41.0351220" lon="0.5945600">
        <ele>73.8</ele>
        <time>2020-08-08T13:14:13Z</time>
      </trkpt>
      <trkpt lat="41.0351250" lon="0.5945620">
        <ele>73.8</ele>
        <time>2020-08-08T13:14:14Z</time>
      </trkpt>
      <trkpt lat="41.0351270" lon="0.5945650">
        <ele>73.8</ele>
        <time>2020-08-08T13:14:15Z</time>
      </trkpt>
      <trkpt lat="41.0351320" lon="0.5945700">
        <ele>73.8</ele>
        <time>2020-08-08T13:14:17Z</time>
      </trkpt>
      <trkpt lat="41.0351540" lon="0.5945490">
        <ele>77.2</ele>
        <time>2020-08-08T13:15:01Z</time>
      </trkpt>
      <trkpt lat="41.0351540" lon="0.5945440">
        <ele>77.2</ele>
        <time>2020-08-08T13:15:03Z</time>
      </trkpt>
      <trkpt lat="41.0351580" lon="0.5945470">
        <ele>77.2</ele>
        <time>2020-08-08T13:15:04Z</time>
      </trkpt>
      <trkpt lat="41.0351640" lon="0.5945450">
        <ele>77.2</ele>
        <time>2020-08-08T13:15:05Z</time>
      </trkpt>
      <trkpt lat="41.0351690" lon="0.5945460">
        <ele>77.2</ele>
        <time>2020-08-08T13:15:07Z</time>
      </trkpt>
      <trkpt lat="41.0351720" lon="0.5945460">
        <ele>77.2</ele>
        <time>2020-08-08T13:15:08Z</time>
      </trkpt>
      <trkpt lat="41.0351790" lon="0.5945460">
        <ele>77.2</ele>
        <time>2020-08-08T13:15:10Z</time>
      </trkpt>
      <trkpt lat="41.0351860" lon="0.5945480">
        <ele>79.1</ele>
        <time>2020-08-08T13:15:11Z</time>
      </trkpt>
      <trkpt lat="41.0351950" lon="0.5945490">
        <ele>79.1</ele>
        <time>2020-08-08T13:15:12Z</time>
      </trkpt>
      <trkpt lat="41.0352050" lon="0.5945510">
        <ele>77.6</ele>
        <time>2020-08-08T13:15:13Z</time>
      </trkpt>
      <trkpt lat="41.0352320" lon="0.5945580">
        <ele>79.4</ele>
        <time>2020-08-08T13:15:15Z</time>
      </trkpt>
      <trkpt lat="41.0352490" lon="0.5945650">
        <ele>81.2</ele>
        <time>2020-08-08T13:15:16Z</time>
      </trkpt>
      <trkpt lat="41.0352620" lon="0.5945710">
        <ele>81.2</ele>
        <time>2020-08-08T13:15:17Z</time>
      </trkpt>
      <trkpt lat="41.0353000" lon="0.5945780">
        <ele>82.9</ele>
        <time>2020-08-08T13:15:19Z</time>
      </trkpt>
      <trkpt lat="41.0353110" lon="0.5945680">
        <ele>84.6</ele>
        <time>2020-08-08T13:15:20Z</time>
      </trkpt>
      <trkpt lat="41.0353160" lon="0.5945600">
        <ele>84.6</ele>
        <time>2020-08-08T13:15:21Z</time>
      </trkpt>
      <trkpt lat="41.0353180" lon="0.5945390">
        <ele>86.1</ele>
        <time>2020-08-08T13:15:23Z</time>
      </trkpt>
      <trkpt lat="41.0353200" lon="0.5945220">
        <ele>86.1</ele>
        <time>2020-08-08T13:15:25Z</time>
      </trkpt>
      <trkpt lat="41.0353200" lon="0.5945080">
        <ele>86.1</ele>
        <time>2020-08-08T13:15:26Z</time>
      </trkpt>
      <trkpt lat="41.0353190" lon="0.5944980">
        <ele>87.7</ele>
        <time>2020-08-08T13:15:27Z</time>
      </trkpt>
      <trkpt lat="41.0353190" lon="0.5944940">
        <ele>87.7</ele>
        <time>2020-08-08T13:15:28Z</time>
      </trkpt>
      <trkpt lat="41.0353190" lon="0.5944890">
        <ele>87.7</ele>
        <time>2020-08-08T13:15:29Z</time>
      </trkpt>
      <trkpt lat="41.0353160" lon="0.5944620">
        <ele>89.2</ele>
        <time>2020-08-08T13:15:31Z</time>
      </trkpt>
      <trkpt lat="41.0353140" lon="0.5944410">
        <ele>89.2</ele>
        <time>2020-08-08T13:15:32Z</time>
      </trkpt>
      <trkpt lat="41.0353110" lon="0.5944190">
        <ele>90.7</ele>
        <time>2020-08-08T13:15:33Z</time>
      </trkpt>
      <trkpt lat="41.0353090" lon="0.5944060">
        <ele>90.7</ele>
        <time>2020-08-08T13:15:34Z</time>
      </trkpt>
      <trkpt lat="41.0353040" lon="0.5944040">
        <ele>89.1</ele>
        <time>2020-08-08T13:15:35Z</time>
      </trkpt>
      <trkpt lat="41.0352980" lon="0.5943920">
        <ele>89.1</ele>
        <time>2020-08-08T13:15:37Z</time>
      </trkpt>
      <trkpt lat="41.0352930" lon="0.5943790">
        <ele>89.1</ele>
        <time>2020-08-08T13:15:39Z</time>
      </trkpt>
      <trkpt lat="41.0352920" lon="0.5943650">
        <ele>90.4</ele>
        <time>2020-08-08T13:15:41Z</time>
      </trkpt>
      <trkpt lat="41.0352920" lon="0.5943500">
        <ele>90.4</ele>
        <time>2020-08-08T13:15:44Z</time>
      </trkpt>
      <trkpt lat="41.0352960" lon="0.5943440">
        <ele>90.4</ele>
        <time>2020-08-08T13:15:45Z</time>
      </trkpt>
      <trkpt lat="41.0352990" lon="0.5943360">
        <ele>90.4</ele>
        <time>2020-08-08T13:15:47Z</time>
      </trkpt>
      <trkpt lat="41.0353060" lon="0.5943290">
        <ele>91.7</ele>
        <time>2020-08-08T13:15:48Z</time>
      </trkpt>
      <trkpt lat="41.0353100" lon="0.5943180">
        <ele>93.2</ele>
        <time>2020-08-08T13:15:49Z</time>
      </trkpt>
      <trkpt lat="41.0353130" lon="0.5943080">
        <ele>93.2</ele>
        <time>2020-08-08T13:15:50Z</time>
      </trkpt>
      <trkpt lat="41.0353170" lon="0.5942970">
        <ele>93.2</ele>
        <time>2020-08-08T13:15:52Z</time>
      </trkpt>
      <trkpt lat="41.0353190" lon="0.5942860">
        <ele>94.3</ele>
        <time>2020-08-08T13:15:53Z</time>
      </trkpt>
      <trkpt lat="41.0353220" lon="0.5942760">
        <ele>94.3</ele>
        <time>2020-08-08T13:15:54Z</time>
      </trkpt>
      <trkpt lat="41.0353230" lon="0.5942650">
        <ele>94.3</ele>
        <time>2020-08-08T13:15:55Z</time>
      </trkpt>
      <trkpt lat="41.0353250" lon="0.5942510">
        <ele>94.3</ele>
        <time>2020-08-08T13:15:57Z</time>
      </trkpt>
      <trkpt lat="41.0353240" lon="0.5942390">
        <ele>95.3</ele>
        <time>2020-08-08T13:15:58Z</time>
      </trkpt>
      <trkpt lat="41.0353230" lon="0.5942350">
        <ele>95.3</ele>
        <time>2020-08-08T13:16:00Z</time>
      </trkpt>
      <trkpt lat="41.0353220" lon="0.5942300">
        <ele>95.3</ele>
        <time>2020-08-08T13:16:01Z</time>
      </trkpt>
      <trkpt lat="41.0353200" lon="0.5942250">
        <ele>95.3</ele>
        <time>2020-08-08T13:16:02Z</time>
      </trkpt>
      <trkpt lat="41.0353190" lon="0.5942210">
        <ele>95.3</ele>
        <time>2020-08-08T13:16:04Z</time>
      </trkpt>
      <trkpt lat="41.0353180" lon="0.5942160">
        <ele>95.3</ele>
        <time>2020-08-08T13:16:05Z</time>
      </trkpt>
      <trkpt lat="41.0353170" lon="0.5942110">
        <ele>95.3</ele>
        <time>2020-08-08T13:16:06Z</time>
      </trkpt>
      <trkpt lat="41.0353160" lon="0.5942060">
        <ele>95.3</ele>
        <time>2020-08-08T13:16:14Z</time>
      </trkpt>
      <trkpt lat="41.0353150" lon="0.5942020">
        <ele>96.3</ele>
        <time>2020-08-08T13:17:35Z</time>
      </trkpt>
      <trkpt lat="41.0353130" lon="0.5941970">
        <ele>96.3</ele>
        <time>2020-08-08T13:17:36Z</time>
      </trkpt>
      <trkpt lat="41.0353120" lon="0.5941920">
        <ele>96.3</ele>
        <time>2020-08-08T13:17:38Z</time>
      </trkpt>
      <trkpt lat="41.0353110" lon="0.5941880">
        <ele>96.3</ele>
        <time>2020-08-08T13:17:39Z</time>
      </trkpt>
      <trkpt lat="41.0353100" lon="0.5941830">
        <ele>96.3</ele>
        <time>2020-08-08T13:17:40Z</time>
      </trkpt>
      <trkpt lat="41.0353170" lon="0.5941650">
        <ele>96.3</ele>
        <time>2020-08-08T13:17:41Z</time>
      </trkpt>
      <trkpt lat="41.0353250" lon="0.5941470">
        <ele>97.3</ele>
        <time>2020-08-08T13:17:43Z</time>
      </trkpt>
      <trkpt lat="41.0353280" lon="0.5941340">
        <ele>97.3</ele>
        <time>2020-08-08T13:17:44Z</time>
      </trkpt>
      <trkpt lat="41.0353320" lon="0.5941160">
        <ele>98.2</ele>
        <time>2020-08-08T13:17:46Z</time>
      </trkpt>
      <trkpt lat="41.0353340" lon="0.5941040">
        <ele>98.2</ele>
        <time>2020-08-08T13:17:48Z</time>
      </trkpt>
      <trkpt lat="41.0353350" lon="0.5941000">
        <ele>98.2</ele>
        <time>2020-08-08T13:17:49Z</time>
      </trkpt>
      <trkpt lat="41.0353370" lon="0.5940940">
        <ele>98.2</ele>
        <time>2020-08-08T13:17:51Z</time>
      </trkpt>
      <trkpt lat="41.0353610" lon="0.5941000">
        <ele>99.5</ele>
        <time>2020-08-08T13:19:48Z</time>
      </trkpt>
      <trkpt lat="41.0353680" lon="0.5940850">
        <ele>99.5</ele>
        <time>2020-08-08T13:19:50Z</time>
      </trkpt>
      <trkpt lat="41.0353790" lon="0.5940690">
        <ele>101.5</ele>
        <time>2020-08-08T13:19:51Z</time>
      </trkpt>
      <trkpt lat="41.0353910" lon="0.5940590">
        <ele>101.5</ele>
        <time>2020-08-08T13:19:52Z</time>
      </trkpt>
      <trkpt lat="41.0353980" lon="0.5940540">
        <ele>101.5</ele>
        <time>2020-08-08T13:19:54Z</time>
      </trkpt>
      <trkpt lat="41.0354040" lon="0.5940500">
        <ele>101.5</ele>
        <time>2020-08-08T13:19:55Z</time>
      </trkpt>
      <trkpt lat="41.0354100" lon="0.5940450">
        <ele>102.5</ele>
        <time>2020-08-08T13:19:56Z</time>
      </trkpt>
      <trkpt lat="41.0354430" lon="0.5940330">
        <ele>104.0</ele>
        <time>2020-08-08T13:19:58Z</time>
      </trkpt>
      <trkpt lat="41.0354680" lon="0.5940220">
        <ele>104.0</ele>
        <time>2020-08-08T13:19:59Z</time>
      </trkpt>
      <trkpt lat="41.0354930" lon="0.5940110">
        <ele>104.8</ele>
        <time>2020-08-08T13:20:01Z</time>
      </trkpt>
      <trkpt lat="41.0355190" lon="0.5940010">
        <ele>105.5</ele>
        <time>2020-08-08T13:20:03Z</time>
      </trkpt>
      <trkpt lat="41.0355440" lon="0.5939900">
        <ele>106.4</ele>
        <time>2020-08-08T13:20:04Z</time>
      </trkpt>
      <trkpt lat="41.0355690" lon="0.5939790">
        <ele>106.8</ele>
        <time>2020-08-08T13:20:22Z</time>
      </trkpt>
      <trkpt lat="41.0355940" lon="0.5939680">
        <ele>106.8</ele>
        <time>2020-08-08T13:20:22Z</time>
      </trkpt>
      <trkpt lat="41.0356380" lon="0.5939930">
        <ele>107.2</ele>
        <time>2020-08-08T13:23:22Z</time>
      </trkpt>
      <trkpt lat="41.0356560" lon="0.5939570">
        <ele>107.4</ele>
        <time>2020-08-08T13:23:24Z</time>
      </trkpt>
      <trkpt lat="41.0356650" lon="0.5939280">
        <ele>107.6</ele>
        <time>2020-08-08T13:23:25Z</time>
      </trkpt>
      <trkpt lat="41.0356750" lon="0.5938980">
        <ele>107.5</ele>
        <time>2020-08-08T13:23:27Z</time>
      </trkpt>
      <trkpt lat="41.0356750" lon="0.5938790">
        <ele>107.5</ele>
        <time>2020-08-08T13:23:29Z</time>
      </trkpt>
      <trkpt lat="41.0356740" lon="0.5938730">
        <ele>107.5</ele>
        <time>2020-08-08T13:23:30Z</time>
      </trkpt>
      <trkpt lat="41.0356740" lon="0.5938650">
        <ele>107.5</ele>
        <time>2020-08-08T13:23:32Z</time>
      </trkpt>
      <trkpt lat="41.0356720" lon="0.5938580">
        <ele>107.4</ele>
        <time>2020-08-08T13:23:33Z</time>
      </trkpt>
      <trkpt lat="41.0357110" lon="0.5938230">
        <ele>107.3</ele>
        <time>2020-08-08T13:23:34Z</time>
      </trkpt>
      <trkpt lat="41.0357510" lon="0.5937950">
        <ele>107.0</ele>
        <time>2020-08-08T13:23:35Z</time>
      </trkpt>
      <trkpt lat="41.0357900" lon="0.5937660">
        <ele>106.7</ele>
        <time>2020-08-08T13:23:37Z</time>
      </trkpt>
      <trkpt lat="41.0358290" lon="0.5937370">
        <ele>106.4</ele>
        <time>2020-08-08T13:25:00Z</time>
      </trkpt>
      <trkpt lat="41.0358690" lon="0.5937090">
        <ele>106.0</ele>
        <time>2020-08-08T13:25:01Z</time>
      </trkpt>
      <trkpt lat="41.0359080" lon="0.5936800">
        <ele>105.5</ele>
        <time>2020-08-08T13:25:02Z</time>
      </trkpt>
      <trkpt lat="41.0359000" lon="0.5937080">
        <ele>105.8</ele>
        <time>2020-08-08T13:25:03Z</time>
      </trkpt>
      <trkpt lat="41.0358780" lon="0.5937480">
        <ele>106.2</ele>
        <time>2020-08-08T13:25:05Z</time>
      </trkpt>
      <trkpt lat="41.0358680" lon="0.5937560">
        <ele>106.2</ele>
        <time>2020-08-08T13:25:06Z</time>
      </trkpt>
      <trkpt lat="41.0358520" lon="0.5937630">
        <ele>106.4</ele>
        <time>2020-08-08T13:25:08Z</time>
      </trkpt>
      <trkpt lat="41.0358330" lon="0.5937630">
        <ele>106.4</ele>
        <time>2020-08-08T13:25:09Z</time>
      </trkpt>
      <trkpt lat="41.0358180" lon="0.5937620">
        <ele>106.6</ele>
        <time>2020-08-08T13:25:10Z</time>
      </trkpt>
      <trkpt lat="41.0357980" lon="0.5937610">
        <ele>106.6</ele>
        <time>2020-08-08T13:25:12Z</time>
      </trkpt>
      <trkpt lat="41.0357860" lon="0.5937570">
        <ele>106.7</ele>
        <time>2020-08-08T13:25:13Z</time>
      </trkpt>
      <trkpt lat="41.0357720" lon="0.5937380">
        <ele>106.7</ele>
        <time>2020-08-08T13:25:14Z</time>
      </trkpt>
      <trkpt lat="41.0357680" lon="0.5937280">
        <ele>106.4</ele>
        <time>2020-08-08T13:25:16Z</time>
      </trkpt>
      <trkpt lat="41.0357640" lon="0.5937180">
        <ele>106.4</ele>
        <time>2020-08-08T13:25:17Z</time>
      </trkpt>
      <trkpt lat="41.0357630" lon="0.5937050">
        <ele>106.4</ele>
        <time>2020-08-08T13:25:18Z</time>
      </trkpt>
      <trkpt lat="41.0357660" lon="0.5936900">
        <ele>106.2</ele>
        <time>2020-08-08T13:25:20Z</time>
      </trkpt>
      <trkpt lat="41.0357710" lon="0.5936850">
        <ele>106.2</ele>
        <time>2020-08-08T13:25:21Z</time>
      </trkpt>
      <trkpt lat="41.0357750" lon="0.5936800">
        <ele>106.2</ele>
        <time>2020-08-08T13:25:23Z</time>
      </trkpt>
      <trkpt lat="41.0357790" lon="0.5936830">
        <ele>106.2</ele>
        <time>2020-08-08T13:25:25Z</time>
      </trkpt>
      <trkpt lat="41.0357830" lon="0.5936900">
        <ele>106.2</ele>
        <time>2020-08-08T13:25:26Z</time>
      </trkpt>
      <trkpt lat="41.0357870" lon="0.5936960">
        <ele>106.4</ele>
        <time>2020-08-08T13:25:27Z</time>
      </trkpt>
      <trkpt lat="41.0357920" lon="0.5937030">
        <ele>106.4</ele>
        <time>2020-08-08T13:25:29Z</time>
      </trkpt>
      <trkpt lat="41.0357970" lon="0.5937120">
        <ele>106.3</ele>
        <time>2020-08-08T13:25:30Z</time>
      </trkpt>
      <trkpt lat="41.0358010" lon="0.5937240">
        <ele>106.3</ele>
        <time>2020-08-08T13:25:31Z</time>
      </trkpt>
      <trkpt lat="41.0358060" lon="0.5937350">
        <ele>106.6</ele>
        <time>2020-08-08T13:25:33Z</time>
      </trkpt>
      <trkpt lat="41.0358090" lon="0.5937440">
        <ele>106.6</ele>
        <time>2020-08-08T13:25:34Z</time>
      </trkpt>
      <trkpt lat="41.0358110" lon="0.5937570">
        <ele>106.6</ele>
        <time>2020-08-08T13:25:36Z</time>
      </trkpt>
      <trkpt lat="41.0358110" lon="0.5937660">
        <ele>106.6</ele>
        <time>2020-08-08T13:25:37Z</time>
      </trkpt>
      <trkpt lat="41.0358100" lon="0.5937810">
        <ele>106.8</ele>
        <time>2020-08-08T13:25:39Z</time>
      </trkpt>
      <trkpt lat="41.0358100" lon="0.5937920">
        <ele>106.8</ele>
        <time>2020-08-08T13:25:40Z</time>
      </trkpt>
      <trkpt lat="41.0358080" lon="0.5938040">
        <ele>106.8</ele>
        <time>2020-08-08T13:25:42Z</time>
      </trkpt>
      <trkpt lat="41.0358090" lon="0.5938060">
        <ele>106.8</ele>
        <time>2020-08-08T13:25:43Z</time>
      </trkpt>
      <trkpt lat="41.0358100" lon="0.5938080">
        <ele>106.8</ele>
        <time>2020-08-08T13:25:45Z</time>
      </trkpt>
      <trkpt lat="41.0357110" lon="0.5940090">
        <ele>107.4</ele>
        <time>2020-08-08T13:28:53Z</time>
      </trkpt>
      <trkpt lat="41.0357100" lon="0.5939730">
        <ele>107.5</ele>
        <time>2020-08-08T13:28:54Z</time>
      </trkpt>
      <trkpt lat="41.0357410" lon="0.5937610">
        <ele>106.8</ele>
        <time>2020-08-08T13:28:56Z</time>
      </trkpt>
      <trkpt lat="41.0357710" lon="0.5937170">
        <ele>106.5</ele>
        <time>2020-08-08T13:28:58Z</time>
      </trkpt>
      <trkpt lat="41.0357860" lon="0.5937100">
        <ele>106.5</ele>
        <time>2020-08-08T13:28:59Z</time>
      </trkpt>
      <trkpt lat="41.0357890" lon="0.5937030">
        <ele>106.5</ele>
        <time>2020-08-08T13:29:01Z</time>
      </trkpt>
      <trkpt lat="41.0357930" lon="0.5937000">
        <ele>106.5</ele>
        <time>2020-08-08T13:29:02Z</time>
      </trkpt>
      <trkpt lat="41.0357980" lon="0.5936980">
        <ele>106.3</ele>
        <time>2020-08-08T13:29:04Z</time>
      </trkpt>
      <trkpt lat="41.0358000" lon="0.5936960">
        <ele>106.3</ele>
        <time>2020-08-08T13:29:05Z</time>
      </trkpt>
      <trkpt lat="41.0358010" lon="0.5936970">
        <ele>106.3</ele>
        <time>2020-08-08T13:29:07Z</time>
      </trkpt>
      <trkpt lat="41.0358020" lon="0.5936970">
        <ele>106.3</ele>
        <time>2020-08-08T13:29:08Z</time>
      </trkpt>
      <trkpt lat="41.0358020" lon="0.5936990">
        <ele>106.3</ele>
        <time>2020-08-08T13:29:09Z</time>
      </trkpt>
      <trkpt lat="41.0358010" lon="0.5937010">
        <ele>106.3</ele>
        <time>2020-08-08T13:29:11Z</time>
      </trkpt>
      <trkpt lat="41.0358000" lon="0.5937030">
        <ele>106.3</ele>
        <time>2020-08-08T13:29:12Z</time>
      </trkpt>
      <trkpt lat="41.0357980" lon="0.5937080">
        <ele>106.3</ele>
        <time>2020-08-08T13:29:14Z</time>
      </trkpt>
      <trkpt lat="41.0357950" lon="0.5937110">
        <ele>106.3</ele>
        <time>2020-08-08T13:29:15Z</time>
      </trkpt>
      <trkpt lat="41.0357930" lon="0.5937130">
        <ele>106.5</ele>
        <time>2020-08-08T13:29:16Z</time>
      </trkpt>
      <trkpt lat="41.0357900" lon="0.5937140">
        <ele>106.5</ele>
        <time>2020-08-08T13:29:17Z</time>
      </trkpt>
      <trkpt lat="41.0357880" lon="0.5937150">
        <ele>106.5</ele>
        <time>2020-08-08T13:29:18Z</time>
      </trkpt>
      <trkpt lat="41.0357850" lon="0.5937170">
        <ele>106.5</ele>
        <time>2020-08-08T13:29:20Z</time>
      </trkpt>
      <trkpt lat="41.0357840" lon="0.5937170">
        <ele>106.5</ele>
        <time>2020-08-08T13:29:21Z</time>
      </trkpt>
      <trkpt lat="41.0357830" lon="0.5937180">
        <ele>106.5</ele>
        <time>2020-08-08T13:29:22Z</time>
      </trkpt>
      <trkpt lat="41.0357810" lon="0.5937190">
        <ele>106.5</ele>
        <time>2020-08-08T13:29:24Z</time>
      </trkpt>
      <trkpt lat="41.0357800" lon="0.5937220">
        <ele>106.5</ele>
        <time>2020-08-08T13:29:25Z</time>
      </trkpt>
      <trkpt lat="41.0357790" lon="0.5937240">
        <ele>106.5</ele>
        <time>2020-08-08T13:29:26Z</time>
      </trkpt>
      <trkpt lat="41.0357800" lon="0.5937280">
        <ele>106.5</ele>
        <time>2020-08-08T13:29:27Z</time>
      </trkpt>
      <trkpt lat="41.0357810" lon="0.5937300">
        <ele>106.5</ele>
        <time>2020-08-08T13:29:29Z</time>
      </trkpt>
      <trkpt lat="41.0357810" lon="0.5937340">
        <ele>106.7</ele>
        <time>2020-08-08T13:29:30Z</time>
      </trkpt>
      <trkpt lat="41.0357830" lon="0.5937370">
        <ele>106.7</ele>
        <time>2020-08-08T13:29:31Z</time>
      </trkpt>
      <trkpt lat="41.0357840" lon="0.5937400">
        <ele>106.7</ele>
        <time>2020-08-08T13:29:32Z</time>
      </trkpt>
      <trkpt lat="41.0357850" lon="0.5937430">
        <ele>106.7</ele>
        <time>2020-08-08T13:29:33Z</time>
      </trkpt>
      <trkpt lat="41.0357860" lon="0.5937470">
        <ele>106.7</ele>
        <time>2020-08-08T13:29:35Z</time>
      </trkpt>
      <trkpt lat="41.0357870" lon="0.5937490">
        <ele>106.8</ele>
        <time>2020-08-08T13:29:36Z</time>
      </trkpt>
      <trkpt lat="41.0357900" lon="0.5937540">
        <ele>106.8</ele>
        <time>2020-08-08T13:29:37Z</time>
      </trkpt>
      <trkpt lat="41.0357910" lon="0.5937600">
        <ele>106.8</ele>
        <time>2020-08-08T13:29:38Z</time>
      </trkpt>
      <trkpt lat="41.0357900" lon="0.5937650">
        <ele>106.8</ele>
        <time>2020-08-08T13:29:39Z</time>
      </trkpt>
      <trkpt lat="41.0357880" lon="0.5937700">
        <ele>106.8</ele>
        <time>2020-08-08T13:29:40Z</time>
      </trkpt>
      <trkpt lat="41.0357760" lon="0.5937850">
        <ele>107.0</ele>
        <time>2020-08-08T13:29:42Z</time>
      </trkpt>
      <trkpt lat="41.0357630" lon="0.5937850">
        <ele>107.0</ele>
        <time>2020-08-08T13:29:43Z</time>
      </trkpt>
      <trkpt lat="41.0357470" lon="0.5937850">
        <ele>107.1</ele>
        <time>2020-08-08T13:29:44Z</time>
      </trkpt>
      <trkpt lat="41.0357350" lon="0.5937860">
        <ele>107.1</ele>
        <time>2020-08-08T13:29:46Z</time>
      </trkpt>
      <trkpt lat="41.0357210" lon="0.5937890">
        <ele>107.2</ele>
        <time>2020-08-08T13:29:47Z</time>
      </trkpt>
      <trkpt lat="41.0357050" lon="0.5937920">
        <ele>107.2</ele>
        <time>2020-08-08T13:29:48Z</time>
      </trkpt>
      <trkpt lat="41.0356870" lon="0.5937910">
        <ele>107.3</ele>
        <time>2020-08-08T13:29:49Z</time>
      </trkpt>
      <trkpt lat="41.0356720" lon="0.5937850">
        <ele>107.3</ele>
        <time>2020-08-08T13:29:50Z</time>
      </trkpt>
      <trkpt lat="41.0356520" lon="0.5937820">
        <ele>107.3</ele>
        <time>2020-08-08T13:29:52Z</time>
      </trkpt>
      <trkpt lat="41.0356430" lon="0.5937820">
        <ele>107.3</ele>
        <time>2020-08-08T13:29:53Z</time>
      </trkpt>
      <trkpt lat="41.0356270" lon="0.5937820">
        <ele>107.3</ele>
        <time>2020-08-08T13:29:55Z</time>
      </trkpt>
      <trkpt lat="41.0356280" lon="0.5937820">
        <ele>107.3</ele>
        <time>2020-08-08T13:29:57Z</time>
      </trkpt>
      <trkpt lat="41.0356260" lon="0.5937840">
        <ele>107.3</ele>
        <time>2020-08-08T13:29:58Z</time>
      </trkpt>
      <trkpt lat="41.0356220" lon="0.5937860">
        <ele>107.3</ele>
        <time>2020-08-08T13:29:59Z</time>
      </trkpt>
      <trkpt lat="41.0356160" lon="0.5937900">
        <ele>107.3</ele>
        <time>2020-08-08T13:30:01Z</time>
      </trkpt>
      <trkpt lat="41.0356140" lon="0.5937920">
        <ele>107.3</ele>
        <time>2020-08-08T13:30:02Z</time>
      </trkpt>
      <trkpt lat="41.0356110" lon="0.5937950">
        <ele>107.3</ele>
        <time>2020-08-08T13:30:03Z</time>
      </trkpt>
      <trkpt lat="41.0356080" lon="0.5937990">
        <ele>107.3</ele>
        <time>2020-08-08T13:30:04Z</time>
      </trkpt>
      <trkpt lat="41.0356050" lon="0.5938020">
        <ele>107.3</ele>
        <time>2020-08-08T13:30:05Z</time>
      </trkpt>
      <trkpt lat="41.0356020" lon="0.5938070">
        <ele>107.3</ele>
        <time>2020-08-08T13:30:07Z</time>
      </trkpt>
      <trkpt lat="41.0356860" lon="0.5939180">
        <ele>107.7</ele>
        <time>2020-08-08T13:30:25Z</time>
      </trkpt>
      <trkpt lat="41.0356490" lon="0.5939200">
        <ele>107.6</ele>
        <time>2020-08-08T13:30:27Z</time>
      </trkpt>
      <trkpt lat="41.0354720" lon="0.5938390">
        <ele>106.3</ele>
        <time>2020-08-08T13:30:34Z</time>
      </trkpt>
      <trkpt lat="41.0354500" lon="0.5938200">
        <ele>105.8</ele>
        <time>2020-08-08T13:30:36Z</time>
      </trkpt>
      <trkpt lat="41.0354440" lon="0.5938290">
        <ele>105.8</ele>
        <time>2020-08-08T13:30:38Z</time>
      </trkpt>
      <trkpt lat="41.0354370" lon="0.5938390">
        <ele>105.2</ele>
        <time>2020-08-08T13:30:39Z</time>
      </trkpt>
      <trkpt lat="41.0354310" lon="0.5938480">
        <ele>105.2</ele>
        <time>2020-08-08T13:30:40Z</time>
      </trkpt>
      <trkpt lat="41.0354250" lon="0.5938570">
        <ele>105.2</ele>
        <time>2020-08-08T13:30:41Z</time>
      </trkpt>
      <trkpt lat="41.0354190" lon="0.5938770">
        <ele>104.9</ele>
        <time>2020-08-08T13:30:42Z</time>
      </trkpt>
      <trkpt lat="41.0354170" lon="0.5938920">
        <ele>104.9</ele>
        <time>2020-08-08T13:30:43Z</time>
      </trkpt>
      <trkpt lat="41.0354210" lon="0.5939240">
        <ele>104.4</ele>
        <time>2020-08-08T13:30:44Z</time>
      </trkpt>
      <trkpt lat="41.0354260" lon="0.5939480">
        <ele>104.4</ele>
        <time>2020-08-08T13:30:46Z</time>
      </trkpt>
      <trkpt lat="41.0354370" lon="0.5939720">
        <ele>103.9</ele>
        <time>2020-08-08T13:30:47Z</time>
      </trkpt>
      <trkpt lat="41.0354480" lon="0.5939840">
        <ele>104.7</ele>
        <time>2020-08-08T13:30:48Z</time>
      </trkpt>
      <trkpt lat="41.0354570" lon="0.5939940">
        <ele>104.2</ele>
        <time>2020-08-08T13:30:49Z</time>
      </trkpt>
      <trkpt lat="41.0354710" lon="0.5940090">
        <ele>104.9</ele>
        <time>2020-08-08T13:30:50Z</time>
      </trkpt>
      <trkpt lat="41.0354830" lon="0.5940210">
        <ele>105.0</ele>
        <time>2020-08-08T13:30:52Z</time>
      </trkpt>
      <trkpt lat="41.0354900" lon="0.5940290">
        <ele>105.0</ele>
        <time>2020-08-08T13:30:53Z</time>
      </trkpt>
      <trkpt lat="41.0354970" lon="0.5940360">
        <ele>104.4</ele>
        <time>2020-08-08T13:30:54Z</time>
      </trkpt>
      <trkpt lat="41.0355020" lon="0.5940430">
        <ele>104.4</ele>
        <time>2020-08-08T13:30:55Z</time>
      </trkpt>
      <trkpt lat="41.0355060" lon="0.5940500">
        <ele>105.1</ele>
        <time>2020-08-08T13:30:56Z</time>
      </trkpt>
      <trkpt lat="41.0355100" lon="0.5940570">
        <ele>105.1</ele>
        <time>2020-08-08T13:30:57Z</time>
      </trkpt>
      <trkpt lat="41.0355180" lon="0.5940690">
        <ele>105.1</ele>
        <time>2020-08-08T13:30:58Z</time>
      </trkpt>
      <trkpt lat="41.0355310" lon="0.5940820">
        <ele>104.5</ele>
        <time>2020-08-08T13:31:00Z</time>
      </trkpt>
      <trkpt lat="41.0355420" lon="0.5940900">
        <ele>105.1</ele>
        <time>2020-08-08T13:31:01Z</time>
      </trkpt>
      <trkpt lat="41.0355530" lon="0.5940950">
        <ele>105.1</ele>
        <time>2020-08-08T13:31:02Z</time>
      </trkpt>
      <trkpt lat="41.0355690" lon="0.5941020">
        <ele>105.7</ele>
        <time>2020-08-08T13:31:03Z</time>
      </trkpt>
      <trkpt lat="41.0355800" lon="0.5941080">
        <ele>105.7</ele>
        <time>2020-08-08T13:31:04Z</time>
      </trkpt>
      <trkpt lat="41.0355990" lon="0.5941110">
        <ele>105.7</ele>
        <time>2020-08-08T13:31:06Z</time>
      </trkpt>
      <trkpt lat="41.0356150" lon="0.5941160">
        <ele>106.1</ele>
        <time>2020-08-08T13:31:07Z</time>
      </trkpt>
      <trkpt lat="41.0356430" lon="0.5941190">
        <ele>106.4</ele>
        <time>2020-08-08T13:31:09Z</time>
      </trkpt>
      <trkpt lat="41.0356610" lon="0.5941290">
        <ele>105.8</ele>
        <time>2020-08-08T13:31:11Z</time>
      </trkpt>
      <trkpt lat="41.0356730" lon="0.5941300">
        <ele>106.0</ele>
        <time>2020-08-08T13:31:12Z</time>
      </trkpt>
      <trkpt lat="41.0356860" lon="0.5941370">
        <ele>106.0</ele>
        <time>2020-08-08T13:31:14Z</time>
      </trkpt>
      <trkpt lat="41.0356970" lon="0.5941470">
        <ele>106.0</ele>
        <time>2020-08-08T13:31:16Z</time>
      </trkpt>
      <trkpt lat="41.0356970" lon="0.5941540">
        <ele>106.0</ele>
        <time>2020-08-08T13:31:18Z</time>
      </trkpt>
      <trkpt lat="41.0357000" lon="0.5941590">
        <ele>106.1</ele>
        <time>2020-08-08T13:31:20Z</time>
      </trkpt>
      <trkpt lat="41.0357020" lon="0.5941600">
        <ele>106.1</ele>
        <time>2020-08-08T13:31:21Z</time>
      </trkpt>
      <trkpt lat="41.0357030" lon="0.5941610">
        <ele>106.1</ele>
        <time>2020-08-08T13:31:22Z</time>
      </trkpt>
      <trkpt lat="41.0357040" lon="0.5941610">
        <ele>106.1</ele>
        <time>2020-08-08T13:31:24Z</time>
      </trkpt>
      <trkpt lat="41.0357040" lon="0.5941600">
        <ele>106.1</ele>
        <time>2020-08-08T13:31:25Z</time>
      </trkpt>
      <trkpt lat="41.0357040" lon="0.5941610">
        <ele>106.1</ele>
        <time>2020-08-08T13:31:26Z</time>
      </trkpt>
      <trkpt lat="41.0357110" lon="0.5941780">
        <ele>105.5</ele>
        <time>2020-08-08T13:31:41Z</time>
      </trkpt>
      <trkpt lat="41.0357120" lon="0.5941890">
        <ele>105.5</ele>
        <time>2020-08-08T13:31:43Z</time>
      </trkpt>
      <trkpt lat="41.0357140" lon="0.5941910">
        <ele>105.5</ele>
        <time>2020-08-08T13:31:45Z</time>
      </trkpt>
      <trkpt lat="41.0357200" lon="0.5941920">
        <ele>105.5</ele>
        <time>2020-08-08T13:31:47Z</time>
      </trkpt>
      <trkpt lat="41.0357250" lon="0.5941930">
        <ele>105.5</ele>
        <time>2020-08-08T13:31:48Z</time>
      </trkpt>
      <trkpt lat="41.0357290" lon="0.5941940">
        <ele>105.5</ele>
        <time>2020-08-08T13:31:49Z</time>
      </trkpt>
      <trkpt lat="41.0357370" lon="0.5941960">
        <ele>105.4</ele>
        <time>2020-08-08T13:31:51Z</time>
      </trkpt>
      <trkpt lat="41.0357440" lon="0.5941970">
        <ele>105.4</ele>
        <time>2020-08-08T13:31:52Z</time>
      </trkpt>
      <trkpt lat="41.0357550" lon="0.5941970">
        <ele>105.4</ele>
        <time>2020-08-08T13:31:54Z</time>
      </trkpt>
      <trkpt lat="41.0357590" lon="0.5941950">
        <ele>105.4</ele>
        <time>2020-08-08T13:31:56Z</time>
      </trkpt>
      <trkpt lat="41.0357610" lon="0.5941930">
        <ele>105.4</ele>
        <time>2020-08-08T13:31:58Z</time>
      </trkpt>
      <trkpt lat="41.0357620" lon="0.5941900">
        <ele>105.3</ele>
        <time>2020-08-08T13:32:00Z</time>
      </trkpt>
      <trkpt lat="41.0357630" lon="0.5941890">
        <ele>105.3</ele>
        <time>2020-08-08T13:32:01Z</time>
      </trkpt>
      <trkpt lat="41.0357640" lon="0.5941890">
        <ele>105.3</ele>
        <time>2020-08-08T13:32:03Z</time>
      </trkpt>
      <trkpt lat="41.0357630" lon="0.5941880">
        <ele>105.3</ele>
        <time>2020-08-08T13:32:04Z</time>
      </trkpt>
      <trkpt lat="41.0357630" lon="0.5941870">
        <ele>105.3</ele>
        <time>2020-08-08T13:32:05Z</time>
      </trkpt>
      <trkpt lat="41.0357620" lon="0.5941840">
        <ele>105.3</ele>
        <time>2020-08-08T13:32:07Z</time>
      </trkpt>
      <trkpt lat="41.0357610" lon="0.5941820">
        <ele>105.5</ele>
        <time>2020-08-08T13:32:09Z</time>
      </trkpt>
      <trkpt lat="41.0357610" lon="0.5941820">
        <ele>105.5</ele>
        <time>2020-08-08T13:32:10Z</time>
      </trkpt>
      <trkpt lat="41.0357620" lon="0.5941810">
        <ele>105.3</ele>
        <time>2020-08-08T13:32:13Z</time>
      </trkpt>
      <trkpt lat="41.0357620" lon="0.5941810">
        <ele>105.3</ele>
        <time>2020-08-08T13:32:14Z</time>
      </trkpt>
      <trkpt lat="41.0357610" lon="0.5941820">
        <ele>105.5</ele>
        <time>2020-08-08T13:32:15Z</time>
      </trkpt>
      <trkpt lat="41.0357580" lon="0.5941830">
        <ele>105.5</ele>
        <time>2020-08-08T13:32:17Z</time>
      </trkpt>
      <trkpt lat="41.0357500" lon="0.5941740">
        <ele>105.5</ele>
        <time>2020-08-08T13:32:18Z</time>
      </trkpt>
      <trkpt lat="41.0357490" lon="0.5941700">
        <ele>105.5</ele>
        <time>2020-08-08T13:32:19Z</time>
      </trkpt>
      <trkpt lat="41.0357500" lon="0.5941660">
        <ele>105.5</ele>
        <time>2020-08-08T13:32:21Z</time>
      </trkpt>
      <trkpt lat="41.0357520" lon="0.5941700">
        <ele>105.5</ele>
        <time>2020-08-08T13:32:23Z</time>
      </trkpt>
      <trkpt lat="41.0357500" lon="0.5941760">
        <ele>105.5</ele>
        <time>2020-08-08T13:32:24Z</time>
      </trkpt>
      <trkpt lat="41.0357490" lon="0.5941800">
        <ele>105.5</ele>
        <time>2020-08-08T13:32:25Z</time>
      </trkpt>
      <trkpt lat="41.0357470" lon="0.5941840">
        <ele>105.5</ele>
        <time>2020-08-08T13:32:26Z</time>
      </trkpt>
      <trkpt lat="41.0357420" lon="0.5941890">
        <ele>105.5</ele>
        <time>2020-08-08T13:32:28Z</time>
      </trkpt>
      <trkpt lat="41.0357380" lon="0.5941870">
        <ele>105.5</ele>
        <time>2020-08-08T13:32:29Z</time>
      </trkpt>
      <trkpt lat="41.0357350" lon="0.5941860">
        <ele>105.5</ele>
        <time>2020-08-08T13:32:30Z</time>
      </trkpt>
      <trkpt lat="41.0357330" lon="0.5941800">
        <ele>105.5</ele>
        <time>2020-08-08T13:32:32Z</time>
      </trkpt>
      <trkpt lat="41.0357370" lon="0.5941740">
        <ele>105.5</ele>
        <time>2020-08-08T13:32:33Z</time>
      </trkpt>
      <trkpt lat="41.0357360" lon="0.5941720">
        <ele>105.5</ele>
        <time>2020-08-08T13:32:35Z</time>
      </trkpt>
      <trkpt lat="41.0357370" lon="0.5941730">
        <ele>105.5</ele>
        <time>2020-08-08T13:32:36Z</time>
      </trkpt>
      <trkpt lat="41.0357380" lon="0.5941750">
        <ele>105.5</ele>
        <time>2020-08-08T13:32:38Z</time>
      </trkpt>
      <trkpt lat="41.0357380" lon="0.5941750">
        <ele>105.5</ele>
        <time>2020-08-08T13:32:39Z</time>
      </trkpt>
      <trkpt lat="41.0357400" lon="0.5941770">
        <ele>105.5</ele>
        <time>2020-08-08T13:32:40Z</time>
      </trkpt>
      <trkpt lat="41.0357430" lon="0.5941790">
        <ele>105.5</ele>
        <time>2020-08-08T13:32:41Z</time>
      </trkpt>
      <trkpt lat="41.0357430" lon="0.5941840">
        <ele>105.5</ele>
        <time>2020-08-08T13:32:43Z</time>
      </trkpt>
      <trkpt lat="41.0357370" lon="0.5941930">
        <ele>105.5</ele>
        <time>2020-08-08T13:32:45Z</time>
      </trkpt>
      <trkpt lat="41.0357170" lon="0.5941700">
        <ele>105.5</ele>
        <time>2020-08-08T13:32:47Z</time>
      </trkpt>
      <trkpt lat="41.0357120" lon="0.5941600">
        <ele>106.1</ele>
        <time>2020-08-08T13:32:48Z</time>
      </trkpt>
      <trkpt lat="41.0357090" lon="0.5941520">
        <ele>106.1</ele>
        <time>2020-08-08T13:32:49Z</time>
      </trkpt>
      <trkpt lat="41.0357210" lon="0.5941450">
        <ele>106.1</ele>
        <time>2020-08-08T13:32:51Z</time>
      </trkpt>
      <trkpt lat="41.0357270" lon="0.5941370">
        <ele>106.2</ele>
        <time>2020-08-08T13:32:52Z</time>
      </trkpt>
      <trkpt lat="41.0357350" lon="0.5941340">
        <ele>106.1</ele>
        <time>2020-08-08T13:32:53Z</time>
      </trkpt>
      <trkpt lat="41.0357420" lon="0.5941350">
        <ele>106.1</ele>
        <time>2020-08-08T13:32:55Z</time>
      </trkpt>
      <trkpt lat="41.0357490" lon="0.5941340">
        <ele>106.1</ele>
        <time>2020-08-08T13:32:56Z</time>
      </trkpt>
      <trkpt lat="41.0357600" lon="0.5941360">
        <ele>106.1</ele>
        <time>2020-08-08T13:32:58Z</time>
      </trkpt>
      <trkpt lat="41.0357540" lon="0.5941440">
        <ele>106.1</ele>
        <time>2020-08-08T13:32:59Z</time>
      </trkpt>
      <trkpt lat="41.0357430" lon="0.5941530">
        <ele>106.1</ele>
        <time>2020-08-08T13:33:02Z</time>
      </trkpt>
      <trkpt lat="41.0357490" lon="0.5941540">
        <ele>106.1</ele>
        <time>2020-08-08T13:33:03Z</time>
      </trkpt>
      <trkpt lat="41.0357490" lon="0.5941530">
        <ele>106.1</ele>
        <time>2020-08-08T13:33:04Z</time>
      </trkpt>
      <trkpt lat="41.0357490" lon="0.5941540">
        <ele>106.1</ele>
        <time>2020-08-08T13:33:05Z</time>
      </trkpt>
      <trkpt lat="41.0357480" lon="0.5941540">
        <ele>106.1</ele>
        <time>2020-08-08T13:33:06Z</time>
      </trkpt>
      <trkpt lat="41.0357490" lon="0.5941540">
        <ele>106.1</ele>
        <time>2020-08-08T13:33:08Z</time>
      </trkpt>
      <trkpt lat="41.0357490" lon="0.5941550">
        <ele>106.1</ele>
        <time>2020-08-08T13:33:09Z</time>
      </trkpt>
      <trkpt lat="41.0357500" lon="0.5941560">
        <ele>106.1</ele>
        <time>2020-08-08T13:33:11Z</time>
      </trkpt>
      <trkpt lat="41.0357500" lon="0.5941560">
        <ele>106.1</ele>
        <time>2020-08-08T13:33:12Z</time>
      </trkpt>
      <trkpt lat="41.0357840" lon="0.5941830">
        <ele>105.4</ele>
        <time>2020-08-08T13:34:12Z</time>
      </trkpt>
      <trkpt lat="41.0357900" lon="0.5941850">
        <ele>105.4</ele>
        <time>2020-08-08T13:34:13Z</time>
      </trkpt>
      <trkpt lat="41.0357900" lon="0.5941900">
        <ele>105.4</ele>
        <time>2020-08-08T13:34:14Z</time>
      </trkpt>
      <trkpt lat="41.0357890" lon="0.5941950">
        <ele>105.4</ele>
        <time>2020-08-08T13:34:15Z</time>
      </trkpt>
      <trkpt lat="41.0357890" lon="0.5942000">
        <ele>105.4</ele>
        <time>2020-08-08T13:34:17Z</time>
      </trkpt>
      <trkpt lat="41.0357850" lon="0.5941980">
        <ele>105.4</ele>
        <time>2020-08-08T13:34:18Z</time>
      </trkpt>
      <trkpt lat="41.0357840" lon="0.5941960">
        <ele>105.4</ele>
        <time>2020-08-08T13:34:19Z</time>
      </trkpt>
      <trkpt lat="41.0357810" lon="0.5941990">
        <ele>105.4</ele>
        <time>2020-08-08T13:34:20Z</time>
      </trkpt>
      <trkpt lat="41.0357780" lon="0.5942080">
        <ele>104.8</ele>
        <time>2020-08-08T13:34:21Z</time>
      </trkpt>
      <trkpt lat="41.0357750" lon="0.5942140">
        <ele>104.8</ele>
        <time>2020-08-08T13:34:23Z</time>
      </trkpt>
      <trkpt lat="41.0357720" lon="0.5942220">
        <ele>104.8</ele>
        <time>2020-08-08T13:34:24Z</time>
      </trkpt>
      <trkpt lat="41.0357650" lon="0.5942260">
        <ele>104.8</ele>
        <time>2020-08-08T13:34:25Z</time>
      </trkpt>
      <trkpt lat="41.0357580" lon="0.5942350">
        <ele>104.8</ele>
        <time>2020-08-08T13:34:26Z</time>
      </trkpt>
      <trkpt lat="41.0357550" lon="0.5942400">
        <ele>104.8</ele>
        <time>2020-08-08T13:34:27Z</time>
      </trkpt>
      <trkpt lat="41.0357520" lon="0.5942450">
        <ele>104.8</ele>
        <time>2020-08-08T13:34:28Z</time>
      </trkpt>
      <trkpt lat="41.0357560" lon="0.5942570">
        <ele>104.1</ele>
        <time>2020-08-08T13:34:30Z</time>
      </trkpt>
      <trkpt lat="41.0357620" lon="0.5942590">
        <ele>104.1</ele>
        <time>2020-08-08T13:34:31Z</time>
      </trkpt>
      <trkpt lat="41.0357680" lon="0.5942620">
        <ele>104.1</ele>
        <time>2020-08-08T13:34:32Z</time>
      </trkpt>
      <trkpt lat="41.0357720" lon="0.5942700">
        <ele>104.1</ele>
        <time>2020-08-08T13:34:34Z</time>
      </trkpt>
      <trkpt lat="41.0357750" lon="0.5942790">
        <ele>104.1</ele>
        <time>2020-08-08T13:34:35Z</time>
      </trkpt>
      <trkpt lat="41.0357800" lon="0.5942920">
        <ele>103.3</ele>
        <time>2020-08-08T13:34:36Z</time>
      </trkpt>
      <trkpt lat="41.0357870" lon="0.5943150">
        <ele>103.3</ele>
        <time>2020-08-08T13:34:38Z</time>
      </trkpt>
      <trkpt lat="41.0357960" lon="0.5943260">
        <ele>103.2</ele>
        <time>2020-08-08T13:34:39Z</time>
      </trkpt>
      <trkpt lat="41.0358120" lon="0.5943420">
        <ele>102.4</ele>
        <time>2020-08-08T13:34:41Z</time>
      </trkpt>
      <trkpt lat="41.0358170" lon="0.5943520">
        <ele>102.4</ele>
        <time>2020-08-08T13:34:42Z</time>
      </trkpt>
      <trkpt lat="41.0358220" lon="0.5943610">
        <ele>102.4</ele>
        <time>2020-08-08T13:34:44Z</time>
      </trkpt>
      <trkpt lat="41.0358270" lon="0.5943710">
        <ele>102.3</ele>
        <time>2020-08-08T13:34:45Z</time>
      </trkpt>
      <trkpt lat="41.0358320" lon="0.5943810">
        <ele>101.5</ele>
        <time>2020-08-08T13:34:47Z</time>
      </trkpt>
      <trkpt lat="41.0358370" lon="0.5943910">
        <ele>101.5</ele>
        <time>2020-08-08T13:34:48Z</time>
      </trkpt>
      <trkpt lat="41.0358360" lon="0.5944130">
        <ele>101.5</ele>
        <time>2020-08-08T13:34:49Z</time>
      </trkpt>
      <trkpt lat="41.0358390" lon="0.5944320">
        <ele>100.5</ele>
        <time>2020-08-08T13:34:50Z</time>
      </trkpt>
      <trkpt lat="41.0358450" lon="0.5944660">
        <ele>99.4</ele>
        <time>2020-08-08T13:34:53Z</time>
      </trkpt>
      <trkpt lat="41.0358470" lon="0.5944500">
        <ele>100.5</ele>
        <time>2020-08-08T13:34:55Z</time>
      </trkpt>
      <trkpt lat="41.0358490" lon="0.5944440">
        <ele>100.5</ele>
        <time>2020-08-08T13:34:56Z</time>
      </trkpt>
      <trkpt lat="41.0358530" lon="0.5944400">
        <ele>100.5</ele>
        <time>2020-08-08T13:34:58Z</time>
      </trkpt>
      <trkpt lat="41.0358550" lon="0.5944390">
        <ele>100.5</ele>
        <time>2020-08-08T13:34:59Z</time>
      </trkpt>
      <trkpt lat="41.0358590" lon="0.5944360">
        <ele>100.4</ele>
        <time>2020-08-08T13:35:00Z</time>
      </trkpt>
      <trkpt lat="41.0358650" lon="0.5944480">
        <ele>100.4</ele>
        <time>2020-08-08T13:35:01Z</time>
      </trkpt>
      <trkpt lat="41.0358710" lon="0.5944590">
        <ele>100.4</ele>
        <time>2020-08-08T13:35:02Z</time>
      </trkpt>
      <trkpt lat="41.0358820" lon="0.5944780">
        <ele>99.4</ele>
        <time>2020-08-08T13:35:04Z</time>
      </trkpt>
      <trkpt lat="41.0358900" lon="0.5944830">
        <ele>99.4</ele>
        <time>2020-08-08T13:35:05Z</time>
      </trkpt>
      <trkpt lat="41.0358980" lon="0.5944870">
        <ele>99.2</ele>
        <time>2020-08-08T13:35:06Z</time>
      </trkpt>
      <trkpt lat="41.0358990" lon="0.5944900">
        <ele>99.2</ele>
        <time>2020-08-08T13:35:07Z</time>
      </trkpt>
      <trkpt lat="41.0359080" lon="0.5945000">
        <ele>99.2</ele>
        <time>2020-08-08T13:35:09Z</time>
      </trkpt>
      <trkpt lat="41.0359170" lon="0.5945080">
        <ele>98.2</ele>
        <time>2020-08-08T13:35:10Z</time>
      </trkpt>
      <trkpt lat="41.0359240" lon="0.5945100">
        <ele>98.0</ele>
        <time>2020-08-08T13:35:11Z</time>
      </trkpt>
      <trkpt lat="41.0359290" lon="0.5945140">
        <ele>98.0</ele>
        <time>2020-08-08T13:35:12Z</time>
      </trkpt>
      <trkpt lat="41.0359330" lon="0.5945170">
        <ele>98.0</ele>
        <time>2020-08-08T13:35:13Z</time>
      </trkpt>
      <trkpt lat="41.0359360" lon="0.5945190">
        <ele>98.0</ele>
        <time>2020-08-08T13:35:14Z</time>
      </trkpt>
      <trkpt lat="41.0359380" lon="0.5945210">
        <ele>98.0</ele>
        <time>2020-08-08T13:35:15Z</time>
      </trkpt>
      <trkpt lat="41.0359390" lon="0.5945220">
        <ele>98.0</ele>
        <time>2020-08-08T13:35:16Z</time>
      </trkpt>
      <trkpt lat="41.0359400" lon="0.5945230">
        <ele>98.0</ele>
        <time>2020-08-08T13:35:17Z</time>
      </trkpt>
      <trkpt lat="41.0359420" lon="0.5945230">
        <ele>98.0</ele>
        <time>2020-08-08T13:35:19Z</time>
      </trkpt>
      <trkpt lat="41.0359430" lon="0.5945230">
        <ele>98.0</ele>
        <time>2020-08-08T13:35:21Z</time>
      </trkpt>
      <trkpt lat="41.0359430" lon="0.5945230">
        <ele>98.0</ele>
        <time>2020-08-08T13:35:22Z</time>
      </trkpt>
      <trkpt lat="41.0359550" lon="0.5944790">
        <ele>99.1</ele>
        <time>2020-08-08T13:35:40Z</time>
      </trkpt>
      <trkpt lat="41.0359600" lon="0.5944640">
        <ele>98.8</ele>
        <time>2020-08-08T13:35:41Z</time>
      </trkpt>
      <trkpt lat="41.0359670" lon="0.5944490">
        <ele>99.8</ele>
        <time>2020-08-08T13:35:42Z</time>
      </trkpt>
      <trkpt lat="41.0359750" lon="0.5944400">
        <ele>99.8</ele>
        <time>2020-08-08T13:35:44Z</time>
      </trkpt>
      <trkpt lat="41.0359810" lon="0.5944360">
        <ele>99.8</ele>
        <time>2020-08-08T13:35:45Z</time>
      </trkpt>
      <trkpt lat="41.0359920" lon="0.5944240">
        <ele>99.4</ele>
        <time>2020-08-08T13:35:46Z</time>
      </trkpt>
      <trkpt lat="41.0360030" lon="0.5944110">
        <ele>100.2</ele>
        <time>2020-08-08T13:35:48Z</time>
      </trkpt>
      <trkpt lat="41.0360070" lon="0.5944030">
        <ele>100.2</ele>
        <time>2020-08-08T13:35:49Z</time>
      </trkpt>
      <trkpt lat="41.0360210" lon="0.5943860">
        <ele>99.8</ele>
        <time>2020-08-08T13:35:50Z</time>
      </trkpt>
      <trkpt lat="41.0360330" lon="0.5943700">
        <ele>100.5</ele>
        <time>2020-08-08T13:35:52Z</time>
      </trkpt>
      <trkpt lat="41.0360400" lon="0.5943620">
        <ele>100.5</ele>
        <time>2020-08-08T13:35:53Z</time>
      </trkpt>
      <trkpt lat="41.0360480" lon="0.5943500">
        <ele>100.5</ele>
        <time>2020-08-08T13:35:54Z</time>
      </trkpt>
      <trkpt lat="41.0360600" lon="0.5943320">
        <ele>100.6</ele>
        <time>2020-08-08T13:35:56Z</time>
      </trkpt>
      <trkpt lat="41.0360730" lon="0.5943110">
        <ele>100.6</ele>
        <time>2020-08-08T13:35:58Z</time>
      </trkpt>
      <trkpt lat="41.0360780" lon="0.5942970">
        <ele>100.6</ele>
        <time>2020-08-08T13:35:59Z</time>
      </trkpt>
      <trkpt lat="41.0360830" lon="0.5942860">
        <ele>101.1</ele>
        <time>2020-08-08T13:36:00Z</time>
      </trkpt>
      <trkpt lat="41.0360930" lon="0.5942720">
        <ele>100.5</ele>
        <time>2020-08-08T13:36:02Z</time>
      </trkpt>
      <trkpt lat="41.0360960" lon="0.5942630">
        <ele>100.5</ele>
        <time>2020-08-08T13:36:03Z</time>
      </trkpt>
      <trkpt lat="41.0361010" lon="0.5942570">
        <ele>100.5</ele>
        <time>2020-08-08T13:36:04Z</time>
      </trkpt>
      <trkpt lat="41.0361060" lon="0.5942530">
        <ele>100.6</ele>
        <time>2020-08-08T13:36:05Z</time>
      </trkpt>
      <trkpt lat="41.0361110" lon="0.5942530">
        <ele>100.6</ele>
        <time>2020-08-08T13:36:06Z</time>
      </trkpt>
      <trkpt lat="41.0361120" lon="0.5942550">
        <ele>100.6</ele>
        <time>2020-08-08T13:36:08Z</time>
      </trkpt>
      <trkpt lat="41.0361150" lon="0.5942620">
        <ele>100.6</ele>
        <time>2020-08-08T13:36:09Z</time>
      </trkpt>
      <trkpt lat="41.0361150" lon="0.5942680">
        <ele>100.6</ele>
        <time>2020-08-08T13:36:10Z</time>
      </trkpt>
      <trkpt lat="41.0361150" lon="0.5942750">
        <ele>100.6</ele>
        <time>2020-08-08T13:36:11Z</time>
      </trkpt>
      <trkpt lat="41.0361140" lon="0.5942830">
        <ele>100.6</ele>
        <time>2020-08-08T13:36:12Z</time>
      </trkpt>
      <trkpt lat="41.0361120" lon="0.5942910">
        <ele>100.6</ele>
        <time>2020-08-08T13:36:13Z</time>
      </trkpt>
      <trkpt lat="41.0361090" lon="0.5943030">
        <ele>100.1</ele>
        <time>2020-08-08T13:36:15Z</time>
      </trkpt>
      <trkpt lat="41.0361070" lon="0.5943160">
        <ele>100.1</ele>
        <time>2020-08-08T13:36:16Z</time>
      </trkpt>
      <trkpt lat="41.0361050" lon="0.5943240">
        <ele>100.1</ele>
        <time>2020-08-08T13:36:17Z</time>
      </trkpt>
      <trkpt lat="41.0361030" lon="0.5943330">
        <ele>100.1</ele>
        <time>2020-08-08T13:36:18Z</time>
      </trkpt>
      <trkpt lat="41.0361010" lon="0.5943430">
        <ele>99.6</ele>
        <time>2020-08-08T13:36:19Z</time>
      </trkpt>
      <trkpt lat="41.0360980" lon="0.5943620">
        <ele>99.6</ele>
        <time>2020-08-08T13:36:21Z</time>
      </trkpt>
      <trkpt lat="41.0360980" lon="0.5943750">
        <ele>99.6</ele>
        <time>2020-08-08T13:36:22Z</time>
      </trkpt>
      <trkpt lat="41.0361040" lon="0.5943830">
        <ele>98.9</ele>
        <time>2020-08-08T13:36:23Z</time>
      </trkpt>
      <trkpt lat="41.0361080" lon="0.5943860">
        <ele>98.9</ele>
        <time>2020-08-08T13:36:24Z</time>
      </trkpt>
      <trkpt lat="41.0361230" lon="0.5943830">
        <ele>98.4</ele>
        <time>2020-08-08T13:36:26Z</time>
      </trkpt>
      <trkpt lat="41.0361320" lon="0.5943790">
        <ele>98.4</ele>
        <time>2020-08-08T13:36:27Z</time>
      </trkpt>
      <trkpt lat="41.0361410" lon="0.5943720">
        <ele>99.0</ele>
        <time>2020-08-08T13:36:28Z</time>
      </trkpt>
      <trkpt lat="41.0361500" lon="0.5943620">
        <ele>99.0</ele>
        <time>2020-08-08T13:36:29Z</time>
      </trkpt>
      <trkpt lat="41.0361580" lon="0.5943510">
        <ele>98.5</ele>
        <time>2020-08-08T13:36:30Z</time>
      </trkpt>
      <trkpt lat="41.0361680" lon="0.5943380">
        <ele>98.5</ele>
        <time>2020-08-08T13:36:32Z</time>
      </trkpt>
      <trkpt lat="41.0361780" lon="0.5943260">
        <ele>99.0</ele>
        <time>2020-08-08T13:36:33Z</time>
      </trkpt>
      <trkpt lat="41.0361850" lon="0.5943180">
        <ele>98.4</ele>
        <time>2020-08-08T13:36:34Z</time>
      </trkpt>
      <trkpt lat="41.0361940" lon="0.5943080">
        <ele>98.4</ele>
        <time>2020-08-08T13:36:35Z</time>
      </trkpt>
      <trkpt lat="41.0362060" lon="0.5942920">
        <ele>98.4</ele>
        <time>2020-08-08T13:36:37Z</time>
      </trkpt>
      <trkpt lat="41.0362170" lon="0.5942750">
        <ele>98.2</ele>
        <time>2020-08-08T13:36:38Z</time>
      </trkpt>
      <trkpt lat="41.0362230" lon="0.5942630">
        <ele>98.2</ele>
        <time>2020-08-08T13:36:39Z</time>
      </trkpt>
      <trkpt lat="41.0362340" lon="0.5942410">
        <ele>98.5</ele>
        <time>2020-08-08T13:36:41Z</time>
      </trkpt>
      <trkpt lat="41.0362380" lon="0.5942300">
        <ele>98.5</ele>
        <time>2020-08-08T13:36:42Z</time>
      </trkpt>
      <trkpt lat="41.0362430" lon="0.5942200">
        <ele>98.5</ele>
        <time>2020-08-08T13:36:43Z</time>
      </trkpt>
      <trkpt lat="41.0362470" lon="0.5942090">
        <ele>98.5</ele>
        <time>2020-08-08T13:36:44Z</time>
      </trkpt>
      <trkpt lat="41.0362530" lon="0.5941960">
        <ele>98.1</ele>
        <time>2020-08-08T13:36:45Z</time>
      </trkpt>
      <trkpt lat="41.0362570" lon="0.5941840">
        <ele>98.1</ele>
        <time>2020-08-08T13:36:46Z</time>
      </trkpt>
      <trkpt lat="41.0362600" lon="0.5941710">
        <ele>98.1</ele>
        <time>2020-08-08T13:36:47Z</time>
      </trkpt>
      <trkpt lat="41.0362660" lon="0.5941560">
        <ele>98.4</ele>
        <time>2020-08-08T13:36:48Z</time>
      </trkpt>
      <trkpt lat="41.0362720" lon="0.5941420">
        <ele>98.4</ele>
        <time>2020-08-08T13:36:49Z</time>
      </trkpt>
      <trkpt lat="41.0362790" lon="0.5941260">
        <ele>98.4</ele>
        <time>2020-08-08T13:36:50Z</time>
      </trkpt>
      <trkpt lat="41.0362900" lon="0.5941150">
        <ele>97.9</ele>
        <time>2020-08-08T13:36:52Z</time>
      </trkpt>
      <trkpt lat="41.0363010" lon="0.5941130">
        <ele>97.9</ele>
        <time>2020-08-08T13:36:53Z</time>
      </trkpt>
      <trkpt lat="41.0363070" lon="0.5941180">
        <ele>97.9</ele>
        <time>2020-08-08T13:36:55Z</time>
      </trkpt>
      <trkpt lat="41.0363130" lon="0.5941290">
        <ele>96.9</ele>
        <time>2020-08-08T13:36:56Z</time>
      </trkpt>
      <trkpt lat="41.0363190" lon="0.5941420">
        <ele>96.9</ele>
        <time>2020-08-08T13:36:57Z</time>
      </trkpt>
      <trkpt lat="41.0363260" lon="0.5941550">
        <ele>96.9</ele>
        <time>2020-08-08T13:36:58Z</time>
      </trkpt>
      <trkpt lat="41.0363360" lon="0.5941760">
        <ele>96.7</ele>
        <time>2020-08-08T13:37:00Z</time>
      </trkpt>
      <trkpt lat="41.0363410" lon="0.5941850">
        <ele>96.7</ele>
        <time>2020-08-08T13:37:01Z</time>
      </trkpt>
      <trkpt lat="41.0363490" lon="0.5941960">
        <ele>96.0</ele>
        <time>2020-08-08T13:37:03Z</time>
      </trkpt>
      <trkpt lat="41.0363540" lon="0.5942050">
        <ele>96.0</ele>
        <time>2020-08-08T13:37:04Z</time>
      </trkpt>
      <trkpt lat="41.0363570" lon="0.5942110">
        <ele>96.0</ele>
        <time>2020-08-08T13:37:05Z</time>
      </trkpt>
      <trkpt lat="41.0363600" lon="0.5942180">
        <ele>95.9</ele>
        <time>2020-08-08T13:37:06Z</time>
      </trkpt>
      <trkpt lat="41.0363660" lon="0.5942300">
        <ele>95.9</ele>
        <time>2020-08-08T13:37:08Z</time>
      </trkpt>
      <trkpt lat="41.0363700" lon="0.5942380">
        <ele>95.9</ele>
        <time>2020-08-08T13:37:09Z</time>
      </trkpt>
      <trkpt lat="41.0363740" lon="0.5942460">
        <ele>95.9</ele>
        <time>2020-08-08T13:37:10Z</time>
      </trkpt>
      <trkpt lat="41.0363790" lon="0.5942570">
        <ele>95.8</ele>
        <time>2020-08-08T13:37:11Z</time>
      </trkpt>
      <trkpt lat="41.0363820" lon="0.5942680">
        <ele>95.8</ele>
        <time>2020-08-08T13:37:12Z</time>
      </trkpt>
      <trkpt lat="41.0363850" lon="0.5942880">
        <ele>95.8</ele>
        <time>2020-08-08T13:37:14Z</time>
      </trkpt>
      <trkpt lat="41.0363880" lon="0.5943010">
        <ele>95.7</ele>
        <time>2020-08-08T13:37:15Z</time>
      </trkpt>
      <trkpt lat="41.0363890" lon="0.5943120">
        <ele>95.7</ele>
        <time>2020-08-08T13:37:16Z</time>
      </trkpt>
      <trkpt lat="41.0363910" lon="0.5943320">
        <ele>95.6</ele>
        <time>2020-08-08T13:37:17Z</time>
      </trkpt>
      <trkpt lat="41.0363920" lon="0.5943500">
        <ele>95.5</ele>
        <time>2020-08-08T13:37:18Z</time>
      </trkpt>
      <trkpt lat="41.0363960" lon="0.5943710">
        <ele>95.4</ele>
        <time>2020-08-08T13:37:20Z</time>
      </trkpt>
      <trkpt lat="41.0363990" lon="0.5943850">
        <ele>95.4</ele>
        <time>2020-08-08T13:37:21Z</time>
      </trkpt>
      <trkpt lat="41.0364030" lon="0.5944030">
        <ele>94.9</ele>
        <time>2020-08-08T13:37:22Z</time>
      </trkpt>
      <trkpt lat="41.0364040" lon="0.5944230">
        <ele>94.6</ele>
        <time>2020-08-08T13:37:24Z</time>
      </trkpt>
      <trkpt lat="41.0364070" lon="0.5944390">
        <ele>94.3</ele>
        <time>2020-08-08T13:37:26Z</time>
      </trkpt>
      <trkpt lat="41.0364100" lon="0.5944560">
        <ele>93.9</ele>
        <time>2020-08-08T13:37:27Z</time>
      </trkpt>
      <trkpt lat="41.0364140" lon="0.5944690">
        <ele>93.7</ele>
        <time>2020-08-08T13:37:28Z</time>
      </trkpt>
      <trkpt lat="41.0364160" lon="0.5944770">
        <ele>93.5</ele>
        <time>2020-08-08T13:37:29Z</time>
      </trkpt>
      <trkpt lat="41.0364210" lon="0.5944990">
        <ele>93.1</ele>
        <time>2020-08-08T13:37:31Z</time>
      </trkpt>
      <trkpt lat="41.0364240" lon="0.5945110">
        <ele>92.9</ele>
        <time>2020-08-08T13:37:32Z</time>
      </trkpt>
      <trkpt lat="41.0364270" lon="0.5945360">
        <ele>92.4</ele>
        <time>2020-08-08T13:37:33Z</time>
      </trkpt>
      <trkpt lat="41.0364290" lon="0.5945480">
        <ele>92.2</ele>
        <time>2020-08-08T13:37:35Z</time>
      </trkpt>
      <trkpt lat="41.0364310" lon="0.5945590">
        <ele>92.0</ele>
        <time>2020-08-08T13:37:36Z</time>
      </trkpt>
      <trkpt lat="41.0364320" lon="0.5945760">
        <ele>91.7</ele>
        <time>2020-08-08T13:37:37Z</time>
      </trkpt>
      <trkpt lat="41.0364350" lon="0.5945950">
        <ele>91.3</ele>
        <time>2020-08-08T13:37:38Z</time>
      </trkpt>
      <trkpt lat="41.0364400" lon="0.5946050">
        <ele>91.1</ele>
        <time>2020-08-08T13:37:39Z</time>
      </trkpt>
      <trkpt lat="41.0364490" lon="0.5946230">
        <ele>90.7</ele>
        <time>2020-08-08T13:37:41Z</time>
      </trkpt>
      <trkpt lat="41.0364550" lon="0.5946330">
        <ele>90.5</ele>
        <time>2020-08-08T13:37:42Z</time>
      </trkpt>
      <trkpt lat="41.0364610" lon="0.5946430">
        <ele>90.2</ele>
        <time>2020-08-08T13:37:43Z</time>
      </trkpt>
      <trkpt lat="41.0364660" lon="0.5946520">
        <ele>90.1</ele>
        <time>2020-08-08T13:37:44Z</time>
      </trkpt>
      <trkpt lat="41.0364590" lon="0.5946700">
        <ele>89.7</ele>
        <time>2020-08-08T13:37:46Z</time>
      </trkpt>
      <trkpt lat="41.0364500" lon="0.5946950">
        <ele>89.2</ele>
        <time>2020-08-08T13:37:47Z</time>
      </trkpt>
      <trkpt lat="41.0364470" lon="0.5947150">
        <ele>88.9</ele>
        <time>2020-08-08T13:37:49Z</time>
      </trkpt>
      <trkpt lat="41.0364460" lon="0.5947290">
        <ele>88.6</ele>
        <time>2020-08-08T13:37:50Z</time>
      </trkpt>
      <trkpt lat="41.0364460" lon="0.5947540">
        <ele>88.2</ele>
        <time>2020-08-08T13:37:51Z</time>
      </trkpt>
      <trkpt lat="41.0364380" lon="0.5947970">
        <ele>87.5</ele>
        <time>2020-08-08T13:37:53Z</time>
      </trkpt>
      <trkpt lat="41.0364350" lon="0.5948130">
        <ele>87.2</ele>
        <time>2020-08-08T13:37:54Z</time>
      </trkpt>
      <trkpt lat="41.0364250" lon="0.5948370">
        <ele>86.8</ele>
        <time>2020-08-08T13:37:55Z</time>
      </trkpt>
      <trkpt lat="41.0364050" lon="0.5948720">
        <ele>86.1</ele>
        <time>2020-08-08T13:37:57Z</time>
      </trkpt>
      <trkpt lat="41.0363870" lon="0.5948990">
        <ele>85.6</ele>
        <time>2020-08-08T13:37:58Z</time>
      </trkpt>
      <trkpt lat="41.0363760" lon="0.5949170">
        <ele>85.3</ele>
        <time>2020-08-08T13:37:59Z</time>
      </trkpt>
      <trkpt lat="41.0363660" lon="0.5949320">
        <ele>85.0</ele>
        <time>2020-08-08T13:38:00Z</time>
      </trkpt>
      <trkpt lat="41.0363570" lon="0.5949460">
        <ele>84.7</ele>
        <time>2020-08-08T13:38:01Z</time>
      </trkpt>
      <trkpt lat="41.0363510" lon="0.5949570">
        <ele>84.5</ele>
        <time>2020-08-08T13:38:02Z</time>
      </trkpt>
      <trkpt lat="41.0363420" lon="0.5949820">
        <ele>84.2</ele>
        <time>2020-08-08T13:38:04Z</time>
      </trkpt>
      <trkpt lat="41.0363360" lon="0.5950000">
        <ele>83.9</ele>
        <time>2020-08-08T13:38:05Z</time>
      </trkpt>
      <trkpt lat="41.0363330" lon="0.5950180">
        <ele>83.7</ele>
        <time>2020-08-08T13:38:06Z</time>
      </trkpt>
      <trkpt lat="41.0363300" lon="0.5950390">
        <ele>83.4</ele>
        <time>2020-08-08T13:38:08Z</time>
      </trkpt>
      <trkpt lat="41.0363270" lon="0.5950500">
        <ele>83.2</ele>
        <time>2020-08-08T13:38:09Z</time>
      </trkpt>
      <trkpt lat="41.0363250" lon="0.5950630">
        <ele>83.0</ele>
        <time>2020-08-08T13:38:10Z</time>
      </trkpt>
      <trkpt lat="41.0363240" lon="0.5950900">
        <ele>82.7</ele>
        <time>2020-08-08T13:38:12Z</time>
      </trkpt>
      <trkpt lat="41.0363250" lon="0.5951060">
        <ele>82.4</ele>
        <time>2020-08-08T13:38:13Z</time>
      </trkpt>
      <trkpt lat="41.0363260" lon="0.5951220">
        <ele>82.2</ele>
        <time>2020-08-08T13:38:14Z</time>
      </trkpt>
      <trkpt lat="41.0363280" lon="0.5951390">
        <ele>82.0</ele>
        <time>2020-08-08T13:38:15Z</time>
      </trkpt>
      <trkpt lat="41.0363360" lon="0.5951610">
        <ele>81.6</ele>
        <time>2020-08-08T13:38:17Z</time>
      </trkpt>
      <trkpt lat="41.0363420" lon="0.5951790">
        <ele>81.4</ele>
        <time>2020-08-08T13:38:18Z</time>
      </trkpt>
      <trkpt lat="41.0363480" lon="0.5951940">
        <ele>81.1</ele>
        <time>2020-08-08T13:38:19Z</time>
      </trkpt>
      <trkpt lat="41.0363550" lon="0.5952110">
        <ele>80.8</ele>
        <time>2020-08-08T13:38:20Z</time>
      </trkpt>
      <trkpt lat="41.0363610" lon="0.5952290">
        <ele>80.5</ele>
        <time>2020-08-08T13:38:21Z</time>
      </trkpt>
      <trkpt lat="41.0363670" lon="0.5952480">
        <ele>80.2</ele>
        <time>2020-08-08T13:38:22Z</time>
      </trkpt>
      <trkpt lat="41.0363730" lon="0.5952680">
        <ele>79.8</ele>
        <time>2020-08-08T13:38:23Z</time>
      </trkpt>
      <trkpt lat="41.0363770" lon="0.5952890">
        <ele>79.4</ele>
        <time>2020-08-08T13:38:24Z</time>
      </trkpt>
      <trkpt lat="41.0363800" lon="0.5953150">
        <ele>78.9</ele>
        <time>2020-08-08T13:38:26Z</time>
      </trkpt>
      <trkpt lat="41.0363790" lon="0.5953280">
        <ele>78.6</ele>
        <time>2020-08-08T13:38:27Z</time>
      </trkpt>
      <trkpt lat="41.0363760" lon="0.5953410">
        <ele>78.3</ele>
        <time>2020-08-08T13:38:28Z</time>
      </trkpt>
      <trkpt lat="41.0363780" lon="0.5953540">
        <ele>78.0</ele>
        <time>2020-08-08T13:38:30Z</time>
      </trkpt>
      <trkpt lat="41.0363790" lon="0.5953570">
        <ele>78.0</ele>
        <time>2020-08-08T13:38:32Z</time>
      </trkpt>
      <trkpt lat="41.0363920" lon="0.5953550">
        <ele>77.6</ele>
        <time>2020-08-08T13:38:33Z</time>
      </trkpt>
      <trkpt lat="41.0363990" lon="0.5953520">
        <ele>77.4</ele>
        <time>2020-08-08T13:38:34Z</time>
      </trkpt>
      <trkpt lat="41.0364080" lon="0.5953410">
        <ele>77.0</ele>
        <time>2020-08-08T13:38:35Z</time>
      </trkpt>
      <trkpt lat="41.0364130" lon="0.5953310">
        <ele>76.7</ele>
        <time>2020-08-08T13:38:37Z</time>
      </trkpt>
      <trkpt lat="41.0364130" lon="0.5953290">
        <ele>76.7</ele>
        <time>2020-08-08T13:38:38Z</time>
      </trkpt>
      <trkpt lat="41.0364160" lon="0.5953290">
        <ele>76.6</ele>
        <time>2020-08-08T13:38:40Z</time>
      </trkpt>
      <trkpt lat="41.0364180" lon="0.5953260">
        <ele>76.5</ele>
        <time>2020-08-08T13:38:41Z</time>
      </trkpt>
      <trkpt lat="41.0364190" lon="0.5953240">
        <ele>76.4</ele>
        <time>2020-08-08T13:38:42Z</time>
      </trkpt>
      <trkpt lat="41.0364160" lon="0.5953200">
        <ele>76.3</ele>
        <time>2020-08-08T13:38:44Z</time>
      </trkpt>
      <trkpt lat="41.0364120" lon="0.5953180">
        <ele>76.2</ele>
        <time>2020-08-08T13:38:45Z</time>
      </trkpt>
      <trkpt lat="41.0364070" lon="0.5953180">
        <ele>76.0</ele>
        <time>2020-08-08T13:38:46Z</time>
      </trkpt>
      <trkpt lat="41.0364020" lon="0.5953180">
        <ele>75.9</ele>
        <time>2020-08-08T13:38:47Z</time>
      </trkpt>
      <trkpt lat="41.0363940" lon="0.5953190">
        <ele>75.6</ele>
        <time>2020-08-08T13:38:49Z</time>
      </trkpt>
      <trkpt lat="41.0363850" lon="0.5953190">
        <ele>75.3</ele>
        <time>2020-08-08T13:38:50Z</time>
      </trkpt>
      <trkpt lat="41.0363680" lon="0.5953220">
        <ele>74.8</ele>
        <time>2020-08-08T13:38:52Z</time>
      </trkpt>
      <trkpt lat="41.0363610" lon="0.5953230">
        <ele>74.6</ele>
        <time>2020-08-08T13:38:53Z</time>
      </trkpt>
      <trkpt lat="41.0363540" lon="0.5953240">
        <ele>74.4</ele>
        <time>2020-08-08T13:38:54Z</time>
      </trkpt>
      <trkpt lat="41.0363470" lon="0.5953250">
        <ele>74.1</ele>
        <time>2020-08-08T13:38:55Z</time>
      </trkpt>
      <trkpt lat="41.0363140" lon="0.5953350">
        <ele>73.1</ele>
        <time>2020-08-08T13:38:57Z</time>
      </trkpt>
      <trkpt lat="41.0363060" lon="0.5953380">
        <ele>72.8</ele>
        <time>2020-08-08T13:38:58Z</time>
      </trkpt>
      <trkpt lat="41.0362940" lon="0.5953410">
        <ele>72.4</ele>
        <time>2020-08-08T13:38:59Z</time>
      </trkpt>
      <trkpt lat="41.0362790" lon="0.5953460">
        <ele>72.0</ele>
        <time>2020-08-08T13:39:01Z</time>
      </trkpt>
      <trkpt lat="41.0362680" lon="0.5953520">
        <ele>71.6</ele>
        <time>2020-08-08T13:39:02Z</time>
      </trkpt>
      <trkpt lat="41.0362530" lon="0.5953600">
        <ele>71.1</ele>
        <time>2020-08-08T13:39:03Z</time>
      </trkpt>
      <trkpt lat="41.0362200" lon="0.5953760">
        <ele>70.1</ele>
        <time>2020-08-08T13:39:05Z</time>
      </trkpt>
      <trkpt lat="41.0362120" lon="0.5953790">
        <ele>69.8</ele>
        <time>2020-08-08T13:39:06Z</time>
      </trkpt>
      <trkpt lat="41.0361950" lon="0.5953850">
        <ele>69.3</ele>
        <time>2020-08-08T13:39:07Z</time>
      </trkpt>
      <trkpt lat="41.0361730" lon="0.5953960">
        <ele>68.7</ele>
        <time>2020-08-08T13:39:09Z</time>
      </trkpt>
      <trkpt lat="41.0361560" lon="0.5954040">
        <ele>68.2</ele>
        <time>2020-08-08T13:39:10Z</time>
      </trkpt>
      <trkpt lat="41.0361400" lon="0.5954100">
        <ele>67.7</ele>
        <time>2020-08-08T13:39:12Z</time>
      </trkpt>
      <trkpt lat="41.0361290" lon="0.5954140">
        <ele>67.4</ele>
        <time>2020-08-08T13:39:13Z</time>
      </trkpt>
      <trkpt lat="41.0361150" lon="0.5954200">
        <ele>67.0</ele>
        <time>2020-08-08T13:39:14Z</time>
      </trkpt>
      <trkpt lat="41.0361010" lon="0.5954270">
        <ele>66.6</ele>
        <time>2020-08-08T13:39:15Z</time>
      </trkpt>
      <trkpt lat="41.0360890" lon="0.5954330">
        <ele>66.2</ele>
        <time>2020-08-08T13:39:16Z</time>
      </trkpt>
      <trkpt lat="41.0360780" lon="0.5954400">
        <ele>65.9</ele>
        <time>2020-08-08T13:39:17Z</time>
      </trkpt>
      <trkpt lat="41.0360680" lon="0.5954470">
        <ele>65.6</ele>
        <time>2020-08-08T13:39:18Z</time>
      </trkpt>
      <trkpt lat="41.0360530" lon="0.5954600">
        <ele>65.1</ele>
        <time>2020-08-08T13:39:20Z</time>
      </trkpt>
      <trkpt lat="41.0360380" lon="0.5954760">
        <ele>64.5</ele>
        <time>2020-08-08T13:39:21Z</time>
      </trkpt>
      <trkpt lat="41.0360220" lon="0.5954980">
        <ele>63.8</ele>
        <time>2020-08-08T13:39:23Z</time>
      </trkpt>
      <trkpt lat="41.0360170" lon="0.5955120">
        <ele>63.5</ele>
        <time>2020-08-08T13:39:24Z</time>
      </trkpt>
      <trkpt lat="41.0360110" lon="0.5955260">
        <ele>63.1</ele>
        <time>2020-08-08T13:39:25Z</time>
      </trkpt>
      <trkpt lat="41.0360080" lon="0.5955380">
        <ele>62.8</ele>
        <time>2020-08-08T13:39:26Z</time>
      </trkpt>
      <trkpt lat="41.0360010" lon="0.5955630">
        <ele>62.2</ele>
        <time>2020-08-08T13:39:28Z</time>
      </trkpt>
      <trkpt lat="41.0359960" lon="0.5955810">
        <ele>61.8</ele>
        <time>2020-08-08T13:39:29Z</time>
      </trkpt>
      <trkpt lat="41.0359870" lon="0.5956030">
        <ele>61.2</ele>
        <time>2020-08-08T13:39:31Z</time>
      </trkpt>
      <trkpt lat="41.0359790" lon="0.5956150">
        <ele>60.9</ele>
        <time>2020-08-08T13:39:32Z</time>
      </trkpt>
      <trkpt lat="41.0359750" lon="0.5956150">
        <ele>60.9</ele>
        <time>2020-08-08T13:39:33Z</time>
      </trkpt>
      <trkpt lat="41.0359720" lon="0.5956180">
        <ele>60.9</ele>
        <time>2020-08-08T13:39:34Z</time>
      </trkpt>
      <trkpt lat="41.0359680" lon="0.5956220">
        <ele>60.9</ele>
        <time>2020-08-08T13:39:36Z</time>
      </trkpt>
      <trkpt lat="41.0359670" lon="0.5956230">
        <ele>60.9</ele>
        <time>2020-08-08T13:39:37Z</time>
      </trkpt>
      <trkpt lat="41.0359630" lon="0.5956180">
        <ele>60.9</ele>
        <time>2020-08-08T13:39:39Z</time>
      </trkpt>
      <trkpt lat="41.0359610" lon="0.5956160">
        <ele>60.9</ele>
        <time>2020-08-08T13:39:40Z</time>
      </trkpt>
      <trkpt lat="41.0359580" lon="0.5956150">
        <ele>60.9</ele>
        <time>2020-08-08T13:39:41Z</time>
      </trkpt>
      <trkpt lat="41.0359540" lon="0.5956140">
        <ele>61.0</ele>
        <time>2020-08-08T13:39:43Z</time>
      </trkpt>
      <trkpt lat="41.0359520" lon="0.5956130">
        <ele>61.0</ele>
        <time>2020-08-08T13:39:44Z</time>
      </trkpt>
      <trkpt lat="41.0359510" lon="0.5956130">
        <ele>61.0</ele>
        <time>2020-08-08T13:39:45Z</time>
      </trkpt>
      <trkpt lat="41.0359520" lon="0.5956130">
        <ele>61.0</ele>
        <time>2020-08-08T13:39:46Z</time>
      </trkpt>
      <trkpt lat="41.0359560" lon="0.5956130">
        <ele>61.0</ele>
        <time>2020-08-08T13:39:48Z</time>
      </trkpt>
      <trkpt lat="41.0360040" lon="0.5956000">
        <ele>61.1</ele>
        <time>2020-08-08T13:41:57Z</time>
      </trkpt>
      <trkpt lat="41.0360040" lon="0.5956010">
        <ele>61.1</ele>
        <time>2020-08-08T13:41:59Z</time>
      </trkpt>
      <trkpt lat="41.0360050" lon="0.5956020">
        <ele>61.1</ele>
        <time>2020-08-08T13:42:00Z</time>
      </trkpt>
      <trkpt lat="41.0360060" lon="0.5956030">
        <ele>61.1</ele>
        <time>2020-08-08T13:42:02Z</time>
      </trkpt>
      <trkpt lat="41.0360100" lon="0.5956020">
        <ele>61.1</ele>
        <time>2020-08-08T13:42:04Z</time>
      </trkpt>
      <trkpt lat="41.0360110" lon="0.5956010">
        <ele>61.1</ele>
        <time>2020-08-08T13:42:06Z</time>
      </trkpt>
      <trkpt lat="41.0360110" lon="0.5956010">
        <ele>61.1</ele>
        <time>2020-08-08T13:42:08Z</time>
      </trkpt>
      <trkpt lat="41.0360100" lon="0.5956010">
        <ele>61.1</ele>
        <time>2020-08-08T13:42:09Z</time>
      </trkpt>
      <trkpt lat="41.0360100" lon="0.5956010">
        <ele>61.1</ele>
        <time>2020-08-08T13:42:10Z</time>
      </trkpt>
      <trkpt lat="41.0360100" lon="0.5956010">
        <ele>61.1</ele>
        <time>2020-08-08T13:42:12Z</time>
      </trkpt>
      <trkpt lat="41.0360110" lon="0.5956010">
        <ele>61.1</ele>
        <time>2020-08-08T13:42:13Z</time>
      </trkpt>
      <trkpt lat="41.0360110" lon="0.5956010">
        <ele>61.1</ele>
        <time>2020-08-08T13:42:14Z</time>
      </trkpt>
      <trkpt lat="41.0360130" lon="0.5956010">
        <ele>61.1</ele>
        <time>2020-08-08T13:42:15Z</time>
      </trkpt>
      <trkpt lat="41.0360160" lon="0.5956000">
        <ele>61.1</ele>
        <time>2020-08-08T13:42:16Z</time>
      </trkpt>
      <trkpt lat="41.0360240" lon="0.5955950">
        <ele>61.1</ele>
        <time>2020-08-08T13:42:18Z</time>
      </trkpt>
      <trkpt lat="41.0360330" lon="0.5955940">
        <ele>61.1</ele>
        <time>2020-08-08T13:42:20Z</time>
      </trkpt>
      <trkpt lat="41.0360330" lon="0.5955920">
        <ele>61.1</ele>
        <time>2020-08-08T13:42:21Z</time>
      </trkpt>
      <trkpt lat="41.0360310" lon="0.5955860">
        <ele>61.1</ele>
        <time>2020-08-08T13:42:23Z</time>
      </trkpt>
      <trkpt lat="41.0360320" lon="0.5955840">
        <ele>61.1</ele>
        <time>2020-08-08T13:42:24Z</time>
      </trkpt>
      <trkpt lat="41.0360320" lon="0.5955840">
        <ele>61.1</ele>
        <time>2020-08-08T13:42:25Z</time>
      </trkpt>
      <trkpt lat="41.0360330" lon="0.5955840">
        <ele>61.1</ele>
        <time>2020-08-08T13:42:26Z</time>
      </trkpt>
      <trkpt lat="41.0360340" lon="0.5955840">
        <ele>61.1</ele>
        <time>2020-08-08T13:42:27Z</time>
      </trkpt>
      <trkpt lat="41.0360370" lon="0.5955860">
        <ele>61.1</ele>
        <time>2020-08-08T13:42:29Z</time>
      </trkpt>
      <trkpt lat="41.0360390" lon="0.5955860">
        <ele>61.1</ele>
        <time>2020-08-08T13:42:30Z</time>
      </trkpt>
      <trkpt lat="41.0361070" lon="0.5956280">
        <ele>61.2</ele>
        <time>2020-08-08T13:43:18Z</time>
      </trkpt>
      <trkpt lat="41.0361110" lon="0.5956320">
        <ele>61.2</ele>
        <time>2020-08-08T13:43:19Z</time>
      </trkpt>
      <trkpt lat="41.0361140" lon="0.5956290">
        <ele>61.2</ele>
        <time>2020-08-08T13:43:20Z</time>
      </trkpt>
      <trkpt lat="41.0361200" lon="0.5956300">
        <ele>61.2</ele>
        <time>2020-08-08T13:43:21Z</time>
      </trkpt>
      <trkpt lat="41.0361310" lon="0.5956310">
        <ele>61.2</ele>
        <time>2020-08-08T13:43:22Z</time>
      </trkpt>
      <trkpt lat="41.0361520" lon="0.5956350">
        <ele>61.2</ele>
        <time>2020-08-08T13:43:24Z</time>
      </trkpt>
      <trkpt lat="41.0361600" lon="0.5956400">
        <ele>61.2</ele>
        <time>2020-08-08T13:43:25Z</time>
      </trkpt>
      <trkpt lat="41.0361630" lon="0.5956570">
        <ele>61.1</ele>
        <time>2020-08-08T13:43:27Z</time>
      </trkpt>
      <trkpt lat="41.0361620" lon="0.5956630">
        <ele>61.1</ele>
        <time>2020-08-08T13:43:28Z</time>
      </trkpt>
      <trkpt lat="41.0361610" lon="0.5956650">
        <ele>61.1</ele>
        <time>2020-08-08T13:43:29Z</time>
      </trkpt>
      <trkpt lat="41.0361640" lon="0.5956670">
        <ele>61.1</ele>
        <time>2020-08-08T13:43:31Z</time>
      </trkpt>
      <trkpt lat="41.0361660" lon="0.5956680">
        <ele>61.1</ele>
        <time>2020-08-08T13:43:32Z</time>
      </trkpt>
      <trkpt lat="41.0361690" lon="0.5956690">
        <ele>61.1</ele>
        <time>2020-08-08T13:43:33Z</time>
      </trkpt>
      <trkpt lat="41.0361720" lon="0.5956710">
        <ele>61.1</ele>
        <time>2020-08-08T13:43:35Z</time>
      </trkpt>
      <trkpt lat="41.0361720" lon="0.5956720">
        <ele>61.1</ele>
        <time>2020-08-08T13:43:37Z</time>
      </trkpt>
      <trkpt lat="41.0361720" lon="0.5956720">
        <ele>61.1</ele>
        <time>2020-08-08T13:43:38Z</time>
      </trkpt>
      <trkpt lat="41.0361720" lon="0.5956720">
        <ele>61.1</ele>
        <time>2020-08-08T13:43:39Z</time>
      </trkpt>
      <trkpt lat="41.0361390" lon="0.5956260">
        <ele>61.1</ele>
        <time>2020-08-08T13:46:01Z</time>
      </trkpt>
      <trkpt lat="41.0361430" lon="0.5956090">
        <ele>61.1</ele>
        <time>2020-08-08T13:46:02Z</time>
      </trkpt>
      <trkpt lat="41.0361570" lon="0.5956010">
        <ele>61.1</ele>
        <time>2020-08-08T13:46:04Z</time>
      </trkpt>
      <trkpt lat="41.0361600" lon="0.5955980">
        <ele>61.1</ele>
        <time>2020-08-08T13:46:05Z</time>
      </trkpt>
      <trkpt lat="41.0361620" lon="0.5955990">
        <ele>61.1</ele>
        <time>2020-08-08T13:46:06Z</time>
      </trkpt>
      <trkpt lat="41.0361600" lon="0.5955950">
        <ele>61.1</ele>
        <time>2020-08-08T13:46:07Z</time>
      </trkpt>
      <trkpt lat="41.0361560" lon="0.5955870">
        <ele>61.1</ele>
        <time>2020-08-08T13:46:08Z</time>
      </trkpt>
      <trkpt lat="41.0361470" lon="0.5955720">
        <ele>61.1</ele>
        <time>2020-08-08T13:46:10Z</time>
      </trkpt>
      <trkpt lat="41.0361440" lon="0.5955690">
        <ele>61.1</ele>
        <time>2020-08-08T13:46:11Z</time>
      </trkpt>
      <trkpt lat="41.0361440" lon="0.5955650">
        <ele>61.1</ele>
        <time>2020-08-08T13:46:12Z</time>
      </trkpt>
      <trkpt lat="41.0361440" lon="0.5955610">
        <ele>61.1</ele>
        <time>2020-08-08T13:46:13Z</time>
      </trkpt>
      <trkpt lat="41.0361460" lon="0.5955590">
        <ele>61.1</ele>
        <time>2020-08-08T13:46:15Z</time>
      </trkpt>
      <trkpt lat="41.0361460" lon="0.5955590">
        <ele>61.1</ele>
        <time>2020-08-08T13:46:16Z</time>
      </trkpt>
      <trkpt lat="41.0361460" lon="0.5955600">
        <ele>61.0</ele>
        <time>2020-08-08T13:46:17Z</time>
      </trkpt>
      <trkpt lat="41.0361460" lon="0.5955610">
        <ele>61.0</ele>
        <time>2020-08-08T13:46:18Z</time>
      </trkpt>
      <trkpt lat="41.0361450" lon="0.5955620">
        <ele>61.0</ele>
        <time>2020-08-08T13:46:20Z</time>
      </trkpt>
      <trkpt lat="41.0361450" lon="0.5955620">
        <ele>61.0</ele>
        <time>2020-08-08T13:46:21Z</time>
      </trkpt>
      <trkpt lat="41.0361450" lon="0.5955620">
        <ele>61.0</ele>
        <time>2020-08-08T13:46:23Z</time>
      </trkpt>
      <trkpt lat="41.0361540" lon="0.5956040">
        <ele>61.0</ele>
        <time>2020-08-08T13:46:27Z</time>
      </trkpt>
      <trkpt lat="41.0361670" lon="0.5956040">
        <ele>61.0</ele>
        <time>2020-08-08T13:46:28Z</time>
      </trkpt>
      <trkpt lat="41.0361820" lon="0.5956050">
        <ele>61.0</ele>
        <time>2020-08-08T13:46:29Z</time>
      </trkpt>
      <trkpt lat="41.0362090" lon="0.5956210">
        <ele>61.0</ele>
        <time>2020-08-08T13:46:30Z</time>
      </trkpt>
      <trkpt lat="41.0362160" lon="0.5956280">
        <ele>61.0</ele>
        <time>2020-08-08T13:46:31Z</time>
      </trkpt>
      <trkpt lat="41.0362450" lon="0.5956470">
        <ele>60.9</ele>
        <time>2020-08-08T13:46:33Z</time>
      </trkpt>
      <trkpt lat="41.0362600" lon="0.5956530">
        <ele>60.9</ele>
        <time>2020-08-08T13:46:34Z</time>
      </trkpt>
      <trkpt lat="41.0362810" lon="0.5956590">
        <ele>60.9</ele>
        <time>2020-08-08T13:46:36Z</time>
      </trkpt>
      <trkpt lat="41.0362980" lon="0.5956610">
        <ele>60.9</ele>
        <time>2020-08-08T13:46:37Z</time>
      </trkpt>
      <trkpt lat="41.0363200" lon="0.5956620">
        <ele>60.8</ele>
        <time>2020-08-08T13:46:39Z</time>
      </trkpt>
      <trkpt lat="41.0363360" lon="0.5956690">
        <ele>60.8</ele>
        <time>2020-08-08T13:46:40Z</time>
      </trkpt>
      <trkpt lat="41.0363340" lon="0.5956780">
        <ele>60.8</ele>
        <time>2020-08-08T13:46:41Z</time>
      </trkpt>
      <trkpt lat="41.0363280" lon="0.5956860">
        <ele>57.5</ele>
        <time>2020-08-08T13:46:42Z</time>
      </trkpt>
      <trkpt lat="41.0363210" lon="0.5956990">
        <ele>57.5</ele>
        <time>2020-08-08T13:46:44Z</time>
      </trkpt>
      <trkpt lat="41.0363200" lon="0.5957200">
        <ele>57.5</ele>
        <time>2020-08-08T13:46:45Z</time>
      </trkpt>
      <trkpt lat="41.0363180" lon="0.5957330">
        <ele>57.5</ele>
        <time>2020-08-08T13:46:46Z</time>
      </trkpt>
      <trkpt lat="41.0363250" lon="0.5957440">
        <ele>57.5</ele>
        <time>2020-08-08T13:46:48Z</time>
      </trkpt>
      <trkpt lat="41.0363310" lon="0.5957490">
        <ele>57.5</ele>
        <time>2020-08-08T13:46:49Z</time>
      </trkpt>
      <trkpt lat="41.0363320" lon="0.5957550">
        <ele>57.5</ele>
        <time>2020-08-08T13:46:50Z</time>
      </trkpt>
      <trkpt lat="41.0363320" lon="0.5957590">
        <ele>57.5</ele>
        <time>2020-08-08T13:46:51Z</time>
      </trkpt>
      <trkpt lat="41.0363330" lon="0.5957660">
        <ele>57.5</ele>
        <time>2020-08-08T13:46:53Z</time>
      </trkpt>
      <trkpt lat="41.0363370" lon="0.5957700">
        <ele>57.5</ele>
        <time>2020-08-08T13:46:55Z</time>
      </trkpt>
      <trkpt lat="41.0363380" lon="0.5957760">
        <ele>55.7</ele>
        <time>2020-08-08T13:46:56Z</time>
      </trkpt>
      <trkpt lat="41.0363340" lon="0.5957930">
        <ele>55.4</ele>
        <time>2020-08-08T13:46:57Z</time>
      </trkpt>
      <trkpt lat="41.0363300" lon="0.5958050">
        <ele>55.2</ele>
        <time>2020-08-08T13:46:58Z</time>
      </trkpt>
      <trkpt lat="41.0363300" lon="0.5958290">
        <ele>54.9</ele>
        <time>2020-08-08T13:47:00Z</time>
      </trkpt>
      <trkpt lat="41.0363190" lon="0.5958230">
        <ele>54.7</ele>
        <time>2020-08-08T13:47:01Z</time>
      </trkpt>
      <trkpt lat="41.0363080" lon="0.5958130">
        <ele>54.4</ele>
        <time>2020-08-08T13:47:02Z</time>
      </trkpt>
      <trkpt lat="41.0362980" lon="0.5958040">
        <ele>54.2</ele>
        <time>2020-08-08T13:47:09Z</time>
      </trkpt>
      <trkpt lat="41.0362870" lon="0.5957940">
        <ele>54.0</ele>
        <time>2020-08-08T13:47:13Z</time>
      </trkpt>
      <trkpt lat="41.0362770" lon="0.5957840">
        <ele>53.7</ele>
        <time>2020-08-08T13:47:13Z</time>
      </trkpt>
      <trkpt lat="41.0362570" lon="0.5957950">
        <ele>53.3</ele>
        <time>2020-08-08T13:47:14Z</time>
      </trkpt>
      <trkpt lat="41.0362390" lon="0.5958070">
        <ele>53.0</ele>
        <time>2020-08-08T13:47:15Z</time>
      </trkpt>
      <trkpt lat="41.0362070" lon="0.5958240">
        <ele>52.3</ele>
        <time>2020-08-08T13:47:17Z</time>
      </trkpt>
      <trkpt lat="41.0361820" lon="0.5958420">
        <ele>51.0</ele>
        <time>2020-08-08T13:47:18Z</time>
      </trkpt>
      <trkpt lat="41.0361740" lon="0.5958500">
        <ele>50.2</ele>
        <time>2020-08-08T13:47:19Z</time>
      </trkpt>
      <trkpt lat="41.0361560" lon="0.5958880">
        <ele>47.9</ele>
        <time>2020-08-08T13:47:21Z</time>
      </trkpt>
      <trkpt lat="41.0361420" lon="0.5958950">
        <ele>47.7</ele>
        <time>2020-08-08T13:47:22Z</time>
      </trkpt>
      <trkpt lat="41.0361390" lon="0.5958780">
        <ele>47.5</ele>
        <time>2020-08-08T13:47:23Z</time>
      </trkpt>
      <trkpt lat="41.0361350" lon="0.5958750">
        <ele>47.5</ele>
        <time>2020-08-08T13:47:25Z</time>
      </trkpt>
      <trkpt lat="41.0361280" lon="0.5958840">
        <ele>47.3</ele>
        <time>2020-08-08T13:47:26Z</time>
      </trkpt>
      <trkpt lat="41.0361320" lon="0.5958970">
        <ele>47.2</ele>
        <time>2020-08-08T13:47:27Z</time>
      </trkpt>
      <trkpt lat="41.0361380" lon="0.5959250">
        <ele>46.8</ele>
        <time>2020-08-08T13:47:29Z</time>
      </trkpt>
      <trkpt lat="41.0361250" lon="0.5959320">
        <ele>46.6</ele>
        <time>2020-08-08T13:47:30Z</time>
      </trkpt>
      <trkpt lat="41.0361030" lon="0.5959570">
        <ele>44.9</ele>
        <time>2020-08-08T13:47:32Z</time>
      </trkpt>
      <trkpt lat="41.0360900" lon="0.5959770">
        <ele>43.4</ele>
        <time>2020-08-08T13:47:33Z</time>
      </trkpt>
      <trkpt lat="41.0360720" lon="0.5959880">
        <ele>42.8</ele>
        <time>2020-08-08T13:47:35Z</time>
      </trkpt>
      <trkpt lat="41.0360580" lon="0.5960090">
        <ele>43.1</ele>
        <time>2020-08-08T13:47:36Z</time>
      </trkpt>
      <trkpt lat="41.0360380" lon="0.5960370">
        <ele>43.6</ele>
        <time>2020-08-08T13:47:38Z</time>
      </trkpt>
      <trkpt lat="41.0360100" lon="0.5960630">
        <ele>44.1</ele>
        <time>2020-08-08T13:47:40Z</time>
      </trkpt>
      <trkpt lat="41.0360020" lon="0.5960690">
        <ele>44.2</ele>
        <time>2020-08-08T13:47:41Z</time>
      </trkpt>
      <trkpt lat="41.0359890" lon="0.5960740">
        <ele>44.4</ele>
        <time>2020-08-08T13:47:42Z</time>
      </trkpt>
      <trkpt lat="41.0359730" lon="0.5960770">
        <ele>44.6</ele>
        <time>2020-08-08T13:47:44Z</time>
      </trkpt>
      <trkpt lat="41.0359640" lon="0.5960830">
        <ele>44.7</ele>
        <time>2020-08-08T13:47:46Z</time>
      </trkpt>
      <trkpt lat="41.0359600" lon="0.5960890">
        <ele>44.8</ele>
        <time>2020-08-08T13:47:47Z</time>
      </trkpt>
      <trkpt lat="41.0359510" lon="0.5961000">
        <ele>44.9</ele>
        <time>2020-08-08T13:47:49Z</time>
      </trkpt>
      <trkpt lat="41.0359470" lon="0.5961090">
        <ele>45.0</ele>
        <time>2020-08-08T13:47:51Z</time>
      </trkpt>
      <trkpt lat="41.0359450" lon="0.5961130">
        <ele>45.1</ele>
        <time>2020-08-08T13:47:52Z</time>
      </trkpt>
      <trkpt lat="41.0359420" lon="0.5961180">
        <ele>45.1</ele>
        <time>2020-08-08T13:47:54Z</time>
      </trkpt>
      <trkpt lat="41.0359410" lon="0.5961200">
        <ele>45.1</ele>
        <time>2020-08-08T13:47:55Z</time>
      </trkpt>
      <trkpt lat="41.0359390" lon="0.5961230">
        <ele>45.2</ele>
        <time>2020-08-08T13:47:56Z</time>
      </trkpt>
      <trkpt lat="41.0359350" lon="0.5961280">
        <ele>45.2</ele>
        <time>2020-08-08T13:47:57Z</time>
      </trkpt>
      <trkpt lat="41.0359320" lon="0.5961310">
        <ele>45.3</ele>
        <time>2020-08-08T13:47:58Z</time>
      </trkpt>
      <trkpt lat="41.0359230" lon="0.5961340">
        <ele>45.4</ele>
        <time>2020-08-08T13:48:00Z</time>
      </trkpt>
      <trkpt lat="41.0359130" lon="0.5961370">
        <ele>45.5</ele>
        <time>2020-08-08T13:48:01Z</time>
      </trkpt>
      <trkpt lat="41.0359070" lon="0.5961420">
        <ele>45.5</ele>
        <time>2020-08-08T13:48:03Z</time>
      </trkpt>
      <trkpt lat="41.0359000" lon="0.5961490">
        <ele>45.6</ele>
        <time>2020-08-08T13:48:05Z</time>
      </trkpt>
      <trkpt lat="41.0358930" lon="0.5961580">
        <ele>45.7</ele>
        <time>2020-08-08T13:48:07Z</time>
      </trkpt>
      <trkpt lat="41.0358900" lon="0.5961620">
        <ele>45.8</ele>
        <time>2020-08-08T13:48:09Z</time>
      </trkpt>
      <trkpt lat="41.0358830" lon="0.5961680">
        <ele>45.8</ele>
        <time>2020-08-08T13:48:10Z</time>
      </trkpt>
      <trkpt lat="41.0358720" lon="0.5961740">
        <ele>45.9</ele>
        <time>2020-08-08T13:48:11Z</time>
      </trkpt>
      <trkpt lat="41.0358600" lon="0.5961810">
        <ele>46.0</ele>
        <time>2020-08-08T13:48:12Z</time>
      </trkpt>
      <trkpt lat="41.0358540" lon="0.5961840">
        <ele>46.1</ele>
        <time>2020-08-08T13:48:13Z</time>
      </trkpt>
      <trkpt lat="41.0358470" lon="0.5961880">
        <ele>46.2</ele>
        <time>2020-08-08T13:48:14Z</time>
      </trkpt>
      <trkpt lat="41.0358410" lon="0.5961900">
        <ele>43.8</ele>
        <time>2020-08-08T13:48:15Z</time>
      </trkpt>
      <trkpt lat="41.0358310" lon="0.5962040">
        <ele>43.0</ele>
        <time>2020-08-08T13:48:17Z</time>
      </trkpt>
      <trkpt lat="41.0358310" lon="0.5962170">
        <ele>42.5</ele>
        <time>2020-08-08T13:48:18Z</time>
      </trkpt>
      <trkpt lat="41.0358320" lon="0.5962290">
        <ele>42.0</ele>
        <time>2020-08-08T13:48:19Z</time>
      </trkpt>
      <trkpt lat="41.0358320" lon="0.5962410">
        <ele>41.5</ele>
        <time>2020-08-08T13:49:03Z</time>
      </trkpt>
      <trkpt lat="41.0358330" lon="0.5962530">
        <ele>41.0</ele>
        <time>2020-08-08T13:49:04Z</time>
      </trkpt>
      <trkpt lat="41.0358330" lon="0.5962660">
        <ele>40.5</ele>
        <time>2020-08-08T13:49:05Z</time>
      </trkpt>
      <trkpt lat="41.0358340" lon="0.5962780">
        <ele>40.0</ele>
        <time>2020-08-08T13:49:06Z</time>
      </trkpt>
      <trkpt lat="41.0358350" lon="0.5962900">
        <ele>39.5</ele>
        <time>2020-08-08T13:49:08Z</time>
      </trkpt>
      <trkpt lat="41.0358350" lon="0.5963030">
        <ele>39.0</ele>
        <time>2020-08-08T13:49:10Z</time>
      </trkpt>
      <trkpt lat="41.0358360" lon="0.5963150">
        <ele>38.5</ele>
        <time>2020-08-08T13:49:11Z</time>
      </trkpt>
      <trkpt lat="41.0358360" lon="0.5963270">
        <ele>38.0</ele>
        <time>2020-08-08T13:49:12Z</time>
      </trkpt>
      <trkpt lat="41.0358370" lon="0.5963390">
        <ele>37.5</ele>
        <time>2020-08-08T13:49:14Z</time>
      </trkpt>
      <trkpt lat="41.0358370" lon="0.5963520">
        <ele>37.0</ele>
        <time>2020-08-08T13:49:15Z</time>
      </trkpt>
      <trkpt lat="41.0358380" lon="0.5963640">
        <ele>36.5</ele>
        <time>2020-08-08T13:49:16Z</time>
      </trkpt>
      <trkpt lat="41.0358310" lon="0.5964100">
        <ele>34.6</ele>
        <time>2020-08-08T13:49:17Z</time>
      </trkpt>
      <trkpt lat="41.0358310" lon="0.5964210">
        <ele>34.2</ele>
        <time>2020-08-08T13:49:18Z</time>
      </trkpt>
      <trkpt lat="41.0358300" lon="0.5964490">
        <ele>34.2</ele>
        <time>2020-08-08T13:49:20Z</time>
      </trkpt>
      <trkpt lat="41.0358310" lon="0.5964660">
        <ele>34.2</ele>
        <time>2020-08-08T13:49:21Z</time>
      </trkpt>
      <trkpt lat="41.0358380" lon="0.5964830">
        <ele>34.2</ele>
        <time>2020-08-08T13:49:22Z</time>
      </trkpt>
      <trkpt lat="41.0358420" lon="0.5964810">
        <ele>34.2</ele>
        <time>2020-08-08T13:49:23Z</time>
      </trkpt>
      <trkpt lat="41.0358470" lon="0.5964780">
        <ele>34.2</ele>
        <time>2020-08-08T13:49:25Z</time>
      </trkpt>
      <trkpt lat="41.0358510" lon="0.5964760">
        <ele>34.2</ele>
        <time>2020-08-08T13:49:27Z</time>
      </trkpt>
      <trkpt lat="41.0358550" lon="0.5964740">
        <ele>34.2</ele>
        <time>2020-08-08T13:49:28Z</time>
      </trkpt>
      <trkpt lat="41.0358590" lon="0.5964720">
        <ele>34.2</ele>
        <time>2020-08-08T13:49:29Z</time>
      </trkpt>
      <trkpt lat="41.0358630" lon="0.5964700">
        <ele>34.2</ele>
        <time>2020-08-08T13:49:30Z</time>
      </trkpt>
      <trkpt lat="41.0358680" lon="0.5964670">
        <ele>34.2</ele>
        <time>2020-08-08T13:49:32Z</time>
      </trkpt>
      <trkpt lat="41.0358720" lon="0.5964650">
        <ele>34.2</ele>
        <time>2020-08-08T13:50:11Z</time>
      </trkpt>
      <trkpt lat="41.0358760" lon="0.5964630">
        <ele>34.2</ele>
        <time>2020-08-08T13:50:12Z</time>
      </trkpt>
      <trkpt lat="41.0358800" lon="0.5964610">
        <ele>34.2</ele>
        <time>2020-08-08T13:50:13Z</time>
      </trkpt>
      <trkpt lat="41.0358840" lon="0.5964590">
        <ele>34.2</ele>
        <time>2020-08-08T13:50:15Z</time>
      </trkpt>
      <trkpt lat="41.0358890" lon="0.5964560">
        <ele>34.2</ele>
        <time>2020-08-08T13:50:16Z</time>
      </trkpt>
      <trkpt lat="41.0358930" lon="0.5964540">
        <ele>34.2</ele>
        <time>2020-08-08T13:50:17Z</time>
      </trkpt>
      <trkpt lat="41.0358970" lon="0.5964520">
        <ele>34.2</ele>
        <time>2020-08-08T13:50:18Z</time>
      </trkpt>
      <trkpt lat="41.0358940" lon="0.5964280">
        <ele>34.2</ele>
        <time>2020-08-08T13:50:19Z</time>
      </trkpt>
      <trkpt lat="41.0359000" lon="0.5964010">
        <ele>34.2</ele>
        <time>2020-08-08T13:50:21Z</time>
      </trkpt>
      <trkpt lat="41.0359100" lon="0.5963850">
        <ele>46.2</ele>
        <time>2020-08-08T13:50:22Z</time>
      </trkpt>
      <trkpt lat="41.0359180" lon="0.5963780">
        <ele>46.1</ele>
        <time>2020-08-08T13:50:24Z</time>
      </trkpt>
      <trkpt lat="41.0359250" lon="0.5963700">
        <ele>46.0</ele>
        <time>2020-08-08T13:50:26Z</time>
      </trkpt>
      <trkpt lat="41.0359330" lon="0.5963620">
        <ele>46.0</ele>
        <time>2020-08-08T13:50:27Z</time>
      </trkpt>
      <trkpt lat="41.0359540" lon="0.5963360">
        <ele>45.8</ele>
        <time>2020-08-08T13:50:28Z</time>
      </trkpt>
      <trkpt lat="41.0359610" lon="0.5963240">
        <ele>45.7</ele>
        <time>2020-08-08T13:50:29Z</time>
      </trkpt>
      <trkpt lat="41.0359810" lon="0.5962860">
        <ele>45.4</ele>
        <time>2020-08-08T13:50:30Z</time>
      </trkpt>
      <trkpt lat="41.0359860" lon="0.5962740">
        <ele>45.3</ele>
        <time>2020-08-08T13:50:31Z</time>
      </trkpt>
      <trkpt lat="41.0360120" lon="0.5962360">
        <ele>45.0</ele>
        <time>2020-08-08T13:50:33Z</time>
      </trkpt>
      <trkpt lat="41.0360340" lon="0.5962050">
        <ele>44.7</ele>
        <time>2020-08-08T13:50:34Z</time>
      </trkpt>
      <trkpt lat="41.0360400" lon="0.5961960">
        <ele>44.6</ele>
        <time>2020-08-08T13:50:35Z</time>
      </trkpt>
      <trkpt lat="41.0360680" lon="0.5961770">
        <ele>44.2</ele>
        <time>2020-08-08T13:50:37Z</time>
      </trkpt>
      <trkpt lat="41.0360920" lon="0.5961690">
        <ele>42.6</ele>
        <time>2020-08-08T13:50:38Z</time>
      </trkpt>
      <trkpt lat="41.0361260" lon="0.5961510">
        <ele>42.6</ele>
        <time>2020-08-08T13:50:40Z</time>
      </trkpt>
      <trkpt lat="41.0361440" lon="0.5961510">
        <ele>41.9</ele>
        <time>2020-08-08T13:50:41Z</time>
      </trkpt>
      <trkpt lat="41.0361510" lon="0.5961540">
        <ele>41.7</ele>
        <time>2020-08-08T13:50:42Z</time>
      </trkpt>
      <trkpt lat="41.0361450" lon="0.5961680">
        <ele>41.5</ele>
        <time>2020-08-08T13:50:44Z</time>
      </trkpt>
      <trkpt lat="41.0361370" lon="0.5961680">
        <ele>41.3</ele>
        <time>2020-08-08T13:50:45Z</time>
      </trkpt>
      <trkpt lat="41.0361290" lon="0.5961730">
        <ele>41.1</ele>
        <time>2020-08-08T13:50:46Z</time>
      </trkpt>
      <trkpt lat="41.0361250" lon="0.5961800">
        <ele>40.9</ele>
        <time>2020-08-08T13:50:47Z</time>
      </trkpt>
      <trkpt lat="41.0361230" lon="0.5961940">
        <ele>40.7</ele>
        <time>2020-08-08T13:50:49Z</time>
      </trkpt>
      <trkpt lat="41.0361290" lon="0.5962100">
        <ele>40.4</ele>
        <time>2020-08-08T13:50:50Z</time>
      </trkpt>
      <trkpt lat="41.0361420" lon="0.5962270">
        <ele>40.0</ele>
        <time>2020-08-08T13:50:51Z</time>
      </trkpt>
      <trkpt lat="41.0361540" lon="0.5962450">
        <ele>39.6</ele>
        <time>2020-08-08T13:50:52Z</time>
      </trkpt>
      <trkpt lat="41.0361700" lon="0.5962890">
        <ele>38.8</ele>
        <time>2020-08-08T13:50:54Z</time>
      </trkpt>
      <trkpt lat="41.0361660" lon="0.5963290">
        <ele>38.1</ele>
        <time>2020-08-08T13:50:56Z</time>
      </trkpt>
      <trkpt lat="41.0361590" lon="0.5963470">
        <ele>37.8</ele>
        <time>2020-08-08T13:50:57Z</time>
      </trkpt>
      <trkpt lat="41.0361490" lon="0.5963910">
        <ele>37.0</ele>
        <time>2020-08-08T13:50:59Z</time>
      </trkpt>
      <trkpt lat="41.0361270" lon="0.5964210">
        <ele>36.4</ele>
        <time>2020-08-08T13:51:01Z</time>
      </trkpt>
      <trkpt lat="41.0361210" lon="0.5964260">
        <ele>36.2</ele>
        <time>2020-08-08T13:51:02Z</time>
      </trkpt>
      <trkpt lat="41.0360960" lon="0.5964650">
        <ele>35.4</ele>
        <time>2020-08-08T13:51:04Z</time>
      </trkpt>
      <trkpt lat="41.0360870" lon="0.5964780">
        <ele>35.2</ele>
        <time>2020-08-08T13:51:05Z</time>
      </trkpt>
      <trkpt lat="41.0360780" lon="0.5964930">
        <ele>34.9</ele>
        <time>2020-08-08T13:51:06Z</time>
      </trkpt>
      <trkpt lat="41.0360700" lon="0.5965240">
        <ele>34.4</ele>
        <time>2020-08-08T13:51:08Z</time>
      </trkpt>
      <trkpt lat="41.0360780" lon="0.5965440">
        <ele>34.1</ele>
        <time>2020-08-08T13:51:09Z</time>
      </trkpt>
      <trkpt lat="41.0360840" lon="0.5965510">
        <ele>33.9</ele>
        <time>2020-08-08T13:51:10Z</time>
      </trkpt>
      <trkpt lat="41.0360870" lon="0.5965600">
        <ele>33.8</ele>
        <time>2020-08-08T13:51:11Z</time>
      </trkpt>
      <trkpt lat="41.0360860" lon="0.5965640">
        <ele>33.7</ele>
        <time>2020-08-08T13:51:12Z</time>
      </trkpt>
      <trkpt lat="41.0360900" lon="0.5965830">
        <ele>33.4</ele>
        <time>2020-08-08T13:51:14Z</time>
      </trkpt>
      <trkpt lat="41.0360910" lon="0.5965940">
        <ele>33.3</ele>
        <time>2020-08-08T13:51:15Z</time>
      </trkpt>
      <trkpt lat="41.0360900" lon="0.5966060">
        <ele>33.1</ele>
        <time>2020-08-08T13:51:16Z</time>
      </trkpt>
      <trkpt lat="41.0361020" lon="0.5966310">
        <ele>32.7</ele>
        <time>2020-08-08T13:51:17Z</time>
      </trkpt>
      <trkpt lat="41.0361090" lon="0.5966410">
        <ele>32.5</ele>
        <time>2020-08-08T13:51:19Z</time>
      </trkpt>
      <trkpt lat="41.0361170" lon="0.5966500">
        <ele>32.3</ele>
        <time>2020-08-08T13:51:20Z</time>
      </trkpt>
      <trkpt lat="41.0361340" lon="0.5966800">
        <ele>31.7</ele>
        <time>2020-08-08T13:51:21Z</time>
      </trkpt>
      <trkpt lat="41.0361390" lon="0.5966910">
        <ele>31.5</ele>
        <time>2020-08-08T13:51:22Z</time>
      </trkpt>
      <trkpt lat="41.0361450" lon="0.5967170">
        <ele>31.0</ele>
        <time>2020-08-08T13:51:24Z</time>
      </trkpt>
      <trkpt lat="41.0361500" lon="0.5967340">
        <ele>30.8</ele>
        <time>2020-08-08T13:51:25Z</time>
      </trkpt>
      <trkpt lat="41.0361590" lon="0.5967510">
        <ele>30.4</ele>
        <time>2020-08-08T13:51:27Z</time>
      </trkpt>
      <trkpt lat="41.0361690" lon="0.5967670">
        <ele>30.3</ele>
        <time>2020-08-08T13:51:28Z</time>
      </trkpt>
      <trkpt lat="41.0361900" lon="0.5968110">
        <ele>29.9</ele>
        <time>2020-08-08T13:51:30Z</time>
      </trkpt>
      <trkpt lat="41.0361970" lon="0.5968270">
        <ele>29.6</ele>
        <time>2020-08-08T13:51:31Z</time>
      </trkpt>
      <trkpt lat="41.0362190" lon="0.5968600">
        <ele>28.9</ele>
        <time>2020-08-08T13:51:32Z</time>
      </trkpt>
      <trkpt lat="41.0362250" lon="0.5968680">
        <ele>28.7</ele>
        <time>2020-08-08T13:51:33Z</time>
      </trkpt>
      <trkpt lat="41.0362440" lon="0.5969180">
        <ele>28.7</ele>
        <time>2020-08-08T13:51:35Z</time>
      </trkpt>
      <trkpt lat="41.0362500" lon="0.5969350">
        <ele>28.6</ele>
        <time>2020-08-08T13:51:36Z</time>
      </trkpt>
      <trkpt lat="41.0362560" lon="0.5969510">
        <ele>28.6</ele>
        <time>2020-08-08T13:51:37Z</time>
      </trkpt>
      <trkpt lat="41.0362710" lon="0.5969790">
        <ele>28.4</ele>
        <time>2020-08-08T13:51:39Z</time>
      </trkpt>
      <trkpt lat="41.0362900" lon="0.5970050">
        <ele>28.1</ele>
        <time>2020-08-08T13:51:41Z</time>
      </trkpt>
      <trkpt lat="41.0363040" lon="0.5970170">
        <ele>28.0</ele>
        <time>2020-08-08T13:51:42Z</time>
      </trkpt>
      <trkpt lat="41.0363150" lon="0.5970250">
        <ele>27.8</ele>
        <time>2020-08-08T13:51:43Z</time>
      </trkpt>
      <trkpt lat="41.0363270" lon="0.5970300">
        <ele>27.7</ele>
        <time>2020-08-08T13:51:44Z</time>
      </trkpt>
      <trkpt lat="41.0363420" lon="0.5970340">
        <ele>27.6</ele>
        <time>2020-08-08T13:51:46Z</time>
      </trkpt>
      <trkpt lat="41.0363600" lon="0.5970420">
        <ele>27.4</ele>
        <time>2020-08-08T13:51:47Z</time>
      </trkpt>
      <trkpt lat="41.0363720" lon="0.5970490">
        <ele>27.3</ele>
        <time>2020-08-08T13:51:48Z</time>
      </trkpt>
      <trkpt lat="41.0363780" lon="0.5970520">
        <ele>27.2</ele>
        <time>2020-08-08T13:51:49Z</time>
      </trkpt>
      <trkpt lat="41.0363930" lon="0.5970590">
        <ele>27.0</ele>
        <time>2020-08-08T13:51:51Z</time>
      </trkpt>
      <trkpt lat="41.0364040" lon="0.5970680">
        <ele>26.9</ele>
        <time>2020-08-08T13:51:52Z</time>
      </trkpt>
      <trkpt lat="41.0364180" lon="0.5970720">
        <ele>26.7</ele>
        <time>2020-08-08T13:51:53Z</time>
      </trkpt>
      <trkpt lat="41.0364340" lon="0.5970710">
        <ele>26.6</ele>
        <time>2020-08-08T13:51:54Z</time>
      </trkpt>
      <trkpt lat="41.0364500" lon="0.5970600">
        <ele>26.4</ele>
        <time>2020-08-08T13:51:56Z</time>
      </trkpt>
      <trkpt lat="41.0364560" lon="0.5970630">
        <ele>26.3</ele>
        <time>2020-08-08T13:51:57Z</time>
      </trkpt>
      <trkpt lat="41.0364550" lon="0.5970730">
        <ele>26.2</ele>
        <time>2020-08-08T13:52:00Z</time>
      </trkpt>
      <trkpt lat="41.0364580" lon="0.5970770">
        <ele>26.2</ele>
        <time>2020-08-08T13:52:01Z</time>
      </trkpt>
      <trkpt lat="41.0364610" lon="0.5970820">
        <ele>26.1</ele>
        <time>2020-08-08T13:52:02Z</time>
      </trkpt>
      <trkpt lat="41.0364680" lon="0.5970920">
        <ele>26.0</ele>
        <time>2020-08-08T13:52:04Z</time>
      </trkpt>
      <trkpt lat="41.0364750" lon="0.5971040">
        <ele>25.9</ele>
        <time>2020-08-08T13:52:06Z</time>
      </trkpt>
      <trkpt lat="41.0364780" lon="0.5971100">
        <ele>25.8</ele>
        <time>2020-08-08T13:52:07Z</time>
      </trkpt>
      <trkpt lat="41.0364840" lon="0.5971200">
        <ele>25.7</ele>
        <time>2020-08-08T13:52:09Z</time>
      </trkpt>
      <trkpt lat="41.0364890" lon="0.5971290">
        <ele>25.6</ele>
        <time>2020-08-08T13:52:11Z</time>
      </trkpt>
      <trkpt lat="41.0365280" lon="0.5971400">
        <ele>25.2</ele>
        <time>2020-08-08T13:52:29Z</time>
      </trkpt>
      <trkpt lat="41.0365500" lon="0.5971630">
        <ele>24.9</ele>
        <time>2020-08-08T13:52:31Z</time>
      </trkpt>
      <trkpt lat="41.0365740" lon="0.5971800">
        <ele>24.5</ele>
        <time>2020-08-08T13:52:32Z</time>
      </trkpt>
      <trkpt lat="41.0365990" lon="0.5972080">
        <ele>24.1</ele>
        <time>2020-08-08T13:52:33Z</time>
      </trkpt>
      <trkpt lat="41.0366050" lon="0.5972170">
        <ele>24.0</ele>
        <time>2020-08-08T13:52:34Z</time>
      </trkpt>
      <trkpt lat="41.0366150" lon="0.5972280">
        <ele>23.9</ele>
        <time>2020-08-08T13:52:35Z</time>
      </trkpt>
      <trkpt lat="41.0366300" lon="0.5972480">
        <ele>23.7</ele>
        <time>2020-08-08T13:52:36Z</time>
      </trkpt>
      <trkpt lat="41.0366520" lon="0.5972780">
        <ele>23.6</ele>
        <time>2020-08-08T13:52:38Z</time>
      </trkpt>
      <trkpt lat="41.0366560" lon="0.5972850">
        <ele>23.5</ele>
        <time>2020-08-08T13:52:39Z</time>
      </trkpt>
      <trkpt lat="41.0366640" lon="0.5973000">
        <ele>23.4</ele>
        <time>2020-08-08T13:52:41Z</time>
      </trkpt>
      <trkpt lat="41.0366780" lon="0.5973110">
        <ele>23.4</ele>
        <time>2020-08-08T13:52:42Z</time>
      </trkpt>
      <trkpt lat="41.0367160" lon="0.5973460">
        <ele>23.1</ele>
        <time>2020-08-08T13:52:44Z</time>
      </trkpt>
      <trkpt lat="41.0367290" lon="0.5973570">
        <ele>23.1</ele>
        <time>2020-08-08T13:52:45Z</time>
      </trkpt>
      <trkpt lat="41.0367410" lon="0.5973690">
        <ele>23.1</ele>
        <time>2020-08-08T13:52:46Z</time>
      </trkpt>
      <trkpt lat="41.0367740" lon="0.5973900">
        <ele>23.1</ele>
        <time>2020-08-08T13:52:48Z</time>
      </trkpt>
      <trkpt lat="41.0367830" lon="0.5974200">
        <ele>23.0</ele>
        <time>2020-08-08T13:52:49Z</time>
      </trkpt>
      <trkpt lat="41.0367830" lon="0.5974320">
        <ele>23.0</ele>
        <time>2020-08-08T13:52:50Z</time>
      </trkpt>
      <trkpt lat="41.0367880" lon="0.5974310">
        <ele>23.0</ele>
        <time>2020-08-08T13:52:51Z</time>
      </trkpt>
      <trkpt lat="41.0367920" lon="0.5974300">
        <ele>23.0</ele>
        <time>2020-08-08T13:52:52Z</time>
      </trkpt>
      <trkpt lat="41.0367970" lon="0.5974290">
        <ele>23.0</ele>
        <time>2020-08-08T13:52:53Z</time>
      </trkpt>
      <trkpt lat="41.0368020" lon="0.5974280">
        <ele>23.0</ele>
        <time>2020-08-08T13:52:54Z</time>
      </trkpt>
      <trkpt lat="41.0368140" lon="0.5974280">
        <ele>23.0</ele>
        <time>2020-08-08T13:52:56Z</time>
      </trkpt>
      <trkpt lat="41.0368160" lon="0.5974280">
        <ele>23.0</ele>
        <time>2020-08-08T13:52:57Z</time>
      </trkpt>
      <trkpt lat="41.0368220" lon="0.5974310">
        <ele>23.0</ele>
        <time>2020-08-08T13:52:59Z</time>
      </trkpt>
      <trkpt lat="41.0368480" lon="0.5975320">
        <ele>22.9</ele>
        <time>2020-08-08T13:53:15Z</time>
      </trkpt>
      <trkpt lat="41.0368560" lon="0.5975450">
        <ele>22.9</ele>
        <time>2020-08-08T13:53:16Z</time>
      </trkpt>
      <trkpt lat="41.0368630" lon="0.5975570">
        <ele>22.9</ele>
        <time>2020-08-08T13:53:17Z</time>
      </trkpt>
      <trkpt lat="41.0368680" lon="0.5975730">
        <ele>22.9</ele>
        <time>2020-08-08T13:53:19Z</time>
      </trkpt>
      <trkpt lat="41.0368700" lon="0.5975820">
        <ele>22.9</ele>
        <time>2020-08-08T13:53:20Z</time>
      </trkpt>
      <trkpt lat="41.0368690" lon="0.5975950">
        <ele>22.9</ele>
        <time>2020-08-08T13:53:22Z</time>
      </trkpt>
      <trkpt lat="41.0368690" lon="0.5976000">
        <ele>22.8</ele>
        <time>2020-08-08T13:53:23Z</time>
      </trkpt>
      <trkpt lat="41.0368710" lon="0.5976040">
        <ele>22.8</ele>
        <time>2020-08-08T13:53:24Z</time>
      </trkpt>
      <trkpt lat="41.0368740" lon="0.5976100">
        <ele>22.8</ele>
        <time>2020-08-08T13:53:26Z</time>
      </trkpt>
      <trkpt lat="41.0368780" lon="0.5976140">
        <ele>22.8</ele>
        <time>2020-08-08T13:53:27Z</time>
      </trkpt>
      <trkpt lat="41.0368780" lon="0.5976210">
        <ele>22.8</ele>
        <time>2020-08-08T13:53:28Z</time>
      </trkpt>
      <trkpt lat="41.0368770" lon="0.5976380">
        <ele>22.8</ele>
        <time>2020-08-08T13:53:30Z</time>
      </trkpt>
      <trkpt lat="41.0368830" lon="0.5976520">
        <ele>22.8</ele>
        <time>2020-08-08T13:53:31Z</time>
      </trkpt>
      <trkpt lat="41.0368930" lon="0.5976660">
        <ele>22.8</ele>
        <time>2020-08-08T13:53:33Z</time>
      </trkpt>
      <trkpt lat="41.0368970" lon="0.5976700">
        <ele>22.8</ele>
        <time>2020-08-08T13:53:34Z</time>
      </trkpt>
      <trkpt lat="41.0369000" lon="0.5976730">
        <ele>22.8</ele>
        <time>2020-08-08T13:53:35Z</time>
      </trkpt>
      <trkpt lat="41.0368980" lon="0.5976710">
        <ele>22.8</ele>
        <time>2020-08-08T13:53:36Z</time>
      </trkpt>
      <trkpt lat="41.0368960" lon="0.5976700">
        <ele>22.8</ele>
        <time>2020-08-08T13:53:37Z</time>
      </trkpt>
      <trkpt lat="41.0368990" lon="0.5976720">
        <ele>22.8</ele>
        <time>2020-08-08T13:53:39Z</time>
      </trkpt>
      <trkpt lat="41.0369000" lon="0.5976720">
        <ele>22.8</ele>
        <time>2020-08-08T13:53:40Z</time>
      </trkpt>
      <trkpt lat="41.0368980" lon="0.5976710">
        <ele>22.8</ele>
        <time>2020-08-08T13:53:42Z</time>
      </trkpt>
      <trkpt lat="41.0368970" lon="0.5976710">
        <ele>22.8</ele>
        <time>2020-08-08T13:53:43Z</time>
      </trkpt>
      <trkpt lat="41.0368940" lon="0.5976710">
        <ele>22.8</ele>
        <time>2020-08-08T13:53:45Z</time>
      </trkpt>
      <trkpt lat="41.0368930" lon="0.5976710">
        <ele>22.8</ele>
        <time>2020-08-08T13:53:46Z</time>
      </trkpt>
      <trkpt lat="41.0368910" lon="0.5976710">
        <ele>22.8</ele>
        <time>2020-08-08T13:53:48Z</time>
      </trkpt>
      <trkpt lat="41.0368780" lon="0.5976950">
        <ele>22.8</ele>
        <time>2020-08-08T13:53:50Z</time>
      </trkpt>
      <trkpt lat="41.0368640" lon="0.5977220">
        <ele>22.8</ele>
        <time>2020-08-08T13:53:52Z</time>
      </trkpt>
      <trkpt lat="41.0368610" lon="0.5977280">
        <ele>22.8</ele>
        <time>2020-08-08T13:53:53Z</time>
      </trkpt>
      <trkpt lat="41.0368600" lon="0.5977300">
        <ele>22.8</ele>
        <time>2020-08-08T13:53:54Z</time>
      </trkpt>
      <trkpt lat="41.0368610" lon="0.5977280">
        <ele>22.8</ele>
        <time>2020-08-08T13:53:56Z</time>
      </trkpt>
      <trkpt lat="41.0368620" lon="0.5977260">
        <ele>22.8</ele>
        <time>2020-08-08T13:53:58Z</time>
      </trkpt>
      <trkpt lat="41.0368630" lon="0.5977250">
        <ele>22.8</ele>
        <time>2020-08-08T13:53:59Z</time>
      </trkpt>
      <trkpt lat="41.0368630" lon="0.5977250">
        <ele>22.8</ele>
        <time>2020-08-08T13:54:00Z</time>
      </trkpt>
      <trkpt lat="41.0368640" lon="0.5977240">
        <ele>22.8</ele>
        <time>2020-08-08T13:54:02Z</time>
      </trkpt>
      <trkpt lat="41.0368640" lon="0.5977250">
        <ele>22.8</ele>
        <time>2020-08-08T13:54:03Z</time>
      </trkpt>
      <trkpt lat="41.0368640" lon="0.5977250">
        <ele>22.8</ele>
        <time>2020-08-08T13:54:04Z</time>
      </trkpt>
      <trkpt lat="41.0368900" lon="0.5977120">
        <ele>22.8</ele>
        <time>2020-08-08T14:08:05Z</time>
      </trkpt>
      <trkpt lat="41.0368930" lon="0.5977090">
        <ele>22.8</ele>
        <time>2020-08-08T14:08:06Z</time>
      </trkpt>
      <trkpt lat="41.0368930" lon="0.5977070">
        <ele>22.8</ele>
        <time>2020-08-08T14:08:08Z</time>
      </trkpt>
      <trkpt lat="41.0368860" lon="0.5977210">
        <ele>22.7</ele>
        <time>2020-08-08T14:08:10Z</time>
      </trkpt>
      <trkpt lat="41.0368870" lon="0.5977190">
        <ele>22.7</ele>
        <time>2020-08-08T14:08:12Z</time>
      </trkpt>
      <trkpt lat="41.0368900" lon="0.5977100">
        <ele>22.7</ele>
        <time>2020-08-08T14:08:14Z</time>
      </trkpt>
      <trkpt lat="41.0368920" lon="0.5977060">
        <ele>22.7</ele>
        <time>2020-08-08T14:08:15Z</time>
      </trkpt>
      <trkpt lat="41.0368930" lon="0.5977030">
        <ele>22.7</ele>
        <time>2020-08-08T14:08:17Z</time>
      </trkpt>
      <trkpt lat="41.0369280" lon="0.5977070">
        <ele>22.7</ele>
        <time>2020-08-08T14:10:56Z</time>
      </trkpt>
      <trkpt lat="41.0369460" lon="0.5977100">
        <ele>22.7</ele>
        <time>2020-08-08T14:10:58Z</time>
      </trkpt>
      <trkpt lat="41.0369590" lon="0.5977090">
        <ele>22.7</ele>
        <time>2020-08-08T14:10:59Z</time>
      </trkpt>
      <trkpt lat="41.0369720" lon="0.5977070">
        <ele>22.7</ele>
        <time>2020-08-08T14:11:00Z</time>
      </trkpt>
      <trkpt lat="41.0369910" lon="0.5977140">
        <ele>22.7</ele>
        <time>2020-08-08T14:11:02Z</time>
      </trkpt>
      <trkpt lat="41.0370020" lon="0.5977180">
        <ele>22.7</ele>
        <time>2020-08-08T14:11:03Z</time>
      </trkpt>
      <trkpt lat="41.0370250" lon="0.5977240">
        <ele>22.8</ele>
        <time>2020-08-08T14:11:05Z</time>
      </trkpt>
      <trkpt lat="41.0370380" lon="0.5977310">
        <ele>22.8</ele>
        <time>2020-08-08T14:11:06Z</time>
      </trkpt>
      <trkpt lat="41.0370580" lon="0.5977480">
        <ele>22.8</ele>
        <time>2020-08-08T14:11:08Z</time>
      </trkpt>
      <trkpt lat="41.0370750" lon="0.5977610">
        <ele>22.8</ele>
        <time>2020-08-08T14:11:09Z</time>
      </trkpt>
      <trkpt lat="41.0370870" lon="0.5977740">
        <ele>22.8</ele>
        <time>2020-08-08T14:11:10Z</time>
      </trkpt>
      <trkpt lat="41.0371180" lon="0.5977940">
        <ele>22.8</ele>
        <time>2020-08-08T14:11:12Z</time>
      </trkpt>
      <trkpt lat="41.0371250" lon="0.5978000">
        <ele>22.8</ele>
        <time>2020-08-08T14:11:13Z</time>
      </trkpt>
      <trkpt lat="41.0371390" lon="0.5978100">
        <ele>22.8</ele>
        <time>2020-08-08T14:11:14Z</time>
      </trkpt>
      <trkpt lat="41.0371500" lon="0.5978200">
        <ele>22.8</ele>
        <time>2020-08-08T14:11:15Z</time>
      </trkpt>
      <trkpt lat="41.0371620" lon="0.5978300">
        <ele>23.5</ele>
        <time>2020-08-08T14:11:16Z</time>
      </trkpt>
      <trkpt lat="41.0371780" lon="0.5978490">
        <ele>24.5</ele>
        <time>2020-08-08T14:11:18Z</time>
      </trkpt>
      <trkpt lat="41.0372040" lon="0.5978720">
        <ele>25.7</ele>
        <time>2020-08-08T14:11:19Z</time>
      </trkpt>
      <trkpt lat="41.0372380" lon="0.5978960">
        <ele>25.6</ele>
        <time>2020-08-08T14:11:20Z</time>
      </trkpt>
      <trkpt lat="41.0372640" lon="0.5979110">
        <ele>25.5</ele>
        <time>2020-08-08T14:11:22Z</time>
      </trkpt>
      <trkpt lat="41.0372960" lon="0.5979450">
        <ele>25.4</ele>
        <time>2020-08-08T14:11:23Z</time>
      </trkpt>
      <trkpt lat="41.0373270" lon="0.5979730">
        <ele>25.4</ele>
        <time>2020-08-08T14:11:25Z</time>
      </trkpt>
      <trkpt lat="41.0373540" lon="0.5979800">
        <ele>25.3</ele>
        <time>2020-08-08T14:11:26Z</time>
      </trkpt>
      <trkpt lat="41.0373770" lon="0.5979770">
        <ele>25.3</ele>
        <time>2020-08-08T14:11:27Z</time>
      </trkpt>
      <trkpt lat="41.0374020" lon="0.5979740">
        <ele>25.2</ele>
        <time>2020-08-08T14:11:29Z</time>
      </trkpt>
      <trkpt lat="41.0374390" lon="0.5979800">
        <ele>25.1</ele>
        <time>2020-08-08T14:11:30Z</time>
      </trkpt>
      <trkpt lat="41.0374540" lon="0.5979840">
        <ele>25.1</ele>
        <time>2020-08-08T14:11:32Z</time>
      </trkpt>
      <trkpt lat="41.0374680" lon="0.5979880">
        <ele>25.1</ele>
        <time>2020-08-08T14:11:33Z</time>
      </trkpt>
      <trkpt lat="41.0374820" lon="0.5979920">
        <ele>25.1</ele>
        <time>2020-08-08T14:11:34Z</time>
      </trkpt>
      <trkpt lat="41.0375120" lon="0.5980010">
        <ele>25.0</ele>
        <time>2020-08-08T14:11:35Z</time>
      </trkpt>
      <trkpt lat="41.0375230" lon="0.5980040">
        <ele>25.0</ele>
        <time>2020-08-08T14:11:36Z</time>
      </trkpt>
      <trkpt lat="41.0375560" lon="0.5980030">
        <ele>25.0</ele>
        <time>2020-08-08T14:11:37Z</time>
      </trkpt>
      <trkpt lat="41.0376010" lon="0.5979930">
        <ele>24.9</ele>
        <time>2020-08-08T14:11:39Z</time>
      </trkpt>
      <trkpt lat="41.0376420" lon="0.5979770">
        <ele>24.8</ele>
        <time>2020-08-08T14:11:41Z</time>
      </trkpt>
      <trkpt lat="41.0376610" lon="0.5979700">
        <ele>24.8</ele>
        <time>2020-08-08T14:11:42Z</time>
      </trkpt>
      <trkpt lat="41.0376890" lon="0.5979600">
        <ele>24.8</ele>
        <time>2020-08-08T14:11:44Z</time>
      </trkpt>
      <trkpt lat="41.0377200" lon="0.5979460">
        <ele>24.7</ele>
        <time>2020-08-08T14:11:45Z</time>
      </trkpt>
      <trkpt lat="41.0377280" lon="0.5979420">
        <ele>24.7</ele>
        <time>2020-08-08T14:11:46Z</time>
      </trkpt>
      <trkpt lat="41.0377450" lon="0.5979300">
        <ele>24.7</ele>
        <time>2020-08-08T14:11:47Z</time>
      </trkpt>
      <trkpt lat="41.0377670" lon="0.5979080">
        <ele>24.7</ele>
        <time>2020-08-08T14:11:49Z</time>
      </trkpt>
      <trkpt lat="41.0377900" lon="0.5978830">
        <ele>24.7</ele>
        <time>2020-08-08T14:11:50Z</time>
      </trkpt>
      <trkpt lat="41.0378100" lon="0.5978540">
        <ele>24.7</ele>
        <time>2020-08-08T14:11:51Z</time>
      </trkpt>
      <trkpt lat="41.0378260" lon="0.5978280">
        <ele>24.6</ele>
        <time>2020-08-08T14:11:52Z</time>
      </trkpt>
      <trkpt lat="41.0378340" lon="0.5978010">
        <ele>24.6</ele>
        <time>2020-08-08T14:11:54Z</time>
      </trkpt>
      <trkpt lat="41.0378460" lon="0.5977560">
        <ele>24.5</ele>
        <time>2020-08-08T14:11:55Z</time>
      </trkpt>
      <trkpt lat="41.0378480" lon="0.5977430">
        <ele>24.4</ele>
        <time>2020-08-08T14:11:56Z</time>
      </trkpt>
      <trkpt lat="41.0378620" lon="0.5977230">
        <ele>24.4</ele>
        <time>2020-08-08T14:11:57Z</time>
      </trkpt>
      <trkpt lat="41.0378910" lon="0.5977110">
        <ele>24.4</ele>
        <time>2020-08-08T14:11:59Z</time>
      </trkpt>
      <trkpt lat="41.0379360" lon="0.5976970">
        <ele>24.3</ele>
        <time>2020-08-08T14:12:00Z</time>
      </trkpt>
      <trkpt lat="41.0379900" lon="0.5976840">
        <ele>24.2</ele>
        <time>2020-08-08T14:12:02Z</time>
      </trkpt>
      <trkpt lat="41.0380510" lon="0.5976730">
        <ele>24.1</ele>
        <time>2020-08-08T14:12:03Z</time>
      </trkpt>
      <trkpt lat="41.0380830" lon="0.5976680">
        <ele>24.1</ele>
        <time>2020-08-08T14:12:04Z</time>
      </trkpt>
      <trkpt lat="41.0381400" lon="0.5976510">
        <ele>24.2</ele>
        <time>2020-08-08T14:12:06Z</time>
      </trkpt>
      <trkpt lat="41.0381700" lon="0.5976440">
        <ele>24.2</ele>
        <time>2020-08-08T14:12:07Z</time>
      </trkpt>
      <trkpt lat="41.0382140" lon="0.5976310">
        <ele>24.3</ele>
        <time>2020-08-08T14:12:08Z</time>
      </trkpt>
      <trkpt lat="41.0382670" lon="0.5976110">
        <ele>24.3</ele>
        <time>2020-08-08T14:12:10Z</time>
      </trkpt>
      <trkpt lat="41.0383190" lon="0.5975960">
        <ele>24.4</ele>
        <time>2020-08-08T14:12:11Z</time>
      </trkpt>
      <trkpt lat="41.0383550" lon="0.5975830">
        <ele>24.5</ele>
        <time>2020-08-08T14:12:12Z</time>
      </trkpt>
      <trkpt lat="41.0384060" lon="0.5975570">
        <ele>24.6</ele>
        <time>2020-08-08T14:12:14Z</time>
      </trkpt>
      <trkpt lat="41.0384360" lon="0.5975380">
        <ele>24.7</ele>
        <time>2020-08-08T14:12:15Z</time>
      </trkpt>
      <trkpt lat="41.0384590" lon="0.5975240">
        <ele>24.8</ele>
        <time>2020-08-08T14:12:16Z</time>
      </trkpt>
      <trkpt lat="41.0384920" lon="0.5974990">
        <ele>24.9</ele>
        <time>2020-08-08T14:12:18Z</time>
      </trkpt>
      <trkpt lat="41.0385080" lon="0.5974860">
        <ele>24.9</ele>
        <time>2020-08-08T14:12:19Z</time>
      </trkpt>
      <trkpt lat="41.0385260" lon="0.5974740">
        <ele>25.0</ele>
        <time>2020-08-08T14:12:21Z</time>
      </trkpt>
      <trkpt lat="41.0385590" lon="0.5974570">
        <ele>25.1</ele>
        <time>2020-08-08T14:12:22Z</time>
      </trkpt>
      <trkpt lat="41.0385720" lon="0.5974500">
        <ele>25.2</ele>
        <time>2020-08-08T14:12:23Z</time>
      </trkpt>
      <trkpt lat="41.0386120" lon="0.5974260">
        <ele>25.3</ele>
        <time>2020-08-08T14:12:25Z</time>
      </trkpt>
      <trkpt lat="41.0386280" lon="0.5974180">
        <ele>25.4</ele>
        <time>2020-08-08T14:12:26Z</time>
      </trkpt>
      <trkpt lat="41.0386430" lon="0.5974110">
        <ele>25.4</ele>
        <time>2020-08-08T14:12:27Z</time>
      </trkpt>
      <trkpt lat="41.0386730" lon="0.5973950">
        <ele>25.5</ele>
        <time>2020-08-08T14:12:29Z</time>
      </trkpt>
      <trkpt lat="41.0387060" lon="0.5973710">
        <ele>25.7</ele>
        <time>2020-08-08T14:12:30Z</time>
      </trkpt>
      <trkpt lat="41.0387240" lon="0.5973610">
        <ele>25.8</ele>
        <time>2020-08-08T14:12:31Z</time>
      </trkpt>
      <trkpt lat="41.0387600" lon="0.5973440">
        <ele>25.9</ele>
        <time>2020-08-08T14:12:33Z</time>
      </trkpt>
      <trkpt lat="41.0387860" lon="0.5973250">
        <ele>26.0</ele>
        <time>2020-08-08T14:12:34Z</time>
      </trkpt>
      <trkpt lat="41.0388310" lon="0.5972930">
        <ele>26.2</ele>
        <time>2020-08-08T14:12:36Z</time>
      </trkpt>
      <trkpt lat="41.0388750" lon="0.5972640">
        <ele>26.4</ele>
        <time>2020-08-08T14:12:37Z</time>
      </trkpt>
      <trkpt lat="41.0389110" lon="0.5972370">
        <ele>26.6</ele>
        <time>2020-08-08T14:12:39Z</time>
      </trkpt>
      <trkpt lat="41.0389410" lon="0.5972110">
        <ele>26.7</ele>
        <time>2020-08-08T14:12:40Z</time>
      </trkpt>
      <trkpt lat="41.0389600" lon="0.5971960">
        <ele>26.8</ele>
        <time>2020-08-08T14:12:41Z</time>
      </trkpt>
      <trkpt lat="41.0389800" lon="0.5971790">
        <ele>26.8</ele>
        <time>2020-08-08T14:12:43Z</time>
      </trkpt>
      <trkpt lat="41.0390050" lon="0.5971560">
        <ele>27.0</ele>
        <time>2020-08-08T14:12:44Z</time>
      </trkpt>
      <trkpt lat="41.0390130" lon="0.5971480">
        <ele>27.0</ele>
        <time>2020-08-08T14:12:45Z</time>
      </trkpt>
      <trkpt lat="41.0390270" lon="0.5971380">
        <ele>27.1</ele>
        <time>2020-08-08T14:12:46Z</time>
      </trkpt>
      <trkpt lat="41.0390540" lon="0.5971230">
        <ele>27.3</ele>
        <time>2020-08-08T14:12:48Z</time>
      </trkpt>
      <trkpt lat="41.0390670" lon="0.5971210">
        <ele>27.3</ele>
        <time>2020-08-08T14:12:49Z</time>
      </trkpt>
      <trkpt lat="41.0390790" lon="0.5971270">
        <ele>27.4</ele>
        <time>2020-08-08T14:12:50Z</time>
      </trkpt>
      <trkpt lat="41.0390990" lon="0.5971410">
        <ele>27.5</ele>
        <time>2020-08-08T14:12:52Z</time>
      </trkpt>
      <trkpt lat="41.0391070" lon="0.5971500">
        <ele>27.6</ele>
        <time>2020-08-08T14:12:53Z</time>
      </trkpt>
      <trkpt lat="41.0391240" lon="0.5971630">
        <ele>27.7</ele>
        <time>2020-08-08T14:12:55Z</time>
      </trkpt>
      <trkpt lat="41.0391340" lon="0.5971690">
        <ele>27.7</ele>
        <time>2020-08-08T14:12:56Z</time>
      </trkpt>
      <trkpt lat="41.0391430" lon="0.5971760">
        <ele>27.7</ele>
        <time>2020-08-08T14:12:57Z</time>
      </trkpt>
      <trkpt lat="41.0391640" lon="0.5971870">
        <ele>27.8</ele>
        <time>2020-08-08T14:12:59Z</time>
      </trkpt>
      <trkpt lat="41.0391860" lon="0.5971970">
        <ele>27.9</ele>
        <time>2020-08-08T14:13:00Z</time>
      </trkpt>
      <trkpt lat="41.0391980" lon="0.5972000">
        <ele>28.0</ele>
        <time>2020-08-08T14:13:02Z</time>
      </trkpt>
      <trkpt lat="41.0392110" lon="0.5972040">
        <ele>28.1</ele>
        <time>2020-08-08T14:13:03Z</time>
      </trkpt>
      <trkpt lat="41.0392230" lon="0.5972070">
        <ele>28.1</ele>
        <time>2020-08-08T14:13:05Z</time>
      </trkpt>
      <trkpt lat="41.0392360" lon="0.5972110">
        <ele>29.0</ele>
        <time>2020-08-08T14:13:06Z</time>
      </trkpt>
      <trkpt lat="41.0392990" lon="0.5972580">
        <ele>29.1</ele>
        <time>2020-08-08T14:13:07Z</time>
      </trkpt>
      <trkpt lat="41.0393480" lon="0.5972890">
        <ele>29.1</ele>
        <time>2020-08-08T14:13:08Z</time>
      </trkpt>
      <trkpt lat="41.0394920" lon="0.5973820">
        <ele>29.3</ele>
        <time>2020-08-08T14:13:10Z</time>
      </trkpt>
      <trkpt lat="41.0395800" lon="0.5974320">
        <ele>29.4</ele>
        <time>2020-08-08T14:13:11Z</time>
      </trkpt>
      <trkpt lat="41.0396140" lon="0.5974620">
        <ele>29.5</ele>
        <time>2020-08-08T14:13:12Z</time>
      </trkpt>
      <trkpt lat="41.0396800" lon="0.5975260">
        <ele>29.6</ele>
        <time>2020-08-08T14:13:14Z</time>
      </trkpt>
      <trkpt lat="41.0397130" lon="0.5975580">
        <ele>29.6</ele>
        <time>2020-08-08T14:13:15Z</time>
      </trkpt>
      <trkpt lat="41.0397480" lon="0.5975890">
        <ele>29.6</ele>
        <time>2020-08-08T14:13:16Z</time>
      </trkpt>
      <trkpt lat="41.0398120" lon="0.5976450">
        <ele>29.7</ele>
        <time>2020-08-08T14:13:18Z</time>
      </trkpt>
      <trkpt lat="41.0396450" lon="0.5975080">
        <ele>29.7</ele>
        <time>2020-08-08T14:13:20Z</time>
      </trkpt>
      <trkpt lat="41.0395930" lon="0.5974610">
        <ele>29.7</ele>
        <time>2020-08-08T14:13:21Z</time>
      </trkpt>
      <trkpt lat="41.0395830" lon="0.5974520">
        <ele>29.7</ele>
        <time>2020-08-08T14:13:22Z</time>
      </trkpt>
      <trkpt lat="41.0395530" lon="0.5974150">
        <ele>29.7</ele>
        <time>2020-08-08T14:13:24Z</time>
      </trkpt>
      <trkpt lat="41.0395760" lon="0.5974170">
        <ele>29.7</ele>
        <time>2020-08-08T14:13:25Z</time>
      </trkpt>
      <trkpt lat="41.0395910" lon="0.5974210">
        <ele>29.7</ele>
        <time>2020-08-08T14:13:26Z</time>
      </trkpt>
      <trkpt lat="41.0396050" lon="0.5974240">
        <ele>29.7</ele>
        <time>2020-08-08T14:13:27Z</time>
      </trkpt>
      <trkpt lat="41.0396380" lon="0.5974360">
        <ele>29.7</ele>
        <time>2020-08-08T14:13:28Z</time>
      </trkpt>
      <trkpt lat="41.0396550" lon="0.5974480">
        <ele>29.6</ele>
        <time>2020-08-08T14:13:29Z</time>
      </trkpt>
      <trkpt lat="41.0397270" lon="0.5974950">
        <ele>29.6</ele>
        <time>2020-08-08T14:13:30Z</time>
      </trkpt>
      <trkpt lat="41.0398000" lon="0.5975460">
        <ele>29.6</ele>
        <time>2020-08-08T14:13:31Z</time>
      </trkpt>
      <trkpt lat="41.0398740" lon="0.5976030">
        <ele>29.6</ele>
        <time>2020-08-08T14:13:32Z</time>
      </trkpt>
      <trkpt lat="41.0399430" lon="0.5976630">
        <ele>29.6</ele>
        <time>2020-08-08T14:13:33Z</time>
      </trkpt>
      <trkpt lat="41.0400330" lon="0.5977300">
        <ele>29.6</ele>
        <time>2020-08-08T14:13:35Z</time>
      </trkpt>
      <trkpt lat="41.0401080" lon="0.5978080">
        <ele>29.6</ele>
        <time>2020-08-08T14:13:37Z</time>
      </trkpt>
      <trkpt lat="41.0401380" lon="0.5978450">
        <ele>29.7</ele>
        <time>2020-08-08T14:13:38Z</time>
      </trkpt>
      <trkpt lat="41.0401870" lon="0.5979220">
        <ele>29.9</ele>
        <time>2020-08-08T14:13:40Z</time>
      </trkpt>
      <trkpt lat="41.0402060" lon="0.5979710">
        <ele>29.8</ele>
        <time>2020-08-08T14:13:41Z</time>
      </trkpt>
      <trkpt lat="41.0402290" lon="0.5980270">
        <ele>29.7</ele>
        <time>2020-08-08T14:13:43Z</time>
      </trkpt>
      <trkpt lat="41.0402450" lon="0.5980670">
        <ele>29.6</ele>
        <time>2020-08-08T14:13:44Z</time>
      </trkpt>
      <trkpt lat="41.0402500" lon="0.5980800">
        <ele>29.6</ele>
        <time>2020-08-08T14:13:45Z</time>
      </trkpt>
      <trkpt lat="41.0402640" lon="0.5981240">
        <ele>29.6</ele>
        <time>2020-08-08T14:13:47Z</time>
      </trkpt>
      <trkpt lat="41.0402740" lon="0.5981630">
        <ele>29.5</ele>
        <time>2020-08-08T14:13:48Z</time>
      </trkpt>
      <trkpt lat="41.0402810" lon="0.5982020">
        <ele>29.4</ele>
        <time>2020-08-08T14:13:50Z</time>
      </trkpt>
      <trkpt lat="41.0402880" lon="0.5982580">
        <ele>29.3</ele>
        <time>2020-08-08T14:13:51Z</time>
      </trkpt>
      <trkpt lat="41.0402930" lon="0.5982990">
        <ele>29.3</ele>
        <time>2020-08-08T14:13:52Z</time>
      </trkpt>
      <trkpt lat="41.0402980" lon="0.5983640">
        <ele>29.2</ele>
        <time>2020-08-08T14:13:54Z</time>
      </trkpt>
      <trkpt lat="41.0403010" lon="0.5983990">
        <ele>29.1</ele>
        <time>2020-08-08T14:13:55Z</time>
      </trkpt>
      <trkpt lat="41.0403070" lon="0.5984570">
        <ele>29.0</ele>
        <time>2020-08-08T14:13:57Z</time>
      </trkpt>
      <trkpt lat="41.0403130" lon="0.5984970">
        <ele>29.0</ele>
        <time>2020-08-08T14:13:58Z</time>
      </trkpt>
      <trkpt lat="41.0403280" lon="0.5985540">
        <ele>28.9</ele>
        <time>2020-08-08T14:13:59Z</time>
      </trkpt>
      <trkpt lat="41.0403410" lon="0.5985910">
        <ele>28.8</ele>
        <time>2020-08-08T14:14:00Z</time>
      </trkpt>
      <trkpt lat="41.0403590" lon="0.5986300">
        <ele>28.7</ele>
        <time>2020-08-08T14:14:02Z</time>
      </trkpt>
      <trkpt lat="41.0403790" lon="0.5986640">
        <ele>28.7</ele>
        <time>2020-08-08T14:14:03Z</time>
      </trkpt>
      <trkpt lat="41.0404090" lon="0.5987030">
        <ele>28.7</ele>
        <time>2020-08-08T14:14:04Z</time>
      </trkpt>
      <trkpt lat="41.0404200" lon="0.5987170">
        <ele>28.7</ele>
        <time>2020-08-08T14:14:05Z</time>
      </trkpt>
      <trkpt lat="41.0404570" lon="0.5987620">
        <ele>28.4</ele>
        <time>2020-08-08T14:14:07Z</time>
      </trkpt>
      <trkpt lat="41.0404820" lon="0.5987870">
        <ele>28.3</ele>
        <time>2020-08-08T14:14:09Z</time>
      </trkpt>
      <trkpt lat="41.0405070" lon="0.5988080">
        <ele>28.2</ele>
        <time>2020-08-08T14:14:10Z</time>
      </trkpt>
      <trkpt lat="41.0405260" lon="0.5988250">
        <ele>28.2</ele>
        <time>2020-08-08T14:14:11Z</time>
      </trkpt>
      <trkpt lat="41.0405650" lon="0.5988680">
        <ele>28.0</ele>
        <time>2020-08-08T14:14:13Z</time>
      </trkpt>
      <trkpt lat="41.0405860" lon="0.5988980">
        <ele>27.9</ele>
        <time>2020-08-08T14:14:14Z</time>
      </trkpt>
      <trkpt lat="41.0406320" lon="0.5990980">
        <ele>27.3</ele>
        <time>2020-08-08T14:14:16Z</time>
      </trkpt>
      <trkpt lat="41.0406740" lon="0.5992480">
        <ele>26.8</ele>
        <time>2020-08-08T14:14:17Z</time>
      </trkpt>
      <trkpt lat="41.0407190" lon="0.5993900">
        <ele>26.3</ele>
        <time>2020-08-08T14:14:18Z</time>
      </trkpt>
      <trkpt lat="41.0407500" lon="0.5994860">
        <ele>26.0</ele>
        <time>2020-08-08T14:14:19Z</time>
      </trkpt>
      <trkpt lat="41.0408410" lon="0.5998790">
        <ele>24.7</ele>
        <time>2020-08-08T14:14:21Z</time>
      </trkpt>
      <trkpt lat="41.0408690" lon="0.5999770">
        <ele>24.5</ele>
        <time>2020-08-08T14:14:22Z</time>
      </trkpt>
      <trkpt lat="41.0408930" lon="0.6000530">
        <ele>24.3</ele>
        <time>2020-08-08T14:14:23Z</time>
      </trkpt>
      <trkpt lat="41.0409500" lon="0.6001960">
        <ele>23.8</ele>
        <time>2020-08-08T14:14:25Z</time>
      </trkpt>
      <trkpt lat="41.0409780" lon="0.6002640">
        <ele>23.7</ele>
        <time>2020-08-08T14:14:26Z</time>
      </trkpt>
      <trkpt lat="41.0410050" lon="0.6003290">
        <ele>23.5</ele>
        <time>2020-08-08T14:14:27Z</time>
      </trkpt>
      <trkpt lat="41.0410600" lon="0.6004420">
        <ele>23.3</ele>
        <time>2020-08-08T14:14:29Z</time>
      </trkpt>
      <trkpt lat="41.0410880" lon="0.6004940">
        <ele>23.2</ele>
        <time>2020-08-08T14:14:30Z</time>
      </trkpt>
      <trkpt lat="41.0411170" lon="0.6005490">
        <ele>23.0</ele>
        <time>2020-08-08T14:14:31Z</time>
      </trkpt>
      <trkpt lat="41.0411450" lon="0.6006030">
        <ele>22.9</ele>
        <time>2020-08-08T14:14:32Z</time>
      </trkpt>
      <trkpt lat="41.0411730" lon="0.6006570">
        <ele>22.8</ele>
        <time>2020-08-08T14:14:33Z</time>
      </trkpt>
      <trkpt lat="41.0412000" lon="0.6007120">
        <ele>22.7</ele>
        <time>2020-08-08T14:14:34Z</time>
      </trkpt>
      <trkpt lat="41.0412580" lon="0.6008220">
        <ele>22.6</ele>
        <time>2020-08-08T14:14:36Z</time>
      </trkpt>
      <trkpt lat="41.0412890" lon="0.6008770">
        <ele>22.5</ele>
        <time>2020-08-08T14:14:37Z</time>
      </trkpt>
      <trkpt lat="41.0413200" lon="0.6009300">
        <ele>22.5</ele>
        <time>2020-08-08T14:14:38Z</time>
      </trkpt>
      <trkpt lat="41.0413750" lon="0.6010460">
        <ele>22.4</ele>
        <time>2020-08-08T14:14:40Z</time>
      </trkpt>
      <trkpt lat="41.0413980" lon="0.6011030">
        <ele>22.4</ele>
        <time>2020-08-08T14:14:41Z</time>
      </trkpt>
      <trkpt lat="41.0414400" lon="0.6012250">
        <ele>22.3</ele>
        <time>2020-08-08T14:14:43Z</time>
      </trkpt>
      <trkpt lat="41.0414610" lon="0.6012930">
        <ele>22.3</ele>
        <time>2020-08-08T14:14:44Z</time>
      </trkpt>
      <trkpt lat="41.0414830" lon="0.6013570">
        <ele>22.2</ele>
        <time>2020-08-08T14:14:45Z</time>
      </trkpt>
      <trkpt lat="41.0415140" lon="0.6014800">
        <ele>22.1</ele>
        <time>2020-08-08T14:14:47Z</time>
      </trkpt>
      <trkpt lat="41.0415480" lon="0.6016020">
        <ele>22.0</ele>
        <time>2020-08-08T14:14:49Z</time>
      </trkpt>
      <trkpt lat="41.0415950" lon="0.6017120">
        <ele>22.0</ele>
        <time>2020-08-08T14:14:51Z</time>
      </trkpt>
      <trkpt lat="41.0416200" lon="0.6017650">
        <ele>22.0</ele>
        <time>2020-08-08T14:14:52Z</time>
      </trkpt>
      <trkpt lat="41.0416610" lon="0.6018700">
        <ele>22.1</ele>
        <time>2020-08-08T14:14:54Z</time>
      </trkpt>
      <trkpt lat="41.0416910" lon="0.6019680">
        <ele>22.2</ele>
        <time>2020-08-08T14:14:56Z</time>
      </trkpt>
      <trkpt lat="41.0417070" lon="0.6020120">
        <ele>22.3</ele>
        <time>2020-08-08T14:14:57Z</time>
      </trkpt>
      <trkpt lat="41.0417240" lon="0.6020550">
        <ele>22.3</ele>
        <time>2020-08-08T14:14:58Z</time>
      </trkpt>
      <trkpt lat="41.0417410" lon="0.6021000">
        <ele>22.4</ele>
        <time>2020-08-08T14:14:59Z</time>
      </trkpt>
      <trkpt lat="41.0417570" lon="0.6021450">
        <ele>22.4</ele>
        <time>2020-08-08T14:15:00Z</time>
      </trkpt>
      <trkpt lat="41.0417750" lon="0.6021890">
        <ele>22.4</ele>
        <time>2020-08-08T14:15:01Z</time>
      </trkpt>
      <trkpt lat="41.0417970" lon="0.6022330">
        <ele>22.5</ele>
        <time>2020-08-08T14:15:02Z</time>
      </trkpt>
      <trkpt lat="41.0418340" lon="0.6023160">
        <ele>22.6</ele>
        <time>2020-08-08T14:15:04Z</time>
      </trkpt>
      <trkpt lat="41.0418670" lon="0.6023970">
        <ele>22.6</ele>
        <time>2020-08-08T14:15:06Z</time>
      </trkpt>
      <trkpt lat="41.0419030" lon="0.6024850">
        <ele>22.7</ele>
        <time>2020-08-08T14:15:08Z</time>
      </trkpt>
      <trkpt lat="41.0419220" lon="0.6025290">
        <ele>22.7</ele>
        <time>2020-08-08T14:15:09Z</time>
      </trkpt>
      <trkpt lat="41.0419570" lon="0.6026160">
        <ele>22.8</ele>
        <time>2020-08-08T14:15:11Z</time>
      </trkpt>
      <trkpt lat="41.0419730" lon="0.6026610">
        <ele>22.9</ele>
        <time>2020-08-08T14:15:12Z</time>
      </trkpt>
      <trkpt lat="41.0420060" lon="0.6027500">
        <ele>23.0</ele>
        <time>2020-08-08T14:15:14Z</time>
      </trkpt>
      <trkpt lat="41.0420220" lon="0.6027950">
        <ele>23.1</ele>
        <time>2020-08-08T14:15:15Z</time>
      </trkpt>
      <trkpt lat="41.0420570" lon="0.6028880">
        <ele>23.3</ele>
        <time>2020-08-08T14:15:17Z</time>
      </trkpt>
      <trkpt lat="41.0420730" lon="0.6029340">
        <ele>23.4</ele>
        <time>2020-08-08T14:15:18Z</time>
      </trkpt>
      <trkpt lat="41.0421060" lon="0.6030210">
        <ele>23.6</ele>
        <time>2020-08-08T14:15:20Z</time>
      </trkpt>
      <trkpt lat="41.0421230" lon="0.6030640">
        <ele>23.7</ele>
        <time>2020-08-08T14:15:21Z</time>
      </trkpt>
      <trkpt lat="41.0421410" lon="0.6031080">
        <ele>23.8</ele>
        <time>2020-08-08T14:15:22Z</time>
      </trkpt>
      <trkpt lat="41.0421600" lon="0.6031550">
        <ele>23.9</ele>
        <time>2020-08-08T14:15:23Z</time>
      </trkpt>
      <trkpt lat="41.0421770" lon="0.6032000">
        <ele>24.0</ele>
        <time>2020-08-08T14:15:24Z</time>
      </trkpt>
      <trkpt lat="41.0422130" lon="0.6032940">
        <ele>24.2</ele>
        <time>2020-08-08T14:15:26Z</time>
      </trkpt>
      <trkpt lat="41.0422440" lon="0.6033820">
        <ele>24.4</ele>
        <time>2020-08-08T14:15:28Z</time>
      </trkpt>
      <trkpt lat="41.0422610" lon="0.6034320">
        <ele>24.6</ele>
        <time>2020-08-08T14:15:29Z</time>
      </trkpt>
      <trkpt lat="41.0422780" lon="0.6034800">
        <ele>24.7</ele>
        <time>2020-08-08T14:15:30Z</time>
      </trkpt>
      <trkpt lat="41.0423070" lon="0.6035740">
        <ele>24.9</ele>
        <time>2020-08-08T14:15:32Z</time>
      </trkpt>
      <trkpt lat="41.0423320" lon="0.6036660">
        <ele>25.2</ele>
        <time>2020-08-08T14:15:34Z</time>
      </trkpt>
      <trkpt lat="41.0423440" lon="0.6037110">
        <ele>25.3</ele>
        <time>2020-08-08T14:15:35Z</time>
      </trkpt>
      <trkpt lat="41.0423540" lon="0.6037520">
        <ele>25.5</ele>
        <time>2020-08-08T14:15:36Z</time>
      </trkpt>
      <trkpt lat="41.0423790" lon="0.6038330">
        <ele>25.8</ele>
        <time>2020-08-08T14:15:38Z</time>
      </trkpt>
      <trkpt lat="41.0423920" lon="0.6038710">
        <ele>25.9</ele>
        <time>2020-08-08T14:15:39Z</time>
      </trkpt>
      <trkpt lat="41.0424210" lon="0.6039340">
        <ele>26.2</ele>
        <time>2020-08-08T14:15:41Z</time>
      </trkpt>
      <trkpt lat="41.0424370" lon="0.6039670">
        <ele>26.3</ele>
        <time>2020-08-08T14:15:42Z</time>
      </trkpt>
      <trkpt lat="41.0424540" lon="0.6039980">
        <ele>26.4</ele>
        <time>2020-08-08T14:15:43Z</time>
      </trkpt>
      <trkpt lat="41.0424680" lon="0.6040290">
        <ele>26.5</ele>
        <time>2020-08-08T14:15:44Z</time>
      </trkpt>
      <trkpt lat="41.0424820" lon="0.6040610">
        <ele>26.7</ele>
        <time>2020-08-08T14:15:45Z</time>
      </trkpt>
      <trkpt lat="41.0424930" lon="0.6040910">
        <ele>26.8</ele>
        <time>2020-08-08T14:15:46Z</time>
      </trkpt>
      <trkpt lat="41.0425110" lon="0.6041470">
        <ele>27.0</ele>
        <time>2020-08-08T14:15:48Z</time>
      </trkpt>
      <trkpt lat="41.0425220" lon="0.6041740">
        <ele>27.1</ele>
        <time>2020-08-08T14:15:49Z</time>
      </trkpt>
      <trkpt lat="41.0425480" lon="0.6042240">
        <ele>27.4</ele>
        <time>2020-08-08T14:15:51Z</time>
      </trkpt>
      <trkpt lat="41.0425780" lon="0.6042790">
        <ele>27.7</ele>
        <time>2020-08-08T14:15:53Z</time>
      </trkpt>
      <trkpt lat="41.0425970" lon="0.6043170">
        <ele>27.8</ele>
        <time>2020-08-08T14:15:54Z</time>
      </trkpt>
      <trkpt lat="41.0426030" lon="0.6043300">
        <ele>27.9</ele>
        <time>2020-08-08T14:15:55Z</time>
      </trkpt>
      <trkpt lat="41.0426170" lon="0.6043570">
        <ele>28.0</ele>
        <time>2020-08-08T14:15:56Z</time>
      </trkpt>
      <trkpt lat="41.0426440" lon="0.6044020">
        <ele>28.2</ele>
        <time>2020-08-08T14:15:58Z</time>
      </trkpt>
      <trkpt lat="41.0426800" lon="0.6044430">
        <ele>28.4</ele>
        <time>2020-08-08T14:16:00Z</time>
      </trkpt>
      <trkpt lat="41.0427000" lon="0.6044630">
        <ele>28.4</ele>
        <time>2020-08-08T14:16:01Z</time>
      </trkpt>
      <trkpt lat="41.0427480" lon="0.6045040">
        <ele>28.5</ele>
        <time>2020-08-08T14:16:03Z</time>
      </trkpt>
      <trkpt lat="41.0427760" lon="0.6045220">
        <ele>28.6</ele>
        <time>2020-08-08T14:16:04Z</time>
      </trkpt>
      <trkpt lat="41.0428380" lon="0.6045600">
        <ele>28.6</ele>
        <time>2020-08-08T14:16:06Z</time>
      </trkpt>
      <trkpt lat="41.0428680" lon="0.6045780">
        <ele>28.6</ele>
        <time>2020-08-08T14:16:07Z</time>
      </trkpt>
      <trkpt lat="41.0428980" lon="0.6045980">
        <ele>28.6</ele>
        <time>2020-08-08T14:16:08Z</time>
      </trkpt>
      <trkpt lat="41.0429630" lon="0.6046400">
        <ele>28.6</ele>
        <time>2020-08-08T14:16:10Z</time>
      </trkpt>
      <trkpt lat="41.0429960" lon="0.6046610">
        <ele>28.6</ele>
        <time>2020-08-08T14:16:11Z</time>
      </trkpt>
      <trkpt lat="41.0430290" lon="0.6046810">
        <ele>28.5</ele>
        <time>2020-08-08T14:16:12Z</time>
      </trkpt>
      <trkpt lat="41.0430980" lon="0.6047250">
        <ele>28.5</ele>
        <time>2020-08-08T14:16:14Z</time>
      </trkpt>
      <trkpt lat="41.0431650" lon="0.6047700">
        <ele>28.5</ele>
        <time>2020-08-08T14:16:16Z</time>
      </trkpt>
      <trkpt lat="41.0432000" lon="0.6047940">
        <ele>28.5</ele>
        <time>2020-08-08T14:16:17Z</time>
      </trkpt>
      <trkpt lat="41.0432730" lon="0.6048470">
        <ele>28.4</ele>
        <time>2020-08-08T14:16:19Z</time>
      </trkpt>
      <trkpt lat="41.0433450" lon="0.6049050">
        <ele>28.4</ele>
        <time>2020-08-08T14:16:21Z</time>
      </trkpt>
      <trkpt lat="41.0433840" lon="0.6049360">
        <ele>28.4</ele>
        <time>2020-08-08T14:16:22Z</time>
      </trkpt>
      <trkpt lat="41.0434160" lon="0.6049620">
        <ele>28.4</ele>
        <time>2020-08-08T14:16:23Z</time>
      </trkpt>
      <trkpt lat="41.0434810" lon="0.6050090">
        <ele>28.3</ele>
        <time>2020-08-08T14:16:25Z</time>
      </trkpt>
      <trkpt lat="41.0435240" lon="0.6050390">
        <ele>28.2</ele>
        <time>2020-08-08T14:16:26Z</time>
      </trkpt>
      <trkpt lat="41.0435590" lon="0.6050610">
        <ele>28.2</ele>
        <time>2020-08-08T14:16:27Z</time>
      </trkpt>
      <trkpt lat="41.0436400" lon="0.6051090">
        <ele>28.1</ele>
        <time>2020-08-08T14:16:29Z</time>
      </trkpt>
      <trkpt lat="41.0437220" lon="0.6051670">
        <ele>28.0</ele>
        <time>2020-08-08T14:16:31Z</time>
      </trkpt>
      <trkpt lat="41.0437590" lon="0.6052000">
        <ele>28.0</ele>
        <time>2020-08-08T14:16:32Z</time>
      </trkpt>
      <trkpt lat="41.0438160" lon="0.6052630">
        <ele>28.0</ele>
        <time>2020-08-08T14:16:34Z</time>
      </trkpt>
      <trkpt lat="41.0438490" lon="0.6053050">
        <ele>28.0</ele>
        <time>2020-08-08T14:16:35Z</time>
      </trkpt>
      <trkpt lat="41.0438780" lon="0.6053490">
        <ele>28.0</ele>
        <time>2020-08-08T14:16:36Z</time>
      </trkpt>
      <trkpt lat="41.0439290" lon="0.6054130">
        <ele>28.0</ele>
        <time>2020-08-08T14:16:38Z</time>
      </trkpt>
      <trkpt lat="41.0439590" lon="0.6054470">
        <ele>28.0</ele>
        <time>2020-08-08T14:16:39Z</time>
      </trkpt>
      <trkpt lat="41.0439940" lon="0.6054830">
        <ele>28.0</ele>
        <time>2020-08-08T14:16:40Z</time>
      </trkpt>
      <trkpt lat="41.0440620" lon="0.6055610">
        <ele>28.0</ele>
        <time>2020-08-08T14:16:42Z</time>
      </trkpt>
      <trkpt lat="41.0441140" lon="0.6056260">
        <ele>28.0</ele>
        <time>2020-08-08T14:16:44Z</time>
      </trkpt>
      <trkpt lat="41.0441490" lon="0.6056660">
        <ele>28.0</ele>
        <time>2020-08-08T14:16:45Z</time>
      </trkpt>
      <trkpt lat="41.0442140" lon="0.6057390">
        <ele>28.1</ele>
        <time>2020-08-08T14:16:47Z</time>
      </trkpt>
      <trkpt lat="41.0442500" lon="0.6057870">
        <ele>28.1</ele>
        <time>2020-08-08T14:16:48Z</time>
      </trkpt>
      <trkpt lat="41.0442760" lon="0.6058230">
        <ele>28.1</ele>
        <time>2020-08-08T14:16:49Z</time>
      </trkpt>
      <trkpt lat="41.0443510" lon="0.6059130">
        <ele>28.2</ele>
        <time>2020-08-08T14:16:51Z</time>
      </trkpt>
      <trkpt lat="41.0443850" lon="0.6059500">
        <ele>28.2</ele>
        <time>2020-08-08T14:16:52Z</time>
      </trkpt>
      <trkpt lat="41.0444470" lon="0.6060210">
        <ele>28.2</ele>
        <time>2020-08-08T14:16:54Z</time>
      </trkpt>
      <trkpt lat="41.0445180" lon="0.6061110">
        <ele>28.2</ele>
        <time>2020-08-08T14:16:56Z</time>
      </trkpt>
      <trkpt lat="41.0445570" lon="0.6061580">
        <ele>28.2</ele>
        <time>2020-08-08T14:16:57Z</time>
      </trkpt>
      <trkpt lat="41.0446240" lon="0.6062450">
        <ele>28.1</ele>
        <time>2020-08-08T14:16:59Z</time>
      </trkpt>
      <trkpt lat="41.0446500" lon="0.6062850">
        <ele>28.1</ele>
        <time>2020-08-08T14:17:00Z</time>
      </trkpt>
      <trkpt lat="41.0447160" lon="0.6063640">
        <ele>28.0</ele>
        <time>2020-08-08T14:17:02Z</time>
      </trkpt>
      <trkpt lat="41.0447780" lon="0.6064360">
        <ele>28.0</ele>
        <time>2020-08-08T14:17:04Z</time>
      </trkpt>
      <trkpt lat="41.0448080" lon="0.6064810">
        <ele>27.9</ele>
        <time>2020-08-08T14:17:05Z</time>
      </trkpt>
      <trkpt lat="41.0448430" lon="0.6065290">
        <ele>27.9</ele>
        <time>2020-08-08T14:17:06Z</time>
      </trkpt>
      <trkpt lat="41.0449110" lon="0.6066050">
        <ele>27.8</ele>
        <time>2020-08-08T14:17:08Z</time>
      </trkpt>
      <trkpt lat="41.0449810" lon="0.6066980">
        <ele>27.6</ele>
        <time>2020-08-08T14:17:10Z</time>
      </trkpt>
      <trkpt lat="41.0450210" lon="0.6067420">
        <ele>27.5</ele>
        <time>2020-08-08T14:17:11Z</time>
      </trkpt>
      <trkpt lat="41.0451080" lon="0.6068400">
        <ele>27.2</ele>
        <time>2020-08-08T14:17:13Z</time>
      </trkpt>
      <trkpt lat="41.0451470" lon="0.6068850">
        <ele>27.1</ele>
        <time>2020-08-08T14:17:14Z</time>
      </trkpt>
      <trkpt lat="41.0452250" lon="0.6069740">
        <ele>26.9</ele>
        <time>2020-08-08T14:17:16Z</time>
      </trkpt>
      <trkpt lat="41.0452680" lon="0.6070200">
        <ele>26.8</ele>
        <time>2020-08-08T14:17:17Z</time>
      </trkpt>
      <trkpt lat="41.0453490" lon="0.6071180">
        <ele>26.6</ele>
        <time>2020-08-08T14:17:19Z</time>
      </trkpt>
      <trkpt lat="41.0453900" lon="0.6071760">
        <ele>26.5</ele>
        <time>2020-08-08T14:17:20Z</time>
      </trkpt>
      <trkpt lat="41.0454320" lon="0.6072350">
        <ele>26.4</ele>
        <time>2020-08-08T14:17:21Z</time>
      </trkpt>
      <trkpt lat="41.0455290" lon="0.6073330">
        <ele>26.2</ele>
        <time>2020-08-08T14:17:23Z</time>
      </trkpt>
      <trkpt lat="41.0455810" lon="0.6073770">
        <ele>26.1</ele>
        <time>2020-08-08T14:17:24Z</time>
      </trkpt>
      <trkpt lat="41.0456630" lon="0.6074650">
        <ele>25.9</ele>
        <time>2020-08-08T14:17:26Z</time>
      </trkpt>
      <trkpt lat="41.0457050" lon="0.6075180">
        <ele>25.8</ele>
        <time>2020-08-08T14:17:27Z</time>
      </trkpt>
      <trkpt lat="41.0457800" lon="0.6076330">
        <ele>25.7</ele>
        <time>2020-08-08T14:17:29Z</time>
      </trkpt>
      <trkpt lat="41.0458210" lon="0.6076950">
        <ele>25.6</ele>
        <time>2020-08-08T14:17:30Z</time>
      </trkpt>
      <trkpt lat="41.0458600" lon="0.6077570">
        <ele>25.5</ele>
        <time>2020-08-08T14:17:31Z</time>
      </trkpt>
      <trkpt lat="41.0459380" lon="0.6078800">
        <ele>25.4</ele>
        <time>2020-08-08T14:17:33Z</time>
      </trkpt>
      <trkpt lat="41.0459780" lon="0.6079350">
        <ele>25.4</ele>
        <time>2020-08-08T14:17:34Z</time>
      </trkpt>
      <trkpt lat="41.0460630" lon="0.6080250">
        <ele>25.3</ele>
        <time>2020-08-08T14:17:37Z</time>
      </trkpt>
      <trkpt lat="41.0461520" lon="0.6081290">
        <ele>25.3</ele>
        <time>2020-08-08T14:17:38Z</time>
      </trkpt>
      <trkpt lat="41.0461990" lon="0.6081810">
        <ele>25.3</ele>
        <time>2020-08-08T14:17:39Z</time>
      </trkpt>
      <trkpt lat="41.0462880" lon="0.6082910">
        <ele>25.3</ele>
        <time>2020-08-08T14:17:41Z</time>
      </trkpt>
      <trkpt lat="41.0463720" lon="0.6084100">
        <ele>25.3</ele>
        <time>2020-08-08T14:17:43Z</time>
      </trkpt>
      <trkpt lat="41.0464570" lon="0.6084960">
        <ele>25.2</ele>
        <time>2020-08-08T14:17:45Z</time>
      </trkpt>
      <trkpt lat="41.0464960" lon="0.6085420">
        <ele>25.1</ele>
        <time>2020-08-08T14:17:46Z</time>
      </trkpt>
      <trkpt lat="41.0465350" lon="0.6085980">
        <ele>25.0</ele>
        <time>2020-08-08T14:17:47Z</time>
      </trkpt>
      <trkpt lat="41.0466170" lon="0.6087110">
        <ele>24.9</ele>
        <time>2020-08-08T14:17:49Z</time>
      </trkpt>
      <trkpt lat="41.0466660" lon="0.6087680">
        <ele>24.8</ele>
        <time>2020-08-08T14:17:50Z</time>
      </trkpt>
      <trkpt lat="41.0467120" lon="0.6088250">
        <ele>24.8</ele>
        <time>2020-08-08T14:17:51Z</time>
      </trkpt>
      <trkpt lat="41.0467570" lon="0.6088850">
        <ele>24.8</ele>
        <time>2020-08-08T14:17:52Z</time>
      </trkpt>
      <trkpt lat="41.0468350" lon="0.6089850">
        <ele>24.8</ele>
        <time>2020-08-08T14:17:54Z</time>
      </trkpt>
      <trkpt lat="41.0469220" lon="0.6090790">
        <ele>24.9</ele>
        <time>2020-08-08T14:17:56Z</time>
      </trkpt>
      <trkpt lat="41.0470100" lon="0.6091830">
        <ele>24.9</ele>
        <time>2020-08-08T14:17:58Z</time>
      </trkpt>
      <trkpt lat="41.0470560" lon="0.6092410">
        <ele>25.0</ele>
        <time>2020-08-08T14:17:59Z</time>
      </trkpt>
      <trkpt lat="41.0471420" lon="0.6093580">
        <ele>25.0</ele>
        <time>2020-08-08T14:18:01Z</time>
      </trkpt>
      <trkpt lat="41.0472250" lon="0.6094850">
        <ele>25.2</ele>
        <time>2020-08-08T14:18:03Z</time>
      </trkpt>
      <trkpt lat="41.0473030" lon="0.6096040">
        <ele>25.3</ele>
        <time>2020-08-08T14:18:05Z</time>
      </trkpt>
      <trkpt lat="41.0473810" lon="0.6097080">
        <ele>25.4</ele>
        <time>2020-08-08T14:18:07Z</time>
      </trkpt>
      <trkpt lat="41.0474130" lon="0.6097560">
        <ele>25.4</ele>
        <time>2020-08-08T14:18:08Z</time>
      </trkpt>
      <trkpt lat="41.0474410" lon="0.6098100">
        <ele>25.4</ele>
        <time>2020-08-08T14:18:09Z</time>
      </trkpt>
      <trkpt lat="41.0474650" lon="0.6098570">
        <ele>25.5</ele>
        <time>2020-08-08T14:18:10Z</time>
      </trkpt>
      <trkpt lat="41.0475300" lon="0.6099540">
        <ele>25.5</ele>
        <time>2020-08-08T14:18:12Z</time>
      </trkpt>
      <trkpt lat="41.0476060" lon="0.6100500">
        <ele>25.5</ele>
        <time>2020-08-08T14:18:14Z</time>
      </trkpt>
      <trkpt lat="41.0476430" lon="0.6101020">
        <ele>25.5</ele>
        <time>2020-08-08T14:18:15Z</time>
      </trkpt>
      <trkpt lat="41.0477170" lon="0.6101990">
        <ele>25.5</ele>
        <time>2020-08-08T14:18:17Z</time>
      </trkpt>
      <trkpt lat="41.0477560" lon="0.6102500">
        <ele>25.5</ele>
        <time>2020-08-08T14:18:18Z</time>
      </trkpt>
      <trkpt lat="41.0478250" lon="0.6103510">
        <ele>25.6</ele>
        <time>2020-08-08T14:18:20Z</time>
      </trkpt>
      <trkpt lat="41.0478650" lon="0.6103970">
        <ele>25.7</ele>
        <time>2020-08-08T14:18:21Z</time>
      </trkpt>
      <trkpt lat="41.0479030" lon="0.6104440">
        <ele>25.7</ele>
        <time>2020-08-08T14:18:22Z</time>
      </trkpt>
      <trkpt lat="41.0479720" lon="0.6105390">
        <ele>25.8</ele>
        <time>2020-08-08T14:18:24Z</time>
      </trkpt>
      <trkpt lat="41.0480410" lon="0.6106400">
        <ele>25.8</ele>
        <time>2020-08-08T14:18:26Z</time>
      </trkpt>
      <trkpt lat="41.0480630" lon="0.6107030">
        <ele>25.9</ele>
        <time>2020-08-08T14:18:27Z</time>
      </trkpt>
      <trkpt lat="41.0481110" lon="0.6108080">
        <ele>25.9</ele>
        <time>2020-08-08T14:18:29Z</time>
      </trkpt>
      <trkpt lat="41.0481440" lon="0.6108530">
        <ele>25.9</ele>
        <time>2020-08-08T14:18:30Z</time>
      </trkpt>
      <trkpt lat="41.0482190" lon="0.6109470">
        <ele>26.0</ele>
        <time>2020-08-08T14:18:32Z</time>
      </trkpt>
      <trkpt lat="41.0482600" lon="0.6109980">
        <ele>26.0</ele>
        <time>2020-08-08T14:18:33Z</time>
      </trkpt>
      <trkpt lat="41.0483350" lon="0.6110880">
        <ele>26.0</ele>
        <time>2020-08-08T14:18:35Z</time>
      </trkpt>
      <trkpt lat="41.0483710" lon="0.6111280">
        <ele>26.0</ele>
        <time>2020-08-08T14:18:36Z</time>
      </trkpt>
      <trkpt lat="41.0484260" lon="0.6112240">
        <ele>26.0</ele>
        <time>2020-08-08T14:18:38Z</time>
      </trkpt>
      <trkpt lat="41.0484620" lon="0.6112690">
        <ele>26.0</ele>
        <time>2020-08-08T14:18:39Z</time>
      </trkpt>
      <trkpt lat="41.0484970" lon="0.6113080">
        <ele>26.0</ele>
        <time>2020-08-08T14:18:40Z</time>
      </trkpt>
      <trkpt lat="41.0485520" lon="0.6113940">
        <ele>25.9</ele>
        <time>2020-08-08T14:18:42Z</time>
      </trkpt>
      <trkpt lat="41.0486130" lon="0.6114910">
        <ele>25.9</ele>
        <time>2020-08-08T14:18:44Z</time>
      </trkpt>
      <trkpt lat="41.0486420" lon="0.6115430">
        <ele>25.9</ele>
        <time>2020-08-08T14:18:46Z</time>
      </trkpt>
      <trkpt lat="41.0487140" lon="0.6116450">
        <ele>26.0</ele>
        <time>2020-08-08T14:18:47Z</time>
      </trkpt>
      <trkpt lat="41.0487480" lon="0.6117010">
        <ele>26.0</ele>
        <time>2020-08-08T14:18:48Z</time>
      </trkpt>
      <trkpt lat="41.0488110" lon="0.6118060">
        <ele>26.0</ele>
        <time>2020-08-08T14:18:50Z</time>
      </trkpt>
      <trkpt lat="41.0488430" lon="0.6118540">
        <ele>26.1</ele>
        <time>2020-08-08T14:18:51Z</time>
      </trkpt>
      <trkpt lat="41.0488970" lon="0.6119530">
        <ele>26.1</ele>
        <time>2020-08-08T14:18:53Z</time>
      </trkpt>
      <trkpt lat="41.0489570" lon="0.6120460">
        <ele>26.2</ele>
        <time>2020-08-08T14:18:55Z</time>
      </trkpt>
      <trkpt lat="41.0489900" lon="0.6120920">
        <ele>26.2</ele>
        <time>2020-08-08T14:18:56Z</time>
      </trkpt>
      <trkpt lat="41.0490210" lon="0.6121330">
        <ele>26.2</ele>
        <time>2020-08-08T14:18:57Z</time>
      </trkpt>
      <trkpt lat="41.0490430" lon="0.6121640">
        <ele>26.3</ele>
        <time>2020-08-08T14:18:58Z</time>
      </trkpt>
      <trkpt lat="41.0491170" lon="0.6122640">
        <ele>26.3</ele>
        <time>2020-08-08T14:19:00Z</time>
      </trkpt>
      <trkpt lat="41.0491560" lon="0.6123110">
        <ele>26.3</ele>
        <time>2020-08-08T14:19:01Z</time>
      </trkpt>
      <trkpt lat="41.0491890" lon="0.6123610">
        <ele>26.3</ele>
        <time>2020-08-08T14:19:02Z</time>
      </trkpt>
      <trkpt lat="41.0492220" lon="0.6124030">
        <ele>26.3</ele>
        <time>2020-08-08T14:19:03Z</time>
      </trkpt>
      <trkpt lat="41.0492570" lon="0.6124350">
        <ele>26.3</ele>
        <time>2020-08-08T14:19:04Z</time>
      </trkpt>
      <trkpt lat="41.0493360" lon="0.6125070">
        <ele>26.3</ele>
        <time>2020-08-08T14:19:06Z</time>
      </trkpt>
      <trkpt lat="41.0493720" lon="0.6125410">
        <ele>26.3</ele>
        <time>2020-08-08T14:19:07Z</time>
      </trkpt>
      <trkpt lat="41.0494450" lon="0.6126240">
        <ele>26.3</ele>
        <time>2020-08-08T14:19:09Z</time>
      </trkpt>
      <trkpt lat="41.0495200" lon="0.6127110">
        <ele>26.3</ele>
        <time>2020-08-08T14:19:11Z</time>
      </trkpt>
      <trkpt lat="41.0495520" lon="0.6127450">
        <ele>26.3</ele>
        <time>2020-08-08T14:19:12Z</time>
      </trkpt>
      <trkpt lat="41.0496170" lon="0.6128300">
        <ele>26.3</ele>
        <time>2020-08-08T14:19:14Z</time>
      </trkpt>
      <trkpt lat="41.0496490" lon="0.6128870">
        <ele>26.3</ele>
        <time>2020-08-08T14:19:15Z</time>
      </trkpt>
      <trkpt lat="41.0496860" lon="0.6129390">
        <ele>26.3</ele>
        <time>2020-08-08T14:19:16Z</time>
      </trkpt>
      <trkpt lat="41.0497690" lon="0.6130310">
        <ele>26.2</ele>
        <time>2020-08-08T14:19:18Z</time>
      </trkpt>
      <trkpt lat="41.0497900" lon="0.6130890">
        <ele>26.2</ele>
        <time>2020-08-08T14:19:19Z</time>
      </trkpt>
      <trkpt lat="41.0498070" lon="0.6131310">
        <ele>26.2</ele>
        <time>2020-08-08T14:19:20Z</time>
      </trkpt>
      <trkpt lat="41.0498470" lon="0.6132060">
        <ele>26.2</ele>
        <time>2020-08-08T14:19:22Z</time>
      </trkpt>
      <trkpt lat="41.0498820" lon="0.6132690">
        <ele>26.2</ele>
        <time>2020-08-08T14:19:23Z</time>
      </trkpt>
      <trkpt lat="41.0499510" lon="0.6133830">
        <ele>26.2</ele>
        <time>2020-08-08T14:19:25Z</time>
      </trkpt>
      <trkpt lat="41.0499920" lon="0.6134370">
        <ele>26.2</ele>
        <time>2020-08-08T14:19:26Z</time>
      </trkpt>
      <trkpt lat="41.0500700" lon="0.6135420">
        <ele>26.0</ele>
        <time>2020-08-08T14:19:28Z</time>
      </trkpt>
      <trkpt lat="41.0501110" lon="0.6135890">
        <ele>26.0</ele>
        <time>2020-08-08T14:19:29Z</time>
      </trkpt>
      <trkpt lat="41.0501470" lon="0.6136350">
        <ele>25.9</ele>
        <time>2020-08-08T14:19:30Z</time>
      </trkpt>
      <trkpt lat="41.0502150" lon="0.6137210">
        <ele>25.9</ele>
        <time>2020-08-08T14:19:32Z</time>
      </trkpt>
      <trkpt lat="41.0502460" lon="0.6137710">
        <ele>25.9</ele>
        <time>2020-08-08T14:19:33Z</time>
      </trkpt>
      <trkpt lat="41.0503220" lon="0.6138390">
        <ele>25.9</ele>
        <time>2020-08-08T14:19:35Z</time>
      </trkpt>
      <trkpt lat="41.0503610" lon="0.6138790">
        <ele>25.9</ele>
        <time>2020-08-08T14:19:36Z</time>
      </trkpt>
      <trkpt lat="41.0504300" lon="0.6139680">
        <ele>25.8</ele>
        <time>2020-08-08T14:19:38Z</time>
      </trkpt>
      <trkpt lat="41.0505080" lon="0.6140590">
        <ele>25.7</ele>
        <time>2020-08-08T14:19:40Z</time>
      </trkpt>
      <trkpt lat="41.0505470" lon="0.6141070">
        <ele>25.7</ele>
        <time>2020-08-08T14:19:41Z</time>
      </trkpt>
      <trkpt lat="41.0505870" lon="0.6141550">
        <ele>25.7</ele>
        <time>2020-08-08T14:19:42Z</time>
      </trkpt>
      <trkpt lat="41.0506670" lon="0.6142440">
        <ele>25.7</ele>
        <time>2020-08-08T14:19:44Z</time>
      </trkpt>
      <trkpt lat="41.0507510" lon="0.6143340">
        <ele>25.6</ele>
        <time>2020-08-08T14:19:46Z</time>
      </trkpt>
      <trkpt lat="41.0507920" lon="0.6143780">
        <ele>25.6</ele>
        <time>2020-08-08T14:19:47Z</time>
      </trkpt>
      <trkpt lat="41.0508670" lon="0.6144690">
        <ele>25.5</ele>
        <time>2020-08-08T14:19:49Z</time>
      </trkpt>
      <trkpt lat="41.0509050" lon="0.6145090">
        <ele>25.5</ele>
        <time>2020-08-08T14:19:50Z</time>
      </trkpt>
      <trkpt lat="41.0509440" lon="0.6145470">
        <ele>25.5</ele>
        <time>2020-08-08T14:19:51Z</time>
      </trkpt>
      <trkpt lat="41.0510180" lon="0.6146210">
        <ele>25.5</ele>
        <time>2020-08-08T14:19:53Z</time>
      </trkpt>
      <trkpt lat="41.0511000" lon="0.6147120">
        <ele>25.5</ele>
        <time>2020-08-08T14:19:55Z</time>
      </trkpt>
      <trkpt lat="41.0511370" lon="0.6147610">
        <ele>25.5</ele>
        <time>2020-08-08T14:19:56Z</time>
      </trkpt>
      <trkpt lat="41.0512030" lon="0.6148520">
        <ele>25.5</ele>
        <time>2020-08-08T14:19:58Z</time>
      </trkpt>
      <trkpt lat="41.0512410" lon="0.6148910">
        <ele>25.5</ele>
        <time>2020-08-08T14:19:59Z</time>
      </trkpt>
      <trkpt lat="41.0513120" lon="0.6149640">
        <ele>25.5</ele>
        <time>2020-08-08T14:20:01Z</time>
      </trkpt>
      <trkpt lat="41.0513800" lon="0.6150370">
        <ele>25.5</ele>
        <time>2020-08-08T14:20:03Z</time>
      </trkpt>
      <trkpt lat="41.0514140" lon="0.6150770">
        <ele>25.5</ele>
        <time>2020-08-08T14:20:04Z</time>
      </trkpt>
      <trkpt lat="41.0514550" lon="0.6151170">
        <ele>25.6</ele>
        <time>2020-08-08T14:20:05Z</time>
      </trkpt>
      <trkpt lat="41.0515310" lon="0.6151950">
        <ele>25.6</ele>
        <time>2020-08-08T14:20:07Z</time>
      </trkpt>
      <trkpt lat="41.0516150" lon="0.6152520">
        <ele>25.6</ele>
        <time>2020-08-08T14:20:09Z</time>
      </trkpt>
      <trkpt lat="41.0517030" lon="0.6153050">
        <ele>25.6</ele>
        <time>2020-08-08T14:20:11Z</time>
      </trkpt>
      <trkpt lat="41.0517480" lon="0.6153340">
        <ele>25.6</ele>
        <time>2020-08-08T14:20:12Z</time>
      </trkpt>
      <trkpt lat="41.0518180" lon="0.6153690">
        <ele>25.6</ele>
        <time>2020-08-08T14:20:14Z</time>
      </trkpt>
      <trkpt lat="41.0519010" lon="0.6154330">
        <ele>25.7</ele>
        <time>2020-08-08T14:20:16Z</time>
      </trkpt>
      <trkpt lat="41.0519870" lon="0.6155030">
        <ele>25.7</ele>
        <time>2020-08-08T14:20:18Z</time>
      </trkpt>
      <trkpt lat="41.0520250" lon="0.6155390">
        <ele>25.7</ele>
        <time>2020-08-08T14:20:19Z</time>
      </trkpt>
      <trkpt lat="41.0521130" lon="0.6156200">
        <ele>25.8</ele>
        <time>2020-08-08T14:20:21Z</time>
      </trkpt>
      <trkpt lat="41.0521980" lon="0.6156880">
        <ele>25.8</ele>
        <time>2020-08-08T14:20:23Z</time>
      </trkpt>
      <trkpt lat="41.0522740" lon="0.6157590">
        <ele>25.9</ele>
        <time>2020-08-08T14:20:25Z</time>
      </trkpt>
      <trkpt lat="41.0523070" lon="0.6157930">
        <ele>26.0</ele>
        <time>2020-08-08T14:20:26Z</time>
      </trkpt>
      <trkpt lat="41.0523390" lon="0.6158260">
        <ele>26.0</ele>
        <time>2020-08-08T14:20:27Z</time>
      </trkpt>
      <trkpt lat="41.0523800" lon="0.6158620">
        <ele>26.0</ele>
        <time>2020-08-08T14:20:28Z</time>
      </trkpt>
      <trkpt lat="41.0524140" lon="0.6158990">
        <ele>26.1</ele>
        <time>2020-08-08T14:20:29Z</time>
      </trkpt>
      <trkpt lat="41.0524530" lon="0.6159340">
        <ele>26.1</ele>
        <time>2020-08-08T14:20:30Z</time>
      </trkpt>
      <trkpt lat="41.0524930" lon="0.6159600">
        <ele>26.1</ele>
        <time>2020-08-08T14:20:31Z</time>
      </trkpt>
      <trkpt lat="41.0525610" lon="0.6160180">
        <ele>26.1</ele>
        <time>2020-08-08T14:20:33Z</time>
      </trkpt>
      <trkpt lat="41.0526030" lon="0.6160630">
        <ele>26.1</ele>
        <time>2020-08-08T14:20:34Z</time>
      </trkpt>
      <trkpt lat="41.0526810" lon="0.6161420">
        <ele>26.0</ele>
        <time>2020-08-08T14:20:36Z</time>
      </trkpt>
      <trkpt lat="41.0527140" lon="0.6161860">
        <ele>26.0</ele>
        <time>2020-08-08T14:20:37Z</time>
      </trkpt>
      <trkpt lat="41.0527830" lon="0.6162500">
        <ele>26.0</ele>
        <time>2020-08-08T14:20:39Z</time>
      </trkpt>
      <trkpt lat="41.0528150" lon="0.6162710">
        <ele>26.0</ele>
        <time>2020-08-08T14:20:40Z</time>
      </trkpt>
      <trkpt lat="41.0528890" lon="0.6163260">
        <ele>26.0</ele>
        <time>2020-08-08T14:20:42Z</time>
      </trkpt>
      <trkpt lat="41.0529730" lon="0.6163940">
        <ele>26.1</ele>
        <time>2020-08-08T14:20:44Z</time>
      </trkpt>
      <trkpt lat="41.0530610" lon="0.6164600">
        <ele>26.2</ele>
        <time>2020-08-08T14:20:46Z</time>
      </trkpt>
      <trkpt lat="41.0531030" lon="0.6164900">
        <ele>26.3</ele>
        <time>2020-08-08T14:20:47Z</time>
      </trkpt>
      <trkpt lat="41.0531780" lon="0.6165410">
        <ele>26.5</ele>
        <time>2020-08-08T14:20:49Z</time>
      </trkpt>
      <trkpt lat="41.0532180" lon="0.6165710">
        <ele>26.5</ele>
        <time>2020-08-08T14:20:50Z</time>
      </trkpt>
      <trkpt lat="41.0532850" lon="0.6166160">
        <ele>26.7</ele>
        <time>2020-08-08T14:20:52Z</time>
      </trkpt>
      <trkpt lat="41.0533150" lon="0.6166390">
        <ele>26.8</ele>
        <time>2020-08-08T14:20:53Z</time>
      </trkpt>
      <trkpt lat="41.0533740" lon="0.6166930">
        <ele>27.0</ele>
        <time>2020-08-08T14:20:55Z</time>
      </trkpt>
      <trkpt lat="41.0534030" lon="0.6167220">
        <ele>27.1</ele>
        <time>2020-08-08T14:20:56Z</time>
      </trkpt>
      <trkpt lat="41.0534270" lon="0.6167440">
        <ele>27.1</ele>
        <time>2020-08-08T14:20:57Z</time>
      </trkpt>
      <trkpt lat="41.0534510" lon="0.6167670">
        <ele>27.2</ele>
        <time>2020-08-08T14:20:58Z</time>
      </trkpt>
      <trkpt lat="41.0535060" lon="0.6168140">
        <ele>27.4</ele>
        <time>2020-08-08T14:21:00Z</time>
      </trkpt>
      <trkpt lat="41.0535380" lon="0.6168410">
        <ele>27.5</ele>
        <time>2020-08-08T14:21:01Z</time>
      </trkpt>
      <trkpt lat="41.0535990" lon="0.6168930">
        <ele>27.6</ele>
        <time>2020-08-08T14:21:03Z</time>
      </trkpt>
      <trkpt lat="41.0536210" lon="0.6169150">
        <ele>27.7</ele>
        <time>2020-08-08T14:21:04Z</time>
      </trkpt>
      <trkpt lat="41.0536740" lon="0.6169730">
        <ele>27.8</ele>
        <time>2020-08-08T14:21:06Z</time>
      </trkpt>
      <trkpt lat="41.0537020" lon="0.6170060">
        <ele>27.9</ele>
        <time>2020-08-08T14:21:07Z</time>
      </trkpt>
      <trkpt lat="41.0537630" lon="0.6170770">
        <ele>28.0</ele>
        <time>2020-08-08T14:21:09Z</time>
      </trkpt>
      <trkpt lat="41.0537910" lon="0.6171170">
        <ele>28.1</ele>
        <time>2020-08-08T14:21:10Z</time>
      </trkpt>
      <trkpt lat="41.0538520" lon="0.6172070">
        <ele>28.4</ele>
        <time>2020-08-08T14:21:12Z</time>
      </trkpt>
      <trkpt lat="41.0539060" lon="0.6172820">
        <ele>28.6</ele>
        <time>2020-08-08T14:21:14Z</time>
      </trkpt>
      <trkpt lat="41.0539380" lon="0.6173220">
        <ele>28.8</ele>
        <time>2020-08-08T14:21:15Z</time>
      </trkpt>
      <trkpt lat="41.0539640" lon="0.6173550">
        <ele>28.9</ele>
        <time>2020-08-08T14:21:16Z</time>
      </trkpt>
      <trkpt lat="41.0540130" lon="0.6174230">
        <ele>29.1</ele>
        <time>2020-08-08T14:21:18Z</time>
      </trkpt>
      <trkpt lat="41.0540640" lon="0.6174890">
        <ele>29.4</ele>
        <time>2020-08-08T14:21:20Z</time>
      </trkpt>
      <trkpt lat="41.0541180" lon="0.6175540">
        <ele>29.6</ele>
        <time>2020-08-08T14:21:22Z</time>
      </trkpt>
      <trkpt lat="41.0541480" lon="0.6175860">
        <ele>29.8</ele>
        <time>2020-08-08T14:21:23Z</time>
      </trkpt>
      <trkpt lat="41.0541970" lon="0.6176330">
        <ele>30.0</ele>
        <time>2020-08-08T14:21:25Z</time>
      </trkpt>
      <trkpt lat="41.0542520" lon="0.6176820">
        <ele>30.2</ele>
        <time>2020-08-08T14:21:27Z</time>
      </trkpt>
      <trkpt lat="41.0542830" lon="0.6177090">
        <ele>30.3</ele>
        <time>2020-08-08T14:21:28Z</time>
      </trkpt>
      <trkpt lat="41.0543350" lon="0.6177540">
        <ele>30.6</ele>
        <time>2020-08-08T14:21:30Z</time>
      </trkpt>
      <trkpt lat="41.0543910" lon="0.6178000">
        <ele>30.8</ele>
        <time>2020-08-08T14:21:32Z</time>
      </trkpt>
      <trkpt lat="41.0544150" lon="0.6178170">
        <ele>30.9</ele>
        <time>2020-08-08T14:21:33Z</time>
      </trkpt>
      <trkpt lat="41.0544660" lon="0.6178620">
        <ele>31.2</ele>
        <time>2020-08-08T14:21:35Z</time>
      </trkpt>
      <trkpt lat="41.0545210" lon="0.6179030">
        <ele>31.5</ele>
        <time>2020-08-08T14:21:37Z</time>
      </trkpt>
      <trkpt lat="41.0545550" lon="0.6179230">
        <ele>31.7</ele>
        <time>2020-08-08T14:21:38Z</time>
      </trkpt>
      <trkpt lat="41.0546160" lon="0.6179570">
        <ele>32.0</ele>
        <time>2020-08-08T14:21:40Z</time>
      </trkpt>
      <trkpt lat="41.0546430" lon="0.6179740">
        <ele>32.1</ele>
        <time>2020-08-08T14:21:41Z</time>
      </trkpt>
      <trkpt lat="41.0546940" lon="0.6180160">
        <ele>32.4</ele>
        <time>2020-08-08T14:21:43Z</time>
      </trkpt>
      <trkpt lat="41.0547210" lon="0.6180410">
        <ele>32.6</ele>
        <time>2020-08-08T14:21:44Z</time>
      </trkpt>
      <trkpt lat="41.0547710" lon="0.6180870">
        <ele>32.9</ele>
        <time>2020-08-08T14:21:46Z</time>
      </trkpt>
      <trkpt lat="41.0547960" lon="0.6181070">
        <ele>33.0</ele>
        <time>2020-08-08T14:21:47Z</time>
      </trkpt>
      <trkpt lat="41.0548680" lon="0.6181660">
        <ele>33.4</ele>
        <time>2020-08-08T14:21:50Z</time>
      </trkpt>
      <trkpt lat="41.0548880" lon="0.6181840">
        <ele>33.6</ele>
        <time>2020-08-08T14:21:51Z</time>
      </trkpt>
      <trkpt lat="41.0549400" lon="0.6182210">
        <ele>33.9</ele>
        <time>2020-08-08T14:21:53Z</time>
      </trkpt>
      <trkpt lat="41.0549660" lon="0.6182360">
        <ele>34.1</ele>
        <time>2020-08-08T14:21:54Z</time>
      </trkpt>
      <trkpt lat="41.0550230" lon="0.6182720">
        <ele>34.4</ele>
        <time>2020-08-08T14:21:56Z</time>
      </trkpt>
      <trkpt lat="41.0550510" lon="0.6182900">
        <ele>34.6</ele>
        <time>2020-08-08T14:21:57Z</time>
      </trkpt>
      <trkpt lat="41.0551140" lon="0.6183330">
        <ele>35.0</ele>
        <time>2020-08-08T14:21:59Z</time>
      </trkpt>
      <trkpt lat="41.0551460" lon="0.6183540">
        <ele>35.2</ele>
        <time>2020-08-08T14:22:00Z</time>
      </trkpt>
      <trkpt lat="41.0552040" lon="0.6183850">
        <ele>35.6</ele>
        <time>2020-08-08T14:22:02Z</time>
      </trkpt>
      <trkpt lat="41.0552360" lon="0.6184020">
        <ele>35.8</ele>
        <time>2020-08-08T14:22:03Z</time>
      </trkpt>
      <trkpt lat="41.0552700" lon="0.6184210">
        <ele>36.0</ele>
        <time>2020-08-08T14:22:04Z</time>
      </trkpt>
      <trkpt lat="41.0553270" lon="0.6184590">
        <ele>36.4</ele>
        <time>2020-08-08T14:22:06Z</time>
      </trkpt>
      <trkpt lat="41.0553590" lon="0.6184810">
        <ele>36.6</ele>
        <time>2020-08-08T14:22:07Z</time>
      </trkpt>
      <trkpt lat="41.0554120" lon="0.6185140">
        <ele>36.9</ele>
        <time>2020-08-08T14:22:09Z</time>
      </trkpt>
      <trkpt lat="41.0554450" lon="0.6185360">
        <ele>37.1</ele>
        <time>2020-08-08T14:22:10Z</time>
      </trkpt>
      <trkpt lat="41.0555110" lon="0.6185810">
        <ele>37.4</ele>
        <time>2020-08-08T14:22:12Z</time>
      </trkpt>
      <trkpt lat="41.0555440" lon="0.6186050">
        <ele>37.6</ele>
        <time>2020-08-08T14:22:13Z</time>
      </trkpt>
      <trkpt lat="41.0556080" lon="0.6186540">
        <ele>38.0</ele>
        <time>2020-08-08T14:22:15Z</time>
      </trkpt>
      <trkpt lat="41.0556730" lon="0.6187020">
        <ele>38.4</ele>
        <time>2020-08-08T14:22:17Z</time>
      </trkpt>
      <trkpt lat="41.0557100" lon="0.6187280">
        <ele>38.6</ele>
        <time>2020-08-08T14:22:18Z</time>
      </trkpt>
      <trkpt lat="41.0557830" lon="0.6187810">
        <ele>39.0</ele>
        <time>2020-08-08T14:22:20Z</time>
      </trkpt>
      <trkpt lat="41.0558510" lon="0.6188330">
        <ele>39.3</ele>
        <time>2020-08-08T14:22:22Z</time>
      </trkpt>
      <trkpt lat="41.0558820" lon="0.6188550">
        <ele>39.4</ele>
        <time>2020-08-08T14:22:23Z</time>
      </trkpt>
      <trkpt lat="41.0559140" lon="0.6188760">
        <ele>39.6</ele>
        <time>2020-08-08T14:22:24Z</time>
      </trkpt>
      <trkpt lat="41.0559490" lon="0.6188970">
        <ele>39.7</ele>
        <time>2020-08-08T14:22:25Z</time>
      </trkpt>
      <trkpt lat="41.0560060" lon="0.6189320">
        <ele>40.0</ele>
        <time>2020-08-08T14:22:27Z</time>
      </trkpt>
      <trkpt lat="41.0560350" lon="0.6189510">
        <ele>40.2</ele>
        <time>2020-08-08T14:22:28Z</time>
      </trkpt>
      <trkpt lat="41.0560530" lon="0.6189650">
        <ele>40.3</ele>
        <time>2020-08-08T14:22:30Z</time>
      </trkpt>
      <trkpt lat="41.0561440" lon="0.6190490">
        <ele>40.8</ele>
        <time>2020-08-08T14:22:34Z</time>
      </trkpt>
      <trkpt lat="41.0562250" lon="0.6190560">
        <ele>41.1</ele>
        <time>2020-08-08T14:22:38Z</time>
      </trkpt>
      <trkpt lat="41.0567020" lon="0.6192240">
        <ele>42.0</ele>
        <time>2020-08-08T14:22:51Z</time>
      </trkpt>
      <trkpt lat="41.0567020" lon="0.6192240">
        <ele>42.0</ele>
        <time>2020-08-08T14:22:51Z</time>
      </trkpt>
      <trkpt lat="41.0568750" lon="0.6192740">
        <ele>42.2</ele>
        <time>2020-08-08T14:22:53Z</time>
      </trkpt>
      <trkpt lat="41.0569610" lon="0.6193010">
        <ele>42.3</ele>
        <time>2020-08-08T14:22:55Z</time>
      </trkpt>
      <trkpt lat="41.0570230" lon="0.6193250">
        <ele>42.4</ele>
        <time>2020-08-08T14:22:57Z</time>
      </trkpt>
      <trkpt lat="41.0569890" lon="0.6193730">
        <ele>42.4</ele>
        <time>2020-08-08T14:22:58Z</time>
      </trkpt>
      <trkpt lat="41.0569970" lon="0.6194130">
        <ele>42.5</ele>
        <time>2020-08-08T14:23:00Z</time>
      </trkpt>
      <trkpt lat="41.0570040" lon="0.6194260">
        <ele>42.5</ele>
        <time>2020-08-08T14:23:01Z</time>
      </trkpt>
      <trkpt lat="41.0570360" lon="0.6194370">
        <ele>42.6</ele>
        <time>2020-08-08T14:23:02Z</time>
      </trkpt>
      <trkpt lat="41.0570930" lon="0.6194510">
        <ele>42.7</ele>
        <time>2020-08-08T14:23:04Z</time>
      </trkpt>
      <trkpt lat="41.0571220" lon="0.6194490">
        <ele>42.8</ele>
        <time>2020-08-08T14:23:05Z</time>
      </trkpt>
      <trkpt lat="41.0571450" lon="0.6194640">
        <ele>42.8</ele>
        <time>2020-08-08T14:23:06Z</time>
      </trkpt>
      <trkpt lat="41.0571860" lon="0.6194820">
        <ele>42.9</ele>
        <time>2020-08-08T14:23:08Z</time>
      </trkpt>
      <trkpt lat="41.0572440" lon="0.6194900">
        <ele>43.1</ele>
        <time>2020-08-08T14:23:10Z</time>
      </trkpt>
      <trkpt lat="41.0572760" lon="0.6195010">
        <ele>43.2</ele>
        <time>2020-08-08T14:23:12Z</time>
      </trkpt>
      <trkpt lat="41.0573160" lon="0.6195190">
        <ele>43.3</ele>
        <time>2020-08-08T14:23:13Z</time>
      </trkpt>
      <trkpt lat="41.0573540" lon="0.6195300">
        <ele>43.4</ele>
        <time>2020-08-08T14:23:14Z</time>
      </trkpt>
      <trkpt lat="41.0574380" lon="0.6195790">
        <ele>43.7</ele>
        <time>2020-08-08T14:23:15Z</time>
      </trkpt>
      <trkpt lat="41.0575680" lon="0.6196410">
        <ele>44.1</ele>
        <time>2020-08-08T14:23:17Z</time>
      </trkpt>
      <trkpt lat="41.0576380" lon="0.6196930">
        <ele>44.3</ele>
        <time>2020-08-08T14:23:18Z</time>
      </trkpt>
      <trkpt lat="41.0576820" lon="0.6197260">
        <ele>44.4</ele>
        <time>2020-08-08T14:23:19Z</time>
      </trkpt>
      <trkpt lat="41.0577230" lon="0.6197770">
        <ele>44.5</ele>
        <time>2020-08-08T14:23:21Z</time>
      </trkpt>
      <trkpt lat="41.0577570" lon="0.6198200">
        <ele>44.6</ele>
        <time>2020-08-08T14:23:22Z</time>
      </trkpt>
      <trkpt lat="41.0577760" lon="0.6198470">
        <ele>44.6</ele>
        <time>2020-08-08T14:23:23Z</time>
      </trkpt>
      <trkpt lat="41.0578010" lon="0.6198810">
        <ele>44.7</ele>
        <time>2020-08-08T14:23:25Z</time>
      </trkpt>
      <trkpt lat="41.0578300" lon="0.6199180">
        <ele>44.7</ele>
        <time>2020-08-08T14:23:26Z</time>
      </trkpt>
      <trkpt lat="41.0578540" lon="0.6199530">
        <ele>44.8</ele>
        <time>2020-08-08T14:23:27Z</time>
      </trkpt>
      <trkpt lat="41.0578920" lon="0.6200030">
        <ele>44.9</ele>
        <time>2020-08-08T14:23:29Z</time>
      </trkpt>
      <trkpt lat="41.0579210" lon="0.6200430">
        <ele>44.9</ele>
        <time>2020-08-08T14:23:30Z</time>
      </trkpt>
      <trkpt lat="41.0579310" lon="0.6200570">
        <ele>44.9</ele>
        <time>2020-08-08T14:23:31Z</time>
      </trkpt>
      <trkpt lat="41.0579750" lon="0.6201090">
        <ele>45.0</ele>
        <time>2020-08-08T14:23:33Z</time>
      </trkpt>
      <trkpt lat="41.0580010" lon="0.6201380">
        <ele>45.1</ele>
        <time>2020-08-08T14:23:34Z</time>
      </trkpt>
      <trkpt lat="41.0580430" lon="0.6201840">
        <ele>45.1</ele>
        <time>2020-08-08T14:23:36Z</time>
      </trkpt>
      <trkpt lat="41.0580780" lon="0.6202220">
        <ele>45.2</ele>
        <time>2020-08-08T14:23:37Z</time>
      </trkpt>
      <trkpt lat="41.0581030" lon="0.6202500">
        <ele>45.3</ele>
        <time>2020-08-08T14:23:38Z</time>
      </trkpt>
      <trkpt lat="41.0581450" lon="0.6203000">
        <ele>45.3</ele>
        <time>2020-08-08T14:23:40Z</time>
      </trkpt>
      <trkpt lat="41.0581770" lon="0.6203400">
        <ele>45.3</ele>
        <time>2020-08-08T14:23:41Z</time>
      </trkpt>
      <trkpt lat="41.0582610" lon="0.6204900">
        <ele>45.4</ele>
        <time>2020-08-08T14:23:43Z</time>
      </trkpt>
      <trkpt lat="41.0582950" lon="0.6205760">
        <ele>45.5</ele>
        <time>2020-08-08T14:23:44Z</time>
      </trkpt>
      <trkpt lat="41.0583580" lon="0.6206650">
        <ele>45.6</ele>
        <time>2020-08-08T14:23:45Z</time>
      </trkpt>
      <trkpt lat="41.0584350" lon="0.6207660">
        <ele>45.6</ele>
        <time>2020-08-08T14:23:47Z</time>
      </trkpt>
      <trkpt lat="41.0584860" lon="0.6208000">
        <ele>45.6</ele>
        <time>2020-08-08T14:23:48Z</time>
      </trkpt>
      <trkpt lat="41.0585560" lon="0.6208600">
        <ele>45.7</ele>
        <time>2020-08-08T14:23:50Z</time>
      </trkpt>
      <trkpt lat="41.0586260" lon="0.6209070">
        <ele>45.7</ele>
        <time>2020-08-08T14:23:52Z</time>
      </trkpt>
      <trkpt lat="41.0586630" lon="0.6209320">
        <ele>45.7</ele>
        <time>2020-08-08T14:23:53Z</time>
      </trkpt>
      <trkpt lat="41.0587350" lon="0.6209960">
        <ele>45.7</ele>
        <time>2020-08-08T14:23:55Z</time>
      </trkpt>
      <trkpt lat="41.0587780" lon="0.6210450">
        <ele>45.7</ele>
        <time>2020-08-08T14:23:57Z</time>
      </trkpt>
      <trkpt lat="41.0588090" lon="0.6210870">
        <ele>45.7</ele>
        <time>2020-08-08T14:23:58Z</time>
      </trkpt>
      <trkpt lat="41.0588320" lon="0.6211190">
        <ele>45.7</ele>
        <time>2020-08-08T14:23:59Z</time>
      </trkpt>
      <trkpt lat="41.0588560" lon="0.6211520">
        <ele>45.7</ele>
        <time>2020-08-08T14:24:01Z</time>
      </trkpt>
      <trkpt lat="41.0588860" lon="0.6211900">
        <ele>45.7</ele>
        <time>2020-08-08T14:24:02Z</time>
      </trkpt>
      <trkpt lat="41.0589120" lon="0.6212260">
        <ele>45.7</ele>
        <time>2020-08-08T14:24:04Z</time>
      </trkpt>
      <trkpt lat="41.0589330" lon="0.6212570">
        <ele>45.7</ele>
        <time>2020-08-08T14:24:05Z</time>
      </trkpt>
      <trkpt lat="41.0590580" lon="0.6213970">
        <ele>45.7</ele>
        <time>2020-08-08T14:24:06Z</time>
      </trkpt>
      <trkpt lat="41.0591730" lon="0.6215230">
        <ele>45.6</ele>
        <time>2020-08-08T14:24:08Z</time>
      </trkpt>
      <trkpt lat="41.0592550" lon="0.6216310">
        <ele>45.6</ele>
        <time>2020-08-08T14:24:09Z</time>
      </trkpt>
      <trkpt lat="41.0592260" lon="0.6216770">
        <ele>45.6</ele>
        <time>2020-08-08T14:24:11Z</time>
      </trkpt>
      <trkpt lat="41.0592240" lon="0.6217160">
        <ele>45.6</ele>
        <time>2020-08-08T14:24:12Z</time>
      </trkpt>
      <trkpt lat="41.0592360" lon="0.6217310">
        <ele>45.6</ele>
        <time>2020-08-08T14:24:13Z</time>
      </trkpt>
      <trkpt lat="41.0592490" lon="0.6217730">
        <ele>45.6</ele>
        <time>2020-08-08T14:24:15Z</time>
      </trkpt>
      <trkpt lat="41.0592590" lon="0.6218200">
        <ele>45.7</ele>
        <time>2020-08-08T14:24:16Z</time>
      </trkpt>
      <trkpt lat="41.0592940" lon="0.6218890">
        <ele>45.8</ele>
        <time>2020-08-08T14:24:18Z</time>
      </trkpt>
      <trkpt lat="41.0593070" lon="0.6219710">
        <ele>45.8</ele>
        <time>2020-08-08T14:24:19Z</time>
      </trkpt>
      <trkpt lat="41.0593440" lon="0.6220280">
        <ele>45.8</ele>
        <time>2020-08-08T14:24:20Z</time>
      </trkpt>
      <trkpt lat="41.0593750" lon="0.6221260">
        <ele>45.7</ele>
        <time>2020-08-08T14:24:22Z</time>
      </trkpt>
      <trkpt lat="41.0593880" lon="0.6221700">
        <ele>45.7</ele>
        <time>2020-08-08T14:24:23Z</time>
      </trkpt>
      <trkpt lat="41.0593800" lon="0.6223060">
        <ele>45.6</ele>
        <time>2020-08-08T14:24:24Z</time>
      </trkpt>
      <trkpt lat="41.0593670" lon="0.6224160">
        <ele>45.4</ele>
        <time>2020-08-08T14:24:25Z</time>
      </trkpt>
      <trkpt lat="41.0593530" lon="0.6225340">
        <ele>45.2</ele>
        <time>2020-08-08T14:24:26Z</time>
      </trkpt>
      <trkpt lat="41.0593230" lon="0.6226930">
        <ele>45.0</ele>
        <time>2020-08-08T14:24:28Z</time>
      </trkpt>
      <trkpt lat="41.0593130" lon="0.6227670">
        <ele>44.8</ele>
        <time>2020-08-08T14:24:29Z</time>
      </trkpt>
      <trkpt lat="41.0592970" lon="0.6229040">
        <ele>44.6</ele>
        <time>2020-08-08T14:24:31Z</time>
      </trkpt>
      <trkpt lat="41.0592910" lon="0.6229660">
        <ele>44.5</ele>
        <time>2020-08-08T14:24:32Z</time>
      </trkpt>
      <trkpt lat="41.0593090" lon="0.6230960">
        <ele>44.3</ele>
        <time>2020-08-08T14:24:34Z</time>
      </trkpt>
      <trkpt lat="41.0593500" lon="0.6232150">
        <ele>44.1</ele>
        <time>2020-08-08T14:24:36Z</time>
      </trkpt>
      <trkpt lat="41.0593910" lon="0.6232970">
        <ele>43.9</ele>
        <time>2020-08-08T14:24:38Z</time>
      </trkpt>
      <trkpt lat="41.0594190" lon="0.6233430">
        <ele>43.8</ele>
        <time>2020-08-08T14:24:39Z</time>
      </trkpt>
      <trkpt lat="41.0594520" lon="0.6233970">
        <ele>43.7</ele>
        <time>2020-08-08T14:24:40Z</time>
      </trkpt>
      <trkpt lat="41.0594850" lon="0.6234530">
        <ele>43.5</ele>
        <time>2020-08-08T14:24:41Z</time>
      </trkpt>
      <trkpt lat="41.0595220" lon="0.6235130">
        <ele>43.3</ele>
        <time>2020-08-08T14:24:42Z</time>
      </trkpt>
      <trkpt lat="41.0595880" lon="0.6236080">
        <ele>43.0</ele>
        <time>2020-08-08T14:24:44Z</time>
      </trkpt>
      <trkpt lat="41.0596560" lon="0.6236930">
        <ele>42.6</ele>
        <time>2020-08-08T14:24:46Z</time>
      </trkpt>
      <trkpt lat="41.0596930" lon="0.6237370">
        <ele>42.4</ele>
        <time>2020-08-08T14:24:47Z</time>
      </trkpt>
      <trkpt lat="41.0597760" lon="0.6238440">
        <ele>41.9</ele>
        <time>2020-08-08T14:24:50Z</time>
      </trkpt>
      <trkpt lat="41.0598570" lon="0.6239570">
        <ele>41.5</ele>
        <time>2020-08-08T14:24:51Z</time>
      </trkpt>
      <trkpt lat="41.0599080" lon="0.6240050">
        <ele>41.2</ele>
        <time>2020-08-08T14:24:52Z</time>
      </trkpt>
      <trkpt lat="41.0599660" lon="0.6240450">
        <ele>41.0</ele>
        <time>2020-08-08T14:24:53Z</time>
      </trkpt>
      <trkpt lat="41.0600860" lon="0.6241270">
        <ele>40.5</ele>
        <time>2020-08-08T14:24:55Z</time>
      </trkpt>
      <trkpt lat="41.0601510" lon="0.6241540">
        <ele>40.2</ele>
        <time>2020-08-08T14:24:56Z</time>
      </trkpt>
      <trkpt lat="41.0602180" lon="0.6241770">
        <ele>40.0</ele>
        <time>2020-08-08T14:24:57Z</time>
      </trkpt>
      <trkpt lat="41.0603400" lon="0.6242460">
        <ele>39.6</ele>
        <time>2020-08-08T14:25:00Z</time>
      </trkpt>
      <trkpt lat="41.0604700" lon="0.6243090">
        <ele>39.3</ele>
        <time>2020-08-08T14:25:01Z</time>
      </trkpt>
      <trkpt lat="41.0605410" lon="0.6243330">
        <ele>39.1</ele>
        <time>2020-08-08T14:25:02Z</time>
      </trkpt>
      <trkpt lat="41.0606790" lon="0.6243740">
        <ele>38.8</ele>
        <time>2020-08-08T14:25:04Z</time>
      </trkpt>
      <trkpt lat="41.0608150" lon="0.6244150">
        <ele>38.6</ele>
        <time>2020-08-08T14:25:06Z</time>
      </trkpt>
      <trkpt lat="41.0608850" lon="0.6244430">
        <ele>38.3</ele>
        <time>2020-08-08T14:25:07Z</time>
      </trkpt>
      <trkpt lat="41.0609510" lon="0.6244800">
        <ele>38.1</ele>
        <time>2020-08-08T14:25:08Z</time>
      </trkpt>
      <trkpt lat="41.0611190" lon="0.6246740">
        <ele>37.3</ele>
        <time>2020-08-08T14:25:11Z</time>
      </trkpt>
      <trkpt lat="41.0611540" lon="0.6247660">
        <ele>37.0</ele>
        <time>2020-08-08T14:25:12Z</time>
      </trkpt>
      <trkpt lat="41.0611740" lon="0.6249800">
        <ele>36.6</ele>
        <time>2020-08-08T14:25:14Z</time>
      </trkpt>
      <trkpt lat="41.0610570" lon="0.6253580">
        <ele>35.3</ele>
        <time>2020-08-08T14:25:18Z</time>
      </trkpt>
      <trkpt lat="41.0610220" lon="0.6254300">
        <ele>35.0</ele>
        <time>2020-08-08T14:25:19Z</time>
      </trkpt>
      <trkpt lat="41.0609850" lon="0.6255120">
        <ele>34.7</ele>
        <time>2020-08-08T14:25:20Z</time>
      </trkpt>
      <trkpt lat="41.0609460" lon="0.6255920">
        <ele>34.4</ele>
        <time>2020-08-08T14:25:21Z</time>
      </trkpt>
      <trkpt lat="41.0608760" lon="0.6257570">
        <ele>33.8</ele>
        <time>2020-08-08T14:25:23Z</time>
      </trkpt>
      <trkpt lat="41.0607960" lon="0.6259090">
        <ele>33.2</ele>
        <time>2020-08-08T14:25:25Z</time>
      </trkpt>
      <trkpt lat="41.0607540" lon="0.6259840">
        <ele>32.9</ele>
        <time>2020-08-08T14:25:26Z</time>
      </trkpt>
      <trkpt lat="41.0606740" lon="0.6261460">
        <ele>32.3</ele>
        <time>2020-08-08T14:25:28Z</time>
      </trkpt>
      <trkpt lat="41.0605590" lon="0.6263840">
        <ele>31.5</ele>
        <time>2020-08-08T14:25:31Z</time>
      </trkpt>
      <trkpt lat="41.0605250" lon="0.6264580">
        <ele>31.3</ele>
        <time>2020-08-08T14:25:32Z</time>
      </trkpt>
      <trkpt lat="41.0602500" lon="0.6271160">
        <ele>29.8</ele>
        <time>2020-08-08T14:25:41Z</time>
      </trkpt>
      <trkpt lat="41.0601860" lon="0.6272790">
        <ele>29.5</ele>
        <time>2020-08-08T14:25:42Z</time>
      </trkpt>
      <trkpt lat="41.0601560" lon="0.6273580">
        <ele>29.4</ele>
        <time>2020-08-08T14:25:43Z</time>
      </trkpt>
      <trkpt lat="41.0601310" lon="0.6274360">
        <ele>29.3</ele>
        <time>2020-08-08T14:25:44Z</time>
      </trkpt>
      <trkpt lat="41.0601010" lon="0.6275120">
        <ele>29.2</ele>
        <time>2020-08-08T14:25:45Z</time>
      </trkpt>
      <trkpt lat="41.0600680" lon="0.6275840">
        <ele>29.1</ele>
        <time>2020-08-08T14:25:46Z</time>
      </trkpt>
      <trkpt lat="41.0599940" lon="0.6277230">
        <ele>28.9</ele>
        <time>2020-08-08T14:25:48Z</time>
      </trkpt>
      <trkpt lat="41.0599590" lon="0.6277980">
        <ele>28.8</ele>
        <time>2020-08-08T14:25:49Z</time>
      </trkpt>
      <trkpt lat="41.0598170" lon="0.6280720">
        <ele>28.6</ele>
        <time>2020-08-08T14:25:53Z</time>
      </trkpt>
      <trkpt lat="41.0597120" lon="0.6282780">
        <ele>28.5</ele>
        <time>2020-08-08T14:25:56Z</time>
      </trkpt>
      <trkpt lat="41.0596350" lon="0.6284040">
        <ele>28.4</ele>
        <time>2020-08-08T14:25:58Z</time>
      </trkpt>
      <trkpt lat="41.0595990" lon="0.6284680">
        <ele>28.3</ele>
        <time>2020-08-08T14:25:59Z</time>
      </trkpt>
      <trkpt lat="41.0595590" lon="0.6285230">
        <ele>28.3</ele>
        <time>2020-08-08T14:26:00Z</time>
      </trkpt>
      <trkpt lat="41.0594860" lon="0.6286270">
        <ele>28.2</ele>
        <time>2020-08-08T14:26:02Z</time>
      </trkpt>
      <trkpt lat="41.0594540" lon="0.6286860">
        <ele>28.2</ele>
        <time>2020-08-08T14:26:03Z</time>
      </trkpt>
      <trkpt lat="41.0593880" lon="0.6288090">
        <ele>28.1</ele>
        <time>2020-08-08T14:26:05Z</time>
      </trkpt>
      <trkpt lat="41.0593510" lon="0.6288730">
        <ele>28.0</ele>
        <time>2020-08-08T14:26:06Z</time>
      </trkpt>
      <trkpt lat="41.0592730" lon="0.6289850">
        <ele>27.9</ele>
        <time>2020-08-08T14:26:08Z</time>
      </trkpt>
      <trkpt lat="41.0592330" lon="0.6290400">
        <ele>27.9</ele>
        <time>2020-08-08T14:26:09Z</time>
      </trkpt>
      <trkpt lat="41.0591710" lon="0.6291580">
        <ele>27.8</ele>
        <time>2020-08-08T14:26:11Z</time>
      </trkpt>
      <trkpt lat="41.0591390" lon="0.6292150">
        <ele>27.8</ele>
        <time>2020-08-08T14:26:12Z</time>
      </trkpt>
      <trkpt lat="41.0591030" lon="0.6292680">
        <ele>27.8</ele>
        <time>2020-08-08T14:26:13Z</time>
      </trkpt>
      <trkpt lat="41.0590210" lon="0.6293620">
        <ele>27.7</ele>
        <time>2020-08-08T14:26:15Z</time>
      </trkpt>
      <trkpt lat="41.0589320" lon="0.6294330">
        <ele>27.6</ele>
        <time>2020-08-08T14:26:17Z</time>
      </trkpt>
      <trkpt lat="41.0588450" lon="0.6294990">
        <ele>27.5</ele>
        <time>2020-08-08T14:26:19Z</time>
      </trkpt>
      <trkpt lat="41.0587730" lon="0.6295740">
        <ele>27.4</ele>
        <time>2020-08-08T14:26:21Z</time>
      </trkpt>
      <trkpt lat="41.0587010" lon="0.6296360">
        <ele>27.3</ele>
        <time>2020-08-08T14:26:23Z</time>
      </trkpt>
      <trkpt lat="41.0586640" lon="0.6296700">
        <ele>27.3</ele>
        <time>2020-08-08T14:26:24Z</time>
      </trkpt>
      <trkpt lat="41.0585920" lon="0.6297550">
        <ele>27.1</ele>
        <time>2020-08-08T14:26:26Z</time>
      </trkpt>
      <trkpt lat="41.0585610" lon="0.6298060">
        <ele>27.1</ele>
        <time>2020-08-08T14:26:27Z</time>
      </trkpt>
      <trkpt lat="41.0584950" lon="0.6299140">
        <ele>26.9</ele>
        <time>2020-08-08T14:26:29Z</time>
      </trkpt>
      <trkpt lat="41.0584600" lon="0.6299720">
        <ele>26.8</ele>
        <time>2020-08-08T14:26:30Z</time>
      </trkpt>
      <trkpt lat="41.0584250" lon="0.6300320">
        <ele>26.8</ele>
        <time>2020-08-08T14:26:31Z</time>
      </trkpt>
      <trkpt lat="41.0583630" lon="0.6301700">
        <ele>26.8</ele>
        <time>2020-08-08T14:26:33Z</time>
      </trkpt>
      <trkpt lat="41.0583350" lon="0.6302390">
        <ele>26.7</ele>
        <time>2020-08-08T14:26:34Z</time>
      </trkpt>
      <trkpt lat="41.0583100" lon="0.6303060">
        <ele>26.6</ele>
        <time>2020-08-08T14:26:35Z</time>
      </trkpt>
      <trkpt lat="41.0582630" lon="0.6304460">
        <ele>26.4</ele>
        <time>2020-08-08T14:26:37Z</time>
      </trkpt>
      <trkpt lat="41.0582400" lon="0.6305200">
        <ele>26.3</ele>
        <time>2020-08-08T14:26:38Z</time>
      </trkpt>
      <trkpt lat="41.0582170" lon="0.6305940">
        <ele>26.2</ele>
        <time>2020-08-08T14:26:39Z</time>
      </trkpt>
      <trkpt lat="41.0581890" lon="0.6306620">
        <ele>26.1</ele>
        <time>2020-08-08T14:26:40Z</time>
      </trkpt>
      <trkpt lat="41.0581320" lon="0.6307960">
        <ele>25.9</ele>
        <time>2020-08-08T14:26:42Z</time>
      </trkpt>
      <trkpt lat="41.0581100" lon="0.6308620">
        <ele>25.9</ele>
        <time>2020-08-08T14:26:43Z</time>
      </trkpt>
      <trkpt lat="41.0580950" lon="0.6309190">
        <ele>25.8</ele>
        <time>2020-08-08T14:26:44Z</time>
      </trkpt>
      <trkpt lat="41.0580830" lon="0.6309740">
        <ele>25.8</ele>
        <time>2020-08-08T14:26:45Z</time>
      </trkpt>
      <trkpt lat="41.0580370" lon="0.6311060">
        <ele>25.8</ele>
        <time>2020-08-08T14:26:47Z</time>
      </trkpt>
      <trkpt lat="41.0579760" lon="0.6312000">
        <ele>25.8</ele>
        <time>2020-08-08T14:26:50Z</time>
      </trkpt>
      <trkpt lat="41.0579260" lon="0.6313000">
        <ele>25.9</ele>
        <time>2020-08-08T14:26:52Z</time>
      </trkpt>
      <trkpt lat="41.0578750" lon="0.6314310">
        <ele>26.0</ele>
        <time>2020-08-08T14:26:54Z</time>
      </trkpt>
      <trkpt lat="41.0578420" lon="0.6315370">
        <ele>26.0</ele>
        <time>2020-08-08T14:26:56Z</time>
      </trkpt>
      <trkpt lat="41.0578220" lon="0.6315790">
        <ele>26.1</ele>
        <time>2020-08-08T14:26:57Z</time>
      </trkpt>
      <trkpt lat="41.0577930" lon="0.6316420">
        <ele>26.1</ele>
        <time>2020-08-08T14:26:59Z</time>
      </trkpt>
      <trkpt lat="41.0577760" lon="0.6316750">
        <ele>26.1</ele>
        <time>2020-08-08T14:27:00Z</time>
      </trkpt>
      <trkpt lat="41.0577590" lon="0.6317030">
        <ele>26.2</ele>
        <time>2020-08-08T14:27:01Z</time>
      </trkpt>
      <trkpt lat="41.0577430" lon="0.6317320">
        <ele>26.2</ele>
        <time>2020-08-08T14:27:02Z</time>
      </trkpt>
      <trkpt lat="41.0577130" lon="0.6317670">
        <ele>26.2</ele>
        <time>2020-08-08T14:27:04Z</time>
      </trkpt>
      <trkpt lat="41.0577100" lon="0.6317710">
        <ele>26.2</ele>
        <time>2020-08-08T14:27:05Z</time>
      </trkpt>
      <trkpt lat="41.0577060" lon="0.6317760">
        <ele>26.2</ele>
        <time>2020-08-08T14:27:06Z</time>
      </trkpt>
      <trkpt lat="41.0577030" lon="0.6317800">
        <ele>26.2</ele>
        <time>2020-08-08T14:27:08Z</time>
      </trkpt>
      <trkpt lat="41.0577000" lon="0.6317840">
        <ele>26.2</ele>
        <time>2020-08-08T14:27:10Z</time>
      </trkpt>
      <trkpt lat="41.0576970" lon="0.6317880">
        <ele>26.3</ele>
        <time>2020-08-08T14:27:11Z</time>
      </trkpt>
      <trkpt lat="41.0576940" lon="0.6317920">
        <ele>26.3</ele>
        <time>2020-08-08T14:27:12Z</time>
      </trkpt>
      <trkpt lat="41.0576900" lon="0.6317970">
        <ele>26.3</ele>
        <time>2020-08-08T14:27:14Z</time>
      </trkpt>
      <trkpt lat="41.0576870" lon="0.6318010">
        <ele>26.3</ele>
        <time>2020-08-08T14:27:16Z</time>
      </trkpt>
      <trkpt lat="41.0576840" lon="0.6318050">
        <ele>26.3</ele>
        <time>2020-08-08T14:27:18Z</time>
      </trkpt>
      <trkpt lat="41.0576810" lon="0.6318090">
        <ele>26.3</ele>
        <time>2020-08-08T14:27:19Z</time>
      </trkpt>
      <trkpt lat="41.0576780" lon="0.6318130">
        <ele>26.3</ele>
        <time>2020-08-08T14:27:20Z</time>
      </trkpt>
      <trkpt lat="41.0576740" lon="0.6318180">
        <ele>26.3</ele>
        <time>2020-08-08T14:28:13Z</time>
      </trkpt>
      <trkpt lat="41.0576710" lon="0.6318220">
        <ele>26.3</ele>
        <time>2020-08-08T14:28:14Z</time>
      </trkpt>
      <trkpt lat="41.0576680" lon="0.6318260">
        <ele>26.3</ele>
        <time>2020-08-08T14:28:15Z</time>
      </trkpt>
      <trkpt lat="41.0576460" lon="0.6318960">
        <ele>26.3</ele>
        <time>2020-08-08T14:28:17Z</time>
      </trkpt>
      <trkpt lat="41.0576350" lon="0.6319320">
        <ele>26.3</ele>
        <time>2020-08-08T14:28:18Z</time>
      </trkpt>
      <trkpt lat="41.0576190" lon="0.6319650">
        <ele>26.3</ele>
        <time>2020-08-08T14:28:19Z</time>
      </trkpt>
      <trkpt lat="41.0575980" lon="0.6319930">
        <ele>26.3</ele>
        <time>2020-08-08T14:28:20Z</time>
      </trkpt>
      <trkpt lat="41.0575440" lon="0.6320410">
        <ele>26.3</ele>
        <time>2020-08-08T14:28:22Z</time>
      </trkpt>
      <trkpt lat="41.0574840" lon="0.6320820">
        <ele>26.4</ele>
        <time>2020-08-08T14:28:24Z</time>
      </trkpt>
      <trkpt lat="41.0574560" lon="0.6321060">
        <ele>26.4</ele>
        <time>2020-08-08T14:28:25Z</time>
      </trkpt>
      <trkpt lat="41.0574010" lon="0.6321660">
        <ele>26.4</ele>
        <time>2020-08-08T14:28:27Z</time>
      </trkpt>
      <trkpt lat="41.0573740" lon="0.6321980">
        <ele>26.4</ele>
        <time>2020-08-08T14:28:28Z</time>
      </trkpt>
      <trkpt lat="41.0573240" lon="0.6322660">
        <ele>26.5</ele>
        <time>2020-08-08T14:28:30Z</time>
      </trkpt>
      <trkpt lat="41.0573000" lon="0.6323060">
        <ele>26.5</ele>
        <time>2020-08-08T14:28:31Z</time>
      </trkpt>
      <trkpt lat="41.0572770" lon="0.6323420">
        <ele>26.5</ele>
        <time>2020-08-08T14:28:32Z</time>
      </trkpt>
      <trkpt lat="41.0572260" lon="0.6324110">
        <ele>26.5</ele>
        <time>2020-08-08T14:28:34Z</time>
      </trkpt>
      <trkpt lat="41.0571980" lon="0.6324410">
        <ele>26.5</ele>
        <time>2020-08-08T14:28:35Z</time>
      </trkpt>
      <trkpt lat="41.0571370" lon="0.6324970">
        <ele>26.6</ele>
        <time>2020-08-08T14:28:37Z</time>
      </trkpt>
      <trkpt lat="41.0571090" lon="0.6325240">
        <ele>26.6</ele>
        <time>2020-08-08T14:28:38Z</time>
      </trkpt>
      <trkpt lat="41.0570820" lon="0.6325520">
        <ele>26.6</ele>
        <time>2020-08-08T14:28:39Z</time>
      </trkpt>
      <trkpt lat="41.0570280" lon="0.6326160">
        <ele>26.6</ele>
        <time>2020-08-08T14:28:41Z</time>
      </trkpt>
      <trkpt lat="41.0570010" lon="0.6326470">
        <ele>26.7</ele>
        <time>2020-08-08T14:28:42Z</time>
      </trkpt>
      <trkpt lat="41.0569760" lon="0.6326810">
        <ele>26.7</ele>
        <time>2020-08-08T14:28:43Z</time>
      </trkpt>
      <trkpt lat="41.0569540" lon="0.6327170">
        <ele>26.7</ele>
        <time>2020-08-08T14:28:44Z</time>
      </trkpt>
      <trkpt lat="41.0569140" lon="0.6327790">
        <ele>26.8</ele>
        <time>2020-08-08T14:28:46Z</time>
      </trkpt>
      <trkpt lat="41.0568920" lon="0.6328150">
        <ele>26.9</ele>
        <time>2020-08-08T14:28:47Z</time>
      </trkpt>
      <trkpt lat="41.0568850" lon="0.6328250">
        <ele>26.9</ele>
        <time>2020-08-08T14:28:48Z</time>
      </trkpt>
      <trkpt lat="41.0568710" lon="0.6328510">
        <ele>27.0</ele>
        <time>2020-08-08T14:28:50Z</time>
      </trkpt>
      <trkpt lat="41.0568640" lon="0.6328610">
        <ele>27.0</ele>
        <time>2020-08-08T14:28:52Z</time>
      </trkpt>
      <trkpt lat="41.0568580" lon="0.6328740">
        <ele>27.0</ele>
        <time>2020-08-08T14:28:54Z</time>
      </trkpt>
      <trkpt lat="41.0568570" lon="0.6328800">
        <ele>27.0</ele>
        <time>2020-08-08T14:28:56Z</time>
      </trkpt>
      <trkpt lat="41.0568540" lon="0.6328630">
        <ele>27.0</ele>
        <time>2020-08-08T14:28:58Z</time>
      </trkpt>
      <trkpt lat="41.0568520" lon="0.6328480">
        <ele>27.1</ele>
        <time>2020-08-08T14:28:59Z</time>
      </trkpt>
      <trkpt lat="41.0568480" lon="0.6328350">
        <ele>27.1</ele>
        <time>2020-08-08T14:29:01Z</time>
      </trkpt>
      <trkpt lat="41.0568460" lon="0.6328300">
        <ele>27.1</ele>
        <time>2020-08-08T14:29:02Z</time>
      </trkpt>
      <trkpt lat="41.0568450" lon="0.6328310">
        <ele>27.1</ele>
        <time>2020-08-08T14:29:03Z</time>
      </trkpt>
      <trkpt lat="41.0568440" lon="0.6328360">
        <ele>27.1</ele>
        <time>2020-08-08T14:29:05Z</time>
      </trkpt>
      <trkpt lat="41.0568440" lon="0.6328390">
        <ele>27.1</ele>
        <time>2020-08-08T14:29:06Z</time>
      </trkpt>
      <trkpt lat="41.0568440" lon="0.6328430">
        <ele>27.1</ele>
        <time>2020-08-08T14:29:09Z</time>
      </trkpt>
      <trkpt lat="41.0568440" lon="0.6328440">
        <ele>27.1</ele>
        <time>2020-08-08T14:29:10Z</time>
      </trkpt>
      <trkpt lat="41.0568440" lon="0.6328440">
        <ele>27.1</ele>
        <time>2020-08-08T14:29:11Z</time>
      </trkpt>
      <trkpt lat="41.0568470" lon="0.6328600">
        <ele>27.1</ele>
        <time>2020-08-08T14:29:13Z</time>
      </trkpt>
      <trkpt lat="41.0568490" lon="0.6328760">
        <ele>27.1</ele>
        <time>2020-08-08T14:29:14Z</time>
      </trkpt>
      <trkpt lat="41.0568510" lon="0.6328940">
        <ele>27.2</ele>
        <time>2020-08-08T14:29:15Z</time>
      </trkpt>
      <trkpt lat="41.0568480" lon="0.6329650">
        <ele>27.4</ele>
        <time>2020-08-08T14:29:17Z</time>
      </trkpt>
      <trkpt lat="41.0568430" lon="0.6330110">
        <ele>27.5</ele>
        <time>2020-08-08T14:29:18Z</time>
      </trkpt>
      <trkpt lat="41.0568380" lon="0.6330590">
        <ele>27.6</ele>
        <time>2020-08-08T14:29:19Z</time>
      </trkpt>
      <trkpt lat="41.0568330" lon="0.6331060">
        <ele>27.8</ele>
        <time>2020-08-08T14:29:20Z</time>
      </trkpt>
      <trkpt lat="41.0568290" lon="0.6331510">
        <ele>27.8</ele>
        <time>2020-08-08T14:29:21Z</time>
      </trkpt>
      <trkpt lat="41.0568260" lon="0.6331990">
        <ele>27.9</ele>
        <time>2020-08-08T14:29:22Z</time>
      </trkpt>
      <trkpt lat="41.0568250" lon="0.6332470">
        <ele>27.9</ele>
        <time>2020-08-08T14:29:23Z</time>
      </trkpt>
      <trkpt lat="41.0568270" lon="0.6333450">
        <ele>28.1</ele>
        <time>2020-08-08T14:29:25Z</time>
      </trkpt>
      <trkpt lat="41.0568330" lon="0.6333960">
        <ele>28.2</ele>
        <time>2020-08-08T14:29:26Z</time>
      </trkpt>
      <trkpt lat="41.0568420" lon="0.6334950">
        <ele>28.6</ele>
        <time>2020-08-08T14:29:28Z</time>
      </trkpt>
      <trkpt lat="41.0568400" lon="0.6335430">
        <ele>28.9</ele>
        <time>2020-08-08T14:29:29Z</time>
      </trkpt>
      <trkpt lat="41.0568360" lon="0.6335940">
        <ele>29.2</ele>
        <time>2020-08-08T14:29:30Z</time>
      </trkpt>
      <trkpt lat="41.0568360" lon="0.6336460">
        <ele>29.5</ele>
        <time>2020-08-08T14:29:31Z</time>
      </trkpt>
      <trkpt lat="41.0568470" lon="0.6337490">
        <ele>29.6</ele>
        <time>2020-08-08T14:29:33Z</time>
      </trkpt>
      <trkpt lat="41.0568600" lon="0.6338860">
        <ele>29.7</ele>
        <time>2020-08-08T14:29:36Z</time>
      </trkpt>
      <trkpt lat="41.0568600" lon="0.6339310">
        <ele>29.8</ele>
        <time>2020-08-08T14:29:37Z</time>
      </trkpt>
      <trkpt lat="41.0568620" lon="0.6339790">
        <ele>29.8</ele>
        <time>2020-08-08T14:29:38Z</time>
      </trkpt>
      <trkpt lat="41.0568640" lon="0.6340660">
        <ele>30.0</ele>
        <time>2020-08-08T14:29:40Z</time>
      </trkpt>
      <trkpt lat="41.0568660" lon="0.6341490">
        <ele>30.2</ele>
        <time>2020-08-08T14:29:42Z</time>
      </trkpt>
      <trkpt lat="41.0568750" lon="0.6342760">
        <ele>30.5</ele>
        <time>2020-08-08T14:29:45Z</time>
      </trkpt>
      <trkpt lat="41.0568750" lon="0.6343120">
        <ele>30.5</ele>
        <time>2020-08-08T14:29:46Z</time>
      </trkpt>
      <trkpt lat="41.0568640" lon="0.6343850">
        <ele>29.5</ele>
        <time>2020-08-08T14:29:48Z</time>
      </trkpt>
      <trkpt lat="41.0568580" lon="0.6344230">
        <ele>28.4</ele>
        <time>2020-08-08T14:29:49Z</time>
      </trkpt>
      <trkpt lat="41.0568510" lon="0.6344640">
        <ele>28.4</ele>
        <time>2020-08-08T14:29:50Z</time>
      </trkpt>
      <trkpt lat="41.0568370" lon="0.6345450">
        <ele>28.6</ele>
        <time>2020-08-08T14:29:52Z</time>
      </trkpt>
      <trkpt lat="41.0568290" lon="0.6345850">
        <ele>28.7</ele>
        <time>2020-08-08T14:29:53Z</time>
      </trkpt>
      <trkpt lat="41.0568200" lon="0.6346130">
        <ele>28.9</ele>
        <time>2020-08-08T14:29:54Z</time>
      </trkpt>
      <trkpt lat="41.0568130" lon="0.6346270">
        <ele>28.9</ele>
        <time>2020-08-08T14:29:55Z</time>
      </trkpt>
      <trkpt lat="41.0568080" lon="0.6346290">
        <ele>28.9</ele>
        <time>2020-08-08T14:29:56Z</time>
      </trkpt>
      <trkpt lat="41.0568020" lon="0.6346270">
        <ele>28.9</ele>
        <time>2020-08-08T14:29:58Z</time>
      </trkpt>
      <trkpt lat="41.0568010" lon="0.6346200">
        <ele>28.9</ele>
        <time>2020-08-08T14:29:59Z</time>
      </trkpt>
      <trkpt lat="41.0568040" lon="0.6346100">
        <ele>28.9</ele>
        <time>2020-08-08T14:30:01Z</time>
      </trkpt>
      <trkpt lat="41.0568040" lon="0.6346130">
        <ele>28.9</ele>
        <time>2020-08-08T14:30:02Z</time>
      </trkpt>
      <trkpt lat="41.0568040" lon="0.6346150">
        <ele>28.9</ele>
        <time>2020-08-08T14:30:04Z</time>
      </trkpt>
      <trkpt lat="41.0568030" lon="0.6346170">
        <ele>28.9</ele>
        <time>2020-08-08T14:30:05Z</time>
      </trkpt>
      <trkpt lat="41.0568020" lon="0.6346180">
        <ele>28.9</ele>
        <time>2020-08-08T14:30:07Z</time>
      </trkpt>
      <trkpt lat="41.0567840" lon="0.6346890">
        <ele>29.0</ele>
        <time>2020-08-08T14:30:27Z</time>
      </trkpt>
      <trkpt lat="41.0567900" lon="0.6347650">
        <ele>29.2</ele>
        <time>2020-08-08T14:30:29Z</time>
      </trkpt>
      <trkpt lat="41.0568230" lon="0.6348450">
        <ele>29.2</ele>
        <time>2020-08-08T14:30:31Z</time>
      </trkpt>
      <trkpt lat="41.0568350" lon="0.6348840">
        <ele>29.2</ele>
        <time>2020-08-08T14:30:33Z</time>
      </trkpt>
      <trkpt lat="41.0568170" lon="0.6349340">
        <ele>29.4</ele>
        <time>2020-08-08T14:30:34Z</time>
      </trkpt>
      <trkpt lat="41.0567610" lon="0.6349520">
        <ele>29.6</ele>
        <time>2020-08-08T14:30:36Z</time>
      </trkpt>
      <trkpt lat="41.0567080" lon="0.6349730">
        <ele>29.8</ele>
        <time>2020-08-08T14:30:38Z</time>
      </trkpt>
      <trkpt lat="41.0566860" lon="0.6349880">
        <ele>29.8</ele>
        <time>2020-08-08T14:30:39Z</time>
      </trkpt>
      <trkpt lat="41.0566420" lon="0.6350200">
        <ele>30.0</ele>
        <time>2020-08-08T14:30:41Z</time>
      </trkpt>
      <trkpt lat="41.0566080" lon="0.6350500">
        <ele>30.0</ele>
        <time>2020-08-08T14:30:42Z</time>
      </trkpt>
      <trkpt lat="41.0565960" lon="0.6350610">
        <ele>30.0</ele>
        <time>2020-08-08T14:30:43Z</time>
      </trkpt>
      <trkpt lat="41.0565800" lon="0.6350920">
        <ele>30.0</ele>
        <time>2020-08-08T14:30:44Z</time>
      </trkpt>
      <trkpt lat="41.0565740" lon="0.6351310">
        <ele>30.4</ele>
        <time>2020-08-08T14:30:45Z</time>
      </trkpt>
      <trkpt lat="41.0565780" lon="0.6351680">
        <ele>30.4</ele>
        <time>2020-08-08T14:30:46Z</time>
      </trkpt>
      <trkpt lat="41.0565960" lon="0.6352400">
        <ele>30.4</ele>
        <time>2020-08-08T14:30:48Z</time>
      </trkpt>
      <trkpt lat="41.0566220" lon="0.6353270">
        <ele>30.4</ele>
        <time>2020-08-08T14:30:50Z</time>
      </trkpt>
      <trkpt lat="41.0566320" lon="0.6353770">
        <ele>30.4</ele>
        <time>2020-08-08T14:30:51Z</time>
      </trkpt>
      <trkpt lat="41.0566340" lon="0.6353970">
        <ele>30.4</ele>
        <time>2020-08-08T14:30:52Z</time>
      </trkpt>
      <trkpt lat="41.0566380" lon="0.6354410">
        <ele>30.3</ele>
        <time>2020-08-08T14:30:53Z</time>
      </trkpt>
      <trkpt lat="41.0566480" lon="0.6355240">
        <ele>30.3</ele>
        <time>2020-08-08T14:30:55Z</time>
      </trkpt>
      <trkpt lat="41.0566630" lon="0.6355970">
        <ele>30.2</ele>
        <time>2020-08-08T14:30:57Z</time>
      </trkpt>
      <trkpt lat="41.0566700" lon="0.6356340">
        <ele>30.2</ele>
        <time>2020-08-08T14:30:58Z</time>
      </trkpt>
      <trkpt lat="41.0566850" lon="0.6357220">
        <ele>30.0</ele>
        <time>2020-08-08T14:31:00Z</time>
      </trkpt>
      <trkpt lat="41.0566920" lon="0.6357650">
        <ele>29.9</ele>
        <time>2020-08-08T14:31:01Z</time>
      </trkpt>
      <trkpt lat="41.0567070" lon="0.6358540">
        <ele>29.8</ele>
        <time>2020-08-08T14:31:03Z</time>
      </trkpt>
      <trkpt lat="41.0567130" lon="0.6358960">
        <ele>29.8</ele>
        <time>2020-08-08T14:31:04Z</time>
      </trkpt>
      <trkpt lat="41.0567220" lon="0.6359830">
        <ele>29.7</ele>
        <time>2020-08-08T14:31:06Z</time>
      </trkpt>
      <trkpt lat="41.0567270" lon="0.6360690">
        <ele>29.5</ele>
        <time>2020-08-08T14:31:08Z</time>
      </trkpt>
      <trkpt lat="41.0567350" lon="0.6361190">
        <ele>29.4</ele>
        <time>2020-08-08T14:31:09Z</time>
      </trkpt>
      <trkpt lat="41.0567470" lon="0.6361660">
        <ele>29.3</ele>
        <time>2020-08-08T14:31:10Z</time>
      </trkpt>
      <trkpt lat="41.0567890" lon="0.6362240">
        <ele>29.1</ele>
        <time>2020-08-08T14:31:12Z</time>
      </trkpt>
      <trkpt lat="41.0568190" lon="0.6362330">
        <ele>29.0</ele>
        <time>2020-08-08T14:31:13Z</time>
      </trkpt>
      <trkpt lat="41.0568510" lon="0.6362230">
        <ele>28.8</ele>
        <time>2020-08-08T14:31:14Z</time>
      </trkpt>
      <trkpt lat="41.0568860" lon="0.6362090">
        <ele>28.7</ele>
        <time>2020-08-08T14:31:15Z</time>
      </trkpt>
      <trkpt lat="41.0569540" lon="0.6361680">
        <ele>28.4</ele>
        <time>2020-08-08T14:31:17Z</time>
      </trkpt>
      <trkpt lat="41.0570140" lon="0.6361280">
        <ele>28.1</ele>
        <time>2020-08-08T14:31:19Z</time>
      </trkpt>
      <trkpt lat="41.0570400" lon="0.6361010">
        <ele>28.1</ele>
        <time>2020-08-08T14:31:20Z</time>
      </trkpt>
      <trkpt lat="41.0570610" lon="0.6360400">
        <ele>28.2</ele>
        <time>2020-08-08T14:31:22Z</time>
      </trkpt>
      <trkpt lat="41.0570570" lon="0.6359870">
        <ele>28.2</ele>
        <time>2020-08-08T14:31:23Z</time>
      </trkpt>
      <trkpt lat="41.0570540" lon="0.6359680">
        <ele>28.2</ele>
        <time>2020-08-08T14:31:24Z</time>
      </trkpt>
      <trkpt lat="41.0570360" lon="0.6358900">
        <ele>28.3</ele>
        <time>2020-08-08T14:31:26Z</time>
      </trkpt>
      <trkpt lat="41.0570240" lon="0.6358500">
        <ele>28.3</ele>
        <time>2020-08-08T14:31:27Z</time>
      </trkpt>
      <trkpt lat="41.0570100" lon="0.6358040">
        <ele>28.3</ele>
        <time>2020-08-08T14:31:28Z</time>
      </trkpt>
      <trkpt lat="41.0569860" lon="0.6357140">
        <ele>28.4</ele>
        <time>2020-08-08T14:31:30Z</time>
      </trkpt>
      <trkpt lat="41.0569750" lon="0.6356700">
        <ele>28.4</ele>
        <time>2020-08-08T14:31:31Z</time>
      </trkpt>
      <trkpt lat="41.0569540" lon="0.6355950">
        <ele>28.4</ele>
        <time>2020-08-08T14:31:33Z</time>
      </trkpt>
      <trkpt lat="41.0569450" lon="0.6355610">
        <ele>28.4</ele>
        <time>2020-08-08T14:31:34Z</time>
      </trkpt>
      <trkpt lat="41.0569670" lon="0.6355030">
        <ele>28.5</ele>
        <time>2020-08-08T14:31:42Z</time>
      </trkpt>
      <trkpt lat="41.0569790" lon="0.6355140">
        <ele>28.5</ele>
        <time>2020-08-08T14:31:43Z</time>
      </trkpt>
      <trkpt lat="41.0569910" lon="0.6355250">
        <ele>28.5</ele>
        <time>2020-08-08T14:31:44Z</time>
      </trkpt>
      <trkpt lat="41.0569980" lon="0.6355220">
        <ele>28.5</ele>
        <time>2020-08-08T14:31:45Z</time>
      </trkpt>
      <trkpt lat="41.0569980" lon="0.6355120">
        <ele>28.5</ele>
        <time>2020-08-08T14:31:46Z</time>
      </trkpt>
      <trkpt lat="41.0569970" lon="0.6355010">
        <ele>28.5</ele>
        <time>2020-08-08T14:31:48Z</time>
      </trkpt>
      <trkpt lat="41.0569960" lon="0.6354910">
        <ele>28.6</ele>
        <time>2020-08-08T14:31:49Z</time>
      </trkpt>
      <trkpt lat="41.0569960" lon="0.6354800">
        <ele>28.6</ele>
        <time>2020-08-08T14:31:50Z</time>
      </trkpt>
      <trkpt lat="41.0569950" lon="0.6354700">
        <ele>28.6</ele>
        <time>2020-08-08T14:31:51Z</time>
      </trkpt>
      <trkpt lat="41.0569900" lon="0.6354320">
        <ele>28.6</ele>
        <time>2020-08-08T14:31:53Z</time>
      </trkpt>
      <trkpt lat="41.0569800" lon="0.6354000">
        <ele>28.6</ele>
        <time>2020-08-08T14:31:55Z</time>
      </trkpt>
      <trkpt lat="41.0569770" lon="0.6353890">
        <ele>28.6</ele>
        <time>2020-08-08T14:31:56Z</time>
      </trkpt>
      <trkpt lat="41.0569680" lon="0.6353630">
        <ele>28.6</ele>
        <time>2020-08-08T14:31:58Z</time>
      </trkpt>
      <trkpt lat="41.0569710" lon="0.6353400">
        <ele>28.6</ele>
        <time>2020-08-08T14:32:00Z</time>
      </trkpt>
      <trkpt lat="41.0569790" lon="0.6353260">
        <ele>28.6</ele>
        <time>2020-08-08T14:32:02Z</time>
      </trkpt>
      <trkpt lat="41.0569790" lon="0.6353210">
        <ele>28.6</ele>
        <time>2020-08-08T14:32:04Z</time>
      </trkpt>
      <trkpt lat="41.0569800" lon="0.6353150">
        <ele>28.6</ele>
        <time>2020-08-08T14:32:06Z</time>
      </trkpt>
      <trkpt lat="41.0569810" lon="0.6353100">
        <ele>28.6</ele>
        <time>2020-08-08T14:32:07Z</time>
      </trkpt>
      <trkpt lat="41.0569810" lon="0.6353040">
        <ele>28.6</ele>
        <time>2020-08-08T14:32:09Z</time>
      </trkpt>
      <trkpt lat="41.0569820" lon="0.6352990">
        <ele>28.6</ele>
        <time>2020-08-08T14:32:10Z</time>
      </trkpt>
      <trkpt lat="41.0569820" lon="0.6352930">
        <ele>28.6</ele>
        <time>2020-08-08T14:32:12Z</time>
      </trkpt>
      <trkpt lat="41.0569830" lon="0.6352880">
        <ele>28.6</ele>
        <time>2020-08-08T14:32:14Z</time>
      </trkpt>
      <trkpt lat="41.0569840" lon="0.6352820">
        <ele>28.6</ele>
        <time>2020-08-08T14:32:15Z</time>
      </trkpt>
      <trkpt lat="41.0569840" lon="0.6352760">
        <ele>28.6</ele>
        <time>2020-08-08T14:32:16Z</time>
      </trkpt>
      <trkpt lat="41.0569850" lon="0.6352710">
        <ele>28.6</ele>
        <time>2020-08-08T14:32:17Z</time>
      </trkpt>
      <trkpt lat="41.0569860" lon="0.6352650">
        <ele>28.6</ele>
        <time>2020-08-08T14:32:18Z</time>
      </trkpt>
      <trkpt lat="41.0569860" lon="0.6352600">
        <ele>28.6</ele>
        <time>2020-08-08T14:32:20Z</time>
      </trkpt>
      <trkpt lat="41.0569870" lon="0.6352540">
        <ele>28.7</ele>
        <time>2020-08-08T14:32:26Z</time>
      </trkpt>
      <trkpt lat="41.0569870" lon="0.6352490">
        <ele>28.7</ele>
        <time>2020-08-08T14:32:27Z</time>
      </trkpt>
      <trkpt lat="41.0569880" lon="0.6352430">
        <ele>28.7</ele>
        <time>2020-08-08T14:32:28Z</time>
      </trkpt>
      <trkpt lat="41.0569640" lon="0.6352030">
        <ele>28.7</ele>
        <time>2020-08-08T14:32:30Z</time>
      </trkpt>
      <trkpt lat="41.0569490" lon="0.6351810">
        <ele>28.7</ele>
        <time>2020-08-08T14:32:31Z</time>
      </trkpt>
      <trkpt lat="41.0569270" lon="0.6351390">
        <ele>28.7</ele>
        <time>2020-08-08T14:32:32Z</time>
      </trkpt>
      <trkpt lat="41.0569190" lon="0.6351250">
        <ele>28.7</ele>
        <time>2020-08-08T14:32:33Z</time>
      </trkpt>
      <trkpt lat="41.0569030" lon="0.6350920">
        <ele>28.7</ele>
        <time>2020-08-08T14:32:34Z</time>
      </trkpt>
      <trkpt lat="41.0568860" lon="0.6350580">
        <ele>28.8</ele>
        <time>2020-08-08T14:32:35Z</time>
      </trkpt>
      <trkpt lat="41.0568520" lon="0.6349870">
        <ele>28.9</ele>
        <time>2020-08-08T14:32:37Z</time>
      </trkpt>
      <trkpt lat="41.0568330" lon="0.6349520">
        <ele>29.0</ele>
        <time>2020-08-08T14:32:38Z</time>
      </trkpt>
      <trkpt lat="41.0568150" lon="0.6349190">
        <ele>29.0</ele>
        <time>2020-08-08T14:32:39Z</time>
      </trkpt>
      <trkpt lat="41.0567980" lon="0.6348840">
        <ele>29.1</ele>
        <time>2020-08-08T14:32:40Z</time>
      </trkpt>
      <trkpt lat="41.0567790" lon="0.6348420">
        <ele>29.2</ele>
        <time>2020-08-08T14:32:41Z</time>
      </trkpt>
      <trkpt lat="41.0567720" lon="0.6348110">
        <ele>29.2</ele>
        <time>2020-08-08T14:32:42Z</time>
      </trkpt>
      <trkpt lat="41.0567890" lon="0.6347530">
        <ele>29.2</ele>
        <time>2020-08-08T14:32:44Z</time>
      </trkpt>
      <trkpt lat="41.0568470" lon="0.6347110">
        <ele>29.1</ele>
        <time>2020-08-08T14:32:46Z</time>
      </trkpt>
      <trkpt lat="41.0569010" lon="0.6346820">
        <ele>28.9</ele>
        <time>2020-08-08T14:32:48Z</time>
      </trkpt>
      <trkpt lat="41.0569610" lon="0.6346500">
        <ele>28.7</ele>
        <time>2020-08-08T14:32:50Z</time>
      </trkpt>
      <trkpt lat="41.0569910" lon="0.6346330">
        <ele>28.7</ele>
        <time>2020-08-08T14:32:51Z</time>
      </trkpt>
      <trkpt lat="41.0570410" lon="0.6346180">
        <ele>28.6</ele>
        <time>2020-08-08T14:32:53Z</time>
      </trkpt>
      <trkpt lat="41.0570720" lon="0.6346130">
        <ele>28.6</ele>
        <time>2020-08-08T14:32:54Z</time>
      </trkpt>
      <trkpt lat="41.0571430" lon="0.6346090">
        <ele>28.6</ele>
        <time>2020-08-08T14:32:56Z</time>
      </trkpt>
      <trkpt lat="41.0572080" lon="0.6346040">
        <ele>28.6</ele>
        <time>2020-08-08T14:32:58Z</time>
      </trkpt>
      <trkpt lat="41.0572630" lon="0.6345960">
        <ele>28.6</ele>
        <time>2020-08-08T14:33:00Z</time>
      </trkpt>
      <trkpt lat="41.0573140" lon="0.6345710">
        <ele>28.6</ele>
        <time>2020-08-08T14:33:02Z</time>
      </trkpt>
      <trkpt lat="41.0573390" lon="0.6345540">
        <ele>28.6</ele>
        <time>2020-08-08T14:33:03Z</time>
      </trkpt>
      <trkpt lat="41.0573720" lon="0.6345360">
        <ele>28.7</ele>
        <time>2020-08-08T14:33:04Z</time>
      </trkpt>
      <trkpt lat="41.0574080" lon="0.6345260">
        <ele>28.7</ele>
        <time>2020-08-08T14:33:05Z</time>
      </trkpt>
      <trkpt lat="41.0574460" lon="0.6345220">
        <ele>28.7</ele>
        <time>2020-08-08T14:33:06Z</time>
      </trkpt>
      <trkpt lat="41.0575220" lon="0.6345220">
        <ele>28.7</ele>
        <time>2020-08-08T14:33:08Z</time>
      </trkpt>
      <trkpt lat="41.0575530" lon="0.6345250">
        <ele>28.8</ele>
        <time>2020-08-08T14:33:09Z</time>
      </trkpt>
      <trkpt lat="41.0575880" lon="0.6345250">
        <ele>28.8</ele>
        <time>2020-08-08T14:33:10Z</time>
      </trkpt>
      <trkpt lat="41.0576510" lon="0.6345230">
        <ele>28.8</ele>
        <time>2020-08-08T14:33:12Z</time>
      </trkpt>
      <trkpt lat="41.0576840" lon="0.6345170">
        <ele>28.8</ele>
        <time>2020-08-08T14:33:13Z</time>
      </trkpt>
      <trkpt lat="41.0577160" lon="0.6345110">
        <ele>28.7</ele>
        <time>2020-08-08T14:33:14Z</time>
      </trkpt>
      <trkpt lat="41.0577890" lon="0.6345040">
        <ele>28.7</ele>
        <time>2020-08-08T14:33:16Z</time>
      </trkpt>
      <trkpt lat="41.0578350" lon="0.6345090">
        <ele>28.7</ele>
        <time>2020-08-08T14:33:17Z</time>
      </trkpt>
      <trkpt lat="41.0579310" lon="0.6345240">
        <ele>28.6</ele>
        <time>2020-08-08T14:33:19Z</time>
      </trkpt>
      <trkpt lat="41.0579810" lon="0.6345260">
        <ele>28.6</ele>
        <time>2020-08-08T14:33:20Z</time>
      </trkpt>
      <trkpt lat="41.0580760" lon="0.6345290">
        <ele>28.5</ele>
        <time>2020-08-08T14:33:22Z</time>
      </trkpt>
      <trkpt lat="41.0581270" lon="0.6345310">
        <ele>28.5</ele>
        <time>2020-08-08T14:33:23Z</time>
      </trkpt>
      <trkpt lat="41.0581960" lon="0.6345410">
        <ele>28.4</ele>
        <time>2020-08-08T14:33:24Z</time>
      </trkpt>
      <trkpt lat="41.0582530" lon="0.6345330">
        <ele>28.3</ele>
        <time>2020-08-08T14:33:25Z</time>
      </trkpt>
      <trkpt lat="41.0582900" lon="0.6345190">
        <ele>28.2</ele>
        <time>2020-08-08T14:33:26Z</time>
      </trkpt>
      <trkpt lat="41.0583690" lon="0.6345070">
        <ele>28.2</ele>
        <time>2020-08-08T14:33:28Z</time>
      </trkpt>
      <trkpt lat="41.0584160" lon="0.6345190">
        <ele>28.2</ele>
        <time>2020-08-08T14:33:29Z</time>
      </trkpt>
      <trkpt lat="41.0584620" lon="0.6345280">
        <ele>28.2</ele>
        <time>2020-08-08T14:33:30Z</time>
      </trkpt>
      <trkpt lat="41.0585040" lon="0.6345410">
        <ele>28.2</ele>
        <time>2020-08-08T14:33:31Z</time>
      </trkpt>
      <trkpt lat="41.0585480" lon="0.6345480">
        <ele>28.2</ele>
        <time>2020-08-08T14:33:32Z</time>
      </trkpt>
      <trkpt lat="41.0586390" lon="0.6345640">
        <ele>28.2</ele>
        <time>2020-08-08T14:33:34Z</time>
      </trkpt>
      <trkpt lat="41.0586940" lon="0.6345800">
        <ele>28.2</ele>
        <time>2020-08-08T14:33:35Z</time>
      </trkpt>
      <trkpt lat="41.0587400" lon="0.6345930">
        <ele>28.2</ele>
        <time>2020-08-08T14:33:36Z</time>
      </trkpt>
      <trkpt lat="41.0587850" lon="0.6346060">
        <ele>28.3</ele>
        <time>2020-08-08T14:33:37Z</time>
      </trkpt>
      <trkpt lat="41.0588180" lon="0.6346150">
        <ele>28.3</ele>
        <time>2020-08-08T14:33:38Z</time>
      </trkpt>
      <trkpt lat="41.0588980" lon="0.6346330">
        <ele>28.4</ele>
        <time>2020-08-08T14:33:40Z</time>
      </trkpt>
      <trkpt lat="41.0589340" lon="0.6346410">
        <ele>28.4</ele>
        <time>2020-08-08T14:33:41Z</time>
      </trkpt>
      <trkpt lat="41.0590110" lon="0.6346570">
        <ele>28.5</ele>
        <time>2020-08-08T14:33:43Z</time>
      </trkpt>
      <trkpt lat="41.0590550" lon="0.6346650">
        <ele>28.5</ele>
        <time>2020-08-08T14:33:44Z</time>
      </trkpt>
      <trkpt lat="41.0591000" lon="0.6346740">
        <ele>28.6</ele>
        <time>2020-08-08T14:33:45Z</time>
      </trkpt>
      <trkpt lat="41.0591790" lon="0.6346940">
        <ele>28.6</ele>
        <time>2020-08-08T14:33:47Z</time>
      </trkpt>
      <trkpt lat="41.0592170" lon="0.6347050">
        <ele>28.7</ele>
        <time>2020-08-08T14:33:48Z</time>
      </trkpt>
      <trkpt lat="41.0592560" lon="0.6347160">
        <ele>28.7</ele>
        <time>2020-08-08T14:33:49Z</time>
      </trkpt>
      <trkpt lat="41.0593340" lon="0.6347420">
        <ele>28.6</ele>
        <time>2020-08-08T14:33:51Z</time>
      </trkpt>
      <trkpt lat="41.0594120" lon="0.6347760">
        <ele>28.6</ele>
        <time>2020-08-08T14:33:53Z</time>
      </trkpt>
      <trkpt lat="41.0594520" lon="0.6347940">
        <ele>28.6</ele>
        <time>2020-08-08T14:33:54Z</time>
      </trkpt>
      <trkpt lat="41.0595440" lon="0.6348380">
        <ele>28.6</ele>
        <time>2020-08-08T14:33:56Z</time>
      </trkpt>
      <trkpt lat="41.0595860" lon="0.6348580">
        <ele>28.6</ele>
        <time>2020-08-08T14:33:57Z</time>
      </trkpt>
      <trkpt lat="41.0596240" lon="0.6348760">
        <ele>28.6</ele>
        <time>2020-08-08T14:33:58Z</time>
      </trkpt>
      <trkpt lat="41.0596960" lon="0.6349110">
        <ele>28.6</ele>
        <time>2020-08-08T14:34:00Z</time>
      </trkpt>
      <trkpt lat="41.0597360" lon="0.6349300">
        <ele>28.6</ele>
        <time>2020-08-08T14:34:01Z</time>
      </trkpt>
      <trkpt lat="41.0598180" lon="0.6349650">
        <ele>28.7</ele>
        <time>2020-08-08T14:34:03Z</time>
      </trkpt>
      <trkpt lat="41.0598550" lon="0.6349810">
        <ele>28.7</ele>
        <time>2020-08-08T14:34:04Z</time>
      </trkpt>
      <trkpt lat="41.0599360" lon="0.6350220">
        <ele>28.8</ele>
        <time>2020-08-08T14:34:06Z</time>
      </trkpt>
      <trkpt lat="41.0599810" lon="0.6350410">
        <ele>28.8</ele>
        <time>2020-08-08T14:34:07Z</time>
      </trkpt>
      <trkpt lat="41.0600230" lon="0.6350570">
        <ele>28.8</ele>
        <time>2020-08-08T14:34:08Z</time>
      </trkpt>
      <trkpt lat="41.0601130" lon="0.6350950">
        <ele>28.8</ele>
        <time>2020-08-08T14:34:10Z</time>
      </trkpt>
      <trkpt lat="41.0601630" lon="0.6351190">
        <ele>28.8</ele>
        <time>2020-08-08T14:34:11Z</time>
      </trkpt>
      <trkpt lat="41.0602020" lon="0.6351390">
        <ele>28.8</ele>
        <time>2020-08-08T14:34:12Z</time>
      </trkpt>
      <trkpt lat="41.0602890" lon="0.6351850">
        <ele>28.8</ele>
        <time>2020-08-08T14:34:14Z</time>
      </trkpt>
      <trkpt lat="41.0603330" lon="0.6352020">
        <ele>28.9</ele>
        <time>2020-08-08T14:34:15Z</time>
      </trkpt>
      <trkpt lat="41.0603660" lon="0.6352120">
        <ele>28.9</ele>
        <time>2020-08-08T14:34:16Z</time>
      </trkpt>
      <trkpt lat="41.0604040" lon="0.6352190">
        <ele>28.9</ele>
        <time>2020-08-08T14:34:17Z</time>
      </trkpt>
      <trkpt lat="41.0604940" lon="0.6352290">
        <ele>29.0</ele>
        <time>2020-08-08T14:34:19Z</time>
      </trkpt>
      <trkpt lat="41.0605890" lon="0.6352360">
        <ele>29.2</ele>
        <time>2020-08-08T14:34:21Z</time>
      </trkpt>
      <trkpt lat="41.0606880" lon="0.6352370">
        <ele>29.3</ele>
        <time>2020-08-08T14:34:23Z</time>
      </trkpt>
      <trkpt lat="41.0607330" lon="0.6352390">
        <ele>29.4</ele>
        <time>2020-08-08T14:34:24Z</time>
      </trkpt>
      <trkpt lat="41.0607740" lon="0.6352420">
        <ele>29.4</ele>
        <time>2020-08-08T14:34:25Z</time>
      </trkpt>
      <trkpt lat="41.0608250" lon="0.6352510">
        <ele>29.5</ele>
        <time>2020-08-08T14:34:26Z</time>
      </trkpt>
      <trkpt lat="41.0609160" lon="0.6352740">
        <ele>29.6</ele>
        <time>2020-08-08T14:34:28Z</time>
      </trkpt>
      <trkpt lat="41.0609820" lon="0.6353040">
        <ele>29.7</ele>
        <time>2020-08-08T14:34:30Z</time>
      </trkpt>
      <trkpt lat="41.0610190" lon="0.6353320">
        <ele>29.8</ele>
        <time>2020-08-08T14:34:31Z</time>
      </trkpt>
      <trkpt lat="41.0610910" lon="0.6353820">
        <ele>29.9</ele>
        <time>2020-08-08T14:34:33Z</time>
      </trkpt>
      <trkpt lat="41.0611310" lon="0.6354070">
        <ele>30.0</ele>
        <time>2020-08-08T14:34:34Z</time>
      </trkpt>
      <trkpt lat="41.0611660" lon="0.6354280">
        <ele>30.0</ele>
        <time>2020-08-08T14:34:35Z</time>
      </trkpt>
      <trkpt lat="41.0612090" lon="0.6354510">
        <ele>30.1</ele>
        <time>2020-08-08T14:34:36Z</time>
      </trkpt>
      <trkpt lat="41.0612900" lon="0.6354930">
        <ele>30.3</ele>
        <time>2020-08-08T14:34:38Z</time>
      </trkpt>
      <trkpt lat="41.0613310" lon="0.6355140">
        <ele>30.4</ele>
        <time>2020-08-08T14:34:39Z</time>
      </trkpt>
      <trkpt lat="41.0614190" lon="0.6355570">
        <ele>30.7</ele>
        <time>2020-08-08T14:34:41Z</time>
      </trkpt>
      <trkpt lat="41.0614580" lon="0.6355770">
        <ele>30.8</ele>
        <time>2020-08-08T14:34:42Z</time>
      </trkpt>
      <trkpt lat="41.0615360" lon="0.6356200">
        <ele>31.0</ele>
        <time>2020-08-08T14:34:44Z</time>
      </trkpt>
      <trkpt lat="41.0615810" lon="0.6356410">
        <ele>31.1</ele>
        <time>2020-08-08T14:34:45Z</time>
      </trkpt>
      <trkpt lat="41.0616740" lon="0.6356870">
        <ele>31.1</ele>
        <time>2020-08-08T14:34:47Z</time>
      </trkpt>
      <trkpt lat="41.0617200" lon="0.6357070">
        <ele>31.1</ele>
        <time>2020-08-08T14:34:48Z</time>
      </trkpt>
      <trkpt lat="41.0617680" lon="0.6357290">
        <ele>31.2</ele>
        <time>2020-08-08T14:34:49Z</time>
      </trkpt>
      <trkpt lat="41.0618130" lon="0.6357510">
        <ele>31.2</ele>
        <time>2020-08-08T14:34:50Z</time>
      </trkpt>
      <trkpt lat="41.0619020" lon="0.6357950">
        <ele>31.3</ele>
        <time>2020-08-08T14:34:52Z</time>
      </trkpt>
      <trkpt lat="41.0619490" lon="0.6358250">
        <ele>31.4</ele>
        <time>2020-08-08T14:34:53Z</time>
      </trkpt>
      <trkpt lat="41.0620420" lon="0.6358790">
        <ele>31.5</ele>
        <time>2020-08-08T14:34:55Z</time>
      </trkpt>
      <trkpt lat="41.0620920" lon="0.6359050">
        <ele>31.5</ele>
        <time>2020-08-08T14:34:56Z</time>
      </trkpt>
      <trkpt lat="41.0621830" lon="0.6359500">
        <ele>31.7</ele>
        <time>2020-08-08T14:34:58Z</time>
      </trkpt>
      <trkpt lat="41.0622220" lon="0.6359690">
        <ele>31.7</ele>
        <time>2020-08-08T14:34:59Z</time>
      </trkpt>
      <trkpt lat="41.0622700" lon="0.6359940">
        <ele>31.8</ele>
        <time>2020-08-08T14:35:00Z</time>
      </trkpt>
      <trkpt lat="41.0623230" lon="0.6360160">
        <ele>31.9</ele>
        <time>2020-08-08T14:35:01Z</time>
      </trkpt>
      <trkpt lat="41.0624230" lon="0.6360450">
        <ele>32.0</ele>
        <time>2020-08-08T14:35:03Z</time>
      </trkpt>
      <trkpt lat="41.0625210" lon="0.6360720">
        <ele>32.3</ele>
        <time>2020-08-08T14:35:05Z</time>
      </trkpt>
      <trkpt lat="41.0625680" lon="0.6360900">
        <ele>32.4</ele>
        <time>2020-08-08T14:35:06Z</time>
      </trkpt>
      <trkpt lat="41.0626540" lon="0.6361230">
        <ele>32.6</ele>
        <time>2020-08-08T14:35:08Z</time>
      </trkpt>
      <trkpt lat="41.0627440" lon="0.6361670">
        <ele>32.7</ele>
        <time>2020-08-08T14:35:10Z</time>
      </trkpt>
      <trkpt lat="41.0628210" lon="0.6361970">
        <ele>32.9</ele>
        <time>2020-08-08T14:35:12Z</time>
      </trkpt>
      <trkpt lat="41.0628570" lon="0.6362070">
        <ele>32.9</ele>
        <time>2020-08-08T14:35:13Z</time>
      </trkpt>
      <trkpt lat="41.0629430" lon="0.6362360">
        <ele>33.1</ele>
        <time>2020-08-08T14:35:15Z</time>
      </trkpt>
      <trkpt lat="41.0629770" lon="0.6362440">
        <ele>33.2</ele>
        <time>2020-08-08T14:35:16Z</time>
      </trkpt>
      <trkpt lat="41.0630230" lon="0.6362560">
        <ele>33.3</ele>
        <time>2020-08-08T14:35:17Z</time>
      </trkpt>
      <trkpt lat="41.0630980" lon="0.6362770">
        <ele>33.4</ele>
        <time>2020-08-08T14:35:19Z</time>
      </trkpt>
      <trkpt lat="41.0631960" lon="0.6362980">
        <ele>33.7</ele>
        <time>2020-08-08T14:35:21Z</time>
      </trkpt>
      <trkpt lat="41.0632420" lon="0.6363090">
        <ele>33.7</ele>
        <time>2020-08-08T14:35:22Z</time>
      </trkpt>
      <trkpt lat="41.0632830" lon="0.6363170">
        <ele>33.8</ele>
        <time>2020-08-08T14:35:23Z</time>
      </trkpt>
      <trkpt lat="41.0633760" lon="0.6363400">
        <ele>34.1</ele>
        <time>2020-08-08T14:35:25Z</time>
      </trkpt>
      <trkpt lat="41.0634190" lon="0.6363540">
        <ele>34.4</ele>
        <time>2020-08-08T14:35:26Z</time>
      </trkpt>
      <trkpt lat="41.0635010" lon="0.6363810">
        <ele>34.7</ele>
        <time>2020-08-08T14:35:28Z</time>
      </trkpt>
      <trkpt lat="41.0635730" lon="0.6364030">
        <ele>34.9</ele>
        <time>2020-08-08T14:35:30Z</time>
      </trkpt>
      <trkpt lat="41.0636580" lon="0.6364250">
        <ele>35.0</ele>
        <time>2020-08-08T14:35:32Z</time>
      </trkpt>
      <trkpt lat="41.0636900" lon="0.6364310">
        <ele>35.1</ele>
        <time>2020-08-08T14:35:33Z</time>
      </trkpt>
      <trkpt lat="41.0637310" lon="0.6364400">
        <ele>35.2</ele>
        <time>2020-08-08T14:35:34Z</time>
      </trkpt>
      <trkpt lat="41.0638200" lon="0.6364600">
        <ele>35.3</ele>
        <time>2020-08-08T14:35:36Z</time>
      </trkpt>
      <trkpt lat="41.0638610" lon="0.6364700">
        <ele>35.4</ele>
        <time>2020-08-08T14:35:37Z</time>
      </trkpt>
      <trkpt lat="41.0639060" lon="0.6364800">
        <ele>35.5</ele>
        <time>2020-08-08T14:35:38Z</time>
      </trkpt>
      <trkpt lat="41.0639480" lon="0.6364900">
        <ele>35.6</ele>
        <time>2020-08-08T14:35:39Z</time>
      </trkpt>
      <trkpt lat="41.0639920" lon="0.6365010">
        <ele>35.7</ele>
        <time>2020-08-08T14:35:40Z</time>
      </trkpt>
      <trkpt lat="41.0640330" lon="0.6365100">
        <ele>35.8</ele>
        <time>2020-08-08T14:35:41Z</time>
      </trkpt>
      <trkpt lat="41.0641130" lon="0.6365300">
        <ele>36.0</ele>
        <time>2020-08-08T14:35:43Z</time>
      </trkpt>
      <trkpt lat="41.0641900" lon="0.6365500">
        <ele>36.2</ele>
        <time>2020-08-08T14:35:45Z</time>
      </trkpt>
      <trkpt lat="41.0642360" lon="0.6365610">
        <ele>36.3</ele>
        <time>2020-08-08T14:35:46Z</time>
      </trkpt>
      <trkpt lat="41.0642800" lon="0.6365720">
        <ele>36.4</ele>
        <time>2020-08-08T14:35:47Z</time>
      </trkpt>
      <trkpt lat="41.0643700" lon="0.6365980">
        <ele>36.5</ele>
        <time>2020-08-08T14:35:49Z</time>
      </trkpt>
      <trkpt lat="41.0644090" lon="0.6366090">
        <ele>36.6</ele>
        <time>2020-08-08T14:35:50Z</time>
      </trkpt>
      <trkpt lat="41.0644980" lon="0.6366290">
        <ele>36.7</ele>
        <time>2020-08-08T14:35:52Z</time>
      </trkpt>
      <trkpt lat="41.0645340" lon="0.6366350">
        <ele>36.8</ele>
        <time>2020-08-08T14:35:53Z</time>
      </trkpt>
      <trkpt lat="41.0645750" lon="0.6366410">
        <ele>36.9</ele>
        <time>2020-08-08T14:35:54Z</time>
      </trkpt>
      <trkpt lat="41.0646520" lon="0.6366480">
        <ele>37.0</ele>
        <time>2020-08-08T14:35:56Z</time>
      </trkpt>
      <trkpt lat="41.0647020" lon="0.6366490">
        <ele>37.1</ele>
        <time>2020-08-08T14:35:57Z</time>
      </trkpt>
      <trkpt lat="41.0647570" lon="0.6366430">
        <ele>37.2</ele>
        <time>2020-08-08T14:35:59Z</time>
      </trkpt>
      <trkpt lat="41.0648200" lon="0.6366320">
        <ele>37.3</ele>
        <time>2020-08-08T14:36:00Z</time>
      </trkpt>
      <trkpt lat="41.0649000" lon="0.6366160">
        <ele>37.4</ele>
        <time>2020-08-08T14:36:02Z</time>
      </trkpt>
      <trkpt lat="41.0649600" lon="0.6366050">
        <ele>37.4</ele>
        <time>2020-08-08T14:36:03Z</time>
      </trkpt>
      <trkpt lat="41.0650130" lon="0.6365990">
        <ele>37.4</ele>
        <time>2020-08-08T14:36:04Z</time>
      </trkpt>
      <trkpt lat="41.0650620" lon="0.6365940">
        <ele>37.4</ele>
        <time>2020-08-08T14:36:05Z</time>
      </trkpt>
      <trkpt lat="41.0651560" lon="0.6365830">
        <ele>37.5</ele>
        <time>2020-08-08T14:36:07Z</time>
      </trkpt>
      <trkpt lat="41.0652060" lon="0.6365750">
        <ele>37.5</ele>
        <time>2020-08-08T14:36:08Z</time>
      </trkpt>
      <trkpt lat="41.0652570" lon="0.6365650">
        <ele>37.6</ele>
        <time>2020-08-08T14:36:09Z</time>
      </trkpt>
      <trkpt lat="41.0653540" lon="0.6365580">
        <ele>37.8</ele>
        <time>2020-08-08T14:36:11Z</time>
      </trkpt>
      <trkpt lat="41.0654060" lon="0.6365600">
        <ele>37.8</ele>
        <time>2020-08-08T14:36:12Z</time>
      </trkpt>
      <trkpt lat="41.0655030" lon="0.6365620">
        <ele>37.9</ele>
        <time>2020-08-08T14:36:14Z</time>
      </trkpt>
      <trkpt lat="41.0655530" lon="0.6365600">
        <ele>38.0</ele>
        <time>2020-08-08T14:36:15Z</time>
      </trkpt>
      <trkpt lat="41.0656510" lon="0.6365620">
        <ele>38.0</ele>
        <time>2020-08-08T14:36:17Z</time>
      </trkpt>
      <trkpt lat="41.0657030" lon="0.6365590">
        <ele>38.0</ele>
        <time>2020-08-08T14:36:18Z</time>
      </trkpt>
      <trkpt lat="41.0658010" lon="0.6365460">
        <ele>38.1</ele>
        <time>2020-08-08T14:36:20Z</time>
      </trkpt>
      <trkpt lat="41.0658940" lon="0.6365290">
        <ele>38.2</ele>
        <time>2020-08-08T14:36:22Z</time>
      </trkpt>
      <trkpt lat="41.0659420" lon="0.6365220">
        <ele>38.2</ele>
        <time>2020-08-08T14:36:23Z</time>
      </trkpt>
      <trkpt lat="41.0660330" lon="0.6365200">
        <ele>38.3</ele>
        <time>2020-08-08T14:36:25Z</time>
      </trkpt>
      <trkpt lat="41.0660790" lon="0.6365160">
        <ele>38.3</ele>
        <time>2020-08-08T14:36:26Z</time>
      </trkpt>
      <trkpt lat="41.0661190" lon="0.6365110">
        <ele>38.3</ele>
        <time>2020-08-08T14:36:27Z</time>
      </trkpt>
      <trkpt lat="41.0661640" lon="0.6365100">
        <ele>38.4</ele>
        <time>2020-08-08T14:36:28Z</time>
      </trkpt>
      <trkpt lat="41.0662110" lon="0.6365130">
        <ele>38.4</ele>
        <time>2020-08-08T14:36:29Z</time>
      </trkpt>
      <trkpt lat="41.0663080" lon="0.6365110">
        <ele>38.5</ele>
        <time>2020-08-08T14:36:31Z</time>
      </trkpt>
      <trkpt lat="41.0663600" lon="0.6365110">
        <ele>38.5</ele>
        <time>2020-08-08T14:36:32Z</time>
      </trkpt>
      <trkpt lat="41.0664670" lon="0.6365040">
        <ele>38.6</ele>
        <time>2020-08-08T14:36:34Z</time>
      </trkpt>
      <trkpt lat="41.0665130" lon="0.6365010">
        <ele>38.6</ele>
        <time>2020-08-08T14:36:35Z</time>
      </trkpt>
      <trkpt lat="41.0666100" lon="0.6364910">
        <ele>38.8</ele>
        <time>2020-08-08T14:36:37Z</time>
      </trkpt>
      <trkpt lat="41.0666590" lon="0.6364880">
        <ele>38.8</ele>
        <time>2020-08-08T14:36:38Z</time>
      </trkpt>
      <trkpt lat="41.0667100" lon="0.6364840">
        <ele>38.9</ele>
        <time>2020-08-08T14:36:39Z</time>
      </trkpt>
      <trkpt lat="41.0668110" lon="0.6364860">
        <ele>39.0</ele>
        <time>2020-08-08T14:36:41Z</time>
      </trkpt>
      <trkpt lat="41.0668550" lon="0.6364780">
        <ele>39.0</ele>
        <time>2020-08-08T14:36:42Z</time>
      </trkpt>
      <trkpt lat="41.0669030" lon="0.6364690">
        <ele>39.1</ele>
        <time>2020-08-08T14:36:43Z</time>
      </trkpt>
      <trkpt lat="41.0669840" lon="0.6364520">
        <ele>39.2</ele>
        <time>2020-08-08T14:36:45Z</time>
      </trkpt>
      <trkpt lat="41.0670280" lon="0.6364450">
        <ele>39.2</ele>
        <time>2020-08-08T14:36:46Z</time>
      </trkpt>
      <trkpt lat="41.0671220" lon="0.6364370">
        <ele>39.3</ele>
        <time>2020-08-08T14:36:48Z</time>
      </trkpt>
      <trkpt lat="41.0672190" lon="0.6364300">
        <ele>39.4</ele>
        <time>2020-08-08T14:36:50Z</time>
      </trkpt>
      <trkpt lat="41.0673120" lon="0.6364230">
        <ele>39.5</ele>
        <time>2020-08-08T14:36:52Z</time>
      </trkpt>
      <trkpt lat="41.0673620" lon="0.6364160">
        <ele>39.5</ele>
        <time>2020-08-08T14:36:53Z</time>
      </trkpt>
      <trkpt lat="41.0674120" lon="0.6364080">
        <ele>39.6</ele>
        <time>2020-08-08T14:36:54Z</time>
      </trkpt>
      <trkpt lat="41.0675040" lon="0.6363830">
        <ele>39.7</ele>
        <time>2020-08-08T14:36:56Z</time>
      </trkpt>
      <trkpt lat="41.0676030" lon="0.6363660">
        <ele>39.9</ele>
        <time>2020-08-08T14:36:58Z</time>
      </trkpt>
      <trkpt lat="41.0676550" lon="0.6363620">
        <ele>39.9</ele>
        <time>2020-08-08T14:36:59Z</time>
      </trkpt>
      <trkpt lat="41.0677640" lon="0.6363520">
        <ele>40.0</ele>
        <time>2020-08-08T14:37:01Z</time>
      </trkpt>
      <trkpt lat="41.0678120" lon="0.6363410">
        <ele>40.1</ele>
        <time>2020-08-08T14:37:02Z</time>
      </trkpt>
      <trkpt lat="41.0678560" lon="0.6363380">
        <ele>40.1</ele>
        <time>2020-08-08T14:37:03Z</time>
      </trkpt>
      <trkpt lat="41.0679470" lon="0.6363220">
        <ele>40.2</ele>
        <time>2020-08-08T14:37:05Z</time>
      </trkpt>
      <trkpt lat="41.0679930" lon="0.6363170">
        <ele>40.2</ele>
        <time>2020-08-08T14:37:06Z</time>
      </trkpt>
      <trkpt lat="41.0680890" lon="0.6363070">
        <ele>40.2</ele>
        <time>2020-08-08T14:37:08Z</time>
      </trkpt>
      <trkpt lat="41.0681380" lon="0.6362990">
        <ele>40.3</ele>
        <time>2020-08-08T14:37:09Z</time>
      </trkpt>
      <trkpt lat="41.0681840" lon="0.6362920">
        <ele>40.3</ele>
        <time>2020-08-08T14:37:10Z</time>
      </trkpt>
      <trkpt lat="41.0682320" lon="0.6362870">
        <ele>40.3</ele>
        <time>2020-08-08T14:37:11Z</time>
      </trkpt>
      <trkpt lat="41.0682840" lon="0.6362820">
        <ele>40.4</ele>
        <time>2020-08-08T14:37:12Z</time>
      </trkpt>
      <trkpt lat="41.0683720" lon="0.6362700">
        <ele>40.5</ele>
        <time>2020-08-08T14:37:14Z</time>
      </trkpt>
      <trkpt lat="41.0684700" lon="0.6362480">
        <ele>40.5</ele>
        <time>2020-08-08T14:37:16Z</time>
      </trkpt>
      <trkpt lat="41.0685660" lon="0.6362330">
        <ele>40.6</ele>
        <time>2020-08-08T14:37:18Z</time>
      </trkpt>
      <trkpt lat="41.0686730" lon="0.6362260">
        <ele>40.7</ele>
        <time>2020-08-08T14:37:20Z</time>
      </trkpt>
      <trkpt lat="41.0687220" lon="0.6362210">
        <ele>40.7</ele>
        <time>2020-08-08T14:37:21Z</time>
      </trkpt>
      <trkpt lat="41.0687720" lon="0.6362160">
        <ele>40.8</ele>
        <time>2020-08-08T14:37:22Z</time>
      </trkpt>
      <trkpt lat="41.0688740" lon="0.6362090">
        <ele>40.9</ele>
        <time>2020-08-08T14:37:24Z</time>
      </trkpt>
      <trkpt lat="41.0689170" lon="0.6361990">
        <ele>40.9</ele>
        <time>2020-08-08T14:37:25Z</time>
      </trkpt>
      <trkpt lat="41.0689640" lon="0.6361900">
        <ele>40.9</ele>
        <time>2020-08-08T14:37:26Z</time>
      </trkpt>
      <trkpt lat="41.0690620" lon="0.6361680">
        <ele>41.0</ele>
        <time>2020-08-08T14:37:28Z</time>
      </trkpt>
      <trkpt lat="41.0691140" lon="0.6361650">
        <ele>41.1</ele>
        <time>2020-08-08T14:37:29Z</time>
      </trkpt>
      <trkpt lat="41.0691610" lon="0.6361600">
        <ele>41.1</ele>
        <time>2020-08-08T14:37:30Z</time>
      </trkpt>
      <trkpt lat="41.0692090" lon="0.6361580">
        <ele>41.2</ele>
        <time>2020-08-08T14:37:31Z</time>
      </trkpt>
      <trkpt lat="41.0692990" lon="0.6361470">
        <ele>41.3</ele>
        <time>2020-08-08T14:37:33Z</time>
      </trkpt>
      <trkpt lat="41.0693380" lon="0.6361380">
        <ele>41.3</ele>
        <time>2020-08-08T14:37:34Z</time>
      </trkpt>
      <trkpt lat="41.0694280" lon="0.6361260">
        <ele>41.4</ele>
        <time>2020-08-08T14:37:36Z</time>
      </trkpt>
      <trkpt lat="41.0694720" lon="0.6361190">
        <ele>41.5</ele>
        <time>2020-08-08T14:37:37Z</time>
      </trkpt>
      <trkpt lat="41.0695190" lon="0.6361110">
        <ele>41.5</ele>
        <time>2020-08-08T14:37:38Z</time>
      </trkpt>
      <trkpt lat="41.0695670" lon="0.6360960">
        <ele>41.5</ele>
        <time>2020-08-08T14:37:39Z</time>
      </trkpt>
      <trkpt lat="41.0696150" lon="0.6360810">
        <ele>41.6</ele>
        <time>2020-08-08T14:37:40Z</time>
      </trkpt>
      <trkpt lat="41.0696640" lon="0.6360630">
        <ele>41.6</ele>
        <time>2020-08-08T14:37:41Z</time>
      </trkpt>
      <trkpt lat="41.0697130" lon="0.6360430">
        <ele>41.7</ele>
        <time>2020-08-08T14:37:42Z</time>
      </trkpt>
      <trkpt lat="41.0698110" lon="0.6359990">
        <ele>41.8</ele>
        <time>2020-08-08T14:37:44Z</time>
      </trkpt>
      <trkpt lat="41.0698620" lon="0.6359750">
        <ele>41.9</ele>
        <time>2020-08-08T14:37:45Z</time>
      </trkpt>
      <trkpt lat="41.0699170" lon="0.6359570">
        <ele>41.9</ele>
        <time>2020-08-08T14:37:46Z</time>
      </trkpt>
      <trkpt lat="41.0700170" lon="0.6359150">
        <ele>42.0</ele>
        <time>2020-08-08T14:37:48Z</time>
      </trkpt>
      <trkpt lat="41.0700640" lon="0.6358920">
        <ele>42.1</ele>
        <time>2020-08-08T14:37:49Z</time>
      </trkpt>
      <trkpt lat="41.0701550" lon="0.6358400">
        <ele>42.3</ele>
        <time>2020-08-08T14:37:51Z</time>
      </trkpt>
      <trkpt lat="41.0702020" lon="0.6358140">
        <ele>42.3</ele>
        <time>2020-08-08T14:37:52Z</time>
      </trkpt>
      <trkpt lat="41.0702960" lon="0.6357630">
        <ele>42.5</ele>
        <time>2020-08-08T14:37:54Z</time>
      </trkpt>
      <trkpt lat="41.0703430" lon="0.6357350">
        <ele>42.5</ele>
        <time>2020-08-08T14:37:55Z</time>
      </trkpt>
      <trkpt lat="41.0703850" lon="0.6357040">
        <ele>42.5</ele>
        <time>2020-08-08T14:37:56Z</time>
      </trkpt>
      <trkpt lat="41.0704770" lon="0.6356680">
        <ele>42.6</ele>
        <time>2020-08-08T14:37:58Z</time>
      </trkpt>
      <trkpt lat="41.0705760" lon="0.6356420">
        <ele>42.7</ele>
        <time>2020-08-08T14:38:00Z</time>
      </trkpt>
      <trkpt lat="41.0706750" lon="0.6356100">
        <ele>42.8</ele>
        <time>2020-08-08T14:38:02Z</time>
      </trkpt>
      <trkpt lat="41.0707240" lon="0.6356010">
        <ele>42.8</ele>
        <time>2020-08-08T14:38:03Z</time>
      </trkpt>
      <trkpt lat="41.0707730" lon="0.6355940">
        <ele>42.9</ele>
        <time>2020-08-08T14:38:04Z</time>
      </trkpt>
      <trkpt lat="41.0708180" lon="0.6355840">
        <ele>43.0</ele>
        <time>2020-08-08T14:38:05Z</time>
      </trkpt>
      <trkpt lat="41.0709070" lon="0.6355630">
        <ele>43.1</ele>
        <time>2020-08-08T14:38:07Z</time>
      </trkpt>
      <trkpt lat="41.0710060" lon="0.6355460">
        <ele>43.2</ele>
        <time>2020-08-08T14:38:09Z</time>
      </trkpt>
      <trkpt lat="41.0710910" lon="0.6355260">
        <ele>43.3</ele>
        <time>2020-08-08T14:38:11Z</time>
      </trkpt>
      <trkpt lat="41.0711370" lon="0.6355200">
        <ele>43.3</ele>
        <time>2020-08-08T14:38:12Z</time>
      </trkpt>
      <trkpt lat="41.0712300" lon="0.6354920">
        <ele>43.3</ele>
        <time>2020-08-08T14:38:14Z</time>
      </trkpt>
      <trkpt lat="41.0712830" lon="0.6354850">
        <ele>43.4</ele>
        <time>2020-08-08T14:38:15Z</time>
      </trkpt>
      <trkpt lat="41.0713770" lon="0.6354660">
        <ele>43.4</ele>
        <time>2020-08-08T14:38:17Z</time>
      </trkpt>
      <trkpt lat="41.0714240" lon="0.6354580">
        <ele>43.5</ele>
        <time>2020-08-08T14:38:18Z</time>
      </trkpt>
      <trkpt lat="41.0715240" lon="0.6354400">
        <ele>43.5</ele>
        <time>2020-08-08T14:38:20Z</time>
      </trkpt>
      <trkpt lat="41.0716290" lon="0.6354180">
        <ele>43.6</ele>
        <time>2020-08-08T14:38:22Z</time>
      </trkpt>
      <trkpt lat="41.0716830" lon="0.6354040">
        <ele>43.6</ele>
        <time>2020-08-08T14:38:23Z</time>
      </trkpt>
      <trkpt lat="41.0717870" lon="0.6353700">
        <ele>43.7</ele>
        <time>2020-08-08T14:38:25Z</time>
      </trkpt>
      <trkpt lat="41.0718390" lon="0.6353550">
        <ele>43.7</ele>
        <time>2020-08-08T14:38:26Z</time>
      </trkpt>
      <trkpt lat="41.0719380" lon="0.6353260">
        <ele>43.9</ele>
        <time>2020-08-08T14:38:28Z</time>
      </trkpt>
      <trkpt lat="41.0719910" lon="0.6353160">
        <ele>43.9</ele>
        <time>2020-08-08T14:38:29Z</time>
      </trkpt>
      <trkpt lat="41.0720430" lon="0.6353090">
        <ele>44.0</ele>
        <time>2020-08-08T14:38:30Z</time>
      </trkpt>
      <trkpt lat="41.0720960" lon="0.6353030">
        <ele>44.0</ele>
        <time>2020-08-08T14:38:31Z</time>
      </trkpt>
      <trkpt lat="41.0722060" lon="0.6352950">
        <ele>44.2</ele>
        <time>2020-08-08T14:38:33Z</time>
      </trkpt>
      <trkpt lat="41.0723190" lon="0.6352730">
        <ele>44.3</ele>
        <time>2020-08-08T14:38:35Z</time>
      </trkpt>
      <trkpt lat="41.0724200" lon="0.6352500">
        <ele>44.5</ele>
        <time>2020-08-08T14:38:37Z</time>
      </trkpt>
      <trkpt lat="41.0724740" lon="0.6352420">
        <ele>44.6</ele>
        <time>2020-08-08T14:38:38Z</time>
      </trkpt>
      <trkpt lat="41.0725820" lon="0.6352290">
        <ele>44.7</ele>
        <time>2020-08-08T14:38:40Z</time>
      </trkpt>
      <trkpt lat="41.0726340" lon="0.6352220">
        <ele>44.8</ele>
        <time>2020-08-08T14:38:41Z</time>
      </trkpt>
      <trkpt lat="41.0726880" lon="0.6352150">
        <ele>44.9</ele>
        <time>2020-08-08T14:38:42Z</time>
      </trkpt>
      <trkpt lat="41.0727340" lon="0.6352140">
        <ele>45.0</ele>
        <time>2020-08-08T14:38:43Z</time>
      </trkpt>
      <trkpt lat="41.0727820" lon="0.6352140">
        <ele>45.1</ele>
        <time>2020-08-08T14:38:44Z</time>
      </trkpt>
      <trkpt lat="41.0728320" lon="0.6352150">
        <ele>45.1</ele>
        <time>2020-08-08T14:38:45Z</time>
      </trkpt>
      <trkpt lat="41.0729410" lon="0.6352280">
        <ele>45.3</ele>
        <time>2020-08-08T14:38:47Z</time>
      </trkpt>
      <trkpt lat="41.0729920" lon="0.6352270">
        <ele>45.4</ele>
        <time>2020-08-08T14:38:48Z</time>
      </trkpt>
      <trkpt lat="41.0730960" lon="0.6352120">
        <ele>45.5</ele>
        <time>2020-08-08T14:38:50Z</time>
      </trkpt>
      <trkpt lat="41.0731980" lon="0.6352000">
        <ele>45.6</ele>
        <time>2020-08-08T14:38:52Z</time>
      </trkpt>
      <trkpt lat="41.0732470" lon="0.6351950">
        <ele>45.7</ele>
        <time>2020-08-08T14:38:53Z</time>
      </trkpt>
      <trkpt lat="41.0733430" lon="0.6351830">
        <ele>45.8</ele>
        <time>2020-08-08T14:38:55Z</time>
      </trkpt>
      <trkpt lat="41.0733930" lon="0.6351760">
        <ele>45.8</ele>
        <time>2020-08-08T14:38:56Z</time>
      </trkpt>
      <trkpt lat="41.0734450" lon="0.6351750">
        <ele>45.8</ele>
        <time>2020-08-08T14:38:57Z</time>
      </trkpt>
      <trkpt lat="41.0735490" lon="0.6351680">
        <ele>45.9</ele>
        <time>2020-08-08T14:38:59Z</time>
      </trkpt>
      <trkpt lat="41.0735960" lon="0.6351570">
        <ele>45.9</ele>
        <time>2020-08-08T14:39:00Z</time>
      </trkpt>
      <trkpt lat="41.0736870" lon="0.6351470">
        <ele>46.0</ele>
        <time>2020-08-08T14:39:02Z</time>
      </trkpt>
      <trkpt lat="41.0737780" lon="0.6351500">
        <ele>46.1</ele>
        <time>2020-08-08T14:39:04Z</time>
      </trkpt>
      <trkpt lat="41.0738310" lon="0.6351490">
        <ele>46.1</ele>
        <time>2020-08-08T14:39:05Z</time>
      </trkpt>
      <trkpt lat="41.0738810" lon="0.6351400">
        <ele>46.1</ele>
        <time>2020-08-08T14:39:06Z</time>
      </trkpt>
      <trkpt lat="41.0739820" lon="0.6351300">
        <ele>46.2</ele>
        <time>2020-08-08T14:39:08Z</time>
      </trkpt>
      <trkpt lat="41.0740810" lon="0.6351130">
        <ele>46.2</ele>
        <time>2020-08-08T14:39:10Z</time>
      </trkpt>
      <trkpt lat="41.0741280" lon="0.6351050">
        <ele>46.3</ele>
        <time>2020-08-08T14:39:11Z</time>
      </trkpt>
      <trkpt lat="41.0741780" lon="0.6351050">
        <ele>46.3</ele>
        <time>2020-08-08T14:39:12Z</time>
      </trkpt>
      <trkpt lat="41.0742760" lon="0.6351060">
        <ele>46.4</ele>
        <time>2020-08-08T14:39:14Z</time>
      </trkpt>
      <trkpt lat="41.0743260" lon="0.6351020">
        <ele>46.5</ele>
        <time>2020-08-08T14:39:15Z</time>
      </trkpt>
      <trkpt lat="41.0744090" lon="0.6350850">
        <ele>46.6</ele>
        <time>2020-08-08T14:39:17Z</time>
      </trkpt>
      <trkpt lat="41.0744930" lon="0.6350700">
        <ele>46.7</ele>
        <time>2020-08-08T14:39:19Z</time>
      </trkpt>
      <trkpt lat="41.0745810" lon="0.6350550">
        <ele>46.8</ele>
        <time>2020-08-08T14:39:21Z</time>
      </trkpt>
      <trkpt lat="41.0746310" lon="0.6350440">
        <ele>46.8</ele>
        <time>2020-08-08T14:39:22Z</time>
      </trkpt>
      <trkpt lat="41.0747350" lon="0.6350410">
        <ele>46.9</ele>
        <time>2020-08-08T14:39:24Z</time>
      </trkpt>
      <trkpt lat="41.0747870" lon="0.6350380">
        <ele>46.7</ele>
        <time>2020-08-08T14:39:25Z</time>
      </trkpt>
      <trkpt lat="41.0748390" lon="0.6350350">
        <ele>46.6</ele>
        <time>2020-08-08T14:39:26Z</time>
      </trkpt>
      <trkpt lat="41.0749380" lon="0.6350470">
        <ele>46.4</ele>
        <time>2020-08-08T14:39:28Z</time>
      </trkpt>
      <trkpt lat="41.0750340" lon="0.6350590">
        <ele>46.2</ele>
        <time>2020-08-08T14:39:30Z</time>
      </trkpt>
      <trkpt lat="41.0750870" lon="0.6350650">
        <ele>46.1</ele>
        <time>2020-08-08T14:39:31Z</time>
      </trkpt>
      <trkpt lat="41.0751980" lon="0.6350670">
        <ele>45.9</ele>
        <time>2020-08-08T14:39:33Z</time>
      </trkpt>
      <trkpt lat="41.0752560" lon="0.6350720">
        <ele>45.8</ele>
        <time>2020-08-08T14:39:34Z</time>
      </trkpt>
      <trkpt lat="41.0753780" lon="0.6351030">
        <ele>45.5</ele>
        <time>2020-08-08T14:39:36Z</time>
      </trkpt>
      <trkpt lat="41.0755090" lon="0.6351520">
        <ele>45.3</ele>
        <time>2020-08-08T14:39:38Z</time>
      </trkpt>
      <trkpt lat="41.0756330" lon="0.6352000">
        <ele>45.0</ele>
        <time>2020-08-08T14:39:40Z</time>
      </trkpt>
      <trkpt lat="41.0756940" lon="0.6352200">
        <ele>44.8</ele>
        <time>2020-08-08T14:39:41Z</time>
      </trkpt>
      <trkpt lat="41.0758070" lon="0.6352610">
        <ele>44.5</ele>
        <time>2020-08-08T14:39:43Z</time>
      </trkpt>
      <trkpt lat="41.0758670" lon="0.6352880">
        <ele>44.4</ele>
        <time>2020-08-08T14:39:44Z</time>
      </trkpt>
      <trkpt lat="41.0759310" lon="0.6353110">
        <ele>44.2</ele>
        <time>2020-08-08T14:39:45Z</time>
      </trkpt>
      <trkpt lat="41.0760640" lon="0.6353540">
        <ele>43.9</ele>
        <time>2020-08-08T14:39:47Z</time>
      </trkpt>
      <trkpt lat="41.0761310" lon="0.6353680">
        <ele>43.8</ele>
        <time>2020-08-08T14:39:48Z</time>
      </trkpt>
      <trkpt lat="41.0762020" lon="0.6353710">
        <ele>43.6</ele>
        <time>2020-08-08T14:39:49Z</time>
      </trkpt>
      <trkpt lat="41.0763420" lon="0.6353760">
        <ele>43.2</ele>
        <time>2020-08-08T14:39:51Z</time>
      </trkpt>
      <trkpt lat="41.0764130" lon="0.6353770">
        <ele>43.0</ele>
        <time>2020-08-08T14:39:52Z</time>
      </trkpt>
      <trkpt lat="41.0764880" lon="0.6353860">
        <ele>42.8</ele>
        <time>2020-08-08T14:39:53Z</time>
      </trkpt>
      <trkpt lat="41.0766440" lon="0.6353840">
        <ele>42.2</ele>
        <time>2020-08-08T14:39:55Z</time>
      </trkpt>
      <trkpt lat="41.0767160" lon="0.6353700">
        <ele>42.0</ele>
        <time>2020-08-08T14:39:56Z</time>
      </trkpt>
      <trkpt lat="41.0768540" lon="0.6352880">
        <ele>41.5</ele>
        <time>2020-08-08T14:39:58Z</time>
      </trkpt>
      <trkpt lat="41.0769190" lon="0.6352240">
        <ele>41.3</ele>
        <time>2020-08-08T14:39:59Z</time>
      </trkpt>
      <trkpt lat="41.0769770" lon="0.6351450">
        <ele>41.1</ele>
        <time>2020-08-08T14:40:00Z</time>
      </trkpt>
      <trkpt lat="41.0770690" lon="0.6349850">
        <ele>40.7</ele>
        <time>2020-08-08T14:40:02Z</time>
      </trkpt>
      <trkpt lat="41.0771360" lon="0.6349220">
        <ele>40.6</ele>
        <time>2020-08-08T14:40:03Z</time>
      </trkpt>
      <trkpt lat="41.0772160" lon="0.6348780">
        <ele>40.5</ele>
        <time>2020-08-08T14:40:04Z</time>
      </trkpt>
      <trkpt lat="41.0773770" lon="0.6348720">
        <ele>40.5</ele>
        <time>2020-08-08T14:40:06Z</time>
      </trkpt>
      <trkpt lat="41.0774600" lon="0.6348990">
        <ele>40.5</ele>
        <time>2020-08-08T14:40:07Z</time>
      </trkpt>
      <trkpt lat="41.0776090" lon="0.6349670">
        <ele>40.6</ele>
        <time>2020-08-08T14:40:09Z</time>
      </trkpt>
      <trkpt lat="41.0776850" lon="0.6350000">
        <ele>40.6</ele>
        <time>2020-08-08T14:40:10Z</time>
      </trkpt>
      <trkpt lat="41.0778270" lon="0.6350650">
        <ele>40.4</ele>
        <time>2020-08-08T14:40:12Z</time>
      </trkpt>
      <trkpt lat="41.0778910" lon="0.6350990">
        <ele>40.4</ele>
        <time>2020-08-08T14:40:13Z</time>
      </trkpt>
      <trkpt lat="41.0779540" lon="0.6351300">
        <ele>40.4</ele>
        <time>2020-08-08T14:40:15Z</time>
      </trkpt>
      <trkpt lat="41.0784810" lon="0.6353510">
        <ele>40.7</ele>
        <time>2020-08-08T14:40:24Z</time>
      </trkpt>
      <trkpt lat="41.0785920" lon="0.6354100">
        <ele>40.8</ele>
        <time>2020-08-08T14:40:25Z</time>
      </trkpt>
      <trkpt lat="41.0786900" lon="0.6354630">
        <ele>40.8</ele>
        <time>2020-08-08T14:40:27Z</time>
      </trkpt>
      <trkpt lat="41.0787440" lon="0.6354810">
        <ele>40.8</ele>
        <time>2020-08-08T14:40:28Z</time>
      </trkpt>
      <trkpt lat="41.0787980" lon="0.6355050">
        <ele>40.9</ele>
        <time>2020-08-08T14:40:29Z</time>
      </trkpt>
      <trkpt lat="41.0788520" lon="0.6355350">
        <ele>40.9</ele>
        <time>2020-08-08T14:40:30Z</time>
      </trkpt>
      <trkpt lat="41.0789520" lon="0.6355880">
        <ele>40.9</ele>
        <time>2020-08-08T14:40:32Z</time>
      </trkpt>
      <trkpt lat="41.0789990" lon="0.6356160">
        <ele>41.0</ele>
        <time>2020-08-08T14:40:33Z</time>
      </trkpt>
      <trkpt lat="41.0790410" lon="0.6356390">
        <ele>41.0</ele>
        <time>2020-08-08T14:40:34Z</time>
      </trkpt>
      <trkpt lat="41.0790860" lon="0.6356580">
        <ele>41.0</ele>
        <time>2020-08-08T14:40:35Z</time>
      </trkpt>
      <trkpt lat="41.0792270" lon="0.6357310">
        <ele>41.0</ele>
        <time>2020-08-08T14:40:38Z</time>
      </trkpt>
      <trkpt lat="41.0792740" lon="0.6357600">
        <ele>41.1</ele>
        <time>2020-08-08T14:40:39Z</time>
      </trkpt>
      <trkpt lat="41.0793650" lon="0.6358220">
        <ele>41.4</ele>
        <time>2020-08-08T14:40:41Z</time>
      </trkpt>
      <trkpt lat="41.0794570" lon="0.6358850">
        <ele>41.8</ele>
        <time>2020-08-08T14:40:43Z</time>
      </trkpt>
      <trkpt lat="41.0795420" lon="0.6359440">
        <ele>42.2</ele>
        <time>2020-08-08T14:40:45Z</time>
      </trkpt>
      <trkpt lat="41.0795800" lon="0.6359730">
        <ele>42.4</ele>
        <time>2020-08-08T14:40:46Z</time>
      </trkpt>
      <trkpt lat="41.0796110" lon="0.6360080">
        <ele>42.6</ele>
        <time>2020-08-08T14:40:47Z</time>
      </trkpt>
      <trkpt lat="41.0796830" lon="0.6360650">
        <ele>43.0</ele>
        <time>2020-08-08T14:40:49Z</time>
      </trkpt>
      <trkpt lat="41.0797230" lon="0.6360930">
        <ele>43.1</ele>
        <time>2020-08-08T14:40:50Z</time>
      </trkpt>
      <trkpt lat="41.0797640" lon="0.6361200">
        <ele>43.2</ele>
        <time>2020-08-08T14:40:51Z</time>
      </trkpt>
      <trkpt lat="41.0798320" lon="0.6361800">
        <ele>43.4</ele>
        <time>2020-08-08T14:40:53Z</time>
      </trkpt>
      <trkpt lat="41.0799130" lon="0.6362560">
        <ele>43.6</ele>
        <time>2020-08-08T14:40:55Z</time>
      </trkpt>
      <trkpt lat="41.0799540" lon="0.6362870">
        <ele>43.7</ele>
        <time>2020-08-08T14:40:56Z</time>
      </trkpt>
      <trkpt lat="41.0799960" lon="0.6363200">
        <ele>43.8</ele>
        <time>2020-08-08T14:40:57Z</time>
      </trkpt>
      <trkpt lat="41.0800750" lon="0.6363860">
        <ele>44.1</ele>
        <time>2020-08-08T14:40:59Z</time>
      </trkpt>
      <trkpt lat="41.0801410" lon="0.6364440">
        <ele>44.3</ele>
        <time>2020-08-08T14:41:01Z</time>
      </trkpt>
      <trkpt lat="41.0801770" lon="0.6364720">
        <ele>44.4</ele>
        <time>2020-08-08T14:41:02Z</time>
      </trkpt>
      <trkpt lat="41.0802190" lon="0.6364970">
        <ele>44.5</ele>
        <time>2020-08-08T14:41:04Z</time>
      </trkpt>
      <trkpt lat="41.0802590" lon="0.6365260">
        <ele>44.6</ele>
        <time>2020-08-08T14:41:05Z</time>
      </trkpt>
      <trkpt lat="41.0802790" lon="0.6365420">
        <ele>44.7</ele>
        <time>2020-08-08T14:41:06Z</time>
      </trkpt>
      <trkpt lat="41.0802990" lon="0.6365560">
        <ele>44.7</ele>
        <time>2020-08-08T14:41:08Z</time>
      </trkpt>
      <trkpt lat="41.0803280" lon="0.6365780">
        <ele>44.8</ele>
        <time>2020-08-08T14:41:09Z</time>
      </trkpt>
      <trkpt lat="41.0803580" lon="0.6366060">
        <ele>44.9</ele>
        <time>2020-08-08T14:41:10Z</time>
      </trkpt>
      <trkpt lat="41.0803670" lon="0.6366180">
        <ele>45.0</ele>
        <time>2020-08-08T14:41:11Z</time>
      </trkpt>
      <trkpt lat="41.0803970" lon="0.6366610">
        <ele>45.1</ele>
        <time>2020-08-08T14:41:13Z</time>
      </trkpt>
      <trkpt lat="41.0804230" lon="0.6366960">
        <ele>45.2</ele>
        <time>2020-08-08T14:41:15Z</time>
      </trkpt>
      <trkpt lat="41.0804520" lon="0.6367340">
        <ele>45.3</ele>
        <time>2020-08-08T14:41:16Z</time>
      </trkpt>
      <trkpt lat="41.0804640" lon="0.6367500">
        <ele>45.4</ele>
        <time>2020-08-08T14:41:17Z</time>
      </trkpt>
      <trkpt lat="41.0804880" lon="0.6367830">
        <ele>45.5</ele>
        <time>2020-08-08T14:41:18Z</time>
      </trkpt>
      <trkpt lat="41.0805270" lon="0.6368470">
        <ele>45.7</ele>
        <time>2020-08-08T14:41:20Z</time>
      </trkpt>
      <trkpt lat="41.0806380" lon="0.6371140">
        <ele>46.8</ele>
        <time>2020-08-08T14:41:21Z</time>
      </trkpt>
      <trkpt lat="41.0806480" lon="0.6371790">
        <ele>47.1</ele>
        <time>2020-08-08T14:41:23Z</time>
      </trkpt>
      <trkpt lat="41.0806920" lon="0.6373700">
        <ele>46.7</ele>
        <time>2020-08-08T14:41:24Z</time>
      </trkpt>
      <trkpt lat="41.0807110" lon="0.6375410">
        <ele>46.3</ele>
        <time>2020-08-08T14:41:26Z</time>
      </trkpt>
      <trkpt lat="41.0807070" lon="0.6376140">
        <ele>46.1</ele>
        <time>2020-08-08T14:41:27Z</time>
      </trkpt>
      <trkpt lat="41.0806960" lon="0.6377370">
        <ele>45.9</ele>
        <time>2020-08-08T14:41:29Z</time>
      </trkpt>
      <trkpt lat="41.0806840" lon="0.6378010">
        <ele>45.7</ele>
        <time>2020-08-08T14:41:30Z</time>
      </trkpt>
      <trkpt lat="41.0806600" lon="0.6379340">
        <ele>45.3</ele>
        <time>2020-08-08T14:41:32Z</time>
      </trkpt>
      <trkpt lat="41.0806410" lon="0.6380640">
        <ele>44.9</ele>
        <time>2020-08-08T14:41:34Z</time>
      </trkpt>
      <trkpt lat="41.0806280" lon="0.6381280">
        <ele>44.7</ele>
        <time>2020-08-08T14:41:35Z</time>
      </trkpt>
      <trkpt lat="41.0805920" lon="0.6382570">
        <ele>44.3</ele>
        <time>2020-08-08T14:41:37Z</time>
      </trkpt>
      <trkpt lat="41.0805640" lon="0.6384030">
        <ele>43.9</ele>
        <time>2020-08-08T14:41:39Z</time>
      </trkpt>
      <trkpt lat="41.0805520" lon="0.6384740">
        <ele>43.7</ele>
        <time>2020-08-08T14:41:40Z</time>
      </trkpt>
      <trkpt lat="41.0805290" lon="0.6386090">
        <ele>43.4</ele>
        <time>2020-08-08T14:41:42Z</time>
      </trkpt>
      <trkpt lat="41.0805240" lon="0.6386720">
        <ele>43.2</ele>
        <time>2020-08-08T14:41:43Z</time>
      </trkpt>
      <trkpt lat="41.0805140" lon="0.6388080">
        <ele>42.8</ele>
        <time>2020-08-08T14:41:45Z</time>
      </trkpt>
      <trkpt lat="41.0805060" lon="0.6388720">
        <ele>42.7</ele>
        <time>2020-08-08T14:41:46Z</time>
      </trkpt>
      <trkpt lat="41.0805040" lon="0.6389380">
        <ele>42.5</ele>
        <time>2020-08-08T14:41:47Z</time>
      </trkpt>
      <trkpt lat="41.0804920" lon="0.6390850">
        <ele>42.0</ele>
        <time>2020-08-08T14:41:49Z</time>
      </trkpt>
      <trkpt lat="41.0804890" lon="0.6391550">
        <ele>41.9</ele>
        <time>2020-08-08T14:41:50Z</time>
      </trkpt>
      <trkpt lat="41.0804820" lon="0.6392250">
        <ele>41.7</ele>
        <time>2020-08-08T14:41:51Z</time>
      </trkpt>
      <trkpt lat="41.0804700" lon="0.6393700">
        <ele>41.4</ele>
        <time>2020-08-08T14:41:53Z</time>
      </trkpt>
      <trkpt lat="41.0804620" lon="0.6394410">
        <ele>41.3</ele>
        <time>2020-08-08T14:41:54Z</time>
      </trkpt>
      <trkpt lat="41.0804520" lon="0.6395860">
        <ele>41.0</ele>
        <time>2020-08-08T14:41:56Z</time>
      </trkpt>
      <trkpt lat="41.0804480" lon="0.6396570">
        <ele>40.8</ele>
        <time>2020-08-08T14:41:57Z</time>
      </trkpt>
      <trkpt lat="41.0804520" lon="0.6397910">
        <ele>40.6</ele>
        <time>2020-08-08T14:41:59Z</time>
      </trkpt>
      <trkpt lat="41.0804590" lon="0.6399260">
        <ele>40.4</ele>
        <time>2020-08-08T14:42:01Z</time>
      </trkpt>
      <trkpt lat="41.0804570" lon="0.6399900">
        <ele>40.3</ele>
        <time>2020-08-08T14:42:02Z</time>
      </trkpt>
      <trkpt lat="41.0804560" lon="0.6401240">
        <ele>40.0</ele>
        <time>2020-08-08T14:42:04Z</time>
      </trkpt>
      <trkpt lat="41.0804570" lon="0.6401950">
        <ele>40.0</ele>
        <time>2020-08-08T14:42:05Z</time>
      </trkpt>
      <trkpt lat="41.0804560" lon="0.6402610">
        <ele>39.9</ele>
        <time>2020-08-08T14:42:06Z</time>
      </trkpt>
      <trkpt lat="41.0804590" lon="0.6403980">
        <ele>39.7</ele>
        <time>2020-08-08T14:42:08Z</time>
      </trkpt>
      <trkpt lat="41.0804650" lon="0.6404640">
        <ele>39.7</ele>
        <time>2020-08-08T14:42:09Z</time>
      </trkpt>
      <trkpt lat="41.0804740" lon="0.6405290">
        <ele>39.6</ele>
        <time>2020-08-08T14:42:10Z</time>
      </trkpt>
      <trkpt lat="41.0804840" lon="0.6406640">
        <ele>39.5</ele>
        <time>2020-08-08T14:42:12Z</time>
      </trkpt>
      <trkpt lat="41.0804920" lon="0.6408160">
        <ele>39.3</ele>
        <time>2020-08-08T14:42:14Z</time>
      </trkpt>
      <trkpt lat="41.0804970" lon="0.6408840">
        <ele>39.3</ele>
        <time>2020-08-08T14:42:15Z</time>
      </trkpt>
      <trkpt lat="41.0805760" lon="0.6414370">
        <ele>38.8</ele>
        <time>2020-08-08T14:42:24Z</time>
      </trkpt>
      <trkpt lat="41.0805980" lon="0.6415680">
        <ele>38.7</ele>
        <time>2020-08-08T14:42:25Z</time>
      </trkpt>
      <trkpt lat="41.0806100" lon="0.6416370">
        <ele>38.6</ele>
        <time>2020-08-08T14:42:26Z</time>
      </trkpt>
      <trkpt lat="41.0806240" lon="0.6417030">
        <ele>38.6</ele>
        <time>2020-08-08T14:42:27Z</time>
      </trkpt>
      <trkpt lat="41.0806540" lon="0.6418310">
        <ele>38.5</ele>
        <time>2020-08-08T14:42:29Z</time>
      </trkpt>
      <trkpt lat="41.0806700" lon="0.6418960">
        <ele>38.5</ele>
        <time>2020-08-08T14:42:30Z</time>
      </trkpt>
      <trkpt lat="41.0806870" lon="0.6419600">
        <ele>38.4</ele>
        <time>2020-08-08T14:42:31Z</time>
      </trkpt>
      <trkpt lat="41.0807000" lon="0.6420280">
        <ele>38.4</ele>
        <time>2020-08-08T14:42:32Z</time>
      </trkpt>
      <trkpt lat="41.0807330" lon="0.6421580">
        <ele>38.3</ele>
        <time>2020-08-08T14:42:34Z</time>
      </trkpt>
      <trkpt lat="41.0807620" lon="0.6422840">
        <ele>38.2</ele>
        <time>2020-08-08T14:42:36Z</time>
      </trkpt>
      <trkpt lat="41.0808210" lon="0.6424690">
        <ele>38.0</ele>
        <time>2020-08-08T14:42:39Z</time>
      </trkpt>
      <trkpt lat="41.0808600" lon="0.6425840">
        <ele>37.9</ele>
        <time>2020-08-08T14:42:41Z</time>
      </trkpt>
      <trkpt lat="41.0808810" lon="0.6426490">
        <ele>37.9</ele>
        <time>2020-08-08T14:42:42Z</time>
      </trkpt>
      <trkpt lat="41.0809270" lon="0.6427790">
        <ele>37.8</ele>
        <time>2020-08-08T14:42:44Z</time>
      </trkpt>
      <trkpt lat="41.0809790" lon="0.6429050">
        <ele>37.8</ele>
        <time>2020-08-08T14:42:46Z</time>
      </trkpt>
      <trkpt lat="41.0810220" lon="0.6430360">
        <ele>37.7</ele>
        <time>2020-08-08T14:42:48Z</time>
      </trkpt>
      <trkpt lat="41.0810440" lon="0.6430990">
        <ele>37.7</ele>
        <time>2020-08-08T14:42:49Z</time>
      </trkpt>
      <trkpt lat="41.0810990" lon="0.6432200">
        <ele>37.6</ele>
        <time>2020-08-08T14:42:51Z</time>
      </trkpt>
      <trkpt lat="41.0811590" lon="0.6433420">
        <ele>37.6</ele>
        <time>2020-08-08T14:42:53Z</time>
      </trkpt>
      <trkpt lat="41.0812330" lon="0.6434460">
        <ele>37.5</ele>
        <time>2020-08-08T14:42:55Z</time>
      </trkpt>
      <trkpt lat="41.0812600" lon="0.6435020">
        <ele>37.4</ele>
        <time>2020-08-08T14:42:56Z</time>
      </trkpt>
      <trkpt lat="41.0813140" lon="0.6436110">
        <ele>37.4</ele>
        <time>2020-08-08T14:42:58Z</time>
      </trkpt>
      <trkpt lat="41.0813400" lon="0.6436650">
        <ele>37.3</ele>
        <time>2020-08-08T14:42:59Z</time>
      </trkpt>
      <trkpt lat="41.0813710" lon="0.6437230">
        <ele>37.3</ele>
        <time>2020-08-08T14:43:00Z</time>
      </trkpt>
      <trkpt lat="41.0814340" lon="0.6438360">
        <ele>37.2</ele>
        <time>2020-08-08T14:43:02Z</time>
      </trkpt>
      <trkpt lat="41.0814930" lon="0.6439660">
        <ele>37.2</ele>
        <time>2020-08-08T14:43:04Z</time>
      </trkpt>
      <trkpt lat="41.0815300" lon="0.6440260">
        <ele>37.1</ele>
        <time>2020-08-08T14:43:05Z</time>
      </trkpt>
      <trkpt lat="41.0815620" lon="0.6440900">
        <ele>37.1</ele>
        <time>2020-08-08T14:43:06Z</time>
      </trkpt>
      <trkpt lat="41.0816220" lon="0.6442180">
        <ele>37.0</ele>
        <time>2020-08-08T14:43:08Z</time>
      </trkpt>
      <trkpt lat="41.0816540" lon="0.6442810">
        <ele>37.0</ele>
        <time>2020-08-08T14:43:09Z</time>
      </trkpt>
      <trkpt lat="41.0817330" lon="0.6444100">
        <ele>36.9</ele>
        <time>2020-08-08T14:43:11Z</time>
      </trkpt>
      <trkpt lat="41.0817720" lon="0.6444740">
        <ele>36.8</ele>
        <time>2020-08-08T14:43:12Z</time>
      </trkpt>
      <trkpt lat="41.0818480" lon="0.6445910">
        <ele>36.8</ele>
        <time>2020-08-08T14:43:14Z</time>
      </trkpt>
      <trkpt lat="41.0818800" lon="0.6446520">
        <ele>36.7</ele>
        <time>2020-08-08T14:43:15Z</time>
      </trkpt>
      <trkpt lat="41.0819190" lon="0.6447030">
        <ele>36.7</ele>
        <time>2020-08-08T14:43:16Z</time>
      </trkpt>
      <trkpt lat="41.0820000" lon="0.6448080">
        <ele>36.6</ele>
        <time>2020-08-08T14:43:18Z</time>
      </trkpt>
      <trkpt lat="41.0820480" lon="0.6448570">
        <ele>36.6</ele>
        <time>2020-08-08T14:43:19Z</time>
      </trkpt>
      <trkpt lat="41.0821360" lon="0.6449580">
        <ele>36.5</ele>
        <time>2020-08-08T14:43:21Z</time>
      </trkpt>
      <trkpt lat="41.0821810" lon="0.6450090">
        <ele>36.5</ele>
        <time>2020-08-08T14:43:22Z</time>
      </trkpt>
      <trkpt lat="41.0822710" lon="0.6450980">
        <ele>36.4</ele>
        <time>2020-08-08T14:43:24Z</time>
      </trkpt>
      <trkpt lat="41.0823660" lon="0.6451830">
        <ele>36.3</ele>
        <time>2020-08-08T14:43:26Z</time>
      </trkpt>
      <trkpt lat="41.0824710" lon="0.6452660">
        <ele>36.2</ele>
        <time>2020-08-08T14:43:28Z</time>
      </trkpt>
      <trkpt lat="41.0825160" lon="0.6453090">
        <ele>36.2</ele>
        <time>2020-08-08T14:43:29Z</time>
      </trkpt>
      <trkpt lat="41.0825640" lon="0.6453540">
        <ele>36.1</ele>
        <time>2020-08-08T14:43:30Z</time>
      </trkpt>
      <trkpt lat="41.0826080" lon="0.6453980">
        <ele>36.1</ele>
        <time>2020-08-08T14:43:31Z</time>
      </trkpt>
      <trkpt lat="41.0827000" lon="0.6454860">
        <ele>36.0</ele>
        <time>2020-08-08T14:43:33Z</time>
      </trkpt>
      <trkpt lat="41.0827480" lon="0.6455310">
        <ele>35.9</ele>
        <time>2020-08-08T14:43:34Z</time>
      </trkpt>
      <trkpt lat="41.0827950" lon="0.6455750">
        <ele>35.8</ele>
        <time>2020-08-08T14:43:35Z</time>
      </trkpt>
      <trkpt lat="41.0828660" lon="0.6456580">
        <ele>35.7</ele>
        <time>2020-08-08T14:43:37Z</time>
      </trkpt>
      <trkpt lat="41.0828990" lon="0.6457030">
        <ele>35.7</ele>
        <time>2020-08-08T14:43:38Z</time>
      </trkpt>
      <trkpt lat="41.0829370" lon="0.6457430">
        <ele>35.6</ele>
        <time>2020-08-08T14:43:39Z</time>
      </trkpt>
      <trkpt lat="41.0830230" lon="0.6458120">
        <ele>35.6</ele>
        <time>2020-08-08T14:43:41Z</time>
      </trkpt>
      <trkpt lat="41.0830580" lon="0.6458500">
        <ele>35.6</ele>
        <time>2020-08-08T14:43:42Z</time>
      </trkpt>
      <trkpt lat="41.0831430" lon="0.6458860">
        <ele>35.5</ele>
        <time>2020-08-08T14:43:44Z</time>
      </trkpt>
      <trkpt lat="41.0832380" lon="0.6459420">
        <ele>35.5</ele>
        <time>2020-08-08T14:43:46Z</time>
      </trkpt>
      <trkpt lat="41.0833390" lon="0.6459840">
        <ele>35.4</ele>
        <time>2020-08-08T14:43:48Z</time>
      </trkpt>
      <trkpt lat="41.0833860" lon="0.6460100">
        <ele>35.4</ele>
        <time>2020-08-08T14:43:49Z</time>
      </trkpt>
      <trkpt lat="41.0834300" lon="0.6460370">
        <ele>35.4</ele>
        <time>2020-08-08T14:43:50Z</time>
      </trkpt>
      <trkpt lat="41.0834760" lon="0.6460830">
        <ele>35.3</ele>
        <time>2020-08-08T14:43:51Z</time>
      </trkpt>
      <trkpt lat="41.0835770" lon="0.6461560">
        <ele>35.3</ele>
        <time>2020-08-08T14:43:53Z</time>
      </trkpt>
      <trkpt lat="41.0836310" lon="0.6462040">
        <ele>35.3</ele>
        <time>2020-08-08T14:43:54Z</time>
      </trkpt>
      <trkpt lat="41.0836920" lon="0.6462500">
        <ele>35.3</ele>
        <time>2020-08-08T14:43:55Z</time>
      </trkpt>
      <trkpt lat="41.0838070" lon="0.6463180">
        <ele>35.2</ele>
        <time>2020-08-08T14:43:57Z</time>
      </trkpt>
      <trkpt lat="41.0839190" lon="0.6463830">
        <ele>35.1</ele>
        <time>2020-08-08T14:43:59Z</time>
      </trkpt>
      <trkpt lat="41.0839710" lon="0.6464090">
        <ele>35.0</ele>
        <time>2020-08-08T14:44:00Z</time>
      </trkpt>
      <trkpt lat="41.0840250" lon="0.6464340">
        <ele>35.0</ele>
        <time>2020-08-08T14:44:01Z</time>
      </trkpt>
      <trkpt lat="41.0840810" lon="0.6464670">
        <ele>34.9</ele>
        <time>2020-08-08T14:44:02Z</time>
      </trkpt>
      <trkpt lat="41.0841350" lon="0.6464960">
        <ele>34.9</ele>
        <time>2020-08-08T14:44:03Z</time>
      </trkpt>
      <trkpt lat="41.0842410" lon="0.6465490">
        <ele>34.8</ele>
        <time>2020-08-08T14:44:05Z</time>
      </trkpt>
      <trkpt lat="41.0842940" lon="0.6465770">
        <ele>34.7</ele>
        <time>2020-08-08T14:44:06Z</time>
      </trkpt>
      <trkpt lat="41.0843510" lon="0.6466120">
        <ele>34.6</ele>
        <time>2020-08-08T14:44:07Z</time>
      </trkpt>
      <trkpt lat="41.0844040" lon="0.6466420">
        <ele>34.6</ele>
        <time>2020-08-08T14:44:08Z</time>
      </trkpt>
      <trkpt lat="41.0845150" lon="0.6467010">
        <ele>34.4</ele>
        <time>2020-08-08T14:44:10Z</time>
      </trkpt>
      <trkpt lat="41.0845680" lon="0.6467280">
        <ele>34.4</ele>
        <time>2020-08-08T14:44:11Z</time>
      </trkpt>
      <trkpt lat="41.0846220" lon="0.6467510">
        <ele>34.3</ele>
        <time>2020-08-08T14:44:12Z</time>
      </trkpt>
      <trkpt lat="41.0847350" lon="0.6468000">
        <ele>34.2</ele>
        <time>2020-08-08T14:44:14Z</time>
      </trkpt>
      <trkpt lat="41.0847920" lon="0.6468270">
        <ele>34.2</ele>
        <time>2020-08-08T14:44:15Z</time>
      </trkpt>
      <trkpt lat="41.0848500" lon="0.6468530">
        <ele>34.1</ele>
        <time>2020-08-08T14:44:16Z</time>
      </trkpt>
      <trkpt lat="41.0849630" lon="0.6469130">
        <ele>34.0</ele>
        <time>2020-08-08T14:44:18Z</time>
      </trkpt>
      <trkpt lat="41.0850760" lon="0.6469730">
        <ele>33.9</ele>
        <time>2020-08-08T14:44:20Z</time>
      </trkpt>
      <trkpt lat="41.0851890" lon="0.6470250">
        <ele>33.9</ele>
        <time>2020-08-08T14:44:22Z</time>
      </trkpt>
      <trkpt lat="41.0852470" lon="0.6470570">
        <ele>33.8</ele>
        <time>2020-08-08T14:44:23Z</time>
      </trkpt>
      <trkpt lat="41.0853050" lon="0.6470890">
        <ele>33.8</ele>
        <time>2020-08-08T14:44:24Z</time>
      </trkpt>
      <trkpt lat="41.0853620" lon="0.6471180">
        <ele>33.8</ele>
        <time>2020-08-08T14:44:25Z</time>
      </trkpt>
      <trkpt lat="41.0854760" lon="0.6471760">
        <ele>33.7</ele>
        <time>2020-08-08T14:44:27Z</time>
      </trkpt>
      <trkpt lat="41.0855330" lon="0.6472070">
        <ele>33.7</ele>
        <time>2020-08-08T14:44:28Z</time>
      </trkpt>
      <trkpt lat="41.0856430" lon="0.6472690">
        <ele>33.8</ele>
        <time>2020-08-08T14:44:30Z</time>
      </trkpt>
      <trkpt lat="41.0856960" lon="0.6472980">
        <ele>33.7</ele>
        <time>2020-08-08T14:44:31Z</time>
      </trkpt>
      <trkpt lat="41.0857490" lon="0.6473260">
        <ele>33.7</ele>
        <time>2020-08-08T14:44:32Z</time>
      </trkpt>
      <trkpt lat="41.0858580" lon="0.6473850">
        <ele>33.6</ele>
        <time>2020-08-08T14:44:34Z</time>
      </trkpt>
      <trkpt lat="41.0859140" lon="0.6474110">
        <ele>33.5</ele>
        <time>2020-08-08T14:44:35Z</time>
      </trkpt>
      <trkpt lat="41.0860280" lon="0.6474580">
        <ele>33.4</ele>
        <time>2020-08-08T14:44:37Z</time>
      </trkpt>
      <trkpt lat="41.0861390" lon="0.6475120">
        <ele>33.3</ele>
        <time>2020-08-08T14:44:39Z</time>
      </trkpt>
      <trkpt lat="41.0861950" lon="0.6475370">
        <ele>33.2</ele>
        <time>2020-08-08T14:44:40Z</time>
      </trkpt>
      <trkpt lat="41.0862510" lon="0.6475650">
        <ele>33.1</ele>
        <time>2020-08-08T14:44:41Z</time>
      </trkpt>
      <trkpt lat="41.0863620" lon="0.6476170">
        <ele>33.0</ele>
        <time>2020-08-08T14:44:43Z</time>
      </trkpt>
      <trkpt lat="41.0864200" lon="0.6476430">
        <ele>33.0</ele>
        <time>2020-08-08T14:44:44Z</time>
      </trkpt>
      <trkpt lat="41.0864770" lon="0.6476710">
        <ele>32.9</ele>
        <time>2020-08-08T14:44:45Z</time>
      </trkpt>
      <trkpt lat="41.0865340" lon="0.6476980">
        <ele>32.9</ele>
        <time>2020-08-08T14:44:46Z</time>
      </trkpt>
      <trkpt lat="41.0866470" lon="0.6477530">
        <ele>32.9</ele>
        <time>2020-08-08T14:44:48Z</time>
      </trkpt>
      <trkpt lat="41.0867570" lon="0.6478080">
        <ele>32.7</ele>
        <time>2020-08-08T14:44:50Z</time>
      </trkpt>
      <trkpt lat="41.0868090" lon="0.6478370">
        <ele>32.6</ele>
        <time>2020-08-08T14:44:51Z</time>
      </trkpt>
      <trkpt lat="41.0868610" lon="0.6478610">
        <ele>32.5</ele>
        <time>2020-08-08T14:44:52Z</time>
      </trkpt>
      <trkpt lat="41.0869660" lon="0.6479140">
        <ele>32.3</ele>
        <time>2020-08-08T14:44:54Z</time>
      </trkpt>
      <trkpt lat="41.0870740" lon="0.6479620">
        <ele>32.2</ele>
        <time>2020-08-08T14:44:56Z</time>
      </trkpt>
      <trkpt lat="41.0871270" lon="0.6479840">
        <ele>32.2</ele>
        <time>2020-08-08T14:44:57Z</time>
      </trkpt>
      <trkpt lat="41.0872260" lon="0.6480320">
        <ele>32.1</ele>
        <time>2020-08-08T14:44:59Z</time>
      </trkpt>
      <trkpt lat="41.0872770" lon="0.6480630">
        <ele>32.1</ele>
        <time>2020-08-08T14:45:00Z</time>
      </trkpt>
      <trkpt lat="41.0873250" lon="0.6480890">
        <ele>32.1</ele>
        <time>2020-08-08T14:45:01Z</time>
      </trkpt>
      <trkpt lat="41.0873750" lon="0.6481140">
        <ele>32.0</ele>
        <time>2020-08-08T14:45:02Z</time>
      </trkpt>
      <trkpt lat="41.0874780" lon="0.6481650">
        <ele>32.0</ele>
        <time>2020-08-08T14:45:04Z</time>
      </trkpt>
      <trkpt lat="41.0875300" lon="0.6481790">
        <ele>31.9</ele>
        <time>2020-08-08T14:45:05Z</time>
      </trkpt>
      <trkpt lat="41.0875790" lon="0.6482040">
        <ele>31.9</ele>
        <time>2020-08-08T14:45:06Z</time>
      </trkpt>
      <trkpt lat="41.0876280" lon="0.6482290">
        <ele>31.9</ele>
        <time>2020-08-08T14:45:07Z</time>
      </trkpt>
      <trkpt lat="41.0877280" lon="0.6482700">
        <ele>31.9</ele>
        <time>2020-08-08T14:45:09Z</time>
      </trkpt>
      <trkpt lat="41.0878270" lon="0.6483230">
        <ele>31.8</ele>
        <time>2020-08-08T14:45:11Z</time>
      </trkpt>
      <trkpt lat="41.0879300" lon="0.6483720">
        <ele>31.8</ele>
        <time>2020-08-08T14:45:13Z</time>
      </trkpt>
      <trkpt lat="41.0879810" lon="0.6483980">
        <ele>31.8</ele>
        <time>2020-08-08T14:45:14Z</time>
      </trkpt>
      <trkpt lat="41.0880330" lon="0.6484160">
        <ele>31.7</ele>
        <time>2020-08-08T14:45:15Z</time>
      </trkpt>
      <trkpt lat="41.0881370" lon="0.6484480">
        <ele>31.6</ele>
        <time>2020-08-08T14:45:17Z</time>
      </trkpt>
      <trkpt lat="41.0882360" lon="0.6485040">
        <ele>31.4</ele>
        <time>2020-08-08T14:45:19Z</time>
      </trkpt>
      <trkpt lat="41.0883400" lon="0.6485660">
        <ele>31.3</ele>
        <time>2020-08-08T14:45:21Z</time>
      </trkpt>
      <trkpt lat="41.0883930" lon="0.6485940">
        <ele>31.2</ele>
        <time>2020-08-08T14:45:22Z</time>
      </trkpt>
      <trkpt lat="41.0884820" lon="0.6486340">
        <ele>31.1</ele>
        <time>2020-08-08T14:45:24Z</time>
      </trkpt>
      <trkpt lat="41.0885710" lon="0.6486780">
        <ele>31.0</ele>
        <time>2020-08-08T14:45:26Z</time>
      </trkpt>
      <trkpt lat="41.0886180" lon="0.6487040">
        <ele>30.9</ele>
        <time>2020-08-08T14:45:27Z</time>
      </trkpt>
      <trkpt lat="41.0887110" lon="0.6487590">
        <ele>30.9</ele>
        <time>2020-08-08T14:45:29Z</time>
      </trkpt>
      <trkpt lat="41.0887570" lon="0.6487820">
        <ele>30.8</ele>
        <time>2020-08-08T14:45:30Z</time>
      </trkpt>
      <trkpt lat="41.0888510" lon="0.6488330">
        <ele>30.8</ele>
        <time>2020-08-08T14:45:32Z</time>
      </trkpt>
      <trkpt lat="41.0889480" lon="0.6488860">
        <ele>30.7</ele>
        <time>2020-08-08T14:45:34Z</time>
      </trkpt>
      <trkpt lat="41.0889990" lon="0.6489060">
        <ele>30.6</ele>
        <time>2020-08-08T14:45:35Z</time>
      </trkpt>
      <trkpt lat="41.0890520" lon="0.6489240">
        <ele>30.6</ele>
        <time>2020-08-08T14:45:36Z</time>
      </trkpt>
      <trkpt lat="41.0891480" lon="0.6489520">
        <ele>30.5</ele>
        <time>2020-08-08T14:45:38Z</time>
      </trkpt>
      <trkpt lat="41.0892030" lon="0.6489760">
        <ele>30.5</ele>
        <time>2020-08-08T14:45:39Z</time>
      </trkpt>
      <trkpt lat="41.0892540" lon="0.6489970">
        <ele>30.4</ele>
        <time>2020-08-08T14:45:40Z</time>
      </trkpt>
      <trkpt lat="41.0893070" lon="0.6490230">
        <ele>30.4</ele>
        <time>2020-08-08T14:45:41Z</time>
      </trkpt>
      <trkpt lat="41.0893620" lon="0.6490520">
        <ele>30.4</ele>
        <time>2020-08-08T14:45:42Z</time>
      </trkpt>
      <trkpt lat="41.0894690" lon="0.6491080">
        <ele>30.3</ele>
        <time>2020-08-08T14:45:44Z</time>
      </trkpt>
      <trkpt lat="41.0895690" lon="0.6491520">
        <ele>30.4</ele>
        <time>2020-08-08T14:45:46Z</time>
      </trkpt>
      <trkpt lat="41.0896780" lon="0.6492040">
        <ele>30.7</ele>
        <time>2020-08-08T14:45:48Z</time>
      </trkpt>
      <trkpt lat="41.0897370" lon="0.6492370">
        <ele>30.9</ele>
        <time>2020-08-08T14:45:49Z</time>
      </trkpt>
      <trkpt lat="41.0898440" lon="0.6492950">
        <ele>31.1</ele>
        <time>2020-08-08T14:45:51Z</time>
      </trkpt>
      <trkpt lat="41.0899360" lon="0.6493460">
        <ele>31.1</ele>
        <time>2020-08-08T14:45:54Z</time>
      </trkpt>
      <trkpt lat="41.0900860" lon="0.6494280">
        <ele>31.2</ele>
        <time>2020-08-08T14:45:56Z</time>
      </trkpt>
      <trkpt lat="41.0901860" lon="0.6494700">
        <ele>31.2</ele>
        <time>2020-08-08T14:45:58Z</time>
      </trkpt>
      <trkpt lat="41.0902250" lon="0.6494820">
        <ele>31.3</ele>
        <time>2020-08-08T14:45:59Z</time>
      </trkpt>
      <trkpt lat="41.0902710" lon="0.6495020">
        <ele>31.3</ele>
        <time>2020-08-08T14:46:00Z</time>
      </trkpt>
      <trkpt lat="41.0903680" lon="0.6495510">
        <ele>31.5</ele>
        <time>2020-08-08T14:46:02Z</time>
      </trkpt>
      <trkpt lat="41.0904610" lon="0.6496030">
        <ele>31.6</ele>
        <time>2020-08-08T14:46:05Z</time>
      </trkpt>
      <trkpt lat="41.0905410" lon="0.6496420">
        <ele>31.7</ele>
        <time>2020-08-08T14:46:06Z</time>
      </trkpt>
      <trkpt lat="41.0905830" lon="0.6496720">
        <ele>31.7</ele>
        <time>2020-08-08T14:46:07Z</time>
      </trkpt>
      <trkpt lat="41.0906740" lon="0.6497220">
        <ele>31.9</ele>
        <time>2020-08-08T14:46:09Z</time>
      </trkpt>
      <trkpt lat="41.0907130" lon="0.6497380">
        <ele>31.9</ele>
        <time>2020-08-08T14:46:10Z</time>
      </trkpt>
      <trkpt lat="41.0908030" lon="0.6497610">
        <ele>32.1</ele>
        <time>2020-08-08T14:46:12Z</time>
      </trkpt>
      <trkpt lat="41.0908510" lon="0.6497800">
        <ele>32.2</ele>
        <time>2020-08-08T14:46:13Z</time>
      </trkpt>
      <trkpt lat="41.0909480" lon="0.6498200">
        <ele>32.3</ele>
        <time>2020-08-08T14:46:15Z</time>
      </trkpt>
      <trkpt lat="41.0910450" lon="0.6498680">
        <ele>32.4</ele>
        <time>2020-08-08T14:46:17Z</time>
      </trkpt>
      <trkpt lat="41.0911440" lon="0.6499110">
        <ele>32.6</ele>
        <time>2020-08-08T14:46:19Z</time>
      </trkpt>
      <trkpt lat="41.0911940" lon="0.6499320">
        <ele>32.7</ele>
        <time>2020-08-08T14:46:20Z</time>
      </trkpt>
      <trkpt lat="41.0912860" lon="0.6499800">
        <ele>32.9</ele>
        <time>2020-08-08T14:46:22Z</time>
      </trkpt>
      <trkpt lat="41.0913680" lon="0.6500390">
        <ele>33.1</ele>
        <time>2020-08-08T14:46:24Z</time>
      </trkpt>
      <trkpt lat="41.0914110" lon="0.6500640">
        <ele>33.2</ele>
        <time>2020-08-08T14:46:25Z</time>
      </trkpt>
      <trkpt lat="41.0914980" lon="0.6501170">
        <ele>33.4</ele>
        <time>2020-08-08T14:46:27Z</time>
      </trkpt>
      <trkpt lat="41.0915470" lon="0.6501430">
        <ele>33.5</ele>
        <time>2020-08-08T14:46:28Z</time>
      </trkpt>
      <trkpt lat="41.0915930" lon="0.6501660">
        <ele>33.6</ele>
        <time>2020-08-08T14:46:29Z</time>
      </trkpt>
      <trkpt lat="41.0916380" lon="0.6501870">
        <ele>33.7</ele>
        <time>2020-08-08T14:46:30Z</time>
      </trkpt>
      <trkpt lat="41.0917310" lon="0.6502270">
        <ele>33.9</ele>
        <time>2020-08-08T14:46:32Z</time>
      </trkpt>
      <trkpt lat="41.0917760" lon="0.6502430">
        <ele>34.0</ele>
        <time>2020-08-08T14:46:33Z</time>
      </trkpt>
      <trkpt lat="41.0918160" lon="0.6502640">
        <ele>34.1</ele>
        <time>2020-08-08T14:46:34Z</time>
      </trkpt>
      <trkpt lat="41.0918590" lon="0.6502860">
        <ele>34.2</ele>
        <time>2020-08-08T14:46:35Z</time>
      </trkpt>
      <trkpt lat="41.0919020" lon="0.6503100">
        <ele>34.3</ele>
        <time>2020-08-08T14:46:36Z</time>
      </trkpt>
      <trkpt lat="41.0919890" lon="0.6503560">
        <ele>34.5</ele>
        <time>2020-08-08T14:46:38Z</time>
      </trkpt>
      <trkpt lat="41.0920830" lon="0.6504130">
        <ele>34.6</ele>
        <time>2020-08-08T14:46:40Z</time>
      </trkpt>
      <trkpt lat="41.0921280" lon="0.6504430">
        <ele>34.7</ele>
        <time>2020-08-08T14:46:41Z</time>
      </trkpt>
      <trkpt lat="41.0922200" lon="0.6504990">
        <ele>34.9</ele>
        <time>2020-08-08T14:46:43Z</time>
      </trkpt>
      <trkpt lat="41.0923130" lon="0.6505510">
        <ele>35.0</ele>
        <time>2020-08-08T14:46:45Z</time>
      </trkpt>
      <trkpt lat="41.0923500" lon="0.6505740">
        <ele>35.1</ele>
        <time>2020-08-08T14:46:46Z</time>
      </trkpt>
      <trkpt lat="41.0924260" lon="0.6506320">
        <ele>35.2</ele>
        <time>2020-08-08T14:46:48Z</time>
      </trkpt>
      <trkpt lat="41.0924600" lon="0.6506650">
        <ele>35.2</ele>
        <time>2020-08-08T14:46:49Z</time>
      </trkpt>
      <trkpt lat="41.0925360" lon="0.6507230">
        <ele>35.3</ele>
        <time>2020-08-08T14:46:51Z</time>
      </trkpt>
      <trkpt lat="41.0926170" lon="0.6507810">
        <ele>35.5</ele>
        <time>2020-08-08T14:46:53Z</time>
      </trkpt>
      <trkpt lat="41.0926540" lon="0.6508100">
        <ele>35.5</ele>
        <time>2020-08-08T14:46:54Z</time>
      </trkpt>
      <trkpt lat="41.0927310" lon="0.6508680">
        <ele>35.6</ele>
        <time>2020-08-08T14:46:56Z</time>
      </trkpt>
      <trkpt lat="41.0928040" lon="0.6509340">
        <ele>35.7</ele>
        <time>2020-08-08T14:46:58Z</time>
      </trkpt>
      <trkpt lat="41.0928290" lon="0.6509570">
        <ele>35.7</ele>
        <time>2020-08-08T14:46:59Z</time>
      </trkpt>
      <trkpt lat="41.0928750" lon="0.6509880">
        <ele>35.7</ele>
        <time>2020-08-08T14:47:00Z</time>
      </trkpt>
      <trkpt lat="41.0929190" lon="0.6510220">
        <ele>35.8</ele>
        <time>2020-08-08T14:47:01Z</time>
      </trkpt>
      <trkpt lat="41.0930050" lon="0.6510910">
        <ele>35.8</ele>
        <time>2020-08-08T14:47:03Z</time>
      </trkpt>
      <trkpt lat="41.0930370" lon="0.6511300">
        <ele>35.8</ele>
        <time>2020-08-08T14:47:04Z</time>
      </trkpt>
      <trkpt lat="41.0930820" lon="0.6511710">
        <ele>35.8</ele>
        <time>2020-08-08T14:47:05Z</time>
      </trkpt>
      <trkpt lat="41.0931290" lon="0.6512070">
        <ele>35.8</ele>
        <time>2020-08-08T14:47:06Z</time>
      </trkpt>
      <trkpt lat="41.0932120" lon="0.6512820">
        <ele>35.8</ele>
        <time>2020-08-08T14:47:08Z</time>
      </trkpt>
      <trkpt lat="41.0932500" lon="0.6513190">
        <ele>35.7</ele>
        <time>2020-08-08T14:47:09Z</time>
      </trkpt>
      <trkpt lat="41.0932920" lon="0.6513540">
        <ele>35.7</ele>
        <time>2020-08-08T14:47:10Z</time>
      </trkpt>
      <trkpt lat="41.0933700" lon="0.6514120">
        <ele>35.5</ele>
        <time>2020-08-08T14:47:12Z</time>
      </trkpt>
      <trkpt lat="41.0934130" lon="0.6514350">
        <ele>35.4</ele>
        <time>2020-08-08T14:47:13Z</time>
      </trkpt>
      <trkpt lat="41.0934540" lon="0.6514710">
        <ele>35.2</ele>
        <time>2020-08-08T14:47:14Z</time>
      </trkpt>
      <trkpt lat="41.0935450" lon="0.6515540">
        <ele>34.9</ele>
        <time>2020-08-08T14:47:16Z</time>
      </trkpt>
      <trkpt lat="41.0935950" lon="0.6516030">
        <ele>34.7</ele>
        <time>2020-08-08T14:47:17Z</time>
      </trkpt>
      <trkpt lat="41.0936940" lon="0.6517100">
        <ele>34.2</ele>
        <time>2020-08-08T14:47:19Z</time>
      </trkpt>
      <trkpt lat="41.0937430" lon="0.6517700">
        <ele>33.9</ele>
        <time>2020-08-08T14:47:20Z</time>
      </trkpt>
      <trkpt lat="41.0938390" lon="0.6518880">
        <ele>33.5</ele>
        <time>2020-08-08T14:47:22Z</time>
      </trkpt>
      <trkpt lat="41.0938930" lon="0.6519470">
        <ele>33.3</ele>
        <time>2020-08-08T14:47:23Z</time>
      </trkpt>
      <trkpt lat="41.0939970" lon="0.6520650">
        <ele>33.0</ele>
        <time>2020-08-08T14:47:25Z</time>
      </trkpt>
      <trkpt lat="41.0940460" lon="0.6521170">
        <ele>32.6</ele>
        <time>2020-08-08T14:47:26Z</time>
      </trkpt>
      <trkpt lat="41.0940890" lon="0.6521550">
        <ele>32.3</ele>
        <time>2020-08-08T14:47:27Z</time>
      </trkpt>
      <trkpt lat="41.0941190" lon="0.6521720">
        <ele>32.1</ele>
        <time>2020-08-08T14:47:28Z</time>
      </trkpt>
      <trkpt lat="41.0941640" lon="0.6521960">
        <ele>31.8</ele>
        <time>2020-08-08T14:47:30Z</time>
      </trkpt>
      <trkpt lat="41.0941800" lon="0.6522060">
        <ele>31.7</ele>
        <time>2020-08-08T14:47:31Z</time>
      </trkpt>
      <trkpt lat="41.0941940" lon="0.6522120">
        <ele>31.3</ele>
        <time>2020-08-08T14:47:33Z</time>
      </trkpt>
      <trkpt lat="41.0941950" lon="0.6522140">
        <ele>31.3</ele>
        <time>2020-08-08T14:47:34Z</time>
      </trkpt>
      <trkpt lat="41.0941910" lon="0.6522090">
        <ele>31.3</ele>
        <time>2020-08-08T14:47:36Z</time>
      </trkpt>
      <trkpt lat="41.0942070" lon="0.6522160">
        <ele>31.3</ele>
        <time>2020-08-08T14:47:38Z</time>
      </trkpt>
      <trkpt lat="41.0942380" lon="0.6522370">
        <ele>31.3</ele>
        <time>2020-08-08T14:47:40Z</time>
      </trkpt>
      <trkpt lat="41.0942850" lon="0.6522460">
        <ele>31.3</ele>
        <time>2020-08-08T14:47:42Z</time>
      </trkpt>
      <trkpt lat="41.0943480" lon="0.6522160">
        <ele>31.3</ele>
        <time>2020-08-08T14:47:44Z</time>
      </trkpt>
      <trkpt lat="41.0943750" lon="0.6521900">
        <ele>31.2</ele>
        <time>2020-08-08T14:47:45Z</time>
      </trkpt>
      <trkpt lat="41.0944050" lon="0.6521590">
        <ele>31.2</ele>
        <time>2020-08-08T14:47:46Z</time>
      </trkpt>
      <trkpt lat="41.0944360" lon="0.6521300">
        <ele>31.2</ele>
        <time>2020-08-08T14:47:47Z</time>
      </trkpt>
      <trkpt lat="41.0944940" lon="0.6520830">
        <ele>31.2</ele>
        <time>2020-08-08T14:47:49Z</time>
      </trkpt>
      <trkpt lat="41.0945280" lon="0.6520610">
        <ele>31.2</ele>
        <time>2020-08-08T14:47:50Z</time>
      </trkpt>
      <trkpt lat="41.0945640" lon="0.6520450">
        <ele>31.2</ele>
        <time>2020-08-08T14:47:51Z</time>
      </trkpt>
      <trkpt lat="41.0946370" lon="0.6520290">
        <ele>31.4</ele>
        <time>2020-08-08T14:47:53Z</time>
      </trkpt>
      <trkpt lat="41.0946730" lon="0.6520210">
        <ele>31.5</ele>
        <time>2020-08-08T14:47:54Z</time>
      </trkpt>
      <trkpt lat="41.0947360" lon="0.6519900">
        <ele>31.7</ele>
        <time>2020-08-08T14:47:56Z</time>
      </trkpt>
      <trkpt lat="41.0947610" lon="0.6519700">
        <ele>32.0</ele>
        <time>2020-08-08T14:47:57Z</time>
      </trkpt>
      <trkpt lat="41.0947880" lon="0.6519480">
        <ele>32.1</ele>
        <time>2020-08-08T14:47:58Z</time>
      </trkpt>
      <trkpt lat="41.0948490" lon="0.6519410">
        <ele>32.3</ele>
        <time>2020-08-08T14:48:00Z</time>
      </trkpt>
      <trkpt lat="41.0948810" lon="0.6519510">
        <ele>32.4</ele>
        <time>2020-08-08T14:48:01Z</time>
      </trkpt>
      <trkpt lat="41.0949530" lon="0.6519850">
        <ele>32.6</ele>
        <time>2020-08-08T14:48:03Z</time>
      </trkpt>
      <trkpt lat="41.0949870" lon="0.6520070">
        <ele>32.7</ele>
        <time>2020-08-08T14:48:04Z</time>
      </trkpt>
      <trkpt lat="41.0950190" lon="0.6520270">
        <ele>32.8</ele>
        <time>2020-08-08T14:48:05Z</time>
      </trkpt>
      <trkpt lat="41.0950520" lon="0.6520460">
        <ele>32.9</ele>
        <time>2020-08-08T14:48:06Z</time>
      </trkpt>
      <trkpt lat="41.0950890" lon="0.6520640">
        <ele>33.0</ele>
        <time>2020-08-08T14:48:07Z</time>
      </trkpt>
      <trkpt lat="41.0951200" lon="0.6520750">
        <ele>33.1</ele>
        <time>2020-08-08T14:48:08Z</time>
      </trkpt>
      <trkpt lat="41.0951510" lon="0.6520830">
        <ele>33.1</ele>
        <time>2020-08-08T14:48:09Z</time>
      </trkpt>
      <trkpt lat="41.0951880" lon="0.6520890">
        <ele>33.2</ele>
        <time>2020-08-08T14:48:10Z</time>
      </trkpt>
      <trkpt lat="41.0952610" lon="0.6520890">
        <ele>33.2</ele>
        <time>2020-08-08T14:48:12Z</time>
      </trkpt>
      <trkpt lat="41.0953260" lon="0.6520760">
        <ele>33.3</ele>
        <time>2020-08-08T14:48:14Z</time>
      </trkpt>
      <trkpt lat="41.0953620" lon="0.6520640">
        <ele>33.4</ele>
        <time>2020-08-08T14:48:15Z</time>
      </trkpt>
      <trkpt lat="41.0954300" lon="0.6520330">
        <ele>33.5</ele>
        <time>2020-08-08T14:48:17Z</time>
      </trkpt>
      <trkpt lat="41.0954570" lon="0.6520170">
        <ele>33.5</ele>
        <time>2020-08-08T14:48:18Z</time>
      </trkpt>
      <trkpt lat="41.0955240" lon="0.6519800">
        <ele>33.7</ele>
        <time>2020-08-08T14:48:20Z</time>
      </trkpt>
      <trkpt lat="41.0955920" lon="0.6519500">
        <ele>33.8</ele>
        <time>2020-08-08T14:48:22Z</time>
      </trkpt>
      <trkpt lat="41.0956320" lon="0.6519340">
        <ele>33.8</ele>
        <time>2020-08-08T14:48:23Z</time>
      </trkpt>
      <trkpt lat="41.0957100" lon="0.6519030">
        <ele>34.0</ele>
        <time>2020-08-08T14:48:25Z</time>
      </trkpt>
      <trkpt lat="41.0957480" lon="0.6518860">
        <ele>34.0</ele>
        <time>2020-08-08T14:48:26Z</time>
      </trkpt>
      <trkpt lat="41.0958240" lon="0.6518470">
        <ele>34.2</ele>
        <time>2020-08-08T14:48:28Z</time>
      </trkpt>
      <trkpt lat="41.0958640" lon="0.6518270">
        <ele>34.3</ele>
        <time>2020-08-08T14:48:29Z</time>
      </trkpt>
      <trkpt lat="41.0959400" lon="0.6518000">
        <ele>34.5</ele>
        <time>2020-08-08T14:48:31Z</time>
      </trkpt>
      <trkpt lat="41.0959780" lon="0.6517870">
        <ele>34.6</ele>
        <time>2020-08-08T14:48:32Z</time>
      </trkpt>
      <trkpt lat="41.0960220" lon="0.6517700">
        <ele>34.8</ele>
        <time>2020-08-08T14:48:33Z</time>
      </trkpt>
      <trkpt lat="41.0960640" lon="0.6517530">
        <ele>34.9</ele>
        <time>2020-08-08T14:48:34Z</time>
      </trkpt>
      <trkpt lat="41.0961040" lon="0.6517400">
        <ele>35.0</ele>
        <time>2020-08-08T14:48:35Z</time>
      </trkpt>
      <trkpt lat="41.0961460" lon="0.6517280">
        <ele>35.1</ele>
        <time>2020-08-08T14:48:36Z</time>
      </trkpt>
      <trkpt lat="41.0962190" lon="0.6517020">
        <ele>35.1</ele>
        <time>2020-08-08T14:48:38Z</time>
      </trkpt>
      <trkpt lat="41.0962900" lon="0.6516570">
        <ele>35.1</ele>
        <time>2020-08-08T14:48:40Z</time>
      </trkpt>
      <trkpt lat="41.0963240" lon="0.6516220">
        <ele>35.1</ele>
        <time>2020-08-08T14:48:41Z</time>
      </trkpt>
      <trkpt lat="41.0963860" lon="0.6515420">
        <ele>35.2</ele>
        <time>2020-08-08T14:48:43Z</time>
      </trkpt>
      <trkpt lat="41.0964120" lon="0.6515060">
        <ele>35.2</ele>
        <time>2020-08-08T14:48:44Z</time>
      </trkpt>
      <trkpt lat="41.0964770" lon="0.6514190">
        <ele>35.3</ele>
        <time>2020-08-08T14:48:46Z</time>
      </trkpt>
      <trkpt lat="41.0965340" lon="0.6513340">
        <ele>35.3</ele>
        <time>2020-08-08T14:48:48Z</time>
      </trkpt>
      <trkpt lat="41.0965880" lon="0.6512520">
        <ele>35.4</ele>
        <time>2020-08-08T14:48:50Z</time>
      </trkpt>
      <trkpt lat="41.0966130" lon="0.6512170">
        <ele>35.5</ele>
        <time>2020-08-08T14:48:51Z</time>
      </trkpt>
      <trkpt lat="41.0966730" lon="0.6511420">
        <ele>35.6</ele>
        <time>2020-08-08T14:48:53Z</time>
      </trkpt>
      <trkpt lat="41.0967250" lon="0.6510770">
        <ele>35.7</ele>
        <time>2020-08-08T14:48:55Z</time>
      </trkpt>
      <trkpt lat="41.0967450" lon="0.6510480">
        <ele>35.7</ele>
        <time>2020-08-08T14:48:56Z</time>
      </trkpt>
      <trkpt lat="41.0967850" lon="0.6509900">
        <ele>35.8</ele>
        <time>2020-08-08T14:48:58Z</time>
      </trkpt>
      <trkpt lat="41.0968330" lon="0.6509390">
        <ele>35.8</ele>
        <time>2020-08-08T14:49:00Z</time>
      </trkpt>
      <trkpt lat="41.0968790" lon="0.6509010">
        <ele>35.8</ele>
        <time>2020-08-08T14:49:02Z</time>
      </trkpt>
      <trkpt lat="41.0968970" lon="0.6508820">
        <ele>35.8</ele>
        <time>2020-08-08T14:49:03Z</time>
      </trkpt>
      <trkpt lat="41.0969300" lon="0.6508370">
        <ele>35.8</ele>
        <time>2020-08-08T14:49:05Z</time>
      </trkpt>
      <trkpt lat="41.0969420" lon="0.6508200">
        <ele>35.8</ele>
        <time>2020-08-08T14:49:06Z</time>
      </trkpt>
      <trkpt lat="41.0969510" lon="0.6508100">
        <ele>35.8</ele>
        <time>2020-08-08T14:49:07Z</time>
      </trkpt>
      <trkpt lat="41.0969510" lon="0.6508120">
        <ele>35.8</ele>
        <time>2020-08-08T14:49:09Z</time>
      </trkpt>
      <trkpt lat="41.0969450" lon="0.6508240">
        <ele>35.9</ele>
        <time>2020-08-08T14:49:11Z</time>
      </trkpt>
      <trkpt lat="41.0969470" lon="0.6508250">
        <ele>35.9</ele>
        <time>2020-08-08T14:49:12Z</time>
      </trkpt>
      <trkpt lat="41.0969490" lon="0.6508250">
        <ele>35.9</ele>
        <time>2020-08-08T14:49:14Z</time>
      </trkpt>
      <trkpt lat="41.0969540" lon="0.6508220">
        <ele>35.9</ele>
        <time>2020-08-08T14:49:15Z</time>
      </trkpt>
      <trkpt lat="41.0969550" lon="0.6508210">
        <ele>35.9</ele>
        <time>2020-08-08T14:49:18Z</time>
      </trkpt>
      <trkpt lat="41.0969840" lon="0.6508010">
        <ele>35.9</ele>
        <time>2020-08-08T14:49:33Z</time>
      </trkpt>
      <trkpt lat="41.0970060" lon="0.6507780">
        <ele>35.9</ele>
        <time>2020-08-08T14:49:34Z</time>
      </trkpt>
      <trkpt lat="41.0970280" lon="0.6507550">
        <ele>35.9</ele>
        <time>2020-08-08T14:49:35Z</time>
      </trkpt>
      <trkpt lat="41.0970680" lon="0.6507100">
        <ele>36.0</ele>
        <time>2020-08-08T14:49:37Z</time>
      </trkpt>
      <trkpt lat="41.0971100" lon="0.6506630">
        <ele>36.0</ele>
        <time>2020-08-08T14:49:39Z</time>
      </trkpt>
      <trkpt lat="41.0971400" lon="0.6506270">
        <ele>36.0</ele>
        <time>2020-08-08T14:49:40Z</time>
      </trkpt>
      <trkpt lat="41.0971510" lon="0.6506120">
        <ele>36.1</ele>
        <time>2020-08-08T14:49:41Z</time>
      </trkpt>
      <trkpt lat="41.0971910" lon="0.6505590">
        <ele>36.1</ele>
        <time>2020-08-08T14:49:43Z</time>
      </trkpt>
      <trkpt lat="41.0972160" lon="0.6505290">
        <ele>36.1</ele>
        <time>2020-08-08T14:49:44Z</time>
      </trkpt>
      <trkpt lat="41.0972450" lon="0.6504930">
        <ele>36.1</ele>
        <time>2020-08-08T14:49:45Z</time>
      </trkpt>
      <trkpt lat="41.0972710" lon="0.6504610">
        <ele>36.1</ele>
        <time>2020-08-08T14:49:46Z</time>
      </trkpt>
      <trkpt lat="41.0972950" lon="0.6504300">
        <ele>36.0</ele>
        <time>2020-08-08T14:49:47Z</time>
      </trkpt>
      <trkpt lat="41.0973560" lon="0.6503650">
        <ele>36.0</ele>
        <time>2020-08-08T14:49:49Z</time>
      </trkpt>
      <trkpt lat="41.0973910" lon="0.6503320">
        <ele>36.0</ele>
        <time>2020-08-08T14:49:50Z</time>
      </trkpt>
      <trkpt lat="41.0974500" lon="0.6502730">
        <ele>36.0</ele>
        <time>2020-08-08T14:49:52Z</time>
      </trkpt>
      <trkpt lat="41.0974800" lon="0.6502390">
        <ele>35.9</ele>
        <time>2020-08-08T14:49:53Z</time>
      </trkpt>
      <trkpt lat="41.0975390" lon="0.6501720">
        <ele>35.9</ele>
        <time>2020-08-08T14:49:55Z</time>
      </trkpt>
      <trkpt lat="41.0975660" lon="0.6501410">
        <ele>35.9</ele>
        <time>2020-08-08T14:49:56Z</time>
      </trkpt>
      <trkpt lat="41.0975950" lon="0.6501110">
        <ele>35.9</ele>
        <time>2020-08-08T14:49:57Z</time>
      </trkpt>
      <trkpt lat="41.0976320" lon="0.6500770">
        <ele>35.8</ele>
        <time>2020-08-08T14:49:58Z</time>
      </trkpt>
      <trkpt lat="41.0976460" lon="0.6500620">
        <ele>35.7</ele>
        <time>2020-08-08T14:49:59Z</time>
      </trkpt>
      <trkpt lat="41.0976760" lon="0.6500300">
        <ele>35.6</ele>
        <time>2020-08-08T14:50:00Z</time>
      </trkpt>
      <trkpt lat="41.0977330" lon="0.6499500">
        <ele>35.2</ele>
        <time>2020-08-08T14:50:02Z</time>
      </trkpt>
      <trkpt lat="41.0978000" lon="0.6498600">
        <ele>34.9</ele>
        <time>2020-08-08T14:50:04Z</time>
      </trkpt>
      <trkpt lat="41.0980590" lon="0.6495850">
        <ele>33.8</ele>
        <time>2020-08-08T14:50:11Z</time>
      </trkpt>
      <trkpt lat="41.0981100" lon="0.6495550">
        <ele>33.7</ele>
        <time>2020-08-08T14:50:12Z</time>
      </trkpt>
      <trkpt lat="41.0981540" lon="0.6495080">
        <ele>33.6</ele>
        <time>2020-08-08T14:50:13Z</time>
      </trkpt>
      <trkpt lat="41.0981920" lon="0.6494540">
        <ele>33.5</ele>
        <time>2020-08-08T14:50:14Z</time>
      </trkpt>
      <trkpt lat="41.0982430" lon="0.6493310">
        <ele>33.4</ele>
        <time>2020-08-08T14:50:16Z</time>
      </trkpt>
      <trkpt lat="41.0982630" lon="0.6492920">
        <ele>33.5</ele>
        <time>2020-08-08T14:50:17Z</time>
      </trkpt>
      <trkpt lat="41.0982910" lon="0.6492640">
        <ele>33.5</ele>
        <time>2020-08-08T14:50:18Z</time>
      </trkpt>
      <trkpt lat="41.0983430" lon="0.6492210">
        <ele>33.7</ele>
        <time>2020-08-08T14:50:20Z</time>
      </trkpt>
      <trkpt lat="41.0983770" lon="0.6492140">
        <ele>34.0</ele>
        <time>2020-08-08T14:50:21Z</time>
      </trkpt>
      <trkpt lat="41.0983880" lon="0.6492180">
        <ele>34.0</ele>
        <time>2020-08-08T14:50:22Z</time>
      </trkpt>
      <trkpt lat="41.0984260" lon="0.6492980">
        <ele>34.2</ele>
        <time>2020-08-08T14:50:24Z</time>
      </trkpt>
      <trkpt lat="41.0984570" lon="0.6493960">
        <ele>34.4</ele>
        <time>2020-08-08T14:50:27Z</time>
      </trkpt>
      <trkpt lat="41.0984720" lon="0.6494250">
        <ele>34.4</ele>
        <time>2020-08-08T14:50:28Z</time>
      </trkpt>
      <trkpt lat="41.0985070" lon="0.6494770">
        <ele>34.6</ele>
        <time>2020-08-08T14:50:30Z</time>
      </trkpt>
      <trkpt lat="41.0985290" lon="0.6494980">
        <ele>34.7</ele>
        <time>2020-08-08T14:50:31Z</time>
      </trkpt>
      <trkpt lat="41.0985540" lon="0.6495180">
        <ele>34.8</ele>
        <time>2020-08-08T14:50:32Z</time>
      </trkpt>
      <trkpt lat="41.0986060" lon="0.6495490">
        <ele>35.1</ele>
        <time>2020-08-08T14:50:34Z</time>
      </trkpt>
      <trkpt lat="41.0986320" lon="0.6495610">
        <ele>35.2</ele>
        <time>2020-08-08T14:50:35Z</time>
      </trkpt>
      <trkpt lat="41.0986980" lon="0.6495930">
        <ele>35.4</ele>
        <time>2020-08-08T14:50:37Z</time>
      </trkpt>
      <trkpt lat="41.0987290" lon="0.6496110">
        <ele>35.5</ele>
        <time>2020-08-08T14:50:38Z</time>
      </trkpt>
      <trkpt lat="41.0987610" lon="0.6496380">
        <ele>35.6</ele>
        <time>2020-08-08T14:50:39Z</time>
      </trkpt>
      <trkpt lat="41.0987880" lon="0.6496650">
        <ele>35.7</ele>
        <time>2020-08-08T14:50:40Z</time>
      </trkpt>
      <trkpt lat="41.0988130" lon="0.6496940">
        <ele>35.8</ele>
        <time>2020-08-08T14:50:41Z</time>
      </trkpt>
      <trkpt lat="41.0988480" lon="0.6497470">
        <ele>35.9</ele>
        <time>2020-08-08T14:50:43Z</time>
      </trkpt>
      <trkpt lat="41.0988840" lon="0.6497920">
        <ele>36.0</ele>
        <time>2020-08-08T14:50:45Z</time>
      </trkpt>
      <trkpt lat="41.0989140" lon="0.6498220">
        <ele>36.1</ele>
        <time>2020-08-08T14:50:46Z</time>
      </trkpt>
      <trkpt lat="41.0989240" lon="0.6498310">
        <ele>36.1</ele>
        <time>2020-08-08T14:50:47Z</time>
      </trkpt>
      <trkpt lat="41.0989470" lon="0.6498480">
        <ele>36.1</ele>
        <time>2020-08-08T14:50:48Z</time>
      </trkpt>
      <trkpt lat="41.0989890" lon="0.6498710">
        <ele>36.2</ele>
        <time>2020-08-08T14:50:50Z</time>
      </trkpt>
      <trkpt lat="41.0990110" lon="0.6498800">
        <ele>36.2</ele>
        <time>2020-08-08T14:50:51Z</time>
      </trkpt>
      <trkpt lat="41.0990750" lon="0.6499120">
        <ele>36.2</ele>
        <time>2020-08-08T14:50:53Z</time>
      </trkpt>
      <trkpt lat="41.0991070" lon="0.6499270">
        <ele>36.2</ele>
        <time>2020-08-08T14:50:54Z</time>
      </trkpt>
      <trkpt lat="41.0991400" lon="0.6499400">
        <ele>36.2</ele>
        <time>2020-08-08T14:50:55Z</time>
      </trkpt>
      <trkpt lat="41.0991800" lon="0.6499550">
        <ele>36.2</ele>
        <time>2020-08-08T14:50:56Z</time>
      </trkpt>
      <trkpt lat="41.0992670" lon="0.6499960">
        <ele>36.2</ele>
        <time>2020-08-08T14:50:58Z</time>
      </trkpt>
      <trkpt lat="41.0993090" lon="0.6500190">
        <ele>36.2</ele>
        <time>2020-08-08T14:50:59Z</time>
      </trkpt>
      <trkpt lat="41.0993470" lon="0.6500430">
        <ele>36.1</ele>
        <time>2020-08-08T14:51:00Z</time>
      </trkpt>
      <trkpt lat="41.0993810" lon="0.6500670">
        <ele>36.1</ele>
        <time>2020-08-08T14:51:01Z</time>
      </trkpt>
      <trkpt lat="41.0994120" lon="0.6500950">
        <ele>36.0</ele>
        <time>2020-08-08T14:51:02Z</time>
      </trkpt>
      <trkpt lat="41.0994400" lon="0.6501230">
        <ele>36.0</ele>
        <time>2020-08-08T14:51:03Z</time>
      </trkpt>
      <trkpt lat="41.0994970" lon="0.6501890">
        <ele>36.0</ele>
        <time>2020-08-08T14:51:05Z</time>
      </trkpt>
      <trkpt lat="41.0995270" lon="0.6502230">
        <ele>35.9</ele>
        <time>2020-08-08T14:51:06Z</time>
      </trkpt>
      <trkpt lat="41.0995580" lon="0.6502510">
        <ele>35.8</ele>
        <time>2020-08-08T14:51:07Z</time>
      </trkpt>
      <trkpt lat="41.0996370" lon="0.6503110">
        <ele>35.6</ele>
        <time>2020-08-08T14:51:09Z</time>
      </trkpt>
      <trkpt lat="41.0996840" lon="0.6503430">
        <ele>35.5</ele>
        <time>2020-08-08T14:51:10Z</time>
      </trkpt>
      <trkpt lat="41.0997720" lon="0.6503910">
        <ele>35.2</ele>
        <time>2020-08-08T14:51:12Z</time>
      </trkpt>
      <trkpt lat="41.0998930" lon="0.6504520">
        <ele>35.2</ele>
        <time>2020-08-08T14:51:14Z</time>
      </trkpt>
      <trkpt lat="41.0999460" lon="0.6504810">
        <ele>35.2</ele>
        <time>2020-08-08T14:51:15Z</time>
      </trkpt>
      <trkpt lat="41.1000360" lon="0.6505360">
        <ele>35.2</ele>
        <time>2020-08-08T14:51:17Z</time>
      </trkpt>
      <trkpt lat="41.1000800" lon="0.6505670">
        <ele>35.3</ele>
        <time>2020-08-08T14:51:18Z</time>
      </trkpt>
      <trkpt lat="41.1001200" lon="0.6505930">
        <ele>35.4</ele>
        <time>2020-08-08T14:51:19Z</time>
      </trkpt>
      <trkpt lat="41.1001970" lon="0.6506460">
        <ele>35.6</ele>
        <time>2020-08-08T14:51:21Z</time>
      </trkpt>
      <trkpt lat="41.1002380" lon="0.6506710">
        <ele>35.7</ele>
        <time>2020-08-08T14:51:22Z</time>
      </trkpt>
      <trkpt lat="41.1002700" lon="0.6506910">
        <ele>35.8</ele>
        <time>2020-08-08T14:51:23Z</time>
      </trkpt>
      <trkpt lat="41.1003450" lon="0.6507270">
        <ele>36.0</ele>
        <time>2020-08-08T14:51:25Z</time>
      </trkpt>
      <trkpt lat="41.1003810" lon="0.6507510">
        <ele>36.1</ele>
        <time>2020-08-08T14:51:26Z</time>
      </trkpt>
      <trkpt lat="41.1004540" lon="0.6508130">
        <ele>36.3</ele>
        <time>2020-08-08T14:51:28Z</time>
      </trkpt>
      <trkpt lat="41.1004910" lon="0.6508470">
        <ele>36.4</ele>
        <time>2020-08-08T14:51:29Z</time>
      </trkpt>
      <trkpt lat="41.1005710" lon="0.6508910">
        <ele>36.6</ele>
        <time>2020-08-08T14:51:31Z</time>
      </trkpt>
      <trkpt lat="41.1006140" lon="0.6509190">
        <ele>36.8</ele>
        <time>2020-08-08T14:51:32Z</time>
      </trkpt>
      <trkpt lat="41.1006530" lon="0.6509470">
        <ele>36.9</ele>
        <time>2020-08-08T14:51:33Z</time>
      </trkpt>
      <trkpt lat="41.1007320" lon="0.6509990">
        <ele>37.2</ele>
        <time>2020-08-08T14:51:35Z</time>
      </trkpt>
      <trkpt lat="41.1007730" lon="0.6510280">
        <ele>37.3</ele>
        <time>2020-08-08T14:51:36Z</time>
      </trkpt>
      <trkpt lat="41.1008060" lon="0.6510510">
        <ele>37.4</ele>
        <time>2020-08-08T14:51:37Z</time>
      </trkpt>
      <trkpt lat="41.1008420" lon="0.6510750">
        <ele>37.5</ele>
        <time>2020-08-08T14:51:38Z</time>
      </trkpt>
      <trkpt lat="41.1009180" lon="0.6511220">
        <ele>37.6</ele>
        <time>2020-08-08T14:51:40Z</time>
      </trkpt>
      <trkpt lat="41.1009990" lon="0.6511620">
        <ele>37.7</ele>
        <time>2020-08-08T14:51:42Z</time>
      </trkpt>
      <trkpt lat="41.1010900" lon="0.6512030">
        <ele>37.9</ele>
        <time>2020-08-08T14:51:44Z</time>
      </trkpt>
      <trkpt lat="41.1011390" lon="0.6512280">
        <ele>38.1</ele>
        <time>2020-08-08T14:51:45Z</time>
      </trkpt>
      <trkpt lat="41.1011850" lon="0.6512460">
        <ele>38.2</ele>
        <time>2020-08-08T14:51:46Z</time>
      </trkpt>
      <trkpt lat="41.1012240" lon="0.6512680">
        <ele>38.3</ele>
        <time>2020-08-08T14:51:47Z</time>
      </trkpt>
      <trkpt lat="41.1012890" lon="0.6513130">
        <ele>38.4</ele>
        <time>2020-08-08T14:51:49Z</time>
      </trkpt>
      <trkpt lat="41.1013360" lon="0.6513410">
        <ele>38.5</ele>
        <time>2020-08-08T14:51:50Z</time>
      </trkpt>
      <trkpt lat="41.1013810" lon="0.6513700">
        <ele>38.6</ele>
        <time>2020-08-08T14:51:51Z</time>
      </trkpt>
      <trkpt lat="41.1014570" lon="0.6514310">
        <ele>38.8</ele>
        <time>2020-08-08T14:51:53Z</time>
      </trkpt>
      <trkpt lat="41.1014860" lon="0.6514600">
        <ele>38.8</ele>
        <time>2020-08-08T14:51:54Z</time>
      </trkpt>
      <trkpt lat="41.1015260" lon="0.6515020">
        <ele>38.9</ele>
        <time>2020-08-08T14:51:55Z</time>
      </trkpt>
      <trkpt lat="41.1015680" lon="0.6515380">
        <ele>38.9</ele>
        <time>2020-08-08T14:51:56Z</time>
      </trkpt>
      <trkpt lat="41.1016490" lon="0.6516160">
        <ele>39.0</ele>
        <time>2020-08-08T14:51:58Z</time>
      </trkpt>
      <trkpt lat="41.1017170" lon="0.6516770">
        <ele>39.2</ele>
        <time>2020-08-08T14:52:00Z</time>
      </trkpt>
      <trkpt lat="41.1017540" lon="0.6517140">
        <ele>39.3</ele>
        <time>2020-08-08T14:52:01Z</time>
      </trkpt>
      <trkpt lat="41.1017880" lon="0.6517430">
        <ele>39.3</ele>
        <time>2020-08-08T14:52:02Z</time>
      </trkpt>
      <trkpt lat="41.1018540" lon="0.6518000">
        <ele>39.5</ele>
        <time>2020-08-08T14:52:04Z</time>
      </trkpt>
      <trkpt lat="41.1019200" lon="0.6518470">
        <ele>39.6</ele>
        <time>2020-08-08T14:52:06Z</time>
      </trkpt>
      <trkpt lat="41.1019510" lon="0.6518670">
        <ele>39.6</ele>
        <time>2020-08-08T14:52:07Z</time>
      </trkpt>
      <trkpt lat="41.1019800" lon="0.6518910">
        <ele>39.6</ele>
        <time>2020-08-08T14:52:08Z</time>
      </trkpt>
      <trkpt lat="41.1020530" lon="0.6519510">
        <ele>39.7</ele>
        <time>2020-08-08T14:52:10Z</time>
      </trkpt>
      <trkpt lat="41.1020890" lon="0.6519820">
        <ele>39.8</ele>
        <time>2020-08-08T14:52:11Z</time>
      </trkpt>
      <trkpt lat="41.1021240" lon="0.6520130">
        <ele>39.8</ele>
        <time>2020-08-08T14:52:12Z</time>
      </trkpt>
      <trkpt lat="41.1021940" lon="0.6520690">
        <ele>39.9</ele>
        <time>2020-08-08T14:52:14Z</time>
      </trkpt>
      <trkpt lat="41.1022610" lon="0.6521170">
        <ele>40.0</ele>
        <time>2020-08-08T14:52:16Z</time>
      </trkpt>
      <trkpt lat="41.1023260" lon="0.6521610">
        <ele>40.1</ele>
        <time>2020-08-08T14:52:18Z</time>
      </trkpt>
      <trkpt lat="41.1023890" lon="0.6522090">
        <ele>40.2</ele>
        <time>2020-08-08T14:52:20Z</time>
      </trkpt>
      <trkpt lat="41.1024220" lon="0.6522350">
        <ele>40.3</ele>
        <time>2020-08-08T14:52:21Z</time>
      </trkpt>
      <trkpt lat="41.1024870" lon="0.6522860">
        <ele>40.3</ele>
        <time>2020-08-08T14:52:23Z</time>
      </trkpt>
      <trkpt lat="41.1025170" lon="0.6523130">
        <ele>40.3</ele>
        <time>2020-08-08T14:52:24Z</time>
      </trkpt>
      <trkpt lat="41.1025430" lon="0.6523380">
        <ele>40.4</ele>
        <time>2020-08-08T14:52:25Z</time>
      </trkpt>
      <trkpt lat="41.1025980" lon="0.6523860">
        <ele>40.4</ele>
        <time>2020-08-08T14:52:27Z</time>
      </trkpt>
      <trkpt lat="41.1026260" lon="0.6524110">
        <ele>40.4</ele>
        <time>2020-08-08T14:52:28Z</time>
      </trkpt>
      <trkpt lat="41.1026550" lon="0.6524360">
        <ele>40.5</ele>
        <time>2020-08-08T14:52:29Z</time>
      </trkpt>
      <trkpt lat="41.1027120" lon="0.6524850">
        <ele>40.5</ele>
        <time>2020-08-08T14:52:31Z</time>
      </trkpt>
      <trkpt lat="41.1027410" lon="0.6525110">
        <ele>40.5</ele>
        <time>2020-08-08T14:52:32Z</time>
      </trkpt>
      <trkpt lat="41.1027950" lon="0.6525610">
        <ele>40.5</ele>
        <time>2020-08-08T14:52:34Z</time>
      </trkpt>
      <trkpt lat="41.1028520" lon="0.6526200">
        <ele>40.7</ele>
        <time>2020-08-08T14:52:36Z</time>
      </trkpt>
      <trkpt lat="41.1029110" lon="0.6526790">
        <ele>41.0</ele>
        <time>2020-08-08T14:52:38Z</time>
      </trkpt>
      <trkpt lat="41.1029410" lon="0.6527080">
        <ele>41.1</ele>
        <time>2020-08-08T14:52:39Z</time>
      </trkpt>
      <trkpt lat="41.1029940" lon="0.6527610">
        <ele>41.3</ele>
        <time>2020-08-08T14:52:41Z</time>
      </trkpt>
      <trkpt lat="41.1030250" lon="0.6527910">
        <ele>41.4</ele>
        <time>2020-08-08T14:52:42Z</time>
      </trkpt>
      <trkpt lat="41.1030510" lon="0.6528180">
        <ele>41.5</ele>
        <time>2020-08-08T14:52:43Z</time>
      </trkpt>
      <trkpt lat="41.1031070" lon="0.6528700">
        <ele>41.8</ele>
        <time>2020-08-08T14:52:45Z</time>
      </trkpt>
      <trkpt lat="41.1031650" lon="0.6529210">
        <ele>42.0</ele>
        <time>2020-08-08T14:52:47Z</time>
      </trkpt>
      <trkpt lat="41.1031980" lon="0.6529500">
        <ele>42.2</ele>
        <time>2020-08-08T14:52:48Z</time>
      </trkpt>
      <trkpt lat="41.1032460" lon="0.6529940">
        <ele>42.4</ele>
        <time>2020-08-08T14:52:50Z</time>
      </trkpt>
      <trkpt lat="41.1032730" lon="0.6530180">
        <ele>42.5</ele>
        <time>2020-08-08T14:52:51Z</time>
      </trkpt>
      <trkpt lat="41.1032920" lon="0.6530390">
        <ele>42.7</ele>
        <time>2020-08-08T14:52:52Z</time>
      </trkpt>
      <trkpt lat="41.1033200" lon="0.6530790">
        <ele>42.9</ele>
        <time>2020-08-08T14:52:54Z</time>
      </trkpt>
      <trkpt lat="41.1033370" lon="0.6531000">
        <ele>43.0</ele>
        <time>2020-08-08T14:52:55Z</time>
      </trkpt>
      <trkpt lat="41.1033720" lon="0.6531400">
        <ele>43.2</ele>
        <time>2020-08-08T14:52:57Z</time>
      </trkpt>
      <trkpt lat="41.1034020" lon="0.6531900">
        <ele>43.5</ele>
        <time>2020-08-08T14:52:59Z</time>
      </trkpt>
      <trkpt lat="41.1034200" lon="0.6532170">
        <ele>43.6</ele>
        <time>2020-08-08T14:53:00Z</time>
      </trkpt>
      <trkpt lat="41.1034620" lon="0.6532600">
        <ele>43.9</ele>
        <time>2020-08-08T14:53:02Z</time>
      </trkpt>
      <trkpt lat="41.1034820" lon="0.6532780">
        <ele>44.0</ele>
        <time>2020-08-08T14:53:03Z</time>
      </trkpt>
      <trkpt lat="41.1035260" lon="0.6533220">
        <ele>44.3</ele>
        <time>2020-08-08T14:53:05Z</time>
      </trkpt>
      <trkpt lat="41.1035450" lon="0.6533460">
        <ele>44.4</ele>
        <time>2020-08-08T14:53:06Z</time>
      </trkpt>
      <trkpt lat="41.1035790" lon="0.6533950">
        <ele>44.7</ele>
        <time>2020-08-08T14:53:08Z</time>
      </trkpt>
      <trkpt lat="41.1036150" lon="0.6534520">
        <ele>44.9</ele>
        <time>2020-08-08T14:53:10Z</time>
      </trkpt>
      <trkpt lat="41.1036320" lon="0.6534780">
        <ele>44.9</ele>
        <time>2020-08-08T14:53:11Z</time>
      </trkpt>
      <trkpt lat="41.1036620" lon="0.6535280">
        <ele>45.2</ele>
        <time>2020-08-08T14:53:13Z</time>
      </trkpt>
      <trkpt lat="41.1036910" lon="0.6535720">
        <ele>45.5</ele>
        <time>2020-08-08T14:53:15Z</time>
      </trkpt>
      <trkpt lat="41.1037090" lon="0.6535940">
        <ele>45.7</ele>
        <time>2020-08-08T14:53:16Z</time>
      </trkpt>
      <trkpt lat="41.1037380" lon="0.6536290">
        <ele>45.9</ele>
        <time>2020-08-08T14:53:18Z</time>
      </trkpt>
      <trkpt lat="41.1037570" lon="0.6536520">
        <ele>46.1</ele>
        <time>2020-08-08T14:53:19Z</time>
      </trkpt>
      <trkpt lat="41.1037910" lon="0.6536980">
        <ele>46.4</ele>
        <time>2020-08-08T14:53:21Z</time>
      </trkpt>
      <trkpt lat="41.1038180" lon="0.6537340">
        <ele>46.7</ele>
        <time>2020-08-08T14:53:22Z</time>
      </trkpt>
      <trkpt lat="41.1038270" lon="0.6537460">
        <ele>46.7</ele>
        <time>2020-08-08T14:53:23Z</time>
      </trkpt>
      <trkpt lat="41.1038600" lon="0.6537960">
        <ele>47.1</ele>
        <time>2020-08-08T14:53:25Z</time>
      </trkpt>
      <trkpt lat="41.1038740" lon="0.6538180">
        <ele>47.2</ele>
        <time>2020-08-08T14:53:26Z</time>
      </trkpt>
      <trkpt lat="41.1038850" lon="0.6538360">
        <ele>47.3</ele>
        <time>2020-08-08T14:53:28Z</time>
      </trkpt>
      <trkpt lat="41.1039580" lon="0.6539440">
        <ele>48.0</ele>
        <time>2020-08-08T14:53:36Z</time>
      </trkpt>
      <trkpt lat="41.1040190" lon="0.6540360">
        <ele>48.6</ele>
        <time>2020-08-08T14:53:38Z</time>
      </trkpt>
      <trkpt lat="41.1040470" lon="0.6540720">
        <ele>48.9</ele>
        <time>2020-08-08T14:53:39Z</time>
      </trkpt>
      <trkpt lat="41.1040880" lon="0.6541220">
        <ele>49.2</ele>
        <time>2020-08-08T14:53:41Z</time>
      </trkpt>
      <trkpt lat="41.1041080" lon="0.6541470">
        <ele>49.4</ele>
        <time>2020-08-08T14:53:42Z</time>
      </trkpt>
      <trkpt lat="41.1041260" lon="0.6541740">
        <ele>49.6</ele>
        <time>2020-08-08T14:53:43Z</time>
      </trkpt>
      <trkpt lat="41.1041600" lon="0.6542250">
        <ele>49.9</ele>
        <time>2020-08-08T14:53:45Z</time>
      </trkpt>
      <trkpt lat="41.1041760" lon="0.6542500">
        <ele>50.1</ele>
        <time>2020-08-08T14:53:46Z</time>
      </trkpt>
      <trkpt lat="41.1042040" lon="0.6542980">
        <ele>50.4</ele>
        <time>2020-08-08T14:53:48Z</time>
      </trkpt>
      <trkpt lat="41.1042420" lon="0.6543610">
        <ele>50.8</ele>
        <time>2020-08-08T14:53:51Z</time>
      </trkpt>
      <trkpt lat="41.1042740" lon="0.6544200">
        <ele>51.2</ele>
        <time>2020-08-08T14:53:53Z</time>
      </trkpt>
      <trkpt lat="41.1042960" lon="0.6544630">
        <ele>51.5</ele>
        <time>2020-08-08T14:53:54Z</time>
      </trkpt>
      <trkpt lat="41.1043030" lon="0.6544770">
        <ele>51.6</ele>
        <time>2020-08-08T14:53:55Z</time>
      </trkpt>
      <trkpt lat="41.1043280" lon="0.6545310">
        <ele>51.9</ele>
        <time>2020-08-08T14:53:57Z</time>
      </trkpt>
      <trkpt lat="41.1043400" lon="0.6545590">
        <ele>52.1</ele>
        <time>2020-08-08T14:53:58Z</time>
      </trkpt>
      <trkpt lat="41.1043680" lon="0.6546170">
        <ele>52.4</ele>
        <time>2020-08-08T14:54:00Z</time>
      </trkpt>
      <trkpt lat="41.1043870" lon="0.6546590">
        <ele>52.6</ele>
        <time>2020-08-08T14:54:01Z</time>
      </trkpt>
      <trkpt lat="41.1043930" lon="0.6546730">
        <ele>52.7</ele>
        <time>2020-08-08T14:54:02Z</time>
      </trkpt>
      <trkpt lat="41.1044210" lon="0.6547320">
        <ele>53.1</ele>
        <time>2020-08-08T14:54:04Z</time>
      </trkpt>
      <trkpt lat="41.1044280" lon="0.6547610">
        <ele>53.2</ele>
        <time>2020-08-08T14:54:05Z</time>
      </trkpt>
      <trkpt lat="41.1044490" lon="0.6548150">
        <ele>53.5</ele>
        <time>2020-08-08T14:54:07Z</time>
      </trkpt>
      <trkpt lat="41.1044700" lon="0.6548460">
        <ele>53.7</ele>
        <time>2020-08-08T14:54:08Z</time>
      </trkpt>
      <trkpt lat="41.1044780" lon="0.6548560">
        <ele>53.7</ele>
        <time>2020-08-08T14:54:09Z</time>
      </trkpt>
      <trkpt lat="41.1044900" lon="0.6548700">
        <ele>53.8</ele>
        <time>2020-08-08T14:54:10Z</time>
      </trkpt>
      <trkpt lat="41.1045210" lon="0.6548970">
        <ele>53.9</ele>
        <time>2020-08-08T14:54:12Z</time>
      </trkpt>
      <trkpt lat="41.1045430" lon="0.6548990">
        <ele>53.9</ele>
        <time>2020-08-08T14:54:13Z</time>
      </trkpt>
      <trkpt lat="41.1045840" lon="0.6548770">
        <ele>53.9</ele>
        <time>2020-08-08T14:54:15Z</time>
      </trkpt>
      <trkpt lat="41.1046100" lon="0.6548610">
        <ele>53.8</ele>
        <time>2020-08-08T14:54:16Z</time>
      </trkpt>
      <trkpt lat="41.1046610" lon="0.6548270">
        <ele>53.8</ele>
        <time>2020-08-08T14:54:18Z</time>
      </trkpt>
      <trkpt lat="41.1047160" lon="0.6547910">
        <ele>53.7</ele>
        <time>2020-08-08T14:54:20Z</time>
      </trkpt>
      <trkpt lat="41.1047490" lon="0.6547700">
        <ele>53.6</ele>
        <time>2020-08-08T14:54:21Z</time>
      </trkpt>
      <trkpt lat="41.1047800" lon="0.6547500">
        <ele>53.6</ele>
        <time>2020-08-08T14:54:22Z</time>
      </trkpt>
      <trkpt lat="41.1048110" lon="0.6547290">
        <ele>53.5</ele>
        <time>2020-08-08T14:54:23Z</time>
      </trkpt>
      <trkpt lat="41.1048720" lon="0.6546850">
        <ele>53.4</ele>
        <time>2020-08-08T14:54:25Z</time>
      </trkpt>
      <trkpt lat="41.1049370" lon="0.6546410">
        <ele>53.4</ele>
        <time>2020-08-08T14:54:27Z</time>
      </trkpt>
      <trkpt lat="41.1050140" lon="0.6545830">
        <ele>53.3</ele>
        <time>2020-08-08T14:54:29Z</time>
      </trkpt>
      <trkpt lat="41.1050480" lon="0.6545490">
        <ele>53.3</ele>
        <time>2020-08-08T14:54:30Z</time>
      </trkpt>
      <trkpt lat="41.1050820" lon="0.6545090">
        <ele>53.2</ele>
        <time>2020-08-08T14:54:31Z</time>
      </trkpt>
      <trkpt lat="41.1051220" lon="0.6544580">
        <ele>53.2</ele>
        <time>2020-08-08T14:54:32Z</time>
      </trkpt>
      <trkpt lat="41.1051900" lon="0.6543520">
        <ele>53.0</ele>
        <time>2020-08-08T14:54:34Z</time>
      </trkpt>
      <trkpt lat="41.1052220" lon="0.6543020">
        <ele>53.0</ele>
        <time>2020-08-08T14:54:35Z</time>
      </trkpt>
      <trkpt lat="41.1052760" lon="0.6542010">
        <ele>52.8</ele>
        <time>2020-08-08T14:54:37Z</time>
      </trkpt>
      <trkpt lat="41.1053320" lon="0.6540950">
        <ele>52.7</ele>
        <time>2020-08-08T14:54:39Z</time>
      </trkpt>
      <trkpt lat="41.1053600" lon="0.6540390">
        <ele>52.6</ele>
        <time>2020-08-08T14:54:40Z</time>
      </trkpt>
      <trkpt lat="41.1053940" lon="0.6539880">
        <ele>52.5</ele>
        <time>2020-08-08T14:54:41Z</time>
      </trkpt>
      <trkpt lat="41.1054590" lon="0.6538820">
        <ele>52.4</ele>
        <time>2020-08-08T14:54:43Z</time>
      </trkpt>
      <trkpt lat="41.1054930" lon="0.6538200">
        <ele>52.3</ele>
        <time>2020-08-08T14:54:44Z</time>
      </trkpt>
      <trkpt lat="41.1055540" lon="0.6537060">
        <ele>52.1</ele>
        <time>2020-08-08T14:54:46Z</time>
      </trkpt>
      <trkpt lat="41.1055880" lon="0.6536450">
        <ele>52.0</ele>
        <time>2020-08-08T14:54:47Z</time>
      </trkpt>
      <trkpt lat="41.1056560" lon="0.6535260">
        <ele>51.8</ele>
        <time>2020-08-08T14:54:49Z</time>
      </trkpt>
      <trkpt lat="41.1056890" lon="0.6534630">
        <ele>51.7</ele>
        <time>2020-08-08T14:54:50Z</time>
      </trkpt>
      <trkpt lat="41.1057200" lon="0.6534000">
        <ele>51.6</ele>
        <time>2020-08-08T14:54:51Z</time>
      </trkpt>
      <trkpt lat="41.1057770" lon="0.6532700">
        <ele>51.3</ele>
        <time>2020-08-08T14:54:53Z</time>
      </trkpt>
      <trkpt lat="41.1058120" lon="0.6532050">
        <ele>51.2</ele>
        <time>2020-08-08T14:54:54Z</time>
      </trkpt>
      <trkpt lat="41.1058840" lon="0.6530800">
        <ele>51.1</ele>
        <time>2020-08-08T14:54:56Z</time>
      </trkpt>
      <trkpt lat="41.1059210" lon="0.6530230">
        <ele>51.0</ele>
        <time>2020-08-08T14:54:57Z</time>
      </trkpt>
      <trkpt lat="41.1060230" lon="0.6529370">
        <ele>51.0</ele>
        <time>2020-08-08T14:54:59Z</time>
      </trkpt>
      <trkpt lat="41.1061260" lon="0.6528640">
        <ele>51.1</ele>
        <time>2020-08-08T14:55:01Z</time>
      </trkpt>
      <trkpt lat="41.1061790" lon="0.6528280">
        <ele>51.1</ele>
        <time>2020-08-08T14:55:02Z</time>
      </trkpt>
      <trkpt lat="41.1062290" lon="0.6527880">
        <ele>51.1</ele>
        <time>2020-08-08T14:55:03Z</time>
      </trkpt>
      <trkpt lat="41.1063280" lon="0.6527070">
        <ele>51.1</ele>
        <time>2020-08-08T14:55:05Z</time>
      </trkpt>
      <trkpt lat="41.1063790" lon="0.6526740">
        <ele>51.2</ele>
        <time>2020-08-08T14:55:06Z</time>
      </trkpt>
      <trkpt lat="41.1064690" lon="0.6525970">
        <ele>51.3</ele>
        <time>2020-08-08T14:55:08Z</time>
      </trkpt>
      <trkpt lat="41.1065600" lon="0.6525280">
        <ele>51.4</ele>
        <time>2020-08-08T14:55:10Z</time>
      </trkpt>
      <trkpt lat="41.1066480" lon="0.6524680">
        <ele>51.6</ele>
        <time>2020-08-08T14:55:12Z</time>
      </trkpt>
      <trkpt lat="41.1067380" lon="0.6524240">
        <ele>51.7</ele>
        <time>2020-08-08T14:55:14Z</time>
      </trkpt>
      <trkpt lat="41.1067710" lon="0.6524140">
        <ele>51.7</ele>
        <time>2020-08-08T14:55:15Z</time>
      </trkpt>
      <trkpt lat="41.1068350" lon="0.6523690">
        <ele>51.6</ele>
        <time>2020-08-08T14:55:17Z</time>
      </trkpt>
      <trkpt lat="41.1068670" lon="0.6523490">
        <ele>51.4</ele>
        <time>2020-08-08T14:55:18Z</time>
      </trkpt>
      <trkpt lat="41.1068940" lon="0.6523410">
        <ele>51.5</ele>
        <time>2020-08-08T14:55:19Z</time>
      </trkpt>
      <trkpt lat="41.1069340" lon="0.6523150">
        <ele>51.5</ele>
        <time>2020-08-08T14:55:21Z</time>
      </trkpt>
      <trkpt lat="41.1069440" lon="0.6523020">
        <ele>51.4</ele>
        <time>2020-08-08T14:55:23Z</time>
      </trkpt>
      <trkpt lat="41.1069530" lon="0.6522880">
        <ele>51.4</ele>
        <time>2020-08-08T14:55:24Z</time>
      </trkpt>
      <trkpt lat="41.1069700" lon="0.6522650">
        <ele>51.1</ele>
        <time>2020-08-08T14:55:25Z</time>
      </trkpt>
      <trkpt lat="41.1070100" lon="0.6522340">
        <ele>51.2</ele>
        <time>2020-08-08T14:55:27Z</time>
      </trkpt>
      <trkpt lat="41.1070340" lon="0.6522260">
        <ele>50.9</ele>
        <time>2020-08-08T14:55:28Z</time>
      </trkpt>
      <trkpt lat="41.1070790" lon="0.6522380">
        <ele>51.2</ele>
        <time>2020-08-08T14:55:30Z</time>
      </trkpt>
      <trkpt lat="41.1071040" lon="0.6522520">
        <ele>51.3</ele>
        <time>2020-08-08T14:55:31Z</time>
      </trkpt>
      <trkpt lat="41.1071280" lon="0.6522640">
        <ele>51.3</ele>
        <time>2020-08-08T14:55:32Z</time>
      </trkpt>
      <trkpt lat="41.1071700" lon="0.6522840">
        <ele>51.6</ele>
        <time>2020-08-08T14:55:34Z</time>
      </trkpt>
      <trkpt lat="41.1071920" lon="0.6522970">
        <ele>51.6</ele>
        <time>2020-08-08T14:55:35Z</time>
      </trkpt>
      <trkpt lat="41.1072250" lon="0.6523400">
        <ele>51.8</ele>
        <time>2020-08-08T14:55:37Z</time>
      </trkpt>
      <trkpt lat="41.1072360" lon="0.6523610">
        <ele>52.1</ele>
        <time>2020-08-08T14:55:38Z</time>
      </trkpt>
      <trkpt lat="41.1072530" lon="0.6524030">
        <ele>52.3</ele>
        <time>2020-08-08T14:55:40Z</time>
      </trkpt>
      <trkpt lat="41.1072560" lon="0.6524250">
        <ele>52.3</ele>
        <time>2020-08-08T14:55:41Z</time>
      </trkpt>
      <trkpt lat="41.1072580" lon="0.6524730">
        <ele>52.6</ele>
        <time>2020-08-08T14:55:43Z</time>
      </trkpt>
      <trkpt lat="41.1072740" lon="0.6525170">
        <ele>52.8</ele>
        <time>2020-08-08T14:55:45Z</time>
      </trkpt>
      <trkpt lat="41.1072840" lon="0.6525380">
        <ele>53.1</ele>
        <time>2020-08-08T14:55:46Z</time>
      </trkpt>
      <trkpt lat="41.1073020" lon="0.6525810">
        <ele>53.3</ele>
        <time>2020-08-08T14:55:48Z</time>
      </trkpt>
      <trkpt lat="41.1073200" lon="0.6526170">
        <ele>53.4</ele>
        <time>2020-08-08T14:55:50Z</time>
      </trkpt>
      <trkpt lat="41.1073240" lon="0.6526240">
        <ele>53.4</ele>
        <time>2020-08-08T14:55:51Z</time>
      </trkpt>
      <trkpt lat="41.1073430" lon="0.6526490">
        <ele>53.5</ele>
        <time>2020-08-08T14:55:53Z</time>
      </trkpt>
      <trkpt lat="41.1073560" lon="0.6526590">
        <ele>53.6</ele>
        <time>2020-08-08T14:55:54Z</time>
      </trkpt>
      <trkpt lat="41.1073880" lon="0.6526690">
        <ele>53.6</ele>
        <time>2020-08-08T14:55:56Z</time>
      </trkpt>
      <trkpt lat="41.1074240" lon="0.6526690">
        <ele>53.7</ele>
        <time>2020-08-08T14:55:58Z</time>
      </trkpt>
      <trkpt lat="41.1074320" lon="0.6526680">
        <ele>53.7</ele>
        <time>2020-08-08T14:55:59Z</time>
      </trkpt>
      <trkpt lat="41.1074430" lon="0.6526670">
        <ele>53.7</ele>
        <time>2020-08-08T14:56:01Z</time>
      </trkpt>
      <trkpt lat="41.1074590" lon="0.6526630">
        <ele>53.7</ele>
        <time>2020-08-08T14:56:03Z</time>
      </trkpt>
      <trkpt lat="41.1074650" lon="0.6526620">
        <ele>53.7</ele>
        <time>2020-08-08T14:56:04Z</time>
      </trkpt>
      <trkpt lat="41.1074680" lon="0.6526620">
        <ele>53.7</ele>
        <time>2020-08-08T14:56:06Z</time>
      </trkpt>
      <trkpt lat="41.1074680" lon="0.6526630">
        <ele>53.7</ele>
        <time>2020-08-08T14:56:07Z</time>
      </trkpt>
      <trkpt lat="41.1074680" lon="0.6526650">
        <ele>53.7</ele>
        <time>2020-08-08T14:56:09Z</time>
      </trkpt>
      <trkpt lat="41.1074680" lon="0.6526660">
        <ele>53.7</ele>
        <time>2020-08-08T14:56:10Z</time>
      </trkpt>
      <trkpt lat="41.1074670" lon="0.6526670">
        <ele>53.7</ele>
        <time>2020-08-08T14:56:11Z</time>
      </trkpt>
      <trkpt lat="41.1074670" lon="0.6526680">
        <ele>53.7</ele>
        <time>2020-08-08T14:56:12Z</time>
      </trkpt>
      <trkpt lat="41.1074690" lon="0.6526700">
        <ele>53.7</ele>
        <time>2020-08-08T14:56:14Z</time>
      </trkpt>
      <trkpt lat="41.1074560" lon="0.6526670">
        <ele>53.7</ele>
        <time>2020-08-08T15:05:28Z</time>
      </trkpt>
      <trkpt lat="41.1074560" lon="0.6526640">
        <ele>53.7</ele>
        <time>2020-08-08T15:05:30Z</time>
      </trkpt>
      <trkpt lat="41.1074560" lon="0.6526630">
        <ele>53.7</ele>
        <time>2020-08-08T15:05:32Z</time>
      </trkpt>
      <trkpt lat="41.1074570" lon="0.6526630">
        <ele>53.7</ele>
        <time>2020-08-08T15:05:33Z</time>
      </trkpt>
      <trkpt lat="41.1074550" lon="0.6526660">
        <ele>53.7</ele>
        <time>2020-08-08T15:05:34Z</time>
      </trkpt>
      <trkpt lat="41.1074540" lon="0.6526590">
        <ele>53.7</ele>
        <time>2020-08-08T15:05:35Z</time>
      </trkpt>
      <trkpt lat="41.1074500" lon="0.6526390">
        <ele>53.6</ele>
        <time>2020-08-08T15:05:37Z</time>
      </trkpt>
      <trkpt lat="41.1074520" lon="0.6526260">
        <ele>53.6</ele>
        <time>2020-08-08T15:05:39Z</time>
      </trkpt>
      <trkpt lat="41.1074540" lon="0.6526220">
        <ele>53.6</ele>
        <time>2020-08-08T15:05:40Z</time>
      </trkpt>
      <trkpt lat="41.1074550" lon="0.6526200">
        <ele>53.6</ele>
        <time>2020-08-08T15:05:41Z</time>
      </trkpt>
      <trkpt lat="41.1074570" lon="0.6526150">
        <ele>53.6</ele>
        <time>2020-08-08T15:05:43Z</time>
      </trkpt>
      <trkpt lat="41.1074580" lon="0.6526120">
        <ele>53.5</ele>
        <time>2020-08-08T15:05:44Z</time>
      </trkpt>
      <trkpt lat="41.1074590" lon="0.6526040">
        <ele>53.5</ele>
        <time>2020-08-08T15:05:46Z</time>
      </trkpt>
      <trkpt lat="41.1074570" lon="0.6525940">
        <ele>53.5</ele>
        <time>2020-08-08T15:05:48Z</time>
      </trkpt>
      <trkpt lat="41.1074510" lon="0.6525930">
        <ele>53.4</ele>
        <time>2020-08-08T15:05:50Z</time>
      </trkpt>
      <trkpt lat="41.1074500" lon="0.6525960">
        <ele>53.4</ele>
        <time>2020-08-08T15:05:51Z</time>
      </trkpt>
      <trkpt lat="41.1074490" lon="0.6525990">
        <ele>53.4</ele>
        <time>2020-08-08T15:05:52Z</time>
      </trkpt>
      <trkpt lat="41.1074470" lon="0.6526040">
        <ele>53.4</ele>
        <time>2020-08-08T15:05:54Z</time>
      </trkpt>
      <trkpt lat="41.1074500" lon="0.6525820">
        <ele>53.4</ele>
        <time>2020-08-08T15:11:14Z</time>
      </trkpt>
      <trkpt lat="41.1074520" lon="0.6525790">
        <ele>53.4</ele>
        <time>2020-08-08T15:11:15Z</time>
      </trkpt>
      <trkpt lat="41.1074490" lon="0.6525720">
        <ele>53.4</ele>
        <time>2020-08-08T15:11:17Z</time>
      </trkpt>
      <trkpt lat="41.1074450" lon="0.6525670">
        <ele>53.2</ele>
        <time>2020-08-08T15:11:18Z</time>
      </trkpt>
      <trkpt lat="41.1074470" lon="0.6525760">
        <ele>53.4</ele>
        <time>2020-08-08T15:11:20Z</time>
      </trkpt>
      <trkpt lat="41.1074460" lon="0.6525800">
        <ele>53.4</ele>
        <time>2020-08-08T15:11:21Z</time>
      </trkpt>
      <trkpt lat="41.1074450" lon="0.6525810">
        <ele>53.4</ele>
        <time>2020-08-08T15:11:23Z</time>
      </trkpt>
      <trkpt lat="41.1074440" lon="0.6525820">
        <ele>53.4</ele>
        <time>2020-08-08T15:11:25Z</time>
      </trkpt>
      <trkpt lat="41.1074430" lon="0.6525830">
        <ele>53.4</ele>
        <time>2020-08-08T15:11:26Z</time>
      </trkpt>
      <trkpt lat="41.1074430" lon="0.6525830">
        <ele>53.4</ele>
        <time>2020-08-08T15:11:27Z</time>
      </trkpt>
      <trkpt lat="41.1074430" lon="0.6525830">
        <ele>53.4</ele>
        <time>2020-08-08T15:11:28Z</time>
      </trkpt>
      <trkpt lat="41.1074770" lon="0.6525980">
        <ele>53.4</ele>
        <time>2020-08-08T15:27:21Z</time>
      </trkpt>
      <trkpt lat="41.1074800" lon="0.6525950">
        <ele>53.4</ele>
        <time>2020-08-08T15:27:22Z</time>
      </trkpt>
      <trkpt lat="41.1074810" lon="0.6525910">
        <ele>53.4</ele>
        <time>2020-08-08T15:27:23Z</time>
      </trkpt>
      <trkpt lat="41.1074830" lon="0.6525890">
        <ele>53.4</ele>
        <time>2020-08-08T15:27:24Z</time>
      </trkpt>
      <trkpt lat="41.1074840" lon="0.6525870">
        <ele>53.4</ele>
        <time>2020-08-08T15:27:25Z</time>
      </trkpt>
      <trkpt lat="41.1074840" lon="0.6525870">
        <ele>53.4</ele>
        <time>2020-08-08T15:27:26Z</time>
      </trkpt>
      <trkpt lat="41.1074840" lon="0.6525870">
        <ele>53.4</ele>
        <time>2020-08-08T15:27:28Z</time>
      </trkpt>
      <trkpt lat="41.1074830" lon="0.6525870">
        <ele>53.4</ele>
        <time>2020-08-08T15:27:29Z</time>
      </trkpt>
      <trkpt lat="41.1074830" lon="0.6525880">
        <ele>53.4</ele>
        <time>2020-08-08T15:27:30Z</time>
      </trkpt>
      <trkpt lat="41.1074830" lon="0.6525880">
        <ele>53.4</ele>
        <time>2020-08-08T15:27:32Z</time>
      </trkpt>
      <trkpt lat="41.1074830" lon="0.6525880">
        <ele>53.4</ele>
        <time>2020-08-08T15:27:34Z</time>
      </trkpt>
      <trkpt lat="41.1074520" lon="0.6525510">
        <ele>53.2</ele>
        <time>2020-08-08T15:57:32Z</time>
      </trkpt>
      <trkpt lat="41.1074500" lon="0.6525440">
        <ele>53.2</ele>
        <time>2020-08-08T15:57:33Z</time>
      </trkpt>
      <trkpt lat="41.1074460" lon="0.6525400">
        <ele>53.2</ele>
        <time>2020-08-08T15:57:35Z</time>
      </trkpt>
      <trkpt lat="41.1074440" lon="0.6525400">
        <ele>53.2</ele>
        <time>2020-08-08T15:57:36Z</time>
      </trkpt>
      <trkpt lat="41.1074390" lon="0.6525460">
        <ele>53.2</ele>
        <time>2020-08-08T15:57:38Z</time>
      </trkpt>
      <trkpt lat="41.1074350" lon="0.6525420">
        <ele>53.2</ele>
        <time>2020-08-08T15:57:40Z</time>
      </trkpt>
      <trkpt lat="41.1074330" lon="0.6525400">
        <ele>53.2</ele>
        <time>2020-08-08T15:57:41Z</time>
      </trkpt>
      <trkpt lat="41.1074320" lon="0.6525390">
        <ele>53.2</ele>
        <time>2020-08-08T15:57:42Z</time>
      </trkpt>
      <trkpt lat="41.1074310" lon="0.6525370">
        <ele>53.2</ele>
        <time>2020-08-08T15:57:44Z</time>
      </trkpt>
      <trkpt lat="41.1074300" lon="0.6525360">
        <ele>53.2</ele>
        <time>2020-08-08T15:57:45Z</time>
      </trkpt>
      <trkpt lat="41.1074280" lon="0.6525350">
        <ele>53.2</ele>
        <time>2020-08-08T15:57:47Z</time>
      </trkpt>
      <trkpt lat="41.1074260" lon="0.6525340">
        <ele>53.2</ele>
        <time>2020-08-08T15:57:49Z</time>
      </trkpt>
      <trkpt lat="41.1074250" lon="0.6525330">
        <ele>53.2</ele>
        <time>2020-08-08T15:57:51Z</time>
      </trkpt>
      <trkpt lat="41.1074250" lon="0.6525320">
        <ele>53.2</ele>
        <time>2020-08-08T15:57:53Z</time>
      </trkpt>
      <trkpt lat="41.1074250" lon="0.6525320">
        <ele>53.2</ele>
        <time>2020-08-08T15:57:54Z</time>
      </trkpt>
      <trkpt lat="41.1074260" lon="0.6525310">
        <ele>53.2</ele>
        <time>2020-08-08T15:57:56Z</time>
      </trkpt>
      <trkpt lat="41.1074250" lon="0.6525310">
        <ele>53.2</ele>
        <time>2020-08-08T15:57:57Z</time>
      </trkpt>
      <trkpt lat="41.1074250" lon="0.6525290">
        <ele>53.2</ele>
        <time>2020-08-08T15:57:59Z</time>
      </trkpt>
      <trkpt lat="41.1074240" lon="0.6525280">
        <ele>53.2</ele>
        <time>2020-08-08T15:58:00Z</time>
      </trkpt>
      <trkpt lat="41.1074240" lon="0.6525280">
        <ele>53.2</ele>
        <time>2020-08-08T15:58:01Z</time>
      </trkpt>
      <trkpt lat="41.1074240" lon="0.6525280">
        <ele>53.2</ele>
        <time>2020-08-08T15:58:03Z</time>
      </trkpt>
      <trkpt lat="41.1074230" lon="0.6525290">
        <ele>53.2</ele>
        <time>2020-08-08T15:58:04Z</time>
      </trkpt>
      <trkpt lat="41.1074230" lon="0.6525290">
        <ele>53.2</ele>
        <time>2020-08-08T15:58:05Z</time>
      </trkpt>
      <trkpt lat="41.1074230" lon="0.6525290">
        <ele>53.2</ele>
        <time>2020-08-08T15:58:06Z</time>
      </trkpt>
      <trkpt lat="41.1074230" lon="0.6525280">
        <ele>53.2</ele>
        <time>2020-08-08T15:58:08Z</time>
      </trkpt>
      <trkpt lat="41.1074230" lon="0.6525280">
        <ele>53.2</ele>
        <time>2020-08-08T15:58:09Z</time>
      </trkpt>
      <trkpt lat="41.1074230" lon="0.6525280">
        <ele>53.2</ele>
        <time>2020-08-08T15:58:11Z</time>
      </trkpt>
      <trkpt lat="41.1074220" lon="0.6525280">
        <ele>53.2</ele>
        <time>2020-08-08T15:58:12Z</time>
      </trkpt>
      <trkpt lat="41.1074220" lon="0.6525280">
        <ele>53.2</ele>
        <time>2020-08-08T15:58:13Z</time>
      </trkpt>
      <trkpt lat="41.1074220" lon="0.6525280">
        <ele>53.2</ele>
        <time>2020-08-08T15:58:14Z</time>
      </trkpt>
      <trkpt lat="41.1074220" lon="0.6525280">
        <ele>53.2</ele>
        <time>2020-08-08T15:58:15Z</time>
      </trkpt>
      <trkpt lat="41.1074220" lon="0.6525270">
        <ele>53.0</ele>
        <time>2020-08-08T15:58:16Z</time>
      </trkpt>
      <trkpt lat="41.1074220" lon="0.6525270">
        <ele>53.0</ele>
        <time>2020-08-08T15:58:17Z</time>
      </trkpt>
      <trkpt lat="41.1074130" lon="0.6525310">
        <ele>53.2</ele>
        <time>2020-08-08T15:58:19Z</time>
      </trkpt>
      <trkpt lat="41.1074070" lon="0.6525330">
        <ele>53.2</ele>
        <time>2020-08-08T15:58:20Z</time>
      </trkpt>
      <trkpt lat="41.1074030" lon="0.6525350">
        <ele>53.2</ele>
        <time>2020-08-08T15:58:21Z</time>
      </trkpt>
      <trkpt lat="41.1073990" lon="0.6525360">
        <ele>53.2</ele>
        <time>2020-08-08T15:58:23Z</time>
      </trkpt>
      <trkpt lat="41.1073980" lon="0.6525360">
        <ele>53.2</ele>
        <time>2020-08-08T15:58:24Z</time>
      </trkpt>
      <trkpt lat="41.1073990" lon="0.6525360">
        <ele>53.2</ele>
        <time>2020-08-08T15:58:25Z</time>
      </trkpt>
      <trkpt lat="41.1073990" lon="0.6525360">
        <ele>53.2</ele>
        <time>2020-08-08T15:58:26Z</time>
      </trkpt>
      <trkpt lat="41.1074000" lon="0.6525360">
        <ele>53.2</ele>
        <time>2020-08-08T15:58:28Z</time>
      </trkpt>
      <trkpt lat="41.1074000" lon="0.6525360">
        <ele>53.2</ele>
        <time>2020-08-08T15:58:30Z</time>
      </trkpt>
      <trkpt lat="41.1074000" lon="0.6525360">
        <ele>53.2</ele>
        <time>2020-08-08T15:58:31Z</time>
      </trkpt>
      <trkpt lat="41.1073720" lon="0.6526110">
        <ele>53.3</ele>
        <time>2020-08-08T16:07:00Z</time>
      </trkpt>
      <trkpt lat="41.1073620" lon="0.6526050">
        <ele>53.3</ele>
        <time>2020-08-08T16:07:01Z</time>
      </trkpt>
      <trkpt lat="41.1073530" lon="0.6525950">
        <ele>53.3</ele>
        <time>2020-08-08T16:07:02Z</time>
      </trkpt>
      <trkpt lat="41.1073430" lon="0.6525840">
        <ele>53.3</ele>
        <time>2020-08-08T16:07:04Z</time>
      </trkpt>
      <trkpt lat="41.1073370" lon="0.6525750">
        <ele>53.3</ele>
        <time>2020-08-08T16:07:05Z</time>
      </trkpt>
      <trkpt lat="41.1073300" lon="0.6525640">
        <ele>53.1</ele>
        <time>2020-08-08T16:07:06Z</time>
      </trkpt>
      <trkpt lat="41.1073180" lon="0.6525480">
        <ele>53.1</ele>
        <time>2020-08-08T16:07:08Z</time>
      </trkpt>
      <trkpt lat="41.1073050" lon="0.6525340">
        <ele>53.1</ele>
        <time>2020-08-08T16:07:10Z</time>
      </trkpt>
      <trkpt lat="41.1072930" lon="0.6525210">
        <ele>52.8</ele>
        <time>2020-08-08T16:07:11Z</time>
      </trkpt>
      <trkpt lat="41.1072800" lon="0.6525070">
        <ele>52.8</ele>
        <time>2020-08-08T16:07:12Z</time>
      </trkpt>
      <trkpt lat="41.1072680" lon="0.6525010">
        <ele>52.8</ele>
        <time>2020-08-08T16:07:14Z</time>
      </trkpt>
      <trkpt lat="41.1072540" lon="0.6524980">
        <ele>52.8</ele>
        <time>2020-08-08T16:07:15Z</time>
      </trkpt>
      <trkpt lat="41.1072370" lon="0.6524890">
        <ele>52.8</ele>
        <time>2020-08-08T16:07:17Z</time>
      </trkpt>
      <trkpt lat="41.1072240" lon="0.6524860">
        <ele>52.7</ele>
        <time>2020-08-08T16:07:18Z</time>
      </trkpt>
      <trkpt lat="41.1072160" lon="0.6524860">
        <ele>52.7</ele>
        <time>2020-08-08T16:07:19Z</time>
      </trkpt>
      <trkpt lat="41.1072100" lon="0.6524890">
        <ele>52.7</ele>
        <time>2020-08-08T16:07:20Z</time>
      </trkpt>
      <trkpt lat="41.1072020" lon="0.6524900">
        <ele>52.7</ele>
        <time>2020-08-08T16:07:22Z</time>
      </trkpt>
      <trkpt lat="41.1072000" lon="0.6524910">
        <ele>52.7</ele>
        <time>2020-08-08T16:07:23Z</time>
      </trkpt>
      <trkpt lat="41.1071980" lon="0.6524910">
        <ele>52.7</ele>
        <time>2020-08-08T16:07:25Z</time>
      </trkpt>
      <trkpt lat="41.1071970" lon="0.6524910">
        <ele>52.7</ele>
        <time>2020-08-08T16:07:26Z</time>
      </trkpt>
      <trkpt lat="41.1071980" lon="0.6524910">
        <ele>52.7</ele>
        <time>2020-08-08T16:07:28Z</time>
      </trkpt>
      <trkpt lat="41.1071990" lon="0.6524910">
        <ele>52.7</ele>
        <time>2020-08-08T16:07:29Z</time>
      </trkpt>
      <trkpt lat="41.1072000" lon="0.6524910">
        <ele>52.7</ele>
        <time>2020-08-08T16:07:32Z</time>
      </trkpt>
      <trkpt lat="41.1072020" lon="0.6524890">
        <ele>52.7</ele>
        <time>2020-08-08T16:07:33Z</time>
      </trkpt>
      <trkpt lat="41.1072030" lon="0.6524880">
        <ele>52.7</ele>
        <time>2020-08-08T16:07:34Z</time>
      </trkpt>
      <trkpt lat="41.1072060" lon="0.6524850">
        <ele>52.7</ele>
        <time>2020-08-08T16:07:35Z</time>
      </trkpt>
      <trkpt lat="41.1072060" lon="0.6524810">
        <ele>52.5</ele>
        <time>2020-08-08T16:07:36Z</time>
      </trkpt>
      <trkpt lat="41.1071480" lon="0.6525020">
        <ele>52.7</ele>
        <time>2020-08-08T16:08:35Z</time>
      </trkpt>
      <trkpt lat="41.1071550" lon="0.6524960">
        <ele>52.7</ele>
        <time>2020-08-08T16:08:36Z</time>
      </trkpt>
      <trkpt lat="41.1071630" lon="0.6524900">
        <ele>52.7</ele>
        <time>2020-08-08T16:08:38Z</time>
      </trkpt>
      <trkpt lat="41.1071640" lon="0.6524860">
        <ele>52.7</ele>
        <time>2020-08-08T16:08:39Z</time>
      </trkpt>
      <trkpt lat="41.1071680" lon="0.6524830">
        <ele>52.5</ele>
        <time>2020-08-08T16:08:41Z</time>
      </trkpt>
      <trkpt lat="41.1071670" lon="0.6524830">
        <ele>52.5</ele>
        <time>2020-08-08T16:08:42Z</time>
      </trkpt>
      <trkpt lat="41.1071660" lon="0.6524850">
        <ele>52.7</ele>
        <time>2020-08-08T16:08:44Z</time>
      </trkpt>
      <trkpt lat="41.1071650" lon="0.6524850">
        <ele>52.7</ele>
        <time>2020-08-08T16:08:45Z</time>
      </trkpt>
      <trkpt lat="41.1071650" lon="0.6524860">
        <ele>52.7</ele>
        <time>2020-08-08T16:08:46Z</time>
      </trkpt>
      <trkpt lat="41.1071640" lon="0.6524860">
        <ele>52.7</ele>
        <time>2020-08-08T16:08:47Z</time>
      </trkpt>
      <trkpt lat="41.1071640" lon="0.6524860">
        <ele>52.7</ele>
        <time>2020-08-08T16:08:49Z</time>
      </trkpt>
      <trkpt lat="41.1072100" lon="0.6524920">
        <ele>52.7</ele>
        <time>2020-08-08T16:12:11Z</time>
      </trkpt>
      <trkpt lat="41.1072220" lon="0.6524950">
        <ele>52.7</ele>
        <time>2020-08-08T16:12:13Z</time>
      </trkpt>
      <trkpt lat="41.1072230" lon="0.6524960">
        <ele>52.7</ele>
        <time>2020-08-08T16:12:14Z</time>
      </trkpt>
      <trkpt lat="41.1072230" lon="0.6524960">
        <ele>52.7</ele>
        <time>2020-08-08T16:12:15Z</time>
      </trkpt>
      <trkpt lat="41.1072220" lon="0.6524960">
        <ele>52.7</ele>
        <time>2020-08-08T16:12:17Z</time>
      </trkpt>
      <trkpt lat="41.1072220" lon="0.6524960">
        <ele>52.7</ele>
        <time>2020-08-08T16:12:18Z</time>
      </trkpt>
      <trkpt lat="41.1072210" lon="0.6524960">
        <ele>52.7</ele>
        <time>2020-08-08T16:12:20Z</time>
      </trkpt>
      <trkpt lat="41.1072210" lon="0.6524960">
        <ele>52.7</ele>
        <time>2020-08-08T16:12:21Z</time>
      </trkpt>
      <trkpt lat="41.1072210" lon="0.6524960">
        <ele>52.7</ele>
        <time>2020-08-08T16:12:23Z</time>
      </trkpt>
      <trkpt lat="41.1072210" lon="0.6524960">
        <ele>52.7</ele>
        <time>2020-08-08T16:12:24Z</time>
      </trkpt>
      <trkpt lat="41.1072420" lon="0.6525000">
        <ele>52.8</ele>
        <time>2020-08-08T16:13:06Z</time>
      </trkpt>
      <trkpt lat="41.1072430" lon="0.6525020">
        <ele>52.8</ele>
        <time>2020-08-08T16:13:07Z</time>
      </trkpt>
      <trkpt lat="41.1072420" lon="0.6525030">
        <ele>52.8</ele>
        <time>2020-08-08T16:13:09Z</time>
      </trkpt>
      <trkpt lat="41.1072410" lon="0.6525030">
        <ele>52.8</ele>
        <time>2020-08-08T16:13:10Z</time>
      </trkpt>
      <trkpt lat="41.1072420" lon="0.6525010">
        <ele>52.8</ele>
        <time>2020-08-08T16:13:12Z</time>
      </trkpt>
      <trkpt lat="41.1072440" lon="0.6525000">
        <ele>52.8</ele>
        <time>2020-08-08T16:13:14Z</time>
      </trkpt>
      <trkpt lat="41.1072440" lon="0.6524990">
        <ele>52.8</ele>
        <time>2020-08-08T16:13:15Z</time>
      </trkpt>
      <trkpt lat="41.1072440" lon="0.6524990">
        <ele>52.8</ele>
        <time>2020-08-08T16:13:18Z</time>
      </trkpt>
      <trkpt lat="41.1072750" lon="0.6525200">
        <ele>52.8</ele>
        <time>2020-08-08T16:13:28Z</time>
      </trkpt>
      <trkpt lat="41.1072750" lon="0.6525220">
        <ele>52.8</ele>
        <time>2020-08-08T16:13:29Z</time>
      </trkpt>
      <trkpt lat="41.1072730" lon="0.6525270">
        <ele>52.8</ele>
        <time>2020-08-08T16:13:31Z</time>
      </trkpt>
      <trkpt lat="41.1072710" lon="0.6525320">
        <ele>53.0</ele>
        <time>2020-08-08T16:13:32Z</time>
      </trkpt>
      <trkpt lat="41.1072720" lon="0.6525340">
        <ele>53.0</ele>
        <time>2020-08-08T16:13:33Z</time>
      </trkpt>
      <trkpt lat="41.1072700" lon="0.6525430">
        <ele>53.0</ele>
        <time>2020-08-08T16:13:35Z</time>
      </trkpt>
      <trkpt lat="41.1072670" lon="0.6525520">
        <ele>53.0</ele>
        <time>2020-08-08T16:13:36Z</time>
      </trkpt>
      <trkpt lat="41.1072670" lon="0.6525590">
        <ele>53.0</ele>
        <time>2020-08-08T16:13:38Z</time>
      </trkpt>
      <trkpt lat="41.1072640" lon="0.6525660">
        <ele>53.0</ele>
        <time>2020-08-08T16:13:40Z</time>
      </trkpt>
      <trkpt lat="41.1072650" lon="0.6525680">
        <ele>53.0</ele>
        <time>2020-08-08T16:13:42Z</time>
      </trkpt>
      <trkpt lat="41.1072650" lon="0.6525690">
        <ele>53.0</ele>
        <time>2020-08-08T16:13:43Z</time>
      </trkpt>
      <trkpt lat="41.1072640" lon="0.6525700">
        <ele>53.0</ele>
        <time>2020-08-08T16:13:44Z</time>
      </trkpt>
      <trkpt lat="41.1072640" lon="0.6525700">
        <ele>53.0</ele>
        <time>2020-08-08T16:13:46Z</time>
      </trkpt>
      <trkpt lat="41.1072660" lon="0.6525710">
        <ele>53.2</ele>
        <time>2020-08-08T16:13:48Z</time>
      </trkpt>
      <trkpt lat="41.1073220" lon="0.6525890">
        <ele>53.2</ele>
        <time>2020-08-08T16:14:38Z</time>
      </trkpt>
      <trkpt lat="41.1073270" lon="0.6525850">
        <ele>53.2</ele>
        <time>2020-08-08T16:14:39Z</time>
      </trkpt>
      <trkpt lat="41.1073310" lon="0.6525810">
        <ele>53.3</ele>
        <time>2020-08-08T16:14:40Z</time>
      </trkpt>
      <trkpt lat="41.1073390" lon="0.6525780">
        <ele>53.3</ele>
        <time>2020-08-08T16:14:42Z</time>
      </trkpt>
      <trkpt lat="41.1073460" lon="0.6525700">
        <ele>53.1</ele>
        <time>2020-08-08T16:14:43Z</time>
      </trkpt>
      <trkpt lat="41.1073600" lon="0.6525650">
        <ele>53.1</ele>
        <time>2020-08-08T16:14:45Z</time>
      </trkpt>
      <trkpt lat="41.1073670" lon="0.6525670">
        <ele>53.1</ele>
        <time>2020-08-08T16:14:46Z</time>
      </trkpt>
      <trkpt lat="41.1073750" lon="0.6525680">
        <ele>53.1</ele>
        <time>2020-08-08T16:14:47Z</time>
      </trkpt>
      <trkpt lat="41.1073820" lon="0.6525690">
        <ele>53.1</ele>
        <time>2020-08-08T16:14:49Z</time>
      </trkpt>
      <trkpt lat="41.1073890" lon="0.6525710">
        <ele>53.3</ele>
        <time>2020-08-08T16:14:50Z</time>
      </trkpt>
      <trkpt lat="41.1073960" lon="0.6525720">
        <ele>53.3</ele>
        <time>2020-08-08T16:14:51Z</time>
      </trkpt>
      <trkpt lat="41.1074030" lon="0.6525730">
        <ele>53.3</ele>
        <time>2020-08-08T16:14:52Z</time>
      </trkpt>
      <trkpt lat="41.1074100" lon="0.6525750">
        <ele>53.3</ele>
        <time>2020-08-08T16:14:53Z</time>
      </trkpt>
      <trkpt lat="41.1074180" lon="0.6525760">
        <ele>53.3</ele>
        <time>2020-08-08T16:14:54Z</time>
      </trkpt>
      <trkpt lat="41.1074250" lon="0.6525770">
        <ele>53.4</ele>
        <time>2020-08-08T16:14:55Z</time>
      </trkpt>
      <trkpt lat="41.1074320" lon="0.6525790">
        <ele>53.4</ele>
        <time>2020-08-08T16:14:57Z</time>
      </trkpt>
      <trkpt lat="41.1074390" lon="0.6525800">
        <ele>53.4</ele>
        <time>2020-08-08T16:14:59Z</time>
      </trkpt>
      <trkpt lat="41.1074460" lon="0.6525810">
        <ele>53.4</ele>
        <time>2020-08-08T16:15:00Z</time>
      </trkpt>
      <trkpt lat="41.1074530" lon="0.6525830">
        <ele>53.4</ele>
        <time>2020-08-08T16:15:02Z</time>
      </trkpt>
      <trkpt lat="41.1074610" lon="0.6525840">
        <ele>53.4</ele>
        <time>2020-08-08T16:15:04Z</time>
      </trkpt>
      <trkpt lat="41.1074680" lon="0.6525850">
        <ele>53.4</ele>
        <time>2020-08-08T16:15:14Z</time>
      </trkpt>
      <trkpt lat="41.1074750" lon="0.6525870">
        <ele>53.4</ele>
        <time>2020-08-08T16:15:15Z</time>
      </trkpt>
      <trkpt lat="41.1074820" lon="0.6525880">
        <ele>53.4</ele>
        <time>2020-08-08T16:15:16Z</time>
      </trkpt>
      <trkpt lat="41.1074950" lon="0.6525900">
        <ele>53.4</ele>
        <time>2020-08-08T16:15:17Z</time>
      </trkpt>
      <trkpt lat="41.1074650" lon="0.6525840">
        <ele>53.4</ele>
        <time>2020-08-08T16:15:18Z</time>
      </trkpt>
      <trkpt lat="41.1074510" lon="0.6525810">
        <ele>53.4</ele>
        <time>2020-08-08T16:15:20Z</time>
      </trkpt>
      <trkpt lat="41.1074470" lon="0.6525810">
        <ele>53.4</ele>
        <time>2020-08-08T16:15:21Z</time>
      </trkpt>
      <trkpt lat="41.1074420" lon="0.6525790">
        <ele>53.4</ele>
        <time>2020-08-08T16:15:22Z</time>
      </trkpt>
      <trkpt lat="41.1074400" lon="0.6525790">
        <ele>53.4</ele>
        <time>2020-08-08T16:15:23Z</time>
      </trkpt>
      <trkpt lat="41.1074370" lon="0.6525780">
        <ele>53.4</ele>
        <time>2020-08-08T16:15:25Z</time>
      </trkpt>
      <trkpt lat="41.1074350" lon="0.6525780">
        <ele>53.4</ele>
        <time>2020-08-08T16:15:26Z</time>
      </trkpt>
      <trkpt lat="41.1074330" lon="0.6525780">
        <ele>53.4</ele>
        <time>2020-08-08T16:15:28Z</time>
      </trkpt>
      <trkpt lat="41.1074840" lon="0.6525910">
        <ele>53.4</ele>
        <time>2020-08-08T16:15:40Z</time>
      </trkpt>
      <trkpt lat="41.1074960" lon="0.6525940">
        <ele>53.4</ele>
        <time>2020-08-08T16:15:42Z</time>
      </trkpt>
      <trkpt lat="41.1074970" lon="0.6525940">
        <ele>53.4</ele>
        <time>2020-08-08T16:15:43Z</time>
      </trkpt>
      <trkpt lat="41.1074960" lon="0.6525930">
        <ele>53.4</ele>
        <time>2020-08-08T16:15:45Z</time>
      </trkpt>
      <trkpt lat="41.1074950" lon="0.6525920">
        <ele>53.4</ele>
        <time>2020-08-08T16:15:46Z</time>
      </trkpt>
      <trkpt lat="41.1074940" lon="0.6525920">
        <ele>53.4</ele>
        <time>2020-08-08T16:15:47Z</time>
      </trkpt>
      <trkpt lat="41.1074940" lon="0.6525910">
        <ele>53.4</ele>
        <time>2020-08-08T16:15:48Z</time>
      </trkpt>
      <trkpt lat="41.1074930" lon="0.6525910">
        <ele>53.4</ele>
        <time>2020-08-08T16:15:50Z</time>
      </trkpt>
      <trkpt lat="41.1074920" lon="0.6525910">
        <ele>53.4</ele>
        <time>2020-08-08T16:15:51Z</time>
      </trkpt>
      <trkpt lat="41.1074920" lon="0.6525920">
        <ele>53.4</ele>
        <time>2020-08-08T16:15:53Z</time>
      </trkpt>
      <trkpt lat="41.1074500" lon="0.6526110">
        <ele>53.4</ele>
        <time>2020-08-08T16:16:51Z</time>
      </trkpt>
      <trkpt lat="41.1074330" lon="0.6526170">
        <ele>53.5</ele>
        <time>2020-08-08T16:16:53Z</time>
      </trkpt>
      <trkpt lat="41.1074290" lon="0.6526170">
        <ele>53.5</ele>
        <time>2020-08-08T16:16:54Z</time>
      </trkpt>
      <trkpt lat="41.1074180" lon="0.6526190">
        <ele>53.5</ele>
        <time>2020-08-08T16:16:56Z</time>
      </trkpt>
      <trkpt lat="41.1074190" lon="0.6526210">
        <ele>53.5</ele>
        <time>2020-08-08T16:16:58Z</time>
      </trkpt>
      <trkpt lat="41.1074190" lon="0.6526220">
        <ele>53.5</ele>
        <time>2020-08-08T16:16:59Z</time>
      </trkpt>
      <trkpt lat="41.1074190" lon="0.6526240">
        <ele>53.5</ele>
        <time>2020-08-08T16:17:01Z</time>
      </trkpt>
      <trkpt lat="41.1074190" lon="0.6526240">
        <ele>53.5</ele>
        <time>2020-08-08T16:17:02Z</time>
      </trkpt>
      <trkpt lat="41.1074200" lon="0.6526250">
        <ele>53.5</ele>
        <time>2020-08-08T16:17:04Z</time>
      </trkpt>
      <trkpt lat="41.1073690" lon="0.6526340">
        <ele>53.4</ele>
        <time>2020-08-08T16:17:14Z</time>
      </trkpt>
      <trkpt lat="41.1073380" lon="0.6526390">
        <ele>53.4</ele>
        <time>2020-08-08T16:17:15Z</time>
      </trkpt>
      <trkpt lat="41.1073020" lon="0.6526460">
        <ele>53.4</ele>
        <time>2020-08-08T16:17:16Z</time>
      </trkpt>
      <trkpt lat="41.1072930" lon="0.6526470">
        <ele>53.4</ele>
        <time>2020-08-08T16:17:17Z</time>
      </trkpt>
      <trkpt lat="41.1072810" lon="0.6526500">
        <ele>53.4</ele>
        <time>2020-08-08T16:17:19Z</time>
      </trkpt>
      <trkpt lat="41.1072820" lon="0.6526490">
        <ele>53.4</ele>
        <time>2020-08-08T16:17:20Z</time>
      </trkpt>
      <trkpt lat="41.1072860" lon="0.6526490">
        <ele>53.4</ele>
        <time>2020-08-08T16:17:22Z</time>
      </trkpt>
      <trkpt lat="41.1072900" lon="0.6526480">
        <ele>53.4</ele>
        <time>2020-08-08T16:17:23Z</time>
      </trkpt>
      <trkpt lat="41.1072930" lon="0.6526480">
        <ele>53.4</ele>
        <time>2020-08-08T16:17:24Z</time>
      </trkpt>
      <trkpt lat="41.1072950" lon="0.6526480">
        <ele>53.4</ele>
        <time>2020-08-08T16:17:25Z</time>
      </trkpt>
      <trkpt lat="41.1072970" lon="0.6526480">
        <ele>53.4</ele>
        <time>2020-08-08T16:17:27Z</time>
      </trkpt>
      <trkpt lat="41.1072980" lon="0.6526490">
        <ele>53.4</ele>
        <time>2020-08-08T16:17:29Z</time>
      </trkpt>
      <trkpt lat="41.1072980" lon="0.6526490">
        <ele>53.4</ele>
        <time>2020-08-08T16:17:30Z</time>
      </trkpt>
      <trkpt lat="41.1072980" lon="0.6526490">
        <ele>53.4</ele>
        <time>2020-08-08T16:17:32Z</time>
      </trkpt>
      <trkpt lat="41.1073330" lon="0.6526520">
        <ele>53.4</ele>
        <time>2020-08-08T16:18:59Z</time>
      </trkpt>
      <trkpt lat="41.1073440" lon="0.6526530">
        <ele>53.4</ele>
        <time>2020-08-08T16:19:00Z</time>
      </trkpt>
      <trkpt lat="41.1073410" lon="0.6526640">
        <ele>53.5</ele>
        <time>2020-08-08T16:19:01Z</time>
      </trkpt>
      <trkpt lat="41.1073290" lon="0.6526790">
        <ele>53.5</ele>
        <time>2020-08-08T16:19:03Z</time>
      </trkpt>
      <trkpt lat="41.1073310" lon="0.6526830">
        <ele>53.5</ele>
        <time>2020-08-08T16:19:05Z</time>
      </trkpt>
      <trkpt lat="41.1073350" lon="0.6526890">
        <ele>53.5</ele>
        <time>2020-08-08T16:19:06Z</time>
      </trkpt>
      <trkpt lat="41.1073520" lon="0.6526810">
        <ele>53.5</ele>
        <time>2020-08-08T16:19:07Z</time>
      </trkpt>
      <trkpt lat="41.1073630" lon="0.6526750">
        <ele>53.6</ele>
        <time>2020-08-08T16:19:08Z</time>
      </trkpt>
      <trkpt lat="41.1073830" lon="0.6526620">
        <ele>53.6</ele>
        <time>2020-08-08T16:19:10Z</time>
      </trkpt>
      <trkpt lat="41.1073980" lon="0.6526460">
        <ele>53.5</ele>
        <time>2020-08-08T16:19:12Z</time>
      </trkpt>
      <trkpt lat="41.1074030" lon="0.6526430">
        <ele>53.5</ele>
        <time>2020-08-08T16:19:13Z</time>
      </trkpt>
      <trkpt lat="41.1074070" lon="0.6526400">
        <ele>53.5</ele>
        <time>2020-08-08T16:19:14Z</time>
      </trkpt>
      <trkpt lat="41.1074100" lon="0.6526430">
        <ele>53.5</ele>
        <time>2020-08-08T16:19:15Z</time>
      </trkpt>
      <trkpt lat="41.1074100" lon="0.6526480">
        <ele>53.5</ele>
        <time>2020-08-08T16:19:16Z</time>
      </trkpt>
      <trkpt lat="41.1074160" lon="0.6526580">
        <ele>53.6</ele>
        <time>2020-08-08T16:19:18Z</time>
      </trkpt>
      <trkpt lat="41.1074190" lon="0.6526620">
        <ele>53.6</ele>
        <time>2020-08-08T16:19:19Z</time>
      </trkpt>
      <trkpt lat="41.1074190" lon="0.6526590">
        <ele>53.6</ele>
        <time>2020-08-08T16:19:20Z</time>
      </trkpt>
      <trkpt lat="41.1074210" lon="0.6526550">
        <ele>53.5</ele>
        <time>2020-08-08T16:19:21Z</time>
      </trkpt>
      <trkpt lat="41.1074200" lon="0.6526370">
        <ele>53.5</ele>
        <time>2020-08-08T16:19:23Z</time>
      </trkpt>
      <trkpt lat="41.1074220" lon="0.6526280">
        <ele>53.5</ele>
        <time>2020-08-08T16:19:25Z</time>
      </trkpt>
      <trkpt lat="41.1074230" lon="0.6526210">
        <ele>53.5</ele>
        <time>2020-08-08T16:19:26Z</time>
      </trkpt>
      <trkpt lat="41.1074230" lon="0.6526210">
        <ele>53.5</ele>
        <time>2020-08-08T16:19:31Z</time>
      </trkpt>
      <trkpt lat="41.1074570" lon="0.6525700">
        <ele>53.2</ele>
        <time>2020-08-08T16:19:33Z</time>
      </trkpt>
      <trkpt lat="41.1074500" lon="0.6525630">
        <ele>53.2</ele>
        <time>2020-08-08T16:19:35Z</time>
      </trkpt>
      <trkpt lat="41.1074460" lon="0.6525640">
        <ele>53.2</ele>
        <time>2020-08-08T16:19:37Z</time>
      </trkpt>
      <trkpt lat="41.1074460" lon="0.6525660">
        <ele>53.2</ele>
        <time>2020-08-08T16:19:38Z</time>
      </trkpt>
      <trkpt lat="41.1074460" lon="0.6525700">
        <ele>53.2</ele>
        <time>2020-08-08T16:19:40Z</time>
      </trkpt>
      <trkpt lat="41.1074470" lon="0.6525720">
        <ele>53.3</ele>
        <time>2020-08-08T16:19:41Z</time>
      </trkpt>
      <trkpt lat="41.1074480" lon="0.6525780">
        <ele>53.3</ele>
        <time>2020-08-08T16:19:43Z</time>
      </trkpt>
      <trkpt lat="41.1074520" lon="0.6525810">
        <ele>53.3</ele>
        <time>2020-08-08T16:19:45Z</time>
      </trkpt>
      <trkpt lat="41.1074230" lon="0.6526000">
        <ele>53.3</ele>
        <time>2020-08-08T16:22:17Z</time>
      </trkpt>
      <trkpt lat="41.1074120" lon="0.6526070">
        <ele>53.3</ele>
        <time>2020-08-08T16:22:18Z</time>
      </trkpt>
      <trkpt lat="41.1073910" lon="0.6526130">
        <ele>53.3</ele>
        <time>2020-08-08T16:22:20Z</time>
      </trkpt>
      <trkpt lat="41.1073850" lon="0.6526160">
        <ele>53.4</ele>
        <time>2020-08-08T16:22:21Z</time>
      </trkpt>
      <trkpt lat="41.1073800" lon="0.6526210">
        <ele>53.4</ele>
        <time>2020-08-08T16:22:23Z</time>
      </trkpt>
      <trkpt lat="41.1073770" lon="0.6526240">
        <ele>53.4</ele>
        <time>2020-08-08T16:22:25Z</time>
      </trkpt>
      <trkpt lat="41.1073760" lon="0.6526270">
        <ele>53.4</ele>
        <time>2020-08-08T16:22:27Z</time>
      </trkpt>
      <trkpt lat="41.1073750" lon="0.6526290">
        <ele>53.4</ele>
        <time>2020-08-08T16:22:29Z</time>
      </trkpt>
      <trkpt lat="41.1073750" lon="0.6526300">
        <ele>53.4</ele>
        <time>2020-08-08T16:22:30Z</time>
      </trkpt>
      <trkpt lat="41.1073760" lon="0.6526310">
        <ele>53.4</ele>
        <time>2020-08-08T16:22:32Z</time>
      </trkpt>
      <trkpt lat="41.1073740" lon="0.6526340">
        <ele>53.4</ele>
        <time>2020-08-08T16:22:34Z</time>
      </trkpt>
      <trkpt lat="41.1073720" lon="0.6526410">
        <ele>53.4</ele>
        <time>2020-08-08T16:22:35Z</time>
      </trkpt>
      <trkpt lat="41.1073700" lon="0.6526610">
        <ele>53.6</ele>
        <time>2020-08-08T16:22:37Z</time>
      </trkpt>
      <trkpt lat="41.1073670" lon="0.6526610">
        <ele>53.6</ele>
        <time>2020-08-08T16:22:38Z</time>
      </trkpt>
      <trkpt lat="41.1073630" lon="0.6526610">
        <ele>53.6</ele>
        <time>2020-08-08T16:22:40Z</time>
      </trkpt>
      <trkpt lat="41.1073600" lon="0.6526610">
        <ele>53.6</ele>
        <time>2020-08-08T16:22:42Z</time>
      </trkpt>
      <trkpt lat="41.1073560" lon="0.6526610">
        <ele>53.5</ele>
        <time>2020-08-08T16:22:43Z</time>
      </trkpt>
      <trkpt lat="41.1073530" lon="0.6526610">
        <ele>53.5</ele>
        <time>2020-08-08T16:22:45Z</time>
      </trkpt>
      <trkpt lat="41.1073490" lon="0.6526610">
        <ele>53.5</ele>
        <time>2020-08-08T16:22:46Z</time>
      </trkpt>
      <trkpt lat="41.1073450" lon="0.6526610">
        <ele>53.5</ele>
        <time>2020-08-08T16:22:47Z</time>
      </trkpt>
      <trkpt lat="41.1073420" lon="0.6526610">
        <ele>53.5</ele>
        <time>2020-08-08T16:22:49Z</time>
      </trkpt>
      <trkpt lat="41.1073380" lon="0.6526610">
        <ele>53.5</ele>
        <time>2020-08-08T16:22:51Z</time>
      </trkpt>
      <trkpt lat="41.1073350" lon="0.6526610">
        <ele>53.5</ele>
        <time>2020-08-08T16:23:09Z</time>
      </trkpt>
      <trkpt lat="41.1073310" lon="0.6526610">
        <ele>53.5</ele>
        <time>2020-08-08T16:23:10Z</time>
      </trkpt>
      <trkpt lat="41.1073280" lon="0.6526610">
        <ele>53.5</ele>
        <time>2020-08-08T16:23:11Z</time>
      </trkpt>
      <trkpt lat="41.1073240" lon="0.6526610">
        <ele>53.5</ele>
        <time>2020-08-08T16:23:12Z</time>
      </trkpt>
      <trkpt lat="41.1073050" lon="0.6526240">
        <ele>53.4</ele>
        <time>2020-08-08T16:23:14Z</time>
      </trkpt>
      <trkpt lat="41.1073010" lon="0.6526200">
        <ele>53.4</ele>
        <time>2020-08-08T16:23:16Z</time>
      </trkpt>
      <trkpt lat="41.1073090" lon="0.6526350">
        <ele>53.4</ele>
        <time>2020-08-08T16:23:17Z</time>
      </trkpt>
      <trkpt lat="41.1073230" lon="0.6526270">
        <ele>53.4</ele>
        <time>2020-08-08T16:23:19Z</time>
      </trkpt>
      <trkpt lat="41.1073330" lon="0.6526030">
        <ele>53.2</ele>
        <time>2020-08-08T16:23:20Z</time>
      </trkpt>
      <trkpt lat="41.1073280" lon="0.6525600">
        <ele>53.0</ele>
        <time>2020-08-08T16:23:21Z</time>
      </trkpt>
      <trkpt lat="41.1073110" lon="0.6525260">
        <ele>52.8</ele>
        <time>2020-08-08T16:23:22Z</time>
      </trkpt>
      <trkpt lat="41.1072870" lon="0.6524890">
        <ele>52.7</ele>
        <time>2020-08-08T16:23:24Z</time>
      </trkpt>
      <trkpt lat="41.1072540" lon="0.6524180">
        <ele>52.2</ele>
        <time>2020-08-08T16:23:25Z</time>
      </trkpt>
      <trkpt lat="41.1072120" lon="0.6523390">
        <ele>51.7</ele>
        <time>2020-08-08T16:23:27Z</time>
      </trkpt>
      <trkpt lat="41.1071840" lon="0.6522900">
        <ele>51.5</ele>
        <time>2020-08-08T16:23:28Z</time>
      </trkpt>
      <trkpt lat="41.1071620" lon="0.6522620">
        <ele>51.2</ele>
        <time>2020-08-08T16:23:29Z</time>
      </trkpt>
      <trkpt lat="41.1071130" lon="0.6522260">
        <ele>50.9</ele>
        <time>2020-08-08T16:23:31Z</time>
      </trkpt>
      <trkpt lat="41.1070730" lon="0.6522120">
        <ele>50.9</ele>
        <time>2020-08-08T16:23:32Z</time>
      </trkpt>
      <trkpt lat="41.1070380" lon="0.6522130">
        <ele>50.9</ele>
        <time>2020-08-08T16:23:33Z</time>
      </trkpt>
      <trkpt lat="41.1070040" lon="0.6522240">
        <ele>50.8</ele>
        <time>2020-08-08T16:23:34Z</time>
      </trkpt>
      <trkpt lat="41.1069730" lon="0.6522410">
        <ele>51.1</ele>
        <time>2020-08-08T16:23:35Z</time>
      </trkpt>
      <trkpt lat="41.1069270" lon="0.6522690">
        <ele>51.0</ele>
        <time>2020-08-08T16:23:37Z</time>
      </trkpt>
      <trkpt lat="41.1068890" lon="0.6522950">
        <ele>51.1</ele>
        <time>2020-08-08T16:23:38Z</time>
      </trkpt>
      <trkpt lat="41.1068450" lon="0.6523220">
        <ele>51.3</ele>
        <time>2020-08-08T16:23:39Z</time>
      </trkpt>
      <trkpt lat="41.1067720" lon="0.6523780">
        <ele>51.4</ele>
        <time>2020-08-08T16:23:40Z</time>
      </trkpt>
      <trkpt lat="41.1067190" lon="0.6524150">
        <ele>51.5</ele>
        <time>2020-08-08T16:23:41Z</time>
      </trkpt>
      <trkpt lat="41.1066680" lon="0.6524540">
        <ele>51.6</ele>
        <time>2020-08-08T16:23:42Z</time>
      </trkpt>
      <trkpt lat="41.1066150" lon="0.6524830">
        <ele>51.5</ele>
        <time>2020-08-08T16:23:43Z</time>
      </trkpt>
      <trkpt lat="41.1065620" lon="0.6525120">
        <ele>51.4</ele>
        <time>2020-08-08T16:23:44Z</time>
      </trkpt>
      <trkpt lat="41.1065170" lon="0.6525380">
        <ele>51.4</ele>
        <time>2020-08-08T16:23:45Z</time>
      </trkpt>
      <trkpt lat="41.1064270" lon="0.6526040">
        <ele>51.2</ele>
        <time>2020-08-08T16:23:47Z</time>
      </trkpt>
      <trkpt lat="41.1063820" lon="0.6526350">
        <ele>51.2</ele>
        <time>2020-08-08T16:23:48Z</time>
      </trkpt>
      <trkpt lat="41.1063440" lon="0.6526670">
        <ele>51.2</ele>
        <time>2020-08-08T16:23:49Z</time>
      </trkpt>
      <trkpt lat="41.1063040" lon="0.6527010">
        <ele>51.1</ele>
        <time>2020-08-08T16:23:50Z</time>
      </trkpt>
      <trkpt lat="41.1062630" lon="0.6527340">
        <ele>51.1</ele>
        <time>2020-08-08T16:23:51Z</time>
      </trkpt>
      <trkpt lat="41.1062260" lon="0.6527670">
        <ele>51.1</ele>
        <time>2020-08-08T16:23:52Z</time>
      </trkpt>
      <trkpt lat="41.1061570" lon="0.6528250">
        <ele>51.1</ele>
        <time>2020-08-08T16:23:54Z</time>
      </trkpt>
      <trkpt lat="41.1061140" lon="0.6528600">
        <ele>51.1</ele>
        <time>2020-08-08T16:23:55Z</time>
      </trkpt>
      <trkpt lat="41.1060800" lon="0.6528850">
        <ele>51.0</ele>
        <time>2020-08-08T16:23:56Z</time>
      </trkpt>
      <trkpt lat="41.1060140" lon="0.6529350">
        <ele>51.0</ele>
        <time>2020-08-08T16:23:58Z</time>
      </trkpt>
      <trkpt lat="41.1059440" lon="0.6529950">
        <ele>51.0</ele>
        <time>2020-08-08T16:24:00Z</time>
      </trkpt>
      <trkpt lat="41.1059130" lon="0.6530350">
        <ele>51.0</ele>
        <time>2020-08-08T16:24:01Z</time>
      </trkpt>
      <trkpt lat="41.1058530" lon="0.6531240">
        <ele>51.2</ele>
        <time>2020-08-08T16:24:03Z</time>
      </trkpt>
      <trkpt lat="41.1058240" lon="0.6531660">
        <ele>51.2</ele>
        <time>2020-08-08T16:24:04Z</time>
      </trkpt>
      <trkpt lat="41.1057760" lon="0.6532390">
        <ele>51.3</ele>
        <time>2020-08-08T16:24:06Z</time>
      </trkpt>
      <trkpt lat="41.1057520" lon="0.6532810">
        <ele>51.4</ele>
        <time>2020-08-08T16:24:07Z</time>
      </trkpt>
      <trkpt lat="41.1057090" lon="0.6533610">
        <ele>51.6</ele>
        <time>2020-08-08T16:24:09Z</time>
      </trkpt>
      <trkpt lat="41.1056850" lon="0.6534060">
        <ele>51.6</ele>
        <time>2020-08-08T16:24:10Z</time>
      </trkpt>
      <trkpt lat="41.1056660" lon="0.6534450">
        <ele>51.7</ele>
        <time>2020-08-08T16:24:11Z</time>
      </trkpt>
      <trkpt lat="41.1056250" lon="0.6535220">
        <ele>51.9</ele>
        <time>2020-08-08T16:24:13Z</time>
      </trkpt>
      <trkpt lat="41.1055990" lon="0.6535660">
        <ele>51.9</ele>
        <time>2020-08-08T16:24:14Z</time>
      </trkpt>
      <trkpt lat="41.1055550" lon="0.6536420">
        <ele>52.0</ele>
        <time>2020-08-08T16:24:16Z</time>
      </trkpt>
      <trkpt lat="41.1055350" lon="0.6536770">
        <ele>52.1</ele>
        <time>2020-08-08T16:24:17Z</time>
      </trkpt>
      <trkpt lat="41.1054890" lon="0.6537560">
        <ele>52.2</ele>
        <time>2020-08-08T16:24:19Z</time>
      </trkpt>
      <trkpt lat="41.1054400" lon="0.6538410">
        <ele>52.4</ele>
        <time>2020-08-08T16:24:21Z</time>
      </trkpt>
      <trkpt lat="41.1054180" lon="0.6538820">
        <ele>52.4</ele>
        <time>2020-08-08T16:24:22Z</time>
      </trkpt>
      <trkpt lat="41.1053740" lon="0.6539590">
        <ele>52.5</ele>
        <time>2020-08-08T16:24:24Z</time>
      </trkpt>
      <trkpt lat="41.1053490" lon="0.6540000">
        <ele>52.6</ele>
        <time>2020-08-08T16:24:25Z</time>
      </trkpt>
      <trkpt lat="41.1053030" lon="0.6540790">
        <ele>52.7</ele>
        <time>2020-08-08T16:24:27Z</time>
      </trkpt>
      <trkpt lat="41.1052650" lon="0.6541480">
        <ele>52.8</ele>
        <time>2020-08-08T16:24:29Z</time>
      </trkpt>
      <trkpt lat="41.1052400" lon="0.6541930">
        <ele>52.9</ele>
        <time>2020-08-08T16:24:30Z</time>
      </trkpt>
      <trkpt lat="41.1052210" lon="0.6542270">
        <ele>52.9</ele>
        <time>2020-08-08T16:24:31Z</time>
      </trkpt>
      <trkpt lat="41.1051960" lon="0.6542710">
        <ele>53.0</ele>
        <time>2020-08-08T16:24:32Z</time>
      </trkpt>
      <trkpt lat="41.1051560" lon="0.6543420">
        <ele>53.1</ele>
        <time>2020-08-08T16:24:34Z</time>
      </trkpt>
      <trkpt lat="41.1051310" lon="0.6543850">
        <ele>53.1</ele>
        <time>2020-08-08T16:24:35Z</time>
      </trkpt>
      <trkpt lat="41.1050850" lon="0.6544650">
        <ele>53.2</ele>
        <time>2020-08-08T16:24:37Z</time>
      </trkpt>
      <trkpt lat="41.1050630" lon="0.6545060">
        <ele>53.2</ele>
        <time>2020-08-08T16:24:38Z</time>
      </trkpt>
      <trkpt lat="41.1050430" lon="0.6545380">
        <ele>53.2</ele>
        <time>2020-08-08T16:24:39Z</time>
      </trkpt>
      <trkpt lat="41.1049910" lon="0.6546100">
        <ele>53.3</ele>
        <time>2020-08-08T16:24:41Z</time>
      </trkpt>
      <trkpt lat="41.1049290" lon="0.6546710">
        <ele>53.4</ele>
        <time>2020-08-08T16:24:43Z</time>
      </trkpt>
      <trkpt lat="41.1048960" lon="0.6546970">
        <ele>53.4</ele>
        <time>2020-08-08T16:24:44Z</time>
      </trkpt>
      <trkpt lat="41.1048720" lon="0.6547120">
        <ele>53.5</ele>
        <time>2020-08-08T16:24:45Z</time>
      </trkpt>
      <trkpt lat="41.1048070" lon="0.6547510">
        <ele>53.5</ele>
        <time>2020-08-08T16:24:47Z</time>
      </trkpt>
      <trkpt lat="41.1047740" lon="0.6547700">
        <ele>53.6</ele>
        <time>2020-08-08T16:24:48Z</time>
      </trkpt>
      <trkpt lat="41.1047110" lon="0.6547980">
        <ele>53.7</ele>
        <time>2020-08-08T16:24:50Z</time>
      </trkpt>
      <trkpt lat="41.1046440" lon="0.6548220">
        <ele>53.8</ele>
        <time>2020-08-08T16:24:52Z</time>
      </trkpt>
      <trkpt lat="41.1046060" lon="0.6548370">
        <ele>53.8</ele>
        <time>2020-08-08T16:24:53Z</time>
      </trkpt>
      <trkpt lat="41.1045680" lon="0.6548560">
        <ele>53.9</ele>
        <time>2020-08-08T16:24:54Z</time>
      </trkpt>
      <trkpt lat="41.1045180" lon="0.6549010">
        <ele>53.9</ele>
        <time>2020-08-08T16:24:56Z</time>
      </trkpt>
      <trkpt lat="41.1045060" lon="0.6549710">
        <ele>54.1</ele>
        <time>2020-08-08T16:24:58Z</time>
      </trkpt>
      <trkpt lat="41.1045230" lon="0.6550340">
        <ele>54.3</ele>
        <time>2020-08-08T16:25:00Z</time>
      </trkpt>
      <trkpt lat="41.1045420" lon="0.6550660">
        <ele>54.4</ele>
        <time>2020-08-08T16:25:01Z</time>
      </trkpt>
      <trkpt lat="41.1045730" lon="0.6551040">
        <ele>54.5</ele>
        <time>2020-08-08T16:25:03Z</time>
      </trkpt>
      <trkpt lat="41.1046090" lon="0.6551350">
        <ele>54.7</ele>
        <time>2020-08-08T16:25:04Z</time>
      </trkpt>
      <trkpt lat="41.1046490" lon="0.6551790">
        <ele>55.0</ele>
        <time>2020-08-08T16:25:06Z</time>
      </trkpt>
      <trkpt lat="41.1046640" lon="0.6552100">
        <ele>55.2</ele>
        <time>2020-08-08T16:25:07Z</time>
      </trkpt>
      <trkpt lat="41.1046970" lon="0.6552770">
        <ele>55.6</ele>
        <time>2020-08-08T16:25:09Z</time>
      </trkpt>
      <trkpt lat="41.1047210" lon="0.6553230">
        <ele>55.8</ele>
        <time>2020-08-08T16:25:10Z</time>
      </trkpt>
      <trkpt lat="41.1047630" lon="0.6554090">
        <ele>56.2</ele>
        <time>2020-08-08T16:25:12Z</time>
      </trkpt>
      <trkpt lat="41.1047920" lon="0.6554600">
        <ele>56.4</ele>
        <time>2020-08-08T16:25:13Z</time>
      </trkpt>
      <trkpt lat="41.1048130" lon="0.6555060">
        <ele>56.6</ele>
        <time>2020-08-08T16:25:14Z</time>
      </trkpt>
      <trkpt lat="41.1048420" lon="0.6555800">
        <ele>56.8</ele>
        <time>2020-08-08T16:25:16Z</time>
      </trkpt>
      <trkpt lat="41.1048680" lon="0.6556340">
        <ele>57.0</ele>
        <time>2020-08-08T16:25:17Z</time>
      </trkpt>
      <trkpt lat="41.1048970" lon="0.6557080">
        <ele>57.3</ele>
        <time>2020-08-08T16:25:19Z</time>
      </trkpt>
      <trkpt lat="41.1049190" lon="0.6557650">
        <ele>57.5</ele>
        <time>2020-08-08T16:25:20Z</time>
      </trkpt>
      <trkpt lat="41.1049370" lon="0.6558190">
        <ele>57.6</ele>
        <time>2020-08-08T16:25:21Z</time>
      </trkpt>
      <trkpt lat="41.1049560" lon="0.6558620">
        <ele>57.8</ele>
        <time>2020-08-08T16:25:22Z</time>
      </trkpt>
      <trkpt lat="41.1049760" lon="0.6559010">
        <ele>57.9</ele>
        <time>2020-08-08T16:25:23Z</time>
      </trkpt>
      <trkpt lat="41.1050100" lon="0.6559340">
        <ele>58.1</ele>
        <time>2020-08-08T16:25:25Z</time>
      </trkpt>
      <trkpt lat="41.1050590" lon="0.6559500">
        <ele>58.0</ele>
        <time>2020-08-08T16:25:26Z</time>
      </trkpt>
      <trkpt lat="41.1050950" lon="0.6559540">
        <ele>57.9</ele>
        <time>2020-08-08T16:25:27Z</time>
      </trkpt>
      <trkpt lat="41.1051540" lon="0.6558980">
        <ele>57.7</ele>
        <time>2020-08-08T16:25:28Z</time>
      </trkpt>
      <trkpt lat="41.1052670" lon="0.6558100">
        <ele>57.5</ele>
        <time>2020-08-08T16:25:30Z</time>
      </trkpt>
      <trkpt lat="41.1053610" lon="0.6557380">
        <ele>57.4</ele>
        <time>2020-08-08T16:25:32Z</time>
      </trkpt>
      <trkpt lat="41.1053940" lon="0.6556960">
        <ele>57.4</ele>
        <time>2020-08-08T16:25:33Z</time>
      </trkpt>
      <trkpt lat="41.1054280" lon="0.6556620">
        <ele>57.4</ele>
        <time>2020-08-08T16:25:34Z</time>
      </trkpt>
      <trkpt lat="41.1054660" lon="0.6556270">
        <ele>57.4</ele>
        <time>2020-08-08T16:25:35Z</time>
      </trkpt>
      <trkpt lat="41.1055450" lon="0.6555630">
        <ele>57.4</ele>
        <time>2020-08-08T16:25:37Z</time>
      </trkpt>
      <trkpt lat="41.1055850" lon="0.6555330">
        <ele>57.5</ele>
        <time>2020-08-08T16:25:38Z</time>
      </trkpt>
      <trkpt lat="41.1056210" lon="0.6555000">
        <ele>57.5</ele>
        <time>2020-08-08T16:25:39Z</time>
      </trkpt>
      <trkpt lat="41.1056610" lon="0.6554710">
        <ele>57.5</ele>
        <time>2020-08-08T16:25:40Z</time>
      </trkpt>
      <trkpt lat="41.1057310" lon="0.6554110">
        <ele>57.6</ele>
        <time>2020-08-08T16:25:42Z</time>
      </trkpt>
      <trkpt lat="41.1058120" lon="0.6553470">
        <ele>57.7</ele>
        <time>2020-08-08T16:25:44Z</time>
      </trkpt>
      <trkpt lat="41.1058460" lon="0.6553190">
        <ele>57.8</ele>
        <time>2020-08-08T16:25:45Z</time>
      </trkpt>
      <trkpt lat="41.1058740" lon="0.6552970">
        <ele>57.8</ele>
        <time>2020-08-08T16:25:46Z</time>
      </trkpt>
      <trkpt lat="41.1059000" lon="0.6552820">
        <ele>57.8</ele>
        <time>2020-08-08T16:25:48Z</time>
      </trkpt>
      <trkpt lat="41.1059500" lon="0.6552400">
        <ele>57.9</ele>
        <time>2020-08-08T16:25:49Z</time>
      </trkpt>
      <trkpt lat="41.1060160" lon="0.6551910">
        <ele>58.0</ele>
        <time>2020-08-08T16:25:50Z</time>
      </trkpt>
      <trkpt lat="41.1060630" lon="0.6551550">
        <ele>58.1</ele>
        <time>2020-08-08T16:25:51Z</time>
      </trkpt>
      <trkpt lat="41.1061380" lon="0.6550740">
        <ele>58.2</ele>
        <time>2020-08-08T16:25:53Z</time>
      </trkpt>
      <trkpt lat="41.1061800" lon="0.6550260">
        <ele>58.2</ele>
        <time>2020-08-08T16:25:55Z</time>
      </trkpt>
      <trkpt lat="41.1062370" lon="0.6550140">
        <ele>58.3</ele>
        <time>2020-08-08T16:25:56Z</time>
      </trkpt>
      <trkpt lat="41.1063010" lon="0.6549650">
        <ele>58.3</ele>
        <time>2020-08-08T16:25:58Z</time>
      </trkpt>
      <trkpt lat="41.1063560" lon="0.6549240">
        <ele>58.4</ele>
        <time>2020-08-08T16:25:59Z</time>
      </trkpt>
      <trkpt lat="41.1063950" lon="0.6548900">
        <ele>58.4</ele>
        <time>2020-08-08T16:26:00Z</time>
      </trkpt>
      <trkpt lat="41.1064300" lon="0.6548600">
        <ele>58.4</ele>
        <time>2020-08-08T16:26:02Z</time>
      </trkpt>
      <trkpt lat="41.1064600" lon="0.6548330">
        <ele>58.4</ele>
        <time>2020-08-08T16:26:03Z</time>
      </trkpt>
      <trkpt lat="41.1064910" lon="0.6548060">
        <ele>58.5</ele>
        <time>2020-08-08T16:26:04Z</time>
      </trkpt>
      <trkpt lat="41.1065020" lon="0.6547960">
        <ele>58.5</ele>
        <time>2020-08-08T16:26:05Z</time>
      </trkpt>
      <trkpt lat="41.1065880" lon="0.6547220">
        <ele>58.6</ele>
        <time>2020-08-08T16:26:06Z</time>
      </trkpt>
      <trkpt lat="41.1066670" lon="0.6546580">
        <ele>58.7</ele>
        <time>2020-08-08T16:26:08Z</time>
      </trkpt>
      <trkpt lat="41.1067260" lon="0.6546070">
        <ele>58.8</ele>
        <time>2020-08-08T16:26:09Z</time>
      </trkpt>
      <trkpt lat="41.1067840" lon="0.6545570">
        <ele>58.9</ele>
        <time>2020-08-08T16:26:10Z</time>
      </trkpt>
      <trkpt lat="41.1068290" lon="0.6545150">
        <ele>58.9</ele>
        <time>2020-08-08T16:26:11Z</time>
      </trkpt>
      <trkpt lat="41.1068580" lon="0.6544670">
        <ele>58.9</ele>
        <time>2020-08-08T16:26:13Z</time>
      </trkpt>
      <trkpt lat="41.1068880" lon="0.6544180">
        <ele>58.9</ele>
        <time>2020-08-08T16:26:14Z</time>
      </trkpt>
      <trkpt lat="41.1069650" lon="0.6543640">
        <ele>59.0</ele>
        <time>2020-08-08T16:26:15Z</time>
      </trkpt>
      <trkpt lat="41.1070200" lon="0.6543250">
        <ele>59.0</ele>
        <time>2020-08-08T16:26:17Z</time>
      </trkpt>
      <trkpt lat="41.1071230" lon="0.6542570">
        <ele>59.0</ele>
        <time>2020-08-08T16:26:19Z</time>
      </trkpt>
      <trkpt lat="41.1071370" lon="0.6542710">
        <ele>59.0</ele>
        <time>2020-08-08T16:26:20Z</time>
      </trkpt>
      <trkpt lat="41.1071290" lon="0.6543270">
        <ele>59.0</ele>
        <time>2020-08-08T16:26:22Z</time>
      </trkpt>
      <trkpt lat="41.1071680" lon="0.6543320">
        <ele>59.0</ele>
        <time>2020-08-08T16:26:23Z</time>
      </trkpt>
      <trkpt lat="41.1071870" lon="0.6543170">
        <ele>59.0</ele>
        <time>2020-08-08T16:26:24Z</time>
      </trkpt>
      <trkpt lat="41.1072150" lon="0.6542650">
        <ele>59.1</ele>
        <time>2020-08-08T16:26:25Z</time>
      </trkpt>
      <trkpt lat="41.1072420" lon="0.6542200">
        <ele>59.1</ele>
        <time>2020-08-08T16:26:27Z</time>
      </trkpt>
      <trkpt lat="41.1072640" lon="0.6541840">
        <ele>59.1</ele>
        <time>2020-08-08T16:26:28Z</time>
      </trkpt>
      <trkpt lat="41.1073120" lon="0.6541230">
        <ele>59.1</ele>
        <time>2020-08-08T16:26:30Z</time>
      </trkpt>
      <trkpt lat="41.1074740" lon="0.6539760">
        <ele>59.1</ele>
        <time>2020-08-08T16:26:32Z</time>
      </trkpt>
      <trkpt lat="41.1075760" lon="0.6539020">
        <ele>59.0</ele>
        <time>2020-08-08T16:26:33Z</time>
      </trkpt>
      <trkpt lat="41.1077130" lon="0.6538000">
        <ele>58.9</ele>
        <time>2020-08-08T16:26:35Z</time>
      </trkpt>
      <trkpt lat="41.1078160" lon="0.6537290">
        <ele>58.9</ele>
        <time>2020-08-08T16:26:37Z</time>
      </trkpt>
      <trkpt lat="41.1079060" lon="0.6536590">
        <ele>58.9</ele>
        <time>2020-08-08T16:26:39Z</time>
      </trkpt>
      <trkpt lat="41.1079460" lon="0.6536270">
        <ele>58.9</ele>
        <time>2020-08-08T16:26:40Z</time>
      </trkpt>
      <trkpt lat="41.1080350" lon="0.6535650">
        <ele>58.8</ele>
        <time>2020-08-08T16:26:42Z</time>
      </trkpt>
      <trkpt lat="41.1080820" lon="0.6535370">
        <ele>58.8</ele>
        <time>2020-08-08T16:26:43Z</time>
      </trkpt>
      <trkpt lat="41.1081690" lon="0.6534660">
        <ele>58.7</ele>
        <time>2020-08-08T16:26:45Z</time>
      </trkpt>
      <trkpt lat="41.1082140" lon="0.6534250">
        <ele>58.6</ele>
        <time>2020-08-08T16:26:46Z</time>
      </trkpt>
      <trkpt lat="41.1082550" lon="0.6533870">
        <ele>58.6</ele>
        <time>2020-08-08T16:26:47Z</time>
      </trkpt>
      <trkpt lat="41.1082970" lon="0.6533550">
        <ele>58.6</ele>
        <time>2020-08-08T16:26:48Z</time>
      </trkpt>
      <trkpt lat="41.1083310" lon="0.6533150">
        <ele>58.5</ele>
        <time>2020-08-08T16:26:49Z</time>
      </trkpt>
      <trkpt lat="41.1084020" lon="0.6532500">
        <ele>58.5</ele>
        <time>2020-08-08T16:26:51Z</time>
      </trkpt>
      <trkpt lat="41.1084460" lon="0.6532200">
        <ele>58.5</ele>
        <time>2020-08-08T16:26:52Z</time>
      </trkpt>
      <trkpt lat="41.1085350" lon="0.6531470">
        <ele>58.6</ele>
        <time>2020-08-08T16:26:54Z</time>
      </trkpt>
      <trkpt lat="41.1085770" lon="0.6531090">
        <ele>58.6</ele>
        <time>2020-08-08T16:26:55Z</time>
      </trkpt>
      <trkpt lat="41.1086640" lon="0.6530370">
        <ele>58.6</ele>
        <time>2020-08-08T16:26:57Z</time>
      </trkpt>
      <trkpt lat="41.1087070" lon="0.6530000">
        <ele>58.6</ele>
        <time>2020-08-08T16:26:58Z</time>
      </trkpt>
      <trkpt lat="41.1087970" lon="0.6529450">
        <ele>58.5</ele>
        <time>2020-08-08T16:27:00Z</time>
      </trkpt>
      <trkpt lat="41.1088380" lon="0.6529170">
        <ele>58.5</ele>
        <time>2020-08-08T16:27:01Z</time>
      </trkpt>
      <trkpt lat="41.1088770" lon="0.6528870">
        <ele>58.4</ele>
        <time>2020-08-08T16:27:02Z</time>
      </trkpt>
      <trkpt lat="41.1089480" lon="0.6528300">
        <ele>58.4</ele>
        <time>2020-08-08T16:27:04Z</time>
      </trkpt>
      <trkpt lat="41.1089850" lon="0.6527930">
        <ele>58.4</ele>
        <time>2020-08-08T16:27:05Z</time>
      </trkpt>
      <trkpt lat="41.1090200" lon="0.6527520">
        <ele>58.4</ele>
        <time>2020-08-08T16:27:06Z</time>
      </trkpt>
      <trkpt lat="41.1090990" lon="0.6526770">
        <ele>58.4</ele>
        <time>2020-08-08T16:27:08Z</time>
      </trkpt>
      <trkpt lat="41.1091370" lon="0.6526370">
        <ele>58.4</ele>
        <time>2020-08-08T16:27:09Z</time>
      </trkpt>
      <trkpt lat="41.1091990" lon="0.6525580">
        <ele>58.4</ele>
        <time>2020-08-08T16:27:11Z</time>
      </trkpt>
      <trkpt lat="41.1092150" lon="0.6525330">
        <ele>58.4</ele>
        <time>2020-08-08T16:27:12Z</time>
      </trkpt>
      <trkpt lat="41.1092840" lon="0.6524550">
        <ele>58.5</ele>
        <time>2020-08-08T16:27:14Z</time>
      </trkpt>
      <trkpt lat="41.1093250" lon="0.6524150">
        <ele>58.5</ele>
        <time>2020-08-08T16:27:15Z</time>
      </trkpt>
      <trkpt lat="41.1093960" lon="0.6523530">
        <ele>58.6</ele>
        <time>2020-08-08T16:27:17Z</time>
      </trkpt>
      <trkpt lat="41.1093960" lon="0.6523890">
        <ele>58.6</ele>
        <time>2020-08-08T16:27:19Z</time>
      </trkpt>
      <trkpt lat="41.1093830" lon="0.6524080">
        <ele>58.6</ele>
        <time>2020-08-08T16:27:20Z</time>
      </trkpt>
      <trkpt lat="41.1093920" lon="0.6524250">
        <ele>58.6</ele>
        <time>2020-08-08T16:27:21Z</time>
      </trkpt>
      <trkpt lat="41.1094670" lon="0.6523840">
        <ele>58.7</ele>
        <time>2020-08-08T16:27:23Z</time>
      </trkpt>
      <trkpt lat="41.1095060" lon="0.6523080">
        <ele>58.8</ele>
        <time>2020-08-08T16:27:24Z</time>
      </trkpt>
      <trkpt lat="41.1095370" lon="0.6522280">
        <ele>58.9</ele>
        <time>2020-08-08T16:27:26Z</time>
      </trkpt>
      <trkpt lat="41.1095600" lon="0.6521800">
        <ele>58.9</ele>
        <time>2020-08-08T16:27:27Z</time>
      </trkpt>
      <trkpt lat="41.1095940" lon="0.6521150">
        <ele>59.0</ele>
        <time>2020-08-08T16:27:28Z</time>
      </trkpt>
      <trkpt lat="41.1096320" lon="0.6520380">
        <ele>59.1</ele>
        <time>2020-08-08T16:27:30Z</time>
      </trkpt>
      <trkpt lat="41.1097320" lon="0.6519280">
        <ele>59.3</ele>
        <time>2020-08-08T16:27:31Z</time>
      </trkpt>
      <trkpt lat="41.1098030" lon="0.6518440">
        <ele>59.4</ele>
        <time>2020-08-08T16:27:33Z</time>
      </trkpt>
      <trkpt lat="41.1099670" lon="0.6517150">
        <ele>59.9</ele>
        <time>2020-08-08T16:27:34Z</time>
      </trkpt>
      <trkpt lat="41.1100000" lon="0.6516880">
        <ele>60.0</ele>
        <time>2020-08-08T16:27:36Z</time>
      </trkpt>
      <trkpt lat="41.1100380" lon="0.6516420">
        <ele>60.2</ele>
        <time>2020-08-08T16:27:38Z</time>
      </trkpt>
      <trkpt lat="41.1100600" lon="0.6516120">
        <ele>60.2</ele>
        <time>2020-08-08T16:27:39Z</time>
      </trkpt>
      <trkpt lat="41.1100680" lon="0.6516030">
        <ele>60.2</ele>
        <time>2020-08-08T16:27:40Z</time>
      </trkpt>
      <trkpt lat="41.1100900" lon="0.6515850">
        <ele>60.2</ele>
        <time>2020-08-08T16:27:41Z</time>
      </trkpt>
      <trkpt lat="41.1101190" lon="0.6515720">
        <ele>60.2</ele>
        <time>2020-08-08T16:27:43Z</time>
      </trkpt>
      <trkpt lat="41.1101970" lon="0.6515110">
        <ele>60.2</ele>
        <time>2020-08-08T16:27:44Z</time>
      </trkpt>
      <trkpt lat="41.1102500" lon="0.6514650">
        <ele>60.2</ele>
        <time>2020-08-08T16:27:45Z</time>
      </trkpt>
      <trkpt lat="41.1103630" lon="0.6513740">
        <ele>60.0</ele>
        <time>2020-08-08T16:27:46Z</time>
      </trkpt>
      <trkpt lat="41.1104560" lon="0.6512970">
        <ele>59.9</ele>
        <time>2020-08-08T16:27:48Z</time>
      </trkpt>
      <trkpt lat="41.1105070" lon="0.6512480">
        <ele>59.8</ele>
        <time>2020-08-08T16:27:49Z</time>
      </trkpt>
      <trkpt lat="41.1105520" lon="0.6512000">
        <ele>59.7</ele>
        <time>2020-08-08T16:27:50Z</time>
      </trkpt>
      <trkpt lat="41.1106000" lon="0.6511550">
        <ele>59.5</ele>
        <time>2020-08-08T16:27:51Z</time>
      </trkpt>
      <trkpt lat="41.1106470" lon="0.6511080">
        <ele>59.4</ele>
        <time>2020-08-08T16:27:52Z</time>
      </trkpt>
      <trkpt lat="41.1107030" lon="0.6510690">
        <ele>59.2</ele>
        <time>2020-08-08T16:27:53Z</time>
      </trkpt>
      <trkpt lat="41.1107640" lon="0.6510270">
        <ele>59.0</ele>
        <time>2020-08-08T16:27:54Z</time>
      </trkpt>
      <trkpt lat="41.1108840" lon="0.6509370">
        <ele>58.5</ele>
        <time>2020-08-08T16:27:56Z</time>
      </trkpt>
      <trkpt lat="41.1109400" lon="0.6508840">
        <ele>58.3</ele>
        <time>2020-08-08T16:27:57Z</time>
      </trkpt>
      <trkpt lat="41.1110600" lon="0.6507840">
        <ele>58.0</ele>
        <time>2020-08-08T16:27:59Z</time>
      </trkpt>
      <trkpt lat="41.1111740" lon="0.6506960">
        <ele>57.9</ele>
        <time>2020-08-08T16:28:01Z</time>
      </trkpt>
      <trkpt lat="41.1112250" lon="0.6506590">
        <ele>57.9</ele>
        <time>2020-08-08T16:28:02Z</time>
      </trkpt>
      <trkpt lat="41.1113220" lon="0.6505950">
        <ele>57.9</ele>
        <time>2020-08-08T16:28:04Z</time>
      </trkpt>
      <trkpt lat="41.1114010" lon="0.6505420">
        <ele>58.0</ele>
        <time>2020-08-08T16:28:06Z</time>
      </trkpt>
      <trkpt lat="41.1114400" lon="0.6505170">
        <ele>58.1</ele>
        <time>2020-08-08T16:28:07Z</time>
      </trkpt>
      <trkpt lat="41.1114730" lon="0.6504940">
        <ele>58.1</ele>
        <time>2020-08-08T16:28:08Z</time>
      </trkpt>
      <trkpt lat="41.1115430" lon="0.6504580">
        <ele>58.2</ele>
        <time>2020-08-08T16:28:10Z</time>
      </trkpt>
      <trkpt lat="41.1115590" lon="0.6504550">
        <ele>58.3</ele>
        <time>2020-08-08T16:28:11Z</time>
      </trkpt>
      <trkpt lat="41.1116080" lon="0.6504230">
        <ele>58.4</ele>
        <time>2020-08-08T16:28:13Z</time>
      </trkpt>
      <trkpt lat="41.1116350" lon="0.6504080">
        <ele>58.4</ele>
        <time>2020-08-08T16:28:14Z</time>
      </trkpt>
      <trkpt lat="41.1116860" lon="0.6503820">
        <ele>58.5</ele>
        <time>2020-08-08T16:28:16Z</time>
      </trkpt>
      <trkpt lat="41.1116620" lon="0.6504370">
        <ele>58.6</ele>
        <time>2020-08-08T16:28:18Z</time>
      </trkpt>
      <trkpt lat="41.1116310" lon="0.6504870">
        <ele>58.7</ele>
        <time>2020-08-08T16:28:20Z</time>
      </trkpt>
      <trkpt lat="41.1116340" lon="0.6505030">
        <ele>58.7</ele>
        <time>2020-08-08T16:28:21Z</time>
      </trkpt>
      <trkpt lat="41.1116560" lon="0.6505170">
        <ele>58.8</ele>
        <time>2020-08-08T16:28:23Z</time>
      </trkpt>
      <trkpt lat="41.1116770" lon="0.6504910">
        <ele>58.9</ele>
        <time>2020-08-08T16:28:24Z</time>
      </trkpt>
      <trkpt lat="41.1117110" lon="0.6504850">
        <ele>58.9</ele>
        <time>2020-08-08T16:28:26Z</time>
      </trkpt>
      <trkpt lat="41.1117370" lon="0.6504520">
        <ele>59.0</ele>
        <time>2020-08-08T16:28:27Z</time>
      </trkpt>
      <trkpt lat="41.1117670" lon="0.6504470">
        <ele>59.0</ele>
        <time>2020-08-08T16:28:29Z</time>
      </trkpt>
      <trkpt lat="41.1117820" lon="0.6504450">
        <ele>59.0</ele>
        <time>2020-08-08T16:28:30Z</time>
      </trkpt>
      <trkpt lat="41.1117990" lon="0.6504380">
        <ele>59.0</ele>
        <time>2020-08-08T16:28:31Z</time>
      </trkpt>
      <trkpt lat="41.1118560" lon="0.6503820">
        <ele>59.1</ele>
        <time>2020-08-08T16:28:33Z</time>
      </trkpt>
      <trkpt lat="41.1118850" lon="0.6503520">
        <ele>59.1</ele>
        <time>2020-08-08T16:28:35Z</time>
      </trkpt>
      <trkpt lat="41.1119130" lon="0.6503210">
        <ele>59.2</ele>
        <time>2020-08-08T16:28:36Z</time>
      </trkpt>
      <trkpt lat="41.1120090" lon="0.6501980">
        <ele>59.4</ele>
        <time>2020-08-08T16:28:38Z</time>
      </trkpt>
      <trkpt lat="41.1120620" lon="0.6501270">
        <ele>59.6</ele>
        <time>2020-08-08T16:28:39Z</time>
      </trkpt>
      <trkpt lat="41.1120980" lon="0.6500650">
        <ele>59.8</ele>
        <time>2020-08-08T16:28:40Z</time>
      </trkpt>
      <trkpt lat="41.1121160" lon="0.6499980">
        <ele>59.9</ele>
        <time>2020-08-08T16:28:42Z</time>
      </trkpt>
      <trkpt lat="41.1121360" lon="0.6499600">
        <ele>60.0</ele>
        <time>2020-08-08T16:28:43Z</time>
      </trkpt>
      <trkpt lat="41.1121490" lon="0.6499330">
        <ele>60.0</ele>
        <time>2020-08-08T16:28:44Z</time>
      </trkpt>
      <trkpt lat="41.1121600" lon="0.6499100">
        <ele>60.0</ele>
        <time>2020-08-08T16:28:46Z</time>
      </trkpt>
      <trkpt lat="41.1121650" lon="0.6499010">
        <ele>60.0</ele>
        <time>2020-08-08T16:28:47Z</time>
      </trkpt>
      <trkpt lat="41.1121680" lon="0.6498920">
        <ele>60.0</ele>
        <time>2020-08-08T16:28:48Z</time>
      </trkpt>
      <trkpt lat="41.1121700" lon="0.6498860">
        <ele>60.0</ele>
        <time>2020-08-08T16:28:49Z</time>
      </trkpt>
      <trkpt lat="41.1121730" lon="0.6498750">
        <ele>60.0</ele>
        <time>2020-08-08T16:28:51Z</time>
      </trkpt>
      <trkpt lat="41.1121760" lon="0.6498700">
        <ele>60.0</ele>
        <time>2020-08-08T16:28:52Z</time>
      </trkpt>
      <trkpt lat="41.1121810" lon="0.6498580">
        <ele>60.0</ele>
        <time>2020-08-08T16:28:54Z</time>
      </trkpt>
      <trkpt lat="41.1121770" lon="0.6498650">
        <ele>60.0</ele>
        <time>2020-08-08T16:28:55Z</time>
      </trkpt>
      <trkpt lat="41.1121800" lon="0.6498770">
        <ele>60.0</ele>
        <time>2020-08-08T16:28:56Z</time>
      </trkpt>
      <trkpt lat="41.1121840" lon="0.6498900">
        <ele>59.9</ele>
        <time>2020-08-08T16:28:57Z</time>
      </trkpt>
      <trkpt lat="41.1121840" lon="0.6499020">
        <ele>59.9</ele>
        <time>2020-08-08T16:28:59Z</time>
      </trkpt>
      <trkpt lat="41.1121820" lon="0.6499170">
        <ele>59.9</ele>
        <time>2020-08-08T16:29:00Z</time>
      </trkpt>
      <trkpt lat="41.1121560" lon="0.6499400">
        <ele>59.8</ele>
        <time>2020-08-08T16:29:02Z</time>
      </trkpt>
      <trkpt lat="41.1121410" lon="0.6499460">
        <ele>59.7</ele>
        <time>2020-08-08T16:29:03Z</time>
      </trkpt>
      <trkpt lat="41.1121270" lon="0.6499560">
        <ele>59.7</ele>
        <time>2020-08-08T16:29:04Z</time>
      </trkpt>
      <trkpt lat="41.1121130" lon="0.6499690">
        <ele>59.6</ele>
        <time>2020-08-08T16:29:05Z</time>
      </trkpt>
      <trkpt lat="41.1120810" lon="0.6499940">
        <ele>59.5</ele>
        <time>2020-08-08T16:29:07Z</time>
      </trkpt>
      <trkpt lat="41.1120380" lon="0.6500300">
        <ele>59.4</ele>
        <time>2020-08-08T16:29:08Z</time>
      </trkpt>
      <trkpt lat="41.1120140" lon="0.6500530">
        <ele>59.3</ele>
        <time>2020-08-08T16:29:09Z</time>
      </trkpt>
      <trkpt lat="41.1119470" lon="0.6501220">
        <ele>59.2</ele>
        <time>2020-08-08T16:29:10Z</time>
      </trkpt>
      <trkpt lat="41.1119010" lon="0.6501650">
        <ele>59.1</ele>
        <time>2020-08-08T16:29:11Z</time>
      </trkpt>
      <trkpt lat="41.1118460" lon="0.6502180">
        <ele>59.1</ele>
        <time>2020-08-08T16:29:12Z</time>
      </trkpt>
      <trkpt lat="41.1117790" lon="0.6502890">
        <ele>59.0</ele>
        <time>2020-08-08T16:29:14Z</time>
      </trkpt>
      <trkpt lat="41.1117320" lon="0.6503320">
        <ele>58.9</ele>
        <time>2020-08-08T16:29:15Z</time>
      </trkpt>
      <trkpt lat="41.1116940" lon="0.6503670">
        <ele>58.8</ele>
        <time>2020-08-08T16:29:16Z</time>
      </trkpt>
      <trkpt lat="41.1116550" lon="0.6504010">
        <ele>58.7</ele>
        <time>2020-08-08T16:29:17Z</time>
      </trkpt>
      <trkpt lat="41.1115550" lon="0.6504740">
        <ele>58.5</ele>
        <time>2020-08-08T16:29:19Z</time>
      </trkpt>
      <trkpt lat="41.1115050" lon="0.6505100">
        <ele>58.4</ele>
        <time>2020-08-08T16:29:20Z</time>
      </trkpt>
      <trkpt lat="41.1114140" lon="0.6505800">
        <ele>58.2</ele>
        <time>2020-08-08T16:29:22Z</time>
      </trkpt>
      <trkpt lat="41.1113310" lon="0.6506470">
        <ele>58.0</ele>
        <time>2020-08-08T16:29:24Z</time>
      </trkpt>
      <trkpt lat="41.1112870" lon="0.6506830">
        <ele>58.0</ele>
        <time>2020-08-08T16:29:25Z</time>
      </trkpt>
      <trkpt lat="41.1112360" lon="0.6507180">
        <ele>57.9</ele>
        <time>2020-08-08T16:29:26Z</time>
      </trkpt>
      <trkpt lat="41.1111390" lon="0.6507930">
        <ele>57.9</ele>
        <time>2020-08-08T16:29:28Z</time>
      </trkpt>
      <trkpt lat="41.1110970" lon="0.6508260">
        <ele>57.9</ele>
        <time>2020-08-08T16:29:29Z</time>
      </trkpt>
      <trkpt lat="41.1110580" lon="0.6508660">
        <ele>57.9</ele>
        <time>2020-08-08T16:29:30Z</time>
      </trkpt>
      <trkpt lat="41.1109750" lon="0.6509330">
        <ele>58.1</ele>
        <time>2020-08-08T16:29:32Z</time>
      </trkpt>
      <trkpt lat="41.1108980" lon="0.6509660">
        <ele>58.2</ele>
        <time>2020-08-08T16:29:34Z</time>
      </trkpt>
      <trkpt lat="41.1108660" lon="0.6509360">
        <ele>58.3</ele>
        <time>2020-08-08T16:29:36Z</time>
      </trkpt>
      <trkpt lat="41.1108780" lon="0.6508940">
        <ele>58.2</ele>
        <time>2020-08-08T16:29:37Z</time>
      </trkpt>
      <trkpt lat="41.1109400" lon="0.6507890">
        <ele>58.1</ele>
        <time>2020-08-08T16:29:39Z</time>
      </trkpt>
      <trkpt lat="41.1109840" lon="0.6507290">
        <ele>58.0</ele>
        <time>2020-08-08T16:29:40Z</time>
      </trkpt>
      <trkpt lat="41.1110260" lon="0.6506580">
        <ele>58.0</ele>
        <time>2020-08-08T16:29:41Z</time>
      </trkpt>
      <trkpt lat="41.1110570" lon="0.6505760">
        <ele>57.9</ele>
        <time>2020-08-08T16:29:42Z</time>
      </trkpt>
      <trkpt lat="41.1111190" lon="0.6504080">
        <ele>57.9</ele>
        <time>2020-08-08T16:29:44Z</time>
      </trkpt>
      <trkpt lat="41.1111580" lon="0.6503340">
        <ele>57.9</ele>
        <time>2020-08-08T16:29:45Z</time>
      </trkpt>
      <trkpt lat="41.1112650" lon="0.6502310">
        <ele>57.9</ele>
        <time>2020-08-08T16:29:47Z</time>
      </trkpt>
      <trkpt lat="41.1113850" lon="0.6501840">
        <ele>58.0</ele>
        <time>2020-08-08T16:29:49Z</time>
      </trkpt>
      <trkpt lat="41.1114980" lon="0.6501330">
        <ele>58.1</ele>
        <time>2020-08-08T16:29:51Z</time>
      </trkpt>
      <trkpt lat="41.1116090" lon="0.6500880">
        <ele>58.2</ele>
        <time>2020-08-08T16:29:53Z</time>
      </trkpt>
      <trkpt lat="41.1119560" lon="0.6499160">
        <ele>58.5</ele>
        <time>2020-08-08T16:30:00Z</time>
      </trkpt>
      <trkpt lat="41.1120010" lon="0.6498860">
        <ele>58.6</ele>
        <time>2020-08-08T16:30:01Z</time>
      </trkpt>
      <trkpt lat="41.1120850" lon="0.6498170">
        <ele>58.7</ele>
        <time>2020-08-08T16:30:03Z</time>
      </trkpt>
      <trkpt lat="41.1121170" lon="0.6497760">
        <ele>58.8</ele>
        <time>2020-08-08T16:30:04Z</time>
      </trkpt>
      <trkpt lat="41.1121310" lon="0.6497370">
        <ele>58.8</ele>
        <time>2020-08-08T16:30:05Z</time>
      </trkpt>
      <trkpt lat="41.1121420" lon="0.6496780">
        <ele>58.9</ele>
        <time>2020-08-08T16:30:06Z</time>
      </trkpt>
      <trkpt lat="41.1121240" lon="0.6495910">
        <ele>58.9</ele>
        <time>2020-08-08T16:30:08Z</time>
      </trkpt>
      <trkpt lat="41.1121170" lon="0.6495480">
        <ele>59.0</ele>
        <time>2020-08-08T16:30:10Z</time>
      </trkpt>
      <trkpt lat="41.1121120" lon="0.6495360">
        <ele>59.0</ele>
        <time>2020-08-08T16:30:11Z</time>
      </trkpt>
      <trkpt lat="41.1121000" lon="0.6495420">
        <ele>59.0</ele>
        <time>2020-08-08T16:30:13Z</time>
      </trkpt>
      <trkpt lat="41.1121000" lon="0.6495400">
        <ele>59.0</ele>
        <time>2020-08-08T16:30:16Z</time>
      </trkpt>
      <trkpt lat="41.1121030" lon="0.6495320">
        <ele>59.0</ele>
        <time>2020-08-08T16:30:17Z</time>
      </trkpt>
      <trkpt lat="41.1121040" lon="0.6495290">
        <ele>59.0</ele>
        <time>2020-08-08T16:30:18Z</time>
      </trkpt>
      <trkpt lat="41.1121060" lon="0.6495260">
        <ele>59.0</ele>
        <time>2020-08-08T16:30:19Z</time>
      </trkpt>
      <trkpt lat="41.1121090" lon="0.6495230">
        <ele>59.0</ele>
        <time>2020-08-08T16:30:21Z</time>
      </trkpt>
      <trkpt lat="41.1123140" lon="0.6499060">
        <ele>59.2</ele>
        <time>2020-08-08T16:39:58Z</time>
      </trkpt>
      <trkpt lat="41.1123080" lon="0.6498990">
        <ele>59.2</ele>
        <time>2020-08-08T16:39:59Z</time>
      </trkpt>
      <trkpt lat="41.1123010" lon="0.6498870">
        <ele>59.2</ele>
        <time>2020-08-08T16:40:00Z</time>
      </trkpt>
      <trkpt lat="41.1122870" lon="0.6498650">
        <ele>59.2</ele>
        <time>2020-08-08T16:40:02Z</time>
      </trkpt>
      <trkpt lat="41.1122770" lon="0.6498500">
        <ele>59.2</ele>
        <time>2020-08-08T16:40:04Z</time>
      </trkpt>
      <trkpt lat="41.1122640" lon="0.6497940">
        <ele>59.3</ele>
        <time>2020-08-08T16:40:06Z</time>
      </trkpt>
      <trkpt lat="41.1122420" lon="0.6497340">
        <ele>59.3</ele>
        <time>2020-08-08T16:40:07Z</time>
      </trkpt>
      <trkpt lat="41.1122260" lon="0.6496850">
        <ele>59.4</ele>
        <time>2020-08-08T16:40:09Z</time>
      </trkpt>
      <trkpt lat="41.1122110" lon="0.6496360">
        <ele>59.4</ele>
        <time>2020-08-08T16:47:22Z</time>
      </trkpt>
      <trkpt lat="41.1121960" lon="0.6495880">
        <ele>59.5</ele>
        <time>2020-08-08T16:47:23Z</time>
      </trkpt>
      <trkpt lat="41.1121810" lon="0.6495390">
        <ele>59.6</ele>
        <time>2020-08-08T16:47:25Z</time>
      </trkpt>
      <trkpt lat="41.1121650" lon="0.6494900">
        <ele>59.7</ele>
        <time>2020-08-08T16:52:58Z</time>
      </trkpt>
      <trkpt lat="41.1121500" lon="0.6494410">
        <ele>59.8</ele>
        <time>2020-08-08T16:52:59Z</time>
      </trkpt>
      <trkpt lat="41.1122180" lon="0.6494010">
        <ele>59.9</ele>
        <time>2020-08-08T16:53:00Z</time>
      </trkpt>
      <trkpt lat="41.1122890" lon="0.6493580">
        <ele>60.0</ele>
        <time>2020-08-08T16:53:01Z</time>
      </trkpt>
      <trkpt lat="41.1123340" lon="0.6493260">
        <ele>60.0</ele>
        <time>2020-08-08T16:53:02Z</time>
      </trkpt>
      <trkpt lat="41.1123580" lon="0.6493040">
        <ele>60.0</ele>
        <time>2020-08-08T16:53:03Z</time>
      </trkpt>
      <trkpt lat="41.1123820" lon="0.6492930">
        <ele>60.0</ele>
        <time>2020-08-08T16:53:05Z</time>
      </trkpt>
      <trkpt lat="41.1123910" lon="0.6492940">
        <ele>60.0</ele>
        <time>2020-08-08T16:53:06Z</time>
      </trkpt>
      <trkpt lat="41.1124100" lon="0.6492930">
        <ele>60.0</ele>
        <time>2020-08-08T16:53:08Z</time>
      </trkpt>
      <trkpt lat="41.1124280" lon="0.6492880">
        <ele>60.0</ele>
        <time>2020-08-08T16:53:10Z</time>
      </trkpt>
      <trkpt lat="41.1124410" lon="0.6492830">
        <ele>60.0</ele>
        <time>2020-08-08T16:53:11Z</time>
      </trkpt>
      <trkpt lat="41.1124500" lon="0.6492790">
        <ele>60.0</ele>
        <time>2020-08-08T16:53:12Z</time>
      </trkpt>
      <trkpt lat="41.1124680" lon="0.6492770">
        <ele>60.0</ele>
        <time>2020-08-08T16:53:14Z</time>
      </trkpt>
      <trkpt lat="41.1124790" lon="0.6492750">
        <ele>60.0</ele>
        <time>2020-08-08T16:53:15Z</time>
      </trkpt>
      <trkpt lat="41.1125030" lon="0.6492730">
        <ele>60.0</ele>
        <time>2020-08-08T16:53:17Z</time>
      </trkpt>
      <trkpt lat="41.1125250" lon="0.6492770">
        <ele>60.0</ele>
        <time>2020-08-08T16:53:18Z</time>
      </trkpt>
      <trkpt lat="41.1125510" lon="0.6492830">
        <ele>59.9</ele>
        <time>2020-08-08T16:53:20Z</time>
      </trkpt>
      <trkpt lat="41.1125810" lon="0.6492870">
        <ele>59.9</ele>
        <time>2020-08-08T16:53:21Z</time>
      </trkpt>
      <trkpt lat="41.1126250" lon="0.6492870">
        <ele>59.8</ele>
        <time>2020-08-08T16:53:23Z</time>
      </trkpt>
      <trkpt lat="41.1126610" lon="0.6492790">
        <ele>59.8</ele>
        <time>2020-08-08T16:53:24Z</time>
      </trkpt>
      <trkpt lat="41.1126720" lon="0.6492760">
        <ele>59.8</ele>
        <time>2020-08-08T16:53:25Z</time>
      </trkpt>
      <trkpt lat="41.1126940" lon="0.6492660">
        <ele>59.7</ele>
        <time>2020-08-08T16:53:26Z</time>
      </trkpt>
      <trkpt lat="41.1127360" lon="0.6492370">
        <ele>59.6</ele>
        <time>2020-08-08T16:53:28Z</time>
      </trkpt>
      <trkpt lat="41.1127650" lon="0.6492180">
        <ele>59.6</ele>
        <time>2020-08-08T16:53:30Z</time>
      </trkpt>
      <trkpt lat="41.1127970" lon="0.6491940">
        <ele>59.5</ele>
        <time>2020-08-08T16:53:32Z</time>
      </trkpt>
      <trkpt lat="41.1128180" lon="0.6491620">
        <ele>59.4</ele>
        <time>2020-08-08T16:53:34Z</time>
      </trkpt>
      <trkpt lat="41.1128250" lon="0.6491510">
        <ele>59.4</ele>
        <time>2020-08-08T16:53:35Z</time>
      </trkpt>
      <trkpt lat="41.1128370" lon="0.6491380">
        <ele>59.4</ele>
        <time>2020-08-08T16:53:36Z</time>
      </trkpt>
      <trkpt lat="41.1128590" lon="0.6491060">
        <ele>59.3</ele>
        <time>2020-08-08T16:53:38Z</time>
      </trkpt>
      <trkpt lat="41.1128760" lon="0.6490850">
        <ele>59.3</ele>
        <time>2020-08-08T16:53:39Z</time>
      </trkpt>
      <trkpt lat="41.1128860" lon="0.6490770">
        <ele>59.3</ele>
        <time>2020-08-08T16:53:40Z</time>
      </trkpt>
      <trkpt lat="41.1128950" lon="0.6490730">
        <ele>59.3</ele>
        <time>2020-08-08T16:53:41Z</time>
      </trkpt>
      <trkpt lat="41.1128990" lon="0.6490700">
        <ele>59.2</ele>
        <time>2020-08-08T16:53:42Z</time>
      </trkpt>
      <trkpt lat="41.1129100" lon="0.6490640">
        <ele>59.2</ele>
        <time>2020-08-08T16:53:44Z</time>
      </trkpt>
      <trkpt lat="41.1129150" lon="0.6490560">
        <ele>59.2</ele>
        <time>2020-08-08T16:53:46Z</time>
      </trkpt>
      <trkpt lat="41.1129180" lon="0.6490490">
        <ele>59.2</ele>
        <time>2020-08-08T16:53:47Z</time>
      </trkpt>
      <trkpt lat="41.1129200" lon="0.6490430">
        <ele>59.2</ele>
        <time>2020-08-08T16:53:48Z</time>
      </trkpt>
      <trkpt lat="41.1129200" lon="0.6490340">
        <ele>59.2</ele>
        <time>2020-08-08T16:53:50Z</time>
      </trkpt>
      <trkpt lat="41.1129150" lon="0.6490340">
        <ele>59.2</ele>
        <time>2020-08-08T16:53:52Z</time>
      </trkpt>
      <trkpt lat="41.1129030" lon="0.6490510">
        <ele>59.2</ele>
        <time>2020-08-08T16:53:54Z</time>
      </trkpt>
      <trkpt lat="41.1128920" lon="0.6490560">
        <ele>59.2</ele>
        <time>2020-08-08T16:53:56Z</time>
      </trkpt>
      <trkpt lat="41.1128830" lon="0.6490600">
        <ele>59.2</ele>
        <time>2020-08-08T16:53:57Z</time>
      </trkpt>
      <trkpt lat="41.1128370" lon="0.6490850">
        <ele>59.1</ele>
        <time>2020-08-08T16:53:59Z</time>
      </trkpt>
      <trkpt lat="41.1127990" lon="0.6491050">
        <ele>59.1</ele>
        <time>2020-08-08T16:54:01Z</time>
      </trkpt>
      <trkpt lat="41.1127610" lon="0.6491250">
        <ele>59.1</ele>
        <time>2020-08-08T16:56:25Z</time>
      </trkpt>
      <trkpt lat="41.1127230" lon="0.6491450">
        <ele>59.2</ele>
        <time>2020-08-08T16:56:26Z</time>
      </trkpt>
      <trkpt lat="41.1127530" lon="0.6491110">
        <ele>59.2</ele>
        <time>2020-08-08T16:56:27Z</time>
      </trkpt>
      <trkpt lat="41.1128050" lon="0.6490560">
        <ele>59.2</ele>
        <time>2020-08-08T16:56:29Z</time>
      </trkpt>
      <trkpt lat="41.1128360" lon="0.6490260">
        <ele>59.2</ele>
        <time>2020-08-08T16:56:30Z</time>
      </trkpt>
      <trkpt lat="41.1128660" lon="0.6490030">
        <ele>59.3</ele>
        <time>2020-08-08T16:56:31Z</time>
      </trkpt>
      <trkpt lat="41.1129320" lon="0.6489540">
        <ele>59.3</ele>
        <time>2020-08-08T16:56:34Z</time>
      </trkpt>
      <trkpt lat="41.1129170" lon="0.6489570">
        <ele>59.3</ele>
        <time>2020-08-08T16:56:35Z</time>
      </trkpt>
      <trkpt lat="41.1130000" lon="0.6488970">
        <ele>59.3</ele>
        <time>2020-08-08T16:56:37Z</time>
      </trkpt>
      <trkpt lat="41.1130650" lon="0.6488720">
        <ele>59.3</ele>
        <time>2020-08-08T16:56:39Z</time>
      </trkpt>
      <trkpt lat="41.1131310" lon="0.6488330">
        <ele>59.3</ele>
        <time>2020-08-08T16:56:40Z</time>
      </trkpt>
      <trkpt lat="41.1131510" lon="0.6487960">
        <ele>59.3</ele>
        <time>2020-08-08T16:56:41Z</time>
      </trkpt>
      <trkpt lat="41.1131180" lon="0.6487370">
        <ele>59.4</ele>
        <time>2020-08-08T16:56:43Z</time>
      </trkpt>
      <trkpt lat="41.1130700" lon="0.6486970">
        <ele>59.4</ele>
        <time>2020-08-08T16:56:45Z</time>
      </trkpt>
      <trkpt lat="41.1130420" lon="0.6486820">
        <ele>59.4</ele>
        <time>2020-08-08T16:56:46Z</time>
      </trkpt>
      <trkpt lat="41.1130320" lon="0.6486790">
        <ele>59.4</ele>
        <time>2020-08-08T16:56:47Z</time>
      </trkpt>
      <trkpt lat="41.1130150" lon="0.6486770">
        <ele>59.4</ele>
        <time>2020-08-08T16:56:48Z</time>
      </trkpt>
      <trkpt lat="41.1129800" lon="0.6486810">
        <ele>59.4</ele>
        <time>2020-08-08T16:56:50Z</time>
      </trkpt>
      <trkpt lat="41.1130080" lon="0.6487020">
        <ele>59.4</ele>
        <time>2020-08-08T16:56:52Z</time>
      </trkpt>
      <trkpt lat="41.1130250" lon="0.6487040">
        <ele>59.4</ele>
        <time>2020-08-08T16:56:53Z</time>
      </trkpt>
      <trkpt lat="41.1130580" lon="0.6487140">
        <ele>59.4</ele>
        <time>2020-08-08T16:56:55Z</time>
      </trkpt>
      <trkpt lat="41.1130720" lon="0.6487170">
        <ele>59.5</ele>
        <time>2020-08-08T16:56:56Z</time>
      </trkpt>
      <trkpt lat="41.1130850" lon="0.6487170">
        <ele>59.5</ele>
        <time>2020-08-08T16:56:57Z</time>
      </trkpt>
      <trkpt lat="41.1130970" lon="0.6487270">
        <ele>59.5</ele>
        <time>2020-08-08T16:56:59Z</time>
      </trkpt>
      <trkpt lat="41.1131120" lon="0.6487400">
        <ele>59.5</ele>
        <time>2020-08-08T16:57:01Z</time>
      </trkpt>
      <trkpt lat="41.1131180" lon="0.6487440">
        <ele>59.5</ele>
        <time>2020-08-08T16:57:02Z</time>
      </trkpt>
      <trkpt lat="41.1131260" lon="0.6487430">
        <ele>59.5</ele>
        <time>2020-08-08T16:57:03Z</time>
      </trkpt>
      <trkpt lat="41.1131390" lon="0.6487420">
        <ele>59.5</ele>
        <time>2020-08-08T16:57:05Z</time>
      </trkpt>
      <trkpt lat="41.1131450" lon="0.6487440">
        <ele>59.5</ele>
        <time>2020-08-08T16:57:06Z</time>
      </trkpt>
      <trkpt lat="41.1131520" lon="0.6487460">
        <ele>59.5</ele>
        <time>2020-08-08T16:57:07Z</time>
      </trkpt>
      <trkpt lat="41.1131520" lon="0.6487580">
        <ele>59.5</ele>
        <time>2020-08-08T16:57:09Z</time>
      </trkpt>
      <trkpt lat="41.1131220" lon="0.6487980">
        <ele>59.5</ele>
        <time>2020-08-08T16:57:11Z</time>
      </trkpt>
      <trkpt lat="41.1131030" lon="0.6488200">
        <ele>59.5</ele>
        <time>2020-08-08T16:57:13Z</time>
      </trkpt>
      <trkpt lat="41.1130870" lon="0.6488380">
        <ele>59.5</ele>
        <time>2020-08-08T16:57:15Z</time>
      </trkpt>
      <trkpt lat="41.1130800" lon="0.6488510">
        <ele>59.4</ele>
        <time>2020-08-08T16:57:16Z</time>
      </trkpt>
      <trkpt lat="41.1130790" lon="0.6488610">
        <ele>59.4</ele>
        <time>2020-08-08T16:57:17Z</time>
      </trkpt>
      <trkpt lat="41.1130790" lon="0.6488840">
        <ele>59.4</ele>
        <time>2020-08-08T16:57:19Z</time>
      </trkpt>
      <trkpt lat="41.1130710" lon="0.6489290">
        <ele>59.4</ele>
        <time>2020-08-08T16:57:21Z</time>
      </trkpt>
      <trkpt lat="41.1130660" lon="0.6489440">
        <ele>59.4</ele>
        <time>2020-08-08T16:57:22Z</time>
      </trkpt>
      <trkpt lat="41.1130550" lon="0.6489640">
        <ele>59.4</ele>
        <time>2020-08-08T16:57:23Z</time>
      </trkpt>
      <trkpt lat="41.1130690" lon="0.6489450">
        <ele>59.4</ele>
        <time>2020-08-08T16:57:24Z</time>
      </trkpt>
      <trkpt lat="41.1130830" lon="0.6489250">
        <ele>59.4</ele>
        <time>2020-08-08T16:57:26Z</time>
      </trkpt>
      <trkpt lat="41.1130890" lon="0.6489140">
        <ele>59.3</ele>
        <time>2020-08-08T16:57:28Z</time>
      </trkpt>
      <trkpt lat="41.1130900" lon="0.6489100">
        <ele>59.3</ele>
        <time>2020-08-08T16:57:29Z</time>
      </trkpt>
      <trkpt lat="41.1130830" lon="0.6489030">
        <ele>59.3</ele>
        <time>2020-08-08T16:57:30Z</time>
      </trkpt>
      <trkpt lat="41.1130640" lon="0.6488980">
        <ele>59.3</ele>
        <time>2020-08-08T16:57:32Z</time>
      </trkpt>
      <trkpt lat="41.1130580" lon="0.6488920">
        <ele>59.3</ele>
        <time>2020-08-08T16:57:33Z</time>
      </trkpt>
      <trkpt lat="41.1130550" lon="0.6488870">
        <ele>59.3</ele>
        <time>2020-08-08T16:57:34Z</time>
      </trkpt>
      <trkpt lat="41.1130500" lon="0.6488730">
        <ele>59.3</ele>
        <time>2020-08-08T16:57:36Z</time>
      </trkpt>
      <trkpt lat="41.1130490" lon="0.6488660">
        <ele>59.3</ele>
        <time>2020-08-08T16:57:37Z</time>
      </trkpt>
      <trkpt lat="41.1130490" lon="0.6488600">
        <ele>59.3</ele>
        <time>2020-08-08T16:57:38Z</time>
      </trkpt>
      <trkpt lat="41.1130580" lon="0.6488620">
        <ele>59.3</ele>
        <time>2020-08-08T16:57:44Z</time>
      </trkpt>
      <trkpt lat="41.1130580" lon="0.6488620">
        <ele>59.3</ele>
        <time>2020-08-08T16:57:49Z</time>
      </trkpt>
      <trkpt lat="41.1132630" lon="0.6486850">
        <ele>59.0</ele>
        <time>2020-08-08T16:57:55Z</time>
      </trkpt>
      <trkpt lat="41.1132630" lon="0.6486850">
        <ele>59.0</ele>
        <time>2020-08-08T16:58:00Z</time>
      </trkpt>
      <trkpt lat="41.1132420" lon="0.6488690">
        <ele>58.8</ele>
        <time>2020-08-08T16:59:30Z</time>
      </trkpt>
      <trkpt lat="41.1132560" lon="0.6489060">
        <ele>58.8</ele>
        <time>2020-08-08T16:59:32Z</time>
      </trkpt>
      <trkpt lat="41.1132740" lon="0.6489240">
        <ele>58.8</ele>
        <time>2020-08-08T16:59:34Z</time>
      </trkpt>
      <trkpt lat="41.1132790" lon="0.6489270">
        <ele>58.8</ele>
        <time>2020-08-08T16:59:36Z</time>
      </trkpt>
      <trkpt lat="41.1132880" lon="0.6489110">
        <ele>58.8</ele>
        <time>2020-08-08T16:59:38Z</time>
      </trkpt>
      <trkpt lat="41.1132920" lon="0.6489000">
        <ele>58.8</ele>
        <time>2020-08-08T16:59:39Z</time>
      </trkpt>
      <trkpt lat="41.1132970" lon="0.6488870">
        <ele>58.8</ele>
        <time>2020-08-08T16:59:40Z</time>
      </trkpt>
      <trkpt lat="41.1133090" lon="0.6488600">
        <ele>58.7</ele>
        <time>2020-08-08T16:59:42Z</time>
      </trkpt>
      <trkpt lat="41.1133330" lon="0.6488250">
        <ele>58.7</ele>
        <time>2020-08-08T16:59:44Z</time>
      </trkpt>
      <trkpt lat="41.1133600" lon="0.6488010">
        <ele>58.6</ele>
        <time>2020-08-08T16:59:46Z</time>
      </trkpt>
      <trkpt lat="41.1133690" lon="0.6487930">
        <ele>58.7</ele>
        <time>2020-08-08T16:59:48Z</time>
      </trkpt>
      <trkpt lat="41.1133710" lon="0.6487920">
        <ele>58.7</ele>
        <time>2020-08-08T16:59:49Z</time>
      </trkpt>
      <trkpt lat="41.1133700" lon="0.6487940">
        <ele>58.7</ele>
        <time>2020-08-08T16:59:51Z</time>
      </trkpt>
      <trkpt lat="41.1133690" lon="0.6487950">
        <ele>58.7</ele>
        <time>2020-08-08T16:59:52Z</time>
      </trkpt>
      <trkpt lat="41.1133680" lon="0.6487930">
        <ele>58.7</ele>
        <time>2020-08-08T16:59:54Z</time>
      </trkpt>
      <trkpt lat="41.1133700" lon="0.6487890">
        <ele>58.7</ele>
        <time>2020-08-08T16:59:56Z</time>
      </trkpt>
      <trkpt lat="41.1133720" lon="0.6487870">
        <ele>58.7</ele>
        <time>2020-08-08T16:59:58Z</time>
      </trkpt>
      <trkpt lat="41.1133730" lon="0.6487870">
        <ele>58.7</ele>
        <time>2020-08-08T17:00:00Z</time>
      </trkpt>
      <trkpt lat="41.1121020" lon="0.6492190">
        <ele>59.3</ele>
        <time>2020-08-08T17:13:47Z</time>
      </trkpt>
      <trkpt lat="41.1121000" lon="0.6492460">
        <ele>59.4</ele>
        <time>2020-08-08T17:13:48Z</time>
      </trkpt>
      <trkpt lat="41.1120990" lon="0.6492660">
        <ele>59.4</ele>
        <time>2020-08-08T17:13:50Z</time>
      </trkpt>
      <trkpt lat="41.1120970" lon="0.6492870">
        <ele>59.5</ele>
        <time>2020-08-08T17:13:52Z</time>
      </trkpt>
      <trkpt lat="41.1120960" lon="0.6493070">
        <ele>59.5</ele>
        <time>2020-08-08T17:13:53Z</time>
      </trkpt>
      <trkpt lat="41.1120970" lon="0.6493400">
        <ele>59.6</ele>
        <time>2020-08-08T17:13:55Z</time>
      </trkpt>
      <trkpt lat="41.1120970" lon="0.6493470">
        <ele>59.6</ele>
        <time>2020-08-08T17:13:57Z</time>
      </trkpt>
      <trkpt lat="41.1120970" lon="0.6493550">
        <ele>59.6</ele>
        <time>2020-08-08T17:13:58Z</time>
      </trkpt>
      <trkpt lat="41.1120960" lon="0.6493610">
        <ele>59.7</ele>
        <time>2020-08-08T17:13:59Z</time>
      </trkpt>
      <trkpt lat="41.1120950" lon="0.6493690">
        <ele>59.7</ele>
        <time>2020-08-08T17:14:01Z</time>
      </trkpt>
      <trkpt lat="41.1120990" lon="0.6494000">
        <ele>59.7</ele>
        <time>2020-08-08T17:14:05Z</time>
      </trkpt>
      <trkpt lat="41.1121000" lon="0.6494070">
        <ele>59.8</ele>
        <time>2020-08-08T17:14:06Z</time>
      </trkpt>
      <trkpt lat="41.1121000" lon="0.6494110">
        <ele>59.8</ele>
        <time>2020-08-08T17:14:07Z</time>
      </trkpt>
      <trkpt lat="41.1121040" lon="0.6494270">
        <ele>59.8</ele>
        <time>2020-08-08T17:14:09Z</time>
      </trkpt>
      <trkpt lat="41.1121050" lon="0.6494330">
        <ele>59.8</ele>
        <time>2020-08-08T17:14:10Z</time>
      </trkpt>
      <trkpt lat="41.1121050" lon="0.6494370">
        <ele>59.8</ele>
        <time>2020-08-08T17:14:12Z</time>
      </trkpt>
      <trkpt lat="41.1121030" lon="0.6494360">
        <ele>59.8</ele>
        <time>2020-08-08T17:14:13Z</time>
      </trkpt>
      <trkpt lat="41.1121010" lon="0.6494350">
        <ele>59.8</ele>
        <time>2020-08-08T17:14:14Z</time>
      </trkpt>
      <trkpt lat="41.1121010" lon="0.6494350">
        <ele>59.8</ele>
        <time>2020-08-08T17:14:15Z</time>
      </trkpt>
      <trkpt lat="41.1121000" lon="0.6494350">
        <ele>59.8</ele>
        <time>2020-08-08T17:14:16Z</time>
      </trkpt>
      <trkpt lat="41.1121010" lon="0.6494360">
        <ele>59.8</ele>
        <time>2020-08-08T17:14:18Z</time>
      </trkpt>
      <trkpt lat="41.1121010" lon="0.6494380">
        <ele>59.8</ele>
        <time>2020-08-08T17:14:20Z</time>
      </trkpt>
      <trkpt lat="41.1120320" lon="0.6495200">
        <ele>60.0</ele>
        <time>2020-08-08T17:16:04Z</time>
      </trkpt>
      <trkpt lat="41.1120400" lon="0.6495300">
        <ele>60.0</ele>
        <time>2020-08-08T17:16:06Z</time>
      </trkpt>
      <trkpt lat="41.1120460" lon="0.6495290">
        <ele>60.0</ele>
        <time>2020-08-08T17:16:07Z</time>
      </trkpt>
      <trkpt lat="41.1120510" lon="0.6495270">
        <ele>60.0</ele>
        <time>2020-08-08T17:16:08Z</time>
      </trkpt>
      <trkpt lat="41.1120490" lon="0.6495270">
        <ele>60.0</ele>
        <time>2020-08-08T17:16:10Z</time>
      </trkpt>
      <trkpt lat="41.1120460" lon="0.6495270">
        <ele>60.0</ele>
        <time>2020-08-08T17:16:11Z</time>
      </trkpt>
      <trkpt lat="41.1120440" lon="0.6495270">
        <ele>60.0</ele>
        <time>2020-08-08T17:16:13Z</time>
      </trkpt>
      <trkpt lat="41.1120450" lon="0.6495290">
        <ele>60.0</ele>
        <time>2020-08-08T17:16:14Z</time>
      </trkpt>
      <trkpt lat="41.1120460" lon="0.6495300">
        <ele>60.0</ele>
        <time>2020-08-08T17:16:16Z</time>
      </trkpt>
      <trkpt lat="41.1120470" lon="0.6495300">
        <ele>60.0</ele>
        <time>2020-08-08T17:16:17Z</time>
      </trkpt>
      <trkpt lat="41.1120460" lon="0.6495300">
        <ele>60.0</ele>
        <time>2020-08-08T17:16:19Z</time>
      </trkpt>
      <trkpt lat="41.1120600" lon="0.6495690">
        <ele>60.0</ele>
        <time>2020-08-08T17:16:26Z</time>
      </trkpt>
      <trkpt lat="41.1120490" lon="0.6495660">
        <ele>60.0</ele>
        <time>2020-08-08T17:16:28Z</time>
      </trkpt>
      <trkpt lat="41.1120490" lon="0.6495670">
        <ele>60.0</ele>
        <time>2020-08-08T17:16:29Z</time>
      </trkpt>
      <trkpt lat="41.1120490" lon="0.6495710">
        <ele>60.0</ele>
        <time>2020-08-08T17:16:30Z</time>
      </trkpt>
      <trkpt lat="41.1120540" lon="0.6495820">
        <ele>60.0</ele>
        <time>2020-08-08T17:16:32Z</time>
      </trkpt>
      <trkpt lat="41.1120560" lon="0.6495890">
        <ele>60.0</ele>
        <time>2020-08-08T17:16:33Z</time>
      </trkpt>
      <trkpt lat="41.1120590" lon="0.6495970">
        <ele>60.0</ele>
        <time>2020-08-08T17:16:34Z</time>
      </trkpt>
      <trkpt lat="41.1120570" lon="0.6496050">
        <ele>60.0</ele>
        <time>2020-08-08T17:16:35Z</time>
      </trkpt>
      <trkpt lat="41.1120450" lon="0.6496500">
        <ele>59.9</ele>
        <time>2020-08-08T17:16:44Z</time>
      </trkpt>
      <trkpt lat="41.1120440" lon="0.6496460">
        <ele>59.9</ele>
        <time>2020-08-08T17:16:45Z</time>
      </trkpt>
      <trkpt lat="41.1120460" lon="0.6496490">
        <ele>59.9</ele>
        <time>2020-08-08T17:16:47Z</time>
      </trkpt>
      <trkpt lat="41.1120440" lon="0.6496540">
        <ele>59.9</ele>
        <time>2020-08-08T17:16:48Z</time>
      </trkpt>
      <trkpt lat="41.1120450" lon="0.6496630">
        <ele>59.9</ele>
        <time>2020-08-08T17:16:49Z</time>
      </trkpt>
      <trkpt lat="41.1120420" lon="0.6496710">
        <ele>59.9</ele>
        <time>2020-08-08T17:16:50Z</time>
      </trkpt>
      <trkpt lat="41.1120300" lon="0.6496900">
        <ele>59.8</ele>
        <time>2020-08-08T17:16:52Z</time>
      </trkpt>
      <trkpt lat="41.1120170" lon="0.6497050">
        <ele>59.8</ele>
        <time>2020-08-08T17:16:53Z</time>
      </trkpt>
      <trkpt lat="41.1119970" lon="0.6497330">
        <ele>59.7</ele>
        <time>2020-08-08T17:16:55Z</time>
      </trkpt>
      <trkpt lat="41.1119760" lon="0.6497660">
        <ele>59.6</ele>
        <time>2020-08-08T17:16:57Z</time>
      </trkpt>
      <trkpt lat="41.1119390" lon="0.6498150">
        <ele>59.4</ele>
        <time>2020-08-08T17:17:00Z</time>
      </trkpt>
      <trkpt lat="41.1119280" lon="0.6498310">
        <ele>59.4</ele>
        <time>2020-08-08T17:17:01Z</time>
      </trkpt>
      <trkpt lat="41.1119140" lon="0.6498490">
        <ele>59.3</ele>
        <time>2020-08-08T17:17:02Z</time>
      </trkpt>
      <trkpt lat="41.1118830" lon="0.6498890">
        <ele>59.3</ele>
        <time>2020-08-08T17:17:04Z</time>
      </trkpt>
      <trkpt lat="41.1118490" lon="0.6499250">
        <ele>59.2</ele>
        <time>2020-08-08T17:17:05Z</time>
      </trkpt>
      <trkpt lat="41.1118310" lon="0.6499430">
        <ele>59.2</ele>
        <time>2020-08-08T17:17:06Z</time>
      </trkpt>
      <trkpt lat="41.1117950" lon="0.6499720">
        <ele>59.1</ele>
        <time>2020-08-08T17:17:07Z</time>
      </trkpt>
      <trkpt lat="41.1117180" lon="0.6500270">
        <ele>59.1</ele>
        <time>2020-08-08T17:17:09Z</time>
      </trkpt>
      <trkpt lat="41.1116810" lon="0.6500530">
        <ele>59.0</ele>
        <time>2020-08-08T17:17:10Z</time>
      </trkpt>
      <trkpt lat="41.1116160" lon="0.6500880">
        <ele>58.9</ele>
        <time>2020-08-08T17:17:12Z</time>
      </trkpt>
      <trkpt lat="41.1115830" lon="0.6501050">
        <ele>58.9</ele>
        <time>2020-08-08T17:17:13Z</time>
      </trkpt>
      <trkpt lat="41.1115530" lon="0.6501200">
        <ele>58.8</ele>
        <time>2020-08-08T17:17:14Z</time>
      </trkpt>
      <trkpt lat="41.1115200" lon="0.6501350">
        <ele>58.8</ele>
        <time>2020-08-08T17:17:15Z</time>
      </trkpt>
      <trkpt lat="41.1114650" lon="0.6501550">
        <ele>58.7</ele>
        <time>2020-08-08T17:17:17Z</time>
      </trkpt>
      <trkpt lat="41.1114390" lon="0.6501650">
        <ele>58.6</ele>
        <time>2020-08-08T17:17:18Z</time>
      </trkpt>
      <trkpt lat="41.1113850" lon="0.6501910">
        <ele>58.5</ele>
        <time>2020-08-08T17:17:20Z</time>
      </trkpt>
      <trkpt lat="41.1113530" lon="0.6501960">
        <ele>58.4</ele>
        <time>2020-08-08T17:17:21Z</time>
      </trkpt>
      <trkpt lat="41.1113030" lon="0.6502100">
        <ele>58.4</ele>
        <time>2020-08-08T17:17:23Z</time>
      </trkpt>
      <trkpt lat="41.1112590" lon="0.6502320">
        <ele>58.3</ele>
        <time>2020-08-08T17:17:25Z</time>
      </trkpt>
      <trkpt lat="41.1112140" lon="0.6502610">
        <ele>58.2</ele>
        <time>2020-08-08T17:17:27Z</time>
      </trkpt>
      <trkpt lat="41.1111920" lon="0.6502780">
        <ele>58.2</ele>
        <time>2020-08-08T17:17:28Z</time>
      </trkpt>
      <trkpt lat="41.1111780" lon="0.6502940">
        <ele>58.1</ele>
        <time>2020-08-08T17:17:30Z</time>
      </trkpt>
      <trkpt lat="41.1111570" lon="0.6503250">
        <ele>58.1</ele>
        <time>2020-08-08T17:17:31Z</time>
      </trkpt>
      <trkpt lat="41.1111200" lon="0.6503740">
        <ele>58.0</ele>
        <time>2020-08-08T17:17:33Z</time>
      </trkpt>
      <trkpt lat="41.1111060" lon="0.6504000">
        <ele>58.0</ele>
        <time>2020-08-08T17:17:34Z</time>
      </trkpt>
      <trkpt lat="41.1110910" lon="0.6504460">
        <ele>58.0</ele>
        <time>2020-08-08T17:17:36Z</time>
      </trkpt>
      <trkpt lat="41.1110880" lon="0.6504680">
        <ele>58.0</ele>
        <time>2020-08-08T17:17:37Z</time>
      </trkpt>
      <trkpt lat="41.1110820" lon="0.6504920">
        <ele>57.9</ele>
        <time>2020-08-08T17:17:38Z</time>
      </trkpt>
      <trkpt lat="41.1110660" lon="0.6505460">
        <ele>57.9</ele>
        <time>2020-08-08T17:17:40Z</time>
      </trkpt>
      <trkpt lat="41.1110560" lon="0.6505980">
        <ele>57.9</ele>
        <time>2020-08-08T17:17:42Z</time>
      </trkpt>
      <trkpt lat="41.1110510" lon="0.6506420">
        <ele>57.9</ele>
        <time>2020-08-08T17:17:44Z</time>
      </trkpt>
      <trkpt lat="41.1110450" lon="0.6506630">
        <ele>57.9</ele>
        <time>2020-08-08T17:17:45Z</time>
      </trkpt>
      <trkpt lat="41.1110380" lon="0.6506830">
        <ele>57.9</ele>
        <time>2020-08-08T17:17:46Z</time>
      </trkpt>
      <trkpt lat="41.1110310" lon="0.6507010">
        <ele>57.9</ele>
        <time>2020-08-08T17:17:47Z</time>
      </trkpt>
      <trkpt lat="41.1110100" lon="0.6507420">
        <ele>57.9</ele>
        <time>2020-08-08T17:17:49Z</time>
      </trkpt>
      <trkpt lat="41.1109840" lon="0.6507820">
        <ele>58.0</ele>
        <time>2020-08-08T17:17:51Z</time>
      </trkpt>
      <trkpt lat="41.1109630" lon="0.6508130">
        <ele>58.0</ele>
        <time>2020-08-08T17:17:52Z</time>
      </trkpt>
      <trkpt lat="41.1109560" lon="0.6508210">
        <ele>58.0</ele>
        <time>2020-08-08T17:17:53Z</time>
      </trkpt>
      <trkpt lat="41.1109290" lon="0.6508520">
        <ele>58.1</ele>
        <time>2020-08-08T17:17:55Z</time>
      </trkpt>
      <trkpt lat="41.1109150" lon="0.6508660">
        <ele>58.1</ele>
        <time>2020-08-08T17:17:56Z</time>
      </trkpt>
      <trkpt lat="41.1109000" lon="0.6508820">
        <ele>58.1</ele>
        <time>2020-08-08T17:17:57Z</time>
      </trkpt>
      <trkpt lat="41.1108890" lon="0.6508990">
        <ele>58.2</ele>
        <time>2020-08-08T17:17:58Z</time>
      </trkpt>
      <trkpt lat="41.1108790" lon="0.6509160">
        <ele>58.2</ele>
        <time>2020-08-08T17:17:59Z</time>
      </trkpt>
      <trkpt lat="41.1108690" lon="0.6509350">
        <ele>58.2</ele>
        <time>2020-08-08T17:18:00Z</time>
      </trkpt>
      <trkpt lat="41.1108550" lon="0.6509700">
        <ele>58.3</ele>
        <time>2020-08-08T17:18:02Z</time>
      </trkpt>
      <trkpt lat="41.1108480" lon="0.6509840">
        <ele>58.3</ele>
        <time>2020-08-08T17:18:03Z</time>
      </trkpt>
      <trkpt lat="41.1108290" lon="0.6510100">
        <ele>58.4</ele>
        <time>2020-08-08T17:18:05Z</time>
      </trkpt>
      <trkpt lat="41.1108170" lon="0.6510250">
        <ele>58.4</ele>
        <time>2020-08-08T17:18:06Z</time>
      </trkpt>
      <trkpt lat="41.1108030" lon="0.6510400">
        <ele>58.5</ele>
        <time>2020-08-08T17:18:07Z</time>
      </trkpt>
      <trkpt lat="41.1107870" lon="0.6510550">
        <ele>58.5</ele>
        <time>2020-08-08T17:18:08Z</time>
      </trkpt>
      <trkpt lat="41.1107530" lon="0.6510770">
        <ele>58.7</ele>
        <time>2020-08-08T17:18:10Z</time>
      </trkpt>
      <trkpt lat="41.1107190" lon="0.6510970">
        <ele>58.8</ele>
        <time>2020-08-08T17:18:12Z</time>
      </trkpt>
      <trkpt lat="41.1106940" lon="0.6511160">
        <ele>58.9</ele>
        <time>2020-08-08T17:18:13Z</time>
      </trkpt>
      <trkpt lat="41.1106870" lon="0.6511220">
        <ele>58.9</ele>
        <time>2020-08-08T17:18:14Z</time>
      </trkpt>
      <trkpt lat="41.1106530" lon="0.6511530">
        <ele>59.1</ele>
        <time>2020-08-08T17:18:16Z</time>
      </trkpt>
      <trkpt lat="41.1106430" lon="0.6511650">
        <ele>59.1</ele>
        <time>2020-08-08T17:18:17Z</time>
      </trkpt>
      <trkpt lat="41.1106330" lon="0.6511760">
        <ele>59.1</ele>
        <time>2020-08-08T17:18:18Z</time>
      </trkpt>
      <trkpt lat="41.1106170" lon="0.6511900">
        <ele>59.2</ele>
        <time>2020-08-08T17:18:19Z</time>
      </trkpt>
      <trkpt lat="41.1105850" lon="0.6512130">
        <ele>59.3</ele>
        <time>2020-08-08T17:18:21Z</time>
      </trkpt>
      <trkpt lat="41.1105560" lon="0.6512340">
        <ele>59.4</ele>
        <time>2020-08-08T17:18:22Z</time>
      </trkpt>
      <trkpt lat="41.1105460" lon="0.6512410">
        <ele>59.4</ele>
        <time>2020-08-08T17:18:23Z</time>
      </trkpt>
      <trkpt lat="41.1105060" lon="0.6512720">
        <ele>59.5</ele>
        <time>2020-08-08T17:18:25Z</time>
      </trkpt>
      <trkpt lat="41.1104770" lon="0.6512960">
        <ele>59.6</ele>
        <time>2020-08-08T17:18:26Z</time>
      </trkpt>
      <trkpt lat="41.1104680" lon="0.6513020">
        <ele>59.6</ele>
        <time>2020-08-08T17:18:27Z</time>
      </trkpt>
      <trkpt lat="41.1104280" lon="0.6513310">
        <ele>59.7</ele>
        <time>2020-08-08T17:18:29Z</time>
      </trkpt>
      <trkpt lat="41.1104080" lon="0.6513460">
        <ele>59.8</ele>
        <time>2020-08-08T17:18:30Z</time>
      </trkpt>
      <trkpt lat="41.1104180" lon="0.6513390">
        <ele>59.8</ele>
        <time>2020-08-08T17:18:32Z</time>
      </trkpt>
      <trkpt lat="41.1104390" lon="0.6513250">
        <ele>59.8</ele>
        <time>2020-08-08T17:18:33Z</time>
      </trkpt>
      <trkpt lat="41.1104730" lon="0.6513020">
        <ele>59.9</ele>
        <time>2020-08-08T17:18:35Z</time>
      </trkpt>
      <trkpt lat="41.1104620" lon="0.6513080">
        <ele>59.9</ele>
        <time>2020-08-08T17:18:36Z</time>
      </trkpt>
      <trkpt lat="41.1104510" lon="0.6513140">
        <ele>59.9</ele>
        <time>2020-08-08T17:18:38Z</time>
      </trkpt>
      <trkpt lat="41.1104410" lon="0.6513200">
        <ele>59.9</ele>
        <time>2020-08-08T17:18:40Z</time>
      </trkpt>
      <trkpt lat="41.1104300" lon="0.6513250">
        <ele>60.0</ele>
        <time>2020-08-08T17:18:42Z</time>
      </trkpt>
      <trkpt lat="41.1104200" lon="0.6513310">
        <ele>60.0</ele>
        <time>2020-08-08T17:18:44Z</time>
      </trkpt>
      <trkpt lat="41.1104090" lon="0.6513370">
        <ele>60.0</ele>
        <time>2020-08-08T17:18:45Z</time>
      </trkpt>
      <trkpt lat="41.1103920" lon="0.6513480">
        <ele>60.0</ele>
        <time>2020-08-08T17:18:46Z</time>
      </trkpt>
      <trkpt lat="41.1103800" lon="0.6513560">
        <ele>60.0</ele>
        <time>2020-08-08T17:18:47Z</time>
      </trkpt>
      <trkpt lat="41.1103490" lon="0.6513770">
        <ele>60.1</ele>
        <time>2020-08-08T17:18:49Z</time>
      </trkpt>
      <trkpt lat="41.1103230" lon="0.6513970">
        <ele>60.1</ele>
        <time>2020-08-08T17:18:50Z</time>
      </trkpt>
      <trkpt lat="41.1102850" lon="0.6514320">
        <ele>60.2</ele>
        <time>2020-08-08T17:18:52Z</time>
      </trkpt>
      <trkpt lat="41.1102630" lon="0.6514520">
        <ele>60.2</ele>
        <time>2020-08-08T17:18:53Z</time>
      </trkpt>
      <trkpt lat="41.1102280" lon="0.6514840">
        <ele>60.2</ele>
        <time>2020-08-08T17:18:55Z</time>
      </trkpt>
      <trkpt lat="41.1101980" lon="0.6515150">
        <ele>60.2</ele>
        <time>2020-08-08T17:18:56Z</time>
      </trkpt>
      <trkpt lat="41.1101870" lon="0.6515250">
        <ele>60.2</ele>
        <time>2020-08-08T17:18:57Z</time>
      </trkpt>
      <trkpt lat="41.1100600" lon="0.6516560">
        <ele>60.2</ele>
        <time>2020-08-08T17:18:58Z</time>
      </trkpt>
      <trkpt lat="41.1099540" lon="0.6517690">
        <ele>59.8</ele>
        <time>2020-08-08T17:19:00Z</time>
      </trkpt>
      <trkpt lat="41.1098570" lon="0.6518710">
        <ele>59.5</ele>
        <time>2020-08-08T17:19:01Z</time>
      </trkpt>
      <trkpt lat="41.1097670" lon="0.6519650">
        <ele>59.3</ele>
        <time>2020-08-08T17:19:02Z</time>
      </trkpt>
      <trkpt lat="41.1095860" lon="0.6521660">
        <ele>58.9</ele>
        <time>2020-08-08T17:19:04Z</time>
      </trkpt>
      <trkpt lat="41.1095060" lon="0.6522540">
        <ele>58.8</ele>
        <time>2020-08-08T17:19:05Z</time>
      </trkpt>
      <trkpt lat="41.1093710" lon="0.6523990">
        <ele>58.6</ele>
        <time>2020-08-08T17:19:07Z</time>
      </trkpt>
      <trkpt lat="41.1093120" lon="0.6524620">
        <ele>58.5</ele>
        <time>2020-08-08T17:19:08Z</time>
      </trkpt>
      <trkpt lat="41.1092060" lon="0.6525700">
        <ele>58.5</ele>
        <time>2020-08-08T17:19:10Z</time>
      </trkpt>
      <trkpt lat="41.1091600" lon="0.6526170">
        <ele>58.4</ele>
        <time>2020-08-08T17:19:11Z</time>
      </trkpt>
      <trkpt lat="41.1091140" lon="0.6526620">
        <ele>58.4</ele>
        <time>2020-08-08T17:19:12Z</time>
      </trkpt>
      <trkpt lat="41.1090300" lon="0.6527510">
        <ele>58.4</ele>
        <time>2020-08-08T17:19:14Z</time>
      </trkpt>
      <trkpt lat="41.1089860" lon="0.6527940">
        <ele>58.4</ele>
        <time>2020-08-08T17:19:15Z</time>
      </trkpt>
      <trkpt lat="41.1089050" lon="0.6528690">
        <ele>58.4</ele>
        <time>2020-08-08T17:19:17Z</time>
      </trkpt>
      <trkpt lat="41.1088650" lon="0.6529030">
        <ele>58.4</ele>
        <time>2020-08-08T17:19:18Z</time>
      </trkpt>
      <trkpt lat="41.1087810" lon="0.6529700">
        <ele>58.5</ele>
        <time>2020-08-08T17:19:20Z</time>
      </trkpt>
      <trkpt lat="41.1087390" lon="0.6530020">
        <ele>58.6</ele>
        <time>2020-08-08T17:19:21Z</time>
      </trkpt>
      <trkpt lat="41.1086960" lon="0.6530340">
        <ele>58.6</ele>
        <time>2020-08-08T17:19:22Z</time>
      </trkpt>
      <trkpt lat="41.1086100" lon="0.6530990">
        <ele>58.6</ele>
        <time>2020-08-08T17:19:24Z</time>
      </trkpt>
      <trkpt lat="41.1085290" lon="0.6531610">
        <ele>58.6</ele>
        <time>2020-08-08T17:19:26Z</time>
      </trkpt>
      <trkpt lat="41.1084920" lon="0.6531850">
        <ele>58.5</ele>
        <time>2020-08-08T17:19:27Z</time>
      </trkpt>
      <trkpt lat="41.1084570" lon="0.6532080">
        <ele>58.5</ele>
        <time>2020-08-08T17:19:28Z</time>
      </trkpt>
      <trkpt lat="41.1084210" lon="0.6532360">
        <ele>58.5</ele>
        <time>2020-08-08T17:19:29Z</time>
      </trkpt>
      <trkpt lat="41.1083480" lon="0.6532870">
        <ele>58.5</ele>
        <time>2020-08-08T17:19:31Z</time>
      </trkpt>
      <trkpt lat="41.1083110" lon="0.6533120">
        <ele>58.6</ele>
        <time>2020-08-08T17:19:32Z</time>
      </trkpt>
      <trkpt lat="41.1082320" lon="0.6533700">
        <ele>58.6</ele>
        <time>2020-08-08T17:19:34Z</time>
      </trkpt>
      <trkpt lat="41.1081990" lon="0.6534010">
        <ele>58.6</ele>
        <time>2020-08-08T17:19:35Z</time>
      </trkpt>
      <trkpt lat="41.1081390" lon="0.6534680">
        <ele>58.7</ele>
        <time>2020-08-08T17:19:37Z</time>
      </trkpt>
      <trkpt lat="41.1081060" lon="0.6535020">
        <ele>58.7</ele>
        <time>2020-08-08T17:19:38Z</time>
      </trkpt>
      <trkpt lat="41.1080700" lon="0.6535360">
        <ele>58.8</ele>
        <time>2020-08-08T17:19:39Z</time>
      </trkpt>
      <trkpt lat="41.1080300" lon="0.6535700">
        <ele>58.8</ele>
        <time>2020-08-08T17:19:40Z</time>
      </trkpt>
      <trkpt lat="41.1079550" lon="0.6536290">
        <ele>58.9</ele>
        <time>2020-08-08T17:19:42Z</time>
      </trkpt>
      <trkpt lat="41.1079190" lon="0.6536570">
        <ele>58.9</ele>
        <time>2020-08-08T17:19:43Z</time>
      </trkpt>
      <trkpt lat="41.1078460" lon="0.6537170">
        <ele>58.9</ele>
        <time>2020-08-08T17:19:45Z</time>
      </trkpt>
      <trkpt lat="41.1078080" lon="0.6537470">
        <ele>58.9</ele>
        <time>2020-08-08T17:19:46Z</time>
      </trkpt>
      <trkpt lat="41.1077650" lon="0.6537790">
        <ele>58.9</ele>
        <time>2020-08-08T17:19:47Z</time>
      </trkpt>
      <trkpt lat="41.1077230" lon="0.6538120">
        <ele>58.9</ele>
        <time>2020-08-08T17:19:48Z</time>
      </trkpt>
      <trkpt lat="41.1076390" lon="0.6538720">
        <ele>59.0</ele>
        <time>2020-08-08T17:19:50Z</time>
      </trkpt>
      <trkpt lat="41.1076000" lon="0.6538960">
        <ele>59.0</ele>
        <time>2020-08-08T17:19:51Z</time>
      </trkpt>
      <trkpt lat="41.1075630" lon="0.6539190">
        <ele>59.1</ele>
        <time>2020-08-08T17:19:52Z</time>
      </trkpt>
      <trkpt lat="41.1074910" lon="0.6539800">
        <ele>59.1</ele>
        <time>2020-08-08T17:19:54Z</time>
      </trkpt>
      <trkpt lat="41.1074560" lon="0.6540130">
        <ele>59.1</ele>
        <time>2020-08-08T17:19:55Z</time>
      </trkpt>
      <trkpt lat="41.1073800" lon="0.6540850">
        <ele>59.1</ele>
        <time>2020-08-08T17:19:57Z</time>
      </trkpt>
      <trkpt lat="41.1073390" lon="0.6541210">
        <ele>59.1</ele>
        <time>2020-08-08T17:19:58Z</time>
      </trkpt>
      <trkpt lat="41.1072990" lon="0.6541560">
        <ele>59.1</ele>
        <time>2020-08-08T17:19:59Z</time>
      </trkpt>
      <trkpt lat="41.1072170" lon="0.6542210">
        <ele>59.0</ele>
        <time>2020-08-08T17:20:01Z</time>
      </trkpt>
      <trkpt lat="41.1071750" lon="0.6542550">
        <ele>59.0</ele>
        <time>2020-08-08T17:20:02Z</time>
      </trkpt>
      <trkpt lat="41.1071340" lon="0.6542880">
        <ele>59.0</ele>
        <time>2020-08-08T17:20:03Z</time>
      </trkpt>
      <trkpt lat="41.1067530" lon="0.6545740">
        <ele>58.8</ele>
        <time>2020-08-08T17:20:12Z</time>
      </trkpt>
      <trkpt lat="41.1066760" lon="0.6546400">
        <ele>58.7</ele>
        <time>2020-08-08T17:20:14Z</time>
      </trkpt>
      <trkpt lat="41.1066470" lon="0.6546620">
        <ele>58.7</ele>
        <time>2020-08-08T17:20:15Z</time>
      </trkpt>
      <trkpt lat="41.1066140" lon="0.6546910">
        <ele>58.6</ele>
        <time>2020-08-08T17:20:16Z</time>
      </trkpt>
      <trkpt lat="41.1065790" lon="0.6547250">
        <ele>58.6</ele>
        <time>2020-08-08T17:20:17Z</time>
      </trkpt>
      <trkpt lat="41.1065420" lon="0.6547640">
        <ele>58.5</ele>
        <time>2020-08-08T17:20:18Z</time>
      </trkpt>
      <trkpt lat="41.1064690" lon="0.6548380">
        <ele>58.4</ele>
        <time>2020-08-08T17:20:20Z</time>
      </trkpt>
      <trkpt lat="41.1064310" lon="0.6548730">
        <ele>58.4</ele>
        <time>2020-08-08T17:20:21Z</time>
      </trkpt>
      <trkpt lat="41.1063930" lon="0.6549050">
        <ele>58.4</ele>
        <time>2020-08-08T17:20:22Z</time>
      </trkpt>
      <trkpt lat="41.1063530" lon="0.6549370">
        <ele>58.4</ele>
        <time>2020-08-08T17:20:23Z</time>
      </trkpt>
      <trkpt lat="41.1062780" lon="0.6549950">
        <ele>58.3</ele>
        <time>2020-08-08T17:20:25Z</time>
      </trkpt>
      <trkpt lat="41.1062040" lon="0.6550550">
        <ele>58.2</ele>
        <time>2020-08-08T17:20:28Z</time>
      </trkpt>
      <trkpt lat="41.1061230" lon="0.6551200">
        <ele>58.2</ele>
        <time>2020-08-08T17:20:29Z</time>
      </trkpt>
      <trkpt lat="41.1060840" lon="0.6551540">
        <ele>58.1</ele>
        <time>2020-08-08T17:20:30Z</time>
      </trkpt>
      <trkpt lat="41.1060120" lon="0.6552150">
        <ele>58.0</ele>
        <time>2020-08-08T17:20:32Z</time>
      </trkpt>
      <trkpt lat="41.1059390" lon="0.6552720">
        <ele>57.9</ele>
        <time>2020-08-08T17:20:34Z</time>
      </trkpt>
      <trkpt lat="41.1059040" lon="0.6552980">
        <ele>57.8</ele>
        <time>2020-08-08T17:20:35Z</time>
      </trkpt>
      <trkpt lat="41.1058330" lon="0.6553520">
        <ele>57.7</ele>
        <time>2020-08-08T17:20:37Z</time>
      </trkpt>
      <trkpt lat="41.1057960" lon="0.6553790">
        <ele>57.7</ele>
        <time>2020-08-08T17:20:38Z</time>
      </trkpt>
      <trkpt lat="41.1057290" lon="0.6554280">
        <ele>57.6</ele>
        <time>2020-08-08T17:20:40Z</time>
      </trkpt>
      <trkpt lat="41.1056920" lon="0.6554580">
        <ele>57.6</ele>
        <time>2020-08-08T17:20:41Z</time>
      </trkpt>
      <trkpt lat="41.1056570" lon="0.6554890">
        <ele>57.5</ele>
        <time>2020-08-08T17:20:42Z</time>
      </trkpt>
      <trkpt lat="41.1056270" lon="0.6555150">
        <ele>57.5</ele>
        <time>2020-08-08T17:20:43Z</time>
      </trkpt>
      <trkpt lat="41.1055550" lon="0.6555780">
        <ele>57.4</ele>
        <time>2020-08-08T17:20:45Z</time>
      </trkpt>
      <trkpt lat="41.1054820" lon="0.6556360">
        <ele>57.4</ele>
        <time>2020-08-08T17:20:47Z</time>
      </trkpt>
      <trkpt lat="41.1054480" lon="0.6556580">
        <ele>57.4</ele>
        <time>2020-08-08T17:20:48Z</time>
      </trkpt>
      <trkpt lat="41.1053780" lon="0.6557000">
        <ele>57.4</ele>
        <time>2020-08-08T17:20:50Z</time>
      </trkpt>
      <trkpt lat="41.1053130" lon="0.6557340">
        <ele>57.4</ele>
        <time>2020-08-08T17:20:52Z</time>
      </trkpt>
      <trkpt lat="41.1052800" lon="0.6557530">
        <ele>57.5</ele>
        <time>2020-08-08T17:20:53Z</time>
      </trkpt>
      <trkpt lat="41.1052160" lon="0.6557950">
        <ele>57.6</ele>
        <time>2020-08-08T17:20:55Z</time>
      </trkpt>
      <trkpt lat="41.1051870" lon="0.6558180">
        <ele>57.6</ele>
        <time>2020-08-08T17:20:56Z</time>
      </trkpt>
      <trkpt lat="41.1051570" lon="0.6558420">
        <ele>57.7</ele>
        <time>2020-08-08T17:20:57Z</time>
      </trkpt>
      <trkpt lat="41.1051270" lon="0.6558670">
        <ele>57.8</ele>
        <time>2020-08-08T17:20:58Z</time>
      </trkpt>
      <trkpt lat="41.1050790" lon="0.6558930">
        <ele>57.9</ele>
        <time>2020-08-08T17:21:00Z</time>
      </trkpt>
      <trkpt lat="41.1050460" lon="0.6558890">
        <ele>58.0</ele>
        <time>2020-08-08T17:21:01Z</time>
      </trkpt>
      <trkpt lat="41.1050350" lon="0.6558880">
        <ele>58.0</ele>
        <time>2020-08-08T17:21:02Z</time>
      </trkpt>
      <trkpt lat="41.1050130" lon="0.6558820">
        <ele>57.9</ele>
        <time>2020-08-08T17:21:03Z</time>
      </trkpt>
      <trkpt lat="41.1049770" lon="0.6558510">
        <ele>57.8</ele>
        <time>2020-08-08T17:21:05Z</time>
      </trkpt>
      <trkpt lat="41.1049850" lon="0.6558010">
        <ele>57.7</ele>
        <time>2020-08-08T17:21:07Z</time>
      </trkpt>
      <trkpt lat="41.1050090" lon="0.6557640">
        <ele>57.6</ele>
        <time>2020-08-08T17:21:08Z</time>
      </trkpt>
      <trkpt lat="41.1050150" lon="0.6557530">
        <ele>57.5</ele>
        <time>2020-08-08T17:21:09Z</time>
      </trkpt>
      <trkpt lat="41.1050240" lon="0.6557170">
        <ele>57.5</ele>
        <time>2020-08-08T17:21:11Z</time>
      </trkpt>
      <trkpt lat="41.1050240" lon="0.6557040">
        <ele>57.4</ele>
        <time>2020-08-08T17:21:12Z</time>
      </trkpt>
      <trkpt lat="41.1050230" lon="0.6556940">
        <ele>57.4</ele>
        <time>2020-08-08T17:21:13Z</time>
      </trkpt>
      <trkpt lat="41.1050090" lon="0.6556630">
        <ele>57.3</ele>
        <time>2020-08-08T17:21:15Z</time>
      </trkpt>
      <trkpt lat="41.1049880" lon="0.6556370">
        <ele>57.2</ele>
        <time>2020-08-08T17:21:17Z</time>
      </trkpt>
      <trkpt lat="41.1049820" lon="0.6556280">
        <ele>57.2</ele>
        <time>2020-08-08T17:21:18Z</time>
      </trkpt>
      <trkpt lat="41.1049700" lon="0.6556110">
        <ele>57.1</ele>
        <time>2020-08-08T17:21:19Z</time>
      </trkpt>
      <trkpt lat="41.1049450" lon="0.6555720">
        <ele>57.0</ele>
        <time>2020-08-08T17:21:21Z</time>
      </trkpt>
      <trkpt lat="41.1048880" lon="0.6554830">
        <ele>56.7</ele>
        <time>2020-08-08T17:21:23Z</time>
      </trkpt>
      <trkpt lat="41.1048510" lon="0.6554200">
        <ele>56.4</ele>
        <time>2020-08-08T17:21:24Z</time>
      </trkpt>
      <trkpt lat="41.1048150" lon="0.6553570">
        <ele>56.2</ele>
        <time>2020-08-08T17:21:25Z</time>
      </trkpt>
      <trkpt lat="41.1047560" lon="0.6552210">
        <ele>55.5</ele>
        <time>2020-08-08T17:21:27Z</time>
      </trkpt>
      <trkpt lat="41.1047300" lon="0.6551760">
        <ele>55.2</ele>
        <time>2020-08-08T17:21:28Z</time>
      </trkpt>
      <trkpt lat="41.1046980" lon="0.6551370">
        <ele>55.0</ele>
        <time>2020-08-08T17:21:29Z</time>
      </trkpt>
      <trkpt lat="41.1046680" lon="0.6550910">
        <ele>54.7</ele>
        <time>2020-08-08T17:21:31Z</time>
      </trkpt>
      <trkpt lat="41.1046420" lon="0.6550570">
        <ele>54.5</ele>
        <time>2020-08-08T17:21:32Z</time>
      </trkpt>
      <trkpt lat="41.1046320" lon="0.6550460">
        <ele>54.5</ele>
        <time>2020-08-08T17:21:33Z</time>
      </trkpt>
      <trkpt lat="41.1045820" lon="0.6549560">
        <ele>54.2</ele>
        <time>2020-08-08T17:21:35Z</time>
      </trkpt>
      <trkpt lat="41.1045420" lon="0.6548910">
        <ele>54.0</ele>
        <time>2020-08-08T17:21:36Z</time>
      </trkpt>
      <trkpt lat="41.1045200" lon="0.6548510">
        <ele>53.8</ele>
        <time>2020-08-08T17:21:37Z</time>
      </trkpt>
      <trkpt lat="41.1044860" lon="0.6547920">
        <ele>53.6</ele>
        <time>2020-08-08T17:21:39Z</time>
      </trkpt>
      <trkpt lat="41.1044550" lon="0.6547430">
        <ele>53.5</ele>
        <time>2020-08-08T17:21:40Z</time>
      </trkpt>
      <trkpt lat="41.1044130" lon="0.6546780">
        <ele>53.2</ele>
        <time>2020-08-08T17:21:42Z</time>
      </trkpt>
      <trkpt lat="41.1043910" lon="0.6546490">
        <ele>53.1</ele>
        <time>2020-08-08T17:21:43Z</time>
      </trkpt>
      <trkpt lat="41.1043700" lon="0.6545990">
        <ele>52.9</ele>
        <time>2020-08-08T17:21:45Z</time>
      </trkpt>
      <trkpt lat="41.1043610" lon="0.6545770">
        <ele>52.8</ele>
        <time>2020-08-08T17:21:46Z</time>
      </trkpt>
      <trkpt lat="41.1043520" lon="0.6545470">
        <ele>52.7</ele>
        <time>2020-08-08T17:21:48Z</time>
      </trkpt>
      <trkpt lat="41.1043460" lon="0.6545400">
        <ele>52.7</ele>
        <time>2020-08-08T17:21:49Z</time>
      </trkpt>
      <trkpt lat="41.1043430" lon="0.6545430">
        <ele>52.7</ele>
        <time>2020-08-08T17:21:51Z</time>
      </trkpt>
      <trkpt lat="41.1043390" lon="0.6545460">
        <ele>52.6</ele>
        <time>2020-08-08T17:21:53Z</time>
      </trkpt>
      <trkpt lat="41.1043360" lon="0.6545490">
        <ele>52.6</ele>
        <time>2020-08-08T17:21:54Z</time>
      </trkpt>
      <trkpt lat="41.1043330" lon="0.6545520">
        <ele>52.6</ele>
        <time>2020-08-08T17:21:55Z</time>
      </trkpt>
      <trkpt lat="41.1043300" lon="0.6545560">
        <ele>52.6</ele>
        <time>2020-08-08T17:21:56Z</time>
      </trkpt>
      <trkpt lat="41.1043270" lon="0.6545590">
        <ele>52.6</ele>
        <time>2020-08-08T17:21:57Z</time>
      </trkpt>
      <trkpt lat="41.1043240" lon="0.6545620">
        <ele>52.6</ele>
        <time>2020-08-08T17:21:58Z</time>
      </trkpt>
      <trkpt lat="41.1043200" lon="0.6545650">
        <ele>52.5</ele>
        <time>2020-08-08T17:25:09Z</time>
      </trkpt>
      <trkpt lat="41.1043170" lon="0.6545680">
        <ele>52.5</ele>
        <time>2020-08-08T17:25:10Z</time>
      </trkpt>
      <trkpt lat="41.1043140" lon="0.6545710">
        <ele>52.5</ele>
        <time>2020-08-08T17:25:11Z</time>
      </trkpt>
      <trkpt lat="41.1043070" lon="0.6545850">
        <ele>52.5</ele>
        <time>2020-08-08T17:25:12Z</time>
      </trkpt>
      <trkpt lat="41.1042880" lon="0.6546100">
        <ele>52.3</ele>
        <time>2020-08-08T17:25:14Z</time>
      </trkpt>
      <trkpt lat="41.1042630" lon="0.6546260">
        <ele>52.2</ele>
        <time>2020-08-08T17:25:15Z</time>
      </trkpt>
      <trkpt lat="41.1042190" lon="0.6546050">
        <ele>52.0</ele>
        <time>2020-08-08T17:25:20Z</time>
      </trkpt>
      <trkpt lat="41.1043160" lon="0.6544500">
        <ele>51.4</ele>
        <time>2020-08-08T17:25:26Z</time>
      </trkpt>
      <trkpt lat="41.1043150" lon="0.6544370">
        <ele>51.3</ele>
        <time>2020-08-08T17:25:27Z</time>
      </trkpt>
      <trkpt lat="41.1043080" lon="0.6543830">
        <ele>51.1</ele>
        <time>2020-08-08T17:25:29Z</time>
      </trkpt>
      <trkpt lat="41.1042860" lon="0.6543180">
        <ele>50.9</ele>
        <time>2020-08-08T17:25:32Z</time>
      </trkpt>
      <trkpt lat="41.1042600" lon="0.6542420">
        <ele>50.6</ele>
        <time>2020-08-08T17:25:33Z</time>
      </trkpt>
      <trkpt lat="41.1041120" lon="0.6540630">
        <ele>49.6</ele>
        <time>2020-08-08T17:25:36Z</time>
      </trkpt>
      <trkpt lat="41.1039030" lon="0.6538660">
        <ele>48.6</ele>
        <time>2020-08-08T17:25:37Z</time>
      </trkpt>
      <trkpt lat="41.1038530" lon="0.6538050">
        <ele>48.3</ele>
        <time>2020-08-08T17:25:39Z</time>
      </trkpt>
      <trkpt lat="41.1038040" lon="0.6537360">
        <ele>48.0</ele>
        <time>2020-08-08T17:25:40Z</time>
      </trkpt>
      <trkpt lat="41.1037580" lon="0.6536650">
        <ele>47.7</ele>
        <time>2020-08-08T17:25:41Z</time>
      </trkpt>
      <trkpt lat="41.1038730" lon="0.6537420">
        <ele>47.1</ele>
        <time>2020-08-08T17:25:43Z</time>
      </trkpt>
      <trkpt lat="41.1039350" lon="0.6537810">
        <ele>46.9</ele>
        <time>2020-08-08T17:25:45Z</time>
      </trkpt>
      <trkpt lat="41.1039510" lon="0.6538000">
        <ele>46.8</ele>
        <time>2020-08-08T17:25:46Z</time>
      </trkpt>
      <trkpt lat="41.1039490" lon="0.6537920">
        <ele>46.7</ele>
        <time>2020-08-08T17:25:47Z</time>
      </trkpt>
      <trkpt lat="41.1039520" lon="0.6537980">
        <ele>46.7</ele>
        <time>2020-08-08T17:25:48Z</time>
      </trkpt>
      <trkpt lat="41.1039470" lon="0.6537980">
        <ele>46.7</ele>
        <time>2020-08-08T17:25:49Z</time>
      </trkpt>
      <trkpt lat="41.1039230" lon="0.6537820">
        <ele>46.6</ele>
        <time>2020-08-08T17:25:51Z</time>
      </trkpt>
      <trkpt lat="41.1038970" lon="0.6537650">
        <ele>46.5</ele>
        <time>2020-08-08T17:25:53Z</time>
      </trkpt>
      <trkpt lat="41.1038760" lon="0.6537480">
        <ele>46.4</ele>
        <time>2020-08-08T17:25:54Z</time>
      </trkpt>
      <trkpt lat="41.1038510" lon="0.6537110">
        <ele>46.2</ele>
        <time>2020-08-08T17:25:57Z</time>
      </trkpt>
      <trkpt lat="41.1038420" lon="0.6536970">
        <ele>46.2</ele>
        <time>2020-08-08T17:25:58Z</time>
      </trkpt>
      <trkpt lat="41.1038260" lon="0.6536780">
        <ele>46.1</ele>
        <time>2020-08-08T17:25:59Z</time>
      </trkpt>
      <trkpt lat="41.1036700" lon="0.6535060">
        <ele>45.1</ele>
        <time>2020-08-08T17:26:00Z</time>
      </trkpt>
      <trkpt lat="41.1035930" lon="0.6534310">
        <ele>44.8</ele>
        <time>2020-08-08T17:26:02Z</time>
      </trkpt>
      <trkpt lat="41.1033740" lon="0.6532750">
        <ele>43.6</ele>
        <time>2020-08-08T17:26:07Z</time>
      </trkpt>
      <trkpt lat="41.1033200" lon="0.6532130">
        <ele>43.2</ele>
        <time>2020-08-08T17:26:09Z</time>
      </trkpt>
      <trkpt lat="41.1032920" lon="0.6531870">
        <ele>43.1</ele>
        <time>2020-08-08T17:26:10Z</time>
      </trkpt>
      <trkpt lat="41.1032490" lon="0.6531270">
        <ele>42.8</ele>
        <time>2020-08-08T17:26:12Z</time>
      </trkpt>
      <trkpt lat="41.1032270" lon="0.6530840">
        <ele>42.6</ele>
        <time>2020-08-08T17:26:14Z</time>
      </trkpt>
      <trkpt lat="41.1032050" lon="0.6530180">
        <ele>42.4</ele>
        <time>2020-08-08T17:26:16Z</time>
      </trkpt>
      <trkpt lat="41.1031890" lon="0.6529760">
        <ele>42.2</ele>
        <time>2020-08-08T17:26:17Z</time>
      </trkpt>
      <trkpt lat="41.1031810" lon="0.6529590">
        <ele>42.2</ele>
        <time>2020-08-08T17:26:18Z</time>
      </trkpt>
      <trkpt lat="41.1031670" lon="0.6529420">
        <ele>42.1</ele>
        <time>2020-08-08T17:26:20Z</time>
      </trkpt>
      <trkpt lat="41.1031590" lon="0.6529360">
        <ele>42.1</ele>
        <time>2020-08-08T17:26:22Z</time>
      </trkpt>
      <trkpt lat="41.1031510" lon="0.6529300">
        <ele>42.0</ele>
        <time>2020-08-08T17:26:24Z</time>
      </trkpt>
      <trkpt lat="41.1031480" lon="0.6529280">
        <ele>42.0</ele>
        <time>2020-08-08T17:26:25Z</time>
      </trkpt>
      <trkpt lat="41.1031370" lon="0.6529170">
        <ele>42.0</ele>
        <time>2020-08-08T17:26:27Z</time>
      </trkpt>
      <trkpt lat="41.1031330" lon="0.6529130">
        <ele>42.0</ele>
        <time>2020-08-08T17:26:28Z</time>
      </trkpt>
      <trkpt lat="41.1031290" lon="0.6529080">
        <ele>41.9</ele>
        <time>2020-08-08T17:26:29Z</time>
      </trkpt>
      <trkpt lat="41.1031230" lon="0.6529020">
        <ele>41.9</ele>
        <time>2020-08-08T17:26:31Z</time>
      </trkpt>
      <trkpt lat="41.1029760" lon="0.6527480">
        <ele>41.3</ele>
        <time>2020-08-08T17:26:37Z</time>
      </trkpt>
      <trkpt lat="41.1029220" lon="0.6527010">
        <ele>41.1</ele>
        <time>2020-08-08T17:26:39Z</time>
      </trkpt>
      <trkpt lat="41.1029110" lon="0.6526950">
        <ele>41.1</ele>
        <time>2020-08-08T17:26:40Z</time>
      </trkpt>
      <trkpt lat="41.1029060" lon="0.6526930">
        <ele>41.1</ele>
        <time>2020-08-08T17:26:42Z</time>
      </trkpt>
      <trkpt lat="41.1029000" lon="0.6526910">
        <ele>41.0</ele>
        <time>2020-08-08T17:26:43Z</time>
      </trkpt>
      <trkpt lat="41.1028950" lon="0.6526890">
        <ele>41.0</ele>
        <time>2020-08-08T17:26:44Z</time>
      </trkpt>
      <trkpt lat="41.1028890" lon="0.6526870">
        <ele>41.0</ele>
        <time>2020-08-08T17:26:46Z</time>
      </trkpt>
      <trkpt lat="41.1028840" lon="0.6526850">
        <ele>41.0</ele>
        <time>2020-08-08T17:26:47Z</time>
      </trkpt>
      <trkpt lat="41.1028780" lon="0.6526830">
        <ele>41.0</ele>
        <time>2020-08-08T17:26:49Z</time>
      </trkpt>
      <trkpt lat="41.1028720" lon="0.6526810">
        <ele>40.9</ele>
        <time>2020-08-08T17:26:50Z</time>
      </trkpt>
      <trkpt lat="41.1028670" lon="0.6526790">
        <ele>40.9</ele>
        <time>2020-08-08T17:26:52Z</time>
      </trkpt>
      <trkpt lat="41.1028610" lon="0.6526770">
        <ele>40.9</ele>
        <time>2020-08-08T17:28:08Z</time>
      </trkpt>
      <trkpt lat="41.1028560" lon="0.6526750">
        <ele>40.9</ele>
        <time>2020-08-08T17:28:09Z</time>
      </trkpt>
      <trkpt lat="41.1028500" lon="0.6526730">
        <ele>40.9</ele>
        <time>2020-08-08T17:28:10Z</time>
      </trkpt>
      <trkpt lat="41.1028130" lon="0.6526250">
        <ele>40.7</ele>
        <time>2020-08-08T17:28:12Z</time>
      </trkpt>
      <trkpt lat="41.1027770" lon="0.6525820">
        <ele>40.6</ele>
        <time>2020-08-08T17:28:14Z</time>
      </trkpt>
      <trkpt lat="41.1027750" lon="0.6525940">
        <ele>40.5</ele>
        <time>2020-08-08T17:28:15Z</time>
      </trkpt>
      <trkpt lat="41.1027730" lon="0.6526020">
        <ele>40.5</ele>
        <time>2020-08-08T17:28:17Z</time>
      </trkpt>
      <trkpt lat="41.1027650" lon="0.6525860">
        <ele>40.5</ele>
        <time>2020-08-08T17:28:18Z</time>
      </trkpt>
      <trkpt lat="41.1027530" lon="0.6525640">
        <ele>40.5</ele>
        <time>2020-08-08T17:28:19Z</time>
      </trkpt>
      <trkpt lat="41.1026860" lon="0.6524980">
        <ele>40.5</ele>
        <time>2020-08-08T17:28:20Z</time>
      </trkpt>
      <trkpt lat="41.1026370" lon="0.6524530">
        <ele>40.4</ele>
        <time>2020-08-08T17:28:22Z</time>
      </trkpt>
      <trkpt lat="41.1025870" lon="0.6524070">
        <ele>40.4</ele>
        <time>2020-08-08T17:28:23Z</time>
      </trkpt>
      <trkpt lat="41.1025290" lon="0.6523560">
        <ele>40.4</ele>
        <time>2020-08-08T17:28:25Z</time>
      </trkpt>
      <trkpt lat="41.1024990" lon="0.6523350">
        <ele>40.3</ele>
        <time>2020-08-08T17:28:26Z</time>
      </trkpt>
      <trkpt lat="41.1024570" lon="0.6523090">
        <ele>40.3</ele>
        <time>2020-08-08T17:28:28Z</time>
      </trkpt>
      <trkpt lat="41.1024310" lon="0.6522950">
        <ele>40.3</ele>
        <time>2020-08-08T17:28:29Z</time>
      </trkpt>
      <trkpt lat="41.1024170" lon="0.6522860">
        <ele>40.3</ele>
        <time>2020-08-08T17:28:30Z</time>
      </trkpt>
      <trkpt lat="41.1024020" lon="0.6522780">
        <ele>40.3</ele>
        <time>2020-08-08T17:28:31Z</time>
      </trkpt>
      <trkpt lat="41.1023850" lon="0.6522690">
        <ele>40.2</ele>
        <time>2020-08-08T17:28:32Z</time>
      </trkpt>
      <trkpt lat="41.1023690" lon="0.6522610">
        <ele>40.2</ele>
        <time>2020-08-08T17:28:33Z</time>
      </trkpt>
      <trkpt lat="41.1023360" lon="0.6522420">
        <ele>40.2</ele>
        <time>2020-08-08T17:28:35Z</time>
      </trkpt>
      <trkpt lat="41.1023270" lon="0.6522340">
        <ele>40.2</ele>
        <time>2020-08-08T17:28:36Z</time>
      </trkpt>
      <trkpt lat="41.1023050" lon="0.6522120">
        <ele>40.1</ele>
        <time>2020-08-08T17:28:37Z</time>
      </trkpt>
      <trkpt lat="41.1022730" lon="0.6521890">
        <ele>40.1</ele>
        <time>2020-08-08T17:28:39Z</time>
      </trkpt>
      <trkpt lat="41.1022510" lon="0.6521670">
        <ele>40.1</ele>
        <time>2020-08-08T17:28:40Z</time>
      </trkpt>
      <trkpt lat="41.1021360" lon="0.6520470">
        <ele>39.9</ele>
        <time>2020-08-08T17:28:42Z</time>
      </trkpt>
      <trkpt lat="41.1020660" lon="0.6519890">
        <ele>39.8</ele>
        <time>2020-08-08T17:28:44Z</time>
      </trkpt>
      <trkpt lat="41.1020340" lon="0.6519660">
        <ele>39.7</ele>
        <time>2020-08-08T17:28:45Z</time>
      </trkpt>
      <trkpt lat="41.1020010" lon="0.6519430">
        <ele>39.7</ele>
        <time>2020-08-08T17:28:46Z</time>
      </trkpt>
      <trkpt lat="41.1019700" lon="0.6519230">
        <ele>39.6</ele>
        <time>2020-08-08T17:28:47Z</time>
      </trkpt>
      <trkpt lat="41.1019160" lon="0.6518930">
        <ele>39.6</ele>
        <time>2020-08-08T17:28:49Z</time>
      </trkpt>
      <trkpt lat="41.1018640" lon="0.6518640">
        <ele>39.5</ele>
        <time>2020-08-08T17:28:51Z</time>
      </trkpt>
      <trkpt lat="41.1018380" lon="0.6518470">
        <ele>39.5</ele>
        <time>2020-08-08T17:28:52Z</time>
      </trkpt>
      <trkpt lat="41.1018110" lon="0.6518280">
        <ele>39.4</ele>
        <time>2020-08-08T17:28:53Z</time>
      </trkpt>
      <trkpt lat="41.1017860" lon="0.6518050">
        <ele>39.4</ele>
        <time>2020-08-08T17:28:54Z</time>
      </trkpt>
      <trkpt lat="41.1017580" lon="0.6517790">
        <ele>39.3</ele>
        <time>2020-08-08T17:28:55Z</time>
      </trkpt>
      <trkpt lat="41.1017040" lon="0.6517180">
        <ele>39.2</ele>
        <time>2020-08-08T17:28:57Z</time>
      </trkpt>
      <trkpt lat="41.1016810" lon="0.6516890">
        <ele>39.1</ele>
        <time>2020-08-08T17:28:58Z</time>
      </trkpt>
      <trkpt lat="41.1016560" lon="0.6516630">
        <ele>39.1</ele>
        <time>2020-08-08T17:28:59Z</time>
      </trkpt>
      <trkpt lat="41.1016270" lon="0.6516380">
        <ele>39.0</ele>
        <time>2020-08-08T17:29:00Z</time>
      </trkpt>
      <trkpt lat="41.1015950" lon="0.6516150">
        <ele>39.0</ele>
        <time>2020-08-08T17:29:01Z</time>
      </trkpt>
      <trkpt lat="41.1015630" lon="0.6515910">
        <ele>38.9</ele>
        <time>2020-08-08T17:29:02Z</time>
      </trkpt>
      <trkpt lat="41.1015170" lon="0.6515420">
        <ele>38.9</ele>
        <time>2020-08-08T17:29:04Z</time>
      </trkpt>
      <trkpt lat="41.1014850" lon="0.6515120">
        <ele>38.8</ele>
        <time>2020-08-08T17:29:05Z</time>
      </trkpt>
      <trkpt lat="41.1014720" lon="0.6515030">
        <ele>38.8</ele>
        <time>2020-08-08T17:29:06Z</time>
      </trkpt>
      <trkpt lat="41.1014430" lon="0.6514840">
        <ele>38.8</ele>
        <time>2020-08-08T17:29:07Z</time>
      </trkpt>
      <trkpt lat="41.1013870" lon="0.6514480">
        <ele>38.7</ele>
        <time>2020-08-08T17:29:09Z</time>
      </trkpt>
      <trkpt lat="41.1013510" lon="0.6514250">
        <ele>38.6</ele>
        <time>2020-08-08T17:29:10Z</time>
      </trkpt>
      <trkpt lat="41.1013380" lon="0.6514180">
        <ele>38.6</ele>
        <time>2020-08-08T17:29:11Z</time>
      </trkpt>
      <trkpt lat="41.1012860" lon="0.6513960">
        <ele>38.5</ele>
        <time>2020-08-08T17:29:13Z</time>
      </trkpt>
      <trkpt lat="41.1012570" lon="0.6513870">
        <ele>38.4</ele>
        <time>2020-08-08T17:29:14Z</time>
      </trkpt>
      <trkpt lat="41.1012090" lon="0.6513650">
        <ele>38.3</ele>
        <time>2020-08-08T17:29:16Z</time>
      </trkpt>
      <trkpt lat="41.1011550" lon="0.6513370">
        <ele>38.2</ele>
        <time>2020-08-08T17:29:18Z</time>
      </trkpt>
      <trkpt lat="41.1011200" lon="0.6513200">
        <ele>38.1</ele>
        <time>2020-08-08T17:29:19Z</time>
      </trkpt>
      <trkpt lat="41.1011080" lon="0.6513130">
        <ele>38.1</ele>
        <time>2020-08-08T17:29:20Z</time>
      </trkpt>
      <trkpt lat="41.1010560" lon="0.6512770">
        <ele>37.9</ele>
        <time>2020-08-08T17:29:22Z</time>
      </trkpt>
      <trkpt lat="41.1010200" lon="0.6512480">
        <ele>37.8</ele>
        <time>2020-08-08T17:29:23Z</time>
      </trkpt>
      <trkpt lat="41.1009820" lon="0.6512170">
        <ele>37.7</ele>
        <time>2020-08-08T17:29:24Z</time>
      </trkpt>
      <trkpt lat="41.1009390" lon="0.6511770">
        <ele>37.7</ele>
        <time>2020-08-08T17:29:25Z</time>
      </trkpt>
      <trkpt lat="41.1008950" lon="0.6511300">
        <ele>37.6</ele>
        <time>2020-08-08T17:29:26Z</time>
      </trkpt>
      <trkpt lat="41.1008320" lon="0.6510570">
        <ele>37.4</ele>
        <time>2020-08-08T17:29:28Z</time>
      </trkpt>
      <trkpt lat="41.1007780" lon="0.6510160">
        <ele>37.3</ele>
        <time>2020-08-08T17:29:30Z</time>
      </trkpt>
      <trkpt lat="41.1007590" lon="0.6510030">
        <ele>37.2</ele>
        <time>2020-08-08T17:29:31Z</time>
      </trkpt>
      <trkpt lat="41.1007200" lon="0.6509760">
        <ele>37.1</ele>
        <time>2020-08-08T17:29:33Z</time>
      </trkpt>
      <trkpt lat="41.1006880" lon="0.6509520">
        <ele>37.0</ele>
        <time>2020-08-08T17:29:34Z</time>
      </trkpt>
      <trkpt lat="41.1006780" lon="0.6509460">
        <ele>37.0</ele>
        <time>2020-08-08T17:29:35Z</time>
      </trkpt>
      <trkpt lat="41.1006530" lon="0.6509330">
        <ele>36.9</ele>
        <time>2020-08-08T17:29:37Z</time>
      </trkpt>
      <trkpt lat="41.1006370" lon="0.6509320">
        <ele>36.9</ele>
        <time>2020-08-08T17:29:38Z</time>
      </trkpt>
      <trkpt lat="41.1006230" lon="0.6509330">
        <ele>36.8</ele>
        <time>2020-08-08T17:29:39Z</time>
      </trkpt>
      <trkpt lat="41.1006050" lon="0.6509360">
        <ele>36.8</ele>
        <time>2020-08-08T17:29:41Z</time>
      </trkpt>
      <trkpt lat="41.1006030" lon="0.6509380">
        <ele>36.8</ele>
        <time>2020-08-08T17:29:42Z</time>
      </trkpt>
      <trkpt lat="41.1006050" lon="0.6509390">
        <ele>36.8</ele>
        <time>2020-08-08T17:29:43Z</time>
      </trkpt>
      <trkpt lat="41.1006070" lon="0.6509380">
        <ele>36.8</ele>
        <time>2020-08-08T17:29:45Z</time>
      </trkpt>
      <trkpt lat="41.1006080" lon="0.6509380">
        <ele>36.8</ele>
        <time>2020-08-08T17:29:46Z</time>
      </trkpt>
      <trkpt lat="41.1006090" lon="0.6509380">
        <ele>36.7</ele>
        <time>2020-08-08T17:29:47Z</time>
      </trkpt>
      <trkpt lat="41.1006120" lon="0.6509370">
        <ele>36.7</ele>
        <time>2020-08-08T17:29:49Z</time>
      </trkpt>
      <trkpt lat="41.1006130" lon="0.6509370">
        <ele>36.7</ele>
        <time>2020-08-08T17:29:50Z</time>
      </trkpt>
      <trkpt lat="41.1006140" lon="0.6509360">
        <ele>36.7</ele>
        <time>2020-08-08T17:29:51Z</time>
      </trkpt>
      <trkpt lat="41.1006140" lon="0.6509360">
        <ele>36.7</ele>
        <time>2020-08-08T17:29:52Z</time>
      </trkpt>
      <trkpt lat="41.1006140" lon="0.6509350">
        <ele>36.7</ele>
        <time>2020-08-08T17:29:54Z</time>
      </trkpt>
      <trkpt lat="41.1005900" lon="0.6509320">
        <ele>36.7</ele>
        <time>2020-08-08T17:31:52Z</time>
      </trkpt>
      <trkpt lat="41.1005440" lon="0.6509140">
        <ele>36.6</ele>
        <time>2020-08-08T17:31:54Z</time>
      </trkpt>
      <trkpt lat="41.1005210" lon="0.6508940">
        <ele>36.5</ele>
        <time>2020-08-08T17:31:55Z</time>
      </trkpt>
      <trkpt lat="41.1004970" lon="0.6508660">
        <ele>36.4</ele>
        <time>2020-08-08T17:31:56Z</time>
      </trkpt>
      <trkpt lat="41.1004470" lon="0.6508090">
        <ele>36.3</ele>
        <time>2020-08-08T17:31:58Z</time>
      </trkpt>
      <trkpt lat="41.1004100" lon="0.6507970">
        <ele>36.2</ele>
        <time>2020-08-08T17:32:00Z</time>
      </trkpt>
      <trkpt lat="41.1003930" lon="0.6507860">
        <ele>36.1</ele>
        <time>2020-08-08T17:32:02Z</time>
      </trkpt>
      <trkpt lat="41.1003750" lon="0.6507760">
        <ele>36.1</ele>
        <time>2020-08-08T17:32:09Z</time>
      </trkpt>
      <trkpt lat="41.1003580" lon="0.6507660">
        <ele>36.0</ele>
        <time>2020-08-08T17:32:10Z</time>
      </trkpt>
      <trkpt lat="41.1003400" lon="0.6507560">
        <ele>36.0</ele>
        <time>2020-08-08T17:32:11Z</time>
      </trkpt>
      <trkpt lat="41.1003220" lon="0.6507450">
        <ele>35.9</ele>
        <time>2020-08-08T17:32:12Z</time>
      </trkpt>
      <trkpt lat="41.1003050" lon="0.6507350">
        <ele>35.9</ele>
        <time>2020-08-08T17:32:38Z</time>
      </trkpt>
      <trkpt lat="41.1002870" lon="0.6507250">
        <ele>35.8</ele>
        <time>2020-08-08T17:32:39Z</time>
      </trkpt>
      <trkpt lat="41.1001380" lon="0.6506230">
        <ele>35.4</ele>
        <time>2020-08-08T17:32:41Z</time>
      </trkpt>
      <trkpt lat="41.1000670" lon="0.6505850">
        <ele>35.3</ele>
        <time>2020-08-08T17:32:43Z</time>
      </trkpt>
      <trkpt lat="41.1000490" lon="0.6505780">
        <ele>35.2</ele>
        <time>2020-08-08T17:32:44Z</time>
      </trkpt>
      <trkpt lat="41.1000110" lon="0.6505430">
        <ele>35.2</ele>
        <time>2020-08-08T17:32:46Z</time>
      </trkpt>
      <trkpt lat="41.0999910" lon="0.6505190">
        <ele>35.2</ele>
        <time>2020-08-08T17:32:47Z</time>
      </trkpt>
      <trkpt lat="41.0999570" lon="0.6504870">
        <ele>35.1</ele>
        <time>2020-08-08T17:32:49Z</time>
      </trkpt>
      <trkpt lat="41.0999370" lon="0.6504720">
        <ele>35.1</ele>
        <time>2020-08-08T17:32:50Z</time>
      </trkpt>
      <trkpt lat="41.0999080" lon="0.6504910">
        <ele>35.0</ele>
        <time>2020-08-08T17:32:52Z</time>
      </trkpt>
      <trkpt lat="41.0999100" lon="0.6505330">
        <ele>34.9</ele>
        <time>2020-08-08T17:32:53Z</time>
      </trkpt>
      <trkpt lat="41.0999100" lon="0.6505480">
        <ele>34.9</ele>
        <time>2020-08-08T17:32:54Z</time>
      </trkpt>
      <trkpt lat="41.0999130" lon="0.6506000">
        <ele>34.8</ele>
        <time>2020-08-08T17:32:56Z</time>
      </trkpt>
      <trkpt lat="41.0999190" lon="0.6506290">
        <ele>34.7</ele>
        <time>2020-08-08T17:32:57Z</time>
      </trkpt>
      <trkpt lat="41.0999350" lon="0.6506920">
        <ele>34.6</ele>
        <time>2020-08-08T17:32:59Z</time>
      </trkpt>
      <trkpt lat="41.0999510" lon="0.6507520">
        <ele>34.5</ele>
        <time>2020-08-08T17:33:01Z</time>
      </trkpt>
      <trkpt lat="41.0999620" lon="0.6508160">
        <ele>34.4</ele>
        <time>2020-08-08T17:33:03Z</time>
      </trkpt>
      <trkpt lat="41.0999750" lon="0.6508760">
        <ele>34.4</ele>
        <time>2020-08-08T17:33:05Z</time>
      </trkpt>
      <trkpt lat="41.0999810" lon="0.6509040">
        <ele>34.4</ele>
        <time>2020-08-08T17:33:06Z</time>
      </trkpt>
      <trkpt lat="41.0999920" lon="0.6509610">
        <ele>34.4</ele>
        <time>2020-08-08T17:33:08Z</time>
      </trkpt>
      <trkpt lat="41.1000040" lon="0.6510050">
        <ele>34.5</ele>
        <time>2020-08-08T17:33:09Z</time>
      </trkpt>
      <trkpt lat="41.1000080" lon="0.6510200">
        <ele>34.5</ele>
        <time>2020-08-08T17:33:10Z</time>
      </trkpt>
      <trkpt lat="41.1000170" lon="0.6510460">
        <ele>34.5</ele>
        <time>2020-08-08T17:33:11Z</time>
      </trkpt>
      <trkpt lat="41.1000380" lon="0.6511010">
        <ele>34.5</ele>
        <time>2020-08-08T17:33:13Z</time>
      </trkpt>
      <trkpt lat="41.1000460" lon="0.6511290">
        <ele>34.5</ele>
        <time>2020-08-08T17:33:14Z</time>
      </trkpt>
      <trkpt lat="41.1000560" lon="0.6511810">
        <ele>34.6</ele>
        <time>2020-08-08T17:33:16Z</time>
      </trkpt>
      <trkpt lat="41.1000630" lon="0.6512070">
        <ele>34.6</ele>
        <time>2020-08-08T17:33:17Z</time>
      </trkpt>
      <trkpt lat="41.1000680" lon="0.6512270">
        <ele>34.6</ele>
        <time>2020-08-08T17:33:18Z</time>
      </trkpt>
      <trkpt lat="41.1000800" lon="0.6512660">
        <ele>34.7</ele>
        <time>2020-08-08T17:33:20Z</time>
      </trkpt>
      <trkpt lat="41.1000820" lon="0.6512740">
        <ele>34.7</ele>
        <time>2020-08-08T17:33:21Z</time>
      </trkpt>
      <trkpt lat="41.1000860" lon="0.6512960">
        <ele>34.7</ele>
        <time>2020-08-08T17:33:23Z</time>
      </trkpt>
      <trkpt lat="41.1000850" lon="0.6513100">
        <ele>34.7</ele>
        <time>2020-08-08T17:33:25Z</time>
      </trkpt>
      <trkpt lat="41.1000810" lon="0.6513100">
        <ele>34.7</ele>
        <time>2020-08-08T17:33:26Z</time>
      </trkpt>
      <trkpt lat="41.1000810" lon="0.6513110">
        <ele>34.7</ele>
        <time>2020-08-08T17:33:27Z</time>
      </trkpt>
      <trkpt lat="41.1000810" lon="0.6513090">
        <ele>34.7</ele>
        <time>2020-08-08T17:33:29Z</time>
      </trkpt>
      <trkpt lat="41.1000820" lon="0.6513010">
        <ele>34.7</ele>
        <time>2020-08-08T17:33:31Z</time>
      </trkpt>
      <trkpt lat="41.1000840" lon="0.6512940">
        <ele>34.7</ele>
        <time>2020-08-08T17:33:32Z</time>
      </trkpt>
      <trkpt lat="41.1000850" lon="0.6512890">
        <ele>34.7</ele>
        <time>2020-08-08T17:33:33Z</time>
      </trkpt>
      <trkpt lat="41.1000870" lon="0.6512860">
        <ele>34.7</ele>
        <time>2020-08-08T17:33:34Z</time>
      </trkpt>
      <trkpt lat="41.1000910" lon="0.6512830">
        <ele>34.7</ele>
        <time>2020-08-08T17:33:36Z</time>
      </trkpt>
      <trkpt lat="41.1000940" lon="0.6512830">
        <ele>34.7</ele>
        <time>2020-08-08T17:33:38Z</time>
      </trkpt>
      <trkpt lat="41.1000950" lon="0.6512840">
        <ele>34.7</ele>
        <time>2020-08-08T17:33:40Z</time>
      </trkpt>
      <trkpt lat="41.1000960" lon="0.6512850">
        <ele>34.7</ele>
        <time>2020-08-08T17:33:42Z</time>
      </trkpt>
      <trkpt lat="41.1000960" lon="0.6512850">
        <ele>34.7</ele>
        <time>2020-08-08T17:33:43Z</time>
      </trkpt>
      <trkpt lat="41.1000960" lon="0.6512850">
        <ele>34.7</ele>
        <time>2020-08-08T17:33:44Z</time>
      </trkpt>
      <trkpt lat="41.1001070" lon="0.6513400">
        <ele>34.6</ele>
        <time>2020-08-08T17:34:33Z</time>
      </trkpt>
      <trkpt lat="41.1001090" lon="0.6513580">
        <ele>34.6</ele>
        <time>2020-08-08T17:34:34Z</time>
      </trkpt>
      <trkpt lat="41.1001090" lon="0.6513740">
        <ele>34.6</ele>
        <time>2020-08-08T17:34:35Z</time>
      </trkpt>
      <trkpt lat="41.1001040" lon="0.6513860">
        <ele>34.6</ele>
        <time>2020-08-08T17:34:36Z</time>
      </trkpt>
      <trkpt lat="41.1000800" lon="0.6513840">
        <ele>34.6</ele>
        <time>2020-08-08T17:34:38Z</time>
      </trkpt>
      <trkpt lat="41.1000600" lon="0.6513590">
        <ele>34.7</ele>
        <time>2020-08-08T17:34:40Z</time>
      </trkpt>
      <trkpt lat="41.1000390" lon="0.6513360">
        <ele>34.7</ele>
        <time>2020-08-08T17:34:42Z</time>
      </trkpt>
      <trkpt lat="41.1000260" lon="0.6513260">
        <ele>34.7</ele>
        <time>2020-08-08T17:34:43Z</time>
      </trkpt>
      <trkpt lat="41.0999970" lon="0.6513050">
        <ele>34.7</ele>
        <time>2020-08-08T17:34:45Z</time>
      </trkpt>
      <trkpt lat="41.0999780" lon="0.6512900">
        <ele>34.7</ele>
        <time>2020-08-08T17:34:46Z</time>
      </trkpt>
      <trkpt lat="41.0999380" lon="0.6512410">
        <ele>34.6</ele>
        <time>2020-08-08T17:34:48Z</time>
      </trkpt>
      <trkpt lat="41.0999200" lon="0.6512060">
        <ele>34.6</ele>
        <time>2020-08-08T17:34:49Z</time>
      </trkpt>
      <trkpt lat="41.0999150" lon="0.6511950">
        <ele>34.6</ele>
        <time>2020-08-08T17:34:50Z</time>
      </trkpt>
      <trkpt lat="41.0999090" lon="0.6511700">
        <ele>34.6</ele>
        <time>2020-08-08T17:34:51Z</time>
      </trkpt>
      <trkpt lat="41.0999060" lon="0.6511490">
        <ele>34.6</ele>
        <time>2020-08-08T17:34:52Z</time>
      </trkpt>
      <trkpt lat="41.0998930" lon="0.6511110">
        <ele>34.5</ele>
        <time>2020-08-08T17:34:54Z</time>
      </trkpt>
      <trkpt lat="41.0998880" lon="0.6511030">
        <ele>34.5</ele>
        <time>2020-08-08T17:34:55Z</time>
      </trkpt>
      <trkpt lat="41.0998780" lon="0.6510870">
        <ele>34.5</ele>
        <time>2020-08-08T17:34:56Z</time>
      </trkpt>
      <trkpt lat="41.0998610" lon="0.6510470">
        <ele>34.5</ele>
        <time>2020-08-08T17:34:58Z</time>
      </trkpt>
      <trkpt lat="41.0998550" lon="0.6510260">
        <ele>34.5</ele>
        <time>2020-08-08T17:34:59Z</time>
      </trkpt>
      <trkpt lat="41.0998510" lon="0.6510040">
        <ele>34.5</ele>
        <time>2020-08-08T17:35:00Z</time>
      </trkpt>
      <trkpt lat="41.0998430" lon="0.6509690">
        <ele>34.5</ele>
        <time>2020-08-08T17:35:01Z</time>
      </trkpt>
      <trkpt lat="41.0998390" lon="0.6509590">
        <ele>34.5</ele>
        <time>2020-08-08T17:35:02Z</time>
      </trkpt>
      <trkpt lat="41.0998130" lon="0.6509410">
        <ele>34.5</ele>
        <time>2020-08-08T17:35:04Z</time>
      </trkpt>
      <trkpt lat="41.0998010" lon="0.6509470">
        <ele>34.5</ele>
        <time>2020-08-08T17:35:05Z</time>
      </trkpt>
      <trkpt lat="41.0997900" lon="0.6509530">
        <ele>34.5</ele>
        <time>2020-08-08T17:35:07Z</time>
      </trkpt>
      <trkpt lat="41.0997890" lon="0.6509550">
        <ele>34.5</ele>
        <time>2020-08-08T17:35:08Z</time>
      </trkpt>
      <trkpt lat="41.0997950" lon="0.6509790">
        <ele>34.4</ele>
        <time>2020-08-08T17:35:10Z</time>
      </trkpt>
      <trkpt lat="41.0997980" lon="0.6509880">
        <ele>34.4</ele>
        <time>2020-08-08T17:35:11Z</time>
      </trkpt>
      <trkpt lat="41.0997980" lon="0.6509930">
        <ele>34.4</ele>
        <time>2020-08-08T17:35:12Z</time>
      </trkpt>
      <trkpt lat="41.0997970" lon="0.6509950">
        <ele>34.4</ele>
        <time>2020-08-08T17:35:14Z</time>
      </trkpt>
      <trkpt lat="41.0997980" lon="0.6509940">
        <ele>34.4</ele>
        <time>2020-08-08T17:35:16Z</time>
      </trkpt>
      <trkpt lat="41.0997990" lon="0.6509920">
        <ele>34.4</ele>
        <time>2020-08-08T17:35:17Z</time>
      </trkpt>
      <trkpt lat="41.0998000" lon="0.6509900">
        <ele>34.4</ele>
        <time>2020-08-08T17:35:19Z</time>
      </trkpt>
      <trkpt lat="41.0998000" lon="0.6509900">
        <ele>34.4</ele>
        <time>2020-08-08T17:35:21Z</time>
      </trkpt>
      <trkpt lat="41.0998000" lon="0.6509900">
        <ele>34.4</ele>
        <time>2020-08-08T17:35:23Z</time>
      </trkpt>
      <trkpt lat="41.0998090" lon="0.6510180">
        <ele>34.4</ele>
        <time>2020-08-08T17:37:58Z</time>
      </trkpt>
      <trkpt lat="41.0998170" lon="0.6510350">
        <ele>34.4</ele>
        <time>2020-08-08T17:38:00Z</time>
      </trkpt>
      <trkpt lat="41.0998280" lon="0.6510590">
        <ele>34.4</ele>
        <time>2020-08-08T17:38:02Z</time>
      </trkpt>
      <trkpt lat="41.0998360" lon="0.6510670">
        <ele>34.4</ele>
        <time>2020-08-08T17:38:03Z</time>
      </trkpt>
      <trkpt lat="41.0998520" lon="0.6510640">
        <ele>34.4</ele>
        <time>2020-08-08T17:38:05Z</time>
      </trkpt>
      <trkpt lat="41.0998610" lon="0.6510510">
        <ele>34.4</ele>
        <time>2020-08-08T17:38:06Z</time>
      </trkpt>
      <trkpt lat="41.0998660" lon="0.6510360">
        <ele>34.4</ele>
        <time>2020-08-08T17:38:07Z</time>
      </trkpt>
      <trkpt lat="41.0998570" lon="0.6510040">
        <ele>34.4</ele>
        <time>2020-08-08T17:38:09Z</time>
      </trkpt>
      <trkpt lat="41.0998450" lon="0.6509790">
        <ele>34.4</ele>
        <time>2020-08-08T17:38:10Z</time>
      </trkpt>
      <trkpt lat="41.0998410" lon="0.6509700">
        <ele>34.4</ele>
        <time>2020-08-08T17:38:11Z</time>
      </trkpt>
      <trkpt lat="41.0998360" lon="0.6509620">
        <ele>34.4</ele>
        <time>2020-08-08T17:38:12Z</time>
      </trkpt>
      <trkpt lat="41.0998260" lon="0.6509450">
        <ele>34.4</ele>
        <time>2020-08-08T17:38:14Z</time>
      </trkpt>
      <trkpt lat="41.0998210" lon="0.6509360">
        <ele>34.4</ele>
        <time>2020-08-08T17:38:15Z</time>
      </trkpt>
      <trkpt lat="41.0998140" lon="0.6509180">
        <ele>34.4</ele>
        <time>2020-08-08T17:38:17Z</time>
      </trkpt>
      <trkpt lat="41.0998110" lon="0.6509090">
        <ele>34.4</ele>
        <time>2020-08-08T17:38:18Z</time>
      </trkpt>
      <trkpt lat="41.0998090" lon="0.6508880">
        <ele>34.4</ele>
        <time>2020-08-08T17:38:20Z</time>
      </trkpt>
      <trkpt lat="41.0998040" lon="0.6508610">
        <ele>34.4</ele>
        <time>2020-08-08T17:38:22Z</time>
      </trkpt>
      <trkpt lat="41.0997970" lon="0.6508320">
        <ele>34.4</ele>
        <time>2020-08-08T17:38:24Z</time>
      </trkpt>
      <trkpt lat="41.0997880" lon="0.6508050">
        <ele>34.5</ele>
        <time>2020-08-08T17:38:26Z</time>
      </trkpt>
      <trkpt lat="41.0997810" lon="0.6507890">
        <ele>34.5</ele>
        <time>2020-08-08T17:38:27Z</time>
      </trkpt>
      <trkpt lat="41.0997650" lon="0.6507580">
        <ele>34.5</ele>
        <time>2020-08-08T17:38:29Z</time>
      </trkpt>
      <trkpt lat="41.0997600" lon="0.6507450">
        <ele>34.5</ele>
        <time>2020-08-08T17:38:30Z</time>
      </trkpt>
      <trkpt lat="41.0997610" lon="0.6507320">
        <ele>34.6</ele>
        <time>2020-08-08T17:38:31Z</time>
      </trkpt>
      <trkpt lat="41.0997650" lon="0.6507180">
        <ele>34.6</ele>
        <time>2020-08-08T17:38:32Z</time>
      </trkpt>
      <trkpt lat="41.0997740" lon="0.6506970">
        <ele>34.6</ele>
        <time>2020-08-08T17:38:34Z</time>
      </trkpt>
      <trkpt lat="41.0997770" lon="0.6506870">
        <ele>34.6</ele>
        <time>2020-08-08T17:38:35Z</time>
      </trkpt>
      <trkpt lat="41.0997770" lon="0.6506690">
        <ele>34.6</ele>
        <time>2020-08-08T17:38:37Z</time>
      </trkpt>
      <trkpt lat="41.0997740" lon="0.6506640">
        <ele>34.6</ele>
        <time>2020-08-08T17:38:38Z</time>
      </trkpt>
      <trkpt lat="41.0997680" lon="0.6506580">
        <ele>34.6</ele>
        <time>2020-08-08T17:38:39Z</time>
      </trkpt>
      <trkpt lat="41.0997580" lon="0.6506370">
        <ele>34.7</ele>
        <time>2020-08-08T17:38:41Z</time>
      </trkpt>
      <trkpt lat="41.0997540" lon="0.6506260">
        <ele>34.7</ele>
        <time>2020-08-08T17:38:42Z</time>
      </trkpt>
      <trkpt lat="41.0997390" lon="0.6506130">
        <ele>34.7</ele>
        <time>2020-08-08T17:38:44Z</time>
      </trkpt>
      <trkpt lat="41.0997230" lon="0.6506070">
        <ele>34.7</ele>
        <time>2020-08-08T17:38:46Z</time>
      </trkpt>
      <trkpt lat="41.0997220" lon="0.6506040">
        <ele>34.8</ele>
        <time>2020-08-08T17:38:47Z</time>
      </trkpt>
      <trkpt lat="41.0997210" lon="0.6506060">
        <ele>34.8</ele>
        <time>2020-08-08T17:38:49Z</time>
      </trkpt>
      <trkpt lat="41.0997270" lon="0.6506080">
        <ele>34.8</ele>
        <time>2020-08-08T17:38:51Z</time>
      </trkpt>
      <trkpt lat="41.0997440" lon="0.6506020">
        <ele>34.8</ele>
        <time>2020-08-08T17:38:53Z</time>
      </trkpt>
      <trkpt lat="41.0997490" lon="0.6506020">
        <ele>34.8</ele>
        <time>2020-08-08T17:38:54Z</time>
      </trkpt>
      <trkpt lat="41.0997510" lon="0.6506080">
        <ele>34.8</ele>
        <time>2020-08-08T17:38:56Z</time>
      </trkpt>
      <trkpt lat="41.0997520" lon="0.6506160">
        <ele>34.8</ele>
        <time>2020-08-08T17:38:58Z</time>
      </trkpt>
      <trkpt lat="41.0997520" lon="0.6506170">
        <ele>34.8</ele>
        <time>2020-08-08T17:38:59Z</time>
      </trkpt>
      <trkpt lat="41.0997520" lon="0.6506170">
        <ele>34.8</ele>
        <time>2020-08-08T17:39:01Z</time>
      </trkpt>
      <trkpt lat="41.0997530" lon="0.6506160">
        <ele>34.8</ele>
        <time>2020-08-08T17:39:02Z</time>
      </trkpt>
      <trkpt lat="41.0997530" lon="0.6506150">
        <ele>34.8</ele>
        <time>2020-08-08T17:39:03Z</time>
      </trkpt>
      <trkpt lat="41.0997540" lon="0.6506130">
        <ele>34.8</ele>
        <time>2020-08-08T17:39:05Z</time>
      </trkpt>
      <trkpt lat="41.0997540" lon="0.6506120">
        <ele>34.8</ele>
        <time>2020-08-08T17:39:07Z</time>
      </trkpt>
      <trkpt lat="41.0997670" lon="0.6505590">
        <ele>34.9</ele>
        <time>2020-08-08T17:39:18Z</time>
      </trkpt>
      <trkpt lat="41.0997750" lon="0.6505510">
        <ele>34.9</ele>
        <time>2020-08-08T17:39:19Z</time>
      </trkpt>
      <trkpt lat="41.0997820" lon="0.6505450">
        <ele>34.9</ele>
        <time>2020-08-08T17:39:20Z</time>
      </trkpt>
      <trkpt lat="41.0997940" lon="0.6505290">
        <ele>35.0</ele>
        <time>2020-08-08T17:39:22Z</time>
      </trkpt>
      <trkpt lat="41.0998020" lon="0.6505150">
        <ele>35.0</ele>
        <time>2020-08-08T17:39:23Z</time>
      </trkpt>
      <trkpt lat="41.0998110" lon="0.6504740">
        <ele>35.0</ele>
        <time>2020-08-08T17:39:25Z</time>
      </trkpt>
      <trkpt lat="41.0998130" lon="0.6504500">
        <ele>35.1</ele>
        <time>2020-08-08T17:39:26Z</time>
      </trkpt>
      <trkpt lat="41.0998140" lon="0.6504280">
        <ele>35.1</ele>
        <time>2020-08-08T17:39:27Z</time>
      </trkpt>
      <trkpt lat="41.0998130" lon="0.6503950">
        <ele>35.1</ele>
        <time>2020-08-08T17:39:29Z</time>
      </trkpt>
      <trkpt lat="41.0997980" lon="0.6503640">
        <ele>35.2</ele>
        <time>2020-08-08T17:39:31Z</time>
      </trkpt>
      <trkpt lat="41.0997820" lon="0.6503540">
        <ele>35.2</ele>
        <time>2020-08-08T17:39:32Z</time>
      </trkpt>
      <trkpt lat="41.0997510" lon="0.6503430">
        <ele>35.2</ele>
        <time>2020-08-08T17:39:34Z</time>
      </trkpt>
      <trkpt lat="41.0997370" lon="0.6503370">
        <ele>35.2</ele>
        <time>2020-08-08T17:39:35Z</time>
      </trkpt>
      <trkpt lat="41.0997260" lon="0.6503330">
        <ele>35.2</ele>
        <time>2020-08-08T17:39:36Z</time>
      </trkpt>
      <trkpt lat="41.0997020" lon="0.6503270">
        <ele>35.2</ele>
        <time>2020-08-08T17:39:38Z</time>
      </trkpt>
      <trkpt lat="41.0996820" lon="0.6503280">
        <ele>35.3</ele>
        <time>2020-08-08T17:39:40Z</time>
      </trkpt>
      <trkpt lat="41.0996780" lon="0.6503360">
        <ele>35.3</ele>
        <time>2020-08-08T17:39:41Z</time>
      </trkpt>
      <trkpt lat="41.0996750" lon="0.6503430">
        <ele>35.3</ele>
        <time>2020-08-08T17:39:43Z</time>
      </trkpt>
      <trkpt lat="41.0996710" lon="0.6503510">
        <ele>35.3</ele>
        <time>2020-08-08T17:39:45Z</time>
      </trkpt>
      <trkpt lat="41.0996670" lon="0.6503580">
        <ele>35.3</ele>
        <time>2020-08-08T17:39:46Z</time>
      </trkpt>
      <trkpt lat="41.0996630" lon="0.6503650">
        <ele>35.3</ele>
        <time>2020-08-08T17:39:48Z</time>
      </trkpt>
      <trkpt lat="41.0996600" lon="0.6503730">
        <ele>35.3</ele>
        <time>2020-08-08T17:39:50Z</time>
      </trkpt>
      <trkpt lat="41.0996560" lon="0.6503800">
        <ele>35.3</ele>
        <time>2020-08-08T17:39:51Z</time>
      </trkpt>
      <trkpt lat="41.0996520" lon="0.6503870">
        <ele>35.3</ele>
        <time>2020-08-08T17:39:52Z</time>
      </trkpt>
      <trkpt lat="41.0996480" lon="0.6503950">
        <ele>35.3</ele>
        <time>2020-08-08T17:39:53Z</time>
      </trkpt>
      <trkpt lat="41.0996450" lon="0.6504020">
        <ele>35.3</ele>
        <time>2020-08-08T17:40:29Z</time>
      </trkpt>
      <trkpt lat="41.0996410" lon="0.6504100">
        <ele>35.3</ele>
        <time>2020-08-08T17:40:30Z</time>
      </trkpt>
      <trkpt lat="41.0996370" lon="0.6504170">
        <ele>35.3</ele>
        <time>2020-08-08T17:40:31Z</time>
      </trkpt>
      <trkpt lat="41.0996450" lon="0.6504680">
        <ele>35.3</ele>
        <time>2020-08-08T17:40:33Z</time>
      </trkpt>
      <trkpt lat="41.0996530" lon="0.6504910">
        <ele>35.3</ele>
        <time>2020-08-08T17:40:34Z</time>
      </trkpt>
      <trkpt lat="41.0996750" lon="0.6505130">
        <ele>35.3</ele>
        <time>2020-08-08T17:40:36Z</time>
      </trkpt>
      <trkpt lat="41.0996900" lon="0.6505200">
        <ele>35.4</ele>
        <time>2020-08-08T17:40:37Z</time>
      </trkpt>
      <trkpt lat="41.0997050" lon="0.6505220">
        <ele>35.4</ele>
        <time>2020-08-08T17:40:38Z</time>
      </trkpt>
      <trkpt lat="41.0997160" lon="0.6505190">
        <ele>35.4</ele>
        <time>2020-08-08T17:40:39Z</time>
      </trkpt>
      <trkpt lat="41.0997270" lon="0.6505110">
        <ele>35.4</ele>
        <time>2020-08-08T17:40:40Z</time>
      </trkpt>
      <trkpt lat="41.0997280" lon="0.6504900">
        <ele>35.4</ele>
        <time>2020-08-08T17:40:41Z</time>
      </trkpt>
      <trkpt lat="41.0997030" lon="0.6504390">
        <ele>35.4</ele>
        <time>2020-08-08T17:40:43Z</time>
      </trkpt>
      <trkpt lat="41.0996800" lon="0.6504210">
        <ele>35.4</ele>
        <time>2020-08-08T17:40:45Z</time>
      </trkpt>
      <trkpt lat="41.0996740" lon="0.6504120">
        <ele>35.4</ele>
        <time>2020-08-08T17:40:46Z</time>
      </trkpt>
      <trkpt lat="41.0996790" lon="0.6504210">
        <ele>35.4</ele>
        <time>2020-08-08T17:40:47Z</time>
      </trkpt>
      <trkpt lat="41.0996880" lon="0.6504360">
        <ele>35.4</ele>
        <time>2020-08-08T17:40:48Z</time>
      </trkpt>
      <trkpt lat="41.0996940" lon="0.6504500">
        <ele>35.5</ele>
        <time>2020-08-08T17:40:49Z</time>
      </trkpt>
      <trkpt lat="41.0997170" lon="0.6504850">
        <ele>35.5</ele>
        <time>2020-08-08T17:40:51Z</time>
      </trkpt>
      <trkpt lat="41.0997200" lon="0.6504910">
        <ele>35.5</ele>
        <time>2020-08-08T17:40:52Z</time>
      </trkpt>
      <trkpt lat="41.0997220" lon="0.6504970">
        <ele>35.5</ele>
        <time>2020-08-08T17:40:53Z</time>
      </trkpt>
      <trkpt lat="41.0997220" lon="0.6505070">
        <ele>35.5</ele>
        <time>2020-08-08T17:40:54Z</time>
      </trkpt>
      <trkpt lat="41.0996750" lon="0.6505130">
        <ele>35.5</ele>
        <time>2020-08-08T17:40:56Z</time>
      </trkpt>
      <trkpt lat="41.0996320" lon="0.6504940">
        <ele>35.5</ele>
        <time>2020-08-08T17:40:58Z</time>
      </trkpt>
      <trkpt lat="41.0996190" lon="0.6504890">
        <ele>35.5</ele>
        <time>2020-08-08T17:40:59Z</time>
      </trkpt>
      <trkpt lat="41.0995920" lon="0.6504890">
        <ele>35.6</ele>
        <time>2020-08-08T17:41:01Z</time>
      </trkpt>
      <trkpt lat="41.0995770" lon="0.6504870">
        <ele>35.6</ele>
        <time>2020-08-08T17:41:02Z</time>
      </trkpt>
      <trkpt lat="41.0995630" lon="0.6504810">
        <ele>35.6</ele>
        <time>2020-08-08T17:41:03Z</time>
      </trkpt>
      <trkpt lat="41.0995400" lon="0.6504610">
        <ele>35.6</ele>
        <time>2020-08-08T17:41:05Z</time>
      </trkpt>
      <trkpt lat="41.0995310" lon="0.6504440">
        <ele>35.6</ele>
        <time>2020-08-08T17:41:06Z</time>
      </trkpt>
      <trkpt lat="41.0995230" lon="0.6504250">
        <ele>35.6</ele>
        <time>2020-08-08T17:41:07Z</time>
      </trkpt>
      <trkpt lat="41.0995140" lon="0.6504080">
        <ele>35.6</ele>
        <time>2020-08-08T17:41:08Z</time>
      </trkpt>
      <trkpt lat="41.0994990" lon="0.6503640">
        <ele>35.6</ele>
        <time>2020-08-08T17:41:10Z</time>
      </trkpt>
      <trkpt lat="41.0994840" lon="0.6503230">
        <ele>35.7</ele>
        <time>2020-08-08T17:41:11Z</time>
      </trkpt>
      <trkpt lat="41.0994790" lon="0.6503090">
        <ele>35.7</ele>
        <time>2020-08-08T17:41:12Z</time>
      </trkpt>
      <trkpt lat="41.0994610" lon="0.6502620">
        <ele>35.7</ele>
        <time>2020-08-08T17:41:14Z</time>
      </trkpt>
      <trkpt lat="41.0994510" lon="0.6502460">
        <ele>35.7</ele>
        <time>2020-08-08T17:41:15Z</time>
      </trkpt>
      <trkpt lat="41.0994310" lon="0.6502100">
        <ele>35.7</ele>
        <time>2020-08-08T17:41:17Z</time>
      </trkpt>
      <trkpt lat="41.0994210" lon="0.6501990">
        <ele>35.7</ele>
        <time>2020-08-08T17:41:18Z</time>
      </trkpt>
      <trkpt lat="41.0994120" lon="0.6501940">
        <ele>35.7</ele>
        <time>2020-08-08T17:41:19Z</time>
      </trkpt>
      <trkpt lat="41.0994560" lon="0.6502440">
        <ele>35.7</ele>
        <time>2020-08-08T17:41:20Z</time>
      </trkpt>
      <trkpt lat="41.0994980" lon="0.6502760">
        <ele>35.8</ele>
        <time>2020-08-08T17:41:22Z</time>
      </trkpt>
      <trkpt lat="41.0995290" lon="0.6502900">
        <ele>35.8</ele>
        <time>2020-08-08T17:41:23Z</time>
      </trkpt>
      <trkpt lat="41.0995370" lon="0.6502940">
        <ele>35.8</ele>
        <time>2020-08-08T17:41:24Z</time>
      </trkpt>
      <trkpt lat="41.0995520" lon="0.6502910">
        <ele>35.8</ele>
        <time>2020-08-08T17:41:26Z</time>
      </trkpt>
      <trkpt lat="41.0995600" lon="0.6502790">
        <ele>35.8</ele>
        <time>2020-08-08T17:41:28Z</time>
      </trkpt>
      <trkpt lat="41.0995630" lon="0.6502730">
        <ele>35.8</ele>
        <time>2020-08-08T17:41:29Z</time>
      </trkpt>
      <trkpt lat="41.0995650" lon="0.6502660">
        <ele>35.8</ele>
        <time>2020-08-08T17:41:30Z</time>
      </trkpt>
      <trkpt lat="41.0995670" lon="0.6502610">
        <ele>35.8</ele>
        <time>2020-08-08T17:41:31Z</time>
      </trkpt>
      <trkpt lat="41.0995650" lon="0.6502360">
        <ele>35.8</ele>
        <time>2020-08-08T17:41:32Z</time>
      </trkpt>
      <trkpt lat="41.0995640" lon="0.6502040">
        <ele>35.8</ele>
        <time>2020-08-08T17:41:34Z</time>
      </trkpt>
      <trkpt lat="41.0995670" lon="0.6501630">
        <ele>36.0</ele>
        <time>2020-08-08T17:41:36Z</time>
      </trkpt>
      <trkpt lat="41.0995680" lon="0.6501380">
        <ele>36.0</ele>
        <time>2020-08-08T17:41:38Z</time>
      </trkpt>
      <trkpt lat="41.0995710" lon="0.6501230">
        <ele>35.9</ele>
        <time>2020-08-08T17:41:39Z</time>
      </trkpt>
      <trkpt lat="41.0995710" lon="0.6501080">
        <ele>35.9</ele>
        <time>2020-08-08T17:41:40Z</time>
      </trkpt>
      <trkpt lat="41.0995700" lon="0.6500990">
        <ele>35.9</ele>
        <time>2020-08-08T17:41:41Z</time>
      </trkpt>
      <trkpt lat="41.0995680" lon="0.6500920">
        <ele>35.9</ele>
        <time>2020-08-08T17:41:42Z</time>
      </trkpt>
      <trkpt lat="41.0995660" lon="0.6500740">
        <ele>35.9</ele>
        <time>2020-08-08T17:41:44Z</time>
      </trkpt>
      <trkpt lat="41.0995660" lon="0.6500580">
        <ele>35.9</ele>
        <time>2020-08-08T17:41:45Z</time>
      </trkpt>
      <trkpt lat="41.0995640" lon="0.6500270">
        <ele>35.9</ele>
        <time>2020-08-08T17:41:47Z</time>
      </trkpt>
      <trkpt lat="41.0995610" lon="0.6499920">
        <ele>35.9</ele>
        <time>2020-08-08T17:41:49Z</time>
      </trkpt>
      <trkpt lat="41.0995580" lon="0.6499810">
        <ele>35.9</ele>
        <time>2020-08-08T17:41:50Z</time>
      </trkpt>
      <trkpt lat="41.0995550" lon="0.6499730">
        <ele>35.9</ele>
        <time>2020-08-08T17:41:51Z</time>
      </trkpt>
      <trkpt lat="41.0995500" lon="0.6499610">
        <ele>35.9</ele>
        <time>2020-08-08T17:41:52Z</time>
      </trkpt>
      <trkpt lat="41.0995380" lon="0.6499390">
        <ele>35.9</ele>
        <time>2020-08-08T17:41:54Z</time>
      </trkpt>
      <trkpt lat="41.0995110" lon="0.6498620">
        <ele>35.9</ele>
        <time>2020-08-08T17:41:55Z</time>
      </trkpt>
      <trkpt lat="41.0994110" lon="0.6496690">
        <ele>35.8</ele>
        <time>2020-08-08T17:41:57Z</time>
      </trkpt>
      <trkpt lat="41.0993340" lon="0.6495580">
        <ele>35.8</ele>
        <time>2020-08-08T17:41:59Z</time>
      </trkpt>
      <trkpt lat="41.0993020" lon="0.6495130">
        <ele>35.8</ele>
        <time>2020-08-08T17:42:00Z</time>
      </trkpt>
      <trkpt lat="41.0992500" lon="0.6494100">
        <ele>35.8</ele>
        <time>2020-08-08T17:42:02Z</time>
      </trkpt>
      <trkpt lat="41.0992300" lon="0.6492810">
        <ele>35.8</ele>
        <time>2020-08-08T17:42:04Z</time>
      </trkpt>
      <trkpt lat="41.0992340" lon="0.6492250">
        <ele>35.8</ele>
        <time>2020-08-08T17:42:05Z</time>
      </trkpt>
      <trkpt lat="41.0992450" lon="0.6491660">
        <ele>35.8</ele>
        <time>2020-08-08T17:42:06Z</time>
      </trkpt>
      <trkpt lat="41.0992600" lon="0.6491050">
        <ele>35.8</ele>
        <time>2020-08-08T17:42:07Z</time>
      </trkpt>
      <trkpt lat="41.0992760" lon="0.6490480">
        <ele>35.9</ele>
        <time>2020-08-08T17:42:08Z</time>
      </trkpt>
      <trkpt lat="41.0992900" lon="0.6489880">
        <ele>35.9</ele>
        <time>2020-08-08T17:42:09Z</time>
      </trkpt>
      <trkpt lat="41.0992960" lon="0.6489030">
        <ele>35.8</ele>
        <time>2020-08-08T17:42:11Z</time>
      </trkpt>
      <trkpt lat="41.0993020" lon="0.6488060">
        <ele>35.8</ele>
        <time>2020-08-08T17:42:13Z</time>
      </trkpt>
      <trkpt lat="41.0993040" lon="0.6487220">
        <ele>35.7</ele>
        <time>2020-08-08T17:42:15Z</time>
      </trkpt>
      <trkpt lat="41.0993040" lon="0.6486920">
        <ele>35.7</ele>
        <time>2020-08-08T17:42:16Z</time>
      </trkpt>
      <trkpt lat="41.0993040" lon="0.6486380">
        <ele>35.6</ele>
        <time>2020-08-08T17:42:18Z</time>
      </trkpt>
      <trkpt lat="41.0992970" lon="0.6486020">
        <ele>35.4</ele>
        <time>2020-08-08T17:42:19Z</time>
      </trkpt>
      <trkpt lat="41.0992920" lon="0.6485910">
        <ele>35.3</ele>
        <time>2020-08-08T17:42:20Z</time>
      </trkpt>
      <trkpt lat="41.0992690" lon="0.6485500">
        <ele>35.1</ele>
        <time>2020-08-08T17:42:22Z</time>
      </trkpt>
      <trkpt lat="41.0992000" lon="0.6484460">
        <ele>34.4</ele>
        <time>2020-08-08T17:42:28Z</time>
      </trkpt>
      <trkpt lat="41.0991920" lon="0.6484340">
        <ele>34.4</ele>
        <time>2020-08-08T17:42:29Z</time>
      </trkpt>
      <trkpt lat="41.0991730" lon="0.6483810">
        <ele>34.1</ele>
        <time>2020-08-08T17:42:31Z</time>
      </trkpt>
      <trkpt lat="41.0991630" lon="0.6483190">
        <ele>33.8</ele>
        <time>2020-08-08T17:42:33Z</time>
      </trkpt>
      <trkpt lat="41.0991590" lon="0.6482770">
        <ele>33.6</ele>
        <time>2020-08-08T17:42:34Z</time>
      </trkpt>
      <trkpt lat="41.0991460" lon="0.6481920">
        <ele>33.1</ele>
        <time>2020-08-08T17:42:36Z</time>
      </trkpt>
      <trkpt lat="41.0991160" lon="0.6481010">
        <ele>32.7</ele>
        <time>2020-08-08T17:42:38Z</time>
      </trkpt>
      <trkpt lat="41.0991000" lon="0.6480600">
        <ele>32.5</ele>
        <time>2020-08-08T17:42:39Z</time>
      </trkpt>
      <trkpt lat="41.0990890" lon="0.6480260">
        <ele>32.3</ele>
        <time>2020-08-08T17:42:40Z</time>
      </trkpt>
      <trkpt lat="41.0990770" lon="0.6479910">
        <ele>32.3</ele>
        <time>2020-08-08T17:42:41Z</time>
      </trkpt>
      <trkpt lat="41.0990360" lon="0.6478840">
        <ele>32.3</ele>
        <time>2020-08-08T17:42:44Z</time>
      </trkpt>
      <trkpt lat="41.0990210" lon="0.6478480">
        <ele>32.3</ele>
        <time>2020-08-08T17:42:45Z</time>
      </trkpt>
      <trkpt lat="41.0989830" lon="0.6477710">
        <ele>32.2</ele>
        <time>2020-08-08T17:42:47Z</time>
      </trkpt>
      <trkpt lat="41.0989570" lon="0.6477440">
        <ele>32.2</ele>
        <time>2020-08-08T17:42:48Z</time>
      </trkpt>
      <trkpt lat="41.0989270" lon="0.6477290">
        <ele>32.2</ele>
        <time>2020-08-08T17:42:49Z</time>
      </trkpt>
      <trkpt lat="41.0988680" lon="0.6477530">
        <ele>32.2</ele>
        <time>2020-08-08T17:42:51Z</time>
      </trkpt>
      <trkpt lat="41.0988280" lon="0.6478040">
        <ele>32.2</ele>
        <time>2020-08-08T17:42:53Z</time>
      </trkpt>
      <trkpt lat="41.0988030" lon="0.6478420">
        <ele>32.2</ele>
        <time>2020-08-08T17:42:54Z</time>
      </trkpt>
      <trkpt lat="41.0987950" lon="0.6478530">
        <ele>32.2</ele>
        <time>2020-08-08T17:42:55Z</time>
      </trkpt>
      <trkpt lat="41.0987780" lon="0.6478720">
        <ele>32.3</ele>
        <time>2020-08-08T17:42:56Z</time>
      </trkpt>
      <trkpt lat="41.0987440" lon="0.6479020">
        <ele>32.3</ele>
        <time>2020-08-08T17:42:58Z</time>
      </trkpt>
      <trkpt lat="41.0987120" lon="0.6479340">
        <ele>32.3</ele>
        <time>2020-08-08T17:43:00Z</time>
      </trkpt>
      <trkpt lat="41.0987000" lon="0.6479530">
        <ele>32.3</ele>
        <time>2020-08-08T17:43:01Z</time>
      </trkpt>
      <trkpt lat="41.0986900" lon="0.6479700">
        <ele>32.3</ele>
        <time>2020-08-08T17:43:02Z</time>
      </trkpt>
      <trkpt lat="41.0986770" lon="0.6479910">
        <ele>32.3</ele>
        <time>2020-08-08T17:43:03Z</time>
      </trkpt>
      <trkpt lat="41.0986510" lon="0.6480270">
        <ele>32.4</ele>
        <time>2020-08-08T17:43:05Z</time>
      </trkpt>
      <trkpt lat="41.0986110" lon="0.6480450">
        <ele>32.4</ele>
        <time>2020-08-08T17:43:07Z</time>
      </trkpt>
      <trkpt lat="41.0985790" lon="0.6480740">
        <ele>32.4</ele>
        <time>2020-08-08T17:43:08Z</time>
      </trkpt>
      <trkpt lat="41.0985690" lon="0.6480870">
        <ele>32.4</ele>
        <time>2020-08-08T17:43:09Z</time>
      </trkpt>
      <trkpt lat="41.0985400" lon="0.6481360">
        <ele>32.5</ele>
        <time>2020-08-08T17:43:11Z</time>
      </trkpt>
      <trkpt lat="41.0985310" lon="0.6481510">
        <ele>32.5</ele>
        <time>2020-08-08T17:43:12Z</time>
      </trkpt>
      <trkpt lat="41.0985180" lon="0.6481680">
        <ele>32.5</ele>
        <time>2020-08-08T17:43:13Z</time>
      </trkpt>
      <trkpt lat="41.0984960" lon="0.6482170">
        <ele>32.5</ele>
        <time>2020-08-08T17:43:15Z</time>
      </trkpt>
      <trkpt lat="41.0984820" lon="0.6482840">
        <ele>32.5</ele>
        <time>2020-08-08T17:43:17Z</time>
      </trkpt>
      <trkpt lat="41.0984690" lon="0.6483490">
        <ele>32.5</ele>
        <time>2020-08-08T17:43:19Z</time>
      </trkpt>
      <trkpt lat="41.0984560" lon="0.6484020">
        <ele>32.5</ele>
        <time>2020-08-08T17:43:21Z</time>
      </trkpt>
      <trkpt lat="41.0984490" lon="0.6484210">
        <ele>32.5</ele>
        <time>2020-08-08T17:43:22Z</time>
      </trkpt>
      <trkpt lat="41.0984300" lon="0.6484590">
        <ele>32.5</ele>
        <time>2020-08-08T17:43:24Z</time>
      </trkpt>
      <trkpt lat="41.0984070" lon="0.6484840">
        <ele>32.5</ele>
        <time>2020-08-08T17:43:25Z</time>
      </trkpt>
      <trkpt lat="41.0983970" lon="0.6484910">
        <ele>32.5</ele>
        <time>2020-08-08T17:43:26Z</time>
      </trkpt>
      <trkpt lat="41.0983650" lon="0.6485100">
        <ele>32.5</ele>
        <time>2020-08-08T17:43:27Z</time>
      </trkpt>
      <trkpt lat="41.0983530" lon="0.6485160">
        <ele>32.5</ele>
        <time>2020-08-08T17:43:28Z</time>
      </trkpt>
      <trkpt lat="41.0982920" lon="0.6485470">
        <ele>32.4</ele>
        <time>2020-08-08T17:43:30Z</time>
      </trkpt>
      <trkpt lat="41.0982590" lon="0.6485660">
        <ele>32.4</ele>
        <time>2020-08-08T17:43:31Z</time>
      </trkpt>
      <trkpt lat="41.0982070" lon="0.6486090">
        <ele>32.3</ele>
        <time>2020-08-08T17:43:33Z</time>
      </trkpt>
      <trkpt lat="41.0981800" lon="0.6486440">
        <ele>32.3</ele>
        <time>2020-08-08T17:43:34Z</time>
      </trkpt>
      <trkpt lat="41.0981710" lon="0.6486550">
        <ele>32.3</ele>
        <time>2020-08-08T17:43:35Z</time>
      </trkpt>
      <trkpt lat="41.0981420" lon="0.6487060">
        <ele>32.2</ele>
        <time>2020-08-08T17:43:37Z</time>
      </trkpt>
      <trkpt lat="41.0981280" lon="0.6487460">
        <ele>32.2</ele>
        <time>2020-08-08T17:43:38Z</time>
      </trkpt>
      <trkpt lat="41.0981230" lon="0.6487570">
        <ele>32.2</ele>
        <time>2020-08-08T17:43:39Z</time>
      </trkpt>
      <trkpt lat="41.0980970" lon="0.6487830">
        <ele>32.2</ele>
        <time>2020-08-08T17:43:41Z</time>
      </trkpt>
      <trkpt lat="41.0980810" lon="0.6487860">
        <ele>32.2</ele>
        <time>2020-08-08T17:43:42Z</time>
      </trkpt>
      <trkpt lat="41.0980630" lon="0.6487850">
        <ele>32.2</ele>
        <time>2020-08-08T17:43:43Z</time>
      </trkpt>
      <trkpt lat="41.0980410" lon="0.6487780">
        <ele>32.2</ele>
        <time>2020-08-08T17:43:44Z</time>
      </trkpt>
      <trkpt lat="41.0980060" lon="0.6487600">
        <ele>32.1</ele>
        <time>2020-08-08T17:43:46Z</time>
      </trkpt>
      <trkpt lat="41.0979830" lon="0.6487500">
        <ele>32.1</ele>
        <time>2020-08-08T17:43:47Z</time>
      </trkpt>
      <trkpt lat="41.0979470" lon="0.6487220">
        <ele>32.1</ele>
        <time>2020-08-08T17:43:49Z</time>
      </trkpt>
      <trkpt lat="41.0979180" lon="0.6486870">
        <ele>32.0</ele>
        <time>2020-08-08T17:43:50Z</time>
      </trkpt>
      <trkpt lat="41.0979080" lon="0.6486750">
        <ele>32.0</ele>
        <time>2020-08-08T17:43:51Z</time>
      </trkpt>
      <trkpt lat="41.0978900" lon="0.6486520">
        <ele>32.0</ele>
        <time>2020-08-08T17:43:52Z</time>
      </trkpt>
      <trkpt lat="41.0978630" lon="0.6486130">
        <ele>32.0</ele>
        <time>2020-08-08T17:43:54Z</time>
      </trkpt>
      <trkpt lat="41.0978390" lon="0.6485900">
        <ele>32.0</ele>
        <time>2020-08-08T17:43:55Z</time>
      </trkpt>
      <trkpt lat="41.0977880" lon="0.6485490">
        <ele>31.9</ele>
        <time>2020-08-08T17:43:57Z</time>
      </trkpt>
      <trkpt lat="41.0977640" lon="0.6485330">
        <ele>31.9</ele>
        <time>2020-08-08T17:43:58Z</time>
      </trkpt>
      <trkpt lat="41.0977160" lon="0.6485080">
        <ele>31.9</ele>
        <time>2020-08-08T17:44:00Z</time>
      </trkpt>
      <trkpt lat="41.0976650" lon="0.6484890">
        <ele>31.8</ele>
        <time>2020-08-08T17:44:02Z</time>
      </trkpt>
      <trkpt lat="41.0976410" lon="0.6484810">
        <ele>31.8</ele>
        <time>2020-08-08T17:44:03Z</time>
      </trkpt>
      <trkpt lat="41.0975880" lon="0.6484620">
        <ele>31.8</ele>
        <time>2020-08-08T17:44:05Z</time>
      </trkpt>
      <trkpt lat="41.0975460" lon="0.6484510">
        <ele>31.7</ele>
        <time>2020-08-08T17:44:06Z</time>
      </trkpt>
      <trkpt lat="41.0975030" lon="0.6484410">
        <ele>31.7</ele>
        <time>2020-08-08T17:44:08Z</time>
      </trkpt>
      <trkpt lat="41.0974360" lon="0.6484290">
        <ele>31.7</ele>
        <time>2020-08-08T17:44:10Z</time>
      </trkpt>
      <trkpt lat="41.0973830" lon="0.6484190">
        <ele>31.7</ele>
        <time>2020-08-08T17:44:12Z</time>
      </trkpt>
      <trkpt lat="41.0973400" lon="0.6484100">
        <ele>31.7</ele>
        <time>2020-08-08T17:44:13Z</time>
      </trkpt>
      <trkpt lat="41.0973080" lon="0.6484030">
        <ele>31.7</ele>
        <time>2020-08-08T17:44:14Z</time>
      </trkpt>
      <trkpt lat="41.0972540" lon="0.6483950">
        <ele>31.7</ele>
        <time>2020-08-08T17:44:16Z</time>
      </trkpt>
      <trkpt lat="41.0972130" lon="0.6483860">
        <ele>31.7</ele>
        <time>2020-08-08T17:44:17Z</time>
      </trkpt>
      <trkpt lat="41.0971550" lon="0.6483730">
        <ele>31.7</ele>
        <time>2020-08-08T17:44:19Z</time>
      </trkpt>
      <trkpt lat="41.0971170" lon="0.6483680">
        <ele>31.7</ele>
        <time>2020-08-08T17:44:20Z</time>
      </trkpt>
      <trkpt lat="41.0970810" lon="0.6483650">
        <ele>31.7</ele>
        <time>2020-08-08T17:44:21Z</time>
      </trkpt>
      <trkpt lat="41.0970520" lon="0.6483610">
        <ele>31.7</ele>
        <time>2020-08-08T17:44:22Z</time>
      </trkpt>
      <trkpt lat="41.0970250" lon="0.6483550">
        <ele>31.7</ele>
        <time>2020-08-08T17:44:23Z</time>
      </trkpt>
      <trkpt lat="41.0969910" lon="0.6483500">
        <ele>31.7</ele>
        <time>2020-08-08T17:44:24Z</time>
      </trkpt>
      <trkpt lat="41.0969560" lon="0.6483440">
        <ele>31.7</ele>
        <time>2020-08-08T17:44:25Z</time>
      </trkpt>
      <trkpt lat="41.0969130" lon="0.6483350">
        <ele>31.7</ele>
        <time>2020-08-08T17:44:27Z</time>
      </trkpt>
      <trkpt lat="41.0968740" lon="0.6483300">
        <ele>31.7</ele>
        <time>2020-08-08T17:44:28Z</time>
      </trkpt>
      <trkpt lat="41.0968400" lon="0.6483210">
        <ele>31.7</ele>
        <time>2020-08-08T17:44:29Z</time>
      </trkpt>
      <trkpt lat="41.0967930" lon="0.6483130">
        <ele>31.7</ele>
        <time>2020-08-08T17:44:31Z</time>
      </trkpt>
      <trkpt lat="41.0967600" lon="0.6483080">
        <ele>31.7</ele>
        <time>2020-08-08T17:44:32Z</time>
      </trkpt>
      <trkpt lat="41.0967020" lon="0.6482970">
        <ele>31.7</ele>
        <time>2020-08-08T17:44:34Z</time>
      </trkpt>
      <trkpt lat="41.0966380" lon="0.6482830">
        <ele>31.7</ele>
        <time>2020-08-08T17:44:36Z</time>
      </trkpt>
      <trkpt lat="41.0965870" lon="0.6482680">
        <ele>31.7</ele>
        <time>2020-08-08T17:44:38Z</time>
      </trkpt>
      <trkpt lat="41.0965530" lon="0.6482570">
        <ele>31.7</ele>
        <time>2020-08-08T17:44:39Z</time>
      </trkpt>
      <trkpt lat="41.0965110" lon="0.6482450">
        <ele>31.7</ele>
        <time>2020-08-08T17:44:41Z</time>
      </trkpt>
      <trkpt lat="41.0964830" lon="0.6482400">
        <ele>31.7</ele>
        <time>2020-08-08T17:44:42Z</time>
      </trkpt>
      <trkpt lat="41.0964610" lon="0.6482340">
        <ele>31.7</ele>
        <time>2020-08-08T17:44:43Z</time>
      </trkpt>
      <trkpt lat="41.0964180" lon="0.6482220">
        <ele>31.6</ele>
        <time>2020-08-08T17:44:45Z</time>
      </trkpt>
      <trkpt lat="41.0964000" lon="0.6482170">
        <ele>31.7</ele>
        <time>2020-08-08T17:44:46Z</time>
      </trkpt>
      <trkpt lat="41.0963840" lon="0.6482080">
        <ele>31.7</ele>
        <time>2020-08-08T17:44:47Z</time>
      </trkpt>
      <trkpt lat="41.0963670" lon="0.6482030">
        <ele>31.7</ele>
        <time>2020-08-08T17:44:48Z</time>
      </trkpt>
      <trkpt lat="41.0963530" lon="0.6481930">
        <ele>31.7</ele>
        <time>2020-08-08T17:44:49Z</time>
      </trkpt>
      <trkpt lat="41.0963230" lon="0.6481710">
        <ele>31.8</ele>
        <time>2020-08-08T17:44:51Z</time>
      </trkpt>
      <trkpt lat="41.0963040" lon="0.6481370">
        <ele>31.8</ele>
        <time>2020-08-08T17:44:52Z</time>
      </trkpt>
      <trkpt lat="41.0962980" lon="0.6481260">
        <ele>31.8</ele>
        <time>2020-08-08T17:44:53Z</time>
      </trkpt>
      <trkpt lat="41.0962780" lon="0.6480870">
        <ele>31.9</ele>
        <time>2020-08-08T17:44:54Z</time>
      </trkpt>
      <trkpt lat="41.0962580" lon="0.6480520">
        <ele>31.9</ele>
        <time>2020-08-08T17:44:56Z</time>
      </trkpt>
      <trkpt lat="41.0962310" lon="0.6480060">
        <ele>31.7</ele>
        <time>2020-08-08T17:44:57Z</time>
      </trkpt>
      <trkpt lat="41.0962030" lon="0.6479680">
        <ele>31.5</ele>
        <time>2020-08-08T17:44:58Z</time>
      </trkpt>
      <trkpt lat="41.0961910" lon="0.6479560">
        <ele>31.5</ele>
        <time>2020-08-08T17:44:59Z</time>
      </trkpt>
      <trkpt lat="41.0961540" lon="0.6479360">
        <ele>31.2</ele>
        <time>2020-08-08T17:45:00Z</time>
      </trkpt>
      <trkpt lat="41.0961160" lon="0.6479260">
        <ele>31.2</ele>
        <time>2020-08-08T17:45:02Z</time>
      </trkpt>
      <trkpt lat="41.0960810" lon="0.6479310">
        <ele>31.2</ele>
        <time>2020-08-08T17:45:03Z</time>
      </trkpt>
      <trkpt lat="41.0960360" lon="0.6479500">
        <ele>31.3</ele>
        <time>2020-08-08T17:45:05Z</time>
      </trkpt>
      <trkpt lat="41.0960260" lon="0.6479560">
        <ele>31.3</ele>
        <time>2020-08-08T17:45:06Z</time>
      </trkpt>
      <trkpt lat="41.0960250" lon="0.6479560">
        <ele>31.3</ele>
        <time>2020-08-08T17:45:08Z</time>
      </trkpt>
      <trkpt lat="41.0960200" lon="0.6479550">
        <ele>31.3</ele>
        <time>2020-08-08T17:45:09Z</time>
      </trkpt>
      <trkpt lat="41.0960200" lon="0.6479550">
        <ele>31.3</ele>
        <time>2020-08-08T17:45:10Z</time>
      </trkpt>
      <trkpt lat="41.0960160" lon="0.6479570">
        <ele>31.3</ele>
        <time>2020-08-08T17:45:12Z</time>
      </trkpt>
      <trkpt lat="41.0960160" lon="0.6479580">
        <ele>31.3</ele>
        <time>2020-08-08T17:45:13Z</time>
      </trkpt>
      <trkpt lat="41.0960160" lon="0.6479590">
        <ele>31.3</ele>
        <time>2020-08-08T17:45:14Z</time>
      </trkpt>
      <trkpt lat="41.0960130" lon="0.6479620">
        <ele>31.3</ele>
        <time>2020-08-08T17:45:16Z</time>
      </trkpt>
      <trkpt lat="41.0960130" lon="0.6479620">
        <ele>31.3</ele>
        <time>2020-08-08T17:45:17Z</time>
      </trkpt>
      <trkpt lat="41.0960120" lon="0.6479640">
        <ele>31.3</ele>
        <time>2020-08-08T17:45:19Z</time>
      </trkpt>
      <trkpt lat="41.0960120" lon="0.6479640">
        <ele>31.3</ele>
        <time>2020-08-08T17:45:20Z</time>
      </trkpt>
      <trkpt lat="41.0960140" lon="0.6479640">
        <ele>31.3</ele>
        <time>2020-08-08T17:45:22Z</time>
      </trkpt>
      <trkpt lat="41.0960150" lon="0.6479640">
        <ele>31.3</ele>
        <time>2020-08-08T17:45:23Z</time>
      </trkpt>
      <trkpt lat="41.0960150" lon="0.6479640">
        <ele>31.3</ele>
        <time>2020-08-08T17:45:24Z</time>
      </trkpt>
      <trkpt lat="41.0960160" lon="0.6479640">
        <ele>31.3</ele>
        <time>2020-08-08T17:45:26Z</time>
      </trkpt>
      <trkpt lat="41.0960160" lon="0.6479640">
        <ele>31.3</ele>
        <time>2020-08-08T17:45:27Z</time>
      </trkpt>
      <trkpt lat="41.0959550" lon="0.6480230">
        <ele>31.3</ele>
        <time>2020-08-08T17:45:51Z</time>
      </trkpt>
      <trkpt lat="41.0958160" lon="0.6480630">
        <ele>31.2</ele>
        <time>2020-08-08T17:45:59Z</time>
      </trkpt>
      <trkpt lat="41.0957380" lon="0.6480560">
        <ele>31.2</ele>
        <time>2020-08-08T17:46:01Z</time>
      </trkpt>
      <trkpt lat="41.0957090" lon="0.6480500">
        <ele>31.2</ele>
        <time>2020-08-08T17:46:02Z</time>
      </trkpt>
      <trkpt lat="41.0956500" lon="0.6480350">
        <ele>31.3</ele>
        <time>2020-08-08T17:46:04Z</time>
      </trkpt>
      <trkpt lat="41.0956150" lon="0.6480280">
        <ele>31.3</ele>
        <time>2020-08-08T17:46:05Z</time>
      </trkpt>
      <trkpt lat="41.0955860" lon="0.6480210">
        <ele>31.3</ele>
        <time>2020-08-08T17:46:06Z</time>
      </trkpt>
      <trkpt lat="41.0955250" lon="0.6480060">
        <ele>31.4</ele>
        <time>2020-08-08T17:46:08Z</time>
      </trkpt>
      <trkpt lat="41.0954650" lon="0.6479920">
        <ele>31.4</ele>
        <time>2020-08-08T17:46:10Z</time>
      </trkpt>
      <trkpt lat="41.0954260" lon="0.6479850">
        <ele>31.4</ele>
        <time>2020-08-08T17:46:11Z</time>
      </trkpt>
      <trkpt lat="41.0954100" lon="0.6479830">
        <ele>31.4</ele>
        <time>2020-08-08T17:46:12Z</time>
      </trkpt>
      <trkpt lat="41.0953620" lon="0.6479760">
        <ele>31.5</ele>
        <time>2020-08-08T17:46:14Z</time>
      </trkpt>
      <trkpt lat="41.0953310" lon="0.6479730">
        <ele>31.5</ele>
        <time>2020-08-08T17:46:15Z</time>
      </trkpt>
      <trkpt lat="41.0952970" lon="0.6479690">
        <ele>31.5</ele>
        <time>2020-08-08T17:46:16Z</time>
      </trkpt>
      <trkpt lat="41.0952670" lon="0.6479660">
        <ele>31.5</ele>
        <time>2020-08-08T17:46:17Z</time>
      </trkpt>
      <trkpt lat="41.0952310" lon="0.6479600">
        <ele>31.6</ele>
        <time>2020-08-08T17:46:18Z</time>
      </trkpt>
      <trkpt lat="41.0951680" lon="0.6479440">
        <ele>31.6</ele>
        <time>2020-08-08T17:46:20Z</time>
      </trkpt>
      <trkpt lat="41.0951370" lon="0.6479360">
        <ele>31.6</ele>
        <time>2020-08-08T17:46:21Z</time>
      </trkpt>
      <trkpt lat="41.0950770" lon="0.6479180">
        <ele>31.6</ele>
        <time>2020-08-08T17:46:23Z</time>
      </trkpt>
      <trkpt lat="41.0950480" lon="0.6479080">
        <ele>31.6</ele>
        <time>2020-08-08T17:46:24Z</time>
      </trkpt>
      <trkpt lat="41.0950010" lon="0.6478990">
        <ele>31.6</ele>
        <time>2020-08-08T17:46:26Z</time>
      </trkpt>
      <trkpt lat="41.0949840" lon="0.6479010">
        <ele>31.6</ele>
        <time>2020-08-08T17:46:27Z</time>
      </trkpt>
      <trkpt lat="41.0949420" lon="0.6479050">
        <ele>31.7</ele>
        <time>2020-08-08T17:46:29Z</time>
      </trkpt>
      <trkpt lat="41.0948870" lon="0.6479030">
        <ele>31.7</ele>
        <time>2020-08-08T17:46:31Z</time>
      </trkpt>
      <trkpt lat="41.0948530" lon="0.6479000">
        <ele>31.7</ele>
        <time>2020-08-08T17:46:32Z</time>
      </trkpt>
      <trkpt lat="41.0948180" lon="0.6478960">
        <ele>31.7</ele>
        <time>2020-08-08T17:46:33Z</time>
      </trkpt>
      <trkpt lat="41.0947810" lon="0.6478910">
        <ele>31.7</ele>
        <time>2020-08-08T17:46:34Z</time>
      </trkpt>
      <trkpt lat="41.0947250" lon="0.6478820">
        <ele>31.7</ele>
        <time>2020-08-08T17:46:36Z</time>
      </trkpt>
      <trkpt lat="41.0946960" lon="0.6478770">
        <ele>31.7</ele>
        <time>2020-08-08T17:46:37Z</time>
      </trkpt>
      <trkpt lat="41.0946380" lon="0.6478680">
        <ele>31.8</ele>
        <time>2020-08-08T17:46:39Z</time>
      </trkpt>
      <trkpt lat="41.0946090" lon="0.6478630">
        <ele>31.8</ele>
        <time>2020-08-08T17:46:40Z</time>
      </trkpt>
      <trkpt lat="41.0945820" lon="0.6478580">
        <ele>31.8</ele>
        <time>2020-08-08T17:46:41Z</time>
      </trkpt>
      <trkpt lat="41.0945330" lon="0.6478500">
        <ele>31.8</ele>
        <time>2020-08-08T17:46:43Z</time>
      </trkpt>
      <trkpt lat="41.0944820" lon="0.6478410">
        <ele>31.8</ele>
        <time>2020-08-08T17:46:45Z</time>
      </trkpt>
      <trkpt lat="41.0944550" lon="0.6478360">
        <ele>31.8</ele>
        <time>2020-08-08T17:46:46Z</time>
      </trkpt>
      <trkpt lat="41.0944050" lon="0.6478220">
        <ele>31.8</ele>
        <time>2020-08-08T17:46:48Z</time>
      </trkpt>
      <trkpt lat="41.0943750" lon="0.6478140">
        <ele>31.8</ele>
        <time>2020-08-08T17:46:49Z</time>
      </trkpt>
      <trkpt lat="41.0943160" lon="0.6478010">
        <ele>31.8</ele>
        <time>2020-08-08T17:46:51Z</time>
      </trkpt>
      <trkpt lat="41.0942660" lon="0.6477930">
        <ele>31.9</ele>
        <time>2020-08-08T17:46:53Z</time>
      </trkpt>
      <trkpt lat="41.0942400" lon="0.6477870">
        <ele>31.9</ele>
        <time>2020-08-08T17:46:54Z</time>
      </trkpt>
      <trkpt lat="41.0941820" lon="0.6477710">
        <ele>31.9</ele>
        <time>2020-08-08T17:46:56Z</time>
      </trkpt>
      <trkpt lat="41.0941190" lon="0.6477540">
        <ele>31.9</ele>
        <time>2020-08-08T17:46:58Z</time>
      </trkpt>
      <trkpt lat="41.0940860" lon="0.6477490">
        <ele>31.9</ele>
        <time>2020-08-08T17:46:59Z</time>
      </trkpt>
      <trkpt lat="41.0940530" lon="0.6477450">
        <ele>31.9</ele>
        <time>2020-08-08T17:47:00Z</time>
      </trkpt>
      <trkpt lat="41.0939900" lon="0.6477350">
        <ele>31.9</ele>
        <time>2020-08-08T17:47:02Z</time>
      </trkpt>
      <trkpt lat="41.0939580" lon="0.6477290">
        <ele>31.9</ele>
        <time>2020-08-08T17:47:03Z</time>
      </trkpt>
      <trkpt lat="41.0938940" lon="0.6477150">
        <ele>31.9</ele>
        <time>2020-08-08T17:47:05Z</time>
      </trkpt>
      <trkpt lat="41.0938270" lon="0.6477040">
        <ele>31.9</ele>
        <time>2020-08-08T17:47:07Z</time>
      </trkpt>
      <trkpt lat="41.0937790" lon="0.6476960">
        <ele>31.9</ele>
        <time>2020-08-08T17:47:09Z</time>
      </trkpt>
      <trkpt lat="41.0937080" lon="0.6476840">
        <ele>31.9</ele>
        <time>2020-08-08T17:47:11Z</time>
      </trkpt>
      <trkpt lat="41.0936740" lon="0.6476780">
        <ele>31.9</ele>
        <time>2020-08-08T17:47:12Z</time>
      </trkpt>
      <trkpt lat="41.0936140" lon="0.6476690">
        <ele>31.9</ele>
        <time>2020-08-08T17:47:14Z</time>
      </trkpt>
      <trkpt lat="41.0935820" lon="0.6476650">
        <ele>31.9</ele>
        <time>2020-08-08T17:47:15Z</time>
      </trkpt>
      <trkpt lat="41.0935230" lon="0.6476570">
        <ele>31.9</ele>
        <time>2020-08-08T17:47:17Z</time>
      </trkpt>
      <trkpt lat="41.0934830" lon="0.6476490">
        <ele>31.9</ele>
        <time>2020-08-08T17:47:18Z</time>
      </trkpt>
      <trkpt lat="41.0934690" lon="0.6476460">
        <ele>31.9</ele>
        <time>2020-08-08T17:47:19Z</time>
      </trkpt>
      <trkpt lat="41.0934130" lon="0.6476420">
        <ele>32.0</ele>
        <time>2020-08-08T17:47:21Z</time>
      </trkpt>
      <trkpt lat="41.0933840" lon="0.6476400">
        <ele>32.0</ele>
        <time>2020-08-08T17:47:22Z</time>
      </trkpt>
      <trkpt lat="41.0933150" lon="0.6476300">
        <ele>32.1</ele>
        <time>2020-08-08T17:47:24Z</time>
      </trkpt>
      <trkpt lat="41.0932810" lon="0.6476230">
        <ele>32.1</ele>
        <time>2020-08-08T17:47:25Z</time>
      </trkpt>
      <trkpt lat="41.0932080" lon="0.6476130">
        <ele>32.2</ele>
        <time>2020-08-08T17:47:27Z</time>
      </trkpt>
      <trkpt lat="41.0931720" lon="0.6476090">
        <ele>32.2</ele>
        <time>2020-08-08T17:47:28Z</time>
      </trkpt>
      <trkpt lat="41.0931370" lon="0.6476050">
        <ele>32.2</ele>
        <time>2020-08-08T17:47:29Z</time>
      </trkpt>
      <trkpt lat="41.0930660" lon="0.6475940">
        <ele>32.1</ele>
        <time>2020-08-08T17:47:31Z</time>
      </trkpt>
      <trkpt lat="41.0930320" lon="0.6475900">
        <ele>32.1</ele>
        <time>2020-08-08T17:47:32Z</time>
      </trkpt>
      <trkpt lat="41.0929640" lon="0.6475810">
        <ele>32.1</ele>
        <time>2020-08-08T17:47:34Z</time>
      </trkpt>
      <trkpt lat="41.0929040" lon="0.6475760">
        <ele>32.0</ele>
        <time>2020-08-08T17:47:36Z</time>
      </trkpt>
      <trkpt lat="41.0928440" lon="0.6475670">
        <ele>32.0</ele>
        <time>2020-08-08T17:47:38Z</time>
      </trkpt>
      <trkpt lat="41.0928140" lon="0.6475630">
        <ele>32.0</ele>
        <time>2020-08-08T17:47:39Z</time>
      </trkpt>
      <trkpt lat="41.0927870" lon="0.6475610">
        <ele>32.0</ele>
        <time>2020-08-08T17:47:40Z</time>
      </trkpt>
      <trkpt lat="41.0927580" lon="0.6475570">
        <ele>32.0</ele>
        <time>2020-08-08T17:47:41Z</time>
      </trkpt>
      <trkpt lat="41.0926980" lon="0.6475430">
        <ele>32.0</ele>
        <time>2020-08-08T17:47:43Z</time>
      </trkpt>
      <trkpt lat="41.0926670" lon="0.6475360">
        <ele>32.0</ele>
        <time>2020-08-08T17:47:44Z</time>
      </trkpt>
      <trkpt lat="41.0926070" lon="0.6475290">
        <ele>32.0</ele>
        <time>2020-08-08T17:47:46Z</time>
      </trkpt>
      <trkpt lat="41.0925450" lon="0.6475210">
        <ele>32.0</ele>
        <time>2020-08-08T17:47:48Z</time>
      </trkpt>
      <trkpt lat="41.0924800" lon="0.6475100">
        <ele>32.0</ele>
        <time>2020-08-08T17:47:50Z</time>
      </trkpt>
      <trkpt lat="41.0924490" lon="0.6475040">
        <ele>32.0</ele>
        <time>2020-08-08T17:47:51Z</time>
      </trkpt>
      <trkpt lat="41.0924150" lon="0.6474960">
        <ele>32.0</ele>
        <time>2020-08-08T17:47:52Z</time>
      </trkpt>
      <trkpt lat="41.0923530" lon="0.6474750">
        <ele>32.0</ele>
        <time>2020-08-08T17:47:54Z</time>
      </trkpt>
      <trkpt lat="41.0923220" lon="0.6474600">
        <ele>32.0</ele>
        <time>2020-08-08T17:47:55Z</time>
      </trkpt>
      <trkpt lat="41.0922600" lon="0.6474230">
        <ele>32.0</ele>
        <time>2020-08-08T17:47:57Z</time>
      </trkpt>
      <trkpt lat="41.0922300" lon="0.6473990">
        <ele>32.0</ele>
        <time>2020-08-08T17:47:58Z</time>
      </trkpt>
      <trkpt lat="41.0921960" lon="0.6473740">
        <ele>32.0</ele>
        <time>2020-08-08T17:47:59Z</time>
      </trkpt>
      <trkpt lat="41.0921660" lon="0.6473480">
        <ele>32.0</ele>
        <time>2020-08-08T17:48:00Z</time>
      </trkpt>
      <trkpt lat="41.0921050" lon="0.6472890">
        <ele>32.1</ele>
        <time>2020-08-08T17:48:02Z</time>
      </trkpt>
      <trkpt lat="41.0920500" lon="0.6472330">
        <ele>32.1</ele>
        <time>2020-08-08T17:48:04Z</time>
      </trkpt>
      <trkpt lat="41.0920260" lon="0.6472070">
        <ele>32.1</ele>
        <time>2020-08-08T17:48:05Z</time>
      </trkpt>
      <trkpt lat="41.0920030" lon="0.6471810">
        <ele>32.1</ele>
        <time>2020-08-08T17:48:06Z</time>
      </trkpt>
      <trkpt lat="41.0919810" lon="0.6471570">
        <ele>32.1</ele>
        <time>2020-08-08T17:48:07Z</time>
      </trkpt>
      <trkpt lat="41.0919560" lon="0.6471320">
        <ele>32.1</ele>
        <time>2020-08-08T17:48:08Z</time>
      </trkpt>
      <trkpt lat="41.0919330" lon="0.6471070">
        <ele>32.2</ele>
        <time>2020-08-08T17:48:09Z</time>
      </trkpt>
      <trkpt lat="41.0919150" lon="0.6470840">
        <ele>32.2</ele>
        <time>2020-08-08T17:48:10Z</time>
      </trkpt>
      <trkpt lat="41.0918840" lon="0.6470320">
        <ele>32.2</ele>
        <time>2020-08-08T17:48:12Z</time>
      </trkpt>
      <trkpt lat="41.0918570" lon="0.6469830">
        <ele>32.2</ele>
        <time>2020-08-08T17:48:14Z</time>
      </trkpt>
      <trkpt lat="41.0918340" lon="0.6469480">
        <ele>32.2</ele>
        <time>2020-08-08T17:48:15Z</time>
      </trkpt>
      <trkpt lat="41.0918260" lon="0.6469360">
        <ele>32.2</ele>
        <time>2020-08-08T17:48:16Z</time>
      </trkpt>
      <trkpt lat="41.0917920" lon="0.6468820">
        <ele>32.3</ele>
        <time>2020-08-08T17:48:18Z</time>
      </trkpt>
      <trkpt lat="41.0917750" lon="0.6468530">
        <ele>32.3</ele>
        <time>2020-08-08T17:48:19Z</time>
      </trkpt>
      <trkpt lat="41.0917520" lon="0.6468120">
        <ele>32.4</ele>
        <time>2020-08-08T17:48:20Z</time>
      </trkpt>
      <trkpt lat="41.0917440" lon="0.6467980">
        <ele>32.4</ele>
        <time>2020-08-08T17:48:21Z</time>
      </trkpt>
      <trkpt lat="41.0917290" lon="0.6467720">
        <ele>32.4</ele>
        <time>2020-08-08T17:48:22Z</time>
      </trkpt>
      <trkpt lat="41.0916970" lon="0.6467200">
        <ele>32.5</ele>
        <time>2020-08-08T17:48:24Z</time>
      </trkpt>
      <trkpt lat="41.0916750" lon="0.6466830">
        <ele>32.5</ele>
        <time>2020-08-08T17:48:25Z</time>
      </trkpt>
      <trkpt lat="41.0916680" lon="0.6466710">
        <ele>32.5</ele>
        <time>2020-08-08T17:48:26Z</time>
      </trkpt>
      <trkpt lat="41.0916440" lon="0.6466270">
        <ele>32.6</ele>
        <time>2020-08-08T17:48:28Z</time>
      </trkpt>
      <trkpt lat="41.0916190" lon="0.6465760">
        <ele>32.6</ele>
        <time>2020-08-08T17:48:30Z</time>
      </trkpt>
      <trkpt lat="41.0916000" lon="0.6465310">
        <ele>32.7</ele>
        <time>2020-08-08T17:48:32Z</time>
      </trkpt>
      <trkpt lat="41.0915910" lon="0.6465100">
        <ele>32.7</ele>
        <time>2020-08-08T17:48:33Z</time>
      </trkpt>
      <trkpt lat="41.0915680" lon="0.6464680">
        <ele>32.8</ele>
        <time>2020-08-08T17:48:35Z</time>
      </trkpt>
      <trkpt lat="41.0915460" lon="0.6464400">
        <ele>32.8</ele>
        <time>2020-08-08T17:48:36Z</time>
      </trkpt>
      <trkpt lat="41.0915380" lon="0.6464300">
        <ele>32.9</ele>
        <time>2020-08-08T17:48:37Z</time>
      </trkpt>
      <trkpt lat="41.0915070" lon="0.6463860">
        <ele>32.9</ele>
        <time>2020-08-08T17:48:39Z</time>
      </trkpt>
      <trkpt lat="41.0914860" lon="0.6463520">
        <ele>33.0</ele>
        <time>2020-08-08T17:48:40Z</time>
      </trkpt>
      <trkpt lat="41.0914790" lon="0.6463410">
        <ele>33.0</ele>
        <time>2020-08-08T17:48:41Z</time>
      </trkpt>
      <trkpt lat="41.0915080" lon="0.6463720">
        <ele>33.0</ele>
        <time>2020-08-08T17:48:42Z</time>
      </trkpt>
      <trkpt lat="41.0915200" lon="0.6463890">
        <ele>33.1</ele>
        <time>2020-08-08T17:48:43Z</time>
      </trkpt>
      <trkpt lat="41.0915410" lon="0.6464150">
        <ele>33.1</ele>
        <time>2020-08-08T17:48:45Z</time>
      </trkpt>
      <trkpt lat="41.0915470" lon="0.6464220">
        <ele>33.1</ele>
        <time>2020-08-08T17:48:46Z</time>
      </trkpt>
      <trkpt lat="41.0915470" lon="0.6464230">
        <ele>33.1</ele>
        <time>2020-08-08T17:48:47Z</time>
      </trkpt>
      <trkpt lat="41.0915450" lon="0.6464200">
        <ele>33.1</ele>
        <time>2020-08-08T17:48:48Z</time>
      </trkpt>
      <trkpt lat="41.0915340" lon="0.6464060">
        <ele>33.1</ele>
        <time>2020-08-08T17:48:50Z</time>
      </trkpt>
      <trkpt lat="41.0915300" lon="0.6464010">
        <ele>33.1</ele>
        <time>2020-08-08T17:48:51Z</time>
      </trkpt>
      <trkpt lat="41.0915220" lon="0.6463930">
        <ele>33.1</ele>
        <time>2020-08-08T17:48:53Z</time>
      </trkpt>
      <trkpt lat="41.0915180" lon="0.6463860">
        <ele>33.1</ele>
        <time>2020-08-08T17:48:54Z</time>
      </trkpt>
      <trkpt lat="41.0915110" lon="0.6463720">
        <ele>33.1</ele>
        <time>2020-08-08T17:48:56Z</time>
      </trkpt>
      <trkpt lat="41.0915090" lon="0.6463660">
        <ele>33.1</ele>
        <time>2020-08-08T17:48:57Z</time>
      </trkpt>
      <trkpt lat="41.0915070" lon="0.6463600">
        <ele>33.2</ele>
        <time>2020-08-08T17:48:58Z</time>
      </trkpt>
      <trkpt lat="41.0915060" lon="0.6463560">
        <ele>33.2</ele>
        <time>2020-08-08T17:48:59Z</time>
      </trkpt>
      <trkpt lat="41.0915030" lon="0.6463510">
        <ele>33.2</ele>
        <time>2020-08-08T17:49:01Z</time>
      </trkpt>
      <trkpt lat="41.0914990" lon="0.6463460">
        <ele>33.2</ele>
        <time>2020-08-08T17:49:02Z</time>
      </trkpt>
      <trkpt lat="41.0914910" lon="0.6463360">
        <ele>33.2</ele>
        <time>2020-08-08T17:49:04Z</time>
      </trkpt>
      <trkpt lat="41.0914870" lon="0.6463310">
        <ele>33.2</ele>
        <time>2020-08-08T17:49:05Z</time>
      </trkpt>
      <trkpt lat="41.0914800" lon="0.6463240">
        <ele>33.2</ele>
        <time>2020-08-08T17:49:07Z</time>
      </trkpt>
      <trkpt lat="41.0914030" lon="0.6461950">
        <ele>33.2</ele>
        <time>2020-08-08T17:49:10Z</time>
      </trkpt>
      <trkpt lat="41.0913180" lon="0.6460670">
        <ele>33.2</ele>
        <time>2020-08-08T17:49:12Z</time>
      </trkpt>
      <trkpt lat="41.0912950" lon="0.6460340">
        <ele>33.2</ele>
        <time>2020-08-08T17:49:14Z</time>
      </trkpt>
      <trkpt lat="41.0912960" lon="0.6460360">
        <ele>33.2</ele>
        <time>2020-08-08T17:49:15Z</time>
      </trkpt>
      <trkpt lat="41.0913000" lon="0.6460410">
        <ele>33.2</ele>
        <time>2020-08-08T17:49:16Z</time>
      </trkpt>
      <trkpt lat="41.0913030" lon="0.6460470">
        <ele>33.2</ele>
        <time>2020-08-08T17:49:17Z</time>
      </trkpt>
      <trkpt lat="41.0913060" lon="0.6460510">
        <ele>33.2</ele>
        <time>2020-08-08T17:49:18Z</time>
      </trkpt>
      <trkpt lat="41.0913080" lon="0.6460530">
        <ele>33.2</ele>
        <time>2020-08-08T17:49:19Z</time>
      </trkpt>
      <trkpt lat="41.0913100" lon="0.6460550">
        <ele>33.2</ele>
        <time>2020-08-08T17:49:20Z</time>
      </trkpt>
      <trkpt lat="41.0913080" lon="0.6460510">
        <ele>33.2</ele>
        <time>2020-08-08T17:49:22Z</time>
      </trkpt>
      <trkpt lat="41.0913070" lon="0.6460440">
        <ele>33.2</ele>
        <time>2020-08-08T17:49:23Z</time>
      </trkpt>
      <trkpt lat="41.0913050" lon="0.6460340">
        <ele>33.2</ele>
        <time>2020-08-08T17:49:24Z</time>
      </trkpt>
      <trkpt lat="41.0913000" lon="0.6460220">
        <ele>33.2</ele>
        <time>2020-08-08T17:49:25Z</time>
      </trkpt>
      <trkpt lat="41.0912950" lon="0.6460040">
        <ele>33.2</ele>
        <time>2020-08-08T17:49:26Z</time>
      </trkpt>
      <trkpt lat="41.0912860" lon="0.6459700">
        <ele>33.2</ele>
        <time>2020-08-08T17:49:28Z</time>
      </trkpt>
      <trkpt lat="41.0912770" lon="0.6459530">
        <ele>33.2</ele>
        <time>2020-08-08T17:49:29Z</time>
      </trkpt>
      <trkpt lat="41.0912940" lon="0.6460050">
        <ele>33.2</ele>
        <time>2020-08-08T17:49:30Z</time>
      </trkpt>
      <trkpt lat="41.0912850" lon="0.6460180">
        <ele>33.2</ele>
        <time>2020-08-08T17:49:32Z</time>
      </trkpt>
      <trkpt lat="41.0912750" lon="0.6460080">
        <ele>33.2</ele>
        <time>2020-08-08T17:49:33Z</time>
      </trkpt>
      <trkpt lat="41.0912650" lon="0.6459990">
        <ele>33.2</ele>
        <time>2020-08-08T17:49:34Z</time>
      </trkpt>
      <trkpt lat="41.0912540" lon="0.6459900">
        <ele>33.2</ele>
        <time>2020-08-08T17:49:36Z</time>
      </trkpt>
      <trkpt lat="41.0912440" lon="0.6459800">
        <ele>33.2</ele>
        <time>2020-08-08T17:49:37Z</time>
      </trkpt>
      <trkpt lat="41.0912340" lon="0.6459710">
        <ele>33.2</ele>
        <time>2020-08-08T17:49:38Z</time>
      </trkpt>
      <trkpt lat="41.0912100" lon="0.6459370">
        <ele>33.2</ele>
        <time>2020-08-08T17:49:39Z</time>
      </trkpt>
      <trkpt lat="41.0912020" lon="0.6459260">
        <ele>33.2</ele>
        <time>2020-08-08T17:49:40Z</time>
      </trkpt>
      <trkpt lat="41.0911780" lon="0.6458840">
        <ele>33.2</ele>
        <time>2020-08-08T17:49:41Z</time>
      </trkpt>
      <trkpt lat="41.0911700" lon="0.6458690">
        <ele>33.2</ele>
        <time>2020-08-08T17:49:42Z</time>
      </trkpt>
      <trkpt lat="41.0911500" lon="0.6458350">
        <ele>33.2</ele>
        <time>2020-08-08T17:49:44Z</time>
      </trkpt>
      <trkpt lat="41.0911340" lon="0.6458030">
        <ele>33.2</ele>
        <time>2020-08-08T17:49:45Z</time>
      </trkpt>
      <trkpt lat="41.0911130" lon="0.6457730">
        <ele>33.2</ele>
        <time>2020-08-08T17:49:47Z</time>
      </trkpt>
      <trkpt lat="41.0910960" lon="0.6457360">
        <ele>33.2</ele>
        <time>2020-08-08T17:49:49Z</time>
      </trkpt>
      <trkpt lat="41.0910860" lon="0.6457210">
        <ele>33.2</ele>
        <time>2020-08-08T17:49:50Z</time>
      </trkpt>
      <trkpt lat="41.0910810" lon="0.6457060">
        <ele>33.2</ele>
        <time>2020-08-08T17:49:51Z</time>
      </trkpt>
      <trkpt lat="41.0910720" lon="0.6456820">
        <ele>33.2</ele>
        <time>2020-08-08T17:49:53Z</time>
      </trkpt>
      <trkpt lat="41.0910680" lon="0.6456730">
        <ele>33.2</ele>
        <time>2020-08-08T17:49:54Z</time>
      </trkpt>
      <trkpt lat="41.0910530" lon="0.6456490">
        <ele>33.2</ele>
        <time>2020-08-08T17:49:56Z</time>
      </trkpt>
      <trkpt lat="41.0910400" lon="0.6456280">
        <ele>33.2</ele>
        <time>2020-08-08T17:49:58Z</time>
      </trkpt>
      <trkpt lat="41.0910260" lon="0.6456080">
        <ele>33.3</ele>
        <time>2020-08-08T17:49:59Z</time>
      </trkpt>
      <trkpt lat="41.0910130" lon="0.6455870">
        <ele>33.3</ele>
        <time>2020-08-08T17:50:01Z</time>
      </trkpt>
      <trkpt lat="41.0909990" lon="0.6455660">
        <ele>33.3</ele>
        <time>2020-08-08T17:50:04Z</time>
      </trkpt>
      <trkpt lat="41.0909850" lon="0.6455450">
        <ele>33.3</ele>
        <time>2020-08-08T17:50:10Z</time>
      </trkpt>
      <trkpt lat="41.0909720" lon="0.6455250">
        <ele>33.3</ele>
        <time>2020-08-08T17:50:11Z</time>
      </trkpt>
      <trkpt lat="41.0909580" lon="0.6455040">
        <ele>33.3</ele>
        <time>2020-08-08T17:50:12Z</time>
      </trkpt>
      <trkpt lat="41.0909390" lon="0.6454690">
        <ele>33.3</ele>
        <time>2020-08-08T17:50:13Z</time>
      </trkpt>
      <trkpt lat="41.0909230" lon="0.6454430">
        <ele>33.3</ele>
        <time>2020-08-08T17:50:14Z</time>
      </trkpt>
      <trkpt lat="41.0909320" lon="0.6454660">
        <ele>33.3</ele>
        <time>2020-08-08T17:50:15Z</time>
      </trkpt>
      <trkpt lat="41.0909290" lon="0.6454690">
        <ele>33.3</ele>
        <time>2020-08-08T17:50:16Z</time>
      </trkpt>
      <trkpt lat="41.0909210" lon="0.6454690">
        <ele>33.3</ele>
        <time>2020-08-08T17:50:18Z</time>
      </trkpt>
      <trkpt lat="41.0909030" lon="0.6454520">
        <ele>33.3</ele>
        <time>2020-08-08T17:50:20Z</time>
      </trkpt>
      <trkpt lat="41.0908480" lon="0.6453470">
        <ele>33.3</ele>
        <time>2020-08-08T17:50:21Z</time>
      </trkpt>
      <trkpt lat="41.0908150" lon="0.6452820">
        <ele>33.3</ele>
        <time>2020-08-08T17:50:22Z</time>
      </trkpt>
      <trkpt lat="41.0907830" lon="0.6452180">
        <ele>33.3</ele>
        <time>2020-08-08T17:50:23Z</time>
      </trkpt>
      <trkpt lat="41.0907150" lon="0.6450960">
        <ele>33.3</ele>
        <time>2020-08-08T17:50:26Z</time>
      </trkpt>
      <trkpt lat="41.0906700" lon="0.6450200">
        <ele>33.3</ele>
        <time>2020-08-08T17:50:28Z</time>
      </trkpt>
      <trkpt lat="41.0906320" lon="0.6449590">
        <ele>33.3</ele>
        <time>2020-08-08T17:50:30Z</time>
      </trkpt>
      <trkpt lat="41.0906140" lon="0.6449310">
        <ele>33.3</ele>
        <time>2020-08-08T17:50:31Z</time>
      </trkpt>
      <trkpt lat="41.0905960" lon="0.6449030">
        <ele>33.3</ele>
        <time>2020-08-08T17:50:32Z</time>
      </trkpt>
      <trkpt lat="41.0905630" lon="0.6448470">
        <ele>33.3</ele>
        <time>2020-08-08T17:50:34Z</time>
      </trkpt>
      <trkpt lat="41.0905330" lon="0.6447990">
        <ele>33.3</ele>
        <time>2020-08-08T17:50:36Z</time>
      </trkpt>
      <trkpt lat="41.0905080" lon="0.6447570">
        <ele>33.3</ele>
        <time>2020-08-08T17:50:37Z</time>
      </trkpt>
      <trkpt lat="41.0905000" lon="0.6447430">
        <ele>33.3</ele>
        <time>2020-08-08T17:50:38Z</time>
      </trkpt>
      <trkpt lat="41.0904720" lon="0.6446910">
        <ele>33.3</ele>
        <time>2020-08-08T17:50:40Z</time>
      </trkpt>
      <trkpt lat="41.0904440" lon="0.6446460">
        <ele>33.3</ele>
        <time>2020-08-08T17:50:42Z</time>
      </trkpt>
      <trkpt lat="41.0904300" lon="0.6446240">
        <ele>33.3</ele>
        <time>2020-08-08T17:50:43Z</time>
      </trkpt>
      <trkpt lat="41.0904000" lon="0.6445790">
        <ele>33.3</ele>
        <time>2020-08-08T17:50:45Z</time>
      </trkpt>
      <trkpt lat="41.0903820" lon="0.6445500">
        <ele>33.3</ele>
        <time>2020-08-08T17:50:46Z</time>
      </trkpt>
      <trkpt lat="41.0903470" lon="0.6444980">
        <ele>33.3</ele>
        <time>2020-08-08T17:50:48Z</time>
      </trkpt>
      <trkpt lat="41.0903290" lon="0.6444720">
        <ele>33.3</ele>
        <time>2020-08-08T17:50:49Z</time>
      </trkpt>
      <trkpt lat="41.0902910" lon="0.6444160">
        <ele>33.3</ele>
        <time>2020-08-08T17:50:51Z</time>
      </trkpt>
      <trkpt lat="41.0902540" lon="0.6443520">
        <ele>33.3</ele>
        <time>2020-08-08T17:50:53Z</time>
      </trkpt>
      <trkpt lat="41.0902180" lon="0.6442850">
        <ele>33.3</ele>
        <time>2020-08-08T17:50:55Z</time>
      </trkpt>
      <trkpt lat="41.0902000" lon="0.6442520">
        <ele>33.3</ele>
        <time>2020-08-08T17:50:56Z</time>
      </trkpt>
      <trkpt lat="41.0901620" lon="0.6441800">
        <ele>33.3</ele>
        <time>2020-08-08T17:50:58Z</time>
      </trkpt>
      <trkpt lat="41.0901430" lon="0.6441470">
        <ele>33.3</ele>
        <time>2020-08-08T17:50:59Z</time>
      </trkpt>
      <trkpt lat="41.0901240" lon="0.6441130">
        <ele>33.4</ele>
        <time>2020-08-08T17:51:00Z</time>
      </trkpt>
      <trkpt lat="41.0900860" lon="0.6440490">
        <ele>33.4</ele>
        <time>2020-08-08T17:51:02Z</time>
      </trkpt>
      <trkpt lat="41.0900490" lon="0.6439900">
        <ele>33.4</ele>
        <time>2020-08-08T17:51:04Z</time>
      </trkpt>
      <trkpt lat="41.0900300" lon="0.6439620">
        <ele>33.5</ele>
        <time>2020-08-08T17:51:05Z</time>
      </trkpt>
      <trkpt lat="41.0900010" lon="0.6439180">
        <ele>33.5</ele>
        <time>2020-08-08T17:51:07Z</time>
      </trkpt>
      <trkpt lat="41.0899770" lon="0.6438810">
        <ele>33.5</ele>
        <time>2020-08-08T17:51:09Z</time>
      </trkpt>
      <trkpt lat="41.0899670" lon="0.6438650">
        <ele>33.5</ele>
        <time>2020-08-08T17:51:10Z</time>
      </trkpt>
      <trkpt lat="41.0899500" lon="0.6438240">
        <ele>33.6</ele>
        <time>2020-08-08T17:51:12Z</time>
      </trkpt>
      <trkpt lat="41.0899480" lon="0.6437870">
        <ele>33.7</ele>
        <time>2020-08-08T17:51:14Z</time>
      </trkpt>
      <trkpt lat="41.0899500" lon="0.6437690">
        <ele>33.7</ele>
        <time>2020-08-08T17:51:15Z</time>
      </trkpt>
      <trkpt lat="41.0899530" lon="0.6437530">
        <ele>33.7</ele>
        <time>2020-08-08T17:51:16Z</time>
      </trkpt>
      <trkpt lat="41.0899560" lon="0.6437430">
        <ele>33.6</ele>
        <time>2020-08-08T17:51:18Z</time>
      </trkpt>
      <trkpt lat="41.0899580" lon="0.6437410">
        <ele>33.6</ele>
        <time>2020-08-08T17:51:19Z</time>
      </trkpt>
      <trkpt lat="41.0899650" lon="0.6437420">
        <ele>33.6</ele>
        <time>2020-08-08T17:51:21Z</time>
      </trkpt>
      <trkpt lat="41.0899680" lon="0.6437430">
        <ele>33.6</ele>
        <time>2020-08-08T17:51:22Z</time>
      </trkpt>
      <trkpt lat="41.0899690" lon="0.6437420">
        <ele>33.6</ele>
        <time>2020-08-08T17:51:23Z</time>
      </trkpt>
      <trkpt lat="41.0899690" lon="0.6437410">
        <ele>33.6</ele>
        <time>2020-08-08T17:51:24Z</time>
      </trkpt>
      <trkpt lat="41.0899670" lon="0.6437410">
        <ele>33.6</ele>
        <time>2020-08-08T17:51:25Z</time>
      </trkpt>
      <trkpt lat="41.0899650" lon="0.6437420">
        <ele>33.6</ele>
        <time>2020-08-08T17:51:27Z</time>
      </trkpt>
      <trkpt lat="41.0899960" lon="0.6437310">
        <ele>33.6</ele>
        <time>2020-08-08T17:52:05Z</time>
      </trkpt>
      <trkpt lat="41.0900200" lon="0.6437270">
        <ele>33.6</ele>
        <time>2020-08-08T17:52:06Z</time>
      </trkpt>
      <trkpt lat="41.0900850" lon="0.6437090">
        <ele>33.3</ele>
        <time>2020-08-08T17:52:08Z</time>
      </trkpt>
      <trkpt lat="41.0901470" lon="0.6436810">
        <ele>33.1</ele>
        <time>2020-08-08T17:52:10Z</time>
      </trkpt>
      <trkpt lat="41.0901800" lon="0.6436660">
        <ele>32.9</ele>
        <time>2020-08-08T17:52:11Z</time>
      </trkpt>
      <trkpt lat="41.0902160" lon="0.6436510">
        <ele>32.8</ele>
        <time>2020-08-08T17:52:12Z</time>
      </trkpt>
      <trkpt lat="41.0902960" lon="0.6436240">
        <ele>32.5</ele>
        <time>2020-08-08T17:52:14Z</time>
      </trkpt>
      <trkpt lat="41.0903350" lon="0.6436120">
        <ele>32.3</ele>
        <time>2020-08-08T17:52:15Z</time>
      </trkpt>
      <trkpt lat="41.0903850" lon="0.6435840">
        <ele>32.1</ele>
        <time>2020-08-08T17:52:16Z</time>
      </trkpt>
      <trkpt lat="41.0904370" lon="0.6435510">
        <ele>31.9</ele>
        <time>2020-08-08T17:52:17Z</time>
      </trkpt>
      <trkpt lat="41.0905600" lon="0.6434230">
        <ele>31.4</ele>
        <time>2020-08-08T17:52:19Z</time>
      </trkpt>
      <trkpt lat="41.0906830" lon="0.6432770">
        <ele>31.7</ele>
        <time>2020-08-08T17:52:21Z</time>
      </trkpt>
      <trkpt lat="41.0907220" lon="0.6432240">
        <ele>31.9</ele>
        <time>2020-08-08T17:52:22Z</time>
      </trkpt>
      <trkpt lat="41.0907730" lon="0.6431340">
        <ele>32.3</ele>
        <time>2020-08-08T17:52:24Z</time>
      </trkpt>
      <trkpt lat="41.0907930" lon="0.6430920">
        <ele>32.6</ele>
        <time>2020-08-08T17:52:25Z</time>
      </trkpt>
      <trkpt lat="41.0908210" lon="0.6430230">
        <ele>33.0</ele>
        <time>2020-08-08T17:52:27Z</time>
      </trkpt>
      <trkpt lat="41.0908300" lon="0.6429980">
        <ele>33.1</ele>
        <time>2020-08-08T17:52:28Z</time>
      </trkpt>
      <trkpt lat="41.0908520" lon="0.6429610">
        <ele>33.3</ele>
        <time>2020-08-08T17:52:30Z</time>
      </trkpt>
      <trkpt lat="41.0908620" lon="0.6429510">
        <ele>33.4</ele>
        <time>2020-08-08T17:52:31Z</time>
      </trkpt>
      <trkpt lat="41.0908790" lon="0.6429110">
        <ele>33.6</ele>
        <time>2020-08-08T17:52:33Z</time>
      </trkpt>
      <trkpt lat="41.0908940" lon="0.6428640">
        <ele>33.9</ele>
        <time>2020-08-08T17:52:35Z</time>
      </trkpt>
      <trkpt lat="41.0909110" lon="0.6428260">
        <ele>34.1</ele>
        <time>2020-08-08T17:52:37Z</time>
      </trkpt>
      <trkpt lat="41.0909190" lon="0.6428070">
        <ele>34.2</ele>
        <time>2020-08-08T17:52:38Z</time>
      </trkpt>
      <trkpt lat="41.0909270" lon="0.6427560">
        <ele>34.5</ele>
        <time>2020-08-08T17:52:39Z</time>
      </trkpt>
      <trkpt lat="41.0909310" lon="0.6427030">
        <ele>34.7</ele>
        <time>2020-08-08T17:52:40Z</time>
      </trkpt>
      <trkpt lat="41.0909310" lon="0.6426650">
        <ele>34.8</ele>
        <time>2020-08-08T17:52:41Z</time>
      </trkpt>
      <trkpt lat="41.0909340" lon="0.6426330">
        <ele>34.9</ele>
        <time>2020-08-08T17:52:42Z</time>
      </trkpt>
      <trkpt lat="41.0909480" lon="0.6425750">
        <ele>35.1</ele>
        <time>2020-08-08T17:52:44Z</time>
      </trkpt>
      <trkpt lat="41.0909580" lon="0.6425360">
        <ele>35.2</ele>
        <time>2020-08-08T17:52:45Z</time>
      </trkpt>
      <trkpt lat="41.0909600" lon="0.6425250">
        <ele>35.3</ele>
        <time>2020-08-08T17:52:46Z</time>
      </trkpt>
      <trkpt lat="41.0909630" lon="0.6424970">
        <ele>35.4</ele>
        <time>2020-08-08T17:52:48Z</time>
      </trkpt>
      <trkpt lat="41.0909800" lon="0.6424560">
        <ele>35.5</ele>
        <time>2020-08-08T17:52:50Z</time>
      </trkpt>
      <trkpt lat="41.0909950" lon="0.6424410">
        <ele>35.6</ele>
        <time>2020-08-08T17:52:51Z</time>
      </trkpt>
      <trkpt lat="41.0910080" lon="0.6424250">
        <ele>35.7</ele>
        <time>2020-08-08T17:52:52Z</time>
      </trkpt>
      <trkpt lat="41.0910280" lon="0.6424080">
        <ele>35.8</ele>
        <time>2020-08-08T17:52:54Z</time>
      </trkpt>
      <trkpt lat="41.0910340" lon="0.6423970">
        <ele>35.8</ele>
        <time>2020-08-08T17:52:55Z</time>
      </trkpt>
      <trkpt lat="41.0910390" lon="0.6423890">
        <ele>35.9</ele>
        <time>2020-08-08T17:52:56Z</time>
      </trkpt>
      <trkpt lat="41.0910430" lon="0.6423780">
        <ele>35.9</ele>
        <time>2020-08-08T17:52:57Z</time>
      </trkpt>
      <trkpt lat="41.0910470" lon="0.6423630">
        <ele>36.0</ele>
        <time>2020-08-08T17:52:58Z</time>
      </trkpt>
      <trkpt lat="41.0910560" lon="0.6423190">
        <ele>36.1</ele>
        <time>2020-08-08T17:53:00Z</time>
      </trkpt>
      <trkpt lat="41.0910630" lon="0.6422810">
        <ele>36.3</ele>
        <time>2020-08-08T17:53:02Z</time>
      </trkpt>
      <trkpt lat="41.0910660" lon="0.6422290">
        <ele>36.5</ele>
        <time>2020-08-08T17:53:04Z</time>
      </trkpt>
      <trkpt lat="41.0910660" lon="0.6422060">
        <ele>36.6</ele>
        <time>2020-08-08T17:53:05Z</time>
      </trkpt>
      <trkpt lat="41.0910670" lon="0.6421870">
        <ele>36.6</ele>
        <time>2020-08-08T17:53:06Z</time>
      </trkpt>
      <trkpt lat="41.0910680" lon="0.6421590">
        <ele>36.7</ele>
        <time>2020-08-08T17:53:08Z</time>
      </trkpt>
      <trkpt lat="41.0910740" lon="0.6421210">
        <ele>36.9</ele>
        <time>2020-08-08T17:53:10Z</time>
      </trkpt>
      <trkpt lat="41.0910790" lon="0.6421020">
        <ele>36.9</ele>
        <time>2020-08-08T17:53:11Z</time>
      </trkpt>
      <trkpt lat="41.0910880" lon="0.6420880">
        <ele>37.0</ele>
        <time>2020-08-08T17:53:12Z</time>
      </trkpt>
      <trkpt lat="41.0910990" lon="0.6420750">
        <ele>37.1</ele>
        <time>2020-08-08T17:53:13Z</time>
      </trkpt>
      <trkpt lat="41.0911080" lon="0.6420640">
        <ele>37.1</ele>
        <time>2020-08-08T17:53:14Z</time>
      </trkpt>
      <trkpt lat="41.0911230" lon="0.6420470">
        <ele>37.2</ele>
        <time>2020-08-08T17:53:16Z</time>
      </trkpt>
      <trkpt lat="41.0911200" lon="0.6420610">
        <ele>37.3</ele>
        <time>2020-08-08T17:53:18Z</time>
      </trkpt>
      <trkpt lat="41.0911170" lon="0.6420740">
        <ele>37.3</ele>
        <time>2020-08-08T17:53:19Z</time>
      </trkpt>
      <trkpt lat="41.0911140" lon="0.6420870">
        <ele>37.4</ele>
        <time>2020-08-08T17:53:20Z</time>
      </trkpt>
      <trkpt lat="41.0910800" lon="0.6421630">
        <ele>37.7</ele>
        <time>2020-08-08T17:53:21Z</time>
      </trkpt>
      <trkpt lat="41.0910220" lon="0.6422960">
        <ele>38.3</ele>
        <time>2020-08-08T17:53:22Z</time>
      </trkpt>
      <trkpt lat="41.0909940" lon="0.6423490">
        <ele>38.5</ele>
        <time>2020-08-08T17:53:23Z</time>
      </trkpt>
      <trkpt lat="41.0909710" lon="0.6423770">
        <ele>38.6</ele>
        <time>2020-08-08T17:53:25Z</time>
      </trkpt>
      <trkpt lat="41.0909660" lon="0.6423830">
        <ele>38.7</ele>
        <time>2020-08-08T17:53:26Z</time>
      </trkpt>
      <trkpt lat="41.0909580" lon="0.6423780">
        <ele>38.7</ele>
        <time>2020-08-08T17:53:27Z</time>
      </trkpt>
      <trkpt lat="41.0909510" lon="0.6423710">
        <ele>38.7</ele>
        <time>2020-08-08T17:53:29Z</time>
      </trkpt>
      <trkpt lat="41.0909440" lon="0.6423580">
        <ele>38.8</ele>
        <time>2020-08-08T17:53:31Z</time>
      </trkpt>
      <trkpt lat="41.0909410" lon="0.6423490">
        <ele>38.8</ele>
        <time>2020-08-08T17:53:32Z</time>
      </trkpt>
      <trkpt lat="41.0909340" lon="0.6423380">
        <ele>38.9</ele>
        <time>2020-08-08T17:53:33Z</time>
      </trkpt>
      <trkpt lat="41.0909340" lon="0.6423240">
        <ele>38.9</ele>
        <time>2020-08-08T17:53:34Z</time>
      </trkpt>
      <trkpt lat="41.0909340" lon="0.6423070">
        <ele>39.0</ele>
        <time>2020-08-08T17:53:36Z</time>
      </trkpt>
      <trkpt lat="41.0909330" lon="0.6422860">
        <ele>39.1</ele>
        <time>2020-08-08T17:53:37Z</time>
      </trkpt>
      <trkpt lat="41.0909340" lon="0.6422540">
        <ele>39.2</ele>
        <time>2020-08-08T17:53:38Z</time>
      </trkpt>
      <trkpt lat="41.0909360" lon="0.6422380">
        <ele>39.2</ele>
        <time>2020-08-08T17:53:39Z</time>
      </trkpt>
      <trkpt lat="41.0909370" lon="0.6422230">
        <ele>39.3</ele>
        <time>2020-08-08T17:53:40Z</time>
      </trkpt>
      <trkpt lat="41.0909390" lon="0.6422040">
        <ele>39.3</ele>
        <time>2020-08-08T17:53:42Z</time>
      </trkpt>
      <trkpt lat="41.0909420" lon="0.6421790">
        <ele>39.4</ele>
        <time>2020-08-08T17:53:43Z</time>
      </trkpt>
      <trkpt lat="41.0909450" lon="0.6421590">
        <ele>39.5</ele>
        <time>2020-08-08T17:53:44Z</time>
      </trkpt>
      <trkpt lat="41.0909460" lon="0.6421400">
        <ele>39.5</ele>
        <time>2020-08-08T17:53:45Z</time>
      </trkpt>
      <trkpt lat="41.0909550" lon="0.6421030">
        <ele>39.7</ele>
        <time>2020-08-08T17:53:46Z</time>
      </trkpt>
      <trkpt lat="41.0909560" lon="0.6420920">
        <ele>39.7</ele>
        <time>2020-08-08T17:53:47Z</time>
      </trkpt>
      <trkpt lat="41.0909610" lon="0.6420560">
        <ele>39.8</ele>
        <time>2020-08-08T17:53:49Z</time>
      </trkpt>
      <trkpt lat="41.0909640" lon="0.6420310">
        <ele>39.9</ele>
        <time>2020-08-08T17:53:50Z</time>
      </trkpt>
      <trkpt lat="41.0909660" lon="0.6419990">
        <ele>40.0</ele>
        <time>2020-08-08T17:53:52Z</time>
      </trkpt>
      <trkpt lat="41.0909700" lon="0.6419690">
        <ele>40.1</ele>
        <time>2020-08-08T17:53:53Z</time>
      </trkpt>
      <trkpt lat="41.0909680" lon="0.6419380">
        <ele>41.1</ele>
        <time>2020-08-08T17:53:55Z</time>
      </trkpt>
      <trkpt lat="41.0909710" lon="0.6418930">
        <ele>41.2</ele>
        <time>2020-08-08T17:53:56Z</time>
      </trkpt>
      <trkpt lat="41.0909710" lon="0.6418750">
        <ele>41.2</ele>
        <time>2020-08-08T17:53:57Z</time>
      </trkpt>
      <trkpt lat="41.0909670" lon="0.6418360">
        <ele>41.2</ele>
        <time>2020-08-08T17:53:59Z</time>
      </trkpt>
      <trkpt lat="41.0909640" lon="0.6418240">
        <ele>41.2</ele>
        <time>2020-08-08T17:54:00Z</time>
      </trkpt>
      <trkpt lat="41.0909580" lon="0.6417990">
        <ele>41.2</ele>
        <time>2020-08-08T17:54:01Z</time>
      </trkpt>
      <trkpt lat="41.0909510" lon="0.6417720">
        <ele>41.2</ele>
        <time>2020-08-08T17:54:03Z</time>
      </trkpt>
      <trkpt lat="41.0909430" lon="0.6417460">
        <ele>41.3</ele>
        <time>2020-08-08T17:54:04Z</time>
      </trkpt>
      <trkpt lat="41.0909400" lon="0.6417370">
        <ele>41.3</ele>
        <time>2020-08-08T17:54:05Z</time>
      </trkpt>
      <trkpt lat="41.0909360" lon="0.6417270">
        <ele>41.3</ele>
        <time>2020-08-08T17:54:06Z</time>
      </trkpt>
      <trkpt lat="41.0909270" lon="0.6417060">
        <ele>41.3</ele>
        <time>2020-08-08T17:54:07Z</time>
      </trkpt>
      <trkpt lat="41.0909190" lon="0.6416950">
        <ele>41.3</ele>
        <time>2020-08-08T17:54:08Z</time>
      </trkpt>
      <trkpt lat="41.0909100" lon="0.6416860">
        <ele>41.3</ele>
        <time>2020-08-08T17:54:09Z</time>
      </trkpt>
      <trkpt lat="41.0908980" lon="0.6416720">
        <ele>41.3</ele>
        <time>2020-08-08T17:54:11Z</time>
      </trkpt>
      <trkpt lat="41.0908890" lon="0.6416630">
        <ele>41.3</ele>
        <time>2020-08-08T17:54:12Z</time>
      </trkpt>
      <trkpt lat="41.0908800" lon="0.6416520">
        <ele>41.3</ele>
        <time>2020-08-08T17:54:14Z</time>
      </trkpt>
      <trkpt lat="41.0908780" lon="0.6416360">
        <ele>41.4</ele>
        <time>2020-08-08T17:54:15Z</time>
      </trkpt>
      <trkpt lat="41.0908680" lon="0.6416170">
        <ele>41.4</ele>
        <time>2020-08-08T17:54:16Z</time>
      </trkpt>
      <trkpt lat="41.0908620" lon="0.6416060">
        <ele>41.4</ele>
        <time>2020-08-08T17:54:17Z</time>
      </trkpt>
      <trkpt lat="41.0908570" lon="0.6415990">
        <ele>41.4</ele>
        <time>2020-08-08T17:54:18Z</time>
      </trkpt>
      <trkpt lat="41.0908460" lon="0.6415860">
        <ele>41.4</ele>
        <time>2020-08-08T17:54:20Z</time>
      </trkpt>
      <trkpt lat="41.0908350" lon="0.6415790">
        <ele>41.4</ele>
        <time>2020-08-08T17:54:22Z</time>
      </trkpt>
      <trkpt lat="41.0908290" lon="0.6415790">
        <ele>41.4</ele>
        <time>2020-08-08T17:54:23Z</time>
      </trkpt>
      <trkpt lat="41.0908250" lon="0.6415780">
        <ele>41.4</ele>
        <time>2020-08-08T17:54:24Z</time>
      </trkpt>
      <trkpt lat="41.0908200" lon="0.6415760">
        <ele>41.4</ele>
        <time>2020-08-08T17:54:25Z</time>
      </trkpt>
      <trkpt lat="41.0908100" lon="0.6415640">
        <ele>41.4</ele>
        <time>2020-08-08T17:54:26Z</time>
      </trkpt>
      <trkpt lat="41.0907940" lon="0.6415460">
        <ele>41.5</ele>
        <time>2020-08-08T17:54:28Z</time>
      </trkpt>
      <trkpt lat="41.0907870" lon="0.6415440">
        <ele>41.5</ele>
        <time>2020-08-08T17:54:30Z</time>
      </trkpt>
      <trkpt lat="41.0907820" lon="0.6415450">
        <ele>41.5</ele>
        <time>2020-08-08T17:54:32Z</time>
      </trkpt>
      <trkpt lat="41.0907740" lon="0.6415520">
        <ele>41.5</ele>
        <time>2020-08-08T17:54:33Z</time>
      </trkpt>
      <trkpt lat="41.0907650" lon="0.6415530">
        <ele>41.5</ele>
        <time>2020-08-08T17:54:34Z</time>
      </trkpt>
      <trkpt lat="41.0907540" lon="0.6415610">
        <ele>41.5</ele>
        <time>2020-08-08T17:54:36Z</time>
      </trkpt>
      <trkpt lat="41.0907480" lon="0.6415710">
        <ele>41.5</ele>
        <time>2020-08-08T17:54:37Z</time>
      </trkpt>
      <trkpt lat="41.0907350" lon="0.6415880">
        <ele>41.5</ele>
        <time>2020-08-08T17:54:39Z</time>
      </trkpt>
      <trkpt lat="41.0907030" lon="0.6415960">
        <ele>41.5</ele>
        <time>2020-08-08T17:54:40Z</time>
      </trkpt>
      <trkpt lat="41.0906880" lon="0.6415990">
        <ele>41.6</ele>
        <time>2020-08-08T17:54:42Z</time>
      </trkpt>
      <trkpt lat="41.0906720" lon="0.6416030">
        <ele>41.6</ele>
        <time>2020-08-08T17:54:44Z</time>
      </trkpt>
      <trkpt lat="41.0906570" lon="0.6416060">
        <ele>41.6</ele>
        <time>2020-08-08T17:54:45Z</time>
      </trkpt>
      <trkpt lat="41.0906430" lon="0.6416100">
        <ele>41.6</ele>
        <time>2020-08-08T17:54:46Z</time>
      </trkpt>
      <trkpt lat="41.0906320" lon="0.6416160">
        <ele>41.6</ele>
        <time>2020-08-08T17:54:47Z</time>
      </trkpt>
      <trkpt lat="41.0906220" lon="0.6416220">
        <ele>41.6</ele>
        <time>2020-08-08T17:54:48Z</time>
      </trkpt>
      <trkpt lat="41.0906080" lon="0.6416300">
        <ele>41.6</ele>
        <time>2020-08-08T17:54:49Z</time>
      </trkpt>
      <trkpt lat="41.0905920" lon="0.6416390">
        <ele>41.6</ele>
        <time>2020-08-08T17:54:51Z</time>
      </trkpt>
      <trkpt lat="41.0905760" lon="0.6416490">
        <ele>41.7</ele>
        <time>2020-08-08T17:54:53Z</time>
      </trkpt>
      <trkpt lat="41.0905680" lon="0.6416600">
        <ele>41.7</ele>
        <time>2020-08-08T17:54:55Z</time>
      </trkpt>
      <trkpt lat="41.0905720" lon="0.6416710">
        <ele>41.7</ele>
        <time>2020-08-08T17:54:57Z</time>
      </trkpt>
      <trkpt lat="41.0905730" lon="0.6416810">
        <ele>41.7</ele>
        <time>2020-08-08T17:54:59Z</time>
      </trkpt>
      <trkpt lat="41.0905740" lon="0.6416910">
        <ele>41.7</ele>
        <time>2020-08-08T17:55:01Z</time>
      </trkpt>
      <trkpt lat="41.0905750" lon="0.6416960">
        <ele>41.7</ele>
        <time>2020-08-08T17:55:02Z</time>
      </trkpt>
      <trkpt lat="41.0905750" lon="0.6417020">
        <ele>41.7</ele>
        <time>2020-08-08T17:55:04Z</time>
      </trkpt>
      <trkpt lat="41.0905750" lon="0.6417050">
        <ele>41.7</ele>
        <time>2020-08-08T17:55:05Z</time>
      </trkpt>
      <trkpt lat="41.0905760" lon="0.6417080">
        <ele>41.7</ele>
        <time>2020-08-08T17:55:07Z</time>
      </trkpt>
      <trkpt lat="41.0905760" lon="0.6417100">
        <ele>41.7</ele>
        <time>2020-08-08T17:55:08Z</time>
      </trkpt>
      <trkpt lat="41.0905700" lon="0.6417200">
        <ele>41.7</ele>
        <time>2020-08-08T17:55:09Z</time>
      </trkpt>
      <trkpt lat="41.0905660" lon="0.6417290">
        <ele>41.7</ele>
        <time>2020-08-08T17:55:10Z</time>
      </trkpt>
      <trkpt lat="41.0905600" lon="0.6417450">
        <ele>41.7</ele>
        <time>2020-08-08T17:55:12Z</time>
      </trkpt>
      <trkpt lat="41.0905570" lon="0.6417590">
        <ele>41.7</ele>
        <time>2020-08-08T17:55:14Z</time>
      </trkpt>
      <trkpt lat="41.0905610" lon="0.6417500">
        <ele>41.7</ele>
        <time>2020-08-08T17:55:15Z</time>
      </trkpt>
      <trkpt lat="41.0905620" lon="0.6417400">
        <ele>41.8</ele>
        <time>2020-08-08T17:55:16Z</time>
      </trkpt>
      <trkpt lat="41.0905600" lon="0.6417350">
        <ele>41.8</ele>
        <time>2020-08-08T17:55:18Z</time>
      </trkpt>
      <trkpt lat="41.0905560" lon="0.6417330">
        <ele>41.8</ele>
        <time>2020-08-08T17:55:19Z</time>
      </trkpt>
      <trkpt lat="41.0905530" lon="0.6417330">
        <ele>41.8</ele>
        <time>2020-08-08T17:55:21Z</time>
      </trkpt>
      <trkpt lat="41.0905520" lon="0.6417340">
        <ele>41.8</ele>
        <time>2020-08-08T17:55:22Z</time>
      </trkpt>
      <trkpt lat="41.0905460" lon="0.6417350">
        <ele>41.8</ele>
        <time>2020-08-08T17:55:23Z</time>
      </trkpt>
      <trkpt lat="41.0905420" lon="0.6417370">
        <ele>41.8</ele>
        <time>2020-08-08T17:55:25Z</time>
      </trkpt>
      <trkpt lat="41.0904560" lon="0.6418020">
        <ele>41.9</ele>
        <time>2020-08-08T17:55:37Z</time>
      </trkpt>
      <trkpt lat="41.0904230" lon="0.6418350">
        <ele>41.9</ele>
        <time>2020-08-08T17:55:39Z</time>
      </trkpt>
      <trkpt lat="41.0903980" lon="0.6418700">
        <ele>41.9</ele>
        <time>2020-08-08T17:55:40Z</time>
      </trkpt>
      <trkpt lat="41.0903910" lon="0.6418810">
        <ele>41.9</ele>
        <time>2020-08-08T17:55:41Z</time>
      </trkpt>
      <trkpt lat="41.0903650" lon="0.6419560">
        <ele>42.0</ele>
        <time>2020-08-08T17:55:42Z</time>
      </trkpt>
      <trkpt lat="41.0903250" lon="0.6420850">
        <ele>42.1</ele>
        <time>2020-08-08T17:55:44Z</time>
      </trkpt>
      <trkpt lat="41.0903170" lon="0.6421380">
        <ele>42.1</ele>
        <time>2020-08-08T17:55:45Z</time>
      </trkpt>
      <trkpt lat="41.0903100" lon="0.6421890">
        <ele>42.2</ele>
        <time>2020-08-08T17:55:46Z</time>
      </trkpt>
      <trkpt lat="41.0903180" lon="0.6422610">
        <ele>41.7</ele>
        <time>2020-08-08T17:55:48Z</time>
      </trkpt>
      <trkpt lat="41.0903360" lon="0.6422900">
        <ele>41.5</ele>
        <time>2020-08-08T17:55:49Z</time>
      </trkpt>
      <trkpt lat="41.0903630" lon="0.6423150">
        <ele>41.3</ele>
        <time>2020-08-08T17:55:50Z</time>
      </trkpt>
      <trkpt lat="41.0903930" lon="0.6423320">
        <ele>41.1</ele>
        <time>2020-08-08T17:55:51Z</time>
      </trkpt>
      <trkpt lat="41.0904220" lon="0.6423430">
        <ele>41.0</ele>
        <time>2020-08-08T17:55:52Z</time>
      </trkpt>
      <trkpt lat="41.0904510" lon="0.6423550">
        <ele>40.8</ele>
        <time>2020-08-08T17:55:53Z</time>
      </trkpt>
      <trkpt lat="41.0905120" lon="0.6423730">
        <ele>40.4</ele>
        <time>2020-08-08T17:55:55Z</time>
      </trkpt>
      <trkpt lat="41.0905420" lon="0.6423810">
        <ele>40.2</ele>
        <time>2020-08-08T17:55:56Z</time>
      </trkpt>
      <trkpt lat="41.0905870" lon="0.6423980">
        <ele>39.9</ele>
        <time>2020-08-08T17:55:58Z</time>
      </trkpt>
      <trkpt lat="41.0906080" lon="0.6424050">
        <ele>39.8</ele>
        <time>2020-08-08T17:55:59Z</time>
      </trkpt>
      <trkpt lat="41.0906160" lon="0.6424060">
        <ele>39.7</ele>
        <time>2020-08-08T17:56:00Z</time>
      </trkpt>
      <trkpt lat="41.0906230" lon="0.6424070">
        <ele>39.7</ele>
        <time>2020-08-08T17:56:01Z</time>
      </trkpt>
      <trkpt lat="41.0906340" lon="0.6424030">
        <ele>39.6</ele>
        <time>2020-08-08T17:56:02Z</time>
      </trkpt>
      <trkpt lat="41.0906340" lon="0.6423970">
        <ele>39.6</ele>
        <time>2020-08-08T17:56:04Z</time>
      </trkpt>
      <trkpt lat="41.0906310" lon="0.6423930">
        <ele>39.6</ele>
        <time>2020-08-08T17:56:05Z</time>
      </trkpt>
      <trkpt lat="41.0906280" lon="0.6423900">
        <ele>39.5</ele>
        <time>2020-08-08T17:56:06Z</time>
      </trkpt>
      <trkpt lat="41.0906330" lon="0.6423790">
        <ele>39.5</ele>
        <time>2020-08-08T17:56:12Z</time>
      </trkpt>
      <trkpt lat="41.0906260" lon="0.6423870">
        <ele>39.4</ele>
        <time>2020-08-08T17:56:13Z</time>
      </trkpt>
      <trkpt lat="41.0906260" lon="0.6423860">
        <ele>39.4</ele>
        <time>2020-08-08T17:56:14Z</time>
      </trkpt>
      <trkpt lat="41.0906340" lon="0.6423830">
        <ele>39.4</ele>
        <time>2020-08-08T17:56:15Z</time>
      </trkpt>
      <trkpt lat="41.0906540" lon="0.6423960">
        <ele>39.2</ele>
        <time>2020-08-08T17:56:17Z</time>
      </trkpt>
      <trkpt lat="41.0906580" lon="0.6424130">
        <ele>39.1</ele>
        <time>2020-08-08T17:56:18Z</time>
      </trkpt>
      <trkpt lat="41.0906610" lon="0.6424420">
        <ele>39.0</ele>
        <time>2020-08-08T17:56:20Z</time>
      </trkpt>
      <trkpt lat="41.0906710" lon="0.6424800">
        <ele>38.8</ele>
        <time>2020-08-08T17:56:22Z</time>
      </trkpt>
      <trkpt lat="41.0906760" lon="0.6424990">
        <ele>38.7</ele>
        <time>2020-08-08T17:56:23Z</time>
      </trkpt>
      <trkpt lat="41.0906850" lon="0.6425300">
        <ele>38.6</ele>
        <time>2020-08-08T17:56:25Z</time>
      </trkpt>
      <trkpt lat="41.0906850" lon="0.6425370">
        <ele>38.5</ele>
        <time>2020-08-08T17:56:26Z</time>
      </trkpt>
      <trkpt lat="41.0906850" lon="0.6425340">
        <ele>38.5</ele>
        <time>2020-08-08T17:56:28Z</time>
      </trkpt>
      <trkpt lat="41.0906850" lon="0.6425270">
        <ele>38.5</ele>
        <time>2020-08-08T17:56:29Z</time>
      </trkpt>
      <trkpt lat="41.0906870" lon="0.6425250">
        <ele>38.5</ele>
        <time>2020-08-08T17:56:30Z</time>
      </trkpt>
      <trkpt lat="41.0906880" lon="0.6425220">
        <ele>38.5</ele>
        <time>2020-08-08T17:56:32Z</time>
      </trkpt>
      <trkpt lat="41.0906890" lon="0.6425210">
        <ele>38.4</ele>
        <time>2020-08-08T17:56:33Z</time>
      </trkpt>
      <trkpt lat="41.0906900" lon="0.6425200">
        <ele>38.4</ele>
        <time>2020-08-08T17:56:35Z</time>
      </trkpt>
      <trkpt lat="41.0906910" lon="0.6425200">
        <ele>38.4</ele>
        <time>2020-08-08T17:56:37Z</time>
      </trkpt>
      <trkpt lat="41.0906960" lon="0.6425650">
        <ele>38.2</ele>
        <time>2020-08-08T17:58:00Z</time>
      </trkpt>
      <trkpt lat="41.0906880" lon="0.6425890">
        <ele>38.1</ele>
        <time>2020-08-08T17:58:02Z</time>
      </trkpt>
      <trkpt lat="41.0906740" lon="0.6426030">
        <ele>38.0</ele>
        <time>2020-08-08T17:58:04Z</time>
      </trkpt>
      <trkpt lat="41.0906690" lon="0.6426110">
        <ele>37.9</ele>
        <time>2020-08-08T17:58:05Z</time>
      </trkpt>
      <trkpt lat="41.0906550" lon="0.6425810">
        <ele>37.8</ele>
        <time>2020-08-08T17:58:07Z</time>
      </trkpt>
      <trkpt lat="41.0906550" lon="0.6425470">
        <ele>37.6</ele>
        <time>2020-08-08T17:58:09Z</time>
      </trkpt>
      <trkpt lat="41.0906640" lon="0.6425060">
        <ele>37.4</ele>
        <time>2020-08-08T17:58:11Z</time>
      </trkpt>
      <trkpt lat="41.0906680" lon="0.6424840">
        <ele>37.3</ele>
        <time>2020-08-08T17:58:12Z</time>
      </trkpt>
      <trkpt lat="41.0906730" lon="0.6424510">
        <ele>37.2</ele>
        <time>2020-08-08T17:58:14Z</time>
      </trkpt>
      <trkpt lat="41.0906740" lon="0.6424420">
        <ele>37.1</ele>
        <time>2020-08-08T17:58:15Z</time>
      </trkpt>
      <trkpt lat="41.0906760" lon="0.6424370">
        <ele>37.1</ele>
        <time>2020-08-08T17:58:16Z</time>
      </trkpt>
      <trkpt lat="41.0906800" lon="0.6424290">
        <ele>37.0</ele>
        <time>2020-08-08T17:58:18Z</time>
      </trkpt>
      <trkpt lat="41.0906800" lon="0.6424260">
        <ele>37.0</ele>
        <time>2020-08-08T17:58:19Z</time>
      </trkpt>
      <trkpt lat="41.0906770" lon="0.6424220">
        <ele>37.0</ele>
        <time>2020-08-08T17:58:21Z</time>
      </trkpt>
      <trkpt lat="41.0906760" lon="0.6424220">
        <ele>37.0</ele>
        <time>2020-08-08T17:58:22Z</time>
      </trkpt>
      <trkpt lat="41.0906780" lon="0.6424210">
        <ele>37.0</ele>
        <time>2020-08-08T17:58:24Z</time>
      </trkpt>
      <trkpt lat="41.0906790" lon="0.6424200">
        <ele>37.0</ele>
        <time>2020-08-08T17:58:25Z</time>
      </trkpt>
      <trkpt lat="41.0906800" lon="0.6424190">
        <ele>37.0</ele>
        <time>2020-08-08T17:58:26Z</time>
      </trkpt>
      <trkpt lat="41.0906820" lon="0.6424170">
        <ele>37.0</ele>
        <time>2020-08-08T17:58:28Z</time>
      </trkpt>
      <trkpt lat="41.0907070" lon="0.6424510">
        <ele>36.7</ele>
        <time>2020-08-08T17:59:05Z</time>
      </trkpt>
      <trkpt lat="41.0907180" lon="0.6424550">
        <ele>36.7</ele>
        <time>2020-08-08T17:59:06Z</time>
      </trkpt>
      <trkpt lat="41.0907330" lon="0.6424630">
        <ele>36.6</ele>
        <time>2020-08-08T17:59:07Z</time>
      </trkpt>
      <trkpt lat="41.0907610" lon="0.6424770">
        <ele>36.4</ele>
        <time>2020-08-08T17:59:09Z</time>
      </trkpt>
      <trkpt lat="41.0907730" lon="0.6424820">
        <ele>36.3</ele>
        <time>2020-08-08T17:59:10Z</time>
      </trkpt>
      <trkpt lat="41.0907800" lon="0.6424830">
        <ele>36.3</ele>
        <time>2020-08-08T17:59:11Z</time>
      </trkpt>
      <trkpt lat="41.0907860" lon="0.6424910">
        <ele>36.2</ele>
        <time>2020-08-08T17:59:12Z</time>
      </trkpt>
      <trkpt lat="41.0907870" lon="0.6425060">
        <ele>36.1</ele>
        <time>2020-08-08T17:59:14Z</time>
      </trkpt>
      <trkpt lat="41.0907950" lon="0.6425130">
        <ele>36.1</ele>
        <time>2020-08-08T17:59:16Z</time>
      </trkpt>
      <trkpt lat="41.0907980" lon="0.6425190">
        <ele>36.0</ele>
        <time>2020-08-08T17:59:17Z</time>
      </trkpt>
      <trkpt lat="41.0908010" lon="0.6425240">
        <ele>36.0</ele>
        <time>2020-08-08T17:59:18Z</time>
      </trkpt>
      <trkpt lat="41.0908020" lon="0.6425310">
        <ele>36.0</ele>
        <time>2020-08-08T17:59:19Z</time>
      </trkpt>
      <trkpt lat="41.0908040" lon="0.6425390">
        <ele>35.9</ele>
        <time>2020-08-08T17:59:20Z</time>
      </trkpt>
      <trkpt lat="41.0908040" lon="0.6425460">
        <ele>35.9</ele>
        <time>2020-08-08T17:59:21Z</time>
      </trkpt>
      <trkpt lat="41.0908060" lon="0.6425540">
        <ele>35.9</ele>
        <time>2020-08-08T17:59:22Z</time>
      </trkpt>
      <trkpt lat="41.0908070" lon="0.6425620">
        <ele>35.8</ele>
        <time>2020-08-08T17:59:23Z</time>
      </trkpt>
      <trkpt lat="41.0908230" lon="0.6425860">
        <ele>35.7</ele>
        <time>2020-08-08T17:59:25Z</time>
      </trkpt>
      <trkpt lat="41.0908490" lon="0.6426140">
        <ele>35.5</ele>
        <time>2020-08-08T17:59:27Z</time>
      </trkpt>
      <trkpt lat="41.0908710" lon="0.6426250">
        <ele>35.3</ele>
        <time>2020-08-08T17:59:28Z</time>
      </trkpt>
      <trkpt lat="41.0909060" lon="0.6426430">
        <ele>35.1</ele>
        <time>2020-08-08T17:59:30Z</time>
      </trkpt>
      <trkpt lat="41.0909240" lon="0.6426520">
        <ele>35.0</ele>
        <time>2020-08-08T17:59:31Z</time>
      </trkpt>
      <trkpt lat="41.0909490" lon="0.6426760">
        <ele>34.8</ele>
        <time>2020-08-08T17:59:33Z</time>
      </trkpt>
      <trkpt lat="41.0909620" lon="0.6426890">
        <ele>34.7</ele>
        <time>2020-08-08T17:59:34Z</time>
      </trkpt>
      <trkpt lat="41.0909770" lon="0.6426940">
        <ele>34.6</ele>
        <time>2020-08-08T17:59:35Z</time>
      </trkpt>
      <trkpt lat="41.0910080" lon="0.6426730">
        <ele>34.4</ele>
        <time>2020-08-08T17:59:36Z</time>
      </trkpt>
      <trkpt lat="41.0910170" lon="0.6426620">
        <ele>35.5</ele>
        <time>2020-08-08T17:59:37Z</time>
      </trkpt>
      <trkpt lat="41.0910330" lon="0.6426380">
        <ele>35.7</ele>
        <time>2020-08-08T17:59:38Z</time>
      </trkpt>
      <trkpt lat="41.0910240" lon="0.6425960">
        <ele>36.0</ele>
        <time>2020-08-08T17:59:40Z</time>
      </trkpt>
      <trkpt lat="41.0909900" lon="0.6425630">
        <ele>36.4</ele>
        <time>2020-08-08T17:59:41Z</time>
      </trkpt>
      <trkpt lat="41.0909750" lon="0.6425460">
        <ele>36.5</ele>
        <time>2020-08-08T17:59:42Z</time>
      </trkpt>
      <trkpt lat="41.0909530" lon="0.6425150">
        <ele>36.8</ele>
        <time>2020-08-08T17:59:44Z</time>
      </trkpt>
      <trkpt lat="41.0909340" lon="0.6425080">
        <ele>37.0</ele>
        <time>2020-08-08T17:59:45Z</time>
      </trkpt>
      <trkpt lat="41.0909310" lon="0.6424770">
        <ele>37.2</ele>
        <time>2020-08-08T17:59:47Z</time>
      </trkpt>
      <trkpt lat="41.0909290" lon="0.6424690">
        <ele>37.3</ele>
        <time>2020-08-08T17:59:48Z</time>
      </trkpt>
      <trkpt lat="41.0909300" lon="0.6424600">
        <ele>37.3</ele>
        <time>2020-08-08T17:59:49Z</time>
      </trkpt>
      <trkpt lat="41.0909320" lon="0.6424480">
        <ele>37.4</ele>
        <time>2020-08-08T17:59:50Z</time>
      </trkpt>
      <trkpt lat="41.0909340" lon="0.6424310">
        <ele>37.5</ele>
        <time>2020-08-08T17:59:51Z</time>
      </trkpt>
      <trkpt lat="41.0909380" lon="0.6424150">
        <ele>37.6</ele>
        <time>2020-08-08T17:59:52Z</time>
      </trkpt>
      <trkpt lat="41.0909480" lon="0.6423950">
        <ele>37.8</ele>
        <time>2020-08-08T17:59:53Z</time>
      </trkpt>
      <trkpt lat="41.0909530" lon="0.6423920">
        <ele>37.8</ele>
        <time>2020-08-08T17:59:55Z</time>
      </trkpt>
      <trkpt lat="41.0909650" lon="0.6423790">
        <ele>38.0</ele>
        <time>2020-08-08T17:59:57Z</time>
      </trkpt>
      <trkpt lat="41.0909770" lon="0.6423580">
        <ele>38.2</ele>
        <time>2020-08-08T17:59:59Z</time>
      </trkpt>
      <trkpt lat="41.0909920" lon="0.6423220">
        <ele>38.4</ele>
        <time>2020-08-08T18:00:01Z</time>
      </trkpt>
      <trkpt lat="41.0910080" lon="0.6422860">
        <ele>38.7</ele>
        <time>2020-08-08T18:00:03Z</time>
      </trkpt>
      <trkpt lat="41.0910180" lon="0.6422600">
        <ele>38.9</ele>
        <time>2020-08-08T18:00:04Z</time>
      </trkpt>
      <trkpt lat="41.0910380" lon="0.6422130">
        <ele>39.2</ele>
        <time>2020-08-08T18:00:06Z</time>
      </trkpt>
      <trkpt lat="41.0910510" lon="0.6421760">
        <ele>39.5</ele>
        <time>2020-08-08T18:00:07Z</time>
      </trkpt>
      <trkpt lat="41.0910560" lon="0.6421640">
        <ele>39.6</ele>
        <time>2020-08-08T18:00:08Z</time>
      </trkpt>
      <trkpt lat="41.0910660" lon="0.6421400">
        <ele>39.7</ele>
        <time>2020-08-08T18:00:09Z</time>
      </trkpt>
      <trkpt lat="41.0910950" lon="0.6420880">
        <ele>40.1</ele>
        <time>2020-08-08T18:00:11Z</time>
      </trkpt>
      <trkpt lat="41.0911170" lon="0.6420490">
        <ele>40.3</ele>
        <time>2020-08-08T18:00:12Z</time>
      </trkpt>
      <trkpt lat="41.0911250" lon="0.6420360">
        <ele>40.4</ele>
        <time>2020-08-08T18:00:13Z</time>
      </trkpt>
      <trkpt lat="41.0911520" lon="0.6420000">
        <ele>40.5</ele>
        <time>2020-08-08T18:00:14Z</time>
      </trkpt>
      <trkpt lat="41.0911830" lon="0.6419530">
        <ele>40.7</ele>
        <time>2020-08-08T18:00:16Z</time>
      </trkpt>
      <trkpt lat="41.0912000" lon="0.6419330">
        <ele>40.8</ele>
        <time>2020-08-08T18:00:17Z</time>
      </trkpt>
      <trkpt lat="41.0912160" lon="0.6419140">
        <ele>41.0</ele>
        <time>2020-08-08T18:00:19Z</time>
      </trkpt>
      <trkpt lat="41.0912380" lon="0.6418880">
        <ele>41.1</ele>
        <time>2020-08-08T18:00:20Z</time>
      </trkpt>
      <trkpt lat="41.0912470" lon="0.6418760">
        <ele>41.2</ele>
        <time>2020-08-08T18:00:21Z</time>
      </trkpt>
      <trkpt lat="41.0912730" lon="0.6418470">
        <ele>41.4</ele>
        <time>2020-08-08T18:00:23Z</time>
      </trkpt>
      <trkpt lat="41.0912990" lon="0.6418260">
        <ele>41.6</ele>
        <time>2020-08-08T18:00:24Z</time>
      </trkpt>
      <trkpt lat="41.0913350" lon="0.6418060">
        <ele>41.9</ele>
        <time>2020-08-08T18:00:26Z</time>
      </trkpt>
      <trkpt lat="41.0913470" lon="0.6418000">
        <ele>42.0</ele>
        <time>2020-08-08T18:00:27Z</time>
      </trkpt>
      <trkpt lat="41.0913680" lon="0.6417910">
        <ele>42.1</ele>
        <time>2020-08-08T18:00:28Z</time>
      </trkpt>
      <trkpt lat="41.0913910" lon="0.6417760">
        <ele>42.3</ele>
        <time>2020-08-08T18:00:30Z</time>
      </trkpt>
      <trkpt lat="41.0914220" lon="0.6417550">
        <ele>42.5</ele>
        <time>2020-08-08T18:00:31Z</time>
      </trkpt>
      <trkpt lat="41.0914330" lon="0.6417480">
        <ele>42.6</ele>
        <time>2020-08-08T18:00:32Z</time>
      </trkpt>
      <trkpt lat="41.0914680" lon="0.6417300">
        <ele>42.9</ele>
        <time>2020-08-08T18:00:33Z</time>
      </trkpt>
      <trkpt lat="41.0914790" lon="0.6417220">
        <ele>43.0</ele>
        <time>2020-08-08T18:00:34Z</time>
      </trkpt>
      <trkpt lat="41.0915060" lon="0.6417050">
        <ele>43.2</ele>
        <time>2020-08-08T18:00:35Z</time>
      </trkpt>
      <trkpt lat="41.0915150" lon="0.6416990">
        <ele>43.2</ele>
        <time>2020-08-08T18:00:36Z</time>
      </trkpt>
      <trkpt lat="41.0915480" lon="0.6416810">
        <ele>43.5</ele>
        <time>2020-08-08T18:00:38Z</time>
      </trkpt>
      <trkpt lat="41.0915760" lon="0.6416680">
        <ele>44.1</ele>
        <time>2020-08-08T18:00:39Z</time>
      </trkpt>
      <trkpt lat="41.0915930" lon="0.6416570">
        <ele>44.2</ele>
        <time>2020-08-08T18:00:40Z</time>
      </trkpt>
      <trkpt lat="41.0916110" lon="0.6416370">
        <ele>44.2</ele>
        <time>2020-08-08T18:00:42Z</time>
      </trkpt>
      <trkpt lat="41.0916280" lon="0.6416130">
        <ele>44.3</ele>
        <time>2020-08-08T18:00:43Z</time>
      </trkpt>
      <trkpt lat="41.0916550" lon="0.6415630">
        <ele>44.4</ele>
        <time>2020-08-08T18:00:45Z</time>
      </trkpt>
      <trkpt lat="41.0916960" lon="0.6415620">
        <ele>44.5</ele>
        <time>2020-08-08T18:00:47Z</time>
      </trkpt>
      <trkpt lat="41.0917230" lon="0.6415300">
        <ele>44.5</ele>
        <time>2020-08-08T18:00:48Z</time>
      </trkpt>
      <trkpt lat="41.0917480" lon="0.6414990">
        <ele>44.6</ele>
        <time>2020-08-08T18:00:49Z</time>
      </trkpt>
      <trkpt lat="41.0917560" lon="0.6414880">
        <ele>44.7</ele>
        <time>2020-08-08T18:00:50Z</time>
      </trkpt>
      <trkpt lat="41.0917780" lon="0.6414610">
        <ele>44.7</ele>
        <time>2020-08-08T18:00:51Z</time>
      </trkpt>
      <trkpt lat="41.0917840" lon="0.6414530">
        <ele>44.8</ele>
        <time>2020-08-08T18:00:52Z</time>
      </trkpt>
      <trkpt lat="41.0918070" lon="0.6414340">
        <ele>44.9</ele>
        <time>2020-08-08T18:00:54Z</time>
      </trkpt>
      <trkpt lat="41.0918200" lon="0.6414260">
        <ele>44.9</ele>
        <time>2020-08-08T18:00:55Z</time>
      </trkpt>
      <trkpt lat="41.0918440" lon="0.6414070">
        <ele>45.0</ele>
        <time>2020-08-08T18:00:57Z</time>
      </trkpt>
      <trkpt lat="41.0918570" lon="0.6413910">
        <ele>45.0</ele>
        <time>2020-08-08T18:00:58Z</time>
      </trkpt>
      <trkpt lat="41.0918700" lon="0.6413580">
        <ele>45.1</ele>
        <time>2020-08-08T18:01:00Z</time>
      </trkpt>
      <trkpt lat="41.0918790" lon="0.6413150">
        <ele>45.2</ele>
        <time>2020-08-08T18:01:01Z</time>
      </trkpt>
      <trkpt lat="41.0918840" lon="0.6412930">
        <ele>45.3</ele>
        <time>2020-08-08T18:01:03Z</time>
      </trkpt>
      <trkpt lat="41.0918900" lon="0.6412720">
        <ele>45.4</ele>
        <time>2020-08-08T18:01:05Z</time>
      </trkpt>
      <trkpt lat="41.0918950" lon="0.6412500">
        <ele>45.4</ele>
        <time>2020-08-08T18:01:06Z</time>
      </trkpt>
      <trkpt lat="41.0918920" lon="0.6412130">
        <ele>45.5</ele>
        <time>2020-08-08T18:01:07Z</time>
      </trkpt>
      <trkpt lat="41.0918900" lon="0.6411980">
        <ele>45.5</ele>
        <time>2020-08-08T18:01:08Z</time>
      </trkpt>
      <trkpt lat="41.0918730" lon="0.6411520">
        <ele>45.7</ele>
        <time>2020-08-08T18:01:10Z</time>
      </trkpt>
      <trkpt lat="41.0918570" lon="0.6411230">
        <ele>45.8</ele>
        <time>2020-08-08T18:01:11Z</time>
      </trkpt>
      <trkpt lat="41.0918340" lon="0.6410710">
        <ele>45.9</ele>
        <time>2020-08-08T18:01:13Z</time>
      </trkpt>
      <trkpt lat="41.0918300" lon="0.6410520">
        <ele>45.9</ele>
        <time>2020-08-08T18:01:14Z</time>
      </trkpt>
      <trkpt lat="41.0918260" lon="0.6410330">
        <ele>46.3</ele>
        <time>2020-08-08T18:01:15Z</time>
      </trkpt>
      <trkpt lat="41.0918230" lon="0.6410040">
        <ele>46.3</ele>
        <time>2020-08-08T18:01:16Z</time>
      </trkpt>
      <trkpt lat="41.0918180" lon="0.6409450">
        <ele>46.5</ele>
        <time>2020-08-08T18:01:18Z</time>
      </trkpt>
      <trkpt lat="41.0918210" lon="0.6408910">
        <ele>46.6</ele>
        <time>2020-08-08T18:01:20Z</time>
      </trkpt>
      <trkpt lat="41.0918230" lon="0.6408710">
        <ele>46.7</ele>
        <time>2020-08-08T18:01:21Z</time>
      </trkpt>
      <trkpt lat="41.0918260" lon="0.6408560">
        <ele>46.7</ele>
        <time>2020-08-08T18:01:22Z</time>
      </trkpt>
      <trkpt lat="41.0918410" lon="0.6408200">
        <ele>46.8</ele>
        <time>2020-08-08T18:01:24Z</time>
      </trkpt>
      <trkpt lat="41.0918530" lon="0.6408020">
        <ele>46.8</ele>
        <time>2020-08-08T18:01:25Z</time>
      </trkpt>
      <trkpt lat="41.0918630" lon="0.6407850">
        <ele>46.9</ele>
        <time>2020-08-08T18:01:26Z</time>
      </trkpt>
      <trkpt lat="41.0918800" lon="0.6407530">
        <ele>47.0</ele>
        <time>2020-08-08T18:01:28Z</time>
      </trkpt>
      <trkpt lat="41.0918900" lon="0.6407340">
        <ele>47.0</ele>
        <time>2020-08-08T18:01:29Z</time>
      </trkpt>
      <trkpt lat="41.0919000" lon="0.6407190">
        <ele>47.0</ele>
        <time>2020-08-08T18:01:30Z</time>
      </trkpt>
      <trkpt lat="41.0919100" lon="0.6406980">
        <ele>47.1</ele>
        <time>2020-08-08T18:01:31Z</time>
      </trkpt>
      <trkpt lat="41.0919160" lon="0.6406760">
        <ele>47.1</ele>
        <time>2020-08-08T18:01:32Z</time>
      </trkpt>
      <trkpt lat="41.0919310" lon="0.6406440">
        <ele>47.2</ele>
        <time>2020-08-08T18:01:33Z</time>
      </trkpt>
      <trkpt lat="41.0919490" lon="0.6406220">
        <ele>47.3</ele>
        <time>2020-08-08T18:01:34Z</time>
      </trkpt>
      <trkpt lat="41.0919810" lon="0.6405620">
        <ele>47.4</ele>
        <time>2020-08-08T18:01:36Z</time>
      </trkpt>
      <trkpt lat="41.0920150" lon="0.6404870">
        <ele>47.6</ele>
        <time>2020-08-08T18:01:37Z</time>
      </trkpt>
      <trkpt lat="41.0920480" lon="0.6404260">
        <ele>47.7</ele>
        <time>2020-08-08T18:01:39Z</time>
      </trkpt>
      <trkpt lat="41.0920740" lon="0.6403800">
        <ele>47.8</ele>
        <time>2020-08-08T18:01:40Z</time>
      </trkpt>
      <trkpt lat="41.0921110" lon="0.6403090">
        <ele>48.0</ele>
        <time>2020-08-08T18:01:42Z</time>
      </trkpt>
      <trkpt lat="41.0921310" lon="0.6402720">
        <ele>48.1</ele>
        <time>2020-08-08T18:01:43Z</time>
      </trkpt>
      <trkpt lat="41.0921690" lon="0.6401790">
        <ele>48.3</ele>
        <time>2020-08-08T18:01:45Z</time>
      </trkpt>
      <trkpt lat="41.0922250" lon="0.6400480">
        <ele>48.8</ele>
        <time>2020-08-08T18:01:46Z</time>
      </trkpt>
      <trkpt lat="41.0922840" lon="0.6399220">
        <ele>49.4</ele>
        <time>2020-08-08T18:01:47Z</time>
      </trkpt>
      <trkpt lat="41.0923650" lon="0.6397580">
        <ele>50.7</ele>
        <time>2020-08-08T18:01:49Z</time>
      </trkpt>
      <trkpt lat="41.0924120" lon="0.6396700">
        <ele>51.2</ele>
        <time>2020-08-08T18:01:50Z</time>
      </trkpt>
      <trkpt lat="41.0924490" lon="0.6396050">
        <ele>51.8</ele>
        <time>2020-08-08T18:01:51Z</time>
      </trkpt>
      <trkpt lat="41.0924770" lon="0.6395560">
        <ele>52.2</ele>
        <time>2020-08-08T18:01:52Z</time>
      </trkpt>
      <trkpt lat="41.0925080" lon="0.6395060">
        <ele>52.6</ele>
        <time>2020-08-08T18:01:53Z</time>
      </trkpt>
      <trkpt lat="41.0925270" lon="0.6394780">
        <ele>52.9</ele>
        <time>2020-08-08T18:01:55Z</time>
      </trkpt>
      <trkpt lat="41.0925460" lon="0.6394510">
        <ele>53.1</ele>
        <time>2020-08-08T18:01:56Z</time>
      </trkpt>
      <trkpt lat="41.0925700" lon="0.6394260">
        <ele>53.3</ele>
        <time>2020-08-08T18:01:57Z</time>
      </trkpt>
      <trkpt lat="41.0925770" lon="0.6394180">
        <ele>53.4</ele>
        <time>2020-08-08T18:01:58Z</time>
      </trkpt>
      <trkpt lat="41.0925980" lon="0.6393960">
        <ele>53.6</ele>
        <time>2020-08-08T18:01:59Z</time>
      </trkpt>
      <trkpt lat="41.0926060" lon="0.6393850">
        <ele>53.7</ele>
        <time>2020-08-08T18:02:00Z</time>
      </trkpt>
      <trkpt lat="41.0926280" lon="0.6393600">
        <ele>53.9</ele>
        <time>2020-08-08T18:02:01Z</time>
      </trkpt>
      <trkpt lat="41.0926400" lon="0.6393500">
        <ele>54.0</ele>
        <time>2020-08-08T18:02:03Z</time>
      </trkpt>
      <trkpt lat="41.0926510" lon="0.6393400">
        <ele>54.1</ele>
        <time>2020-08-08T18:02:04Z</time>
      </trkpt>
      <trkpt lat="41.0926620" lon="0.6393300">
        <ele>54.2</ele>
        <time>2020-08-08T18:02:05Z</time>
      </trkpt>
      <trkpt lat="41.0926770" lon="0.6393090">
        <ele>54.4</ele>
        <time>2020-08-08T18:02:06Z</time>
      </trkpt>
      <trkpt lat="41.0926830" lon="0.6393000">
        <ele>54.4</ele>
        <time>2020-08-08T18:02:07Z</time>
      </trkpt>
      <trkpt lat="41.0926900" lon="0.6392910">
        <ele>54.5</ele>
        <time>2020-08-08T18:02:08Z</time>
      </trkpt>
      <trkpt lat="41.0927100" lon="0.6392660">
        <ele>54.7</ele>
        <time>2020-08-08T18:02:10Z</time>
      </trkpt>
      <trkpt lat="41.0927200" lon="0.6392600">
        <ele>54.8</ele>
        <time>2020-08-08T18:02:11Z</time>
      </trkpt>
      <trkpt lat="41.0927210" lon="0.6392610">
        <ele>54.8</ele>
        <time>2020-08-08T18:02:13Z</time>
      </trkpt>
      <trkpt lat="41.0927210" lon="0.6392630">
        <ele>54.8</ele>
        <time>2020-08-08T18:02:15Z</time>
      </trkpt>
      <trkpt lat="41.0927210" lon="0.6392620">
        <ele>54.8</ele>
        <time>2020-08-08T18:02:16Z</time>
      </trkpt>
      <trkpt lat="41.0927200" lon="0.6392630">
        <ele>54.8</ele>
        <time>2020-08-08T18:02:18Z</time>
      </trkpt>
      <trkpt lat="41.0927270" lon="0.6392570">
        <ele>54.9</ele>
        <time>2020-08-08T18:02:19Z</time>
      </trkpt>
      <trkpt lat="41.0927360" lon="0.6392500">
        <ele>54.9</ele>
        <time>2020-08-08T18:02:21Z</time>
      </trkpt>
      <trkpt lat="41.0927400" lon="0.6392460">
        <ele>55.0</ele>
        <time>2020-08-08T18:02:23Z</time>
      </trkpt>
      <trkpt lat="41.0927420" lon="0.6392440">
        <ele>55.0</ele>
        <time>2020-08-08T18:02:24Z</time>
      </trkpt>
      <trkpt lat="41.0927440" lon="0.6392410">
        <ele>55.0</ele>
        <time>2020-08-08T18:02:25Z</time>
      </trkpt>
      <trkpt lat="41.0927470" lon="0.6392370">
        <ele>55.0</ele>
        <time>2020-08-08T18:02:27Z</time>
      </trkpt>
      <trkpt lat="41.0927670" lon="0.6391740">
        <ele>55.4</ele>
        <time>2020-08-08T18:02:37Z</time>
      </trkpt>
      <trkpt lat="41.0927700" lon="0.6391710">
        <ele>55.4</ele>
        <time>2020-08-08T18:02:38Z</time>
      </trkpt>
      <trkpt lat="41.0927710" lon="0.6391720">
        <ele>55.4</ele>
        <time>2020-08-08T18:02:39Z</time>
      </trkpt>
      <trkpt lat="41.0927700" lon="0.6391740">
        <ele>55.5</ele>
        <time>2020-08-08T18:02:41Z</time>
      </trkpt>
      <trkpt lat="41.0927700" lon="0.6391760">
        <ele>55.5</ele>
        <time>2020-08-08T18:02:42Z</time>
      </trkpt>
      <trkpt lat="41.0927690" lon="0.6391780">
        <ele>55.5</ele>
        <time>2020-08-08T18:02:43Z</time>
      </trkpt>
      <trkpt lat="41.0927670" lon="0.6391840">
        <ele>55.5</ele>
        <time>2020-08-08T18:02:45Z</time>
      </trkpt>
      <trkpt lat="41.0927660" lon="0.6391870">
        <ele>55.5</ele>
        <time>2020-08-08T18:02:47Z</time>
      </trkpt>
      <trkpt lat="41.0927660" lon="0.6391870">
        <ele>55.5</ele>
        <time>2020-08-08T18:02:48Z</time>
      </trkpt>
      <trkpt lat="41.0927660" lon="0.6391870">
        <ele>55.5</ele>
        <time>2020-08-08T18:02:49Z</time>
      </trkpt>
      <trkpt lat="41.0928220" lon="0.6391630">
        <ele>55.9</ele>
        <time>2020-08-08T18:03:44Z</time>
      </trkpt>
      <trkpt lat="41.0928270" lon="0.6391750">
        <ele>55.9</ele>
        <time>2020-08-08T18:03:46Z</time>
      </trkpt>
      <trkpt lat="41.0928330" lon="0.6391840">
        <ele>55.9</ele>
        <time>2020-08-08T18:03:47Z</time>
      </trkpt>
      <trkpt lat="41.0928430" lon="0.6391890">
        <ele>55.9</ele>
        <time>2020-08-08T18:03:48Z</time>
      </trkpt>
      <trkpt lat="41.0928540" lon="0.6391920">
        <ele>55.9</ele>
        <time>2020-08-08T18:03:49Z</time>
      </trkpt>
      <trkpt lat="41.0928650" lon="0.6391930">
        <ele>56.0</ele>
        <time>2020-08-08T18:03:50Z</time>
      </trkpt>
      <trkpt lat="41.0928750" lon="0.6391850">
        <ele>56.0</ele>
        <time>2020-08-08T18:03:52Z</time>
      </trkpt>
      <trkpt lat="41.0928890" lon="0.6391660">
        <ele>56.0</ele>
        <time>2020-08-08T18:03:54Z</time>
      </trkpt>
      <trkpt lat="41.0929070" lon="0.6391500">
        <ele>56.0</ele>
        <time>2020-08-08T18:03:56Z</time>
      </trkpt>
      <trkpt lat="41.0929150" lon="0.6391400">
        <ele>56.0</ele>
        <time>2020-08-08T18:03:57Z</time>
      </trkpt>
      <trkpt lat="41.0929250" lon="0.6391190">
        <ele>56.1</ele>
        <time>2020-08-08T18:03:59Z</time>
      </trkpt>
      <trkpt lat="41.0929320" lon="0.6391080">
        <ele>56.1</ele>
        <time>2020-08-08T18:04:00Z</time>
      </trkpt>
      <trkpt lat="41.0929440" lon="0.6390980">
        <ele>56.1</ele>
        <time>2020-08-08T18:04:01Z</time>
      </trkpt>
      <trkpt lat="41.0929640" lon="0.6390780">
        <ele>56.2</ele>
        <time>2020-08-08T18:04:03Z</time>
      </trkpt>
      <trkpt lat="41.0929800" lon="0.6390620">
        <ele>56.3</ele>
        <time>2020-08-08T18:04:04Z</time>
      </trkpt>
      <trkpt lat="41.0929870" lon="0.6390550">
        <ele>56.3</ele>
        <time>2020-08-08T18:04:05Z</time>
      </trkpt>
      <trkpt lat="41.0929930" lon="0.6390480">
        <ele>56.3</ele>
        <time>2020-08-08T18:04:06Z</time>
      </trkpt>
      <trkpt lat="41.0930030" lon="0.6390430">
        <ele>56.4</ele>
        <time>2020-08-08T18:04:07Z</time>
      </trkpt>
      <trkpt lat="41.0930220" lon="0.6390260">
        <ele>56.5</ele>
        <time>2020-08-08T18:04:09Z</time>
      </trkpt>
      <trkpt lat="41.0930430" lon="0.6390090">
        <ele>56.6</ele>
        <time>2020-08-08T18:04:11Z</time>
      </trkpt>
      <trkpt lat="41.0931370" lon="0.6389380">
        <ele>56.9</ele>
        <time>2020-08-08T18:04:13Z</time>
      </trkpt>
      <trkpt lat="41.0932030" lon="0.6388920">
        <ele>57.2</ele>
        <time>2020-08-08T18:04:14Z</time>
      </trkpt>
      <trkpt lat="41.0932980" lon="0.6388290">
        <ele>57.5</ele>
        <time>2020-08-08T18:04:16Z</time>
      </trkpt>
      <trkpt lat="41.0933360" lon="0.6388040">
        <ele>57.7</ele>
        <time>2020-08-08T18:04:17Z</time>
      </trkpt>
      <trkpt lat="41.0933670" lon="0.6387830">
        <ele>57.8</ele>
        <time>2020-08-08T18:04:18Z</time>
      </trkpt>
      <trkpt lat="41.0934220" lon="0.6387440">
        <ele>58.0</ele>
        <time>2020-08-08T18:04:20Z</time>
      </trkpt>
      <trkpt lat="41.0934710" lon="0.6387130">
        <ele>58.1</ele>
        <time>2020-08-08T18:04:22Z</time>
      </trkpt>
      <trkpt lat="41.0935010" lon="0.6386950">
        <ele>58.2</ele>
        <time>2020-08-08T18:04:24Z</time>
      </trkpt>
      <trkpt lat="41.0934210" lon="0.6387540">
        <ele>58.5</ele>
        <time>2020-08-08T18:04:26Z</time>
      </trkpt>
      <trkpt lat="41.0933930" lon="0.6387820">
        <ele>58.6</ele>
        <time>2020-08-08T18:04:27Z</time>
      </trkpt>
      <trkpt lat="41.0933790" lon="0.6387940">
        <ele>58.7</ele>
        <time>2020-08-08T18:04:28Z</time>
      </trkpt>
      <trkpt lat="41.0933650" lon="0.6388190">
        <ele>58.8</ele>
        <time>2020-08-08T18:04:30Z</time>
      </trkpt>
      <trkpt lat="41.0933490" lon="0.6388180">
        <ele>58.8</ele>
        <time>2020-08-08T18:04:31Z</time>
      </trkpt>
      <trkpt lat="41.0933340" lon="0.6387950">
        <ele>58.9</ele>
        <time>2020-08-08T18:04:33Z</time>
      </trkpt>
      <trkpt lat="41.0933240" lon="0.6387700">
        <ele>59.0</ele>
        <time>2020-08-08T18:04:35Z</time>
      </trkpt>
      <trkpt lat="41.0933330" lon="0.6387570">
        <ele>59.0</ele>
        <time>2020-08-08T18:04:36Z</time>
      </trkpt>
      <trkpt lat="41.0933430" lon="0.6387470">
        <ele>59.1</ele>
        <time>2020-08-08T18:04:37Z</time>
      </trkpt>
      <trkpt lat="41.0933670" lon="0.6387200">
        <ele>59.2</ele>
        <time>2020-08-08T18:04:39Z</time>
      </trkpt>
      <trkpt lat="41.0933900" lon="0.6387020">
        <ele>59.3</ele>
        <time>2020-08-08T18:04:40Z</time>
      </trkpt>
      <trkpt lat="41.0934290" lon="0.6386730">
        <ele>59.5</ele>
        <time>2020-08-08T18:04:42Z</time>
      </trkpt>
      <trkpt lat="41.0934460" lon="0.6386650">
        <ele>59.6</ele>
        <time>2020-08-08T18:04:43Z</time>
      </trkpt>
      <trkpt lat="41.0934860" lon="0.6386410">
        <ele>59.8</ele>
        <time>2020-08-08T18:04:45Z</time>
      </trkpt>
      <trkpt lat="41.0935040" lon="0.6386310">
        <ele>59.9</ele>
        <time>2020-08-08T18:04:46Z</time>
      </trkpt>
      <trkpt lat="41.0935330" lon="0.6386170">
        <ele>60.0</ele>
        <time>2020-08-08T18:04:48Z</time>
      </trkpt>
      <trkpt lat="41.0935450" lon="0.6386130">
        <ele>60.1</ele>
        <time>2020-08-08T18:04:49Z</time>
      </trkpt>
      <trkpt lat="41.0935580" lon="0.6386080">
        <ele>60.2</ele>
        <time>2020-08-08T18:04:50Z</time>
      </trkpt>
      <trkpt lat="41.0936510" lon="0.6385910">
        <ele>61.2</ele>
        <time>2020-08-08T18:04:52Z</time>
      </trkpt>
      <trkpt lat="41.0937980" lon="0.6385830">
        <ele>62.2</ele>
        <time>2020-08-08T18:04:53Z</time>
      </trkpt>
      <trkpt lat="41.0938980" lon="0.6385660">
        <ele>62.7</ele>
        <time>2020-08-08T18:04:54Z</time>
      </trkpt>
      <trkpt lat="41.0939520" lon="0.6385520">
        <ele>62.8</ele>
        <time>2020-08-08T18:04:55Z</time>
      </trkpt>
      <trkpt lat="41.0940050" lon="0.6385080">
        <ele>63.0</ele>
        <time>2020-08-08T18:04:57Z</time>
      </trkpt>
      <trkpt lat="41.0940260" lon="0.6384760">
        <ele>63.0</ele>
        <time>2020-08-08T18:04:58Z</time>
      </trkpt>
      <trkpt lat="41.0940430" lon="0.6384440">
        <ele>63.0</ele>
        <time>2020-08-08T18:04:59Z</time>
      </trkpt>
      <trkpt lat="41.0940470" lon="0.6384350">
        <ele>63.0</ele>
        <time>2020-08-08T18:05:00Z</time>
      </trkpt>
      <trkpt lat="41.0940750" lon="0.6383960">
        <ele>63.1</ele>
        <time>2020-08-08T18:05:01Z</time>
      </trkpt>
      <trkpt lat="41.0940870" lon="0.6383800">
        <ele>63.1</ele>
        <time>2020-08-08T18:05:02Z</time>
      </trkpt>
      <trkpt lat="41.0941120" lon="0.6383400">
        <ele>63.1</ele>
        <time>2020-08-08T18:05:03Z</time>
      </trkpt>
      <trkpt lat="41.0941400" lon="0.6382860">
        <ele>63.1</ele>
        <time>2020-08-08T18:05:05Z</time>
      </trkpt>
      <trkpt lat="41.0941420" lon="0.6382790">
        <ele>63.1</ele>
        <time>2020-08-08T18:05:07Z</time>
      </trkpt>
      <trkpt lat="41.0941400" lon="0.6382790">
        <ele>63.1</ele>
        <time>2020-08-08T18:05:09Z</time>
      </trkpt>
      <trkpt lat="41.0941400" lon="0.6382780">
        <ele>63.1</ele>
        <time>2020-08-08T18:05:10Z</time>
      </trkpt>
      <trkpt lat="41.0941400" lon="0.6382770">
        <ele>63.1</ele>
        <time>2020-08-08T18:05:11Z</time>
      </trkpt>
      <trkpt lat="41.0941410" lon="0.6382770">
        <ele>63.1</ele>
        <time>2020-08-08T18:05:12Z</time>
      </trkpt>
      <trkpt lat="41.0941420" lon="0.6382760">
        <ele>63.1</ele>
        <time>2020-08-08T18:05:13Z</time>
      </trkpt>
      <trkpt lat="41.0941440" lon="0.6382760">
        <ele>63.1</ele>
        <time>2020-08-08T18:05:14Z</time>
      </trkpt>
      <trkpt lat="41.0941440" lon="0.6382770">
        <ele>63.1</ele>
        <time>2020-08-08T18:05:15Z</time>
      </trkpt>
      <trkpt lat="41.0941360" lon="0.6382840">
        <ele>63.1</ele>
        <time>2020-08-08T18:05:17Z</time>
      </trkpt>
      <trkpt lat="41.0941320" lon="0.6382910">
        <ele>63.1</ele>
        <time>2020-08-08T18:05:19Z</time>
      </trkpt>
      <trkpt lat="41.0941310" lon="0.6382920">
        <ele>63.1</ele>
        <time>2020-08-08T18:05:20Z</time>
      </trkpt>
      <trkpt lat="41.0941280" lon="0.6382950">
        <ele>63.1</ele>
        <time>2020-08-08T18:05:22Z</time>
      </trkpt>
      <trkpt lat="41.0941280" lon="0.6382950">
        <ele>63.1</ele>
        <time>2020-08-08T18:05:24Z</time>
      </trkpt>
      <trkpt lat="41.0941300" lon="0.6382940">
        <ele>63.1</ele>
        <time>2020-08-08T18:05:26Z</time>
      </trkpt>
      <trkpt lat="41.0941350" lon="0.6382380">
        <ele>63.2</ele>
        <time>2020-08-08T18:05:34Z</time>
      </trkpt>
      <trkpt lat="41.0941380" lon="0.6382250">
        <ele>63.2</ele>
        <time>2020-08-08T18:05:35Z</time>
      </trkpt>
      <trkpt lat="41.0941550" lon="0.6381760">
        <ele>63.2</ele>
        <time>2020-08-08T18:05:41Z</time>
      </trkpt>
      <trkpt lat="41.0941740" lon="0.6381320">
        <ele>63.2</ele>
        <time>2020-08-08T18:05:42Z</time>
      </trkpt>
      <trkpt lat="41.0942030" lon="0.6380840">
        <ele>63.3</ele>
        <time>2020-08-08T18:05:44Z</time>
      </trkpt>
      <trkpt lat="41.0942130" lon="0.6380670">
        <ele>63.3</ele>
        <time>2020-08-08T18:05:45Z</time>
      </trkpt>
      <trkpt lat="41.0942250" lon="0.6380480">
        <ele>63.3</ele>
        <time>2020-08-08T18:05:46Z</time>
      </trkpt>
      <trkpt lat="41.0942520" lon="0.6379950">
        <ele>63.3</ele>
        <time>2020-08-08T18:05:48Z</time>
      </trkpt>
      <trkpt lat="41.0942590" lon="0.6379790">
        <ele>63.3</ele>
        <time>2020-08-08T18:05:49Z</time>
      </trkpt>
      <trkpt lat="41.0942660" lon="0.6379620">
        <ele>63.4</ele>
        <time>2020-08-08T18:05:50Z</time>
      </trkpt>
      <trkpt lat="41.0942820" lon="0.6379310">
        <ele>63.4</ele>
        <time>2020-08-08T18:05:52Z</time>
      </trkpt>
      <trkpt lat="41.0943090" lon="0.6378830">
        <ele>63.4</ele>
        <time>2020-08-08T18:05:54Z</time>
      </trkpt>
      <trkpt lat="41.0943250" lon="0.6378630">
        <ele>63.4</ele>
        <time>2020-08-08T18:05:55Z</time>
      </trkpt>
      <trkpt lat="41.0943590" lon="0.6378360">
        <ele>63.4</ele>
        <time>2020-08-08T18:05:57Z</time>
      </trkpt>
      <trkpt lat="41.0943880" lon="0.6378210">
        <ele>63.5</ele>
        <time>2020-08-08T18:05:58Z</time>
      </trkpt>
      <trkpt lat="41.0943980" lon="0.6378160">
        <ele>63.5</ele>
        <time>2020-08-08T18:05:59Z</time>
      </trkpt>
      <trkpt lat="41.0944130" lon="0.6378120">
        <ele>63.5</ele>
        <time>2020-08-08T18:06:00Z</time>
      </trkpt>
      <trkpt lat="41.0944540" lon="0.6378160">
        <ele>63.5</ele>
        <time>2020-08-08T18:06:02Z</time>
      </trkpt>
      <trkpt lat="41.0944770" lon="0.6378240">
        <ele>63.5</ele>
        <time>2020-08-08T18:06:03Z</time>
      </trkpt>
      <trkpt lat="41.0945130" lon="0.6378520">
        <ele>63.4</ele>
        <time>2020-08-08T18:06:05Z</time>
      </trkpt>
      <trkpt lat="41.0945220" lon="0.6378720">
        <ele>63.3</ele>
        <time>2020-08-08T18:06:06Z</time>
      </trkpt>
      <trkpt lat="41.0945270" lon="0.6378890">
        <ele>63.3</ele>
        <time>2020-08-08T18:06:07Z</time>
      </trkpt>
      <trkpt lat="41.0945370" lon="0.6379370">
        <ele>63.2</ele>
        <time>2020-08-08T18:06:09Z</time>
      </trkpt>
      <trkpt lat="41.0945370" lon="0.6379700">
        <ele>63.2</ele>
        <time>2020-08-08T18:06:10Z</time>
      </trkpt>
      <trkpt lat="41.0945380" lon="0.6380360">
        <ele>63.0</ele>
        <time>2020-08-08T18:06:12Z</time>
      </trkpt>
      <trkpt lat="41.0945370" lon="0.6380720">
        <ele>63.0</ele>
        <time>2020-08-08T18:06:13Z</time>
      </trkpt>
      <trkpt lat="41.0945340" lon="0.6381060">
        <ele>62.9</ele>
        <time>2020-08-08T18:06:14Z</time>
      </trkpt>
      <trkpt lat="41.0945270" lon="0.6381760">
        <ele>62.8</ele>
        <time>2020-08-08T18:06:16Z</time>
      </trkpt>
      <trkpt lat="41.0945210" lon="0.6382270">
        <ele>62.7</ele>
        <time>2020-08-08T18:06:17Z</time>
      </trkpt>
      <trkpt lat="41.0945190" lon="0.6382440">
        <ele>62.6</ele>
        <time>2020-08-08T18:06:18Z</time>
      </trkpt>
      <trkpt lat="41.0945190" lon="0.6383000">
        <ele>62.5</ele>
        <time>2020-08-08T18:06:20Z</time>
      </trkpt>
      <trkpt lat="41.0945180" lon="0.6383410">
        <ele>62.4</ele>
        <time>2020-08-08T18:06:21Z</time>
      </trkpt>
      <trkpt lat="41.0945170" lon="0.6383550">
        <ele>62.4</ele>
        <time>2020-08-08T18:06:22Z</time>
      </trkpt>
      <trkpt lat="41.0945170" lon="0.6383750">
        <ele>62.3</ele>
        <time>2020-08-08T18:06:23Z</time>
      </trkpt>
      <trkpt lat="41.0945170" lon="0.6384000">
        <ele>62.3</ele>
        <time>2020-08-08T18:06:24Z</time>
      </trkpt>
      <trkpt lat="41.0945160" lon="0.6384520">
        <ele>62.2</ele>
        <time>2020-08-08T18:06:26Z</time>
      </trkpt>
      <trkpt lat="41.0945170" lon="0.6385060">
        <ele>62.1</ele>
        <time>2020-08-08T18:06:28Z</time>
      </trkpt>
      <trkpt lat="41.0945180" lon="0.6385340">
        <ele>62.0</ele>
        <time>2020-08-08T18:06:29Z</time>
      </trkpt>
      <trkpt lat="41.0945200" lon="0.6385880">
        <ele>61.9</ele>
        <time>2020-08-08T18:06:31Z</time>
      </trkpt>
      <trkpt lat="41.0945230" lon="0.6386350">
        <ele>61.8</ele>
        <time>2020-08-08T18:06:32Z</time>
      </trkpt>
      <trkpt lat="41.0945230" lon="0.6386520">
        <ele>61.7</ele>
        <time>2020-08-08T18:06:33Z</time>
      </trkpt>
      <trkpt lat="41.0945270" lon="0.6387070">
        <ele>61.6</ele>
        <time>2020-08-08T18:06:35Z</time>
      </trkpt>
      <trkpt lat="41.0945250" lon="0.6387520">
        <ele>61.5</ele>
        <time>2020-08-08T18:06:36Z</time>
      </trkpt>
      <trkpt lat="41.0945240" lon="0.6387660">
        <ele>61.5</ele>
        <time>2020-08-08T18:06:37Z</time>
      </trkpt>
      <trkpt lat="41.0945190" lon="0.6388060">
        <ele>61.4</ele>
        <time>2020-08-08T18:06:38Z</time>
      </trkpt>
      <trkpt lat="41.0945170" lon="0.6388210">
        <ele>61.4</ele>
        <time>2020-08-08T18:06:39Z</time>
      </trkpt>
      <trkpt lat="41.0945100" lon="0.6388590">
        <ele>61.3</ele>
        <time>2020-08-08T18:06:40Z</time>
      </trkpt>
      <trkpt lat="41.0945070" lon="0.6388690">
        <ele>61.3</ele>
        <time>2020-08-08T18:06:41Z</time>
      </trkpt>
      <trkpt lat="41.0944990" lon="0.6388950">
        <ele>61.2</ele>
        <time>2020-08-08T18:06:42Z</time>
      </trkpt>
      <trkpt lat="41.0944670" lon="0.6389220">
        <ele>61.1</ele>
        <time>2020-08-08T18:06:44Z</time>
      </trkpt>
      <trkpt lat="41.0944410" lon="0.6389420">
        <ele>60.9</ele>
        <time>2020-08-08T18:06:45Z</time>
      </trkpt>
      <trkpt lat="41.0944320" lon="0.6389500">
        <ele>60.9</ele>
        <time>2020-08-08T18:06:46Z</time>
      </trkpt>
      <trkpt lat="41.0944090" lon="0.6389850">
        <ele>60.8</ele>
        <time>2020-08-08T18:06:48Z</time>
      </trkpt>
      <trkpt lat="41.0944100" lon="0.6390230">
        <ele>60.7</ele>
        <time>2020-08-08T18:06:50Z</time>
      </trkpt>
      <trkpt lat="41.0944180" lon="0.6390390">
        <ele>60.6</ele>
        <time>2020-08-08T18:06:51Z</time>
      </trkpt>
      <trkpt lat="41.0944450" lon="0.6390590">
        <ele>60.5</ele>
        <time>2020-08-08T18:06:53Z</time>
      </trkpt>
      <trkpt lat="41.0944650" lon="0.6390570">
        <ele>60.5</ele>
        <time>2020-08-08T18:06:54Z</time>
      </trkpt>
      <trkpt lat="41.0944800" lon="0.6390560">
        <ele>60.4</ele>
        <time>2020-08-08T18:06:55Z</time>
      </trkpt>
      <trkpt lat="41.0945120" lon="0.6390640">
        <ele>60.3</ele>
        <time>2020-08-08T18:06:57Z</time>
      </trkpt>
      <trkpt lat="41.0945230" lon="0.6390820">
        <ele>60.3</ele>
        <time>2020-08-08T18:06:58Z</time>
      </trkpt>
      <trkpt lat="41.0945270" lon="0.6391360">
        <ele>60.1</ele>
        <time>2020-08-08T18:07:00Z</time>
      </trkpt>
      <trkpt lat="41.0945270" lon="0.6391720">
        <ele>60.0</ele>
        <time>2020-08-08T18:07:01Z</time>
      </trkpt>
      <trkpt lat="41.0945220" lon="0.6392360">
        <ele>59.9</ele>
        <time>2020-08-08T18:07:03Z</time>
      </trkpt>
      <trkpt lat="41.0945170" lon="0.6392810">
        <ele>59.7</ele>
        <time>2020-08-08T18:07:04Z</time>
      </trkpt>
      <trkpt lat="41.0945140" lon="0.6392920">
        <ele>59.7</ele>
        <time>2020-08-08T18:07:05Z</time>
      </trkpt>
      <trkpt lat="41.0945040" lon="0.6393510">
        <ele>59.5</ele>
        <time>2020-08-08T18:07:07Z</time>
      </trkpt>
      <trkpt lat="41.0945000" lon="0.6393730">
        <ele>59.4</ele>
        <time>2020-08-08T18:07:08Z</time>
      </trkpt>
      <trkpt lat="41.0944970" lon="0.6393940">
        <ele>59.3</ele>
        <time>2020-08-08T18:07:09Z</time>
      </trkpt>
      <trkpt lat="41.0944870" lon="0.6394660">
        <ele>59.0</ele>
        <time>2020-08-08T18:07:11Z</time>
      </trkpt>
      <trkpt lat="41.0944820" lon="0.6395050">
        <ele>58.8</ele>
        <time>2020-08-08T18:07:12Z</time>
      </trkpt>
      <trkpt lat="41.0944710" lon="0.6396060">
        <ele>57.6</ele>
        <time>2020-08-08T18:07:14Z</time>
      </trkpt>
      <trkpt lat="41.0944680" lon="0.6396430">
        <ele>57.0</ele>
        <time>2020-08-08T18:07:15Z</time>
      </trkpt>
      <trkpt lat="41.0944640" lon="0.6396840">
        <ele>56.3</ele>
        <time>2020-08-08T18:07:16Z</time>
      </trkpt>
      <trkpt lat="41.0944590" lon="0.6397460">
        <ele>54.8</ele>
        <time>2020-08-08T18:07:18Z</time>
      </trkpt>
      <trkpt lat="41.0944580" lon="0.6397850">
        <ele>54.0</ele>
        <time>2020-08-08T18:07:19Z</time>
      </trkpt>
      <trkpt lat="41.0944600" lon="0.6398220">
        <ele>54.0</ele>
        <time>2020-08-08T18:07:20Z</time>
      </trkpt>
      <trkpt lat="41.0944690" lon="0.6398630">
        <ele>53.1</ele>
        <time>2020-08-08T18:07:21Z</time>
      </trkpt>
      <trkpt lat="41.0944710" lon="0.6398730">
        <ele>52.3</ele>
        <time>2020-08-08T18:07:22Z</time>
      </trkpt>
      <trkpt lat="41.0944750" lon="0.6398940">
        <ele>52.3</ele>
        <time>2020-08-08T18:07:24Z</time>
      </trkpt>
      <trkpt lat="41.0944720" lon="0.6399120">
        <ele>51.4</ele>
        <time>2020-08-08T18:07:26Z</time>
      </trkpt>
      <trkpt lat="41.0944650" lon="0.6399240">
        <ele>51.4</ele>
        <time>2020-08-08T18:07:27Z</time>
      </trkpt>
      <trkpt lat="41.0944400" lon="0.6399510">
        <ele>51.5</ele>
        <time>2020-08-08T18:07:29Z</time>
      </trkpt>
      <trkpt lat="41.0944250" lon="0.6399610">
        <ele>50.6</ele>
        <time>2020-08-08T18:07:30Z</time>
      </trkpt>
      <trkpt lat="41.0944080" lon="0.6399680">
        <ele>50.7</ele>
        <time>2020-08-08T18:07:31Z</time>
      </trkpt>
      <trkpt lat="41.0943760" lon="0.6399790">
        <ele>50.8</ele>
        <time>2020-08-08T18:07:33Z</time>
      </trkpt>
      <trkpt lat="41.0943670" lon="0.6399960">
        <ele>50.8</ele>
        <time>2020-08-08T18:07:34Z</time>
      </trkpt>
      <trkpt lat="41.0943600" lon="0.6400320">
        <ele>50.0</ele>
        <time>2020-08-08T18:07:36Z</time>
      </trkpt>
      <trkpt lat="41.0943580" lon="0.6400510">
        <ele>49.4</ele>
        <time>2020-08-08T18:07:37Z</time>
      </trkpt>
      <trkpt lat="41.0943530" lon="0.6400900">
        <ele>48.6</ele>
        <time>2020-08-08T18:07:39Z</time>
      </trkpt>
      <trkpt lat="41.0943560" lon="0.6401210">
        <ele>48.6</ele>
        <time>2020-08-08T18:07:41Z</time>
      </trkpt>
      <trkpt lat="41.0943610" lon="0.6401300">
        <ele>47.8</ele>
        <time>2020-08-08T18:07:42Z</time>
      </trkpt>
      <trkpt lat="41.0943650" lon="0.6401350">
        <ele>47.8</ele>
        <time>2020-08-08T18:07:43Z</time>
      </trkpt>
      <trkpt lat="41.0943690" lon="0.6401350">
        <ele>47.8</ele>
        <time>2020-08-08T18:07:44Z</time>
      </trkpt>
      <trkpt lat="41.0943710" lon="0.6401310">
        <ele>47.8</ele>
        <time>2020-08-08T18:07:46Z</time>
      </trkpt>
      <trkpt lat="41.0943710" lon="0.6401300">
        <ele>47.8</ele>
        <time>2020-08-08T18:07:47Z</time>
      </trkpt>
      <trkpt lat="41.0943710" lon="0.6401300">
        <ele>47.8</ele>
        <time>2020-08-08T18:07:48Z</time>
      </trkpt>
      <trkpt lat="41.0943710" lon="0.6401300">
        <ele>47.8</ele>
        <time>2020-08-08T18:07:49Z</time>
      </trkpt>
      <trkpt lat="41.0943720" lon="0.6401290">
        <ele>47.8</ele>
        <time>2020-08-08T18:07:50Z</time>
      </trkpt>
      <trkpt lat="41.0943750" lon="0.6401280">
        <ele>47.8</ele>
        <time>2020-08-08T18:07:52Z</time>
      </trkpt>
      <trkpt lat="41.0943760" lon="0.6401310">
        <ele>47.8</ele>
        <time>2020-08-08T18:07:53Z</time>
      </trkpt>
      <trkpt lat="41.0943780" lon="0.6401350">
        <ele>47.8</ele>
        <time>2020-08-08T18:07:54Z</time>
      </trkpt>
      <trkpt lat="41.0943770" lon="0.6401380">
        <ele>47.8</ele>
        <time>2020-08-08T18:07:56Z</time>
      </trkpt>
      <trkpt lat="41.0943740" lon="0.6401400">
        <ele>47.8</ele>
        <time>2020-08-08T18:07:58Z</time>
      </trkpt>
      <trkpt lat="41.0943740" lon="0.6401410">
        <ele>47.8</ele>
        <time>2020-08-08T18:07:59Z</time>
      </trkpt>
      <trkpt lat="41.0943760" lon="0.6401400">
        <ele>47.8</ele>
        <time>2020-08-08T18:08:06Z</time>
      </trkpt>
      <trkpt lat="41.0943950" lon="0.6401730">
        <ele>46.9</ele>
        <time>2020-08-08T18:08:29Z</time>
      </trkpt>
      <trkpt lat="41.0943990" lon="0.6401750">
        <ele>46.9</ele>
        <time>2020-08-08T18:08:30Z</time>
      </trkpt>
      <trkpt lat="41.0944070" lon="0.6401830">
        <ele>46.9</ele>
        <time>2020-08-08T18:08:32Z</time>
      </trkpt>
      <trkpt lat="41.0944090" lon="0.6401850">
        <ele>46.9</ele>
        <time>2020-08-08T18:08:33Z</time>
      </trkpt>
      <trkpt lat="41.0944080" lon="0.6401840">
        <ele>46.9</ele>
        <time>2020-08-08T18:08:35Z</time>
      </trkpt>
      <trkpt lat="41.0944080" lon="0.6401830">
        <ele>46.9</ele>
        <time>2020-08-08T18:08:36Z</time>
      </trkpt>
      <trkpt lat="41.0944080" lon="0.6401830">
        <ele>46.9</ele>
        <time>2020-08-08T18:08:37Z</time>
      </trkpt>
      <trkpt lat="41.0944100" lon="0.6401830">
        <ele>46.9</ele>
        <time>2020-08-08T18:08:39Z</time>
      </trkpt>
      <trkpt lat="41.0944100" lon="0.6401830">
        <ele>46.9</ele>
        <time>2020-08-08T18:08:40Z</time>
      </trkpt>
      <trkpt lat="41.0944090" lon="0.6401830">
        <ele>46.9</ele>
        <time>2020-08-08T18:08:42Z</time>
      </trkpt>
      <trkpt lat="41.0944080" lon="0.6401830">
        <ele>46.9</ele>
        <time>2020-08-08T18:08:43Z</time>
      </trkpt>
      <trkpt lat="41.0944470" lon="0.6402020">
        <ele>46.8</ele>
        <time>2020-08-08T18:09:11Z</time>
      </trkpt>
      <trkpt lat="41.0944650" lon="0.6402040">
        <ele>46.6</ele>
        <time>2020-08-08T18:09:12Z</time>
      </trkpt>
      <trkpt lat="41.0944960" lon="0.6402040">
        <ele>46.4</ele>
        <time>2020-08-08T18:09:14Z</time>
      </trkpt>
      <trkpt lat="41.0944900" lon="0.6401910">
        <ele>46.4</ele>
        <time>2020-08-08T18:09:16Z</time>
      </trkpt>
      <trkpt lat="41.0944830" lon="0.6401840">
        <ele>46.6</ele>
        <time>2020-08-08T18:09:17Z</time>
      </trkpt>
      <trkpt lat="41.0944860" lon="0.6401790">
        <ele>46.6</ele>
        <time>2020-08-08T18:09:18Z</time>
      </trkpt>
      <trkpt lat="41.0944940" lon="0.6401770">
        <ele>46.4</ele>
        <time>2020-08-08T18:09:19Z</time>
      </trkpt>
      <trkpt lat="41.0945220" lon="0.6401830">
        <ele>46.2</ele>
        <time>2020-08-08T18:09:21Z</time>
      </trkpt>
      <trkpt lat="41.0945410" lon="0.6402000">
        <ele>46.2</ele>
        <time>2020-08-08T18:09:23Z</time>
      </trkpt>
      <trkpt lat="41.0945510" lon="0.6402080">
        <ele>46.2</ele>
        <time>2020-08-08T18:09:25Z</time>
      </trkpt>
      <trkpt lat="41.0945540" lon="0.6402110">
        <ele>46.0</ele>
        <time>2020-08-08T18:09:26Z</time>
      </trkpt>
      <trkpt lat="41.0945570" lon="0.6402130">
        <ele>45.1</ele>
        <time>2020-08-08T18:09:27Z</time>
      </trkpt>
      <trkpt lat="41.0945610" lon="0.6402150">
        <ele>45.1</ele>
        <time>2020-08-08T18:09:28Z</time>
      </trkpt>
      <trkpt lat="41.0945690" lon="0.6402170">
        <ele>45.1</ele>
        <time>2020-08-08T18:09:30Z</time>
      </trkpt>
      <trkpt lat="41.0945740" lon="0.6402190">
        <ele>45.1</ele>
        <time>2020-08-08T18:09:31Z</time>
      </trkpt>
      <trkpt lat="41.0945790" lon="0.6402200">
        <ele>45.1</ele>
        <time>2020-08-08T18:09:33Z</time>
      </trkpt>
      <trkpt lat="41.0946110" lon="0.6402210">
        <ele>44.9</ele>
        <time>2020-08-08T18:11:43Z</time>
      </trkpt>
      <trkpt lat="41.0946180" lon="0.6402090">
        <ele>45.8</ele>
        <time>2020-08-08T18:11:45Z</time>
      </trkpt>
      <trkpt lat="41.0946160" lon="0.6401980">
        <ele>45.8</ele>
        <time>2020-08-08T18:11:47Z</time>
      </trkpt>
      <trkpt lat="41.0946110" lon="0.6401840">
        <ele>45.9</ele>
        <time>2020-08-08T18:11:49Z</time>
      </trkpt>
      <trkpt lat="41.0946080" lon="0.6401710">
        <ele>45.9</ele>
        <time>2020-08-08T18:11:50Z</time>
      </trkpt>
      <trkpt lat="41.0946020" lon="0.6401650">
        <ele>46.8</ele>
        <time>2020-08-08T18:11:51Z</time>
      </trkpt>
      <trkpt lat="41.0945910" lon="0.6401560">
        <ele>46.8</ele>
        <time>2020-08-08T18:11:53Z</time>
      </trkpt>
      <trkpt lat="41.0945800" lon="0.6401530">
        <ele>47.0</ele>
        <time>2020-08-08T18:11:54Z</time>
      </trkpt>
      <trkpt lat="41.0945650" lon="0.6401580">
        <ele>47.0</ele>
        <time>2020-08-08T18:11:56Z</time>
      </trkpt>
      <trkpt lat="41.0945460" lon="0.6401450">
        <ele>47.2</ele>
        <time>2020-08-08T18:11:58Z</time>
      </trkpt>
      <trkpt lat="41.0945330" lon="0.6401290">
        <ele>47.2</ele>
        <time>2020-08-08T18:11:59Z</time>
      </trkpt>
      <trkpt lat="41.0945160" lon="0.6401160">
        <ele>48.2</ele>
        <time>2020-08-08T18:12:01Z</time>
      </trkpt>
      <trkpt lat="41.0945020" lon="0.6401060">
        <ele>48.2</ele>
        <time>2020-08-08T18:12:02Z</time>
      </trkpt>
      <trkpt lat="41.0944880" lon="0.6400960">
        <ele>48.4</ele>
        <time>2020-08-08T18:12:03Z</time>
      </trkpt>
      <trkpt lat="41.0944650" lon="0.6400620">
        <ele>49.2</ele>
        <time>2020-08-08T18:12:05Z</time>
      </trkpt>
      <trkpt lat="41.0944600" lon="0.6400540">
        <ele>49.2</ele>
        <time>2020-08-08T18:12:06Z</time>
      </trkpt>
      <trkpt lat="41.0944460" lon="0.6400250">
        <ele>50.2</ele>
        <time>2020-08-08T18:12:07Z</time>
      </trkpt>
      <trkpt lat="41.0944410" lon="0.6400120">
        <ele>50.2</ele>
        <time>2020-08-08T18:12:08Z</time>
      </trkpt>
      <trkpt lat="41.0944340" lon="0.6399950">
        <ele>51.0</ele>
        <time>2020-08-08T18:12:10Z</time>
      </trkpt>
      <trkpt lat="41.0944320" lon="0.6399720">
        <ele>51.0</ele>
        <time>2020-08-08T18:12:11Z</time>
      </trkpt>
      <trkpt lat="41.0944380" lon="0.6399300">
        <ele>51.9</ele>
        <time>2020-08-08T18:12:13Z</time>
      </trkpt>
      <trkpt lat="41.0944370" lon="0.6399200">
        <ele>51.9</ele>
        <time>2020-08-08T18:12:14Z</time>
      </trkpt>
      <trkpt lat="41.0944510" lon="0.6398840">
        <ele>52.7</ele>
        <time>2020-08-08T18:12:16Z</time>
      </trkpt>
      <trkpt lat="41.0944540" lon="0.6398760">
        <ele>52.7</ele>
        <time>2020-08-08T18:12:17Z</time>
      </trkpt>
      <trkpt lat="41.0944570" lon="0.6398620">
        <ele>53.6</ele>
        <time>2020-08-08T18:12:18Z</time>
      </trkpt>
      <trkpt lat="41.0944750" lon="0.6398510">
        <ele>53.6</ele>
        <time>2020-08-08T18:12:20Z</time>
      </trkpt>
      <trkpt lat="41.0944940" lon="0.6398530">
        <ele>53.5</ele>
        <time>2020-08-08T18:12:22Z</time>
      </trkpt>
      <trkpt lat="41.0945020" lon="0.6398520">
        <ele>53.5</ele>
        <time>2020-08-08T18:12:23Z</time>
      </trkpt>
      <trkpt lat="41.0945090" lon="0.6398400">
        <ele>53.6</ele>
        <time>2020-08-08T18:12:25Z</time>
      </trkpt>
      <trkpt lat="41.0945050" lon="0.6398260">
        <ele>53.6</ele>
        <time>2020-08-08T18:12:27Z</time>
      </trkpt>
      <trkpt lat="41.0944930" lon="0.6398090">
        <ele>54.4</ele>
        <time>2020-08-08T18:12:29Z</time>
      </trkpt>
      <trkpt lat="41.0944920" lon="0.6397980">
        <ele>54.4</ele>
        <time>2020-08-08T18:12:30Z</time>
      </trkpt>
      <trkpt lat="41.0944840" lon="0.6397840">
        <ele>54.5</ele>
        <time>2020-08-08T18:12:32Z</time>
      </trkpt>
      <trkpt lat="41.0944850" lon="0.6397660">
        <ele>55.3</ele>
        <time>2020-08-08T18:12:33Z</time>
      </trkpt>
      <trkpt lat="41.0944840" lon="0.6397440">
        <ele>55.3</ele>
        <time>2020-08-08T18:12:35Z</time>
      </trkpt>
      <trkpt lat="41.0944850" lon="0.6397120">
        <ele>56.1</ele>
        <time>2020-08-08T18:12:37Z</time>
      </trkpt>
      <trkpt lat="41.0944890" lon="0.6396730">
        <ele>56.8</ele>
        <time>2020-08-08T18:12:38Z</time>
      </trkpt>
      <trkpt lat="41.0944920" lon="0.6396490">
        <ele>57.6</ele>
        <time>2020-08-08T18:12:40Z</time>
      </trkpt>
      <trkpt lat="41.0944940" lon="0.6396240">
        <ele>57.6</ele>
        <time>2020-08-08T18:12:41Z</time>
      </trkpt>
      <trkpt lat="41.0944970" lon="0.6395990">
        <ele>58.3</ele>
        <time>2020-08-08T18:12:42Z</time>
      </trkpt>
      <trkpt lat="41.0944950" lon="0.6395170">
        <ele>59.5</ele>
        <time>2020-08-08T18:12:44Z</time>
      </trkpt>
      <trkpt lat="41.0944770" lon="0.6394760">
        <ele>60.0</ele>
        <time>2020-08-08T18:12:46Z</time>
      </trkpt>
      <trkpt lat="41.0944530" lon="0.6394760">
        <ele>59.9</ele>
        <time>2020-08-08T18:12:47Z</time>
      </trkpt>
      <trkpt lat="41.0944420" lon="0.6394880">
        <ele>59.4</ele>
        <time>2020-08-08T18:12:48Z</time>
      </trkpt>
      <trkpt lat="41.0944310" lon="0.6394990">
        <ele>59.4</ele>
        <time>2020-08-08T18:12:50Z</time>
      </trkpt>
      <trkpt lat="41.0944200" lon="0.6395110">
        <ele>59.3</ele>
        <time>2020-08-08T18:12:51Z</time>
      </trkpt>
      <trkpt lat="41.0944090" lon="0.6395220">
        <ele>59.3</ele>
        <time>2020-08-08T18:12:52Z</time>
      </trkpt>
      <trkpt lat="41.0943930" lon="0.6395430">
        <ele>58.7</ele>
        <time>2020-08-08T18:12:53Z</time>
      </trkpt>
      <trkpt lat="41.0943650" lon="0.6395890">
        <ele>58.0</ele>
        <time>2020-08-08T18:12:55Z</time>
      </trkpt>
      <trkpt lat="41.0943480" lon="0.6396210">
        <ele>57.4</ele>
        <time>2020-08-08T18:12:56Z</time>
      </trkpt>
      <trkpt lat="41.0943260" lon="0.6396670">
        <ele>56.7</ele>
        <time>2020-08-08T18:12:58Z</time>
      </trkpt>
      <trkpt lat="41.0943040" lon="0.6397160">
        <ele>56.1</ele>
        <time>2020-08-08T18:12:59Z</time>
      </trkpt>
      <trkpt lat="41.0942670" lon="0.6398050">
        <ele>54.7</ele>
        <time>2020-08-08T18:13:01Z</time>
      </trkpt>
      <trkpt lat="41.0942430" lon="0.6398980">
        <ele>53.3</ele>
        <time>2020-08-08T18:13:03Z</time>
      </trkpt>
      <trkpt lat="41.0942300" lon="0.6399490">
        <ele>52.6</ele>
        <time>2020-08-08T18:13:04Z</time>
      </trkpt>
      <trkpt lat="41.0942020" lon="0.6400160">
        <ele>51.1</ele>
        <time>2020-08-08T18:13:06Z</time>
      </trkpt>
      <trkpt lat="41.0941840" lon="0.6400540">
        <ele>50.4</ele>
        <time>2020-08-08T18:13:07Z</time>
      </trkpt>
      <trkpt lat="41.0941750" lon="0.6400650">
        <ele>50.4</ele>
        <time>2020-08-08T18:13:09Z</time>
      </trkpt>
      <trkpt lat="41.0941770" lon="0.6400600">
        <ele>50.4</ele>
        <time>2020-08-08T18:13:10Z</time>
      </trkpt>
      <trkpt lat="41.0941800" lon="0.6400530">
        <ele>50.5</ele>
        <time>2020-08-08T18:13:12Z</time>
      </trkpt>
      <trkpt lat="41.0941800" lon="0.6400490">
        <ele>50.5</ele>
        <time>2020-08-08T18:13:13Z</time>
      </trkpt>
      <trkpt lat="41.0941800" lon="0.6400470">
        <ele>50.5</ele>
        <time>2020-08-08T18:13:14Z</time>
      </trkpt>
      <trkpt lat="41.0941780" lon="0.6400430">
        <ele>50.5</ele>
        <time>2020-08-08T18:13:16Z</time>
      </trkpt>
      <trkpt lat="41.0941770" lon="0.6400410">
        <ele>50.5</ele>
        <time>2020-08-08T18:13:17Z</time>
      </trkpt>
      <trkpt lat="41.0941490" lon="0.6400660">
        <ele>50.6</ele>
        <time>2020-08-08T18:13:32Z</time>
      </trkpt>
      <trkpt lat="41.0941210" lon="0.6401030">
        <ele>49.9</ele>
        <time>2020-08-08T18:13:34Z</time>
      </trkpt>
      <trkpt lat="41.0941130" lon="0.6401160">
        <ele>49.9</ele>
        <time>2020-08-08T18:13:35Z</time>
      </trkpt>
      <trkpt lat="41.0941060" lon="0.6401320">
        <ele>49.2</ele>
        <time>2020-08-08T18:13:36Z</time>
      </trkpt>
      <trkpt lat="41.0941000" lon="0.6401520">
        <ele>49.3</ele>
        <time>2020-08-08T18:13:37Z</time>
      </trkpt>
      <trkpt lat="41.0940920" lon="0.6401960">
        <ele>48.6</ele>
        <time>2020-08-08T18:13:39Z</time>
      </trkpt>
      <trkpt lat="41.0940900" lon="0.6402430">
        <ele>47.9</ele>
        <time>2020-08-08T18:13:41Z</time>
      </trkpt>
      <trkpt lat="41.0940900" lon="0.6402620">
        <ele>47.1</ele>
        <time>2020-08-08T18:13:42Z</time>
      </trkpt>
      <trkpt lat="41.0940910" lon="0.6402990">
        <ele>46.4</ele>
        <time>2020-08-08T18:13:44Z</time>
      </trkpt>
      <trkpt lat="41.0940980" lon="0.6403160">
        <ele>46.4</ele>
        <time>2020-08-08T18:13:45Z</time>
      </trkpt>
      <trkpt lat="41.0941070" lon="0.6403330">
        <ele>46.3</ele>
        <time>2020-08-08T18:13:46Z</time>
      </trkpt>
      <trkpt lat="41.0941190" lon="0.6403450">
        <ele>45.5</ele>
        <time>2020-08-08T18:13:47Z</time>
      </trkpt>
      <trkpt lat="41.0941480" lon="0.6403560">
        <ele>45.4</ele>
        <time>2020-08-08T18:13:49Z</time>
      </trkpt>
      <trkpt lat="41.0941610" lon="0.6403550">
        <ele>45.4</ele>
        <time>2020-08-08T18:13:50Z</time>
      </trkpt>
      <trkpt lat="41.0941730" lon="0.6403500">
        <ele>45.2</ele>
        <time>2020-08-08T18:13:51Z</time>
      </trkpt>
      <trkpt lat="41.0942020" lon="0.6403450">
        <ele>45.0</ele>
        <time>2020-08-08T18:13:53Z</time>
      </trkpt>
      <trkpt lat="41.0942120" lon="0.6403420">
        <ele>45.0</ele>
        <time>2020-08-08T18:13:54Z</time>
      </trkpt>
      <trkpt lat="41.0942340" lon="0.6403350">
        <ele>45.7</ele>
        <time>2020-08-08T18:13:56Z</time>
      </trkpt>
      <trkpt lat="41.0942480" lon="0.6403330">
        <ele>45.7</ele>
        <time>2020-08-08T18:13:57Z</time>
      </trkpt>
      <trkpt lat="41.0942600" lon="0.6403330">
        <ele>45.7</ele>
        <time>2020-08-08T18:13:58Z</time>
      </trkpt>
      <trkpt lat="41.0942920" lon="0.6403260">
        <ele>45.5</ele>
        <time>2020-08-08T18:14:00Z</time>
      </trkpt>
      <trkpt lat="41.0943080" lon="0.6403300">
        <ele>45.3</ele>
        <time>2020-08-08T18:14:01Z</time>
      </trkpt>
      <trkpt lat="41.0943400" lon="0.6403380">
        <ele>45.1</ele>
        <time>2020-08-08T18:14:03Z</time>
      </trkpt>
      <trkpt lat="41.0943530" lon="0.6403390">
        <ele>45.2</ele>
        <time>2020-08-08T18:14:04Z</time>
      </trkpt>
      <trkpt lat="41.0943640" lon="0.6403400">
        <ele>44.0</ele>
        <time>2020-08-08T18:14:05Z</time>
      </trkpt>
      <trkpt lat="41.0943760" lon="0.6403420">
        <ele>44.0</ele>
        <time>2020-08-08T18:14:06Z</time>
      </trkpt>
      <trkpt lat="41.0943890" lon="0.6403770">
        <ele>44.0</ele>
        <time>2020-08-08T18:14:08Z</time>
      </trkpt>
      <trkpt lat="41.0943890" lon="0.6403890">
        <ele>43.1</ele>
        <time>2020-08-08T18:14:09Z</time>
      </trkpt>
      <trkpt lat="41.0943800" lon="0.6404280">
        <ele>42.2</ele>
        <time>2020-08-08T18:14:11Z</time>
      </trkpt>
      <trkpt lat="41.0943860" lon="0.6404300">
        <ele>42.2</ele>
        <time>2020-08-08T18:14:13Z</time>
      </trkpt>
      <trkpt lat="41.0943920" lon="0.6404320">
        <ele>42.0</ele>
        <time>2020-08-08T18:14:14Z</time>
      </trkpt>
      <trkpt lat="41.0943980" lon="0.6404340">
        <ele>42.0</ele>
        <time>2020-08-08T18:14:16Z</time>
      </trkpt>
      <trkpt lat="41.0944040" lon="0.6404360">
        <ele>42.0</ele>
        <time>2020-08-08T18:14:17Z</time>
      </trkpt>
      <trkpt lat="41.0944100" lon="0.6404380">
        <ele>42.0</ele>
        <time>2020-08-08T18:14:18Z</time>
      </trkpt>
      <trkpt lat="41.0944160" lon="0.6404400">
        <ele>42.0</ele>
        <time>2020-08-08T18:14:20Z</time>
      </trkpt>
      <trkpt lat="41.0944220" lon="0.6404420">
        <ele>42.0</ele>
        <time>2020-08-08T18:14:22Z</time>
      </trkpt>
      <trkpt lat="41.0944270" lon="0.6404450">
        <ele>41.7</ele>
        <time>2020-08-08T18:14:23Z</time>
      </trkpt>
      <trkpt lat="41.0944330" lon="0.6404470">
        <ele>41.8</ele>
        <time>2020-08-08T18:14:24Z</time>
      </trkpt>
      <trkpt lat="41.0944390" lon="0.6404490">
        <ele>41.8</ele>
        <time>2020-08-08T18:14:25Z</time>
      </trkpt>
      <trkpt lat="41.0944450" lon="0.6404510">
        <ele>41.8</ele>
        <time>2020-08-08T18:14:26Z</time>
      </trkpt>
      <trkpt lat="41.0944510" lon="0.6404530">
        <ele>41.8</ele>
        <time>2020-08-08T18:14:28Z</time>
      </trkpt>
      <trkpt lat="41.0944570" lon="0.6404550">
        <ele>41.5</ele>
        <time>2020-08-08T18:16:19Z</time>
      </trkpt>
      <trkpt lat="41.0944630" lon="0.6404570">
        <ele>41.5</ele>
        <time>2020-08-08T18:16:20Z</time>
      </trkpt>
      <trkpt lat="41.0944690" lon="0.6404590">
        <ele>41.5</ele>
        <time>2020-08-08T18:16:21Z</time>
      </trkpt>
      <trkpt lat="41.0945170" lon="0.6404750">
        <ele>40.4</ele>
        <time>2020-08-08T18:16:23Z</time>
      </trkpt>
      <trkpt lat="41.0945540" lon="0.6404930">
        <ele>39.9</ele>
        <time>2020-08-08T18:16:24Z</time>
      </trkpt>
      <trkpt lat="41.0945660" lon="0.6405010">
        <ele>40.0</ele>
        <time>2020-08-08T18:16:25Z</time>
      </trkpt>
      <trkpt lat="41.0945880" lon="0.6405250">
        <ele>38.9</ele>
        <time>2020-08-08T18:16:27Z</time>
      </trkpt>
      <trkpt lat="41.0945910" lon="0.6405310">
        <ele>38.9</ele>
        <time>2020-08-08T18:16:28Z</time>
      </trkpt>
      <trkpt lat="41.0945930" lon="0.6405360">
        <ele>38.9</ele>
        <time>2020-08-08T18:16:29Z</time>
      </trkpt>
      <trkpt lat="41.0945950" lon="0.6405400">
        <ele>38.9</ele>
        <time>2020-08-08T18:16:30Z</time>
      </trkpt>
      <trkpt lat="41.0945990" lon="0.6405450">
        <ele>38.9</ele>
        <time>2020-08-08T18:16:32Z</time>
      </trkpt>
      <trkpt lat="41.0946040" lon="0.6405490">
        <ele>38.9</ele>
        <time>2020-08-08T18:16:34Z</time>
      </trkpt>
      <trkpt lat="41.0946060" lon="0.6405510">
        <ele>38.9</ele>
        <time>2020-08-08T18:16:35Z</time>
      </trkpt>
      <trkpt lat="41.0946140" lon="0.6405480">
        <ele>38.9</ele>
        <time>2020-08-08T18:16:37Z</time>
      </trkpt>
      <trkpt lat="41.0946210" lon="0.6405470">
        <ele>38.7</ele>
        <time>2020-08-08T18:16:38Z</time>
      </trkpt>
      <trkpt lat="41.0946250" lon="0.6405470">
        <ele>38.7</ele>
        <time>2020-08-08T18:16:39Z</time>
      </trkpt>
      <trkpt lat="41.0946300" lon="0.6405460">
        <ele>38.7</ele>
        <time>2020-08-08T18:16:41Z</time>
      </trkpt>
      <trkpt lat="41.0946320" lon="0.6405430">
        <ele>38.7</ele>
        <time>2020-08-08T18:16:42Z</time>
      </trkpt>
      <trkpt lat="41.0946350" lon="0.6405360">
        <ele>38.8</ele>
        <time>2020-08-08T18:16:44Z</time>
      </trkpt>
      <trkpt lat="41.0946350" lon="0.6405350">
        <ele>38.8</ele>
        <time>2020-08-08T18:16:45Z</time>
      </trkpt>
      <trkpt lat="41.0946350" lon="0.6405350">
        <ele>38.8</ele>
        <time>2020-08-08T18:16:47Z</time>
      </trkpt>
      <trkpt lat="41.0946360" lon="0.6405340">
        <ele>38.8</ele>
        <time>2020-08-08T18:16:48Z</time>
      </trkpt>
      <trkpt lat="41.0946360" lon="0.6405340">
        <ele>38.8</ele>
        <time>2020-08-08T18:16:49Z</time>
      </trkpt>
      <trkpt lat="41.0946360" lon="0.6405350">
        <ele>38.8</ele>
        <time>2020-08-08T18:16:51Z</time>
      </trkpt>
      <trkpt lat="41.0946360" lon="0.6405350">
        <ele>38.8</ele>
        <time>2020-08-08T18:16:52Z</time>
      </trkpt>
      <trkpt lat="41.0946090" lon="0.6405380">
        <ele>39.0</ele>
        <time>2020-08-08T18:17:21Z</time>
      </trkpt>
      <trkpt lat="41.0945670" lon="0.6405400">
        <ele>39.2</ele>
        <time>2020-08-08T18:17:23Z</time>
      </trkpt>
      <trkpt lat="41.0945060" lon="0.6405390">
        <ele>39.7</ele>
        <time>2020-08-08T18:17:25Z</time>
      </trkpt>
      <trkpt lat="41.0944770" lon="0.6405360">
        <ele>39.9</ele>
        <time>2020-08-08T18:17:26Z</time>
      </trkpt>
      <trkpt lat="41.0944530" lon="0.6405350">
        <ele>40.2</ele>
        <time>2020-08-08T18:17:27Z</time>
      </trkpt>
      <trkpt lat="41.0944200" lon="0.6405360">
        <ele>40.4</ele>
        <time>2020-08-08T18:17:29Z</time>
      </trkpt>
      <trkpt lat="41.0944070" lon="0.6405370">
        <ele>40.4</ele>
        <time>2020-08-08T18:17:30Z</time>
      </trkpt>
      <trkpt lat="41.0943820" lon="0.6405380">
        <ele>40.7</ele>
        <time>2020-08-08T18:17:32Z</time>
      </trkpt>
      <trkpt lat="41.0943660" lon="0.6405420">
        <ele>40.7</ele>
        <time>2020-08-08T18:17:33Z</time>
      </trkpt>
      <trkpt lat="41.0943260" lon="0.6405490">
        <ele>41.2</ele>
        <time>2020-08-08T18:17:35Z</time>
      </trkpt>
      <trkpt lat="41.0942900" lon="0.6405420">
        <ele>41.5</ele>
        <time>2020-08-08T18:17:36Z</time>
      </trkpt>
      <trkpt lat="41.0942760" lon="0.6405390">
        <ele>41.5</ele>
        <time>2020-08-08T18:17:37Z</time>
      </trkpt>
      <trkpt lat="41.0942520" lon="0.6405340">
        <ele>41.8</ele>
        <time>2020-08-08T18:17:38Z</time>
      </trkpt>
      <trkpt lat="41.0942230" lon="0.6405500">
        <ele>42.1</ele>
        <time>2020-08-08T18:17:40Z</time>
      </trkpt>
      <trkpt lat="41.0941720" lon="0.6405880">
        <ele>41.6</ele>
        <time>2020-08-08T18:17:42Z</time>
      </trkpt>
      <trkpt lat="41.0941160" lon="0.6406580">
        <ele>40.8</ele>
        <time>2020-08-08T18:17:44Z</time>
      </trkpt>
      <trkpt lat="41.0940960" lon="0.6406900">
        <ele>40.4</ele>
        <time>2020-08-08T18:17:45Z</time>
      </trkpt>
      <trkpt lat="41.0940830" lon="0.6407270">
        <ele>39.7</ele>
        <time>2020-08-08T18:17:46Z</time>
      </trkpt>
      <trkpt lat="41.0940710" lon="0.6407570">
        <ele>39.7</ele>
        <time>2020-08-08T18:17:47Z</time>
      </trkpt>
      <trkpt lat="41.0940420" lon="0.6407860">
        <ele>39.3</ele>
        <time>2020-08-08T18:17:49Z</time>
      </trkpt>
      <trkpt lat="41.0940060" lon="0.6407660">
        <ele>40.3</ele>
        <time>2020-08-08T18:17:51Z</time>
      </trkpt>
      <trkpt lat="41.0939780" lon="0.6407540">
        <ele>40.6</ele>
        <time>2020-08-08T18:17:52Z</time>
      </trkpt>
      <trkpt lat="41.0939700" lon="0.6407490">
        <ele>40.8</ele>
        <time>2020-08-08T18:17:53Z</time>
      </trkpt>
      <trkpt lat="41.0939590" lon="0.6407470">
        <ele>40.8</ele>
        <time>2020-08-08T18:17:54Z</time>
      </trkpt>
      <trkpt lat="41.0939600" lon="0.6407440">
        <ele>40.8</ele>
        <time>2020-08-08T18:17:56Z</time>
      </trkpt>
      <trkpt lat="41.0939630" lon="0.6407450">
        <ele>40.8</ele>
        <time>2020-08-08T18:17:57Z</time>
      </trkpt>
      <trkpt lat="41.0939750" lon="0.6407440">
        <ele>40.6</ele>
        <time>2020-08-08T18:17:59Z</time>
      </trkpt>
      <trkpt lat="41.0939810" lon="0.6407400">
        <ele>40.6</ele>
        <time>2020-08-08T18:18:00Z</time>
      </trkpt>
      <trkpt lat="41.0939950" lon="0.6407200">
        <ele>41.3</ele>
        <time>2020-08-08T18:18:02Z</time>
      </trkpt>
      <trkpt lat="41.0940230" lon="0.6406750">
        <ele>41.7</ele>
        <time>2020-08-08T18:18:04Z</time>
      </trkpt>
      <trkpt lat="41.0940320" lon="0.6406620">
        <ele>41.8</ele>
        <time>2020-08-08T18:18:05Z</time>
      </trkpt>
      <trkpt lat="41.0940360" lon="0.6406580">
        <ele>41.8</ele>
        <time>2020-08-08T18:18:07Z</time>
      </trkpt>
      <trkpt lat="41.0940350" lon="0.6406600">
        <ele>41.8</ele>
        <time>2020-08-08T18:18:08Z</time>
      </trkpt>
      <trkpt lat="41.0940330" lon="0.6406620">
        <ele>41.8</ele>
        <time>2020-08-08T18:18:09Z</time>
      </trkpt>
      <trkpt lat="41.0940320" lon="0.6406650">
        <ele>41.8</ele>
        <time>2020-08-08T18:18:10Z</time>
      </trkpt>
      <trkpt lat="41.0940310" lon="0.6406660">
        <ele>41.8</ele>
        <time>2020-08-08T18:18:11Z</time>
      </trkpt>
      <trkpt lat="41.0940300" lon="0.6406670">
        <ele>41.8</ele>
        <time>2020-08-08T18:18:12Z</time>
      </trkpt>
      <trkpt lat="41.0940290" lon="0.6406680">
        <ele>41.8</ele>
        <time>2020-08-08T18:18:14Z</time>
      </trkpt>
      <trkpt lat="41.0940290" lon="0.6406680">
        <ele>41.8</ele>
        <time>2020-08-08T18:18:16Z</time>
      </trkpt>
      <trkpt lat="41.0940280" lon="0.6406670">
        <ele>41.8</ele>
        <time>2020-08-08T18:18:17Z</time>
      </trkpt>
      <trkpt lat="41.0940280" lon="0.6406670">
        <ele>41.8</ele>
        <time>2020-08-08T18:18:19Z</time>
      </trkpt>
      <trkpt lat="41.0940230" lon="0.6406390">
        <ele>42.5</ele>
        <time>2020-08-08T18:20:01Z</time>
      </trkpt>
      <trkpt lat="41.0940200" lon="0.6406360">
        <ele>42.5</ele>
        <time>2020-08-08T18:20:02Z</time>
      </trkpt>
      <trkpt lat="41.0939970" lon="0.6406300">
        <ele>42.7</ele>
        <time>2020-08-08T18:20:04Z</time>
      </trkpt>
      <trkpt lat="41.0939860" lon="0.6406300">
        <ele>42.7</ele>
        <time>2020-08-08T18:20:05Z</time>
      </trkpt>
      <trkpt lat="41.0939770" lon="0.6406300">
        <ele>42.7</ele>
        <time>2020-08-08T18:20:06Z</time>
      </trkpt>
      <trkpt lat="41.0939650" lon="0.6406290">
        <ele>42.9</ele>
        <time>2020-08-08T18:20:08Z</time>
      </trkpt>
      <trkpt lat="41.0939630" lon="0.6406270">
        <ele>42.9</ele>
        <time>2020-08-08T18:20:09Z</time>
      </trkpt>
      <trkpt lat="41.0939630" lon="0.6406260">
        <ele>42.9</ele>
        <time>2020-08-08T18:20:10Z</time>
      </trkpt>
      <trkpt lat="41.0939620" lon="0.6406250">
        <ele>42.9</ele>
        <time>2020-08-08T18:20:11Z</time>
      </trkpt>
      <trkpt lat="41.0939630" lon="0.6406250">
        <ele>42.9</ele>
        <time>2020-08-08T18:20:13Z</time>
      </trkpt>
      <trkpt lat="41.0939650" lon="0.6406220">
        <ele>42.9</ele>
        <time>2020-08-08T18:20:15Z</time>
      </trkpt>
      <trkpt lat="41.0939670" lon="0.6406200">
        <ele>42.9</ele>
        <time>2020-08-08T18:20:16Z</time>
      </trkpt>
      <trkpt lat="41.0939670" lon="0.6406200">
        <ele>42.9</ele>
        <time>2020-08-08T18:20:18Z</time>
      </trkpt>
      <trkpt lat="41.0939650" lon="0.6406210">
        <ele>42.9</ele>
        <time>2020-08-08T18:20:20Z</time>
      </trkpt>
      <trkpt lat="41.0939910" lon="0.6405980">
        <ele>42.8</ele>
        <time>2020-08-08T18:21:04Z</time>
      </trkpt>
      <trkpt lat="41.0939970" lon="0.6405890">
        <ele>43.4</ele>
        <time>2020-08-08T18:21:05Z</time>
      </trkpt>
      <trkpt lat="41.0939990" lon="0.6405850">
        <ele>43.4</ele>
        <time>2020-08-08T18:21:06Z</time>
      </trkpt>
      <trkpt lat="41.0940000" lon="0.6405860">
        <ele>43.4</ele>
        <time>2020-08-08T18:21:08Z</time>
      </trkpt>
      <trkpt lat="41.0940000" lon="0.6405870">
        <ele>43.4</ele>
        <time>2020-08-08T18:21:09Z</time>
      </trkpt>
      <trkpt lat="41.0940000" lon="0.6405870">
        <ele>43.4</ele>
        <time>2020-08-08T18:21:11Z</time>
      </trkpt>
      <trkpt lat="41.0939990" lon="0.6405870">
        <ele>43.4</ele>
        <time>2020-08-08T18:21:12Z</time>
      </trkpt>
      <trkpt lat="41.0939990" lon="0.6405880">
        <ele>43.4</ele>
        <time>2020-08-08T18:21:13Z</time>
      </trkpt>
      <trkpt lat="41.0939980" lon="0.6405890">
        <ele>43.4</ele>
        <time>2020-08-08T18:21:15Z</time>
      </trkpt>
      <trkpt lat="41.0939970" lon="0.6405880">
        <ele>43.4</ele>
        <time>2020-08-08T18:21:16Z</time>
      </trkpt>
      <trkpt lat="41.0940010" lon="0.6405620">
        <ele>43.4</ele>
        <time>2020-08-08T18:21:22Z</time>
      </trkpt>
      <trkpt lat="41.0940010" lon="0.6405420">
        <ele>44.1</ele>
        <time>2020-08-08T18:21:23Z</time>
      </trkpt>
      <trkpt lat="41.0939860" lon="0.6404910">
        <ele>44.7</ele>
        <time>2020-08-08T18:21:25Z</time>
      </trkpt>
      <trkpt lat="41.0939850" lon="0.6404530">
        <ele>45.1</ele>
        <time>2020-08-08T18:21:27Z</time>
      </trkpt>
      <trkpt lat="41.0939910" lon="0.6404260">
        <ele>45.3</ele>
        <time>2020-08-08T18:21:28Z</time>
      </trkpt>
      <trkpt lat="41.0940080" lon="0.6403630">
        <ele>46.1</ele>
        <time>2020-08-08T18:21:30Z</time>
      </trkpt>
      <trkpt lat="41.0940190" lon="0.6403150">
        <ele>46.7</ele>
        <time>2020-08-08T18:21:31Z</time>
      </trkpt>
      <trkpt lat="41.0940210" lon="0.6403000">
        <ele>46.9</ele>
        <time>2020-08-08T18:21:32Z</time>
      </trkpt>
      <trkpt lat="41.0940240" lon="0.6402470">
        <ele>47.6</ele>
        <time>2020-08-08T18:21:33Z</time>
      </trkpt>
      <trkpt lat="41.0940240" lon="0.6402290">
        <ele>47.8</ele>
        <time>2020-08-08T18:21:34Z</time>
      </trkpt>
      <trkpt lat="41.0940170" lon="0.6401680">
        <ele>48.6</ele>
        <time>2020-08-08T18:21:36Z</time>
      </trkpt>
      <trkpt lat="41.0940110" lon="0.6401320">
        <ele>49.2</ele>
        <time>2020-08-08T18:21:37Z</time>
      </trkpt>
      <trkpt lat="41.0940080" lon="0.6400870">
        <ele>49.8</ele>
        <time>2020-08-08T18:21:38Z</time>
      </trkpt>
      <trkpt lat="41.0940070" lon="0.6400710">
        <ele>50.0</ele>
        <time>2020-08-08T18:21:39Z</time>
      </trkpt>
      <trkpt lat="41.0940070" lon="0.6400360">
        <ele>50.5</ele>
        <time>2020-08-08T18:21:40Z</time>
      </trkpt>
      <trkpt lat="41.0940020" lon="0.6399770">
        <ele>51.2</ele>
        <time>2020-08-08T18:21:42Z</time>
      </trkpt>
      <trkpt lat="41.0939900" lon="0.6399470">
        <ele>52.7</ele>
        <time>2020-08-08T18:21:43Z</time>
      </trkpt>
      <trkpt lat="41.0939550" lon="0.6398950">
        <ele>52.9</ele>
        <time>2020-08-08T18:21:45Z</time>
      </trkpt>
      <trkpt lat="41.0939400" lon="0.6398790">
        <ele>53.0</ele>
        <time>2020-08-08T18:21:46Z</time>
      </trkpt>
      <trkpt lat="41.0939120" lon="0.6398650">
        <ele>53.2</ele>
        <time>2020-08-08T18:21:48Z</time>
      </trkpt>
      <trkpt lat="41.0939140" lon="0.6398720">
        <ele>53.1</ele>
        <time>2020-08-08T18:21:50Z</time>
      </trkpt>
      <trkpt lat="41.0939180" lon="0.6398740">
        <ele>53.1</ele>
        <time>2020-08-08T18:21:52Z</time>
      </trkpt>
      <trkpt lat="41.0939200" lon="0.6398740">
        <ele>53.1</ele>
        <time>2020-08-08T18:21:54Z</time>
      </trkpt>
      <trkpt lat="41.0939200" lon="0.6398740">
        <ele>53.1</ele>
        <time>2020-08-08T18:21:55Z</time>
      </trkpt>
      <trkpt lat="41.0939210" lon="0.6398730">
        <ele>53.0</ele>
        <time>2020-08-08T18:21:56Z</time>
      </trkpt>
      <trkpt lat="41.0939230" lon="0.6398730">
        <ele>53.0</ele>
        <time>2020-08-08T18:21:58Z</time>
      </trkpt>
      <trkpt lat="41.0938820" lon="0.6398690">
        <ele>52.6</ele>
        <time>2020-08-08T18:22:20Z</time>
      </trkpt>
      <trkpt lat="41.0938650" lon="0.6398650">
        <ele>52.4</ele>
        <time>2020-08-08T18:22:21Z</time>
      </trkpt>
      <trkpt lat="41.0938260" lon="0.6398570">
        <ele>52.1</ele>
        <time>2020-08-08T18:22:23Z</time>
      </trkpt>
      <trkpt lat="41.0937880" lon="0.6398570">
        <ele>49.9</ele>
        <time>2020-08-08T18:22:25Z</time>
      </trkpt>
      <trkpt lat="41.0937710" lon="0.6398580">
        <ele>49.7</ele>
        <time>2020-08-08T18:22:26Z</time>
      </trkpt>
      <trkpt lat="41.0937550" lon="0.6398600">
        <ele>49.5</ele>
        <time>2020-08-08T18:22:27Z</time>
      </trkpt>
      <trkpt lat="41.0937430" lon="0.6398600">
        <ele>49.4</ele>
        <time>2020-08-08T18:22:28Z</time>
      </trkpt>
      <trkpt lat="41.0937420" lon="0.6398520">
        <ele>49.3</ele>
        <time>2020-08-08T18:22:30Z</time>
      </trkpt>
      <trkpt lat="41.0937420" lon="0.6398510">
        <ele>49.3</ele>
        <time>2020-08-08T18:22:31Z</time>
      </trkpt>
      <trkpt lat="41.0937410" lon="0.6398540">
        <ele>49.3</ele>
        <time>2020-08-08T18:22:33Z</time>
      </trkpt>
      <trkpt lat="41.0937400" lon="0.6398540">
        <ele>49.3</ele>
        <time>2020-08-08T18:22:34Z</time>
      </trkpt>
      <trkpt lat="41.0937370" lon="0.6398570">
        <ele>49.2</ele>
        <time>2020-08-08T18:22:36Z</time>
      </trkpt>
      <trkpt lat="41.0937360" lon="0.6398580">
        <ele>49.2</ele>
        <time>2020-08-08T18:22:37Z</time>
      </trkpt>
      <trkpt lat="41.0937360" lon="0.6398570">
        <ele>49.2</ele>
        <time>2020-08-08T18:22:39Z</time>
      </trkpt>
      <trkpt lat="41.0937370" lon="0.6398570">
        <ele>49.2</ele>
        <time>2020-08-08T18:22:40Z</time>
      </trkpt>
      <trkpt lat="41.0937340" lon="0.6399100">
        <ele>48.7</ele>
        <time>2020-08-08T18:23:43Z</time>
      </trkpt>
      <trkpt lat="41.0937410" lon="0.6399440">
        <ele>48.3</ele>
        <time>2020-08-08T18:23:44Z</time>
      </trkpt>
      <trkpt lat="41.0937500" lon="0.6400270">
        <ele>47.6</ele>
        <time>2020-08-08T18:23:46Z</time>
      </trkpt>
      <trkpt lat="41.0937500" lon="0.6400670">
        <ele>47.0</ele>
        <time>2020-08-08T18:23:47Z</time>
      </trkpt>
      <trkpt lat="41.0937500" lon="0.6401080">
        <ele>46.6</ele>
        <time>2020-08-08T18:23:48Z</time>
      </trkpt>
      <trkpt lat="41.0937500" lon="0.6401330">
        <ele>46.4</ele>
        <time>2020-08-08T18:23:49Z</time>
      </trkpt>
      <trkpt lat="41.0937470" lon="0.6401720">
        <ele>46.0</ele>
        <time>2020-08-08T18:23:51Z</time>
      </trkpt>
      <trkpt lat="41.0937420" lon="0.6402120">
        <ele>45.5</ele>
        <time>2020-08-08T18:23:52Z</time>
      </trkpt>
      <trkpt lat="41.0937400" lon="0.6402260">
        <ele>45.4</ele>
        <time>2020-08-08T18:23:53Z</time>
      </trkpt>
      <trkpt lat="41.0937350" lon="0.6402760">
        <ele>44.8</ele>
        <time>2020-08-08T18:23:55Z</time>
      </trkpt>
      <trkpt lat="41.0937360" lon="0.6403010">
        <ele>44.6</ele>
        <time>2020-08-08T18:23:56Z</time>
      </trkpt>
      <trkpt lat="41.0937400" lon="0.6403480">
        <ele>44.2</ele>
        <time>2020-08-08T18:23:58Z</time>
      </trkpt>
      <trkpt lat="41.0937410" lon="0.6403670">
        <ele>44.0</ele>
        <time>2020-08-08T18:23:59Z</time>
      </trkpt>
      <trkpt lat="41.0937420" lon="0.6403820">
        <ele>43.8</ele>
        <time>2020-08-08T18:24:00Z</time>
      </trkpt>
      <trkpt lat="41.0937510" lon="0.6404040">
        <ele>43.4</ele>
        <time>2020-08-08T18:24:02Z</time>
      </trkpt>
      <trkpt lat="41.0937550" lon="0.6404080">
        <ele>43.3</ele>
        <time>2020-08-08T18:24:03Z</time>
      </trkpt>
      <trkpt lat="41.0937560" lon="0.6404100">
        <ele>43.3</ele>
        <time>2020-08-08T18:24:04Z</time>
      </trkpt>
      <trkpt lat="41.0937560" lon="0.6404140">
        <ele>43.2</ele>
        <time>2020-08-08T18:24:05Z</time>
      </trkpt>
      <trkpt lat="41.0937570" lon="0.6404220">
        <ele>43.0</ele>
        <time>2020-08-08T18:24:07Z</time>
      </trkpt>
      <trkpt lat="41.0937570" lon="0.6404300">
        <ele>43.0</ele>
        <time>2020-08-08T18:24:09Z</time>
      </trkpt>
      <trkpt lat="41.0937550" lon="0.6404300">
        <ele>42.9</ele>
        <time>2020-08-08T18:24:10Z</time>
      </trkpt>
      <trkpt lat="41.0937170" lon="0.6404610">
        <ele>42.3</ele>
        <time>2020-08-08T18:24:34Z</time>
      </trkpt>
      <trkpt lat="41.0937080" lon="0.6404740">
        <ele>42.1</ele>
        <time>2020-08-08T18:24:35Z</time>
      </trkpt>
      <trkpt lat="41.0936820" lon="0.6405120">
        <ele>41.6</ele>
        <time>2020-08-08T18:24:37Z</time>
      </trkpt>
      <trkpt lat="41.0936680" lon="0.6405400">
        <ele>41.3</ele>
        <time>2020-08-08T18:24:38Z</time>
      </trkpt>
      <trkpt lat="41.0936500" lon="0.6406010">
        <ele>40.6</ele>
        <time>2020-08-08T18:24:40Z</time>
      </trkpt>
      <trkpt lat="41.0936190" lon="0.6406580">
        <ele>40.0</ele>
        <time>2020-08-08T18:24:42Z</time>
      </trkpt>
      <trkpt lat="41.0936030" lon="0.6406800">
        <ele>39.7</ele>
        <time>2020-08-08T18:24:43Z</time>
      </trkpt>
      <trkpt lat="41.0935650" lon="0.6407270">
        <ele>39.1</ele>
        <time>2020-08-08T18:24:45Z</time>
      </trkpt>
      <trkpt lat="41.0935400" lon="0.6407550">
        <ele>38.8</ele>
        <time>2020-08-08T18:24:46Z</time>
      </trkpt>
      <trkpt lat="41.0935160" lon="0.6407850">
        <ele>38.4</ele>
        <time>2020-08-08T18:24:47Z</time>
      </trkpt>
      <trkpt lat="41.0934950" lon="0.6408140">
        <ele>38.1</ele>
        <time>2020-08-08T18:24:48Z</time>
      </trkpt>
      <trkpt lat="41.0934570" lon="0.6408790">
        <ele>37.5</ele>
        <time>2020-08-08T18:24:50Z</time>
      </trkpt>
      <trkpt lat="41.0934410" lon="0.6409150">
        <ele>37.2</ele>
        <time>2020-08-08T18:24:51Z</time>
      </trkpt>
      <trkpt lat="41.0934360" lon="0.6409270">
        <ele>37.1</ele>
        <time>2020-08-08T18:24:52Z</time>
      </trkpt>
      <trkpt lat="41.0934280" lon="0.6409520">
        <ele>37.0</ele>
        <time>2020-08-08T18:24:53Z</time>
      </trkpt>
      <trkpt lat="41.0933960" lon="0.6410170">
        <ele>36.5</ele>
        <time>2020-08-08T18:24:55Z</time>
      </trkpt>
      <trkpt lat="41.0933770" lon="0.6410450">
        <ele>36.2</ele>
        <time>2020-08-08T18:24:56Z</time>
      </trkpt>
      <trkpt lat="41.0933350" lon="0.6410980">
        <ele>35.8</ele>
        <time>2020-08-08T18:24:58Z</time>
      </trkpt>
      <trkpt lat="41.0933010" lon="0.6411600">
        <ele>35.3</ele>
        <time>2020-08-08T18:25:00Z</time>
      </trkpt>
      <trkpt lat="41.0932850" lon="0.6412390">
        <ele>34.8</ele>
        <time>2020-08-08T18:25:02Z</time>
      </trkpt>
      <trkpt lat="41.0932760" lon="0.6413150">
        <ele>34.3</ele>
        <time>2020-08-08T18:25:04Z</time>
      </trkpt>
      <trkpt lat="41.0932760" lon="0.6413620">
        <ele>34.0</ele>
        <time>2020-08-08T18:25:05Z</time>
      </trkpt>
      <trkpt lat="41.0932760" lon="0.6413810">
        <ele>33.8</ele>
        <time>2020-08-08T18:25:06Z</time>
      </trkpt>
      <trkpt lat="41.0932710" lon="0.6414220">
        <ele>33.6</ele>
        <time>2020-08-08T18:25:07Z</time>
      </trkpt>
      <trkpt lat="41.0932590" lon="0.6414650">
        <ele>33.3</ele>
        <time>2020-08-08T18:25:08Z</time>
      </trkpt>
      <trkpt lat="41.0932180" lon="0.6415410">
        <ele>32.8</ele>
        <time>2020-08-08T18:25:10Z</time>
      </trkpt>
      <trkpt lat="41.0931930" lon="0.6415730">
        <ele>32.5</ele>
        <time>2020-08-08T18:25:11Z</time>
      </trkpt>
      <trkpt lat="41.0931700" lon="0.6415960">
        <ele>32.3</ele>
        <time>2020-08-08T18:25:12Z</time>
      </trkpt>
      <trkpt lat="41.0931460" lon="0.6416220">
        <ele>32.1</ele>
        <time>2020-08-08T18:25:13Z</time>
      </trkpt>
      <trkpt lat="41.0931390" lon="0.6416320">
        <ele>32.1</ele>
        <time>2020-08-08T18:25:14Z</time>
      </trkpt>
      <trkpt lat="41.0931260" lon="0.6416610">
        <ele>32.0</ele>
        <time>2020-08-08T18:25:15Z</time>
      </trkpt>
      <trkpt lat="41.0931250" lon="0.6417180">
        <ele>31.9</ele>
        <time>2020-08-08T18:25:17Z</time>
      </trkpt>
      <trkpt lat="41.0931410" lon="0.6417510">
        <ele>31.9</ele>
        <time>2020-08-08T18:25:18Z</time>
      </trkpt>
      <trkpt lat="41.0931460" lon="0.6417610">
        <ele>31.9</ele>
        <time>2020-08-08T18:25:19Z</time>
      </trkpt>
      <trkpt lat="41.0931680" lon="0.6418290">
        <ele>31.9</ele>
        <time>2020-08-08T18:25:20Z</time>
      </trkpt>
      <trkpt lat="41.0931750" lon="0.6418770">
        <ele>31.8</ele>
        <time>2020-08-08T18:25:31Z</time>
      </trkpt>
      <trkpt lat="41.0931820" lon="0.6419250">
        <ele>31.8</ele>
        <time>2020-08-08T18:25:31Z</time>
      </trkpt>
      <trkpt lat="41.0931430" lon="0.6419420">
        <ele>31.8</ele>
        <time>2020-08-08T18:25:32Z</time>
      </trkpt>
      <trkpt lat="41.0931170" lon="0.6419410">
        <ele>31.8</ele>
        <time>2020-08-08T18:25:34Z</time>
      </trkpt>
      <trkpt lat="41.0931180" lon="0.6419350">
        <ele>31.8</ele>
        <time>2020-08-08T18:25:36Z</time>
      </trkpt>
      <trkpt lat="41.0931230" lon="0.6419350">
        <ele>31.8</ele>
        <time>2020-08-08T18:25:37Z</time>
      </trkpt>
      <trkpt lat="41.0931260" lon="0.6419330">
        <ele>31.8</ele>
        <time>2020-08-08T18:25:38Z</time>
      </trkpt>
      <trkpt lat="41.0931330" lon="0.6419260">
        <ele>31.8</ele>
        <time>2020-08-08T18:25:40Z</time>
      </trkpt>
      <trkpt lat="41.0931390" lon="0.6419210">
        <ele>31.8</ele>
        <time>2020-08-08T18:25:44Z</time>
      </trkpt>
      <trkpt lat="41.0931390" lon="0.6419220">
        <ele>31.8</ele>
        <time>2020-08-08T18:25:45Z</time>
      </trkpt>
      <trkpt lat="41.0931130" lon="0.6419460">
        <ele>31.8</ele>
        <time>2020-08-08T18:26:30Z</time>
      </trkpt>
      <trkpt lat="41.0930980" lon="0.6419490">
        <ele>31.8</ele>
        <time>2020-08-08T18:26:31Z</time>
      </trkpt>
      <trkpt lat="41.0930660" lon="0.6419480">
        <ele>31.8</ele>
        <time>2020-08-08T18:26:33Z</time>
      </trkpt>
      <trkpt lat="41.0930500" lon="0.6419490">
        <ele>31.8</ele>
        <time>2020-08-08T18:26:34Z</time>
      </trkpt>
      <trkpt lat="41.0930320" lon="0.6419520">
        <ele>31.8</ele>
        <time>2020-08-08T18:26:35Z</time>
      </trkpt>
      <trkpt lat="41.0930180" lon="0.6419540">
        <ele>31.8</ele>
        <time>2020-08-08T18:26:36Z</time>
      </trkpt>
      <trkpt lat="41.0930020" lon="0.6419530">
        <ele>31.8</ele>
        <time>2020-08-08T18:26:38Z</time>
      </trkpt>
      <trkpt lat="41.0929960" lon="0.6419510">
        <ele>31.8</ele>
        <time>2020-08-08T18:26:39Z</time>
      </trkpt>
      <trkpt lat="41.0929930" lon="0.6419450">
        <ele>31.8</ele>
        <time>2020-08-08T18:26:41Z</time>
      </trkpt>
      <trkpt lat="41.0929940" lon="0.6419400">
        <ele>31.8</ele>
        <time>2020-08-08T18:26:42Z</time>
      </trkpt>
      <trkpt lat="41.0929960" lon="0.6419340">
        <ele>31.8</ele>
        <time>2020-08-08T18:26:43Z</time>
      </trkpt>
      <trkpt lat="41.0929980" lon="0.6419300">
        <ele>31.8</ele>
        <time>2020-08-08T18:26:44Z</time>
      </trkpt>
      <trkpt lat="41.0930000" lon="0.6419300">
        <ele>31.8</ele>
        <time>2020-08-08T18:26:46Z</time>
      </trkpt>
      <trkpt lat="41.0929980" lon="0.6419320">
        <ele>31.8</ele>
        <time>2020-08-08T18:26:48Z</time>
      </trkpt>
      <trkpt lat="41.0929960" lon="0.6419310">
        <ele>31.8</ele>
        <time>2020-08-08T18:26:50Z</time>
      </trkpt>
      <trkpt lat="41.0929940" lon="0.6419290">
        <ele>31.8</ele>
        <time>2020-08-08T18:26:52Z</time>
      </trkpt>
      <trkpt lat="41.0929890" lon="0.6419290">
        <ele>31.8</ele>
        <time>2020-08-08T18:26:54Z</time>
      </trkpt>
      <trkpt lat="41.0930430" lon="0.6419670">
        <ele>31.8</ele>
        <time>2020-08-08T18:27:05Z</time>
      </trkpt>
      <trkpt lat="41.0930590" lon="0.6419740">
        <ele>31.8</ele>
        <time>2020-08-08T18:27:06Z</time>
      </trkpt>
      <trkpt lat="41.0930740" lon="0.6419870">
        <ele>31.8</ele>
        <time>2020-08-08T18:27:07Z</time>
      </trkpt>
      <trkpt lat="41.0930970" lon="0.6420090">
        <ele>31.8</ele>
        <time>2020-08-08T18:27:08Z</time>
      </trkpt>
      <trkpt lat="41.0931050" lon="0.6420180">
        <ele>31.8</ele>
        <time>2020-08-08T18:27:09Z</time>
      </trkpt>
      <trkpt lat="41.0931210" lon="0.6420340">
        <ele>31.8</ele>
        <time>2020-08-08T18:27:10Z</time>
      </trkpt>
      <trkpt lat="41.0931490" lon="0.6420680">
        <ele>31.8</ele>
        <time>2020-08-08T18:27:12Z</time>
      </trkpt>
      <trkpt lat="41.0931600" lon="0.6420860">
        <ele>31.8</ele>
        <time>2020-08-08T18:27:13Z</time>
      </trkpt>
      <trkpt lat="41.0931730" lon="0.6421110">
        <ele>31.8</ele>
        <time>2020-08-08T18:27:15Z</time>
      </trkpt>
      <trkpt lat="41.0931860" lon="0.6421330">
        <ele>31.8</ele>
        <time>2020-08-08T18:27:17Z</time>
      </trkpt>
      <trkpt lat="41.0931960" lon="0.6421350">
        <ele>31.8</ele>
        <time>2020-08-08T18:27:18Z</time>
      </trkpt>
      <trkpt lat="41.0932090" lon="0.6421320">
        <ele>31.8</ele>
        <time>2020-08-08T18:27:19Z</time>
      </trkpt>
      <trkpt lat="41.0932300" lon="0.6421260">
        <ele>31.8</ele>
        <time>2020-08-08T18:27:20Z</time>
      </trkpt>
      <trkpt lat="41.0932560" lon="0.6421220">
        <ele>31.8</ele>
        <time>2020-08-08T18:27:21Z</time>
      </trkpt>
      <trkpt lat="41.0932990" lon="0.6421310">
        <ele>31.8</ele>
        <time>2020-08-08T18:27:23Z</time>
      </trkpt>
      <trkpt lat="41.0933320" lon="0.6421670">
        <ele>31.8</ele>
        <time>2020-08-08T18:27:25Z</time>
      </trkpt>
      <trkpt lat="41.0933480" lon="0.6422000">
        <ele>31.8</ele>
        <time>2020-08-08T18:27:27Z</time>
      </trkpt>
      <trkpt lat="41.0933470" lon="0.6422240">
        <ele>31.8</ele>
        <time>2020-08-08T18:27:34Z</time>
      </trkpt>
      <trkpt lat="41.0933420" lon="0.6422220">
        <ele>31.8</ele>
        <time>2020-08-08T18:27:35Z</time>
      </trkpt>
      <trkpt lat="41.0933360" lon="0.6422190">
        <ele>31.8</ele>
        <time>2020-08-08T18:27:36Z</time>
      </trkpt>
      <trkpt lat="41.0933330" lon="0.6422170">
        <ele>31.8</ele>
        <time>2020-08-08T18:27:37Z</time>
      </trkpt>
      <trkpt lat="41.0933310" lon="0.6422160">
        <ele>31.8</ele>
        <time>2020-08-08T18:27:39Z</time>
      </trkpt>
      <trkpt lat="41.0933330" lon="0.6422170">
        <ele>31.8</ele>
        <time>2020-08-08T18:27:41Z</time>
      </trkpt>
      <trkpt lat="41.0933340" lon="0.6422170">
        <ele>31.8</ele>
        <time>2020-08-08T18:27:43Z</time>
      </trkpt>
      <trkpt lat="41.0933350" lon="0.6422180">
        <ele>31.8</ele>
        <time>2020-08-08T18:27:45Z</time>
      </trkpt>
      <trkpt lat="41.0933350" lon="0.6422180">
        <ele>31.8</ele>
        <time>2020-08-08T18:27:46Z</time>
      </trkpt>
      <trkpt lat="41.0933350" lon="0.6422180">
        <ele>31.8</ele>
        <time>2020-08-08T18:27:47Z</time>
      </trkpt>
      <trkpt lat="41.0933230" lon="0.6422240">
        <ele>31.8</ele>
        <time>2020-08-08T18:28:27Z</time>
      </trkpt>
      <trkpt lat="41.0933140" lon="0.6422340">
        <ele>31.8</ele>
        <time>2020-08-08T18:28:29Z</time>
      </trkpt>
      <trkpt lat="41.0933120" lon="0.6422360">
        <ele>31.8</ele>
        <time>2020-08-08T18:28:30Z</time>
      </trkpt>
      <trkpt lat="41.0933120" lon="0.6422370">
        <ele>31.8</ele>
        <time>2020-08-08T18:28:32Z</time>
      </trkpt>
      <trkpt lat="41.0933130" lon="0.6422350">
        <ele>31.8</ele>
        <time>2020-08-08T18:28:34Z</time>
      </trkpt>
      <trkpt lat="41.0933140" lon="0.6422340">
        <ele>31.8</ele>
        <time>2020-08-08T18:28:36Z</time>
      </trkpt>
      <trkpt lat="41.0933140" lon="0.6422340">
        <ele>31.8</ele>
        <time>2020-08-08T18:28:38Z</time>
      </trkpt>
      <trkpt lat="41.0933140" lon="0.6422340">
        <ele>31.8</ele>
        <time>2020-08-08T18:28:40Z</time>
      </trkpt>
      <trkpt lat="41.0932950" lon="0.6422320">
        <ele>31.8</ele>
        <time>2020-08-08T18:32:12Z</time>
      </trkpt>
      <trkpt lat="41.0932910" lon="0.6422130">
        <ele>31.8</ele>
        <time>2020-08-08T18:32:14Z</time>
      </trkpt>
      <trkpt lat="41.0932850" lon="0.6421780">
        <ele>31.8</ele>
        <time>2020-08-08T18:32:16Z</time>
      </trkpt>
      <trkpt lat="41.0932820" lon="0.6421580">
        <ele>31.8</ele>
        <time>2020-08-08T18:32:17Z</time>
      </trkpt>
      <trkpt lat="41.0932770" lon="0.6421330">
        <ele>31.8</ele>
        <time>2020-08-08T18:32:18Z</time>
      </trkpt>
      <trkpt lat="41.0932650" lon="0.6420810">
        <ele>31.8</ele>
        <time>2020-08-08T18:32:20Z</time>
      </trkpt>
      <trkpt lat="41.0932590" lon="0.6420430">
        <ele>31.8</ele>
        <time>2020-08-08T18:32:22Z</time>
      </trkpt>
      <trkpt lat="41.0932540" lon="0.6420260">
        <ele>31.8</ele>
        <time>2020-08-08T18:32:23Z</time>
      </trkpt>
      <trkpt lat="41.0932440" lon="0.6420080">
        <ele>31.8</ele>
        <time>2020-08-08T18:32:24Z</time>
      </trkpt>
      <trkpt lat="41.0932300" lon="0.6419890">
        <ele>31.8</ele>
        <time>2020-08-08T18:32:25Z</time>
      </trkpt>
      <trkpt lat="41.0932050" lon="0.6419720">
        <ele>31.8</ele>
        <time>2020-08-08T18:32:27Z</time>
      </trkpt>
      <trkpt lat="41.0931930" lon="0.6419640">
        <ele>31.8</ele>
        <time>2020-08-08T18:32:28Z</time>
      </trkpt>
      <trkpt lat="41.0931820" lon="0.6419530">
        <ele>31.8</ele>
        <time>2020-08-08T18:32:29Z</time>
      </trkpt>
      <trkpt lat="41.0931680" lon="0.6419250">
        <ele>31.8</ele>
        <time>2020-08-08T18:32:31Z</time>
      </trkpt>
      <trkpt lat="41.0931680" lon="0.6419090">
        <ele>31.8</ele>
        <time>2020-08-08T18:32:32Z</time>
      </trkpt>
      <trkpt lat="41.0931780" lon="0.6418950">
        <ele>31.8</ele>
        <time>2020-08-08T18:32:34Z</time>
      </trkpt>
      <trkpt lat="41.0931890" lon="0.6419020">
        <ele>31.8</ele>
        <time>2020-08-08T18:32:36Z</time>
      </trkpt>
      <trkpt lat="41.0931900" lon="0.6419090">
        <ele>31.8</ele>
        <time>2020-08-08T18:32:37Z</time>
      </trkpt>
      <trkpt lat="41.0931890" lon="0.6419120">
        <ele>31.8</ele>
        <time>2020-08-08T18:32:38Z</time>
      </trkpt>
      <trkpt lat="41.0931880" lon="0.6419160">
        <ele>31.8</ele>
        <time>2020-08-08T18:32:40Z</time>
      </trkpt>
      <trkpt lat="41.0931890" lon="0.6419190">
        <ele>31.8</ele>
        <time>2020-08-08T18:32:42Z</time>
      </trkpt>
      <trkpt lat="41.0931880" lon="0.6419150">
        <ele>31.8</ele>
        <time>2020-08-08T18:32:44Z</time>
      </trkpt>
      <trkpt lat="41.0931880" lon="0.6419140">
        <ele>31.8</ele>
        <time>2020-08-08T18:32:45Z</time>
      </trkpt>
      <trkpt lat="41.0931880" lon="0.6419170">
        <ele>31.8</ele>
        <time>2020-08-08T18:32:47Z</time>
      </trkpt>
      <trkpt lat="41.0931410" lon="0.6419430">
        <ele>31.8</ele>
        <time>2020-08-08T18:33:28Z</time>
      </trkpt>
      <trkpt lat="41.0931170" lon="0.6419170">
        <ele>31.8</ele>
        <time>2020-08-08T18:33:30Z</time>
      </trkpt>
      <trkpt lat="41.0931000" lon="0.6419120">
        <ele>31.8</ele>
        <time>2020-08-08T18:33:32Z</time>
      </trkpt>
      <trkpt lat="41.0930970" lon="0.6419190">
        <ele>31.8</ele>
        <time>2020-08-08T18:33:33Z</time>
      </trkpt>
      <trkpt lat="41.0930940" lon="0.6419250">
        <ele>31.8</ele>
        <time>2020-08-08T18:33:34Z</time>
      </trkpt>
      <trkpt lat="41.0930870" lon="0.6419370">
        <ele>31.8</ele>
        <time>2020-08-08T18:33:36Z</time>
      </trkpt>
      <trkpt lat="41.0930820" lon="0.6419470">
        <ele>31.8</ele>
        <time>2020-08-08T18:33:37Z</time>
      </trkpt>
      <trkpt lat="41.0930740" lon="0.6419820">
        <ele>31.8</ele>
        <time>2020-08-08T18:33:39Z</time>
      </trkpt>
      <trkpt lat="41.0930690" lon="0.6419980">
        <ele>31.8</ele>
        <time>2020-08-08T18:33:40Z</time>
      </trkpt>
      <trkpt lat="41.0930650" lon="0.6420090">
        <ele>31.8</ele>
        <time>2020-08-08T18:33:41Z</time>
      </trkpt>
      <trkpt lat="41.0930550" lon="0.6420170">
        <ele>31.8</ele>
        <time>2020-08-08T18:33:43Z</time>
      </trkpt>
      <trkpt lat="41.0930520" lon="0.6420090">
        <ele>31.8</ele>
        <time>2020-08-08T18:33:44Z</time>
      </trkpt>
      <trkpt lat="41.0930510" lon="0.6420020">
        <ele>31.8</ele>
        <time>2020-08-08T18:33:45Z</time>
      </trkpt>
      <trkpt lat="41.0930430" lon="0.6419820">
        <ele>31.8</ele>
        <time>2020-08-08T18:33:47Z</time>
      </trkpt>
      <trkpt lat="41.0930320" lon="0.6419770">
        <ele>31.8</ele>
        <time>2020-08-08T18:33:49Z</time>
      </trkpt>
      <trkpt lat="41.0930260" lon="0.6419820">
        <ele>31.8</ele>
        <time>2020-08-08T18:33:51Z</time>
      </trkpt>
      <trkpt lat="41.0930230" lon="0.6419830">
        <ele>31.8</ele>
        <time>2020-08-08T18:33:52Z</time>
      </trkpt>
      <trkpt lat="41.0930060" lon="0.6420250">
        <ele>31.8</ele>
        <time>2020-08-08T18:33:54Z</time>
      </trkpt>
      <trkpt lat="41.0930000" lon="0.6420620">
        <ele>31.8</ele>
        <time>2020-08-08T18:33:56Z</time>
      </trkpt>
      <trkpt lat="41.0929890" lon="0.6420850">
        <ele>31.8</ele>
        <time>2020-08-08T18:33:58Z</time>
      </trkpt>
      <trkpt lat="41.0929540" lon="0.6420930">
        <ele>31.8</ele>
        <time>2020-08-08T18:34:00Z</time>
      </trkpt>
      <trkpt lat="41.0929440" lon="0.6420920">
        <ele>31.8</ele>
        <time>2020-08-08T18:34:01Z</time>
      </trkpt>
      <trkpt lat="41.0929350" lon="0.6420890">
        <ele>31.8</ele>
        <time>2020-08-08T18:34:02Z</time>
      </trkpt>
      <trkpt lat="41.0929130" lon="0.6420680">
        <ele>31.8</ele>
        <time>2020-08-08T18:34:04Z</time>
      </trkpt>
      <trkpt lat="41.0929060" lon="0.6420630">
        <ele>31.8</ele>
        <time>2020-08-08T18:34:05Z</time>
      </trkpt>
      <trkpt lat="41.0928990" lon="0.6420610">
        <ele>31.8</ele>
        <time>2020-08-08T18:34:06Z</time>
      </trkpt>
      <trkpt lat="41.0928870" lon="0.6420690">
        <ele>31.8</ele>
        <time>2020-08-08T18:34:09Z</time>
      </trkpt>
      <trkpt lat="41.0928940" lon="0.6420990">
        <ele>31.8</ele>
        <time>2020-08-08T18:34:10Z</time>
      </trkpt>
      <trkpt lat="41.0929040" lon="0.6421080">
        <ele>31.8</ele>
        <time>2020-08-08T18:34:11Z</time>
      </trkpt>
      <trkpt lat="41.0929390" lon="0.6421250">
        <ele>31.8</ele>
        <time>2020-08-08T18:34:13Z</time>
      </trkpt>
      <trkpt lat="41.0929680" lon="0.6421410">
        <ele>31.8</ele>
        <time>2020-08-08T18:34:14Z</time>
      </trkpt>
      <trkpt lat="41.0929730" lon="0.6421460">
        <ele>31.8</ele>
        <time>2020-08-08T18:34:15Z</time>
      </trkpt>
      <trkpt lat="41.0929310" lon="0.6421720">
        <ele>31.8</ele>
        <time>2020-08-08T18:34:17Z</time>
      </trkpt>
      <trkpt lat="41.0928840" lon="0.6422040">
        <ele>31.8</ele>
        <time>2020-08-08T18:34:19Z</time>
      </trkpt>
      <trkpt lat="41.0928640" lon="0.6422130">
        <ele>31.8</ele>
        <time>2020-08-08T18:34:20Z</time>
      </trkpt>
      <trkpt lat="41.0928050" lon="0.6422400">
        <ele>31.8</ele>
        <time>2020-08-08T18:34:22Z</time>
      </trkpt>
      <trkpt lat="41.0927770" lon="0.6422620">
        <ele>31.8</ele>
        <time>2020-08-08T18:34:23Z</time>
      </trkpt>
      <trkpt lat="41.0927490" lon="0.6422890">
        <ele>31.8</ele>
        <time>2020-08-08T18:34:24Z</time>
      </trkpt>
      <trkpt lat="41.0927230" lon="0.6423130">
        <ele>31.8</ele>
        <time>2020-08-08T18:34:25Z</time>
      </trkpt>
      <trkpt lat="41.0927040" lon="0.6423340">
        <ele>31.9</ele>
        <time>2020-08-08T18:34:26Z</time>
      </trkpt>
      <trkpt lat="41.0926670" lon="0.6423640">
        <ele>31.8</ele>
        <time>2020-08-08T18:34:28Z</time>
      </trkpt>
      <trkpt lat="41.0926430" lon="0.6423880">
        <ele>31.7</ele>
        <time>2020-08-08T18:34:29Z</time>
      </trkpt>
      <trkpt lat="41.0926340" lon="0.6423960">
        <ele>31.7</ele>
        <time>2020-08-08T18:34:30Z</time>
      </trkpt>
      <trkpt lat="41.0926050" lon="0.6424300">
        <ele>31.6</ele>
        <time>2020-08-08T18:34:31Z</time>
      </trkpt>
      <trkpt lat="41.0925920" lon="0.6424430">
        <ele>31.6</ele>
        <time>2020-08-08T18:34:32Z</time>
      </trkpt>
      <trkpt lat="41.0925540" lon="0.6424770">
        <ele>31.5</ele>
        <time>2020-08-08T18:34:33Z</time>
      </trkpt>
      <trkpt lat="41.0925210" lon="0.6425150">
        <ele>31.4</ele>
        <time>2020-08-08T18:34:34Z</time>
      </trkpt>
      <trkpt lat="41.0924960" lon="0.6425500">
        <ele>31.3</ele>
        <time>2020-08-08T18:34:35Z</time>
      </trkpt>
      <trkpt lat="41.0924660" lon="0.6426070">
        <ele>31.1</ele>
        <time>2020-08-08T18:34:37Z</time>
      </trkpt>
      <trkpt lat="41.0924500" lon="0.6426390">
        <ele>31.0</ele>
        <time>2020-08-08T18:34:38Z</time>
      </trkpt>
      <trkpt lat="41.0924440" lon="0.6426480">
        <ele>31.0</ele>
        <time>2020-08-08T18:34:39Z</time>
      </trkpt>
      <trkpt lat="41.0924730" lon="0.6426030">
        <ele>31.0</ele>
        <time>2020-08-08T18:34:40Z</time>
      </trkpt>
      <trkpt lat="41.0925540" lon="0.6424640">
        <ele>31.1</ele>
        <time>2020-08-08T18:34:42Z</time>
      </trkpt>
      <trkpt lat="41.0925730" lon="0.6424260">
        <ele>31.1</ele>
        <time>2020-08-08T18:34:43Z</time>
      </trkpt>
      <trkpt lat="41.0926040" lon="0.6423760">
        <ele>31.2</ele>
        <time>2020-08-08T18:34:45Z</time>
      </trkpt>
      <trkpt lat="41.0926510" lon="0.6423350">
        <ele>31.2</ele>
        <time>2020-08-08T18:34:47Z</time>
      </trkpt>
      <trkpt lat="41.0926720" lon="0.6423190">
        <ele>31.2</ele>
        <time>2020-08-08T18:34:49Z</time>
      </trkpt>
      <trkpt lat="41.0926800" lon="0.6423200">
        <ele>31.2</ele>
        <time>2020-08-08T18:34:50Z</time>
      </trkpt>
      <trkpt lat="41.0926880" lon="0.6423280">
        <ele>31.2</ele>
        <time>2020-08-08T18:34:52Z</time>
      </trkpt>
      <trkpt lat="41.0926900" lon="0.6423330">
        <ele>31.2</ele>
        <time>2020-08-08T18:34:53Z</time>
      </trkpt>
      <trkpt lat="41.0926930" lon="0.6423400">
        <ele>31.2</ele>
        <time>2020-08-08T18:34:54Z</time>
      </trkpt>
      <trkpt lat="41.0926950" lon="0.6423520">
        <ele>31.2</ele>
        <time>2020-08-08T18:34:56Z</time>
      </trkpt>
      <trkpt lat="41.0926940" lon="0.6423630">
        <ele>31.2</ele>
        <time>2020-08-08T18:34:58Z</time>
      </trkpt>
      <trkpt lat="41.0926900" lon="0.6423730">
        <ele>31.2</ele>
        <time>2020-08-08T18:34:59Z</time>
      </trkpt>
      <trkpt lat="41.0926910" lon="0.6423780">
        <ele>31.2</ele>
        <time>2020-08-08T18:35:00Z</time>
      </trkpt>
      <trkpt lat="41.0926920" lon="0.6423870">
        <ele>31.2</ele>
        <time>2020-08-08T18:35:01Z</time>
      </trkpt>
      <trkpt lat="41.0926820" lon="0.6423960">
        <ele>31.3</ele>
        <time>2020-08-08T18:35:02Z</time>
      </trkpt>
      <trkpt lat="41.0926770" lon="0.6424010">
        <ele>31.3</ele>
        <time>2020-08-08T18:35:04Z</time>
      </trkpt>
      <trkpt lat="41.0926730" lon="0.6424080">
        <ele>31.3</ele>
        <time>2020-08-08T18:35:06Z</time>
      </trkpt>
      <trkpt lat="41.0926710" lon="0.6424100">
        <ele>31.3</ele>
        <time>2020-08-08T18:35:07Z</time>
      </trkpt>
      <trkpt lat="41.0926690" lon="0.6424140">
        <ele>31.3</ele>
        <time>2020-08-08T18:35:08Z</time>
      </trkpt>
      <trkpt lat="41.0926680" lon="0.6424170">
        <ele>31.3</ele>
        <time>2020-08-08T18:35:09Z</time>
      </trkpt>
      <trkpt lat="41.0926520" lon="0.6424630">
        <ele>31.3</ele>
        <time>2020-08-08T18:35:10Z</time>
      </trkpt>
      <trkpt lat="41.0926190" lon="0.6425630">
        <ele>31.3</ele>
        <time>2020-08-08T18:35:12Z</time>
      </trkpt>
      <trkpt lat="41.0926040" lon="0.6426110">
        <ele>31.4</ele>
        <time>2020-08-08T18:35:13Z</time>
      </trkpt>
      <trkpt lat="41.0926220" lon="0.6425600">
        <ele>31.4</ele>
        <time>2020-08-08T18:35:15Z</time>
      </trkpt>
      <trkpt lat="41.0926290" lon="0.6425380">
        <ele>31.4</ele>
        <time>2020-08-08T18:35:16Z</time>
      </trkpt>
      <trkpt lat="41.0926340" lon="0.6425230">
        <ele>31.4</ele>
        <time>2020-08-08T18:35:17Z</time>
      </trkpt>
      <trkpt lat="41.0926440" lon="0.6424960">
        <ele>31.4</ele>
        <time>2020-08-08T18:35:19Z</time>
      </trkpt>
      <trkpt lat="41.0926490" lon="0.6424850">
        <ele>31.4</ele>
        <time>2020-08-08T18:35:21Z</time>
      </trkpt>
      <trkpt lat="41.0926530" lon="0.6424760">
        <ele>31.4</ele>
        <time>2020-08-08T18:35:23Z</time>
      </trkpt>
      <trkpt lat="41.0926290" lon="0.6425390">
        <ele>31.5</ele>
        <time>2020-08-08T18:35:26Z</time>
      </trkpt>
      <trkpt lat="41.0926150" lon="0.6425780">
        <ele>31.5</ele>
        <time>2020-08-08T18:35:27Z</time>
      </trkpt>
      <trkpt lat="41.0926030" lon="0.6426150">
        <ele>31.5</ele>
        <time>2020-08-08T18:35:28Z</time>
      </trkpt>
      <trkpt lat="41.0926000" lon="0.6426220">
        <ele>31.5</ele>
        <time>2020-08-08T18:35:29Z</time>
      </trkpt>
      <trkpt lat="41.0926000" lon="0.6426240">
        <ele>31.5</ele>
        <time>2020-08-08T18:35:31Z</time>
      </trkpt>
      <trkpt lat="41.0926020" lon="0.6426200">
        <ele>31.5</ele>
        <time>2020-08-08T18:35:32Z</time>
      </trkpt>
      <trkpt lat="41.0926050" lon="0.6426150">
        <ele>31.5</ele>
        <time>2020-08-08T18:35:33Z</time>
      </trkpt>
      <trkpt lat="41.0926080" lon="0.6426140">
        <ele>31.5</ele>
        <time>2020-08-08T18:35:34Z</time>
      </trkpt>
      <trkpt lat="41.0926060" lon="0.6426260">
        <ele>31.5</ele>
        <time>2020-08-08T18:35:40Z</time>
      </trkpt>
      <trkpt lat="41.0926120" lon="0.6426100">
        <ele>31.5</ele>
        <time>2020-08-08T18:35:41Z</time>
      </trkpt>
      <trkpt lat="41.0926230" lon="0.6425820">
        <ele>31.5</ele>
        <time>2020-08-08T18:35:43Z</time>
      </trkpt>
      <trkpt lat="41.0926260" lon="0.6425790">
        <ele>31.5</ele>
        <time>2020-08-08T18:35:45Z</time>
      </trkpt>
      <trkpt lat="41.0926410" lon="0.6426290">
        <ele>31.5</ele>
        <time>2020-08-08T18:35:48Z</time>
      </trkpt>
      <trkpt lat="41.0926800" lon="0.6426370">
        <ele>31.6</ele>
        <time>2020-08-08T18:35:50Z</time>
      </trkpt>
      <trkpt lat="41.0927260" lon="0.6426170">
        <ele>31.6</ele>
        <time>2020-08-08T18:35:52Z</time>
      </trkpt>
      <trkpt lat="41.0928390" lon="0.6424890">
        <ele>31.9</ele>
        <time>2020-08-08T18:35:54Z</time>
      </trkpt>
      <trkpt lat="41.0928100" lon="0.6424900">
        <ele>31.9</ele>
        <time>2020-08-08T18:35:55Z</time>
      </trkpt>
      <trkpt lat="41.0927940" lon="0.6424990">
        <ele>31.8</ele>
        <time>2020-08-08T18:35:56Z</time>
      </trkpt>
      <trkpt lat="41.0928830" lon="0.6422930">
        <ele>31.8</ele>
        <time>2020-08-08T18:35:58Z</time>
      </trkpt>
      <trkpt lat="41.0929530" lon="0.6421140">
        <ele>31.8</ele>
        <time>2020-08-08T18:35:59Z</time>
      </trkpt>
      <trkpt lat="41.0930260" lon="0.6419490">
        <ele>31.8</ele>
        <time>2020-08-08T18:36:00Z</time>
      </trkpt>
      <trkpt lat="41.0930250" lon="0.6418820">
        <ele>31.8</ele>
        <time>2020-08-08T18:36:01Z</time>
      </trkpt>
      <trkpt lat="41.0930060" lon="0.6418460">
        <ele>31.8</ele>
        <time>2020-08-08T18:36:03Z</time>
      </trkpt>
      <trkpt lat="41.0930210" lon="0.6417850">
        <ele>31.8</ele>
        <time>2020-08-08T18:36:04Z</time>
      </trkpt>
      <trkpt lat="41.0930570" lon="0.6417290">
        <ele>31.8</ele>
        <time>2020-08-08T18:36:06Z</time>
      </trkpt>
      <trkpt lat="41.0930830" lon="0.6417000">
        <ele>31.9</ele>
        <time>2020-08-08T18:36:07Z</time>
      </trkpt>
      <trkpt lat="41.0931110" lon="0.6416450">
        <ele>32.2</ele>
        <time>2020-08-08T18:36:08Z</time>
      </trkpt>
      <trkpt lat="41.0931380" lon="0.6416030">
        <ele>32.6</ele>
        <time>2020-08-08T18:36:09Z</time>
      </trkpt>
      <trkpt lat="41.0931710" lon="0.6415640">
        <ele>33.0</ele>
        <time>2020-08-08T18:36:11Z</time>
      </trkpt>
      <trkpt lat="41.0931730" lon="0.6415790">
        <ele>33.1</ele>
        <time>2020-08-08T18:36:12Z</time>
      </trkpt>
      <trkpt lat="41.0931680" lon="0.6415980">
        <ele>33.2</ele>
        <time>2020-08-08T18:36:14Z</time>
      </trkpt>
      <trkpt lat="41.0931640" lon="0.6416160">
        <ele>33.3</ele>
        <time>2020-08-08T18:36:15Z</time>
      </trkpt>
      <trkpt lat="41.0931320" lon="0.6416300">
        <ele>33.6</ele>
        <time>2020-08-08T18:36:17Z</time>
      </trkpt>
      <trkpt lat="41.0930920" lon="0.6416230">
        <ele>34.0</ele>
        <time>2020-08-08T18:36:19Z</time>
      </trkpt>
      <trkpt lat="41.0930590" lon="0.6416090">
        <ele>34.3</ele>
        <time>2020-08-08T18:36:20Z</time>
      </trkpt>
      <trkpt lat="41.0930470" lon="0.6416050">
        <ele>34.5</ele>
        <time>2020-08-08T18:36:21Z</time>
      </trkpt>
      <trkpt lat="41.0929960" lon="0.6415980">
        <ele>34.9</ele>
        <time>2020-08-08T18:36:23Z</time>
      </trkpt>
      <trkpt lat="41.0929690" lon="0.6416000">
        <ele>35.2</ele>
        <time>2020-08-08T18:36:24Z</time>
      </trkpt>
      <trkpt lat="41.0929170" lon="0.6415880">
        <ele>35.7</ele>
        <time>2020-08-08T18:36:26Z</time>
      </trkpt>
      <trkpt lat="41.0928870" lon="0.6415700">
        <ele>36.0</ele>
        <time>2020-08-08T18:36:27Z</time>
      </trkpt>
      <trkpt lat="41.0928770" lon="0.6415640">
        <ele>36.1</ele>
        <time>2020-08-08T18:36:28Z</time>
      </trkpt>
      <trkpt lat="41.0928450" lon="0.6415550">
        <ele>36.3</ele>
        <time>2020-08-08T18:36:30Z</time>
      </trkpt>
      <trkpt lat="41.0928080" lon="0.6415610">
        <ele>36.7</ele>
        <time>2020-08-08T18:36:32Z</time>
      </trkpt>
      <trkpt lat="41.0927720" lon="0.6415600">
        <ele>37.0</ele>
        <time>2020-08-08T18:36:33Z</time>
      </trkpt>
      <trkpt lat="41.0927590" lon="0.6415580">
        <ele>39.1</ele>
        <time>2020-08-08T18:36:34Z</time>
      </trkpt>
      <trkpt lat="41.0927410" lon="0.6415440">
        <ele>39.2</ele>
        <time>2020-08-08T18:36:35Z</time>
      </trkpt>
      <trkpt lat="41.0927340" lon="0.6415140">
        <ele>39.2</ele>
        <time>2020-08-08T18:36:37Z</time>
      </trkpt>
      <trkpt lat="41.0927300" lon="0.6415030">
        <ele>39.2</ele>
        <time>2020-08-08T18:36:38Z</time>
      </trkpt>
      <trkpt lat="41.0927160" lon="0.6415020">
        <ele>39.2</ele>
        <time>2020-08-08T18:36:40Z</time>
      </trkpt>
      <trkpt lat="41.0927120" lon="0.6415190">
        <ele>39.2</ele>
        <time>2020-08-08T18:36:41Z</time>
      </trkpt>
      <trkpt lat="41.0927150" lon="0.6415430">
        <ele>39.2</ele>
        <time>2020-08-08T18:36:43Z</time>
      </trkpt>
      <trkpt lat="41.0927110" lon="0.6415790">
        <ele>39.3</ele>
        <time>2020-08-08T18:36:45Z</time>
      </trkpt>
      <trkpt lat="41.0927030" lon="0.6415980">
        <ele>39.3</ele>
        <time>2020-08-08T18:36:46Z</time>
      </trkpt>
      <trkpt lat="41.0926920" lon="0.6416160">
        <ele>39.3</ele>
        <time>2020-08-08T18:36:47Z</time>
      </trkpt>
      <trkpt lat="41.0926790" lon="0.6416320">
        <ele>39.3</ele>
        <time>2020-08-08T18:36:48Z</time>
      </trkpt>
      <trkpt lat="41.0926670" lon="0.6416470">
        <ele>39.3</ele>
        <time>2020-08-08T18:36:49Z</time>
      </trkpt>
      <trkpt lat="41.0926570" lon="0.6416630">
        <ele>39.3</ele>
        <time>2020-08-08T18:36:50Z</time>
      </trkpt>
      <trkpt lat="41.0926420" lon="0.6416890">
        <ele>39.4</ele>
        <time>2020-08-08T18:36:52Z</time>
      </trkpt>
      <trkpt lat="41.0926150" lon="0.6417300">
        <ele>39.4</ele>
        <time>2020-08-08T18:36:54Z</time>
      </trkpt>
      <trkpt lat="41.0926050" lon="0.6417400">
        <ele>39.4</ele>
        <time>2020-08-08T18:36:56Z</time>
      </trkpt>
      <trkpt lat="41.0925960" lon="0.6417510">
        <ele>39.4</ele>
        <time>2020-08-08T18:36:57Z</time>
      </trkpt>
      <trkpt lat="41.0925740" lon="0.6417490">
        <ele>39.4</ele>
        <time>2020-08-08T18:36:58Z</time>
      </trkpt>
      <trkpt lat="41.0925610" lon="0.6417450">
        <ele>39.4</ele>
        <time>2020-08-08T18:37:00Z</time>
      </trkpt>
      <trkpt lat="41.0925490" lon="0.6417400">
        <ele>39.4</ele>
        <time>2020-08-08T18:37:01Z</time>
      </trkpt>
      <trkpt lat="41.0925360" lon="0.6417360">
        <ele>39.4</ele>
        <time>2020-08-08T18:37:02Z</time>
      </trkpt>
      <trkpt lat="41.0925240" lon="0.6417320">
        <ele>39.3</ele>
        <time>2020-08-08T18:37:03Z</time>
      </trkpt>
      <trkpt lat="41.0925010" lon="0.6417170">
        <ele>39.3</ele>
        <time>2020-08-08T18:37:05Z</time>
      </trkpt>
      <trkpt lat="41.0924910" lon="0.6417100">
        <ele>39.3</ele>
        <time>2020-08-08T18:37:06Z</time>
      </trkpt>
      <trkpt lat="41.0924630" lon="0.6416920">
        <ele>39.3</ele>
        <time>2020-08-08T18:37:08Z</time>
      </trkpt>
      <trkpt lat="41.0924580" lon="0.6416900">
        <ele>39.2</ele>
        <time>2020-08-08T18:37:09Z</time>
      </trkpt>
      <trkpt lat="41.0924470" lon="0.6416850">
        <ele>39.2</ele>
        <time>2020-08-08T18:37:10Z</time>
      </trkpt>
      <trkpt lat="41.0924380" lon="0.6416820">
        <ele>39.2</ele>
        <time>2020-08-08T18:37:11Z</time>
      </trkpt>
      <trkpt lat="41.0924310" lon="0.6416730">
        <ele>39.2</ele>
        <time>2020-08-08T18:37:12Z</time>
      </trkpt>
      <trkpt lat="41.0924240" lon="0.6416630">
        <ele>39.2</ele>
        <time>2020-08-08T18:37:13Z</time>
      </trkpt>
      <trkpt lat="41.0924180" lon="0.6416550">
        <ele>39.2</ele>
        <time>2020-08-08T18:37:14Z</time>
      </trkpt>
      <trkpt lat="41.0924080" lon="0.6416420">
        <ele>39.1</ele>
        <time>2020-08-08T18:37:16Z</time>
      </trkpt>
      <trkpt lat="41.0924030" lon="0.6416320">
        <ele>39.1</ele>
        <time>2020-08-08T18:37:17Z</time>
      </trkpt>
      <trkpt lat="41.0923950" lon="0.6416180">
        <ele>39.1</ele>
        <time>2020-08-08T18:37:19Z</time>
      </trkpt>
      <trkpt lat="41.0923910" lon="0.6416160">
        <ele>39.1</ele>
        <time>2020-08-08T18:37:21Z</time>
      </trkpt>
      <trkpt lat="41.0923900" lon="0.6416160">
        <ele>39.1</ele>
        <time>2020-08-08T18:37:22Z</time>
      </trkpt>
      <trkpt lat="41.0923890" lon="0.6416170">
        <ele>39.1</ele>
        <time>2020-08-08T18:37:23Z</time>
      </trkpt>
      <trkpt lat="41.0923890" lon="0.6416180">
        <ele>39.1</ele>
        <time>2020-08-08T18:37:24Z</time>
      </trkpt>
      <trkpt lat="41.0923870" lon="0.6416180">
        <ele>39.1</ele>
        <time>2020-08-08T18:37:25Z</time>
      </trkpt>
      <trkpt lat="41.0923850" lon="0.6416200">
        <ele>39.1</ele>
        <time>2020-08-08T18:37:26Z</time>
      </trkpt>
      <trkpt lat="41.0923820" lon="0.6416200">
        <ele>39.1</ele>
        <time>2020-08-08T18:37:28Z</time>
      </trkpt>
      <trkpt lat="41.0923770" lon="0.6416150">
        <ele>39.0</ele>
        <time>2020-08-08T18:37:30Z</time>
      </trkpt>
      <trkpt lat="41.0923740" lon="0.6416120">
        <ele>39.0</ele>
        <time>2020-08-08T18:37:31Z</time>
      </trkpt>
      <trkpt lat="41.0923590" lon="0.6416040">
        <ele>39.0</ele>
        <time>2020-08-08T18:37:53Z</time>
      </trkpt>
      <trkpt lat="41.0923580" lon="0.6415990">
        <ele>39.0</ele>
        <time>2020-08-08T18:37:54Z</time>
      </trkpt>
      <trkpt lat="41.0923610" lon="0.6415890">
        <ele>39.1</ele>
        <time>2020-08-08T18:37:56Z</time>
      </trkpt>
      <trkpt lat="41.0923650" lon="0.6415820">
        <ele>39.2</ele>
        <time>2020-08-08T18:37:57Z</time>
      </trkpt>
      <trkpt lat="41.0923790" lon="0.6415610">
        <ele>39.6</ele>
        <time>2020-08-08T18:37:59Z</time>
      </trkpt>
      <trkpt lat="41.0923860" lon="0.6415490">
        <ele>39.8</ele>
        <time>2020-08-08T18:38:00Z</time>
      </trkpt>
      <trkpt lat="41.0923990" lon="0.6415250">
        <ele>40.1</ele>
        <time>2020-08-08T18:38:02Z</time>
      </trkpt>
      <trkpt lat="41.0924070" lon="0.6414750">
        <ele>40.7</ele>
        <time>2020-08-08T18:38:04Z</time>
      </trkpt>
      <trkpt lat="41.0924170" lon="0.6414330">
        <ele>41.3</ele>
        <time>2020-08-08T18:38:05Z</time>
      </trkpt>
      <trkpt lat="41.0924200" lon="0.6414200">
        <ele>41.5</ele>
        <time>2020-08-08T18:38:06Z</time>
      </trkpt>
      <trkpt lat="41.0924370" lon="0.6413670">
        <ele>42.2</ele>
        <time>2020-08-08T18:38:08Z</time>
      </trkpt>
      <trkpt lat="41.0924660" lon="0.6412510">
        <ele>43.5</ele>
        <time>2020-08-08T18:38:14Z</time>
      </trkpt>
      <trkpt lat="41.0924690" lon="0.6412350">
        <ele>43.5</ele>
        <time>2020-08-08T18:38:15Z</time>
      </trkpt>
      <trkpt lat="41.0924720" lon="0.6412190">
        <ele>43.5</ele>
        <time>2020-08-08T18:38:16Z</time>
      </trkpt>
      <trkpt lat="41.0924590" lon="0.6411780">
        <ele>43.6</ele>
        <time>2020-08-08T18:38:18Z</time>
      </trkpt>
      <trkpt lat="41.0924580" lon="0.6411670">
        <ele>43.6</ele>
        <time>2020-08-08T18:38:19Z</time>
      </trkpt>
      <trkpt lat="41.0924750" lon="0.6411310">
        <ele>43.6</ele>
        <time>2020-08-08T18:38:21Z</time>
      </trkpt>
      <trkpt lat="41.0925150" lon="0.6410910">
        <ele>43.8</ele>
        <time>2020-08-08T18:38:23Z</time>
      </trkpt>
      <trkpt lat="41.0925420" lon="0.6410620">
        <ele>43.9</ele>
        <time>2020-08-08T18:38:24Z</time>
      </trkpt>
      <trkpt lat="41.0925510" lon="0.6410530">
        <ele>43.9</ele>
        <time>2020-08-08T18:38:25Z</time>
      </trkpt>
      <trkpt lat="41.0925730" lon="0.6410310">
        <ele>44.0</ele>
        <time>2020-08-08T18:38:27Z</time>
      </trkpt>
      <trkpt lat="41.0925810" lon="0.6410250">
        <ele>44.0</ele>
        <time>2020-08-08T18:38:28Z</time>
      </trkpt>
      <trkpt lat="41.0925990" lon="0.6410160">
        <ele>44.0</ele>
        <time>2020-08-08T18:38:30Z</time>
      </trkpt>
      <trkpt lat="41.0926050" lon="0.6410150">
        <ele>44.0</ele>
        <time>2020-08-08T18:38:31Z</time>
      </trkpt>
      <trkpt lat="41.0926110" lon="0.6410200">
        <ele>44.0</ele>
        <time>2020-08-08T18:38:33Z</time>
      </trkpt>
      <trkpt lat="41.0926120" lon="0.6410280">
        <ele>44.1</ele>
        <time>2020-08-08T18:38:35Z</time>
      </trkpt>
      <trkpt lat="41.0926240" lon="0.6410500">
        <ele>44.1</ele>
        <time>2020-08-08T18:38:37Z</time>
      </trkpt>
      <trkpt lat="41.0926330" lon="0.6410580">
        <ele>44.1</ele>
        <time>2020-08-08T18:38:38Z</time>
      </trkpt>
      <trkpt lat="41.0926420" lon="0.6410610">
        <ele>44.2</ele>
        <time>2020-08-08T18:38:40Z</time>
      </trkpt>
      <trkpt lat="41.0926430" lon="0.6410570">
        <ele>44.3</ele>
        <time>2020-08-08T18:38:42Z</time>
      </trkpt>
      <trkpt lat="41.0926420" lon="0.6410540">
        <ele>44.3</ele>
        <time>2020-08-08T18:38:43Z</time>
      </trkpt>
      <trkpt lat="41.0926360" lon="0.6410480">
        <ele>44.4</ele>
        <time>2020-08-08T18:38:45Z</time>
      </trkpt>
      <trkpt lat="41.0926330" lon="0.6410450">
        <ele>44.5</ele>
        <time>2020-08-08T18:38:46Z</time>
      </trkpt>
      <trkpt lat="41.0926310" lon="0.6410430">
        <ele>44.5</ele>
        <time>2020-08-08T18:38:47Z</time>
      </trkpt>
      <trkpt lat="41.0926310" lon="0.6410400">
        <ele>44.6</ele>
        <time>2020-08-08T18:38:49Z</time>
      </trkpt>
      <trkpt lat="41.0926320" lon="0.6410400">
        <ele>44.6</ele>
        <time>2020-08-08T18:38:51Z</time>
      </trkpt>
      <trkpt lat="41.0926000" lon="0.6410050">
        <ele>45.2</ele>
        <time>2020-08-08T18:39:18Z</time>
      </trkpt>
      <trkpt lat="41.0925650" lon="0.6409600">
        <ele>46.0</ele>
        <time>2020-08-08T18:39:20Z</time>
      </trkpt>
      <trkpt lat="41.0925470" lon="0.6409220">
        <ele>46.4</ele>
        <time>2020-08-08T18:39:21Z</time>
      </trkpt>
      <trkpt lat="41.0925400" lon="0.6409100">
        <ele>46.6</ele>
        <time>2020-08-08T18:39:22Z</time>
      </trkpt>
      <trkpt lat="41.0925190" lon="0.6408650">
        <ele>47.2</ele>
        <time>2020-08-08T18:39:24Z</time>
      </trkpt>
      <trkpt lat="41.0925100" lon="0.6408270">
        <ele>47.6</ele>
        <time>2020-08-08T18:39:26Z</time>
      </trkpt>
      <trkpt lat="41.0925030" lon="0.6407900">
        <ele>48.0</ele>
        <time>2020-08-08T18:39:28Z</time>
      </trkpt>
      <trkpt lat="41.0925010" lon="0.6407630">
        <ele>48.3</ele>
        <time>2020-08-08T18:39:30Z</time>
      </trkpt>
      <trkpt lat="41.0925020" lon="0.6407510">
        <ele>48.4</ele>
        <time>2020-08-08T18:39:31Z</time>
      </trkpt>
      <trkpt lat="41.0925050" lon="0.6407200">
        <ele>48.7</ele>
        <time>2020-08-08T18:39:33Z</time>
      </trkpt>
      <trkpt lat="41.0925070" lon="0.6407060">
        <ele>48.8</ele>
        <time>2020-08-08T18:39:34Z</time>
      </trkpt>
      <trkpt lat="41.0925090" lon="0.6407020">
        <ele>48.8</ele>
        <time>2020-08-08T18:39:36Z</time>
      </trkpt>
      <trkpt lat="41.0925090" lon="0.6407030">
        <ele>48.7</ele>
        <time>2020-08-08T18:39:37Z</time>
      </trkpt>
      <trkpt lat="41.0925090" lon="0.6407050">
        <ele>48.7</ele>
        <time>2020-08-08T18:39:38Z</time>
      </trkpt>
      <trkpt lat="41.0925070" lon="0.6407050">
        <ele>48.6</ele>
        <time>2020-08-08T18:39:40Z</time>
      </trkpt>
      <trkpt lat="41.0925050" lon="0.6407060">
        <ele>48.6</ele>
        <time>2020-08-08T18:39:42Z</time>
      </trkpt>
      <trkpt lat="41.0925040" lon="0.6407060">
        <ele>48.5</ele>
        <time>2020-08-08T18:39:44Z</time>
      </trkpt>
      <trkpt lat="41.0925040" lon="0.6407070">
        <ele>48.5</ele>
        <time>2020-08-08T18:39:45Z</time>
      </trkpt>
      <trkpt lat="41.0925050" lon="0.6407090">
        <ele>48.4</ele>
        <time>2020-08-08T18:39:46Z</time>
      </trkpt>
      <trkpt lat="41.0924780" lon="0.6407030">
        <ele>48.6</ele>
        <time>2020-08-08T18:40:26Z</time>
      </trkpt>
      <trkpt lat="41.0924680" lon="0.6406870">
        <ele>48.6</ele>
        <time>2020-08-08T18:40:27Z</time>
      </trkpt>
      <trkpt lat="41.0924530" lon="0.6406910">
        <ele>48.5</ele>
        <time>2020-08-08T18:40:29Z</time>
      </trkpt>
      <trkpt lat="41.0924530" lon="0.6407240">
        <ele>48.5</ele>
        <time>2020-08-08T18:40:31Z</time>
      </trkpt>
      <trkpt lat="41.0924540" lon="0.6407390">
        <ele>48.1</ele>
        <time>2020-08-08T18:40:32Z</time>
      </trkpt>
      <trkpt lat="41.0924480" lon="0.6407740">
        <ele>47.9</ele>
        <time>2020-08-08T18:40:34Z</time>
      </trkpt>
      <trkpt lat="41.0924490" lon="0.6408120">
        <ele>47.4</ele>
        <time>2020-08-08T18:40:36Z</time>
      </trkpt>
      <trkpt lat="41.0924520" lon="0.6408330">
        <ele>47.1</ele>
        <time>2020-08-08T18:40:37Z</time>
      </trkpt>
      <trkpt lat="41.0924590" lon="0.6408630">
        <ele>46.6</ele>
        <time>2020-08-08T18:40:39Z</time>
      </trkpt>
      <trkpt lat="41.0924620" lon="0.6408820">
        <ele>46.6</ele>
        <time>2020-08-08T18:40:40Z</time>
      </trkpt>
      <trkpt lat="41.0924490" lon="0.6409230">
        <ele>46.5</ele>
        <time>2020-08-08T18:40:42Z</time>
      </trkpt>
      <trkpt lat="41.0924250" lon="0.6409730">
        <ele>46.0</ele>
        <time>2020-08-08T18:40:44Z</time>
      </trkpt>
      <trkpt lat="41.0924140" lon="0.6409900">
        <ele>46.0</ele>
        <time>2020-08-08T18:40:45Z</time>
      </trkpt>
      <trkpt lat="41.0923810" lon="0.6410030">
        <ele>46.4</ele>
        <time>2020-08-08T18:40:47Z</time>
      </trkpt>
      <trkpt lat="41.0923540" lon="0.6409970">
        <ele>46.7</ele>
        <time>2020-08-08T18:40:49Z</time>
      </trkpt>
      <trkpt lat="41.0923360" lon="0.6409910">
        <ele>46.7</ele>
        <time>2020-08-08T18:40:50Z</time>
      </trkpt>
      <trkpt lat="41.0923130" lon="0.6409760">
        <ele>47.3</ele>
        <time>2020-08-08T18:40:52Z</time>
      </trkpt>
      <trkpt lat="41.0923040" lon="0.6409620">
        <ele>47.2</ele>
        <time>2020-08-08T18:40:53Z</time>
      </trkpt>
      <trkpt lat="41.0922970" lon="0.6409450">
        <ele>47.2</ele>
        <time>2020-08-08T18:40:54Z</time>
      </trkpt>
      <trkpt lat="41.0922900" lon="0.6409260">
        <ele>47.4</ele>
        <time>2020-08-08T18:40:56Z</time>
      </trkpt>
      <trkpt lat="41.0922870" lon="0.6409180">
        <ele>47.6</ele>
        <time>2020-08-08T18:40:57Z</time>
      </trkpt>
      <trkpt lat="41.0922840" lon="0.6409120">
        <ele>47.6</ele>
        <time>2020-08-08T18:40:58Z</time>
      </trkpt>
      <trkpt lat="41.0922860" lon="0.6409360">
        <ele>47.5</ele>
        <time>2020-08-08T18:41:00Z</time>
      </trkpt>
      <trkpt lat="41.0922980" lon="0.6409500">
        <ele>46.9</ele>
        <time>2020-08-08T18:41:01Z</time>
      </trkpt>
      <trkpt lat="41.0923100" lon="0.6409650">
        <ele>46.9</ele>
        <time>2020-08-08T18:41:02Z</time>
      </trkpt>
      <trkpt lat="41.0923390" lon="0.6410070">
        <ele>46.2</ele>
        <time>2020-08-08T18:41:04Z</time>
      </trkpt>
      <trkpt lat="41.0923380" lon="0.6410190">
        <ele>46.1</ele>
        <time>2020-08-08T18:41:05Z</time>
      </trkpt>
      <trkpt lat="41.0923350" lon="0.6410230">
        <ele>46.1</ele>
        <time>2020-08-08T18:41:06Z</time>
      </trkpt>
      <trkpt lat="41.0923230" lon="0.6410220">
        <ele>46.0</ele>
        <time>2020-08-08T18:41:08Z</time>
      </trkpt>
      <trkpt lat="41.0923190" lon="0.6410200">
        <ele>46.4</ele>
        <time>2020-08-08T18:41:09Z</time>
      </trkpt>
      <trkpt lat="41.0923130" lon="0.6410160">
        <ele>46.3</ele>
        <time>2020-08-08T18:41:11Z</time>
      </trkpt>
      <trkpt lat="41.0923140" lon="0.6410130">
        <ele>46.3</ele>
        <time>2020-08-08T18:41:12Z</time>
      </trkpt>
      <trkpt lat="41.0923140" lon="0.6410120">
        <ele>46.2</ele>
        <time>2020-08-08T18:41:13Z</time>
      </trkpt>
      <trkpt lat="41.0923140" lon="0.6410130">
        <ele>46.2</ele>
        <time>2020-08-08T18:41:14Z</time>
      </trkpt>
      <trkpt lat="41.0923140" lon="0.6410140">
        <ele>46.1</ele>
        <time>2020-08-08T18:41:15Z</time>
      </trkpt>
      <trkpt lat="41.0923150" lon="0.6410180">
        <ele>46.1</ele>
        <time>2020-08-08T18:41:16Z</time>
      </trkpt>
      <trkpt lat="41.0923440" lon="0.6410510">
        <ele>45.3</ele>
        <time>2020-08-08T18:41:25Z</time>
      </trkpt>
      <trkpt lat="41.0923520" lon="0.6410500">
        <ele>45.3</ele>
        <time>2020-08-08T18:41:26Z</time>
      </trkpt>
      <trkpt lat="41.0923410" lon="0.6410400">
        <ele>45.2</ele>
        <time>2020-08-08T18:41:27Z</time>
      </trkpt>
      <trkpt lat="41.0923040" lon="0.6409970">
        <ele>45.9</ele>
        <time>2020-08-08T18:41:29Z</time>
      </trkpt>
      <trkpt lat="41.0922800" lon="0.6409680">
        <ele>46.4</ele>
        <time>2020-08-08T18:41:30Z</time>
      </trkpt>
      <trkpt lat="41.0921960" lon="0.6409000">
        <ele>47.2</ele>
        <time>2020-08-08T18:41:32Z</time>
      </trkpt>
      <trkpt lat="41.0921230" lon="0.6408680">
        <ele>48.0</ele>
        <time>2020-08-08T18:41:34Z</time>
      </trkpt>
      <trkpt lat="41.0920730" lon="0.6408570">
        <ele>48.1</ele>
        <time>2020-08-08T18:41:36Z</time>
      </trkpt>
      <trkpt lat="41.0920680" lon="0.6408690">
        <ele>48.0</ele>
        <time>2020-08-08T18:41:37Z</time>
      </trkpt>
      <trkpt lat="41.0920770" lon="0.6408810">
        <ele>47.9</ele>
        <time>2020-08-08T18:41:38Z</time>
      </trkpt>
      <trkpt lat="41.0920850" lon="0.6408930">
        <ele>47.7</ele>
        <time>2020-08-08T18:41:39Z</time>
      </trkpt>
      <trkpt lat="41.0920940" lon="0.6409050">
        <ele>47.6</ele>
        <time>2020-08-08T18:41:40Z</time>
      </trkpt>
      <trkpt lat="41.0921600" lon="0.6409660">
        <ele>46.8</ele>
        <time>2020-08-08T18:41:42Z</time>
      </trkpt>
      <trkpt lat="41.0922230" lon="0.6410180">
        <ele>46.0</ele>
        <time>2020-08-08T18:41:44Z</time>
      </trkpt>
      <trkpt lat="41.0922520" lon="0.6410380">
        <ele>45.7</ele>
        <time>2020-08-08T18:41:45Z</time>
      </trkpt>
      <trkpt lat="41.0923070" lon="0.6410680">
        <ele>45.1</ele>
        <time>2020-08-08T18:41:47Z</time>
      </trkpt>
      <trkpt lat="41.0923480" lon="0.6410960">
        <ele>44.7</ele>
        <time>2020-08-08T18:41:49Z</time>
      </trkpt>
      <trkpt lat="41.0923840" lon="0.6411290">
        <ele>44.3</ele>
        <time>2020-08-08T18:41:51Z</time>
      </trkpt>
      <trkpt lat="41.0924070" lon="0.6411520">
        <ele>44.1</ele>
        <time>2020-08-08T18:41:52Z</time>
      </trkpt>
      <trkpt lat="41.0924400" lon="0.6411790">
        <ele>43.7</ele>
        <time>2020-08-08T18:41:54Z</time>
      </trkpt>
      <trkpt lat="41.0924570" lon="0.6411940">
        <ele>43.6</ele>
        <time>2020-08-08T18:41:55Z</time>
      </trkpt>
      <trkpt lat="41.0924860" lon="0.6412230">
        <ele>43.5</ele>
        <time>2020-08-08T18:41:57Z</time>
      </trkpt>
      <trkpt lat="41.0925130" lon="0.6412570">
        <ele>43.0</ele>
        <time>2020-08-08T18:41:58Z</time>
      </trkpt>
      <trkpt lat="41.0925200" lon="0.6412710">
        <ele>42.8</ele>
        <time>2020-08-08T18:41:59Z</time>
      </trkpt>
      <trkpt lat="41.0925270" lon="0.6412960">
        <ele>42.6</ele>
        <time>2020-08-08T18:42:00Z</time>
      </trkpt>
      <trkpt lat="41.0925220" lon="0.6413600">
        <ele>42.0</ele>
        <time>2020-08-08T18:42:02Z</time>
      </trkpt>
      <trkpt lat="41.0925140" lon="0.6413870">
        <ele>41.7</ele>
        <time>2020-08-08T18:42:03Z</time>
      </trkpt>
      <trkpt lat="41.0924920" lon="0.6414390">
        <ele>41.1</ele>
        <time>2020-08-08T18:42:05Z</time>
      </trkpt>
      <trkpt lat="41.0924580" lon="0.6414940">
        <ele>40.4</ele>
        <time>2020-08-08T18:42:07Z</time>
      </trkpt>
      <trkpt lat="41.0924380" lon="0.6415240">
        <ele>40.0</ele>
        <time>2020-08-08T18:42:08Z</time>
      </trkpt>
      <trkpt lat="41.0924200" lon="0.6415550">
        <ele>39.7</ele>
        <time>2020-08-08T18:42:09Z</time>
      </trkpt>
      <trkpt lat="41.0924010" lon="0.6415840">
        <ele>39.3</ele>
        <time>2020-08-08T18:42:10Z</time>
      </trkpt>
      <trkpt lat="41.0923840" lon="0.6416100">
        <ele>39.0</ele>
        <time>2020-08-08T18:42:11Z</time>
      </trkpt>
      <trkpt lat="41.0923520" lon="0.6416610">
        <ele>39.0</ele>
        <time>2020-08-08T18:42:13Z</time>
      </trkpt>
      <trkpt lat="41.0923250" lon="0.6417180">
        <ele>38.9</ele>
        <time>2020-08-08T18:42:15Z</time>
      </trkpt>
      <trkpt lat="41.0923130" lon="0.6417520">
        <ele>38.8</ele>
        <time>2020-08-08T18:42:16Z</time>
      </trkpt>
      <trkpt lat="41.0922950" lon="0.6418070">
        <ele>38.7</ele>
        <time>2020-08-08T18:42:18Z</time>
      </trkpt>
      <trkpt lat="41.0922840" lon="0.6418500">
        <ele>38.5</ele>
        <time>2020-08-08T18:42:19Z</time>
      </trkpt>
      <trkpt lat="41.0922790" lon="0.6418620">
        <ele>38.5</ele>
        <time>2020-08-08T18:42:20Z</time>
      </trkpt>
      <trkpt lat="41.0922590" lon="0.6418880">
        <ele>38.4</ele>
        <time>2020-08-08T18:42:21Z</time>
      </trkpt>
      <trkpt lat="41.0922330" lon="0.6419020">
        <ele>39.0</ele>
        <time>2020-08-08T18:42:22Z</time>
      </trkpt>
      <trkpt lat="41.0922050" lon="0.6419110">
        <ele>40.1</ele>
        <time>2020-08-08T18:42:23Z</time>
      </trkpt>
      <trkpt lat="41.0921450" lon="0.6419170">
        <ele>42.4</ele>
        <time>2020-08-08T18:42:25Z</time>
      </trkpt>
      <trkpt lat="41.0921100" lon="0.6419230">
        <ele>44.6</ele>
        <time>2020-08-08T18:42:27Z</time>
      </trkpt>
      <trkpt lat="41.0920900" lon="0.6419320">
        <ele>44.7</ele>
        <time>2020-08-08T18:42:29Z</time>
      </trkpt>
      <trkpt lat="41.0920820" lon="0.6419360">
        <ele>44.7</ele>
        <time>2020-08-08T18:42:30Z</time>
      </trkpt>
      <trkpt lat="41.0920490" lon="0.6419300">
        <ele>44.8</ele>
        <time>2020-08-08T18:42:32Z</time>
      </trkpt>
      <trkpt lat="41.0920390" lon="0.6419250">
        <ele>44.9</ele>
        <time>2020-08-08T18:42:33Z</time>
      </trkpt>
      <trkpt lat="41.0919810" lon="0.6418800">
        <ele>45.2</ele>
        <time>2020-08-08T18:42:35Z</time>
      </trkpt>
      <trkpt lat="41.0919460" lon="0.6418500">
        <ele>45.4</ele>
        <time>2020-08-08T18:42:36Z</time>
      </trkpt>
      <trkpt lat="41.0918900" lon="0.6418070">
        <ele>45.6</ele>
        <time>2020-08-08T18:42:38Z</time>
      </trkpt>
      <trkpt lat="41.0918800" lon="0.6417910">
        <ele>45.7</ele>
        <time>2020-08-08T18:42:39Z</time>
      </trkpt>
      <trkpt lat="41.0918760" lon="0.6417830">
        <ele>45.7</ele>
        <time>2020-08-08T18:42:40Z</time>
      </trkpt>
      <trkpt lat="41.0918820" lon="0.6417550">
        <ele>45.8</ele>
        <time>2020-08-08T18:42:42Z</time>
      </trkpt>
      <trkpt lat="41.0919060" lon="0.6417370">
        <ele>45.9</ele>
        <time>2020-08-08T18:42:44Z</time>
      </trkpt>
      <trkpt lat="41.0919240" lon="0.6417280">
        <ele>46.0</ele>
        <time>2020-08-08T18:42:46Z</time>
      </trkpt>
      <trkpt lat="41.0919320" lon="0.6417270">
        <ele>46.0</ele>
        <time>2020-08-08T18:42:47Z</time>
      </trkpt>
      <trkpt lat="41.0919400" lon="0.6417270">
        <ele>46.1</ele>
        <time>2020-08-08T18:42:48Z</time>
      </trkpt>
      <trkpt lat="41.0919480" lon="0.6417280">
        <ele>46.1</ele>
        <time>2020-08-08T18:42:50Z</time>
      </trkpt>
      <trkpt lat="41.0919490" lon="0.6417300">
        <ele>46.1</ele>
        <time>2020-08-08T18:42:51Z</time>
      </trkpt>
      <trkpt lat="41.0919480" lon="0.6417330">
        <ele>46.1</ele>
        <time>2020-08-08T18:42:53Z</time>
      </trkpt>
      <trkpt lat="41.0919450" lon="0.6417350">
        <ele>46.1</ele>
        <time>2020-08-08T18:42:55Z</time>
      </trkpt>
      <trkpt lat="41.0918710" lon="0.6417500">
        <ele>46.4</ele>
        <time>2020-08-08T18:42:58Z</time>
      </trkpt>
      <trkpt lat="41.0917170" lon="0.6417810">
        <ele>48.7</ele>
        <time>2020-08-08T18:43:02Z</time>
      </trkpt>
      <trkpt lat="41.0916940" lon="0.6417860">
        <ele>48.8</ele>
        <time>2020-08-08T18:43:03Z</time>
      </trkpt>
      <trkpt lat="41.0916840" lon="0.6417880">
        <ele>48.9</ele>
        <time>2020-08-08T18:43:04Z</time>
      </trkpt>
      <trkpt lat="41.0916850" lon="0.6417880">
        <ele>48.9</ele>
        <time>2020-08-08T18:43:05Z</time>
      </trkpt>
      <trkpt lat="41.0916960" lon="0.6417860">
        <ele>49.0</ele>
        <time>2020-08-08T18:43:07Z</time>
      </trkpt>
      <trkpt lat="41.0917040" lon="0.6417820">
        <ele>49.0</ele>
        <time>2020-08-08T18:43:09Z</time>
      </trkpt>
      <trkpt lat="41.0917060" lon="0.6417810">
        <ele>49.0</ele>
        <time>2020-08-08T18:43:10Z</time>
      </trkpt>
      <trkpt lat="41.0917060" lon="0.6417800">
        <ele>49.0</ele>
        <time>2020-08-08T18:43:12Z</time>
      </trkpt>
      <trkpt lat="41.0917060" lon="0.6417800">
        <ele>49.0</ele>
        <time>2020-08-08T18:43:13Z</time>
      </trkpt>
      <trkpt lat="41.0917060" lon="0.6417800">
        <ele>49.0</ele>
        <time>2020-08-08T18:43:14Z</time>
      </trkpt>
      <trkpt lat="41.0917060" lon="0.6417790">
        <ele>49.1</ele>
        <time>2020-08-08T18:43:15Z</time>
      </trkpt>
      <trkpt lat="41.0916850" lon="0.6417350">
        <ele>49.3</ele>
        <time>2020-08-08T18:43:33Z</time>
      </trkpt>
      <trkpt lat="41.0916800" lon="0.6417270">
        <ele>49.3</ele>
        <time>2020-08-08T18:43:34Z</time>
      </trkpt>
      <trkpt lat="41.0916790" lon="0.6417230">
        <ele>49.4</ele>
        <time>2020-08-08T18:43:35Z</time>
      </trkpt>
      <trkpt lat="41.0916790" lon="0.6417200">
        <ele>49.4</ele>
        <time>2020-08-08T18:43:36Z</time>
      </trkpt>
      <trkpt lat="41.0916800" lon="0.6417110">
        <ele>49.4</ele>
        <time>2020-08-08T18:43:38Z</time>
      </trkpt>
      <trkpt lat="41.0916820" lon="0.6417080">
        <ele>49.4</ele>
        <time>2020-08-08T18:43:39Z</time>
      </trkpt>
      <trkpt lat="41.0916800" lon="0.6416960">
        <ele>49.5</ele>
        <time>2020-08-08T18:43:41Z</time>
      </trkpt>
      <trkpt lat="41.0916870" lon="0.6416990">
        <ele>49.5</ele>
        <time>2020-08-08T18:43:43Z</time>
      </trkpt>
      <trkpt lat="41.0916930" lon="0.6416910">
        <ele>49.6</ele>
        <time>2020-08-08T18:43:45Z</time>
      </trkpt>
      <trkpt lat="41.0916930" lon="0.6416890">
        <ele>49.6</ele>
        <time>2020-08-08T18:43:46Z</time>
      </trkpt>
      <trkpt lat="41.0916920" lon="0.6416960">
        <ele>49.6</ele>
        <time>2020-08-08T18:43:47Z</time>
      </trkpt>
      <trkpt lat="41.0916900" lon="0.6417010">
        <ele>49.6</ele>
        <time>2020-08-08T18:43:49Z</time>
      </trkpt>
      <trkpt lat="41.0916890" lon="0.6417060">
        <ele>49.7</ele>
        <time>2020-08-08T18:43:51Z</time>
      </trkpt>
      <trkpt lat="41.0916890" lon="0.6417070">
        <ele>49.7</ele>
        <time>2020-08-08T18:43:52Z</time>
      </trkpt>
      <trkpt lat="41.0916880" lon="0.6417090">
        <ele>49.7</ele>
        <time>2020-08-08T18:43:53Z</time>
      </trkpt>
      <trkpt lat="41.0916880" lon="0.6417100">
        <ele>49.7</ele>
        <time>2020-08-08T18:43:54Z</time>
      </trkpt>
      <trkpt lat="41.0916880" lon="0.6417110">
        <ele>49.7</ele>
        <time>2020-08-08T18:43:55Z</time>
      </trkpt>
      <trkpt lat="41.0916870" lon="0.6417130">
        <ele>49.7</ele>
        <time>2020-08-08T18:43:57Z</time>
      </trkpt>
      <trkpt lat="41.0916320" lon="0.6416770">
        <ele>50.1</ele>
        <time>2020-08-08T18:44:09Z</time>
      </trkpt>
      <trkpt lat="41.0916220" lon="0.6416560">
        <ele>50.2</ele>
        <time>2020-08-08T18:44:11Z</time>
      </trkpt>
      <trkpt lat="41.0916520" lon="0.6416650">
        <ele>50.4</ele>
        <time>2020-08-08T18:44:12Z</time>
      </trkpt>
      <trkpt lat="41.0916810" lon="0.6416610">
        <ele>50.5</ele>
        <time>2020-08-08T18:44:14Z</time>
      </trkpt>
      <trkpt lat="41.0916840" lon="0.6416470">
        <ele>50.6</ele>
        <time>2020-08-08T18:44:15Z</time>
      </trkpt>
      <trkpt lat="41.0916740" lon="0.6416250">
        <ele>50.7</ele>
        <time>2020-08-08T18:44:16Z</time>
      </trkpt>
      <trkpt lat="41.0916480" lon="0.6416100">
        <ele>50.9</ele>
        <time>2020-08-08T18:44:18Z</time>
      </trkpt>
      <trkpt lat="41.0916210" lon="0.6415930">
        <ele>51.1</ele>
        <time>2020-08-08T18:44:20Z</time>
      </trkpt>
      <trkpt lat="41.0916010" lon="0.6415830">
        <ele>50.6</ele>
        <time>2020-08-08T18:44:22Z</time>
      </trkpt>
      <trkpt lat="41.0915950" lon="0.6415810">
        <ele>50.4</ele>
        <time>2020-08-08T18:44:23Z</time>
      </trkpt>
      <trkpt lat="41.0915650" lon="0.6415340">
        <ele>48.9</ele>
        <time>2020-08-08T18:44:25Z</time>
      </trkpt>
      <trkpt lat="41.0915460" lon="0.6414980">
        <ele>47.9</ele>
        <time>2020-08-08T18:44:26Z</time>
      </trkpt>
      <trkpt lat="41.0915250" lon="0.6414610">
        <ele>46.7</ele>
        <time>2020-08-08T18:44:27Z</time>
      </trkpt>
      <trkpt lat="41.0915070" lon="0.6414380">
        <ele>45.8</ele>
        <time>2020-08-08T18:44:28Z</time>
      </trkpt>
      <trkpt lat="41.0914970" lon="0.6414300">
        <ele>45.4</ele>
        <time>2020-08-08T18:44:29Z</time>
      </trkpt>
      <trkpt lat="41.0914900" lon="0.6414360">
        <ele>45.1</ele>
        <time>2020-08-08T18:44:31Z</time>
      </trkpt>
      <trkpt lat="41.0914890" lon="0.6414420">
        <ele>44.9</ele>
        <time>2020-08-08T18:44:32Z</time>
      </trkpt>
      <trkpt lat="41.0914880" lon="0.6414460">
        <ele>44.8</ele>
        <time>2020-08-08T18:44:33Z</time>
      </trkpt>
      <trkpt lat="41.0914870" lon="0.6414490">
        <ele>44.7</ele>
        <time>2020-08-08T18:44:34Z</time>
      </trkpt>
      <trkpt lat="41.0914850" lon="0.6414510">
        <ele>44.6</ele>
        <time>2020-08-08T18:44:36Z</time>
      </trkpt>
      <trkpt lat="41.0914850" lon="0.6414510">
        <ele>44.6</ele>
        <time>2020-08-08T18:44:37Z</time>
      </trkpt>
      <trkpt lat="41.0914840" lon="0.6414510">
        <ele>44.6</ele>
        <time>2020-08-08T18:44:38Z</time>
      </trkpt>
      <trkpt lat="41.0914750" lon="0.6414370">
        <ele>44.1</ele>
        <time>2020-08-08T18:44:40Z</time>
      </trkpt>
      <trkpt lat="41.0914450" lon="0.6414260">
        <ele>44.1</ele>
        <time>2020-08-08T18:44:42Z</time>
      </trkpt>
      <trkpt lat="41.0914160" lon="0.6414250">
        <ele>44.1</ele>
        <time>2020-08-08T18:44:43Z</time>
      </trkpt>
      <trkpt lat="41.0914070" lon="0.6414240">
        <ele>44.0</ele>
        <time>2020-08-08T18:44:44Z</time>
      </trkpt>
      <trkpt lat="41.0913920" lon="0.6414200">
        <ele>44.0</ele>
        <time>2020-08-08T18:44:45Z</time>
      </trkpt>
      <trkpt lat="41.0913760" lon="0.6414160">
        <ele>44.0</ele>
        <time>2020-08-08T18:44:46Z</time>
      </trkpt>
      <trkpt lat="41.0913430" lon="0.6414150">
        <ele>44.0</ele>
        <time>2020-08-08T18:44:48Z</time>
      </trkpt>
      <trkpt lat="41.0913210" lon="0.6414150">
        <ele>43.9</ele>
        <time>2020-08-08T18:44:50Z</time>
      </trkpt>
      <trkpt lat="41.0913150" lon="0.6414140">
        <ele>43.9</ele>
        <time>2020-08-08T18:44:52Z</time>
      </trkpt>
      <trkpt lat="41.0913120" lon="0.6414110">
        <ele>43.9</ele>
        <time>2020-08-08T18:44:53Z</time>
      </trkpt>
      <trkpt lat="41.0913080" lon="0.6414100">
        <ele>43.9</ele>
        <time>2020-08-08T18:44:54Z</time>
      </trkpt>
      <trkpt lat="41.0913020" lon="0.6414140">
        <ele>43.9</ele>
        <time>2020-08-08T18:44:56Z</time>
      </trkpt>
      <trkpt lat="41.0912990" lon="0.6414360">
        <ele>43.9</ele>
        <time>2020-08-08T18:44:58Z</time>
      </trkpt>
      <trkpt lat="41.0912970" lon="0.6414410">
        <ele>43.9</ele>
        <time>2020-08-08T18:44:59Z</time>
      </trkpt>
      <trkpt lat="41.0912810" lon="0.6414400">
        <ele>43.9</ele>
        <time>2020-08-08T18:45:00Z</time>
      </trkpt>
      <trkpt lat="41.0912700" lon="0.6414370">
        <ele>43.9</ele>
        <time>2020-08-08T18:45:02Z</time>
      </trkpt>
      <trkpt lat="41.0912580" lon="0.6414340">
        <ele>43.9</ele>
        <time>2020-08-08T18:45:03Z</time>
      </trkpt>
      <trkpt lat="41.0912410" lon="0.6414300">
        <ele>43.9</ele>
        <time>2020-08-08T18:45:05Z</time>
      </trkpt>
      <trkpt lat="41.0912340" lon="0.6414320">
        <ele>43.9</ele>
        <time>2020-08-08T18:45:06Z</time>
      </trkpt>
      <trkpt lat="41.0912270" lon="0.6414340">
        <ele>43.9</ele>
        <time>2020-08-08T18:45:07Z</time>
      </trkpt>
      <trkpt lat="41.0912130" lon="0.6414370">
        <ele>43.8</ele>
        <time>2020-08-08T18:45:09Z</time>
      </trkpt>
      <trkpt lat="41.0912010" lon="0.6414360">
        <ele>43.8</ele>
        <time>2020-08-08T18:45:10Z</time>
      </trkpt>
      <trkpt lat="41.0911720" lon="0.6414350">
        <ele>43.8</ele>
        <time>2020-08-08T18:45:12Z</time>
      </trkpt>
      <trkpt lat="41.0911590" lon="0.6414360">
        <ele>43.8</ele>
        <time>2020-08-08T18:45:13Z</time>
      </trkpt>
      <trkpt lat="41.0911470" lon="0.6414360">
        <ele>43.8</ele>
        <time>2020-08-08T18:45:14Z</time>
      </trkpt>
      <trkpt lat="41.0911300" lon="0.6414290">
        <ele>43.8</ele>
        <time>2020-08-08T18:45:16Z</time>
      </trkpt>
      <trkpt lat="41.0911230" lon="0.6414190">
        <ele>43.8</ele>
        <time>2020-08-08T18:45:18Z</time>
      </trkpt>
      <trkpt lat="41.0911210" lon="0.6414130">
        <ele>43.7</ele>
        <time>2020-08-08T18:45:19Z</time>
      </trkpt>
      <trkpt lat="41.0911210" lon="0.6414080">
        <ele>43.7</ele>
        <time>2020-08-08T18:45:20Z</time>
      </trkpt>
      <trkpt lat="41.0911180" lon="0.6414010">
        <ele>43.7</ele>
        <time>2020-08-08T18:45:21Z</time>
      </trkpt>
      <trkpt lat="41.0911030" lon="0.6413870">
        <ele>43.7</ele>
        <time>2020-08-08T18:45:23Z</time>
      </trkpt>
      <trkpt lat="41.0910920" lon="0.6413800">
        <ele>43.7</ele>
        <time>2020-08-08T18:45:25Z</time>
      </trkpt>
      <trkpt lat="41.0910970" lon="0.6413810">
        <ele>43.7</ele>
        <time>2020-08-08T18:45:27Z</time>
      </trkpt>
      <trkpt lat="41.0911030" lon="0.6413810">
        <ele>43.7</ele>
        <time>2020-08-08T18:45:29Z</time>
      </trkpt>
      <trkpt lat="41.0911090" lon="0.6413810">
        <ele>43.7</ele>
        <time>2020-08-08T18:45:30Z</time>
      </trkpt>
      <trkpt lat="41.0911140" lon="0.6413820">
        <ele>43.7</ele>
        <time>2020-08-08T18:45:32Z</time>
      </trkpt>
      <trkpt lat="41.0911200" lon="0.6413820">
        <ele>43.7</ele>
        <time>2020-08-08T18:45:33Z</time>
      </trkpt>
      <trkpt lat="41.0911260" lon="0.6413820">
        <ele>43.7</ele>
        <time>2020-08-08T18:45:35Z</time>
      </trkpt>
      <trkpt lat="41.0911310" lon="0.6413830">
        <ele>43.7</ele>
        <time>2020-08-08T18:45:37Z</time>
      </trkpt>
      <trkpt lat="41.0911370" lon="0.6413830">
        <ele>43.7</ele>
        <time>2020-08-08T18:45:39Z</time>
      </trkpt>
      <trkpt lat="41.0911430" lon="0.6413830">
        <ele>43.6</ele>
        <time>2020-08-08T18:45:40Z</time>
      </trkpt>
      <trkpt lat="41.0911480" lon="0.6413840">
        <ele>43.6</ele>
        <time>2020-08-08T18:45:41Z</time>
      </trkpt>
      <trkpt lat="41.0911540" lon="0.6413840">
        <ele>43.6</ele>
        <time>2020-08-08T18:45:43Z</time>
      </trkpt>
      <trkpt lat="41.0911600" lon="0.6413840">
        <ele>43.6</ele>
        <time>2020-08-08T18:48:31Z</time>
      </trkpt>
      <trkpt lat="41.0911650" lon="0.6413850">
        <ele>43.6</ele>
        <time>2020-08-08T18:48:32Z</time>
      </trkpt>
      <trkpt lat="41.0911710" lon="0.6413850">
        <ele>43.6</ele>
        <time>2020-08-08T18:48:33Z</time>
      </trkpt>
      <trkpt lat="41.0911960" lon="0.6413870">
        <ele>43.6</ele>
        <time>2020-08-08T18:48:34Z</time>
      </trkpt>
      <trkpt lat="41.0912460" lon="0.6414000">
        <ele>43.7</ele>
        <time>2020-08-08T18:48:36Z</time>
      </trkpt>
      <trkpt lat="41.0912840" lon="0.6414250">
        <ele>43.8</ele>
        <time>2020-08-08T18:48:38Z</time>
      </trkpt>
      <trkpt lat="41.0913020" lon="0.6414350">
        <ele>43.9</ele>
        <time>2020-08-08T18:48:39Z</time>
      </trkpt>
      <trkpt lat="41.0913430" lon="0.6414500">
        <ele>44.0</ele>
        <time>2020-08-08T18:48:41Z</time>
      </trkpt>
      <trkpt lat="41.0913700" lon="0.6414560">
        <ele>44.0</ele>
        <time>2020-08-08T18:48:42Z</time>
      </trkpt>
      <trkpt lat="41.0913230" lon="0.6414250">
        <ele>44.0</ele>
        <time>2020-08-08T18:48:43Z</time>
      </trkpt>
      <trkpt lat="41.0912940" lon="0.6413870">
        <ele>44.0</ele>
        <time>2020-08-08T18:48:45Z</time>
      </trkpt>
      <trkpt lat="41.0913050" lon="0.6413850">
        <ele>44.0</ele>
        <time>2020-08-08T18:48:47Z</time>
      </trkpt>
      <trkpt lat="41.0913140" lon="0.6413920">
        <ele>44.0</ele>
        <time>2020-08-08T18:48:48Z</time>
      </trkpt>
      <trkpt lat="41.0913230" lon="0.6413990">
        <ele>44.0</ele>
        <time>2020-08-08T18:48:49Z</time>
      </trkpt>
      <trkpt lat="41.0913320" lon="0.6414060">
        <ele>44.0</ele>
        <time>2020-08-08T18:48:50Z</time>
      </trkpt>
      <trkpt lat="41.0913630" lon="0.6414270">
        <ele>44.1</ele>
        <time>2020-08-08T18:48:52Z</time>
      </trkpt>
      <trkpt lat="41.0913710" lon="0.6414330">
        <ele>44.1</ele>
        <time>2020-08-08T18:48:53Z</time>
      </trkpt>
      <trkpt lat="41.0913910" lon="0.6414520">
        <ele>44.1</ele>
        <time>2020-08-08T18:48:54Z</time>
      </trkpt>
      <trkpt lat="41.0914220" lon="0.6414910">
        <ele>44.1</ele>
        <time>2020-08-08T18:48:56Z</time>
      </trkpt>
      <trkpt lat="41.0914260" lon="0.6415160">
        <ele>44.1</ele>
        <time>2020-08-08T18:48:57Z</time>
      </trkpt>
      <trkpt lat="41.0914390" lon="0.6415610">
        <ele>45.5</ele>
        <time>2020-08-08T18:48:59Z</time>
      </trkpt>
      <trkpt lat="41.0914690" lon="0.6416150">
        <ele>47.4</ele>
        <time>2020-08-08T18:49:01Z</time>
      </trkpt>
      <trkpt lat="41.0915010" lon="0.6416430">
        <ele>48.8</ele>
        <time>2020-08-08T18:49:03Z</time>
      </trkpt>
      <trkpt lat="41.0915170" lon="0.6416560">
        <ele>49.4</ele>
        <time>2020-08-08T18:49:04Z</time>
      </trkpt>
      <trkpt lat="41.0915490" lon="0.6416760">
        <ele>50.7</ele>
        <time>2020-08-08T18:49:06Z</time>
      </trkpt>
      <trkpt lat="41.0915850" lon="0.6416870">
        <ele>51.1</ele>
        <time>2020-08-08T18:49:08Z</time>
      </trkpt>
      <trkpt lat="41.0916330" lon="0.6416880">
        <ele>50.4</ele>
        <time>2020-08-08T18:49:10Z</time>
      </trkpt>
      <trkpt lat="41.0916480" lon="0.6416870">
        <ele>50.2</ele>
        <time>2020-08-08T18:49:12Z</time>
      </trkpt>
      <trkpt lat="41.0916620" lon="0.6416850">
        <ele>50.0</ele>
        <time>2020-08-08T18:49:13Z</time>
      </trkpt>
      <trkpt lat="41.0916820" lon="0.6416730">
        <ele>49.7</ele>
        <time>2020-08-08T18:49:14Z</time>
      </trkpt>
      <trkpt lat="41.0916940" lon="0.6416720">
        <ele>49.5</ele>
        <time>2020-08-08T18:49:15Z</time>
      </trkpt>
      <trkpt lat="41.0917150" lon="0.6416730">
        <ele>49.2</ele>
        <time>2020-08-08T18:49:16Z</time>
      </trkpt>
      <trkpt lat="41.0917690" lon="0.6416900">
        <ele>48.4</ele>
        <time>2020-08-08T18:49:18Z</time>
      </trkpt>
      <trkpt lat="41.0917800" lon="0.6416950">
        <ele>48.2</ele>
        <time>2020-08-08T18:49:19Z</time>
      </trkpt>
      <trkpt lat="41.0917910" lon="0.6417010">
        <ele>48.0</ele>
        <time>2020-08-08T18:49:20Z</time>
      </trkpt>
      <trkpt lat="41.0918070" lon="0.6417110">
        <ele>47.7</ele>
        <time>2020-08-08T18:49:22Z</time>
      </trkpt>
      <trkpt lat="41.0918290" lon="0.6417310">
        <ele>47.3</ele>
        <time>2020-08-08T18:49:23Z</time>
      </trkpt>
      <trkpt lat="41.0918360" lon="0.6417400">
        <ele>47.1</ele>
        <time>2020-08-08T18:49:24Z</time>
      </trkpt>
      <trkpt lat="41.0918550" lon="0.6417740">
        <ele>46.6</ele>
        <time>2020-08-08T18:49:25Z</time>
      </trkpt>
      <trkpt lat="41.0918730" lon="0.6418140">
        <ele>46.3</ele>
        <time>2020-08-08T18:49:27Z</time>
      </trkpt>
      <trkpt lat="41.0918900" lon="0.6418460">
        <ele>46.1</ele>
        <time>2020-08-08T18:49:28Z</time>
      </trkpt>
      <trkpt lat="41.0919110" lon="0.6418830">
        <ele>45.9</ele>
        <time>2020-08-08T18:49:29Z</time>
      </trkpt>
      <trkpt lat="41.0919180" lon="0.6418970">
        <ele>45.8</ele>
        <time>2020-08-08T18:49:30Z</time>
      </trkpt>
      <trkpt lat="41.0919510" lon="0.6419420">
        <ele>45.5</ele>
        <time>2020-08-08T18:49:32Z</time>
      </trkpt>
      <trkpt lat="41.0919640" lon="0.6419550">
        <ele>45.4</ele>
        <time>2020-08-08T18:49:33Z</time>
      </trkpt>
      <trkpt lat="41.0919770" lon="0.6419680">
        <ele>45.3</ele>
        <time>2020-08-08T18:49:34Z</time>
      </trkpt>
      <trkpt lat="41.0920000" lon="0.6419830">
        <ele>45.1</ele>
        <time>2020-08-08T18:49:35Z</time>
      </trkpt>
      <trkpt lat="41.0920480" lon="0.6419790">
        <ele>44.7</ele>
        <time>2020-08-08T18:49:37Z</time>
      </trkpt>
      <trkpt lat="41.0920810" lon="0.6419680">
        <ele>44.4</ele>
        <time>2020-08-08T18:49:38Z</time>
      </trkpt>
      <trkpt lat="41.0920930" lon="0.6419650">
        <ele>44.4</ele>
        <time>2020-08-08T18:49:39Z</time>
      </trkpt>
      <trkpt lat="41.0921330" lon="0.6419630">
        <ele>44.2</ele>
        <time>2020-08-08T18:49:41Z</time>
      </trkpt>
      <trkpt lat="41.0921630" lon="0.6419720">
        <ele>44.1</ele>
        <time>2020-08-08T18:49:42Z</time>
      </trkpt>
      <trkpt lat="41.0922260" lon="0.6420240">
        <ele>43.7</ele>
        <time>2020-08-08T18:49:44Z</time>
      </trkpt>
      <trkpt lat="41.0923250" lon="0.6421340">
        <ele>42.8</ele>
        <time>2020-08-08T18:49:45Z</time>
      </trkpt>
      <trkpt lat="41.0923690" lon="0.6421850">
        <ele>37.1</ele>
        <time>2020-08-08T18:49:46Z</time>
      </trkpt>
      <trkpt lat="41.0924570" lon="0.6422820">
        <ele>34.1</ele>
        <time>2020-08-08T18:49:48Z</time>
      </trkpt>
      <trkpt lat="41.0925090" lon="0.6423250">
        <ele>36.5</ele>
        <time>2020-08-08T18:49:50Z</time>
      </trkpt>
      <trkpt lat="41.0925500" lon="0.6423370">
        <ele>38.2</ele>
        <time>2020-08-08T18:49:52Z</time>
      </trkpt>
      <trkpt lat="41.0925810" lon="0.6423450">
        <ele>36.6</ele>
        <time>2020-08-08T18:49:53Z</time>
      </trkpt>
      <trkpt lat="41.0925900" lon="0.6423490">
        <ele>36.3</ele>
        <time>2020-08-08T18:49:54Z</time>
      </trkpt>
      <trkpt lat="41.0926170" lon="0.6423640">
        <ele>35.5</ele>
        <time>2020-08-08T18:49:55Z</time>
      </trkpt>
      <trkpt lat="41.0926260" lon="0.6423700">
        <ele>35.2</ele>
        <time>2020-08-08T18:49:56Z</time>
      </trkpt>
      <trkpt lat="41.0926420" lon="0.6423800">
        <ele>34.7</ele>
        <time>2020-08-08T18:49:57Z</time>
      </trkpt>
      <trkpt lat="41.0926570" lon="0.6423880">
        <ele>34.2</ele>
        <time>2020-08-08T18:49:58Z</time>
      </trkpt>
      <trkpt lat="41.0926930" lon="0.6423970">
        <ele>33.1</ele>
        <time>2020-08-08T18:50:00Z</time>
      </trkpt>
      <trkpt lat="41.0927030" lon="0.6423960">
        <ele>32.9</ele>
        <time>2020-08-08T18:50:02Z</time>
      </trkpt>
      <trkpt lat="41.0927120" lon="0.6423950">
        <ele>32.6</ele>
        <time>2020-08-08T18:50:03Z</time>
      </trkpt>
      <trkpt lat="41.0927220" lon="0.6423940">
        <ele>32.3</ele>
        <time>2020-08-08T18:50:04Z</time>
      </trkpt>
      <trkpt lat="41.0927340" lon="0.6423830">
        <ele>31.9</ele>
        <time>2020-08-08T18:50:05Z</time>
      </trkpt>
      <trkpt lat="41.0927530" lon="0.6423230">
        <ele>31.8</ele>
        <time>2020-08-08T18:50:07Z</time>
      </trkpt>
      <trkpt lat="41.0927680" lon="0.6422500">
        <ele>31.8</ele>
        <time>2020-08-08T18:50:09Z</time>
      </trkpt>
      <trkpt lat="41.0927780" lon="0.6422100">
        <ele>31.8</ele>
        <time>2020-08-08T18:50:10Z</time>
      </trkpt>
      <trkpt lat="41.0927890" lon="0.6421680">
        <ele>31.8</ele>
        <time>2020-08-08T18:50:11Z</time>
      </trkpt>
      <trkpt lat="41.0928000" lon="0.6421260">
        <ele>31.8</ele>
        <time>2020-08-08T18:50:12Z</time>
      </trkpt>
      <trkpt lat="41.0928190" lon="0.6420830">
        <ele>31.8</ele>
        <time>2020-08-08T18:50:13Z</time>
      </trkpt>
      <trkpt lat="41.0928770" lon="0.6420070">
        <ele>31.8</ele>
        <time>2020-08-08T18:50:15Z</time>
      </trkpt>
      <trkpt lat="41.0929510" lon="0.6419160">
        <ele>31.8</ele>
        <time>2020-08-08T18:50:17Z</time>
      </trkpt>
      <trkpt lat="41.0929840" lon="0.6418750">
        <ele>31.8</ele>
        <time>2020-08-08T18:50:18Z</time>
      </trkpt>
      <trkpt lat="41.0930080" lon="0.6418420">
        <ele>31.8</ele>
        <time>2020-08-08T18:50:19Z</time>
      </trkpt>
      <trkpt lat="41.0930230" lon="0.6418230">
        <ele>31.8</ele>
        <time>2020-08-08T18:50:20Z</time>
      </trkpt>
      <trkpt lat="41.0930370" lon="0.6418160">
        <ele>31.8</ele>
        <time>2020-08-08T18:50:22Z</time>
      </trkpt>
      <trkpt lat="41.0930390" lon="0.6418180">
        <ele>31.8</ele>
        <time>2020-08-08T18:50:23Z</time>
      </trkpt>
      <trkpt lat="41.0930350" lon="0.6418310">
        <ele>31.8</ele>
        <time>2020-08-08T18:50:25Z</time>
      </trkpt>
      <trkpt lat="41.0930310" lon="0.6418350">
        <ele>31.8</ele>
        <time>2020-08-08T18:50:27Z</time>
      </trkpt>
      <trkpt lat="41.0930310" lon="0.6418360">
        <ele>31.8</ele>
        <time>2020-08-08T18:50:28Z</time>
      </trkpt>
      <trkpt lat="41.0930300" lon="0.6418350">
        <ele>31.8</ele>
        <time>2020-08-08T18:50:29Z</time>
      </trkpt>
      <trkpt lat="41.0930290" lon="0.6418320">
        <ele>31.8</ele>
        <time>2020-08-08T18:50:31Z</time>
      </trkpt>
      <trkpt lat="41.0930310" lon="0.6418310">
        <ele>31.8</ele>
        <time>2020-08-08T18:50:33Z</time>
      </trkpt>
      <trkpt lat="41.0930600" lon="0.6417830">
        <ele>31.8</ele>
        <time>2020-08-08T18:51:06Z</time>
      </trkpt>
      <trkpt lat="41.0930730" lon="0.6417780">
        <ele>31.8</ele>
        <time>2020-08-08T18:51:07Z</time>
      </trkpt>
      <trkpt lat="41.0931410" lon="0.6417850">
        <ele>31.7</ele>
        <time>2020-08-08T18:51:14Z</time>
      </trkpt>
      <trkpt lat="41.0931920" lon="0.6418630">
        <ele>31.6</ele>
        <time>2020-08-08T18:51:16Z</time>
      </trkpt>
      <trkpt lat="41.0932100" lon="0.6419020">
        <ele>31.5</ele>
        <time>2020-08-08T18:51:17Z</time>
      </trkpt>
      <trkpt lat="41.0932270" lon="0.6419420">
        <ele>31.5</ele>
        <time>2020-08-08T18:51:18Z</time>
      </trkpt>
      <trkpt lat="41.0932430" lon="0.6419850">
        <ele>31.4</ele>
        <time>2020-08-08T18:51:19Z</time>
      </trkpt>
      <trkpt lat="41.0932570" lon="0.6420250">
        <ele>31.3</ele>
        <time>2020-08-08T18:51:20Z</time>
      </trkpt>
      <trkpt lat="41.0932700" lon="0.6420670">
        <ele>31.2</ele>
        <time>2020-08-08T18:51:21Z</time>
      </trkpt>
      <trkpt lat="41.0932840" lon="0.6421090">
        <ele>31.1</ele>
        <time>2020-08-08T18:51:22Z</time>
      </trkpt>
      <trkpt lat="41.0932950" lon="0.6421490">
        <ele>31.0</ele>
        <time>2020-08-08T18:51:23Z</time>
      </trkpt>
      <trkpt lat="41.0933040" lon="0.6421900">
        <ele>30.9</ele>
        <time>2020-08-08T18:51:24Z</time>
      </trkpt>
      <trkpt lat="41.0933200" lon="0.6422560">
        <ele>30.8</ele>
        <time>2020-08-08T18:51:26Z</time>
      </trkpt>
      <trkpt lat="41.0933420" lon="0.6422770">
        <ele>30.7</ele>
        <time>2020-08-08T18:51:27Z</time>
      </trkpt>
      <trkpt lat="41.0933690" lon="0.6422810">
        <ele>30.7</ele>
        <time>2020-08-08T18:51:28Z</time>
      </trkpt>
      <trkpt lat="41.0934170" lon="0.6422470">
        <ele>30.6</ele>
        <time>2020-08-08T18:51:30Z</time>
      </trkpt>
      <trkpt lat="41.0934730" lon="0.6421880">
        <ele>30.4</ele>
        <time>2020-08-08T18:51:32Z</time>
      </trkpt>
      <trkpt lat="41.0935000" lon="0.6421630">
        <ele>30.3</ele>
        <time>2020-08-08T18:51:33Z</time>
      </trkpt>
      <trkpt lat="41.0935570" lon="0.6421120">
        <ele>30.2</ele>
        <time>2020-08-08T18:51:35Z</time>
      </trkpt>
      <trkpt lat="41.0935870" lon="0.6420880">
        <ele>30.1</ele>
        <time>2020-08-08T18:51:36Z</time>
      </trkpt>
      <trkpt lat="41.0936460" lon="0.6420380">
        <ele>29.9</ele>
        <time>2020-08-08T18:51:38Z</time>
      </trkpt>
      <trkpt lat="41.0936740" lon="0.6420130">
        <ele>29.9</ele>
        <time>2020-08-08T18:51:39Z</time>
      </trkpt>
      <trkpt lat="41.0937020" lon="0.6419880">
        <ele>29.8</ele>
        <time>2020-08-08T18:51:40Z</time>
      </trkpt>
      <trkpt lat="41.0937630" lon="0.6419410">
        <ele>29.7</ele>
        <time>2020-08-08T18:51:42Z</time>
      </trkpt>
      <trkpt lat="41.0937950" lon="0.6419120">
        <ele>29.6</ele>
        <time>2020-08-08T18:51:43Z</time>
      </trkpt>
      <trkpt lat="41.0938260" lon="0.6418820">
        <ele>29.5</ele>
        <time>2020-08-08T18:51:44Z</time>
      </trkpt>
      <trkpt lat="41.0938880" lon="0.6418240">
        <ele>29.4</ele>
        <time>2020-08-08T18:51:46Z</time>
      </trkpt>
      <trkpt lat="41.0939190" lon="0.6417940">
        <ele>29.3</ele>
        <time>2020-08-08T18:51:47Z</time>
      </trkpt>
      <trkpt lat="41.0939530" lon="0.6417590">
        <ele>29.2</ele>
        <time>2020-08-08T18:51:48Z</time>
      </trkpt>
      <trkpt lat="41.0939850" lon="0.6417260">
        <ele>29.1</ele>
        <time>2020-08-08T18:51:49Z</time>
      </trkpt>
      <trkpt lat="41.0940180" lon="0.6416900">
        <ele>29.0</ele>
        <time>2020-08-08T18:51:50Z</time>
      </trkpt>
      <trkpt lat="41.0940470" lon="0.6416570">
        <ele>29.0</ele>
        <time>2020-08-08T18:51:51Z</time>
      </trkpt>
      <trkpt lat="41.0941070" lon="0.6415850">
        <ele>28.7</ele>
        <time>2020-08-08T18:51:53Z</time>
      </trkpt>
      <trkpt lat="41.0941400" lon="0.6415470">
        <ele>28.6</ele>
        <time>2020-08-08T18:51:54Z</time>
      </trkpt>
      <trkpt lat="41.0942110" lon="0.6414700">
        <ele>28.3</ele>
        <time>2020-08-08T18:51:56Z</time>
      </trkpt>
      <trkpt lat="41.0942440" lon="0.6414360">
        <ele>28.2</ele>
        <time>2020-08-08T18:51:57Z</time>
      </trkpt>
      <trkpt lat="41.0942800" lon="0.6413990">
        <ele>28.0</ele>
        <time>2020-08-08T18:51:58Z</time>
      </trkpt>
      <trkpt lat="41.0943160" lon="0.6413630">
        <ele>27.9</ele>
        <time>2020-08-08T18:51:59Z</time>
      </trkpt>
      <trkpt lat="41.0943500" lon="0.6413300">
        <ele>27.8</ele>
        <time>2020-08-08T18:52:00Z</time>
      </trkpt>
      <trkpt lat="41.0943820" lon="0.6413030">
        <ele>27.7</ele>
        <time>2020-08-08T18:52:01Z</time>
      </trkpt>
      <trkpt lat="41.0944490" lon="0.6412610">
        <ele>27.7</ele>
        <time>2020-08-08T18:52:03Z</time>
      </trkpt>
      <trkpt lat="41.0944830" lon="0.6412450">
        <ele>27.7</ele>
        <time>2020-08-08T18:52:04Z</time>
      </trkpt>
      <trkpt lat="41.0945650" lon="0.6412110">
        <ele>27.7</ele>
        <time>2020-08-08T18:52:06Z</time>
      </trkpt>
      <trkpt lat="41.0946160" lon="0.6412010">
        <ele>27.7</ele>
        <time>2020-08-08T18:52:07Z</time>
      </trkpt>
      <trkpt lat="41.0947220" lon="0.6411700">
        <ele>27.8</ele>
        <time>2020-08-08T18:52:09Z</time>
      </trkpt>
      <trkpt lat="41.0947670" lon="0.6411420">
        <ele>27.8</ele>
        <time>2020-08-08T18:52:10Z</time>
      </trkpt>
      <trkpt lat="41.0948090" lon="0.6411080">
        <ele>27.8</ele>
        <time>2020-08-08T18:52:11Z</time>
      </trkpt>
      <trkpt lat="41.0948750" lon="0.6410510">
        <ele>27.9</ele>
        <time>2020-08-08T18:52:13Z</time>
      </trkpt>
      <trkpt lat="41.0949060" lon="0.6410160">
        <ele>27.9</ele>
        <time>2020-08-08T18:52:15Z</time>
      </trkpt>
      <trkpt lat="41.0949010" lon="0.6410200">
        <ele>27.9</ele>
        <time>2020-08-08T18:52:17Z</time>
      </trkpt>
      <trkpt lat="41.0949020" lon="0.6410170">
        <ele>27.9</ele>
        <time>2020-08-08T18:52:18Z</time>
      </trkpt>
      <trkpt lat="41.0949050" lon="0.6410140">
        <ele>27.9</ele>
        <time>2020-08-08T18:52:19Z</time>
      </trkpt>
      <trkpt lat="41.0949130" lon="0.6410080">
        <ele>28.0</ele>
        <time>2020-08-08T18:52:21Z</time>
      </trkpt>
      <trkpt lat="41.0949180" lon="0.6410040">
        <ele>28.0</ele>
        <time>2020-08-08T18:52:23Z</time>
      </trkpt>
      <trkpt lat="41.0949180" lon="0.6410040">
        <ele>28.0</ele>
        <time>2020-08-08T18:52:24Z</time>
      </trkpt>
      <trkpt lat="41.0949270" lon="0.6409940">
        <ele>28.0</ele>
        <time>2020-08-08T18:52:26Z</time>
      </trkpt>
      <trkpt lat="41.0949400" lon="0.6409800">
        <ele>28.0</ele>
        <time>2020-08-08T18:52:28Z</time>
      </trkpt>
      <trkpt lat="41.0949650" lon="0.6409640">
        <ele>28.0</ele>
        <time>2020-08-08T18:52:30Z</time>
      </trkpt>
      <trkpt lat="41.0949800" lon="0.6409550">
        <ele>28.0</ele>
        <time>2020-08-08T18:52:31Z</time>
      </trkpt>
      <trkpt lat="41.0950070" lon="0.6409350">
        <ele>28.1</ele>
        <time>2020-08-08T18:52:33Z</time>
      </trkpt>
      <trkpt lat="41.0950300" lon="0.6409140">
        <ele>28.1</ele>
        <time>2020-08-08T18:52:35Z</time>
      </trkpt>
      <trkpt lat="41.0950410" lon="0.6409050">
        <ele>28.1</ele>
        <time>2020-08-08T18:52:36Z</time>
      </trkpt>
      <trkpt lat="41.0950610" lon="0.6408810">
        <ele>28.2</ele>
        <time>2020-08-08T18:52:38Z</time>
      </trkpt>
      <trkpt lat="41.0950690" lon="0.6408700">
        <ele>28.2</ele>
        <time>2020-08-08T18:52:39Z</time>
      </trkpt>
      <trkpt lat="41.0950780" lon="0.6408590">
        <ele>28.2</ele>
        <time>2020-08-08T18:52:40Z</time>
      </trkpt>
      <trkpt lat="41.0950910" lon="0.6408500">
        <ele>28.2</ele>
        <time>2020-08-08T18:52:42Z</time>
      </trkpt>
      <trkpt lat="41.0950950" lon="0.6408450">
        <ele>28.2</ele>
        <time>2020-08-08T18:52:44Z</time>
      </trkpt>
      <trkpt lat="41.0950920" lon="0.6408410">
        <ele>28.2</ele>
        <time>2020-08-08T18:52:46Z</time>
      </trkpt>
      <trkpt lat="41.0950940" lon="0.6408400">
        <ele>28.2</ele>
        <time>2020-08-08T18:52:48Z</time>
      </trkpt>
      <trkpt lat="41.0950960" lon="0.6408380">
        <ele>28.2</ele>
        <time>2020-08-08T18:52:49Z</time>
      </trkpt>
      <trkpt lat="41.0950990" lon="0.6408360">
        <ele>28.2</ele>
        <time>2020-08-08T18:52:50Z</time>
      </trkpt>
      <trkpt lat="41.0951060" lon="0.6408300">
        <ele>28.2</ele>
        <time>2020-08-08T18:52:52Z</time>
      </trkpt>
      <trkpt lat="41.0951060" lon="0.6408260">
        <ele>28.2</ele>
        <time>2020-08-08T18:52:53Z</time>
      </trkpt>
      <trkpt lat="41.0951060" lon="0.6408230">
        <ele>28.2</ele>
        <time>2020-08-08T18:52:54Z</time>
      </trkpt>
      <trkpt lat="41.0951050" lon="0.6408220">
        <ele>28.2</ele>
        <time>2020-08-08T18:52:56Z</time>
      </trkpt>
      <trkpt lat="41.0951090" lon="0.6408210">
        <ele>28.2</ele>
        <time>2020-08-08T18:52:58Z</time>
      </trkpt>
      <trkpt lat="41.0951120" lon="0.6408210">
        <ele>28.2</ele>
        <time>2020-08-08T18:53:00Z</time>
      </trkpt>
      <trkpt lat="41.0951140" lon="0.6408210">
        <ele>28.3</ele>
        <time>2020-08-08T18:53:02Z</time>
      </trkpt>
      <trkpt lat="41.0951160" lon="0.6408200">
        <ele>28.3</ele>
        <time>2020-08-08T18:53:03Z</time>
      </trkpt>
      <trkpt lat="41.0951180" lon="0.6408190">
        <ele>28.3</ele>
        <time>2020-08-08T18:53:04Z</time>
      </trkpt>
      <trkpt lat="41.0951200" lon="0.6408170">
        <ele>28.3</ele>
        <time>2020-08-08T18:53:05Z</time>
      </trkpt>
      <trkpt lat="41.0951240" lon="0.6408180">
        <ele>28.3</ele>
        <time>2020-08-08T18:53:07Z</time>
      </trkpt>
      <trkpt lat="41.0951270" lon="0.6408240">
        <ele>28.3</ele>
        <time>2020-08-08T18:53:09Z</time>
      </trkpt>
      <trkpt lat="41.0951290" lon="0.6408270">
        <ele>28.3</ele>
        <time>2020-08-08T18:53:10Z</time>
      </trkpt>
      <trkpt lat="41.0951310" lon="0.6408280">
        <ele>28.3</ele>
        <time>2020-08-08T18:53:11Z</time>
      </trkpt>
      <trkpt lat="41.0951350" lon="0.6408260">
        <ele>28.3</ele>
        <time>2020-08-08T18:53:12Z</time>
      </trkpt>
      <trkpt lat="41.0951500" lon="0.6408190">
        <ele>28.3</ele>
        <time>2020-08-08T18:53:14Z</time>
      </trkpt>
      <trkpt lat="41.0951570" lon="0.6408140">
        <ele>28.3</ele>
        <time>2020-08-08T18:53:15Z</time>
      </trkpt>
      <trkpt lat="41.0951710" lon="0.6408030">
        <ele>28.3</ele>
        <time>2020-08-08T18:53:17Z</time>
      </trkpt>
      <trkpt lat="41.0951830" lon="0.6407990">
        <ele>28.3</ele>
        <time>2020-08-08T18:53:19Z</time>
      </trkpt>
      <trkpt lat="41.0951900" lon="0.6408010">
        <ele>28.3</ele>
        <time>2020-08-08T18:53:20Z</time>
      </trkpt>
      <trkpt lat="41.0952020" lon="0.6408050">
        <ele>28.3</ele>
        <time>2020-08-08T18:53:22Z</time>
      </trkpt>
      <trkpt lat="41.0952070" lon="0.6408080">
        <ele>28.3</ele>
        <time>2020-08-08T18:53:23Z</time>
      </trkpt>
      <trkpt lat="41.0952140" lon="0.6408150">
        <ele>28.3</ele>
        <time>2020-08-08T18:53:25Z</time>
      </trkpt>
      <trkpt lat="41.0952170" lon="0.6408190">
        <ele>28.3</ele>
        <time>2020-08-08T18:53:26Z</time>
      </trkpt>
      <trkpt lat="41.0952210" lon="0.6408200">
        <ele>28.3</ele>
        <time>2020-08-08T18:53:27Z</time>
      </trkpt>
      <trkpt lat="41.0952140" lon="0.6408230">
        <ele>28.3</ele>
        <time>2020-08-08T18:53:29Z</time>
      </trkpt>
      <trkpt lat="41.0952130" lon="0.6408240">
        <ele>28.3</ele>
        <time>2020-08-08T18:53:30Z</time>
      </trkpt>
      <trkpt lat="41.0952140" lon="0.6408300">
        <ele>28.3</ele>
        <time>2020-08-08T18:53:32Z</time>
      </trkpt>
      <trkpt lat="41.0952150" lon="0.6408290">
        <ele>28.3</ele>
        <time>2020-08-08T18:53:33Z</time>
      </trkpt>
      <trkpt lat="41.0952190" lon="0.6408280">
        <ele>28.3</ele>
        <time>2020-08-08T18:53:34Z</time>
      </trkpt>
      <trkpt lat="41.0952230" lon="0.6408280">
        <ele>28.3</ele>
        <time>2020-08-08T18:53:35Z</time>
      </trkpt>
      <trkpt lat="41.0952280" lon="0.6408280">
        <ele>28.3</ele>
        <time>2020-08-08T18:53:37Z</time>
      </trkpt>
      <trkpt lat="41.0952320" lon="0.6408300">
        <ele>28.3</ele>
        <time>2020-08-08T18:53:38Z</time>
      </trkpt>
      <trkpt lat="41.0952350" lon="0.6408310">
        <ele>28.3</ele>
        <time>2020-08-08T18:53:40Z</time>
      </trkpt>
      <trkpt lat="41.0952360" lon="0.6408330">
        <ele>28.3</ele>
        <time>2020-08-08T18:53:41Z</time>
      </trkpt>
      <trkpt lat="41.0952390" lon="0.6408380">
        <ele>28.3</ele>
        <time>2020-08-08T18:53:43Z</time>
      </trkpt>
      <trkpt lat="41.0952110" lon="0.6408270">
        <ele>28.2</ele>
        <time>2020-08-08T19:48:30Z</time>
      </trkpt>
      <trkpt lat="41.0952090" lon="0.6408220">
        <ele>28.2</ele>
        <time>2020-08-08T19:48:31Z</time>
      </trkpt>
      <trkpt lat="41.0952060" lon="0.6408130">
        <ele>28.2</ele>
        <time>2020-08-08T19:48:33Z</time>
      </trkpt>
      <trkpt lat="41.0952040" lon="0.6408070">
        <ele>28.2</ele>
        <time>2020-08-08T19:48:34Z</time>
      </trkpt>
      <trkpt lat="41.0952000" lon="0.6408000">
        <ele>28.2</ele>
        <time>2020-08-08T19:48:35Z</time>
      </trkpt>
      <trkpt lat="41.0951960" lon="0.6407960">
        <ele>28.2</ele>
        <time>2020-08-08T19:48:36Z</time>
      </trkpt>
      <trkpt lat="41.0951880" lon="0.6407880">
        <ele>28.2</ele>
        <time>2020-08-08T19:48:38Z</time>
      </trkpt>
      <trkpt lat="41.0951840" lon="0.6407840">
        <ele>28.2</ele>
        <time>2020-08-08T19:48:39Z</time>
      </trkpt>
      <trkpt lat="41.0951790" lon="0.6407800">
        <ele>28.2</ele>
        <time>2020-08-08T19:48:40Z</time>
      </trkpt>
      <trkpt lat="41.0951750" lon="0.6407770">
        <ele>28.2</ele>
        <time>2020-08-08T19:48:41Z</time>
      </trkpt>
      <trkpt lat="41.0951660" lon="0.6407690">
        <ele>28.2</ele>
        <time>2020-08-08T19:48:43Z</time>
      </trkpt>
      <trkpt lat="41.0951640" lon="0.6407740">
        <ele>28.2</ele>
        <time>2020-08-08T19:48:45Z</time>
      </trkpt>
      <trkpt lat="41.0951640" lon="0.6407750">
        <ele>28.2</ele>
        <time>2020-08-08T19:48:47Z</time>
      </trkpt>
      <trkpt lat="41.0951640" lon="0.6407830">
        <ele>28.1</ele>
        <time>2020-08-08T19:48:49Z</time>
      </trkpt>
      <trkpt lat="41.0951640" lon="0.6407850">
        <ele>28.1</ele>
        <time>2020-08-08T19:48:50Z</time>
      </trkpt>
      <trkpt lat="41.0951650" lon="0.6407870">
        <ele>28.1</ele>
        <time>2020-08-08T19:48:52Z</time>
      </trkpt>
      <trkpt lat="41.0951350" lon="0.6407840">
        <ele>28.1</ele>
        <time>2020-08-08T19:50:24Z</time>
      </trkpt>
      <trkpt lat="41.0951200" lon="0.6407870">
        <ele>28.1</ele>
        <time>2020-08-08T19:50:25Z</time>
      </trkpt>
      <trkpt lat="41.0950940" lon="0.6407930">
        <ele>28.1</ele>
        <time>2020-08-08T19:50:27Z</time>
      </trkpt>
      <trkpt lat="41.0950840" lon="0.6407960">
        <ele>28.1</ele>
        <time>2020-08-08T19:50:28Z</time>
      </trkpt>
      <trkpt lat="41.0950560" lon="0.6408140">
        <ele>28.0</ele>
        <time>2020-08-08T19:50:30Z</time>
      </trkpt>
      <trkpt lat="41.0950260" lon="0.6408340">
        <ele>28.0</ele>
        <time>2020-08-08T19:50:31Z</time>
      </trkpt>
      <trkpt lat="41.0950160" lon="0.6408410">
        <ele>28.0</ele>
        <time>2020-08-08T19:50:32Z</time>
      </trkpt>
      <trkpt lat="41.0949720" lon="0.6408700">
        <ele>27.9</ele>
        <time>2020-08-08T19:50:34Z</time>
      </trkpt>
      <trkpt lat="41.0949460" lon="0.6408830">
        <ele>27.9</ele>
        <time>2020-08-08T19:50:35Z</time>
      </trkpt>
      <trkpt lat="41.0948930" lon="0.6409070">
        <ele>27.9</ele>
        <time>2020-08-08T19:50:37Z</time>
      </trkpt>
      <trkpt lat="41.0948680" lon="0.6409180">
        <ele>27.8</ele>
        <time>2020-08-08T19:50:38Z</time>
      </trkpt>
      <trkpt lat="41.0948350" lon="0.6409400">
        <ele>27.8</ele>
        <time>2020-08-08T19:50:40Z</time>
      </trkpt>
      <trkpt lat="41.0948200" lon="0.6409450">
        <ele>27.8</ele>
        <time>2020-08-08T19:50:41Z</time>
      </trkpt>
      <trkpt lat="41.0948240" lon="0.6409200">
        <ele>27.8</ele>
        <time>2020-08-08T19:50:42Z</time>
      </trkpt>
      <trkpt lat="41.0948490" lon="0.6408850">
        <ele>27.8</ele>
        <time>2020-08-08T19:50:44Z</time>
      </trkpt>
      <trkpt lat="41.0948720" lon="0.6408590">
        <ele>27.8</ele>
        <time>2020-08-08T19:50:45Z</time>
      </trkpt>
      <trkpt lat="41.0948830" lon="0.6409230">
        <ele>27.8</ele>
        <time>2020-08-08T19:50:47Z</time>
      </trkpt>
      <trkpt lat="41.0948660" lon="0.6409680">
        <ele>27.7</ele>
        <time>2020-08-08T19:50:48Z</time>
      </trkpt>
      <trkpt lat="41.0948600" lon="0.6409810">
        <ele>27.7</ele>
        <time>2020-08-08T19:50:49Z</time>
      </trkpt>
      <trkpt lat="41.0948210" lon="0.6410190">
        <ele>27.7</ele>
        <time>2020-08-08T19:50:51Z</time>
      </trkpt>
      <trkpt lat="41.0947810" lon="0.6410430">
        <ele>27.7</ele>
        <time>2020-08-08T19:50:53Z</time>
      </trkpt>
      <trkpt lat="41.0947620" lon="0.6410520">
        <ele>27.7</ele>
        <time>2020-08-08T19:50:54Z</time>
      </trkpt>
      <trkpt lat="41.0947260" lon="0.6410680">
        <ele>27.7</ele>
        <time>2020-08-08T19:50:56Z</time>
      </trkpt>
      <trkpt lat="41.0946980" lon="0.6410860">
        <ele>27.7</ele>
        <time>2020-08-08T19:50:57Z</time>
      </trkpt>
      <trkpt lat="41.0946860" lon="0.6410930">
        <ele>27.7</ele>
        <time>2020-08-08T19:50:58Z</time>
      </trkpt>
      <trkpt lat="41.0946430" lon="0.6411220">
        <ele>27.7</ele>
        <time>2020-08-08T19:51:00Z</time>
      </trkpt>
      <trkpt lat="41.0946290" lon="0.6411300">
        <ele>27.7</ele>
        <time>2020-08-08T19:51:01Z</time>
      </trkpt>
      <trkpt lat="41.0946150" lon="0.6411380">
        <ele>27.7</ele>
        <time>2020-08-08T19:51:02Z</time>
      </trkpt>
      <trkpt lat="41.0945890" lon="0.6411560">
        <ele>27.7</ele>
        <time>2020-08-08T19:51:03Z</time>
      </trkpt>
      <trkpt lat="41.0945610" lon="0.6411760">
        <ele>27.8</ele>
        <time>2020-08-08T19:51:05Z</time>
      </trkpt>
      <trkpt lat="41.0945400" lon="0.6411900">
        <ele>27.8</ele>
        <time>2020-08-08T19:51:06Z</time>
      </trkpt>
      <trkpt lat="41.0945020" lon="0.6412170">
        <ele>27.9</ele>
        <time>2020-08-08T19:51:08Z</time>
      </trkpt>
      <trkpt lat="41.0944730" lon="0.6412350">
        <ele>28.0</ele>
        <time>2020-08-08T19:51:09Z</time>
      </trkpt>
      <trkpt lat="41.0944390" lon="0.6412630">
        <ele>28.1</ele>
        <time>2020-08-08T19:51:10Z</time>
      </trkpt>
      <trkpt lat="41.0944270" lon="0.6412710">
        <ele>28.1</ele>
        <time>2020-08-08T19:51:11Z</time>
      </trkpt>
      <trkpt lat="41.0943850" lon="0.6413080">
        <ele>28.2</ele>
        <time>2020-08-08T19:51:13Z</time>
      </trkpt>
      <trkpt lat="41.0943480" lon="0.6413390">
        <ele>28.4</ele>
        <time>2020-08-08T19:51:15Z</time>
      </trkpt>
      <trkpt lat="41.0943240" lon="0.6413650">
        <ele>28.4</ele>
        <time>2020-08-08T19:51:17Z</time>
      </trkpt>
      <trkpt lat="41.0943020" lon="0.6413890">
        <ele>28.5</ele>
        <time>2020-08-08T19:51:18Z</time>
      </trkpt>
      <trkpt lat="41.0942750" lon="0.6414200">
        <ele>28.6</ele>
        <time>2020-08-08T19:51:20Z</time>
      </trkpt>
      <trkpt lat="41.0942490" lon="0.6414530">
        <ele>28.7</ele>
        <time>2020-08-08T19:51:22Z</time>
      </trkpt>
      <trkpt lat="41.0942390" lon="0.6414670">
        <ele>28.8</ele>
        <time>2020-08-08T19:51:23Z</time>
      </trkpt>
      <trkpt lat="41.0942270" lon="0.6414820">
        <ele>28.8</ele>
        <time>2020-08-08T19:51:24Z</time>
      </trkpt>
      <trkpt lat="41.0942070" lon="0.6415090">
        <ele>28.9</ele>
        <time>2020-08-08T19:51:26Z</time>
      </trkpt>
      <trkpt lat="41.0942010" lon="0.6415180">
        <ele>28.9</ele>
        <time>2020-08-08T19:51:27Z</time>
      </trkpt>
      <trkpt lat="41.0941770" lon="0.6415440">
        <ele>29.0</ele>
        <time>2020-08-08T19:51:29Z</time>
      </trkpt>
      <trkpt lat="41.0941550" lon="0.6415690">
        <ele>29.0</ele>
        <time>2020-08-08T19:51:31Z</time>
      </trkpt>
      <trkpt lat="41.0941440" lon="0.6415820">
        <ele>29.0</ele>
        <time>2020-08-08T19:51:32Z</time>
      </trkpt>
      <trkpt lat="41.0941320" lon="0.6415920">
        <ele>29.1</ele>
        <time>2020-08-08T19:51:33Z</time>
      </trkpt>
      <trkpt lat="41.0940620" lon="0.6416440">
        <ele>29.2</ele>
        <time>2020-08-08T19:51:35Z</time>
      </trkpt>
      <trkpt lat="41.0940150" lon="0.6416770">
        <ele>29.3</ele>
        <time>2020-08-08T19:51:36Z</time>
      </trkpt>
      <trkpt lat="41.0939690" lon="0.6417100">
        <ele>29.4</ele>
        <time>2020-08-08T19:51:38Z</time>
      </trkpt>
      <trkpt lat="41.0938660" lon="0.6417800">
        <ele>29.6</ele>
        <time>2020-08-08T19:51:39Z</time>
      </trkpt>
      <trkpt lat="41.0937910" lon="0.6418330">
        <ele>29.7</ele>
        <time>2020-08-08T19:51:40Z</time>
      </trkpt>
      <trkpt lat="41.0937250" lon="0.6418830">
        <ele>29.9</ele>
        <time>2020-08-08T19:51:41Z</time>
      </trkpt>
      <trkpt lat="41.0936140" lon="0.6419730">
        <ele>30.1</ele>
        <time>2020-08-08T19:51:43Z</time>
      </trkpt>
      <trkpt lat="41.0935470" lon="0.6420280">
        <ele>30.3</ele>
        <time>2020-08-08T19:51:45Z</time>
      </trkpt>
      <trkpt lat="41.0935210" lon="0.6420530">
        <ele>30.3</ele>
        <time>2020-08-08T19:51:46Z</time>
      </trkpt>
      <trkpt lat="41.0935030" lon="0.6420720">
        <ele>30.4</ele>
        <time>2020-08-08T19:51:47Z</time>
      </trkpt>
      <trkpt lat="41.0934740" lon="0.6421000">
        <ele>30.5</ele>
        <time>2020-08-08T19:51:49Z</time>
      </trkpt>
      <trkpt lat="41.0934640" lon="0.6421090">
        <ele>30.5</ele>
        <time>2020-08-08T19:51:50Z</time>
      </trkpt>
      <trkpt lat="41.0934430" lon="0.6421220">
        <ele>30.5</ele>
        <time>2020-08-08T19:51:52Z</time>
      </trkpt>
      <trkpt lat="41.0934330" lon="0.6421260">
        <ele>30.6</ele>
        <time>2020-08-08T19:51:53Z</time>
      </trkpt>
      <trkpt lat="41.0934220" lon="0.6421300">
        <ele>30.6</ele>
        <time>2020-08-08T19:51:54Z</time>
      </trkpt>
      <trkpt lat="41.0933950" lon="0.6421350">
        <ele>30.6</ele>
        <time>2020-08-08T19:51:56Z</time>
      </trkpt>
      <trkpt lat="41.0933820" lon="0.6421310">
        <ele>30.6</ele>
        <time>2020-08-08T19:51:57Z</time>
      </trkpt>
      <trkpt lat="41.0933710" lon="0.6421250">
        <ele>30.7</ele>
        <time>2020-08-08T19:51:58Z</time>
      </trkpt>
      <trkpt lat="41.0933520" lon="0.6421030">
        <ele>31.0</ele>
        <time>2020-08-08T19:52:00Z</time>
      </trkpt>
      <trkpt lat="41.0933450" lon="0.6420900">
        <ele>31.0</ele>
        <time>2020-08-08T19:52:01Z</time>
      </trkpt>
      <trkpt lat="41.0933390" lon="0.6420770">
        <ele>31.0</ele>
        <time>2020-08-08T19:52:02Z</time>
      </trkpt>
      <trkpt lat="41.0933350" lon="0.6420690">
        <ele>31.1</ele>
        <time>2020-08-08T19:52:03Z</time>
      </trkpt>
      <trkpt lat="41.0933260" lon="0.6420710">
        <ele>31.1</ele>
        <time>2020-08-08T19:52:04Z</time>
      </trkpt>
      <trkpt lat="41.0933190" lon="0.6420680">
        <ele>31.1</ele>
        <time>2020-08-08T19:52:05Z</time>
      </trkpt>
      <trkpt lat="41.0933120" lon="0.6420640">
        <ele>31.1</ele>
        <time>2020-08-08T19:52:07Z</time>
      </trkpt>
      <trkpt lat="41.0933050" lon="0.6420610">
        <ele>31.1</ele>
        <time>2020-08-08T19:52:09Z</time>
      </trkpt>
      <trkpt lat="41.0932980" lon="0.6420580">
        <ele>31.1</ele>
        <time>2020-08-08T19:52:11Z</time>
      </trkpt>
      <trkpt lat="41.0932910" lon="0.6420550">
        <ele>31.1</ele>
        <time>2020-08-08T19:52:12Z</time>
      </trkpt>
      <trkpt lat="41.0932810" lon="0.6420420">
        <ele>31.2</ele>
        <time>2020-08-08T19:52:13Z</time>
      </trkpt>
      <trkpt lat="41.0932800" lon="0.6420350">
        <ele>31.2</ele>
        <time>2020-08-08T19:52:14Z</time>
      </trkpt>
      <trkpt lat="41.0932780" lon="0.6420290">
        <ele>31.2</ele>
        <time>2020-08-08T19:52:16Z</time>
      </trkpt>
      <trkpt lat="41.0932760" lon="0.6420220">
        <ele>31.2</ele>
        <time>2020-08-08T19:52:18Z</time>
      </trkpt>
      <trkpt lat="41.0932740" lon="0.6420160">
        <ele>31.2</ele>
        <time>2020-08-08T19:52:20Z</time>
      </trkpt>
      <trkpt lat="41.0932730" lon="0.6420100">
        <ele>31.2</ele>
        <time>2020-08-08T19:52:21Z</time>
      </trkpt>
      <trkpt lat="41.0932710" lon="0.6420030">
        <ele>31.2</ele>
        <time>2020-08-08T19:52:24Z</time>
      </trkpt>
      <trkpt lat="41.0932690" lon="0.6419970">
        <ele>31.2</ele>
        <time>2020-08-08T19:52:25Z</time>
      </trkpt>
      <trkpt lat="41.0932700" lon="0.6419810">
        <ele>31.2</ele>
        <time>2020-08-08T19:52:27Z</time>
      </trkpt>
      <trkpt lat="41.0932590" lon="0.6419680">
        <ele>31.3</ele>
        <time>2020-08-08T19:52:28Z</time>
      </trkpt>
      <trkpt lat="41.0932370" lon="0.6419900">
        <ele>31.3</ele>
        <time>2020-08-08T19:52:30Z</time>
      </trkpt>
      <trkpt lat="41.0932290" lon="0.6420030">
        <ele>31.3</ele>
        <time>2020-08-08T19:52:31Z</time>
      </trkpt>
      <trkpt lat="41.0932220" lon="0.6420060">
        <ele>31.3</ele>
        <time>2020-08-08T19:52:32Z</time>
      </trkpt>
      <trkpt lat="41.0931700" lon="0.6419940">
        <ele>31.5</ele>
        <time>2020-08-08T19:52:34Z</time>
      </trkpt>
      <trkpt lat="41.0930920" lon="0.6420060">
        <ele>31.8</ele>
        <time>2020-08-08T19:52:36Z</time>
      </trkpt>
      <trkpt lat="41.0930610" lon="0.6420110">
        <ele>31.8</ele>
        <time>2020-08-08T19:52:37Z</time>
      </trkpt>
      <trkpt lat="41.0930130" lon="0.6420170">
        <ele>31.8</ele>
        <time>2020-08-08T19:52:39Z</time>
      </trkpt>
      <trkpt lat="41.0929760" lon="0.6419850">
        <ele>31.8</ele>
        <time>2020-08-08T19:52:43Z</time>
      </trkpt>
      <trkpt lat="41.0929810" lon="0.6419730">
        <ele>31.8</ele>
        <time>2020-08-08T19:52:44Z</time>
      </trkpt>
      <trkpt lat="41.0929900" lon="0.6419660">
        <ele>31.8</ele>
        <time>2020-08-08T19:52:45Z</time>
      </trkpt>
      <trkpt lat="41.0930080" lon="0.6419650">
        <ele>31.8</ele>
        <time>2020-08-08T19:52:47Z</time>
      </trkpt>
      <trkpt lat="41.0930130" lon="0.6419810">
        <ele>31.8</ele>
        <time>2020-08-08T19:52:49Z</time>
      </trkpt>
      <trkpt lat="41.0930150" lon="0.6419840">
        <ele>31.8</ele>
        <time>2020-08-08T19:52:50Z</time>
      </trkpt>
      <trkpt lat="41.0930180" lon="0.6419870">
        <ele>31.8</ele>
        <time>2020-08-08T19:52:51Z</time>
      </trkpt>
      <trkpt lat="41.0930300" lon="0.6419950">
        <ele>31.8</ele>
        <time>2020-08-08T19:52:53Z</time>
      </trkpt>
      <trkpt lat="41.0930370" lon="0.6419980">
        <ele>31.8</ele>
        <time>2020-08-08T19:52:54Z</time>
      </trkpt>
      <trkpt lat="41.0930410" lon="0.6420000">
        <ele>31.8</ele>
        <time>2020-08-08T19:52:55Z</time>
      </trkpt>
      <trkpt lat="41.0930440" lon="0.6420010">
        <ele>31.8</ele>
        <time>2020-08-08T19:52:57Z</time>
      </trkpt>
      <trkpt lat="41.0930430" lon="0.6419990">
        <ele>31.8</ele>
        <time>2020-08-08T19:52:59Z</time>
      </trkpt>
      <trkpt lat="41.0930400" lon="0.6419970">
        <ele>31.8</ele>
        <time>2020-08-08T19:53:01Z</time>
      </trkpt>
      <trkpt lat="41.0930390" lon="0.6419950">
        <ele>31.8</ele>
        <time>2020-08-08T19:53:03Z</time>
      </trkpt>
      <trkpt lat="41.0930390" lon="0.6419950">
        <ele>31.8</ele>
        <time>2020-08-08T19:53:04Z</time>
      </trkpt>
      <trkpt lat="41.0930400" lon="0.6419940">
        <ele>31.8</ele>
        <time>2020-08-08T19:53:06Z</time>
      </trkpt>
      <trkpt lat="41.0930050" lon="0.6420380">
        <ele>31.8</ele>
        <time>2020-08-08T19:53:36Z</time>
      </trkpt>
      <trkpt lat="41.0929720" lon="0.6420910">
        <ele>31.8</ele>
        <time>2020-08-08T19:53:38Z</time>
      </trkpt>
      <trkpt lat="41.0929460" lon="0.6421590">
        <ele>31.8</ele>
        <time>2020-08-08T19:53:40Z</time>
      </trkpt>
      <trkpt lat="41.0929230" lon="0.6421940">
        <ele>31.8</ele>
        <time>2020-08-08T19:53:42Z</time>
      </trkpt>
      <trkpt lat="41.0929090" lon="0.6422130">
        <ele>31.8</ele>
        <time>2020-08-08T19:53:43Z</time>
      </trkpt>
      <trkpt lat="41.0928530" lon="0.6422970">
        <ele>31.8</ele>
        <time>2020-08-08T19:53:45Z</time>
      </trkpt>
      <trkpt lat="41.0928840" lon="0.6422320">
        <ele>31.8</ele>
        <time>2020-08-08T19:53:46Z</time>
      </trkpt>
      <trkpt lat="41.0928970" lon="0.6421800">
        <ele>31.8</ele>
        <time>2020-08-08T19:53:48Z</time>
      </trkpt>
      <trkpt lat="41.0929000" lon="0.6421680">
        <ele>31.8</ele>
        <time>2020-08-08T19:53:49Z</time>
      </trkpt>
      <trkpt lat="41.0929020" lon="0.6421550">
        <ele>31.8</ele>
        <time>2020-08-08T19:53:50Z</time>
      </trkpt>
      <trkpt lat="41.0929040" lon="0.6421430">
        <ele>31.8</ele>
        <time>2020-08-08T19:53:51Z</time>
      </trkpt>
      <trkpt lat="41.0929060" lon="0.6421300">
        <ele>31.8</ele>
        <time>2020-08-08T19:53:52Z</time>
      </trkpt>
      <trkpt lat="41.0929060" lon="0.6421190">
        <ele>31.8</ele>
        <time>2020-08-08T19:53:53Z</time>
      </trkpt>
      <trkpt lat="41.0929050" lon="0.6421100">
        <ele>31.8</ele>
        <time>2020-08-08T19:53:54Z</time>
      </trkpt>
      <trkpt lat="41.0929040" lon="0.6421050">
        <ele>31.8</ele>
        <time>2020-08-08T19:53:55Z</time>
      </trkpt>
      <trkpt lat="41.0928570" lon="0.6421530">
        <ele>31.8</ele>
        <time>2020-08-08T19:53:56Z</time>
      </trkpt>
      <trkpt lat="41.0928140" lon="0.6422050">
        <ele>31.8</ele>
        <time>2020-08-08T19:53:58Z</time>
      </trkpt>
      <trkpt lat="41.0927700" lon="0.6422570">
        <ele>31.8</ele>
        <time>2020-08-08T19:53:59Z</time>
      </trkpt>
      <trkpt lat="41.0927260" lon="0.6423090">
        <ele>31.8</ele>
        <time>2020-08-08T19:54:00Z</time>
      </trkpt>
      <trkpt lat="41.0927620" lon="0.6422680">
        <ele>31.8</ele>
        <time>2020-08-08T19:54:02Z</time>
      </trkpt>
      <trkpt lat="41.0927720" lon="0.6422690">
        <ele>31.8</ele>
        <time>2020-08-08T19:54:03Z</time>
      </trkpt>
      <trkpt lat="41.0927900" lon="0.6422920">
        <ele>31.8</ele>
        <time>2020-08-08T19:54:05Z</time>
      </trkpt>
      <trkpt lat="41.0927940" lon="0.6423220">
        <ele>31.8</ele>
        <time>2020-08-08T19:54:06Z</time>
      </trkpt>
      <trkpt lat="41.0927930" lon="0.6423620">
        <ele>31.8</ele>
        <time>2020-08-08T19:54:08Z</time>
      </trkpt>
      <trkpt lat="41.0927910" lon="0.6423830">
        <ele>31.9</ele>
        <time>2020-08-08T19:54:09Z</time>
      </trkpt>
      <trkpt lat="41.0927610" lon="0.6424750">
        <ele>31.7</ele>
        <time>2020-08-08T19:54:11Z</time>
      </trkpt>
      <trkpt lat="41.0924880" lon="0.6426600">
        <ele>31.0</ele>
        <time>2020-08-08T19:54:12Z</time>
      </trkpt>
      <trkpt lat="41.0924300" lon="0.6426960">
        <ele>30.9</ele>
        <time>2020-08-08T19:54:13Z</time>
      </trkpt>
      <trkpt lat="41.0921840" lon="0.6428560">
        <ele>30.4</ele>
        <time>2020-08-08T19:54:15Z</time>
      </trkpt>
      <trkpt lat="41.0920340" lon="0.6429410">
        <ele>30.0</ele>
        <time>2020-08-08T19:54:17Z</time>
      </trkpt>
      <trkpt lat="41.0919780" lon="0.6429710">
        <ele>29.9</ele>
        <time>2020-08-08T19:54:18Z</time>
      </trkpt>
      <trkpt lat="41.0919360" lon="0.6429940">
        <ele>29.8</ele>
        <time>2020-08-08T19:54:19Z</time>
      </trkpt>
      <trkpt lat="41.0918930" lon="0.6430180">
        <ele>29.7</ele>
        <time>2020-08-08T19:54:20Z</time>
      </trkpt>
      <trkpt lat="41.0918210" lon="0.6430520">
        <ele>29.6</ele>
        <time>2020-08-08T19:54:22Z</time>
      </trkpt>
      <trkpt lat="41.0917880" lon="0.6430650">
        <ele>29.5</ele>
        <time>2020-08-08T19:54:23Z</time>
      </trkpt>
      <trkpt lat="41.0917050" lon="0.6430930">
        <ele>29.4</ele>
        <time>2020-08-08T19:54:25Z</time>
      </trkpt>
      <trkpt lat="41.0916640" lon="0.6431070">
        <ele>29.3</ele>
        <time>2020-08-08T19:54:26Z</time>
      </trkpt>
      <trkpt lat="41.0916250" lon="0.6431210">
        <ele>29.3</ele>
        <time>2020-08-08T19:54:27Z</time>
      </trkpt>
      <trkpt lat="41.0915830" lon="0.6431380">
        <ele>29.3</ele>
        <time>2020-08-08T19:54:28Z</time>
      </trkpt>
      <trkpt lat="41.0915390" lon="0.6431560">
        <ele>29.3</ele>
        <time>2020-08-08T19:54:29Z</time>
      </trkpt>
      <trkpt lat="41.0914980" lon="0.6431740">
        <ele>29.3</ele>
        <time>2020-08-08T19:54:30Z</time>
      </trkpt>
      <trkpt lat="41.0914200" lon="0.6431960">
        <ele>29.3</ele>
        <time>2020-08-08T19:54:32Z</time>
      </trkpt>
      <trkpt lat="41.0913860" lon="0.6431940">
        <ele>29.3</ele>
        <time>2020-08-08T19:54:33Z</time>
      </trkpt>
      <trkpt lat="41.0913540" lon="0.6431880">
        <ele>29.3</ele>
        <time>2020-08-08T19:54:34Z</time>
      </trkpt>
      <trkpt lat="41.0913210" lon="0.6431790">
        <ele>29.3</ele>
        <time>2020-08-08T19:54:35Z</time>
      </trkpt>
      <trkpt lat="41.0912940" lon="0.6431730">
        <ele>29.3</ele>
        <time>2020-08-08T19:54:36Z</time>
      </trkpt>
      <trkpt lat="41.0912670" lon="0.6431710">
        <ele>29.3</ele>
        <time>2020-08-08T19:54:37Z</time>
      </trkpt>
      <trkpt lat="41.0912410" lon="0.6431730">
        <ele>29.3</ele>
        <time>2020-08-08T19:54:38Z</time>
      </trkpt>
      <trkpt lat="41.0911940" lon="0.6431810">
        <ele>29.3</ele>
        <time>2020-08-08T19:54:40Z</time>
      </trkpt>
      <trkpt lat="41.0911670" lon="0.6431870">
        <ele>29.2</ele>
        <time>2020-08-08T19:54:41Z</time>
      </trkpt>
      <trkpt lat="41.0911370" lon="0.6431960">
        <ele>29.2</ele>
        <time>2020-08-08T19:54:42Z</time>
      </trkpt>
      <trkpt lat="41.0911070" lon="0.6432060">
        <ele>29.2</ele>
        <time>2020-08-08T19:54:43Z</time>
      </trkpt>
      <trkpt lat="41.0910810" lon="0.6432140">
        <ele>29.2</ele>
        <time>2020-08-08T19:54:44Z</time>
      </trkpt>
      <trkpt lat="41.0910520" lon="0.6432230">
        <ele>29.3</ele>
        <time>2020-08-08T19:54:45Z</time>
      </trkpt>
      <trkpt lat="41.0909970" lon="0.6432350">
        <ele>29.6</ele>
        <time>2020-08-08T19:54:47Z</time>
      </trkpt>
      <trkpt lat="41.0909610" lon="0.6432410">
        <ele>29.8</ele>
        <time>2020-08-08T19:54:48Z</time>
      </trkpt>
      <trkpt lat="41.0909490" lon="0.6432420">
        <ele>29.8</ele>
        <time>2020-08-08T19:54:49Z</time>
      </trkpt>
      <trkpt lat="41.0909070" lon="0.6432370">
        <ele>30.0</ele>
        <time>2020-08-08T19:54:51Z</time>
      </trkpt>
      <trkpt lat="41.0908900" lon="0.6432360">
        <ele>30.1</ele>
        <time>2020-08-08T19:54:52Z</time>
      </trkpt>
      <trkpt lat="41.0908480" lon="0.6432460">
        <ele>30.3</ele>
        <time>2020-08-08T19:54:54Z</time>
      </trkpt>
      <trkpt lat="41.0908100" lon="0.6432650">
        <ele>30.5</ele>
        <time>2020-08-08T19:54:55Z</time>
      </trkpt>
      <trkpt lat="41.0907960" lon="0.6432720">
        <ele>30.6</ele>
        <time>2020-08-08T19:54:56Z</time>
      </trkpt>
      <trkpt lat="41.0907730" lon="0.6432870">
        <ele>30.7</ele>
        <time>2020-08-08T19:54:57Z</time>
      </trkpt>
      <trkpt lat="41.0907320" lon="0.6433120">
        <ele>30.9</ele>
        <time>2020-08-08T19:54:59Z</time>
      </trkpt>
      <trkpt lat="41.0907140" lon="0.6433210">
        <ele>31.0</ele>
        <time>2020-08-08T19:55:00Z</time>
      </trkpt>
      <trkpt lat="41.0906770" lon="0.6433290">
        <ele>31.1</ele>
        <time>2020-08-08T19:55:02Z</time>
      </trkpt>
      <trkpt lat="41.0906480" lon="0.6433370">
        <ele>31.2</ele>
        <time>2020-08-08T19:55:03Z</time>
      </trkpt>
      <trkpt lat="41.0906390" lon="0.6433390">
        <ele>31.3</ele>
        <time>2020-08-08T19:55:04Z</time>
      </trkpt>
      <trkpt lat="41.0906180" lon="0.6433480">
        <ele>31.3</ele>
        <time>2020-08-08T19:55:05Z</time>
      </trkpt>
      <trkpt lat="41.0905690" lon="0.6433730">
        <ele>31.3</ele>
        <time>2020-08-08T19:55:07Z</time>
      </trkpt>
      <trkpt lat="41.0905130" lon="0.6434040">
        <ele>31.5</ele>
        <time>2020-08-08T19:55:09Z</time>
      </trkpt>
      <trkpt lat="41.0904570" lon="0.6434300">
        <ele>31.7</ele>
        <time>2020-08-08T19:55:11Z</time>
      </trkpt>
      <trkpt lat="41.0904300" lon="0.6434430">
        <ele>31.8</ele>
        <time>2020-08-08T19:55:12Z</time>
      </trkpt>
      <trkpt lat="41.0903740" lon="0.6434730">
        <ele>32.1</ele>
        <time>2020-08-08T19:55:14Z</time>
      </trkpt>
      <trkpt lat="41.0903330" lon="0.6435020">
        <ele>32.2</ele>
        <time>2020-08-08T19:55:16Z</time>
      </trkpt>
      <trkpt lat="41.0903060" lon="0.6435200">
        <ele>32.3</ele>
        <time>2020-08-08T19:55:17Z</time>
      </trkpt>
      <trkpt lat="41.0902960" lon="0.6435250">
        <ele>32.4</ele>
        <time>2020-08-08T19:55:18Z</time>
      </trkpt>
      <trkpt lat="41.0902760" lon="0.6435310">
        <ele>32.5</ele>
        <time>2020-08-08T19:55:19Z</time>
      </trkpt>
      <trkpt lat="41.0902310" lon="0.6435400">
        <ele>32.6</ele>
        <time>2020-08-08T19:55:21Z</time>
      </trkpt>
      <trkpt lat="41.0902010" lon="0.6435460">
        <ele>32.8</ele>
        <time>2020-08-08T19:55:22Z</time>
      </trkpt>
      <trkpt lat="41.0901900" lon="0.6435480">
        <ele>32.8</ele>
        <time>2020-08-08T19:55:23Z</time>
      </trkpt>
      <trkpt lat="41.0901460" lon="0.6435560">
        <ele>33.0</ele>
        <time>2020-08-08T19:55:25Z</time>
      </trkpt>
      <trkpt lat="41.0901150" lon="0.6435640">
        <ele>33.1</ele>
        <time>2020-08-08T19:55:26Z</time>
      </trkpt>
      <trkpt lat="41.0901050" lon="0.6435670">
        <ele>33.1</ele>
        <time>2020-08-08T19:55:27Z</time>
      </trkpt>
      <trkpt lat="41.0900780" lon="0.6435780">
        <ele>33.3</ele>
        <time>2020-08-08T19:55:28Z</time>
      </trkpt>
      <trkpt lat="41.0900680" lon="0.6435810">
        <ele>33.3</ele>
        <time>2020-08-08T19:55:29Z</time>
      </trkpt>
      <trkpt lat="41.0900280" lon="0.6435900">
        <ele>33.5</ele>
        <time>2020-08-08T19:55:31Z</time>
      </trkpt>
      <trkpt lat="41.0899960" lon="0.6435980">
        <ele>33.6</ele>
        <time>2020-08-08T19:55:32Z</time>
      </trkpt>
      <trkpt lat="41.0899850" lon="0.6436010">
        <ele>33.6</ele>
        <time>2020-08-08T19:55:33Z</time>
      </trkpt>
      <trkpt lat="41.0899430" lon="0.6436210">
        <ele>33.6</ele>
        <time>2020-08-08T19:55:35Z</time>
      </trkpt>
      <trkpt lat="41.0899150" lon="0.6436370">
        <ele>33.6</ele>
        <time>2020-08-08T19:55:36Z</time>
      </trkpt>
      <trkpt lat="41.0899060" lon="0.6436410">
        <ele>33.6</ele>
        <time>2020-08-08T19:55:37Z</time>
      </trkpt>
      <trkpt lat="41.0898800" lon="0.6436560">
        <ele>33.7</ele>
        <time>2020-08-08T19:55:39Z</time>
      </trkpt>
      <trkpt lat="41.0898740" lon="0.6436600">
        <ele>33.7</ele>
        <time>2020-08-08T19:55:40Z</time>
      </trkpt>
      <trkpt lat="41.0898750" lon="0.6436580">
        <ele>33.7</ele>
        <time>2020-08-08T19:55:42Z</time>
      </trkpt>
      <trkpt lat="41.0898790" lon="0.6436540">
        <ele>33.7</ele>
        <time>2020-08-08T19:55:43Z</time>
      </trkpt>
      <trkpt lat="41.0898840" lon="0.6436480">
        <ele>33.7</ele>
        <time>2020-08-08T19:55:44Z</time>
      </trkpt>
      <trkpt lat="41.0898820" lon="0.6436510">
        <ele>33.7</ele>
        <time>2020-08-08T19:55:45Z</time>
      </trkpt>
      <trkpt lat="41.0898720" lon="0.6436590">
        <ele>33.7</ele>
        <time>2020-08-08T19:55:47Z</time>
      </trkpt>
      <trkpt lat="41.0898530" lon="0.6436780">
        <ele>33.7</ele>
        <time>2020-08-08T19:55:49Z</time>
      </trkpt>
      <trkpt lat="41.0898460" lon="0.6436900">
        <ele>33.7</ele>
        <time>2020-08-08T19:55:50Z</time>
      </trkpt>
      <trkpt lat="41.0898460" lon="0.6437250">
        <ele>33.7</ele>
        <time>2020-08-08T19:55:52Z</time>
      </trkpt>
      <trkpt lat="41.0898520" lon="0.6437470">
        <ele>33.7</ele>
        <time>2020-08-08T19:55:53Z</time>
      </trkpt>
      <trkpt lat="41.0898630" lon="0.6437650">
        <ele>33.6</ele>
        <time>2020-08-08T19:55:54Z</time>
      </trkpt>
      <trkpt lat="41.0898740" lon="0.6437820">
        <ele>33.6</ele>
        <time>2020-08-08T19:55:55Z</time>
      </trkpt>
      <trkpt lat="41.0898990" lon="0.6438160">
        <ele>33.6</ele>
        <time>2020-08-08T19:55:57Z</time>
      </trkpt>
      <trkpt lat="41.0899190" lon="0.6438410">
        <ele>33.6</ele>
        <time>2020-08-08T19:55:58Z</time>
      </trkpt>
      <trkpt lat="41.0899250" lon="0.6438510">
        <ele>33.6</ele>
        <time>2020-08-08T19:55:59Z</time>
      </trkpt>
      <trkpt lat="41.0899500" lon="0.6438930">
        <ele>33.5</ele>
        <time>2020-08-08T19:56:01Z</time>
      </trkpt>
      <trkpt lat="41.0899720" lon="0.6439300">
        <ele>33.5</ele>
        <time>2020-08-08T19:56:02Z</time>
      </trkpt>
      <trkpt lat="41.0899790" lon="0.6439420">
        <ele>33.5</ele>
        <time>2020-08-08T19:56:03Z</time>
      </trkpt>
      <trkpt lat="41.0899960" lon="0.6439670">
        <ele>33.5</ele>
        <time>2020-08-08T19:56:04Z</time>
      </trkpt>
      <trkpt lat="41.0900250" lon="0.6440130">
        <ele>33.4</ele>
        <time>2020-08-08T19:56:06Z</time>
      </trkpt>
      <trkpt lat="41.0900470" lon="0.6440470">
        <ele>33.4</ele>
        <time>2020-08-08T19:56:07Z</time>
      </trkpt>
      <trkpt lat="41.0900540" lon="0.6440600">
        <ele>33.4</ele>
        <time>2020-08-08T19:56:08Z</time>
      </trkpt>
      <trkpt lat="41.0900810" lon="0.6441070">
        <ele>33.4</ele>
        <time>2020-08-08T19:56:10Z</time>
      </trkpt>
      <trkpt lat="41.0900960" lon="0.6441330">
        <ele>33.4</ele>
        <time>2020-08-08T19:56:11Z</time>
      </trkpt>
      <trkpt lat="41.0901300" lon="0.6441900">
        <ele>33.3</ele>
        <time>2020-08-08T19:56:13Z</time>
      </trkpt>
      <trkpt lat="41.0901460" lon="0.6442170">
        <ele>33.3</ele>
        <time>2020-08-08T19:56:14Z</time>
      </trkpt>
      <trkpt lat="41.0901820" lon="0.6442760">
        <ele>33.3</ele>
        <time>2020-08-08T19:56:16Z</time>
      </trkpt>
      <trkpt lat="41.0902160" lon="0.6443340">
        <ele>33.3</ele>
        <time>2020-08-08T19:56:18Z</time>
      </trkpt>
      <trkpt lat="41.0902500" lon="0.6443900">
        <ele>33.3</ele>
        <time>2020-08-08T19:56:20Z</time>
      </trkpt>
      <trkpt lat="41.0902670" lon="0.6444170">
        <ele>33.3</ele>
        <time>2020-08-08T19:56:21Z</time>
      </trkpt>
      <trkpt lat="41.0903010" lon="0.6444740">
        <ele>33.3</ele>
        <time>2020-08-08T19:56:23Z</time>
      </trkpt>
      <trkpt lat="41.0903180" lon="0.6445030">
        <ele>33.3</ele>
        <time>2020-08-08T19:56:24Z</time>
      </trkpt>
      <trkpt lat="41.0903500" lon="0.6445620">
        <ele>33.3</ele>
        <time>2020-08-08T19:56:26Z</time>
      </trkpt>
      <trkpt lat="41.0903670" lon="0.6445920">
        <ele>33.3</ele>
        <time>2020-08-08T19:56:27Z</time>
      </trkpt>
      <trkpt lat="41.0904010" lon="0.6446420">
        <ele>33.3</ele>
        <time>2020-08-08T19:56:29Z</time>
      </trkpt>
      <trkpt lat="41.0904260" lon="0.6446830">
        <ele>33.3</ele>
        <time>2020-08-08T19:56:30Z</time>
      </trkpt>
      <trkpt lat="41.0904330" lon="0.6446980">
        <ele>33.3</ele>
        <time>2020-08-08T19:56:31Z</time>
      </trkpt>
      <trkpt lat="41.0904670" lon="0.6447560">
        <ele>33.3</ele>
        <time>2020-08-08T19:56:33Z</time>
      </trkpt>
      <trkpt lat="41.0904850" lon="0.6447840">
        <ele>33.3</ele>
        <time>2020-08-08T19:56:34Z</time>
      </trkpt>
      <trkpt lat="41.0905200" lon="0.6448400">
        <ele>33.3</ele>
        <time>2020-08-08T19:56:36Z</time>
      </trkpt>
      <trkpt lat="41.0905440" lon="0.6448810">
        <ele>33.3</ele>
        <time>2020-08-08T19:56:37Z</time>
      </trkpt>
      <trkpt lat="41.0905520" lon="0.6448960">
        <ele>33.3</ele>
        <time>2020-08-08T19:56:38Z</time>
      </trkpt>
      <trkpt lat="41.0905850" lon="0.6449570">
        <ele>33.3</ele>
        <time>2020-08-08T19:56:40Z</time>
      </trkpt>
      <trkpt lat="41.0906020" lon="0.6449870">
        <ele>33.3</ele>
        <time>2020-08-08T19:56:41Z</time>
      </trkpt>
      <trkpt lat="41.0906180" lon="0.6450170">
        <ele>33.3</ele>
        <time>2020-08-08T19:56:42Z</time>
      </trkpt>
      <trkpt lat="41.0906400" lon="0.6450560">
        <ele>33.3</ele>
        <time>2020-08-08T19:56:43Z</time>
      </trkpt>
      <trkpt lat="41.0906480" lon="0.6450700">
        <ele>33.3</ele>
        <time>2020-08-08T19:56:44Z</time>
      </trkpt>
      <trkpt lat="41.0906640" lon="0.6450980">
        <ele>33.3</ele>
        <time>2020-08-08T19:56:45Z</time>
      </trkpt>
      <trkpt lat="41.0906990" lon="0.6451510">
        <ele>33.3</ele>
        <time>2020-08-08T19:56:47Z</time>
      </trkpt>
      <trkpt lat="41.0907180" lon="0.6451780">
        <ele>33.3</ele>
        <time>2020-08-08T19:56:48Z</time>
      </trkpt>
      <trkpt lat="41.0907370" lon="0.6452060">
        <ele>33.3</ele>
        <time>2020-08-08T19:56:49Z</time>
      </trkpt>
      <trkpt lat="41.0907740" lon="0.6452650">
        <ele>33.3</ele>
        <time>2020-08-08T19:56:51Z</time>
      </trkpt>
      <trkpt lat="41.0908130" lon="0.6453250">
        <ele>33.3</ele>
        <time>2020-08-08T19:56:53Z</time>
      </trkpt>
      <trkpt lat="41.0908310" lon="0.6453550">
        <ele>33.3</ele>
        <time>2020-08-08T19:56:54Z</time>
      </trkpt>
      <trkpt lat="41.0908470" lon="0.6453810">
        <ele>33.3</ele>
        <time>2020-08-08T19:56:55Z</time>
      </trkpt>
      <trkpt lat="41.0908810" lon="0.6454380">
        <ele>33.3</ele>
        <time>2020-08-08T19:56:57Z</time>
      </trkpt>
      <trkpt lat="41.0908940" lon="0.6454630">
        <ele>33.2</ele>
        <time>2020-08-08T19:56:58Z</time>
      </trkpt>
      <trkpt lat="41.0909270" lon="0.6455230">
        <ele>33.2</ele>
        <time>2020-08-08T19:57:00Z</time>
      </trkpt>
      <trkpt lat="41.0909440" lon="0.6455550">
        <ele>33.2</ele>
        <time>2020-08-08T19:57:01Z</time>
      </trkpt>
      <trkpt lat="41.0909610" lon="0.6455880">
        <ele>33.2</ele>
        <time>2020-08-08T19:57:02Z</time>
      </trkpt>
      <trkpt lat="41.0909900" lon="0.6456520">
        <ele>33.2</ele>
        <time>2020-08-08T19:57:04Z</time>
      </trkpt>
      <trkpt lat="41.0910250" lon="0.6457150">
        <ele>33.2</ele>
        <time>2020-08-08T19:57:06Z</time>
      </trkpt>
      <trkpt lat="41.0910440" lon="0.6457450">
        <ele>33.2</ele>
        <time>2020-08-08T19:57:07Z</time>
      </trkpt>
      <trkpt lat="41.0910630" lon="0.6457780">
        <ele>33.2</ele>
        <time>2020-08-08T19:57:08Z</time>
      </trkpt>
      <trkpt lat="41.0910790" lon="0.6458070">
        <ele>33.2</ele>
        <time>2020-08-08T19:57:09Z</time>
      </trkpt>
      <trkpt lat="41.0911200" lon="0.6458710">
        <ele>33.2</ele>
        <time>2020-08-08T19:57:11Z</time>
      </trkpt>
      <trkpt lat="41.0911400" lon="0.6459030">
        <ele>33.2</ele>
        <time>2020-08-08T19:57:12Z</time>
      </trkpt>
      <trkpt lat="41.0911660" lon="0.6459460">
        <ele>33.2</ele>
        <time>2020-08-08T19:57:13Z</time>
      </trkpt>
      <trkpt lat="41.0911750" lon="0.6459620">
        <ele>33.2</ele>
        <time>2020-08-08T19:57:14Z</time>
      </trkpt>
      <trkpt lat="41.0912100" lon="0.6460210">
        <ele>33.2</ele>
        <time>2020-08-08T19:57:16Z</time>
      </trkpt>
      <trkpt lat="41.0912470" lon="0.6460800">
        <ele>33.2</ele>
        <time>2020-08-08T19:57:18Z</time>
      </trkpt>
      <trkpt lat="41.0912670" lon="0.6461110">
        <ele>33.2</ele>
        <time>2020-08-08T19:57:19Z</time>
      </trkpt>
      <trkpt lat="41.0913080" lon="0.6461730">
        <ele>33.2</ele>
        <time>2020-08-08T19:57:21Z</time>
      </trkpt>
      <trkpt lat="41.0913460" lon="0.6462320">
        <ele>33.2</ele>
        <time>2020-08-08T19:57:23Z</time>
      </trkpt>
      <trkpt lat="41.0913650" lon="0.6462630">
        <ele>33.1</ele>
        <time>2020-08-08T19:57:24Z</time>
      </trkpt>
      <trkpt lat="41.0914010" lon="0.6463220">
        <ele>33.1</ele>
        <time>2020-08-08T19:57:26Z</time>
      </trkpt>
      <trkpt lat="41.0914200" lon="0.6463530">
        <ele>33.0</ele>
        <time>2020-08-08T19:57:27Z</time>
      </trkpt>
      <trkpt lat="41.0914390" lon="0.6463870">
        <ele>33.0</ele>
        <time>2020-08-08T19:57:28Z</time>
      </trkpt>
      <trkpt lat="41.0914710" lon="0.6464480">
        <ele>32.9</ele>
        <time>2020-08-08T19:57:30Z</time>
      </trkpt>
      <trkpt lat="41.0914900" lon="0.6464820">
        <ele>32.9</ele>
        <time>2020-08-08T19:57:31Z</time>
      </trkpt>
      <trkpt lat="41.0915280" lon="0.6465430">
        <ele>32.8</ele>
        <time>2020-08-08T19:57:33Z</time>
      </trkpt>
      <trkpt lat="41.0915470" lon="0.6465750">
        <ele>32.7</ele>
        <time>2020-08-08T19:57:34Z</time>
      </trkpt>
      <trkpt lat="41.0915660" lon="0.6466080">
        <ele>32.7</ele>
        <time>2020-08-08T19:57:35Z</time>
      </trkpt>
      <trkpt lat="41.0915850" lon="0.6466410">
        <ele>32.6</ele>
        <time>2020-08-08T19:57:36Z</time>
      </trkpt>
      <trkpt lat="41.0916030" lon="0.6466710">
        <ele>32.6</ele>
        <time>2020-08-08T19:57:37Z</time>
      </trkpt>
      <trkpt lat="41.0916220" lon="0.6467020">
        <ele>32.5</ele>
        <time>2020-08-08T19:57:38Z</time>
      </trkpt>
      <trkpt lat="41.0916400" lon="0.6467310">
        <ele>32.5</ele>
        <time>2020-08-08T19:57:39Z</time>
      </trkpt>
      <trkpt lat="41.0916760" lon="0.6467960">
        <ele>32.4</ele>
        <time>2020-08-08T19:57:41Z</time>
      </trkpt>
      <trkpt lat="41.0916950" lon="0.6468320">
        <ele>32.4</ele>
        <time>2020-08-08T19:57:42Z</time>
      </trkpt>
      <trkpt lat="41.0917150" lon="0.6468690">
        <ele>32.4</ele>
        <time>2020-08-08T19:57:43Z</time>
      </trkpt>
      <trkpt lat="41.0917640" lon="0.6469480">
        <ele>32.3</ele>
        <time>2020-08-08T19:57:45Z</time>
      </trkpt>
      <trkpt lat="41.0917890" lon="0.6469860">
        <ele>32.2</ele>
        <time>2020-08-08T19:57:46Z</time>
      </trkpt>
      <trkpt lat="41.0918160" lon="0.6470220">
        <ele>32.2</ele>
        <time>2020-08-08T19:57:47Z</time>
      </trkpt>
      <trkpt lat="41.0918650" lon="0.6470850">
        <ele>32.2</ele>
        <time>2020-08-08T19:57:49Z</time>
      </trkpt>
      <trkpt lat="41.0918870" lon="0.6471130">
        <ele>32.2</ele>
        <time>2020-08-08T19:57:50Z</time>
      </trkpt>
      <trkpt lat="41.0919130" lon="0.6471430">
        <ele>32.2</ele>
        <time>2020-08-08T19:57:51Z</time>
      </trkpt>
      <trkpt lat="41.0919410" lon="0.6471710">
        <ele>32.1</ele>
        <time>2020-08-08T19:57:52Z</time>
      </trkpt>
      <trkpt lat="41.0919690" lon="0.6471970">
        <ele>32.1</ele>
        <time>2020-08-08T19:57:53Z</time>
      </trkpt>
      <trkpt lat="41.0919970" lon="0.6472220">
        <ele>32.1</ele>
        <time>2020-08-08T19:57:54Z</time>
      </trkpt>
      <trkpt lat="41.0920240" lon="0.6472470">
        <ele>32.1</ele>
        <time>2020-08-08T19:57:55Z</time>
      </trkpt>
      <trkpt lat="41.0920530" lon="0.6472690">
        <ele>32.1</ele>
        <time>2020-08-08T19:57:56Z</time>
      </trkpt>
      <trkpt lat="41.0920820" lon="0.6472920">
        <ele>32.1</ele>
        <time>2020-08-08T19:57:57Z</time>
      </trkpt>
      <trkpt lat="41.0921070" lon="0.6473090">
        <ele>32.1</ele>
        <time>2020-08-08T19:57:58Z</time>
      </trkpt>
      <trkpt lat="41.0921680" lon="0.6473510">
        <ele>32.0</ele>
        <time>2020-08-08T19:58:00Z</time>
      </trkpt>
      <trkpt lat="41.0922010" lon="0.6473740">
        <ele>32.0</ele>
        <time>2020-08-08T19:58:01Z</time>
      </trkpt>
      <trkpt lat="41.0922640" lon="0.6474140">
        <ele>32.0</ele>
        <time>2020-08-08T19:58:03Z</time>
      </trkpt>
      <trkpt lat="41.0923260" lon="0.6474480">
        <ele>32.0</ele>
        <time>2020-08-08T19:58:05Z</time>
      </trkpt>
      <trkpt lat="41.0923580" lon="0.6474620">
        <ele>32.0</ele>
        <time>2020-08-08T19:58:06Z</time>
      </trkpt>
      <trkpt lat="41.0924260" lon="0.6474880">
        <ele>32.0</ele>
        <time>2020-08-08T19:58:08Z</time>
      </trkpt>
      <trkpt lat="41.0924620" lon="0.6474990">
        <ele>32.0</ele>
        <time>2020-08-08T19:58:09Z</time>
      </trkpt>
      <trkpt lat="41.0924970" lon="0.6475080">
        <ele>32.0</ele>
        <time>2020-08-08T19:58:10Z</time>
      </trkpt>
      <trkpt lat="41.0925290" lon="0.6475130">
        <ele>32.0</ele>
        <time>2020-08-08T19:58:11Z</time>
      </trkpt>
      <trkpt lat="41.0925610" lon="0.6475170">
        <ele>32.0</ele>
        <time>2020-08-08T19:58:12Z</time>
      </trkpt>
      <trkpt lat="41.0926290" lon="0.6475260">
        <ele>32.0</ele>
        <time>2020-08-08T19:58:14Z</time>
      </trkpt>
      <trkpt lat="41.0926980" lon="0.6475380">
        <ele>32.0</ele>
        <time>2020-08-08T19:58:16Z</time>
      </trkpt>
      <trkpt lat="41.0927310" lon="0.6475430">
        <ele>32.0</ele>
        <time>2020-08-08T19:58:17Z</time>
      </trkpt>
      <trkpt lat="41.0927660" lon="0.6475480">
        <ele>32.0</ele>
        <time>2020-08-08T19:58:18Z</time>
      </trkpt>
      <trkpt lat="41.0928310" lon="0.6475580">
        <ele>32.0</ele>
        <time>2020-08-08T19:58:20Z</time>
      </trkpt>
      <trkpt lat="41.0928650" lon="0.6475620">
        <ele>32.0</ele>
        <time>2020-08-08T19:58:21Z</time>
      </trkpt>
      <trkpt lat="41.0929000" lon="0.6475690">
        <ele>32.0</ele>
        <time>2020-08-08T19:58:22Z</time>
      </trkpt>
      <trkpt lat="41.0929330" lon="0.6475760">
        <ele>32.0</ele>
        <time>2020-08-08T19:58:23Z</time>
      </trkpt>
      <trkpt lat="41.0929980" lon="0.6475890">
        <ele>32.1</ele>
        <time>2020-08-08T19:58:25Z</time>
      </trkpt>
      <trkpt lat="41.0930630" lon="0.6475980">
        <ele>32.1</ele>
        <time>2020-08-08T19:58:27Z</time>
      </trkpt>
      <trkpt lat="41.0930940" lon="0.6476010">
        <ele>32.2</ele>
        <time>2020-08-08T19:58:28Z</time>
      </trkpt>
      <trkpt lat="41.0931250" lon="0.6476050">
        <ele>32.2</ele>
        <time>2020-08-08T19:58:29Z</time>
      </trkpt>
      <trkpt lat="41.0931540" lon="0.6476090">
        <ele>32.2</ele>
        <time>2020-08-08T19:58:30Z</time>
      </trkpt>
      <trkpt lat="41.0931830" lon="0.6476130">
        <ele>32.2</ele>
        <time>2020-08-08T19:58:31Z</time>
      </trkpt>
      <trkpt lat="41.0932380" lon="0.6476240">
        <ele>32.2</ele>
        <time>2020-08-08T19:58:33Z</time>
      </trkpt>
      <trkpt lat="41.0932650" lon="0.6476300">
        <ele>32.1</ele>
        <time>2020-08-08T19:58:34Z</time>
      </trkpt>
      <trkpt lat="41.0933240" lon="0.6476400">
        <ele>32.1</ele>
        <time>2020-08-08T19:58:36Z</time>
      </trkpt>
      <trkpt lat="41.0933520" lon="0.6476450">
        <ele>32.0</ele>
        <time>2020-08-08T19:58:37Z</time>
      </trkpt>
      <trkpt lat="41.0934170" lon="0.6476580">
        <ele>32.0</ele>
        <time>2020-08-08T19:58:39Z</time>
      </trkpt>
      <trkpt lat="41.0934490" lon="0.6476650">
        <ele>31.9</ele>
        <time>2020-08-08T19:58:40Z</time>
      </trkpt>
      <trkpt lat="41.0935070" lon="0.6476760">
        <ele>31.9</ele>
        <time>2020-08-08T19:58:42Z</time>
      </trkpt>
      <trkpt lat="41.0935380" lon="0.6476810">
        <ele>31.9</ele>
        <time>2020-08-08T19:58:43Z</time>
      </trkpt>
      <trkpt lat="41.0935970" lon="0.6476900">
        <ele>31.9</ele>
        <time>2020-08-08T19:58:45Z</time>
      </trkpt>
      <trkpt lat="41.0936280" lon="0.6476960">
        <ele>31.9</ele>
        <time>2020-08-08T19:58:46Z</time>
      </trkpt>
      <trkpt lat="41.0936590" lon="0.6477010">
        <ele>31.9</ele>
        <time>2020-08-08T19:58:47Z</time>
      </trkpt>
      <trkpt lat="41.0936880" lon="0.6477050">
        <ele>31.9</ele>
        <time>2020-08-08T19:58:48Z</time>
      </trkpt>
      <trkpt lat="41.0937430" lon="0.6477170">
        <ele>31.9</ele>
        <time>2020-08-08T19:58:50Z</time>
      </trkpt>
      <trkpt lat="41.0938000" lon="0.6477340">
        <ele>31.9</ele>
        <time>2020-08-08T19:58:52Z</time>
      </trkpt>
      <trkpt lat="41.0938330" lon="0.6477420">
        <ele>31.9</ele>
        <time>2020-08-08T19:58:53Z</time>
      </trkpt>
      <trkpt lat="41.0939000" lon="0.6477550">
        <ele>31.9</ele>
        <time>2020-08-08T19:58:55Z</time>
      </trkpt>
      <trkpt lat="41.0939330" lon="0.6477620">
        <ele>31.9</ele>
        <time>2020-08-08T19:58:56Z</time>
      </trkpt>
      <trkpt lat="41.0939680" lon="0.6477690">
        <ele>31.9</ele>
        <time>2020-08-08T19:58:57Z</time>
      </trkpt>
      <trkpt lat="41.0940350" lon="0.6477810">
        <ele>31.9</ele>
        <time>2020-08-08T19:58:59Z</time>
      </trkpt>
      <trkpt lat="41.0940700" lon="0.6477860">
        <ele>31.9</ele>
        <time>2020-08-08T19:59:00Z</time>
      </trkpt>
      <trkpt lat="41.0941060" lon="0.6477920">
        <ele>31.9</ele>
        <time>2020-08-08T19:59:01Z</time>
      </trkpt>
      <trkpt lat="41.0941770" lon="0.6478080">
        <ele>31.9</ele>
        <time>2020-08-08T19:59:03Z</time>
      </trkpt>
      <trkpt lat="41.0942090" lon="0.6478150">
        <ele>31.9</ele>
        <time>2020-08-08T19:59:04Z</time>
      </trkpt>
      <trkpt lat="41.0942450" lon="0.6478220">
        <ele>31.9</ele>
        <time>2020-08-08T19:59:05Z</time>
      </trkpt>
      <trkpt lat="41.0943140" lon="0.6478360">
        <ele>31.8</ele>
        <time>2020-08-08T19:59:07Z</time>
      </trkpt>
      <trkpt lat="41.0943820" lon="0.6478520">
        <ele>31.8</ele>
        <time>2020-08-08T19:59:09Z</time>
      </trkpt>
      <trkpt lat="41.0944200" lon="0.6478590">
        <ele>31.8</ele>
        <time>2020-08-08T19:59:10Z</time>
      </trkpt>
      <trkpt lat="41.0944590" lon="0.6478660">
        <ele>31.8</ele>
        <time>2020-08-08T19:59:11Z</time>
      </trkpt>
      <trkpt lat="41.0945360" lon="0.6478790">
        <ele>31.8</ele>
        <time>2020-08-08T19:59:13Z</time>
      </trkpt>
      <trkpt lat="41.0945770" lon="0.6478870">
        <ele>31.8</ele>
        <time>2020-08-08T19:59:14Z</time>
      </trkpt>
      <trkpt lat="41.0946610" lon="0.6479040">
        <ele>31.8</ele>
        <time>2020-08-08T19:59:16Z</time>
      </trkpt>
      <trkpt lat="41.0947010" lon="0.6479120">
        <ele>31.7</ele>
        <time>2020-08-08T19:59:17Z</time>
      </trkpt>
      <trkpt lat="41.0947750" lon="0.6479260">
        <ele>31.7</ele>
        <time>2020-08-08T19:59:19Z</time>
      </trkpt>
      <trkpt lat="41.0948140" lon="0.6479320">
        <ele>31.7</ele>
        <time>2020-08-08T19:59:20Z</time>
      </trkpt>
      <trkpt lat="41.0948510" lon="0.6479380">
        <ele>31.7</ele>
        <time>2020-08-08T19:59:21Z</time>
      </trkpt>
      <trkpt lat="41.0948880" lon="0.6479460">
        <ele>31.7</ele>
        <time>2020-08-08T19:59:22Z</time>
      </trkpt>
      <trkpt lat="41.0949640" lon="0.6479620">
        <ele>31.6</ele>
        <time>2020-08-08T19:59:24Z</time>
      </trkpt>
      <trkpt lat="41.0950390" lon="0.6479780">
        <ele>31.6</ele>
        <time>2020-08-08T19:59:26Z</time>
      </trkpt>
      <trkpt lat="41.0950780" lon="0.6479860">
        <ele>31.6</ele>
        <time>2020-08-08T19:59:27Z</time>
      </trkpt>
      <trkpt lat="41.0951530" lon="0.6480000">
        <ele>31.6</ele>
        <time>2020-08-08T19:59:29Z</time>
      </trkpt>
      <trkpt lat="41.0952300" lon="0.6480170">
        <ele>31.6</ele>
        <time>2020-08-08T19:59:31Z</time>
      </trkpt>
      <trkpt lat="41.0952640" lon="0.6480250">
        <ele>31.5</ele>
        <time>2020-08-08T19:59:32Z</time>
      </trkpt>
      <trkpt lat="41.0953030" lon="0.6480330">
        <ele>31.5</ele>
        <time>2020-08-08T19:59:33Z</time>
      </trkpt>
      <trkpt lat="41.0953790" lon="0.6480470">
        <ele>31.4</ele>
        <time>2020-08-08T19:59:35Z</time>
      </trkpt>
      <trkpt lat="41.0954520" lon="0.6480610">
        <ele>31.4</ele>
        <time>2020-08-08T19:59:37Z</time>
      </trkpt>
      <trkpt lat="41.0954920" lon="0.6480680">
        <ele>31.4</ele>
        <time>2020-08-08T19:59:38Z</time>
      </trkpt>
      <trkpt lat="41.0955680" lon="0.6480840">
        <ele>31.3</ele>
        <time>2020-08-08T19:59:40Z</time>
      </trkpt>
      <trkpt lat="41.0956060" lon="0.6480920">
        <ele>31.3</ele>
        <time>2020-08-08T19:59:41Z</time>
      </trkpt>
      <trkpt lat="41.0956860" lon="0.6481100">
        <ele>31.2</ele>
        <time>2020-08-08T19:59:43Z</time>
      </trkpt>
      <trkpt lat="41.0957680" lon="0.6481280">
        <ele>31.2</ele>
        <time>2020-08-08T19:59:45Z</time>
      </trkpt>
      <trkpt lat="41.0958110" lon="0.6481370">
        <ele>31.3</ele>
        <time>2020-08-08T19:59:46Z</time>
      </trkpt>
      <trkpt lat="41.0958520" lon="0.6481450">
        <ele>31.4</ele>
        <time>2020-08-08T19:59:47Z</time>
      </trkpt>
      <trkpt lat="41.0959240" lon="0.6481670">
        <ele>31.5</ele>
        <time>2020-08-08T19:59:49Z</time>
      </trkpt>
      <trkpt lat="41.0959570" lon="0.6481830">
        <ele>31.5</ele>
        <time>2020-08-08T19:59:50Z</time>
      </trkpt>
      <trkpt lat="41.0960160" lon="0.6482360">
        <ele>31.7</ele>
        <time>2020-08-08T19:59:52Z</time>
      </trkpt>
      <trkpt lat="41.0960440" lon="0.6482660">
        <ele>32.1</ele>
        <time>2020-08-08T19:59:53Z</time>
      </trkpt>
      <trkpt lat="41.0960700" lon="0.6482980">
        <ele>31.7</ele>
        <time>2020-08-08T19:59:54Z</time>
      </trkpt>
      <trkpt lat="41.0960930" lon="0.6483250">
        <ele>31.4</ele>
        <time>2020-08-08T19:59:55Z</time>
      </trkpt>
      <trkpt lat="41.0961530" lon="0.6483680">
        <ele>31.1</ele>
        <time>2020-08-08T19:59:57Z</time>
      </trkpt>
      <trkpt lat="41.0962230" lon="0.6483750">
        <ele>31.2</ele>
        <time>2020-08-08T19:59:59Z</time>
      </trkpt>
      <trkpt lat="41.0962620" lon="0.6483600">
        <ele>31.3</ele>
        <time>2020-08-08T20:00:00Z</time>
      </trkpt>
      <trkpt lat="41.0963000" lon="0.6483370">
        <ele>31.4</ele>
        <time>2020-08-08T20:00:01Z</time>
      </trkpt>
      <trkpt lat="41.0963360" lon="0.6483100">
        <ele>31.5</ele>
        <time>2020-08-08T20:00:02Z</time>
      </trkpt>
      <trkpt lat="41.0964120" lon="0.6482710">
        <ele>31.6</ele>
        <time>2020-08-08T20:00:04Z</time>
      </trkpt>
      <trkpt lat="41.0964540" lon="0.6482640">
        <ele>31.6</ele>
        <time>2020-08-08T20:00:05Z</time>
      </trkpt>
      <trkpt lat="41.0964970" lon="0.6482650">
        <ele>31.7</ele>
        <time>2020-08-08T20:00:06Z</time>
      </trkpt>
      <trkpt lat="41.0965940" lon="0.6482830">
        <ele>31.7</ele>
        <time>2020-08-08T20:00:08Z</time>
      </trkpt>
      <trkpt lat="41.0966460" lon="0.6482930">
        <ele>31.7</ele>
        <time>2020-08-08T20:00:09Z</time>
      </trkpt>
      <trkpt lat="41.0966990" lon="0.6483020">
        <ele>31.7</ele>
        <time>2020-08-08T20:00:10Z</time>
      </trkpt>
      <trkpt lat="41.0967520" lon="0.6483100">
        <ele>31.7</ele>
        <time>2020-08-08T20:00:11Z</time>
      </trkpt>
      <trkpt lat="41.0968050" lon="0.6483190">
        <ele>31.7</ele>
        <time>2020-08-08T20:00:12Z</time>
      </trkpt>
      <trkpt lat="41.0968560" lon="0.6483310">
        <ele>31.7</ele>
        <time>2020-08-08T20:00:13Z</time>
      </trkpt>
      <trkpt lat="41.0969050" lon="0.6483440">
        <ele>31.7</ele>
        <time>2020-08-08T20:00:14Z</time>
      </trkpt>
      <trkpt lat="41.0969930" lon="0.6483700">
        <ele>31.7</ele>
        <time>2020-08-08T20:00:16Z</time>
      </trkpt>
      <trkpt lat="41.0970350" lon="0.6483820">
        <ele>31.7</ele>
        <time>2020-08-08T20:00:17Z</time>
      </trkpt>
      <trkpt lat="41.0970770" lon="0.6483940">
        <ele>31.7</ele>
        <time>2020-08-08T20:00:18Z</time>
      </trkpt>
      <trkpt lat="41.0971510" lon="0.6484100">
        <ele>31.7</ele>
        <time>2020-08-08T20:00:20Z</time>
      </trkpt>
      <trkpt lat="41.0971910" lon="0.6484160">
        <ele>31.7</ele>
        <time>2020-08-08T20:00:21Z</time>
      </trkpt>
      <trkpt lat="41.0972610" lon="0.6484220">
        <ele>31.7</ele>
        <time>2020-08-08T20:00:23Z</time>
      </trkpt>
      <trkpt lat="41.0972960" lon="0.6484290">
        <ele>31.7</ele>
        <time>2020-08-08T20:00:24Z</time>
      </trkpt>
      <trkpt lat="41.0973370" lon="0.6484370">
        <ele>31.7</ele>
        <time>2020-08-08T20:00:25Z</time>
      </trkpt>
      <trkpt lat="41.0973830" lon="0.6484440">
        <ele>31.7</ele>
        <time>2020-08-08T20:00:26Z</time>
      </trkpt>
      <trkpt lat="41.0974770" lon="0.6484560">
        <ele>31.7</ele>
        <time>2020-08-08T20:00:28Z</time>
      </trkpt>
      <trkpt lat="41.0975270" lon="0.6484680">
        <ele>31.7</ele>
        <time>2020-08-08T20:00:29Z</time>
      </trkpt>
      <trkpt lat="41.0975750" lon="0.6484800">
        <ele>31.8</ele>
        <time>2020-08-08T20:00:30Z</time>
      </trkpt>
      <trkpt lat="41.0976570" lon="0.6484980">
        <ele>31.8</ele>
        <time>2020-08-08T20:00:32Z</time>
      </trkpt>
      <trkpt lat="41.0976920" lon="0.6485100">
        <ele>31.8</ele>
        <time>2020-08-08T20:00:33Z</time>
      </trkpt>
      <trkpt lat="41.0977220" lon="0.6485220">
        <ele>31.9</ele>
        <time>2020-08-08T20:00:34Z</time>
      </trkpt>
      <trkpt lat="41.0977810" lon="0.6485560">
        <ele>31.9</ele>
        <time>2020-08-08T20:00:36Z</time>
      </trkpt>
      <trkpt lat="41.0978450" lon="0.6486010">
        <ele>32.0</ele>
        <time>2020-08-08T20:00:38Z</time>
      </trkpt>
      <trkpt lat="41.0978790" lon="0.6486260">
        <ele>32.0</ele>
        <time>2020-08-08T20:00:39Z</time>
      </trkpt>
      <trkpt lat="41.0979080" lon="0.6486530">
        <ele>32.0</ele>
        <time>2020-08-08T20:00:40Z</time>
      </trkpt>
      <trkpt lat="41.0979360" lon="0.6486810">
        <ele>32.1</ele>
        <time>2020-08-08T20:00:41Z</time>
      </trkpt>
      <trkpt lat="41.0979940" lon="0.6487480">
        <ele>32.1</ele>
        <time>2020-08-08T20:00:43Z</time>
      </trkpt>
      <trkpt lat="41.0980440" lon="0.6488220">
        <ele>32.3</ele>
        <time>2020-08-08T20:00:45Z</time>
      </trkpt>
      <trkpt lat="41.0980610" lon="0.6488590">
        <ele>32.4</ele>
        <time>2020-08-08T20:00:46Z</time>
      </trkpt>
      <trkpt lat="41.0980960" lon="0.6489330">
        <ele>32.7</ele>
        <time>2020-08-08T20:00:48Z</time>
      </trkpt>
      <trkpt lat="41.0981080" lon="0.6489670">
        <ele>32.8</ele>
        <time>2020-08-08T20:00:49Z</time>
      </trkpt>
      <trkpt lat="41.0981290" lon="0.6490320">
        <ele>33.0</ele>
        <time>2020-08-08T20:00:51Z</time>
      </trkpt>
      <trkpt lat="41.0981400" lon="0.6490750">
        <ele>33.2</ele>
        <time>2020-08-08T20:00:52Z</time>
      </trkpt>
      <trkpt lat="41.0981430" lon="0.6490890">
        <ele>33.2</ele>
        <time>2020-08-08T20:00:53Z</time>
      </trkpt>
      <trkpt lat="41.0981520" lon="0.6491150">
        <ele>33.3</ele>
        <time>2020-08-08T20:00:54Z</time>
      </trkpt>
      <trkpt lat="41.0981630" lon="0.6491620">
        <ele>33.4</ele>
        <time>2020-08-08T20:00:56Z</time>
      </trkpt>
      <trkpt lat="41.0981700" lon="0.6491850">
        <ele>33.5</ele>
        <time>2020-08-08T20:00:57Z</time>
      </trkpt>
      <trkpt lat="41.0981760" lon="0.6492290">
        <ele>33.6</ele>
        <time>2020-08-08T20:00:59Z</time>
      </trkpt>
      <trkpt lat="41.0981840" lon="0.6492480">
        <ele>33.7</ele>
        <time>2020-08-08T20:01:00Z</time>
      </trkpt>
      <trkpt lat="41.0981920" lon="0.6492660">
        <ele>33.7</ele>
        <time>2020-08-08T20:01:01Z</time>
      </trkpt>
      <trkpt lat="41.0982000" lon="0.6492820">
        <ele>33.7</ele>
        <time>2020-08-08T20:01:02Z</time>
      </trkpt>
      <trkpt lat="41.0982170" lon="0.6492960">
        <ele>33.8</ele>
        <time>2020-08-08T20:01:04Z</time>
      </trkpt>
      <trkpt lat="41.0982250" lon="0.6492990">
        <ele>33.8</ele>
        <time>2020-08-08T20:01:05Z</time>
      </trkpt>
      <trkpt lat="41.0982330" lon="0.6493020">
        <ele>33.8</ele>
        <time>2020-08-08T20:01:06Z</time>
      </trkpt>
      <trkpt lat="41.0982410" lon="0.6493060">
        <ele>33.8</ele>
        <time>2020-08-08T20:01:07Z</time>
      </trkpt>
      <trkpt lat="41.0982570" lon="0.6493210">
        <ele>33.9</ele>
        <time>2020-08-08T20:01:09Z</time>
      </trkpt>
      <trkpt lat="41.0982640" lon="0.6493270">
        <ele>33.9</ele>
        <time>2020-08-08T20:01:10Z</time>
      </trkpt>
      <trkpt lat="41.0982740" lon="0.6493280">
        <ele>33.9</ele>
        <time>2020-08-08T20:01:11Z</time>
      </trkpt>
      <trkpt lat="41.0982930" lon="0.6493140">
        <ele>34.0</ele>
        <time>2020-08-08T20:01:13Z</time>
      </trkpt>
      <trkpt lat="41.0983000" lon="0.6493030">
        <ele>34.0</ele>
        <time>2020-08-08T20:01:14Z</time>
      </trkpt>
      <trkpt lat="41.0983110" lon="0.6492890">
        <ele>34.0</ele>
        <time>2020-08-08T20:01:16Z</time>
      </trkpt>
      <trkpt lat="41.0983130" lon="0.6492880">
        <ele>34.0</ele>
        <time>2020-08-08T20:01:17Z</time>
      </trkpt>
      <trkpt lat="41.0983130" lon="0.6492890">
        <ele>34.0</ele>
        <time>2020-08-08T20:01:18Z</time>
      </trkpt>
      <trkpt lat="41.0983140" lon="0.6492890">
        <ele>34.0</ele>
        <time>2020-08-08T20:01:19Z</time>
      </trkpt>
      <trkpt lat="41.0983150" lon="0.6492910">
        <ele>34.0</ele>
        <time>2020-08-08T20:01:21Z</time>
      </trkpt>
      <trkpt lat="41.0983150" lon="0.6492910">
        <ele>34.0</ele>
        <time>2020-08-08T20:01:22Z</time>
      </trkpt>
      <trkpt lat="41.0983160" lon="0.6492920">
        <ele>34.0</ele>
        <time>2020-08-08T20:01:23Z</time>
      </trkpt>
      <trkpt lat="41.0983160" lon="0.6492930">
        <ele>34.0</ele>
        <time>2020-08-08T20:01:24Z</time>
      </trkpt>
      <trkpt lat="41.0983150" lon="0.6492950">
        <ele>34.0</ele>
        <time>2020-08-08T20:01:26Z</time>
      </trkpt>
      <trkpt lat="41.0983150" lon="0.6492950">
        <ele>34.0</ele>
        <time>2020-08-08T20:01:28Z</time>
      </trkpt>
      <trkpt lat="41.0983510" lon="0.6493190">
        <ele>34.1</ele>
        <time>2020-08-08T20:01:42Z</time>
      </trkpt>
      <trkpt lat="41.0983780" lon="0.6493460">
        <ele>34.2</ele>
        <time>2020-08-08T20:01:43Z</time>
      </trkpt>
      <trkpt lat="41.0984060" lon="0.6493800">
        <ele>34.3</ele>
        <time>2020-08-08T20:01:44Z</time>
      </trkpt>
      <trkpt lat="41.0984110" lon="0.6493730">
        <ele>34.3</ele>
        <time>2020-08-08T20:01:46Z</time>
      </trkpt>
      <trkpt lat="41.0984100" lon="0.6493740">
        <ele>34.3</ele>
        <time>2020-08-08T20:01:47Z</time>
      </trkpt>
      <trkpt lat="41.0984040" lon="0.6493680">
        <ele>34.3</ele>
        <time>2020-08-08T20:01:48Z</time>
      </trkpt>
      <trkpt lat="41.0984120" lon="0.6493690">
        <ele>34.4</ele>
        <time>2020-08-08T20:01:50Z</time>
      </trkpt>
      <trkpt lat="41.0984230" lon="0.6493760">
        <ele>34.4</ele>
        <time>2020-08-08T20:01:51Z</time>
      </trkpt>
      <trkpt lat="41.0984310" lon="0.6493800">
        <ele>34.4</ele>
        <time>2020-08-08T20:01:52Z</time>
      </trkpt>
      <trkpt lat="41.0984450" lon="0.6493840">
        <ele>34.5</ele>
        <time>2020-08-08T20:01:54Z</time>
      </trkpt>
      <trkpt lat="41.0984440" lon="0.6493790">
        <ele>34.5</ele>
        <time>2020-08-08T20:01:56Z</time>
      </trkpt>
      <trkpt lat="41.0984540" lon="0.6493820">
        <ele>34.5</ele>
        <time>2020-08-08T20:01:57Z</time>
      </trkpt>
      <trkpt lat="41.0984660" lon="0.6493850">
        <ele>34.6</ele>
        <time>2020-08-08T20:01:58Z</time>
      </trkpt>
      <trkpt lat="41.0984860" lon="0.6493980">
        <ele>34.6</ele>
        <time>2020-08-08T20:02:00Z</time>
      </trkpt>
      <trkpt lat="41.0985010" lon="0.6494180">
        <ele>34.7</ele>
        <time>2020-08-08T20:02:01Z</time>
      </trkpt>
      <trkpt lat="41.0985220" lon="0.6494410">
        <ele>34.8</ele>
        <time>2020-08-08T20:02:03Z</time>
      </trkpt>
      <trkpt lat="41.0985350" lon="0.6494580">
        <ele>34.9</ele>
        <time>2020-08-08T20:02:04Z</time>
      </trkpt>
      <trkpt lat="41.0985560" lon="0.6494840">
        <ele>35.0</ele>
        <time>2020-08-08T20:02:06Z</time>
      </trkpt>
      <trkpt lat="41.0985770" lon="0.6495080">
        <ele>35.1</ele>
        <time>2020-08-08T20:02:07Z</time>
      </trkpt>
      <trkpt lat="41.0986030" lon="0.6495390">
        <ele>35.2</ele>
        <time>2020-08-08T20:02:08Z</time>
      </trkpt>
      <trkpt lat="41.0986130" lon="0.6495520">
        <ele>35.3</ele>
        <time>2020-08-08T20:02:09Z</time>
      </trkpt>
      <trkpt lat="41.0986420" lon="0.6495860">
        <ele>35.4</ele>
        <time>2020-08-08T20:02:11Z</time>
      </trkpt>
      <trkpt lat="41.0986600" lon="0.6496060">
        <ele>35.5</ele>
        <time>2020-08-08T20:02:12Z</time>
      </trkpt>
      <trkpt lat="41.0986870" lon="0.6496330">
        <ele>35.6</ele>
        <time>2020-08-08T20:02:14Z</time>
      </trkpt>
      <trkpt lat="41.0987100" lon="0.6496550">
        <ele>35.6</ele>
        <time>2020-08-08T20:02:15Z</time>
      </trkpt>
      <trkpt lat="41.0987460" lon="0.6496840">
        <ele>35.8</ele>
        <time>2020-08-08T20:02:16Z</time>
      </trkpt>
      <trkpt lat="41.0987580" lon="0.6496950">
        <ele>35.8</ele>
        <time>2020-08-08T20:02:17Z</time>
      </trkpt>
      <trkpt lat="41.0987870" lon="0.6497190">
        <ele>35.9</ele>
        <time>2020-08-08T20:02:18Z</time>
      </trkpt>
      <trkpt lat="41.0987960" lon="0.6497270">
        <ele>35.9</ele>
        <time>2020-08-08T20:02:19Z</time>
      </trkpt>
      <trkpt lat="41.0988310" lon="0.6497580">
        <ele>36.0</ele>
        <time>2020-08-08T20:02:21Z</time>
      </trkpt>
      <trkpt lat="41.0988420" lon="0.6497660">
        <ele>36.0</ele>
        <time>2020-08-08T20:02:22Z</time>
      </trkpt>
      <trkpt lat="41.0988530" lon="0.6497750">
        <ele>36.0</ele>
        <time>2020-08-08T20:02:23Z</time>
      </trkpt>
      <trkpt lat="41.0988770" lon="0.6497970">
        <ele>36.1</ele>
        <time>2020-08-08T20:02:26Z</time>
      </trkpt>
      <trkpt lat="41.0988890" lon="0.6498080">
        <ele>36.1</ele>
        <time>2020-08-08T20:02:27Z</time>
      </trkpt>
      <trkpt lat="41.0989060" lon="0.6498230">
        <ele>36.1</ele>
        <time>2020-08-08T20:02:28Z</time>
      </trkpt>
      <trkpt lat="41.0989410" lon="0.6498380">
        <ele>36.2</ele>
        <time>2020-08-08T20:02:30Z</time>
      </trkpt>
      <trkpt lat="41.0989720" lon="0.6498570">
        <ele>36.2</ele>
        <time>2020-08-08T20:02:31Z</time>
      </trkpt>
      <trkpt lat="41.0990100" lon="0.6498760">
        <ele>36.2</ele>
        <time>2020-08-08T20:02:32Z</time>
      </trkpt>
      <trkpt lat="41.0990410" lon="0.6498990">
        <ele>36.2</ele>
        <time>2020-08-08T20:02:34Z</time>
      </trkpt>
      <trkpt lat="41.0990720" lon="0.6499150">
        <ele>36.2</ele>
        <time>2020-08-08T20:02:35Z</time>
      </trkpt>
      <trkpt lat="41.0990830" lon="0.6499200">
        <ele>36.2</ele>
        <time>2020-08-08T20:02:36Z</time>
      </trkpt>
      <trkpt lat="41.0991530" lon="0.6499510">
        <ele>36.2</ele>
        <time>2020-08-08T20:02:39Z</time>
      </trkpt>
      <trkpt lat="41.0991950" lon="0.6499640">
        <ele>36.2</ele>
        <time>2020-08-08T20:02:41Z</time>
      </trkpt>
      <trkpt lat="41.0992150" lon="0.6499640">
        <ele>36.2</ele>
        <time>2020-08-08T20:02:42Z</time>
      </trkpt>
      <trkpt lat="41.0992520" lon="0.6499680">
        <ele>36.2</ele>
        <time>2020-08-08T20:02:44Z</time>
      </trkpt>
      <trkpt lat="41.0992860" lon="0.6499760">
        <ele>36.2</ele>
        <time>2020-08-08T20:02:45Z</time>
      </trkpt>
      <trkpt lat="41.0993170" lon="0.6499800">
        <ele>36.2</ele>
        <time>2020-08-08T20:02:46Z</time>
      </trkpt>
      <trkpt lat="41.0993570" lon="0.6500060">
        <ele>36.1</ele>
        <time>2020-08-08T20:02:47Z</time>
      </trkpt>
      <trkpt lat="41.0993980" lon="0.6500340">
        <ele>36.1</ele>
        <time>2020-08-08T20:02:48Z</time>
      </trkpt>
      <trkpt lat="41.0994550" lon="0.6500770">
        <ele>36.0</ele>
        <time>2020-08-08T20:02:49Z</time>
      </trkpt>
      <trkpt lat="41.0995080" lon="0.6501150">
        <ele>36.0</ele>
        <time>2020-08-08T20:02:51Z</time>
      </trkpt>
      <trkpt lat="41.0995630" lon="0.6501620">
        <ele>35.9</ele>
        <time>2020-08-08T20:02:52Z</time>
      </trkpt>
      <trkpt lat="41.0995890" lon="0.6501790">
        <ele>35.8</ele>
        <time>2020-08-08T20:02:53Z</time>
      </trkpt>
      <trkpt lat="41.0996150" lon="0.6502000">
        <ele>35.7</ele>
        <time>2020-08-08T20:02:54Z</time>
      </trkpt>
      <trkpt lat="41.0996680" lon="0.6502450">
        <ele>35.6</ele>
        <time>2020-08-08T20:02:56Z</time>
      </trkpt>
      <trkpt lat="41.0997130" lon="0.6503090">
        <ele>35.4</ele>
        <time>2020-08-08T20:02:58Z</time>
      </trkpt>
      <trkpt lat="41.0997970" lon="0.6503860">
        <ele>35.2</ele>
        <time>2020-08-08T20:02:59Z</time>
      </trkpt>
      <trkpt lat="41.0998920" lon="0.6504880">
        <ele>35.2</ele>
        <time>2020-08-08T20:03:01Z</time>
      </trkpt>
      <trkpt lat="41.0999270" lon="0.6505230">
        <ele>35.2</ele>
        <time>2020-08-08T20:03:02Z</time>
      </trkpt>
      <trkpt lat="41.0999820" lon="0.6505690">
        <ele>35.2</ele>
        <time>2020-08-08T20:03:03Z</time>
      </trkpt>
      <trkpt lat="41.1000270" lon="0.6506060">
        <ele>35.2</ele>
        <time>2020-08-08T20:03:05Z</time>
      </trkpt>
      <trkpt lat="41.1000520" lon="0.6506240">
        <ele>35.2</ele>
        <time>2020-08-08T20:03:06Z</time>
      </trkpt>
      <trkpt lat="41.1000720" lon="0.6506390">
        <ele>35.2</ele>
        <time>2020-08-08T20:03:07Z</time>
      </trkpt>
      <trkpt lat="41.1001120" lon="0.6506700">
        <ele>35.3</ele>
        <time>2020-08-08T20:03:09Z</time>
      </trkpt>
      <trkpt lat="41.1001340" lon="0.6506820">
        <ele>35.3</ele>
        <time>2020-08-08T20:03:10Z</time>
      </trkpt>
      <trkpt lat="41.1001750" lon="0.6507130">
        <ele>35.4</ele>
        <time>2020-08-08T20:03:12Z</time>
      </trkpt>
      <trkpt lat="41.1003840" lon="0.6508310">
        <ele>35.9</ele>
        <time>2020-08-08T20:03:14Z</time>
      </trkpt>
      <trkpt lat="41.1004520" lon="0.6508700">
        <ele>36.1</ele>
        <time>2020-08-08T20:03:15Z</time>
      </trkpt>
      <trkpt lat="41.1003950" lon="0.6508280">
        <ele>36.2</ele>
        <time>2020-08-08T20:03:16Z</time>
      </trkpt>
      <trkpt lat="41.1003830" lon="0.6508230">
        <ele>36.2</ele>
        <time>2020-08-08T20:03:17Z</time>
      </trkpt>
      <trkpt lat="41.1003770" lon="0.6508140">
        <ele>36.2</ele>
        <time>2020-08-08T20:03:18Z</time>
      </trkpt>
      <trkpt lat="41.1003720" lon="0.6508060">
        <ele>36.3</ele>
        <time>2020-08-08T20:03:19Z</time>
      </trkpt>
      <trkpt lat="41.1003660" lon="0.6507980">
        <ele>36.3</ele>
        <time>2020-08-08T20:03:20Z</time>
      </trkpt>
      <trkpt lat="41.1004210" lon="0.6508280">
        <ele>36.4</ele>
        <time>2020-08-08T20:03:22Z</time>
      </trkpt>
      <trkpt lat="41.1005540" lon="0.6509160">
        <ele>36.7</ele>
        <time>2020-08-08T20:03:24Z</time>
      </trkpt>
      <trkpt lat="41.1006560" lon="0.6509760">
        <ele>36.9</ele>
        <time>2020-08-08T20:03:26Z</time>
      </trkpt>
      <trkpt lat="41.1006680" lon="0.6509810">
        <ele>36.9</ele>
        <time>2020-08-08T20:03:27Z</time>
      </trkpt>
      <trkpt lat="41.1006700" lon="0.6509790">
        <ele>36.9</ele>
        <time>2020-08-08T20:03:28Z</time>
      </trkpt>
      <trkpt lat="41.1006650" lon="0.6509690">
        <ele>37.0</ele>
        <time>2020-08-08T20:03:30Z</time>
      </trkpt>
      <trkpt lat="41.1006600" lon="0.6509660">
        <ele>37.0</ele>
        <time>2020-08-08T20:03:31Z</time>
      </trkpt>
      <trkpt lat="41.1006580" lon="0.6509630">
        <ele>37.0</ele>
        <time>2020-08-08T20:03:32Z</time>
      </trkpt>
      <trkpt lat="41.1006580" lon="0.6509640">
        <ele>37.0</ele>
        <time>2020-08-08T20:03:33Z</time>
      </trkpt>
      <trkpt lat="41.1006610" lon="0.6509660">
        <ele>37.0</ele>
        <time>2020-08-08T20:03:34Z</time>
      </trkpt>
      <trkpt lat="41.1006640" lon="0.6509660">
        <ele>37.0</ele>
        <time>2020-08-08T20:03:35Z</time>
      </trkpt>
      <trkpt lat="41.1006690" lon="0.6509610">
        <ele>37.0</ele>
        <time>2020-08-08T20:03:37Z</time>
      </trkpt>
      <trkpt lat="41.1006700" lon="0.6509580">
        <ele>37.0</ele>
        <time>2020-08-08T20:03:38Z</time>
      </trkpt>
      <trkpt lat="41.1006730" lon="0.6509530">
        <ele>37.0</ele>
        <time>2020-08-08T20:03:40Z</time>
      </trkpt>
      <trkpt lat="41.1006730" lon="0.6509510">
        <ele>37.0</ele>
        <time>2020-08-08T20:03:41Z</time>
      </trkpt>
      <trkpt lat="41.1007110" lon="0.6509630">
        <ele>37.1</ele>
        <time>2020-08-08T20:06:07Z</time>
      </trkpt>
      <trkpt lat="41.1007590" lon="0.6509860">
        <ele>37.2</ele>
        <time>2020-08-08T20:06:09Z</time>
      </trkpt>
      <trkpt lat="41.1007820" lon="0.6509920">
        <ele>37.3</ele>
        <time>2020-08-08T20:06:11Z</time>
      </trkpt>
      <trkpt lat="41.1007920" lon="0.6509960">
        <ele>37.3</ele>
        <time>2020-08-08T20:06:12Z</time>
      </trkpt>
      <trkpt lat="41.1008040" lon="0.6509990">
        <ele>37.3</ele>
        <time>2020-08-08T20:06:13Z</time>
      </trkpt>
      <trkpt lat="41.1008120" lon="0.6510070">
        <ele>37.3</ele>
        <time>2020-08-08T20:06:14Z</time>
      </trkpt>
      <trkpt lat="41.1008160" lon="0.6510380">
        <ele>37.4</ele>
        <time>2020-08-08T20:06:16Z</time>
      </trkpt>
      <trkpt lat="41.1008220" lon="0.6510510">
        <ele>37.4</ele>
        <time>2020-08-08T20:06:17Z</time>
      </trkpt>
      <trkpt lat="41.1008280" lon="0.6510630">
        <ele>37.4</ele>
        <time>2020-08-08T20:06:18Z</time>
      </trkpt>
      <trkpt lat="41.1008350" lon="0.6510740">
        <ele>37.4</ele>
        <time>2020-08-08T20:06:19Z</time>
      </trkpt>
      <trkpt lat="41.1008430" lon="0.6510830">
        <ele>37.5</ele>
        <time>2020-08-08T20:06:20Z</time>
      </trkpt>
      <trkpt lat="41.1008490" lon="0.6510980">
        <ele>37.5</ele>
        <time>2020-08-08T20:06:22Z</time>
      </trkpt>
      <trkpt lat="41.1008470" lon="0.6511010">
        <ele>37.5</ele>
        <time>2020-08-08T20:06:23Z</time>
      </trkpt>
      <trkpt lat="41.1008510" lon="0.6511020">
        <ele>37.5</ele>
        <time>2020-08-08T20:06:24Z</time>
      </trkpt>
      <trkpt lat="41.1008620" lon="0.6510960">
        <ele>37.5</ele>
        <time>2020-08-08T20:06:26Z</time>
      </trkpt>
      <trkpt lat="41.1008650" lon="0.6510950">
        <ele>37.5</ele>
        <time>2020-08-08T20:06:27Z</time>
      </trkpt>
      <trkpt lat="41.1008680" lon="0.6510940">
        <ele>37.5</ele>
        <time>2020-08-08T20:06:28Z</time>
      </trkpt>
      <trkpt lat="41.1008770" lon="0.6510920">
        <ele>37.5</ele>
        <time>2020-08-08T20:06:30Z</time>
      </trkpt>
      <trkpt lat="41.1009270" lon="0.6511100">
        <ele>37.5</ele>
        <time>2020-08-08T20:06:32Z</time>
      </trkpt>
      <trkpt lat="41.1010350" lon="0.6511500">
        <ele>37.6</ele>
        <time>2020-08-08T20:06:34Z</time>
      </trkpt>
      <trkpt lat="41.1010910" lon="0.6511660">
        <ele>37.6</ele>
        <time>2020-08-08T20:06:35Z</time>
      </trkpt>
      <trkpt lat="41.1011240" lon="0.6511740">
        <ele>37.6</ele>
        <time>2020-08-08T20:06:36Z</time>
      </trkpt>
      <trkpt lat="41.1011560" lon="0.6511740">
        <ele>37.6</ele>
        <time>2020-08-08T20:06:38Z</time>
      </trkpt>
      <trkpt lat="41.1011710" lon="0.6511760">
        <ele>37.6</ele>
        <time>2020-08-08T20:06:40Z</time>
      </trkpt>
      <trkpt lat="41.1011850" lon="0.6511770">
        <ele>37.6</ele>
        <time>2020-08-08T20:06:41Z</time>
      </trkpt>
      <trkpt lat="41.1011990" lon="0.6511780">
        <ele>37.7</ele>
        <time>2020-08-08T20:06:43Z</time>
      </trkpt>
      <trkpt lat="41.1012130" lon="0.6511800">
        <ele>37.7</ele>
        <time>2020-08-08T20:06:44Z</time>
      </trkpt>
      <trkpt lat="41.1012280" lon="0.6511810">
        <ele>37.7</ele>
        <time>2020-08-08T20:06:45Z</time>
      </trkpt>
      <trkpt lat="41.1012420" lon="0.6511830">
        <ele>37.7</ele>
        <time>2020-08-08T20:06:47Z</time>
      </trkpt>
      <trkpt lat="41.1012560" lon="0.6511840">
        <ele>37.7</ele>
        <time>2020-08-08T20:06:48Z</time>
      </trkpt>
      <trkpt lat="41.1012700" lon="0.6511850">
        <ele>37.7</ele>
        <time>2020-08-08T20:06:50Z</time>
      </trkpt>
      <trkpt lat="41.1012850" lon="0.6511870">
        <ele>37.7</ele>
        <time>2020-08-08T20:12:09Z</time>
      </trkpt>
      <trkpt lat="41.1012990" lon="0.6511880">
        <ele>37.7</ele>
        <time>2020-08-08T20:12:10Z</time>
      </trkpt>
      <trkpt lat="41.1012120" lon="0.6511820">
        <ele>37.7</ele>
        <time>2020-08-08T20:12:11Z</time>
      </trkpt>
      <trkpt lat="41.1011990" lon="0.6511800">
        <ele>37.8</ele>
        <time>2020-08-08T20:12:12Z</time>
      </trkpt>
      <trkpt lat="41.1011930" lon="0.6511790">
        <ele>37.8</ele>
        <time>2020-08-08T20:12:13Z</time>
      </trkpt>
      <trkpt lat="41.1011880" lon="0.6511810">
        <ele>37.8</ele>
        <time>2020-08-08T20:12:15Z</time>
      </trkpt>
      <trkpt lat="41.1011880" lon="0.6511830">
        <ele>37.8</ele>
        <time>2020-08-08T20:12:17Z</time>
      </trkpt>
      <trkpt lat="41.1011890" lon="0.6511840">
        <ele>37.8</ele>
        <time>2020-08-08T20:12:18Z</time>
      </trkpt>
      <trkpt lat="41.1011890" lon="0.6511850">
        <ele>37.8</ele>
        <time>2020-08-08T20:12:19Z</time>
      </trkpt>
      <trkpt lat="41.1011890" lon="0.6511860">
        <ele>37.8</ele>
        <time>2020-08-08T20:12:21Z</time>
      </trkpt>
      <trkpt lat="41.1011890" lon="0.6511870">
        <ele>37.8</ele>
        <time>2020-08-08T20:12:22Z</time>
      </trkpt>
      <trkpt lat="41.1011890" lon="0.6511870">
        <ele>37.8</ele>
        <time>2020-08-08T20:12:24Z</time>
      </trkpt>
      <trkpt lat="41.1010580" lon="0.6514370">
        <ele>37.9</ele>
        <time>2020-08-08T20:14:39Z</time>
      </trkpt>
      <trkpt lat="41.1011870" lon="0.6511830">
        <ele>38.1</ele>
        <time>2020-08-08T20:16:23Z</time>
      </trkpt>
      <trkpt lat="41.1011860" lon="0.6511830">
        <ele>38.1</ele>
        <time>2020-08-08T20:16:24Z</time>
      </trkpt>
      <trkpt lat="41.1011870" lon="0.6511830">
        <ele>38.1</ele>
        <time>2020-08-08T20:16:26Z</time>
      </trkpt>
      <trkpt lat="41.1011870" lon="0.6511830">
        <ele>38.1</ele>
        <time>2020-08-08T20:16:28Z</time>
      </trkpt>
      <trkpt lat="41.1011870" lon="0.6511820">
        <ele>38.1</ele>
        <time>2020-08-08T20:16:29Z</time>
      </trkpt>
      <trkpt lat="41.1011880" lon="0.6511800">
        <ele>38.1</ele>
        <time>2020-08-08T20:16:31Z</time>
      </trkpt>
      <trkpt lat="41.1011870" lon="0.6511810">
        <ele>38.1</ele>
        <time>2020-08-08T20:16:32Z</time>
      </trkpt>
      <trkpt lat="41.1011850" lon="0.6511820">
        <ele>38.1</ele>
        <time>2020-08-08T20:16:34Z</time>
      </trkpt>
      <trkpt lat="41.1011850" lon="0.6511830">
        <ele>38.1</ele>
        <time>2020-08-08T20:16:36Z</time>
      </trkpt>
      <trkpt lat="41.1011850" lon="0.6511820">
        <ele>38.1</ele>
        <time>2020-08-08T20:16:37Z</time>
      </trkpt>
      <trkpt lat="41.1011860" lon="0.6511830">
        <ele>38.1</ele>
        <time>2020-08-08T20:16:38Z</time>
      </trkpt>
      <trkpt lat="41.1011860" lon="0.6511830">
        <ele>38.1</ele>
        <time>2020-08-08T20:16:40Z</time>
      </trkpt>
      <trkpt lat="41.1011860" lon="0.6511840">
        <ele>38.1</ele>
        <time>2020-08-08T20:16:41Z</time>
      </trkpt>
      <trkpt lat="41.1011860" lon="0.6511840">
        <ele>38.1</ele>
        <time>2020-08-08T20:16:42Z</time>
      </trkpt>
      <trkpt lat="41.1011860" lon="0.6511830">
        <ele>38.1</ele>
        <time>2020-08-08T20:16:44Z</time>
      </trkpt>
      <trkpt lat="41.1011860" lon="0.6511830">
        <ele>38.1</ele>
        <time>2020-08-08T20:16:45Z</time>
      </trkpt>
      <trkpt lat="41.1011870" lon="0.6511830">
        <ele>38.1</ele>
        <time>2020-08-08T20:16:46Z</time>
      </trkpt>
      <trkpt lat="41.1011870" lon="0.6511830">
        <ele>38.1</ele>
        <time>2020-08-08T20:16:47Z</time>
      </trkpt>
      <trkpt lat="41.1011860" lon="0.6511840">
        <ele>38.1</ele>
        <time>2020-08-08T20:16:49Z</time>
      </trkpt>
      <trkpt lat="41.1011860" lon="0.6511850">
        <ele>38.1</ele>
        <time>2020-08-08T20:16:50Z</time>
      </trkpt>
      <trkpt lat="41.1011850" lon="0.6511850">
        <ele>38.1</ele>
        <time>2020-08-08T20:16:51Z</time>
      </trkpt>
      <trkpt lat="41.1011840" lon="0.6511840">
        <ele>38.1</ele>
        <time>2020-08-08T20:16:53Z</time>
      </trkpt>
      <trkpt lat="41.1011830" lon="0.6511830">
        <ele>38.1</ele>
        <time>2020-08-08T20:16:54Z</time>
      </trkpt>
      <trkpt lat="41.1011830" lon="0.6511820">
        <ele>38.1</ele>
        <time>2020-08-08T20:16:55Z</time>
      </trkpt>
      <trkpt lat="41.1011830" lon="0.6511810">
        <ele>38.1</ele>
        <time>2020-08-08T20:16:57Z</time>
      </trkpt>
      <trkpt lat="41.1011830" lon="0.6511810">
        <ele>38.1</ele>
        <time>2020-08-08T20:16:58Z</time>
      </trkpt>
      <trkpt lat="41.1011840" lon="0.6511810">
        <ele>38.1</ele>
        <time>2020-08-08T20:16:59Z</time>
      </trkpt>
      <trkpt lat="41.1011840" lon="0.6511820">
        <ele>38.1</ele>
        <time>2020-08-08T20:17:01Z</time>
      </trkpt>
      <trkpt lat="41.1011850" lon="0.6511830">
        <ele>38.1</ele>
        <time>2020-08-08T20:17:02Z</time>
      </trkpt>
      <trkpt lat="41.1011850" lon="0.6511840">
        <ele>38.1</ele>
        <time>2020-08-08T20:17:03Z</time>
      </trkpt>
      <trkpt lat="41.1011860" lon="0.6511860">
        <ele>38.1</ele>
        <time>2020-08-08T20:17:05Z</time>
      </trkpt>
      <trkpt lat="41.1011850" lon="0.6511870">
        <ele>38.1</ele>
        <time>2020-08-08T20:17:07Z</time>
      </trkpt>
      <trkpt lat="41.1011850" lon="0.6511870">
        <ele>38.1</ele>
        <time>2020-08-08T20:17:08Z</time>
      </trkpt>
      <trkpt lat="41.1011860" lon="0.6511870">
        <ele>38.1</ele>
        <time>2020-08-08T20:17:09Z</time>
      </trkpt>
      <trkpt lat="41.1011870" lon="0.6511860">
        <ele>38.1</ele>
        <time>2020-08-08T20:17:11Z</time>
      </trkpt>
      <trkpt lat="41.1011880" lon="0.6511850">
        <ele>38.1</ele>
        <time>2020-08-08T20:17:13Z</time>
      </trkpt>
      <trkpt lat="41.1011890" lon="0.6511860">
        <ele>38.1</ele>
        <time>2020-08-08T20:17:15Z</time>
      </trkpt>
      <trkpt lat="41.1011890" lon="0.6511860">
        <ele>38.1</ele>
        <time>2020-08-08T20:17:16Z</time>
      </trkpt>
      <trkpt lat="41.1011890" lon="0.6511870">
        <ele>38.1</ele>
        <time>2020-08-08T20:17:18Z</time>
      </trkpt>
      <trkpt lat="41.1011890" lon="0.6511870">
        <ele>38.1</ele>
        <time>2020-08-08T20:17:20Z</time>
      </trkpt>
      <trkpt lat="41.1011890" lon="0.6511880">
        <ele>38.1</ele>
        <time>2020-08-08T20:17:22Z</time>
      </trkpt>
      <trkpt lat="41.1011890" lon="0.6511890">
        <ele>38.1</ele>
        <time>2020-08-08T20:17:23Z</time>
      </trkpt>
      <trkpt lat="41.1011880" lon="0.6511890">
        <ele>38.1</ele>
        <time>2020-08-08T20:17:24Z</time>
      </trkpt>
      <trkpt lat="41.1011870" lon="0.6511890">
        <ele>38.1</ele>
        <time>2020-08-08T20:17:26Z</time>
      </trkpt>
      <trkpt lat="41.1011860" lon="0.6511890">
        <ele>38.1</ele>
        <time>2020-08-08T20:17:27Z</time>
      </trkpt>
      <trkpt lat="41.1011850" lon="0.6511880">
        <ele>38.1</ele>
        <time>2020-08-08T20:17:28Z</time>
      </trkpt>
      <trkpt lat="41.1011850" lon="0.6511880">
        <ele>38.1</ele>
        <time>2020-08-08T20:17:30Z</time>
      </trkpt>
      <trkpt lat="41.1011850" lon="0.6511880">
        <ele>38.1</ele>
        <time>2020-08-08T20:17:31Z</time>
      </trkpt>
      <trkpt lat="41.1011850" lon="0.6511880">
        <ele>38.1</ele>
        <time>2020-08-08T20:17:33Z</time>
      </trkpt>
      <trkpt lat="41.1011850" lon="0.6511870">
        <ele>38.1</ele>
        <time>2020-08-08T20:17:34Z</time>
      </trkpt>
      <trkpt lat="41.1011850" lon="0.6511870">
        <ele>38.1</ele>
        <time>2020-08-08T20:17:36Z</time>
      </trkpt>
      <trkpt lat="41.1011850" lon="0.6511860">
        <ele>38.1</ele>
        <time>2020-08-08T20:17:44Z</time>
      </trkpt>
      <trkpt lat="41.1011860" lon="0.6511830">
        <ele>38.1</ele>
        <time>2020-08-08T20:17:45Z</time>
      </trkpt>
      <trkpt lat="41.1011890" lon="0.6511820">
        <ele>38.1</ele>
        <time>2020-08-08T20:17:46Z</time>
      </trkpt>
      <trkpt lat="41.1011890" lon="0.6511820">
        <ele>38.1</ele>
        <time>2020-08-08T20:17:47Z</time>
      </trkpt>
      <trkpt lat="41.1011890" lon="0.6511830">
        <ele>38.1</ele>
        <time>2020-08-08T20:17:48Z</time>
      </trkpt>
      <trkpt lat="41.1011890" lon="0.6511830">
        <ele>38.1</ele>
        <time>2020-08-08T20:17:50Z</time>
      </trkpt>
      <trkpt lat="41.1011890" lon="0.6511840">
        <ele>38.1</ele>
        <time>2020-08-08T20:17:51Z</time>
      </trkpt>
      <trkpt lat="41.1011890" lon="0.6511840">
        <ele>38.1</ele>
        <time>2020-08-08T20:17:52Z</time>
      </trkpt>
      <trkpt lat="41.1011890" lon="0.6511840">
        <ele>38.1</ele>
        <time>2020-08-08T20:17:54Z</time>
      </trkpt>
      <trkpt lat="41.1011890" lon="0.6511840">
        <ele>38.1</ele>
        <time>2020-08-08T20:17:55Z</time>
      </trkpt>
      <trkpt lat="41.1011890" lon="0.6511840">
        <ele>38.1</ele>
        <time>2020-08-08T20:17:56Z</time>
      </trkpt>
      <trkpt lat="41.1011890" lon="0.6511850">
        <ele>38.1</ele>
        <time>2020-08-08T20:17:57Z</time>
      </trkpt>
      <trkpt lat="41.1011890" lon="0.6511850">
        <ele>38.1</ele>
        <time>2020-08-08T20:17:58Z</time>
      </trkpt>
      <trkpt lat="41.1011890" lon="0.6511860">
        <ele>38.1</ele>
        <time>2020-08-08T20:17:59Z</time>
      </trkpt>
      <trkpt lat="41.1011880" lon="0.6511870">
        <ele>38.1</ele>
        <time>2020-08-08T20:18:00Z</time>
      </trkpt>
      <trkpt lat="41.1011880" lon="0.6511880">
        <ele>38.1</ele>
        <time>2020-08-08T20:18:01Z</time>
      </trkpt>
      <trkpt lat="41.1011880" lon="0.6511900">
        <ele>38.1</ele>
        <time>2020-08-08T20:18:02Z</time>
      </trkpt>
      <trkpt lat="41.1011880" lon="0.6511910">
        <ele>38.1</ele>
        <time>2020-08-08T20:18:03Z</time>
      </trkpt>
      <trkpt lat="41.1011870" lon="0.6511930">
        <ele>38.1</ele>
        <time>2020-08-08T20:18:05Z</time>
      </trkpt>
      <trkpt lat="41.1011870" lon="0.6511940">
        <ele>38.1</ele>
        <time>2020-08-08T20:18:06Z</time>
      </trkpt>
      <trkpt lat="41.1011870" lon="0.6511950">
        <ele>38.1</ele>
        <time>2020-08-08T20:18:08Z</time>
      </trkpt>
      <trkpt lat="41.1011870" lon="0.6511950">
        <ele>38.1</ele>
        <time>2020-08-08T20:18:09Z</time>
      </trkpt>
      <trkpt lat="41.1011880" lon="0.6511960">
        <ele>38.1</ele>
        <time>2020-08-08T20:18:11Z</time>
      </trkpt>
      <trkpt lat="41.1011890" lon="0.6511930">
        <ele>38.1</ele>
        <time>2020-08-08T20:18:12Z</time>
      </trkpt>
      <trkpt lat="41.1011890" lon="0.6511910">
        <ele>38.1</ele>
        <time>2020-08-08T20:18:13Z</time>
      </trkpt>
      <trkpt lat="41.1011900" lon="0.6511860">
        <ele>38.1</ele>
        <time>2020-08-08T20:18:15Z</time>
      </trkpt>
      <trkpt lat="41.1011900" lon="0.6511860">
        <ele>38.1</ele>
        <time>2020-08-08T20:18:17Z</time>
      </trkpt>
      <trkpt lat="41.1011900" lon="0.6511850">
        <ele>38.1</ele>
        <time>2020-08-08T20:18:18Z</time>
      </trkpt>
      <trkpt lat="41.1011890" lon="0.6511820">
        <ele>38.1</ele>
        <time>2020-08-08T20:18:19Z</time>
      </trkpt>
      <trkpt lat="41.1011890" lon="0.6511800">
        <ele>38.1</ele>
        <time>2020-08-08T20:18:21Z</time>
      </trkpt>
      <trkpt lat="41.1011890" lon="0.6511780">
        <ele>38.1</ele>
        <time>2020-08-08T20:18:23Z</time>
      </trkpt>
      <trkpt lat="41.1011880" lon="0.6511780">
        <ele>38.1</ele>
        <time>2020-08-08T20:18:24Z</time>
      </trkpt>
      <trkpt lat="41.1011880" lon="0.6511770">
        <ele>38.1</ele>
        <time>2020-08-08T20:18:26Z</time>
      </trkpt>
      <trkpt lat="41.1011880" lon="0.6511760">
        <ele>38.1</ele>
        <time>2020-08-08T20:18:27Z</time>
      </trkpt>
      <trkpt lat="41.1011880" lon="0.6511760">
        <ele>38.1</ele>
        <time>2020-08-08T20:18:28Z</time>
      </trkpt>
      <trkpt lat="41.1011880" lon="0.6511750">
        <ele>38.1</ele>
        <time>2020-08-08T20:18:29Z</time>
      </trkpt>
      <trkpt lat="41.1011880" lon="0.6511740">
        <ele>38.1</ele>
        <time>2020-08-08T20:18:31Z</time>
      </trkpt>
      <trkpt lat="41.1011880" lon="0.6511740">
        <ele>38.1</ele>
        <time>2020-08-08T20:18:32Z</time>
      </trkpt>
      <trkpt lat="41.1011870" lon="0.6511740">
        <ele>38.1</ele>
        <time>2020-08-08T20:18:34Z</time>
      </trkpt>
    </trkseg>
  </trk>
</gpx>
